<?xml version="1.0" encoding="UTF-8"?>
<gpx version="1.1" creator="https://www.youtrack.es" xsi:schemaLocation="http://www.topografix.com/GPX/1/1 http://www.topografix.com/GPX/1/1/gpx.xsd http://www.garmin.com/xmlschemas/GpxExtensions/v3 http://www.garmin.com/xmlschemas/GpxExtensionsv3.xsd http://www.garmin.com/xmlschemas/TrackPointExtension/v1 http://www.garmin.com/xmlschemas/TrackPointExtensionv1.xsd" xmlns:gpxtpx="http://www.garmin.com/xmlschemas/TrackPointExtension/v1" xmlns:gpxx="http://www.garmin.com/xmlschemas/GpxExtensions/v3" xmlns:xsi="http://www.w3.org/2001/XMLSchema-instance">
  <metadata>
    <link href="https://www.youtrack.es">
      <text>YouTrack.es</text>
    </link>
    <time>2026-05-08T21:08:53Z</time>
  </metadata>
  <trk>
    <src>https://www.youtrack.es</src>
    <link href="https://www.youtrack.es/ruta/8099-copa-btt-2019-all">
      <text>YouTrack.es</text>
    </link>
    <trkseg>
      <trkpt lat="39.2653870" lon="-1.5517120">
        <ele>659.6</ele>
        <time>2019-05-11T07:30:33Z</time>
      </trkpt>
      <trkpt lat="39.2653800" lon="-1.5517220">
        <ele>659.6</ele>
        <time>2019-05-11T07:30:34Z</time>
      </trkpt>
      <trkpt lat="39.2653670" lon="-1.5517370">
        <ele>659.8</ele>
        <time>2019-05-11T07:30:35Z</time>
      </trkpt>
      <trkpt lat="39.2653490" lon="-1.5517550">
        <ele>659.8</ele>
        <time>2019-05-11T07:30:36Z</time>
      </trkpt>
      <trkpt lat="39.2653280" lon="-1.5517760">
        <ele>659.8</ele>
        <time>2019-05-11T07:30:37Z</time>
      </trkpt>
      <trkpt lat="39.2653000" lon="-1.5518020">
        <ele>659.8</ele>
        <time>2019-05-11T07:30:38Z</time>
      </trkpt>
      <trkpt lat="39.2652660" lon="-1.5518350">
        <ele>659.8</ele>
        <time>2019-05-11T07:30:39Z</time>
      </trkpt>
      <trkpt lat="39.2652330" lon="-1.5518680">
        <ele>659.8</ele>
        <time>2019-05-11T07:30:40Z</time>
      </trkpt>
      <trkpt lat="39.2652030" lon="-1.5519010">
        <ele>659.6</ele>
        <time>2019-05-11T07:30:41Z</time>
      </trkpt>
      <trkpt lat="39.2651720" lon="-1.5519380">
        <ele>659.6</ele>
        <time>2019-05-11T07:30:42Z</time>
      </trkpt>
      <trkpt lat="39.2651380" lon="-1.5519780">
        <ele>659.6</ele>
        <time>2019-05-11T07:30:43Z</time>
      </trkpt>
      <trkpt lat="39.2650960" lon="-1.5520220">
        <ele>659.6</ele>
        <time>2019-05-11T07:30:44Z</time>
      </trkpt>
      <trkpt lat="39.2650500" lon="-1.5520690">
        <ele>659.6</ele>
        <time>2019-05-11T07:30:45Z</time>
      </trkpt>
      <trkpt lat="39.2650020" lon="-1.5521170">
        <ele>659.6</ele>
        <time>2019-05-11T07:30:46Z</time>
      </trkpt>
      <trkpt lat="39.2649530" lon="-1.5521670">
        <ele>659.6</ele>
        <time>2019-05-11T07:30:47Z</time>
      </trkpt>
      <trkpt lat="39.2649030" lon="-1.5522190">
        <ele>659.4</ele>
        <time>2019-05-11T07:30:48Z</time>
      </trkpt>
      <trkpt lat="39.2648520" lon="-1.5522690">
        <ele>659.2</ele>
        <time>2019-05-11T07:30:49Z</time>
      </trkpt>
      <trkpt lat="39.2648010" lon="-1.5523180">
        <ele>659.2</ele>
        <time>2019-05-11T07:30:50Z</time>
      </trkpt>
      <trkpt lat="39.2647510" lon="-1.5523680">
        <ele>659.4</ele>
        <time>2019-05-11T07:30:51Z</time>
      </trkpt>
      <trkpt lat="39.2647040" lon="-1.5524190">
        <ele>659.6</ele>
        <time>2019-05-11T07:30:52Z</time>
      </trkpt>
      <trkpt lat="39.2646580" lon="-1.5524690">
        <ele>659.6</ele>
        <time>2019-05-11T07:30:53Z</time>
      </trkpt>
      <trkpt lat="39.2646140" lon="-1.5525190">
        <ele>659.6</ele>
        <time>2019-05-11T07:30:54Z</time>
      </trkpt>
      <trkpt lat="39.2645690" lon="-1.5525710">
        <ele>659.4</ele>
        <time>2019-05-11T07:30:55Z</time>
      </trkpt>
      <trkpt lat="39.2645230" lon="-1.5526220">
        <ele>659.4</ele>
        <time>2019-05-11T07:30:56Z</time>
      </trkpt>
      <trkpt lat="39.2644750" lon="-1.5526700">
        <ele>659.4</ele>
        <time>2019-05-11T07:30:57Z</time>
      </trkpt>
      <trkpt lat="39.2644270" lon="-1.5527170">
        <ele>659.4</ele>
        <time>2019-05-11T07:30:58Z</time>
      </trkpt>
      <trkpt lat="39.2643780" lon="-1.5527650">
        <ele>659.2</ele>
        <time>2019-05-11T07:30:59Z</time>
      </trkpt>
      <trkpt lat="39.2643310" lon="-1.5528160">
        <ele>659.2</ele>
        <time>2019-05-11T07:31:00Z</time>
      </trkpt>
      <trkpt lat="39.2642840" lon="-1.5528720">
        <ele>659.2</ele>
        <time>2019-05-11T07:31:01Z</time>
      </trkpt>
      <trkpt lat="39.2642370" lon="-1.5529270">
        <ele>659.0</ele>
        <time>2019-05-11T07:31:02Z</time>
      </trkpt>
      <trkpt lat="39.2641890" lon="-1.5529790">
        <ele>658.8</ele>
        <time>2019-05-11T07:31:03Z</time>
      </trkpt>
      <trkpt lat="39.2641420" lon="-1.5530320">
        <ele>658.6</ele>
        <time>2019-05-11T07:31:04Z</time>
      </trkpt>
      <trkpt lat="39.2640960" lon="-1.5530860">
        <ele>658.4</ele>
        <time>2019-05-11T07:31:05Z</time>
      </trkpt>
      <trkpt lat="39.2640520" lon="-1.5531400">
        <ele>658.4</ele>
        <time>2019-05-11T07:31:06Z</time>
      </trkpt>
      <trkpt lat="39.2640060" lon="-1.5531940">
        <ele>658.2</ele>
        <time>2019-05-11T07:31:07Z</time>
      </trkpt>
      <trkpt lat="39.2639580" lon="-1.5532490">
        <ele>658.2</ele>
        <time>2019-05-11T07:31:08Z</time>
      </trkpt>
      <trkpt lat="39.2639070" lon="-1.5533040">
        <ele>658.0</ele>
        <time>2019-05-11T07:31:09Z</time>
      </trkpt>
      <trkpt lat="39.2638550" lon="-1.5533590">
        <ele>658.0</ele>
        <time>2019-05-11T07:31:10Z</time>
      </trkpt>
      <trkpt lat="39.2638030" lon="-1.5534170">
        <ele>658.0</ele>
        <time>2019-05-11T07:31:11Z</time>
      </trkpt>
      <trkpt lat="39.2637490" lon="-1.5534760">
        <ele>658.0</ele>
        <time>2019-05-11T07:31:12Z</time>
      </trkpt>
      <trkpt lat="39.2636950" lon="-1.5535360">
        <ele>658.0</ele>
        <time>2019-05-11T07:31:13Z</time>
      </trkpt>
      <trkpt lat="39.2636400" lon="-1.5535980">
        <ele>658.0</ele>
        <time>2019-05-11T07:31:14Z</time>
      </trkpt>
      <trkpt lat="39.2635850" lon="-1.5536630">
        <ele>657.8</ele>
        <time>2019-05-11T07:31:15Z</time>
      </trkpt>
      <trkpt lat="39.2635300" lon="-1.5537270">
        <ele>657.8</ele>
        <time>2019-05-11T07:31:16Z</time>
      </trkpt>
      <trkpt lat="39.2634740" lon="-1.5537940">
        <ele>657.8</ele>
        <time>2019-05-11T07:31:17Z</time>
      </trkpt>
      <trkpt lat="39.2634180" lon="-1.5538630">
        <ele>657.8</ele>
        <time>2019-05-11T07:31:18Z</time>
      </trkpt>
      <trkpt lat="39.2633620" lon="-1.5539320">
        <ele>657.8</ele>
        <time>2019-05-11T07:31:19Z</time>
      </trkpt>
      <trkpt lat="39.2633050" lon="-1.5540020">
        <ele>657.8</ele>
        <time>2019-05-11T07:31:20Z</time>
      </trkpt>
      <trkpt lat="39.2632490" lon="-1.5540740">
        <ele>658.0</ele>
        <time>2019-05-11T07:31:21Z</time>
      </trkpt>
      <trkpt lat="39.2631940" lon="-1.5541480">
        <ele>658.0</ele>
        <time>2019-05-11T07:31:22Z</time>
      </trkpt>
      <trkpt lat="39.2631400" lon="-1.5542220">
        <ele>658.0</ele>
        <time>2019-05-11T07:31:23Z</time>
      </trkpt>
      <trkpt lat="39.2630880" lon="-1.5542970">
        <ele>658.0</ele>
        <time>2019-05-11T07:31:24Z</time>
      </trkpt>
      <trkpt lat="39.2630390" lon="-1.5543770">
        <ele>658.0</ele>
        <time>2019-05-11T07:31:25Z</time>
      </trkpt>
      <trkpt lat="39.2629950" lon="-1.5544600">
        <ele>658.0</ele>
        <time>2019-05-11T07:31:26Z</time>
      </trkpt>
      <trkpt lat="39.2629510" lon="-1.5545440">
        <ele>658.0</ele>
        <time>2019-05-11T07:31:27Z</time>
      </trkpt>
      <trkpt lat="39.2629080" lon="-1.5546270">
        <ele>658.0</ele>
        <time>2019-05-11T07:31:28Z</time>
      </trkpt>
      <trkpt lat="39.2628630" lon="-1.5547100">
        <ele>658.0</ele>
        <time>2019-05-11T07:31:29Z</time>
      </trkpt>
      <trkpt lat="39.2628180" lon="-1.5547930">
        <ele>658.0</ele>
        <time>2019-05-11T07:31:30Z</time>
      </trkpt>
      <trkpt lat="39.2627740" lon="-1.5548770">
        <ele>658.0</ele>
        <time>2019-05-11T07:31:31Z</time>
      </trkpt>
      <trkpt lat="39.2627310" lon="-1.5549640">
        <ele>658.0</ele>
        <time>2019-05-11T07:31:32Z</time>
      </trkpt>
      <trkpt lat="39.2626910" lon="-1.5550530">
        <ele>658.0</ele>
        <time>2019-05-11T07:31:33Z</time>
      </trkpt>
      <trkpt lat="39.2626530" lon="-1.5551440">
        <ele>658.0</ele>
        <time>2019-05-11T07:31:34Z</time>
      </trkpt>
      <trkpt lat="39.2626160" lon="-1.5552360">
        <ele>658.0</ele>
        <time>2019-05-11T07:31:35Z</time>
      </trkpt>
      <trkpt lat="39.2625800" lon="-1.5553300">
        <ele>658.0</ele>
        <time>2019-05-11T07:31:36Z</time>
      </trkpt>
      <trkpt lat="39.2625460" lon="-1.5554260">
        <ele>658.0</ele>
        <time>2019-05-11T07:31:37Z</time>
      </trkpt>
      <trkpt lat="39.2625110" lon="-1.5555220">
        <ele>658.0</ele>
        <time>2019-05-11T07:31:38Z</time>
      </trkpt>
      <trkpt lat="39.2624780" lon="-1.5556190">
        <ele>657.8</ele>
        <time>2019-05-11T07:31:39Z</time>
      </trkpt>
      <trkpt lat="39.2624440" lon="-1.5557160">
        <ele>657.8</ele>
        <time>2019-05-11T07:31:40Z</time>
      </trkpt>
      <trkpt lat="39.2624090" lon="-1.5558120">
        <ele>657.8</ele>
        <time>2019-05-11T07:31:41Z</time>
      </trkpt>
      <trkpt lat="39.2623760" lon="-1.5559100">
        <ele>657.8</ele>
        <time>2019-05-11T07:31:42Z</time>
      </trkpt>
      <trkpt lat="39.2623430" lon="-1.5560080">
        <ele>657.8</ele>
        <time>2019-05-11T07:31:43Z</time>
      </trkpt>
      <trkpt lat="39.2623100" lon="-1.5561070">
        <ele>657.8</ele>
        <time>2019-05-11T07:31:44Z</time>
      </trkpt>
      <trkpt lat="39.2622740" lon="-1.5562050">
        <ele>657.8</ele>
        <time>2019-05-11T07:31:45Z</time>
      </trkpt>
      <trkpt lat="39.2622370" lon="-1.5563000">
        <ele>657.8</ele>
        <time>2019-05-11T07:31:46Z</time>
      </trkpt>
      <trkpt lat="39.2622000" lon="-1.5563950">
        <ele>657.8</ele>
        <time>2019-05-11T07:31:47Z</time>
      </trkpt>
      <trkpt lat="39.2621670" lon="-1.5564920">
        <ele>658.0</ele>
        <time>2019-05-11T07:31:48Z</time>
      </trkpt>
      <trkpt lat="39.2621340" lon="-1.5565900">
        <ele>658.0</ele>
        <time>2019-05-11T07:31:49Z</time>
      </trkpt>
      <trkpt lat="39.2621000" lon="-1.5566880">
        <ele>657.8</ele>
        <time>2019-05-11T07:31:50Z</time>
      </trkpt>
      <trkpt lat="39.2620640" lon="-1.5567870">
        <ele>657.8</ele>
        <time>2019-05-11T07:31:51Z</time>
      </trkpt>
      <trkpt lat="39.2620290" lon="-1.5568870">
        <ele>657.8</ele>
        <time>2019-05-11T07:31:52Z</time>
      </trkpt>
      <trkpt lat="39.2619930" lon="-1.5569860">
        <ele>657.8</ele>
        <time>2019-05-11T07:31:53Z</time>
      </trkpt>
      <trkpt lat="39.2619580" lon="-1.5570840">
        <ele>657.8</ele>
        <time>2019-05-11T07:31:54Z</time>
      </trkpt>
      <trkpt lat="39.2619220" lon="-1.5571810">
        <ele>657.6</ele>
        <time>2019-05-11T07:31:55Z</time>
      </trkpt>
      <trkpt lat="39.2618860" lon="-1.5572770">
        <ele>657.6</ele>
        <time>2019-05-11T07:31:56Z</time>
      </trkpt>
      <trkpt lat="39.2618500" lon="-1.5573740">
        <ele>657.6</ele>
        <time>2019-05-11T07:31:57Z</time>
      </trkpt>
      <trkpt lat="39.2618130" lon="-1.5574730">
        <ele>657.4</ele>
        <time>2019-05-11T07:31:58Z</time>
      </trkpt>
      <trkpt lat="39.2617770" lon="-1.5575730">
        <ele>657.4</ele>
        <time>2019-05-11T07:31:59Z</time>
      </trkpt>
      <trkpt lat="39.2617410" lon="-1.5576720">
        <ele>657.4</ele>
        <time>2019-05-11T07:32:00Z</time>
      </trkpt>
      <trkpt lat="39.2617050" lon="-1.5577690">
        <ele>657.2</ele>
        <time>2019-05-11T07:32:01Z</time>
      </trkpt>
      <trkpt lat="39.2616700" lon="-1.5578640">
        <ele>657.2</ele>
        <time>2019-05-11T07:32:02Z</time>
      </trkpt>
      <trkpt lat="39.2616350" lon="-1.5579520">
        <ele>657.0</ele>
        <time>2019-05-11T07:32:03Z</time>
      </trkpt>
      <trkpt lat="39.2616000" lon="-1.5580310">
        <ele>657.0</ele>
        <time>2019-05-11T07:32:04Z</time>
      </trkpt>
      <trkpt lat="39.2615630" lon="-1.5580940">
        <ele>656.8</ele>
        <time>2019-05-11T07:32:05Z</time>
      </trkpt>
      <trkpt lat="39.2615200" lon="-1.5581360">
        <ele>656.6</ele>
        <time>2019-05-11T07:32:06Z</time>
      </trkpt>
      <trkpt lat="39.2614720" lon="-1.5581520">
        <ele>656.6</ele>
        <time>2019-05-11T07:32:07Z</time>
      </trkpt>
      <trkpt lat="39.2614250" lon="-1.5581450">
        <ele>656.6</ele>
        <time>2019-05-11T07:32:08Z</time>
      </trkpt>
      <trkpt lat="39.2613860" lon="-1.5581170">
        <ele>656.4</ele>
        <time>2019-05-11T07:32:09Z</time>
      </trkpt>
      <trkpt lat="39.2613560" lon="-1.5580780">
        <ele>656.4</ele>
        <time>2019-05-11T07:32:10Z</time>
      </trkpt>
      <trkpt lat="39.2613240" lon="-1.5580350">
        <ele>656.2</ele>
        <time>2019-05-11T07:32:11Z</time>
      </trkpt>
      <trkpt lat="39.2612870" lon="-1.5579930">
        <ele>656.2</ele>
        <time>2019-05-11T07:32:12Z</time>
      </trkpt>
      <trkpt lat="39.2612430" lon="-1.5579540">
        <ele>656.2</ele>
        <time>2019-05-11T07:32:13Z</time>
      </trkpt>
      <trkpt lat="39.2611910" lon="-1.5579250">
        <ele>656.2</ele>
        <time>2019-05-11T07:32:14Z</time>
      </trkpt>
      <trkpt lat="39.2611260" lon="-1.5579190">
        <ele>656.2</ele>
        <time>2019-05-11T07:32:15Z</time>
      </trkpt>
      <trkpt lat="39.2610530" lon="-1.5579310">
        <ele>656.2</ele>
        <time>2019-05-11T07:32:16Z</time>
      </trkpt>
      <trkpt lat="39.2609750" lon="-1.5579520">
        <ele>656.2</ele>
        <time>2019-05-11T07:32:17Z</time>
      </trkpt>
      <trkpt lat="39.2608970" lon="-1.5579730">
        <ele>656.2</ele>
        <time>2019-05-11T07:32:18Z</time>
      </trkpt>
      <trkpt lat="39.2608150" lon="-1.5579870">
        <ele>656.4</ele>
        <time>2019-05-11T07:32:19Z</time>
      </trkpt>
      <trkpt lat="39.2607310" lon="-1.5579920">
        <ele>656.6</ele>
        <time>2019-05-11T07:32:20Z</time>
      </trkpt>
      <trkpt lat="39.2606460" lon="-1.5579830">
        <ele>656.8</ele>
        <time>2019-05-11T07:32:21Z</time>
      </trkpt>
      <trkpt lat="39.2605610" lon="-1.5579620">
        <ele>657.0</ele>
        <time>2019-05-11T07:32:22Z</time>
      </trkpt>
      <trkpt lat="39.2604750" lon="-1.5579320">
        <ele>657.0</ele>
        <time>2019-05-11T07:32:23Z</time>
      </trkpt>
      <trkpt lat="39.2603900" lon="-1.5578980">
        <ele>657.2</ele>
        <time>2019-05-11T07:32:24Z</time>
      </trkpt>
      <trkpt lat="39.2603040" lon="-1.5578620">
        <ele>657.2</ele>
        <time>2019-05-11T07:32:25Z</time>
      </trkpt>
      <trkpt lat="39.2602180" lon="-1.5578260">
        <ele>657.2</ele>
        <time>2019-05-11T07:32:26Z</time>
      </trkpt>
      <trkpt lat="39.2601300" lon="-1.5577940">
        <ele>657.2</ele>
        <time>2019-05-11T07:32:27Z</time>
      </trkpt>
      <trkpt lat="39.2600400" lon="-1.5577720">
        <ele>657.2</ele>
        <time>2019-05-11T07:32:28Z</time>
      </trkpt>
      <trkpt lat="39.2599490" lon="-1.5577730">
        <ele>657.2</ele>
        <time>2019-05-11T07:32:29Z</time>
      </trkpt>
      <trkpt lat="39.2598620" lon="-1.5578090">
        <ele>657.2</ele>
        <time>2019-05-11T07:32:30Z</time>
      </trkpt>
      <trkpt lat="39.2597860" lon="-1.5578740">
        <ele>657.2</ele>
        <time>2019-05-11T07:32:31Z</time>
      </trkpt>
      <trkpt lat="39.2597180" lon="-1.5579520">
        <ele>657.0</ele>
        <time>2019-05-11T07:32:32Z</time>
      </trkpt>
      <trkpt lat="39.2596500" lon="-1.5580320">
        <ele>657.0</ele>
        <time>2019-05-11T07:32:33Z</time>
      </trkpt>
      <trkpt lat="39.2595800" lon="-1.5581080">
        <ele>657.0</ele>
        <time>2019-05-11T07:32:34Z</time>
      </trkpt>
      <trkpt lat="39.2595050" lon="-1.5581710">
        <ele>656.8</ele>
        <time>2019-05-11T07:32:35Z</time>
      </trkpt>
      <trkpt lat="39.2594240" lon="-1.5582200">
        <ele>656.8</ele>
        <time>2019-05-11T07:32:36Z</time>
      </trkpt>
      <trkpt lat="39.2593390" lon="-1.5582620">
        <ele>656.8</ele>
        <time>2019-05-11T07:32:37Z</time>
      </trkpt>
      <trkpt lat="39.2592520" lon="-1.5583010">
        <ele>656.6</ele>
        <time>2019-05-11T07:32:38Z</time>
      </trkpt>
      <trkpt lat="39.2591640" lon="-1.5583360">
        <ele>656.4</ele>
        <time>2019-05-11T07:32:39Z</time>
      </trkpt>
      <trkpt lat="39.2590750" lon="-1.5583680">
        <ele>656.2</ele>
        <time>2019-05-11T07:32:40Z</time>
      </trkpt>
      <trkpt lat="39.2589860" lon="-1.5584000">
        <ele>656.2</ele>
        <time>2019-05-11T07:32:41Z</time>
      </trkpt>
      <trkpt lat="39.2588950" lon="-1.5584300">
        <ele>656.0</ele>
        <time>2019-05-11T07:32:42Z</time>
      </trkpt>
      <trkpt lat="39.2588010" lon="-1.5584550">
        <ele>656.0</ele>
        <time>2019-05-11T07:32:43Z</time>
      </trkpt>
      <trkpt lat="39.2587030" lon="-1.5584760">
        <ele>656.0</ele>
        <time>2019-05-11T07:32:44Z</time>
      </trkpt>
      <trkpt lat="39.2586040" lon="-1.5584960">
        <ele>656.0</ele>
        <time>2019-05-11T07:32:45Z</time>
      </trkpt>
      <trkpt lat="39.2585030" lon="-1.5585150">
        <ele>655.8</ele>
        <time>2019-05-11T07:32:46Z</time>
      </trkpt>
      <trkpt lat="39.2584010" lon="-1.5585310">
        <ele>655.8</ele>
        <time>2019-05-11T07:32:47Z</time>
      </trkpt>
      <trkpt lat="39.2582970" lon="-1.5585420">
        <ele>655.8</ele>
        <time>2019-05-11T07:32:48Z</time>
      </trkpt>
      <trkpt lat="39.2581930" lon="-1.5585480">
        <ele>655.6</ele>
        <time>2019-05-11T07:32:49Z</time>
      </trkpt>
      <trkpt lat="39.2580890" lon="-1.5585500">
        <ele>655.6</ele>
        <time>2019-05-11T07:32:50Z</time>
      </trkpt>
      <trkpt lat="39.2579860" lon="-1.5585490">
        <ele>655.4</ele>
        <time>2019-05-11T07:32:51Z</time>
      </trkpt>
      <trkpt lat="39.2578820" lon="-1.5585500">
        <ele>655.4</ele>
        <time>2019-05-11T07:32:52Z</time>
      </trkpt>
      <trkpt lat="39.2577760" lon="-1.5585540">
        <ele>655.2</ele>
        <time>2019-05-11T07:32:53Z</time>
      </trkpt>
      <trkpt lat="39.2576700" lon="-1.5585640">
        <ele>655.2</ele>
        <time>2019-05-11T07:32:54Z</time>
      </trkpt>
      <trkpt lat="39.2575620" lon="-1.5585800">
        <ele>655.0</ele>
        <time>2019-05-11T07:32:55Z</time>
      </trkpt>
      <trkpt lat="39.2574540" lon="-1.5586010">
        <ele>655.0</ele>
        <time>2019-05-11T07:32:56Z</time>
      </trkpt>
      <trkpt lat="39.2573450" lon="-1.5586230">
        <ele>655.0</ele>
        <time>2019-05-11T07:32:57Z</time>
      </trkpt>
      <trkpt lat="39.2572370" lon="-1.5586420">
        <ele>654.8</ele>
        <time>2019-05-11T07:32:58Z</time>
      </trkpt>
      <trkpt lat="39.2571260" lon="-1.5586430">
        <ele>654.2</ele>
        <time>2019-05-11T07:32:59Z</time>
      </trkpt>
      <trkpt lat="39.2570130" lon="-1.5586240">
        <ele>653.8</ele>
        <time>2019-05-11T07:33:00Z</time>
      </trkpt>
      <trkpt lat="39.2569010" lon="-1.5585890">
        <ele>653.6</ele>
        <time>2019-05-11T07:33:01Z</time>
      </trkpt>
      <trkpt lat="39.2567890" lon="-1.5585500">
        <ele>653.4</ele>
        <time>2019-05-11T07:33:02Z</time>
      </trkpt>
      <trkpt lat="39.2566730" lon="-1.5585210">
        <ele>653.0</ele>
        <time>2019-05-11T07:33:03Z</time>
      </trkpt>
      <trkpt lat="39.2565590" lon="-1.5584980">
        <ele>652.8</ele>
        <time>2019-05-11T07:33:04Z</time>
      </trkpt>
      <trkpt lat="39.2564530" lon="-1.5584680">
        <ele>652.8</ele>
        <time>2019-05-11T07:33:05Z</time>
      </trkpt>
      <trkpt lat="39.2563560" lon="-1.5584190">
        <ele>652.2</ele>
        <time>2019-05-11T07:33:06Z</time>
      </trkpt>
      <trkpt lat="39.2562670" lon="-1.5583530">
        <ele>651.6</ele>
        <time>2019-05-11T07:33:07Z</time>
      </trkpt>
      <trkpt lat="39.2561880" lon="-1.5582730">
        <ele>651.4</ele>
        <time>2019-05-11T07:33:08Z</time>
      </trkpt>
      <trkpt lat="39.2561170" lon="-1.5581830">
        <ele>650.6</ele>
        <time>2019-05-11T07:33:09Z</time>
      </trkpt>
      <trkpt lat="39.2560520" lon="-1.5580890">
        <ele>650.0</ele>
        <time>2019-05-11T07:33:10Z</time>
      </trkpt>
      <trkpt lat="39.2559890" lon="-1.5579950">
        <ele>649.2</ele>
        <time>2019-05-11T07:33:11Z</time>
      </trkpt>
      <trkpt lat="39.2559260" lon="-1.5579040">
        <ele>648.8</ele>
        <time>2019-05-11T07:33:12Z</time>
      </trkpt>
      <trkpt lat="39.2558610" lon="-1.5578190">
        <ele>648.6</ele>
        <time>2019-05-11T07:33:13Z</time>
      </trkpt>
      <trkpt lat="39.2557940" lon="-1.5577360">
        <ele>648.6</ele>
        <time>2019-05-11T07:33:14Z</time>
      </trkpt>
      <trkpt lat="39.2557250" lon="-1.5576540">
        <ele>648.6</ele>
        <time>2019-05-11T07:33:15Z</time>
      </trkpt>
      <trkpt lat="39.2556520" lon="-1.5575740">
        <ele>648.6</ele>
        <time>2019-05-11T07:33:16Z</time>
      </trkpt>
      <trkpt lat="39.2555770" lon="-1.5574930">
        <ele>648.4</ele>
        <time>2019-05-11T07:33:17Z</time>
      </trkpt>
      <trkpt lat="39.2554980" lon="-1.5574140">
        <ele>648.2</ele>
        <time>2019-05-11T07:33:18Z</time>
      </trkpt>
      <trkpt lat="39.2554140" lon="-1.5573400">
        <ele>648.2</ele>
        <time>2019-05-11T07:33:19Z</time>
      </trkpt>
      <trkpt lat="39.2553230" lon="-1.5572760">
        <ele>648.2</ele>
        <time>2019-05-11T07:33:20Z</time>
      </trkpt>
      <trkpt lat="39.2552260" lon="-1.5572200">
        <ele>648.0</ele>
        <time>2019-05-11T07:33:21Z</time>
      </trkpt>
      <trkpt lat="39.2551270" lon="-1.5571710">
        <ele>648.0</ele>
        <time>2019-05-11T07:33:22Z</time>
      </trkpt>
      <trkpt lat="39.2550230" lon="-1.5571330">
        <ele>648.0</ele>
        <time>2019-05-11T07:33:23Z</time>
      </trkpt>
      <trkpt lat="39.2549190" lon="-1.5571000">
        <ele>647.8</ele>
        <time>2019-05-11T07:33:24Z</time>
      </trkpt>
      <trkpt lat="39.2548140" lon="-1.5570680">
        <ele>647.8</ele>
        <time>2019-05-11T07:33:25Z</time>
      </trkpt>
      <trkpt lat="39.2547090" lon="-1.5570380">
        <ele>647.8</ele>
        <time>2019-05-11T07:33:26Z</time>
      </trkpt>
      <trkpt lat="39.2546030" lon="-1.5570070">
        <ele>647.8</ele>
        <time>2019-05-11T07:33:27Z</time>
      </trkpt>
      <trkpt lat="39.2544980" lon="-1.5569740">
        <ele>647.6</ele>
        <time>2019-05-11T07:33:28Z</time>
      </trkpt>
      <trkpt lat="39.2543920" lon="-1.5569390">
        <ele>647.4</ele>
        <time>2019-05-11T07:33:29Z</time>
      </trkpt>
      <trkpt lat="39.2542850" lon="-1.5569120">
        <ele>647.0</ele>
        <time>2019-05-11T07:33:30Z</time>
      </trkpt>
      <trkpt lat="39.2541760" lon="-1.5569010">
        <ele>646.8</ele>
        <time>2019-05-11T07:33:31Z</time>
      </trkpt>
      <trkpt lat="39.2540680" lon="-1.5569120">
        <ele>646.8</ele>
        <time>2019-05-11T07:33:32Z</time>
      </trkpt>
      <trkpt lat="39.2539620" lon="-1.5569410">
        <ele>646.6</ele>
        <time>2019-05-11T07:33:33Z</time>
      </trkpt>
      <trkpt lat="39.2538580" lon="-1.5569820">
        <ele>646.6</ele>
        <time>2019-05-11T07:33:34Z</time>
      </trkpt>
      <trkpt lat="39.2537580" lon="-1.5570290">
        <ele>646.4</ele>
        <time>2019-05-11T07:33:35Z</time>
      </trkpt>
      <trkpt lat="39.2536650" lon="-1.5570700">
        <ele>646.2</ele>
        <time>2019-05-11T07:33:36Z</time>
      </trkpt>
      <trkpt lat="39.2535840" lon="-1.5571030">
        <ele>646.0</ele>
        <time>2019-05-11T07:33:37Z</time>
      </trkpt>
      <trkpt lat="39.2535110" lon="-1.5571400">
        <ele>645.0</ele>
        <time>2019-05-11T07:33:38Z</time>
      </trkpt>
      <trkpt lat="39.2534420" lon="-1.5571930">
        <ele>644.6</ele>
        <time>2019-05-11T07:33:39Z</time>
      </trkpt>
      <trkpt lat="39.2533760" lon="-1.5572660">
        <ele>644.2</ele>
        <time>2019-05-11T07:33:40Z</time>
      </trkpt>
      <trkpt lat="39.2533110" lon="-1.5573540">
        <ele>644.0</ele>
        <time>2019-05-11T07:33:41Z</time>
      </trkpt>
      <trkpt lat="39.2532460" lon="-1.5574460">
        <ele>643.6</ele>
        <time>2019-05-11T07:33:42Z</time>
      </trkpt>
      <trkpt lat="39.2531810" lon="-1.5575390">
        <ele>643.0</ele>
        <time>2019-05-11T07:33:43Z</time>
      </trkpt>
      <trkpt lat="39.2531150" lon="-1.5576200">
        <ele>642.0</ele>
        <time>2019-05-11T07:33:44Z</time>
      </trkpt>
      <trkpt lat="39.2530490" lon="-1.5576820">
        <ele>641.2</ele>
        <time>2019-05-11T07:33:45Z</time>
      </trkpt>
      <trkpt lat="39.2529780" lon="-1.5577290">
        <ele>640.4</ele>
        <time>2019-05-11T07:33:46Z</time>
      </trkpt>
      <trkpt lat="39.2528990" lon="-1.5577630">
        <ele>640.0</ele>
        <time>2019-05-11T07:33:47Z</time>
      </trkpt>
      <trkpt lat="39.2528150" lon="-1.5577850">
        <ele>639.6</ele>
        <time>2019-05-11T07:33:48Z</time>
      </trkpt>
      <trkpt lat="39.2527300" lon="-1.5577960">
        <ele>639.2</ele>
        <time>2019-05-11T07:33:49Z</time>
      </trkpt>
      <trkpt lat="39.2526450" lon="-1.5578010">
        <ele>639.2</ele>
        <time>2019-05-11T07:33:50Z</time>
      </trkpt>
      <trkpt lat="39.2525590" lon="-1.5578070">
        <ele>639.2</ele>
        <time>2019-05-11T07:33:51Z</time>
      </trkpt>
      <trkpt lat="39.2524730" lon="-1.5578170">
        <ele>639.2</ele>
        <time>2019-05-11T07:33:52Z</time>
      </trkpt>
      <trkpt lat="39.2523890" lon="-1.5578340">
        <ele>639.0</ele>
        <time>2019-05-11T07:33:53Z</time>
      </trkpt>
      <trkpt lat="39.2523070" lon="-1.5578530">
        <ele>639.0</ele>
        <time>2019-05-11T07:33:54Z</time>
      </trkpt>
      <trkpt lat="39.2522240" lon="-1.5578660">
        <ele>639.0</ele>
        <time>2019-05-11T07:33:55Z</time>
      </trkpt>
      <trkpt lat="39.2521410" lon="-1.5578690">
        <ele>639.0</ele>
        <time>2019-05-11T07:33:56Z</time>
      </trkpt>
      <trkpt lat="39.2520570" lon="-1.5578590">
        <ele>639.0</ele>
        <time>2019-05-11T07:33:57Z</time>
      </trkpt>
      <trkpt lat="39.2519730" lon="-1.5578370">
        <ele>639.0</ele>
        <time>2019-05-11T07:33:58Z</time>
      </trkpt>
      <trkpt lat="39.2518890" lon="-1.5578050">
        <ele>639.0</ele>
        <time>2019-05-11T07:33:59Z</time>
      </trkpt>
      <trkpt lat="39.2518060" lon="-1.5577680">
        <ele>639.2</ele>
        <time>2019-05-11T07:34:00Z</time>
      </trkpt>
      <trkpt lat="39.2517240" lon="-1.5577320">
        <ele>639.2</ele>
        <time>2019-05-11T07:34:01Z</time>
      </trkpt>
      <trkpt lat="39.2516460" lon="-1.5576960">
        <ele>639.4</ele>
        <time>2019-05-11T07:34:02Z</time>
      </trkpt>
      <trkpt lat="39.2515700" lon="-1.5576680">
        <ele>639.6</ele>
        <time>2019-05-11T07:34:03Z</time>
      </trkpt>
      <trkpt lat="39.2514930" lon="-1.5576510">
        <ele>639.8</ele>
        <time>2019-05-11T07:34:04Z</time>
      </trkpt>
      <trkpt lat="39.2514110" lon="-1.5576370">
        <ele>640.0</ele>
        <time>2019-05-11T07:34:05Z</time>
      </trkpt>
      <trkpt lat="39.2513250" lon="-1.5576150">
        <ele>640.0</ele>
        <time>2019-05-11T07:34:06Z</time>
      </trkpt>
      <trkpt lat="39.2512370" lon="-1.5575750">
        <ele>640.0</ele>
        <time>2019-05-11T07:34:07Z</time>
      </trkpt>
      <trkpt lat="39.2511520" lon="-1.5575180">
        <ele>640.2</ele>
        <time>2019-05-11T07:34:08Z</time>
      </trkpt>
      <trkpt lat="39.2510680" lon="-1.5574540">
        <ele>640.2</ele>
        <time>2019-05-11T07:34:09Z</time>
      </trkpt>
      <trkpt lat="39.2509850" lon="-1.5573900">
        <ele>640.2</ele>
        <time>2019-05-11T07:34:10Z</time>
      </trkpt>
      <trkpt lat="39.2508990" lon="-1.5573300">
        <ele>640.2</ele>
        <time>2019-05-11T07:34:11Z</time>
      </trkpt>
      <trkpt lat="39.2508110" lon="-1.5572780">
        <ele>640.2</ele>
        <time>2019-05-11T07:34:12Z</time>
      </trkpt>
      <trkpt lat="39.2507200" lon="-1.5572310">
        <ele>640.2</ele>
        <time>2019-05-11T07:34:13Z</time>
      </trkpt>
      <trkpt lat="39.2506270" lon="-1.5571920">
        <ele>640.2</ele>
        <time>2019-05-11T07:34:14Z</time>
      </trkpt>
      <trkpt lat="39.2505330" lon="-1.5571570">
        <ele>640.0</ele>
        <time>2019-05-11T07:34:15Z</time>
      </trkpt>
      <trkpt lat="39.2504400" lon="-1.5571150">
        <ele>640.0</ele>
        <time>2019-05-11T07:34:16Z</time>
      </trkpt>
      <trkpt lat="39.2503490" lon="-1.5570660">
        <ele>639.8</ele>
        <time>2019-05-11T07:34:17Z</time>
      </trkpt>
      <trkpt lat="39.2502580" lon="-1.5570130">
        <ele>639.6</ele>
        <time>2019-05-11T07:34:18Z</time>
      </trkpt>
      <trkpt lat="39.2501670" lon="-1.5569580">
        <ele>639.4</ele>
        <time>2019-05-11T07:34:19Z</time>
      </trkpt>
      <trkpt lat="39.2500760" lon="-1.5569040">
        <ele>639.4</ele>
        <time>2019-05-11T07:34:20Z</time>
      </trkpt>
      <trkpt lat="39.2499850" lon="-1.5568500">
        <ele>639.4</ele>
        <time>2019-05-11T07:34:21Z</time>
      </trkpt>
      <trkpt lat="39.2498940" lon="-1.5567980">
        <ele>639.2</ele>
        <time>2019-05-11T07:34:22Z</time>
      </trkpt>
      <trkpt lat="39.2498030" lon="-1.5567480">
        <ele>639.2</ele>
        <time>2019-05-11T07:34:23Z</time>
      </trkpt>
      <trkpt lat="39.2497130" lon="-1.5567040">
        <ele>639.0</ele>
        <time>2019-05-11T07:34:24Z</time>
      </trkpt>
      <trkpt lat="39.2496240" lon="-1.5566650">
        <ele>638.4</ele>
        <time>2019-05-11T07:34:25Z</time>
      </trkpt>
      <trkpt lat="39.2495350" lon="-1.5566280">
        <ele>638.2</ele>
        <time>2019-05-11T07:34:26Z</time>
      </trkpt>
      <trkpt lat="39.2494460" lon="-1.5565970">
        <ele>637.8</ele>
        <time>2019-05-11T07:34:27Z</time>
      </trkpt>
      <trkpt lat="39.2493580" lon="-1.5565800">
        <ele>637.8</ele>
        <time>2019-05-11T07:34:28Z</time>
      </trkpt>
      <trkpt lat="39.2492720" lon="-1.5565770">
        <ele>637.6</ele>
        <time>2019-05-11T07:34:29Z</time>
      </trkpt>
      <trkpt lat="39.2491890" lon="-1.5565810">
        <ele>637.6</ele>
        <time>2019-05-11T07:34:30Z</time>
      </trkpt>
      <trkpt lat="39.2491090" lon="-1.5565970">
        <ele>637.2</ele>
        <time>2019-05-11T07:34:31Z</time>
      </trkpt>
      <trkpt lat="39.2490300" lon="-1.5566250">
        <ele>637.0</ele>
        <time>2019-05-11T07:34:32Z</time>
      </trkpt>
      <trkpt lat="39.2489510" lon="-1.5566600">
        <ele>636.8</ele>
        <time>2019-05-11T07:34:33Z</time>
      </trkpt>
      <trkpt lat="39.2488700" lon="-1.5567000">
        <ele>636.8</ele>
        <time>2019-05-11T07:34:34Z</time>
      </trkpt>
      <trkpt lat="39.2487840" lon="-1.5567400">
        <ele>636.6</ele>
        <time>2019-05-11T07:34:35Z</time>
      </trkpt>
      <trkpt lat="39.2486960" lon="-1.5567810">
        <ele>636.4</ele>
        <time>2019-05-11T07:34:36Z</time>
      </trkpt>
      <trkpt lat="39.2486100" lon="-1.5568190">
        <ele>636.4</ele>
        <time>2019-05-11T07:34:37Z</time>
      </trkpt>
      <trkpt lat="39.2485380" lon="-1.5568550">
        <ele>636.2</ele>
        <time>2019-05-11T07:34:38Z</time>
      </trkpt>
      <trkpt lat="39.2484850" lon="-1.5568930">
        <ele>636.2</ele>
        <time>2019-05-11T07:34:39Z</time>
      </trkpt>
      <trkpt lat="39.2484470" lon="-1.5569430">
        <ele>636.2</ele>
        <time>2019-05-11T07:34:40Z</time>
      </trkpt>
      <trkpt lat="39.2484230" lon="-1.5570040">
        <ele>636.0</ele>
        <time>2019-05-11T07:34:41Z</time>
      </trkpt>
      <trkpt lat="39.2484110" lon="-1.5570680">
        <ele>636.0</ele>
        <time>2019-05-11T07:34:42Z</time>
      </trkpt>
      <trkpt lat="39.2484090" lon="-1.5571390">
        <ele>635.8</ele>
        <time>2019-05-11T07:34:43Z</time>
      </trkpt>
      <trkpt lat="39.2484120" lon="-1.5572110">
        <ele>635.6</ele>
        <time>2019-05-11T07:34:44Z</time>
      </trkpt>
      <trkpt lat="39.2484200" lon="-1.5572840">
        <ele>635.6</ele>
        <time>2019-05-11T07:34:45Z</time>
      </trkpt>
      <trkpt lat="39.2484280" lon="-1.5573580">
        <ele>635.6</ele>
        <time>2019-05-11T07:34:46Z</time>
      </trkpt>
      <trkpt lat="39.2484340" lon="-1.5574310">
        <ele>635.6</ele>
        <time>2019-05-11T07:34:47Z</time>
      </trkpt>
      <trkpt lat="39.2484310" lon="-1.5575000">
        <ele>635.6</ele>
        <time>2019-05-11T07:34:48Z</time>
      </trkpt>
      <trkpt lat="39.2484170" lon="-1.5575660">
        <ele>635.6</ele>
        <time>2019-05-11T07:34:49Z</time>
      </trkpt>
      <trkpt lat="39.2483940" lon="-1.5576280">
        <ele>635.6</ele>
        <time>2019-05-11T07:34:50Z</time>
      </trkpt>
      <trkpt lat="39.2483610" lon="-1.5576840">
        <ele>635.6</ele>
        <time>2019-05-11T07:34:51Z</time>
      </trkpt>
      <trkpt lat="39.2483220" lon="-1.5577340">
        <ele>635.6</ele>
        <time>2019-05-11T07:34:52Z</time>
      </trkpt>
      <trkpt lat="39.2482730" lon="-1.5577740">
        <ele>636.0</ele>
        <time>2019-05-11T07:34:53Z</time>
      </trkpt>
      <trkpt lat="39.2482190" lon="-1.5578070">
        <ele>636.2</ele>
        <time>2019-05-11T07:34:54Z</time>
      </trkpt>
      <trkpt lat="39.2481610" lon="-1.5578330">
        <ele>636.6</ele>
        <time>2019-05-11T07:34:55Z</time>
      </trkpt>
      <trkpt lat="39.2481020" lon="-1.5578580">
        <ele>637.2</ele>
        <time>2019-05-11T07:34:56Z</time>
      </trkpt>
      <trkpt lat="39.2480430" lon="-1.5578820">
        <ele>637.6</ele>
        <time>2019-05-11T07:34:57Z</time>
      </trkpt>
      <trkpt lat="39.2479820" lon="-1.5579050">
        <ele>638.0</ele>
        <time>2019-05-11T07:34:58Z</time>
      </trkpt>
      <trkpt lat="39.2479210" lon="-1.5579270">
        <ele>638.2</ele>
        <time>2019-05-11T07:34:59Z</time>
      </trkpt>
      <trkpt lat="39.2478590" lon="-1.5579500">
        <ele>638.6</ele>
        <time>2019-05-11T07:35:00Z</time>
      </trkpt>
      <trkpt lat="39.2477970" lon="-1.5579730">
        <ele>638.8</ele>
        <time>2019-05-11T07:35:01Z</time>
      </trkpt>
      <trkpt lat="39.2477340" lon="-1.5579950">
        <ele>638.8</ele>
        <time>2019-05-11T07:35:02Z</time>
      </trkpt>
      <trkpt lat="39.2476700" lon="-1.5580160">
        <ele>639.0</ele>
        <time>2019-05-11T07:35:03Z</time>
      </trkpt>
      <trkpt lat="39.2476070" lon="-1.5580380">
        <ele>639.2</ele>
        <time>2019-05-11T07:35:04Z</time>
      </trkpt>
      <trkpt lat="39.2475450" lon="-1.5580580">
        <ele>639.4</ele>
        <time>2019-05-11T07:35:05Z</time>
      </trkpt>
      <trkpt lat="39.2474790" lon="-1.5580740">
        <ele>639.6</ele>
        <time>2019-05-11T07:35:06Z</time>
      </trkpt>
      <trkpt lat="39.2474110" lon="-1.5580820">
        <ele>639.8</ele>
        <time>2019-05-11T07:35:07Z</time>
      </trkpt>
      <trkpt lat="39.2473410" lon="-1.5580770">
        <ele>640.0</ele>
        <time>2019-05-11T07:35:08Z</time>
      </trkpt>
      <trkpt lat="39.2472710" lon="-1.5580580">
        <ele>640.0</ele>
        <time>2019-05-11T07:35:09Z</time>
      </trkpt>
      <trkpt lat="39.2472000" lon="-1.5580220">
        <ele>640.0</ele>
        <time>2019-05-11T07:35:10Z</time>
      </trkpt>
      <trkpt lat="39.2471310" lon="-1.5579730">
        <ele>640.2</ele>
        <time>2019-05-11T07:35:11Z</time>
      </trkpt>
      <trkpt lat="39.2470630" lon="-1.5579170">
        <ele>640.4</ele>
        <time>2019-05-11T07:35:12Z</time>
      </trkpt>
      <trkpt lat="39.2469960" lon="-1.5578550">
        <ele>640.4</ele>
        <time>2019-05-11T07:35:13Z</time>
      </trkpt>
      <trkpt lat="39.2469280" lon="-1.5577900">
        <ele>640.4</ele>
        <time>2019-05-11T07:35:14Z</time>
      </trkpt>
      <trkpt lat="39.2468590" lon="-1.5577210">
        <ele>640.4</ele>
        <time>2019-05-11T07:35:15Z</time>
      </trkpt>
      <trkpt lat="39.2467920" lon="-1.5576500">
        <ele>640.4</ele>
        <time>2019-05-11T07:35:16Z</time>
      </trkpt>
      <trkpt lat="39.2467260" lon="-1.5575750">
        <ele>640.4</ele>
        <time>2019-05-11T07:35:17Z</time>
      </trkpt>
      <trkpt lat="39.2466640" lon="-1.5574960">
        <ele>640.4</ele>
        <time>2019-05-11T07:35:18Z</time>
      </trkpt>
      <trkpt lat="39.2466040" lon="-1.5574120">
        <ele>640.4</ele>
        <time>2019-05-11T07:35:19Z</time>
      </trkpt>
      <trkpt lat="39.2465440" lon="-1.5573250">
        <ele>640.4</ele>
        <time>2019-05-11T07:35:20Z</time>
      </trkpt>
      <trkpt lat="39.2464870" lon="-1.5572330">
        <ele>640.4</ele>
        <time>2019-05-11T07:35:21Z</time>
      </trkpt>
      <trkpt lat="39.2464290" lon="-1.5571380">
        <ele>640.4</ele>
        <time>2019-05-11T07:35:22Z</time>
      </trkpt>
      <trkpt lat="39.2463740" lon="-1.5570400">
        <ele>640.2</ele>
        <time>2019-05-11T07:35:23Z</time>
      </trkpt>
      <trkpt lat="39.2463220" lon="-1.5569410">
        <ele>640.2</ele>
        <time>2019-05-11T07:35:24Z</time>
      </trkpt>
      <trkpt lat="39.2462760" lon="-1.5568370">
        <ele>640.0</ele>
        <time>2019-05-11T07:35:25Z</time>
      </trkpt>
      <trkpt lat="39.2462360" lon="-1.5567240">
        <ele>640.0</ele>
        <time>2019-05-11T07:35:26Z</time>
      </trkpt>
      <trkpt lat="39.2462100" lon="-1.5566030">
        <ele>640.0</ele>
        <time>2019-05-11T07:35:27Z</time>
      </trkpt>
      <trkpt lat="39.2461950" lon="-1.5564770">
        <ele>640.0</ele>
        <time>2019-05-11T07:35:28Z</time>
      </trkpt>
      <trkpt lat="39.2461850" lon="-1.5563490">
        <ele>640.0</ele>
        <time>2019-05-11T07:35:29Z</time>
      </trkpt>
      <trkpt lat="39.2461800" lon="-1.5562190">
        <ele>640.0</ele>
        <time>2019-05-11T07:35:30Z</time>
      </trkpt>
      <trkpt lat="39.2461820" lon="-1.5560870">
        <ele>639.8</ele>
        <time>2019-05-11T07:35:31Z</time>
      </trkpt>
      <trkpt lat="39.2461910" lon="-1.5559550">
        <ele>639.8</ele>
        <time>2019-05-11T07:35:32Z</time>
      </trkpt>
      <trkpt lat="39.2462050" lon="-1.5558230">
        <ele>639.6</ele>
        <time>2019-05-11T07:35:33Z</time>
      </trkpt>
      <trkpt lat="39.2462200" lon="-1.5556900">
        <ele>639.6</ele>
        <time>2019-05-11T07:35:34Z</time>
      </trkpt>
      <trkpt lat="39.2462350" lon="-1.5555560">
        <ele>639.4</ele>
        <time>2019-05-11T07:35:35Z</time>
      </trkpt>
      <trkpt lat="39.2462500" lon="-1.5554210">
        <ele>639.2</ele>
        <time>2019-05-11T07:35:36Z</time>
      </trkpt>
      <trkpt lat="39.2462660" lon="-1.5552840">
        <ele>639.0</ele>
        <time>2019-05-11T07:35:37Z</time>
      </trkpt>
      <trkpt lat="39.2462800" lon="-1.5551470">
        <ele>638.6</ele>
        <time>2019-05-11T07:35:38Z</time>
      </trkpt>
      <trkpt lat="39.2462930" lon="-1.5550120">
        <ele>638.4</ele>
        <time>2019-05-11T07:35:39Z</time>
      </trkpt>
      <trkpt lat="39.2463030" lon="-1.5548780">
        <ele>638.2</ele>
        <time>2019-05-11T07:35:40Z</time>
      </trkpt>
      <trkpt lat="39.2463110" lon="-1.5547430">
        <ele>638.0</ele>
        <time>2019-05-11T07:35:41Z</time>
      </trkpt>
      <trkpt lat="39.2463130" lon="-1.5546090">
        <ele>638.0</ele>
        <time>2019-05-11T07:35:42Z</time>
      </trkpt>
      <trkpt lat="39.2463120" lon="-1.5544790">
        <ele>637.6</ele>
        <time>2019-05-11T07:35:43Z</time>
      </trkpt>
      <trkpt lat="39.2463100" lon="-1.5543520">
        <ele>637.2</ele>
        <time>2019-05-11T07:35:44Z</time>
      </trkpt>
      <trkpt lat="39.2463120" lon="-1.5542260">
        <ele>636.8</ele>
        <time>2019-05-11T07:35:45Z</time>
      </trkpt>
      <trkpt lat="39.2463170" lon="-1.5541000">
        <ele>636.6</ele>
        <time>2019-05-11T07:35:46Z</time>
      </trkpt>
      <trkpt lat="39.2463220" lon="-1.5539710">
        <ele>636.4</ele>
        <time>2019-05-11T07:35:47Z</time>
      </trkpt>
      <trkpt lat="39.2463260" lon="-1.5538410">
        <ele>636.2</ele>
        <time>2019-05-11T07:35:48Z</time>
      </trkpt>
      <trkpt lat="39.2463330" lon="-1.5537100">
        <ele>636.2</ele>
        <time>2019-05-11T07:35:49Z</time>
      </trkpt>
      <trkpt lat="39.2463390" lon="-1.5535780">
        <ele>636.2</ele>
        <time>2019-05-11T07:35:50Z</time>
      </trkpt>
      <trkpt lat="39.2463410" lon="-1.5534480">
        <ele>636.0</ele>
        <time>2019-05-11T07:35:51Z</time>
      </trkpt>
      <trkpt lat="39.2463370" lon="-1.5533190">
        <ele>636.0</ele>
        <time>2019-05-11T07:35:52Z</time>
      </trkpt>
      <trkpt lat="39.2463310" lon="-1.5531930">
        <ele>636.0</ele>
        <time>2019-05-11T07:35:53Z</time>
      </trkpt>
      <trkpt lat="39.2463290" lon="-1.5530670">
        <ele>635.8</ele>
        <time>2019-05-11T07:35:54Z</time>
      </trkpt>
      <trkpt lat="39.2463340" lon="-1.5529420">
        <ele>635.8</ele>
        <time>2019-05-11T07:35:55Z</time>
      </trkpt>
      <trkpt lat="39.2463390" lon="-1.5528160">
        <ele>635.8</ele>
        <time>2019-05-11T07:35:56Z</time>
      </trkpt>
      <trkpt lat="39.2463360" lon="-1.5526900">
        <ele>635.8</ele>
        <time>2019-05-11T07:35:57Z</time>
      </trkpt>
      <trkpt lat="39.2463230" lon="-1.5525630">
        <ele>635.6</ele>
        <time>2019-05-11T07:35:58Z</time>
      </trkpt>
      <trkpt lat="39.2463040" lon="-1.5524370">
        <ele>635.6</ele>
        <time>2019-05-11T07:35:59Z</time>
      </trkpt>
      <trkpt lat="39.2462770" lon="-1.5523140">
        <ele>635.6</ele>
        <time>2019-05-11T07:36:00Z</time>
      </trkpt>
      <trkpt lat="39.2462400" lon="-1.5521990">
        <ele>635.4</ele>
        <time>2019-05-11T07:36:01Z</time>
      </trkpt>
      <trkpt lat="39.2461900" lon="-1.5520970">
        <ele>635.4</ele>
        <time>2019-05-11T07:36:02Z</time>
      </trkpt>
      <trkpt lat="39.2461240" lon="-1.5520150">
        <ele>635.4</ele>
        <time>2019-05-11T07:36:03Z</time>
      </trkpt>
      <trkpt lat="39.2460460" lon="-1.5519490">
        <ele>635.2</ele>
        <time>2019-05-11T07:36:04Z</time>
      </trkpt>
      <trkpt lat="39.2459590" lon="-1.5518980">
        <ele>635.2</ele>
        <time>2019-05-11T07:36:05Z</time>
      </trkpt>
      <trkpt lat="39.2458660" lon="-1.5518620">
        <ele>635.2</ele>
        <time>2019-05-11T07:36:06Z</time>
      </trkpt>
      <trkpt lat="39.2457700" lon="-1.5518380">
        <ele>635.2</ele>
        <time>2019-05-11T07:36:07Z</time>
      </trkpt>
      <trkpt lat="39.2456700" lon="-1.5518170">
        <ele>635.2</ele>
        <time>2019-05-11T07:36:08Z</time>
      </trkpt>
      <trkpt lat="39.2455680" lon="-1.5517910">
        <ele>635.2</ele>
        <time>2019-05-11T07:36:09Z</time>
      </trkpt>
      <trkpt lat="39.2454660" lon="-1.5517600">
        <ele>635.2</ele>
        <time>2019-05-11T07:36:10Z</time>
      </trkpt>
      <trkpt lat="39.2453650" lon="-1.5517230">
        <ele>635.2</ele>
        <time>2019-05-11T07:36:11Z</time>
      </trkpt>
      <trkpt lat="39.2452650" lon="-1.5516820">
        <ele>635.2</ele>
        <time>2019-05-11T07:36:12Z</time>
      </trkpt>
      <trkpt lat="39.2451660" lon="-1.5516430">
        <ele>635.0</ele>
        <time>2019-05-11T07:36:13Z</time>
      </trkpt>
      <trkpt lat="39.2450650" lon="-1.5516110">
        <ele>635.0</ele>
        <time>2019-05-11T07:36:14Z</time>
      </trkpt>
      <trkpt lat="39.2449610" lon="-1.5515860">
        <ele>635.0</ele>
        <time>2019-05-11T07:36:15Z</time>
      </trkpt>
      <trkpt lat="39.2448560" lon="-1.5515610">
        <ele>635.0</ele>
        <time>2019-05-11T07:36:16Z</time>
      </trkpt>
      <trkpt lat="39.2447520" lon="-1.5515310">
        <ele>635.0</ele>
        <time>2019-05-11T07:36:17Z</time>
      </trkpt>
      <trkpt lat="39.2446480" lon="-1.5515000">
        <ele>635.0</ele>
        <time>2019-05-11T07:36:18Z</time>
      </trkpt>
      <trkpt lat="39.2445440" lon="-1.5514660">
        <ele>635.0</ele>
        <time>2019-05-11T07:36:19Z</time>
      </trkpt>
      <trkpt lat="39.2444430" lon="-1.5514280">
        <ele>635.0</ele>
        <time>2019-05-11T07:36:20Z</time>
      </trkpt>
      <trkpt lat="39.2443440" lon="-1.5513810">
        <ele>635.0</ele>
        <time>2019-05-11T07:36:21Z</time>
      </trkpt>
      <trkpt lat="39.2442500" lon="-1.5513230">
        <ele>635.0</ele>
        <time>2019-05-11T07:36:22Z</time>
      </trkpt>
      <trkpt lat="39.2441610" lon="-1.5512550">
        <ele>635.0</ele>
        <time>2019-05-11T07:36:23Z</time>
      </trkpt>
      <trkpt lat="39.2440770" lon="-1.5511800">
        <ele>635.0</ele>
        <time>2019-05-11T07:36:24Z</time>
      </trkpt>
      <trkpt lat="39.2439950" lon="-1.5511020">
        <ele>634.8</ele>
        <time>2019-05-11T07:36:25Z</time>
      </trkpt>
      <trkpt lat="39.2439130" lon="-1.5510220">
        <ele>634.8</ele>
        <time>2019-05-11T07:36:26Z</time>
      </trkpt>
      <trkpt lat="39.2438340" lon="-1.5509360">
        <ele>634.8</ele>
        <time>2019-05-11T07:36:27Z</time>
      </trkpt>
      <trkpt lat="39.2437590" lon="-1.5508400">
        <ele>634.8</ele>
        <time>2019-05-11T07:36:28Z</time>
      </trkpt>
      <trkpt lat="39.2436870" lon="-1.5507410">
        <ele>634.8</ele>
        <time>2019-05-11T07:36:29Z</time>
      </trkpt>
      <trkpt lat="39.2436160" lon="-1.5506390">
        <ele>634.8</ele>
        <time>2019-05-11T07:36:30Z</time>
      </trkpt>
      <trkpt lat="39.2435440" lon="-1.5505360">
        <ele>634.6</ele>
        <time>2019-05-11T07:36:31Z</time>
      </trkpt>
      <trkpt lat="39.2434710" lon="-1.5504360">
        <ele>634.6</ele>
        <time>2019-05-11T07:36:32Z</time>
      </trkpt>
      <trkpt lat="39.2433980" lon="-1.5503340">
        <ele>634.6</ele>
        <time>2019-05-11T07:36:33Z</time>
      </trkpt>
      <trkpt lat="39.2433230" lon="-1.5502340">
        <ele>634.4</ele>
        <time>2019-05-11T07:36:34Z</time>
      </trkpt>
      <trkpt lat="39.2432450" lon="-1.5501400">
        <ele>634.2</ele>
        <time>2019-05-11T07:36:35Z</time>
      </trkpt>
      <trkpt lat="39.2431600" lon="-1.5500570">
        <ele>634.2</ele>
        <time>2019-05-11T07:36:36Z</time>
      </trkpt>
      <trkpt lat="39.2430690" lon="-1.5499910">
        <ele>634.0</ele>
        <time>2019-05-11T07:36:37Z</time>
      </trkpt>
      <trkpt lat="39.2429740" lon="-1.5499390">
        <ele>633.8</ele>
        <time>2019-05-11T07:36:38Z</time>
      </trkpt>
      <trkpt lat="39.2428760" lon="-1.5498910">
        <ele>633.6</ele>
        <time>2019-05-11T07:36:39Z</time>
      </trkpt>
      <trkpt lat="39.2427810" lon="-1.5498390">
        <ele>633.6</ele>
        <time>2019-05-11T07:36:40Z</time>
      </trkpt>
      <trkpt lat="39.2426890" lon="-1.5497800">
        <ele>633.6</ele>
        <time>2019-05-11T07:36:41Z</time>
      </trkpt>
      <trkpt lat="39.2426020" lon="-1.5497150">
        <ele>633.4</ele>
        <time>2019-05-11T07:36:42Z</time>
      </trkpt>
      <trkpt lat="39.2425160" lon="-1.5496520">
        <ele>633.2</ele>
        <time>2019-05-11T07:36:43Z</time>
      </trkpt>
      <trkpt lat="39.2424270" lon="-1.5495960">
        <ele>633.0</ele>
        <time>2019-05-11T07:36:44Z</time>
      </trkpt>
      <trkpt lat="39.2423310" lon="-1.5495560">
        <ele>633.0</ele>
        <time>2019-05-11T07:36:45Z</time>
      </trkpt>
      <trkpt lat="39.2422340" lon="-1.5495310">
        <ele>633.0</ele>
        <time>2019-05-11T07:36:46Z</time>
      </trkpt>
      <trkpt lat="39.2421340" lon="-1.5495140">
        <ele>633.0</ele>
        <time>2019-05-11T07:36:47Z</time>
      </trkpt>
      <trkpt lat="39.2420330" lon="-1.5495010">
        <ele>633.0</ele>
        <time>2019-05-11T07:36:48Z</time>
      </trkpt>
      <trkpt lat="39.2419350" lon="-1.5494910">
        <ele>633.0</ele>
        <time>2019-05-11T07:36:49Z</time>
      </trkpt>
      <trkpt lat="39.2418370" lon="-1.5494810">
        <ele>632.8</ele>
        <time>2019-05-11T07:36:50Z</time>
      </trkpt>
      <trkpt lat="39.2417410" lon="-1.5494670">
        <ele>632.8</ele>
        <time>2019-05-11T07:36:51Z</time>
      </trkpt>
      <trkpt lat="39.2416500" lon="-1.5494390">
        <ele>633.0</ele>
        <time>2019-05-11T07:36:52Z</time>
      </trkpt>
      <trkpt lat="39.2415610" lon="-1.5494020">
        <ele>633.0</ele>
        <time>2019-05-11T07:36:53Z</time>
      </trkpt>
      <trkpt lat="39.2414720" lon="-1.5493620">
        <ele>633.0</ele>
        <time>2019-05-11T07:36:54Z</time>
      </trkpt>
      <trkpt lat="39.2413850" lon="-1.5493170">
        <ele>633.0</ele>
        <time>2019-05-11T07:36:55Z</time>
      </trkpt>
      <trkpt lat="39.2412960" lon="-1.5492740">
        <ele>633.0</ele>
        <time>2019-05-11T07:36:56Z</time>
      </trkpt>
      <trkpt lat="39.2412060" lon="-1.5492300">
        <ele>633.0</ele>
        <time>2019-05-11T07:36:57Z</time>
      </trkpt>
      <trkpt lat="39.2411150" lon="-1.5491830">
        <ele>633.0</ele>
        <time>2019-05-11T07:36:58Z</time>
      </trkpt>
      <trkpt lat="39.2410200" lon="-1.5491370">
        <ele>633.0</ele>
        <time>2019-05-11T07:36:59Z</time>
      </trkpt>
      <trkpt lat="39.2409220" lon="-1.5490910">
        <ele>633.0</ele>
        <time>2019-05-11T07:37:00Z</time>
      </trkpt>
      <trkpt lat="39.2408220" lon="-1.5490430">
        <ele>633.0</ele>
        <time>2019-05-11T07:37:01Z</time>
      </trkpt>
      <trkpt lat="39.2407220" lon="-1.5489960">
        <ele>633.0</ele>
        <time>2019-05-11T07:37:02Z</time>
      </trkpt>
      <trkpt lat="39.2406210" lon="-1.5489460">
        <ele>633.0</ele>
        <time>2019-05-11T07:37:03Z</time>
      </trkpt>
      <trkpt lat="39.2405220" lon="-1.5488920">
        <ele>633.0</ele>
        <time>2019-05-11T07:37:04Z</time>
      </trkpt>
      <trkpt lat="39.2404260" lon="-1.5488310">
        <ele>633.0</ele>
        <time>2019-05-11T07:37:05Z</time>
      </trkpt>
      <trkpt lat="39.2403330" lon="-1.5487650">
        <ele>633.0</ele>
        <time>2019-05-11T07:37:06Z</time>
      </trkpt>
      <trkpt lat="39.2402410" lon="-1.5486940">
        <ele>633.0</ele>
        <time>2019-05-11T07:37:07Z</time>
      </trkpt>
      <trkpt lat="39.2401510" lon="-1.5486200">
        <ele>633.0</ele>
        <time>2019-05-11T07:37:08Z</time>
      </trkpt>
      <trkpt lat="39.2400630" lon="-1.5485430">
        <ele>633.0</ele>
        <time>2019-05-11T07:37:09Z</time>
      </trkpt>
      <trkpt lat="39.2399810" lon="-1.5484630">
        <ele>632.8</ele>
        <time>2019-05-11T07:37:10Z</time>
      </trkpt>
      <trkpt lat="39.2399020" lon="-1.5483790">
        <ele>632.8</ele>
        <time>2019-05-11T07:37:11Z</time>
      </trkpt>
      <trkpt lat="39.2398310" lon="-1.5482880">
        <ele>632.6</ele>
        <time>2019-05-11T07:37:12Z</time>
      </trkpt>
      <trkpt lat="39.2397720" lon="-1.5481950">
        <ele>632.2</ele>
        <time>2019-05-11T07:37:13Z</time>
      </trkpt>
      <trkpt lat="39.2397220" lon="-1.5481060">
        <ele>632.0</ele>
        <time>2019-05-11T07:37:14Z</time>
      </trkpt>
      <trkpt lat="39.2396710" lon="-1.5480260">
        <ele>631.6</ele>
        <time>2019-05-11T07:37:15Z</time>
      </trkpt>
      <trkpt lat="39.2396100" lon="-1.5479600">
        <ele>631.2</ele>
        <time>2019-05-11T07:37:16Z</time>
      </trkpt>
      <trkpt lat="39.2395380" lon="-1.5479180">
        <ele>631.0</ele>
        <time>2019-05-11T07:37:17Z</time>
      </trkpt>
      <trkpt lat="39.2394580" lon="-1.5478940">
        <ele>630.8</ele>
        <time>2019-05-11T07:37:18Z</time>
      </trkpt>
      <trkpt lat="39.2393730" lon="-1.5478790">
        <ele>630.4</ele>
        <time>2019-05-11T07:37:19Z</time>
      </trkpt>
      <trkpt lat="39.2392860" lon="-1.5478650">
        <ele>630.0</ele>
        <time>2019-05-11T07:37:20Z</time>
      </trkpt>
      <trkpt lat="39.2392050" lon="-1.5478560">
        <ele>629.6</ele>
        <time>2019-05-11T07:37:21Z</time>
      </trkpt>
      <trkpt lat="39.2391380" lon="-1.5478510">
        <ele>629.2</ele>
        <time>2019-05-11T07:37:22Z</time>
      </trkpt>
      <trkpt lat="39.2390880" lon="-1.5478430">
        <ele>629.0</ele>
        <time>2019-05-11T07:37:23Z</time>
      </trkpt>
      <trkpt lat="39.2390530" lon="-1.5478250">
        <ele>628.8</ele>
        <time>2019-05-11T07:37:24Z</time>
      </trkpt>
      <trkpt lat="39.2390320" lon="-1.5477950">
        <ele>628.4</ele>
        <time>2019-05-11T07:37:25Z</time>
      </trkpt>
      <trkpt lat="39.2390270" lon="-1.5477630">
        <ele>627.6</ele>
        <time>2019-05-11T07:37:26Z</time>
      </trkpt>
      <trkpt lat="39.2390340" lon="-1.5477320">
        <ele>626.8</ele>
        <time>2019-05-11T07:37:27Z</time>
      </trkpt>
      <trkpt lat="39.2390440" lon="-1.5476970">
        <ele>626.4</ele>
        <time>2019-05-11T07:37:28Z</time>
      </trkpt>
      <trkpt lat="39.2390620" lon="-1.5476600">
        <ele>626.0</ele>
        <time>2019-05-11T07:37:29Z</time>
      </trkpt>
      <trkpt lat="39.2390880" lon="-1.5476260">
        <ele>626.0</ele>
        <time>2019-05-11T07:37:30Z</time>
      </trkpt>
      <trkpt lat="39.2391190" lon="-1.5475900">
        <ele>626.0</ele>
        <time>2019-05-11T07:37:31Z</time>
      </trkpt>
      <trkpt lat="39.2391530" lon="-1.5475520">
        <ele>625.8</ele>
        <time>2019-05-11T07:37:32Z</time>
      </trkpt>
      <trkpt lat="39.2391950" lon="-1.5475140">
        <ele>625.8</ele>
        <time>2019-05-11T07:37:33Z</time>
      </trkpt>
      <trkpt lat="39.2392380" lon="-1.5474770">
        <ele>625.8</ele>
        <time>2019-05-11T07:37:34Z</time>
      </trkpt>
      <trkpt lat="39.2392830" lon="-1.5474440">
        <ele>625.8</ele>
        <time>2019-05-11T07:37:35Z</time>
      </trkpt>
      <trkpt lat="39.2393260" lon="-1.5474130">
        <ele>625.8</ele>
        <time>2019-05-11T07:37:36Z</time>
      </trkpt>
      <trkpt lat="39.2393660" lon="-1.5473870">
        <ele>625.8</ele>
        <time>2019-05-11T07:37:37Z</time>
      </trkpt>
      <trkpt lat="39.2394010" lon="-1.5473650">
        <ele>626.0</ele>
        <time>2019-05-11T07:37:38Z</time>
      </trkpt>
      <trkpt lat="39.2394330" lon="-1.5473490">
        <ele>626.2</ele>
        <time>2019-05-11T07:37:39Z</time>
      </trkpt>
      <trkpt lat="39.2394610" lon="-1.5473370">
        <ele>626.6</ele>
        <time>2019-05-11T07:37:40Z</time>
      </trkpt>
      <trkpt lat="39.2394820" lon="-1.5473270">
        <ele>626.6</ele>
        <time>2019-05-11T07:37:41Z</time>
      </trkpt>
      <trkpt lat="39.2394990" lon="-1.5473150">
        <ele>626.6</ele>
        <time>2019-05-11T07:37:42Z</time>
      </trkpt>
      <trkpt lat="39.2395170" lon="-1.5473000">
        <ele>626.6</ele>
        <time>2019-05-11T07:37:43Z</time>
      </trkpt>
      <trkpt lat="39.2395350" lon="-1.5472830">
        <ele>626.6</ele>
        <time>2019-05-11T07:37:44Z</time>
      </trkpt>
      <trkpt lat="39.2395550" lon="-1.5472630">
        <ele>626.6</ele>
        <time>2019-05-11T07:37:45Z</time>
      </trkpt>
      <trkpt lat="39.2395710" lon="-1.5472410">
        <ele>626.6</ele>
        <time>2019-05-11T07:37:46Z</time>
      </trkpt>
      <trkpt lat="39.2395840" lon="-1.5472180">
        <ele>626.8</ele>
        <time>2019-05-11T07:37:47Z</time>
      </trkpt>
      <trkpt lat="39.2395940" lon="-1.5471970">
        <ele>626.8</ele>
        <time>2019-05-11T07:37:48Z</time>
      </trkpt>
      <trkpt lat="39.2396030" lon="-1.5471780">
        <ele>626.8</ele>
        <time>2019-05-11T07:37:49Z</time>
      </trkpt>
      <trkpt lat="39.2396110" lon="-1.5471610">
        <ele>626.8</ele>
        <time>2019-05-11T07:37:50Z</time>
      </trkpt>
      <trkpt lat="39.2396180" lon="-1.5471420">
        <ele>626.8</ele>
        <time>2019-05-11T07:37:51Z</time>
      </trkpt>
      <trkpt lat="39.2396200" lon="-1.5471200">
        <ele>626.8</ele>
        <time>2019-05-11T07:37:52Z</time>
      </trkpt>
      <trkpt lat="39.2396230" lon="-1.5470950">
        <ele>626.8</ele>
        <time>2019-05-11T07:37:53Z</time>
      </trkpt>
      <trkpt lat="39.2396250" lon="-1.5470680">
        <ele>626.8</ele>
        <time>2019-05-11T07:37:54Z</time>
      </trkpt>
      <trkpt lat="39.2396260" lon="-1.5470380">
        <ele>626.8</ele>
        <time>2019-05-11T07:37:55Z</time>
      </trkpt>
      <trkpt lat="39.2396280" lon="-1.5470070">
        <ele>627.0</ele>
        <time>2019-05-11T07:37:56Z</time>
      </trkpt>
      <trkpt lat="39.2396290" lon="-1.5469700">
        <ele>627.0</ele>
        <time>2019-05-11T07:37:57Z</time>
      </trkpt>
      <trkpt lat="39.2396300" lon="-1.5469220">
        <ele>627.0</ele>
        <time>2019-05-11T07:37:58Z</time>
      </trkpt>
      <trkpt lat="39.2396280" lon="-1.5468670">
        <ele>627.2</ele>
        <time>2019-05-11T07:37:59Z</time>
      </trkpt>
      <trkpt lat="39.2396190" lon="-1.5468110">
        <ele>627.2</ele>
        <time>2019-05-11T07:38:00Z</time>
      </trkpt>
      <trkpt lat="39.2396060" lon="-1.5467540">
        <ele>627.4</ele>
        <time>2019-05-11T07:38:01Z</time>
      </trkpt>
      <trkpt lat="39.2395920" lon="-1.5466960">
        <ele>627.4</ele>
        <time>2019-05-11T07:38:02Z</time>
      </trkpt>
      <trkpt lat="39.2395820" lon="-1.5466370">
        <ele>627.4</ele>
        <time>2019-05-11T07:38:03Z</time>
      </trkpt>
      <trkpt lat="39.2395840" lon="-1.5465780">
        <ele>627.6</ele>
        <time>2019-05-11T07:38:04Z</time>
      </trkpt>
      <trkpt lat="39.2395970" lon="-1.5465210">
        <ele>627.8</ele>
        <time>2019-05-11T07:38:05Z</time>
      </trkpt>
      <trkpt lat="39.2396190" lon="-1.5464670">
        <ele>628.0</ele>
        <time>2019-05-11T07:38:06Z</time>
      </trkpt>
      <trkpt lat="39.2396460" lon="-1.5464190">
        <ele>628.2</ele>
        <time>2019-05-11T07:38:07Z</time>
      </trkpt>
      <trkpt lat="39.2396810" lon="-1.5463730">
        <ele>628.2</ele>
        <time>2019-05-11T07:38:08Z</time>
      </trkpt>
      <trkpt lat="39.2397230" lon="-1.5463280">
        <ele>628.4</ele>
        <time>2019-05-11T07:38:09Z</time>
      </trkpt>
      <trkpt lat="39.2397690" lon="-1.5462830">
        <ele>628.6</ele>
        <time>2019-05-11T07:38:10Z</time>
      </trkpt>
      <trkpt lat="39.2398190" lon="-1.5462370">
        <ele>628.8</ele>
        <time>2019-05-11T07:38:11Z</time>
      </trkpt>
      <trkpt lat="39.2398690" lon="-1.5461900">
        <ele>629.0</ele>
        <time>2019-05-11T07:38:12Z</time>
      </trkpt>
      <trkpt lat="39.2399200" lon="-1.5461440">
        <ele>629.2</ele>
        <time>2019-05-11T07:38:13Z</time>
      </trkpt>
      <trkpt lat="39.2399730" lon="-1.5460990">
        <ele>629.2</ele>
        <time>2019-05-11T07:38:14Z</time>
      </trkpt>
      <trkpt lat="39.2400260" lon="-1.5460540">
        <ele>629.4</ele>
        <time>2019-05-11T07:38:15Z</time>
      </trkpt>
      <trkpt lat="39.2400810" lon="-1.5460110">
        <ele>629.6</ele>
        <time>2019-05-11T07:38:16Z</time>
      </trkpt>
      <trkpt lat="39.2401380" lon="-1.5459720">
        <ele>629.8</ele>
        <time>2019-05-11T07:38:17Z</time>
      </trkpt>
      <trkpt lat="39.2401950" lon="-1.5459380">
        <ele>630.0</ele>
        <time>2019-05-11T07:38:18Z</time>
      </trkpt>
      <trkpt lat="39.2402510" lon="-1.5459090">
        <ele>630.0</ele>
        <time>2019-05-11T07:38:19Z</time>
      </trkpt>
      <trkpt lat="39.2403080" lon="-1.5458790">
        <ele>630.2</ele>
        <time>2019-05-11T07:38:20Z</time>
      </trkpt>
      <trkpt lat="39.2403650" lon="-1.5458480">
        <ele>630.2</ele>
        <time>2019-05-11T07:38:21Z</time>
      </trkpt>
      <trkpt lat="39.2404250" lon="-1.5458170">
        <ele>630.2</ele>
        <time>2019-05-11T07:38:22Z</time>
      </trkpt>
      <trkpt lat="39.2404860" lon="-1.5457840">
        <ele>630.2</ele>
        <time>2019-05-11T07:38:23Z</time>
      </trkpt>
      <trkpt lat="39.2405490" lon="-1.5457480">
        <ele>630.2</ele>
        <time>2019-05-11T07:38:24Z</time>
      </trkpt>
      <trkpt lat="39.2406110" lon="-1.5457050">
        <ele>630.2</ele>
        <time>2019-05-11T07:38:25Z</time>
      </trkpt>
      <trkpt lat="39.2406720" lon="-1.5456570">
        <ele>630.4</ele>
        <time>2019-05-11T07:38:26Z</time>
      </trkpt>
      <trkpt lat="39.2407320" lon="-1.5456050">
        <ele>630.4</ele>
        <time>2019-05-11T07:38:27Z</time>
      </trkpt>
      <trkpt lat="39.2407930" lon="-1.5455510">
        <ele>630.4</ele>
        <time>2019-05-11T07:38:28Z</time>
      </trkpt>
      <trkpt lat="39.2408550" lon="-1.5454940">
        <ele>630.4</ele>
        <time>2019-05-11T07:38:29Z</time>
      </trkpt>
      <trkpt lat="39.2409170" lon="-1.5454360">
        <ele>630.4</ele>
        <time>2019-05-11T07:38:30Z</time>
      </trkpt>
      <trkpt lat="39.2409800" lon="-1.5453790">
        <ele>630.4</ele>
        <time>2019-05-11T07:38:31Z</time>
      </trkpt>
      <trkpt lat="39.2410430" lon="-1.5453240">
        <ele>630.4</ele>
        <time>2019-05-11T07:38:32Z</time>
      </trkpt>
      <trkpt lat="39.2411050" lon="-1.5452700">
        <ele>630.4</ele>
        <time>2019-05-11T07:38:33Z</time>
      </trkpt>
      <trkpt lat="39.2411670" lon="-1.5452190">
        <ele>630.4</ele>
        <time>2019-05-11T07:38:34Z</time>
      </trkpt>
      <trkpt lat="39.2412280" lon="-1.5451630">
        <ele>630.2</ele>
        <time>2019-05-11T07:38:35Z</time>
      </trkpt>
      <trkpt lat="39.2412850" lon="-1.5451010">
        <ele>630.2</ele>
        <time>2019-05-11T07:38:36Z</time>
      </trkpt>
      <trkpt lat="39.2413420" lon="-1.5450370">
        <ele>630.2</ele>
        <time>2019-05-11T07:38:37Z</time>
      </trkpt>
      <trkpt lat="39.2414010" lon="-1.5449740">
        <ele>630.2</ele>
        <time>2019-05-11T07:38:38Z</time>
      </trkpt>
      <trkpt lat="39.2414590" lon="-1.5449100">
        <ele>630.2</ele>
        <time>2019-05-11T07:38:39Z</time>
      </trkpt>
      <trkpt lat="39.2415160" lon="-1.5448470">
        <ele>630.2</ele>
        <time>2019-05-11T07:38:40Z</time>
      </trkpt>
      <trkpt lat="39.2415680" lon="-1.5447830">
        <ele>630.2</ele>
        <time>2019-05-11T07:38:41Z</time>
      </trkpt>
      <trkpt lat="39.2416140" lon="-1.5447230">
        <ele>630.2</ele>
        <time>2019-05-11T07:38:42Z</time>
      </trkpt>
      <trkpt lat="39.2416590" lon="-1.5446670">
        <ele>630.2</ele>
        <time>2019-05-11T07:38:43Z</time>
      </trkpt>
      <trkpt lat="39.2417020" lon="-1.5446140">
        <ele>630.2</ele>
        <time>2019-05-11T07:38:44Z</time>
      </trkpt>
      <trkpt lat="39.2417450" lon="-1.5445610">
        <ele>630.2</ele>
        <time>2019-05-11T07:38:45Z</time>
      </trkpt>
      <trkpt lat="39.2417900" lon="-1.5445040">
        <ele>630.2</ele>
        <time>2019-05-11T07:38:46Z</time>
      </trkpt>
      <trkpt lat="39.2418370" lon="-1.5444420">
        <ele>630.2</ele>
        <time>2019-05-11T07:38:47Z</time>
      </trkpt>
      <trkpt lat="39.2418830" lon="-1.5443760">
        <ele>630.2</ele>
        <time>2019-05-11T07:38:48Z</time>
      </trkpt>
      <trkpt lat="39.2419310" lon="-1.5443100">
        <ele>630.8</ele>
        <time>2019-05-11T07:38:49Z</time>
      </trkpt>
      <trkpt lat="39.2419780" lon="-1.5442430">
        <ele>631.0</ele>
        <time>2019-05-11T07:38:50Z</time>
      </trkpt>
      <trkpt lat="39.2420220" lon="-1.5441700">
        <ele>631.2</ele>
        <time>2019-05-11T07:38:51Z</time>
      </trkpt>
      <trkpt lat="39.2420590" lon="-1.5440910">
        <ele>631.4</ele>
        <time>2019-05-11T07:38:52Z</time>
      </trkpt>
      <trkpt lat="39.2420890" lon="-1.5440060">
        <ele>631.6</ele>
        <time>2019-05-11T07:38:53Z</time>
      </trkpt>
      <trkpt lat="39.2421120" lon="-1.5439210">
        <ele>631.8</ele>
        <time>2019-05-11T07:38:54Z</time>
      </trkpt>
      <trkpt lat="39.2421310" lon="-1.5438390">
        <ele>632.0</ele>
        <time>2019-05-11T07:38:55Z</time>
      </trkpt>
      <trkpt lat="39.2421480" lon="-1.5437590">
        <ele>632.0</ele>
        <time>2019-05-11T07:38:56Z</time>
      </trkpt>
      <trkpt lat="39.2421650" lon="-1.5436820">
        <ele>632.4</ele>
        <time>2019-05-11T07:38:57Z</time>
      </trkpt>
      <trkpt lat="39.2421780" lon="-1.5436080">
        <ele>632.6</ele>
        <time>2019-05-11T07:38:58Z</time>
      </trkpt>
      <trkpt lat="39.2421870" lon="-1.5435400">
        <ele>632.8</ele>
        <time>2019-05-11T07:38:59Z</time>
      </trkpt>
      <trkpt lat="39.2421930" lon="-1.5434740">
        <ele>633.0</ele>
        <time>2019-05-11T07:39:00Z</time>
      </trkpt>
      <trkpt lat="39.2422020" lon="-1.5434020">
        <ele>633.2</ele>
        <time>2019-05-11T07:39:01Z</time>
      </trkpt>
      <trkpt lat="39.2422160" lon="-1.5433260">
        <ele>633.4</ele>
        <time>2019-05-11T07:39:02Z</time>
      </trkpt>
      <trkpt lat="39.2422290" lon="-1.5432470">
        <ele>633.6</ele>
        <time>2019-05-11T07:39:03Z</time>
      </trkpt>
      <trkpt lat="39.2422420" lon="-1.5431670">
        <ele>634.0</ele>
        <time>2019-05-11T07:39:04Z</time>
      </trkpt>
      <trkpt lat="39.2422560" lon="-1.5430880">
        <ele>634.4</ele>
        <time>2019-05-11T07:39:05Z</time>
      </trkpt>
      <trkpt lat="39.2422770" lon="-1.5430130">
        <ele>634.8</ele>
        <time>2019-05-11T07:39:06Z</time>
      </trkpt>
      <trkpt lat="39.2423040" lon="-1.5429400">
        <ele>635.2</ele>
        <time>2019-05-11T07:39:07Z</time>
      </trkpt>
      <trkpt lat="39.2423370" lon="-1.5428690">
        <ele>635.2</ele>
        <time>2019-05-11T07:39:08Z</time>
      </trkpt>
      <trkpt lat="39.2423720" lon="-1.5428000">
        <ele>635.4</ele>
        <time>2019-05-11T07:39:09Z</time>
      </trkpt>
      <trkpt lat="39.2424100" lon="-1.5427320">
        <ele>635.6</ele>
        <time>2019-05-11T07:39:10Z</time>
      </trkpt>
      <trkpt lat="39.2424480" lon="-1.5426620">
        <ele>635.6</ele>
        <time>2019-05-11T07:39:11Z</time>
      </trkpt>
      <trkpt lat="39.2424880" lon="-1.5425920">
        <ele>635.6</ele>
        <time>2019-05-11T07:39:12Z</time>
      </trkpt>
      <trkpt lat="39.2425280" lon="-1.5425220">
        <ele>635.6</ele>
        <time>2019-05-11T07:39:13Z</time>
      </trkpt>
      <trkpt lat="39.2425690" lon="-1.5424530">
        <ele>635.8</ele>
        <time>2019-05-11T07:39:14Z</time>
      </trkpt>
      <trkpt lat="39.2426100" lon="-1.5423860">
        <ele>636.0</ele>
        <time>2019-05-11T07:39:15Z</time>
      </trkpt>
      <trkpt lat="39.2426470" lon="-1.5423200">
        <ele>636.0</ele>
        <time>2019-05-11T07:39:16Z</time>
      </trkpt>
      <trkpt lat="39.2426840" lon="-1.5422560">
        <ele>636.2</ele>
        <time>2019-05-11T07:39:17Z</time>
      </trkpt>
      <trkpt lat="39.2427220" lon="-1.5421910">
        <ele>636.2</ele>
        <time>2019-05-11T07:39:18Z</time>
      </trkpt>
      <trkpt lat="39.2427620" lon="-1.5421270">
        <ele>636.2</ele>
        <time>2019-05-11T07:39:19Z</time>
      </trkpt>
      <trkpt lat="39.2428000" lon="-1.5420670">
        <ele>636.4</ele>
        <time>2019-05-11T07:39:20Z</time>
      </trkpt>
      <trkpt lat="39.2428290" lon="-1.5420170">
        <ele>636.4</ele>
        <time>2019-05-11T07:39:21Z</time>
      </trkpt>
      <trkpt lat="39.2428520" lon="-1.5419730">
        <ele>636.6</ele>
        <time>2019-05-11T07:39:22Z</time>
      </trkpt>
      <trkpt lat="39.2428740" lon="-1.5419320">
        <ele>636.6</ele>
        <time>2019-05-11T07:39:23Z</time>
      </trkpt>
      <trkpt lat="39.2428910" lon="-1.5418960">
        <ele>636.6</ele>
        <time>2019-05-11T07:39:24Z</time>
      </trkpt>
      <trkpt lat="39.2429030" lon="-1.5418680">
        <ele>636.8</ele>
        <time>2019-05-11T07:39:25Z</time>
      </trkpt>
      <trkpt lat="39.2429150" lon="-1.5418430">
        <ele>636.8</ele>
        <time>2019-05-11T07:39:26Z</time>
      </trkpt>
      <trkpt lat="39.2429270" lon="-1.5418150">
        <ele>636.8</ele>
        <time>2019-05-11T07:39:27Z</time>
      </trkpt>
      <trkpt lat="39.2429400" lon="-1.5417830">
        <ele>636.6</ele>
        <time>2019-05-11T07:39:28Z</time>
      </trkpt>
      <trkpt lat="39.2429520" lon="-1.5417490">
        <ele>636.8</ele>
        <time>2019-05-11T07:39:29Z</time>
      </trkpt>
      <trkpt lat="39.2429630" lon="-1.5417180">
        <ele>637.0</ele>
        <time>2019-05-11T07:39:30Z</time>
      </trkpt>
      <trkpt lat="39.2429720" lon="-1.5416940">
        <ele>637.0</ele>
        <time>2019-05-11T07:39:31Z</time>
      </trkpt>
      <trkpt lat="39.2429780" lon="-1.5416770">
        <ele>637.0</ele>
        <time>2019-05-11T07:39:32Z</time>
      </trkpt>
      <trkpt lat="39.2429830" lon="-1.5416620">
        <ele>637.2</ele>
        <time>2019-05-11T07:39:33Z</time>
      </trkpt>
      <trkpt lat="39.2429890" lon="-1.5416440">
        <ele>637.2</ele>
        <time>2019-05-11T07:39:34Z</time>
      </trkpt>
      <trkpt lat="39.2429960" lon="-1.5416210">
        <ele>637.2</ele>
        <time>2019-05-11T07:39:35Z</time>
      </trkpt>
      <trkpt lat="39.2430010" lon="-1.5415990">
        <ele>637.4</ele>
        <time>2019-05-11T07:39:36Z</time>
      </trkpt>
      <trkpt lat="39.2430000" lon="-1.5415820">
        <ele>637.6</ele>
        <time>2019-05-11T07:39:37Z</time>
      </trkpt>
      <trkpt lat="39.2429990" lon="-1.5415670">
        <ele>637.8</ele>
        <time>2019-05-11T07:39:38Z</time>
      </trkpt>
      <trkpt lat="39.2430020" lon="-1.5415520">
        <ele>638.0</ele>
        <time>2019-05-11T07:39:39Z</time>
      </trkpt>
      <trkpt lat="39.2430050" lon="-1.5415350">
        <ele>638.0</ele>
        <time>2019-05-11T07:39:40Z</time>
      </trkpt>
      <trkpt lat="39.2430070" lon="-1.5415200">
        <ele>638.2</ele>
        <time>2019-05-11T07:39:41Z</time>
      </trkpt>
      <trkpt lat="39.2430090" lon="-1.5415040">
        <ele>638.2</ele>
        <time>2019-05-11T07:39:42Z</time>
      </trkpt>
      <trkpt lat="39.2430110" lon="-1.5414880">
        <ele>638.4</ele>
        <time>2019-05-11T07:39:43Z</time>
      </trkpt>
      <trkpt lat="39.2430130" lon="-1.5414700">
        <ele>638.4</ele>
        <time>2019-05-11T07:39:44Z</time>
      </trkpt>
      <trkpt lat="39.2430170" lon="-1.5414510">
        <ele>638.6</ele>
        <time>2019-05-11T07:39:45Z</time>
      </trkpt>
      <trkpt lat="39.2430210" lon="-1.5414300">
        <ele>638.6</ele>
        <time>2019-05-11T07:39:46Z</time>
      </trkpt>
      <trkpt lat="39.2430250" lon="-1.5414050">
        <ele>638.6</ele>
        <time>2019-05-11T07:39:47Z</time>
      </trkpt>
      <trkpt lat="39.2430310" lon="-1.5413770">
        <ele>638.6</ele>
        <time>2019-05-11T07:39:48Z</time>
      </trkpt>
      <trkpt lat="39.2430400" lon="-1.5413490">
        <ele>638.8</ele>
        <time>2019-05-11T07:39:49Z</time>
      </trkpt>
      <trkpt lat="39.2430480" lon="-1.5413250">
        <ele>638.8</ele>
        <time>2019-05-11T07:39:50Z</time>
      </trkpt>
      <trkpt lat="39.2430560" lon="-1.5413060">
        <ele>638.8</ele>
        <time>2019-05-11T07:39:51Z</time>
      </trkpt>
      <trkpt lat="39.2430640" lon="-1.5412910">
        <ele>639.0</ele>
        <time>2019-05-11T07:39:52Z</time>
      </trkpt>
      <trkpt lat="39.2430720" lon="-1.5412770">
        <ele>639.0</ele>
        <time>2019-05-11T07:39:53Z</time>
      </trkpt>
      <trkpt lat="39.2430800" lon="-1.5412620">
        <ele>639.0</ele>
        <time>2019-05-11T07:39:54Z</time>
      </trkpt>
      <trkpt lat="39.2430890" lon="-1.5412460">
        <ele>639.0</ele>
        <time>2019-05-11T07:39:55Z</time>
      </trkpt>
      <trkpt lat="39.2430960" lon="-1.5412290">
        <ele>639.2</ele>
        <time>2019-05-11T07:39:56Z</time>
      </trkpt>
      <trkpt lat="39.2431030" lon="-1.5412120">
        <ele>639.2</ele>
        <time>2019-05-11T07:39:57Z</time>
      </trkpt>
      <trkpt lat="39.2431110" lon="-1.5411930">
        <ele>639.4</ele>
        <time>2019-05-11T07:39:58Z</time>
      </trkpt>
      <trkpt lat="39.2431180" lon="-1.5411730">
        <ele>639.4</ele>
        <time>2019-05-11T07:39:59Z</time>
      </trkpt>
      <trkpt lat="39.2431250" lon="-1.5411510">
        <ele>639.4</ele>
        <time>2019-05-11T07:40:00Z</time>
      </trkpt>
      <trkpt lat="39.2431310" lon="-1.5411260">
        <ele>639.4</ele>
        <time>2019-05-11T07:40:01Z</time>
      </trkpt>
      <trkpt lat="39.2431360" lon="-1.5411000">
        <ele>639.4</ele>
        <time>2019-05-11T07:40:02Z</time>
      </trkpt>
      <trkpt lat="39.2431400" lon="-1.5410720">
        <ele>639.6</ele>
        <time>2019-05-11T07:40:03Z</time>
      </trkpt>
      <trkpt lat="39.2431420" lon="-1.5410440">
        <ele>639.6</ele>
        <time>2019-05-11T07:40:04Z</time>
      </trkpt>
      <trkpt lat="39.2431430" lon="-1.5410170">
        <ele>639.8</ele>
        <time>2019-05-11T07:40:05Z</time>
      </trkpt>
      <trkpt lat="39.2431440" lon="-1.5409890">
        <ele>639.8</ele>
        <time>2019-05-11T07:40:06Z</time>
      </trkpt>
      <trkpt lat="39.2431450" lon="-1.5409620">
        <ele>640.0</ele>
        <time>2019-05-11T07:40:07Z</time>
      </trkpt>
      <trkpt lat="39.2431440" lon="-1.5409340">
        <ele>640.2</ele>
        <time>2019-05-11T07:40:08Z</time>
      </trkpt>
      <trkpt lat="39.2431420" lon="-1.5409050">
        <ele>640.4</ele>
        <time>2019-05-11T07:40:09Z</time>
      </trkpt>
      <trkpt lat="39.2431400" lon="-1.5408720">
        <ele>640.8</ele>
        <time>2019-05-11T07:40:10Z</time>
      </trkpt>
      <trkpt lat="39.2431390" lon="-1.5408370">
        <ele>641.0</ele>
        <time>2019-05-11T07:40:11Z</time>
      </trkpt>
      <trkpt lat="39.2431370" lon="-1.5408030">
        <ele>641.6</ele>
        <time>2019-05-11T07:40:12Z</time>
      </trkpt>
      <trkpt lat="39.2431340" lon="-1.5407660">
        <ele>642.0</ele>
        <time>2019-05-11T07:40:13Z</time>
      </trkpt>
      <trkpt lat="39.2431330" lon="-1.5407250">
        <ele>642.6</ele>
        <time>2019-05-11T07:40:14Z</time>
      </trkpt>
      <trkpt lat="39.2431350" lon="-1.5406800">
        <ele>643.2</ele>
        <time>2019-05-11T07:40:15Z</time>
      </trkpt>
      <trkpt lat="39.2431410" lon="-1.5406290">
        <ele>644.0</ele>
        <time>2019-05-11T07:40:16Z</time>
      </trkpt>
      <trkpt lat="39.2431510" lon="-1.5405750">
        <ele>644.2</ele>
        <time>2019-05-11T07:40:17Z</time>
      </trkpt>
      <trkpt lat="39.2431650" lon="-1.5405200">
        <ele>644.6</ele>
        <time>2019-05-11T07:40:18Z</time>
      </trkpt>
      <trkpt lat="39.2431810" lon="-1.5404620">
        <ele>645.2</ele>
        <time>2019-05-11T07:40:19Z</time>
      </trkpt>
      <trkpt lat="39.2431950" lon="-1.5404040">
        <ele>645.6</ele>
        <time>2019-05-11T07:40:20Z</time>
      </trkpt>
      <trkpt lat="39.2432050" lon="-1.5403590">
        <ele>645.8</ele>
        <time>2019-05-11T07:40:21Z</time>
      </trkpt>
      <trkpt lat="39.2432100" lon="-1.5403220">
        <ele>645.8</ele>
        <time>2019-05-11T07:40:22Z</time>
      </trkpt>
      <trkpt lat="39.2432130" lon="-1.5402890">
        <ele>646.0</ele>
        <time>2019-05-11T07:40:23Z</time>
      </trkpt>
      <trkpt lat="39.2432150" lon="-1.5402600">
        <ele>646.0</ele>
        <time>2019-05-11T07:40:24Z</time>
      </trkpt>
      <trkpt lat="39.2432160" lon="-1.5402300">
        <ele>646.0</ele>
        <time>2019-05-11T07:40:25Z</time>
      </trkpt>
      <trkpt lat="39.2432160" lon="-1.5401980">
        <ele>646.2</ele>
        <time>2019-05-11T07:40:26Z</time>
      </trkpt>
      <trkpt lat="39.2432120" lon="-1.5401640">
        <ele>646.2</ele>
        <time>2019-05-11T07:40:27Z</time>
      </trkpt>
      <trkpt lat="39.2432090" lon="-1.5401290">
        <ele>646.4</ele>
        <time>2019-05-11T07:40:28Z</time>
      </trkpt>
      <trkpt lat="39.2432090" lon="-1.5400950">
        <ele>646.4</ele>
        <time>2019-05-11T07:40:29Z</time>
      </trkpt>
      <trkpt lat="39.2432070" lon="-1.5400630">
        <ele>646.6</ele>
        <time>2019-05-11T07:40:30Z</time>
      </trkpt>
      <trkpt lat="39.2431990" lon="-1.5400350">
        <ele>646.6</ele>
        <time>2019-05-11T07:40:31Z</time>
      </trkpt>
      <trkpt lat="39.2431890" lon="-1.5400050">
        <ele>646.6</ele>
        <time>2019-05-11T07:40:32Z</time>
      </trkpt>
      <trkpt lat="39.2431800" lon="-1.5399740">
        <ele>646.8</ele>
        <time>2019-05-11T07:40:33Z</time>
      </trkpt>
      <trkpt lat="39.2431700" lon="-1.5399420">
        <ele>647.2</ele>
        <time>2019-05-11T07:40:34Z</time>
      </trkpt>
      <trkpt lat="39.2431610" lon="-1.5399140">
        <ele>647.4</ele>
        <time>2019-05-11T07:40:35Z</time>
      </trkpt>
      <trkpt lat="39.2431540" lon="-1.5398870">
        <ele>647.8</ele>
        <time>2019-05-11T07:40:36Z</time>
      </trkpt>
      <trkpt lat="39.2431450" lon="-1.5398610">
        <ele>648.0</ele>
        <time>2019-05-11T07:40:37Z</time>
      </trkpt>
      <trkpt lat="39.2431340" lon="-1.5398300">
        <ele>648.4</ele>
        <time>2019-05-11T07:40:38Z</time>
      </trkpt>
      <trkpt lat="39.2431240" lon="-1.5397980">
        <ele>648.6</ele>
        <time>2019-05-11T07:40:39Z</time>
      </trkpt>
      <trkpt lat="39.2431160" lon="-1.5397680">
        <ele>649.0</ele>
        <time>2019-05-11T07:40:40Z</time>
      </trkpt>
      <trkpt lat="39.2431100" lon="-1.5397390">
        <ele>649.4</ele>
        <time>2019-05-11T07:40:41Z</time>
      </trkpt>
      <trkpt lat="39.2431030" lon="-1.5397130">
        <ele>649.6</ele>
        <time>2019-05-11T07:40:42Z</time>
      </trkpt>
      <trkpt lat="39.2430970" lon="-1.5396880">
        <ele>650.0</ele>
        <time>2019-05-11T07:40:43Z</time>
      </trkpt>
      <trkpt lat="39.2430910" lon="-1.5396630">
        <ele>650.2</ele>
        <time>2019-05-11T07:40:44Z</time>
      </trkpt>
      <trkpt lat="39.2430860" lon="-1.5396360">
        <ele>650.6</ele>
        <time>2019-05-11T07:40:45Z</time>
      </trkpt>
      <trkpt lat="39.2430770" lon="-1.5396100">
        <ele>650.8</ele>
        <time>2019-05-11T07:40:46Z</time>
      </trkpt>
      <trkpt lat="39.2430670" lon="-1.5395800">
        <ele>651.0</ele>
        <time>2019-05-11T07:40:47Z</time>
      </trkpt>
      <trkpt lat="39.2430550" lon="-1.5395510">
        <ele>651.4</ele>
        <time>2019-05-11T07:40:48Z</time>
      </trkpt>
      <trkpt lat="39.2430420" lon="-1.5395210">
        <ele>651.6</ele>
        <time>2019-05-11T07:40:49Z</time>
      </trkpt>
      <trkpt lat="39.2430260" lon="-1.5394940">
        <ele>651.6</ele>
        <time>2019-05-11T07:40:50Z</time>
      </trkpt>
      <trkpt lat="39.2430090" lon="-1.5394680">
        <ele>651.8</ele>
        <time>2019-05-11T07:40:51Z</time>
      </trkpt>
      <trkpt lat="39.2429940" lon="-1.5394460">
        <ele>651.8</ele>
        <time>2019-05-11T07:40:52Z</time>
      </trkpt>
      <trkpt lat="39.2429830" lon="-1.5394290">
        <ele>652.0</ele>
        <time>2019-05-11T07:40:53Z</time>
      </trkpt>
      <trkpt lat="39.2429710" lon="-1.5394130">
        <ele>652.2</ele>
        <time>2019-05-11T07:40:54Z</time>
      </trkpt>
      <trkpt lat="39.2429580" lon="-1.5393920">
        <ele>652.4</ele>
        <time>2019-05-11T07:40:55Z</time>
      </trkpt>
      <trkpt lat="39.2429450" lon="-1.5393710">
        <ele>652.6</ele>
        <time>2019-05-11T07:40:56Z</time>
      </trkpt>
      <trkpt lat="39.2429350" lon="-1.5393500">
        <ele>652.8</ele>
        <time>2019-05-11T07:40:57Z</time>
      </trkpt>
      <trkpt lat="39.2429260" lon="-1.5393300">
        <ele>653.0</ele>
        <time>2019-05-11T07:40:58Z</time>
      </trkpt>
      <trkpt lat="39.2429170" lon="-1.5393100">
        <ele>653.0</ele>
        <time>2019-05-11T07:40:59Z</time>
      </trkpt>
      <trkpt lat="39.2429080" lon="-1.5392910">
        <ele>653.2</ele>
        <time>2019-05-11T07:41:00Z</time>
      </trkpt>
      <trkpt lat="39.2428990" lon="-1.5392700">
        <ele>653.2</ele>
        <time>2019-05-11T07:41:01Z</time>
      </trkpt>
      <trkpt lat="39.2428900" lon="-1.5392480">
        <ele>653.4</ele>
        <time>2019-05-11T07:41:02Z</time>
      </trkpt>
      <trkpt lat="39.2428790" lon="-1.5392250">
        <ele>653.6</ele>
        <time>2019-05-11T07:41:03Z</time>
      </trkpt>
      <trkpt lat="39.2428700" lon="-1.5392040">
        <ele>653.8</ele>
        <time>2019-05-11T07:41:04Z</time>
      </trkpt>
      <trkpt lat="39.2428610" lon="-1.5391850">
        <ele>653.8</ele>
        <time>2019-05-11T07:41:05Z</time>
      </trkpt>
      <trkpt lat="39.2428530" lon="-1.5391640">
        <ele>654.0</ele>
        <time>2019-05-11T07:41:06Z</time>
      </trkpt>
      <trkpt lat="39.2428460" lon="-1.5391430">
        <ele>654.6</ele>
        <time>2019-05-11T07:41:07Z</time>
      </trkpt>
      <trkpt lat="39.2428380" lon="-1.5391230">
        <ele>654.8</ele>
        <time>2019-05-11T07:41:08Z</time>
      </trkpt>
      <trkpt lat="39.2428330" lon="-1.5391010">
        <ele>655.2</ele>
        <time>2019-05-11T07:41:09Z</time>
      </trkpt>
      <trkpt lat="39.2428270" lon="-1.5390830">
        <ele>655.6</ele>
        <time>2019-05-11T07:41:10Z</time>
      </trkpt>
      <trkpt lat="39.2428230" lon="-1.5390660">
        <ele>655.8</ele>
        <time>2019-05-11T07:41:11Z</time>
      </trkpt>
      <trkpt lat="39.2428160" lon="-1.5390490">
        <ele>656.2</ele>
        <time>2019-05-11T07:41:12Z</time>
      </trkpt>
      <trkpt lat="39.2428090" lon="-1.5390290">
        <ele>656.4</ele>
        <time>2019-05-11T07:41:13Z</time>
      </trkpt>
      <trkpt lat="39.2428030" lon="-1.5390060">
        <ele>656.8</ele>
        <time>2019-05-11T07:41:14Z</time>
      </trkpt>
      <trkpt lat="39.2428000" lon="-1.5389810">
        <ele>657.2</ele>
        <time>2019-05-11T07:41:15Z</time>
      </trkpt>
      <trkpt lat="39.2427980" lon="-1.5389590">
        <ele>657.6</ele>
        <time>2019-05-11T07:41:16Z</time>
      </trkpt>
      <trkpt lat="39.2427950" lon="-1.5389370">
        <ele>657.8</ele>
        <time>2019-05-11T07:41:17Z</time>
      </trkpt>
      <trkpt lat="39.2427900" lon="-1.5389180">
        <ele>658.2</ele>
        <time>2019-05-11T07:41:18Z</time>
      </trkpt>
      <trkpt lat="39.2427880" lon="-1.5388980">
        <ele>658.4</ele>
        <time>2019-05-11T07:41:19Z</time>
      </trkpt>
      <trkpt lat="39.2427840" lon="-1.5388800">
        <ele>658.8</ele>
        <time>2019-05-11T07:41:20Z</time>
      </trkpt>
      <trkpt lat="39.2427810" lon="-1.5388600">
        <ele>659.2</ele>
        <time>2019-05-11T07:41:21Z</time>
      </trkpt>
      <trkpt lat="39.2427760" lon="-1.5388380">
        <ele>659.6</ele>
        <time>2019-05-11T07:41:22Z</time>
      </trkpt>
      <trkpt lat="39.2427720" lon="-1.5388150">
        <ele>660.2</ele>
        <time>2019-05-11T07:41:23Z</time>
      </trkpt>
      <trkpt lat="39.2427670" lon="-1.5387940">
        <ele>660.6</ele>
        <time>2019-05-11T07:41:24Z</time>
      </trkpt>
      <trkpt lat="39.2427630" lon="-1.5387740">
        <ele>660.8</ele>
        <time>2019-05-11T07:41:25Z</time>
      </trkpt>
      <trkpt lat="39.2427570" lon="-1.5387540">
        <ele>661.2</ele>
        <time>2019-05-11T07:41:26Z</time>
      </trkpt>
      <trkpt lat="39.2427510" lon="-1.5387340">
        <ele>661.4</ele>
        <time>2019-05-11T07:41:27Z</time>
      </trkpt>
      <trkpt lat="39.2427450" lon="-1.5387120">
        <ele>661.6</ele>
        <time>2019-05-11T07:41:28Z</time>
      </trkpt>
      <trkpt lat="39.2427390" lon="-1.5386890">
        <ele>661.8</ele>
        <time>2019-05-11T07:41:29Z</time>
      </trkpt>
      <trkpt lat="39.2427330" lon="-1.5386660">
        <ele>662.0</ele>
        <time>2019-05-11T07:41:30Z</time>
      </trkpt>
      <trkpt lat="39.2427270" lon="-1.5386430">
        <ele>662.2</ele>
        <time>2019-05-11T07:41:31Z</time>
      </trkpt>
      <trkpt lat="39.2427190" lon="-1.5386210">
        <ele>662.4</ele>
        <time>2019-05-11T07:41:32Z</time>
      </trkpt>
      <trkpt lat="39.2427120" lon="-1.5385990">
        <ele>662.6</ele>
        <time>2019-05-11T07:41:33Z</time>
      </trkpt>
      <trkpt lat="39.2427050" lon="-1.5385770">
        <ele>663.0</ele>
        <time>2019-05-11T07:41:34Z</time>
      </trkpt>
      <trkpt lat="39.2426980" lon="-1.5385550">
        <ele>663.2</ele>
        <time>2019-05-11T07:41:35Z</time>
      </trkpt>
      <trkpt lat="39.2426910" lon="-1.5385330">
        <ele>663.6</ele>
        <time>2019-05-11T07:41:36Z</time>
      </trkpt>
      <trkpt lat="39.2426840" lon="-1.5385090">
        <ele>664.0</ele>
        <time>2019-05-11T07:41:37Z</time>
      </trkpt>
      <trkpt lat="39.2426770" lon="-1.5384860">
        <ele>664.4</ele>
        <time>2019-05-11T07:41:38Z</time>
      </trkpt>
      <trkpt lat="39.2426700" lon="-1.5384640">
        <ele>664.6</ele>
        <time>2019-05-11T07:41:39Z</time>
      </trkpt>
      <trkpt lat="39.2426620" lon="-1.5384410">
        <ele>664.8</ele>
        <time>2019-05-11T07:41:40Z</time>
      </trkpt>
      <trkpt lat="39.2426540" lon="-1.5384220">
        <ele>665.4</ele>
        <time>2019-05-11T07:41:41Z</time>
      </trkpt>
      <trkpt lat="39.2426470" lon="-1.5384060">
        <ele>665.6</ele>
        <time>2019-05-11T07:41:42Z</time>
      </trkpt>
      <trkpt lat="39.2426420" lon="-1.5383930">
        <ele>665.8</ele>
        <time>2019-05-11T07:41:43Z</time>
      </trkpt>
      <trkpt lat="39.2426370" lon="-1.5383780">
        <ele>665.8</ele>
        <time>2019-05-11T07:41:44Z</time>
      </trkpt>
      <trkpt lat="39.2426320" lon="-1.5383640">
        <ele>666.2</ele>
        <time>2019-05-11T07:41:45Z</time>
      </trkpt>
      <trkpt lat="39.2426260" lon="-1.5383480">
        <ele>666.4</ele>
        <time>2019-05-11T07:41:46Z</time>
      </trkpt>
      <trkpt lat="39.2426170" lon="-1.5383280">
        <ele>666.4</ele>
        <time>2019-05-11T07:41:47Z</time>
      </trkpt>
      <trkpt lat="39.2426090" lon="-1.5383060">
        <ele>666.8</ele>
        <time>2019-05-11T07:41:48Z</time>
      </trkpt>
      <trkpt lat="39.2426040" lon="-1.5382830">
        <ele>667.0</ele>
        <time>2019-05-11T07:41:49Z</time>
      </trkpt>
      <trkpt lat="39.2426010" lon="-1.5382620">
        <ele>667.2</ele>
        <time>2019-05-11T07:41:50Z</time>
      </trkpt>
      <trkpt lat="39.2425980" lon="-1.5382430">
        <ele>667.2</ele>
        <time>2019-05-11T07:41:51Z</time>
      </trkpt>
      <trkpt lat="39.2425940" lon="-1.5382270">
        <ele>667.2</ele>
        <time>2019-05-11T07:41:52Z</time>
      </trkpt>
      <trkpt lat="39.2425900" lon="-1.5382130">
        <ele>667.4</ele>
        <time>2019-05-11T07:41:53Z</time>
      </trkpt>
      <trkpt lat="39.2425850" lon="-1.5381990">
        <ele>667.4</ele>
        <time>2019-05-11T07:41:54Z</time>
      </trkpt>
      <trkpt lat="39.2425820" lon="-1.5381820">
        <ele>667.6</ele>
        <time>2019-05-11T07:41:55Z</time>
      </trkpt>
      <trkpt lat="39.2425800" lon="-1.5381670">
        <ele>667.8</ele>
        <time>2019-05-11T07:41:56Z</time>
      </trkpt>
      <trkpt lat="39.2425760" lon="-1.5381500">
        <ele>668.0</ele>
        <time>2019-05-11T07:41:57Z</time>
      </trkpt>
      <trkpt lat="39.2425710" lon="-1.5381340">
        <ele>668.2</ele>
        <time>2019-05-11T07:41:58Z</time>
      </trkpt>
      <trkpt lat="39.2425680" lon="-1.5381180">
        <ele>668.4</ele>
        <time>2019-05-11T07:41:59Z</time>
      </trkpt>
      <trkpt lat="39.2425640" lon="-1.5381040">
        <ele>668.4</ele>
        <time>2019-05-11T07:42:00Z</time>
      </trkpt>
      <trkpt lat="39.2425600" lon="-1.5380900">
        <ele>668.6</ele>
        <time>2019-05-11T07:42:01Z</time>
      </trkpt>
      <trkpt lat="39.2425560" lon="-1.5380750">
        <ele>668.6</ele>
        <time>2019-05-11T07:42:02Z</time>
      </trkpt>
      <trkpt lat="39.2425520" lon="-1.5380600">
        <ele>668.6</ele>
        <time>2019-05-11T07:42:03Z</time>
      </trkpt>
      <trkpt lat="39.2425470" lon="-1.5380450">
        <ele>668.8</ele>
        <time>2019-05-11T07:42:04Z</time>
      </trkpt>
      <trkpt lat="39.2425430" lon="-1.5380290">
        <ele>669.0</ele>
        <time>2019-05-11T07:42:05Z</time>
      </trkpt>
      <trkpt lat="39.2425390" lon="-1.5380130">
        <ele>669.0</ele>
        <time>2019-05-11T07:42:06Z</time>
      </trkpt>
      <trkpt lat="39.2425370" lon="-1.5379950">
        <ele>669.0</ele>
        <time>2019-05-11T07:42:07Z</time>
      </trkpt>
      <trkpt lat="39.2425330" lon="-1.5379770">
        <ele>669.2</ele>
        <time>2019-05-11T07:42:08Z</time>
      </trkpt>
      <trkpt lat="39.2425290" lon="-1.5379600">
        <ele>669.4</ele>
        <time>2019-05-11T07:42:09Z</time>
      </trkpt>
      <trkpt lat="39.2425270" lon="-1.5379430">
        <ele>669.6</ele>
        <time>2019-05-11T07:42:10Z</time>
      </trkpt>
      <trkpt lat="39.2425250" lon="-1.5379290">
        <ele>669.6</ele>
        <time>2019-05-11T07:42:11Z</time>
      </trkpt>
      <trkpt lat="39.2425220" lon="-1.5379150">
        <ele>669.8</ele>
        <time>2019-05-11T07:42:12Z</time>
      </trkpt>
      <trkpt lat="39.2425170" lon="-1.5379030">
        <ele>670.0</ele>
        <time>2019-05-11T07:42:13Z</time>
      </trkpt>
      <trkpt lat="39.2425130" lon="-1.5378900">
        <ele>670.2</ele>
        <time>2019-05-11T07:42:14Z</time>
      </trkpt>
      <trkpt lat="39.2425100" lon="-1.5378770">
        <ele>670.4</ele>
        <time>2019-05-11T07:42:15Z</time>
      </trkpt>
      <trkpt lat="39.2425080" lon="-1.5378650">
        <ele>670.8</ele>
        <time>2019-05-11T07:42:16Z</time>
      </trkpt>
      <trkpt lat="39.2425060" lon="-1.5378530">
        <ele>671.0</ele>
        <time>2019-05-11T07:42:17Z</time>
      </trkpt>
      <trkpt lat="39.2425020" lon="-1.5378400">
        <ele>671.2</ele>
        <time>2019-05-11T07:42:18Z</time>
      </trkpt>
      <trkpt lat="39.2424990" lon="-1.5378290">
        <ele>671.4</ele>
        <time>2019-05-11T07:42:19Z</time>
      </trkpt>
      <trkpt lat="39.2424950" lon="-1.5378190">
        <ele>671.6</ele>
        <time>2019-05-11T07:42:20Z</time>
      </trkpt>
      <trkpt lat="39.2424910" lon="-1.5378060">
        <ele>671.8</ele>
        <time>2019-05-11T07:42:21Z</time>
      </trkpt>
      <trkpt lat="39.2424880" lon="-1.5377940">
        <ele>672.0</ele>
        <time>2019-05-11T07:42:22Z</time>
      </trkpt>
      <trkpt lat="39.2424840" lon="-1.5377820">
        <ele>672.2</ele>
        <time>2019-05-11T07:42:23Z</time>
      </trkpt>
      <trkpt lat="39.2424800" lon="-1.5377670">
        <ele>672.4</ele>
        <time>2019-05-11T07:42:24Z</time>
      </trkpt>
      <trkpt lat="39.2424750" lon="-1.5377530">
        <ele>672.4</ele>
        <time>2019-05-11T07:42:25Z</time>
      </trkpt>
      <trkpt lat="39.2424690" lon="-1.5377390">
        <ele>672.6</ele>
        <time>2019-05-11T07:42:26Z</time>
      </trkpt>
      <trkpt lat="39.2424650" lon="-1.5377240">
        <ele>672.8</ele>
        <time>2019-05-11T07:42:27Z</time>
      </trkpt>
      <trkpt lat="39.2424620" lon="-1.5377110">
        <ele>673.0</ele>
        <time>2019-05-11T07:42:28Z</time>
      </trkpt>
      <trkpt lat="39.2424580" lon="-1.5377010">
        <ele>673.2</ele>
        <time>2019-05-11T07:42:29Z</time>
      </trkpt>
      <trkpt lat="39.2424540" lon="-1.5376900">
        <ele>673.4</ele>
        <time>2019-05-11T07:42:30Z</time>
      </trkpt>
      <trkpt lat="39.2424510" lon="-1.5376810">
        <ele>673.6</ele>
        <time>2019-05-11T07:42:31Z</time>
      </trkpt>
      <trkpt lat="39.2424500" lon="-1.5376800">
        <ele>673.8</ele>
        <time>2019-05-11T07:42:32Z</time>
      </trkpt>
      <trkpt lat="39.2424490" lon="-1.5376770">
        <ele>674.2</ele>
        <time>2019-05-11T07:42:33Z</time>
      </trkpt>
      <trkpt lat="39.2424440" lon="-1.5376670">
        <ele>674.6</ele>
        <time>2019-05-11T07:42:34Z</time>
      </trkpt>
      <trkpt lat="39.2424380" lon="-1.5376530">
        <ele>675.0</ele>
        <time>2019-05-11T07:42:35Z</time>
      </trkpt>
      <trkpt lat="39.2424340" lon="-1.5376390">
        <ele>675.2</ele>
        <time>2019-05-11T07:42:36Z</time>
      </trkpt>
      <trkpt lat="39.2424310" lon="-1.5376300">
        <ele>675.4</ele>
        <time>2019-05-11T07:42:37Z</time>
      </trkpt>
      <trkpt lat="39.2424310" lon="-1.5376270">
        <ele>675.6</ele>
        <time>2019-05-11T07:42:38Z</time>
      </trkpt>
      <trkpt lat="39.2424300" lon="-1.5376230">
        <ele>675.8</ele>
        <time>2019-05-11T07:42:39Z</time>
      </trkpt>
      <trkpt lat="39.2424290" lon="-1.5376160">
        <ele>676.0</ele>
        <time>2019-05-11T07:42:40Z</time>
      </trkpt>
      <trkpt lat="39.2424270" lon="-1.5376070">
        <ele>676.0</ele>
        <time>2019-05-11T07:42:41Z</time>
      </trkpt>
      <trkpt lat="39.2424230" lon="-1.5376000">
        <ele>676.2</ele>
        <time>2019-05-11T07:42:42Z</time>
      </trkpt>
      <trkpt lat="39.2424230" lon="-1.5376000">
        <ele>676.4</ele>
        <time>2019-05-11T07:42:43Z</time>
      </trkpt>
      <trkpt lat="39.2424200" lon="-1.5375870">
        <ele>676.6</ele>
        <time>2019-05-11T07:42:44Z</time>
      </trkpt>
      <trkpt lat="39.2424190" lon="-1.5375810">
        <ele>676.8</ele>
        <time>2019-05-11T07:42:45Z</time>
      </trkpt>
      <trkpt lat="39.2424170" lon="-1.5375700">
        <ele>677.0</ele>
        <time>2019-05-11T07:42:46Z</time>
      </trkpt>
      <trkpt lat="39.2424160" lon="-1.5375570">
        <ele>677.0</ele>
        <time>2019-05-11T07:42:47Z</time>
      </trkpt>
      <trkpt lat="39.2424140" lon="-1.5375440">
        <ele>677.2</ele>
        <time>2019-05-11T07:42:48Z</time>
      </trkpt>
      <trkpt lat="39.2424110" lon="-1.5375320">
        <ele>677.2</ele>
        <time>2019-05-11T07:42:49Z</time>
      </trkpt>
      <trkpt lat="39.2424110" lon="-1.5375190">
        <ele>677.4</ele>
        <time>2019-05-11T07:42:50Z</time>
      </trkpt>
      <trkpt lat="39.2424100" lon="-1.5375080">
        <ele>677.8</ele>
        <time>2019-05-11T07:42:51Z</time>
      </trkpt>
      <trkpt lat="39.2424080" lon="-1.5374980">
        <ele>678.0</ele>
        <time>2019-05-11T07:42:52Z</time>
      </trkpt>
      <trkpt lat="39.2424060" lon="-1.5374870">
        <ele>678.2</ele>
        <time>2019-05-11T07:42:53Z</time>
      </trkpt>
      <trkpt lat="39.2424050" lon="-1.5374770">
        <ele>678.4</ele>
        <time>2019-05-11T07:42:54Z</time>
      </trkpt>
      <trkpt lat="39.2424040" lon="-1.5374700">
        <ele>678.6</ele>
        <time>2019-05-11T07:42:55Z</time>
      </trkpt>
      <trkpt lat="39.2424010" lon="-1.5374610">
        <ele>678.8</ele>
        <time>2019-05-11T07:42:56Z</time>
      </trkpt>
      <trkpt lat="39.2423990" lon="-1.5374490">
        <ele>679.2</ele>
        <time>2019-05-11T07:42:57Z</time>
      </trkpt>
      <trkpt lat="39.2423960" lon="-1.5374350">
        <ele>679.4</ele>
        <time>2019-05-11T07:42:58Z</time>
      </trkpt>
      <trkpt lat="39.2423930" lon="-1.5374230">
        <ele>679.6</ele>
        <time>2019-05-11T07:42:59Z</time>
      </trkpt>
      <trkpt lat="39.2423900" lon="-1.5374100">
        <ele>679.8</ele>
        <time>2019-05-11T07:43:00Z</time>
      </trkpt>
      <trkpt lat="39.2423870" lon="-1.5373940">
        <ele>680.2</ele>
        <time>2019-05-11T07:43:01Z</time>
      </trkpt>
      <trkpt lat="39.2423830" lon="-1.5373770">
        <ele>680.2</ele>
        <time>2019-05-11T07:43:02Z</time>
      </trkpt>
      <trkpt lat="39.2423780" lon="-1.5373600">
        <ele>680.4</ele>
        <time>2019-05-11T07:43:03Z</time>
      </trkpt>
      <trkpt lat="39.2423720" lon="-1.5373430">
        <ele>680.6</ele>
        <time>2019-05-11T07:43:04Z</time>
      </trkpt>
      <trkpt lat="39.2423620" lon="-1.5373260">
        <ele>680.8</ele>
        <time>2019-05-11T07:43:05Z</time>
      </trkpt>
      <trkpt lat="39.2423530" lon="-1.5373100">
        <ele>681.0</ele>
        <time>2019-05-11T07:43:06Z</time>
      </trkpt>
      <trkpt lat="39.2423460" lon="-1.5372970">
        <ele>681.4</ele>
        <time>2019-05-11T07:43:07Z</time>
      </trkpt>
      <trkpt lat="39.2423400" lon="-1.5372860">
        <ele>681.6</ele>
        <time>2019-05-11T07:43:08Z</time>
      </trkpt>
      <trkpt lat="39.2423330" lon="-1.5372740">
        <ele>681.8</ele>
        <time>2019-05-11T07:43:09Z</time>
      </trkpt>
      <trkpt lat="39.2423240" lon="-1.5372580">
        <ele>682.2</ele>
        <time>2019-05-11T07:43:10Z</time>
      </trkpt>
      <trkpt lat="39.2423100" lon="-1.5372340">
        <ele>682.4</ele>
        <time>2019-05-11T07:43:11Z</time>
      </trkpt>
      <trkpt lat="39.2422900" lon="-1.5372050">
        <ele>682.8</ele>
        <time>2019-05-11T07:43:12Z</time>
      </trkpt>
      <trkpt lat="39.2422650" lon="-1.5371630">
        <ele>683.0</ele>
        <time>2019-05-11T07:43:13Z</time>
      </trkpt>
      <trkpt lat="39.2422370" lon="-1.5371140">
        <ele>683.2</ele>
        <time>2019-05-11T07:43:14Z</time>
      </trkpt>
      <trkpt lat="39.2422040" lon="-1.5370620">
        <ele>683.4</ele>
        <time>2019-05-11T07:43:15Z</time>
      </trkpt>
      <trkpt lat="39.2421730" lon="-1.5370070">
        <ele>683.4</ele>
        <time>2019-05-11T07:43:16Z</time>
      </trkpt>
      <trkpt lat="39.2421420" lon="-1.5369470">
        <ele>683.4</ele>
        <time>2019-05-11T07:43:17Z</time>
      </trkpt>
      <trkpt lat="39.2421140" lon="-1.5368820">
        <ele>683.4</ele>
        <time>2019-05-11T07:43:18Z</time>
      </trkpt>
      <trkpt lat="39.2420880" lon="-1.5368120">
        <ele>683.4</ele>
        <time>2019-05-11T07:43:19Z</time>
      </trkpt>
      <trkpt lat="39.2420660" lon="-1.5367410">
        <ele>683.4</ele>
        <time>2019-05-11T07:43:20Z</time>
      </trkpt>
      <trkpt lat="39.2420510" lon="-1.5366730">
        <ele>683.4</ele>
        <time>2019-05-11T07:43:21Z</time>
      </trkpt>
      <trkpt lat="39.2420450" lon="-1.5366120">
        <ele>683.4</ele>
        <time>2019-05-11T07:43:22Z</time>
      </trkpt>
      <trkpt lat="39.2420470" lon="-1.5365670">
        <ele>683.4</ele>
        <time>2019-05-11T07:43:23Z</time>
      </trkpt>
      <trkpt lat="39.2420540" lon="-1.5365340">
        <ele>683.6</ele>
        <time>2019-05-11T07:43:24Z</time>
      </trkpt>
      <trkpt lat="39.2420660" lon="-1.5365040">
        <ele>683.8</ele>
        <time>2019-05-11T07:43:25Z</time>
      </trkpt>
      <trkpt lat="39.2420850" lon="-1.5364810">
        <ele>683.8</ele>
        <time>2019-05-11T07:43:26Z</time>
      </trkpt>
      <trkpt lat="39.2421160" lon="-1.5364720">
        <ele>683.8</ele>
        <time>2019-05-11T07:43:27Z</time>
      </trkpt>
      <trkpt lat="39.2421530" lon="-1.5364780">
        <ele>683.8</ele>
        <time>2019-05-11T07:43:28Z</time>
      </trkpt>
      <trkpt lat="39.2421960" lon="-1.5364880">
        <ele>683.8</ele>
        <time>2019-05-11T07:43:29Z</time>
      </trkpt>
      <trkpt lat="39.2422420" lon="-1.5364950">
        <ele>683.8</ele>
        <time>2019-05-11T07:43:30Z</time>
      </trkpt>
      <trkpt lat="39.2422880" lon="-1.5365020">
        <ele>683.8</ele>
        <time>2019-05-11T07:43:31Z</time>
      </trkpt>
      <trkpt lat="39.2423300" lon="-1.5365050">
        <ele>683.8</ele>
        <time>2019-05-11T07:43:32Z</time>
      </trkpt>
      <trkpt lat="39.2423710" lon="-1.5365070">
        <ele>684.0</ele>
        <time>2019-05-11T07:43:33Z</time>
      </trkpt>
      <trkpt lat="39.2424110" lon="-1.5365090">
        <ele>684.2</ele>
        <time>2019-05-11T07:43:34Z</time>
      </trkpt>
      <trkpt lat="39.2424520" lon="-1.5365070">
        <ele>684.6</ele>
        <time>2019-05-11T07:43:35Z</time>
      </trkpt>
      <trkpt lat="39.2424940" lon="-1.5365040">
        <ele>684.8</ele>
        <time>2019-05-11T07:43:36Z</time>
      </trkpt>
      <trkpt lat="39.2425360" lon="-1.5364990">
        <ele>685.0</ele>
        <time>2019-05-11T07:43:37Z</time>
      </trkpt>
      <trkpt lat="39.2425770" lon="-1.5364910">
        <ele>685.4</ele>
        <time>2019-05-11T07:43:38Z</time>
      </trkpt>
      <trkpt lat="39.2426170" lon="-1.5364820">
        <ele>685.8</ele>
        <time>2019-05-11T07:43:39Z</time>
      </trkpt>
      <trkpt lat="39.2426590" lon="-1.5364750">
        <ele>686.2</ele>
        <time>2019-05-11T07:43:40Z</time>
      </trkpt>
      <trkpt lat="39.2427030" lon="-1.5364660">
        <ele>686.4</ele>
        <time>2019-05-11T07:43:41Z</time>
      </trkpt>
      <trkpt lat="39.2427480" lon="-1.5364550">
        <ele>686.6</ele>
        <time>2019-05-11T07:43:42Z</time>
      </trkpt>
      <trkpt lat="39.2427920" lon="-1.5364440">
        <ele>686.8</ele>
        <time>2019-05-11T07:43:43Z</time>
      </trkpt>
      <trkpt lat="39.2428370" lon="-1.5364330">
        <ele>686.8</ele>
        <time>2019-05-11T07:43:44Z</time>
      </trkpt>
      <trkpt lat="39.2428830" lon="-1.5364230">
        <ele>687.0</ele>
        <time>2019-05-11T07:43:45Z</time>
      </trkpt>
      <trkpt lat="39.2429310" lon="-1.5364140">
        <ele>687.2</ele>
        <time>2019-05-11T07:43:46Z</time>
      </trkpt>
      <trkpt lat="39.2429790" lon="-1.5364030">
        <ele>687.6</ele>
        <time>2019-05-11T07:43:47Z</time>
      </trkpt>
      <trkpt lat="39.2430280" lon="-1.5363920">
        <ele>687.8</ele>
        <time>2019-05-11T07:43:48Z</time>
      </trkpt>
      <trkpt lat="39.2430780" lon="-1.5363790">
        <ele>688.0</ele>
        <time>2019-05-11T07:43:49Z</time>
      </trkpt>
      <trkpt lat="39.2431280" lon="-1.5363640">
        <ele>688.2</ele>
        <time>2019-05-11T07:43:50Z</time>
      </trkpt>
      <trkpt lat="39.2431770" lon="-1.5363490">
        <ele>688.4</ele>
        <time>2019-05-11T07:43:51Z</time>
      </trkpt>
      <trkpt lat="39.2432260" lon="-1.5363320">
        <ele>688.4</ele>
        <time>2019-05-11T07:43:52Z</time>
      </trkpt>
      <trkpt lat="39.2432740" lon="-1.5363160">
        <ele>688.6</ele>
        <time>2019-05-11T07:43:53Z</time>
      </trkpt>
      <trkpt lat="39.2433240" lon="-1.5362960">
        <ele>688.6</ele>
        <time>2019-05-11T07:43:54Z</time>
      </trkpt>
      <trkpt lat="39.2433730" lon="-1.5362690">
        <ele>688.8</ele>
        <time>2019-05-11T07:43:55Z</time>
      </trkpt>
      <trkpt lat="39.2434170" lon="-1.5362330">
        <ele>688.8</ele>
        <time>2019-05-11T07:43:56Z</time>
      </trkpt>
      <trkpt lat="39.2434590" lon="-1.5361960">
        <ele>689.0</ele>
        <time>2019-05-11T07:43:57Z</time>
      </trkpt>
      <trkpt lat="39.2435020" lon="-1.5361610">
        <ele>689.2</ele>
        <time>2019-05-11T07:43:58Z</time>
      </trkpt>
      <trkpt lat="39.2435480" lon="-1.5361310">
        <ele>689.8</ele>
        <time>2019-05-11T07:43:59Z</time>
      </trkpt>
      <trkpt lat="39.2435960" lon="-1.5361090">
        <ele>690.2</ele>
        <time>2019-05-11T07:44:00Z</time>
      </trkpt>
      <trkpt lat="39.2436450" lon="-1.5360910">
        <ele>690.4</ele>
        <time>2019-05-11T07:44:01Z</time>
      </trkpt>
      <trkpt lat="39.2436970" lon="-1.5360750">
        <ele>690.4</ele>
        <time>2019-05-11T07:44:02Z</time>
      </trkpt>
      <trkpt lat="39.2437480" lon="-1.5360590">
        <ele>690.6</ele>
        <time>2019-05-11T07:44:03Z</time>
      </trkpt>
      <trkpt lat="39.2438010" lon="-1.5360460">
        <ele>690.6</ele>
        <time>2019-05-11T07:44:04Z</time>
      </trkpt>
      <trkpt lat="39.2438550" lon="-1.5360340">
        <ele>690.8</ele>
        <time>2019-05-11T07:44:05Z</time>
      </trkpt>
      <trkpt lat="39.2439090" lon="-1.5360250">
        <ele>691.0</ele>
        <time>2019-05-11T07:44:06Z</time>
      </trkpt>
      <trkpt lat="39.2439620" lon="-1.5360180">
        <ele>691.2</ele>
        <time>2019-05-11T07:44:07Z</time>
      </trkpt>
      <trkpt lat="39.2440140" lon="-1.5360180">
        <ele>691.4</ele>
        <time>2019-05-11T07:44:08Z</time>
      </trkpt>
      <trkpt lat="39.2440660" lon="-1.5360170">
        <ele>691.4</ele>
        <time>2019-05-11T07:44:09Z</time>
      </trkpt>
      <trkpt lat="39.2441190" lon="-1.5360180">
        <ele>691.6</ele>
        <time>2019-05-11T07:44:10Z</time>
      </trkpt>
      <trkpt lat="39.2441700" lon="-1.5360250">
        <ele>691.8</ele>
        <time>2019-05-11T07:44:11Z</time>
      </trkpt>
      <trkpt lat="39.2442210" lon="-1.5360330">
        <ele>691.8</ele>
        <time>2019-05-11T07:44:12Z</time>
      </trkpt>
      <trkpt lat="39.2442710" lon="-1.5360410">
        <ele>692.2</ele>
        <time>2019-05-11T07:44:13Z</time>
      </trkpt>
      <trkpt lat="39.2443220" lon="-1.5360450">
        <ele>692.4</ele>
        <time>2019-05-11T07:44:14Z</time>
      </trkpt>
      <trkpt lat="39.2443710" lon="-1.5360460">
        <ele>692.4</ele>
        <time>2019-05-11T07:44:15Z</time>
      </trkpt>
      <trkpt lat="39.2444220" lon="-1.5360420">
        <ele>692.6</ele>
        <time>2019-05-11T07:44:16Z</time>
      </trkpt>
      <trkpt lat="39.2444740" lon="-1.5360350">
        <ele>692.6</ele>
        <time>2019-05-11T07:44:17Z</time>
      </trkpt>
      <trkpt lat="39.2445270" lon="-1.5360230">
        <ele>692.8</ele>
        <time>2019-05-11T07:44:18Z</time>
      </trkpt>
      <trkpt lat="39.2445780" lon="-1.5360110">
        <ele>693.0</ele>
        <time>2019-05-11T07:44:19Z</time>
      </trkpt>
      <trkpt lat="39.2446290" lon="-1.5359980">
        <ele>693.0</ele>
        <time>2019-05-11T07:44:20Z</time>
      </trkpt>
      <trkpt lat="39.2446800" lon="-1.5359850">
        <ele>693.2</ele>
        <time>2019-05-11T07:44:21Z</time>
      </trkpt>
      <trkpt lat="39.2447310" lon="-1.5359710">
        <ele>693.6</ele>
        <time>2019-05-11T07:44:22Z</time>
      </trkpt>
      <trkpt lat="39.2447820" lon="-1.5359610">
        <ele>693.6</ele>
        <time>2019-05-11T07:44:23Z</time>
      </trkpt>
      <trkpt lat="39.2448320" lon="-1.5359510">
        <ele>693.8</ele>
        <time>2019-05-11T07:44:24Z</time>
      </trkpt>
      <trkpt lat="39.2448840" lon="-1.5359450">
        <ele>694.0</ele>
        <time>2019-05-11T07:44:25Z</time>
      </trkpt>
      <trkpt lat="39.2449370" lon="-1.5359400">
        <ele>694.2</ele>
        <time>2019-05-11T07:44:26Z</time>
      </trkpt>
      <trkpt lat="39.2449900" lon="-1.5359380">
        <ele>694.4</ele>
        <time>2019-05-11T07:44:27Z</time>
      </trkpt>
      <trkpt lat="39.2450440" lon="-1.5359380">
        <ele>694.6</ele>
        <time>2019-05-11T07:44:28Z</time>
      </trkpt>
      <trkpt lat="39.2451010" lon="-1.5359390">
        <ele>695.0</ele>
        <time>2019-05-11T07:44:29Z</time>
      </trkpt>
      <trkpt lat="39.2451580" lon="-1.5359400">
        <ele>695.2</ele>
        <time>2019-05-11T07:44:30Z</time>
      </trkpt>
      <trkpt lat="39.2452150" lon="-1.5359360">
        <ele>695.4</ele>
        <time>2019-05-11T07:44:31Z</time>
      </trkpt>
      <trkpt lat="39.2452690" lon="-1.5359370">
        <ele>695.4</ele>
        <time>2019-05-11T07:44:32Z</time>
      </trkpt>
      <trkpt lat="39.2453260" lon="-1.5359360">
        <ele>695.6</ele>
        <time>2019-05-11T07:44:33Z</time>
      </trkpt>
      <trkpt lat="39.2453830" lon="-1.5359370">
        <ele>696.0</ele>
        <time>2019-05-11T07:44:34Z</time>
      </trkpt>
      <trkpt lat="39.2454390" lon="-1.5359370">
        <ele>696.4</ele>
        <time>2019-05-11T07:44:35Z</time>
      </trkpt>
      <trkpt lat="39.2454970" lon="-1.5359340">
        <ele>696.6</ele>
        <time>2019-05-11T07:44:36Z</time>
      </trkpt>
      <trkpt lat="39.2455540" lon="-1.5359270">
        <ele>696.6</ele>
        <time>2019-05-11T07:44:37Z</time>
      </trkpt>
      <trkpt lat="39.2456120" lon="-1.5359170">
        <ele>696.8</ele>
        <time>2019-05-11T07:44:38Z</time>
      </trkpt>
      <trkpt lat="39.2456710" lon="-1.5359040">
        <ele>696.8</ele>
        <time>2019-05-11T07:44:39Z</time>
      </trkpt>
      <trkpt lat="39.2457300" lon="-1.5358870">
        <ele>697.0</ele>
        <time>2019-05-11T07:44:40Z</time>
      </trkpt>
      <trkpt lat="39.2457900" lon="-1.5358690">
        <ele>697.0</ele>
        <time>2019-05-11T07:44:41Z</time>
      </trkpt>
      <trkpt lat="39.2458500" lon="-1.5358490">
        <ele>697.2</ele>
        <time>2019-05-11T07:44:42Z</time>
      </trkpt>
      <trkpt lat="39.2459090" lon="-1.5358270">
        <ele>697.4</ele>
        <time>2019-05-11T07:44:43Z</time>
      </trkpt>
      <trkpt lat="39.2459690" lon="-1.5358040">
        <ele>697.4</ele>
        <time>2019-05-11T07:44:44Z</time>
      </trkpt>
      <trkpt lat="39.2460280" lon="-1.5357790">
        <ele>697.4</ele>
        <time>2019-05-11T07:44:45Z</time>
      </trkpt>
      <trkpt lat="39.2460870" lon="-1.5357500">
        <ele>697.4</ele>
        <time>2019-05-11T07:44:46Z</time>
      </trkpt>
      <trkpt lat="39.2461440" lon="-1.5357180">
        <ele>697.6</ele>
        <time>2019-05-11T07:44:47Z</time>
      </trkpt>
      <trkpt lat="39.2462000" lon="-1.5356820">
        <ele>697.6</ele>
        <time>2019-05-11T07:44:48Z</time>
      </trkpt>
      <trkpt lat="39.2462550" lon="-1.5356440">
        <ele>697.6</ele>
        <time>2019-05-11T07:44:49Z</time>
      </trkpt>
      <trkpt lat="39.2463100" lon="-1.5356060">
        <ele>697.6</ele>
        <time>2019-05-11T07:44:50Z</time>
      </trkpt>
      <trkpt lat="39.2463650" lon="-1.5355710">
        <ele>697.8</ele>
        <time>2019-05-11T07:44:51Z</time>
      </trkpt>
      <trkpt lat="39.2464220" lon="-1.5355370">
        <ele>697.8</ele>
        <time>2019-05-11T07:44:52Z</time>
      </trkpt>
      <trkpt lat="39.2464800" lon="-1.5355040">
        <ele>698.0</ele>
        <time>2019-05-11T07:44:53Z</time>
      </trkpt>
      <trkpt lat="39.2465400" lon="-1.5354720">
        <ele>698.0</ele>
        <time>2019-05-11T07:44:54Z</time>
      </trkpt>
      <trkpt lat="39.2465980" lon="-1.5354390">
        <ele>698.0</ele>
        <time>2019-05-11T07:44:55Z</time>
      </trkpt>
      <trkpt lat="39.2466560" lon="-1.5354060">
        <ele>698.0</ele>
        <time>2019-05-11T07:44:56Z</time>
      </trkpt>
      <trkpt lat="39.2467140" lon="-1.5353720">
        <ele>698.2</ele>
        <time>2019-05-11T07:44:57Z</time>
      </trkpt>
      <trkpt lat="39.2467700" lon="-1.5353380">
        <ele>698.2</ele>
        <time>2019-05-11T07:44:58Z</time>
      </trkpt>
      <trkpt lat="39.2468270" lon="-1.5353060">
        <ele>698.4</ele>
        <time>2019-05-11T07:44:59Z</time>
      </trkpt>
      <trkpt lat="39.2468830" lon="-1.5352750">
        <ele>698.4</ele>
        <time>2019-05-11T07:45:00Z</time>
      </trkpt>
      <trkpt lat="39.2469390" lon="-1.5352440">
        <ele>698.8</ele>
        <time>2019-05-11T07:45:01Z</time>
      </trkpt>
      <trkpt lat="39.2469920" lon="-1.5352080">
        <ele>699.0</ele>
        <time>2019-05-11T07:45:02Z</time>
      </trkpt>
      <trkpt lat="39.2470410" lon="-1.5351630">
        <ele>699.2</ele>
        <time>2019-05-11T07:45:03Z</time>
      </trkpt>
      <trkpt lat="39.2470880" lon="-1.5351110">
        <ele>699.4</ele>
        <time>2019-05-11T07:45:04Z</time>
      </trkpt>
      <trkpt lat="39.2471340" lon="-1.5350590">
        <ele>699.6</ele>
        <time>2019-05-11T07:45:05Z</time>
      </trkpt>
      <trkpt lat="39.2471850" lon="-1.5350110">
        <ele>699.8</ele>
        <time>2019-05-11T07:45:06Z</time>
      </trkpt>
      <trkpt lat="39.2472380" lon="-1.5349680">
        <ele>699.8</ele>
        <time>2019-05-11T07:45:07Z</time>
      </trkpt>
      <trkpt lat="39.2472940" lon="-1.5349290">
        <ele>700.2</ele>
        <time>2019-05-11T07:45:08Z</time>
      </trkpt>
      <trkpt lat="39.2473500" lon="-1.5348920">
        <ele>700.6</ele>
        <time>2019-05-11T07:45:09Z</time>
      </trkpt>
      <trkpt lat="39.2474050" lon="-1.5348540">
        <ele>700.6</ele>
        <time>2019-05-11T07:45:10Z</time>
      </trkpt>
      <trkpt lat="39.2474640" lon="-1.5348200">
        <ele>700.8</ele>
        <time>2019-05-11T07:45:11Z</time>
      </trkpt>
      <trkpt lat="39.2475240" lon="-1.5347890">
        <ele>700.8</ele>
        <time>2019-05-11T07:45:12Z</time>
      </trkpt>
      <trkpt lat="39.2475850" lon="-1.5347590">
        <ele>701.0</ele>
        <time>2019-05-11T07:45:13Z</time>
      </trkpt>
      <trkpt lat="39.2476450" lon="-1.5347290">
        <ele>701.0</ele>
        <time>2019-05-11T07:45:14Z</time>
      </trkpt>
      <trkpt lat="39.2477060" lon="-1.5347010">
        <ele>701.6</ele>
        <time>2019-05-11T07:45:15Z</time>
      </trkpt>
      <trkpt lat="39.2477660" lon="-1.5346730">
        <ele>701.6</ele>
        <time>2019-05-11T07:45:16Z</time>
      </trkpt>
      <trkpt lat="39.2478260" lon="-1.5346450">
        <ele>701.8</ele>
        <time>2019-05-11T07:45:17Z</time>
      </trkpt>
      <trkpt lat="39.2478860" lon="-1.5346160">
        <ele>701.8</ele>
        <time>2019-05-11T07:45:18Z</time>
      </trkpt>
      <trkpt lat="39.2479460" lon="-1.5345890">
        <ele>701.8</ele>
        <time>2019-05-11T07:45:19Z</time>
      </trkpt>
      <trkpt lat="39.2480070" lon="-1.5345600">
        <ele>702.2</ele>
        <time>2019-05-11T07:45:20Z</time>
      </trkpt>
      <trkpt lat="39.2480670" lon="-1.5345320">
        <ele>702.2</ele>
        <time>2019-05-11T07:45:21Z</time>
      </trkpt>
      <trkpt lat="39.2481270" lon="-1.5345030">
        <ele>702.2</ele>
        <time>2019-05-11T07:45:22Z</time>
      </trkpt>
      <trkpt lat="39.2481860" lon="-1.5344760">
        <ele>702.4</ele>
        <time>2019-05-11T07:45:23Z</time>
      </trkpt>
      <trkpt lat="39.2482450" lon="-1.5344480">
        <ele>702.4</ele>
        <time>2019-05-11T07:45:24Z</time>
      </trkpt>
      <trkpt lat="39.2483030" lon="-1.5344220">
        <ele>702.4</ele>
        <time>2019-05-11T07:45:25Z</time>
      </trkpt>
      <trkpt lat="39.2483620" lon="-1.5343970">
        <ele>702.8</ele>
        <time>2019-05-11T07:45:26Z</time>
      </trkpt>
      <trkpt lat="39.2484190" lon="-1.5343760">
        <ele>702.8</ele>
        <time>2019-05-11T07:45:27Z</time>
      </trkpt>
      <trkpt lat="39.2484760" lon="-1.5343530">
        <ele>702.8</ele>
        <time>2019-05-11T07:45:28Z</time>
      </trkpt>
      <trkpt lat="39.2485350" lon="-1.5343350">
        <ele>703.2</ele>
        <time>2019-05-11T07:45:29Z</time>
      </trkpt>
      <trkpt lat="39.2485940" lon="-1.5343120">
        <ele>703.2</ele>
        <time>2019-05-11T07:45:30Z</time>
      </trkpt>
      <trkpt lat="39.2486560" lon="-1.5342840">
        <ele>703.6</ele>
        <time>2019-05-11T07:45:31Z</time>
      </trkpt>
      <trkpt lat="39.2487240" lon="-1.5342510">
        <ele>703.6</ele>
        <time>2019-05-11T07:45:32Z</time>
      </trkpt>
      <trkpt lat="39.2487960" lon="-1.5342100">
        <ele>703.6</ele>
        <time>2019-05-11T07:45:33Z</time>
      </trkpt>
      <trkpt lat="39.2488690" lon="-1.5341600">
        <ele>703.8</ele>
        <time>2019-05-11T07:45:34Z</time>
      </trkpt>
      <trkpt lat="39.2489410" lon="-1.5341010">
        <ele>703.8</ele>
        <time>2019-05-11T07:45:35Z</time>
      </trkpt>
      <trkpt lat="39.2490100" lon="-1.5340310">
        <ele>703.8</ele>
        <time>2019-05-11T07:45:36Z</time>
      </trkpt>
      <trkpt lat="39.2490740" lon="-1.5339570">
        <ele>703.8</ele>
        <time>2019-05-11T07:45:37Z</time>
      </trkpt>
      <trkpt lat="39.2491370" lon="-1.5338780">
        <ele>703.8</ele>
        <time>2019-05-11T07:45:38Z</time>
      </trkpt>
      <trkpt lat="39.2491990" lon="-1.5337980">
        <ele>703.8</ele>
        <time>2019-05-11T07:45:39Z</time>
      </trkpt>
      <trkpt lat="39.2492600" lon="-1.5337200">
        <ele>703.8</ele>
        <time>2019-05-11T07:45:40Z</time>
      </trkpt>
      <trkpt lat="39.2493220" lon="-1.5336430">
        <ele>703.8</ele>
        <time>2019-05-11T07:45:41Z</time>
      </trkpt>
      <trkpt lat="39.2493840" lon="-1.5335670">
        <ele>703.6</ele>
        <time>2019-05-11T07:45:42Z</time>
      </trkpt>
      <trkpt lat="39.2494500" lon="-1.5334980">
        <ele>702.8</ele>
        <time>2019-05-11T07:45:43Z</time>
      </trkpt>
      <trkpt lat="39.2495200" lon="-1.5334390">
        <ele>702.8</ele>
        <time>2019-05-11T07:45:44Z</time>
      </trkpt>
      <trkpt lat="39.2495960" lon="-1.5333930">
        <ele>702.4</ele>
        <time>2019-05-11T07:45:45Z</time>
      </trkpt>
      <trkpt lat="39.2496760" lon="-1.5333610">
        <ele>702.4</ele>
        <time>2019-05-11T07:45:46Z</time>
      </trkpt>
      <trkpt lat="39.2497570" lon="-1.5333390">
        <ele>702.2</ele>
        <time>2019-05-11T07:45:47Z</time>
      </trkpt>
      <trkpt lat="39.2498340" lon="-1.5333200">
        <ele>702.2</ele>
        <time>2019-05-11T07:45:48Z</time>
      </trkpt>
      <trkpt lat="39.2499090" lon="-1.5333020">
        <ele>702.2</ele>
        <time>2019-05-11T07:45:49Z</time>
      </trkpt>
      <trkpt lat="39.2499790" lon="-1.5332820">
        <ele>702.2</ele>
        <time>2019-05-11T07:45:50Z</time>
      </trkpt>
      <trkpt lat="39.2500450" lon="-1.5332560">
        <ele>702.2</ele>
        <time>2019-05-11T07:45:51Z</time>
      </trkpt>
      <trkpt lat="39.2501060" lon="-1.5332250">
        <ele>702.2</ele>
        <time>2019-05-11T07:45:52Z</time>
      </trkpt>
      <trkpt lat="39.2501620" lon="-1.5331840">
        <ele>702.2</ele>
        <time>2019-05-11T07:45:53Z</time>
      </trkpt>
      <trkpt lat="39.2502150" lon="-1.5331360">
        <ele>702.2</ele>
        <time>2019-05-11T07:45:54Z</time>
      </trkpt>
      <trkpt lat="39.2502660" lon="-1.5330830">
        <ele>702.2</ele>
        <time>2019-05-11T07:45:55Z</time>
      </trkpt>
      <trkpt lat="39.2503130" lon="-1.5330290">
        <ele>702.2</ele>
        <time>2019-05-11T07:45:56Z</time>
      </trkpt>
      <trkpt lat="39.2503610" lon="-1.5329810">
        <ele>702.6</ele>
        <time>2019-05-11T07:45:57Z</time>
      </trkpt>
      <trkpt lat="39.2504140" lon="-1.5329420">
        <ele>702.8</ele>
        <time>2019-05-11T07:45:58Z</time>
      </trkpt>
      <trkpt lat="39.2504620" lon="-1.5329100">
        <ele>703.0</ele>
        <time>2019-05-11T07:45:59Z</time>
      </trkpt>
      <trkpt lat="39.2505080" lon="-1.5328840">
        <ele>703.2</ele>
        <time>2019-05-11T07:46:00Z</time>
      </trkpt>
      <trkpt lat="39.2505530" lon="-1.5328680">
        <ele>703.4</ele>
        <time>2019-05-11T07:46:01Z</time>
      </trkpt>
      <trkpt lat="39.2505990" lon="-1.5328630">
        <ele>703.8</ele>
        <time>2019-05-11T07:46:02Z</time>
      </trkpt>
      <trkpt lat="39.2506450" lon="-1.5328710">
        <ele>703.8</ele>
        <time>2019-05-11T07:46:03Z</time>
      </trkpt>
      <trkpt lat="39.2506920" lon="-1.5328860">
        <ele>704.0</ele>
        <time>2019-05-11T07:46:04Z</time>
      </trkpt>
      <trkpt lat="39.2507360" lon="-1.5329010">
        <ele>704.2</ele>
        <time>2019-05-11T07:46:05Z</time>
      </trkpt>
      <trkpt lat="39.2507770" lon="-1.5329130">
        <ele>704.4</ele>
        <time>2019-05-11T07:46:06Z</time>
      </trkpt>
      <trkpt lat="39.2508170" lon="-1.5329260">
        <ele>704.6</ele>
        <time>2019-05-11T07:46:07Z</time>
      </trkpt>
      <trkpt lat="39.2508550" lon="-1.5329430">
        <ele>704.8</ele>
        <time>2019-05-11T07:46:08Z</time>
      </trkpt>
      <trkpt lat="39.2508900" lon="-1.5329610">
        <ele>705.0</ele>
        <time>2019-05-11T07:46:09Z</time>
      </trkpt>
      <trkpt lat="39.2509270" lon="-1.5329770">
        <ele>705.2</ele>
        <time>2019-05-11T07:46:10Z</time>
      </trkpt>
      <trkpt lat="39.2509620" lon="-1.5329940">
        <ele>705.6</ele>
        <time>2019-05-11T07:46:11Z</time>
      </trkpt>
      <trkpt lat="39.2510000" lon="-1.5330100">
        <ele>705.8</ele>
        <time>2019-05-11T07:46:12Z</time>
      </trkpt>
      <trkpt lat="39.2510370" lon="-1.5330280">
        <ele>706.2</ele>
        <time>2019-05-11T07:46:13Z</time>
      </trkpt>
      <trkpt lat="39.2510750" lon="-1.5330460">
        <ele>706.6</ele>
        <time>2019-05-11T07:46:14Z</time>
      </trkpt>
      <trkpt lat="39.2511140" lon="-1.5330630">
        <ele>706.8</ele>
        <time>2019-05-11T07:46:15Z</time>
      </trkpt>
      <trkpt lat="39.2511520" lon="-1.5330780">
        <ele>707.0</ele>
        <time>2019-05-11T07:46:16Z</time>
      </trkpt>
      <trkpt lat="39.2511920" lon="-1.5330880">
        <ele>707.6</ele>
        <time>2019-05-11T07:46:17Z</time>
      </trkpt>
      <trkpt lat="39.2512310" lon="-1.5330940">
        <ele>708.0</ele>
        <time>2019-05-11T07:46:18Z</time>
      </trkpt>
      <trkpt lat="39.2512700" lon="-1.5330950">
        <ele>708.2</ele>
        <time>2019-05-11T07:46:19Z</time>
      </trkpt>
      <trkpt lat="39.2513090" lon="-1.5330910">
        <ele>708.4</ele>
        <time>2019-05-11T07:46:20Z</time>
      </trkpt>
      <trkpt lat="39.2513470" lon="-1.5330850">
        <ele>708.6</ele>
        <time>2019-05-11T07:46:21Z</time>
      </trkpt>
      <trkpt lat="39.2513850" lon="-1.5330760">
        <ele>709.0</ele>
        <time>2019-05-11T07:46:22Z</time>
      </trkpt>
      <trkpt lat="39.2514230" lon="-1.5330670">
        <ele>709.2</ele>
        <time>2019-05-11T07:46:23Z</time>
      </trkpt>
      <trkpt lat="39.2514600" lon="-1.5330570">
        <ele>709.2</ele>
        <time>2019-05-11T07:46:24Z</time>
      </trkpt>
      <trkpt lat="39.2514980" lon="-1.5330480">
        <ele>709.4</ele>
        <time>2019-05-11T07:46:25Z</time>
      </trkpt>
      <trkpt lat="39.2515360" lon="-1.5330380">
        <ele>709.6</ele>
        <time>2019-05-11T07:46:26Z</time>
      </trkpt>
      <trkpt lat="39.2515740" lon="-1.5330290">
        <ele>709.8</ele>
        <time>2019-05-11T07:46:27Z</time>
      </trkpt>
      <trkpt lat="39.2516130" lon="-1.5330210">
        <ele>710.2</ele>
        <time>2019-05-11T07:46:28Z</time>
      </trkpt>
      <trkpt lat="39.2516510" lon="-1.5330140">
        <ele>710.4</ele>
        <time>2019-05-11T07:46:29Z</time>
      </trkpt>
      <trkpt lat="39.2516900" lon="-1.5330090">
        <ele>710.8</ele>
        <time>2019-05-11T07:46:30Z</time>
      </trkpt>
      <trkpt lat="39.2517300" lon="-1.5330050">
        <ele>711.0</ele>
        <time>2019-05-11T07:46:31Z</time>
      </trkpt>
      <trkpt lat="39.2517700" lon="-1.5330030">
        <ele>711.2</ele>
        <time>2019-05-11T07:46:32Z</time>
      </trkpt>
      <trkpt lat="39.2518100" lon="-1.5330020">
        <ele>711.4</ele>
        <time>2019-05-11T07:46:33Z</time>
      </trkpt>
      <trkpt lat="39.2518510" lon="-1.5330050">
        <ele>711.8</ele>
        <time>2019-05-11T07:46:34Z</time>
      </trkpt>
      <trkpt lat="39.2518930" lon="-1.5330080">
        <ele>712.0</ele>
        <time>2019-05-11T07:46:35Z</time>
      </trkpt>
      <trkpt lat="39.2519350" lon="-1.5330110">
        <ele>712.4</ele>
        <time>2019-05-11T07:46:36Z</time>
      </trkpt>
      <trkpt lat="39.2519770" lon="-1.5330130">
        <ele>712.6</ele>
        <time>2019-05-11T07:46:37Z</time>
      </trkpt>
      <trkpt lat="39.2520200" lon="-1.5330140">
        <ele>713.0</ele>
        <time>2019-05-11T07:46:38Z</time>
      </trkpt>
      <trkpt lat="39.2520620" lon="-1.5330150">
        <ele>713.2</ele>
        <time>2019-05-11T07:46:39Z</time>
      </trkpt>
      <trkpt lat="39.2521040" lon="-1.5330150">
        <ele>713.2</ele>
        <time>2019-05-11T07:46:40Z</time>
      </trkpt>
      <trkpt lat="39.2521440" lon="-1.5330140">
        <ele>713.4</ele>
        <time>2019-05-11T07:46:41Z</time>
      </trkpt>
      <trkpt lat="39.2521840" lon="-1.5330110">
        <ele>713.6</ele>
        <time>2019-05-11T07:46:42Z</time>
      </trkpt>
      <trkpt lat="39.2522240" lon="-1.5330070">
        <ele>713.8</ele>
        <time>2019-05-11T07:46:43Z</time>
      </trkpt>
      <trkpt lat="39.2522640" lon="-1.5330030">
        <ele>713.8</ele>
        <time>2019-05-11T07:46:44Z</time>
      </trkpt>
      <trkpt lat="39.2523030" lon="-1.5330000">
        <ele>714.0</ele>
        <time>2019-05-11T07:46:45Z</time>
      </trkpt>
      <trkpt lat="39.2523420" lon="-1.5329980">
        <ele>714.2</ele>
        <time>2019-05-11T07:46:46Z</time>
      </trkpt>
      <trkpt lat="39.2523810" lon="-1.5329990">
        <ele>714.2</ele>
        <time>2019-05-11T07:46:47Z</time>
      </trkpt>
      <trkpt lat="39.2524190" lon="-1.5330010">
        <ele>714.4</ele>
        <time>2019-05-11T07:46:48Z</time>
      </trkpt>
      <trkpt lat="39.2524550" lon="-1.5330060">
        <ele>714.6</ele>
        <time>2019-05-11T07:46:49Z</time>
      </trkpt>
      <trkpt lat="39.2524890" lon="-1.5330120">
        <ele>714.8</ele>
        <time>2019-05-11T07:46:50Z</time>
      </trkpt>
      <trkpt lat="39.2525240" lon="-1.5330210">
        <ele>715.2</ele>
        <time>2019-05-11T07:46:51Z</time>
      </trkpt>
      <trkpt lat="39.2525600" lon="-1.5330230">
        <ele>715.4</ele>
        <time>2019-05-11T07:46:52Z</time>
      </trkpt>
      <trkpt lat="39.2525940" lon="-1.5330210">
        <ele>715.6</ele>
        <time>2019-05-11T07:46:53Z</time>
      </trkpt>
      <trkpt lat="39.2526300" lon="-1.5330210">
        <ele>715.8</ele>
        <time>2019-05-11T07:46:54Z</time>
      </trkpt>
      <trkpt lat="39.2526600" lon="-1.5330110">
        <ele>716.0</ele>
        <time>2019-05-11T07:46:55Z</time>
      </trkpt>
      <trkpt lat="39.2526880" lon="-1.5329940">
        <ele>716.2</ele>
        <time>2019-05-11T07:46:56Z</time>
      </trkpt>
      <trkpt lat="39.2527140" lon="-1.5329760">
        <ele>716.6</ele>
        <time>2019-05-11T07:46:57Z</time>
      </trkpt>
      <trkpt lat="39.2527410" lon="-1.5329530">
        <ele>716.6</ele>
        <time>2019-05-11T07:46:58Z</time>
      </trkpt>
      <trkpt lat="39.2527660" lon="-1.5329250">
        <ele>717.0</ele>
        <time>2019-05-11T07:46:59Z</time>
      </trkpt>
      <trkpt lat="39.2527920" lon="-1.5328950">
        <ele>717.4</ele>
        <time>2019-05-11T07:47:00Z</time>
      </trkpt>
      <trkpt lat="39.2528160" lon="-1.5328630">
        <ele>717.8</ele>
        <time>2019-05-11T07:47:01Z</time>
      </trkpt>
      <trkpt lat="39.2528370" lon="-1.5328320">
        <ele>718.2</ele>
        <time>2019-05-11T07:47:02Z</time>
      </trkpt>
      <trkpt lat="39.2528560" lon="-1.5328020">
        <ele>718.6</ele>
        <time>2019-05-11T07:47:03Z</time>
      </trkpt>
      <trkpt lat="39.2528720" lon="-1.5327730">
        <ele>718.8</ele>
        <time>2019-05-11T07:47:04Z</time>
      </trkpt>
      <trkpt lat="39.2528910" lon="-1.5327480">
        <ele>719.2</ele>
        <time>2019-05-11T07:47:05Z</time>
      </trkpt>
      <trkpt lat="39.2529170" lon="-1.5327300">
        <ele>719.4</ele>
        <time>2019-05-11T07:47:06Z</time>
      </trkpt>
      <trkpt lat="39.2529470" lon="-1.5327130">
        <ele>719.8</ele>
        <time>2019-05-11T07:47:07Z</time>
      </trkpt>
      <trkpt lat="39.2529800" lon="-1.5327040">
        <ele>720.0</ele>
        <time>2019-05-11T07:47:08Z</time>
      </trkpt>
      <trkpt lat="39.2530170" lon="-1.5327010">
        <ele>720.4</ele>
        <time>2019-05-11T07:47:09Z</time>
      </trkpt>
      <trkpt lat="39.2530570" lon="-1.5326990">
        <ele>720.6</ele>
        <time>2019-05-11T07:47:10Z</time>
      </trkpt>
      <trkpt lat="39.2530970" lon="-1.5327020">
        <ele>721.0</ele>
        <time>2019-05-11T07:47:11Z</time>
      </trkpt>
      <trkpt lat="39.2531380" lon="-1.5327110">
        <ele>721.4</ele>
        <time>2019-05-11T07:47:12Z</time>
      </trkpt>
      <trkpt lat="39.2531800" lon="-1.5327310">
        <ele>721.8</ele>
        <time>2019-05-11T07:47:13Z</time>
      </trkpt>
      <trkpt lat="39.2532220" lon="-1.5327600">
        <ele>722.0</ele>
        <time>2019-05-11T07:47:14Z</time>
      </trkpt>
      <trkpt lat="39.2532630" lon="-1.5327950">
        <ele>722.2</ele>
        <time>2019-05-11T07:47:15Z</time>
      </trkpt>
      <trkpt lat="39.2533050" lon="-1.5328380">
        <ele>722.4</ele>
        <time>2019-05-11T07:47:16Z</time>
      </trkpt>
      <trkpt lat="39.2533470" lon="-1.5328830">
        <ele>722.4</ele>
        <time>2019-05-11T07:47:17Z</time>
      </trkpt>
      <trkpt lat="39.2533880" lon="-1.5329330">
        <ele>722.6</ele>
        <time>2019-05-11T07:47:18Z</time>
      </trkpt>
      <trkpt lat="39.2534270" lon="-1.5329910">
        <ele>722.6</ele>
        <time>2019-05-11T07:47:19Z</time>
      </trkpt>
      <trkpt lat="39.2534630" lon="-1.5330530">
        <ele>722.6</ele>
        <time>2019-05-11T07:47:20Z</time>
      </trkpt>
      <trkpt lat="39.2534960" lon="-1.5331200">
        <ele>722.6</ele>
        <time>2019-05-11T07:47:21Z</time>
      </trkpt>
      <trkpt lat="39.2535260" lon="-1.5331920">
        <ele>722.6</ele>
        <time>2019-05-11T07:47:22Z</time>
      </trkpt>
      <trkpt lat="39.2535540" lon="-1.5332660">
        <ele>722.6</ele>
        <time>2019-05-11T07:47:23Z</time>
      </trkpt>
      <trkpt lat="39.2535810" lon="-1.5333410">
        <ele>722.6</ele>
        <time>2019-05-11T07:47:24Z</time>
      </trkpt>
      <trkpt lat="39.2536050" lon="-1.5334190">
        <ele>722.6</ele>
        <time>2019-05-11T07:47:25Z</time>
      </trkpt>
      <trkpt lat="39.2536240" lon="-1.5334990">
        <ele>722.4</ele>
        <time>2019-05-11T07:47:26Z</time>
      </trkpt>
      <trkpt lat="39.2536420" lon="-1.5335790">
        <ele>722.4</ele>
        <time>2019-05-11T07:47:27Z</time>
      </trkpt>
      <trkpt lat="39.2536590" lon="-1.5336610">
        <ele>722.4</ele>
        <time>2019-05-11T07:47:28Z</time>
      </trkpt>
      <trkpt lat="39.2536800" lon="-1.5337410">
        <ele>722.4</ele>
        <time>2019-05-11T07:47:29Z</time>
      </trkpt>
      <trkpt lat="39.2537090" lon="-1.5338160">
        <ele>722.4</ele>
        <time>2019-05-11T07:47:30Z</time>
      </trkpt>
      <trkpt lat="39.2537410" lon="-1.5338880">
        <ele>722.4</ele>
        <time>2019-05-11T07:47:31Z</time>
      </trkpt>
      <trkpt lat="39.2537770" lon="-1.5339570">
        <ele>722.2</ele>
        <time>2019-05-11T07:47:32Z</time>
      </trkpt>
      <trkpt lat="39.2538140" lon="-1.5340250">
        <ele>722.2</ele>
        <time>2019-05-11T07:47:33Z</time>
      </trkpt>
      <trkpt lat="39.2538480" lon="-1.5340940">
        <ele>722.2</ele>
        <time>2019-05-11T07:47:34Z</time>
      </trkpt>
      <trkpt lat="39.2538810" lon="-1.5341640">
        <ele>722.2</ele>
        <time>2019-05-11T07:47:35Z</time>
      </trkpt>
      <trkpt lat="39.2539140" lon="-1.5342340">
        <ele>722.2</ele>
        <time>2019-05-11T07:47:36Z</time>
      </trkpt>
      <trkpt lat="39.2539450" lon="-1.5343040">
        <ele>722.2</ele>
        <time>2019-05-11T07:47:37Z</time>
      </trkpt>
      <trkpt lat="39.2539740" lon="-1.5343750">
        <ele>722.2</ele>
        <time>2019-05-11T07:47:38Z</time>
      </trkpt>
      <trkpt lat="39.2539990" lon="-1.5344480">
        <ele>722.2</ele>
        <time>2019-05-11T07:47:39Z</time>
      </trkpt>
      <trkpt lat="39.2540180" lon="-1.5345250">
        <ele>722.4</ele>
        <time>2019-05-11T07:47:40Z</time>
      </trkpt>
      <trkpt lat="39.2540320" lon="-1.5346030">
        <ele>722.4</ele>
        <time>2019-05-11T07:47:41Z</time>
      </trkpt>
      <trkpt lat="39.2540470" lon="-1.5346800">
        <ele>722.4</ele>
        <time>2019-05-11T07:47:42Z</time>
      </trkpt>
      <trkpt lat="39.2540630" lon="-1.5347570">
        <ele>722.4</ele>
        <time>2019-05-11T07:47:43Z</time>
      </trkpt>
      <trkpt lat="39.2540780" lon="-1.5348340">
        <ele>722.4</ele>
        <time>2019-05-11T07:47:44Z</time>
      </trkpt>
      <trkpt lat="39.2540910" lon="-1.5349110">
        <ele>722.6</ele>
        <time>2019-05-11T07:47:45Z</time>
      </trkpt>
      <trkpt lat="39.2541020" lon="-1.5349890">
        <ele>722.6</ele>
        <time>2019-05-11T07:47:46Z</time>
      </trkpt>
      <trkpt lat="39.2541110" lon="-1.5350670">
        <ele>722.6</ele>
        <time>2019-05-11T07:47:47Z</time>
      </trkpt>
      <trkpt lat="39.2541200" lon="-1.5351440">
        <ele>722.6</ele>
        <time>2019-05-11T07:47:48Z</time>
      </trkpt>
      <trkpt lat="39.2541270" lon="-1.5352210">
        <ele>722.6</ele>
        <time>2019-05-11T07:47:49Z</time>
      </trkpt>
      <trkpt lat="39.2541320" lon="-1.5352970">
        <ele>722.8</ele>
        <time>2019-05-11T07:47:50Z</time>
      </trkpt>
      <trkpt lat="39.2541360" lon="-1.5353740">
        <ele>722.8</ele>
        <time>2019-05-11T07:47:51Z</time>
      </trkpt>
      <trkpt lat="39.2541370" lon="-1.5354520">
        <ele>723.0</ele>
        <time>2019-05-11T07:47:52Z</time>
      </trkpt>
      <trkpt lat="39.2541340" lon="-1.5355310">
        <ele>723.0</ele>
        <time>2019-05-11T07:47:53Z</time>
      </trkpt>
      <trkpt lat="39.2541320" lon="-1.5356090">
        <ele>723.2</ele>
        <time>2019-05-11T07:47:54Z</time>
      </trkpt>
      <trkpt lat="39.2541350" lon="-1.5356860">
        <ele>723.4</ele>
        <time>2019-05-11T07:47:55Z</time>
      </trkpt>
      <trkpt lat="39.2541470" lon="-1.5357600">
        <ele>723.6</ele>
        <time>2019-05-11T07:47:56Z</time>
      </trkpt>
      <trkpt lat="39.2541670" lon="-1.5358300">
        <ele>723.6</ele>
        <time>2019-05-11T07:47:57Z</time>
      </trkpt>
      <trkpt lat="39.2541910" lon="-1.5358970">
        <ele>723.8</ele>
        <time>2019-05-11T07:47:58Z</time>
      </trkpt>
      <trkpt lat="39.2542170" lon="-1.5359630">
        <ele>723.8</ele>
        <time>2019-05-11T07:47:59Z</time>
      </trkpt>
      <trkpt lat="39.2542430" lon="-1.5360270">
        <ele>723.8</ele>
        <time>2019-05-11T07:48:00Z</time>
      </trkpt>
      <trkpt lat="39.2542690" lon="-1.5360920">
        <ele>723.8</ele>
        <time>2019-05-11T07:48:01Z</time>
      </trkpt>
      <trkpt lat="39.2542930" lon="-1.5361550">
        <ele>724.0</ele>
        <time>2019-05-11T07:48:02Z</time>
      </trkpt>
      <trkpt lat="39.2543160" lon="-1.5362170">
        <ele>724.2</ele>
        <time>2019-05-11T07:48:03Z</time>
      </trkpt>
      <trkpt lat="39.2543360" lon="-1.5362800">
        <ele>724.2</ele>
        <time>2019-05-11T07:48:04Z</time>
      </trkpt>
      <trkpt lat="39.2543540" lon="-1.5363420">
        <ele>724.4</ele>
        <time>2019-05-11T07:48:05Z</time>
      </trkpt>
      <trkpt lat="39.2543760" lon="-1.5364040">
        <ele>724.4</ele>
        <time>2019-05-11T07:48:06Z</time>
      </trkpt>
      <trkpt lat="39.2544050" lon="-1.5364580">
        <ele>724.4</ele>
        <time>2019-05-11T07:48:07Z</time>
      </trkpt>
      <trkpt lat="39.2544470" lon="-1.5364950">
        <ele>724.6</ele>
        <time>2019-05-11T07:48:08Z</time>
      </trkpt>
      <trkpt lat="39.2545000" lon="-1.5365070">
        <ele>724.8</ele>
        <time>2019-05-11T07:48:09Z</time>
      </trkpt>
      <trkpt lat="39.2545580" lon="-1.5365030">
        <ele>725.0</ele>
        <time>2019-05-11T07:48:10Z</time>
      </trkpt>
      <trkpt lat="39.2546180" lon="-1.5364950">
        <ele>725.2</ele>
        <time>2019-05-11T07:48:11Z</time>
      </trkpt>
      <trkpt lat="39.2546810" lon="-1.5364850">
        <ele>725.2</ele>
        <time>2019-05-11T07:48:12Z</time>
      </trkpt>
      <trkpt lat="39.2547450" lon="-1.5364740">
        <ele>725.2</ele>
        <time>2019-05-11T07:48:13Z</time>
      </trkpt>
      <trkpt lat="39.2548090" lon="-1.5364640">
        <ele>725.4</ele>
        <time>2019-05-11T07:48:14Z</time>
      </trkpt>
      <trkpt lat="39.2548730" lon="-1.5364550">
        <ele>725.4</ele>
        <time>2019-05-11T07:48:15Z</time>
      </trkpt>
      <trkpt lat="39.2549360" lon="-1.5364450">
        <ele>725.4</ele>
        <time>2019-05-11T07:48:16Z</time>
      </trkpt>
      <trkpt lat="39.2549990" lon="-1.5364330">
        <ele>725.4</ele>
        <time>2019-05-11T07:48:17Z</time>
      </trkpt>
      <trkpt lat="39.2550610" lon="-1.5364240">
        <ele>725.6</ele>
        <time>2019-05-11T07:48:18Z</time>
      </trkpt>
      <trkpt lat="39.2551200" lon="-1.5364300">
        <ele>725.6</ele>
        <time>2019-05-11T07:48:19Z</time>
      </trkpt>
      <trkpt lat="39.2551680" lon="-1.5364610">
        <ele>725.6</ele>
        <time>2019-05-11T07:48:20Z</time>
      </trkpt>
      <trkpt lat="39.2551970" lon="-1.5365130">
        <ele>725.6</ele>
        <time>2019-05-11T07:48:21Z</time>
      </trkpt>
      <trkpt lat="39.2552120" lon="-1.5365750">
        <ele>725.8</ele>
        <time>2019-05-11T07:48:22Z</time>
      </trkpt>
      <trkpt lat="39.2552220" lon="-1.5366410">
        <ele>725.8</ele>
        <time>2019-05-11T07:48:23Z</time>
      </trkpt>
      <trkpt lat="39.2552300" lon="-1.5367100">
        <ele>725.8</ele>
        <time>2019-05-11T07:48:24Z</time>
      </trkpt>
      <trkpt lat="39.2552380" lon="-1.5367810">
        <ele>725.8</ele>
        <time>2019-05-11T07:48:25Z</time>
      </trkpt>
      <trkpt lat="39.2552480" lon="-1.5368540">
        <ele>726.0</ele>
        <time>2019-05-11T07:48:26Z</time>
      </trkpt>
      <trkpt lat="39.2552610" lon="-1.5369270">
        <ele>726.2</ele>
        <time>2019-05-11T07:48:27Z</time>
      </trkpt>
      <trkpt lat="39.2552780" lon="-1.5369980">
        <ele>726.4</ele>
        <time>2019-05-11T07:48:28Z</time>
      </trkpt>
      <trkpt lat="39.2552970" lon="-1.5370690">
        <ele>726.4</ele>
        <time>2019-05-11T07:48:29Z</time>
      </trkpt>
      <trkpt lat="39.2553190" lon="-1.5371390">
        <ele>726.6</ele>
        <time>2019-05-11T07:48:30Z</time>
      </trkpt>
      <trkpt lat="39.2553380" lon="-1.5372100">
        <ele>726.6</ele>
        <time>2019-05-11T07:48:31Z</time>
      </trkpt>
      <trkpt lat="39.2553530" lon="-1.5372820">
        <ele>726.6</ele>
        <time>2019-05-11T07:48:32Z</time>
      </trkpt>
      <trkpt lat="39.2553650" lon="-1.5373560">
        <ele>726.8</ele>
        <time>2019-05-11T07:48:33Z</time>
      </trkpt>
      <trkpt lat="39.2553750" lon="-1.5374300">
        <ele>727.2</ele>
        <time>2019-05-11T07:48:34Z</time>
      </trkpt>
      <trkpt lat="39.2553850" lon="-1.5375060">
        <ele>727.2</ele>
        <time>2019-05-11T07:48:35Z</time>
      </trkpt>
      <trkpt lat="39.2553960" lon="-1.5375820">
        <ele>727.4</ele>
        <time>2019-05-11T07:48:36Z</time>
      </trkpt>
      <trkpt lat="39.2554020" lon="-1.5376570">
        <ele>727.6</ele>
        <time>2019-05-11T07:48:37Z</time>
      </trkpt>
      <trkpt lat="39.2553990" lon="-1.5377320">
        <ele>727.8</ele>
        <time>2019-05-11T07:48:38Z</time>
      </trkpt>
      <trkpt lat="39.2553900" lon="-1.5378070">
        <ele>728.0</ele>
        <time>2019-05-11T07:48:39Z</time>
      </trkpt>
      <trkpt lat="39.2553730" lon="-1.5378810">
        <ele>728.2</ele>
        <time>2019-05-11T07:48:40Z</time>
      </trkpt>
      <trkpt lat="39.2553500" lon="-1.5379520">
        <ele>728.2</ele>
        <time>2019-05-11T07:48:41Z</time>
      </trkpt>
      <trkpt lat="39.2553330" lon="-1.5380250">
        <ele>728.2</ele>
        <time>2019-05-11T07:48:42Z</time>
      </trkpt>
      <trkpt lat="39.2553340" lon="-1.5381020">
        <ele>728.4</ele>
        <time>2019-05-11T07:48:43Z</time>
      </trkpt>
      <trkpt lat="39.2553440" lon="-1.5381800">
        <ele>728.6</ele>
        <time>2019-05-11T07:48:44Z</time>
      </trkpt>
      <trkpt lat="39.2553580" lon="-1.5382580">
        <ele>728.6</ele>
        <time>2019-05-11T07:48:45Z</time>
      </trkpt>
      <trkpt lat="39.2553740" lon="-1.5383360">
        <ele>729.0</ele>
        <time>2019-05-11T07:48:46Z</time>
      </trkpt>
      <trkpt lat="39.2553880" lon="-1.5384150">
        <ele>729.4</ele>
        <time>2019-05-11T07:48:47Z</time>
      </trkpt>
      <trkpt lat="39.2554020" lon="-1.5384930">
        <ele>729.6</ele>
        <time>2019-05-11T07:48:48Z</time>
      </trkpt>
      <trkpt lat="39.2554150" lon="-1.5385730">
        <ele>729.8</ele>
        <time>2019-05-11T07:48:49Z</time>
      </trkpt>
      <trkpt lat="39.2554260" lon="-1.5386530">
        <ele>730.0</ele>
        <time>2019-05-11T07:48:50Z</time>
      </trkpt>
      <trkpt lat="39.2554310" lon="-1.5387370">
        <ele>730.2</ele>
        <time>2019-05-11T07:48:51Z</time>
      </trkpt>
      <trkpt lat="39.2554290" lon="-1.5388220">
        <ele>730.2</ele>
        <time>2019-05-11T07:48:52Z</time>
      </trkpt>
      <trkpt lat="39.2554220" lon="-1.5389080">
        <ele>730.4</ele>
        <time>2019-05-11T07:48:53Z</time>
      </trkpt>
      <trkpt lat="39.2554170" lon="-1.5389970">
        <ele>730.4</ele>
        <time>2019-05-11T07:48:54Z</time>
      </trkpt>
      <trkpt lat="39.2554170" lon="-1.5390890">
        <ele>730.6</ele>
        <time>2019-05-11T07:48:55Z</time>
      </trkpt>
      <trkpt lat="39.2554200" lon="-1.5391830">
        <ele>730.6</ele>
        <time>2019-05-11T07:48:56Z</time>
      </trkpt>
      <trkpt lat="39.2554210" lon="-1.5392800">
        <ele>730.6</ele>
        <time>2019-05-11T07:48:57Z</time>
      </trkpt>
      <trkpt lat="39.2554110" lon="-1.5393760">
        <ele>730.6</ele>
        <time>2019-05-11T07:48:58Z</time>
      </trkpt>
      <trkpt lat="39.2553840" lon="-1.5394650">
        <ele>730.6</ele>
        <time>2019-05-11T07:48:59Z</time>
      </trkpt>
      <trkpt lat="39.2553420" lon="-1.5395430">
        <ele>730.6</ele>
        <time>2019-05-11T07:49:00Z</time>
      </trkpt>
      <trkpt lat="39.2553010" lon="-1.5396190">
        <ele>730.6</ele>
        <time>2019-05-11T07:49:01Z</time>
      </trkpt>
      <trkpt lat="39.2552710" lon="-1.5397010">
        <ele>730.6</ele>
        <time>2019-05-11T07:49:02Z</time>
      </trkpt>
      <trkpt lat="39.2552560" lon="-1.5397870">
        <ele>730.8</ele>
        <time>2019-05-11T07:49:03Z</time>
      </trkpt>
      <trkpt lat="39.2552510" lon="-1.5398740">
        <ele>730.6</ele>
        <time>2019-05-11T07:49:04Z</time>
      </trkpt>
      <trkpt lat="39.2552520" lon="-1.5399600">
        <ele>730.4</ele>
        <time>2019-05-11T07:49:05Z</time>
      </trkpt>
      <trkpt lat="39.2552590" lon="-1.5400460">
        <ele>730.4</ele>
        <time>2019-05-11T07:49:06Z</time>
      </trkpt>
      <trkpt lat="39.2552730" lon="-1.5401330">
        <ele>730.2</ele>
        <time>2019-05-11T07:49:07Z</time>
      </trkpt>
      <trkpt lat="39.2552910" lon="-1.5402190">
        <ele>730.2</ele>
        <time>2019-05-11T07:49:08Z</time>
      </trkpt>
      <trkpt lat="39.2553100" lon="-1.5403010">
        <ele>730.2</ele>
        <time>2019-05-11T07:49:09Z</time>
      </trkpt>
      <trkpt lat="39.2553220" lon="-1.5403880">
        <ele>730.2</ele>
        <time>2019-05-11T07:49:10Z</time>
      </trkpt>
      <trkpt lat="39.2553250" lon="-1.5404730">
        <ele>730.2</ele>
        <time>2019-05-11T07:49:11Z</time>
      </trkpt>
      <trkpt lat="39.2553250" lon="-1.5405620">
        <ele>730.2</ele>
        <time>2019-05-11T07:49:12Z</time>
      </trkpt>
      <trkpt lat="39.2553140" lon="-1.5406500">
        <ele>730.2</ele>
        <time>2019-05-11T07:49:13Z</time>
      </trkpt>
      <trkpt lat="39.2552950" lon="-1.5407410">
        <ele>730.2</ele>
        <time>2019-05-11T07:49:14Z</time>
      </trkpt>
      <trkpt lat="39.2552660" lon="-1.5408340">
        <ele>730.0</ele>
        <time>2019-05-11T07:49:15Z</time>
      </trkpt>
      <trkpt lat="39.2552260" lon="-1.5409250">
        <ele>730.0</ele>
        <time>2019-05-11T07:49:16Z</time>
      </trkpt>
      <trkpt lat="39.2551760" lon="-1.5410120">
        <ele>730.0</ele>
        <time>2019-05-11T07:49:17Z</time>
      </trkpt>
      <trkpt lat="39.2551180" lon="-1.5411000">
        <ele>730.0</ele>
        <time>2019-05-11T07:49:18Z</time>
      </trkpt>
      <trkpt lat="39.2550610" lon="-1.5411910">
        <ele>730.0</ele>
        <time>2019-05-11T07:49:19Z</time>
      </trkpt>
      <trkpt lat="39.2550160" lon="-1.5412880">
        <ele>730.0</ele>
        <time>2019-05-11T07:49:20Z</time>
      </trkpt>
      <trkpt lat="39.2549880" lon="-1.5413970">
        <ele>730.0</ele>
        <time>2019-05-11T07:49:21Z</time>
      </trkpt>
      <trkpt lat="39.2549830" lon="-1.5415120">
        <ele>730.0</ele>
        <time>2019-05-11T07:49:22Z</time>
      </trkpt>
      <trkpt lat="39.2550030" lon="-1.5416190">
        <ele>729.8</ele>
        <time>2019-05-11T07:49:23Z</time>
      </trkpt>
      <trkpt lat="39.2550430" lon="-1.5417100">
        <ele>729.2</ele>
        <time>2019-05-11T07:49:24Z</time>
      </trkpt>
      <trkpt lat="39.2550950" lon="-1.5417880">
        <ele>728.4</ele>
        <time>2019-05-11T07:49:25Z</time>
      </trkpt>
      <trkpt lat="39.2551550" lon="-1.5418580">
        <ele>727.6</ele>
        <time>2019-05-11T07:49:26Z</time>
      </trkpt>
      <trkpt lat="39.2552200" lon="-1.5419240">
        <ele>726.6</ele>
        <time>2019-05-11T07:49:27Z</time>
      </trkpt>
      <trkpt lat="39.2552870" lon="-1.5419870">
        <ele>725.8</ele>
        <time>2019-05-11T07:49:28Z</time>
      </trkpt>
      <trkpt lat="39.2553560" lon="-1.5420490">
        <ele>725.4</ele>
        <time>2019-05-11T07:49:29Z</time>
      </trkpt>
      <trkpt lat="39.2554260" lon="-1.5421130">
        <ele>724.6</ele>
        <time>2019-05-11T07:49:30Z</time>
      </trkpt>
      <trkpt lat="39.2554970" lon="-1.5421760">
        <ele>724.0</ele>
        <time>2019-05-11T07:49:31Z</time>
      </trkpt>
      <trkpt lat="39.2555700" lon="-1.5422420">
        <ele>723.6</ele>
        <time>2019-05-11T07:49:32Z</time>
      </trkpt>
      <trkpt lat="39.2556430" lon="-1.5423140">
        <ele>723.6</ele>
        <time>2019-05-11T07:49:33Z</time>
      </trkpt>
      <trkpt lat="39.2557150" lon="-1.5423930">
        <ele>723.2</ele>
        <time>2019-05-11T07:49:34Z</time>
      </trkpt>
      <trkpt lat="39.2557870" lon="-1.5424710">
        <ele>723.0</ele>
        <time>2019-05-11T07:49:35Z</time>
      </trkpt>
      <trkpt lat="39.2558620" lon="-1.5425440">
        <ele>722.4</ele>
        <time>2019-05-11T07:49:36Z</time>
      </trkpt>
      <trkpt lat="39.2559370" lon="-1.5426130">
        <ele>722.2</ele>
        <time>2019-05-11T07:49:37Z</time>
      </trkpt>
      <trkpt lat="39.2560130" lon="-1.5426820">
        <ele>722.0</ele>
        <time>2019-05-11T07:49:38Z</time>
      </trkpt>
      <trkpt lat="39.2560880" lon="-1.5427530">
        <ele>721.6</ele>
        <time>2019-05-11T07:49:39Z</time>
      </trkpt>
      <trkpt lat="39.2561640" lon="-1.5428230">
        <ele>721.4</ele>
        <time>2019-05-11T07:49:40Z</time>
      </trkpt>
      <trkpt lat="39.2562400" lon="-1.5428930">
        <ele>721.0</ele>
        <time>2019-05-11T07:49:41Z</time>
      </trkpt>
      <trkpt lat="39.2563150" lon="-1.5429610">
        <ele>720.4</ele>
        <time>2019-05-11T07:49:42Z</time>
      </trkpt>
      <trkpt lat="39.2563890" lon="-1.5430310">
        <ele>720.0</ele>
        <time>2019-05-11T07:49:43Z</time>
      </trkpt>
      <trkpt lat="39.2564640" lon="-1.5430990">
        <ele>719.0</ele>
        <time>2019-05-11T07:49:44Z</time>
      </trkpt>
      <trkpt lat="39.2565420" lon="-1.5431650">
        <ele>718.8</ele>
        <time>2019-05-11T07:49:45Z</time>
      </trkpt>
      <trkpt lat="39.2566200" lon="-1.5432310">
        <ele>718.4</ele>
        <time>2019-05-11T07:49:46Z</time>
      </trkpt>
      <trkpt lat="39.2566980" lon="-1.5433000">
        <ele>718.2</ele>
        <time>2019-05-11T07:49:47Z</time>
      </trkpt>
      <trkpt lat="39.2567740" lon="-1.5433720">
        <ele>717.8</ele>
        <time>2019-05-11T07:49:48Z</time>
      </trkpt>
      <trkpt lat="39.2568480" lon="-1.5434490">
        <ele>717.4</ele>
        <time>2019-05-11T07:49:49Z</time>
      </trkpt>
      <trkpt lat="39.2569220" lon="-1.5435290">
        <ele>717.2</ele>
        <time>2019-05-11T07:49:50Z</time>
      </trkpt>
      <trkpt lat="39.2569970" lon="-1.5436070">
        <ele>717.0</ele>
        <time>2019-05-11T07:49:51Z</time>
      </trkpt>
      <trkpt lat="39.2570730" lon="-1.5436800">
        <ele>716.8</ele>
        <time>2019-05-11T07:49:52Z</time>
      </trkpt>
      <trkpt lat="39.2571480" lon="-1.5437530">
        <ele>716.4</ele>
        <time>2019-05-11T07:49:53Z</time>
      </trkpt>
      <trkpt lat="39.2572220" lon="-1.5438250">
        <ele>716.2</ele>
        <time>2019-05-11T07:49:54Z</time>
      </trkpt>
      <trkpt lat="39.2572960" lon="-1.5438940">
        <ele>715.6</ele>
        <time>2019-05-11T07:49:55Z</time>
      </trkpt>
      <trkpt lat="39.2573720" lon="-1.5439620">
        <ele>715.2</ele>
        <time>2019-05-11T07:49:56Z</time>
      </trkpt>
      <trkpt lat="39.2574480" lon="-1.5440290">
        <ele>715.0</ele>
        <time>2019-05-11T07:49:57Z</time>
      </trkpt>
      <trkpt lat="39.2575230" lon="-1.5441020">
        <ele>714.8</ele>
        <time>2019-05-11T07:49:58Z</time>
      </trkpt>
      <trkpt lat="39.2575930" lon="-1.5441860">
        <ele>714.4</ele>
        <time>2019-05-11T07:49:59Z</time>
      </trkpt>
      <trkpt lat="39.2576490" lon="-1.5442880">
        <ele>714.0</ele>
        <time>2019-05-11T07:50:00Z</time>
      </trkpt>
      <trkpt lat="39.2576940" lon="-1.5444030">
        <ele>713.8</ele>
        <time>2019-05-11T07:50:01Z</time>
      </trkpt>
      <trkpt lat="39.2577290" lon="-1.5445270">
        <ele>713.4</ele>
        <time>2019-05-11T07:50:02Z</time>
      </trkpt>
      <trkpt lat="39.2577610" lon="-1.5446560">
        <ele>712.8</ele>
        <time>2019-05-11T07:50:03Z</time>
      </trkpt>
      <trkpt lat="39.2577960" lon="-1.5447860">
        <ele>712.4</ele>
        <time>2019-05-11T07:50:04Z</time>
      </trkpt>
      <trkpt lat="39.2578380" lon="-1.5449120">
        <ele>712.0</ele>
        <time>2019-05-11T07:50:05Z</time>
      </trkpt>
      <trkpt lat="39.2578880" lon="-1.5450310">
        <ele>711.8</ele>
        <time>2019-05-11T07:50:06Z</time>
      </trkpt>
      <trkpt lat="39.2579390" lon="-1.5451470">
        <ele>711.6</ele>
        <time>2019-05-11T07:50:07Z</time>
      </trkpt>
      <trkpt lat="39.2579840" lon="-1.5452600">
        <ele>711.2</ele>
        <time>2019-05-11T07:50:08Z</time>
      </trkpt>
      <trkpt lat="39.2580260" lon="-1.5453630">
        <ele>710.8</ele>
        <time>2019-05-11T07:50:09Z</time>
      </trkpt>
      <trkpt lat="39.2580770" lon="-1.5454480">
        <ele>710.4</ele>
        <time>2019-05-11T07:50:10Z</time>
      </trkpt>
      <trkpt lat="39.2581430" lon="-1.5455120">
        <ele>710.0</ele>
        <time>2019-05-11T07:50:11Z</time>
      </trkpt>
      <trkpt lat="39.2582200" lon="-1.5455580">
        <ele>709.2</ele>
        <time>2019-05-11T07:50:12Z</time>
      </trkpt>
      <trkpt lat="39.2583030" lon="-1.5455860">
        <ele>708.6</ele>
        <time>2019-05-11T07:50:13Z</time>
      </trkpt>
      <trkpt lat="39.2583890" lon="-1.5456160">
        <ele>708.2</ele>
        <time>2019-05-11T07:50:14Z</time>
      </trkpt>
      <trkpt lat="39.2584760" lon="-1.5456510">
        <ele>707.8</ele>
        <time>2019-05-11T07:50:15Z</time>
      </trkpt>
      <trkpt lat="39.2585660" lon="-1.5456850">
        <ele>707.2</ele>
        <time>2019-05-11T07:50:16Z</time>
      </trkpt>
      <trkpt lat="39.2586580" lon="-1.5457150">
        <ele>706.4</ele>
        <time>2019-05-11T07:50:17Z</time>
      </trkpt>
      <trkpt lat="39.2587530" lon="-1.5457510">
        <ele>705.4</ele>
        <time>2019-05-11T07:50:18Z</time>
      </trkpt>
      <trkpt lat="39.2588450" lon="-1.5457890">
        <ele>703.8</ele>
        <time>2019-05-11T07:50:19Z</time>
      </trkpt>
      <trkpt lat="39.2589280" lon="-1.5458200">
        <ele>703.2</ele>
        <time>2019-05-11T07:50:20Z</time>
      </trkpt>
      <trkpt lat="39.2590010" lon="-1.5458260">
        <ele>702.8</ele>
        <time>2019-05-11T07:50:21Z</time>
      </trkpt>
      <trkpt lat="39.2590670" lon="-1.5457990">
        <ele>702.6</ele>
        <time>2019-05-11T07:50:22Z</time>
      </trkpt>
      <trkpt lat="39.2591260" lon="-1.5457510">
        <ele>702.2</ele>
        <time>2019-05-11T07:50:23Z</time>
      </trkpt>
      <trkpt lat="39.2591870" lon="-1.5457030">
        <ele>701.8</ele>
        <time>2019-05-11T07:50:24Z</time>
      </trkpt>
      <trkpt lat="39.2592510" lon="-1.5456740">
        <ele>701.2</ele>
        <time>2019-05-11T07:50:25Z</time>
      </trkpt>
      <trkpt lat="39.2593120" lon="-1.5456720">
        <ele>700.6</ele>
        <time>2019-05-11T07:50:26Z</time>
      </trkpt>
      <trkpt lat="39.2593740" lon="-1.5456970">
        <ele>700.2</ele>
        <time>2019-05-11T07:50:27Z</time>
      </trkpt>
      <trkpt lat="39.2594350" lon="-1.5457470">
        <ele>699.6</ele>
        <time>2019-05-11T07:50:28Z</time>
      </trkpt>
      <trkpt lat="39.2594920" lon="-1.5458170">
        <ele>699.2</ele>
        <time>2019-05-11T07:50:29Z</time>
      </trkpt>
      <trkpt lat="39.2595500" lon="-1.5458950">
        <ele>699.0</ele>
        <time>2019-05-11T07:50:30Z</time>
      </trkpt>
      <trkpt lat="39.2596100" lon="-1.5459830">
        <ele>698.8</ele>
        <time>2019-05-11T07:50:31Z</time>
      </trkpt>
      <trkpt lat="39.2596710" lon="-1.5460660">
        <ele>698.6</ele>
        <time>2019-05-11T07:50:32Z</time>
      </trkpt>
      <trkpt lat="39.2597320" lon="-1.5461510">
        <ele>698.6</ele>
        <time>2019-05-11T07:50:33Z</time>
      </trkpt>
      <trkpt lat="39.2597950" lon="-1.5462350">
        <ele>698.6</ele>
        <time>2019-05-11T07:50:34Z</time>
      </trkpt>
      <trkpt lat="39.2598550" lon="-1.5463220">
        <ele>698.4</ele>
        <time>2019-05-11T07:50:35Z</time>
      </trkpt>
      <trkpt lat="39.2599120" lon="-1.5464170">
        <ele>698.2</ele>
        <time>2019-05-11T07:50:36Z</time>
      </trkpt>
      <trkpt lat="39.2599630" lon="-1.5465160">
        <ele>697.6</ele>
        <time>2019-05-11T07:50:37Z</time>
      </trkpt>
      <trkpt lat="39.2600140" lon="-1.5466170">
        <ele>697.2</ele>
        <time>2019-05-11T07:50:38Z</time>
      </trkpt>
      <trkpt lat="39.2600670" lon="-1.5467190">
        <ele>697.0</ele>
        <time>2019-05-11T07:50:39Z</time>
      </trkpt>
      <trkpt lat="39.2601240" lon="-1.5468250">
        <ele>697.0</ele>
        <time>2019-05-11T07:50:40Z</time>
      </trkpt>
      <trkpt lat="39.2601860" lon="-1.5469350">
        <ele>696.6</ele>
        <time>2019-05-11T07:50:41Z</time>
      </trkpt>
      <trkpt lat="39.2602540" lon="-1.5470450">
        <ele>696.2</ele>
        <time>2019-05-11T07:50:42Z</time>
      </trkpt>
      <trkpt lat="39.2603340" lon="-1.5471530">
        <ele>696.0</ele>
        <time>2019-05-11T07:50:43Z</time>
      </trkpt>
      <trkpt lat="39.2604260" lon="-1.5472510">
        <ele>695.6</ele>
        <time>2019-05-11T07:50:44Z</time>
      </trkpt>
      <trkpt lat="39.2605310" lon="-1.5473350">
        <ele>695.4</ele>
        <time>2019-05-11T07:50:45Z</time>
      </trkpt>
      <trkpt lat="39.2606460" lon="-1.5474010">
        <ele>695.0</ele>
        <time>2019-05-11T07:50:46Z</time>
      </trkpt>
      <trkpt lat="39.2607680" lon="-1.5474530">
        <ele>694.4</ele>
        <time>2019-05-11T07:50:47Z</time>
      </trkpt>
      <trkpt lat="39.2608910" lon="-1.5474950">
        <ele>693.6</ele>
        <time>2019-05-11T07:50:48Z</time>
      </trkpt>
      <trkpt lat="39.2610140" lon="-1.5475340">
        <ele>693.0</ele>
        <time>2019-05-11T07:50:49Z</time>
      </trkpt>
      <trkpt lat="39.2611360" lon="-1.5475760">
        <ele>692.2</ele>
        <time>2019-05-11T07:50:50Z</time>
      </trkpt>
      <trkpt lat="39.2612530" lon="-1.5476310">
        <ele>691.2</ele>
        <time>2019-05-11T07:50:51Z</time>
      </trkpt>
      <trkpt lat="39.2613650" lon="-1.5476980">
        <ele>690.2</ele>
        <time>2019-05-11T07:50:52Z</time>
      </trkpt>
      <trkpt lat="39.2614760" lon="-1.5477690">
        <ele>688.0</ele>
        <time>2019-05-11T07:50:53Z</time>
      </trkpt>
      <trkpt lat="39.2615850" lon="-1.5478400">
        <ele>687.4</ele>
        <time>2019-05-11T07:50:54Z</time>
      </trkpt>
      <trkpt lat="39.2616950" lon="-1.5479100">
        <ele>687.0</ele>
        <time>2019-05-11T07:50:55Z</time>
      </trkpt>
      <trkpt lat="39.2618070" lon="-1.5479760">
        <ele>686.4</ele>
        <time>2019-05-11T07:50:56Z</time>
      </trkpt>
      <trkpt lat="39.2619200" lon="-1.5480340">
        <ele>685.8</ele>
        <time>2019-05-11T07:50:57Z</time>
      </trkpt>
      <trkpt lat="39.2620360" lon="-1.5480810">
        <ele>685.2</ele>
        <time>2019-05-11T07:50:58Z</time>
      </trkpt>
      <trkpt lat="39.2621540" lon="-1.5481220">
        <ele>684.2</ele>
        <time>2019-05-11T07:50:59Z</time>
      </trkpt>
      <trkpt lat="39.2622740" lon="-1.5481590">
        <ele>683.0</ele>
        <time>2019-05-11T07:51:00Z</time>
      </trkpt>
      <trkpt lat="39.2623940" lon="-1.5482000">
        <ele>682.4</ele>
        <time>2019-05-11T07:51:01Z</time>
      </trkpt>
      <trkpt lat="39.2625150" lon="-1.5482460">
        <ele>681.6</ele>
        <time>2019-05-11T07:51:02Z</time>
      </trkpt>
      <trkpt lat="39.2626360" lon="-1.5482850">
        <ele>680.8</ele>
        <time>2019-05-11T07:51:03Z</time>
      </trkpt>
      <trkpt lat="39.2627560" lon="-1.5483180">
        <ele>680.0</ele>
        <time>2019-05-11T07:51:04Z</time>
      </trkpt>
      <trkpt lat="39.2628770" lon="-1.5483520">
        <ele>679.2</ele>
        <time>2019-05-11T07:51:05Z</time>
      </trkpt>
      <trkpt lat="39.2629990" lon="-1.5483880">
        <ele>678.2</ele>
        <time>2019-05-11T07:51:06Z</time>
      </trkpt>
      <trkpt lat="39.2631250" lon="-1.5484250">
        <ele>677.4</ele>
        <time>2019-05-11T07:51:07Z</time>
      </trkpt>
      <trkpt lat="39.2632520" lon="-1.5484650">
        <ele>676.6</ele>
        <time>2019-05-11T07:51:08Z</time>
      </trkpt>
      <trkpt lat="39.2633760" lon="-1.5485070">
        <ele>676.2</ele>
        <time>2019-05-11T07:51:09Z</time>
      </trkpt>
      <trkpt lat="39.2634980" lon="-1.5485480">
        <ele>675.6</ele>
        <time>2019-05-11T07:51:10Z</time>
      </trkpt>
      <trkpt lat="39.2636190" lon="-1.5485840">
        <ele>675.0</ele>
        <time>2019-05-11T07:51:11Z</time>
      </trkpt>
      <trkpt lat="39.2637360" lon="-1.5486140">
        <ele>674.4</ele>
        <time>2019-05-11T07:51:12Z</time>
      </trkpt>
      <trkpt lat="39.2638450" lon="-1.5486350">
        <ele>673.6</ele>
        <time>2019-05-11T07:51:13Z</time>
      </trkpt>
      <trkpt lat="39.2639450" lon="-1.5486470">
        <ele>673.2</ele>
        <time>2019-05-11T07:51:14Z</time>
      </trkpt>
      <trkpt lat="39.2640400" lon="-1.5486560">
        <ele>672.6</ele>
        <time>2019-05-11T07:51:15Z</time>
      </trkpt>
      <trkpt lat="39.2641350" lon="-1.5486700">
        <ele>672.0</ele>
        <time>2019-05-11T07:51:16Z</time>
      </trkpt>
      <trkpt lat="39.2642290" lon="-1.5486940">
        <ele>671.4</ele>
        <time>2019-05-11T07:51:17Z</time>
      </trkpt>
      <trkpt lat="39.2643230" lon="-1.5487350">
        <ele>671.0</ele>
        <time>2019-05-11T07:51:18Z</time>
      </trkpt>
      <trkpt lat="39.2644150" lon="-1.5487930">
        <ele>670.4</ele>
        <time>2019-05-11T07:51:19Z</time>
      </trkpt>
      <trkpt lat="39.2645030" lon="-1.5488630">
        <ele>669.8</ele>
        <time>2019-05-11T07:51:20Z</time>
      </trkpt>
      <trkpt lat="39.2645870" lon="-1.5489340">
        <ele>669.6</ele>
        <time>2019-05-11T07:51:21Z</time>
      </trkpt>
      <trkpt lat="39.2646720" lon="-1.5489960">
        <ele>669.4</ele>
        <time>2019-05-11T07:51:22Z</time>
      </trkpt>
      <trkpt lat="39.2647540" lon="-1.5490490">
        <ele>669.4</ele>
        <time>2019-05-11T07:51:23Z</time>
      </trkpt>
      <trkpt lat="39.2648310" lon="-1.5491050">
        <ele>669.2</ele>
        <time>2019-05-11T07:51:24Z</time>
      </trkpt>
      <trkpt lat="39.2648960" lon="-1.5491730">
        <ele>668.6</ele>
        <time>2019-05-11T07:51:25Z</time>
      </trkpt>
      <trkpt lat="39.2649410" lon="-1.5492530">
        <ele>668.2</ele>
        <time>2019-05-11T07:51:26Z</time>
      </trkpt>
      <trkpt lat="39.2649650" lon="-1.5493450">
        <ele>667.4</ele>
        <time>2019-05-11T07:51:27Z</time>
      </trkpt>
      <trkpt lat="39.2649740" lon="-1.5494450">
        <ele>665.8</ele>
        <time>2019-05-11T07:51:28Z</time>
      </trkpt>
      <trkpt lat="39.2649730" lon="-1.5495460">
        <ele>665.0</ele>
        <time>2019-05-11T07:51:29Z</time>
      </trkpt>
      <trkpt lat="39.2649620" lon="-1.5496480">
        <ele>664.4</ele>
        <time>2019-05-11T07:51:30Z</time>
      </trkpt>
      <trkpt lat="39.2649430" lon="-1.5497510">
        <ele>663.8</ele>
        <time>2019-05-11T07:51:31Z</time>
      </trkpt>
      <trkpt lat="39.2649190" lon="-1.5498560">
        <ele>663.0</ele>
        <time>2019-05-11T07:51:32Z</time>
      </trkpt>
      <trkpt lat="39.2648920" lon="-1.5499620">
        <ele>662.6</ele>
        <time>2019-05-11T07:51:33Z</time>
      </trkpt>
      <trkpt lat="39.2648610" lon="-1.5500670">
        <ele>662.4</ele>
        <time>2019-05-11T07:51:34Z</time>
      </trkpt>
      <trkpt lat="39.2648280" lon="-1.5501720">
        <ele>662.2</ele>
        <time>2019-05-11T07:51:35Z</time>
      </trkpt>
      <trkpt lat="39.2647940" lon="-1.5502770">
        <ele>662.0</ele>
        <time>2019-05-11T07:51:36Z</time>
      </trkpt>
      <trkpt lat="39.2647610" lon="-1.5503800">
        <ele>661.8</ele>
        <time>2019-05-11T07:51:37Z</time>
      </trkpt>
      <trkpt lat="39.2647300" lon="-1.5504800">
        <ele>661.8</ele>
        <time>2019-05-11T07:51:38Z</time>
      </trkpt>
      <trkpt lat="39.2647050" lon="-1.5505770">
        <ele>661.8</ele>
        <time>2019-05-11T07:51:39Z</time>
      </trkpt>
      <trkpt lat="39.2646940" lon="-1.5506670">
        <ele>661.6</ele>
        <time>2019-05-11T07:51:40Z</time>
      </trkpt>
      <trkpt lat="39.2646970" lon="-1.5507450">
        <ele>661.6</ele>
        <time>2019-05-11T07:51:41Z</time>
      </trkpt>
      <trkpt lat="39.2647160" lon="-1.5508090">
        <ele>661.6</ele>
        <time>2019-05-11T07:51:42Z</time>
      </trkpt>
      <trkpt lat="39.2647500" lon="-1.5508630">
        <ele>661.4</ele>
        <time>2019-05-11T07:51:43Z</time>
      </trkpt>
      <trkpt lat="39.2647940" lon="-1.5509070">
        <ele>661.4</ele>
        <time>2019-05-11T07:51:44Z</time>
      </trkpt>
      <trkpt lat="39.2648450" lon="-1.5509450">
        <ele>661.4</ele>
        <time>2019-05-11T07:51:45Z</time>
      </trkpt>
      <trkpt lat="39.2648990" lon="-1.5509780">
        <ele>661.4</ele>
        <time>2019-05-11T07:51:46Z</time>
      </trkpt>
      <trkpt lat="39.2649560" lon="-1.5510070">
        <ele>661.2</ele>
        <time>2019-05-11T07:51:47Z</time>
      </trkpt>
      <trkpt lat="39.2650160" lon="-1.5510320">
        <ele>661.2</ele>
        <time>2019-05-11T07:51:48Z</time>
      </trkpt>
      <trkpt lat="39.2650780" lon="-1.5510570">
        <ele>661.2</ele>
        <time>2019-05-11T07:51:49Z</time>
      </trkpt>
      <trkpt lat="39.2651430" lon="-1.5510820">
        <ele>661.0</ele>
        <time>2019-05-11T07:51:50Z</time>
      </trkpt>
      <trkpt lat="39.2652110" lon="-1.5511080">
        <ele>661.0</ele>
        <time>2019-05-11T07:51:51Z</time>
      </trkpt>
      <trkpt lat="39.2652790" lon="-1.5511330">
        <ele>661.0</ele>
        <time>2019-05-11T07:51:52Z</time>
      </trkpt>
      <trkpt lat="39.2653480" lon="-1.5511600">
        <ele>661.0</ele>
        <time>2019-05-11T07:51:53Z</time>
      </trkpt>
      <trkpt lat="39.2654140" lon="-1.5511930">
        <ele>661.0</ele>
        <time>2019-05-11T07:51:54Z</time>
      </trkpt>
      <trkpt lat="39.2654830" lon="-1.5512220">
        <ele>661.0</ele>
        <time>2019-05-11T07:51:55Z</time>
      </trkpt>
      <trkpt lat="39.2655520" lon="-1.5512500">
        <ele>661.0</ele>
        <time>2019-05-11T07:51:56Z</time>
      </trkpt>
      <trkpt lat="39.2656210" lon="-1.5512770">
        <ele>661.0</ele>
        <time>2019-05-11T07:51:57Z</time>
      </trkpt>
      <trkpt lat="39.2656870" lon="-1.5513030">
        <ele>661.0</ele>
        <time>2019-05-11T07:51:58Z</time>
      </trkpt>
      <trkpt lat="39.2657490" lon="-1.5513360">
        <ele>661.0</ele>
        <time>2019-05-11T07:51:59Z</time>
      </trkpt>
      <trkpt lat="39.2657980" lon="-1.5513790">
        <ele>661.2</ele>
        <time>2019-05-11T07:52:00Z</time>
      </trkpt>
      <trkpt lat="39.2658250" lon="-1.5514350">
        <ele>661.2</ele>
        <time>2019-05-11T07:52:01Z</time>
      </trkpt>
      <trkpt lat="39.2658190" lon="-1.5514930">
        <ele>661.2</ele>
        <time>2019-05-11T07:52:02Z</time>
      </trkpt>
      <trkpt lat="39.2657840" lon="-1.5515410">
        <ele>661.2</ele>
        <time>2019-05-11T07:52:03Z</time>
      </trkpt>
      <trkpt lat="39.2657350" lon="-1.5515810">
        <ele>661.2</ele>
        <time>2019-05-11T07:52:04Z</time>
      </trkpt>
      <trkpt lat="39.2656790" lon="-1.5516230">
        <ele>661.2</ele>
        <time>2019-05-11T07:52:05Z</time>
      </trkpt>
      <trkpt lat="39.2656220" lon="-1.5516700">
        <ele>661.2</ele>
        <time>2019-05-11T07:52:06Z</time>
      </trkpt>
      <trkpt lat="39.2655640" lon="-1.5517190">
        <ele>661.2</ele>
        <time>2019-05-11T07:52:07Z</time>
      </trkpt>
      <trkpt lat="39.2655030" lon="-1.5517700">
        <ele>661.2</ele>
        <time>2019-05-11T07:52:08Z</time>
      </trkpt>
      <trkpt lat="39.2654400" lon="-1.5518240">
        <ele>661.2</ele>
        <time>2019-05-11T07:52:09Z</time>
      </trkpt>
      <trkpt lat="39.2653780" lon="-1.5518800">
        <ele>661.2</ele>
        <time>2019-05-11T07:52:10Z</time>
      </trkpt>
      <trkpt lat="39.2653150" lon="-1.5519390">
        <ele>661.0</ele>
        <time>2019-05-11T07:52:11Z</time>
      </trkpt>
      <trkpt lat="39.2652500" lon="-1.5519980">
        <ele>661.0</ele>
        <time>2019-05-11T07:52:12Z</time>
      </trkpt>
      <trkpt lat="39.2651850" lon="-1.5520580">
        <ele>661.0</ele>
        <time>2019-05-11T07:52:13Z</time>
      </trkpt>
      <trkpt lat="39.2651190" lon="-1.5521180">
        <ele>661.0</ele>
        <time>2019-05-11T07:52:14Z</time>
      </trkpt>
      <trkpt lat="39.2650520" lon="-1.5521750">
        <ele>661.0</ele>
        <time>2019-05-11T07:52:15Z</time>
      </trkpt>
      <trkpt lat="39.2649840" lon="-1.5522300">
        <ele>661.0</ele>
        <time>2019-05-11T07:52:16Z</time>
      </trkpt>
      <trkpt lat="39.2649160" lon="-1.5522770">
        <ele>661.0</ele>
        <time>2019-05-11T07:52:17Z</time>
      </trkpt>
      <trkpt lat="39.2648430" lon="-1.5523110">
        <ele>661.0</ele>
        <time>2019-05-11T07:52:18Z</time>
      </trkpt>
      <trkpt lat="39.2647710" lon="-1.5523460">
        <ele>661.0</ele>
        <time>2019-05-11T07:52:19Z</time>
      </trkpt>
      <trkpt lat="39.2647010" lon="-1.5523880">
        <ele>661.0</ele>
        <time>2019-05-11T07:52:20Z</time>
      </trkpt>
      <trkpt lat="39.2646340" lon="-1.5524370">
        <ele>661.0</ele>
        <time>2019-05-11T07:52:21Z</time>
      </trkpt>
      <trkpt lat="39.2645700" lon="-1.5524920">
        <ele>661.0</ele>
        <time>2019-05-11T07:52:22Z</time>
      </trkpt>
      <trkpt lat="39.2645050" lon="-1.5525480">
        <ele>661.0</ele>
        <time>2019-05-11T07:52:23Z</time>
      </trkpt>
      <trkpt lat="39.2644330" lon="-1.5526000">
        <ele>661.0</ele>
        <time>2019-05-11T07:52:24Z</time>
      </trkpt>
      <trkpt lat="39.2643580" lon="-1.5526490">
        <ele>661.0</ele>
        <time>2019-05-11T07:52:25Z</time>
      </trkpt>
      <trkpt lat="39.2642840" lon="-1.5527010">
        <ele>661.0</ele>
        <time>2019-05-11T07:52:26Z</time>
      </trkpt>
      <trkpt lat="39.2642140" lon="-1.5527570">
        <ele>661.0</ele>
        <time>2019-05-11T07:52:27Z</time>
      </trkpt>
      <trkpt lat="39.2641470" lon="-1.5528180">
        <ele>661.0</ele>
        <time>2019-05-11T07:52:28Z</time>
      </trkpt>
      <trkpt lat="39.2640810" lon="-1.5528800">
        <ele>661.0</ele>
        <time>2019-05-11T07:52:29Z</time>
      </trkpt>
      <trkpt lat="39.2640130" lon="-1.5529390">
        <ele>661.0</ele>
        <time>2019-05-11T07:52:30Z</time>
      </trkpt>
      <trkpt lat="39.2639430" lon="-1.5529870">
        <ele>661.0</ele>
        <time>2019-05-11T07:52:31Z</time>
      </trkpt>
      <trkpt lat="39.2638710" lon="-1.5530130">
        <ele>660.8</ele>
        <time>2019-05-11T07:52:32Z</time>
      </trkpt>
      <trkpt lat="39.2638000" lon="-1.5530110">
        <ele>660.8</ele>
        <time>2019-05-11T07:52:33Z</time>
      </trkpt>
      <trkpt lat="39.2637380" lon="-1.5529810">
        <ele>660.8</ele>
        <time>2019-05-11T07:52:34Z</time>
      </trkpt>
      <trkpt lat="39.2636910" lon="-1.5529240">
        <ele>660.8</ele>
        <time>2019-05-11T07:52:35Z</time>
      </trkpt>
      <trkpt lat="39.2636620" lon="-1.5528480">
        <ele>660.6</ele>
        <time>2019-05-11T07:52:36Z</time>
      </trkpt>
      <trkpt lat="39.2636480" lon="-1.5527630">
        <ele>660.6</ele>
        <time>2019-05-11T07:52:37Z</time>
      </trkpt>
      <trkpt lat="39.2636410" lon="-1.5526740">
        <ele>660.6</ele>
        <time>2019-05-11T07:52:38Z</time>
      </trkpt>
      <trkpt lat="39.2636320" lon="-1.5525840">
        <ele>660.6</ele>
        <time>2019-05-11T07:52:39Z</time>
      </trkpt>
      <trkpt lat="39.2636220" lon="-1.5524960">
        <ele>660.6</ele>
        <time>2019-05-11T07:52:40Z</time>
      </trkpt>
      <trkpt lat="39.2636150" lon="-1.5524070">
        <ele>660.6</ele>
        <time>2019-05-11T07:52:41Z</time>
      </trkpt>
      <trkpt lat="39.2636100" lon="-1.5523190">
        <ele>660.6</ele>
        <time>2019-05-11T07:52:42Z</time>
      </trkpt>
      <trkpt lat="39.2636070" lon="-1.5522320">
        <ele>660.6</ele>
        <time>2019-05-11T07:52:43Z</time>
      </trkpt>
      <trkpt lat="39.2636070" lon="-1.5521480">
        <ele>660.8</ele>
        <time>2019-05-11T07:52:44Z</time>
      </trkpt>
      <trkpt lat="39.2636050" lon="-1.5520670">
        <ele>661.0</ele>
        <time>2019-05-11T07:52:45Z</time>
      </trkpt>
      <trkpt lat="39.2636010" lon="-1.5519890">
        <ele>661.0</ele>
        <time>2019-05-11T07:52:46Z</time>
      </trkpt>
      <trkpt lat="39.2635910" lon="-1.5519140">
        <ele>661.0</ele>
        <time>2019-05-11T07:52:47Z</time>
      </trkpt>
      <trkpt lat="39.2635730" lon="-1.5518460">
        <ele>661.2</ele>
        <time>2019-05-11T07:52:48Z</time>
      </trkpt>
      <trkpt lat="39.2635470" lon="-1.5517840">
        <ele>661.2</ele>
        <time>2019-05-11T07:52:49Z</time>
      </trkpt>
      <trkpt lat="39.2635180" lon="-1.5517260">
        <ele>661.4</ele>
        <time>2019-05-11T07:52:50Z</time>
      </trkpt>
      <trkpt lat="39.2634870" lon="-1.5516720">
        <ele>661.8</ele>
        <time>2019-05-11T07:52:51Z</time>
      </trkpt>
      <trkpt lat="39.2634520" lon="-1.5516240">
        <ele>662.0</ele>
        <time>2019-05-11T07:52:52Z</time>
      </trkpt>
      <trkpt lat="39.2634110" lon="-1.5515840">
        <ele>662.2</ele>
        <time>2019-05-11T07:52:53Z</time>
      </trkpt>
      <trkpt lat="39.2633640" lon="-1.5515580">
        <ele>662.6</ele>
        <time>2019-05-11T07:52:54Z</time>
      </trkpt>
      <trkpt lat="39.2633140" lon="-1.5515480">
        <ele>663.0</ele>
        <time>2019-05-11T07:52:55Z</time>
      </trkpt>
      <trkpt lat="39.2632640" lon="-1.5515440">
        <ele>663.4</ele>
        <time>2019-05-11T07:52:56Z</time>
      </trkpt>
      <trkpt lat="39.2632150" lon="-1.5515340">
        <ele>663.8</ele>
        <time>2019-05-11T07:52:57Z</time>
      </trkpt>
      <trkpt lat="39.2631670" lon="-1.5515170">
        <ele>664.0</ele>
        <time>2019-05-11T07:52:58Z</time>
      </trkpt>
      <trkpt lat="39.2631190" lon="-1.5514930">
        <ele>664.6</ele>
        <time>2019-05-11T07:52:59Z</time>
      </trkpt>
      <trkpt lat="39.2630740" lon="-1.5514600">
        <ele>665.0</ele>
        <time>2019-05-11T07:53:00Z</time>
      </trkpt>
      <trkpt lat="39.2630320" lon="-1.5514200">
        <ele>665.4</ele>
        <time>2019-05-11T07:53:01Z</time>
      </trkpt>
      <trkpt lat="39.2629920" lon="-1.5513750">
        <ele>666.0</ele>
        <time>2019-05-11T07:53:02Z</time>
      </trkpt>
      <trkpt lat="39.2629550" lon="-1.5513250">
        <ele>666.6</ele>
        <time>2019-05-11T07:53:03Z</time>
      </trkpt>
      <trkpt lat="39.2629220" lon="-1.5512670">
        <ele>667.4</ele>
        <time>2019-05-11T07:53:04Z</time>
      </trkpt>
      <trkpt lat="39.2628940" lon="-1.5512040">
        <ele>667.8</ele>
        <time>2019-05-11T07:53:05Z</time>
      </trkpt>
      <trkpt lat="39.2628700" lon="-1.5511360">
        <ele>668.2</ele>
        <time>2019-05-11T07:53:06Z</time>
      </trkpt>
      <trkpt lat="39.2628490" lon="-1.5510650">
        <ele>668.4</ele>
        <time>2019-05-11T07:53:07Z</time>
      </trkpt>
      <trkpt lat="39.2628290" lon="-1.5509920">
        <ele>668.6</ele>
        <time>2019-05-11T07:53:08Z</time>
      </trkpt>
      <trkpt lat="39.2628070" lon="-1.5509180">
        <ele>668.6</ele>
        <time>2019-05-11T07:53:09Z</time>
      </trkpt>
      <trkpt lat="39.2627770" lon="-1.5508480">
        <ele>668.6</ele>
        <time>2019-05-11T07:53:10Z</time>
      </trkpt>
      <trkpt lat="39.2627410" lon="-1.5507830">
        <ele>668.8</ele>
        <time>2019-05-11T07:53:11Z</time>
      </trkpt>
      <trkpt lat="39.2627000" lon="-1.5507220">
        <ele>668.6</ele>
        <time>2019-05-11T07:53:12Z</time>
      </trkpt>
      <trkpt lat="39.2626530" lon="-1.5506660">
        <ele>668.6</ele>
        <time>2019-05-11T07:53:13Z</time>
      </trkpt>
      <trkpt lat="39.2626050" lon="-1.5506130">
        <ele>668.6</ele>
        <time>2019-05-11T07:53:14Z</time>
      </trkpt>
      <trkpt lat="39.2625560" lon="-1.5505630">
        <ele>668.8</ele>
        <time>2019-05-11T07:53:15Z</time>
      </trkpt>
      <trkpt lat="39.2625080" lon="-1.5505150">
        <ele>668.8</ele>
        <time>2019-05-11T07:53:16Z</time>
      </trkpt>
      <trkpt lat="39.2624590" lon="-1.5504690">
        <ele>668.8</ele>
        <time>2019-05-11T07:53:17Z</time>
      </trkpt>
      <trkpt lat="39.2624100" lon="-1.5504230">
        <ele>668.8</ele>
        <time>2019-05-11T07:53:18Z</time>
      </trkpt>
      <trkpt lat="39.2623610" lon="-1.5503770">
        <ele>668.8</ele>
        <time>2019-05-11T07:53:19Z</time>
      </trkpt>
      <trkpt lat="39.2623130" lon="-1.5503300">
        <ele>668.8</ele>
        <time>2019-05-11T07:53:20Z</time>
      </trkpt>
      <trkpt lat="39.2622660" lon="-1.5502830">
        <ele>669.0</ele>
        <time>2019-05-11T07:53:21Z</time>
      </trkpt>
      <trkpt lat="39.2622180" lon="-1.5502360">
        <ele>669.0</ele>
        <time>2019-05-11T07:53:22Z</time>
      </trkpt>
      <trkpt lat="39.2621690" lon="-1.5501920">
        <ele>669.2</ele>
        <time>2019-05-11T07:53:23Z</time>
      </trkpt>
      <trkpt lat="39.2621200" lon="-1.5501500">
        <ele>669.2</ele>
        <time>2019-05-11T07:53:24Z</time>
      </trkpt>
      <trkpt lat="39.2620690" lon="-1.5501130">
        <ele>669.4</ele>
        <time>2019-05-11T07:53:25Z</time>
      </trkpt>
      <trkpt lat="39.2620180" lon="-1.5500780">
        <ele>669.4</ele>
        <time>2019-05-11T07:53:26Z</time>
      </trkpt>
      <trkpt lat="39.2619680" lon="-1.5500460">
        <ele>669.8</ele>
        <time>2019-05-11T07:53:27Z</time>
      </trkpt>
      <trkpt lat="39.2619190" lon="-1.5500140">
        <ele>670.0</ele>
        <time>2019-05-11T07:53:28Z</time>
      </trkpt>
      <trkpt lat="39.2618710" lon="-1.5499820">
        <ele>670.2</ele>
        <time>2019-05-11T07:53:29Z</time>
      </trkpt>
      <trkpt lat="39.2618230" lon="-1.5499490">
        <ele>670.2</ele>
        <time>2019-05-11T07:53:30Z</time>
      </trkpt>
      <trkpt lat="39.2617790" lon="-1.5499160">
        <ele>670.6</ele>
        <time>2019-05-11T07:53:31Z</time>
      </trkpt>
      <trkpt lat="39.2617350" lon="-1.5498820">
        <ele>670.6</ele>
        <time>2019-05-11T07:53:32Z</time>
      </trkpt>
      <trkpt lat="39.2616960" lon="-1.5498480">
        <ele>670.8</ele>
        <time>2019-05-11T07:53:33Z</time>
      </trkpt>
      <trkpt lat="39.2616560" lon="-1.5498120">
        <ele>671.0</ele>
        <time>2019-05-11T07:53:34Z</time>
      </trkpt>
      <trkpt lat="39.2616160" lon="-1.5497740">
        <ele>671.2</ele>
        <time>2019-05-11T07:53:35Z</time>
      </trkpt>
      <trkpt lat="39.2615750" lon="-1.5497380">
        <ele>671.4</ele>
        <time>2019-05-11T07:53:36Z</time>
      </trkpt>
      <trkpt lat="39.2615320" lon="-1.5497040">
        <ele>671.6</ele>
        <time>2019-05-11T07:53:37Z</time>
      </trkpt>
      <trkpt lat="39.2614880" lon="-1.5496740">
        <ele>672.0</ele>
        <time>2019-05-11T07:53:38Z</time>
      </trkpt>
      <trkpt lat="39.2614420" lon="-1.5496500">
        <ele>672.4</ele>
        <time>2019-05-11T07:53:39Z</time>
      </trkpt>
      <trkpt lat="39.2613950" lon="-1.5496320">
        <ele>672.8</ele>
        <time>2019-05-11T07:53:40Z</time>
      </trkpt>
      <trkpt lat="39.2613460" lon="-1.5496230">
        <ele>673.2</ele>
        <time>2019-05-11T07:53:41Z</time>
      </trkpt>
      <trkpt lat="39.2612970" lon="-1.5496230">
        <ele>673.6</ele>
        <time>2019-05-11T07:53:42Z</time>
      </trkpt>
      <trkpt lat="39.2612480" lon="-1.5496320">
        <ele>674.0</ele>
        <time>2019-05-11T07:53:43Z</time>
      </trkpt>
      <trkpt lat="39.2612010" lon="-1.5496500">
        <ele>674.2</ele>
        <time>2019-05-11T07:53:44Z</time>
      </trkpt>
      <trkpt lat="39.2611570" lon="-1.5496720">
        <ele>674.4</ele>
        <time>2019-05-11T07:53:45Z</time>
      </trkpt>
      <trkpt lat="39.2611140" lon="-1.5496970">
        <ele>675.2</ele>
        <time>2019-05-11T07:53:46Z</time>
      </trkpt>
      <trkpt lat="39.2610730" lon="-1.5497240">
        <ele>675.6</ele>
        <time>2019-05-11T07:53:47Z</time>
      </trkpt>
      <trkpt lat="39.2610350" lon="-1.5497570">
        <ele>675.8</ele>
        <time>2019-05-11T07:53:48Z</time>
      </trkpt>
      <trkpt lat="39.2609990" lon="-1.5497970">
        <ele>676.0</ele>
        <time>2019-05-11T07:53:49Z</time>
      </trkpt>
      <trkpt lat="39.2609630" lon="-1.5498420">
        <ele>676.2</ele>
        <time>2019-05-11T07:53:50Z</time>
      </trkpt>
      <trkpt lat="39.2609270" lon="-1.5498850">
        <ele>676.4</ele>
        <time>2019-05-11T07:53:51Z</time>
      </trkpt>
      <trkpt lat="39.2608930" lon="-1.5499270">
        <ele>676.6</ele>
        <time>2019-05-11T07:53:52Z</time>
      </trkpt>
      <trkpt lat="39.2608620" lon="-1.5499670">
        <ele>676.8</ele>
        <time>2019-05-11T07:53:53Z</time>
      </trkpt>
      <trkpt lat="39.2608300" lon="-1.5500040">
        <ele>677.0</ele>
        <time>2019-05-11T07:53:54Z</time>
      </trkpt>
      <trkpt lat="39.2607960" lon="-1.5500370">
        <ele>677.2</ele>
        <time>2019-05-11T07:53:55Z</time>
      </trkpt>
      <trkpt lat="39.2607590" lon="-1.5500640">
        <ele>677.4</ele>
        <time>2019-05-11T07:53:56Z</time>
      </trkpt>
      <trkpt lat="39.2607200" lon="-1.5500850">
        <ele>677.6</ele>
        <time>2019-05-11T07:53:57Z</time>
      </trkpt>
      <trkpt lat="39.2606800" lon="-1.5501020">
        <ele>678.0</ele>
        <time>2019-05-11T07:53:58Z</time>
      </trkpt>
      <trkpt lat="39.2606400" lon="-1.5501140">
        <ele>678.2</ele>
        <time>2019-05-11T07:53:59Z</time>
      </trkpt>
      <trkpt lat="39.2606030" lon="-1.5501240">
        <ele>678.6</ele>
        <time>2019-05-11T07:54:00Z</time>
      </trkpt>
      <trkpt lat="39.2605690" lon="-1.5501340">
        <ele>679.2</ele>
        <time>2019-05-11T07:54:01Z</time>
      </trkpt>
      <trkpt lat="39.2605370" lon="-1.5501420">
        <ele>679.6</ele>
        <time>2019-05-11T07:54:02Z</time>
      </trkpt>
      <trkpt lat="39.2605040" lon="-1.5501460">
        <ele>680.0</ele>
        <time>2019-05-11T07:54:03Z</time>
      </trkpt>
      <trkpt lat="39.2604700" lon="-1.5501440">
        <ele>680.2</ele>
        <time>2019-05-11T07:54:04Z</time>
      </trkpt>
      <trkpt lat="39.2604360" lon="-1.5501380">
        <ele>680.6</ele>
        <time>2019-05-11T07:54:05Z</time>
      </trkpt>
      <trkpt lat="39.2604020" lon="-1.5501310">
        <ele>681.0</ele>
        <time>2019-05-11T07:54:06Z</time>
      </trkpt>
      <trkpt lat="39.2603660" lon="-1.5501230">
        <ele>681.2</ele>
        <time>2019-05-11T07:54:07Z</time>
      </trkpt>
      <trkpt lat="39.2603310" lon="-1.5501110">
        <ele>681.6</ele>
        <time>2019-05-11T07:54:08Z</time>
      </trkpt>
      <trkpt lat="39.2602950" lon="-1.5501020">
        <ele>682.0</ele>
        <time>2019-05-11T07:54:09Z</time>
      </trkpt>
      <trkpt lat="39.2602610" lon="-1.5500950">
        <ele>682.4</ele>
        <time>2019-05-11T07:54:10Z</time>
      </trkpt>
      <trkpt lat="39.2602280" lon="-1.5500890">
        <ele>682.6</ele>
        <time>2019-05-11T07:54:11Z</time>
      </trkpt>
      <trkpt lat="39.2601920" lon="-1.5500820">
        <ele>683.0</ele>
        <time>2019-05-11T07:54:12Z</time>
      </trkpt>
      <trkpt lat="39.2601540" lon="-1.5500770">
        <ele>683.4</ele>
        <time>2019-05-11T07:54:13Z</time>
      </trkpt>
      <trkpt lat="39.2601150" lon="-1.5500740">
        <ele>683.8</ele>
        <time>2019-05-11T07:54:14Z</time>
      </trkpt>
      <trkpt lat="39.2600750" lon="-1.5500740">
        <ele>684.2</ele>
        <time>2019-05-11T07:54:15Z</time>
      </trkpt>
      <trkpt lat="39.2600340" lon="-1.5500780">
        <ele>684.6</ele>
        <time>2019-05-11T07:54:16Z</time>
      </trkpt>
      <trkpt lat="39.2599930" lon="-1.5500870">
        <ele>685.0</ele>
        <time>2019-05-11T07:54:17Z</time>
      </trkpt>
      <trkpt lat="39.2599520" lon="-1.5500980">
        <ele>685.6</ele>
        <time>2019-05-11T07:54:18Z</time>
      </trkpt>
      <trkpt lat="39.2599090" lon="-1.5501090">
        <ele>685.8</ele>
        <time>2019-05-11T07:54:19Z</time>
      </trkpt>
      <trkpt lat="39.2598660" lon="-1.5501180">
        <ele>685.8</ele>
        <time>2019-05-11T07:54:20Z</time>
      </trkpt>
      <trkpt lat="39.2598240" lon="-1.5501290">
        <ele>686.2</ele>
        <time>2019-05-11T07:54:21Z</time>
      </trkpt>
      <trkpt lat="39.2597810" lon="-1.5501420">
        <ele>686.4</ele>
        <time>2019-05-11T07:54:22Z</time>
      </trkpt>
      <trkpt lat="39.2597370" lon="-1.5501530">
        <ele>686.6</ele>
        <time>2019-05-11T07:54:23Z</time>
      </trkpt>
      <trkpt lat="39.2596930" lon="-1.5501630">
        <ele>686.6</ele>
        <time>2019-05-11T07:54:24Z</time>
      </trkpt>
      <trkpt lat="39.2596480" lon="-1.5501680">
        <ele>686.8</ele>
        <time>2019-05-11T07:54:25Z</time>
      </trkpt>
      <trkpt lat="39.2596020" lon="-1.5501700">
        <ele>686.8</ele>
        <time>2019-05-11T07:54:26Z</time>
      </trkpt>
      <trkpt lat="39.2595550" lon="-1.5501700">
        <ele>686.8</ele>
        <time>2019-05-11T07:54:27Z</time>
      </trkpt>
      <trkpt lat="39.2595070" lon="-1.5501670">
        <ele>686.8</ele>
        <time>2019-05-11T07:54:28Z</time>
      </trkpt>
      <trkpt lat="39.2594600" lon="-1.5501630">
        <ele>686.8</ele>
        <time>2019-05-11T07:54:29Z</time>
      </trkpt>
      <trkpt lat="39.2594110" lon="-1.5501600">
        <ele>687.0</ele>
        <time>2019-05-11T07:54:30Z</time>
      </trkpt>
      <trkpt lat="39.2593630" lon="-1.5501570">
        <ele>687.0</ele>
        <time>2019-05-11T07:54:31Z</time>
      </trkpt>
      <trkpt lat="39.2593130" lon="-1.5501530">
        <ele>687.2</ele>
        <time>2019-05-11T07:54:32Z</time>
      </trkpt>
      <trkpt lat="39.2592640" lon="-1.5501480">
        <ele>687.4</ele>
        <time>2019-05-11T07:54:33Z</time>
      </trkpt>
      <trkpt lat="39.2592130" lon="-1.5501440">
        <ele>687.4</ele>
        <time>2019-05-11T07:54:34Z</time>
      </trkpt>
      <trkpt lat="39.2591610" lon="-1.5501430">
        <ele>687.6</ele>
        <time>2019-05-11T07:54:35Z</time>
      </trkpt>
      <trkpt lat="39.2591090" lon="-1.5501400">
        <ele>687.6</ele>
        <time>2019-05-11T07:54:36Z</time>
      </trkpt>
      <trkpt lat="39.2590570" lon="-1.5501330">
        <ele>687.6</ele>
        <time>2019-05-11T07:54:37Z</time>
      </trkpt>
      <trkpt lat="39.2590070" lon="-1.5501170">
        <ele>687.8</ele>
        <time>2019-05-11T07:54:38Z</time>
      </trkpt>
      <trkpt lat="39.2589600" lon="-1.5500930">
        <ele>688.0</ele>
        <time>2019-05-11T07:54:39Z</time>
      </trkpt>
      <trkpt lat="39.2589150" lon="-1.5500610">
        <ele>688.0</ele>
        <time>2019-05-11T07:54:40Z</time>
      </trkpt>
      <trkpt lat="39.2588740" lon="-1.5500230">
        <ele>688.0</ele>
        <time>2019-05-11T07:54:41Z</time>
      </trkpt>
      <trkpt lat="39.2588350" lon="-1.5499810">
        <ele>688.0</ele>
        <time>2019-05-11T07:54:42Z</time>
      </trkpt>
      <trkpt lat="39.2587970" lon="-1.5499370">
        <ele>688.2</ele>
        <time>2019-05-11T07:54:43Z</time>
      </trkpt>
      <trkpt lat="39.2587580" lon="-1.5498960">
        <ele>688.4</ele>
        <time>2019-05-11T07:54:44Z</time>
      </trkpt>
      <trkpt lat="39.2587150" lon="-1.5498630">
        <ele>688.4</ele>
        <time>2019-05-11T07:54:45Z</time>
      </trkpt>
      <trkpt lat="39.2586700" lon="-1.5498380">
        <ele>688.4</ele>
        <time>2019-05-11T07:54:46Z</time>
      </trkpt>
      <trkpt lat="39.2586240" lon="-1.5498230">
        <ele>688.4</ele>
        <time>2019-05-11T07:54:47Z</time>
      </trkpt>
      <trkpt lat="39.2585770" lon="-1.5498150">
        <ele>688.4</ele>
        <time>2019-05-11T07:54:48Z</time>
      </trkpt>
      <trkpt lat="39.2585300" lon="-1.5498150">
        <ele>688.4</ele>
        <time>2019-05-11T07:54:49Z</time>
      </trkpt>
      <trkpt lat="39.2584810" lon="-1.5498210">
        <ele>688.4</ele>
        <time>2019-05-11T07:54:50Z</time>
      </trkpt>
      <trkpt lat="39.2584280" lon="-1.5498280">
        <ele>688.6</ele>
        <time>2019-05-11T07:54:51Z</time>
      </trkpt>
      <trkpt lat="39.2583710" lon="-1.5498330">
        <ele>688.8</ele>
        <time>2019-05-11T07:54:52Z</time>
      </trkpt>
      <trkpt lat="39.2583110" lon="-1.5498360">
        <ele>688.8</ele>
        <time>2019-05-11T07:54:53Z</time>
      </trkpt>
      <trkpt lat="39.2582480" lon="-1.5498360">
        <ele>689.0</ele>
        <time>2019-05-11T07:54:54Z</time>
      </trkpt>
      <trkpt lat="39.2581840" lon="-1.5498350">
        <ele>689.2</ele>
        <time>2019-05-11T07:54:55Z</time>
      </trkpt>
      <trkpt lat="39.2581180" lon="-1.5498310">
        <ele>689.4</ele>
        <time>2019-05-11T07:54:56Z</time>
      </trkpt>
      <trkpt lat="39.2580520" lon="-1.5498270">
        <ele>689.4</ele>
        <time>2019-05-11T07:54:57Z</time>
      </trkpt>
      <trkpt lat="39.2579850" lon="-1.5498210">
        <ele>689.4</ele>
        <time>2019-05-11T07:54:58Z</time>
      </trkpt>
      <trkpt lat="39.2579180" lon="-1.5498120">
        <ele>689.4</ele>
        <time>2019-05-11T07:54:59Z</time>
      </trkpt>
      <trkpt lat="39.2578530" lon="-1.5498010">
        <ele>689.4</ele>
        <time>2019-05-11T07:55:00Z</time>
      </trkpt>
      <trkpt lat="39.2577890" lon="-1.5497930">
        <ele>689.4</ele>
        <time>2019-05-11T07:55:01Z</time>
      </trkpt>
      <trkpt lat="39.2577260" lon="-1.5497930">
        <ele>689.4</ele>
        <time>2019-05-11T07:55:02Z</time>
      </trkpt>
      <trkpt lat="39.2576650" lon="-1.5498000">
        <ele>689.4</ele>
        <time>2019-05-11T07:55:03Z</time>
      </trkpt>
      <trkpt lat="39.2576050" lon="-1.5498110">
        <ele>689.4</ele>
        <time>2019-05-11T07:55:04Z</time>
      </trkpt>
      <trkpt lat="39.2575480" lon="-1.5498320">
        <ele>689.4</ele>
        <time>2019-05-11T07:55:05Z</time>
      </trkpt>
      <trkpt lat="39.2574980" lon="-1.5498650">
        <ele>689.4</ele>
        <time>2019-05-11T07:55:06Z</time>
      </trkpt>
      <trkpt lat="39.2574570" lon="-1.5499090">
        <ele>689.4</ele>
        <time>2019-05-11T07:55:07Z</time>
      </trkpt>
      <trkpt lat="39.2574230" lon="-1.5499630">
        <ele>689.4</ele>
        <time>2019-05-11T07:55:08Z</time>
      </trkpt>
      <trkpt lat="39.2573940" lon="-1.5500250">
        <ele>689.4</ele>
        <time>2019-05-11T07:55:09Z</time>
      </trkpt>
      <trkpt lat="39.2573710" lon="-1.5500940">
        <ele>689.4</ele>
        <time>2019-05-11T07:55:10Z</time>
      </trkpt>
      <trkpt lat="39.2573570" lon="-1.5501710">
        <ele>689.4</ele>
        <time>2019-05-11T07:55:11Z</time>
      </trkpt>
      <trkpt lat="39.2573560" lon="-1.5502520">
        <ele>689.4</ele>
        <time>2019-05-11T07:55:12Z</time>
      </trkpt>
      <trkpt lat="39.2573650" lon="-1.5503330">
        <ele>689.6</ele>
        <time>2019-05-11T07:55:13Z</time>
      </trkpt>
      <trkpt lat="39.2573770" lon="-1.5504160">
        <ele>689.8</ele>
        <time>2019-05-11T07:55:14Z</time>
      </trkpt>
      <trkpt lat="39.2573850" lon="-1.5505020">
        <ele>689.8</ele>
        <time>2019-05-11T07:55:15Z</time>
      </trkpt>
      <trkpt lat="39.2573870" lon="-1.5505910">
        <ele>690.2</ele>
        <time>2019-05-11T07:55:16Z</time>
      </trkpt>
      <trkpt lat="39.2573870" lon="-1.5506840">
        <ele>690.2</ele>
        <time>2019-05-11T07:55:17Z</time>
      </trkpt>
      <trkpt lat="39.2573930" lon="-1.5507800">
        <ele>690.2</ele>
        <time>2019-05-11T07:55:18Z</time>
      </trkpt>
      <trkpt lat="39.2574100" lon="-1.5508780">
        <ele>690.2</ele>
        <time>2019-05-11T07:55:19Z</time>
      </trkpt>
      <trkpt lat="39.2574310" lon="-1.5509800">
        <ele>690.2</ele>
        <time>2019-05-11T07:55:20Z</time>
      </trkpt>
      <trkpt lat="39.2574550" lon="-1.5510810">
        <ele>690.2</ele>
        <time>2019-05-11T07:55:21Z</time>
      </trkpt>
      <trkpt lat="39.2574840" lon="-1.5511810">
        <ele>690.2</ele>
        <time>2019-05-11T07:55:22Z</time>
      </trkpt>
      <trkpt lat="39.2575180" lon="-1.5512780">
        <ele>690.2</ele>
        <time>2019-05-11T07:55:23Z</time>
      </trkpt>
      <trkpt lat="39.2575560" lon="-1.5513720">
        <ele>690.0</ele>
        <time>2019-05-11T07:55:24Z</time>
      </trkpt>
      <trkpt lat="39.2575980" lon="-1.5514680">
        <ele>689.8</ele>
        <time>2019-05-11T07:55:25Z</time>
      </trkpt>
      <trkpt lat="39.2576440" lon="-1.5515660">
        <ele>689.6</ele>
        <time>2019-05-11T07:55:26Z</time>
      </trkpt>
      <trkpt lat="39.2576910" lon="-1.5516680">
        <ele>689.4</ele>
        <time>2019-05-11T07:55:27Z</time>
      </trkpt>
      <trkpt lat="39.2577350" lon="-1.5517750">
        <ele>689.4</ele>
        <time>2019-05-11T07:55:28Z</time>
      </trkpt>
      <trkpt lat="39.2577730" lon="-1.5518840">
        <ele>689.2</ele>
        <time>2019-05-11T07:55:29Z</time>
      </trkpt>
      <trkpt lat="39.2578090" lon="-1.5519870">
        <ele>688.8</ele>
        <time>2019-05-11T07:55:30Z</time>
      </trkpt>
      <trkpt lat="39.2578430" lon="-1.5520880">
        <ele>688.4</ele>
        <time>2019-05-11T07:55:31Z</time>
      </trkpt>
      <trkpt lat="39.2578730" lon="-1.5521950">
        <ele>688.0</ele>
        <time>2019-05-11T07:55:32Z</time>
      </trkpt>
      <trkpt lat="39.2579020" lon="-1.5523070">
        <ele>687.8</ele>
        <time>2019-05-11T07:55:33Z</time>
      </trkpt>
      <trkpt lat="39.2579300" lon="-1.5524210">
        <ele>687.4</ele>
        <time>2019-05-11T07:55:34Z</time>
      </trkpt>
      <trkpt lat="39.2579470" lon="-1.5525300">
        <ele>687.2</ele>
        <time>2019-05-11T07:55:35Z</time>
      </trkpt>
      <trkpt lat="39.2579480" lon="-1.5526220">
        <ele>687.2</ele>
        <time>2019-05-11T07:55:36Z</time>
      </trkpt>
      <trkpt lat="39.2579290" lon="-1.5526900">
        <ele>687.0</ele>
        <time>2019-05-11T07:55:37Z</time>
      </trkpt>
      <trkpt lat="39.2578920" lon="-1.5527390">
        <ele>687.0</ele>
        <time>2019-05-11T07:55:38Z</time>
      </trkpt>
      <trkpt lat="39.2578520" lon="-1.5527890">
        <ele>686.8</ele>
        <time>2019-05-11T07:55:39Z</time>
      </trkpt>
      <trkpt lat="39.2578210" lon="-1.5528510">
        <ele>686.6</ele>
        <time>2019-05-11T07:55:40Z</time>
      </trkpt>
      <trkpt lat="39.2577990" lon="-1.5529210">
        <ele>686.2</ele>
        <time>2019-05-11T07:55:41Z</time>
      </trkpt>
      <trkpt lat="39.2577840" lon="-1.5529950">
        <ele>685.6</ele>
        <time>2019-05-11T07:55:42Z</time>
      </trkpt>
      <trkpt lat="39.2577750" lon="-1.5530720">
        <ele>685.0</ele>
        <time>2019-05-11T07:55:43Z</time>
      </trkpt>
      <trkpt lat="39.2577670" lon="-1.5531470">
        <ele>684.6</ele>
        <time>2019-05-11T07:55:44Z</time>
      </trkpt>
      <trkpt lat="39.2577520" lon="-1.5532090">
        <ele>684.2</ele>
        <time>2019-05-11T07:55:45Z</time>
      </trkpt>
      <trkpt lat="39.2577260" lon="-1.5532430">
        <ele>684.0</ele>
        <time>2019-05-11T07:55:46Z</time>
      </trkpt>
      <trkpt lat="39.2576940" lon="-1.5532480">
        <ele>684.0</ele>
        <time>2019-05-11T07:55:47Z</time>
      </trkpt>
      <trkpt lat="39.2576640" lon="-1.5532310">
        <ele>683.8</ele>
        <time>2019-05-11T07:55:48Z</time>
      </trkpt>
      <trkpt lat="39.2576420" lon="-1.5532030">
        <ele>683.8</ele>
        <time>2019-05-11T07:55:49Z</time>
      </trkpt>
      <trkpt lat="39.2576230" lon="-1.5531740">
        <ele>683.8</ele>
        <time>2019-05-11T07:55:50Z</time>
      </trkpt>
      <trkpt lat="39.2576030" lon="-1.5531470">
        <ele>683.6</ele>
        <time>2019-05-11T07:55:51Z</time>
      </trkpt>
      <trkpt lat="39.2575820" lon="-1.5531220">
        <ele>683.6</ele>
        <time>2019-05-11T07:55:52Z</time>
      </trkpt>
      <trkpt lat="39.2575600" lon="-1.5530980">
        <ele>683.6</ele>
        <time>2019-05-11T07:55:53Z</time>
      </trkpt>
      <trkpt lat="39.2575380" lon="-1.5530760">
        <ele>683.6</ele>
        <time>2019-05-11T07:55:54Z</time>
      </trkpt>
      <trkpt lat="39.2575170" lon="-1.5530560">
        <ele>683.6</ele>
        <time>2019-05-11T07:55:55Z</time>
      </trkpt>
      <trkpt lat="39.2574960" lon="-1.5530350">
        <ele>683.6</ele>
        <time>2019-05-11T07:55:56Z</time>
      </trkpt>
      <trkpt lat="39.2574750" lon="-1.5530140">
        <ele>683.6</ele>
        <time>2019-05-11T07:55:57Z</time>
      </trkpt>
      <trkpt lat="39.2574520" lon="-1.5529950">
        <ele>683.6</ele>
        <time>2019-05-11T07:55:58Z</time>
      </trkpt>
      <trkpt lat="39.2574290" lon="-1.5529780">
        <ele>683.6</ele>
        <time>2019-05-11T07:55:59Z</time>
      </trkpt>
      <trkpt lat="39.2574050" lon="-1.5529630">
        <ele>683.6</ele>
        <time>2019-05-11T07:56:00Z</time>
      </trkpt>
      <trkpt lat="39.2573810" lon="-1.5529510">
        <ele>683.6</ele>
        <time>2019-05-11T07:56:01Z</time>
      </trkpt>
      <trkpt lat="39.2573580" lon="-1.5529400">
        <ele>683.8</ele>
        <time>2019-05-11T07:56:02Z</time>
      </trkpt>
      <trkpt lat="39.2573340" lon="-1.5529320">
        <ele>684.0</ele>
        <time>2019-05-11T07:56:03Z</time>
      </trkpt>
      <trkpt lat="39.2573080" lon="-1.5529280">
        <ele>684.4</ele>
        <time>2019-05-11T07:56:04Z</time>
      </trkpt>
      <trkpt lat="39.2572820" lon="-1.5529260">
        <ele>684.6</ele>
        <time>2019-05-11T07:56:05Z</time>
      </trkpt>
      <trkpt lat="39.2572580" lon="-1.5529300">
        <ele>685.0</ele>
        <time>2019-05-11T07:56:06Z</time>
      </trkpt>
      <trkpt lat="39.2572350" lon="-1.5529400">
        <ele>685.2</ele>
        <time>2019-05-11T07:56:07Z</time>
      </trkpt>
      <trkpt lat="39.2572150" lon="-1.5529500">
        <ele>685.4</ele>
        <time>2019-05-11T07:56:08Z</time>
      </trkpt>
      <trkpt lat="39.2571960" lon="-1.5529580">
        <ele>685.8</ele>
        <time>2019-05-11T07:56:09Z</time>
      </trkpt>
      <trkpt lat="39.2571770" lon="-1.5529670">
        <ele>686.0</ele>
        <time>2019-05-11T07:56:10Z</time>
      </trkpt>
      <trkpt lat="39.2571570" lon="-1.5529740">
        <ele>686.2</ele>
        <time>2019-05-11T07:56:11Z</time>
      </trkpt>
      <trkpt lat="39.2571400" lon="-1.5529810">
        <ele>686.4</ele>
        <time>2019-05-11T07:56:12Z</time>
      </trkpt>
      <trkpt lat="39.2571240" lon="-1.5529870">
        <ele>686.8</ele>
        <time>2019-05-11T07:56:13Z</time>
      </trkpt>
      <trkpt lat="39.2571080" lon="-1.5529930">
        <ele>687.2</ele>
        <time>2019-05-11T07:56:14Z</time>
      </trkpt>
      <trkpt lat="39.2570940" lon="-1.5530000">
        <ele>687.4</ele>
        <time>2019-05-11T07:56:15Z</time>
      </trkpt>
      <trkpt lat="39.2570800" lon="-1.5530060">
        <ele>687.6</ele>
        <time>2019-05-11T07:56:16Z</time>
      </trkpt>
      <trkpt lat="39.2570690" lon="-1.5530100">
        <ele>688.0</ele>
        <time>2019-05-11T07:56:17Z</time>
      </trkpt>
      <trkpt lat="39.2570570" lon="-1.5530150">
        <ele>688.2</ele>
        <time>2019-05-11T07:56:18Z</time>
      </trkpt>
      <trkpt lat="39.2570450" lon="-1.5530200">
        <ele>688.6</ele>
        <time>2019-05-11T07:56:19Z</time>
      </trkpt>
      <trkpt lat="39.2570330" lon="-1.5530250">
        <ele>688.8</ele>
        <time>2019-05-11T07:56:20Z</time>
      </trkpt>
      <trkpt lat="39.2570220" lon="-1.5530280">
        <ele>689.0</ele>
        <time>2019-05-11T07:56:21Z</time>
      </trkpt>
      <trkpt lat="39.2570110" lon="-1.5530300">
        <ele>689.4</ele>
        <time>2019-05-11T07:56:22Z</time>
      </trkpt>
      <trkpt lat="39.2570020" lon="-1.5530330">
        <ele>689.6</ele>
        <time>2019-05-11T07:56:23Z</time>
      </trkpt>
      <trkpt lat="39.2570000" lon="-1.5530310">
        <ele>690.0</ele>
        <time>2019-05-11T07:56:24Z</time>
      </trkpt>
      <trkpt lat="39.2570000" lon="-1.5530320">
        <ele>690.2</ele>
        <time>2019-05-11T07:56:25Z</time>
      </trkpt>
      <trkpt lat="39.2569960" lon="-1.5530360">
        <ele>690.4</ele>
        <time>2019-05-11T07:56:26Z</time>
      </trkpt>
      <trkpt lat="39.2569880" lon="-1.5530400">
        <ele>690.6</ele>
        <time>2019-05-11T07:56:27Z</time>
      </trkpt>
      <trkpt lat="39.2569840" lon="-1.5530350">
        <ele>690.8</ele>
        <time>2019-05-11T07:56:28Z</time>
      </trkpt>
      <trkpt lat="39.2569840" lon="-1.5530350">
        <ele>691.0</ele>
        <time>2019-05-11T07:56:29Z</time>
      </trkpt>
      <trkpt lat="39.2569780" lon="-1.5530390">
        <ele>691.2</ele>
        <time>2019-05-11T07:56:30Z</time>
      </trkpt>
      <trkpt lat="39.2569780" lon="-1.5530390">
        <ele>691.4</ele>
        <time>2019-05-11T07:56:31Z</time>
      </trkpt>
      <trkpt lat="39.2569700" lon="-1.5530380">
        <ele>691.6</ele>
        <time>2019-05-11T07:56:32Z</time>
      </trkpt>
      <trkpt lat="39.2569700" lon="-1.5530380">
        <ele>691.8</ele>
        <time>2019-05-11T07:56:33Z</time>
      </trkpt>
      <trkpt lat="39.2569600" lon="-1.5530370">
        <ele>692.0</ele>
        <time>2019-05-11T07:56:34Z</time>
      </trkpt>
      <trkpt lat="39.2569540" lon="-1.5530360">
        <ele>692.0</ele>
        <time>2019-05-11T07:56:35Z</time>
      </trkpt>
      <trkpt lat="39.2569430" lon="-1.5530340">
        <ele>692.0</ele>
        <time>2019-05-11T07:56:36Z</time>
      </trkpt>
      <trkpt lat="39.2569350" lon="-1.5530310">
        <ele>692.2</ele>
        <time>2019-05-11T07:56:37Z</time>
      </trkpt>
      <trkpt lat="39.2569270" lon="-1.5530280">
        <ele>692.6</ele>
        <time>2019-05-11T07:56:38Z</time>
      </trkpt>
      <trkpt lat="39.2569200" lon="-1.5530230">
        <ele>692.8</ele>
        <time>2019-05-11T07:56:39Z</time>
      </trkpt>
      <trkpt lat="39.2569100" lon="-1.5530200">
        <ele>693.0</ele>
        <time>2019-05-11T07:56:40Z</time>
      </trkpt>
      <trkpt lat="39.2569000" lon="-1.5530200">
        <ele>693.2</ele>
        <time>2019-05-11T07:56:41Z</time>
      </trkpt>
      <trkpt lat="39.2568930" lon="-1.5530160">
        <ele>693.4</ele>
        <time>2019-05-11T07:56:42Z</time>
      </trkpt>
      <trkpt lat="39.2568860" lon="-1.5530120">
        <ele>693.6</ele>
        <time>2019-05-11T07:56:43Z</time>
      </trkpt>
      <trkpt lat="39.2568790" lon="-1.5530090">
        <ele>693.8</ele>
        <time>2019-05-11T07:56:44Z</time>
      </trkpt>
      <trkpt lat="39.2568710" lon="-1.5530040">
        <ele>693.8</ele>
        <time>2019-05-11T07:56:45Z</time>
      </trkpt>
      <trkpt lat="39.2568620" lon="-1.5529990">
        <ele>694.0</ele>
        <time>2019-05-11T07:56:46Z</time>
      </trkpt>
      <trkpt lat="39.2568520" lon="-1.5529970">
        <ele>694.2</ele>
        <time>2019-05-11T07:56:47Z</time>
      </trkpt>
      <trkpt lat="39.2568460" lon="-1.5529930">
        <ele>694.4</ele>
        <time>2019-05-11T07:56:48Z</time>
      </trkpt>
      <trkpt lat="39.2568390" lon="-1.5529900">
        <ele>694.8</ele>
        <time>2019-05-11T07:56:49Z</time>
      </trkpt>
      <trkpt lat="39.2568310" lon="-1.5529860">
        <ele>695.0</ele>
        <time>2019-05-11T07:56:50Z</time>
      </trkpt>
      <trkpt lat="39.2568240" lon="-1.5529800">
        <ele>695.2</ele>
        <time>2019-05-11T07:56:51Z</time>
      </trkpt>
      <trkpt lat="39.2568160" lon="-1.5529760">
        <ele>695.4</ele>
        <time>2019-05-11T07:56:52Z</time>
      </trkpt>
      <trkpt lat="39.2568080" lon="-1.5529720">
        <ele>695.6</ele>
        <time>2019-05-11T07:56:53Z</time>
      </trkpt>
      <trkpt lat="39.2567990" lon="-1.5529680">
        <ele>695.8</ele>
        <time>2019-05-11T07:56:54Z</time>
      </trkpt>
      <trkpt lat="39.2567920" lon="-1.5529630">
        <ele>696.2</ele>
        <time>2019-05-11T07:56:55Z</time>
      </trkpt>
      <trkpt lat="39.2567840" lon="-1.5529570">
        <ele>696.6</ele>
        <time>2019-05-11T07:56:56Z</time>
      </trkpt>
      <trkpt lat="39.2567760" lon="-1.5529530">
        <ele>696.8</ele>
        <time>2019-05-11T07:56:57Z</time>
      </trkpt>
      <trkpt lat="39.2567700" lon="-1.5529460">
        <ele>697.2</ele>
        <time>2019-05-11T07:56:58Z</time>
      </trkpt>
      <trkpt lat="39.2567620" lon="-1.5529400">
        <ele>697.4</ele>
        <time>2019-05-11T07:56:59Z</time>
      </trkpt>
      <trkpt lat="39.2567530" lon="-1.5529350">
        <ele>697.6</ele>
        <time>2019-05-11T07:57:00Z</time>
      </trkpt>
      <trkpt lat="39.2567440" lon="-1.5529290">
        <ele>698.0</ele>
        <time>2019-05-11T07:57:01Z</time>
      </trkpt>
      <trkpt lat="39.2567330" lon="-1.5529240">
        <ele>698.2</ele>
        <time>2019-05-11T07:57:02Z</time>
      </trkpt>
      <trkpt lat="39.2567220" lon="-1.5529190">
        <ele>698.4</ele>
        <time>2019-05-11T07:57:03Z</time>
      </trkpt>
      <trkpt lat="39.2567140" lon="-1.5529150">
        <ele>698.6</ele>
        <time>2019-05-11T07:57:04Z</time>
      </trkpt>
      <trkpt lat="39.2567070" lon="-1.5529100">
        <ele>698.8</ele>
        <time>2019-05-11T07:57:05Z</time>
      </trkpt>
      <trkpt lat="39.2566980" lon="-1.5529040">
        <ele>699.0</ele>
        <time>2019-05-11T07:57:06Z</time>
      </trkpt>
      <trkpt lat="39.2566890" lon="-1.5528970">
        <ele>699.2</ele>
        <time>2019-05-11T07:57:07Z</time>
      </trkpt>
      <trkpt lat="39.2566810" lon="-1.5528910">
        <ele>699.4</ele>
        <time>2019-05-11T07:57:08Z</time>
      </trkpt>
      <trkpt lat="39.2566720" lon="-1.5528860">
        <ele>699.6</ele>
        <time>2019-05-11T07:57:09Z</time>
      </trkpt>
      <trkpt lat="39.2566620" lon="-1.5528800">
        <ele>699.8</ele>
        <time>2019-05-11T07:57:10Z</time>
      </trkpt>
      <trkpt lat="39.2566520" lon="-1.5528720">
        <ele>700.0</ele>
        <time>2019-05-11T07:57:11Z</time>
      </trkpt>
      <trkpt lat="39.2566430" lon="-1.5528640">
        <ele>700.2</ele>
        <time>2019-05-11T07:57:12Z</time>
      </trkpt>
      <trkpt lat="39.2566350" lon="-1.5528560">
        <ele>700.6</ele>
        <time>2019-05-11T07:57:13Z</time>
      </trkpt>
      <trkpt lat="39.2566280" lon="-1.5528460">
        <ele>700.8</ele>
        <time>2019-05-11T07:57:14Z</time>
      </trkpt>
      <trkpt lat="39.2566230" lon="-1.5528370">
        <ele>701.0</ele>
        <time>2019-05-11T07:57:15Z</time>
      </trkpt>
      <trkpt lat="39.2566210" lon="-1.5528350">
        <ele>701.0</ele>
        <time>2019-05-11T07:57:16Z</time>
      </trkpt>
      <trkpt lat="39.2566190" lon="-1.5528350">
        <ele>701.2</ele>
        <time>2019-05-11T07:57:17Z</time>
      </trkpt>
      <trkpt lat="39.2566120" lon="-1.5528330">
        <ele>701.4</ele>
        <time>2019-05-11T07:57:18Z</time>
      </trkpt>
      <trkpt lat="39.2566020" lon="-1.5528270">
        <ele>701.4</ele>
        <time>2019-05-11T07:57:19Z</time>
      </trkpt>
      <trkpt lat="39.2565900" lon="-1.5528200">
        <ele>701.6</ele>
        <time>2019-05-11T07:57:20Z</time>
      </trkpt>
      <trkpt lat="39.2565770" lon="-1.5528060">
        <ele>701.8</ele>
        <time>2019-05-11T07:57:21Z</time>
      </trkpt>
      <trkpt lat="39.2565630" lon="-1.5527900">
        <ele>702.0</ele>
        <time>2019-05-11T07:57:22Z</time>
      </trkpt>
      <trkpt lat="39.2565480" lon="-1.5527740">
        <ele>702.2</ele>
        <time>2019-05-11T07:57:23Z</time>
      </trkpt>
      <trkpt lat="39.2565340" lon="-1.5527580">
        <ele>702.2</ele>
        <time>2019-05-11T07:57:24Z</time>
      </trkpt>
      <trkpt lat="39.2565200" lon="-1.5527420">
        <ele>702.4</ele>
        <time>2019-05-11T07:57:25Z</time>
      </trkpt>
      <trkpt lat="39.2565080" lon="-1.5527260">
        <ele>702.4</ele>
        <time>2019-05-11T07:57:26Z</time>
      </trkpt>
      <trkpt lat="39.2564960" lon="-1.5527100">
        <ele>702.6</ele>
        <time>2019-05-11T07:57:27Z</time>
      </trkpt>
      <trkpt lat="39.2564820" lon="-1.5526940">
        <ele>702.6</ele>
        <time>2019-05-11T07:57:28Z</time>
      </trkpt>
      <trkpt lat="39.2564670" lon="-1.5526780">
        <ele>702.8</ele>
        <time>2019-05-11T07:57:29Z</time>
      </trkpt>
      <trkpt lat="39.2564490" lon="-1.5526620">
        <ele>703.0</ele>
        <time>2019-05-11T07:57:30Z</time>
      </trkpt>
      <trkpt lat="39.2564310" lon="-1.5526460">
        <ele>703.2</ele>
        <time>2019-05-11T07:57:31Z</time>
      </trkpt>
      <trkpt lat="39.2564140" lon="-1.5526300">
        <ele>703.6</ele>
        <time>2019-05-11T07:57:32Z</time>
      </trkpt>
      <trkpt lat="39.2563970" lon="-1.5526140">
        <ele>703.8</ele>
        <time>2019-05-11T07:57:33Z</time>
      </trkpt>
      <trkpt lat="39.2563800" lon="-1.5525980">
        <ele>704.0</ele>
        <time>2019-05-11T07:57:34Z</time>
      </trkpt>
      <trkpt lat="39.2563640" lon="-1.5525840">
        <ele>704.2</ele>
        <time>2019-05-11T07:57:35Z</time>
      </trkpt>
      <trkpt lat="39.2563480" lon="-1.5525700">
        <ele>704.6</ele>
        <time>2019-05-11T07:57:36Z</time>
      </trkpt>
      <trkpt lat="39.2563310" lon="-1.5525550">
        <ele>705.0</ele>
        <time>2019-05-11T07:57:37Z</time>
      </trkpt>
      <trkpt lat="39.2563110" lon="-1.5525390">
        <ele>705.4</ele>
        <time>2019-05-11T07:57:38Z</time>
      </trkpt>
      <trkpt lat="39.2562910" lon="-1.5525200">
        <ele>705.6</ele>
        <time>2019-05-11T07:57:39Z</time>
      </trkpt>
      <trkpt lat="39.2562690" lon="-1.5525000">
        <ele>705.8</ele>
        <time>2019-05-11T07:57:40Z</time>
      </trkpt>
      <trkpt lat="39.2562440" lon="-1.5524810">
        <ele>706.0</ele>
        <time>2019-05-11T07:57:41Z</time>
      </trkpt>
      <trkpt lat="39.2562170" lon="-1.5524610">
        <ele>706.2</ele>
        <time>2019-05-11T07:57:42Z</time>
      </trkpt>
      <trkpt lat="39.2561900" lon="-1.5524400">
        <ele>706.4</ele>
        <time>2019-05-11T07:57:43Z</time>
      </trkpt>
      <trkpt lat="39.2561610" lon="-1.5524170">
        <ele>706.6</ele>
        <time>2019-05-11T07:57:44Z</time>
      </trkpt>
      <trkpt lat="39.2561300" lon="-1.5523920">
        <ele>706.8</ele>
        <time>2019-05-11T07:57:45Z</time>
      </trkpt>
      <trkpt lat="39.2560980" lon="-1.5523650">
        <ele>707.0</ele>
        <time>2019-05-11T07:57:46Z</time>
      </trkpt>
      <trkpt lat="39.2560640" lon="-1.5523320">
        <ele>707.2</ele>
        <time>2019-05-11T07:57:47Z</time>
      </trkpt>
      <trkpt lat="39.2560290" lon="-1.5522940">
        <ele>707.4</ele>
        <time>2019-05-11T07:57:48Z</time>
      </trkpt>
      <trkpt lat="39.2559960" lon="-1.5522560">
        <ele>707.4</ele>
        <time>2019-05-11T07:57:49Z</time>
      </trkpt>
      <trkpt lat="39.2559660" lon="-1.5522180">
        <ele>707.4</ele>
        <time>2019-05-11T07:57:50Z</time>
      </trkpt>
      <trkpt lat="39.2559370" lon="-1.5521820">
        <ele>707.6</ele>
        <time>2019-05-11T07:57:51Z</time>
      </trkpt>
      <trkpt lat="39.2559100" lon="-1.5521480">
        <ele>707.6</ele>
        <time>2019-05-11T07:57:52Z</time>
      </trkpt>
      <trkpt lat="39.2558870" lon="-1.5521210">
        <ele>707.6</ele>
        <time>2019-05-11T07:57:53Z</time>
      </trkpt>
      <trkpt lat="39.2558690" lon="-1.5520990">
        <ele>707.6</ele>
        <time>2019-05-11T07:57:54Z</time>
      </trkpt>
      <trkpt lat="39.2558530" lon="-1.5520780">
        <ele>707.8</ele>
        <time>2019-05-11T07:57:55Z</time>
      </trkpt>
      <trkpt lat="39.2558380" lon="-1.5520560">
        <ele>707.8</ele>
        <time>2019-05-11T07:57:56Z</time>
      </trkpt>
      <trkpt lat="39.2558240" lon="-1.5520340">
        <ele>707.8</ele>
        <time>2019-05-11T07:57:57Z</time>
      </trkpt>
      <trkpt lat="39.2558100" lon="-1.5520120">
        <ele>707.8</ele>
        <time>2019-05-11T07:57:58Z</time>
      </trkpt>
      <trkpt lat="39.2557960" lon="-1.5519900">
        <ele>708.0</ele>
        <time>2019-05-11T07:57:59Z</time>
      </trkpt>
      <trkpt lat="39.2557830" lon="-1.5519670">
        <ele>708.2</ele>
        <time>2019-05-11T07:58:00Z</time>
      </trkpt>
      <trkpt lat="39.2557720" lon="-1.5519430">
        <ele>708.6</ele>
        <time>2019-05-11T07:58:01Z</time>
      </trkpt>
      <trkpt lat="39.2557600" lon="-1.5519180">
        <ele>709.0</ele>
        <time>2019-05-11T07:58:02Z</time>
      </trkpt>
      <trkpt lat="39.2557480" lon="-1.5518920">
        <ele>709.2</ele>
        <time>2019-05-11T07:58:03Z</time>
      </trkpt>
      <trkpt lat="39.2557370" lon="-1.5518620">
        <ele>709.6</ele>
        <time>2019-05-11T07:58:04Z</time>
      </trkpt>
      <trkpt lat="39.2557240" lon="-1.5518320">
        <ele>709.8</ele>
        <time>2019-05-11T07:58:05Z</time>
      </trkpt>
      <trkpt lat="39.2557100" lon="-1.5518000">
        <ele>710.2</ele>
        <time>2019-05-11T07:58:06Z</time>
      </trkpt>
      <trkpt lat="39.2556960" lon="-1.5517670">
        <ele>710.4</ele>
        <time>2019-05-11T07:58:07Z</time>
      </trkpt>
      <trkpt lat="39.2556800" lon="-1.5517340">
        <ele>711.0</ele>
        <time>2019-05-11T07:58:08Z</time>
      </trkpt>
      <trkpt lat="39.2556640" lon="-1.5517010">
        <ele>711.2</ele>
        <time>2019-05-11T07:58:09Z</time>
      </trkpt>
      <trkpt lat="39.2556480" lon="-1.5516680">
        <ele>711.6</ele>
        <time>2019-05-11T07:58:10Z</time>
      </trkpt>
      <trkpt lat="39.2556310" lon="-1.5516340">
        <ele>711.6</ele>
        <time>2019-05-11T07:58:11Z</time>
      </trkpt>
      <trkpt lat="39.2556110" lon="-1.5516010">
        <ele>712.0</ele>
        <time>2019-05-11T07:58:12Z</time>
      </trkpt>
      <trkpt lat="39.2555900" lon="-1.5515670">
        <ele>712.4</ele>
        <time>2019-05-11T07:58:13Z</time>
      </trkpt>
      <trkpt lat="39.2555700" lon="-1.5515300">
        <ele>712.6</ele>
        <time>2019-05-11T07:58:14Z</time>
      </trkpt>
      <trkpt lat="39.2555490" lon="-1.5514950">
        <ele>712.8</ele>
        <time>2019-05-11T07:58:15Z</time>
      </trkpt>
      <trkpt lat="39.2555260" lon="-1.5514600">
        <ele>713.0</ele>
        <time>2019-05-11T07:58:16Z</time>
      </trkpt>
      <trkpt lat="39.2555020" lon="-1.5514230">
        <ele>713.2</ele>
        <time>2019-05-11T07:58:17Z</time>
      </trkpt>
      <trkpt lat="39.2554770" lon="-1.5513860">
        <ele>713.4</ele>
        <time>2019-05-11T07:58:18Z</time>
      </trkpt>
      <trkpt lat="39.2554510" lon="-1.5513480">
        <ele>713.4</ele>
        <time>2019-05-11T07:58:19Z</time>
      </trkpt>
      <trkpt lat="39.2554250" lon="-1.5513100">
        <ele>713.6</ele>
        <time>2019-05-11T07:58:20Z</time>
      </trkpt>
      <trkpt lat="39.2553990" lon="-1.5512720">
        <ele>713.6</ele>
        <time>2019-05-11T07:58:21Z</time>
      </trkpt>
      <trkpt lat="39.2553730" lon="-1.5512360">
        <ele>714.0</ele>
        <time>2019-05-11T07:58:22Z</time>
      </trkpt>
      <trkpt lat="39.2553470" lon="-1.5512000">
        <ele>714.0</ele>
        <time>2019-05-11T07:58:23Z</time>
      </trkpt>
      <trkpt lat="39.2553180" lon="-1.5511650">
        <ele>714.0</ele>
        <time>2019-05-11T07:58:24Z</time>
      </trkpt>
      <trkpt lat="39.2552910" lon="-1.5511300">
        <ele>714.2</ele>
        <time>2019-05-11T07:58:25Z</time>
      </trkpt>
      <trkpt lat="39.2552660" lon="-1.5510960">
        <ele>714.4</ele>
        <time>2019-05-11T07:58:26Z</time>
      </trkpt>
      <trkpt lat="39.2552430" lon="-1.5510640">
        <ele>714.6</ele>
        <time>2019-05-11T07:58:27Z</time>
      </trkpt>
      <trkpt lat="39.2552220" lon="-1.5510340">
        <ele>714.6</ele>
        <time>2019-05-11T07:58:28Z</time>
      </trkpt>
      <trkpt lat="39.2552030" lon="-1.5510050">
        <ele>714.8</ele>
        <time>2019-05-11T07:58:29Z</time>
      </trkpt>
      <trkpt lat="39.2551840" lon="-1.5509740">
        <ele>715.0</ele>
        <time>2019-05-11T07:58:30Z</time>
      </trkpt>
      <trkpt lat="39.2551670" lon="-1.5509440">
        <ele>715.0</ele>
        <time>2019-05-11T07:58:31Z</time>
      </trkpt>
      <trkpt lat="39.2551510" lon="-1.5509130">
        <ele>715.2</ele>
        <time>2019-05-11T07:58:32Z</time>
      </trkpt>
      <trkpt lat="39.2551370" lon="-1.5508810">
        <ele>715.4</ele>
        <time>2019-05-11T07:58:33Z</time>
      </trkpt>
      <trkpt lat="39.2551230" lon="-1.5508480">
        <ele>715.6</ele>
        <time>2019-05-11T07:58:34Z</time>
      </trkpt>
      <trkpt lat="39.2551120" lon="-1.5508140">
        <ele>715.8</ele>
        <time>2019-05-11T07:58:35Z</time>
      </trkpt>
      <trkpt lat="39.2551010" lon="-1.5507800">
        <ele>716.2</ele>
        <time>2019-05-11T07:58:36Z</time>
      </trkpt>
      <trkpt lat="39.2550900" lon="-1.5507460">
        <ele>716.6</ele>
        <time>2019-05-11T07:58:37Z</time>
      </trkpt>
      <trkpt lat="39.2550810" lon="-1.5507120">
        <ele>716.8</ele>
        <time>2019-05-11T07:58:38Z</time>
      </trkpt>
      <trkpt lat="39.2550720" lon="-1.5506760">
        <ele>717.0</ele>
        <time>2019-05-11T07:58:39Z</time>
      </trkpt>
      <trkpt lat="39.2550640" lon="-1.5506400">
        <ele>717.4</ele>
        <time>2019-05-11T07:58:40Z</time>
      </trkpt>
      <trkpt lat="39.2550570" lon="-1.5506020">
        <ele>717.6</ele>
        <time>2019-05-11T07:58:41Z</time>
      </trkpt>
      <trkpt lat="39.2550490" lon="-1.5505640">
        <ele>718.0</ele>
        <time>2019-05-11T07:58:42Z</time>
      </trkpt>
      <trkpt lat="39.2550400" lon="-1.5505220">
        <ele>718.2</ele>
        <time>2019-05-11T07:58:43Z</time>
      </trkpt>
      <trkpt lat="39.2550320" lon="-1.5504820">
        <ele>718.4</ele>
        <time>2019-05-11T07:58:44Z</time>
      </trkpt>
      <trkpt lat="39.2550240" lon="-1.5504420">
        <ele>718.6</ele>
        <time>2019-05-11T07:58:45Z</time>
      </trkpt>
      <trkpt lat="39.2550160" lon="-1.5504030">
        <ele>718.8</ele>
        <time>2019-05-11T07:58:46Z</time>
      </trkpt>
      <trkpt lat="39.2550090" lon="-1.5503640">
        <ele>719.0</ele>
        <time>2019-05-11T07:58:47Z</time>
      </trkpt>
      <trkpt lat="39.2550010" lon="-1.5503260">
        <ele>719.2</ele>
        <time>2019-05-11T07:58:48Z</time>
      </trkpt>
      <trkpt lat="39.2549930" lon="-1.5502890">
        <ele>719.2</ele>
        <time>2019-05-11T07:58:49Z</time>
      </trkpt>
      <trkpt lat="39.2549850" lon="-1.5502530">
        <ele>719.4</ele>
        <time>2019-05-11T07:58:50Z</time>
      </trkpt>
      <trkpt lat="39.2549770" lon="-1.5502200">
        <ele>719.6</ele>
        <time>2019-05-11T07:58:51Z</time>
      </trkpt>
      <trkpt lat="39.2549710" lon="-1.5501860">
        <ele>719.8</ele>
        <time>2019-05-11T07:58:52Z</time>
      </trkpt>
      <trkpt lat="39.2549640" lon="-1.5501540">
        <ele>720.0</ele>
        <time>2019-05-11T07:58:53Z</time>
      </trkpt>
      <trkpt lat="39.2549550" lon="-1.5501200">
        <ele>720.0</ele>
        <time>2019-05-11T07:58:54Z</time>
      </trkpt>
      <trkpt lat="39.2549450" lon="-1.5500870">
        <ele>720.2</ele>
        <time>2019-05-11T07:58:55Z</time>
      </trkpt>
      <trkpt lat="39.2549350" lon="-1.5500530">
        <ele>720.8</ele>
        <time>2019-05-11T07:58:56Z</time>
      </trkpt>
      <trkpt lat="39.2549230" lon="-1.5500200">
        <ele>721.0</ele>
        <time>2019-05-11T07:58:57Z</time>
      </trkpt>
      <trkpt lat="39.2549110" lon="-1.5499850">
        <ele>721.4</ele>
        <time>2019-05-11T07:58:58Z</time>
      </trkpt>
      <trkpt lat="39.2548990" lon="-1.5499510">
        <ele>721.8</ele>
        <time>2019-05-11T07:58:59Z</time>
      </trkpt>
      <trkpt lat="39.2548850" lon="-1.5499180">
        <ele>722.2</ele>
        <time>2019-05-11T07:59:00Z</time>
      </trkpt>
      <trkpt lat="39.2548700" lon="-1.5498840">
        <ele>722.4</ele>
        <time>2019-05-11T07:59:01Z</time>
      </trkpt>
      <trkpt lat="39.2548570" lon="-1.5498470">
        <ele>722.8</ele>
        <time>2019-05-11T07:59:02Z</time>
      </trkpt>
      <trkpt lat="39.2548440" lon="-1.5498110">
        <ele>723.0</ele>
        <time>2019-05-11T07:59:03Z</time>
      </trkpt>
      <trkpt lat="39.2548310" lon="-1.5497750">
        <ele>723.2</ele>
        <time>2019-05-11T07:59:04Z</time>
      </trkpt>
      <trkpt lat="39.2548170" lon="-1.5497390">
        <ele>723.6</ele>
        <time>2019-05-11T07:59:05Z</time>
      </trkpt>
      <trkpt lat="39.2548040" lon="-1.5497020">
        <ele>723.8</ele>
        <time>2019-05-11T07:59:06Z</time>
      </trkpt>
      <trkpt lat="39.2547910" lon="-1.5496650">
        <ele>724.2</ele>
        <time>2019-05-11T07:59:07Z</time>
      </trkpt>
      <trkpt lat="39.2547790" lon="-1.5496310">
        <ele>724.4</ele>
        <time>2019-05-11T07:59:08Z</time>
      </trkpt>
      <trkpt lat="39.2547670" lon="-1.5495950">
        <ele>724.4</ele>
        <time>2019-05-11T07:59:09Z</time>
      </trkpt>
      <trkpt lat="39.2547580" lon="-1.5495560">
        <ele>724.6</ele>
        <time>2019-05-11T07:59:10Z</time>
      </trkpt>
      <trkpt lat="39.2547500" lon="-1.5495150">
        <ele>724.8</ele>
        <time>2019-05-11T07:59:11Z</time>
      </trkpt>
      <trkpt lat="39.2547380" lon="-1.5494760">
        <ele>725.0</ele>
        <time>2019-05-11T07:59:12Z</time>
      </trkpt>
      <trkpt lat="39.2547240" lon="-1.5494390">
        <ele>725.0</ele>
        <time>2019-05-11T07:59:13Z</time>
      </trkpt>
      <trkpt lat="39.2547140" lon="-1.5493980">
        <ele>725.2</ele>
        <time>2019-05-11T07:59:14Z</time>
      </trkpt>
      <trkpt lat="39.2547030" lon="-1.5493600">
        <ele>725.4</ele>
        <time>2019-05-11T07:59:15Z</time>
      </trkpt>
      <trkpt lat="39.2546920" lon="-1.5493230">
        <ele>725.8</ele>
        <time>2019-05-11T07:59:16Z</time>
      </trkpt>
      <trkpt lat="39.2546840" lon="-1.5492860">
        <ele>726.2</ele>
        <time>2019-05-11T07:59:17Z</time>
      </trkpt>
      <trkpt lat="39.2546770" lon="-1.5492480">
        <ele>726.4</ele>
        <time>2019-05-11T07:59:18Z</time>
      </trkpt>
      <trkpt lat="39.2546710" lon="-1.5492130">
        <ele>726.8</ele>
        <time>2019-05-11T07:59:19Z</time>
      </trkpt>
      <trkpt lat="39.2546640" lon="-1.5491780">
        <ele>727.0</ele>
        <time>2019-05-11T07:59:20Z</time>
      </trkpt>
      <trkpt lat="39.2546580" lon="-1.5491440">
        <ele>727.4</ele>
        <time>2019-05-11T07:59:21Z</time>
      </trkpt>
      <trkpt lat="39.2546530" lon="-1.5491120">
        <ele>727.4</ele>
        <time>2019-05-11T07:59:22Z</time>
      </trkpt>
      <trkpt lat="39.2546460" lon="-1.5490820">
        <ele>727.6</ele>
        <time>2019-05-11T07:59:23Z</time>
      </trkpt>
      <trkpt lat="39.2546390" lon="-1.5490540">
        <ele>727.8</ele>
        <time>2019-05-11T07:59:24Z</time>
      </trkpt>
      <trkpt lat="39.2546320" lon="-1.5490280">
        <ele>728.0</ele>
        <time>2019-05-11T07:59:25Z</time>
      </trkpt>
      <trkpt lat="39.2546270" lon="-1.5490020">
        <ele>728.0</ele>
        <time>2019-05-11T07:59:26Z</time>
      </trkpt>
      <trkpt lat="39.2546210" lon="-1.5489760">
        <ele>728.4</ele>
        <time>2019-05-11T07:59:27Z</time>
      </trkpt>
      <trkpt lat="39.2546150" lon="-1.5489540">
        <ele>728.6</ele>
        <time>2019-05-11T07:59:28Z</time>
      </trkpt>
      <trkpt lat="39.2546090" lon="-1.5489340">
        <ele>729.0</ele>
        <time>2019-05-11T07:59:29Z</time>
      </trkpt>
      <trkpt lat="39.2546020" lon="-1.5489160">
        <ele>729.2</ele>
        <time>2019-05-11T07:59:30Z</time>
      </trkpt>
      <trkpt lat="39.2545930" lon="-1.5489040">
        <ele>729.6</ele>
        <time>2019-05-11T07:59:31Z</time>
      </trkpt>
      <trkpt lat="39.2545860" lon="-1.5488980">
        <ele>729.8</ele>
        <time>2019-05-11T07:59:32Z</time>
      </trkpt>
      <trkpt lat="39.2545860" lon="-1.5488930">
        <ele>730.2</ele>
        <time>2019-05-11T07:59:33Z</time>
      </trkpt>
      <trkpt lat="39.2545830" lon="-1.5488890">
        <ele>730.6</ele>
        <time>2019-05-11T07:59:34Z</time>
      </trkpt>
      <trkpt lat="39.2545760" lon="-1.5488860">
        <ele>731.0</ele>
        <time>2019-05-11T07:59:35Z</time>
      </trkpt>
      <trkpt lat="39.2545710" lon="-1.5488810">
        <ele>731.2</ele>
        <time>2019-05-11T07:59:36Z</time>
      </trkpt>
      <trkpt lat="39.2545700" lon="-1.5488750">
        <ele>731.6</ele>
        <time>2019-05-11T07:59:37Z</time>
      </trkpt>
      <trkpt lat="39.2545700" lon="-1.5488750">
        <ele>732.0</ele>
        <time>2019-05-11T07:59:38Z</time>
      </trkpt>
      <trkpt lat="39.2545640" lon="-1.5488680">
        <ele>732.4</ele>
        <time>2019-05-11T07:59:39Z</time>
      </trkpt>
      <trkpt lat="39.2545640" lon="-1.5488680">
        <ele>732.8</ele>
        <time>2019-05-11T07:59:40Z</time>
      </trkpt>
      <trkpt lat="39.2545590" lon="-1.5488600">
        <ele>733.0</ele>
        <time>2019-05-11T07:59:41Z</time>
      </trkpt>
      <trkpt lat="39.2545590" lon="-1.5488600">
        <ele>733.2</ele>
        <time>2019-05-11T07:59:42Z</time>
      </trkpt>
      <trkpt lat="39.2545520" lon="-1.5488510">
        <ele>733.2</ele>
        <time>2019-05-11T07:59:43Z</time>
      </trkpt>
      <trkpt lat="39.2545480" lon="-1.5488450">
        <ele>733.4</ele>
        <time>2019-05-11T07:59:44Z</time>
      </trkpt>
      <trkpt lat="39.2545400" lon="-1.5488340">
        <ele>733.4</ele>
        <time>2019-05-11T07:59:45Z</time>
      </trkpt>
      <trkpt lat="39.2545320" lon="-1.5488230">
        <ele>733.6</ele>
        <time>2019-05-11T07:59:46Z</time>
      </trkpt>
      <trkpt lat="39.2545270" lon="-1.5488140">
        <ele>734.0</ele>
        <time>2019-05-11T07:59:47Z</time>
      </trkpt>
      <trkpt lat="39.2545210" lon="-1.5488050">
        <ele>734.0</ele>
        <time>2019-05-11T07:59:48Z</time>
      </trkpt>
      <trkpt lat="39.2545180" lon="-1.5487970">
        <ele>734.4</ele>
        <time>2019-05-11T07:59:49Z</time>
      </trkpt>
      <trkpt lat="39.2545120" lon="-1.5487910">
        <ele>734.4</ele>
        <time>2019-05-11T07:59:50Z</time>
      </trkpt>
      <trkpt lat="39.2545060" lon="-1.5487830">
        <ele>734.6</ele>
        <time>2019-05-11T07:59:51Z</time>
      </trkpt>
      <trkpt lat="39.2544960" lon="-1.5487750">
        <ele>734.8</ele>
        <time>2019-05-11T07:59:52Z</time>
      </trkpt>
      <trkpt lat="39.2544870" lon="-1.5487680">
        <ele>734.8</ele>
        <time>2019-05-11T07:59:53Z</time>
      </trkpt>
      <trkpt lat="39.2544830" lon="-1.5487600">
        <ele>735.0</ele>
        <time>2019-05-11T07:59:54Z</time>
      </trkpt>
      <trkpt lat="39.2544750" lon="-1.5487530">
        <ele>735.2</ele>
        <time>2019-05-11T07:59:55Z</time>
      </trkpt>
      <trkpt lat="39.2544690" lon="-1.5487460">
        <ele>735.4</ele>
        <time>2019-05-11T07:59:56Z</time>
      </trkpt>
      <trkpt lat="39.2544640" lon="-1.5487380">
        <ele>735.6</ele>
        <time>2019-05-11T07:59:57Z</time>
      </trkpt>
      <trkpt lat="39.2544540" lon="-1.5487310">
        <ele>735.6</ele>
        <time>2019-05-11T07:59:58Z</time>
      </trkpt>
      <trkpt lat="39.2544440" lon="-1.5487240">
        <ele>735.8</ele>
        <time>2019-05-11T07:59:59Z</time>
      </trkpt>
      <trkpt lat="39.2544350" lon="-1.5487160">
        <ele>736.0</ele>
        <time>2019-05-11T08:00:00Z</time>
      </trkpt>
      <trkpt lat="39.2544270" lon="-1.5487060">
        <ele>736.2</ele>
        <time>2019-05-11T08:00:01Z</time>
      </trkpt>
      <trkpt lat="39.2544190" lon="-1.5486970">
        <ele>736.4</ele>
        <time>2019-05-11T08:00:02Z</time>
      </trkpt>
      <trkpt lat="39.2544120" lon="-1.5486880">
        <ele>736.6</ele>
        <time>2019-05-11T08:00:03Z</time>
      </trkpt>
      <trkpt lat="39.2544040" lon="-1.5486780">
        <ele>736.8</ele>
        <time>2019-05-11T08:00:04Z</time>
      </trkpt>
      <trkpt lat="39.2543980" lon="-1.5486690">
        <ele>737.0</ele>
        <time>2019-05-11T08:00:05Z</time>
      </trkpt>
      <trkpt lat="39.2543940" lon="-1.5486590">
        <ele>737.4</ele>
        <time>2019-05-11T08:00:06Z</time>
      </trkpt>
      <trkpt lat="39.2543880" lon="-1.5486510">
        <ele>737.8</ele>
        <time>2019-05-11T08:00:07Z</time>
      </trkpt>
      <trkpt lat="39.2543840" lon="-1.5486420">
        <ele>738.2</ele>
        <time>2019-05-11T08:00:08Z</time>
      </trkpt>
      <trkpt lat="39.2543790" lon="-1.5486330">
        <ele>738.2</ele>
        <time>2019-05-11T08:00:09Z</time>
      </trkpt>
      <trkpt lat="39.2543750" lon="-1.5486230">
        <ele>738.6</ele>
        <time>2019-05-11T08:00:10Z</time>
      </trkpt>
      <trkpt lat="39.2543700" lon="-1.5486140">
        <ele>738.6</ele>
        <time>2019-05-11T08:00:11Z</time>
      </trkpt>
      <trkpt lat="39.2543650" lon="-1.5486050">
        <ele>739.0</ele>
        <time>2019-05-11T08:00:12Z</time>
      </trkpt>
      <trkpt lat="39.2543590" lon="-1.5485970">
        <ele>739.0</ele>
        <time>2019-05-11T08:00:13Z</time>
      </trkpt>
      <trkpt lat="39.2543570" lon="-1.5485900">
        <ele>739.2</ele>
        <time>2019-05-11T08:00:14Z</time>
      </trkpt>
      <trkpt lat="39.2543530" lon="-1.5485830">
        <ele>739.4</ele>
        <time>2019-05-11T08:00:15Z</time>
      </trkpt>
      <trkpt lat="39.2543490" lon="-1.5485760">
        <ele>739.6</ele>
        <time>2019-05-11T08:00:16Z</time>
      </trkpt>
      <trkpt lat="39.2543440" lon="-1.5485720">
        <ele>739.8</ele>
        <time>2019-05-11T08:00:17Z</time>
      </trkpt>
      <trkpt lat="39.2543370" lon="-1.5485690">
        <ele>739.8</ele>
        <time>2019-05-11T08:00:18Z</time>
      </trkpt>
      <trkpt lat="39.2543310" lon="-1.5485660">
        <ele>739.8</ele>
        <time>2019-05-11T08:00:19Z</time>
      </trkpt>
      <trkpt lat="39.2543230" lon="-1.5485690">
        <ele>740.0</ele>
        <time>2019-05-11T08:00:20Z</time>
      </trkpt>
      <trkpt lat="39.2543200" lon="-1.5485690">
        <ele>740.2</ele>
        <time>2019-05-11T08:00:21Z</time>
      </trkpt>
      <trkpt lat="39.2543180" lon="-1.5485700">
        <ele>740.4</ele>
        <time>2019-05-11T08:00:22Z</time>
      </trkpt>
      <trkpt lat="39.2543130" lon="-1.5485730">
        <ele>740.4</ele>
        <time>2019-05-11T08:00:23Z</time>
      </trkpt>
      <trkpt lat="39.2543060" lon="-1.5485780">
        <ele>740.6</ele>
        <time>2019-05-11T08:00:24Z</time>
      </trkpt>
      <trkpt lat="39.2543020" lon="-1.5485780">
        <ele>740.8</ele>
        <time>2019-05-11T08:00:25Z</time>
      </trkpt>
      <trkpt lat="39.2542940" lon="-1.5485770">
        <ele>741.0</ele>
        <time>2019-05-11T08:00:26Z</time>
      </trkpt>
      <trkpt lat="39.2542900" lon="-1.5485740">
        <ele>741.2</ele>
        <time>2019-05-11T08:00:27Z</time>
      </trkpt>
      <trkpt lat="39.2542850" lon="-1.5485730">
        <ele>741.4</ele>
        <time>2019-05-11T08:00:28Z</time>
      </trkpt>
      <trkpt lat="39.2542770" lon="-1.5485770">
        <ele>741.4</ele>
        <time>2019-05-11T08:00:29Z</time>
      </trkpt>
      <trkpt lat="39.2542730" lon="-1.5485790">
        <ele>741.6</ele>
        <time>2019-05-11T08:00:30Z</time>
      </trkpt>
      <trkpt lat="39.2542660" lon="-1.5485840">
        <ele>741.8</ele>
        <time>2019-05-11T08:00:31Z</time>
      </trkpt>
      <trkpt lat="39.2542610" lon="-1.5485870">
        <ele>742.0</ele>
        <time>2019-05-11T08:00:32Z</time>
      </trkpt>
      <trkpt lat="39.2542510" lon="-1.5485930">
        <ele>742.2</ele>
        <time>2019-05-11T08:00:33Z</time>
      </trkpt>
      <trkpt lat="39.2542400" lon="-1.5485990">
        <ele>742.4</ele>
        <time>2019-05-11T08:00:34Z</time>
      </trkpt>
      <trkpt lat="39.2542300" lon="-1.5486050">
        <ele>742.6</ele>
        <time>2019-05-11T08:00:35Z</time>
      </trkpt>
      <trkpt lat="39.2542210" lon="-1.5486150">
        <ele>742.8</ele>
        <time>2019-05-11T08:00:36Z</time>
      </trkpt>
      <trkpt lat="39.2542130" lon="-1.5486230">
        <ele>743.2</ele>
        <time>2019-05-11T08:00:37Z</time>
      </trkpt>
      <trkpt lat="39.2542020" lon="-1.5486300">
        <ele>743.4</ele>
        <time>2019-05-11T08:00:38Z</time>
      </trkpt>
      <trkpt lat="39.2541910" lon="-1.5486370">
        <ele>743.6</ele>
        <time>2019-05-11T08:00:39Z</time>
      </trkpt>
      <trkpt lat="39.2541820" lon="-1.5486470">
        <ele>744.0</ele>
        <time>2019-05-11T08:00:40Z</time>
      </trkpt>
      <trkpt lat="39.2541710" lon="-1.5486560">
        <ele>744.2</ele>
        <time>2019-05-11T08:00:41Z</time>
      </trkpt>
      <trkpt lat="39.2541560" lon="-1.5486610">
        <ele>744.4</ele>
        <time>2019-05-11T08:00:42Z</time>
      </trkpt>
      <trkpt lat="39.2541390" lon="-1.5486700">
        <ele>744.4</ele>
        <time>2019-05-11T08:00:43Z</time>
      </trkpt>
      <trkpt lat="39.2541210" lon="-1.5486880">
        <ele>744.6</ele>
        <time>2019-05-11T08:00:44Z</time>
      </trkpt>
      <trkpt lat="39.2541010" lon="-1.5487120">
        <ele>744.6</ele>
        <time>2019-05-11T08:00:45Z</time>
      </trkpt>
      <trkpt lat="39.2540750" lon="-1.5487370">
        <ele>744.6</ele>
        <time>2019-05-11T08:00:46Z</time>
      </trkpt>
      <trkpt lat="39.2540420" lon="-1.5487590">
        <ele>744.6</ele>
        <time>2019-05-11T08:00:47Z</time>
      </trkpt>
      <trkpt lat="39.2540020" lon="-1.5487680">
        <ele>744.6</ele>
        <time>2019-05-11T08:00:48Z</time>
      </trkpt>
      <trkpt lat="39.2539590" lon="-1.5487610">
        <ele>744.6</ele>
        <time>2019-05-11T08:00:49Z</time>
      </trkpt>
      <trkpt lat="39.2539220" lon="-1.5487330">
        <ele>744.6</ele>
        <time>2019-05-11T08:00:50Z</time>
      </trkpt>
      <trkpt lat="39.2538890" lon="-1.5486880">
        <ele>744.6</ele>
        <time>2019-05-11T08:00:51Z</time>
      </trkpt>
      <trkpt lat="39.2538590" lon="-1.5486270">
        <ele>744.6</ele>
        <time>2019-05-11T08:00:52Z</time>
      </trkpt>
      <trkpt lat="39.2538300" lon="-1.5485520">
        <ele>744.4</ele>
        <time>2019-05-11T08:00:53Z</time>
      </trkpt>
      <trkpt lat="39.2537940" lon="-1.5484720">
        <ele>744.2</ele>
        <time>2019-05-11T08:00:54Z</time>
      </trkpt>
      <trkpt lat="39.2537490" lon="-1.5483910">
        <ele>743.8</ele>
        <time>2019-05-11T08:00:55Z</time>
      </trkpt>
      <trkpt lat="39.2537000" lon="-1.5483080">
        <ele>743.4</ele>
        <time>2019-05-11T08:00:56Z</time>
      </trkpt>
      <trkpt lat="39.2536490" lon="-1.5482170">
        <ele>743.2</ele>
        <time>2019-05-11T08:00:57Z</time>
      </trkpt>
      <trkpt lat="39.2536010" lon="-1.5481220">
        <ele>743.0</ele>
        <time>2019-05-11T08:00:58Z</time>
      </trkpt>
      <trkpt lat="39.2535530" lon="-1.5480220">
        <ele>742.8</ele>
        <time>2019-05-11T08:00:59Z</time>
      </trkpt>
      <trkpt lat="39.2535050" lon="-1.5479170">
        <ele>742.4</ele>
        <time>2019-05-11T08:01:00Z</time>
      </trkpt>
      <trkpt lat="39.2534570" lon="-1.5478120">
        <ele>742.0</ele>
        <time>2019-05-11T08:01:01Z</time>
      </trkpt>
      <trkpt lat="39.2534130" lon="-1.5477100">
        <ele>741.4</ele>
        <time>2019-05-11T08:01:02Z</time>
      </trkpt>
      <trkpt lat="39.2533760" lon="-1.5476140">
        <ele>741.0</ele>
        <time>2019-05-11T08:01:03Z</time>
      </trkpt>
      <trkpt lat="39.2533420" lon="-1.5475250">
        <ele>740.4</ele>
        <time>2019-05-11T08:01:04Z</time>
      </trkpt>
      <trkpt lat="39.2533020" lon="-1.5474470">
        <ele>739.6</ele>
        <time>2019-05-11T08:01:05Z</time>
      </trkpt>
      <trkpt lat="39.2532500" lon="-1.5473800">
        <ele>738.8</ele>
        <time>2019-05-11T08:01:06Z</time>
      </trkpt>
      <trkpt lat="39.2531840" lon="-1.5473260">
        <ele>738.2</ele>
        <time>2019-05-11T08:01:07Z</time>
      </trkpt>
      <trkpt lat="39.2531090" lon="-1.5472740">
        <ele>737.8</ele>
        <time>2019-05-11T08:01:08Z</time>
      </trkpt>
      <trkpt lat="39.2530300" lon="-1.5472140">
        <ele>737.6</ele>
        <time>2019-05-11T08:01:09Z</time>
      </trkpt>
      <trkpt lat="39.2529540" lon="-1.5471530">
        <ele>737.4</ele>
        <time>2019-05-11T08:01:10Z</time>
      </trkpt>
      <trkpt lat="39.2528880" lon="-1.5470890">
        <ele>737.4</ele>
        <time>2019-05-11T08:01:11Z</time>
      </trkpt>
      <trkpt lat="39.2528430" lon="-1.5470180">
        <ele>737.2</ele>
        <time>2019-05-11T08:01:12Z</time>
      </trkpt>
      <trkpt lat="39.2528200" lon="-1.5469410">
        <ele>737.2</ele>
        <time>2019-05-11T08:01:13Z</time>
      </trkpt>
      <trkpt lat="39.2528180" lon="-1.5468660">
        <ele>736.8</ele>
        <time>2019-05-11T08:01:14Z</time>
      </trkpt>
      <trkpt lat="39.2528280" lon="-1.5467990">
        <ele>736.2</ele>
        <time>2019-05-11T08:01:15Z</time>
      </trkpt>
      <trkpt lat="39.2528440" lon="-1.5467380">
        <ele>735.2</ele>
        <time>2019-05-11T08:01:16Z</time>
      </trkpt>
      <trkpt lat="39.2528630" lon="-1.5466820">
        <ele>734.8</ele>
        <time>2019-05-11T08:01:17Z</time>
      </trkpt>
      <trkpt lat="39.2528880" lon="-1.5466290">
        <ele>734.6</ele>
        <time>2019-05-11T08:01:18Z</time>
      </trkpt>
      <trkpt lat="39.2529130" lon="-1.5465760">
        <ele>734.6</ele>
        <time>2019-05-11T08:01:19Z</time>
      </trkpt>
      <trkpt lat="39.2529340" lon="-1.5465170">
        <ele>734.4</ele>
        <time>2019-05-11T08:01:20Z</time>
      </trkpt>
      <trkpt lat="39.2529520" lon="-1.5464510">
        <ele>734.2</ele>
        <time>2019-05-11T08:01:21Z</time>
      </trkpt>
      <trkpt lat="39.2529580" lon="-1.5463810">
        <ele>734.2</ele>
        <time>2019-05-11T08:01:22Z</time>
      </trkpt>
      <trkpt lat="39.2529430" lon="-1.5463130">
        <ele>733.8</ele>
        <time>2019-05-11T08:01:23Z</time>
      </trkpt>
      <trkpt lat="39.2529090" lon="-1.5462490">
        <ele>733.6</ele>
        <time>2019-05-11T08:01:24Z</time>
      </trkpt>
      <trkpt lat="39.2528610" lon="-1.5461820">
        <ele>733.4</ele>
        <time>2019-05-11T08:01:25Z</time>
      </trkpt>
      <trkpt lat="39.2528100" lon="-1.5460960">
        <ele>733.2</ele>
        <time>2019-05-11T08:01:26Z</time>
      </trkpt>
      <trkpt lat="39.2527700" lon="-1.5459940">
        <ele>733.2</ele>
        <time>2019-05-11T08:01:27Z</time>
      </trkpt>
      <trkpt lat="39.2527380" lon="-1.5458890">
        <ele>733.0</ele>
        <time>2019-05-11T08:01:28Z</time>
      </trkpt>
      <trkpt lat="39.2527080" lon="-1.5457950">
        <ele>733.0</ele>
        <time>2019-05-11T08:01:29Z</time>
      </trkpt>
      <trkpt lat="39.2526700" lon="-1.5457100">
        <ele>732.8</ele>
        <time>2019-05-11T08:01:30Z</time>
      </trkpt>
      <trkpt lat="39.2526250" lon="-1.5456270">
        <ele>732.4</ele>
        <time>2019-05-11T08:01:31Z</time>
      </trkpt>
      <trkpt lat="39.2525830" lon="-1.5455390">
        <ele>732.0</ele>
        <time>2019-05-11T08:01:32Z</time>
      </trkpt>
      <trkpt lat="39.2525380" lon="-1.5454490">
        <ele>731.0</ele>
        <time>2019-05-11T08:01:33Z</time>
      </trkpt>
      <trkpt lat="39.2524840" lon="-1.5453650">
        <ele>729.8</ele>
        <time>2019-05-11T08:01:34Z</time>
      </trkpt>
      <trkpt lat="39.2524160" lon="-1.5452840">
        <ele>728.6</ele>
        <time>2019-05-11T08:01:35Z</time>
      </trkpt>
      <trkpt lat="39.2523490" lon="-1.5452020">
        <ele>727.4</ele>
        <time>2019-05-11T08:01:36Z</time>
      </trkpt>
      <trkpt lat="39.2522910" lon="-1.5451120">
        <ele>726.2</ele>
        <time>2019-05-11T08:01:37Z</time>
      </trkpt>
      <trkpt lat="39.2522410" lon="-1.5450110">
        <ele>725.4</ele>
        <time>2019-05-11T08:01:38Z</time>
      </trkpt>
      <trkpt lat="39.2521980" lon="-1.5448970">
        <ele>724.8</ele>
        <time>2019-05-11T08:01:39Z</time>
      </trkpt>
      <trkpt lat="39.2521620" lon="-1.5447760">
        <ele>724.2</ele>
        <time>2019-05-11T08:01:40Z</time>
      </trkpt>
      <trkpt lat="39.2521270" lon="-1.5446540">
        <ele>723.4</ele>
        <time>2019-05-11T08:01:41Z</time>
      </trkpt>
      <trkpt lat="39.2520870" lon="-1.5445370">
        <ele>722.4</ele>
        <time>2019-05-11T08:01:42Z</time>
      </trkpt>
      <trkpt lat="39.2520390" lon="-1.5444330">
        <ele>721.6</ele>
        <time>2019-05-11T08:01:43Z</time>
      </trkpt>
      <trkpt lat="39.2519790" lon="-1.5443520">
        <ele>721.0</ele>
        <time>2019-05-11T08:01:44Z</time>
      </trkpt>
      <trkpt lat="39.2519040" lon="-1.5442970">
        <ele>720.6</ele>
        <time>2019-05-11T08:01:45Z</time>
      </trkpt>
      <trkpt lat="39.2518240" lon="-1.5442670">
        <ele>720.0</ele>
        <time>2019-05-11T08:01:46Z</time>
      </trkpt>
      <trkpt lat="39.2517450" lon="-1.5442600">
        <ele>719.2</ele>
        <time>2019-05-11T08:01:47Z</time>
      </trkpt>
      <trkpt lat="39.2516720" lon="-1.5442750">
        <ele>718.4</ele>
        <time>2019-05-11T08:01:48Z</time>
      </trkpt>
      <trkpt lat="39.2516040" lon="-1.5443120">
        <ele>716.0</ele>
        <time>2019-05-11T08:01:49Z</time>
      </trkpt>
      <trkpt lat="39.2515340" lon="-1.5443540">
        <ele>714.8</ele>
        <time>2019-05-11T08:01:50Z</time>
      </trkpt>
      <trkpt lat="39.2514620" lon="-1.5443990">
        <ele>713.4</ele>
        <time>2019-05-11T08:01:51Z</time>
      </trkpt>
      <trkpt lat="39.2513960" lon="-1.5444440">
        <ele>712.2</ele>
        <time>2019-05-11T08:01:52Z</time>
      </trkpt>
      <trkpt lat="39.2513370" lon="-1.5444850">
        <ele>711.0</ele>
        <time>2019-05-11T08:01:53Z</time>
      </trkpt>
      <trkpt lat="39.2512820" lon="-1.5445350">
        <ele>710.2</ele>
        <time>2019-05-11T08:01:54Z</time>
      </trkpt>
      <trkpt lat="39.2512300" lon="-1.5446020">
        <ele>709.6</ele>
        <time>2019-05-11T08:01:55Z</time>
      </trkpt>
      <trkpt lat="39.2511810" lon="-1.5446710">
        <ele>708.6</ele>
        <time>2019-05-11T08:01:56Z</time>
      </trkpt>
      <trkpt lat="39.2511330" lon="-1.5447420">
        <ele>708.0</ele>
        <time>2019-05-11T08:01:57Z</time>
      </trkpt>
      <trkpt lat="39.2510910" lon="-1.5448210">
        <ele>707.6</ele>
        <time>2019-05-11T08:01:58Z</time>
      </trkpt>
      <trkpt lat="39.2510590" lon="-1.5449140">
        <ele>707.4</ele>
        <time>2019-05-11T08:01:59Z</time>
      </trkpt>
      <trkpt lat="39.2510300" lon="-1.5450160">
        <ele>706.8</ele>
        <time>2019-05-11T08:02:00Z</time>
      </trkpt>
      <trkpt lat="39.2509980" lon="-1.5451130">
        <ele>706.0</ele>
        <time>2019-05-11T08:02:01Z</time>
      </trkpt>
      <trkpt lat="39.2509700" lon="-1.5452000">
        <ele>705.4</ele>
        <time>2019-05-11T08:02:02Z</time>
      </trkpt>
      <trkpt lat="39.2509550" lon="-1.5452810">
        <ele>704.4</ele>
        <time>2019-05-11T08:02:03Z</time>
      </trkpt>
      <trkpt lat="39.2509530" lon="-1.5453620">
        <ele>703.4</ele>
        <time>2019-05-11T08:02:04Z</time>
      </trkpt>
      <trkpt lat="39.2509630" lon="-1.5454470">
        <ele>702.4</ele>
        <time>2019-05-11T08:02:05Z</time>
      </trkpt>
      <trkpt lat="39.2509670" lon="-1.5455350">
        <ele>701.4</ele>
        <time>2019-05-11T08:02:06Z</time>
      </trkpt>
      <trkpt lat="39.2509520" lon="-1.5456210">
        <ele>700.6</ele>
        <time>2019-05-11T08:02:07Z</time>
      </trkpt>
      <trkpt lat="39.2509200" lon="-1.5457040">
        <ele>699.8</ele>
        <time>2019-05-11T08:02:08Z</time>
      </trkpt>
      <trkpt lat="39.2508840" lon="-1.5457900">
        <ele>699.0</ele>
        <time>2019-05-11T08:02:09Z</time>
      </trkpt>
      <trkpt lat="39.2508480" lon="-1.5458840">
        <ele>698.0</ele>
        <time>2019-05-11T08:02:10Z</time>
      </trkpt>
      <trkpt lat="39.2508060" lon="-1.5459830">
        <ele>697.4</ele>
        <time>2019-05-11T08:02:11Z</time>
      </trkpt>
      <trkpt lat="39.2507530" lon="-1.5460830">
        <ele>696.8</ele>
        <time>2019-05-11T08:02:12Z</time>
      </trkpt>
      <trkpt lat="39.2506950" lon="-1.5461850">
        <ele>696.4</ele>
        <time>2019-05-11T08:02:13Z</time>
      </trkpt>
      <trkpt lat="39.2506410" lon="-1.5462870">
        <ele>696.2</ele>
        <time>2019-05-11T08:02:14Z</time>
      </trkpt>
      <trkpt lat="39.2505960" lon="-1.5463860">
        <ele>696.0</ele>
        <time>2019-05-11T08:02:15Z</time>
      </trkpt>
      <trkpt lat="39.2505620" lon="-1.5464750">
        <ele>695.6</ele>
        <time>2019-05-11T08:02:16Z</time>
      </trkpt>
      <trkpt lat="39.2505380" lon="-1.5465420">
        <ele>694.8</ele>
        <time>2019-05-11T08:02:17Z</time>
      </trkpt>
      <trkpt lat="39.2505220" lon="-1.5465790">
        <ele>694.2</ele>
        <time>2019-05-11T08:02:18Z</time>
      </trkpt>
      <trkpt lat="39.2505040" lon="-1.5465930">
        <ele>693.6</ele>
        <time>2019-05-11T08:02:19Z</time>
      </trkpt>
      <trkpt lat="39.2504780" lon="-1.5465880">
        <ele>692.8</ele>
        <time>2019-05-11T08:02:20Z</time>
      </trkpt>
      <trkpt lat="39.2504490" lon="-1.5465630">
        <ele>692.0</ele>
        <time>2019-05-11T08:02:21Z</time>
      </trkpt>
      <trkpt lat="39.2504240" lon="-1.5465240">
        <ele>691.4</ele>
        <time>2019-05-11T08:02:22Z</time>
      </trkpt>
      <trkpt lat="39.2504020" lon="-1.5464850">
        <ele>689.8</ele>
        <time>2019-05-11T08:02:23Z</time>
      </trkpt>
      <trkpt lat="39.2503860" lon="-1.5464540">
        <ele>688.8</ele>
        <time>2019-05-11T08:02:24Z</time>
      </trkpt>
      <trkpt lat="39.2503720" lon="-1.5464300">
        <ele>688.2</ele>
        <time>2019-05-11T08:02:25Z</time>
      </trkpt>
      <trkpt lat="39.2503630" lon="-1.5464070">
        <ele>687.8</ele>
        <time>2019-05-11T08:02:26Z</time>
      </trkpt>
      <trkpt lat="39.2503530" lon="-1.5463880">
        <ele>687.4</ele>
        <time>2019-05-11T08:02:27Z</time>
      </trkpt>
      <trkpt lat="39.2503450" lon="-1.5463710">
        <ele>687.2</ele>
        <time>2019-05-11T08:02:28Z</time>
      </trkpt>
      <trkpt lat="39.2503400" lon="-1.5463550">
        <ele>686.8</ele>
        <time>2019-05-11T08:02:29Z</time>
      </trkpt>
      <trkpt lat="39.2503370" lon="-1.5463310">
        <ele>686.4</ele>
        <time>2019-05-11T08:02:30Z</time>
      </trkpt>
      <trkpt lat="39.2503320" lon="-1.5463030">
        <ele>686.0</ele>
        <time>2019-05-11T08:02:31Z</time>
      </trkpt>
      <trkpt lat="39.2503270" lon="-1.5462790">
        <ele>685.8</ele>
        <time>2019-05-11T08:02:32Z</time>
      </trkpt>
      <trkpt lat="39.2503190" lon="-1.5462580">
        <ele>685.6</ele>
        <time>2019-05-11T08:02:33Z</time>
      </trkpt>
      <trkpt lat="39.2503090" lon="-1.5462400">
        <ele>685.4</ele>
        <time>2019-05-11T08:02:34Z</time>
      </trkpt>
      <trkpt lat="39.2502970" lon="-1.5462230">
        <ele>685.2</ele>
        <time>2019-05-11T08:02:35Z</time>
      </trkpt>
      <trkpt lat="39.2502830" lon="-1.5462080">
        <ele>685.0</ele>
        <time>2019-05-11T08:02:36Z</time>
      </trkpt>
      <trkpt lat="39.2502690" lon="-1.5461940">
        <ele>684.8</ele>
        <time>2019-05-11T08:02:37Z</time>
      </trkpt>
      <trkpt lat="39.2502530" lon="-1.5461830">
        <ele>684.6</ele>
        <time>2019-05-11T08:02:38Z</time>
      </trkpt>
      <trkpt lat="39.2502340" lon="-1.5461670">
        <ele>684.4</ele>
        <time>2019-05-11T08:02:39Z</time>
      </trkpt>
      <trkpt lat="39.2502170" lon="-1.5461510">
        <ele>684.2</ele>
        <time>2019-05-11T08:02:40Z</time>
      </trkpt>
      <trkpt lat="39.2502050" lon="-1.5461380">
        <ele>684.0</ele>
        <time>2019-05-11T08:02:41Z</time>
      </trkpt>
      <trkpt lat="39.2501950" lon="-1.5461270">
        <ele>683.8</ele>
        <time>2019-05-11T08:02:42Z</time>
      </trkpt>
      <trkpt lat="39.2501870" lon="-1.5461130">
        <ele>683.8</ele>
        <time>2019-05-11T08:02:43Z</time>
      </trkpt>
      <trkpt lat="39.2501790" lon="-1.5461010">
        <ele>683.8</ele>
        <time>2019-05-11T08:02:44Z</time>
      </trkpt>
      <trkpt lat="39.2501720" lon="-1.5460880">
        <ele>683.6</ele>
        <time>2019-05-11T08:02:45Z</time>
      </trkpt>
      <trkpt lat="39.2501670" lon="-1.5460780">
        <ele>683.2</ele>
        <time>2019-05-11T08:02:46Z</time>
      </trkpt>
      <trkpt lat="39.2501650" lon="-1.5460740">
        <ele>682.8</ele>
        <time>2019-05-11T08:02:47Z</time>
      </trkpt>
      <trkpt lat="39.2501650" lon="-1.5460720">
        <ele>682.2</ele>
        <time>2019-05-11T08:02:48Z</time>
      </trkpt>
      <trkpt lat="39.2501660" lon="-1.5460700">
        <ele>682.0</ele>
        <time>2019-05-11T08:02:49Z</time>
      </trkpt>
      <trkpt lat="39.2501660" lon="-1.5460690">
        <ele>681.6</ele>
        <time>2019-05-11T08:02:50Z</time>
      </trkpt>
      <trkpt lat="39.2501660" lon="-1.5460690">
        <ele>681.2</ele>
        <time>2019-05-11T08:02:51Z</time>
      </trkpt>
      <trkpt lat="39.2501660" lon="-1.5460690">
        <ele>681.0</ele>
        <time>2019-05-11T08:02:52Z</time>
      </trkpt>
      <trkpt lat="39.2501660" lon="-1.5460690">
        <ele>680.8</ele>
        <time>2019-05-11T08:02:53Z</time>
      </trkpt>
      <trkpt lat="39.2501660" lon="-1.5460690">
        <ele>680.8</ele>
        <time>2019-05-11T08:02:54Z</time>
      </trkpt>
      <trkpt lat="39.2501660" lon="-1.5460690">
        <ele>680.6</ele>
        <time>2019-05-11T08:02:55Z</time>
      </trkpt>
      <trkpt lat="39.2501610" lon="-1.5460610">
        <ele>680.6</ele>
        <time>2019-05-11T08:02:56Z</time>
      </trkpt>
      <trkpt lat="39.2501610" lon="-1.5460610">
        <ele>680.6</ele>
        <time>2019-05-11T08:02:57Z</time>
      </trkpt>
      <trkpt lat="39.2501590" lon="-1.5460530">
        <ele>680.6</ele>
        <time>2019-05-11T08:02:58Z</time>
      </trkpt>
      <trkpt lat="39.2501590" lon="-1.5460530">
        <ele>680.6</ele>
        <time>2019-05-11T08:02:59Z</time>
      </trkpt>
      <trkpt lat="39.2501590" lon="-1.5460530">
        <ele>680.6</ele>
        <time>2019-05-11T08:03:00Z</time>
      </trkpt>
      <trkpt lat="39.2501590" lon="-1.5460530">
        <ele>680.6</ele>
        <time>2019-05-11T08:03:01Z</time>
      </trkpt>
      <trkpt lat="39.2501590" lon="-1.5460530">
        <ele>680.4</ele>
        <time>2019-05-11T08:03:02Z</time>
      </trkpt>
      <trkpt lat="39.2501590" lon="-1.5460530">
        <ele>680.4</ele>
        <time>2019-05-11T08:03:03Z</time>
      </trkpt>
      <trkpt lat="39.2501590" lon="-1.5460530">
        <ele>680.4</ele>
        <time>2019-05-11T08:03:04Z</time>
      </trkpt>
      <trkpt lat="39.2501590" lon="-1.5460530">
        <ele>680.4</ele>
        <time>2019-05-11T08:03:05Z</time>
      </trkpt>
      <trkpt lat="39.2501590" lon="-1.5460530">
        <ele>680.4</ele>
        <time>2019-05-11T08:03:06Z</time>
      </trkpt>
      <trkpt lat="39.2501550" lon="-1.5460470">
        <ele>680.4</ele>
        <time>2019-05-11T08:03:07Z</time>
      </trkpt>
      <trkpt lat="39.2501410" lon="-1.5460300">
        <ele>680.4</ele>
        <time>2019-05-11T08:03:08Z</time>
      </trkpt>
      <trkpt lat="39.2501260" lon="-1.5460130">
        <ele>680.2</ele>
        <time>2019-05-11T08:03:09Z</time>
      </trkpt>
      <trkpt lat="39.2501140" lon="-1.5460010">
        <ele>680.2</ele>
        <time>2019-05-11T08:03:10Z</time>
      </trkpt>
      <trkpt lat="39.2501030" lon="-1.5459930">
        <ele>680.2</ele>
        <time>2019-05-11T08:03:11Z</time>
      </trkpt>
      <trkpt lat="39.2500930" lon="-1.5459880">
        <ele>680.2</ele>
        <time>2019-05-11T08:03:12Z</time>
      </trkpt>
      <trkpt lat="39.2500830" lon="-1.5459860">
        <ele>680.2</ele>
        <time>2019-05-11T08:03:13Z</time>
      </trkpt>
      <trkpt lat="39.2500720" lon="-1.5459820">
        <ele>680.2</ele>
        <time>2019-05-11T08:03:14Z</time>
      </trkpt>
      <trkpt lat="39.2500610" lon="-1.5459790">
        <ele>680.2</ele>
        <time>2019-05-11T08:03:15Z</time>
      </trkpt>
      <trkpt lat="39.2500510" lon="-1.5459760">
        <ele>680.0</ele>
        <time>2019-05-11T08:03:16Z</time>
      </trkpt>
      <trkpt lat="39.2500460" lon="-1.5459740">
        <ele>680.0</ele>
        <time>2019-05-11T08:03:17Z</time>
      </trkpt>
      <trkpt lat="39.2500450" lon="-1.5459720">
        <ele>679.8</ele>
        <time>2019-05-11T08:03:18Z</time>
      </trkpt>
      <trkpt lat="39.2500460" lon="-1.5459710">
        <ele>679.8</ele>
        <time>2019-05-11T08:03:19Z</time>
      </trkpt>
      <trkpt lat="39.2500460" lon="-1.5459700">
        <ele>679.8</ele>
        <time>2019-05-11T08:03:20Z</time>
      </trkpt>
      <trkpt lat="39.2500460" lon="-1.5459690">
        <ele>679.6</ele>
        <time>2019-05-11T08:03:21Z</time>
      </trkpt>
      <trkpt lat="39.2500430" lon="-1.5459680">
        <ele>679.6</ele>
        <time>2019-05-11T08:03:22Z</time>
      </trkpt>
      <trkpt lat="39.2500300" lon="-1.5459650">
        <ele>679.4</ele>
        <time>2019-05-11T08:03:23Z</time>
      </trkpt>
      <trkpt lat="39.2500130" lon="-1.5459610">
        <ele>679.4</ele>
        <time>2019-05-11T08:03:24Z</time>
      </trkpt>
      <trkpt lat="39.2499950" lon="-1.5459520">
        <ele>679.4</ele>
        <time>2019-05-11T08:03:25Z</time>
      </trkpt>
      <trkpt lat="39.2499800" lon="-1.5459410">
        <ele>679.4</ele>
        <time>2019-05-11T08:03:26Z</time>
      </trkpt>
      <trkpt lat="39.2499700" lon="-1.5459320">
        <ele>679.4</ele>
        <time>2019-05-11T08:03:27Z</time>
      </trkpt>
      <trkpt lat="39.2499620" lon="-1.5459250">
        <ele>679.4</ele>
        <time>2019-05-11T08:03:28Z</time>
      </trkpt>
      <trkpt lat="39.2499530" lon="-1.5459150">
        <ele>679.4</ele>
        <time>2019-05-11T08:03:29Z</time>
      </trkpt>
      <trkpt lat="39.2499440" lon="-1.5459050">
        <ele>679.4</ele>
        <time>2019-05-11T08:03:30Z</time>
      </trkpt>
      <trkpt lat="39.2499390" lon="-1.5458980">
        <ele>679.4</ele>
        <time>2019-05-11T08:03:31Z</time>
      </trkpt>
      <trkpt lat="39.2499370" lon="-1.5458960">
        <ele>679.4</ele>
        <time>2019-05-11T08:03:32Z</time>
      </trkpt>
      <trkpt lat="39.2499320" lon="-1.5458900">
        <ele>679.4</ele>
        <time>2019-05-11T08:03:33Z</time>
      </trkpt>
      <trkpt lat="39.2499240" lon="-1.5458810">
        <ele>679.4</ele>
        <time>2019-05-11T08:03:34Z</time>
      </trkpt>
      <trkpt lat="39.2499160" lon="-1.5458730">
        <ele>679.4</ele>
        <time>2019-05-11T08:03:35Z</time>
      </trkpt>
      <trkpt lat="39.2499120" lon="-1.5458660">
        <ele>679.4</ele>
        <time>2019-05-11T08:03:36Z</time>
      </trkpt>
      <trkpt lat="39.2499070" lon="-1.5458590">
        <ele>679.4</ele>
        <time>2019-05-11T08:03:37Z</time>
      </trkpt>
      <trkpt lat="39.2499000" lon="-1.5458520">
        <ele>679.4</ele>
        <time>2019-05-11T08:03:38Z</time>
      </trkpt>
      <trkpt lat="39.2498940" lon="-1.5458440">
        <ele>679.4</ele>
        <time>2019-05-11T08:03:39Z</time>
      </trkpt>
      <trkpt lat="39.2498860" lon="-1.5458360">
        <ele>679.4</ele>
        <time>2019-05-11T08:03:40Z</time>
      </trkpt>
      <trkpt lat="39.2498780" lon="-1.5458280">
        <ele>679.2</ele>
        <time>2019-05-11T08:03:41Z</time>
      </trkpt>
      <trkpt lat="39.2498710" lon="-1.5458200">
        <ele>679.2</ele>
        <time>2019-05-11T08:03:42Z</time>
      </trkpt>
      <trkpt lat="39.2498630" lon="-1.5458120">
        <ele>679.2</ele>
        <time>2019-05-11T08:03:43Z</time>
      </trkpt>
      <trkpt lat="39.2498520" lon="-1.5458030">
        <ele>679.2</ele>
        <time>2019-05-11T08:03:44Z</time>
      </trkpt>
      <trkpt lat="39.2498400" lon="-1.5457940">
        <ele>679.2</ele>
        <time>2019-05-11T08:03:45Z</time>
      </trkpt>
      <trkpt lat="39.2498250" lon="-1.5457820">
        <ele>679.2</ele>
        <time>2019-05-11T08:03:46Z</time>
      </trkpt>
      <trkpt lat="39.2498110" lon="-1.5457680">
        <ele>679.2</ele>
        <time>2019-05-11T08:03:47Z</time>
      </trkpt>
      <trkpt lat="39.2497940" lon="-1.5457510">
        <ele>679.2</ele>
        <time>2019-05-11T08:03:48Z</time>
      </trkpt>
      <trkpt lat="39.2497730" lon="-1.5457320">
        <ele>679.2</ele>
        <time>2019-05-11T08:03:49Z</time>
      </trkpt>
      <trkpt lat="39.2497560" lon="-1.5457070">
        <ele>679.2</ele>
        <time>2019-05-11T08:03:50Z</time>
      </trkpt>
      <trkpt lat="39.2497470" lon="-1.5456810">
        <ele>679.2</ele>
        <time>2019-05-11T08:03:51Z</time>
      </trkpt>
      <trkpt lat="39.2497430" lon="-1.5456560">
        <ele>679.2</ele>
        <time>2019-05-11T08:03:52Z</time>
      </trkpt>
      <trkpt lat="39.2497380" lon="-1.5456310">
        <ele>679.2</ele>
        <time>2019-05-11T08:03:53Z</time>
      </trkpt>
      <trkpt lat="39.2497320" lon="-1.5456060">
        <ele>679.2</ele>
        <time>2019-05-11T08:03:54Z</time>
      </trkpt>
      <trkpt lat="39.2497250" lon="-1.5455830">
        <ele>679.2</ele>
        <time>2019-05-11T08:03:55Z</time>
      </trkpt>
      <trkpt lat="39.2497180" lon="-1.5455580">
        <ele>679.2</ele>
        <time>2019-05-11T08:03:56Z</time>
      </trkpt>
      <trkpt lat="39.2497120" lon="-1.5455340">
        <ele>679.2</ele>
        <time>2019-05-11T08:03:57Z</time>
      </trkpt>
      <trkpt lat="39.2497060" lon="-1.5455100">
        <ele>679.4</ele>
        <time>2019-05-11T08:03:58Z</time>
      </trkpt>
      <trkpt lat="39.2497020" lon="-1.5454830">
        <ele>679.6</ele>
        <time>2019-05-11T08:03:59Z</time>
      </trkpt>
      <trkpt lat="39.2497020" lon="-1.5454520">
        <ele>680.2</ele>
        <time>2019-05-11T08:04:00Z</time>
      </trkpt>
      <trkpt lat="39.2497030" lon="-1.5454180">
        <ele>680.6</ele>
        <time>2019-05-11T08:04:01Z</time>
      </trkpt>
      <trkpt lat="39.2497070" lon="-1.5453820">
        <ele>681.0</ele>
        <time>2019-05-11T08:04:02Z</time>
      </trkpt>
      <trkpt lat="39.2497140" lon="-1.5453480">
        <ele>681.6</ele>
        <time>2019-05-11T08:04:03Z</time>
      </trkpt>
      <trkpt lat="39.2497220" lon="-1.5453100">
        <ele>682.0</ele>
        <time>2019-05-11T08:04:04Z</time>
      </trkpt>
      <trkpt lat="39.2497290" lon="-1.5452710">
        <ele>682.4</ele>
        <time>2019-05-11T08:04:05Z</time>
      </trkpt>
      <trkpt lat="39.2497380" lon="-1.5452290">
        <ele>682.8</ele>
        <time>2019-05-11T08:04:06Z</time>
      </trkpt>
      <trkpt lat="39.2497490" lon="-1.5451890">
        <ele>683.2</ele>
        <time>2019-05-11T08:04:07Z</time>
      </trkpt>
      <trkpt lat="39.2497620" lon="-1.5451510">
        <ele>683.6</ele>
        <time>2019-05-11T08:04:08Z</time>
      </trkpt>
      <trkpt lat="39.2497740" lon="-1.5451130">
        <ele>683.8</ele>
        <time>2019-05-11T08:04:09Z</time>
      </trkpt>
      <trkpt lat="39.2497830" lon="-1.5450730">
        <ele>684.0</ele>
        <time>2019-05-11T08:04:10Z</time>
      </trkpt>
      <trkpt lat="39.2497930" lon="-1.5450300">
        <ele>684.4</ele>
        <time>2019-05-11T08:04:11Z</time>
      </trkpt>
      <trkpt lat="39.2498030" lon="-1.5449860">
        <ele>684.4</ele>
        <time>2019-05-11T08:04:12Z</time>
      </trkpt>
      <trkpt lat="39.2498090" lon="-1.5449390">
        <ele>684.6</ele>
        <time>2019-05-11T08:04:13Z</time>
      </trkpt>
      <trkpt lat="39.2498170" lon="-1.5448880">
        <ele>684.8</ele>
        <time>2019-05-11T08:04:14Z</time>
      </trkpt>
      <trkpt lat="39.2498210" lon="-1.5448350">
        <ele>685.0</ele>
        <time>2019-05-11T08:04:15Z</time>
      </trkpt>
      <trkpt lat="39.2498210" lon="-1.5447800">
        <ele>685.0</ele>
        <time>2019-05-11T08:04:16Z</time>
      </trkpt>
      <trkpt lat="39.2498140" lon="-1.5447230">
        <ele>685.4</ele>
        <time>2019-05-11T08:04:17Z</time>
      </trkpt>
      <trkpt lat="39.2497980" lon="-1.5446630">
        <ele>685.8</ele>
        <time>2019-05-11T08:04:18Z</time>
      </trkpt>
      <trkpt lat="39.2497780" lon="-1.5446010">
        <ele>685.8</ele>
        <time>2019-05-11T08:04:19Z</time>
      </trkpt>
      <trkpt lat="39.2497630" lon="-1.5445370">
        <ele>686.0</ele>
        <time>2019-05-11T08:04:20Z</time>
      </trkpt>
      <trkpt lat="39.2497580" lon="-1.5444740">
        <ele>686.0</ele>
        <time>2019-05-11T08:04:21Z</time>
      </trkpt>
      <trkpt lat="39.2497670" lon="-1.5444180">
        <ele>686.2</ele>
        <time>2019-05-11T08:04:22Z</time>
      </trkpt>
      <trkpt lat="39.2497860" lon="-1.5443680">
        <ele>686.2</ele>
        <time>2019-05-11T08:04:23Z</time>
      </trkpt>
      <trkpt lat="39.2498050" lon="-1.5443200">
        <ele>686.2</ele>
        <time>2019-05-11T08:04:24Z</time>
      </trkpt>
      <trkpt lat="39.2498210" lon="-1.5442720">
        <ele>686.4</ele>
        <time>2019-05-11T08:04:25Z</time>
      </trkpt>
      <trkpt lat="39.2498340" lon="-1.5442270">
        <ele>686.4</ele>
        <time>2019-05-11T08:04:26Z</time>
      </trkpt>
      <trkpt lat="39.2498450" lon="-1.5441820">
        <ele>686.6</ele>
        <time>2019-05-11T08:04:27Z</time>
      </trkpt>
      <trkpt lat="39.2498540" lon="-1.5441350">
        <ele>686.6</ele>
        <time>2019-05-11T08:04:28Z</time>
      </trkpt>
      <trkpt lat="39.2498600" lon="-1.5440870">
        <ele>686.6</ele>
        <time>2019-05-11T08:04:29Z</time>
      </trkpt>
      <trkpt lat="39.2498610" lon="-1.5440380">
        <ele>686.8</ele>
        <time>2019-05-11T08:04:30Z</time>
      </trkpt>
      <trkpt lat="39.2498560" lon="-1.5439870">
        <ele>686.8</ele>
        <time>2019-05-11T08:04:31Z</time>
      </trkpt>
      <trkpt lat="39.2498470" lon="-1.5439360">
        <ele>686.8</ele>
        <time>2019-05-11T08:04:32Z</time>
      </trkpt>
      <trkpt lat="39.2498350" lon="-1.5438870">
        <ele>687.0</ele>
        <time>2019-05-11T08:04:33Z</time>
      </trkpt>
      <trkpt lat="39.2498220" lon="-1.5438430">
        <ele>687.2</ele>
        <time>2019-05-11T08:04:34Z</time>
      </trkpt>
      <trkpt lat="39.2498120" lon="-1.5438000">
        <ele>687.4</ele>
        <time>2019-05-11T08:04:35Z</time>
      </trkpt>
      <trkpt lat="39.2498070" lon="-1.5437540">
        <ele>687.6</ele>
        <time>2019-05-11T08:04:36Z</time>
      </trkpt>
      <trkpt lat="39.2498080" lon="-1.5437070">
        <ele>688.0</ele>
        <time>2019-05-11T08:04:37Z</time>
      </trkpt>
      <trkpt lat="39.2498140" lon="-1.5436570">
        <ele>688.2</ele>
        <time>2019-05-11T08:04:38Z</time>
      </trkpt>
      <trkpt lat="39.2498220" lon="-1.5436030">
        <ele>688.4</ele>
        <time>2019-05-11T08:04:39Z</time>
      </trkpt>
      <trkpt lat="39.2498320" lon="-1.5435460">
        <ele>688.8</ele>
        <time>2019-05-11T08:04:40Z</time>
      </trkpt>
      <trkpt lat="39.2498420" lon="-1.5434860">
        <ele>689.0</ele>
        <time>2019-05-11T08:04:41Z</time>
      </trkpt>
      <trkpt lat="39.2498520" lon="-1.5434240">
        <ele>689.6</ele>
        <time>2019-05-11T08:04:42Z</time>
      </trkpt>
      <trkpt lat="39.2498630" lon="-1.5433600">
        <ele>689.8</ele>
        <time>2019-05-11T08:04:43Z</time>
      </trkpt>
      <trkpt lat="39.2498740" lon="-1.5432960">
        <ele>689.8</ele>
        <time>2019-05-11T08:04:44Z</time>
      </trkpt>
      <trkpt lat="39.2498850" lon="-1.5432350">
        <ele>690.0</ele>
        <time>2019-05-11T08:04:45Z</time>
      </trkpt>
      <trkpt lat="39.2498950" lon="-1.5431760">
        <ele>690.0</ele>
        <time>2019-05-11T08:04:46Z</time>
      </trkpt>
      <trkpt lat="39.2499060" lon="-1.5431190">
        <ele>690.0</ele>
        <time>2019-05-11T08:04:47Z</time>
      </trkpt>
      <trkpt lat="39.2499160" lon="-1.5430620">
        <ele>690.0</ele>
        <time>2019-05-11T08:04:48Z</time>
      </trkpt>
      <trkpt lat="39.2499270" lon="-1.5430050">
        <ele>690.2</ele>
        <time>2019-05-11T08:04:49Z</time>
      </trkpt>
      <trkpt lat="39.2499380" lon="-1.5429480">
        <ele>690.2</ele>
        <time>2019-05-11T08:04:50Z</time>
      </trkpt>
      <trkpt lat="39.2499500" lon="-1.5428900">
        <ele>690.4</ele>
        <time>2019-05-11T08:04:51Z</time>
      </trkpt>
      <trkpt lat="39.2499600" lon="-1.5428320">
        <ele>690.6</ele>
        <time>2019-05-11T08:04:52Z</time>
      </trkpt>
      <trkpt lat="39.2499720" lon="-1.5427730">
        <ele>690.6</ele>
        <time>2019-05-11T08:04:53Z</time>
      </trkpt>
      <trkpt lat="39.2499840" lon="-1.5427130">
        <ele>690.8</ele>
        <time>2019-05-11T08:04:54Z</time>
      </trkpt>
      <trkpt lat="39.2499970" lon="-1.5426530">
        <ele>691.2</ele>
        <time>2019-05-11T08:04:55Z</time>
      </trkpt>
      <trkpt lat="39.2500110" lon="-1.5425930">
        <ele>691.4</ele>
        <time>2019-05-11T08:04:56Z</time>
      </trkpt>
      <trkpt lat="39.2500230" lon="-1.5425330">
        <ele>691.6</ele>
        <time>2019-05-11T08:04:57Z</time>
      </trkpt>
      <trkpt lat="39.2500330" lon="-1.5424750">
        <ele>691.8</ele>
        <time>2019-05-11T08:04:58Z</time>
      </trkpt>
      <trkpt lat="39.2500430" lon="-1.5424160">
        <ele>692.0</ele>
        <time>2019-05-11T08:04:59Z</time>
      </trkpt>
      <trkpt lat="39.2500500" lon="-1.5423600">
        <ele>692.2</ele>
        <time>2019-05-11T08:05:00Z</time>
      </trkpt>
      <trkpt lat="39.2500540" lon="-1.5423070">
        <ele>692.2</ele>
        <time>2019-05-11T08:05:01Z</time>
      </trkpt>
      <trkpt lat="39.2500580" lon="-1.5422540">
        <ele>692.4</ele>
        <time>2019-05-11T08:05:02Z</time>
      </trkpt>
      <trkpt lat="39.2500640" lon="-1.5422000">
        <ele>692.4</ele>
        <time>2019-05-11T08:05:03Z</time>
      </trkpt>
      <trkpt lat="39.2500690" lon="-1.5421450">
        <ele>692.4</ele>
        <time>2019-05-11T08:05:04Z</time>
      </trkpt>
      <trkpt lat="39.2500700" lon="-1.5420860">
        <ele>692.6</ele>
        <time>2019-05-11T08:05:05Z</time>
      </trkpt>
      <trkpt lat="39.2500660" lon="-1.5420250">
        <ele>692.6</ele>
        <time>2019-05-11T08:05:06Z</time>
      </trkpt>
      <trkpt lat="39.2500590" lon="-1.5419620">
        <ele>692.8</ele>
        <time>2019-05-11T08:05:07Z</time>
      </trkpt>
      <trkpt lat="39.2500500" lon="-1.5418970">
        <ele>693.2</ele>
        <time>2019-05-11T08:05:08Z</time>
      </trkpt>
      <trkpt lat="39.2500400" lon="-1.5418290">
        <ele>693.4</ele>
        <time>2019-05-11T08:05:09Z</time>
      </trkpt>
      <trkpt lat="39.2500300" lon="-1.5417580">
        <ele>693.8</ele>
        <time>2019-05-11T08:05:10Z</time>
      </trkpt>
      <trkpt lat="39.2500200" lon="-1.5416830">
        <ele>694.2</ele>
        <time>2019-05-11T08:05:11Z</time>
      </trkpt>
      <trkpt lat="39.2500120" lon="-1.5416050">
        <ele>694.4</ele>
        <time>2019-05-11T08:05:12Z</time>
      </trkpt>
      <trkpt lat="39.2500070" lon="-1.5415240">
        <ele>694.4</ele>
        <time>2019-05-11T08:05:13Z</time>
      </trkpt>
      <trkpt lat="39.2500060" lon="-1.5414400">
        <ele>694.4</ele>
        <time>2019-05-11T08:05:14Z</time>
      </trkpt>
      <trkpt lat="39.2500050" lon="-1.5413530">
        <ele>694.6</ele>
        <time>2019-05-11T08:05:15Z</time>
      </trkpt>
      <trkpt lat="39.2500040" lon="-1.5412650">
        <ele>694.6</ele>
        <time>2019-05-11T08:05:16Z</time>
      </trkpt>
      <trkpt lat="39.2500020" lon="-1.5411780">
        <ele>694.6</ele>
        <time>2019-05-11T08:05:17Z</time>
      </trkpt>
      <trkpt lat="39.2500010" lon="-1.5410920">
        <ele>694.6</ele>
        <time>2019-05-11T08:05:18Z</time>
      </trkpt>
      <trkpt lat="39.2499960" lon="-1.5410070">
        <ele>694.6</ele>
        <time>2019-05-11T08:05:19Z</time>
      </trkpt>
      <trkpt lat="39.2499890" lon="-1.5409190">
        <ele>694.6</ele>
        <time>2019-05-11T08:05:20Z</time>
      </trkpt>
      <trkpt lat="39.2499830" lon="-1.5408300">
        <ele>694.4</ele>
        <time>2019-05-11T08:05:21Z</time>
      </trkpt>
      <trkpt lat="39.2499800" lon="-1.5407410">
        <ele>694.4</ele>
        <time>2019-05-11T08:05:22Z</time>
      </trkpt>
      <trkpt lat="39.2499820" lon="-1.5406510">
        <ele>694.4</ele>
        <time>2019-05-11T08:05:23Z</time>
      </trkpt>
      <trkpt lat="39.2499940" lon="-1.5405620">
        <ele>694.4</ele>
        <time>2019-05-11T08:05:24Z</time>
      </trkpt>
      <trkpt lat="39.2500180" lon="-1.5404780">
        <ele>694.2</ele>
        <time>2019-05-11T08:05:25Z</time>
      </trkpt>
      <trkpt lat="39.2500440" lon="-1.5404020">
        <ele>694.2</ele>
        <time>2019-05-11T08:05:26Z</time>
      </trkpt>
      <trkpt lat="39.2500640" lon="-1.5403300">
        <ele>694.2</ele>
        <time>2019-05-11T08:05:27Z</time>
      </trkpt>
      <trkpt lat="39.2500710" lon="-1.5402650">
        <ele>694.0</ele>
        <time>2019-05-11T08:05:28Z</time>
      </trkpt>
      <trkpt lat="39.2500620" lon="-1.5402270">
        <ele>693.8</ele>
        <time>2019-05-11T08:05:29Z</time>
      </trkpt>
      <trkpt lat="39.2500420" lon="-1.5402120">
        <ele>693.8</ele>
        <time>2019-05-11T08:05:30Z</time>
      </trkpt>
      <trkpt lat="39.2500020" lon="-1.5402120">
        <ele>693.6</ele>
        <time>2019-05-11T08:05:31Z</time>
      </trkpt>
      <trkpt lat="39.2499570" lon="-1.5402150">
        <ele>693.6</ele>
        <time>2019-05-11T08:05:32Z</time>
      </trkpt>
      <trkpt lat="39.2499100" lon="-1.5402330">
        <ele>693.4</ele>
        <time>2019-05-11T08:05:33Z</time>
      </trkpt>
      <trkpt lat="39.2498600" lon="-1.5402590">
        <ele>693.0</ele>
        <time>2019-05-11T08:05:34Z</time>
      </trkpt>
      <trkpt lat="39.2498030" lon="-1.5402770">
        <ele>692.6</ele>
        <time>2019-05-11T08:05:35Z</time>
      </trkpt>
      <trkpt lat="39.2497450" lon="-1.5402930">
        <ele>692.4</ele>
        <time>2019-05-11T08:05:36Z</time>
      </trkpt>
      <trkpt lat="39.2496850" lon="-1.5402960">
        <ele>692.2</ele>
        <time>2019-05-11T08:05:37Z</time>
      </trkpt>
      <trkpt lat="39.2496340" lon="-1.5402720">
        <ele>692.0</ele>
        <time>2019-05-11T08:05:38Z</time>
      </trkpt>
      <trkpt lat="39.2495790" lon="-1.5402480">
        <ele>692.0</ele>
        <time>2019-05-11T08:05:39Z</time>
      </trkpt>
      <trkpt lat="39.2495190" lon="-1.5402270">
        <ele>691.6</ele>
        <time>2019-05-11T08:05:40Z</time>
      </trkpt>
      <trkpt lat="39.2494550" lon="-1.5402080">
        <ele>691.0</ele>
        <time>2019-05-11T08:05:41Z</time>
      </trkpt>
      <trkpt lat="39.2493880" lon="-1.5401870">
        <ele>690.4</ele>
        <time>2019-05-11T08:05:42Z</time>
      </trkpt>
      <trkpt lat="39.2493180" lon="-1.5401630">
        <ele>689.6</ele>
        <time>2019-05-11T08:05:43Z</time>
      </trkpt>
      <trkpt lat="39.2492480" lon="-1.5401310">
        <ele>688.8</ele>
        <time>2019-05-11T08:05:44Z</time>
      </trkpt>
      <trkpt lat="39.2491830" lon="-1.5400910">
        <ele>688.0</ele>
        <time>2019-05-11T08:05:45Z</time>
      </trkpt>
      <trkpt lat="39.2491230" lon="-1.5400530">
        <ele>687.4</ele>
        <time>2019-05-11T08:05:46Z</time>
      </trkpt>
      <trkpt lat="39.2490630" lon="-1.5400120">
        <ele>686.6</ele>
        <time>2019-05-11T08:05:47Z</time>
      </trkpt>
      <trkpt lat="39.2490050" lon="-1.5399630">
        <ele>685.8</ele>
        <time>2019-05-11T08:05:48Z</time>
      </trkpt>
      <trkpt lat="39.2489450" lon="-1.5399070">
        <ele>685.2</ele>
        <time>2019-05-11T08:05:49Z</time>
      </trkpt>
      <trkpt lat="39.2488850" lon="-1.5398470">
        <ele>684.6</ele>
        <time>2019-05-11T08:05:50Z</time>
      </trkpt>
      <trkpt lat="39.2488260" lon="-1.5397840">
        <ele>683.6</ele>
        <time>2019-05-11T08:05:51Z</time>
      </trkpt>
      <trkpt lat="39.2487660" lon="-1.5397220">
        <ele>683.2</ele>
        <time>2019-05-11T08:05:52Z</time>
      </trkpt>
      <trkpt lat="39.2487080" lon="-1.5396590">
        <ele>682.6</ele>
        <time>2019-05-11T08:05:53Z</time>
      </trkpt>
      <trkpt lat="39.2486480" lon="-1.5395950">
        <ele>681.8</ele>
        <time>2019-05-11T08:05:54Z</time>
      </trkpt>
      <trkpt lat="39.2485870" lon="-1.5395330">
        <ele>681.2</ele>
        <time>2019-05-11T08:05:55Z</time>
      </trkpt>
      <trkpt lat="39.2485220" lon="-1.5394750">
        <ele>680.6</ele>
        <time>2019-05-11T08:05:56Z</time>
      </trkpt>
      <trkpt lat="39.2484550" lon="-1.5394210">
        <ele>680.0</ele>
        <time>2019-05-11T08:05:57Z</time>
      </trkpt>
      <trkpt lat="39.2483850" lon="-1.5393750">
        <ele>679.6</ele>
        <time>2019-05-11T08:05:58Z</time>
      </trkpt>
      <trkpt lat="39.2483190" lon="-1.5393350">
        <ele>679.2</ele>
        <time>2019-05-11T08:05:59Z</time>
      </trkpt>
      <trkpt lat="39.2482590" lon="-1.5392920">
        <ele>679.0</ele>
        <time>2019-05-11T08:06:00Z</time>
      </trkpt>
      <trkpt lat="39.2482030" lon="-1.5392490">
        <ele>679.0</ele>
        <time>2019-05-11T08:06:01Z</time>
      </trkpt>
      <trkpt lat="39.2481520" lon="-1.5392120">
        <ele>679.0</ele>
        <time>2019-05-11T08:06:02Z</time>
      </trkpt>
      <trkpt lat="39.2481060" lon="-1.5391810">
        <ele>679.0</ele>
        <time>2019-05-11T08:06:03Z</time>
      </trkpt>
      <trkpt lat="39.2480630" lon="-1.5391610">
        <ele>679.0</ele>
        <time>2019-05-11T08:06:04Z</time>
      </trkpt>
      <trkpt lat="39.2480250" lon="-1.5391550">
        <ele>679.0</ele>
        <time>2019-05-11T08:06:05Z</time>
      </trkpt>
      <trkpt lat="39.2479890" lon="-1.5391540">
        <ele>679.0</ele>
        <time>2019-05-11T08:06:06Z</time>
      </trkpt>
      <trkpt lat="39.2479530" lon="-1.5391590">
        <ele>679.0</ele>
        <time>2019-05-11T08:06:07Z</time>
      </trkpt>
      <trkpt lat="39.2479140" lon="-1.5391720">
        <ele>679.0</ele>
        <time>2019-05-11T08:06:08Z</time>
      </trkpt>
      <trkpt lat="39.2478710" lon="-1.5391910">
        <ele>679.0</ele>
        <time>2019-05-11T08:06:09Z</time>
      </trkpt>
      <trkpt lat="39.2478200" lon="-1.5392090">
        <ele>679.2</ele>
        <time>2019-05-11T08:06:10Z</time>
      </trkpt>
      <trkpt lat="39.2477660" lon="-1.5392200">
        <ele>679.4</ele>
        <time>2019-05-11T08:06:11Z</time>
      </trkpt>
      <trkpt lat="39.2477060" lon="-1.5392310">
        <ele>679.8</ele>
        <time>2019-05-11T08:06:12Z</time>
      </trkpt>
      <trkpt lat="39.2476440" lon="-1.5392440">
        <ele>680.2</ele>
        <time>2019-05-11T08:06:13Z</time>
      </trkpt>
      <trkpt lat="39.2475750" lon="-1.5392560">
        <ele>680.2</ele>
        <time>2019-05-11T08:06:14Z</time>
      </trkpt>
      <trkpt lat="39.2475080" lon="-1.5392690">
        <ele>680.4</ele>
        <time>2019-05-11T08:06:15Z</time>
      </trkpt>
      <trkpt lat="39.2474470" lon="-1.5392940">
        <ele>680.4</ele>
        <time>2019-05-11T08:06:16Z</time>
      </trkpt>
      <trkpt lat="39.2473960" lon="-1.5393410">
        <ele>680.4</ele>
        <time>2019-05-11T08:06:17Z</time>
      </trkpt>
      <trkpt lat="39.2473510" lon="-1.5394000">
        <ele>680.4</ele>
        <time>2019-05-11T08:06:18Z</time>
      </trkpt>
      <trkpt lat="39.2473070" lon="-1.5394630">
        <ele>680.4</ele>
        <time>2019-05-11T08:06:19Z</time>
      </trkpt>
      <trkpt lat="39.2472560" lon="-1.5395110">
        <ele>680.4</ele>
        <time>2019-05-11T08:06:20Z</time>
      </trkpt>
      <trkpt lat="39.2471990" lon="-1.5395410">
        <ele>680.4</ele>
        <time>2019-05-11T08:06:21Z</time>
      </trkpt>
      <trkpt lat="39.2471490" lon="-1.5395780">
        <ele>680.4</ele>
        <time>2019-05-11T08:06:22Z</time>
      </trkpt>
      <trkpt lat="39.2471140" lon="-1.5396330">
        <ele>680.4</ele>
        <time>2019-05-11T08:06:23Z</time>
      </trkpt>
      <trkpt lat="39.2470830" lon="-1.5396970">
        <ele>680.0</ele>
        <time>2019-05-11T08:06:24Z</time>
      </trkpt>
      <trkpt lat="39.2470540" lon="-1.5397590">
        <ele>679.8</ele>
        <time>2019-05-11T08:06:25Z</time>
      </trkpt>
      <trkpt lat="39.2470210" lon="-1.5398200">
        <ele>679.6</ele>
        <time>2019-05-11T08:06:26Z</time>
      </trkpt>
      <trkpt lat="39.2469830" lon="-1.5398810">
        <ele>679.4</ele>
        <time>2019-05-11T08:06:27Z</time>
      </trkpt>
      <trkpt lat="39.2469400" lon="-1.5399400">
        <ele>678.8</ele>
        <time>2019-05-11T08:06:28Z</time>
      </trkpt>
      <trkpt lat="39.2469020" lon="-1.5400010">
        <ele>678.0</ele>
        <time>2019-05-11T08:06:29Z</time>
      </trkpt>
      <trkpt lat="39.2468640" lon="-1.5400670">
        <ele>677.6</ele>
        <time>2019-05-11T08:06:30Z</time>
      </trkpt>
      <trkpt lat="39.2468220" lon="-1.5401320">
        <ele>677.2</ele>
        <time>2019-05-11T08:06:31Z</time>
      </trkpt>
      <trkpt lat="39.2467850" lon="-1.5401940">
        <ele>676.8</ele>
        <time>2019-05-11T08:06:32Z</time>
      </trkpt>
      <trkpt lat="39.2467570" lon="-1.5402600">
        <ele>676.6</ele>
        <time>2019-05-11T08:06:33Z</time>
      </trkpt>
      <trkpt lat="39.2467300" lon="-1.5403270">
        <ele>676.4</ele>
        <time>2019-05-11T08:06:34Z</time>
      </trkpt>
      <trkpt lat="39.2466960" lon="-1.5403870">
        <ele>676.2</ele>
        <time>2019-05-11T08:06:35Z</time>
      </trkpt>
      <trkpt lat="39.2466600" lon="-1.5404420">
        <ele>676.0</ele>
        <time>2019-05-11T08:06:36Z</time>
      </trkpt>
      <trkpt lat="39.2466280" lon="-1.5404940">
        <ele>676.0</ele>
        <time>2019-05-11T08:06:37Z</time>
      </trkpt>
      <trkpt lat="39.2466060" lon="-1.5405450">
        <ele>676.0</ele>
        <time>2019-05-11T08:06:38Z</time>
      </trkpt>
      <trkpt lat="39.2465870" lon="-1.5406010">
        <ele>675.8</ele>
        <time>2019-05-11T08:06:39Z</time>
      </trkpt>
      <trkpt lat="39.2465650" lon="-1.5406540">
        <ele>675.8</ele>
        <time>2019-05-11T08:06:40Z</time>
      </trkpt>
      <trkpt lat="39.2465450" lon="-1.5407070">
        <ele>675.4</ele>
        <time>2019-05-11T08:06:41Z</time>
      </trkpt>
      <trkpt lat="39.2465370" lon="-1.5407670">
        <ele>675.2</ele>
        <time>2019-05-11T08:06:42Z</time>
      </trkpt>
      <trkpt lat="39.2465410" lon="-1.5408290">
        <ele>674.8</ele>
        <time>2019-05-11T08:06:43Z</time>
      </trkpt>
      <trkpt lat="39.2465510" lon="-1.5408840">
        <ele>674.4</ele>
        <time>2019-05-11T08:06:44Z</time>
      </trkpt>
      <trkpt lat="39.2465570" lon="-1.5409410">
        <ele>674.0</ele>
        <time>2019-05-11T08:06:45Z</time>
      </trkpt>
      <trkpt lat="39.2465510" lon="-1.5410010">
        <ele>673.2</ele>
        <time>2019-05-11T08:06:46Z</time>
      </trkpt>
      <trkpt lat="39.2465310" lon="-1.5410630">
        <ele>672.8</ele>
        <time>2019-05-11T08:06:47Z</time>
      </trkpt>
      <trkpt lat="39.2464990" lon="-1.5411220">
        <ele>672.6</ele>
        <time>2019-05-11T08:06:48Z</time>
      </trkpt>
      <trkpt lat="39.2464570" lon="-1.5411770">
        <ele>672.6</ele>
        <time>2019-05-11T08:06:49Z</time>
      </trkpt>
      <trkpt lat="39.2464090" lon="-1.5412310">
        <ele>672.0</ele>
        <time>2019-05-11T08:06:50Z</time>
      </trkpt>
      <trkpt lat="39.2463610" lon="-1.5412870">
        <ele>671.6</ele>
        <time>2019-05-11T08:06:51Z</time>
      </trkpt>
      <trkpt lat="39.2463100" lon="-1.5413460">
        <ele>671.2</ele>
        <time>2019-05-11T08:06:52Z</time>
      </trkpt>
      <trkpt lat="39.2462590" lon="-1.5414050">
        <ele>670.6</ele>
        <time>2019-05-11T08:06:53Z</time>
      </trkpt>
      <trkpt lat="39.2462060" lon="-1.5414660">
        <ele>669.8</ele>
        <time>2019-05-11T08:06:54Z</time>
      </trkpt>
      <trkpt lat="39.2461520" lon="-1.5415310">
        <ele>669.4</ele>
        <time>2019-05-11T08:06:55Z</time>
      </trkpt>
      <trkpt lat="39.2461000" lon="-1.5416000">
        <ele>668.8</ele>
        <time>2019-05-11T08:06:56Z</time>
      </trkpt>
      <trkpt lat="39.2460470" lon="-1.5416700">
        <ele>668.4</ele>
        <time>2019-05-11T08:06:57Z</time>
      </trkpt>
      <trkpt lat="39.2459900" lon="-1.5417310">
        <ele>668.2</ele>
        <time>2019-05-11T08:06:58Z</time>
      </trkpt>
      <trkpt lat="39.2459420" lon="-1.5417960">
        <ele>668.2</ele>
        <time>2019-05-11T08:06:59Z</time>
      </trkpt>
      <trkpt lat="39.2458970" lon="-1.5418590">
        <ele>668.0</ele>
        <time>2019-05-11T08:07:00Z</time>
      </trkpt>
      <trkpt lat="39.2458470" lon="-1.5419010">
        <ele>667.6</ele>
        <time>2019-05-11T08:07:01Z</time>
      </trkpt>
      <trkpt lat="39.2457900" lon="-1.5419250">
        <ele>667.2</ele>
        <time>2019-05-11T08:07:02Z</time>
      </trkpt>
      <trkpt lat="39.2457310" lon="-1.5419470">
        <ele>666.8</ele>
        <time>2019-05-11T08:07:03Z</time>
      </trkpt>
      <trkpt lat="39.2456670" lon="-1.5419700">
        <ele>666.6</ele>
        <time>2019-05-11T08:07:04Z</time>
      </trkpt>
      <trkpt lat="39.2456010" lon="-1.5419930">
        <ele>666.0</ele>
        <time>2019-05-11T08:07:05Z</time>
      </trkpt>
      <trkpt lat="39.2455340" lon="-1.5420140">
        <ele>665.6</ele>
        <time>2019-05-11T08:07:06Z</time>
      </trkpt>
      <trkpt lat="39.2454670" lon="-1.5420430">
        <ele>665.0</ele>
        <time>2019-05-11T08:07:07Z</time>
      </trkpt>
      <trkpt lat="39.2454040" lon="-1.5420770">
        <ele>664.2</ele>
        <time>2019-05-11T08:07:08Z</time>
      </trkpt>
      <trkpt lat="39.2453470" lon="-1.5421130">
        <ele>663.8</ele>
        <time>2019-05-11T08:07:09Z</time>
      </trkpt>
      <trkpt lat="39.2452930" lon="-1.5421480">
        <ele>663.4</ele>
        <time>2019-05-11T08:07:10Z</time>
      </trkpt>
      <trkpt lat="39.2452380" lon="-1.5421740">
        <ele>663.2</ele>
        <time>2019-05-11T08:07:11Z</time>
      </trkpt>
      <trkpt lat="39.2451810" lon="-1.5421870">
        <ele>662.8</ele>
        <time>2019-05-11T08:07:12Z</time>
      </trkpt>
      <trkpt lat="39.2451230" lon="-1.5421890">
        <ele>662.6</ele>
        <time>2019-05-11T08:07:13Z</time>
      </trkpt>
      <trkpt lat="39.2450700" lon="-1.5421770">
        <ele>662.6</ele>
        <time>2019-05-11T08:07:14Z</time>
      </trkpt>
      <trkpt lat="39.2450280" lon="-1.5421440">
        <ele>662.4</ele>
        <time>2019-05-11T08:07:15Z</time>
      </trkpt>
      <trkpt lat="39.2450010" lon="-1.5420970">
        <ele>662.4</ele>
        <time>2019-05-11T08:07:16Z</time>
      </trkpt>
      <trkpt lat="39.2449830" lon="-1.5420430">
        <ele>662.4</ele>
        <time>2019-05-11T08:07:17Z</time>
      </trkpt>
      <trkpt lat="39.2449670" lon="-1.5419910">
        <ele>662.2</ele>
        <time>2019-05-11T08:07:18Z</time>
      </trkpt>
      <trkpt lat="39.2449410" lon="-1.5419580">
        <ele>662.2</ele>
        <time>2019-05-11T08:07:19Z</time>
      </trkpt>
      <trkpt lat="39.2449060" lon="-1.5419480">
        <ele>662.2</ele>
        <time>2019-05-11T08:07:20Z</time>
      </trkpt>
      <trkpt lat="39.2448670" lon="-1.5419580">
        <ele>662.0</ele>
        <time>2019-05-11T08:07:21Z</time>
      </trkpt>
      <trkpt lat="39.2448330" lon="-1.5419730">
        <ele>662.0</ele>
        <time>2019-05-11T08:07:22Z</time>
      </trkpt>
      <trkpt lat="39.2447990" lon="-1.5419760">
        <ele>662.0</ele>
        <time>2019-05-11T08:07:23Z</time>
      </trkpt>
      <trkpt lat="39.2447630" lon="-1.5419640">
        <ele>662.0</ele>
        <time>2019-05-11T08:07:24Z</time>
      </trkpt>
      <trkpt lat="39.2447270" lon="-1.5419510">
        <ele>662.0</ele>
        <time>2019-05-11T08:07:25Z</time>
      </trkpt>
      <trkpt lat="39.2446940" lon="-1.5419390">
        <ele>662.0</ele>
        <time>2019-05-11T08:07:26Z</time>
      </trkpt>
      <trkpt lat="39.2446600" lon="-1.5419320">
        <ele>662.0</ele>
        <time>2019-05-11T08:07:27Z</time>
      </trkpt>
      <trkpt lat="39.2446250" lon="-1.5419260">
        <ele>662.0</ele>
        <time>2019-05-11T08:07:28Z</time>
      </trkpt>
      <trkpt lat="39.2445860" lon="-1.5419200">
        <ele>662.0</ele>
        <time>2019-05-11T08:07:29Z</time>
      </trkpt>
      <trkpt lat="39.2445450" lon="-1.5419170">
        <ele>661.8</ele>
        <time>2019-05-11T08:07:30Z</time>
      </trkpt>
      <trkpt lat="39.2445040" lon="-1.5419100">
        <ele>661.8</ele>
        <time>2019-05-11T08:07:31Z</time>
      </trkpt>
      <trkpt lat="39.2444620" lon="-1.5418900">
        <ele>661.8</ele>
        <time>2019-05-11T08:07:32Z</time>
      </trkpt>
      <trkpt lat="39.2444230" lon="-1.5418560">
        <ele>661.8</ele>
        <time>2019-05-11T08:07:33Z</time>
      </trkpt>
      <trkpt lat="39.2443860" lon="-1.5418110">
        <ele>661.8</ele>
        <time>2019-05-11T08:07:34Z</time>
      </trkpt>
      <trkpt lat="39.2443520" lon="-1.5417600">
        <ele>661.8</ele>
        <time>2019-05-11T08:07:35Z</time>
      </trkpt>
      <trkpt lat="39.2443250" lon="-1.5417090">
        <ele>661.8</ele>
        <time>2019-05-11T08:07:36Z</time>
      </trkpt>
      <trkpt lat="39.2442980" lon="-1.5416650">
        <ele>661.8</ele>
        <time>2019-05-11T08:07:37Z</time>
      </trkpt>
      <trkpt lat="39.2442670" lon="-1.5416360">
        <ele>661.8</ele>
        <time>2019-05-11T08:07:38Z</time>
      </trkpt>
      <trkpt lat="39.2442380" lon="-1.5416120">
        <ele>661.6</ele>
        <time>2019-05-11T08:07:39Z</time>
      </trkpt>
      <trkpt lat="39.2442120" lon="-1.5415890">
        <ele>661.2</ele>
        <time>2019-05-11T08:07:40Z</time>
      </trkpt>
      <trkpt lat="39.2441890" lon="-1.5415650">
        <ele>661.0</ele>
        <time>2019-05-11T08:07:41Z</time>
      </trkpt>
      <trkpt lat="39.2441680" lon="-1.5415370">
        <ele>660.8</ele>
        <time>2019-05-11T08:07:42Z</time>
      </trkpt>
      <trkpt lat="39.2441500" lon="-1.5415040">
        <ele>660.8</ele>
        <time>2019-05-11T08:07:43Z</time>
      </trkpt>
      <trkpt lat="39.2441320" lon="-1.5414700">
        <ele>660.6</ele>
        <time>2019-05-11T08:07:44Z</time>
      </trkpt>
      <trkpt lat="39.2441140" lon="-1.5414310">
        <ele>660.6</ele>
        <time>2019-05-11T08:07:45Z</time>
      </trkpt>
      <trkpt lat="39.2440960" lon="-1.5413850">
        <ele>660.6</ele>
        <time>2019-05-11T08:07:46Z</time>
      </trkpt>
      <trkpt lat="39.2440830" lon="-1.5413300">
        <ele>660.6</ele>
        <time>2019-05-11T08:07:47Z</time>
      </trkpt>
      <trkpt lat="39.2440740" lon="-1.5412700">
        <ele>660.6</ele>
        <time>2019-05-11T08:07:48Z</time>
      </trkpt>
      <trkpt lat="39.2440640" lon="-1.5412050">
        <ele>660.6</ele>
        <time>2019-05-11T08:07:49Z</time>
      </trkpt>
      <trkpt lat="39.2440540" lon="-1.5411360">
        <ele>660.6</ele>
        <time>2019-05-11T08:07:50Z</time>
      </trkpt>
      <trkpt lat="39.2440500" lon="-1.5410660">
        <ele>660.6</ele>
        <time>2019-05-11T08:07:51Z</time>
      </trkpt>
      <trkpt lat="39.2440560" lon="-1.5409970">
        <ele>660.4</ele>
        <time>2019-05-11T08:07:52Z</time>
      </trkpt>
      <trkpt lat="39.2440720" lon="-1.5409310">
        <ele>660.4</ele>
        <time>2019-05-11T08:07:53Z</time>
      </trkpt>
      <trkpt lat="39.2440940" lon="-1.5408770">
        <ele>660.4</ele>
        <time>2019-05-11T08:07:54Z</time>
      </trkpt>
      <trkpt lat="39.2441260" lon="-1.5408280">
        <ele>660.4</ele>
        <time>2019-05-11T08:07:55Z</time>
      </trkpt>
      <trkpt lat="39.2441620" lon="-1.5407850">
        <ele>660.6</ele>
        <time>2019-05-11T08:07:56Z</time>
      </trkpt>
      <trkpt lat="39.2442030" lon="-1.5407530">
        <ele>660.6</ele>
        <time>2019-05-11T08:07:57Z</time>
      </trkpt>
      <trkpt lat="39.2442450" lon="-1.5407260">
        <ele>660.6</ele>
        <time>2019-05-11T08:07:58Z</time>
      </trkpt>
      <trkpt lat="39.2442870" lon="-1.5406990">
        <ele>660.6</ele>
        <time>2019-05-11T08:07:59Z</time>
      </trkpt>
      <trkpt lat="39.2443260" lon="-1.5406630">
        <ele>660.6</ele>
        <time>2019-05-11T08:08:00Z</time>
      </trkpt>
      <trkpt lat="39.2443480" lon="-1.5406110">
        <ele>660.6</ele>
        <time>2019-05-11T08:08:01Z</time>
      </trkpt>
      <trkpt lat="39.2443580" lon="-1.5405540">
        <ele>660.6</ele>
        <time>2019-05-11T08:08:02Z</time>
      </trkpt>
      <trkpt lat="39.2443620" lon="-1.5404990">
        <ele>660.6</ele>
        <time>2019-05-11T08:08:03Z</time>
      </trkpt>
      <trkpt lat="39.2443660" lon="-1.5404490">
        <ele>660.8</ele>
        <time>2019-05-11T08:08:04Z</time>
      </trkpt>
      <trkpt lat="39.2443770" lon="-1.5404000">
        <ele>660.8</ele>
        <time>2019-05-11T08:08:05Z</time>
      </trkpt>
      <trkpt lat="39.2443920" lon="-1.5403540">
        <ele>661.0</ele>
        <time>2019-05-11T08:08:06Z</time>
      </trkpt>
      <trkpt lat="39.2444080" lon="-1.5403070">
        <ele>661.2</ele>
        <time>2019-05-11T08:08:07Z</time>
      </trkpt>
      <trkpt lat="39.2444240" lon="-1.5402580">
        <ele>661.4</ele>
        <time>2019-05-11T08:08:08Z</time>
      </trkpt>
      <trkpt lat="39.2444410" lon="-1.5402050">
        <ele>661.4</ele>
        <time>2019-05-11T08:08:09Z</time>
      </trkpt>
      <trkpt lat="39.2444620" lon="-1.5401520">
        <ele>661.6</ele>
        <time>2019-05-11T08:08:10Z</time>
      </trkpt>
      <trkpt lat="39.2444830" lon="-1.5401010">
        <ele>661.8</ele>
        <time>2019-05-11T08:08:11Z</time>
      </trkpt>
      <trkpt lat="39.2445030" lon="-1.5400520">
        <ele>662.2</ele>
        <time>2019-05-11T08:08:12Z</time>
      </trkpt>
      <trkpt lat="39.2445250" lon="-1.5400230">
        <ele>662.2</ele>
        <time>2019-05-11T08:08:13Z</time>
      </trkpt>
      <trkpt lat="39.2445470" lon="-1.5400130">
        <ele>662.4</ele>
        <time>2019-05-11T08:08:14Z</time>
      </trkpt>
      <trkpt lat="39.2445620" lon="-1.5400040">
        <ele>662.4</ele>
        <time>2019-05-11T08:08:15Z</time>
      </trkpt>
      <trkpt lat="39.2445750" lon="-1.5399940">
        <ele>662.4</ele>
        <time>2019-05-11T08:08:16Z</time>
      </trkpt>
      <trkpt lat="39.2445880" lon="-1.5399820">
        <ele>662.6</ele>
        <time>2019-05-11T08:08:17Z</time>
      </trkpt>
      <trkpt lat="39.2446000" lon="-1.5399660">
        <ele>662.6</ele>
        <time>2019-05-11T08:08:18Z</time>
      </trkpt>
      <trkpt lat="39.2446090" lon="-1.5399440">
        <ele>662.6</ele>
        <time>2019-05-11T08:08:19Z</time>
      </trkpt>
      <trkpt lat="39.2446090" lon="-1.5399110">
        <ele>662.6</ele>
        <time>2019-05-11T08:08:20Z</time>
      </trkpt>
      <trkpt lat="39.2446070" lon="-1.5398740">
        <ele>662.8</ele>
        <time>2019-05-11T08:08:21Z</time>
      </trkpt>
      <trkpt lat="39.2446090" lon="-1.5398340">
        <ele>662.8</ele>
        <time>2019-05-11T08:08:22Z</time>
      </trkpt>
      <trkpt lat="39.2446110" lon="-1.5397880">
        <ele>663.0</ele>
        <time>2019-05-11T08:08:23Z</time>
      </trkpt>
      <trkpt lat="39.2446110" lon="-1.5397420">
        <ele>663.2</ele>
        <time>2019-05-11T08:08:24Z</time>
      </trkpt>
      <trkpt lat="39.2446160" lon="-1.5396970">
        <ele>663.4</ele>
        <time>2019-05-11T08:08:25Z</time>
      </trkpt>
      <trkpt lat="39.2446260" lon="-1.5396540">
        <ele>663.6</ele>
        <time>2019-05-11T08:08:26Z</time>
      </trkpt>
      <trkpt lat="39.2446440" lon="-1.5396140">
        <ele>663.6</ele>
        <time>2019-05-11T08:08:27Z</time>
      </trkpt>
      <trkpt lat="39.2446680" lon="-1.5395760">
        <ele>663.8</ele>
        <time>2019-05-11T08:08:28Z</time>
      </trkpt>
      <trkpt lat="39.2446960" lon="-1.5395400">
        <ele>664.0</ele>
        <time>2019-05-11T08:08:29Z</time>
      </trkpt>
      <trkpt lat="39.2447250" lon="-1.5395020">
        <ele>664.2</ele>
        <time>2019-05-11T08:08:30Z</time>
      </trkpt>
      <trkpt lat="39.2447560" lon="-1.5394650">
        <ele>664.2</ele>
        <time>2019-05-11T08:08:31Z</time>
      </trkpt>
      <trkpt lat="39.2447900" lon="-1.5394280">
        <ele>664.4</ele>
        <time>2019-05-11T08:08:32Z</time>
      </trkpt>
      <trkpt lat="39.2448200" lon="-1.5393870">
        <ele>664.4</ele>
        <time>2019-05-11T08:08:33Z</time>
      </trkpt>
      <trkpt lat="39.2448410" lon="-1.5393390">
        <ele>664.6</ele>
        <time>2019-05-11T08:08:34Z</time>
      </trkpt>
      <trkpt lat="39.2448570" lon="-1.5392870">
        <ele>664.8</ele>
        <time>2019-05-11T08:08:35Z</time>
      </trkpt>
      <trkpt lat="39.2448720" lon="-1.5392350">
        <ele>665.0</ele>
        <time>2019-05-11T08:08:36Z</time>
      </trkpt>
      <trkpt lat="39.2448870" lon="-1.5391810">
        <ele>665.0</ele>
        <time>2019-05-11T08:08:37Z</time>
      </trkpt>
      <trkpt lat="39.2449000" lon="-1.5391260">
        <ele>665.0</ele>
        <time>2019-05-11T08:08:38Z</time>
      </trkpt>
      <trkpt lat="39.2449160" lon="-1.5390730">
        <ele>665.2</ele>
        <time>2019-05-11T08:08:39Z</time>
      </trkpt>
      <trkpt lat="39.2449360" lon="-1.5390210">
        <ele>665.4</ele>
        <time>2019-05-11T08:08:40Z</time>
      </trkpt>
      <trkpt lat="39.2449590" lon="-1.5389710">
        <ele>665.4</ele>
        <time>2019-05-11T08:08:41Z</time>
      </trkpt>
      <trkpt lat="39.2449760" lon="-1.5389200">
        <ele>665.6</ele>
        <time>2019-05-11T08:08:42Z</time>
      </trkpt>
      <trkpt lat="39.2449780" lon="-1.5388670">
        <ele>665.8</ele>
        <time>2019-05-11T08:08:43Z</time>
      </trkpt>
      <trkpt lat="39.2449640" lon="-1.5388170">
        <ele>666.0</ele>
        <time>2019-05-11T08:08:44Z</time>
      </trkpt>
      <trkpt lat="39.2449410" lon="-1.5387700">
        <ele>666.2</ele>
        <time>2019-05-11T08:08:45Z</time>
      </trkpt>
      <trkpt lat="39.2449150" lon="-1.5387220">
        <ele>666.2</ele>
        <time>2019-05-11T08:08:46Z</time>
      </trkpt>
      <trkpt lat="39.2448870" lon="-1.5386750">
        <ele>666.2</ele>
        <time>2019-05-11T08:08:47Z</time>
      </trkpt>
      <trkpt lat="39.2448540" lon="-1.5386310">
        <ele>666.4</ele>
        <time>2019-05-11T08:08:48Z</time>
      </trkpt>
      <trkpt lat="39.2448160" lon="-1.5385960">
        <ele>666.4</ele>
        <time>2019-05-11T08:08:49Z</time>
      </trkpt>
      <trkpt lat="39.2447720" lon="-1.5385720">
        <ele>666.4</ele>
        <time>2019-05-11T08:08:50Z</time>
      </trkpt>
      <trkpt lat="39.2447230" lon="-1.5385630">
        <ele>666.4</ele>
        <time>2019-05-11T08:08:51Z</time>
      </trkpt>
      <trkpt lat="39.2446710" lon="-1.5385630">
        <ele>666.6</ele>
        <time>2019-05-11T08:08:52Z</time>
      </trkpt>
      <trkpt lat="39.2446150" lon="-1.5385650">
        <ele>666.6</ele>
        <time>2019-05-11T08:08:53Z</time>
      </trkpt>
      <trkpt lat="39.2445560" lon="-1.5385680">
        <ele>666.8</ele>
        <time>2019-05-11T08:08:54Z</time>
      </trkpt>
      <trkpt lat="39.2444960" lon="-1.5385750">
        <ele>666.8</ele>
        <time>2019-05-11T08:08:55Z</time>
      </trkpt>
      <trkpt lat="39.2444350" lon="-1.5385920">
        <ele>666.8</ele>
        <time>2019-05-11T08:08:56Z</time>
      </trkpt>
      <trkpt lat="39.2443770" lon="-1.5386200">
        <ele>666.8</ele>
        <time>2019-05-11T08:08:57Z</time>
      </trkpt>
      <trkpt lat="39.2443230" lon="-1.5386580">
        <ele>666.8</ele>
        <time>2019-05-11T08:08:58Z</time>
      </trkpt>
      <trkpt lat="39.2442780" lon="-1.5387100">
        <ele>666.8</ele>
        <time>2019-05-11T08:08:59Z</time>
      </trkpt>
      <trkpt lat="39.2442430" lon="-1.5387700">
        <ele>666.8</ele>
        <time>2019-05-11T08:09:00Z</time>
      </trkpt>
      <trkpt lat="39.2442100" lon="-1.5388310">
        <ele>666.8</ele>
        <time>2019-05-11T08:09:01Z</time>
      </trkpt>
      <trkpt lat="39.2441720" lon="-1.5388920">
        <ele>667.0</ele>
        <time>2019-05-11T08:09:02Z</time>
      </trkpt>
      <trkpt lat="39.2441300" lon="-1.5389510">
        <ele>667.0</ele>
        <time>2019-05-11T08:09:03Z</time>
      </trkpt>
      <trkpt lat="39.2440810" lon="-1.5390040">
        <ele>667.0</ele>
        <time>2019-05-11T08:09:04Z</time>
      </trkpt>
      <trkpt lat="39.2440270" lon="-1.5390520">
        <ele>667.2</ele>
        <time>2019-05-11T08:09:05Z</time>
      </trkpt>
      <trkpt lat="39.2439670" lon="-1.5390880">
        <ele>667.2</ele>
        <time>2019-05-11T08:09:06Z</time>
      </trkpt>
      <trkpt lat="39.2439040" lon="-1.5391140">
        <ele>667.2</ele>
        <time>2019-05-11T08:09:07Z</time>
      </trkpt>
      <trkpt lat="39.2438400" lon="-1.5391270">
        <ele>667.2</ele>
        <time>2019-05-11T08:09:08Z</time>
      </trkpt>
      <trkpt lat="39.2437790" lon="-1.5391130">
        <ele>667.2</ele>
        <time>2019-05-11T08:09:09Z</time>
      </trkpt>
      <trkpt lat="39.2437200" lon="-1.5390760">
        <ele>667.2</ele>
        <time>2019-05-11T08:09:10Z</time>
      </trkpt>
      <trkpt lat="39.2436590" lon="-1.5390300">
        <ele>667.2</ele>
        <time>2019-05-11T08:09:11Z</time>
      </trkpt>
      <trkpt lat="39.2435920" lon="-1.5389900">
        <ele>667.2</ele>
        <time>2019-05-11T08:09:12Z</time>
      </trkpt>
      <trkpt lat="39.2435200" lon="-1.5389570">
        <ele>667.2</ele>
        <time>2019-05-11T08:09:13Z</time>
      </trkpt>
      <trkpt lat="39.2434490" lon="-1.5389250">
        <ele>667.2</ele>
        <time>2019-05-11T08:09:14Z</time>
      </trkpt>
      <trkpt lat="39.2433810" lon="-1.5388830">
        <ele>667.2</ele>
        <time>2019-05-11T08:09:15Z</time>
      </trkpt>
      <trkpt lat="39.2433230" lon="-1.5388230">
        <ele>667.0</ele>
        <time>2019-05-11T08:09:16Z</time>
      </trkpt>
      <trkpt lat="39.2432670" lon="-1.5387580">
        <ele>667.0</ele>
        <time>2019-05-11T08:09:17Z</time>
      </trkpt>
      <trkpt lat="39.2432010" lon="-1.5386960">
        <ele>666.6</ele>
        <time>2019-05-11T08:09:18Z</time>
      </trkpt>
      <trkpt lat="39.2431250" lon="-1.5386460">
        <ele>665.8</ele>
        <time>2019-05-11T08:09:19Z</time>
      </trkpt>
      <trkpt lat="39.2430480" lon="-1.5386080">
        <ele>665.6</ele>
        <time>2019-05-11T08:09:20Z</time>
      </trkpt>
      <trkpt lat="39.2429740" lon="-1.5385850">
        <ele>665.2</ele>
        <time>2019-05-11T08:09:21Z</time>
      </trkpt>
      <trkpt lat="39.2429190" lon="-1.5385970">
        <ele>665.0</ele>
        <time>2019-05-11T08:09:22Z</time>
      </trkpt>
      <trkpt lat="39.2428830" lon="-1.5386290">
        <ele>664.8</ele>
        <time>2019-05-11T08:09:23Z</time>
      </trkpt>
      <trkpt lat="39.2428620" lon="-1.5386770">
        <ele>664.4</ele>
        <time>2019-05-11T08:09:24Z</time>
      </trkpt>
      <trkpt lat="39.2428530" lon="-1.5387350">
        <ele>664.2</ele>
        <time>2019-05-11T08:09:25Z</time>
      </trkpt>
      <trkpt lat="39.2428400" lon="-1.5387990">
        <ele>663.6</ele>
        <time>2019-05-11T08:09:26Z</time>
      </trkpt>
      <trkpt lat="39.2428170" lon="-1.5388630">
        <ele>663.0</ele>
        <time>2019-05-11T08:09:27Z</time>
      </trkpt>
      <trkpt lat="39.2427840" lon="-1.5389250">
        <ele>662.6</ele>
        <time>2019-05-11T08:09:28Z</time>
      </trkpt>
      <trkpt lat="39.2427500" lon="-1.5389810">
        <ele>662.2</ele>
        <time>2019-05-11T08:09:29Z</time>
      </trkpt>
      <trkpt lat="39.2427100" lon="-1.5390310">
        <ele>662.2</ele>
        <time>2019-05-11T08:09:30Z</time>
      </trkpt>
      <trkpt lat="39.2426690" lon="-1.5390740">
        <ele>662.0</ele>
        <time>2019-05-11T08:09:31Z</time>
      </trkpt>
      <trkpt lat="39.2426230" lon="-1.5391110">
        <ele>662.0</ele>
        <time>2019-05-11T08:09:32Z</time>
      </trkpt>
      <trkpt lat="39.2425820" lon="-1.5391390">
        <ele>661.8</ele>
        <time>2019-05-11T08:09:33Z</time>
      </trkpt>
      <trkpt lat="39.2425490" lon="-1.5391590">
        <ele>661.8</ele>
        <time>2019-05-11T08:09:34Z</time>
      </trkpt>
      <trkpt lat="39.2425210" lon="-1.5391760">
        <ele>661.6</ele>
        <time>2019-05-11T08:09:35Z</time>
      </trkpt>
      <trkpt lat="39.2424970" lon="-1.5391990">
        <ele>661.4</ele>
        <time>2019-05-11T08:09:36Z</time>
      </trkpt>
      <trkpt lat="39.2424870" lon="-1.5392350">
        <ele>661.4</ele>
        <time>2019-05-11T08:09:37Z</time>
      </trkpt>
      <trkpt lat="39.2424850" lon="-1.5392800">
        <ele>661.2</ele>
        <time>2019-05-11T08:09:38Z</time>
      </trkpt>
      <trkpt lat="39.2424790" lon="-1.5393180">
        <ele>661.2</ele>
        <time>2019-05-11T08:09:39Z</time>
      </trkpt>
      <trkpt lat="39.2424690" lon="-1.5393470">
        <ele>661.2</ele>
        <time>2019-05-11T08:09:40Z</time>
      </trkpt>
      <trkpt lat="39.2424560" lon="-1.5393690">
        <ele>661.2</ele>
        <time>2019-05-11T08:09:41Z</time>
      </trkpt>
      <trkpt lat="39.2424420" lon="-1.5393890">
        <ele>661.2</ele>
        <time>2019-05-11T08:09:42Z</time>
      </trkpt>
      <trkpt lat="39.2424270" lon="-1.5394070">
        <ele>661.2</ele>
        <time>2019-05-11T08:09:43Z</time>
      </trkpt>
      <trkpt lat="39.2424120" lon="-1.5394230">
        <ele>661.2</ele>
        <time>2019-05-11T08:09:44Z</time>
      </trkpt>
      <trkpt lat="39.2423980" lon="-1.5394380">
        <ele>661.2</ele>
        <time>2019-05-11T08:09:45Z</time>
      </trkpt>
      <trkpt lat="39.2423850" lon="-1.5394530">
        <ele>661.2</ele>
        <time>2019-05-11T08:09:46Z</time>
      </trkpt>
      <trkpt lat="39.2423730" lon="-1.5394680">
        <ele>661.2</ele>
        <time>2019-05-11T08:09:47Z</time>
      </trkpt>
      <trkpt lat="39.2423610" lon="-1.5394850">
        <ele>661.2</ele>
        <time>2019-05-11T08:09:48Z</time>
      </trkpt>
      <trkpt lat="39.2423530" lon="-1.5395070">
        <ele>661.6</ele>
        <time>2019-05-11T08:09:49Z</time>
      </trkpt>
      <trkpt lat="39.2423510" lon="-1.5395330">
        <ele>662.0</ele>
        <time>2019-05-11T08:09:50Z</time>
      </trkpt>
      <trkpt lat="39.2423580" lon="-1.5395610">
        <ele>662.2</ele>
        <time>2019-05-11T08:09:51Z</time>
      </trkpt>
      <trkpt lat="39.2423720" lon="-1.5395930">
        <ele>662.6</ele>
        <time>2019-05-11T08:09:52Z</time>
      </trkpt>
      <trkpt lat="39.2423870" lon="-1.5396280">
        <ele>663.2</ele>
        <time>2019-05-11T08:09:53Z</time>
      </trkpt>
      <trkpt lat="39.2424010" lon="-1.5396630">
        <ele>664.2</ele>
        <time>2019-05-11T08:09:54Z</time>
      </trkpt>
      <trkpt lat="39.2424150" lon="-1.5396980">
        <ele>664.6</ele>
        <time>2019-05-11T08:09:55Z</time>
      </trkpt>
      <trkpt lat="39.2424320" lon="-1.5397340">
        <ele>665.0</ele>
        <time>2019-05-11T08:09:56Z</time>
      </trkpt>
      <trkpt lat="39.2424440" lon="-1.5397780">
        <ele>665.2</ele>
        <time>2019-05-11T08:09:57Z</time>
      </trkpt>
      <trkpt lat="39.2424540" lon="-1.5398310">
        <ele>665.2</ele>
        <time>2019-05-11T08:09:58Z</time>
      </trkpt>
      <trkpt lat="39.2424620" lon="-1.5398910">
        <ele>665.2</ele>
        <time>2019-05-11T08:09:59Z</time>
      </trkpt>
      <trkpt lat="39.2424650" lon="-1.5399510">
        <ele>665.4</ele>
        <time>2019-05-11T08:10:00Z</time>
      </trkpt>
      <trkpt lat="39.2424630" lon="-1.5400120">
        <ele>665.6</ele>
        <time>2019-05-11T08:10:01Z</time>
      </trkpt>
      <trkpt lat="39.2424580" lon="-1.5400720">
        <ele>665.8</ele>
        <time>2019-05-11T08:10:02Z</time>
      </trkpt>
      <trkpt lat="39.2424570" lon="-1.5401330">
        <ele>666.0</ele>
        <time>2019-05-11T08:10:03Z</time>
      </trkpt>
      <trkpt lat="39.2424620" lon="-1.5401890">
        <ele>666.0</ele>
        <time>2019-05-11T08:10:04Z</time>
      </trkpt>
      <trkpt lat="39.2424650" lon="-1.5402390">
        <ele>666.0</ele>
        <time>2019-05-11T08:10:05Z</time>
      </trkpt>
      <trkpt lat="39.2424560" lon="-1.5402820">
        <ele>666.2</ele>
        <time>2019-05-11T08:10:06Z</time>
      </trkpt>
      <trkpt lat="39.2424390" lon="-1.5403190">
        <ele>666.2</ele>
        <time>2019-05-11T08:10:07Z</time>
      </trkpt>
      <trkpt lat="39.2424180" lon="-1.5403550">
        <ele>666.4</ele>
        <time>2019-05-11T08:10:08Z</time>
      </trkpt>
      <trkpt lat="39.2423950" lon="-1.5403920">
        <ele>666.4</ele>
        <time>2019-05-11T08:10:09Z</time>
      </trkpt>
      <trkpt lat="39.2423710" lon="-1.5404320">
        <ele>666.4</ele>
        <time>2019-05-11T08:10:10Z</time>
      </trkpt>
      <trkpt lat="39.2423480" lon="-1.5404740">
        <ele>666.6</ele>
        <time>2019-05-11T08:10:11Z</time>
      </trkpt>
      <trkpt lat="39.2423230" lon="-1.5405130">
        <ele>666.8</ele>
        <time>2019-05-11T08:10:12Z</time>
      </trkpt>
      <trkpt lat="39.2422960" lon="-1.5405450">
        <ele>667.0</ele>
        <time>2019-05-11T08:10:13Z</time>
      </trkpt>
      <trkpt lat="39.2422650" lon="-1.5405590">
        <ele>667.4</ele>
        <time>2019-05-11T08:10:14Z</time>
      </trkpt>
      <trkpt lat="39.2422330" lon="-1.5405500">
        <ele>667.4</ele>
        <time>2019-05-11T08:10:15Z</time>
      </trkpt>
      <trkpt lat="39.2422000" lon="-1.5405260">
        <ele>667.6</ele>
        <time>2019-05-11T08:10:16Z</time>
      </trkpt>
      <trkpt lat="39.2421630" lon="-1.5404980">
        <ele>667.6</ele>
        <time>2019-05-11T08:10:17Z</time>
      </trkpt>
      <trkpt lat="39.2421220" lon="-1.5404710">
        <ele>667.6</ele>
        <time>2019-05-11T08:10:18Z</time>
      </trkpt>
      <trkpt lat="39.2420790" lon="-1.5404420">
        <ele>668.0</ele>
        <time>2019-05-11T08:10:19Z</time>
      </trkpt>
      <trkpt lat="39.2420350" lon="-1.5404230">
        <ele>668.0</ele>
        <time>2019-05-11T08:10:20Z</time>
      </trkpt>
      <trkpt lat="39.2419930" lon="-1.5404280">
        <ele>668.2</ele>
        <time>2019-05-11T08:10:21Z</time>
      </trkpt>
      <trkpt lat="39.2419520" lon="-1.5404390">
        <ele>668.2</ele>
        <time>2019-05-11T08:10:22Z</time>
      </trkpt>
      <trkpt lat="39.2419100" lon="-1.5404400">
        <ele>668.2</ele>
        <time>2019-05-11T08:10:23Z</time>
      </trkpt>
      <trkpt lat="39.2418670" lon="-1.5404290">
        <ele>668.2</ele>
        <time>2019-05-11T08:10:24Z</time>
      </trkpt>
      <trkpt lat="39.2418260" lon="-1.5404110">
        <ele>668.2</ele>
        <time>2019-05-11T08:10:25Z</time>
      </trkpt>
      <trkpt lat="39.2417850" lon="-1.5403840">
        <ele>668.2</ele>
        <time>2019-05-11T08:10:26Z</time>
      </trkpt>
      <trkpt lat="39.2417480" lon="-1.5403500">
        <ele>668.2</ele>
        <time>2019-05-11T08:10:27Z</time>
      </trkpt>
      <trkpt lat="39.2417110" lon="-1.5403120">
        <ele>668.2</ele>
        <time>2019-05-11T08:10:28Z</time>
      </trkpt>
      <trkpt lat="39.2416690" lon="-1.5402880">
        <ele>668.2</ele>
        <time>2019-05-11T08:10:29Z</time>
      </trkpt>
      <trkpt lat="39.2416240" lon="-1.5402830">
        <ele>668.2</ele>
        <time>2019-05-11T08:10:30Z</time>
      </trkpt>
      <trkpt lat="39.2415780" lon="-1.5402740">
        <ele>668.2</ele>
        <time>2019-05-11T08:10:31Z</time>
      </trkpt>
      <trkpt lat="39.2415320" lon="-1.5402580">
        <ele>668.2</ele>
        <time>2019-05-11T08:10:32Z</time>
      </trkpt>
      <trkpt lat="39.2414850" lon="-1.5402370">
        <ele>668.2</ele>
        <time>2019-05-11T08:10:33Z</time>
      </trkpt>
      <trkpt lat="39.2414380" lon="-1.5402110">
        <ele>668.0</ele>
        <time>2019-05-11T08:10:34Z</time>
      </trkpt>
      <trkpt lat="39.2413920" lon="-1.5401810">
        <ele>668.0</ele>
        <time>2019-05-11T08:10:35Z</time>
      </trkpt>
      <trkpt lat="39.2413480" lon="-1.5401520">
        <ele>668.0</ele>
        <time>2019-05-11T08:10:36Z</time>
      </trkpt>
      <trkpt lat="39.2413040" lon="-1.5401210">
        <ele>668.0</ele>
        <time>2019-05-11T08:10:37Z</time>
      </trkpt>
      <trkpt lat="39.2412620" lon="-1.5400840">
        <ele>668.0</ele>
        <time>2019-05-11T08:10:38Z</time>
      </trkpt>
      <trkpt lat="39.2412200" lon="-1.5400430">
        <ele>668.0</ele>
        <time>2019-05-11T08:10:39Z</time>
      </trkpt>
      <trkpt lat="39.2411800" lon="-1.5400030">
        <ele>668.0</ele>
        <time>2019-05-11T08:10:40Z</time>
      </trkpt>
      <trkpt lat="39.2411410" lon="-1.5399700">
        <ele>668.0</ele>
        <time>2019-05-11T08:10:41Z</time>
      </trkpt>
      <trkpt lat="39.2410990" lon="-1.5399470">
        <ele>668.0</ele>
        <time>2019-05-11T08:10:42Z</time>
      </trkpt>
      <trkpt lat="39.2410570" lon="-1.5399250">
        <ele>668.0</ele>
        <time>2019-05-11T08:10:43Z</time>
      </trkpt>
      <trkpt lat="39.2410100" lon="-1.5399080">
        <ele>667.8</ele>
        <time>2019-05-11T08:10:44Z</time>
      </trkpt>
      <trkpt lat="39.2409630" lon="-1.5398930">
        <ele>667.8</ele>
        <time>2019-05-11T08:10:45Z</time>
      </trkpt>
      <trkpt lat="39.2409190" lon="-1.5398760">
        <ele>667.8</ele>
        <time>2019-05-11T08:10:46Z</time>
      </trkpt>
      <trkpt lat="39.2408740" lon="-1.5398560">
        <ele>667.8</ele>
        <time>2019-05-11T08:10:47Z</time>
      </trkpt>
      <trkpt lat="39.2408300" lon="-1.5398400">
        <ele>667.8</ele>
        <time>2019-05-11T08:10:48Z</time>
      </trkpt>
      <trkpt lat="39.2407930" lon="-1.5398280">
        <ele>667.8</ele>
        <time>2019-05-11T08:10:49Z</time>
      </trkpt>
      <trkpt lat="39.2407600" lon="-1.5398190">
        <ele>667.6</ele>
        <time>2019-05-11T08:10:50Z</time>
      </trkpt>
      <trkpt lat="39.2407280" lon="-1.5398070">
        <ele>667.4</ele>
        <time>2019-05-11T08:10:51Z</time>
      </trkpt>
      <trkpt lat="39.2407000" lon="-1.5397970">
        <ele>667.2</ele>
        <time>2019-05-11T08:10:52Z</time>
      </trkpt>
      <trkpt lat="39.2406700" lon="-1.5397890">
        <ele>667.0</ele>
        <time>2019-05-11T08:10:53Z</time>
      </trkpt>
      <trkpt lat="39.2406360" lon="-1.5397880">
        <ele>666.8</ele>
        <time>2019-05-11T08:10:54Z</time>
      </trkpt>
      <trkpt lat="39.2405970" lon="-1.5397900">
        <ele>666.6</ele>
        <time>2019-05-11T08:10:55Z</time>
      </trkpt>
      <trkpt lat="39.2405540" lon="-1.5397950">
        <ele>666.2</ele>
        <time>2019-05-11T08:10:56Z</time>
      </trkpt>
      <trkpt lat="39.2405110" lon="-1.5397990">
        <ele>666.0</ele>
        <time>2019-05-11T08:10:57Z</time>
      </trkpt>
      <trkpt lat="39.2404670" lon="-1.5398040">
        <ele>665.8</ele>
        <time>2019-05-11T08:10:58Z</time>
      </trkpt>
      <trkpt lat="39.2404200" lon="-1.5398140">
        <ele>665.6</ele>
        <time>2019-05-11T08:10:59Z</time>
      </trkpt>
      <trkpt lat="39.2403710" lon="-1.5398280">
        <ele>665.8</ele>
        <time>2019-05-11T08:11:00Z</time>
      </trkpt>
      <trkpt lat="39.2403250" lon="-1.5398450">
        <ele>665.6</ele>
        <time>2019-05-11T08:11:01Z</time>
      </trkpt>
      <trkpt lat="39.2402830" lon="-1.5398680">
        <ele>665.6</ele>
        <time>2019-05-11T08:11:02Z</time>
      </trkpt>
      <trkpt lat="39.2402440" lon="-1.5398910">
        <ele>665.2</ele>
        <time>2019-05-11T08:11:03Z</time>
      </trkpt>
      <trkpt lat="39.2402070" lon="-1.5399150">
        <ele>665.2</ele>
        <time>2019-05-11T08:11:04Z</time>
      </trkpt>
      <trkpt lat="39.2401700" lon="-1.5399470">
        <ele>664.8</ele>
        <time>2019-05-11T08:11:05Z</time>
      </trkpt>
      <trkpt lat="39.2401340" lon="-1.5399820">
        <ele>664.8</ele>
        <time>2019-05-11T08:11:06Z</time>
      </trkpt>
      <trkpt lat="39.2400970" lon="-1.5400040">
        <ele>664.8</ele>
        <time>2019-05-11T08:11:07Z</time>
      </trkpt>
      <trkpt lat="39.2400550" lon="-1.5400070">
        <ele>664.6</ele>
        <time>2019-05-11T08:11:08Z</time>
      </trkpt>
      <trkpt lat="39.2400100" lon="-1.5400000">
        <ele>664.6</ele>
        <time>2019-05-11T08:11:09Z</time>
      </trkpt>
      <trkpt lat="39.2399670" lon="-1.5399880">
        <ele>664.6</ele>
        <time>2019-05-11T08:11:10Z</time>
      </trkpt>
      <trkpt lat="39.2399280" lon="-1.5399700">
        <ele>664.6</ele>
        <time>2019-05-11T08:11:11Z</time>
      </trkpt>
      <trkpt lat="39.2398890" lon="-1.5399550">
        <ele>664.6</ele>
        <time>2019-05-11T08:11:12Z</time>
      </trkpt>
      <trkpt lat="39.2398460" lon="-1.5399480">
        <ele>664.6</ele>
        <time>2019-05-11T08:11:13Z</time>
      </trkpt>
      <trkpt lat="39.2398000" lon="-1.5399420">
        <ele>664.6</ele>
        <time>2019-05-11T08:11:14Z</time>
      </trkpt>
      <trkpt lat="39.2397530" lon="-1.5399360">
        <ele>664.6</ele>
        <time>2019-05-11T08:11:15Z</time>
      </trkpt>
      <trkpt lat="39.2397080" lon="-1.5399360">
        <ele>664.4</ele>
        <time>2019-05-11T08:11:16Z</time>
      </trkpt>
      <trkpt lat="39.2396670" lon="-1.5399430">
        <ele>664.4</ele>
        <time>2019-05-11T08:11:17Z</time>
      </trkpt>
      <trkpt lat="39.2396320" lon="-1.5399600">
        <ele>664.6</ele>
        <time>2019-05-11T08:11:18Z</time>
      </trkpt>
      <trkpt lat="39.2395990" lon="-1.5399870">
        <ele>664.6</ele>
        <time>2019-05-11T08:11:19Z</time>
      </trkpt>
      <trkpt lat="39.2395670" lon="-1.5400110">
        <ele>664.6</ele>
        <time>2019-05-11T08:11:20Z</time>
      </trkpt>
      <trkpt lat="39.2395310" lon="-1.5400330">
        <ele>664.6</ele>
        <time>2019-05-11T08:11:21Z</time>
      </trkpt>
      <trkpt lat="39.2394940" lon="-1.5400530">
        <ele>664.6</ele>
        <time>2019-05-11T08:11:22Z</time>
      </trkpt>
      <trkpt lat="39.2394540" lon="-1.5400730">
        <ele>664.6</ele>
        <time>2019-05-11T08:11:23Z</time>
      </trkpt>
      <trkpt lat="39.2394150" lon="-1.5400990">
        <ele>664.6</ele>
        <time>2019-05-11T08:11:24Z</time>
      </trkpt>
      <trkpt lat="39.2393770" lon="-1.5401270">
        <ele>664.6</ele>
        <time>2019-05-11T08:11:25Z</time>
      </trkpt>
      <trkpt lat="39.2393390" lon="-1.5401510">
        <ele>664.6</ele>
        <time>2019-05-11T08:11:26Z</time>
      </trkpt>
      <trkpt lat="39.2392990" lon="-1.5401700">
        <ele>664.6</ele>
        <time>2019-05-11T08:11:27Z</time>
      </trkpt>
      <trkpt lat="39.2392550" lon="-1.5401830">
        <ele>664.8</ele>
        <time>2019-05-11T08:11:28Z</time>
      </trkpt>
      <trkpt lat="39.2392070" lon="-1.5401980">
        <ele>664.8</ele>
        <time>2019-05-11T08:11:29Z</time>
      </trkpt>
      <trkpt lat="39.2391560" lon="-1.5402180">
        <ele>664.8</ele>
        <time>2019-05-11T08:11:30Z</time>
      </trkpt>
      <trkpt lat="39.2391050" lon="-1.5402430">
        <ele>665.0</ele>
        <time>2019-05-11T08:11:31Z</time>
      </trkpt>
      <trkpt lat="39.2390550" lon="-1.5402730">
        <ele>665.2</ele>
        <time>2019-05-11T08:11:32Z</time>
      </trkpt>
      <trkpt lat="39.2390040" lon="-1.5403090">
        <ele>665.4</ele>
        <time>2019-05-11T08:11:33Z</time>
      </trkpt>
      <trkpt lat="39.2389480" lon="-1.5403450">
        <ele>665.6</ele>
        <time>2019-05-11T08:11:34Z</time>
      </trkpt>
      <trkpt lat="39.2388890" lon="-1.5403770">
        <ele>665.8</ele>
        <time>2019-05-11T08:11:35Z</time>
      </trkpt>
      <trkpt lat="39.2388250" lon="-1.5404080">
        <ele>665.8</ele>
        <time>2019-05-11T08:11:36Z</time>
      </trkpt>
      <trkpt lat="39.2387590" lon="-1.5404430">
        <ele>665.8</ele>
        <time>2019-05-11T08:11:37Z</time>
      </trkpt>
      <trkpt lat="39.2386950" lon="-1.5404900">
        <ele>665.8</ele>
        <time>2019-05-11T08:11:38Z</time>
      </trkpt>
      <trkpt lat="39.2386340" lon="-1.5405440">
        <ele>665.8</ele>
        <time>2019-05-11T08:11:39Z</time>
      </trkpt>
      <trkpt lat="39.2385780" lon="-1.5406000">
        <ele>665.8</ele>
        <time>2019-05-11T08:11:40Z</time>
      </trkpt>
      <trkpt lat="39.2385410" lon="-1.5406640">
        <ele>665.8</ele>
        <time>2019-05-11T08:11:41Z</time>
      </trkpt>
      <trkpt lat="39.2385270" lon="-1.5407360">
        <ele>665.8</ele>
        <time>2019-05-11T08:11:42Z</time>
      </trkpt>
      <trkpt lat="39.2385160" lon="-1.5408080">
        <ele>665.6</ele>
        <time>2019-05-11T08:11:43Z</time>
      </trkpt>
      <trkpt lat="39.2384930" lon="-1.5408760">
        <ele>665.4</ele>
        <time>2019-05-11T08:11:44Z</time>
      </trkpt>
      <trkpt lat="39.2384560" lon="-1.5409330">
        <ele>665.2</ele>
        <time>2019-05-11T08:11:45Z</time>
      </trkpt>
      <trkpt lat="39.2384040" lon="-1.5409800">
        <ele>665.0</ele>
        <time>2019-05-11T08:11:46Z</time>
      </trkpt>
      <trkpt lat="39.2383470" lon="-1.5410280">
        <ele>664.8</ele>
        <time>2019-05-11T08:11:47Z</time>
      </trkpt>
      <trkpt lat="39.2382980" lon="-1.5410840">
        <ele>664.2</ele>
        <time>2019-05-11T08:11:48Z</time>
      </trkpt>
      <trkpt lat="39.2382560" lon="-1.5411410">
        <ele>663.4</ele>
        <time>2019-05-11T08:11:49Z</time>
      </trkpt>
      <trkpt lat="39.2382140" lon="-1.5411880">
        <ele>663.0</ele>
        <time>2019-05-11T08:11:50Z</time>
      </trkpt>
      <trkpt lat="39.2381720" lon="-1.5412320">
        <ele>662.8</ele>
        <time>2019-05-11T08:11:51Z</time>
      </trkpt>
      <trkpt lat="39.2381320" lon="-1.5412700">
        <ele>662.6</ele>
        <time>2019-05-11T08:11:52Z</time>
      </trkpt>
      <trkpt lat="39.2380930" lon="-1.5413050">
        <ele>662.2</ele>
        <time>2019-05-11T08:11:53Z</time>
      </trkpt>
      <trkpt lat="39.2380530" lon="-1.5413390">
        <ele>661.4</ele>
        <time>2019-05-11T08:11:54Z</time>
      </trkpt>
      <trkpt lat="39.2380170" lon="-1.5413770">
        <ele>661.2</ele>
        <time>2019-05-11T08:11:55Z</time>
      </trkpt>
      <trkpt lat="39.2379810" lon="-1.5414240">
        <ele>660.8</ele>
        <time>2019-05-11T08:11:56Z</time>
      </trkpt>
      <trkpt lat="39.2379530" lon="-1.5414700">
        <ele>660.8</ele>
        <time>2019-05-11T08:11:57Z</time>
      </trkpt>
      <trkpt lat="39.2379180" lon="-1.5415190">
        <ele>660.6</ele>
        <time>2019-05-11T08:11:58Z</time>
      </trkpt>
      <trkpt lat="39.2378790" lon="-1.5415800">
        <ele>660.6</ele>
        <time>2019-05-11T08:11:59Z</time>
      </trkpt>
      <trkpt lat="39.2378400" lon="-1.5416380">
        <ele>660.4</ele>
        <time>2019-05-11T08:12:00Z</time>
      </trkpt>
      <trkpt lat="39.2378150" lon="-1.5416870">
        <ele>660.4</ele>
        <time>2019-05-11T08:12:01Z</time>
      </trkpt>
      <trkpt lat="39.2378120" lon="-1.5417390">
        <ele>660.4</ele>
        <time>2019-05-11T08:12:02Z</time>
      </trkpt>
      <trkpt lat="39.2378170" lon="-1.5417960">
        <ele>660.4</ele>
        <time>2019-05-11T08:12:03Z</time>
      </trkpt>
      <trkpt lat="39.2378200" lon="-1.5418560">
        <ele>660.4</ele>
        <time>2019-05-11T08:12:04Z</time>
      </trkpt>
      <trkpt lat="39.2378030" lon="-1.5419130">
        <ele>660.2</ele>
        <time>2019-05-11T08:12:05Z</time>
      </trkpt>
      <trkpt lat="39.2377740" lon="-1.5419590">
        <ele>659.8</ele>
        <time>2019-05-11T08:12:06Z</time>
      </trkpt>
      <trkpt lat="39.2377380" lon="-1.5419980">
        <ele>659.4</ele>
        <time>2019-05-11T08:12:07Z</time>
      </trkpt>
      <trkpt lat="39.2376990" lon="-1.5420340">
        <ele>659.0</ele>
        <time>2019-05-11T08:12:08Z</time>
      </trkpt>
      <trkpt lat="39.2376620" lon="-1.5420680">
        <ele>658.6</ele>
        <time>2019-05-11T08:12:09Z</time>
      </trkpt>
      <trkpt lat="39.2376260" lon="-1.5420980">
        <ele>658.0</ele>
        <time>2019-05-11T08:12:10Z</time>
      </trkpt>
      <trkpt lat="39.2375920" lon="-1.5421300">
        <ele>657.6</ele>
        <time>2019-05-11T08:12:11Z</time>
      </trkpt>
      <trkpt lat="39.2375590" lon="-1.5421600">
        <ele>657.4</ele>
        <time>2019-05-11T08:12:12Z</time>
      </trkpt>
      <trkpt lat="39.2375270" lon="-1.5421880">
        <ele>657.2</ele>
        <time>2019-05-11T08:12:13Z</time>
      </trkpt>
      <trkpt lat="39.2374950" lon="-1.5422120">
        <ele>657.2</ele>
        <time>2019-05-11T08:12:14Z</time>
      </trkpt>
      <trkpt lat="39.2374590" lon="-1.5422320">
        <ele>657.0</ele>
        <time>2019-05-11T08:12:15Z</time>
      </trkpt>
      <trkpt lat="39.2374230" lon="-1.5422570">
        <ele>657.0</ele>
        <time>2019-05-11T08:12:16Z</time>
      </trkpt>
      <trkpt lat="39.2373900" lon="-1.5422910">
        <ele>657.0</ele>
        <time>2019-05-11T08:12:17Z</time>
      </trkpt>
      <trkpt lat="39.2373580" lon="-1.5423270">
        <ele>657.0</ele>
        <time>2019-05-11T08:12:18Z</time>
      </trkpt>
      <trkpt lat="39.2373300" lon="-1.5423630">
        <ele>656.8</ele>
        <time>2019-05-11T08:12:19Z</time>
      </trkpt>
      <trkpt lat="39.2373110" lon="-1.5423980">
        <ele>656.8</ele>
        <time>2019-05-11T08:12:20Z</time>
      </trkpt>
      <trkpt lat="39.2372960" lon="-1.5424320">
        <ele>656.8</ele>
        <time>2019-05-11T08:12:21Z</time>
      </trkpt>
      <trkpt lat="39.2372780" lon="-1.5424620">
        <ele>656.6</ele>
        <time>2019-05-11T08:12:22Z</time>
      </trkpt>
      <trkpt lat="39.2372630" lon="-1.5424940">
        <ele>656.6</ele>
        <time>2019-05-11T08:12:23Z</time>
      </trkpt>
      <trkpt lat="39.2372440" lon="-1.5425270">
        <ele>656.6</ele>
        <time>2019-05-11T08:12:24Z</time>
      </trkpt>
      <trkpt lat="39.2372200" lon="-1.5425600">
        <ele>656.4</ele>
        <time>2019-05-11T08:12:25Z</time>
      </trkpt>
      <trkpt lat="39.2371890" lon="-1.5425900">
        <ele>656.4</ele>
        <time>2019-05-11T08:12:26Z</time>
      </trkpt>
      <trkpt lat="39.2371550" lon="-1.5426180">
        <ele>656.4</ele>
        <time>2019-05-11T08:12:27Z</time>
      </trkpt>
      <trkpt lat="39.2371210" lon="-1.5426470">
        <ele>656.2</ele>
        <time>2019-05-11T08:12:28Z</time>
      </trkpt>
      <trkpt lat="39.2370920" lon="-1.5426760">
        <ele>656.2</ele>
        <time>2019-05-11T08:12:29Z</time>
      </trkpt>
      <trkpt lat="39.2370720" lon="-1.5427100">
        <ele>656.2</ele>
        <time>2019-05-11T08:12:30Z</time>
      </trkpt>
      <trkpt lat="39.2370580" lon="-1.5427540">
        <ele>656.2</ele>
        <time>2019-05-11T08:12:31Z</time>
      </trkpt>
      <trkpt lat="39.2370400" lon="-1.5428130">
        <ele>656.2</ele>
        <time>2019-05-11T08:12:32Z</time>
      </trkpt>
      <trkpt lat="39.2370240" lon="-1.5428800">
        <ele>656.0</ele>
        <time>2019-05-11T08:12:33Z</time>
      </trkpt>
      <trkpt lat="39.2370180" lon="-1.5429460">
        <ele>656.0</ele>
        <time>2019-05-11T08:12:34Z</time>
      </trkpt>
      <trkpt lat="39.2370110" lon="-1.5430090">
        <ele>655.8</ele>
        <time>2019-05-11T08:12:35Z</time>
      </trkpt>
      <trkpt lat="39.2370010" lon="-1.5430730">
        <ele>655.8</ele>
        <time>2019-05-11T08:12:36Z</time>
      </trkpt>
      <trkpt lat="39.2369950" lon="-1.5431380">
        <ele>655.0</ele>
        <time>2019-05-11T08:12:37Z</time>
      </trkpt>
      <trkpt lat="39.2369960" lon="-1.5432080">
        <ele>654.6</ele>
        <time>2019-05-11T08:12:38Z</time>
      </trkpt>
      <trkpt lat="39.2369950" lon="-1.5432720">
        <ele>654.2</ele>
        <time>2019-05-11T08:12:39Z</time>
      </trkpt>
      <trkpt lat="39.2369930" lon="-1.5433210">
        <ele>653.6</ele>
        <time>2019-05-11T08:12:40Z</time>
      </trkpt>
      <trkpt lat="39.2369940" lon="-1.5433610">
        <ele>652.8</ele>
        <time>2019-05-11T08:12:41Z</time>
      </trkpt>
      <trkpt lat="39.2369980" lon="-1.5433970">
        <ele>652.2</ele>
        <time>2019-05-11T08:12:42Z</time>
      </trkpt>
      <trkpt lat="39.2369990" lon="-1.5434320">
        <ele>651.6</ele>
        <time>2019-05-11T08:12:43Z</time>
      </trkpt>
      <trkpt lat="39.2369950" lon="-1.5434640">
        <ele>651.4</ele>
        <time>2019-05-11T08:12:44Z</time>
      </trkpt>
      <trkpt lat="39.2369920" lon="-1.5434940">
        <ele>651.2</ele>
        <time>2019-05-11T08:12:45Z</time>
      </trkpt>
      <trkpt lat="39.2369910" lon="-1.5435310">
        <ele>651.2</ele>
        <time>2019-05-11T08:12:46Z</time>
      </trkpt>
      <trkpt lat="39.2369860" lon="-1.5435720">
        <ele>651.0</ele>
        <time>2019-05-11T08:12:47Z</time>
      </trkpt>
      <trkpt lat="39.2369780" lon="-1.5436200">
        <ele>651.0</ele>
        <time>2019-05-11T08:12:48Z</time>
      </trkpt>
      <trkpt lat="39.2369700" lon="-1.5436740">
        <ele>651.0</ele>
        <time>2019-05-11T08:12:49Z</time>
      </trkpt>
      <trkpt lat="39.2369640" lon="-1.5437340">
        <ele>651.0</ele>
        <time>2019-05-11T08:12:50Z</time>
      </trkpt>
      <trkpt lat="39.2369520" lon="-1.5437950">
        <ele>651.0</ele>
        <time>2019-05-11T08:12:51Z</time>
      </trkpt>
      <trkpt lat="39.2369320" lon="-1.5438520">
        <ele>651.2</ele>
        <time>2019-05-11T08:12:52Z</time>
      </trkpt>
      <trkpt lat="39.2369090" lon="-1.5439030">
        <ele>651.2</ele>
        <time>2019-05-11T08:12:53Z</time>
      </trkpt>
      <trkpt lat="39.2368920" lon="-1.5439540">
        <ele>651.2</ele>
        <time>2019-05-11T08:12:54Z</time>
      </trkpt>
      <trkpt lat="39.2368800" lon="-1.5440100">
        <ele>651.4</ele>
        <time>2019-05-11T08:12:55Z</time>
      </trkpt>
      <trkpt lat="39.2368710" lon="-1.5440680">
        <ele>651.4</ele>
        <time>2019-05-11T08:12:56Z</time>
      </trkpt>
      <trkpt lat="39.2368650" lon="-1.5441260">
        <ele>651.4</ele>
        <time>2019-05-11T08:12:57Z</time>
      </trkpt>
      <trkpt lat="39.2368610" lon="-1.5441840">
        <ele>651.6</ele>
        <time>2019-05-11T08:12:58Z</time>
      </trkpt>
      <trkpt lat="39.2368570" lon="-1.5442420">
        <ele>651.6</ele>
        <time>2019-05-11T08:12:59Z</time>
      </trkpt>
      <trkpt lat="39.2368510" lon="-1.5443000">
        <ele>651.8</ele>
        <time>2019-05-11T08:13:00Z</time>
      </trkpt>
      <trkpt lat="39.2368480" lon="-1.5443590">
        <ele>651.8</ele>
        <time>2019-05-11T08:13:01Z</time>
      </trkpt>
      <trkpt lat="39.2368460" lon="-1.5444200">
        <ele>651.8</ele>
        <time>2019-05-11T08:13:02Z</time>
      </trkpt>
      <trkpt lat="39.2368460" lon="-1.5444830">
        <ele>652.0</ele>
        <time>2019-05-11T08:13:03Z</time>
      </trkpt>
      <trkpt lat="39.2368470" lon="-1.5445480">
        <ele>652.4</ele>
        <time>2019-05-11T08:13:04Z</time>
      </trkpt>
      <trkpt lat="39.2368510" lon="-1.5446170">
        <ele>652.6</ele>
        <time>2019-05-11T08:13:05Z</time>
      </trkpt>
      <trkpt lat="39.2368580" lon="-1.5446870">
        <ele>653.0</ele>
        <time>2019-05-11T08:13:06Z</time>
      </trkpt>
      <trkpt lat="39.2368700" lon="-1.5447590">
        <ele>653.2</ele>
        <time>2019-05-11T08:13:07Z</time>
      </trkpt>
      <trkpt lat="39.2368840" lon="-1.5448330">
        <ele>653.4</ele>
        <time>2019-05-11T08:13:08Z</time>
      </trkpt>
      <trkpt lat="39.2369040" lon="-1.5449070">
        <ele>653.6</ele>
        <time>2019-05-11T08:13:09Z</time>
      </trkpt>
      <trkpt lat="39.2369260" lon="-1.5449810">
        <ele>653.6</ele>
        <time>2019-05-11T08:13:10Z</time>
      </trkpt>
      <trkpt lat="39.2369490" lon="-1.5450590">
        <ele>653.6</ele>
        <time>2019-05-11T08:13:11Z</time>
      </trkpt>
      <trkpt lat="39.2369730" lon="-1.5451370">
        <ele>653.6</ele>
        <time>2019-05-11T08:13:12Z</time>
      </trkpt>
      <trkpt lat="39.2369950" lon="-1.5452140">
        <ele>653.6</ele>
        <time>2019-05-11T08:13:13Z</time>
      </trkpt>
      <trkpt lat="39.2370150" lon="-1.5452900">
        <ele>653.6</ele>
        <time>2019-05-11T08:13:14Z</time>
      </trkpt>
      <trkpt lat="39.2370330" lon="-1.5453640">
        <ele>653.6</ele>
        <time>2019-05-11T08:13:15Z</time>
      </trkpt>
      <trkpt lat="39.2370530" lon="-1.5454360">
        <ele>653.6</ele>
        <time>2019-05-11T08:13:16Z</time>
      </trkpt>
      <trkpt lat="39.2370740" lon="-1.5455080">
        <ele>653.4</ele>
        <time>2019-05-11T08:13:17Z</time>
      </trkpt>
      <trkpt lat="39.2370980" lon="-1.5455830">
        <ele>653.4</ele>
        <time>2019-05-11T08:13:18Z</time>
      </trkpt>
      <trkpt lat="39.2371300" lon="-1.5456590">
        <ele>653.4</ele>
        <time>2019-05-11T08:13:19Z</time>
      </trkpt>
      <trkpt lat="39.2371620" lon="-1.5457340">
        <ele>653.4</ele>
        <time>2019-05-11T08:13:20Z</time>
      </trkpt>
      <trkpt lat="39.2371940" lon="-1.5458110">
        <ele>653.2</ele>
        <time>2019-05-11T08:13:21Z</time>
      </trkpt>
      <trkpt lat="39.2372310" lon="-1.5458830">
        <ele>653.2</ele>
        <time>2019-05-11T08:13:22Z</time>
      </trkpt>
      <trkpt lat="39.2372670" lon="-1.5459510">
        <ele>653.2</ele>
        <time>2019-05-11T08:13:23Z</time>
      </trkpt>
      <trkpt lat="39.2372960" lon="-1.5460230">
        <ele>653.2</ele>
        <time>2019-05-11T08:13:24Z</time>
      </trkpt>
      <trkpt lat="39.2373230" lon="-1.5460950">
        <ele>653.2</ele>
        <time>2019-05-11T08:13:25Z</time>
      </trkpt>
      <trkpt lat="39.2373490" lon="-1.5461630">
        <ele>652.8</ele>
        <time>2019-05-11T08:13:26Z</time>
      </trkpt>
      <trkpt lat="39.2373700" lon="-1.5462260">
        <ele>652.6</ele>
        <time>2019-05-11T08:13:27Z</time>
      </trkpt>
      <trkpt lat="39.2373800" lon="-1.5462880">
        <ele>652.4</ele>
        <time>2019-05-11T08:13:28Z</time>
      </trkpt>
      <trkpt lat="39.2373840" lon="-1.5463530">
        <ele>652.4</ele>
        <time>2019-05-11T08:13:29Z</time>
      </trkpt>
      <trkpt lat="39.2373940" lon="-1.5464140">
        <ele>652.2</ele>
        <time>2019-05-11T08:13:30Z</time>
      </trkpt>
      <trkpt lat="39.2374200" lon="-1.5464750">
        <ele>652.2</ele>
        <time>2019-05-11T08:13:31Z</time>
      </trkpt>
      <trkpt lat="39.2374600" lon="-1.5465300">
        <ele>652.0</ele>
        <time>2019-05-11T08:13:32Z</time>
      </trkpt>
      <trkpt lat="39.2375070" lon="-1.5465770">
        <ele>652.0</ele>
        <time>2019-05-11T08:13:33Z</time>
      </trkpt>
      <trkpt lat="39.2375570" lon="-1.5466170">
        <ele>652.0</ele>
        <time>2019-05-11T08:13:34Z</time>
      </trkpt>
      <trkpt lat="39.2376090" lon="-1.5466520">
        <ele>651.8</ele>
        <time>2019-05-11T08:13:35Z</time>
      </trkpt>
      <trkpt lat="39.2376540" lon="-1.5466850">
        <ele>651.8</ele>
        <time>2019-05-11T08:13:36Z</time>
      </trkpt>
      <trkpt lat="39.2376930" lon="-1.5467200">
        <ele>651.4</ele>
        <time>2019-05-11T08:13:37Z</time>
      </trkpt>
      <trkpt lat="39.2377310" lon="-1.5467580">
        <ele>651.0</ele>
        <time>2019-05-11T08:13:38Z</time>
      </trkpt>
      <trkpt lat="39.2377690" lon="-1.5468020">
        <ele>650.8</ele>
        <time>2019-05-11T08:13:39Z</time>
      </trkpt>
      <trkpt lat="39.2378020" lon="-1.5468550">
        <ele>650.4</ele>
        <time>2019-05-11T08:13:40Z</time>
      </trkpt>
      <trkpt lat="39.2378260" lon="-1.5469100">
        <ele>650.2</ele>
        <time>2019-05-11T08:13:41Z</time>
      </trkpt>
      <trkpt lat="39.2378440" lon="-1.5469580">
        <ele>650.0</ele>
        <time>2019-05-11T08:13:42Z</time>
      </trkpt>
      <trkpt lat="39.2378570" lon="-1.5469920">
        <ele>649.6</ele>
        <time>2019-05-11T08:13:43Z</time>
      </trkpt>
      <trkpt lat="39.2378690" lon="-1.5470160">
        <ele>649.4</ele>
        <time>2019-05-11T08:13:44Z</time>
      </trkpt>
      <trkpt lat="39.2378790" lon="-1.5470370">
        <ele>649.2</ele>
        <time>2019-05-11T08:13:45Z</time>
      </trkpt>
      <trkpt lat="39.2378890" lon="-1.5470610">
        <ele>648.8</ele>
        <time>2019-05-11T08:13:46Z</time>
      </trkpt>
      <trkpt lat="39.2378980" lon="-1.5470880">
        <ele>648.2</ele>
        <time>2019-05-11T08:13:47Z</time>
      </trkpt>
      <trkpt lat="39.2379070" lon="-1.5471160">
        <ele>648.0</ele>
        <time>2019-05-11T08:13:48Z</time>
      </trkpt>
      <trkpt lat="39.2379150" lon="-1.5471460">
        <ele>647.4</ele>
        <time>2019-05-11T08:13:49Z</time>
      </trkpt>
      <trkpt lat="39.2379240" lon="-1.5471800">
        <ele>646.8</ele>
        <time>2019-05-11T08:13:50Z</time>
      </trkpt>
      <trkpt lat="39.2379300" lon="-1.5472210">
        <ele>646.2</ele>
        <time>2019-05-11T08:13:51Z</time>
      </trkpt>
      <trkpt lat="39.2379330" lon="-1.5472690">
        <ele>645.6</ele>
        <time>2019-05-11T08:13:52Z</time>
      </trkpt>
      <trkpt lat="39.2379310" lon="-1.5473200">
        <ele>645.4</ele>
        <time>2019-05-11T08:13:53Z</time>
      </trkpt>
      <trkpt lat="39.2379250" lon="-1.5473680">
        <ele>644.8</ele>
        <time>2019-05-11T08:13:54Z</time>
      </trkpt>
      <trkpt lat="39.2379150" lon="-1.5474140">
        <ele>644.4</ele>
        <time>2019-05-11T08:13:55Z</time>
      </trkpt>
      <trkpt lat="39.2379050" lon="-1.5474650">
        <ele>644.2</ele>
        <time>2019-05-11T08:13:56Z</time>
      </trkpt>
      <trkpt lat="39.2379030" lon="-1.5475230">
        <ele>643.4</ele>
        <time>2019-05-11T08:13:57Z</time>
      </trkpt>
      <trkpt lat="39.2379100" lon="-1.5475860">
        <ele>643.4</ele>
        <time>2019-05-11T08:13:58Z</time>
      </trkpt>
      <trkpt lat="39.2379260" lon="-1.5476570">
        <ele>643.2</ele>
        <time>2019-05-11T08:13:59Z</time>
      </trkpt>
      <trkpt lat="39.2379480" lon="-1.5477310">
        <ele>643.0</ele>
        <time>2019-05-11T08:14:00Z</time>
      </trkpt>
      <trkpt lat="39.2379730" lon="-1.5478010">
        <ele>642.6</ele>
        <time>2019-05-11T08:14:01Z</time>
      </trkpt>
      <trkpt lat="39.2379960" lon="-1.5478680">
        <ele>642.2</ele>
        <time>2019-05-11T08:14:02Z</time>
      </trkpt>
      <trkpt lat="39.2380130" lon="-1.5479330">
        <ele>642.0</ele>
        <time>2019-05-11T08:14:03Z</time>
      </trkpt>
      <trkpt lat="39.2380240" lon="-1.5479960">
        <ele>641.4</ele>
        <time>2019-05-11T08:14:04Z</time>
      </trkpt>
      <trkpt lat="39.2380280" lon="-1.5480600">
        <ele>640.6</ele>
        <time>2019-05-11T08:14:05Z</time>
      </trkpt>
      <trkpt lat="39.2380200" lon="-1.5481290">
        <ele>639.8</ele>
        <time>2019-05-11T08:14:06Z</time>
      </trkpt>
      <trkpt lat="39.2380020" lon="-1.5482000">
        <ele>639.2</ele>
        <time>2019-05-11T08:14:07Z</time>
      </trkpt>
      <trkpt lat="39.2379740" lon="-1.5482720">
        <ele>638.4</ele>
        <time>2019-05-11T08:14:08Z</time>
      </trkpt>
      <trkpt lat="39.2379410" lon="-1.5483440">
        <ele>637.6</ele>
        <time>2019-05-11T08:14:09Z</time>
      </trkpt>
      <trkpt lat="39.2379060" lon="-1.5484170">
        <ele>637.0</ele>
        <time>2019-05-11T08:14:10Z</time>
      </trkpt>
      <trkpt lat="39.2378710" lon="-1.5484910">
        <ele>636.2</ele>
        <time>2019-05-11T08:14:11Z</time>
      </trkpt>
      <trkpt lat="39.2378290" lon="-1.5485610">
        <ele>635.4</ele>
        <time>2019-05-11T08:14:12Z</time>
      </trkpt>
      <trkpt lat="39.2377780" lon="-1.5486180">
        <ele>634.6</ele>
        <time>2019-05-11T08:14:13Z</time>
      </trkpt>
      <trkpt lat="39.2377190" lon="-1.5486580">
        <ele>634.0</ele>
        <time>2019-05-11T08:14:14Z</time>
      </trkpt>
      <trkpt lat="39.2376540" lon="-1.5486730">
        <ele>633.4</ele>
        <time>2019-05-11T08:14:15Z</time>
      </trkpt>
      <trkpt lat="39.2375860" lon="-1.5486690">
        <ele>633.0</ele>
        <time>2019-05-11T08:14:16Z</time>
      </trkpt>
      <trkpt lat="39.2375170" lon="-1.5486510">
        <ele>632.6</ele>
        <time>2019-05-11T08:14:17Z</time>
      </trkpt>
      <trkpt lat="39.2374480" lon="-1.5486260">
        <ele>632.0</ele>
        <time>2019-05-11T08:14:18Z</time>
      </trkpt>
      <trkpt lat="39.2373810" lon="-1.5485980">
        <ele>631.8</ele>
        <time>2019-05-11T08:14:19Z</time>
      </trkpt>
      <trkpt lat="39.2373170" lon="-1.5485770">
        <ele>631.6</ele>
        <time>2019-05-11T08:14:20Z</time>
      </trkpt>
      <trkpt lat="39.2372530" lon="-1.5485720">
        <ele>631.4</ele>
        <time>2019-05-11T08:14:21Z</time>
      </trkpt>
      <trkpt lat="39.2371920" lon="-1.5485880">
        <ele>631.0</ele>
        <time>2019-05-11T08:14:22Z</time>
      </trkpt>
      <trkpt lat="39.2371360" lon="-1.5486220">
        <ele>630.8</ele>
        <time>2019-05-11T08:14:23Z</time>
      </trkpt>
      <trkpt lat="39.2370940" lon="-1.5486750">
        <ele>630.4</ele>
        <time>2019-05-11T08:14:24Z</time>
      </trkpt>
      <trkpt lat="39.2370670" lon="-1.5487400">
        <ele>630.4</ele>
        <time>2019-05-11T08:14:25Z</time>
      </trkpt>
      <trkpt lat="39.2370440" lon="-1.5488110">
        <ele>630.2</ele>
        <time>2019-05-11T08:14:26Z</time>
      </trkpt>
      <trkpt lat="39.2370210" lon="-1.5488860">
        <ele>630.2</ele>
        <time>2019-05-11T08:14:27Z</time>
      </trkpt>
      <trkpt lat="39.2369990" lon="-1.5489630">
        <ele>630.0</ele>
        <time>2019-05-11T08:14:28Z</time>
      </trkpt>
      <trkpt lat="39.2369750" lon="-1.5490390">
        <ele>629.8</ele>
        <time>2019-05-11T08:14:29Z</time>
      </trkpt>
      <trkpt lat="39.2369510" lon="-1.5491140">
        <ele>629.4</ele>
        <time>2019-05-11T08:14:30Z</time>
      </trkpt>
      <trkpt lat="39.2369260" lon="-1.5491890">
        <ele>629.0</ele>
        <time>2019-05-11T08:14:31Z</time>
      </trkpt>
      <trkpt lat="39.2369000" lon="-1.5492630">
        <ele>629.0</ele>
        <time>2019-05-11T08:14:32Z</time>
      </trkpt>
      <trkpt lat="39.2368730" lon="-1.5493380">
        <ele>628.8</ele>
        <time>2019-05-11T08:14:33Z</time>
      </trkpt>
      <trkpt lat="39.2368420" lon="-1.5494110">
        <ele>628.8</ele>
        <time>2019-05-11T08:14:34Z</time>
      </trkpt>
      <trkpt lat="39.2368050" lon="-1.5494760">
        <ele>628.8</ele>
        <time>2019-05-11T08:14:35Z</time>
      </trkpt>
      <trkpt lat="39.2367610" lon="-1.5495310">
        <ele>628.8</ele>
        <time>2019-05-11T08:14:36Z</time>
      </trkpt>
      <trkpt lat="39.2367100" lon="-1.5495760">
        <ele>628.8</ele>
        <time>2019-05-11T08:14:37Z</time>
      </trkpt>
      <trkpt lat="39.2366560" lon="-1.5496030">
        <ele>628.8</ele>
        <time>2019-05-11T08:14:38Z</time>
      </trkpt>
      <trkpt lat="39.2365990" lon="-1.5496110">
        <ele>628.8</ele>
        <time>2019-05-11T08:14:39Z</time>
      </trkpt>
      <trkpt lat="39.2365410" lon="-1.5496070">
        <ele>628.8</ele>
        <time>2019-05-11T08:14:40Z</time>
      </trkpt>
      <trkpt lat="39.2364820" lon="-1.5495930">
        <ele>629.0</ele>
        <time>2019-05-11T08:14:41Z</time>
      </trkpt>
      <trkpt lat="39.2364210" lon="-1.5495740">
        <ele>629.0</ele>
        <time>2019-05-11T08:14:42Z</time>
      </trkpt>
      <trkpt lat="39.2363580" lon="-1.5495550">
        <ele>629.0</ele>
        <time>2019-05-11T08:14:43Z</time>
      </trkpt>
      <trkpt lat="39.2362900" lon="-1.5495390">
        <ele>629.2</ele>
        <time>2019-05-11T08:14:44Z</time>
      </trkpt>
      <trkpt lat="39.2362190" lon="-1.5495220">
        <ele>629.2</ele>
        <time>2019-05-11T08:14:45Z</time>
      </trkpt>
      <trkpt lat="39.2361460" lon="-1.5495000">
        <ele>629.2</ele>
        <time>2019-05-11T08:14:46Z</time>
      </trkpt>
      <trkpt lat="39.2360710" lon="-1.5494730">
        <ele>629.2</ele>
        <time>2019-05-11T08:14:47Z</time>
      </trkpt>
      <trkpt lat="39.2359960" lon="-1.5494470">
        <ele>629.2</ele>
        <time>2019-05-11T08:14:48Z</time>
      </trkpt>
      <trkpt lat="39.2359200" lon="-1.5494220">
        <ele>629.4</ele>
        <time>2019-05-11T08:14:49Z</time>
      </trkpt>
      <trkpt lat="39.2358420" lon="-1.5493990">
        <ele>629.4</ele>
        <time>2019-05-11T08:14:50Z</time>
      </trkpt>
      <trkpt lat="39.2357640" lon="-1.5493780">
        <ele>629.4</ele>
        <time>2019-05-11T08:14:51Z</time>
      </trkpt>
      <trkpt lat="39.2356840" lon="-1.5493620">
        <ele>629.4</ele>
        <time>2019-05-11T08:14:52Z</time>
      </trkpt>
      <trkpt lat="39.2356040" lon="-1.5493500">
        <ele>629.4</ele>
        <time>2019-05-11T08:14:53Z</time>
      </trkpt>
      <trkpt lat="39.2355240" lon="-1.5493420">
        <ele>629.4</ele>
        <time>2019-05-11T08:14:54Z</time>
      </trkpt>
      <trkpt lat="39.2354440" lon="-1.5493320">
        <ele>629.6</ele>
        <time>2019-05-11T08:14:55Z</time>
      </trkpt>
      <trkpt lat="39.2353650" lon="-1.5493190">
        <ele>629.6</ele>
        <time>2019-05-11T08:14:56Z</time>
      </trkpt>
      <trkpt lat="39.2352890" lon="-1.5493050">
        <ele>629.6</ele>
        <time>2019-05-11T08:14:57Z</time>
      </trkpt>
      <trkpt lat="39.2352130" lon="-1.5492910">
        <ele>629.6</ele>
        <time>2019-05-11T08:14:58Z</time>
      </trkpt>
      <trkpt lat="39.2351390" lon="-1.5492780">
        <ele>629.4</ele>
        <time>2019-05-11T08:14:59Z</time>
      </trkpt>
      <trkpt lat="39.2350670" lon="-1.5492620">
        <ele>629.4</ele>
        <time>2019-05-11T08:15:00Z</time>
      </trkpt>
      <trkpt lat="39.2349940" lon="-1.5492440">
        <ele>629.4</ele>
        <time>2019-05-11T08:15:01Z</time>
      </trkpt>
      <trkpt lat="39.2349240" lon="-1.5492250">
        <ele>629.4</ele>
        <time>2019-05-11T08:15:02Z</time>
      </trkpt>
      <trkpt lat="39.2348540" lon="-1.5492080">
        <ele>629.4</ele>
        <time>2019-05-11T08:15:03Z</time>
      </trkpt>
      <trkpt lat="39.2347860" lon="-1.5491920">
        <ele>629.4</ele>
        <time>2019-05-11T08:15:04Z</time>
      </trkpt>
      <trkpt lat="39.2347190" lon="-1.5491740">
        <ele>629.6</ele>
        <time>2019-05-11T08:15:05Z</time>
      </trkpt>
      <trkpt lat="39.2346520" lon="-1.5491580">
        <ele>629.8</ele>
        <time>2019-05-11T08:15:06Z</time>
      </trkpt>
      <trkpt lat="39.2345840" lon="-1.5491410">
        <ele>629.8</ele>
        <time>2019-05-11T08:15:07Z</time>
      </trkpt>
      <trkpt lat="39.2345160" lon="-1.5491230">
        <ele>630.2</ele>
        <time>2019-05-11T08:15:08Z</time>
      </trkpt>
      <trkpt lat="39.2344430" lon="-1.5491060">
        <ele>630.4</ele>
        <time>2019-05-11T08:15:09Z</time>
      </trkpt>
      <trkpt lat="39.2343690" lon="-1.5490890">
        <ele>630.4</ele>
        <time>2019-05-11T08:15:10Z</time>
      </trkpt>
      <trkpt lat="39.2342930" lon="-1.5490740">
        <ele>630.6</ele>
        <time>2019-05-11T08:15:11Z</time>
      </trkpt>
      <trkpt lat="39.2342140" lon="-1.5490620">
        <ele>630.6</ele>
        <time>2019-05-11T08:15:12Z</time>
      </trkpt>
      <trkpt lat="39.2341340" lon="-1.5490560">
        <ele>630.8</ele>
        <time>2019-05-11T08:15:13Z</time>
      </trkpt>
      <trkpt lat="39.2340520" lon="-1.5490530">
        <ele>630.8</ele>
        <time>2019-05-11T08:15:14Z</time>
      </trkpt>
      <trkpt lat="39.2339670" lon="-1.5490520">
        <ele>630.8</ele>
        <time>2019-05-11T08:15:15Z</time>
      </trkpt>
      <trkpt lat="39.2338820" lon="-1.5490510">
        <ele>630.8</ele>
        <time>2019-05-11T08:15:16Z</time>
      </trkpt>
      <trkpt lat="39.2337970" lon="-1.5490530">
        <ele>630.8</ele>
        <time>2019-05-11T08:15:17Z</time>
      </trkpt>
      <trkpt lat="39.2337100" lon="-1.5490590">
        <ele>630.8</ele>
        <time>2019-05-11T08:15:18Z</time>
      </trkpt>
      <trkpt lat="39.2336240" lon="-1.5490690">
        <ele>630.8</ele>
        <time>2019-05-11T08:15:19Z</time>
      </trkpt>
      <trkpt lat="39.2335380" lon="-1.5490840">
        <ele>630.8</ele>
        <time>2019-05-11T08:15:20Z</time>
      </trkpt>
      <trkpt lat="39.2334530" lon="-1.5491000">
        <ele>630.8</ele>
        <time>2019-05-11T08:15:21Z</time>
      </trkpt>
      <trkpt lat="39.2333660" lon="-1.5491140">
        <ele>630.8</ele>
        <time>2019-05-11T08:15:22Z</time>
      </trkpt>
      <trkpt lat="39.2332780" lon="-1.5491260">
        <ele>630.8</ele>
        <time>2019-05-11T08:15:23Z</time>
      </trkpt>
      <trkpt lat="39.2331880" lon="-1.5491370">
        <ele>630.6</ele>
        <time>2019-05-11T08:15:24Z</time>
      </trkpt>
      <trkpt lat="39.2330990" lon="-1.5491510">
        <ele>630.6</ele>
        <time>2019-05-11T08:15:25Z</time>
      </trkpt>
      <trkpt lat="39.2330110" lon="-1.5491680">
        <ele>630.6</ele>
        <time>2019-05-11T08:15:26Z</time>
      </trkpt>
      <trkpt lat="39.2329240" lon="-1.5491820">
        <ele>630.6</ele>
        <time>2019-05-11T08:15:27Z</time>
      </trkpt>
      <trkpt lat="39.2328380" lon="-1.5491970">
        <ele>630.4</ele>
        <time>2019-05-11T08:15:28Z</time>
      </trkpt>
      <trkpt lat="39.2327550" lon="-1.5492120">
        <ele>630.4</ele>
        <time>2019-05-11T08:15:29Z</time>
      </trkpt>
      <trkpt lat="39.2326740" lon="-1.5492250">
        <ele>630.4</ele>
        <time>2019-05-11T08:15:30Z</time>
      </trkpt>
      <trkpt lat="39.2326000" lon="-1.5492320">
        <ele>630.4</ele>
        <time>2019-05-11T08:15:31Z</time>
      </trkpt>
      <trkpt lat="39.2325350" lon="-1.5492260">
        <ele>630.4</ele>
        <time>2019-05-11T08:15:32Z</time>
      </trkpt>
      <trkpt lat="39.2324770" lon="-1.5491970">
        <ele>630.4</ele>
        <time>2019-05-11T08:15:33Z</time>
      </trkpt>
      <trkpt lat="39.2324240" lon="-1.5491470">
        <ele>630.4</ele>
        <time>2019-05-11T08:15:34Z</time>
      </trkpt>
      <trkpt lat="39.2323750" lon="-1.5490810">
        <ele>630.4</ele>
        <time>2019-05-11T08:15:35Z</time>
      </trkpt>
      <trkpt lat="39.2323300" lon="-1.5489980">
        <ele>630.4</ele>
        <time>2019-05-11T08:15:36Z</time>
      </trkpt>
      <trkpt lat="39.2322910" lon="-1.5489050">
        <ele>630.2</ele>
        <time>2019-05-11T08:15:37Z</time>
      </trkpt>
      <trkpt lat="39.2322530" lon="-1.5487950">
        <ele>630.2</ele>
        <time>2019-05-11T08:15:38Z</time>
      </trkpt>
      <trkpt lat="39.2322150" lon="-1.5486750">
        <ele>630.2</ele>
        <time>2019-05-11T08:15:39Z</time>
      </trkpt>
      <trkpt lat="39.2321780" lon="-1.5485430">
        <ele>630.2</ele>
        <time>2019-05-11T08:15:40Z</time>
      </trkpt>
      <trkpt lat="39.2321400" lon="-1.5484070">
        <ele>629.8</ele>
        <time>2019-05-11T08:15:41Z</time>
      </trkpt>
      <trkpt lat="39.2320990" lon="-1.5482730">
        <ele>628.8</ele>
        <time>2019-05-11T08:15:42Z</time>
      </trkpt>
      <trkpt lat="39.2320530" lon="-1.5481480">
        <ele>627.8</ele>
        <time>2019-05-11T08:15:43Z</time>
      </trkpt>
      <trkpt lat="39.2319990" lon="-1.5480290">
        <ele>626.8</ele>
        <time>2019-05-11T08:15:44Z</time>
      </trkpt>
      <trkpt lat="39.2319350" lon="-1.5479210">
        <ele>625.6</ele>
        <time>2019-05-11T08:15:45Z</time>
      </trkpt>
      <trkpt lat="39.2318640" lon="-1.5478240">
        <ele>624.6</ele>
        <time>2019-05-11T08:15:46Z</time>
      </trkpt>
      <trkpt lat="39.2317930" lon="-1.5477290">
        <ele>623.8</ele>
        <time>2019-05-11T08:15:47Z</time>
      </trkpt>
      <trkpt lat="39.2317220" lon="-1.5476330">
        <ele>623.0</ele>
        <time>2019-05-11T08:15:48Z</time>
      </trkpt>
      <trkpt lat="39.2316530" lon="-1.5475330">
        <ele>622.0</ele>
        <time>2019-05-11T08:15:49Z</time>
      </trkpt>
      <trkpt lat="39.2315870" lon="-1.5474330">
        <ele>621.2</ele>
        <time>2019-05-11T08:15:50Z</time>
      </trkpt>
      <trkpt lat="39.2315190" lon="-1.5473390">
        <ele>620.4</ele>
        <time>2019-05-11T08:15:51Z</time>
      </trkpt>
      <trkpt lat="39.2314450" lon="-1.5472590">
        <ele>619.6</ele>
        <time>2019-05-11T08:15:52Z</time>
      </trkpt>
      <trkpt lat="39.2313640" lon="-1.5471940">
        <ele>619.2</ele>
        <time>2019-05-11T08:15:53Z</time>
      </trkpt>
      <trkpt lat="39.2312750" lon="-1.5471500">
        <ele>618.8</ele>
        <time>2019-05-11T08:15:54Z</time>
      </trkpt>
      <trkpt lat="39.2311800" lon="-1.5471220">
        <ele>618.6</ele>
        <time>2019-05-11T08:15:55Z</time>
      </trkpt>
      <trkpt lat="39.2310820" lon="-1.5471030">
        <ele>618.6</ele>
        <time>2019-05-11T08:15:56Z</time>
      </trkpt>
      <trkpt lat="39.2309830" lon="-1.5470910">
        <ele>618.6</ele>
        <time>2019-05-11T08:15:57Z</time>
      </trkpt>
      <trkpt lat="39.2308810" lon="-1.5470890">
        <ele>618.4</ele>
        <time>2019-05-11T08:15:58Z</time>
      </trkpt>
      <trkpt lat="39.2307790" lon="-1.5470990">
        <ele>618.2</ele>
        <time>2019-05-11T08:15:59Z</time>
      </trkpt>
      <trkpt lat="39.2306770" lon="-1.5471230">
        <ele>618.0</ele>
        <time>2019-05-11T08:16:00Z</time>
      </trkpt>
      <trkpt lat="39.2305770" lon="-1.5471590">
        <ele>618.0</ele>
        <time>2019-05-11T08:16:01Z</time>
      </trkpt>
      <trkpt lat="39.2304780" lon="-1.5472050">
        <ele>617.8</ele>
        <time>2019-05-11T08:16:02Z</time>
      </trkpt>
      <trkpt lat="39.2303790" lon="-1.5472520">
        <ele>617.8</ele>
        <time>2019-05-11T08:16:03Z</time>
      </trkpt>
      <trkpt lat="39.2302800" lon="-1.5472970">
        <ele>617.6</ele>
        <time>2019-05-11T08:16:04Z</time>
      </trkpt>
      <trkpt lat="39.2301810" lon="-1.5473330">
        <ele>617.6</ele>
        <time>2019-05-11T08:16:05Z</time>
      </trkpt>
      <trkpt lat="39.2300840" lon="-1.5473550">
        <ele>617.6</ele>
        <time>2019-05-11T08:16:06Z</time>
      </trkpt>
      <trkpt lat="39.2299880" lon="-1.5473620">
        <ele>617.4</ele>
        <time>2019-05-11T08:16:07Z</time>
      </trkpt>
      <trkpt lat="39.2298960" lon="-1.5473530">
        <ele>617.2</ele>
        <time>2019-05-11T08:16:08Z</time>
      </trkpt>
      <trkpt lat="39.2298070" lon="-1.5473290">
        <ele>617.2</ele>
        <time>2019-05-11T08:16:09Z</time>
      </trkpt>
      <trkpt lat="39.2297220" lon="-1.5472880">
        <ele>617.0</ele>
        <time>2019-05-11T08:16:10Z</time>
      </trkpt>
      <trkpt lat="39.2296400" lon="-1.5472320">
        <ele>616.8</ele>
        <time>2019-05-11T08:16:11Z</time>
      </trkpt>
      <trkpt lat="39.2295590" lon="-1.5471630">
        <ele>616.6</ele>
        <time>2019-05-11T08:16:12Z</time>
      </trkpt>
      <trkpt lat="39.2294750" lon="-1.5470860">
        <ele>616.4</ele>
        <time>2019-05-11T08:16:13Z</time>
      </trkpt>
      <trkpt lat="39.2293880" lon="-1.5470060">
        <ele>616.4</ele>
        <time>2019-05-11T08:16:14Z</time>
      </trkpt>
      <trkpt lat="39.2292960" lon="-1.5469320">
        <ele>615.8</ele>
        <time>2019-05-11T08:16:15Z</time>
      </trkpt>
      <trkpt lat="39.2291980" lon="-1.5468670">
        <ele>615.6</ele>
        <time>2019-05-11T08:16:16Z</time>
      </trkpt>
      <trkpt lat="39.2290960" lon="-1.5468070">
        <ele>615.4</ele>
        <time>2019-05-11T08:16:17Z</time>
      </trkpt>
      <trkpt lat="39.2289940" lon="-1.5467480">
        <ele>615.2</ele>
        <time>2019-05-11T08:16:18Z</time>
      </trkpt>
      <trkpt lat="39.2288920" lon="-1.5466910">
        <ele>614.8</ele>
        <time>2019-05-11T08:16:19Z</time>
      </trkpt>
      <trkpt lat="39.2287920" lon="-1.5466350">
        <ele>614.2</ele>
        <time>2019-05-11T08:16:20Z</time>
      </trkpt>
      <trkpt lat="39.2286940" lon="-1.5465820">
        <ele>613.8</ele>
        <time>2019-05-11T08:16:21Z</time>
      </trkpt>
      <trkpt lat="39.2285970" lon="-1.5465320">
        <ele>613.4</ele>
        <time>2019-05-11T08:16:22Z</time>
      </trkpt>
      <trkpt lat="39.2285040" lon="-1.5464840">
        <ele>612.8</ele>
        <time>2019-05-11T08:16:23Z</time>
      </trkpt>
      <trkpt lat="39.2284130" lon="-1.5464390">
        <ele>612.6</ele>
        <time>2019-05-11T08:16:24Z</time>
      </trkpt>
      <trkpt lat="39.2283250" lon="-1.5463960">
        <ele>612.4</ele>
        <time>2019-05-11T08:16:25Z</time>
      </trkpt>
      <trkpt lat="39.2282400" lon="-1.5463520">
        <ele>612.4</ele>
        <time>2019-05-11T08:16:26Z</time>
      </trkpt>
      <trkpt lat="39.2281580" lon="-1.5463090">
        <ele>612.4</ele>
        <time>2019-05-11T08:16:27Z</time>
      </trkpt>
      <trkpt lat="39.2280800" lon="-1.5462620">
        <ele>612.2</ele>
        <time>2019-05-11T08:16:28Z</time>
      </trkpt>
      <trkpt lat="39.2280080" lon="-1.5462090">
        <ele>612.2</ele>
        <time>2019-05-11T08:16:29Z</time>
      </trkpt>
      <trkpt lat="39.2279400" lon="-1.5461520">
        <ele>612.2</ele>
        <time>2019-05-11T08:16:30Z</time>
      </trkpt>
      <trkpt lat="39.2278740" lon="-1.5460890">
        <ele>612.2</ele>
        <time>2019-05-11T08:16:31Z</time>
      </trkpt>
      <trkpt lat="39.2278090" lon="-1.5460230">
        <ele>612.2</ele>
        <time>2019-05-11T08:16:32Z</time>
      </trkpt>
      <trkpt lat="39.2277440" lon="-1.5459520">
        <ele>612.2</ele>
        <time>2019-05-11T08:16:33Z</time>
      </trkpt>
      <trkpt lat="39.2276780" lon="-1.5458770">
        <ele>612.2</ele>
        <time>2019-05-11T08:16:34Z</time>
      </trkpt>
      <trkpt lat="39.2276130" lon="-1.5457960">
        <ele>612.4</ele>
        <time>2019-05-11T08:16:35Z</time>
      </trkpt>
      <trkpt lat="39.2275490" lon="-1.5457120">
        <ele>612.6</ele>
        <time>2019-05-11T08:16:36Z</time>
      </trkpt>
      <trkpt lat="39.2274860" lon="-1.5456270">
        <ele>613.0</ele>
        <time>2019-05-11T08:16:37Z</time>
      </trkpt>
      <trkpt lat="39.2274230" lon="-1.5455410">
        <ele>613.2</ele>
        <time>2019-05-11T08:16:38Z</time>
      </trkpt>
      <trkpt lat="39.2273560" lon="-1.5454530">
        <ele>613.4</ele>
        <time>2019-05-11T08:16:39Z</time>
      </trkpt>
      <trkpt lat="39.2272870" lon="-1.5453680">
        <ele>613.8</ele>
        <time>2019-05-11T08:16:40Z</time>
      </trkpt>
      <trkpt lat="39.2272140" lon="-1.5452870">
        <ele>613.8</ele>
        <time>2019-05-11T08:16:41Z</time>
      </trkpt>
      <trkpt lat="39.2271380" lon="-1.5452080">
        <ele>614.0</ele>
        <time>2019-05-11T08:16:42Z</time>
      </trkpt>
      <trkpt lat="39.2270590" lon="-1.5451310">
        <ele>614.0</ele>
        <time>2019-05-11T08:16:43Z</time>
      </trkpt>
      <trkpt lat="39.2269810" lon="-1.5450520">
        <ele>614.0</ele>
        <time>2019-05-11T08:16:44Z</time>
      </trkpt>
      <trkpt lat="39.2269040" lon="-1.5449670">
        <ele>614.0</ele>
        <time>2019-05-11T08:16:45Z</time>
      </trkpt>
      <trkpt lat="39.2268310" lon="-1.5448750">
        <ele>614.0</ele>
        <time>2019-05-11T08:16:46Z</time>
      </trkpt>
      <trkpt lat="39.2267640" lon="-1.5447760">
        <ele>614.0</ele>
        <time>2019-05-11T08:16:47Z</time>
      </trkpt>
      <trkpt lat="39.2267030" lon="-1.5446720">
        <ele>614.0</ele>
        <time>2019-05-11T08:16:48Z</time>
      </trkpt>
      <trkpt lat="39.2266450" lon="-1.5445660">
        <ele>613.8</ele>
        <time>2019-05-11T08:16:49Z</time>
      </trkpt>
      <trkpt lat="39.2265820" lon="-1.5444660">
        <ele>613.4</ele>
        <time>2019-05-11T08:16:50Z</time>
      </trkpt>
      <trkpt lat="39.2265110" lon="-1.5443810">
        <ele>613.2</ele>
        <time>2019-05-11T08:16:51Z</time>
      </trkpt>
      <trkpt lat="39.2264340" lon="-1.5443030">
        <ele>612.8</ele>
        <time>2019-05-11T08:16:52Z</time>
      </trkpt>
      <trkpt lat="39.2263550" lon="-1.5442270">
        <ele>612.8</ele>
        <time>2019-05-11T08:16:53Z</time>
      </trkpt>
      <trkpt lat="39.2262750" lon="-1.5441530">
        <ele>612.6</ele>
        <time>2019-05-11T08:16:54Z</time>
      </trkpt>
      <trkpt lat="39.2261940" lon="-1.5440800">
        <ele>612.6</ele>
        <time>2019-05-11T08:16:55Z</time>
      </trkpt>
      <trkpt lat="39.2261130" lon="-1.5440090">
        <ele>612.6</ele>
        <time>2019-05-11T08:16:56Z</time>
      </trkpt>
      <trkpt lat="39.2260310" lon="-1.5439400">
        <ele>612.4</ele>
        <time>2019-05-11T08:16:57Z</time>
      </trkpt>
      <trkpt lat="39.2259480" lon="-1.5438750">
        <ele>612.4</ele>
        <time>2019-05-11T08:16:58Z</time>
      </trkpt>
      <trkpt lat="39.2258670" lon="-1.5438120">
        <ele>612.2</ele>
        <time>2019-05-11T08:16:59Z</time>
      </trkpt>
      <trkpt lat="39.2257890" lon="-1.5437430">
        <ele>612.0</ele>
        <time>2019-05-11T08:17:00Z</time>
      </trkpt>
      <trkpt lat="39.2257150" lon="-1.5436720">
        <ele>611.8</ele>
        <time>2019-05-11T08:17:01Z</time>
      </trkpt>
      <trkpt lat="39.2256400" lon="-1.5436000">
        <ele>611.8</ele>
        <time>2019-05-11T08:17:02Z</time>
      </trkpt>
      <trkpt lat="39.2255660" lon="-1.5435290">
        <ele>612.0</ele>
        <time>2019-05-11T08:17:03Z</time>
      </trkpt>
      <trkpt lat="39.2254910" lon="-1.5434600">
        <ele>611.6</ele>
        <time>2019-05-11T08:17:04Z</time>
      </trkpt>
      <trkpt lat="39.2254140" lon="-1.5433910">
        <ele>611.8</ele>
        <time>2019-05-11T08:17:05Z</time>
      </trkpt>
      <trkpt lat="39.2253340" lon="-1.5433260">
        <ele>611.6</ele>
        <time>2019-05-11T08:17:06Z</time>
      </trkpt>
      <trkpt lat="39.2252520" lon="-1.5432670">
        <ele>611.6</ele>
        <time>2019-05-11T08:17:07Z</time>
      </trkpt>
      <trkpt lat="39.2251680" lon="-1.5432130">
        <ele>611.6</ele>
        <time>2019-05-11T08:17:08Z</time>
      </trkpt>
      <trkpt lat="39.2250840" lon="-1.5431590">
        <ele>611.6</ele>
        <time>2019-05-11T08:17:09Z</time>
      </trkpt>
      <trkpt lat="39.2250010" lon="-1.5431040">
        <ele>611.6</ele>
        <time>2019-05-11T08:17:10Z</time>
      </trkpt>
      <trkpt lat="39.2249160" lon="-1.5430490">
        <ele>611.4</ele>
        <time>2019-05-11T08:17:11Z</time>
      </trkpt>
      <trkpt lat="39.2248300" lon="-1.5430000">
        <ele>611.4</ele>
        <time>2019-05-11T08:17:12Z</time>
      </trkpt>
      <trkpt lat="39.2247400" lon="-1.5429590">
        <ele>611.4</ele>
        <time>2019-05-11T08:17:13Z</time>
      </trkpt>
      <trkpt lat="39.2246460" lon="-1.5429290">
        <ele>611.4</ele>
        <time>2019-05-11T08:17:14Z</time>
      </trkpt>
      <trkpt lat="39.2245520" lon="-1.5429050">
        <ele>611.4</ele>
        <time>2019-05-11T08:17:15Z</time>
      </trkpt>
      <trkpt lat="39.2244600" lon="-1.5428840">
        <ele>611.4</ele>
        <time>2019-05-11T08:17:16Z</time>
      </trkpt>
      <trkpt lat="39.2243700" lon="-1.5428620">
        <ele>611.4</ele>
        <time>2019-05-11T08:17:17Z</time>
      </trkpt>
      <trkpt lat="39.2242820" lon="-1.5428400">
        <ele>611.4</ele>
        <time>2019-05-11T08:17:18Z</time>
      </trkpt>
      <trkpt lat="39.2241950" lon="-1.5428220">
        <ele>611.2</ele>
        <time>2019-05-11T08:17:19Z</time>
      </trkpt>
      <trkpt lat="39.2241070" lon="-1.5428090">
        <ele>611.2</ele>
        <time>2019-05-11T08:17:20Z</time>
      </trkpt>
      <trkpt lat="39.2240180" lon="-1.5428000">
        <ele>611.2</ele>
        <time>2019-05-11T08:17:21Z</time>
      </trkpt>
      <trkpt lat="39.2239300" lon="-1.5427930">
        <ele>611.2</ele>
        <time>2019-05-11T08:17:22Z</time>
      </trkpt>
      <trkpt lat="39.2238410" lon="-1.5427880">
        <ele>611.2</ele>
        <time>2019-05-11T08:17:23Z</time>
      </trkpt>
      <trkpt lat="39.2237530" lon="-1.5427820">
        <ele>611.2</ele>
        <time>2019-05-11T08:17:24Z</time>
      </trkpt>
      <trkpt lat="39.2236660" lon="-1.5427770">
        <ele>611.2</ele>
        <time>2019-05-11T08:17:25Z</time>
      </trkpt>
      <trkpt lat="39.2235830" lon="-1.5427730">
        <ele>611.2</ele>
        <time>2019-05-11T08:17:26Z</time>
      </trkpt>
      <trkpt lat="39.2235010" lon="-1.5427690">
        <ele>611.2</ele>
        <time>2019-05-11T08:17:27Z</time>
      </trkpt>
      <trkpt lat="39.2234220" lon="-1.5427640">
        <ele>611.2</ele>
        <time>2019-05-11T08:17:28Z</time>
      </trkpt>
      <trkpt lat="39.2233440" lon="-1.5427600">
        <ele>611.2</ele>
        <time>2019-05-11T08:17:29Z</time>
      </trkpt>
      <trkpt lat="39.2232670" lon="-1.5427580">
        <ele>611.2</ele>
        <time>2019-05-11T08:17:30Z</time>
      </trkpt>
      <trkpt lat="39.2231920" lon="-1.5427570">
        <ele>611.2</ele>
        <time>2019-05-11T08:17:31Z</time>
      </trkpt>
      <trkpt lat="39.2231160" lon="-1.5427540">
        <ele>611.2</ele>
        <time>2019-05-11T08:17:32Z</time>
      </trkpt>
      <trkpt lat="39.2230400" lon="-1.5427520">
        <ele>611.4</ele>
        <time>2019-05-11T08:17:33Z</time>
      </trkpt>
      <trkpt lat="39.2229650" lon="-1.5427500">
        <ele>611.4</ele>
        <time>2019-05-11T08:17:34Z</time>
      </trkpt>
      <trkpt lat="39.2228890" lon="-1.5427450">
        <ele>611.4</ele>
        <time>2019-05-11T08:17:35Z</time>
      </trkpt>
      <trkpt lat="39.2228150" lon="-1.5427360">
        <ele>611.4</ele>
        <time>2019-05-11T08:17:36Z</time>
      </trkpt>
      <trkpt lat="39.2227420" lon="-1.5427210">
        <ele>611.6</ele>
        <time>2019-05-11T08:17:37Z</time>
      </trkpt>
      <trkpt lat="39.2226680" lon="-1.5427100">
        <ele>611.6</ele>
        <time>2019-05-11T08:17:38Z</time>
      </trkpt>
      <trkpt lat="39.2225940" lon="-1.5427090">
        <ele>611.8</ele>
        <time>2019-05-11T08:17:39Z</time>
      </trkpt>
      <trkpt lat="39.2225210" lon="-1.5427170">
        <ele>612.0</ele>
        <time>2019-05-11T08:17:40Z</time>
      </trkpt>
      <trkpt lat="39.2224500" lon="-1.5427290">
        <ele>612.0</ele>
        <time>2019-05-11T08:17:41Z</time>
      </trkpt>
      <trkpt lat="39.2223810" lon="-1.5427460">
        <ele>612.2</ele>
        <time>2019-05-11T08:17:42Z</time>
      </trkpt>
      <trkpt lat="39.2223130" lon="-1.5427640">
        <ele>612.2</ele>
        <time>2019-05-11T08:17:43Z</time>
      </trkpt>
      <trkpt lat="39.2222460" lon="-1.5427830">
        <ele>612.2</ele>
        <time>2019-05-11T08:17:44Z</time>
      </trkpt>
      <trkpt lat="39.2221800" lon="-1.5428020">
        <ele>612.2</ele>
        <time>2019-05-11T08:17:45Z</time>
      </trkpt>
      <trkpt lat="39.2221130" lon="-1.5428220">
        <ele>612.4</ele>
        <time>2019-05-11T08:17:46Z</time>
      </trkpt>
      <trkpt lat="39.2220470" lon="-1.5428440">
        <ele>612.4</ele>
        <time>2019-05-11T08:17:47Z</time>
      </trkpt>
      <trkpt lat="39.2219800" lon="-1.5428680">
        <ele>612.4</ele>
        <time>2019-05-11T08:17:48Z</time>
      </trkpt>
      <trkpt lat="39.2219150" lon="-1.5428990">
        <ele>612.4</ele>
        <time>2019-05-11T08:17:49Z</time>
      </trkpt>
      <trkpt lat="39.2218480" lon="-1.5429330">
        <ele>612.6</ele>
        <time>2019-05-11T08:17:50Z</time>
      </trkpt>
      <trkpt lat="39.2217810" lon="-1.5429640">
        <ele>612.6</ele>
        <time>2019-05-11T08:17:51Z</time>
      </trkpt>
      <trkpt lat="39.2217110" lon="-1.5429940">
        <ele>612.8</ele>
        <time>2019-05-11T08:17:52Z</time>
      </trkpt>
      <trkpt lat="39.2216420" lon="-1.5430300">
        <ele>612.8</ele>
        <time>2019-05-11T08:17:53Z</time>
      </trkpt>
      <trkpt lat="39.2215740" lon="-1.5430750">
        <ele>613.2</ele>
        <time>2019-05-11T08:17:54Z</time>
      </trkpt>
      <trkpt lat="39.2215080" lon="-1.5431260">
        <ele>613.2</ele>
        <time>2019-05-11T08:17:55Z</time>
      </trkpt>
      <trkpt lat="39.2214440" lon="-1.5431810">
        <ele>613.2</ele>
        <time>2019-05-11T08:17:56Z</time>
      </trkpt>
      <trkpt lat="39.2213800" lon="-1.5432370">
        <ele>613.2</ele>
        <time>2019-05-11T08:17:57Z</time>
      </trkpt>
      <trkpt lat="39.2213160" lon="-1.5432980">
        <ele>613.2</ele>
        <time>2019-05-11T08:17:58Z</time>
      </trkpt>
      <trkpt lat="39.2212490" lon="-1.5433630">
        <ele>613.4</ele>
        <time>2019-05-11T08:17:59Z</time>
      </trkpt>
      <trkpt lat="39.2211760" lon="-1.5434230">
        <ele>613.4</ele>
        <time>2019-05-11T08:18:00Z</time>
      </trkpt>
      <trkpt lat="39.2210980" lon="-1.5434750">
        <ele>613.4</ele>
        <time>2019-05-11T08:18:01Z</time>
      </trkpt>
      <trkpt lat="39.2210180" lon="-1.5435210">
        <ele>613.4</ele>
        <time>2019-05-11T08:18:02Z</time>
      </trkpt>
      <trkpt lat="39.2209380" lon="-1.5435610">
        <ele>613.4</ele>
        <time>2019-05-11T08:18:03Z</time>
      </trkpt>
      <trkpt lat="39.2208590" lon="-1.5436020">
        <ele>613.4</ele>
        <time>2019-05-11T08:18:04Z</time>
      </trkpt>
      <trkpt lat="39.2207860" lon="-1.5436490">
        <ele>613.2</ele>
        <time>2019-05-11T08:18:05Z</time>
      </trkpt>
      <trkpt lat="39.2207150" lon="-1.5436990">
        <ele>613.2</ele>
        <time>2019-05-11T08:18:06Z</time>
      </trkpt>
      <trkpt lat="39.2206450" lon="-1.5437510">
        <ele>613.0</ele>
        <time>2019-05-11T08:18:07Z</time>
      </trkpt>
      <trkpt lat="39.2205780" lon="-1.5438070">
        <ele>613.0</ele>
        <time>2019-05-11T08:18:08Z</time>
      </trkpt>
      <trkpt lat="39.2205130" lon="-1.5438640">
        <ele>612.8</ele>
        <time>2019-05-11T08:18:09Z</time>
      </trkpt>
      <trkpt lat="39.2204490" lon="-1.5439230">
        <ele>612.8</ele>
        <time>2019-05-11T08:18:10Z</time>
      </trkpt>
      <trkpt lat="39.2203850" lon="-1.5439850">
        <ele>612.8</ele>
        <time>2019-05-11T08:18:11Z</time>
      </trkpt>
      <trkpt lat="39.2203230" lon="-1.5440540">
        <ele>612.8</ele>
        <time>2019-05-11T08:18:12Z</time>
      </trkpt>
      <trkpt lat="39.2202640" lon="-1.5441290">
        <ele>612.8</ele>
        <time>2019-05-11T08:18:13Z</time>
      </trkpt>
      <trkpt lat="39.2202060" lon="-1.5442050">
        <ele>612.8</ele>
        <time>2019-05-11T08:18:14Z</time>
      </trkpt>
      <trkpt lat="39.2201510" lon="-1.5442840">
        <ele>612.8</ele>
        <time>2019-05-11T08:18:15Z</time>
      </trkpt>
      <trkpt lat="39.2201070" lon="-1.5443670">
        <ele>612.8</ele>
        <time>2019-05-11T08:18:16Z</time>
      </trkpt>
      <trkpt lat="39.2200730" lon="-1.5444500">
        <ele>612.8</ele>
        <time>2019-05-11T08:18:17Z</time>
      </trkpt>
      <trkpt lat="39.2200440" lon="-1.5445320">
        <ele>612.8</ele>
        <time>2019-05-11T08:18:18Z</time>
      </trkpt>
      <trkpt lat="39.2200170" lon="-1.5446150">
        <ele>612.8</ele>
        <time>2019-05-11T08:18:19Z</time>
      </trkpt>
      <trkpt lat="39.2199890" lon="-1.5446980">
        <ele>612.8</ele>
        <time>2019-05-11T08:18:20Z</time>
      </trkpt>
      <trkpt lat="39.2199620" lon="-1.5447830">
        <ele>613.0</ele>
        <time>2019-05-11T08:18:21Z</time>
      </trkpt>
      <trkpt lat="39.2199370" lon="-1.5448710">
        <ele>613.0</ele>
        <time>2019-05-11T08:18:22Z</time>
      </trkpt>
      <trkpt lat="39.2199110" lon="-1.5449630">
        <ele>613.0</ele>
        <time>2019-05-11T08:18:23Z</time>
      </trkpt>
      <trkpt lat="39.2198880" lon="-1.5450520">
        <ele>613.2</ele>
        <time>2019-05-11T08:18:24Z</time>
      </trkpt>
      <trkpt lat="39.2198660" lon="-1.5451370">
        <ele>613.4</ele>
        <time>2019-05-11T08:18:25Z</time>
      </trkpt>
      <trkpt lat="39.2198480" lon="-1.5452160">
        <ele>613.8</ele>
        <time>2019-05-11T08:18:26Z</time>
      </trkpt>
      <trkpt lat="39.2198350" lon="-1.5452970">
        <ele>614.0</ele>
        <time>2019-05-11T08:18:27Z</time>
      </trkpt>
      <trkpt lat="39.2198240" lon="-1.5453850">
        <ele>614.2</ele>
        <time>2019-05-11T08:18:28Z</time>
      </trkpt>
      <trkpt lat="39.2198180" lon="-1.5454790">
        <ele>614.2</ele>
        <time>2019-05-11T08:18:29Z</time>
      </trkpt>
      <trkpt lat="39.2198150" lon="-1.5455810">
        <ele>614.4</ele>
        <time>2019-05-11T08:18:30Z</time>
      </trkpt>
      <trkpt lat="39.2198180" lon="-1.5456900">
        <ele>614.4</ele>
        <time>2019-05-11T08:18:31Z</time>
      </trkpt>
      <trkpt lat="39.2198260" lon="-1.5458070">
        <ele>614.4</ele>
        <time>2019-05-11T08:18:32Z</time>
      </trkpt>
      <trkpt lat="39.2198400" lon="-1.5459310">
        <ele>614.4</ele>
        <time>2019-05-11T08:18:33Z</time>
      </trkpt>
      <trkpt lat="39.2198550" lon="-1.5460650">
        <ele>614.4</ele>
        <time>2019-05-11T08:18:34Z</time>
      </trkpt>
      <trkpt lat="39.2198720" lon="-1.5462030">
        <ele>614.4</ele>
        <time>2019-05-11T08:18:35Z</time>
      </trkpt>
      <trkpt lat="39.2198910" lon="-1.5463440">
        <ele>614.2</ele>
        <time>2019-05-11T08:18:36Z</time>
      </trkpt>
      <trkpt lat="39.2199120" lon="-1.5464850">
        <ele>613.6</ele>
        <time>2019-05-11T08:18:37Z</time>
      </trkpt>
      <trkpt lat="39.2199380" lon="-1.5466210">
        <ele>613.2</ele>
        <time>2019-05-11T08:18:38Z</time>
      </trkpt>
      <trkpt lat="39.2199700" lon="-1.5467550">
        <ele>613.0</ele>
        <time>2019-05-11T08:18:39Z</time>
      </trkpt>
      <trkpt lat="39.2200080" lon="-1.5468830">
        <ele>612.4</ele>
        <time>2019-05-11T08:18:40Z</time>
      </trkpt>
      <trkpt lat="39.2200520" lon="-1.5470080">
        <ele>611.4</ele>
        <time>2019-05-11T08:18:41Z</time>
      </trkpt>
      <trkpt lat="39.2200980" lon="-1.5471300">
        <ele>610.4</ele>
        <time>2019-05-11T08:18:42Z</time>
      </trkpt>
      <trkpt lat="39.2201450" lon="-1.5472490">
        <ele>609.8</ele>
        <time>2019-05-11T08:18:43Z</time>
      </trkpt>
      <trkpt lat="39.2201930" lon="-1.5473640">
        <ele>609.2</ele>
        <time>2019-05-11T08:18:44Z</time>
      </trkpt>
      <trkpt lat="39.2202440" lon="-1.5474770">
        <ele>609.0</ele>
        <time>2019-05-11T08:18:45Z</time>
      </trkpt>
      <trkpt lat="39.2202950" lon="-1.5475880">
        <ele>608.8</ele>
        <time>2019-05-11T08:18:46Z</time>
      </trkpt>
      <trkpt lat="39.2203450" lon="-1.5477000">
        <ele>608.8</ele>
        <time>2019-05-11T08:18:47Z</time>
      </trkpt>
      <trkpt lat="39.2203950" lon="-1.5478100">
        <ele>608.6</ele>
        <time>2019-05-11T08:18:48Z</time>
      </trkpt>
      <trkpt lat="39.2204460" lon="-1.5479190">
        <ele>608.6</ele>
        <time>2019-05-11T08:18:49Z</time>
      </trkpt>
      <trkpt lat="39.2204950" lon="-1.5480260">
        <ele>608.2</ele>
        <time>2019-05-11T08:18:50Z</time>
      </trkpt>
      <trkpt lat="39.2205430" lon="-1.5481320">
        <ele>607.8</ele>
        <time>2019-05-11T08:18:51Z</time>
      </trkpt>
      <trkpt lat="39.2205900" lon="-1.5482350">
        <ele>607.6</ele>
        <time>2019-05-11T08:18:52Z</time>
      </trkpt>
      <trkpt lat="39.2206380" lon="-1.5483340">
        <ele>607.4</ele>
        <time>2019-05-11T08:18:53Z</time>
      </trkpt>
      <trkpt lat="39.2206830" lon="-1.5484320">
        <ele>607.4</ele>
        <time>2019-05-11T08:18:54Z</time>
      </trkpt>
      <trkpt lat="39.2207290" lon="-1.5485260">
        <ele>607.4</ele>
        <time>2019-05-11T08:18:55Z</time>
      </trkpt>
      <trkpt lat="39.2207760" lon="-1.5486170">
        <ele>607.4</ele>
        <time>2019-05-11T08:18:56Z</time>
      </trkpt>
      <trkpt lat="39.2208260" lon="-1.5487030">
        <ele>607.2</ele>
        <time>2019-05-11T08:18:57Z</time>
      </trkpt>
      <trkpt lat="39.2208760" lon="-1.5487840">
        <ele>607.2</ele>
        <time>2019-05-11T08:18:58Z</time>
      </trkpt>
      <trkpt lat="39.2209270" lon="-1.5488660">
        <ele>607.2</ele>
        <time>2019-05-11T08:18:59Z</time>
      </trkpt>
      <trkpt lat="39.2209730" lon="-1.5489560">
        <ele>607.2</ele>
        <time>2019-05-11T08:19:00Z</time>
      </trkpt>
      <trkpt lat="39.2210060" lon="-1.5490600">
        <ele>607.2</ele>
        <time>2019-05-11T08:19:01Z</time>
      </trkpt>
      <trkpt lat="39.2210240" lon="-1.5491750">
        <ele>607.0</ele>
        <time>2019-05-11T08:19:02Z</time>
      </trkpt>
      <trkpt lat="39.2210240" lon="-1.5492920">
        <ele>607.0</ele>
        <time>2019-05-11T08:19:03Z</time>
      </trkpt>
      <trkpt lat="39.2210030" lon="-1.5494060">
        <ele>606.8</ele>
        <time>2019-05-11T08:19:04Z</time>
      </trkpt>
      <trkpt lat="39.2209660" lon="-1.5495120">
        <ele>606.8</ele>
        <time>2019-05-11T08:19:05Z</time>
      </trkpt>
      <trkpt lat="39.2209170" lon="-1.5496120">
        <ele>606.8</ele>
        <time>2019-05-11T08:19:06Z</time>
      </trkpt>
      <trkpt lat="39.2208590" lon="-1.5497030">
        <ele>606.8</ele>
        <time>2019-05-11T08:19:07Z</time>
      </trkpt>
      <trkpt lat="39.2207900" lon="-1.5497810">
        <ele>606.8</ele>
        <time>2019-05-11T08:19:08Z</time>
      </trkpt>
      <trkpt lat="39.2207140" lon="-1.5498420">
        <ele>606.8</ele>
        <time>2019-05-11T08:19:09Z</time>
      </trkpt>
      <trkpt lat="39.2206320" lon="-1.5498930">
        <ele>606.8</ele>
        <time>2019-05-11T08:19:10Z</time>
      </trkpt>
      <trkpt lat="39.2205460" lon="-1.5499410">
        <ele>606.8</ele>
        <time>2019-05-11T08:19:11Z</time>
      </trkpt>
      <trkpt lat="39.2204560" lon="-1.5499890">
        <ele>607.0</ele>
        <time>2019-05-11T08:19:12Z</time>
      </trkpt>
      <trkpt lat="39.2203630" lon="-1.5500390">
        <ele>606.8</ele>
        <time>2019-05-11T08:19:13Z</time>
      </trkpt>
      <trkpt lat="39.2202710" lon="-1.5500890">
        <ele>606.8</ele>
        <time>2019-05-11T08:19:14Z</time>
      </trkpt>
      <trkpt lat="39.2201800" lon="-1.5501370">
        <ele>606.8</ele>
        <time>2019-05-11T08:19:15Z</time>
      </trkpt>
      <trkpt lat="39.2200910" lon="-1.5501830">
        <ele>606.6</ele>
        <time>2019-05-11T08:19:16Z</time>
      </trkpt>
      <trkpt lat="39.2200020" lon="-1.5502250">
        <ele>606.6</ele>
        <time>2019-05-11T08:19:17Z</time>
      </trkpt>
      <trkpt lat="39.2199130" lon="-1.5502600">
        <ele>606.6</ele>
        <time>2019-05-11T08:19:18Z</time>
      </trkpt>
      <trkpt lat="39.2198230" lon="-1.5502840">
        <ele>606.6</ele>
        <time>2019-05-11T08:19:19Z</time>
      </trkpt>
      <trkpt lat="39.2197320" lon="-1.5502970">
        <ele>606.6</ele>
        <time>2019-05-11T08:19:20Z</time>
      </trkpt>
      <trkpt lat="39.2196410" lon="-1.5503040">
        <ele>606.6</ele>
        <time>2019-05-11T08:19:21Z</time>
      </trkpt>
      <trkpt lat="39.2195500" lon="-1.5503070">
        <ele>606.6</ele>
        <time>2019-05-11T08:19:22Z</time>
      </trkpt>
      <trkpt lat="39.2194580" lon="-1.5503040">
        <ele>606.6</ele>
        <time>2019-05-11T08:19:23Z</time>
      </trkpt>
      <trkpt lat="39.2193660" lon="-1.5502950">
        <ele>606.6</ele>
        <time>2019-05-11T08:19:24Z</time>
      </trkpt>
      <trkpt lat="39.2192760" lon="-1.5502840">
        <ele>606.4</ele>
        <time>2019-05-11T08:19:25Z</time>
      </trkpt>
      <trkpt lat="39.2191860" lon="-1.5502720">
        <ele>606.4</ele>
        <time>2019-05-11T08:19:26Z</time>
      </trkpt>
      <trkpt lat="39.2191000" lon="-1.5502580">
        <ele>606.4</ele>
        <time>2019-05-11T08:19:27Z</time>
      </trkpt>
      <trkpt lat="39.2190140" lon="-1.5502420">
        <ele>606.4</ele>
        <time>2019-05-11T08:19:28Z</time>
      </trkpt>
      <trkpt lat="39.2189300" lon="-1.5502230">
        <ele>606.4</ele>
        <time>2019-05-11T08:19:29Z</time>
      </trkpt>
      <trkpt lat="39.2188470" lon="-1.5501990">
        <ele>606.4</ele>
        <time>2019-05-11T08:19:30Z</time>
      </trkpt>
      <trkpt lat="39.2187620" lon="-1.5501720">
        <ele>606.2</ele>
        <time>2019-05-11T08:19:31Z</time>
      </trkpt>
      <trkpt lat="39.2186770" lon="-1.5501370">
        <ele>606.2</ele>
        <time>2019-05-11T08:19:32Z</time>
      </trkpt>
      <trkpt lat="39.2185930" lon="-1.5500960">
        <ele>606.2</ele>
        <time>2019-05-11T08:19:33Z</time>
      </trkpt>
      <trkpt lat="39.2185140" lon="-1.5500480">
        <ele>606.2</ele>
        <time>2019-05-11T08:19:34Z</time>
      </trkpt>
      <trkpt lat="39.2184430" lon="-1.5499990">
        <ele>606.2</ele>
        <time>2019-05-11T08:19:35Z</time>
      </trkpt>
      <trkpt lat="39.2183810" lon="-1.5499530">
        <ele>606.0</ele>
        <time>2019-05-11T08:19:36Z</time>
      </trkpt>
      <trkpt lat="39.2183270" lon="-1.5499070">
        <ele>606.0</ele>
        <time>2019-05-11T08:19:37Z</time>
      </trkpt>
      <trkpt lat="39.2182760" lon="-1.5498540">
        <ele>606.0</ele>
        <time>2019-05-11T08:19:38Z</time>
      </trkpt>
      <trkpt lat="39.2182320" lon="-1.5497920">
        <ele>605.8</ele>
        <time>2019-05-11T08:19:39Z</time>
      </trkpt>
      <trkpt lat="39.2181990" lon="-1.5497170">
        <ele>605.4</ele>
        <time>2019-05-11T08:19:40Z</time>
      </trkpt>
      <trkpt lat="39.2181770" lon="-1.5496310">
        <ele>605.0</ele>
        <time>2019-05-11T08:19:41Z</time>
      </trkpt>
      <trkpt lat="39.2181600" lon="-1.5495380">
        <ele>604.8</ele>
        <time>2019-05-11T08:19:42Z</time>
      </trkpt>
      <trkpt lat="39.2181460" lon="-1.5494430">
        <ele>604.4</ele>
        <time>2019-05-11T08:19:43Z</time>
      </trkpt>
      <trkpt lat="39.2181320" lon="-1.5493490">
        <ele>604.4</ele>
        <time>2019-05-11T08:19:44Z</time>
      </trkpt>
      <trkpt lat="39.2181170" lon="-1.5492550">
        <ele>604.2</ele>
        <time>2019-05-11T08:19:45Z</time>
      </trkpt>
      <trkpt lat="39.2180990" lon="-1.5491600">
        <ele>604.2</ele>
        <time>2019-05-11T08:19:46Z</time>
      </trkpt>
      <trkpt lat="39.2180820" lon="-1.5490670">
        <ele>604.2</ele>
        <time>2019-05-11T08:19:47Z</time>
      </trkpt>
      <trkpt lat="39.2180630" lon="-1.5489750">
        <ele>604.2</ele>
        <time>2019-05-11T08:19:48Z</time>
      </trkpt>
      <trkpt lat="39.2180440" lon="-1.5488850">
        <ele>604.2</ele>
        <time>2019-05-11T08:19:49Z</time>
      </trkpt>
      <trkpt lat="39.2180240" lon="-1.5487990">
        <ele>604.2</ele>
        <time>2019-05-11T08:19:50Z</time>
      </trkpt>
      <trkpt lat="39.2180040" lon="-1.5487160">
        <ele>604.2</ele>
        <time>2019-05-11T08:19:51Z</time>
      </trkpt>
      <trkpt lat="39.2179850" lon="-1.5486380">
        <ele>604.2</ele>
        <time>2019-05-11T08:19:52Z</time>
      </trkpt>
      <trkpt lat="39.2179670" lon="-1.5485630">
        <ele>604.4</ele>
        <time>2019-05-11T08:19:53Z</time>
      </trkpt>
      <trkpt lat="39.2179490" lon="-1.5484910">
        <ele>604.4</ele>
        <time>2019-05-11T08:19:54Z</time>
      </trkpt>
      <trkpt lat="39.2179320" lon="-1.5484190">
        <ele>604.6</ele>
        <time>2019-05-11T08:19:55Z</time>
      </trkpt>
      <trkpt lat="39.2179170" lon="-1.5483440">
        <ele>604.6</ele>
        <time>2019-05-11T08:19:56Z</time>
      </trkpt>
      <trkpt lat="39.2179020" lon="-1.5482690">
        <ele>604.8</ele>
        <time>2019-05-11T08:19:57Z</time>
      </trkpt>
      <trkpt lat="39.2178850" lon="-1.5481940">
        <ele>605.0</ele>
        <time>2019-05-11T08:19:58Z</time>
      </trkpt>
      <trkpt lat="39.2178660" lon="-1.5481210">
        <ele>605.4</ele>
        <time>2019-05-11T08:19:59Z</time>
      </trkpt>
      <trkpt lat="39.2178420" lon="-1.5480540">
        <ele>605.6</ele>
        <time>2019-05-11T08:20:00Z</time>
      </trkpt>
      <trkpt lat="39.2178150" lon="-1.5479900">
        <ele>606.0</ele>
        <time>2019-05-11T08:20:01Z</time>
      </trkpt>
      <trkpt lat="39.2177860" lon="-1.5479290">
        <ele>606.6</ele>
        <time>2019-05-11T08:20:02Z</time>
      </trkpt>
      <trkpt lat="39.2177580" lon="-1.5478690">
        <ele>606.8</ele>
        <time>2019-05-11T08:20:03Z</time>
      </trkpt>
      <trkpt lat="39.2177290" lon="-1.5478100">
        <ele>606.8</ele>
        <time>2019-05-11T08:20:04Z</time>
      </trkpt>
      <trkpt lat="39.2177020" lon="-1.5477510">
        <ele>607.2</ele>
        <time>2019-05-11T08:20:05Z</time>
      </trkpt>
      <trkpt lat="39.2176780" lon="-1.5476910">
        <ele>607.6</ele>
        <time>2019-05-11T08:20:06Z</time>
      </trkpt>
      <trkpt lat="39.2176570" lon="-1.5476270">
        <ele>608.0</ele>
        <time>2019-05-11T08:20:07Z</time>
      </trkpt>
      <trkpt lat="39.2176390" lon="-1.5475630">
        <ele>608.2</ele>
        <time>2019-05-11T08:20:08Z</time>
      </trkpt>
      <trkpt lat="39.2176220" lon="-1.5474990">
        <ele>608.4</ele>
        <time>2019-05-11T08:20:09Z</time>
      </trkpt>
      <trkpt lat="39.2176050" lon="-1.5474380">
        <ele>608.8</ele>
        <time>2019-05-11T08:20:10Z</time>
      </trkpt>
      <trkpt lat="39.2175750" lon="-1.5473830">
        <ele>609.2</ele>
        <time>2019-05-11T08:20:11Z</time>
      </trkpt>
      <trkpt lat="39.2175300" lon="-1.5473430">
        <ele>609.6</ele>
        <time>2019-05-11T08:20:12Z</time>
      </trkpt>
      <trkpt lat="39.2174760" lon="-1.5473160">
        <ele>609.8</ele>
        <time>2019-05-11T08:20:13Z</time>
      </trkpt>
      <trkpt lat="39.2174160" lon="-1.5472890">
        <ele>610.0</ele>
        <time>2019-05-11T08:20:14Z</time>
      </trkpt>
      <trkpt lat="39.2173540" lon="-1.5472630">
        <ele>610.0</ele>
        <time>2019-05-11T08:20:15Z</time>
      </trkpt>
      <trkpt lat="39.2172880" lon="-1.5472370">
        <ele>610.0</ele>
        <time>2019-05-11T08:20:16Z</time>
      </trkpt>
      <trkpt lat="39.2172180" lon="-1.5472110">
        <ele>610.0</ele>
        <time>2019-05-11T08:20:17Z</time>
      </trkpt>
      <trkpt lat="39.2171460" lon="-1.5471830">
        <ele>610.0</ele>
        <time>2019-05-11T08:20:18Z</time>
      </trkpt>
      <trkpt lat="39.2170720" lon="-1.5471530">
        <ele>610.0</ele>
        <time>2019-05-11T08:20:19Z</time>
      </trkpt>
      <trkpt lat="39.2169940" lon="-1.5471190">
        <ele>610.0</ele>
        <time>2019-05-11T08:20:20Z</time>
      </trkpt>
      <trkpt lat="39.2169130" lon="-1.5470810">
        <ele>610.0</ele>
        <time>2019-05-11T08:20:21Z</time>
      </trkpt>
      <trkpt lat="39.2168280" lon="-1.5470390">
        <ele>610.0</ele>
        <time>2019-05-11T08:20:22Z</time>
      </trkpt>
      <trkpt lat="39.2167440" lon="-1.5469910">
        <ele>609.6</ele>
        <time>2019-05-11T08:20:23Z</time>
      </trkpt>
      <trkpt lat="39.2166590" lon="-1.5469370">
        <ele>609.2</ele>
        <time>2019-05-11T08:20:24Z</time>
      </trkpt>
      <trkpt lat="39.2165720" lon="-1.5468850">
        <ele>609.0</ele>
        <time>2019-05-11T08:20:25Z</time>
      </trkpt>
      <trkpt lat="39.2164870" lon="-1.5468340">
        <ele>608.8</ele>
        <time>2019-05-11T08:20:26Z</time>
      </trkpt>
      <trkpt lat="39.2164030" lon="-1.5467860">
        <ele>608.6</ele>
        <time>2019-05-11T08:20:27Z</time>
      </trkpt>
      <trkpt lat="39.2163230" lon="-1.5467400">
        <ele>608.2</ele>
        <time>2019-05-11T08:20:28Z</time>
      </trkpt>
      <trkpt lat="39.2162430" lon="-1.5466920">
        <ele>607.4</ele>
        <time>2019-05-11T08:20:29Z</time>
      </trkpt>
      <trkpt lat="39.2161660" lon="-1.5466450">
        <ele>606.8</ele>
        <time>2019-05-11T08:20:30Z</time>
      </trkpt>
      <trkpt lat="39.2160920" lon="-1.5465950">
        <ele>606.0</ele>
        <time>2019-05-11T08:20:31Z</time>
      </trkpt>
      <trkpt lat="39.2160190" lon="-1.5465450">
        <ele>605.6</ele>
        <time>2019-05-11T08:20:32Z</time>
      </trkpt>
      <trkpt lat="39.2159430" lon="-1.5465070">
        <ele>605.2</ele>
        <time>2019-05-11T08:20:33Z</time>
      </trkpt>
      <trkpt lat="39.2158630" lon="-1.5464910">
        <ele>605.0</ele>
        <time>2019-05-11T08:20:34Z</time>
      </trkpt>
      <trkpt lat="39.2157810" lon="-1.5464950">
        <ele>604.2</ele>
        <time>2019-05-11T08:20:35Z</time>
      </trkpt>
      <trkpt lat="39.2156990" lon="-1.5465130">
        <ele>603.8</ele>
        <time>2019-05-11T08:20:36Z</time>
      </trkpt>
      <trkpt lat="39.2156160" lon="-1.5465370">
        <ele>603.4</ele>
        <time>2019-05-11T08:20:37Z</time>
      </trkpt>
      <trkpt lat="39.2155330" lon="-1.5465690">
        <ele>603.2</ele>
        <time>2019-05-11T08:20:38Z</time>
      </trkpt>
      <trkpt lat="39.2154500" lon="-1.5466080">
        <ele>603.0</ele>
        <time>2019-05-11T08:20:39Z</time>
      </trkpt>
      <trkpt lat="39.2153650" lon="-1.5466510">
        <ele>602.8</ele>
        <time>2019-05-11T08:20:40Z</time>
      </trkpt>
      <trkpt lat="39.2152820" lon="-1.5466970">
        <ele>602.6</ele>
        <time>2019-05-11T08:20:41Z</time>
      </trkpt>
      <trkpt lat="39.2151980" lon="-1.5467430">
        <ele>602.6</ele>
        <time>2019-05-11T08:20:42Z</time>
      </trkpt>
      <trkpt lat="39.2151160" lon="-1.5467880">
        <ele>602.4</ele>
        <time>2019-05-11T08:20:43Z</time>
      </trkpt>
      <trkpt lat="39.2150380" lon="-1.5468290">
        <ele>602.4</ele>
        <time>2019-05-11T08:20:44Z</time>
      </trkpt>
      <trkpt lat="39.2149600" lon="-1.5468690">
        <ele>602.4</ele>
        <time>2019-05-11T08:20:45Z</time>
      </trkpt>
      <trkpt lat="39.2148830" lon="-1.5469090">
        <ele>602.4</ele>
        <time>2019-05-11T08:20:46Z</time>
      </trkpt>
      <trkpt lat="39.2148070" lon="-1.5469490">
        <ele>602.4</ele>
        <time>2019-05-11T08:20:47Z</time>
      </trkpt>
      <trkpt lat="39.2147320" lon="-1.5469970">
        <ele>602.4</ele>
        <time>2019-05-11T08:20:48Z</time>
      </trkpt>
      <trkpt lat="39.2146590" lon="-1.5470500">
        <ele>602.2</ele>
        <time>2019-05-11T08:20:49Z</time>
      </trkpt>
      <trkpt lat="39.2145910" lon="-1.5470950">
        <ele>602.2</ele>
        <time>2019-05-11T08:20:50Z</time>
      </trkpt>
      <trkpt lat="39.2145280" lon="-1.5471180">
        <ele>602.2</ele>
        <time>2019-05-11T08:20:51Z</time>
      </trkpt>
      <trkpt lat="39.2144680" lon="-1.5471110">
        <ele>602.2</ele>
        <time>2019-05-11T08:20:52Z</time>
      </trkpt>
      <trkpt lat="39.2144100" lon="-1.5470750">
        <ele>602.0</ele>
        <time>2019-05-11T08:20:53Z</time>
      </trkpt>
      <trkpt lat="39.2143550" lon="-1.5470210">
        <ele>602.0</ele>
        <time>2019-05-11T08:20:54Z</time>
      </trkpt>
      <trkpt lat="39.2143020" lon="-1.5469540">
        <ele>602.0</ele>
        <time>2019-05-11T08:20:55Z</time>
      </trkpt>
      <trkpt lat="39.2142480" lon="-1.5468840">
        <ele>602.0</ele>
        <time>2019-05-11T08:20:56Z</time>
      </trkpt>
      <trkpt lat="39.2141900" lon="-1.5468210">
        <ele>602.2</ele>
        <time>2019-05-11T08:20:57Z</time>
      </trkpt>
      <trkpt lat="39.2141270" lon="-1.5467660">
        <ele>602.2</ele>
        <time>2019-05-11T08:20:58Z</time>
      </trkpt>
      <trkpt lat="39.2140600" lon="-1.5467220">
        <ele>602.0</ele>
        <time>2019-05-11T08:20:59Z</time>
      </trkpt>
      <trkpt lat="39.2139910" lon="-1.5466860">
        <ele>602.0</ele>
        <time>2019-05-11T08:21:00Z</time>
      </trkpt>
      <trkpt lat="39.2139230" lon="-1.5466490">
        <ele>602.0</ele>
        <time>2019-05-11T08:21:01Z</time>
      </trkpt>
      <trkpt lat="39.2138540" lon="-1.5466140">
        <ele>602.0</ele>
        <time>2019-05-11T08:21:02Z</time>
      </trkpt>
      <trkpt lat="39.2137860" lon="-1.5465810">
        <ele>602.0</ele>
        <time>2019-05-11T08:21:03Z</time>
      </trkpt>
      <trkpt lat="39.2137200" lon="-1.5465500">
        <ele>602.0</ele>
        <time>2019-05-11T08:21:04Z</time>
      </trkpt>
      <trkpt lat="39.2136590" lon="-1.5465190">
        <ele>602.0</ele>
        <time>2019-05-11T08:21:05Z</time>
      </trkpt>
      <trkpt lat="39.2136040" lon="-1.5464870">
        <ele>602.0</ele>
        <time>2019-05-11T08:21:06Z</time>
      </trkpt>
      <trkpt lat="39.2135510" lon="-1.5464510">
        <ele>602.0</ele>
        <time>2019-05-11T08:21:07Z</time>
      </trkpt>
      <trkpt lat="39.2134990" lon="-1.5464100">
        <ele>602.0</ele>
        <time>2019-05-11T08:21:08Z</time>
      </trkpt>
      <trkpt lat="39.2134490" lon="-1.5463650">
        <ele>602.0</ele>
        <time>2019-05-11T08:21:09Z</time>
      </trkpt>
      <trkpt lat="39.2133970" lon="-1.5463190">
        <ele>602.2</ele>
        <time>2019-05-11T08:21:10Z</time>
      </trkpt>
      <trkpt lat="39.2133470" lon="-1.5462760">
        <ele>602.2</ele>
        <time>2019-05-11T08:21:11Z</time>
      </trkpt>
      <trkpt lat="39.2132980" lon="-1.5462360">
        <ele>602.2</ele>
        <time>2019-05-11T08:21:12Z</time>
      </trkpt>
      <trkpt lat="39.2132500" lon="-1.5461950">
        <ele>602.2</ele>
        <time>2019-05-11T08:21:13Z</time>
      </trkpt>
      <trkpt lat="39.2132030" lon="-1.5461510">
        <ele>602.2</ele>
        <time>2019-05-11T08:21:14Z</time>
      </trkpt>
      <trkpt lat="39.2131550" lon="-1.5461080">
        <ele>602.2</ele>
        <time>2019-05-11T08:21:15Z</time>
      </trkpt>
      <trkpt lat="39.2131050" lon="-1.5460660">
        <ele>602.2</ele>
        <time>2019-05-11T08:21:16Z</time>
      </trkpt>
      <trkpt lat="39.2130570" lon="-1.5460240">
        <ele>602.2</ele>
        <time>2019-05-11T08:21:17Z</time>
      </trkpt>
      <trkpt lat="39.2130120" lon="-1.5459820">
        <ele>602.4</ele>
        <time>2019-05-11T08:21:18Z</time>
      </trkpt>
      <trkpt lat="39.2129690" lon="-1.5459410">
        <ele>602.4</ele>
        <time>2019-05-11T08:21:19Z</time>
      </trkpt>
      <trkpt lat="39.2129280" lon="-1.5459030">
        <ele>602.4</ele>
        <time>2019-05-11T08:21:20Z</time>
      </trkpt>
      <trkpt lat="39.2128910" lon="-1.5458710">
        <ele>602.4</ele>
        <time>2019-05-11T08:21:21Z</time>
      </trkpt>
      <trkpt lat="39.2128550" lon="-1.5458430">
        <ele>602.6</ele>
        <time>2019-05-11T08:21:22Z</time>
      </trkpt>
      <trkpt lat="39.2128240" lon="-1.5458200">
        <ele>602.6</ele>
        <time>2019-05-11T08:21:23Z</time>
      </trkpt>
      <trkpt lat="39.2127970" lon="-1.5458010">
        <ele>602.8</ele>
        <time>2019-05-11T08:21:24Z</time>
      </trkpt>
      <trkpt lat="39.2127750" lon="-1.5457890">
        <ele>603.0</ele>
        <time>2019-05-11T08:21:25Z</time>
      </trkpt>
      <trkpt lat="39.2127520" lon="-1.5457800">
        <ele>603.4</ele>
        <time>2019-05-11T08:21:26Z</time>
      </trkpt>
      <trkpt lat="39.2127280" lon="-1.5457720">
        <ele>603.8</ele>
        <time>2019-05-11T08:21:27Z</time>
      </trkpt>
      <trkpt lat="39.2127040" lon="-1.5457610">
        <ele>604.2</ele>
        <time>2019-05-11T08:21:28Z</time>
      </trkpt>
      <trkpt lat="39.2126780" lon="-1.5457470">
        <ele>604.6</ele>
        <time>2019-05-11T08:21:29Z</time>
      </trkpt>
      <trkpt lat="39.2126560" lon="-1.5457300">
        <ele>605.0</ele>
        <time>2019-05-11T08:21:30Z</time>
      </trkpt>
      <trkpt lat="39.2126350" lon="-1.5457150">
        <ele>605.6</ele>
        <time>2019-05-11T08:21:31Z</time>
      </trkpt>
      <trkpt lat="39.2126110" lon="-1.5456990">
        <ele>606.0</ele>
        <time>2019-05-11T08:21:32Z</time>
      </trkpt>
      <trkpt lat="39.2125900" lon="-1.5456770">
        <ele>606.6</ele>
        <time>2019-05-11T08:21:33Z</time>
      </trkpt>
      <trkpt lat="39.2125730" lon="-1.5456470">
        <ele>607.0</ele>
        <time>2019-05-11T08:21:34Z</time>
      </trkpt>
      <trkpt lat="39.2125560" lon="-1.5456150">
        <ele>607.6</ele>
        <time>2019-05-11T08:21:35Z</time>
      </trkpt>
      <trkpt lat="39.2125400" lon="-1.5455840">
        <ele>608.2</ele>
        <time>2019-05-11T08:21:36Z</time>
      </trkpt>
      <trkpt lat="39.2125300" lon="-1.5455530">
        <ele>608.8</ele>
        <time>2019-05-11T08:21:37Z</time>
      </trkpt>
      <trkpt lat="39.2125230" lon="-1.5455210">
        <ele>609.4</ele>
        <time>2019-05-11T08:21:38Z</time>
      </trkpt>
      <trkpt lat="39.2125140" lon="-1.5454910">
        <ele>610.2</ele>
        <time>2019-05-11T08:21:39Z</time>
      </trkpt>
      <trkpt lat="39.2125000" lon="-1.5454640">
        <ele>610.8</ele>
        <time>2019-05-11T08:21:40Z</time>
      </trkpt>
      <trkpt lat="39.2124880" lon="-1.5454410">
        <ele>611.4</ele>
        <time>2019-05-11T08:21:41Z</time>
      </trkpt>
      <trkpt lat="39.2124750" lon="-1.5454200">
        <ele>611.8</ele>
        <time>2019-05-11T08:21:42Z</time>
      </trkpt>
      <trkpt lat="39.2124610" lon="-1.5453970">
        <ele>612.4</ele>
        <time>2019-05-11T08:21:43Z</time>
      </trkpt>
      <trkpt lat="39.2124450" lon="-1.5453730">
        <ele>613.0</ele>
        <time>2019-05-11T08:21:44Z</time>
      </trkpt>
      <trkpt lat="39.2124290" lon="-1.5453470">
        <ele>613.6</ele>
        <time>2019-05-11T08:21:45Z</time>
      </trkpt>
      <trkpt lat="39.2124150" lon="-1.5453190">
        <ele>614.2</ele>
        <time>2019-05-11T08:21:46Z</time>
      </trkpt>
      <trkpt lat="39.2123990" lon="-1.5452910">
        <ele>614.8</ele>
        <time>2019-05-11T08:21:47Z</time>
      </trkpt>
      <trkpt lat="39.2123830" lon="-1.5452630">
        <ele>615.2</ele>
        <time>2019-05-11T08:21:48Z</time>
      </trkpt>
      <trkpt lat="39.2123630" lon="-1.5452330">
        <ele>615.6</ele>
        <time>2019-05-11T08:21:49Z</time>
      </trkpt>
      <trkpt lat="39.2123410" lon="-1.5452000">
        <ele>616.0</ele>
        <time>2019-05-11T08:21:50Z</time>
      </trkpt>
      <trkpt lat="39.2123190" lon="-1.5451680">
        <ele>616.2</ele>
        <time>2019-05-11T08:21:51Z</time>
      </trkpt>
      <trkpt lat="39.2122960" lon="-1.5451370">
        <ele>616.4</ele>
        <time>2019-05-11T08:21:52Z</time>
      </trkpt>
      <trkpt lat="39.2122720" lon="-1.5451100">
        <ele>616.6</ele>
        <time>2019-05-11T08:21:53Z</time>
      </trkpt>
      <trkpt lat="39.2122480" lon="-1.5450860">
        <ele>616.6</ele>
        <time>2019-05-11T08:21:54Z</time>
      </trkpt>
      <trkpt lat="39.2122250" lon="-1.5450650">
        <ele>616.8</ele>
        <time>2019-05-11T08:21:55Z</time>
      </trkpt>
      <trkpt lat="39.2122030" lon="-1.5450460">
        <ele>617.0</ele>
        <time>2019-05-11T08:21:56Z</time>
      </trkpt>
      <trkpt lat="39.2121790" lon="-1.5450270">
        <ele>617.0</ele>
        <time>2019-05-11T08:21:57Z</time>
      </trkpt>
      <trkpt lat="39.2121540" lon="-1.5450070">
        <ele>617.4</ele>
        <time>2019-05-11T08:21:58Z</time>
      </trkpt>
      <trkpt lat="39.2121290" lon="-1.5449850">
        <ele>617.6</ele>
        <time>2019-05-11T08:21:59Z</time>
      </trkpt>
      <trkpt lat="39.2121050" lon="-1.5449660">
        <ele>618.0</ele>
        <time>2019-05-11T08:22:00Z</time>
      </trkpt>
      <trkpt lat="39.2120790" lon="-1.5449500">
        <ele>618.2</ele>
        <time>2019-05-11T08:22:01Z</time>
      </trkpt>
      <trkpt lat="39.2120510" lon="-1.5449340">
        <ele>618.8</ele>
        <time>2019-05-11T08:22:02Z</time>
      </trkpt>
      <trkpt lat="39.2120250" lon="-1.5449180">
        <ele>619.0</ele>
        <time>2019-05-11T08:22:03Z</time>
      </trkpt>
      <trkpt lat="39.2120010" lon="-1.5449020">
        <ele>619.4</ele>
        <time>2019-05-11T08:22:04Z</time>
      </trkpt>
      <trkpt lat="39.2119780" lon="-1.5448840">
        <ele>619.8</ele>
        <time>2019-05-11T08:22:05Z</time>
      </trkpt>
      <trkpt lat="39.2119590" lon="-1.5448650">
        <ele>620.0</ele>
        <time>2019-05-11T08:22:06Z</time>
      </trkpt>
      <trkpt lat="39.2119410" lon="-1.5448470">
        <ele>620.4</ele>
        <time>2019-05-11T08:22:07Z</time>
      </trkpt>
      <trkpt lat="39.2119240" lon="-1.5448280">
        <ele>620.8</ele>
        <time>2019-05-11T08:22:08Z</time>
      </trkpt>
      <trkpt lat="39.2119090" lon="-1.5448090">
        <ele>621.0</ele>
        <time>2019-05-11T08:22:09Z</time>
      </trkpt>
      <trkpt lat="39.2118970" lon="-1.5447880">
        <ele>621.2</ele>
        <time>2019-05-11T08:22:10Z</time>
      </trkpt>
      <trkpt lat="39.2118860" lon="-1.5447630">
        <ele>621.4</ele>
        <time>2019-05-11T08:22:11Z</time>
      </trkpt>
      <trkpt lat="39.2118730" lon="-1.5447400">
        <ele>621.6</ele>
        <time>2019-05-11T08:22:12Z</time>
      </trkpt>
      <trkpt lat="39.2118600" lon="-1.5447170">
        <ele>622.0</ele>
        <time>2019-05-11T08:22:13Z</time>
      </trkpt>
      <trkpt lat="39.2118460" lon="-1.5446940">
        <ele>622.2</ele>
        <time>2019-05-11T08:22:14Z</time>
      </trkpt>
      <trkpt lat="39.2118330" lon="-1.5446700">
        <ele>622.6</ele>
        <time>2019-05-11T08:22:15Z</time>
      </trkpt>
      <trkpt lat="39.2118160" lon="-1.5446480">
        <ele>623.0</ele>
        <time>2019-05-11T08:22:16Z</time>
      </trkpt>
      <trkpt lat="39.2117980" lon="-1.5446290">
        <ele>623.4</ele>
        <time>2019-05-11T08:22:17Z</time>
      </trkpt>
      <trkpt lat="39.2117770" lon="-1.5446130">
        <ele>623.6</ele>
        <time>2019-05-11T08:22:18Z</time>
      </trkpt>
      <trkpt lat="39.2117540" lon="-1.5445970">
        <ele>624.0</ele>
        <time>2019-05-11T08:22:19Z</time>
      </trkpt>
      <trkpt lat="39.2117320" lon="-1.5445830">
        <ele>624.4</ele>
        <time>2019-05-11T08:22:20Z</time>
      </trkpt>
      <trkpt lat="39.2117070" lon="-1.5445700">
        <ele>624.6</ele>
        <time>2019-05-11T08:22:21Z</time>
      </trkpt>
      <trkpt lat="39.2116820" lon="-1.5445590">
        <ele>625.0</ele>
        <time>2019-05-11T08:22:22Z</time>
      </trkpt>
      <trkpt lat="39.2116560" lon="-1.5445490">
        <ele>625.4</ele>
        <time>2019-05-11T08:22:23Z</time>
      </trkpt>
      <trkpt lat="39.2116300" lon="-1.5445420">
        <ele>625.6</ele>
        <time>2019-05-11T08:22:24Z</time>
      </trkpt>
      <trkpt lat="39.2116030" lon="-1.5445340">
        <ele>625.8</ele>
        <time>2019-05-11T08:22:25Z</time>
      </trkpt>
      <trkpt lat="39.2115760" lon="-1.5445290">
        <ele>626.2</ele>
        <time>2019-05-11T08:22:26Z</time>
      </trkpt>
      <trkpt lat="39.2115500" lon="-1.5445260">
        <ele>626.4</ele>
        <time>2019-05-11T08:22:27Z</time>
      </trkpt>
      <trkpt lat="39.2115240" lon="-1.5445250">
        <ele>626.8</ele>
        <time>2019-05-11T08:22:28Z</time>
      </trkpt>
      <trkpt lat="39.2114980" lon="-1.5445240">
        <ele>627.0</ele>
        <time>2019-05-11T08:22:29Z</time>
      </trkpt>
      <trkpt lat="39.2114720" lon="-1.5445240">
        <ele>627.0</ele>
        <time>2019-05-11T08:22:30Z</time>
      </trkpt>
      <trkpt lat="39.2114460" lon="-1.5445250">
        <ele>627.2</ele>
        <time>2019-05-11T08:22:31Z</time>
      </trkpt>
      <trkpt lat="39.2114190" lon="-1.5445290">
        <ele>627.4</ele>
        <time>2019-05-11T08:22:32Z</time>
      </trkpt>
      <trkpt lat="39.2113920" lon="-1.5445350">
        <ele>627.8</ele>
        <time>2019-05-11T08:22:33Z</time>
      </trkpt>
      <trkpt lat="39.2113640" lon="-1.5445430">
        <ele>628.0</ele>
        <time>2019-05-11T08:22:34Z</time>
      </trkpt>
      <trkpt lat="39.2113330" lon="-1.5445520">
        <ele>628.2</ele>
        <time>2019-05-11T08:22:35Z</time>
      </trkpt>
      <trkpt lat="39.2113030" lon="-1.5445580">
        <ele>628.6</ele>
        <time>2019-05-11T08:22:36Z</time>
      </trkpt>
      <trkpt lat="39.2112710" lon="-1.5445620">
        <ele>629.0</ele>
        <time>2019-05-11T08:22:37Z</time>
      </trkpt>
      <trkpt lat="39.2112390" lon="-1.5445630">
        <ele>629.2</ele>
        <time>2019-05-11T08:22:38Z</time>
      </trkpt>
      <trkpt lat="39.2112070" lon="-1.5445620">
        <ele>629.6</ele>
        <time>2019-05-11T08:22:39Z</time>
      </trkpt>
      <trkpt lat="39.2111760" lon="-1.5445580">
        <ele>629.8</ele>
        <time>2019-05-11T08:22:40Z</time>
      </trkpt>
      <trkpt lat="39.2111440" lon="-1.5445460">
        <ele>630.0</ele>
        <time>2019-05-11T08:22:41Z</time>
      </trkpt>
      <trkpt lat="39.2111130" lon="-1.5445250">
        <ele>630.2</ele>
        <time>2019-05-11T08:22:42Z</time>
      </trkpt>
      <trkpt lat="39.2110820" lon="-1.5444980">
        <ele>630.2</ele>
        <time>2019-05-11T08:22:43Z</time>
      </trkpt>
      <trkpt lat="39.2110540" lon="-1.5444670">
        <ele>630.4</ele>
        <time>2019-05-11T08:22:44Z</time>
      </trkpt>
      <trkpt lat="39.2110250" lon="-1.5444360">
        <ele>630.4</ele>
        <time>2019-05-11T08:22:45Z</time>
      </trkpt>
      <trkpt lat="39.2109940" lon="-1.5444100">
        <ele>630.6</ele>
        <time>2019-05-11T08:22:46Z</time>
      </trkpt>
      <trkpt lat="39.2109610" lon="-1.5443880">
        <ele>630.8</ele>
        <time>2019-05-11T08:22:47Z</time>
      </trkpt>
      <trkpt lat="39.2109240" lon="-1.5443670">
        <ele>631.0</ele>
        <time>2019-05-11T08:22:48Z</time>
      </trkpt>
      <trkpt lat="39.2108870" lon="-1.5443520">
        <ele>631.4</ele>
        <time>2019-05-11T08:22:49Z</time>
      </trkpt>
      <trkpt lat="39.2108490" lon="-1.5443380">
        <ele>632.0</ele>
        <time>2019-05-11T08:22:50Z</time>
      </trkpt>
      <trkpt lat="39.2108120" lon="-1.5443260">
        <ele>632.4</ele>
        <time>2019-05-11T08:22:51Z</time>
      </trkpt>
      <trkpt lat="39.2107770" lon="-1.5443080">
        <ele>632.8</ele>
        <time>2019-05-11T08:22:52Z</time>
      </trkpt>
      <trkpt lat="39.2107470" lon="-1.5442850">
        <ele>633.4</ele>
        <time>2019-05-11T08:22:53Z</time>
      </trkpt>
      <trkpt lat="39.2107250" lon="-1.5442620">
        <ele>633.6</ele>
        <time>2019-05-11T08:22:54Z</time>
      </trkpt>
      <trkpt lat="39.2107160" lon="-1.5442390">
        <ele>633.8</ele>
        <time>2019-05-11T08:22:55Z</time>
      </trkpt>
      <trkpt lat="39.2107150" lon="-1.5442140">
        <ele>634.0</ele>
        <time>2019-05-11T08:22:56Z</time>
      </trkpt>
      <trkpt lat="39.2107200" lon="-1.5441980">
        <ele>634.0</ele>
        <time>2019-05-11T08:22:57Z</time>
      </trkpt>
      <trkpt lat="39.2107250" lon="-1.5441970">
        <ele>634.2</ele>
        <time>2019-05-11T08:22:58Z</time>
      </trkpt>
      <trkpt lat="39.2107260" lon="-1.5441990">
        <ele>634.4</ele>
        <time>2019-05-11T08:22:59Z</time>
      </trkpt>
      <trkpt lat="39.2107280" lon="-1.5441990">
        <ele>634.4</ele>
        <time>2019-05-11T08:23:00Z</time>
      </trkpt>
      <trkpt lat="39.2107380" lon="-1.5442050">
        <ele>634.6</ele>
        <time>2019-05-11T08:23:01Z</time>
      </trkpt>
      <trkpt lat="39.2107490" lon="-1.5442060">
        <ele>634.8</ele>
        <time>2019-05-11T08:23:02Z</time>
      </trkpt>
      <trkpt lat="39.2107560" lon="-1.5442100">
        <ele>635.2</ele>
        <time>2019-05-11T08:23:03Z</time>
      </trkpt>
      <trkpt lat="39.2107560" lon="-1.5442100">
        <ele>635.4</ele>
        <time>2019-05-11T08:23:04Z</time>
      </trkpt>
      <trkpt lat="39.2107610" lon="-1.5442150">
        <ele>635.8</ele>
        <time>2019-05-11T08:23:05Z</time>
      </trkpt>
      <trkpt lat="39.2107720" lon="-1.5442280">
        <ele>636.0</ele>
        <time>2019-05-11T08:23:06Z</time>
      </trkpt>
      <trkpt lat="39.2107830" lon="-1.5442360">
        <ele>636.2</ele>
        <time>2019-05-11T08:23:07Z</time>
      </trkpt>
      <trkpt lat="39.2107920" lon="-1.5442480">
        <ele>636.2</ele>
        <time>2019-05-11T08:23:08Z</time>
      </trkpt>
      <trkpt lat="39.2108010" lon="-1.5442420">
        <ele>636.4</ele>
        <time>2019-05-11T08:23:09Z</time>
      </trkpt>
      <trkpt lat="39.2108100" lon="-1.5442370">
        <ele>636.6</ele>
        <time>2019-05-11T08:23:10Z</time>
      </trkpt>
      <trkpt lat="39.2108100" lon="-1.5442320">
        <ele>637.2</ele>
        <time>2019-05-11T08:23:11Z</time>
      </trkpt>
      <trkpt lat="39.2108080" lon="-1.5442260">
        <ele>637.6</ele>
        <time>2019-05-11T08:23:12Z</time>
      </trkpt>
      <trkpt lat="39.2107980" lon="-1.5442140">
        <ele>637.8</ele>
        <time>2019-05-11T08:23:13Z</time>
      </trkpt>
      <trkpt lat="39.2107770" lon="-1.5442020">
        <ele>638.2</ele>
        <time>2019-05-11T08:23:14Z</time>
      </trkpt>
      <trkpt lat="39.2107630" lon="-1.5441940">
        <ele>638.4</ele>
        <time>2019-05-11T08:23:15Z</time>
      </trkpt>
      <trkpt lat="39.2107430" lon="-1.5441810">
        <ele>638.8</ele>
        <time>2019-05-11T08:23:16Z</time>
      </trkpt>
      <trkpt lat="39.2107180" lon="-1.5441630">
        <ele>639.0</ele>
        <time>2019-05-11T08:23:17Z</time>
      </trkpt>
      <trkpt lat="39.2106890" lon="-1.5441440">
        <ele>639.2</ele>
        <time>2019-05-11T08:23:18Z</time>
      </trkpt>
      <trkpt lat="39.2106550" lon="-1.5441240">
        <ele>639.4</ele>
        <time>2019-05-11T08:23:19Z</time>
      </trkpt>
      <trkpt lat="39.2106200" lon="-1.5441020">
        <ele>639.4</ele>
        <time>2019-05-11T08:23:20Z</time>
      </trkpt>
      <trkpt lat="39.2105820" lon="-1.5440840">
        <ele>639.4</ele>
        <time>2019-05-11T08:23:21Z</time>
      </trkpt>
      <trkpt lat="39.2105440" lon="-1.5440660">
        <ele>639.4</ele>
        <time>2019-05-11T08:23:22Z</time>
      </trkpt>
      <trkpt lat="39.2105060" lon="-1.5440480">
        <ele>639.6</ele>
        <time>2019-05-11T08:23:23Z</time>
      </trkpt>
      <trkpt lat="39.2104680" lon="-1.5440340">
        <ele>639.6</ele>
        <time>2019-05-11T08:23:24Z</time>
      </trkpt>
      <trkpt lat="39.2104290" lon="-1.5440210">
        <ele>639.6</ele>
        <time>2019-05-11T08:23:25Z</time>
      </trkpt>
      <trkpt lat="39.2103900" lon="-1.5440100">
        <ele>639.6</ele>
        <time>2019-05-11T08:23:26Z</time>
      </trkpt>
      <trkpt lat="39.2103500" lon="-1.5439990">
        <ele>639.6</ele>
        <time>2019-05-11T08:23:27Z</time>
      </trkpt>
      <trkpt lat="39.2103090" lon="-1.5439910">
        <ele>639.6</ele>
        <time>2019-05-11T08:23:28Z</time>
      </trkpt>
      <trkpt lat="39.2102650" lon="-1.5439830">
        <ele>639.8</ele>
        <time>2019-05-11T08:23:29Z</time>
      </trkpt>
      <trkpt lat="39.2102210" lon="-1.5439730">
        <ele>639.8</ele>
        <time>2019-05-11T08:23:30Z</time>
      </trkpt>
      <trkpt lat="39.2101810" lon="-1.5439560">
        <ele>639.8</ele>
        <time>2019-05-11T08:23:31Z</time>
      </trkpt>
      <trkpt lat="39.2101400" lon="-1.5439650">
        <ele>639.8</ele>
        <time>2019-05-11T08:23:32Z</time>
      </trkpt>
      <trkpt lat="39.2101130" lon="-1.5440090">
        <ele>639.8</ele>
        <time>2019-05-11T08:23:33Z</time>
      </trkpt>
      <trkpt lat="39.2100880" lon="-1.5440700">
        <ele>639.8</ele>
        <time>2019-05-11T08:23:34Z</time>
      </trkpt>
      <trkpt lat="39.2100600" lon="-1.5441390">
        <ele>639.8</ele>
        <time>2019-05-11T08:23:35Z</time>
      </trkpt>
      <trkpt lat="39.2100320" lon="-1.5442110">
        <ele>639.8</ele>
        <time>2019-05-11T08:23:36Z</time>
      </trkpt>
      <trkpt lat="39.2100060" lon="-1.5442820">
        <ele>639.8</ele>
        <time>2019-05-11T08:23:37Z</time>
      </trkpt>
      <trkpt lat="39.2099790" lon="-1.5443490">
        <ele>639.8</ele>
        <time>2019-05-11T08:23:38Z</time>
      </trkpt>
      <trkpt lat="39.2099580" lon="-1.5444120">
        <ele>639.8</ele>
        <time>2019-05-11T08:23:39Z</time>
      </trkpt>
      <trkpt lat="39.2099380" lon="-1.5444710">
        <ele>639.8</ele>
        <time>2019-05-11T08:23:40Z</time>
      </trkpt>
      <trkpt lat="39.2099190" lon="-1.5445310">
        <ele>639.8</ele>
        <time>2019-05-11T08:23:41Z</time>
      </trkpt>
      <trkpt lat="39.2099000" lon="-1.5445860">
        <ele>639.8</ele>
        <time>2019-05-11T08:23:42Z</time>
      </trkpt>
      <trkpt lat="39.2098820" lon="-1.5446440">
        <ele>639.8</ele>
        <time>2019-05-11T08:23:43Z</time>
      </trkpt>
      <trkpt lat="39.2098640" lon="-1.5447040">
        <ele>639.8</ele>
        <time>2019-05-11T08:23:44Z</time>
      </trkpt>
      <trkpt lat="39.2098460" lon="-1.5447620">
        <ele>639.8</ele>
        <time>2019-05-11T08:23:45Z</time>
      </trkpt>
      <trkpt lat="39.2098330" lon="-1.5448230">
        <ele>639.8</ele>
        <time>2019-05-11T08:23:46Z</time>
      </trkpt>
      <trkpt lat="39.2098210" lon="-1.5448800">
        <ele>639.8</ele>
        <time>2019-05-11T08:23:47Z</time>
      </trkpt>
      <trkpt lat="39.2098140" lon="-1.5449410">
        <ele>639.8</ele>
        <time>2019-05-11T08:23:48Z</time>
      </trkpt>
      <trkpt lat="39.2098120" lon="-1.5450040">
        <ele>640.0</ele>
        <time>2019-05-11T08:23:49Z</time>
      </trkpt>
      <trkpt lat="39.2098100" lon="-1.5450740">
        <ele>640.2</ele>
        <time>2019-05-11T08:23:50Z</time>
      </trkpt>
      <trkpt lat="39.2098020" lon="-1.5451410">
        <ele>640.4</ele>
        <time>2019-05-11T08:23:51Z</time>
      </trkpt>
      <trkpt lat="39.2097850" lon="-1.5452070">
        <ele>640.6</ele>
        <time>2019-05-11T08:23:52Z</time>
      </trkpt>
      <trkpt lat="39.2097650" lon="-1.5452750">
        <ele>640.8</ele>
        <time>2019-05-11T08:23:53Z</time>
      </trkpt>
      <trkpt lat="39.2097460" lon="-1.5453450">
        <ele>641.0</ele>
        <time>2019-05-11T08:23:54Z</time>
      </trkpt>
      <trkpt lat="39.2097290" lon="-1.5454180">
        <ele>641.0</ele>
        <time>2019-05-11T08:23:55Z</time>
      </trkpt>
      <trkpt lat="39.2097100" lon="-1.5454920">
        <ele>641.2</ele>
        <time>2019-05-11T08:23:56Z</time>
      </trkpt>
      <trkpt lat="39.2096930" lon="-1.5455640">
        <ele>641.2</ele>
        <time>2019-05-11T08:23:57Z</time>
      </trkpt>
      <trkpt lat="39.2096780" lon="-1.5456360">
        <ele>641.2</ele>
        <time>2019-05-11T08:23:58Z</time>
      </trkpt>
      <trkpt lat="39.2096620" lon="-1.5457050">
        <ele>641.2</ele>
        <time>2019-05-11T08:23:59Z</time>
      </trkpt>
      <trkpt lat="39.2096320" lon="-1.5457570">
        <ele>641.2</ele>
        <time>2019-05-11T08:24:00Z</time>
      </trkpt>
      <trkpt lat="39.2095890" lon="-1.5457770">
        <ele>641.2</ele>
        <time>2019-05-11T08:24:01Z</time>
      </trkpt>
      <trkpt lat="39.2095290" lon="-1.5457550">
        <ele>641.2</ele>
        <time>2019-05-11T08:24:02Z</time>
      </trkpt>
      <trkpt lat="39.2094650" lon="-1.5457050">
        <ele>641.2</ele>
        <time>2019-05-11T08:24:03Z</time>
      </trkpt>
      <trkpt lat="39.2094060" lon="-1.5456340">
        <ele>641.2</ele>
        <time>2019-05-11T08:24:04Z</time>
      </trkpt>
      <trkpt lat="39.2093550" lon="-1.5455480">
        <ele>641.2</ele>
        <time>2019-05-11T08:24:05Z</time>
      </trkpt>
      <trkpt lat="39.2093070" lon="-1.5454560">
        <ele>641.2</ele>
        <time>2019-05-11T08:24:06Z</time>
      </trkpt>
      <trkpt lat="39.2092650" lon="-1.5453620">
        <ele>641.2</ele>
        <time>2019-05-11T08:24:07Z</time>
      </trkpt>
      <trkpt lat="39.2092250" lon="-1.5452700">
        <ele>641.0</ele>
        <time>2019-05-11T08:24:08Z</time>
      </trkpt>
      <trkpt lat="39.2091870" lon="-1.5451790">
        <ele>641.0</ele>
        <time>2019-05-11T08:24:09Z</time>
      </trkpt>
      <trkpt lat="39.2091490" lon="-1.5450880">
        <ele>640.4</ele>
        <time>2019-05-11T08:24:10Z</time>
      </trkpt>
      <trkpt lat="39.2091090" lon="-1.5449980">
        <ele>639.8</ele>
        <time>2019-05-11T08:24:11Z</time>
      </trkpt>
      <trkpt lat="39.2090690" lon="-1.5449130">
        <ele>639.2</ele>
        <time>2019-05-11T08:24:12Z</time>
      </trkpt>
      <trkpt lat="39.2090280" lon="-1.5448280">
        <ele>638.8</ele>
        <time>2019-05-11T08:24:13Z</time>
      </trkpt>
      <trkpt lat="39.2089890" lon="-1.5447420">
        <ele>638.6</ele>
        <time>2019-05-11T08:24:14Z</time>
      </trkpt>
      <trkpt lat="39.2089610" lon="-1.5446480">
        <ele>638.4</ele>
        <time>2019-05-11T08:24:15Z</time>
      </trkpt>
      <trkpt lat="39.2089410" lon="-1.5445450">
        <ele>638.2</ele>
        <time>2019-05-11T08:24:16Z</time>
      </trkpt>
      <trkpt lat="39.2089290" lon="-1.5444370">
        <ele>638.2</ele>
        <time>2019-05-11T08:24:17Z</time>
      </trkpt>
      <trkpt lat="39.2089310" lon="-1.5443250">
        <ele>638.0</ele>
        <time>2019-05-11T08:24:18Z</time>
      </trkpt>
      <trkpt lat="39.2089450" lon="-1.5442110">
        <ele>638.0</ele>
        <time>2019-05-11T08:24:19Z</time>
      </trkpt>
      <trkpt lat="39.2089650" lon="-1.5440970">
        <ele>638.0</ele>
        <time>2019-05-11T08:24:20Z</time>
      </trkpt>
      <trkpt lat="39.2089750" lon="-1.5439790">
        <ele>637.8</ele>
        <time>2019-05-11T08:24:21Z</time>
      </trkpt>
      <trkpt lat="39.2089680" lon="-1.5438630">
        <ele>637.8</ele>
        <time>2019-05-11T08:24:22Z</time>
      </trkpt>
      <trkpt lat="39.2089530" lon="-1.5437670">
        <ele>637.8</ele>
        <time>2019-05-11T08:24:23Z</time>
      </trkpt>
      <trkpt lat="39.2089370" lon="-1.5436940">
        <ele>637.4</ele>
        <time>2019-05-11T08:24:24Z</time>
      </trkpt>
      <trkpt lat="39.2089280" lon="-1.5436440">
        <ele>637.0</ele>
        <time>2019-05-11T08:24:25Z</time>
      </trkpt>
      <trkpt lat="39.2089140" lon="-1.5436610">
        <ele>636.4</ele>
        <time>2019-05-11T08:24:26Z</time>
      </trkpt>
      <trkpt lat="39.2089050" lon="-1.5437310">
        <ele>635.6</ele>
        <time>2019-05-11T08:24:27Z</time>
      </trkpt>
      <trkpt lat="39.2088910" lon="-1.5438250">
        <ele>635.0</ele>
        <time>2019-05-11T08:24:28Z</time>
      </trkpt>
      <trkpt lat="39.2088730" lon="-1.5439140">
        <ele>634.6</ele>
        <time>2019-05-11T08:24:29Z</time>
      </trkpt>
      <trkpt lat="39.2088370" lon="-1.5439990">
        <ele>634.2</ele>
        <time>2019-05-11T08:24:30Z</time>
      </trkpt>
      <trkpt lat="39.2087670" lon="-1.5440510">
        <ele>633.8</ele>
        <time>2019-05-11T08:24:31Z</time>
      </trkpt>
      <trkpt lat="39.2086870" lon="-1.5440860">
        <ele>633.0</ele>
        <time>2019-05-11T08:24:32Z</time>
      </trkpt>
      <trkpt lat="39.2086130" lon="-1.5441350">
        <ele>632.6</ele>
        <time>2019-05-11T08:24:33Z</time>
      </trkpt>
      <trkpt lat="39.2085640" lon="-1.5441990">
        <ele>632.2</ele>
        <time>2019-05-11T08:24:34Z</time>
      </trkpt>
      <trkpt lat="39.2085270" lon="-1.5442640">
        <ele>631.6</ele>
        <time>2019-05-11T08:24:35Z</time>
      </trkpt>
      <trkpt lat="39.2085140" lon="-1.5443390">
        <ele>631.0</ele>
        <time>2019-05-11T08:24:36Z</time>
      </trkpt>
      <trkpt lat="39.2085010" lon="-1.5444200">
        <ele>630.0</ele>
        <time>2019-05-11T08:24:37Z</time>
      </trkpt>
      <trkpt lat="39.2084850" lon="-1.5445010">
        <ele>629.0</ele>
        <time>2019-05-11T08:24:38Z</time>
      </trkpt>
      <trkpt lat="39.2084750" lon="-1.5445810">
        <ele>628.2</ele>
        <time>2019-05-11T08:24:39Z</time>
      </trkpt>
      <trkpt lat="39.2084650" lon="-1.5446640">
        <ele>627.2</ele>
        <time>2019-05-11T08:24:40Z</time>
      </trkpt>
      <trkpt lat="39.2084550" lon="-1.5447430">
        <ele>626.4</ele>
        <time>2019-05-11T08:24:41Z</time>
      </trkpt>
      <trkpt lat="39.2084480" lon="-1.5448220">
        <ele>625.8</ele>
        <time>2019-05-11T08:24:42Z</time>
      </trkpt>
      <trkpt lat="39.2084460" lon="-1.5448990">
        <ele>625.6</ele>
        <time>2019-05-11T08:24:43Z</time>
      </trkpt>
      <trkpt lat="39.2084500" lon="-1.5449750">
        <ele>625.4</ele>
        <time>2019-05-11T08:24:44Z</time>
      </trkpt>
      <trkpt lat="39.2084540" lon="-1.5450500">
        <ele>625.4</ele>
        <time>2019-05-11T08:24:45Z</time>
      </trkpt>
      <trkpt lat="39.2084580" lon="-1.5451240">
        <ele>625.4</ele>
        <time>2019-05-11T08:24:46Z</time>
      </trkpt>
      <trkpt lat="39.2084640" lon="-1.5451990">
        <ele>625.2</ele>
        <time>2019-05-11T08:24:47Z</time>
      </trkpt>
      <trkpt lat="39.2084750" lon="-1.5452740">
        <ele>625.2</ele>
        <time>2019-05-11T08:24:48Z</time>
      </trkpt>
      <trkpt lat="39.2084880" lon="-1.5453510">
        <ele>625.2</ele>
        <time>2019-05-11T08:24:49Z</time>
      </trkpt>
      <trkpt lat="39.2085060" lon="-1.5454330">
        <ele>625.2</ele>
        <time>2019-05-11T08:24:50Z</time>
      </trkpt>
      <trkpt lat="39.2085250" lon="-1.5455190">
        <ele>625.2</ele>
        <time>2019-05-11T08:24:51Z</time>
      </trkpt>
      <trkpt lat="39.2085440" lon="-1.5456110">
        <ele>625.0</ele>
        <time>2019-05-11T08:24:52Z</time>
      </trkpt>
      <trkpt lat="39.2085650" lon="-1.5457070">
        <ele>625.0</ele>
        <time>2019-05-11T08:24:53Z</time>
      </trkpt>
      <trkpt lat="39.2085890" lon="-1.5458070">
        <ele>625.0</ele>
        <time>2019-05-11T08:24:54Z</time>
      </trkpt>
      <trkpt lat="39.2086110" lon="-1.5459140">
        <ele>625.0</ele>
        <time>2019-05-11T08:24:55Z</time>
      </trkpt>
      <trkpt lat="39.2086310" lon="-1.5460150">
        <ele>625.0</ele>
        <time>2019-05-11T08:24:56Z</time>
      </trkpt>
      <trkpt lat="39.2086460" lon="-1.5461030">
        <ele>624.8</ele>
        <time>2019-05-11T08:24:57Z</time>
      </trkpt>
      <trkpt lat="39.2086460" lon="-1.5461790">
        <ele>624.8</ele>
        <time>2019-05-11T08:24:58Z</time>
      </trkpt>
      <trkpt lat="39.2086330" lon="-1.5462420">
        <ele>624.6</ele>
        <time>2019-05-11T08:24:59Z</time>
      </trkpt>
      <trkpt lat="39.2086210" lon="-1.5463080">
        <ele>624.2</ele>
        <time>2019-05-11T08:25:00Z</time>
      </trkpt>
      <trkpt lat="39.2086090" lon="-1.5463810">
        <ele>623.8</ele>
        <time>2019-05-11T08:25:01Z</time>
      </trkpt>
      <trkpt lat="39.2085990" lon="-1.5464470">
        <ele>623.4</ele>
        <time>2019-05-11T08:25:02Z</time>
      </trkpt>
      <trkpt lat="39.2085930" lon="-1.5465060">
        <ele>622.8</ele>
        <time>2019-05-11T08:25:03Z</time>
      </trkpt>
      <trkpt lat="39.2085850" lon="-1.5465620">
        <ele>622.2</ele>
        <time>2019-05-11T08:25:04Z</time>
      </trkpt>
      <trkpt lat="39.2085780" lon="-1.5466250">
        <ele>620.8</ele>
        <time>2019-05-11T08:25:05Z</time>
      </trkpt>
      <trkpt lat="39.2085680" lon="-1.5466910">
        <ele>619.4</ele>
        <time>2019-05-11T08:25:06Z</time>
      </trkpt>
      <trkpt lat="39.2085520" lon="-1.5467510">
        <ele>618.2</ele>
        <time>2019-05-11T08:25:07Z</time>
      </trkpt>
      <trkpt lat="39.2085270" lon="-1.5467900">
        <ele>617.2</ele>
        <time>2019-05-11T08:25:08Z</time>
      </trkpt>
      <trkpt lat="39.2084870" lon="-1.5468030">
        <ele>615.8</ele>
        <time>2019-05-11T08:25:09Z</time>
      </trkpt>
      <trkpt lat="39.2084360" lon="-1.5467970">
        <ele>614.6</ele>
        <time>2019-05-11T08:25:10Z</time>
      </trkpt>
      <trkpt lat="39.2083770" lon="-1.5467790">
        <ele>613.6</ele>
        <time>2019-05-11T08:25:11Z</time>
      </trkpt>
      <trkpt lat="39.2083120" lon="-1.5467580">
        <ele>612.8</ele>
        <time>2019-05-11T08:25:12Z</time>
      </trkpt>
      <trkpt lat="39.2082380" lon="-1.5467370">
        <ele>611.8</ele>
        <time>2019-05-11T08:25:13Z</time>
      </trkpt>
      <trkpt lat="39.2081600" lon="-1.5467110">
        <ele>610.8</ele>
        <time>2019-05-11T08:25:14Z</time>
      </trkpt>
      <trkpt lat="39.2080810" lon="-1.5466800">
        <ele>609.8</ele>
        <time>2019-05-11T08:25:15Z</time>
      </trkpt>
      <trkpt lat="39.2080010" lon="-1.5466420">
        <ele>608.8</ele>
        <time>2019-05-11T08:25:16Z</time>
      </trkpt>
      <trkpt lat="39.2079220" lon="-1.5466020">
        <ele>608.0</ele>
        <time>2019-05-11T08:25:17Z</time>
      </trkpt>
      <trkpt lat="39.2078510" lon="-1.5465680">
        <ele>607.0</ele>
        <time>2019-05-11T08:25:18Z</time>
      </trkpt>
      <trkpt lat="39.2077920" lon="-1.5465560">
        <ele>606.4</ele>
        <time>2019-05-11T08:25:19Z</time>
      </trkpt>
      <trkpt lat="39.2077590" lon="-1.5465710">
        <ele>605.8</ele>
        <time>2019-05-11T08:25:20Z</time>
      </trkpt>
      <trkpt lat="39.2077430" lon="-1.5466110">
        <ele>605.2</ele>
        <time>2019-05-11T08:25:21Z</time>
      </trkpt>
      <trkpt lat="39.2077460" lon="-1.5466650">
        <ele>604.4</ele>
        <time>2019-05-11T08:25:22Z</time>
      </trkpt>
      <trkpt lat="39.2077670" lon="-1.5467210">
        <ele>603.6</ele>
        <time>2019-05-11T08:25:23Z</time>
      </trkpt>
      <trkpt lat="39.2077820" lon="-1.5467900">
        <ele>602.8</ele>
        <time>2019-05-11T08:25:24Z</time>
      </trkpt>
      <trkpt lat="39.2077780" lon="-1.5468670">
        <ele>601.8</ele>
        <time>2019-05-11T08:25:25Z</time>
      </trkpt>
      <trkpt lat="39.2077580" lon="-1.5469490">
        <ele>600.6</ele>
        <time>2019-05-11T08:25:26Z</time>
      </trkpt>
      <trkpt lat="39.2077290" lon="-1.5470290">
        <ele>599.4</ele>
        <time>2019-05-11T08:25:27Z</time>
      </trkpt>
      <trkpt lat="39.2076980" lon="-1.5471110">
        <ele>598.2</ele>
        <time>2019-05-11T08:25:28Z</time>
      </trkpt>
      <trkpt lat="39.2076670" lon="-1.5471960">
        <ele>596.4</ele>
        <time>2019-05-11T08:25:29Z</time>
      </trkpt>
      <trkpt lat="39.2076400" lon="-1.5472840">
        <ele>595.8</ele>
        <time>2019-05-11T08:25:30Z</time>
      </trkpt>
      <trkpt lat="39.2076110" lon="-1.5473720">
        <ele>595.6</ele>
        <time>2019-05-11T08:25:31Z</time>
      </trkpt>
      <trkpt lat="39.2075790" lon="-1.5474580">
        <ele>595.4</ele>
        <time>2019-05-11T08:25:32Z</time>
      </trkpt>
      <trkpt lat="39.2075460" lon="-1.5475430">
        <ele>595.2</ele>
        <time>2019-05-11T08:25:33Z</time>
      </trkpt>
      <trkpt lat="39.2075120" lon="-1.5476260">
        <ele>595.2</ele>
        <time>2019-05-11T08:25:34Z</time>
      </trkpt>
      <trkpt lat="39.2074760" lon="-1.5477070">
        <ele>595.2</ele>
        <time>2019-05-11T08:25:35Z</time>
      </trkpt>
      <trkpt lat="39.2074410" lon="-1.5477890">
        <ele>595.2</ele>
        <time>2019-05-11T08:25:36Z</time>
      </trkpt>
      <trkpt lat="39.2074100" lon="-1.5478690">
        <ele>595.0</ele>
        <time>2019-05-11T08:25:37Z</time>
      </trkpt>
      <trkpt lat="39.2073790" lon="-1.5479390">
        <ele>595.0</ele>
        <time>2019-05-11T08:25:38Z</time>
      </trkpt>
      <trkpt lat="39.2073430" lon="-1.5479840">
        <ele>595.0</ele>
        <time>2019-05-11T08:25:39Z</time>
      </trkpt>
      <trkpt lat="39.2073000" lon="-1.5479940">
        <ele>595.0</ele>
        <time>2019-05-11T08:25:40Z</time>
      </trkpt>
      <trkpt lat="39.2072570" lon="-1.5479830">
        <ele>595.0</ele>
        <time>2019-05-11T08:25:41Z</time>
      </trkpt>
      <trkpt lat="39.2072150" lon="-1.5479630">
        <ele>595.0</ele>
        <time>2019-05-11T08:25:42Z</time>
      </trkpt>
      <trkpt lat="39.2071730" lon="-1.5479380">
        <ele>595.0</ele>
        <time>2019-05-11T08:25:43Z</time>
      </trkpt>
      <trkpt lat="39.2071280" lon="-1.5479140">
        <ele>595.0</ele>
        <time>2019-05-11T08:25:44Z</time>
      </trkpt>
      <trkpt lat="39.2070820" lon="-1.5478920">
        <ele>595.2</ele>
        <time>2019-05-11T08:25:45Z</time>
      </trkpt>
      <trkpt lat="39.2070350" lon="-1.5478650">
        <ele>595.2</ele>
        <time>2019-05-11T08:25:46Z</time>
      </trkpt>
      <trkpt lat="39.2069870" lon="-1.5478330">
        <ele>595.4</ele>
        <time>2019-05-11T08:25:47Z</time>
      </trkpt>
      <trkpt lat="39.2069380" lon="-1.5477980">
        <ele>595.8</ele>
        <time>2019-05-11T08:25:48Z</time>
      </trkpt>
      <trkpt lat="39.2068890" lon="-1.5477570">
        <ele>596.0</ele>
        <time>2019-05-11T08:25:49Z</time>
      </trkpt>
      <trkpt lat="39.2068380" lon="-1.5477150">
        <ele>596.2</ele>
        <time>2019-05-11T08:25:50Z</time>
      </trkpt>
      <trkpt lat="39.2067860" lon="-1.5476720">
        <ele>596.4</ele>
        <time>2019-05-11T08:25:51Z</time>
      </trkpt>
      <trkpt lat="39.2067310" lon="-1.5476260">
        <ele>596.6</ele>
        <time>2019-05-11T08:25:52Z</time>
      </trkpt>
      <trkpt lat="39.2066730" lon="-1.5475810">
        <ele>596.6</ele>
        <time>2019-05-11T08:25:53Z</time>
      </trkpt>
      <trkpt lat="39.2066120" lon="-1.5475390">
        <ele>596.8</ele>
        <time>2019-05-11T08:25:54Z</time>
      </trkpt>
      <trkpt lat="39.2065500" lon="-1.5474990">
        <ele>596.6</ele>
        <time>2019-05-11T08:25:55Z</time>
      </trkpt>
      <trkpt lat="39.2064870" lon="-1.5474610">
        <ele>596.8</ele>
        <time>2019-05-11T08:25:56Z</time>
      </trkpt>
      <trkpt lat="39.2064220" lon="-1.5474220">
        <ele>596.8</ele>
        <time>2019-05-11T08:25:57Z</time>
      </trkpt>
      <trkpt lat="39.2063550" lon="-1.5473790">
        <ele>596.8</ele>
        <time>2019-05-11T08:25:58Z</time>
      </trkpt>
      <trkpt lat="39.2062860" lon="-1.5473300">
        <ele>596.8</ele>
        <time>2019-05-11T08:25:59Z</time>
      </trkpt>
      <trkpt lat="39.2062180" lon="-1.5472790">
        <ele>596.8</ele>
        <time>2019-05-11T08:26:00Z</time>
      </trkpt>
      <trkpt lat="39.2061490" lon="-1.5472260">
        <ele>596.8</ele>
        <time>2019-05-11T08:26:01Z</time>
      </trkpt>
      <trkpt lat="39.2060760" lon="-1.5471830">
        <ele>596.8</ele>
        <time>2019-05-11T08:26:02Z</time>
      </trkpt>
      <trkpt lat="39.2059990" lon="-1.5471550">
        <ele>596.6</ele>
        <time>2019-05-11T08:26:03Z</time>
      </trkpt>
      <trkpt lat="39.2059200" lon="-1.5471400">
        <ele>596.6</ele>
        <time>2019-05-11T08:26:04Z</time>
      </trkpt>
      <trkpt lat="39.2058410" lon="-1.5471330">
        <ele>596.2</ele>
        <time>2019-05-11T08:26:05Z</time>
      </trkpt>
      <trkpt lat="39.2057620" lon="-1.5471270">
        <ele>596.0</ele>
        <time>2019-05-11T08:26:06Z</time>
      </trkpt>
      <trkpt lat="39.2056830" lon="-1.5471170">
        <ele>595.6</ele>
        <time>2019-05-11T08:26:07Z</time>
      </trkpt>
      <trkpt lat="39.2056030" lon="-1.5471040">
        <ele>595.4</ele>
        <time>2019-05-11T08:26:08Z</time>
      </trkpt>
      <trkpt lat="39.2055230" lon="-1.5470920">
        <ele>595.4</ele>
        <time>2019-05-11T08:26:09Z</time>
      </trkpt>
      <trkpt lat="39.2054420" lon="-1.5470810">
        <ele>595.2</ele>
        <time>2019-05-11T08:26:10Z</time>
      </trkpt>
      <trkpt lat="39.2053620" lon="-1.5470720">
        <ele>595.2</ele>
        <time>2019-05-11T08:26:11Z</time>
      </trkpt>
      <trkpt lat="39.2052820" lon="-1.5470660">
        <ele>594.8</ele>
        <time>2019-05-11T08:26:12Z</time>
      </trkpt>
      <trkpt lat="39.2052020" lon="-1.5470620">
        <ele>594.6</ele>
        <time>2019-05-11T08:26:13Z</time>
      </trkpt>
      <trkpt lat="39.2051230" lon="-1.5470580">
        <ele>594.4</ele>
        <time>2019-05-11T08:26:14Z</time>
      </trkpt>
      <trkpt lat="39.2050460" lon="-1.5470530">
        <ele>594.2</ele>
        <time>2019-05-11T08:26:15Z</time>
      </trkpt>
      <trkpt lat="39.2049690" lon="-1.5470500">
        <ele>594.2</ele>
        <time>2019-05-11T08:26:16Z</time>
      </trkpt>
      <trkpt lat="39.2048940" lon="-1.5470510">
        <ele>594.0</ele>
        <time>2019-05-11T08:26:17Z</time>
      </trkpt>
      <trkpt lat="39.2048210" lon="-1.5470580">
        <ele>594.0</ele>
        <time>2019-05-11T08:26:18Z</time>
      </trkpt>
      <trkpt lat="39.2047510" lon="-1.5470720">
        <ele>594.0</ele>
        <time>2019-05-11T08:26:19Z</time>
      </trkpt>
      <trkpt lat="39.2046830" lon="-1.5470920">
        <ele>594.0</ele>
        <time>2019-05-11T08:26:20Z</time>
      </trkpt>
      <trkpt lat="39.2046180" lon="-1.5471150">
        <ele>593.8</ele>
        <time>2019-05-11T08:26:21Z</time>
      </trkpt>
      <trkpt lat="39.2045570" lon="-1.5471510">
        <ele>593.8</ele>
        <time>2019-05-11T08:26:22Z</time>
      </trkpt>
      <trkpt lat="39.2044990" lon="-1.5471930">
        <ele>593.8</ele>
        <time>2019-05-11T08:26:23Z</time>
      </trkpt>
      <trkpt lat="39.2044440" lon="-1.5472420">
        <ele>593.8</ele>
        <time>2019-05-11T08:26:24Z</time>
      </trkpt>
      <trkpt lat="39.2043930" lon="-1.5472990">
        <ele>593.8</ele>
        <time>2019-05-11T08:26:25Z</time>
      </trkpt>
      <trkpt lat="39.2043470" lon="-1.5473630">
        <ele>593.8</ele>
        <time>2019-05-11T08:26:26Z</time>
      </trkpt>
      <trkpt lat="39.2043030" lon="-1.5474330">
        <ele>593.8</ele>
        <time>2019-05-11T08:26:27Z</time>
      </trkpt>
      <trkpt lat="39.2042630" lon="-1.5475070">
        <ele>594.0</ele>
        <time>2019-05-11T08:26:28Z</time>
      </trkpt>
      <trkpt lat="39.2042250" lon="-1.5475850">
        <ele>594.0</ele>
        <time>2019-05-11T08:26:29Z</time>
      </trkpt>
      <trkpt lat="39.2041890" lon="-1.5476620">
        <ele>594.0</ele>
        <time>2019-05-11T08:26:30Z</time>
      </trkpt>
      <trkpt lat="39.2041520" lon="-1.5477370">
        <ele>594.0</ele>
        <time>2019-05-11T08:26:31Z</time>
      </trkpt>
      <trkpt lat="39.2041150" lon="-1.5478100">
        <ele>594.2</ele>
        <time>2019-05-11T08:26:32Z</time>
      </trkpt>
      <trkpt lat="39.2040760" lon="-1.5478800">
        <ele>594.2</ele>
        <time>2019-05-11T08:26:33Z</time>
      </trkpt>
      <trkpt lat="39.2040360" lon="-1.5479490">
        <ele>594.2</ele>
        <time>2019-05-11T08:26:34Z</time>
      </trkpt>
      <trkpt lat="39.2039940" lon="-1.5480200">
        <ele>594.4</ele>
        <time>2019-05-11T08:26:35Z</time>
      </trkpt>
      <trkpt lat="39.2039500" lon="-1.5480940">
        <ele>594.6</ele>
        <time>2019-05-11T08:26:36Z</time>
      </trkpt>
      <trkpt lat="39.2039070" lon="-1.5481710">
        <ele>594.6</ele>
        <time>2019-05-11T08:26:37Z</time>
      </trkpt>
      <trkpt lat="39.2038630" lon="-1.5482500">
        <ele>594.6</ele>
        <time>2019-05-11T08:26:38Z</time>
      </trkpt>
      <trkpt lat="39.2038160" lon="-1.5483320">
        <ele>594.6</ele>
        <time>2019-05-11T08:26:39Z</time>
      </trkpt>
      <trkpt lat="39.2037640" lon="-1.5484130">
        <ele>594.6</ele>
        <time>2019-05-11T08:26:40Z</time>
      </trkpt>
      <trkpt lat="39.2037060" lon="-1.5484890">
        <ele>594.6</ele>
        <time>2019-05-11T08:26:41Z</time>
      </trkpt>
      <trkpt lat="39.2036400" lon="-1.5485580">
        <ele>594.6</ele>
        <time>2019-05-11T08:26:42Z</time>
      </trkpt>
      <trkpt lat="39.2035740" lon="-1.5486250">
        <ele>594.4</ele>
        <time>2019-05-11T08:26:43Z</time>
      </trkpt>
      <trkpt lat="39.2035080" lon="-1.5486880">
        <ele>594.4</ele>
        <time>2019-05-11T08:26:44Z</time>
      </trkpt>
      <trkpt lat="39.2034410" lon="-1.5487470">
        <ele>594.4</ele>
        <time>2019-05-11T08:26:45Z</time>
      </trkpt>
      <trkpt lat="39.2033750" lon="-1.5488010">
        <ele>594.2</ele>
        <time>2019-05-11T08:26:46Z</time>
      </trkpt>
      <trkpt lat="39.2033080" lon="-1.5488510">
        <ele>594.0</ele>
        <time>2019-05-11T08:26:47Z</time>
      </trkpt>
      <trkpt lat="39.2032430" lon="-1.5489000">
        <ele>593.8</ele>
        <time>2019-05-11T08:26:48Z</time>
      </trkpt>
      <trkpt lat="39.2031800" lon="-1.5489480">
        <ele>593.6</ele>
        <time>2019-05-11T08:26:49Z</time>
      </trkpt>
      <trkpt lat="39.2031180" lon="-1.5489960">
        <ele>593.6</ele>
        <time>2019-05-11T08:26:50Z</time>
      </trkpt>
      <trkpt lat="39.2030570" lon="-1.5490480">
        <ele>593.6</ele>
        <time>2019-05-11T08:26:51Z</time>
      </trkpt>
      <trkpt lat="39.2029960" lon="-1.5491050">
        <ele>593.6</ele>
        <time>2019-05-11T08:26:52Z</time>
      </trkpt>
      <trkpt lat="39.2029330" lon="-1.5491650">
        <ele>593.6</ele>
        <time>2019-05-11T08:26:53Z</time>
      </trkpt>
      <trkpt lat="39.2028740" lon="-1.5492260">
        <ele>593.6</ele>
        <time>2019-05-11T08:26:54Z</time>
      </trkpt>
      <trkpt lat="39.2028180" lon="-1.5492900">
        <ele>593.6</ele>
        <time>2019-05-11T08:26:55Z</time>
      </trkpt>
      <trkpt lat="39.2027660" lon="-1.5493550">
        <ele>593.6</ele>
        <time>2019-05-11T08:26:56Z</time>
      </trkpt>
      <trkpt lat="39.2027190" lon="-1.5494190">
        <ele>593.6</ele>
        <time>2019-05-11T08:26:57Z</time>
      </trkpt>
      <trkpt lat="39.2026720" lon="-1.5494840">
        <ele>593.6</ele>
        <time>2019-05-11T08:26:58Z</time>
      </trkpt>
      <trkpt lat="39.2026200" lon="-1.5495340">
        <ele>593.6</ele>
        <time>2019-05-11T08:26:59Z</time>
      </trkpt>
      <trkpt lat="39.2025640" lon="-1.5495690">
        <ele>593.6</ele>
        <time>2019-05-11T08:27:00Z</time>
      </trkpt>
      <trkpt lat="39.2025140" lon="-1.5495940">
        <ele>593.4</ele>
        <time>2019-05-11T08:27:01Z</time>
      </trkpt>
      <trkpt lat="39.2024780" lon="-1.5496290">
        <ele>593.2</ele>
        <time>2019-05-11T08:27:02Z</time>
      </trkpt>
      <trkpt lat="39.2024590" lon="-1.5496700">
        <ele>593.0</ele>
        <time>2019-05-11T08:27:03Z</time>
      </trkpt>
      <trkpt lat="39.2024570" lon="-1.5497130">
        <ele>592.8</ele>
        <time>2019-05-11T08:27:04Z</time>
      </trkpt>
      <trkpt lat="39.2024620" lon="-1.5497550">
        <ele>592.8</ele>
        <time>2019-05-11T08:27:05Z</time>
      </trkpt>
      <trkpt lat="39.2024710" lon="-1.5497960">
        <ele>592.8</ele>
        <time>2019-05-11T08:27:06Z</time>
      </trkpt>
      <trkpt lat="39.2024820" lon="-1.5498330">
        <ele>593.2</ele>
        <time>2019-05-11T08:27:07Z</time>
      </trkpt>
      <trkpt lat="39.2024890" lon="-1.5498690">
        <ele>593.2</ele>
        <time>2019-05-11T08:27:08Z</time>
      </trkpt>
      <trkpt lat="39.2024900" lon="-1.5499030">
        <ele>593.4</ele>
        <time>2019-05-11T08:27:09Z</time>
      </trkpt>
      <trkpt lat="39.2024890" lon="-1.5499340">
        <ele>593.4</ele>
        <time>2019-05-11T08:27:10Z</time>
      </trkpt>
      <trkpt lat="39.2024890" lon="-1.5499640">
        <ele>593.4</ele>
        <time>2019-05-11T08:27:11Z</time>
      </trkpt>
      <trkpt lat="39.2024880" lon="-1.5499940">
        <ele>593.6</ele>
        <time>2019-05-11T08:27:12Z</time>
      </trkpt>
      <trkpt lat="39.2024900" lon="-1.5500260">
        <ele>593.6</ele>
        <time>2019-05-11T08:27:13Z</time>
      </trkpt>
      <trkpt lat="39.2024930" lon="-1.5500570">
        <ele>593.8</ele>
        <time>2019-05-11T08:27:14Z</time>
      </trkpt>
      <trkpt lat="39.2024990" lon="-1.5500870">
        <ele>593.8</ele>
        <time>2019-05-11T08:27:15Z</time>
      </trkpt>
      <trkpt lat="39.2025060" lon="-1.5501160">
        <ele>593.8</ele>
        <time>2019-05-11T08:27:16Z</time>
      </trkpt>
      <trkpt lat="39.2025130" lon="-1.5501450">
        <ele>594.2</ele>
        <time>2019-05-11T08:27:17Z</time>
      </trkpt>
      <trkpt lat="39.2025190" lon="-1.5501760">
        <ele>594.6</ele>
        <time>2019-05-11T08:27:18Z</time>
      </trkpt>
      <trkpt lat="39.2025240" lon="-1.5502080">
        <ele>595.0</ele>
        <time>2019-05-11T08:27:19Z</time>
      </trkpt>
      <trkpt lat="39.2025270" lon="-1.5502390">
        <ele>595.2</ele>
        <time>2019-05-11T08:27:20Z</time>
      </trkpt>
      <trkpt lat="39.2025320" lon="-1.5502670">
        <ele>595.6</ele>
        <time>2019-05-11T08:27:21Z</time>
      </trkpt>
      <trkpt lat="39.2025360" lon="-1.5502940">
        <ele>595.8</ele>
        <time>2019-05-11T08:27:22Z</time>
      </trkpt>
      <trkpt lat="39.2025380" lon="-1.5503210">
        <ele>596.2</ele>
        <time>2019-05-11T08:27:23Z</time>
      </trkpt>
      <trkpt lat="39.2025400" lon="-1.5503480">
        <ele>596.4</ele>
        <time>2019-05-11T08:27:24Z</time>
      </trkpt>
      <trkpt lat="39.2025380" lon="-1.5503750">
        <ele>596.8</ele>
        <time>2019-05-11T08:27:25Z</time>
      </trkpt>
      <trkpt lat="39.2025340" lon="-1.5504010">
        <ele>597.0</ele>
        <time>2019-05-11T08:27:26Z</time>
      </trkpt>
      <trkpt lat="39.2025310" lon="-1.5504280">
        <ele>597.4</ele>
        <time>2019-05-11T08:27:27Z</time>
      </trkpt>
      <trkpt lat="39.2025250" lon="-1.5504570">
        <ele>597.8</ele>
        <time>2019-05-11T08:27:28Z</time>
      </trkpt>
      <trkpt lat="39.2025200" lon="-1.5504850">
        <ele>598.0</ele>
        <time>2019-05-11T08:27:29Z</time>
      </trkpt>
      <trkpt lat="39.2025140" lon="-1.5505120">
        <ele>598.6</ele>
        <time>2019-05-11T08:27:30Z</time>
      </trkpt>
      <trkpt lat="39.2025090" lon="-1.5505380">
        <ele>599.0</ele>
        <time>2019-05-11T08:27:31Z</time>
      </trkpt>
      <trkpt lat="39.2025040" lon="-1.5505630">
        <ele>599.4</ele>
        <time>2019-05-11T08:27:32Z</time>
      </trkpt>
      <trkpt lat="39.2024990" lon="-1.5505880">
        <ele>599.8</ele>
        <time>2019-05-11T08:27:33Z</time>
      </trkpt>
      <trkpt lat="39.2024950" lon="-1.5506120">
        <ele>600.2</ele>
        <time>2019-05-11T08:27:34Z</time>
      </trkpt>
      <trkpt lat="39.2024900" lon="-1.5506340">
        <ele>600.6</ele>
        <time>2019-05-11T08:27:35Z</time>
      </trkpt>
      <trkpt lat="39.2024840" lon="-1.5506570">
        <ele>600.8</ele>
        <time>2019-05-11T08:27:36Z</time>
      </trkpt>
      <trkpt lat="39.2024790" lon="-1.5506790">
        <ele>601.0</ele>
        <time>2019-05-11T08:27:37Z</time>
      </trkpt>
      <trkpt lat="39.2024740" lon="-1.5507010">
        <ele>601.2</ele>
        <time>2019-05-11T08:27:38Z</time>
      </trkpt>
      <trkpt lat="39.2024680" lon="-1.5507250">
        <ele>601.4</ele>
        <time>2019-05-11T08:27:39Z</time>
      </trkpt>
      <trkpt lat="39.2024630" lon="-1.5507460">
        <ele>601.8</ele>
        <time>2019-05-11T08:27:40Z</time>
      </trkpt>
      <trkpt lat="39.2024560" lon="-1.5507700">
        <ele>602.0</ele>
        <time>2019-05-11T08:27:41Z</time>
      </trkpt>
      <trkpt lat="39.2024500" lon="-1.5507920">
        <ele>602.2</ele>
        <time>2019-05-11T08:27:42Z</time>
      </trkpt>
      <trkpt lat="39.2024440" lon="-1.5508130">
        <ele>602.6</ele>
        <time>2019-05-11T08:27:43Z</time>
      </trkpt>
      <trkpt lat="39.2024370" lon="-1.5508340">
        <ele>603.0</ele>
        <time>2019-05-11T08:27:44Z</time>
      </trkpt>
      <trkpt lat="39.2024330" lon="-1.5508560">
        <ele>603.2</ele>
        <time>2019-05-11T08:27:45Z</time>
      </trkpt>
      <trkpt lat="39.2024280" lon="-1.5508790">
        <ele>603.6</ele>
        <time>2019-05-11T08:27:46Z</time>
      </trkpt>
      <trkpt lat="39.2024230" lon="-1.5509040">
        <ele>604.0</ele>
        <time>2019-05-11T08:27:47Z</time>
      </trkpt>
      <trkpt lat="39.2024200" lon="-1.5509290">
        <ele>604.2</ele>
        <time>2019-05-11T08:27:48Z</time>
      </trkpt>
      <trkpt lat="39.2024180" lon="-1.5509550">
        <ele>604.6</ele>
        <time>2019-05-11T08:27:49Z</time>
      </trkpt>
      <trkpt lat="39.2024170" lon="-1.5509820">
        <ele>604.8</ele>
        <time>2019-05-11T08:27:50Z</time>
      </trkpt>
      <trkpt lat="39.2024150" lon="-1.5510080">
        <ele>605.2</ele>
        <time>2019-05-11T08:27:51Z</time>
      </trkpt>
      <trkpt lat="39.2024150" lon="-1.5510340">
        <ele>605.6</ele>
        <time>2019-05-11T08:27:52Z</time>
      </trkpt>
      <trkpt lat="39.2024160" lon="-1.5510600">
        <ele>606.0</ele>
        <time>2019-05-11T08:27:53Z</time>
      </trkpt>
      <trkpt lat="39.2024170" lon="-1.5510850">
        <ele>606.2</ele>
        <time>2019-05-11T08:27:54Z</time>
      </trkpt>
      <trkpt lat="39.2024180" lon="-1.5511090">
        <ele>606.6</ele>
        <time>2019-05-11T08:27:55Z</time>
      </trkpt>
      <trkpt lat="39.2024200" lon="-1.5511350">
        <ele>606.8</ele>
        <time>2019-05-11T08:27:56Z</time>
      </trkpt>
      <trkpt lat="39.2024230" lon="-1.5511620">
        <ele>607.0</ele>
        <time>2019-05-11T08:27:57Z</time>
      </trkpt>
      <trkpt lat="39.2024270" lon="-1.5511890">
        <ele>607.2</ele>
        <time>2019-05-11T08:27:58Z</time>
      </trkpt>
      <trkpt lat="39.2024310" lon="-1.5512170">
        <ele>607.6</ele>
        <time>2019-05-11T08:27:59Z</time>
      </trkpt>
      <trkpt lat="39.2024360" lon="-1.5512440">
        <ele>607.8</ele>
        <time>2019-05-11T08:28:00Z</time>
      </trkpt>
      <trkpt lat="39.2024400" lon="-1.5512720">
        <ele>608.2</ele>
        <time>2019-05-11T08:28:01Z</time>
      </trkpt>
      <trkpt lat="39.2024440" lon="-1.5513000">
        <ele>608.2</ele>
        <time>2019-05-11T08:28:02Z</time>
      </trkpt>
      <trkpt lat="39.2024480" lon="-1.5513260">
        <ele>608.4</ele>
        <time>2019-05-11T08:28:03Z</time>
      </trkpt>
      <trkpt lat="39.2024540" lon="-1.5513520">
        <ele>608.6</ele>
        <time>2019-05-11T08:28:04Z</time>
      </trkpt>
      <trkpt lat="39.2024580" lon="-1.5513760">
        <ele>609.0</ele>
        <time>2019-05-11T08:28:05Z</time>
      </trkpt>
      <trkpt lat="39.2024620" lon="-1.5514010">
        <ele>609.2</ele>
        <time>2019-05-11T08:28:06Z</time>
      </trkpt>
      <trkpt lat="39.2024670" lon="-1.5514260">
        <ele>609.4</ele>
        <time>2019-05-11T08:28:07Z</time>
      </trkpt>
      <trkpt lat="39.2024720" lon="-1.5514510">
        <ele>609.6</ele>
        <time>2019-05-11T08:28:08Z</time>
      </trkpt>
      <trkpt lat="39.2024780" lon="-1.5514760">
        <ele>609.8</ele>
        <time>2019-05-11T08:28:09Z</time>
      </trkpt>
      <trkpt lat="39.2024870" lon="-1.5515020">
        <ele>610.2</ele>
        <time>2019-05-11T08:28:10Z</time>
      </trkpt>
      <trkpt lat="39.2024960" lon="-1.5515290">
        <ele>610.4</ele>
        <time>2019-05-11T08:28:11Z</time>
      </trkpt>
      <trkpt lat="39.2025040" lon="-1.5515570">
        <ele>610.6</ele>
        <time>2019-05-11T08:28:12Z</time>
      </trkpt>
      <trkpt lat="39.2025120" lon="-1.5515830">
        <ele>610.8</ele>
        <time>2019-05-11T08:28:13Z</time>
      </trkpt>
      <trkpt lat="39.2025200" lon="-1.5516080">
        <ele>611.2</ele>
        <time>2019-05-11T08:28:14Z</time>
      </trkpt>
      <trkpt lat="39.2025280" lon="-1.5516340">
        <ele>611.4</ele>
        <time>2019-05-11T08:28:15Z</time>
      </trkpt>
      <trkpt lat="39.2025350" lon="-1.5516610">
        <ele>611.6</ele>
        <time>2019-05-11T08:28:16Z</time>
      </trkpt>
      <trkpt lat="39.2025430" lon="-1.5516870">
        <ele>612.0</ele>
        <time>2019-05-11T08:28:17Z</time>
      </trkpt>
      <trkpt lat="39.2025520" lon="-1.5517130">
        <ele>612.2</ele>
        <time>2019-05-11T08:28:18Z</time>
      </trkpt>
      <trkpt lat="39.2025610" lon="-1.5517380">
        <ele>612.6</ele>
        <time>2019-05-11T08:28:19Z</time>
      </trkpt>
      <trkpt lat="39.2025690" lon="-1.5517640">
        <ele>613.0</ele>
        <time>2019-05-11T08:28:20Z</time>
      </trkpt>
      <trkpt lat="39.2025750" lon="-1.5517910">
        <ele>613.2</ele>
        <time>2019-05-11T08:28:21Z</time>
      </trkpt>
      <trkpt lat="39.2025810" lon="-1.5518170">
        <ele>613.8</ele>
        <time>2019-05-11T08:28:22Z</time>
      </trkpt>
      <trkpt lat="39.2025870" lon="-1.5518430">
        <ele>614.0</ele>
        <time>2019-05-11T08:28:23Z</time>
      </trkpt>
      <trkpt lat="39.2025940" lon="-1.5518680">
        <ele>614.2</ele>
        <time>2019-05-11T08:28:24Z</time>
      </trkpt>
      <trkpt lat="39.2026010" lon="-1.5518930">
        <ele>614.2</ele>
        <time>2019-05-11T08:28:25Z</time>
      </trkpt>
      <trkpt lat="39.2026060" lon="-1.5519190">
        <ele>614.4</ele>
        <time>2019-05-11T08:28:26Z</time>
      </trkpt>
      <trkpt lat="39.2026120" lon="-1.5519460">
        <ele>614.8</ele>
        <time>2019-05-11T08:28:27Z</time>
      </trkpt>
      <trkpt lat="39.2026190" lon="-1.5519730">
        <ele>615.0</ele>
        <time>2019-05-11T08:28:28Z</time>
      </trkpt>
      <trkpt lat="39.2026240" lon="-1.5519980">
        <ele>615.2</ele>
        <time>2019-05-11T08:28:29Z</time>
      </trkpt>
      <trkpt lat="39.2026290" lon="-1.5520200">
        <ele>615.6</ele>
        <time>2019-05-11T08:28:30Z</time>
      </trkpt>
      <trkpt lat="39.2026370" lon="-1.5520400">
        <ele>615.8</ele>
        <time>2019-05-11T08:28:31Z</time>
      </trkpt>
      <trkpt lat="39.2026440" lon="-1.5520620">
        <ele>616.2</ele>
        <time>2019-05-11T08:28:32Z</time>
      </trkpt>
      <trkpt lat="39.2026470" lon="-1.5520870">
        <ele>616.4</ele>
        <time>2019-05-11T08:28:33Z</time>
      </trkpt>
      <trkpt lat="39.2026490" lon="-1.5521120">
        <ele>616.8</ele>
        <time>2019-05-11T08:28:34Z</time>
      </trkpt>
      <trkpt lat="39.2026520" lon="-1.5521370">
        <ele>617.0</ele>
        <time>2019-05-11T08:28:35Z</time>
      </trkpt>
      <trkpt lat="39.2026570" lon="-1.5521590">
        <ele>617.4</ele>
        <time>2019-05-11T08:28:36Z</time>
      </trkpt>
      <trkpt lat="39.2026620" lon="-1.5521780">
        <ele>617.8</ele>
        <time>2019-05-11T08:28:37Z</time>
      </trkpt>
      <trkpt lat="39.2026670" lon="-1.5521950">
        <ele>618.0</ele>
        <time>2019-05-11T08:28:38Z</time>
      </trkpt>
      <trkpt lat="39.2026750" lon="-1.5522130">
        <ele>618.4</ele>
        <time>2019-05-11T08:28:39Z</time>
      </trkpt>
      <trkpt lat="39.2026800" lon="-1.5522330">
        <ele>618.6</ele>
        <time>2019-05-11T08:28:40Z</time>
      </trkpt>
      <trkpt lat="39.2026850" lon="-1.5522540">
        <ele>619.0</ele>
        <time>2019-05-11T08:28:41Z</time>
      </trkpt>
      <trkpt lat="39.2026890" lon="-1.5522740">
        <ele>619.4</ele>
        <time>2019-05-11T08:28:42Z</time>
      </trkpt>
      <trkpt lat="39.2026930" lon="-1.5522950">
        <ele>619.8</ele>
        <time>2019-05-11T08:28:43Z</time>
      </trkpt>
      <trkpt lat="39.2026960" lon="-1.5523160">
        <ele>620.2</ele>
        <time>2019-05-11T08:28:44Z</time>
      </trkpt>
      <trkpt lat="39.2026990" lon="-1.5523390">
        <ele>620.6</ele>
        <time>2019-05-11T08:28:45Z</time>
      </trkpt>
      <trkpt lat="39.2027010" lon="-1.5523620">
        <ele>620.8</ele>
        <time>2019-05-11T08:28:46Z</time>
      </trkpt>
      <trkpt lat="39.2027010" lon="-1.5523860">
        <ele>621.2</ele>
        <time>2019-05-11T08:28:47Z</time>
      </trkpt>
      <trkpt lat="39.2027000" lon="-1.5524110">
        <ele>621.6</ele>
        <time>2019-05-11T08:28:48Z</time>
      </trkpt>
      <trkpt lat="39.2027000" lon="-1.5524340">
        <ele>621.8</ele>
        <time>2019-05-11T08:28:49Z</time>
      </trkpt>
      <trkpt lat="39.2027000" lon="-1.5524550">
        <ele>622.0</ele>
        <time>2019-05-11T08:28:50Z</time>
      </trkpt>
      <trkpt lat="39.2026960" lon="-1.5524740">
        <ele>622.0</ele>
        <time>2019-05-11T08:28:51Z</time>
      </trkpt>
      <trkpt lat="39.2026910" lon="-1.5524940">
        <ele>622.4</ele>
        <time>2019-05-11T08:28:52Z</time>
      </trkpt>
      <trkpt lat="39.2026860" lon="-1.5525130">
        <ele>622.6</ele>
        <time>2019-05-11T08:28:53Z</time>
      </trkpt>
      <trkpt lat="39.2026790" lon="-1.5525330">
        <ele>622.8</ele>
        <time>2019-05-11T08:28:54Z</time>
      </trkpt>
      <trkpt lat="39.2026690" lon="-1.5525530">
        <ele>623.0</ele>
        <time>2019-05-11T08:28:55Z</time>
      </trkpt>
      <trkpt lat="39.2026570" lon="-1.5525710">
        <ele>623.4</ele>
        <time>2019-05-11T08:28:56Z</time>
      </trkpt>
      <trkpt lat="39.2026410" lon="-1.5525870">
        <ele>624.0</ele>
        <time>2019-05-11T08:28:57Z</time>
      </trkpt>
      <trkpt lat="39.2026230" lon="-1.5525990">
        <ele>624.2</ele>
        <time>2019-05-11T08:28:58Z</time>
      </trkpt>
      <trkpt lat="39.2026030" lon="-1.5526070">
        <ele>624.4</ele>
        <time>2019-05-11T08:28:59Z</time>
      </trkpt>
      <trkpt lat="39.2025810" lon="-1.5526130">
        <ele>624.6</ele>
        <time>2019-05-11T08:29:00Z</time>
      </trkpt>
      <trkpt lat="39.2025600" lon="-1.5526190">
        <ele>624.8</ele>
        <time>2019-05-11T08:29:01Z</time>
      </trkpt>
      <trkpt lat="39.2025380" lon="-1.5526230">
        <ele>625.0</ele>
        <time>2019-05-11T08:29:02Z</time>
      </trkpt>
      <trkpt lat="39.2025160" lon="-1.5526280">
        <ele>625.4</ele>
        <time>2019-05-11T08:29:03Z</time>
      </trkpt>
      <trkpt lat="39.2024930" lon="-1.5526340">
        <ele>625.6</ele>
        <time>2019-05-11T08:29:04Z</time>
      </trkpt>
      <trkpt lat="39.2024720" lon="-1.5526450">
        <ele>625.8</ele>
        <time>2019-05-11T08:29:05Z</time>
      </trkpt>
      <trkpt lat="39.2024520" lon="-1.5526550">
        <ele>626.0</ele>
        <time>2019-05-11T08:29:06Z</time>
      </trkpt>
      <trkpt lat="39.2024330" lon="-1.5526650">
        <ele>626.4</ele>
        <time>2019-05-11T08:29:07Z</time>
      </trkpt>
      <trkpt lat="39.2024130" lon="-1.5526770">
        <ele>626.6</ele>
        <time>2019-05-11T08:29:08Z</time>
      </trkpt>
      <trkpt lat="39.2023950" lon="-1.5526900">
        <ele>627.0</ele>
        <time>2019-05-11T08:29:09Z</time>
      </trkpt>
      <trkpt lat="39.2023780" lon="-1.5527070">
        <ele>627.2</ele>
        <time>2019-05-11T08:29:10Z</time>
      </trkpt>
      <trkpt lat="39.2023610" lon="-1.5527270">
        <ele>627.4</ele>
        <time>2019-05-11T08:29:11Z</time>
      </trkpt>
      <trkpt lat="39.2023440" lon="-1.5527480">
        <ele>627.8</ele>
        <time>2019-05-11T08:29:12Z</time>
      </trkpt>
      <trkpt lat="39.2023270" lon="-1.5527710">
        <ele>628.0</ele>
        <time>2019-05-11T08:29:13Z</time>
      </trkpt>
      <trkpt lat="39.2023110" lon="-1.5527960">
        <ele>628.4</ele>
        <time>2019-05-11T08:29:14Z</time>
      </trkpt>
      <trkpt lat="39.2022940" lon="-1.5528210">
        <ele>628.6</ele>
        <time>2019-05-11T08:29:15Z</time>
      </trkpt>
      <trkpt lat="39.2022780" lon="-1.5528480">
        <ele>628.8</ele>
        <time>2019-05-11T08:29:16Z</time>
      </trkpt>
      <trkpt lat="39.2022600" lon="-1.5528790">
        <ele>629.0</ele>
        <time>2019-05-11T08:29:17Z</time>
      </trkpt>
      <trkpt lat="39.2022410" lon="-1.5529130">
        <ele>629.0</ele>
        <time>2019-05-11T08:29:18Z</time>
      </trkpt>
      <trkpt lat="39.2022210" lon="-1.5529490">
        <ele>629.2</ele>
        <time>2019-05-11T08:29:19Z</time>
      </trkpt>
      <trkpt lat="39.2022000" lon="-1.5529850">
        <ele>629.6</ele>
        <time>2019-05-11T08:29:20Z</time>
      </trkpt>
      <trkpt lat="39.2021780" lon="-1.5530230">
        <ele>629.8</ele>
        <time>2019-05-11T08:29:21Z</time>
      </trkpt>
      <trkpt lat="39.2021540" lon="-1.5530600">
        <ele>630.0</ele>
        <time>2019-05-11T08:29:22Z</time>
      </trkpt>
      <trkpt lat="39.2021280" lon="-1.5530960">
        <ele>630.2</ele>
        <time>2019-05-11T08:29:23Z</time>
      </trkpt>
      <trkpt lat="39.2020990" lon="-1.5531330">
        <ele>630.2</ele>
        <time>2019-05-11T08:29:24Z</time>
      </trkpt>
      <trkpt lat="39.2020670" lon="-1.5531700">
        <ele>630.2</ele>
        <time>2019-05-11T08:29:25Z</time>
      </trkpt>
      <trkpt lat="39.2020330" lon="-1.5532080">
        <ele>630.4</ele>
        <time>2019-05-11T08:29:26Z</time>
      </trkpt>
      <trkpt lat="39.2019950" lon="-1.5532450">
        <ele>630.6</ele>
        <time>2019-05-11T08:29:27Z</time>
      </trkpt>
      <trkpt lat="39.2019520" lon="-1.5532800">
        <ele>630.6</ele>
        <time>2019-05-11T08:29:28Z</time>
      </trkpt>
      <trkpt lat="39.2019050" lon="-1.5533130">
        <ele>630.6</ele>
        <time>2019-05-11T08:29:29Z</time>
      </trkpt>
      <trkpt lat="39.2018560" lon="-1.5533480">
        <ele>630.6</ele>
        <time>2019-05-11T08:29:30Z</time>
      </trkpt>
      <trkpt lat="39.2018070" lon="-1.5533820">
        <ele>630.6</ele>
        <time>2019-05-11T08:29:31Z</time>
      </trkpt>
      <trkpt lat="39.2017580" lon="-1.5534170">
        <ele>630.6</ele>
        <time>2019-05-11T08:29:32Z</time>
      </trkpt>
      <trkpt lat="39.2017140" lon="-1.5534570">
        <ele>630.6</ele>
        <time>2019-05-11T08:29:33Z</time>
      </trkpt>
      <trkpt lat="39.2016740" lon="-1.5535040">
        <ele>630.6</ele>
        <time>2019-05-11T08:29:34Z</time>
      </trkpt>
      <trkpt lat="39.2016380" lon="-1.5535540">
        <ele>630.8</ele>
        <time>2019-05-11T08:29:35Z</time>
      </trkpt>
      <trkpt lat="39.2016050" lon="-1.5536050">
        <ele>630.8</ele>
        <time>2019-05-11T08:29:36Z</time>
      </trkpt>
      <trkpt lat="39.2015790" lon="-1.5536580">
        <ele>630.8</ele>
        <time>2019-05-11T08:29:37Z</time>
      </trkpt>
      <trkpt lat="39.2015690" lon="-1.5537140">
        <ele>630.8</ele>
        <time>2019-05-11T08:29:38Z</time>
      </trkpt>
      <trkpt lat="39.2015790" lon="-1.5537670">
        <ele>631.0</ele>
        <time>2019-05-11T08:29:39Z</time>
      </trkpt>
      <trkpt lat="39.2016080" lon="-1.5538060">
        <ele>631.0</ele>
        <time>2019-05-11T08:29:40Z</time>
      </trkpt>
      <trkpt lat="39.2016470" lon="-1.5538270">
        <ele>631.0</ele>
        <time>2019-05-11T08:29:41Z</time>
      </trkpt>
      <trkpt lat="39.2016860" lon="-1.5538460">
        <ele>631.0</ele>
        <time>2019-05-11T08:29:42Z</time>
      </trkpt>
      <trkpt lat="39.2017230" lon="-1.5538750">
        <ele>631.0</ele>
        <time>2019-05-11T08:29:43Z</time>
      </trkpt>
      <trkpt lat="39.2017580" lon="-1.5539160">
        <ele>631.0</ele>
        <time>2019-05-11T08:29:44Z</time>
      </trkpt>
      <trkpt lat="39.2017870" lon="-1.5539690">
        <ele>631.0</ele>
        <time>2019-05-11T08:29:45Z</time>
      </trkpt>
      <trkpt lat="39.2018130" lon="-1.5540290">
        <ele>631.0</ele>
        <time>2019-05-11T08:29:46Z</time>
      </trkpt>
      <trkpt lat="39.2018390" lon="-1.5540940">
        <ele>631.0</ele>
        <time>2019-05-11T08:29:47Z</time>
      </trkpt>
      <trkpt lat="39.2018670" lon="-1.5541580">
        <ele>631.2</ele>
        <time>2019-05-11T08:29:48Z</time>
      </trkpt>
      <trkpt lat="39.2019010" lon="-1.5542170">
        <ele>631.2</ele>
        <time>2019-05-11T08:29:49Z</time>
      </trkpt>
      <trkpt lat="39.2019390" lon="-1.5542690">
        <ele>631.2</ele>
        <time>2019-05-11T08:29:50Z</time>
      </trkpt>
      <trkpt lat="39.2019740" lon="-1.5543190">
        <ele>631.2</ele>
        <time>2019-05-11T08:29:51Z</time>
      </trkpt>
      <trkpt lat="39.2020030" lon="-1.5543680">
        <ele>631.2</ele>
        <time>2019-05-11T08:29:52Z</time>
      </trkpt>
      <trkpt lat="39.2020320" lon="-1.5544120">
        <ele>631.2</ele>
        <time>2019-05-11T08:29:53Z</time>
      </trkpt>
      <trkpt lat="39.2020630" lon="-1.5544490">
        <ele>631.2</ele>
        <time>2019-05-11T08:29:54Z</time>
      </trkpt>
      <trkpt lat="39.2020890" lon="-1.5544890">
        <ele>631.4</ele>
        <time>2019-05-11T08:29:55Z</time>
      </trkpt>
      <trkpt lat="39.2021120" lon="-1.5545310">
        <ele>631.4</ele>
        <time>2019-05-11T08:29:56Z</time>
      </trkpt>
      <trkpt lat="39.2021340" lon="-1.5545740">
        <ele>631.4</ele>
        <time>2019-05-11T08:29:57Z</time>
      </trkpt>
      <trkpt lat="39.2021530" lon="-1.5546220">
        <ele>631.4</ele>
        <time>2019-05-11T08:29:58Z</time>
      </trkpt>
      <trkpt lat="39.2021670" lon="-1.5546710">
        <ele>631.8</ele>
        <time>2019-05-11T08:29:59Z</time>
      </trkpt>
      <trkpt lat="39.2021770" lon="-1.5547200">
        <ele>632.0</ele>
        <time>2019-05-11T08:30:00Z</time>
      </trkpt>
      <trkpt lat="39.2021870" lon="-1.5547700">
        <ele>632.4</ele>
        <time>2019-05-11T08:30:01Z</time>
      </trkpt>
      <trkpt lat="39.2021960" lon="-1.5548210">
        <ele>632.6</ele>
        <time>2019-05-11T08:30:02Z</time>
      </trkpt>
      <trkpt lat="39.2022050" lon="-1.5548750">
        <ele>632.8</ele>
        <time>2019-05-11T08:30:03Z</time>
      </trkpt>
      <trkpt lat="39.2022150" lon="-1.5549300">
        <ele>633.2</ele>
        <time>2019-05-11T08:30:04Z</time>
      </trkpt>
      <trkpt lat="39.2022240" lon="-1.5549870">
        <ele>633.4</ele>
        <time>2019-05-11T08:30:05Z</time>
      </trkpt>
      <trkpt lat="39.2022330" lon="-1.5550460">
        <ele>633.8</ele>
        <time>2019-05-11T08:30:06Z</time>
      </trkpt>
      <trkpt lat="39.2022410" lon="-1.5551090">
        <ele>633.8</ele>
        <time>2019-05-11T08:30:07Z</time>
      </trkpt>
      <trkpt lat="39.2022430" lon="-1.5551780">
        <ele>634.0</ele>
        <time>2019-05-11T08:30:08Z</time>
      </trkpt>
      <trkpt lat="39.2022380" lon="-1.5552520">
        <ele>634.0</ele>
        <time>2019-05-11T08:30:09Z</time>
      </trkpt>
      <trkpt lat="39.2022290" lon="-1.5553280">
        <ele>634.0</ele>
        <time>2019-05-11T08:30:10Z</time>
      </trkpt>
      <trkpt lat="39.2022180" lon="-1.5554060">
        <ele>634.0</ele>
        <time>2019-05-11T08:30:11Z</time>
      </trkpt>
      <trkpt lat="39.2022020" lon="-1.5554840">
        <ele>634.0</ele>
        <time>2019-05-11T08:30:12Z</time>
      </trkpt>
      <trkpt lat="39.2021740" lon="-1.5555570">
        <ele>634.0</ele>
        <time>2019-05-11T08:30:13Z</time>
      </trkpt>
      <trkpt lat="39.2021360" lon="-1.5556220">
        <ele>634.0</ele>
        <time>2019-05-11T08:30:14Z</time>
      </trkpt>
      <trkpt lat="39.2020940" lon="-1.5556820">
        <ele>634.0</ele>
        <time>2019-05-11T08:30:15Z</time>
      </trkpt>
      <trkpt lat="39.2020540" lon="-1.5557400">
        <ele>634.0</ele>
        <time>2019-05-11T08:30:16Z</time>
      </trkpt>
      <trkpt lat="39.2020130" lon="-1.5557960">
        <ele>634.0</ele>
        <time>2019-05-11T08:30:17Z</time>
      </trkpt>
      <trkpt lat="39.2019740" lon="-1.5558500">
        <ele>634.0</ele>
        <time>2019-05-11T08:30:18Z</time>
      </trkpt>
      <trkpt lat="39.2019360" lon="-1.5559030">
        <ele>634.0</ele>
        <time>2019-05-11T08:30:19Z</time>
      </trkpt>
      <trkpt lat="39.2018970" lon="-1.5559530">
        <ele>634.0</ele>
        <time>2019-05-11T08:30:20Z</time>
      </trkpt>
      <trkpt lat="39.2018580" lon="-1.5559990">
        <ele>634.0</ele>
        <time>2019-05-11T08:30:21Z</time>
      </trkpt>
      <trkpt lat="39.2018190" lon="-1.5560410">
        <ele>634.0</ele>
        <time>2019-05-11T08:30:22Z</time>
      </trkpt>
      <trkpt lat="39.2017820" lon="-1.5560790">
        <ele>634.0</ele>
        <time>2019-05-11T08:30:23Z</time>
      </trkpt>
      <trkpt lat="39.2017460" lon="-1.5561140">
        <ele>634.0</ele>
        <time>2019-05-11T08:30:24Z</time>
      </trkpt>
      <trkpt lat="39.2017110" lon="-1.5561470">
        <ele>634.0</ele>
        <time>2019-05-11T08:30:25Z</time>
      </trkpt>
      <trkpt lat="39.2016800" lon="-1.5561810">
        <ele>634.0</ele>
        <time>2019-05-11T08:30:26Z</time>
      </trkpt>
      <trkpt lat="39.2016510" lon="-1.5562160">
        <ele>634.2</ele>
        <time>2019-05-11T08:30:27Z</time>
      </trkpt>
      <trkpt lat="39.2016260" lon="-1.5562550">
        <ele>634.4</ele>
        <time>2019-05-11T08:30:28Z</time>
      </trkpt>
      <trkpt lat="39.2016080" lon="-1.5562980">
        <ele>634.6</ele>
        <time>2019-05-11T08:30:29Z</time>
      </trkpt>
      <trkpt lat="39.2015960" lon="-1.5563440">
        <ele>634.8</ele>
        <time>2019-05-11T08:30:30Z</time>
      </trkpt>
      <trkpt lat="39.2015920" lon="-1.5563910">
        <ele>635.0</ele>
        <time>2019-05-11T08:30:31Z</time>
      </trkpt>
      <trkpt lat="39.2015890" lon="-1.5564380">
        <ele>635.2</ele>
        <time>2019-05-11T08:30:32Z</time>
      </trkpt>
      <trkpt lat="39.2015790" lon="-1.5564790">
        <ele>635.4</ele>
        <time>2019-05-11T08:30:33Z</time>
      </trkpt>
      <trkpt lat="39.2015620" lon="-1.5565040">
        <ele>635.6</ele>
        <time>2019-05-11T08:30:34Z</time>
      </trkpt>
      <trkpt lat="39.2015370" lon="-1.5564960">
        <ele>635.8</ele>
        <time>2019-05-11T08:30:35Z</time>
      </trkpt>
      <trkpt lat="39.2015110" lon="-1.5564740">
        <ele>636.2</ele>
        <time>2019-05-11T08:30:36Z</time>
      </trkpt>
      <trkpt lat="39.2014830" lon="-1.5564470">
        <ele>636.6</ele>
        <time>2019-05-11T08:30:37Z</time>
      </trkpt>
      <trkpt lat="39.2014530" lon="-1.5564170">
        <ele>636.8</ele>
        <time>2019-05-11T08:30:38Z</time>
      </trkpt>
      <trkpt lat="39.2014210" lon="-1.5563860">
        <ele>637.0</ele>
        <time>2019-05-11T08:30:39Z</time>
      </trkpt>
      <trkpt lat="39.2013890" lon="-1.5563520">
        <ele>637.8</ele>
        <time>2019-05-11T08:30:40Z</time>
      </trkpt>
      <trkpt lat="39.2013560" lon="-1.5563170">
        <ele>638.0</ele>
        <time>2019-05-11T08:30:41Z</time>
      </trkpt>
      <trkpt lat="39.2013240" lon="-1.5562790">
        <ele>638.2</ele>
        <time>2019-05-11T08:30:42Z</time>
      </trkpt>
      <trkpt lat="39.2012930" lon="-1.5562360">
        <ele>638.2</ele>
        <time>2019-05-11T08:30:43Z</time>
      </trkpt>
      <trkpt lat="39.2012650" lon="-1.5561890">
        <ele>638.4</ele>
        <time>2019-05-11T08:30:44Z</time>
      </trkpt>
      <trkpt lat="39.2012400" lon="-1.5561400">
        <ele>638.4</ele>
        <time>2019-05-11T08:30:45Z</time>
      </trkpt>
      <trkpt lat="39.2012150" lon="-1.5560920">
        <ele>638.4</ele>
        <time>2019-05-11T08:30:46Z</time>
      </trkpt>
      <trkpt lat="39.2011900" lon="-1.5560440">
        <ele>638.6</ele>
        <time>2019-05-11T08:30:47Z</time>
      </trkpt>
      <trkpt lat="39.2011630" lon="-1.5560020">
        <ele>638.6</ele>
        <time>2019-05-11T08:30:48Z</time>
      </trkpt>
      <trkpt lat="39.2011300" lon="-1.5559640">
        <ele>638.6</ele>
        <time>2019-05-11T08:30:49Z</time>
      </trkpt>
      <trkpt lat="39.2010940" lon="-1.5559280">
        <ele>638.6</ele>
        <time>2019-05-11T08:30:50Z</time>
      </trkpt>
      <trkpt lat="39.2010550" lon="-1.5558900">
        <ele>638.6</ele>
        <time>2019-05-11T08:30:51Z</time>
      </trkpt>
      <trkpt lat="39.2010140" lon="-1.5558540">
        <ele>638.8</ele>
        <time>2019-05-11T08:30:52Z</time>
      </trkpt>
      <trkpt lat="39.2009700" lon="-1.5558210">
        <ele>638.8</ele>
        <time>2019-05-11T08:30:53Z</time>
      </trkpt>
      <trkpt lat="39.2009250" lon="-1.5557870">
        <ele>639.0</ele>
        <time>2019-05-11T08:30:54Z</time>
      </trkpt>
      <trkpt lat="39.2008790" lon="-1.5557520">
        <ele>639.2</ele>
        <time>2019-05-11T08:30:55Z</time>
      </trkpt>
      <trkpt lat="39.2008310" lon="-1.5557170">
        <ele>639.2</ele>
        <time>2019-05-11T08:30:56Z</time>
      </trkpt>
      <trkpt lat="39.2007830" lon="-1.5556820">
        <ele>639.4</ele>
        <time>2019-05-11T08:30:57Z</time>
      </trkpt>
      <trkpt lat="39.2007340" lon="-1.5556450">
        <ele>639.4</ele>
        <time>2019-05-11T08:30:58Z</time>
      </trkpt>
      <trkpt lat="39.2006850" lon="-1.5556080">
        <ele>639.6</ele>
        <time>2019-05-11T08:30:59Z</time>
      </trkpt>
      <trkpt lat="39.2006340" lon="-1.5555700">
        <ele>639.6</ele>
        <time>2019-05-11T08:31:00Z</time>
      </trkpt>
      <trkpt lat="39.2005840" lon="-1.5555330">
        <ele>639.6</ele>
        <time>2019-05-11T08:31:01Z</time>
      </trkpt>
      <trkpt lat="39.2005340" lon="-1.5554960">
        <ele>639.8</ele>
        <time>2019-05-11T08:31:02Z</time>
      </trkpt>
      <trkpt lat="39.2004830" lon="-1.5554590">
        <ele>639.8</ele>
        <time>2019-05-11T08:31:03Z</time>
      </trkpt>
      <trkpt lat="39.2004330" lon="-1.5554200">
        <ele>639.8</ele>
        <time>2019-05-11T08:31:04Z</time>
      </trkpt>
      <trkpt lat="39.2003820" lon="-1.5553820">
        <ele>639.8</ele>
        <time>2019-05-11T08:31:05Z</time>
      </trkpt>
      <trkpt lat="39.2003300" lon="-1.5553440">
        <ele>640.0</ele>
        <time>2019-05-11T08:31:06Z</time>
      </trkpt>
      <trkpt lat="39.2002790" lon="-1.5553060">
        <ele>640.0</ele>
        <time>2019-05-11T08:31:07Z</time>
      </trkpt>
      <trkpt lat="39.2002280" lon="-1.5552670">
        <ele>640.0</ele>
        <time>2019-05-11T08:31:08Z</time>
      </trkpt>
      <trkpt lat="39.2001770" lon="-1.5552290">
        <ele>640.0</ele>
        <time>2019-05-11T08:31:09Z</time>
      </trkpt>
      <trkpt lat="39.2001250" lon="-1.5551900">
        <ele>640.2</ele>
        <time>2019-05-11T08:31:10Z</time>
      </trkpt>
      <trkpt lat="39.2000740" lon="-1.5551520">
        <ele>640.2</ele>
        <time>2019-05-11T08:31:11Z</time>
      </trkpt>
      <trkpt lat="39.2000220" lon="-1.5551180">
        <ele>640.2</ele>
        <time>2019-05-11T08:31:12Z</time>
      </trkpt>
      <trkpt lat="39.1999700" lon="-1.5550880">
        <ele>640.2</ele>
        <time>2019-05-11T08:31:13Z</time>
      </trkpt>
      <trkpt lat="39.1999170" lon="-1.5550610">
        <ele>640.4</ele>
        <time>2019-05-11T08:31:14Z</time>
      </trkpt>
      <trkpt lat="39.1998710" lon="-1.5550260">
        <ele>640.4</ele>
        <time>2019-05-11T08:31:15Z</time>
      </trkpt>
      <trkpt lat="39.1998370" lon="-1.5549770">
        <ele>640.4</ele>
        <time>2019-05-11T08:31:16Z</time>
      </trkpt>
      <trkpt lat="39.1998170" lon="-1.5549130">
        <ele>640.4</ele>
        <time>2019-05-11T08:31:17Z</time>
      </trkpt>
      <trkpt lat="39.1998050" lon="-1.5548440">
        <ele>640.6</ele>
        <time>2019-05-11T08:31:18Z</time>
      </trkpt>
      <trkpt lat="39.1997940" lon="-1.5547730">
        <ele>640.6</ele>
        <time>2019-05-11T08:31:19Z</time>
      </trkpt>
      <trkpt lat="39.1997840" lon="-1.5546990">
        <ele>640.6</ele>
        <time>2019-05-11T08:31:20Z</time>
      </trkpt>
      <trkpt lat="39.1997740" lon="-1.5546230">
        <ele>640.6</ele>
        <time>2019-05-11T08:31:21Z</time>
      </trkpt>
      <trkpt lat="39.1997630" lon="-1.5545480">
        <ele>640.8</ele>
        <time>2019-05-11T08:31:22Z</time>
      </trkpt>
      <trkpt lat="39.1997580" lon="-1.5544720">
        <ele>640.8</ele>
        <time>2019-05-11T08:31:23Z</time>
      </trkpt>
      <trkpt lat="39.1997570" lon="-1.5544030">
        <ele>640.8</ele>
        <time>2019-05-11T08:31:24Z</time>
      </trkpt>
      <trkpt lat="39.1997510" lon="-1.5543490">
        <ele>640.8</ele>
        <time>2019-05-11T08:31:25Z</time>
      </trkpt>
      <trkpt lat="39.1997280" lon="-1.5543140">
        <ele>640.8</ele>
        <time>2019-05-11T08:31:26Z</time>
      </trkpt>
      <trkpt lat="39.1996900" lon="-1.5543010">
        <ele>640.8</ele>
        <time>2019-05-11T08:31:27Z</time>
      </trkpt>
      <trkpt lat="39.1996460" lon="-1.5543060">
        <ele>640.8</ele>
        <time>2019-05-11T08:31:28Z</time>
      </trkpt>
      <trkpt lat="39.1995960" lon="-1.5543250">
        <ele>640.8</ele>
        <time>2019-05-11T08:31:29Z</time>
      </trkpt>
      <trkpt lat="39.1995450" lon="-1.5543480">
        <ele>640.8</ele>
        <time>2019-05-11T08:31:30Z</time>
      </trkpt>
      <trkpt lat="39.1994920" lon="-1.5543670">
        <ele>640.8</ele>
        <time>2019-05-11T08:31:31Z</time>
      </trkpt>
      <trkpt lat="39.1994370" lon="-1.5543820">
        <ele>640.6</ele>
        <time>2019-05-11T08:31:32Z</time>
      </trkpt>
      <trkpt lat="39.1993820" lon="-1.5543950">
        <ele>640.4</ele>
        <time>2019-05-11T08:31:33Z</time>
      </trkpt>
      <trkpt lat="39.1993250" lon="-1.5544020">
        <ele>640.2</ele>
        <time>2019-05-11T08:31:34Z</time>
      </trkpt>
      <trkpt lat="39.1992690" lon="-1.5544080">
        <ele>640.2</ele>
        <time>2019-05-11T08:31:35Z</time>
      </trkpt>
      <trkpt lat="39.1992150" lon="-1.5544160">
        <ele>640.0</ele>
        <time>2019-05-11T08:31:36Z</time>
      </trkpt>
      <trkpt lat="39.1991610" lon="-1.5544290">
        <ele>640.0</ele>
        <time>2019-05-11T08:31:37Z</time>
      </trkpt>
      <trkpt lat="39.1991060" lon="-1.5544460">
        <ele>640.0</ele>
        <time>2019-05-11T08:31:38Z</time>
      </trkpt>
      <trkpt lat="39.1990510" lon="-1.5544690">
        <ele>640.0</ele>
        <time>2019-05-11T08:31:39Z</time>
      </trkpt>
      <trkpt lat="39.1989960" lon="-1.5544970">
        <ele>640.0</ele>
        <time>2019-05-11T08:31:40Z</time>
      </trkpt>
      <trkpt lat="39.1989380" lon="-1.5545300">
        <ele>640.0</ele>
        <time>2019-05-11T08:31:41Z</time>
      </trkpt>
      <trkpt lat="39.1988790" lon="-1.5545660">
        <ele>640.0</ele>
        <time>2019-05-11T08:31:42Z</time>
      </trkpt>
      <trkpt lat="39.1988190" lon="-1.5546070">
        <ele>640.0</ele>
        <time>2019-05-11T08:31:43Z</time>
      </trkpt>
      <trkpt lat="39.1987620" lon="-1.5546570">
        <ele>640.0</ele>
        <time>2019-05-11T08:31:44Z</time>
      </trkpt>
      <trkpt lat="39.1987050" lon="-1.5547050">
        <ele>640.0</ele>
        <time>2019-05-11T08:31:45Z</time>
      </trkpt>
      <trkpt lat="39.1986430" lon="-1.5547350">
        <ele>639.8</ele>
        <time>2019-05-11T08:31:46Z</time>
      </trkpt>
      <trkpt lat="39.1985770" lon="-1.5547390">
        <ele>639.8</ele>
        <time>2019-05-11T08:31:47Z</time>
      </trkpt>
      <trkpt lat="39.1985060" lon="-1.5547260">
        <ele>639.8</ele>
        <time>2019-05-11T08:31:48Z</time>
      </trkpt>
      <trkpt lat="39.1984330" lon="-1.5547060">
        <ele>639.8</ele>
        <time>2019-05-11T08:31:49Z</time>
      </trkpt>
      <trkpt lat="39.1983620" lon="-1.5546840">
        <ele>639.8</ele>
        <time>2019-05-11T08:31:50Z</time>
      </trkpt>
      <trkpt lat="39.1982950" lon="-1.5546540">
        <ele>639.8</ele>
        <time>2019-05-11T08:31:51Z</time>
      </trkpt>
      <trkpt lat="39.1982420" lon="-1.5546150">
        <ele>639.2</ele>
        <time>2019-05-11T08:31:52Z</time>
      </trkpt>
      <trkpt lat="39.1982120" lon="-1.5545670">
        <ele>638.8</ele>
        <time>2019-05-11T08:31:53Z</time>
      </trkpt>
      <trkpt lat="39.1982040" lon="-1.5545170">
        <ele>638.6</ele>
        <time>2019-05-11T08:31:54Z</time>
      </trkpt>
      <trkpt lat="39.1982200" lon="-1.5544710">
        <ele>638.2</ele>
        <time>2019-05-11T08:31:55Z</time>
      </trkpt>
      <trkpt lat="39.1982460" lon="-1.5544220">
        <ele>637.8</ele>
        <time>2019-05-11T08:31:56Z</time>
      </trkpt>
      <trkpt lat="39.1982690" lon="-1.5543650">
        <ele>637.2</ele>
        <time>2019-05-11T08:31:57Z</time>
      </trkpt>
      <trkpt lat="39.1982880" lon="-1.5543000">
        <ele>636.8</ele>
        <time>2019-05-11T08:31:58Z</time>
      </trkpt>
      <trkpt lat="39.1983010" lon="-1.5542280">
        <ele>636.6</ele>
        <time>2019-05-11T08:31:59Z</time>
      </trkpt>
      <trkpt lat="39.1983120" lon="-1.5541520">
        <ele>636.4</ele>
        <time>2019-05-11T08:32:00Z</time>
      </trkpt>
      <trkpt lat="39.1983220" lon="-1.5540720">
        <ele>636.4</ele>
        <time>2019-05-11T08:32:01Z</time>
      </trkpt>
      <trkpt lat="39.1983310" lon="-1.5539920">
        <ele>636.2</ele>
        <time>2019-05-11T08:32:02Z</time>
      </trkpt>
      <trkpt lat="39.1983360" lon="-1.5539100">
        <ele>636.2</ele>
        <time>2019-05-11T08:32:03Z</time>
      </trkpt>
      <trkpt lat="39.1983390" lon="-1.5538270">
        <ele>636.2</ele>
        <time>2019-05-11T08:32:04Z</time>
      </trkpt>
      <trkpt lat="39.1983370" lon="-1.5537440">
        <ele>636.0</ele>
        <time>2019-05-11T08:32:05Z</time>
      </trkpt>
      <trkpt lat="39.1983310" lon="-1.5536610">
        <ele>635.8</ele>
        <time>2019-05-11T08:32:06Z</time>
      </trkpt>
      <trkpt lat="39.1983230" lon="-1.5535800">
        <ele>635.8</ele>
        <time>2019-05-11T08:32:07Z</time>
      </trkpt>
      <trkpt lat="39.1983230" lon="-1.5535010">
        <ele>635.6</ele>
        <time>2019-05-11T08:32:08Z</time>
      </trkpt>
      <trkpt lat="39.1983340" lon="-1.5534240">
        <ele>635.6</ele>
        <time>2019-05-11T08:32:09Z</time>
      </trkpt>
      <trkpt lat="39.1983510" lon="-1.5533460">
        <ele>635.6</ele>
        <time>2019-05-11T08:32:10Z</time>
      </trkpt>
      <trkpt lat="39.1983730" lon="-1.5532690">
        <ele>635.6</ele>
        <time>2019-05-11T08:32:11Z</time>
      </trkpt>
      <trkpt lat="39.1984050" lon="-1.5531980">
        <ele>635.6</ele>
        <time>2019-05-11T08:32:12Z</time>
      </trkpt>
      <trkpt lat="39.1984440" lon="-1.5531280">
        <ele>635.4</ele>
        <time>2019-05-11T08:32:13Z</time>
      </trkpt>
      <trkpt lat="39.1984850" lon="-1.5530580">
        <ele>635.4</ele>
        <time>2019-05-11T08:32:14Z</time>
      </trkpt>
      <trkpt lat="39.1985190" lon="-1.5529870">
        <ele>635.4</ele>
        <time>2019-05-11T08:32:15Z</time>
      </trkpt>
      <trkpt lat="39.1985480" lon="-1.5529100">
        <ele>635.2</ele>
        <time>2019-05-11T08:32:16Z</time>
      </trkpt>
      <trkpt lat="39.1985730" lon="-1.5528290">
        <ele>635.0</ele>
        <time>2019-05-11T08:32:17Z</time>
      </trkpt>
      <trkpt lat="39.1985980" lon="-1.5527450">
        <ele>635.0</ele>
        <time>2019-05-11T08:32:18Z</time>
      </trkpt>
      <trkpt lat="39.1986280" lon="-1.5526610">
        <ele>634.8</ele>
        <time>2019-05-11T08:32:19Z</time>
      </trkpt>
      <trkpt lat="39.1986700" lon="-1.5525840">
        <ele>634.8</ele>
        <time>2019-05-11T08:32:20Z</time>
      </trkpt>
      <trkpt lat="39.1987160" lon="-1.5525140">
        <ele>634.6</ele>
        <time>2019-05-11T08:32:21Z</time>
      </trkpt>
      <trkpt lat="39.1987560" lon="-1.5524430">
        <ele>634.6</ele>
        <time>2019-05-11T08:32:22Z</time>
      </trkpt>
      <trkpt lat="39.1987900" lon="-1.5523690">
        <ele>634.2</ele>
        <time>2019-05-11T08:32:23Z</time>
      </trkpt>
      <trkpt lat="39.1988200" lon="-1.5522980">
        <ele>633.8</ele>
        <time>2019-05-11T08:32:24Z</time>
      </trkpt>
      <trkpt lat="39.1988390" lon="-1.5522420">
        <ele>633.6</ele>
        <time>2019-05-11T08:32:25Z</time>
      </trkpt>
      <trkpt lat="39.1988540" lon="-1.5522050">
        <ele>633.4</ele>
        <time>2019-05-11T08:32:26Z</time>
      </trkpt>
      <trkpt lat="39.1988730" lon="-1.5521730">
        <ele>633.0</ele>
        <time>2019-05-11T08:32:27Z</time>
      </trkpt>
      <trkpt lat="39.1988920" lon="-1.5521410">
        <ele>632.8</ele>
        <time>2019-05-11T08:32:28Z</time>
      </trkpt>
      <trkpt lat="39.1988960" lon="-1.5521060">
        <ele>632.4</ele>
        <time>2019-05-11T08:32:29Z</time>
      </trkpt>
      <trkpt lat="39.1988860" lon="-1.5520730">
        <ele>632.2</ele>
        <time>2019-05-11T08:32:30Z</time>
      </trkpt>
      <trkpt lat="39.1988640" lon="-1.5520430">
        <ele>632.0</ele>
        <time>2019-05-11T08:32:31Z</time>
      </trkpt>
      <trkpt lat="39.1988350" lon="-1.5520130">
        <ele>631.6</ele>
        <time>2019-05-11T08:32:32Z</time>
      </trkpt>
      <trkpt lat="39.1988000" lon="-1.5519800">
        <ele>631.2</ele>
        <time>2019-05-11T08:32:33Z</time>
      </trkpt>
      <trkpt lat="39.1987610" lon="-1.5519460">
        <ele>630.6</ele>
        <time>2019-05-11T08:32:34Z</time>
      </trkpt>
      <trkpt lat="39.1987170" lon="-1.5519150">
        <ele>630.2</ele>
        <time>2019-05-11T08:32:35Z</time>
      </trkpt>
      <trkpt lat="39.1986730" lon="-1.5518850">
        <ele>629.6</ele>
        <time>2019-05-11T08:32:36Z</time>
      </trkpt>
      <trkpt lat="39.1986290" lon="-1.5518550">
        <ele>629.4</ele>
        <time>2019-05-11T08:32:37Z</time>
      </trkpt>
      <trkpt lat="39.1985870" lon="-1.5518220">
        <ele>629.2</ele>
        <time>2019-05-11T08:32:38Z</time>
      </trkpt>
      <trkpt lat="39.1985470" lon="-1.5517850">
        <ele>629.2</ele>
        <time>2019-05-11T08:32:39Z</time>
      </trkpt>
      <trkpt lat="39.1985110" lon="-1.5517430">
        <ele>629.0</ele>
        <time>2019-05-11T08:32:40Z</time>
      </trkpt>
      <trkpt lat="39.1984780" lon="-1.5516970">
        <ele>629.0</ele>
        <time>2019-05-11T08:32:41Z</time>
      </trkpt>
      <trkpt lat="39.1984470" lon="-1.5516460">
        <ele>629.0</ele>
        <time>2019-05-11T08:32:42Z</time>
      </trkpt>
      <trkpt lat="39.1984130" lon="-1.5515970">
        <ele>629.0</ele>
        <time>2019-05-11T08:32:43Z</time>
      </trkpt>
      <trkpt lat="39.1983820" lon="-1.5515460">
        <ele>629.0</ele>
        <time>2019-05-11T08:32:44Z</time>
      </trkpt>
      <trkpt lat="39.1983550" lon="-1.5514880">
        <ele>629.0</ele>
        <time>2019-05-11T08:32:45Z</time>
      </trkpt>
      <trkpt lat="39.1983230" lon="-1.5514320">
        <ele>629.0</ele>
        <time>2019-05-11T08:32:46Z</time>
      </trkpt>
      <trkpt lat="39.1982860" lon="-1.5513810">
        <ele>629.0</ele>
        <time>2019-05-11T08:32:47Z</time>
      </trkpt>
      <trkpt lat="39.1982450" lon="-1.5513350">
        <ele>629.0</ele>
        <time>2019-05-11T08:32:48Z</time>
      </trkpt>
      <trkpt lat="39.1982030" lon="-1.5512950">
        <ele>629.0</ele>
        <time>2019-05-11T08:32:49Z</time>
      </trkpt>
      <trkpt lat="39.1981580" lon="-1.5512610">
        <ele>629.2</ele>
        <time>2019-05-11T08:32:50Z</time>
      </trkpt>
      <trkpt lat="39.1981140" lon="-1.5512320">
        <ele>629.2</ele>
        <time>2019-05-11T08:32:51Z</time>
      </trkpt>
      <trkpt lat="39.1980700" lon="-1.5512030">
        <ele>629.4</ele>
        <time>2019-05-11T08:32:52Z</time>
      </trkpt>
      <trkpt lat="39.1980240" lon="-1.5511760">
        <ele>629.4</ele>
        <time>2019-05-11T08:32:53Z</time>
      </trkpt>
      <trkpt lat="39.1979750" lon="-1.5511540">
        <ele>629.4</ele>
        <time>2019-05-11T08:32:54Z</time>
      </trkpt>
      <trkpt lat="39.1979250" lon="-1.5511340">
        <ele>629.6</ele>
        <time>2019-05-11T08:32:55Z</time>
      </trkpt>
      <trkpt lat="39.1978730" lon="-1.5511160">
        <ele>629.8</ele>
        <time>2019-05-11T08:32:56Z</time>
      </trkpt>
      <trkpt lat="39.1978200" lon="-1.5510980">
        <ele>630.0</ele>
        <time>2019-05-11T08:32:57Z</time>
      </trkpt>
      <trkpt lat="39.1977650" lon="-1.5510800">
        <ele>630.4</ele>
        <time>2019-05-11T08:32:58Z</time>
      </trkpt>
      <trkpt lat="39.1977110" lon="-1.5510620">
        <ele>630.6</ele>
        <time>2019-05-11T08:32:59Z</time>
      </trkpt>
      <trkpt lat="39.1976610" lon="-1.5510380">
        <ele>630.8</ele>
        <time>2019-05-11T08:33:00Z</time>
      </trkpt>
      <trkpt lat="39.1976170" lon="-1.5510080">
        <ele>630.8</ele>
        <time>2019-05-11T08:33:01Z</time>
      </trkpt>
      <trkpt lat="39.1975770" lon="-1.5509760">
        <ele>631.0</ele>
        <time>2019-05-11T08:33:02Z</time>
      </trkpt>
      <trkpt lat="39.1975360" lon="-1.5509470">
        <ele>631.0</ele>
        <time>2019-05-11T08:33:03Z</time>
      </trkpt>
      <trkpt lat="39.1974930" lon="-1.5509240">
        <ele>631.0</ele>
        <time>2019-05-11T08:33:04Z</time>
      </trkpt>
      <trkpt lat="39.1974480" lon="-1.5509090">
        <ele>631.0</ele>
        <time>2019-05-11T08:33:05Z</time>
      </trkpt>
      <trkpt lat="39.1974030" lon="-1.5509030">
        <ele>631.0</ele>
        <time>2019-05-11T08:33:06Z</time>
      </trkpt>
      <trkpt lat="39.1973600" lon="-1.5509020">
        <ele>631.2</ele>
        <time>2019-05-11T08:33:07Z</time>
      </trkpt>
      <trkpt lat="39.1973170" lon="-1.5509050">
        <ele>631.6</ele>
        <time>2019-05-11T08:33:08Z</time>
      </trkpt>
      <trkpt lat="39.1972750" lon="-1.5509090">
        <ele>631.8</ele>
        <time>2019-05-11T08:33:09Z</time>
      </trkpt>
      <trkpt lat="39.1972340" lon="-1.5509090">
        <ele>631.8</ele>
        <time>2019-05-11T08:33:10Z</time>
      </trkpt>
      <trkpt lat="39.1971970" lon="-1.5509070">
        <ele>632.0</ele>
        <time>2019-05-11T08:33:11Z</time>
      </trkpt>
      <trkpt lat="39.1971610" lon="-1.5509070">
        <ele>632.2</ele>
        <time>2019-05-11T08:33:12Z</time>
      </trkpt>
      <trkpt lat="39.1971250" lon="-1.5509020">
        <ele>632.4</ele>
        <time>2019-05-11T08:33:13Z</time>
      </trkpt>
      <trkpt lat="39.1970900" lon="-1.5508940">
        <ele>632.8</ele>
        <time>2019-05-11T08:33:14Z</time>
      </trkpt>
      <trkpt lat="39.1970570" lon="-1.5508850">
        <ele>632.8</ele>
        <time>2019-05-11T08:33:15Z</time>
      </trkpt>
      <trkpt lat="39.1970270" lon="-1.5508770">
        <ele>633.0</ele>
        <time>2019-05-11T08:33:16Z</time>
      </trkpt>
      <trkpt lat="39.1969980" lon="-1.5508710">
        <ele>633.4</ele>
        <time>2019-05-11T08:33:17Z</time>
      </trkpt>
      <trkpt lat="39.1969700" lon="-1.5508660">
        <ele>633.8</ele>
        <time>2019-05-11T08:33:18Z</time>
      </trkpt>
      <trkpt lat="39.1969430" lon="-1.5508630">
        <ele>634.0</ele>
        <time>2019-05-11T08:33:19Z</time>
      </trkpt>
      <trkpt lat="39.1969140" lon="-1.5508610">
        <ele>634.0</ele>
        <time>2019-05-11T08:33:20Z</time>
      </trkpt>
      <trkpt lat="39.1968850" lon="-1.5508590">
        <ele>634.4</ele>
        <time>2019-05-11T08:33:21Z</time>
      </trkpt>
      <trkpt lat="39.1968570" lon="-1.5508550">
        <ele>634.4</ele>
        <time>2019-05-11T08:33:22Z</time>
      </trkpt>
      <trkpt lat="39.1968290" lon="-1.5508470">
        <ele>634.6</ele>
        <time>2019-05-11T08:33:23Z</time>
      </trkpt>
      <trkpt lat="39.1968030" lon="-1.5508370">
        <ele>635.0</ele>
        <time>2019-05-11T08:33:24Z</time>
      </trkpt>
      <trkpt lat="39.1967770" lon="-1.5508270">
        <ele>635.2</ele>
        <time>2019-05-11T08:33:25Z</time>
      </trkpt>
      <trkpt lat="39.1967510" lon="-1.5508160">
        <ele>635.4</ele>
        <time>2019-05-11T08:33:26Z</time>
      </trkpt>
      <trkpt lat="39.1967260" lon="-1.5508050">
        <ele>635.6</ele>
        <time>2019-05-11T08:33:27Z</time>
      </trkpt>
      <trkpt lat="39.1967010" lon="-1.5507940">
        <ele>636.0</ele>
        <time>2019-05-11T08:33:28Z</time>
      </trkpt>
      <trkpt lat="39.1966750" lon="-1.5507820">
        <ele>636.2</ele>
        <time>2019-05-11T08:33:29Z</time>
      </trkpt>
      <trkpt lat="39.1966480" lon="-1.5507700">
        <ele>636.4</ele>
        <time>2019-05-11T08:33:30Z</time>
      </trkpt>
      <trkpt lat="39.1966210" lon="-1.5507590">
        <ele>636.8</ele>
        <time>2019-05-11T08:33:31Z</time>
      </trkpt>
      <trkpt lat="39.1965930" lon="-1.5507470">
        <ele>636.8</ele>
        <time>2019-05-11T08:33:32Z</time>
      </trkpt>
      <trkpt lat="39.1965650" lon="-1.5507350">
        <ele>637.6</ele>
        <time>2019-05-11T08:33:33Z</time>
      </trkpt>
      <trkpt lat="39.1965380" lon="-1.5507220">
        <ele>637.8</ele>
        <time>2019-05-11T08:33:34Z</time>
      </trkpt>
      <trkpt lat="39.1965090" lon="-1.5507100">
        <ele>638.0</ele>
        <time>2019-05-11T08:33:35Z</time>
      </trkpt>
      <trkpt lat="39.1964800" lon="-1.5506980">
        <ele>638.2</ele>
        <time>2019-05-11T08:33:36Z</time>
      </trkpt>
      <trkpt lat="39.1964510" lon="-1.5506890">
        <ele>638.6</ele>
        <time>2019-05-11T08:33:37Z</time>
      </trkpt>
      <trkpt lat="39.1964220" lon="-1.5506800">
        <ele>638.8</ele>
        <time>2019-05-11T08:33:38Z</time>
      </trkpt>
      <trkpt lat="39.1963930" lon="-1.5506730">
        <ele>639.2</ele>
        <time>2019-05-11T08:33:39Z</time>
      </trkpt>
      <trkpt lat="39.1963650" lon="-1.5506680">
        <ele>639.2</ele>
        <time>2019-05-11T08:33:40Z</time>
      </trkpt>
      <trkpt lat="39.1963380" lon="-1.5506650">
        <ele>639.4</ele>
        <time>2019-05-11T08:33:41Z</time>
      </trkpt>
      <trkpt lat="39.1963150" lon="-1.5506600">
        <ele>639.6</ele>
        <time>2019-05-11T08:33:42Z</time>
      </trkpt>
      <trkpt lat="39.1962920" lon="-1.5506510">
        <ele>639.6</ele>
        <time>2019-05-11T08:33:43Z</time>
      </trkpt>
      <trkpt lat="39.1962690" lon="-1.5506400">
        <ele>639.8</ele>
        <time>2019-05-11T08:33:44Z</time>
      </trkpt>
      <trkpt lat="39.1962490" lon="-1.5506290">
        <ele>640.2</ele>
        <time>2019-05-11T08:33:45Z</time>
      </trkpt>
      <trkpt lat="39.1962280" lon="-1.5506180">
        <ele>640.4</ele>
        <time>2019-05-11T08:33:46Z</time>
      </trkpt>
      <trkpt lat="39.1962090" lon="-1.5506080">
        <ele>640.4</ele>
        <time>2019-05-11T08:33:47Z</time>
      </trkpt>
      <trkpt lat="39.1961910" lon="-1.5505970">
        <ele>640.8</ele>
        <time>2019-05-11T08:33:48Z</time>
      </trkpt>
      <trkpt lat="39.1961720" lon="-1.5505870">
        <ele>641.2</ele>
        <time>2019-05-11T08:33:49Z</time>
      </trkpt>
      <trkpt lat="39.1961510" lon="-1.5505750">
        <ele>641.2</ele>
        <time>2019-05-11T08:33:50Z</time>
      </trkpt>
      <trkpt lat="39.1961290" lon="-1.5505620">
        <ele>641.6</ele>
        <time>2019-05-11T08:33:51Z</time>
      </trkpt>
      <trkpt lat="39.1961050" lon="-1.5505490">
        <ele>642.0</ele>
        <time>2019-05-11T08:33:52Z</time>
      </trkpt>
      <trkpt lat="39.1960800" lon="-1.5505380">
        <ele>642.4</ele>
        <time>2019-05-11T08:33:53Z</time>
      </trkpt>
      <trkpt lat="39.1960530" lon="-1.5505300">
        <ele>642.6</ele>
        <time>2019-05-11T08:33:54Z</time>
      </trkpt>
      <trkpt lat="39.1960270" lon="-1.5505250">
        <ele>643.2</ele>
        <time>2019-05-11T08:33:55Z</time>
      </trkpt>
      <trkpt lat="39.1960000" lon="-1.5505210">
        <ele>643.4</ele>
        <time>2019-05-11T08:33:56Z</time>
      </trkpt>
      <trkpt lat="39.1959730" lon="-1.5505160">
        <ele>643.6</ele>
        <time>2019-05-11T08:33:57Z</time>
      </trkpt>
      <trkpt lat="39.1959440" lon="-1.5505080">
        <ele>643.8</ele>
        <time>2019-05-11T08:33:58Z</time>
      </trkpt>
      <trkpt lat="39.1959160" lon="-1.5505000">
        <ele>644.0</ele>
        <time>2019-05-11T08:33:59Z</time>
      </trkpt>
      <trkpt lat="39.1958870" lon="-1.5504910">
        <ele>644.2</ele>
        <time>2019-05-11T08:34:00Z</time>
      </trkpt>
      <trkpt lat="39.1958580" lon="-1.5504820">
        <ele>644.4</ele>
        <time>2019-05-11T08:34:01Z</time>
      </trkpt>
      <trkpt lat="39.1958280" lon="-1.5504730">
        <ele>644.6</ele>
        <time>2019-05-11T08:34:02Z</time>
      </trkpt>
      <trkpt lat="39.1957980" lon="-1.5504640">
        <ele>644.6</ele>
        <time>2019-05-11T08:34:03Z</time>
      </trkpt>
      <trkpt lat="39.1957670" lon="-1.5504550">
        <ele>644.8</ele>
        <time>2019-05-11T08:34:04Z</time>
      </trkpt>
      <trkpt lat="39.1957360" lon="-1.5504460">
        <ele>645.0</ele>
        <time>2019-05-11T08:34:05Z</time>
      </trkpt>
      <trkpt lat="39.1957070" lon="-1.5504360">
        <ele>645.2</ele>
        <time>2019-05-11T08:34:06Z</time>
      </trkpt>
      <trkpt lat="39.1956770" lon="-1.5504240">
        <ele>645.6</ele>
        <time>2019-05-11T08:34:07Z</time>
      </trkpt>
      <trkpt lat="39.1956460" lon="-1.5504070">
        <ele>645.8</ele>
        <time>2019-05-11T08:34:08Z</time>
      </trkpt>
      <trkpt lat="39.1956150" lon="-1.5503890">
        <ele>646.0</ele>
        <time>2019-05-11T08:34:09Z</time>
      </trkpt>
      <trkpt lat="39.1955850" lon="-1.5503700">
        <ele>646.0</ele>
        <time>2019-05-11T08:34:10Z</time>
      </trkpt>
      <trkpt lat="39.1955570" lon="-1.5503480">
        <ele>646.2</ele>
        <time>2019-05-11T08:34:11Z</time>
      </trkpt>
      <trkpt lat="39.1955300" lon="-1.5503310">
        <ele>646.2</ele>
        <time>2019-05-11T08:34:12Z</time>
      </trkpt>
      <trkpt lat="39.1955050" lon="-1.5503200">
        <ele>646.2</ele>
        <time>2019-05-11T08:34:13Z</time>
      </trkpt>
      <trkpt lat="39.1954810" lon="-1.5503130">
        <ele>646.4</ele>
        <time>2019-05-11T08:34:14Z</time>
      </trkpt>
      <trkpt lat="39.1954590" lon="-1.5503090">
        <ele>646.4</ele>
        <time>2019-05-11T08:34:15Z</time>
      </trkpt>
      <trkpt lat="39.1954380" lon="-1.5503080">
        <ele>646.4</ele>
        <time>2019-05-11T08:34:16Z</time>
      </trkpt>
      <trkpt lat="39.1954170" lon="-1.5503110">
        <ele>646.4</ele>
        <time>2019-05-11T08:34:17Z</time>
      </trkpt>
      <trkpt lat="39.1953950" lon="-1.5503170">
        <ele>646.4</ele>
        <time>2019-05-11T08:34:18Z</time>
      </trkpt>
      <trkpt lat="39.1953740" lon="-1.5503260">
        <ele>646.6</ele>
        <time>2019-05-11T08:34:19Z</time>
      </trkpt>
      <trkpt lat="39.1953540" lon="-1.5503380">
        <ele>646.6</ele>
        <time>2019-05-11T08:34:20Z</time>
      </trkpt>
      <trkpt lat="39.1953340" lon="-1.5503500">
        <ele>647.0</ele>
        <time>2019-05-11T08:34:21Z</time>
      </trkpt>
      <trkpt lat="39.1953150" lon="-1.5503660">
        <ele>647.2</ele>
        <time>2019-05-11T08:34:22Z</time>
      </trkpt>
      <trkpt lat="39.1952970" lon="-1.5503830">
        <ele>647.4</ele>
        <time>2019-05-11T08:34:23Z</time>
      </trkpt>
      <trkpt lat="39.1952790" lon="-1.5504000">
        <ele>647.8</ele>
        <time>2019-05-11T08:34:24Z</time>
      </trkpt>
      <trkpt lat="39.1952600" lon="-1.5504180">
        <ele>648.2</ele>
        <time>2019-05-11T08:34:25Z</time>
      </trkpt>
      <trkpt lat="39.1952400" lon="-1.5504350">
        <ele>648.4</ele>
        <time>2019-05-11T08:34:26Z</time>
      </trkpt>
      <trkpt lat="39.1952190" lon="-1.5504480">
        <ele>648.6</ele>
        <time>2019-05-11T08:34:27Z</time>
      </trkpt>
      <trkpt lat="39.1951990" lon="-1.5504550">
        <ele>648.8</ele>
        <time>2019-05-11T08:34:28Z</time>
      </trkpt>
      <trkpt lat="39.1951800" lon="-1.5504600">
        <ele>649.2</ele>
        <time>2019-05-11T08:34:29Z</time>
      </trkpt>
      <trkpt lat="39.1951600" lon="-1.5504630">
        <ele>649.6</ele>
        <time>2019-05-11T08:34:30Z</time>
      </trkpt>
      <trkpt lat="39.1951410" lon="-1.5504640">
        <ele>649.8</ele>
        <time>2019-05-11T08:34:31Z</time>
      </trkpt>
      <trkpt lat="39.1951220" lon="-1.5504660">
        <ele>650.0</ele>
        <time>2019-05-11T08:34:32Z</time>
      </trkpt>
      <trkpt lat="39.1951020" lon="-1.5504680">
        <ele>650.2</ele>
        <time>2019-05-11T08:34:33Z</time>
      </trkpt>
      <trkpt lat="39.1950820" lon="-1.5504690">
        <ele>650.4</ele>
        <time>2019-05-11T08:34:34Z</time>
      </trkpt>
      <trkpt lat="39.1950620" lon="-1.5504710">
        <ele>650.6</ele>
        <time>2019-05-11T08:34:35Z</time>
      </trkpt>
      <trkpt lat="39.1950420" lon="-1.5504720">
        <ele>651.0</ele>
        <time>2019-05-11T08:34:36Z</time>
      </trkpt>
      <trkpt lat="39.1950210" lon="-1.5504660">
        <ele>651.2</ele>
        <time>2019-05-11T08:34:37Z</time>
      </trkpt>
      <trkpt lat="39.1950000" lon="-1.5504600">
        <ele>651.4</ele>
        <time>2019-05-11T08:34:38Z</time>
      </trkpt>
      <trkpt lat="39.1949810" lon="-1.5504540">
        <ele>651.8</ele>
        <time>2019-05-11T08:34:39Z</time>
      </trkpt>
      <trkpt lat="39.1949610" lon="-1.5504480">
        <ele>652.0</ele>
        <time>2019-05-11T08:34:40Z</time>
      </trkpt>
      <trkpt lat="39.1949400" lon="-1.5504390">
        <ele>652.2</ele>
        <time>2019-05-11T08:34:41Z</time>
      </trkpt>
      <trkpt lat="39.1949180" lon="-1.5504290">
        <ele>652.6</ele>
        <time>2019-05-11T08:34:42Z</time>
      </trkpt>
      <trkpt lat="39.1948970" lon="-1.5504180">
        <ele>653.0</ele>
        <time>2019-05-11T08:34:43Z</time>
      </trkpt>
      <trkpt lat="39.1948780" lon="-1.5504020">
        <ele>653.2</ele>
        <time>2019-05-11T08:34:44Z</time>
      </trkpt>
      <trkpt lat="39.1948590" lon="-1.5503860">
        <ele>653.4</ele>
        <time>2019-05-11T08:34:45Z</time>
      </trkpt>
      <trkpt lat="39.1948410" lon="-1.5503690">
        <ele>653.6</ele>
        <time>2019-05-11T08:34:46Z</time>
      </trkpt>
      <trkpt lat="39.1948250" lon="-1.5503490">
        <ele>653.8</ele>
        <time>2019-05-11T08:34:47Z</time>
      </trkpt>
      <trkpt lat="39.1948080" lon="-1.5503280">
        <ele>654.0</ele>
        <time>2019-05-11T08:34:48Z</time>
      </trkpt>
      <trkpt lat="39.1947920" lon="-1.5503050">
        <ele>654.2</ele>
        <time>2019-05-11T08:34:49Z</time>
      </trkpt>
      <trkpt lat="39.1947760" lon="-1.5502790">
        <ele>654.4</ele>
        <time>2019-05-11T08:34:50Z</time>
      </trkpt>
      <trkpt lat="39.1947610" lon="-1.5502520">
        <ele>654.8</ele>
        <time>2019-05-11T08:34:51Z</time>
      </trkpt>
      <trkpt lat="39.1947430" lon="-1.5502300">
        <ele>655.2</ele>
        <time>2019-05-11T08:34:52Z</time>
      </trkpt>
      <trkpt lat="39.1947240" lon="-1.5502100">
        <ele>655.4</ele>
        <time>2019-05-11T08:34:53Z</time>
      </trkpt>
      <trkpt lat="39.1947050" lon="-1.5501870">
        <ele>655.6</ele>
        <time>2019-05-11T08:34:54Z</time>
      </trkpt>
      <trkpt lat="39.1946850" lon="-1.5501630">
        <ele>655.8</ele>
        <time>2019-05-11T08:34:55Z</time>
      </trkpt>
      <trkpt lat="39.1946620" lon="-1.5501390">
        <ele>656.0</ele>
        <time>2019-05-11T08:34:56Z</time>
      </trkpt>
      <trkpt lat="39.1946380" lon="-1.5501160">
        <ele>656.2</ele>
        <time>2019-05-11T08:34:57Z</time>
      </trkpt>
      <trkpt lat="39.1946120" lon="-1.5500950">
        <ele>656.4</ele>
        <time>2019-05-11T08:34:58Z</time>
      </trkpt>
      <trkpt lat="39.1945840" lon="-1.5500740">
        <ele>656.6</ele>
        <time>2019-05-11T08:34:59Z</time>
      </trkpt>
      <trkpt lat="39.1945560" lon="-1.5500540">
        <ele>656.8</ele>
        <time>2019-05-11T08:35:00Z</time>
      </trkpt>
      <trkpt lat="39.1945270" lon="-1.5500340">
        <ele>657.0</ele>
        <time>2019-05-11T08:35:01Z</time>
      </trkpt>
      <trkpt lat="39.1944980" lon="-1.5500140">
        <ele>657.0</ele>
        <time>2019-05-11T08:35:02Z</time>
      </trkpt>
      <trkpt lat="39.1944680" lon="-1.5499940">
        <ele>657.2</ele>
        <time>2019-05-11T08:35:03Z</time>
      </trkpt>
      <trkpt lat="39.1944380" lon="-1.5499720">
        <ele>657.4</ele>
        <time>2019-05-11T08:35:04Z</time>
      </trkpt>
      <trkpt lat="39.1944080" lon="-1.5499490">
        <ele>657.4</ele>
        <time>2019-05-11T08:35:05Z</time>
      </trkpt>
      <trkpt lat="39.1943800" lon="-1.5499200">
        <ele>657.6</ele>
        <time>2019-05-11T08:35:06Z</time>
      </trkpt>
      <trkpt lat="39.1943530" lon="-1.5498860">
        <ele>657.8</ele>
        <time>2019-05-11T08:35:07Z</time>
      </trkpt>
      <trkpt lat="39.1943270" lon="-1.5498510">
        <ele>658.0</ele>
        <time>2019-05-11T08:35:08Z</time>
      </trkpt>
      <trkpt lat="39.1942990" lon="-1.5498170">
        <ele>658.0</ele>
        <time>2019-05-11T08:35:09Z</time>
      </trkpt>
      <trkpt lat="39.1942690" lon="-1.5497840">
        <ele>658.2</ele>
        <time>2019-05-11T08:35:10Z</time>
      </trkpt>
      <trkpt lat="39.1942390" lon="-1.5497480">
        <ele>658.2</ele>
        <time>2019-05-11T08:35:11Z</time>
      </trkpt>
      <trkpt lat="39.1942100" lon="-1.5497090">
        <ele>658.4</ele>
        <time>2019-05-11T08:35:12Z</time>
      </trkpt>
      <trkpt lat="39.1941800" lon="-1.5496640">
        <ele>658.4</ele>
        <time>2019-05-11T08:35:13Z</time>
      </trkpt>
      <trkpt lat="39.1941500" lon="-1.5496160">
        <ele>658.4</ele>
        <time>2019-05-11T08:35:14Z</time>
      </trkpt>
      <trkpt lat="39.1941200" lon="-1.5495660">
        <ele>658.6</ele>
        <time>2019-05-11T08:35:15Z</time>
      </trkpt>
      <trkpt lat="39.1940850" lon="-1.5495170">
        <ele>658.6</ele>
        <time>2019-05-11T08:35:16Z</time>
      </trkpt>
      <trkpt lat="39.1940470" lon="-1.5494710">
        <ele>658.6</ele>
        <time>2019-05-11T08:35:17Z</time>
      </trkpt>
      <trkpt lat="39.1940060" lon="-1.5494270">
        <ele>658.6</ele>
        <time>2019-05-11T08:35:18Z</time>
      </trkpt>
      <trkpt lat="39.1939640" lon="-1.5493850">
        <ele>658.6</ele>
        <time>2019-05-11T08:35:19Z</time>
      </trkpt>
      <trkpt lat="39.1939210" lon="-1.5493470">
        <ele>658.6</ele>
        <time>2019-05-11T08:35:20Z</time>
      </trkpt>
      <trkpt lat="39.1938770" lon="-1.5493110">
        <ele>658.6</ele>
        <time>2019-05-11T08:35:21Z</time>
      </trkpt>
      <trkpt lat="39.1938340" lon="-1.5492770">
        <ele>658.6</ele>
        <time>2019-05-11T08:35:22Z</time>
      </trkpt>
      <trkpt lat="39.1937890" lon="-1.5492460">
        <ele>658.6</ele>
        <time>2019-05-11T08:35:23Z</time>
      </trkpt>
      <trkpt lat="39.1937460" lon="-1.5492150">
        <ele>658.6</ele>
        <time>2019-05-11T08:35:24Z</time>
      </trkpt>
      <trkpt lat="39.1937030" lon="-1.5491840">
        <ele>658.6</ele>
        <time>2019-05-11T08:35:25Z</time>
      </trkpt>
      <trkpt lat="39.1936610" lon="-1.5491530">
        <ele>658.6</ele>
        <time>2019-05-11T08:35:26Z</time>
      </trkpt>
      <trkpt lat="39.1936180" lon="-1.5491250">
        <ele>658.6</ele>
        <time>2019-05-11T08:35:27Z</time>
      </trkpt>
      <trkpt lat="39.1935770" lon="-1.5490970">
        <ele>658.6</ele>
        <time>2019-05-11T08:35:28Z</time>
      </trkpt>
      <trkpt lat="39.1935360" lon="-1.5490650">
        <ele>658.6</ele>
        <time>2019-05-11T08:35:29Z</time>
      </trkpt>
      <trkpt lat="39.1934970" lon="-1.5490290">
        <ele>658.6</ele>
        <time>2019-05-11T08:35:30Z</time>
      </trkpt>
      <trkpt lat="39.1934620" lon="-1.5489880">
        <ele>658.6</ele>
        <time>2019-05-11T08:35:31Z</time>
      </trkpt>
      <trkpt lat="39.1934310" lon="-1.5489430">
        <ele>658.6</ele>
        <time>2019-05-11T08:35:32Z</time>
      </trkpt>
      <trkpt lat="39.1934020" lon="-1.5488950">
        <ele>658.6</ele>
        <time>2019-05-11T08:35:33Z</time>
      </trkpt>
      <trkpt lat="39.1933740" lon="-1.5488460">
        <ele>658.6</ele>
        <time>2019-05-11T08:35:34Z</time>
      </trkpt>
      <trkpt lat="39.1933470" lon="-1.5487960">
        <ele>658.6</ele>
        <time>2019-05-11T08:35:35Z</time>
      </trkpt>
      <trkpt lat="39.1933200" lon="-1.5487490">
        <ele>658.6</ele>
        <time>2019-05-11T08:35:36Z</time>
      </trkpt>
      <trkpt lat="39.1932920" lon="-1.5487050">
        <ele>658.8</ele>
        <time>2019-05-11T08:35:37Z</time>
      </trkpt>
      <trkpt lat="39.1932660" lon="-1.5486640">
        <ele>658.8</ele>
        <time>2019-05-11T08:35:38Z</time>
      </trkpt>
      <trkpt lat="39.1932390" lon="-1.5486260">
        <ele>658.8</ele>
        <time>2019-05-11T08:35:39Z</time>
      </trkpt>
      <trkpt lat="39.1932110" lon="-1.5485910">
        <ele>658.8</ele>
        <time>2019-05-11T08:35:40Z</time>
      </trkpt>
      <trkpt lat="39.1931810" lon="-1.5485620">
        <ele>659.0</ele>
        <time>2019-05-11T08:35:41Z</time>
      </trkpt>
      <trkpt lat="39.1931490" lon="-1.5485340">
        <ele>659.0</ele>
        <time>2019-05-11T08:35:42Z</time>
      </trkpt>
      <trkpt lat="39.1931170" lon="-1.5485070">
        <ele>659.0</ele>
        <time>2019-05-11T08:35:43Z</time>
      </trkpt>
      <trkpt lat="39.1930850" lon="-1.5484820">
        <ele>659.2</ele>
        <time>2019-05-11T08:35:44Z</time>
      </trkpt>
      <trkpt lat="39.1930540" lon="-1.5484540">
        <ele>659.2</ele>
        <time>2019-05-11T08:35:45Z</time>
      </trkpt>
      <trkpt lat="39.1930230" lon="-1.5484250">
        <ele>659.4</ele>
        <time>2019-05-11T08:35:46Z</time>
      </trkpt>
      <trkpt lat="39.1929910" lon="-1.5483950">
        <ele>659.8</ele>
        <time>2019-05-11T08:35:47Z</time>
      </trkpt>
      <trkpt lat="39.1929590" lon="-1.5483660">
        <ele>660.2</ele>
        <time>2019-05-11T08:35:48Z</time>
      </trkpt>
      <trkpt lat="39.1929280" lon="-1.5483350">
        <ele>660.4</ele>
        <time>2019-05-11T08:35:49Z</time>
      </trkpt>
      <trkpt lat="39.1928990" lon="-1.5483020">
        <ele>660.8</ele>
        <time>2019-05-11T08:35:50Z</time>
      </trkpt>
      <trkpt lat="39.1928720" lon="-1.5482690">
        <ele>661.0</ele>
        <time>2019-05-11T08:35:51Z</time>
      </trkpt>
      <trkpt lat="39.1928440" lon="-1.5482360">
        <ele>661.6</ele>
        <time>2019-05-11T08:35:52Z</time>
      </trkpt>
      <trkpt lat="39.1928180" lon="-1.5482030">
        <ele>661.8</ele>
        <time>2019-05-11T08:35:53Z</time>
      </trkpt>
      <trkpt lat="39.1927880" lon="-1.5481700">
        <ele>662.0</ele>
        <time>2019-05-11T08:35:54Z</time>
      </trkpt>
      <trkpt lat="39.1927550" lon="-1.5481380">
        <ele>662.2</ele>
        <time>2019-05-11T08:35:55Z</time>
      </trkpt>
      <trkpt lat="39.1927200" lon="-1.5481060">
        <ele>662.4</ele>
        <time>2019-05-11T08:35:56Z</time>
      </trkpt>
      <trkpt lat="39.1926840" lon="-1.5480760">
        <ele>662.8</ele>
        <time>2019-05-11T08:35:57Z</time>
      </trkpt>
      <trkpt lat="39.1926450" lon="-1.5480490">
        <ele>663.0</ele>
        <time>2019-05-11T08:35:58Z</time>
      </trkpt>
      <trkpt lat="39.1926040" lon="-1.5480250">
        <ele>663.2</ele>
        <time>2019-05-11T08:35:59Z</time>
      </trkpt>
      <trkpt lat="39.1925640" lon="-1.5480040">
        <ele>663.4</ele>
        <time>2019-05-11T08:36:00Z</time>
      </trkpt>
      <trkpt lat="39.1925230" lon="-1.5479840">
        <ele>663.6</ele>
        <time>2019-05-11T08:36:01Z</time>
      </trkpt>
      <trkpt lat="39.1924820" lon="-1.5479630">
        <ele>664.0</ele>
        <time>2019-05-11T08:36:02Z</time>
      </trkpt>
      <trkpt lat="39.1924410" lon="-1.5479380">
        <ele>664.2</ele>
        <time>2019-05-11T08:36:03Z</time>
      </trkpt>
      <trkpt lat="39.1924000" lon="-1.5479090">
        <ele>664.4</ele>
        <time>2019-05-11T08:36:04Z</time>
      </trkpt>
      <trkpt lat="39.1923600" lon="-1.5478770">
        <ele>664.6</ele>
        <time>2019-05-11T08:36:05Z</time>
      </trkpt>
      <trkpt lat="39.1923210" lon="-1.5478420">
        <ele>664.8</ele>
        <time>2019-05-11T08:36:06Z</time>
      </trkpt>
      <trkpt lat="39.1922810" lon="-1.5478070">
        <ele>665.2</ele>
        <time>2019-05-11T08:36:07Z</time>
      </trkpt>
      <trkpt lat="39.1922400" lon="-1.5477730">
        <ele>665.2</ele>
        <time>2019-05-11T08:36:08Z</time>
      </trkpt>
      <trkpt lat="39.1921990" lon="-1.5477390">
        <ele>665.4</ele>
        <time>2019-05-11T08:36:09Z</time>
      </trkpt>
      <trkpt lat="39.1921570" lon="-1.5477050">
        <ele>665.4</ele>
        <time>2019-05-11T08:36:10Z</time>
      </trkpt>
      <trkpt lat="39.1921160" lon="-1.5476700">
        <ele>665.4</ele>
        <time>2019-05-11T08:36:11Z</time>
      </trkpt>
      <trkpt lat="39.1920730" lon="-1.5476360">
        <ele>665.6</ele>
        <time>2019-05-11T08:36:12Z</time>
      </trkpt>
      <trkpt lat="39.1920310" lon="-1.5476000">
        <ele>665.6</ele>
        <time>2019-05-11T08:36:13Z</time>
      </trkpt>
      <trkpt lat="39.1919880" lon="-1.5475640">
        <ele>665.8</ele>
        <time>2019-05-11T08:36:14Z</time>
      </trkpt>
      <trkpt lat="39.1919440" lon="-1.5475250">
        <ele>665.8</ele>
        <time>2019-05-11T08:36:15Z</time>
      </trkpt>
      <trkpt lat="39.1919000" lon="-1.5474850">
        <ele>666.0</ele>
        <time>2019-05-11T08:36:16Z</time>
      </trkpt>
      <trkpt lat="39.1918560" lon="-1.5474430">
        <ele>666.0</ele>
        <time>2019-05-11T08:36:17Z</time>
      </trkpt>
      <trkpt lat="39.1918110" lon="-1.5473990">
        <ele>666.0</ele>
        <time>2019-05-11T08:36:18Z</time>
      </trkpt>
      <trkpt lat="39.1917660" lon="-1.5473550">
        <ele>666.2</ele>
        <time>2019-05-11T08:36:19Z</time>
      </trkpt>
      <trkpt lat="39.1917210" lon="-1.5473120">
        <ele>666.2</ele>
        <time>2019-05-11T08:36:20Z</time>
      </trkpt>
      <trkpt lat="39.1916750" lon="-1.5472670">
        <ele>666.4</ele>
        <time>2019-05-11T08:36:21Z</time>
      </trkpt>
      <trkpt lat="39.1916290" lon="-1.5472220">
        <ele>666.4</ele>
        <time>2019-05-11T08:36:22Z</time>
      </trkpt>
      <trkpt lat="39.1915820" lon="-1.5471780">
        <ele>666.4</ele>
        <time>2019-05-11T08:36:23Z</time>
      </trkpt>
      <trkpt lat="39.1915330" lon="-1.5471360">
        <ele>666.6</ele>
        <time>2019-05-11T08:36:24Z</time>
      </trkpt>
      <trkpt lat="39.1914820" lon="-1.5471000">
        <ele>666.6</ele>
        <time>2019-05-11T08:36:25Z</time>
      </trkpt>
      <trkpt lat="39.1914320" lon="-1.5470650">
        <ele>666.8</ele>
        <time>2019-05-11T08:36:26Z</time>
      </trkpt>
      <trkpt lat="39.1913870" lon="-1.5470270">
        <ele>666.8</ele>
        <time>2019-05-11T08:36:27Z</time>
      </trkpt>
      <trkpt lat="39.1913430" lon="-1.5469840">
        <ele>667.0</ele>
        <time>2019-05-11T08:36:28Z</time>
      </trkpt>
      <trkpt lat="39.1912990" lon="-1.5469360">
        <ele>667.0</ele>
        <time>2019-05-11T08:36:29Z</time>
      </trkpt>
      <trkpt lat="39.1912520" lon="-1.5468880">
        <ele>667.0</ele>
        <time>2019-05-11T08:36:30Z</time>
      </trkpt>
      <trkpt lat="39.1912010" lon="-1.5468410">
        <ele>667.0</ele>
        <time>2019-05-11T08:36:31Z</time>
      </trkpt>
      <trkpt lat="39.1911460" lon="-1.5467980">
        <ele>667.2</ele>
        <time>2019-05-11T08:36:32Z</time>
      </trkpt>
      <trkpt lat="39.1910840" lon="-1.5467630">
        <ele>667.2</ele>
        <time>2019-05-11T08:36:33Z</time>
      </trkpt>
      <trkpt lat="39.1910190" lon="-1.5467350">
        <ele>667.2</ele>
        <time>2019-05-11T08:36:34Z</time>
      </trkpt>
      <trkpt lat="39.1909530" lon="-1.5467100">
        <ele>667.2</ele>
        <time>2019-05-11T08:36:35Z</time>
      </trkpt>
      <trkpt lat="39.1908890" lon="-1.5466820">
        <ele>667.2</ele>
        <time>2019-05-11T08:36:36Z</time>
      </trkpt>
      <trkpt lat="39.1908240" lon="-1.5466530">
        <ele>667.2</ele>
        <time>2019-05-11T08:36:37Z</time>
      </trkpt>
      <trkpt lat="39.1907570" lon="-1.5466230">
        <ele>667.2</ele>
        <time>2019-05-11T08:36:38Z</time>
      </trkpt>
      <trkpt lat="39.1906900" lon="-1.5465930">
        <ele>667.2</ele>
        <time>2019-05-11T08:36:39Z</time>
      </trkpt>
      <trkpt lat="39.1906220" lon="-1.5465630">
        <ele>667.2</ele>
        <time>2019-05-11T08:36:40Z</time>
      </trkpt>
      <trkpt lat="39.1905540" lon="-1.5465320">
        <ele>667.2</ele>
        <time>2019-05-11T08:36:41Z</time>
      </trkpt>
      <trkpt lat="39.1904850" lon="-1.5465030">
        <ele>667.2</ele>
        <time>2019-05-11T08:36:42Z</time>
      </trkpt>
      <trkpt lat="39.1904150" lon="-1.5464730">
        <ele>667.0</ele>
        <time>2019-05-11T08:36:43Z</time>
      </trkpt>
      <trkpt lat="39.1903450" lon="-1.5464410">
        <ele>666.6</ele>
        <time>2019-05-11T08:36:44Z</time>
      </trkpt>
      <trkpt lat="39.1902730" lon="-1.5464070">
        <ele>666.6</ele>
        <time>2019-05-11T08:36:45Z</time>
      </trkpt>
      <trkpt lat="39.1901990" lon="-1.5463720">
        <ele>666.2</ele>
        <time>2019-05-11T08:36:46Z</time>
      </trkpt>
      <trkpt lat="39.1901220" lon="-1.5463370">
        <ele>666.0</ele>
        <time>2019-05-11T08:36:47Z</time>
      </trkpt>
      <trkpt lat="39.1900430" lon="-1.5463000">
        <ele>665.6</ele>
        <time>2019-05-11T08:36:48Z</time>
      </trkpt>
      <trkpt lat="39.1899640" lon="-1.5462590">
        <ele>665.2</ele>
        <time>2019-05-11T08:36:49Z</time>
      </trkpt>
      <trkpt lat="39.1898850" lon="-1.5462150">
        <ele>665.0</ele>
        <time>2019-05-11T08:36:50Z</time>
      </trkpt>
      <trkpt lat="39.1898060" lon="-1.5461670">
        <ele>664.8</ele>
        <time>2019-05-11T08:36:51Z</time>
      </trkpt>
      <trkpt lat="39.1897290" lon="-1.5461140">
        <ele>664.6</ele>
        <time>2019-05-11T08:36:52Z</time>
      </trkpt>
      <trkpt lat="39.1896510" lon="-1.5460600">
        <ele>664.4</ele>
        <time>2019-05-11T08:36:53Z</time>
      </trkpt>
      <trkpt lat="39.1895750" lon="-1.5460050">
        <ele>664.0</ele>
        <time>2019-05-11T08:36:54Z</time>
      </trkpt>
      <trkpt lat="39.1894980" lon="-1.5459480">
        <ele>664.0</ele>
        <time>2019-05-11T08:36:55Z</time>
      </trkpt>
      <trkpt lat="39.1894220" lon="-1.5458920">
        <ele>663.8</ele>
        <time>2019-05-11T08:36:56Z</time>
      </trkpt>
      <trkpt lat="39.1893460" lon="-1.5458330">
        <ele>663.6</ele>
        <time>2019-05-11T08:36:57Z</time>
      </trkpt>
      <trkpt lat="39.1892700" lon="-1.5457770">
        <ele>663.4</ele>
        <time>2019-05-11T08:36:58Z</time>
      </trkpt>
      <trkpt lat="39.1891940" lon="-1.5457230">
        <ele>663.4</ele>
        <time>2019-05-11T08:36:59Z</time>
      </trkpt>
      <trkpt lat="39.1891190" lon="-1.5456670">
        <ele>663.2</ele>
        <time>2019-05-11T08:37:00Z</time>
      </trkpt>
      <trkpt lat="39.1890460" lon="-1.5456110">
        <ele>662.8</ele>
        <time>2019-05-11T08:37:01Z</time>
      </trkpt>
      <trkpt lat="39.1889760" lon="-1.5455510">
        <ele>662.4</ele>
        <time>2019-05-11T08:37:02Z</time>
      </trkpt>
      <trkpt lat="39.1889140" lon="-1.5454830">
        <ele>662.0</ele>
        <time>2019-05-11T08:37:03Z</time>
      </trkpt>
      <trkpt lat="39.1888620" lon="-1.5454050">
        <ele>661.6</ele>
        <time>2019-05-11T08:37:04Z</time>
      </trkpt>
      <trkpt lat="39.1888230" lon="-1.5453150">
        <ele>661.2</ele>
        <time>2019-05-11T08:37:05Z</time>
      </trkpt>
      <trkpt lat="39.1887960" lon="-1.5452160">
        <ele>661.0</ele>
        <time>2019-05-11T08:37:06Z</time>
      </trkpt>
      <trkpt lat="39.1887810" lon="-1.5451120">
        <ele>660.8</ele>
        <time>2019-05-11T08:37:07Z</time>
      </trkpt>
      <trkpt lat="39.1887750" lon="-1.5450050">
        <ele>660.4</ele>
        <time>2019-05-11T08:37:08Z</time>
      </trkpt>
      <trkpt lat="39.1887750" lon="-1.5449000">
        <ele>660.2</ele>
        <time>2019-05-11T08:37:09Z</time>
      </trkpt>
      <trkpt lat="39.1887820" lon="-1.5447980">
        <ele>660.0</ele>
        <time>2019-05-11T08:37:10Z</time>
      </trkpt>
      <trkpt lat="39.1887950" lon="-1.5447000">
        <ele>659.8</ele>
        <time>2019-05-11T08:37:11Z</time>
      </trkpt>
      <trkpt lat="39.1888180" lon="-1.5446050">
        <ele>659.6</ele>
        <time>2019-05-11T08:37:12Z</time>
      </trkpt>
      <trkpt lat="39.1888500" lon="-1.5445110">
        <ele>659.4</ele>
        <time>2019-05-11T08:37:13Z</time>
      </trkpt>
      <trkpt lat="39.1888840" lon="-1.5444160">
        <ele>659.4</ele>
        <time>2019-05-11T08:37:14Z</time>
      </trkpt>
      <trkpt lat="39.1889140" lon="-1.5443240">
        <ele>659.2</ele>
        <time>2019-05-11T08:37:15Z</time>
      </trkpt>
      <trkpt lat="39.1889380" lon="-1.5442310">
        <ele>659.2</ele>
        <time>2019-05-11T08:37:16Z</time>
      </trkpt>
      <trkpt lat="39.1889490" lon="-1.5441340">
        <ele>659.0</ele>
        <time>2019-05-11T08:37:17Z</time>
      </trkpt>
      <trkpt lat="39.1889490" lon="-1.5440300">
        <ele>659.0</ele>
        <time>2019-05-11T08:37:18Z</time>
      </trkpt>
      <trkpt lat="39.1889410" lon="-1.5439210">
        <ele>658.8</ele>
        <time>2019-05-11T08:37:19Z</time>
      </trkpt>
      <trkpt lat="39.1889290" lon="-1.5438100">
        <ele>658.8</ele>
        <time>2019-05-11T08:37:20Z</time>
      </trkpt>
      <trkpt lat="39.1889180" lon="-1.5436980">
        <ele>658.6</ele>
        <time>2019-05-11T08:37:21Z</time>
      </trkpt>
      <trkpt lat="39.1889070" lon="-1.5435860">
        <ele>658.4</ele>
        <time>2019-05-11T08:37:22Z</time>
      </trkpt>
      <trkpt lat="39.1888940" lon="-1.5434750">
        <ele>658.2</ele>
        <time>2019-05-11T08:37:23Z</time>
      </trkpt>
      <trkpt lat="39.1888870" lon="-1.5433660">
        <ele>657.8</ele>
        <time>2019-05-11T08:37:24Z</time>
      </trkpt>
      <trkpt lat="39.1888770" lon="-1.5432610">
        <ele>657.0</ele>
        <time>2019-05-11T08:37:25Z</time>
      </trkpt>
      <trkpt lat="39.1888510" lon="-1.5431640">
        <ele>656.4</ele>
        <time>2019-05-11T08:37:26Z</time>
      </trkpt>
      <trkpt lat="39.1888060" lon="-1.5430800">
        <ele>655.8</ele>
        <time>2019-05-11T08:37:27Z</time>
      </trkpt>
      <trkpt lat="39.1887460" lon="-1.5430140">
        <ele>655.2</ele>
        <time>2019-05-11T08:37:28Z</time>
      </trkpt>
      <trkpt lat="39.1886760" lon="-1.5429690">
        <ele>654.6</ele>
        <time>2019-05-11T08:37:29Z</time>
      </trkpt>
      <trkpt lat="39.1886030" lon="-1.5429550">
        <ele>654.2</ele>
        <time>2019-05-11T08:37:30Z</time>
      </trkpt>
      <trkpt lat="39.1885300" lon="-1.5429700">
        <ele>653.8</ele>
        <time>2019-05-11T08:37:31Z</time>
      </trkpt>
      <trkpt lat="39.1884570" lon="-1.5430000">
        <ele>653.2</ele>
        <time>2019-05-11T08:37:32Z</time>
      </trkpt>
      <trkpt lat="39.1883870" lon="-1.5430390">
        <ele>652.8</ele>
        <time>2019-05-11T08:37:33Z</time>
      </trkpt>
      <trkpt lat="39.1883150" lon="-1.5430690">
        <ele>652.4</ele>
        <time>2019-05-11T08:37:34Z</time>
      </trkpt>
      <trkpt lat="39.1882420" lon="-1.5430680">
        <ele>651.0</ele>
        <time>2019-05-11T08:37:35Z</time>
      </trkpt>
      <trkpt lat="39.1881800" lon="-1.5430340">
        <ele>650.4</ele>
        <time>2019-05-11T08:37:36Z</time>
      </trkpt>
      <trkpt lat="39.1881230" lon="-1.5430010">
        <ele>649.8</ele>
        <time>2019-05-11T08:37:37Z</time>
      </trkpt>
      <trkpt lat="39.1880590" lon="-1.5429880">
        <ele>649.0</ele>
        <time>2019-05-11T08:37:38Z</time>
      </trkpt>
      <trkpt lat="39.1879900" lon="-1.5429910">
        <ele>648.4</ele>
        <time>2019-05-11T08:37:39Z</time>
      </trkpt>
      <trkpt lat="39.1879190" lon="-1.5429920">
        <ele>648.2</ele>
        <time>2019-05-11T08:37:40Z</time>
      </trkpt>
      <trkpt lat="39.1878480" lon="-1.5429750">
        <ele>648.0</ele>
        <time>2019-05-11T08:37:41Z</time>
      </trkpt>
      <trkpt lat="39.1877780" lon="-1.5429510">
        <ele>647.8</ele>
        <time>2019-05-11T08:37:42Z</time>
      </trkpt>
      <trkpt lat="39.1877040" lon="-1.5429320">
        <ele>647.6</ele>
        <time>2019-05-11T08:37:43Z</time>
      </trkpt>
      <trkpt lat="39.1876280" lon="-1.5429190">
        <ele>647.4</ele>
        <time>2019-05-11T08:37:44Z</time>
      </trkpt>
      <trkpt lat="39.1875500" lon="-1.5429160">
        <ele>647.2</ele>
        <time>2019-05-11T08:37:45Z</time>
      </trkpt>
      <trkpt lat="39.1874720" lon="-1.5429220">
        <ele>647.2</ele>
        <time>2019-05-11T08:37:46Z</time>
      </trkpt>
      <trkpt lat="39.1873930" lon="-1.5429360">
        <ele>646.6</ele>
        <time>2019-05-11T08:37:47Z</time>
      </trkpt>
      <trkpt lat="39.1873160" lon="-1.5429530">
        <ele>646.4</ele>
        <time>2019-05-11T08:37:48Z</time>
      </trkpt>
      <trkpt lat="39.1872390" lon="-1.5429630">
        <ele>646.2</ele>
        <time>2019-05-11T08:37:49Z</time>
      </trkpt>
      <trkpt lat="39.1871640" lon="-1.5429540">
        <ele>646.2</ele>
        <time>2019-05-11T08:37:50Z</time>
      </trkpt>
      <trkpt lat="39.1870950" lon="-1.5429280">
        <ele>646.0</ele>
        <time>2019-05-11T08:37:51Z</time>
      </trkpt>
      <trkpt lat="39.1870300" lon="-1.5428910">
        <ele>646.0</ele>
        <time>2019-05-11T08:37:52Z</time>
      </trkpt>
      <trkpt lat="39.1869700" lon="-1.5428430">
        <ele>645.8</ele>
        <time>2019-05-11T08:37:53Z</time>
      </trkpt>
      <trkpt lat="39.1869130" lon="-1.5427900">
        <ele>645.8</ele>
        <time>2019-05-11T08:37:54Z</time>
      </trkpt>
      <trkpt lat="39.1868600" lon="-1.5427330">
        <ele>645.8</ele>
        <time>2019-05-11T08:37:55Z</time>
      </trkpt>
      <trkpt lat="39.1868130" lon="-1.5426720">
        <ele>645.8</ele>
        <time>2019-05-11T08:37:56Z</time>
      </trkpt>
      <trkpt lat="39.1867750" lon="-1.5426070">
        <ele>645.8</ele>
        <time>2019-05-11T08:37:57Z</time>
      </trkpt>
      <trkpt lat="39.1867420" lon="-1.5425360">
        <ele>645.8</ele>
        <time>2019-05-11T08:37:58Z</time>
      </trkpt>
      <trkpt lat="39.1867100" lon="-1.5424620">
        <ele>645.8</ele>
        <time>2019-05-11T08:37:59Z</time>
      </trkpt>
      <trkpt lat="39.1866780" lon="-1.5423880">
        <ele>645.8</ele>
        <time>2019-05-11T08:38:00Z</time>
      </trkpt>
      <trkpt lat="39.1866460" lon="-1.5423190">
        <ele>645.8</ele>
        <time>2019-05-11T08:38:01Z</time>
      </trkpt>
      <trkpt lat="39.1866200" lon="-1.5422610">
        <ele>645.8</ele>
        <time>2019-05-11T08:38:02Z</time>
      </trkpt>
      <trkpt lat="39.1866030" lon="-1.5422280">
        <ele>645.8</ele>
        <time>2019-05-11T08:38:03Z</time>
      </trkpt>
      <trkpt lat="39.1865870" lon="-1.5422190">
        <ele>645.8</ele>
        <time>2019-05-11T08:38:04Z</time>
      </trkpt>
      <trkpt lat="39.1865740" lon="-1.5422300">
        <ele>645.8</ele>
        <time>2019-05-11T08:38:05Z</time>
      </trkpt>
      <trkpt lat="39.1865690" lon="-1.5422500">
        <ele>645.8</ele>
        <time>2019-05-11T08:38:06Z</time>
      </trkpt>
      <trkpt lat="39.1865640" lon="-1.5422770">
        <ele>645.8</ele>
        <time>2019-05-11T08:38:07Z</time>
      </trkpt>
      <trkpt lat="39.1865590" lon="-1.5423030">
        <ele>645.8</ele>
        <time>2019-05-11T08:38:08Z</time>
      </trkpt>
      <trkpt lat="39.1865510" lon="-1.5423270">
        <ele>645.8</ele>
        <time>2019-05-11T08:38:09Z</time>
      </trkpt>
      <trkpt lat="39.1865360" lon="-1.5423480">
        <ele>645.8</ele>
        <time>2019-05-11T08:38:10Z</time>
      </trkpt>
      <trkpt lat="39.1865140" lon="-1.5423690">
        <ele>645.8</ele>
        <time>2019-05-11T08:38:11Z</time>
      </trkpt>
      <trkpt lat="39.1864890" lon="-1.5423920">
        <ele>645.8</ele>
        <time>2019-05-11T08:38:12Z</time>
      </trkpt>
      <trkpt lat="39.1864590" lon="-1.5424180">
        <ele>646.0</ele>
        <time>2019-05-11T08:38:13Z</time>
      </trkpt>
      <trkpt lat="39.1864260" lon="-1.5424440">
        <ele>646.0</ele>
        <time>2019-05-11T08:38:14Z</time>
      </trkpt>
      <trkpt lat="39.1863920" lon="-1.5424710">
        <ele>646.0</ele>
        <time>2019-05-11T08:38:15Z</time>
      </trkpt>
      <trkpt lat="39.1863550" lon="-1.5425060">
        <ele>646.0</ele>
        <time>2019-05-11T08:38:16Z</time>
      </trkpt>
      <trkpt lat="39.1863200" lon="-1.5425470">
        <ele>646.0</ele>
        <time>2019-05-11T08:38:17Z</time>
      </trkpt>
      <trkpt lat="39.1862850" lon="-1.5425910">
        <ele>646.0</ele>
        <time>2019-05-11T08:38:18Z</time>
      </trkpt>
      <trkpt lat="39.1862470" lon="-1.5426280">
        <ele>646.0</ele>
        <time>2019-05-11T08:38:19Z</time>
      </trkpt>
      <trkpt lat="39.1862080" lon="-1.5426540">
        <ele>646.0</ele>
        <time>2019-05-11T08:38:20Z</time>
      </trkpt>
      <trkpt lat="39.1861670" lon="-1.5426750">
        <ele>646.0</ele>
        <time>2019-05-11T08:38:21Z</time>
      </trkpt>
      <trkpt lat="39.1861230" lon="-1.5426940">
        <ele>646.2</ele>
        <time>2019-05-11T08:38:22Z</time>
      </trkpt>
      <trkpt lat="39.1860850" lon="-1.5427080">
        <ele>646.2</ele>
        <time>2019-05-11T08:38:23Z</time>
      </trkpt>
      <trkpt lat="39.1860520" lon="-1.5427160">
        <ele>646.2</ele>
        <time>2019-05-11T08:38:24Z</time>
      </trkpt>
      <trkpt lat="39.1860220" lon="-1.5427210">
        <ele>646.2</ele>
        <time>2019-05-11T08:38:25Z</time>
      </trkpt>
      <trkpt lat="39.1859930" lon="-1.5427260">
        <ele>646.4</ele>
        <time>2019-05-11T08:38:26Z</time>
      </trkpt>
      <trkpt lat="39.1859650" lon="-1.5427320">
        <ele>646.6</ele>
        <time>2019-05-11T08:38:27Z</time>
      </trkpt>
      <trkpt lat="39.1859390" lon="-1.5427370">
        <ele>646.8</ele>
        <time>2019-05-11T08:38:28Z</time>
      </trkpt>
      <trkpt lat="39.1859130" lon="-1.5427420">
        <ele>646.8</ele>
        <time>2019-05-11T08:38:29Z</time>
      </trkpt>
      <trkpt lat="39.1858880" lon="-1.5427480">
        <ele>647.0</ele>
        <time>2019-05-11T08:38:30Z</time>
      </trkpt>
      <trkpt lat="39.1858620" lon="-1.5427540">
        <ele>647.0</ele>
        <time>2019-05-11T08:38:31Z</time>
      </trkpt>
      <trkpt lat="39.1858350" lon="-1.5427590">
        <ele>647.0</ele>
        <time>2019-05-11T08:38:32Z</time>
      </trkpt>
      <trkpt lat="39.1858080" lon="-1.5427610">
        <ele>647.0</ele>
        <time>2019-05-11T08:38:33Z</time>
      </trkpt>
      <trkpt lat="39.1857810" lon="-1.5427620">
        <ele>647.2</ele>
        <time>2019-05-11T08:38:34Z</time>
      </trkpt>
      <trkpt lat="39.1857550" lon="-1.5427620">
        <ele>647.4</ele>
        <time>2019-05-11T08:38:35Z</time>
      </trkpt>
      <trkpt lat="39.1857290" lon="-1.5427610">
        <ele>647.6</ele>
        <time>2019-05-11T08:38:36Z</time>
      </trkpt>
      <trkpt lat="39.1857010" lon="-1.5427590">
        <ele>648.0</ele>
        <time>2019-05-11T08:38:37Z</time>
      </trkpt>
      <trkpt lat="39.1856720" lon="-1.5427570">
        <ele>648.2</ele>
        <time>2019-05-11T08:38:38Z</time>
      </trkpt>
      <trkpt lat="39.1856430" lon="-1.5427540">
        <ele>648.6</ele>
        <time>2019-05-11T08:38:39Z</time>
      </trkpt>
      <trkpt lat="39.1856140" lon="-1.5427520">
        <ele>649.0</ele>
        <time>2019-05-11T08:38:40Z</time>
      </trkpt>
      <trkpt lat="39.1855860" lon="-1.5427510">
        <ele>649.4</ele>
        <time>2019-05-11T08:38:41Z</time>
      </trkpt>
      <trkpt lat="39.1855590" lon="-1.5427530">
        <ele>649.6</ele>
        <time>2019-05-11T08:38:42Z</time>
      </trkpt>
      <trkpt lat="39.1855310" lon="-1.5427540">
        <ele>649.6</ele>
        <time>2019-05-11T08:38:43Z</time>
      </trkpt>
      <trkpt lat="39.1855030" lon="-1.5427550">
        <ele>650.4</ele>
        <time>2019-05-11T08:38:44Z</time>
      </trkpt>
      <trkpt lat="39.1854730" lon="-1.5427560">
        <ele>650.6</ele>
        <time>2019-05-11T08:38:45Z</time>
      </trkpt>
      <trkpt lat="39.1854420" lon="-1.5427600">
        <ele>651.0</ele>
        <time>2019-05-11T08:38:46Z</time>
      </trkpt>
      <trkpt lat="39.1854100" lon="-1.5427640">
        <ele>651.4</ele>
        <time>2019-05-11T08:38:47Z</time>
      </trkpt>
      <trkpt lat="39.1853760" lon="-1.5427660">
        <ele>651.8</ele>
        <time>2019-05-11T08:38:48Z</time>
      </trkpt>
      <trkpt lat="39.1853410" lon="-1.5427650">
        <ele>652.0</ele>
        <time>2019-05-11T08:38:49Z</time>
      </trkpt>
      <trkpt lat="39.1853050" lon="-1.5427600">
        <ele>652.2</ele>
        <time>2019-05-11T08:38:50Z</time>
      </trkpt>
      <trkpt lat="39.1852670" lon="-1.5427560">
        <ele>652.4</ele>
        <time>2019-05-11T08:38:51Z</time>
      </trkpt>
      <trkpt lat="39.1852290" lon="-1.5427500">
        <ele>652.6</ele>
        <time>2019-05-11T08:38:52Z</time>
      </trkpt>
      <trkpt lat="39.1851900" lon="-1.5427440">
        <ele>652.8</ele>
        <time>2019-05-11T08:38:53Z</time>
      </trkpt>
      <trkpt lat="39.1851500" lon="-1.5427370">
        <ele>652.8</ele>
        <time>2019-05-11T08:38:54Z</time>
      </trkpt>
      <trkpt lat="39.1851110" lon="-1.5427300">
        <ele>653.0</ele>
        <time>2019-05-11T08:38:55Z</time>
      </trkpt>
      <trkpt lat="39.1850710" lon="-1.5427210">
        <ele>653.0</ele>
        <time>2019-05-11T08:38:56Z</time>
      </trkpt>
      <trkpt lat="39.1850290" lon="-1.5427070">
        <ele>653.0</ele>
        <time>2019-05-11T08:38:57Z</time>
      </trkpt>
      <trkpt lat="39.1849880" lon="-1.5426910">
        <ele>653.2</ele>
        <time>2019-05-11T08:38:58Z</time>
      </trkpt>
      <trkpt lat="39.1849470" lon="-1.5426730">
        <ele>653.2</ele>
        <time>2019-05-11T08:38:59Z</time>
      </trkpt>
      <trkpt lat="39.1849050" lon="-1.5426550">
        <ele>653.2</ele>
        <time>2019-05-11T08:39:00Z</time>
      </trkpt>
      <trkpt lat="39.1848620" lon="-1.5426410">
        <ele>653.4</ele>
        <time>2019-05-11T08:39:01Z</time>
      </trkpt>
      <trkpt lat="39.1848190" lon="-1.5426340">
        <ele>653.4</ele>
        <time>2019-05-11T08:39:02Z</time>
      </trkpt>
      <trkpt lat="39.1847760" lon="-1.5426330">
        <ele>653.4</ele>
        <time>2019-05-11T08:39:03Z</time>
      </trkpt>
      <trkpt lat="39.1847340" lon="-1.5426380">
        <ele>653.4</ele>
        <time>2019-05-11T08:39:04Z</time>
      </trkpt>
      <trkpt lat="39.1846930" lon="-1.5426530">
        <ele>653.4</ele>
        <time>2019-05-11T08:39:05Z</time>
      </trkpt>
      <trkpt lat="39.1846570" lon="-1.5426750">
        <ele>653.4</ele>
        <time>2019-05-11T08:39:06Z</time>
      </trkpt>
      <trkpt lat="39.1846210" lon="-1.5427000">
        <ele>653.4</ele>
        <time>2019-05-11T08:39:07Z</time>
      </trkpt>
      <trkpt lat="39.1845870" lon="-1.5427240">
        <ele>653.4</ele>
        <time>2019-05-11T08:39:08Z</time>
      </trkpt>
      <trkpt lat="39.1845520" lon="-1.5427470">
        <ele>653.6</ele>
        <time>2019-05-11T08:39:09Z</time>
      </trkpt>
      <trkpt lat="39.1845180" lon="-1.5427750">
        <ele>653.6</ele>
        <time>2019-05-11T08:39:10Z</time>
      </trkpt>
      <trkpt lat="39.1844880" lon="-1.5428060">
        <ele>653.6</ele>
        <time>2019-05-11T08:39:11Z</time>
      </trkpt>
      <trkpt lat="39.1844620" lon="-1.5428360">
        <ele>653.8</ele>
        <time>2019-05-11T08:39:12Z</time>
      </trkpt>
      <trkpt lat="39.1844370" lon="-1.5428670">
        <ele>654.0</ele>
        <time>2019-05-11T08:39:13Z</time>
      </trkpt>
      <trkpt lat="39.1844140" lon="-1.5428990">
        <ele>654.0</ele>
        <time>2019-05-11T08:39:14Z</time>
      </trkpt>
      <trkpt lat="39.1843900" lon="-1.5429310">
        <ele>654.2</ele>
        <time>2019-05-11T08:39:15Z</time>
      </trkpt>
      <trkpt lat="39.1843650" lon="-1.5429630">
        <ele>654.6</ele>
        <time>2019-05-11T08:39:16Z</time>
      </trkpt>
      <trkpt lat="39.1843400" lon="-1.5429940">
        <ele>654.8</ele>
        <time>2019-05-11T08:39:17Z</time>
      </trkpt>
      <trkpt lat="39.1843130" lon="-1.5430220">
        <ele>655.0</ele>
        <time>2019-05-11T08:39:18Z</time>
      </trkpt>
      <trkpt lat="39.1842850" lon="-1.5430510">
        <ele>655.2</ele>
        <time>2019-05-11T08:39:19Z</time>
      </trkpt>
      <trkpt lat="39.1842580" lon="-1.5430830">
        <ele>655.6</ele>
        <time>2019-05-11T08:39:20Z</time>
      </trkpt>
      <trkpt lat="39.1842270" lon="-1.5431150">
        <ele>655.8</ele>
        <time>2019-05-11T08:39:21Z</time>
      </trkpt>
      <trkpt lat="39.1841910" lon="-1.5431410">
        <ele>656.0</ele>
        <time>2019-05-11T08:39:22Z</time>
      </trkpt>
      <trkpt lat="39.1841500" lon="-1.5431520">
        <ele>656.2</ele>
        <time>2019-05-11T08:39:23Z</time>
      </trkpt>
      <trkpt lat="39.1841080" lon="-1.5431480">
        <ele>656.4</ele>
        <time>2019-05-11T08:39:24Z</time>
      </trkpt>
      <trkpt lat="39.1840660" lon="-1.5431370">
        <ele>656.4</ele>
        <time>2019-05-11T08:39:25Z</time>
      </trkpt>
      <trkpt lat="39.1840260" lon="-1.5431250">
        <ele>656.6</ele>
        <time>2019-05-11T08:39:26Z</time>
      </trkpt>
      <trkpt lat="39.1839860" lon="-1.5431160">
        <ele>656.6</ele>
        <time>2019-05-11T08:39:27Z</time>
      </trkpt>
      <trkpt lat="39.1839470" lon="-1.5431150">
        <ele>656.8</ele>
        <time>2019-05-11T08:39:28Z</time>
      </trkpt>
      <trkpt lat="39.1839070" lon="-1.5431190">
        <ele>656.8</ele>
        <time>2019-05-11T08:39:29Z</time>
      </trkpt>
      <trkpt lat="39.1838660" lon="-1.5431260">
        <ele>656.8</ele>
        <time>2019-05-11T08:39:30Z</time>
      </trkpt>
      <trkpt lat="39.1838260" lon="-1.5431320">
        <ele>656.8</ele>
        <time>2019-05-11T08:39:31Z</time>
      </trkpt>
      <trkpt lat="39.1837880" lon="-1.5431360">
        <ele>656.8</ele>
        <time>2019-05-11T08:39:32Z</time>
      </trkpt>
      <trkpt lat="39.1837510" lon="-1.5431350">
        <ele>657.0</ele>
        <time>2019-05-11T08:39:33Z</time>
      </trkpt>
      <trkpt lat="39.1837130" lon="-1.5431310">
        <ele>657.2</ele>
        <time>2019-05-11T08:39:34Z</time>
      </trkpt>
      <trkpt lat="39.1836730" lon="-1.5431250">
        <ele>657.2</ele>
        <time>2019-05-11T08:39:35Z</time>
      </trkpt>
      <trkpt lat="39.1836330" lon="-1.5431210">
        <ele>657.4</ele>
        <time>2019-05-11T08:39:36Z</time>
      </trkpt>
      <trkpt lat="39.1835960" lon="-1.5431170">
        <ele>657.6</ele>
        <time>2019-05-11T08:39:37Z</time>
      </trkpt>
      <trkpt lat="39.1835580" lon="-1.5431090">
        <ele>657.8</ele>
        <time>2019-05-11T08:39:38Z</time>
      </trkpt>
      <trkpt lat="39.1835180" lon="-1.5430950">
        <ele>658.0</ele>
        <time>2019-05-11T08:39:39Z</time>
      </trkpt>
      <trkpt lat="39.1834780" lon="-1.5430770">
        <ele>658.2</ele>
        <time>2019-05-11T08:39:40Z</time>
      </trkpt>
      <trkpt lat="39.1834400" lon="-1.5430510">
        <ele>658.4</ele>
        <time>2019-05-11T08:39:41Z</time>
      </trkpt>
      <trkpt lat="39.1834050" lon="-1.5430240">
        <ele>658.4</ele>
        <time>2019-05-11T08:39:42Z</time>
      </trkpt>
      <trkpt lat="39.1833730" lon="-1.5430030">
        <ele>658.6</ele>
        <time>2019-05-11T08:39:43Z</time>
      </trkpt>
      <trkpt lat="39.1833400" lon="-1.5429930">
        <ele>659.0</ele>
        <time>2019-05-11T08:39:44Z</time>
      </trkpt>
      <trkpt lat="39.1833070" lon="-1.5429900">
        <ele>659.2</ele>
        <time>2019-05-11T08:39:45Z</time>
      </trkpt>
      <trkpt lat="39.1832720" lon="-1.5429940">
        <ele>659.2</ele>
        <time>2019-05-11T08:39:46Z</time>
      </trkpt>
      <trkpt lat="39.1832350" lon="-1.5430050">
        <ele>659.2</ele>
        <time>2019-05-11T08:39:47Z</time>
      </trkpt>
      <trkpt lat="39.1831980" lon="-1.5430240">
        <ele>659.4</ele>
        <time>2019-05-11T08:39:48Z</time>
      </trkpt>
      <trkpt lat="39.1831630" lon="-1.5430500">
        <ele>659.4</ele>
        <time>2019-05-11T08:39:49Z</time>
      </trkpt>
      <trkpt lat="39.1831300" lon="-1.5430790">
        <ele>659.6</ele>
        <time>2019-05-11T08:39:50Z</time>
      </trkpt>
      <trkpt lat="39.1830980" lon="-1.5431080">
        <ele>659.8</ele>
        <time>2019-05-11T08:39:51Z</time>
      </trkpt>
      <trkpt lat="39.1830650" lon="-1.5431310">
        <ele>660.0</ele>
        <time>2019-05-11T08:39:52Z</time>
      </trkpt>
      <trkpt lat="39.1830320" lon="-1.5431470">
        <ele>660.2</ele>
        <time>2019-05-11T08:39:53Z</time>
      </trkpt>
      <trkpt lat="39.1830010" lon="-1.5431630">
        <ele>660.4</ele>
        <time>2019-05-11T08:39:54Z</time>
      </trkpt>
      <trkpt lat="39.1829700" lon="-1.5431810">
        <ele>660.6</ele>
        <time>2019-05-11T08:39:55Z</time>
      </trkpt>
      <trkpt lat="39.1829380" lon="-1.5431970">
        <ele>660.8</ele>
        <time>2019-05-11T08:39:56Z</time>
      </trkpt>
      <trkpt lat="39.1829070" lon="-1.5432110">
        <ele>661.0</ele>
        <time>2019-05-11T08:39:57Z</time>
      </trkpt>
      <trkpt lat="39.1828740" lon="-1.5432230">
        <ele>661.2</ele>
        <time>2019-05-11T08:39:58Z</time>
      </trkpt>
      <trkpt lat="39.1828410" lon="-1.5432310">
        <ele>661.4</ele>
        <time>2019-05-11T08:39:59Z</time>
      </trkpt>
      <trkpt lat="39.1828080" lon="-1.5432360">
        <ele>661.6</ele>
        <time>2019-05-11T08:40:00Z</time>
      </trkpt>
      <trkpt lat="39.1827750" lon="-1.5432400">
        <ele>662.0</ele>
        <time>2019-05-11T08:40:01Z</time>
      </trkpt>
      <trkpt lat="39.1827420" lon="-1.5432430">
        <ele>662.2</ele>
        <time>2019-05-11T08:40:02Z</time>
      </trkpt>
      <trkpt lat="39.1827080" lon="-1.5432470">
        <ele>662.4</ele>
        <time>2019-05-11T08:40:03Z</time>
      </trkpt>
      <trkpt lat="39.1826750" lon="-1.5432520">
        <ele>662.6</ele>
        <time>2019-05-11T08:40:04Z</time>
      </trkpt>
      <trkpt lat="39.1826410" lon="-1.5432590">
        <ele>662.8</ele>
        <time>2019-05-11T08:40:05Z</time>
      </trkpt>
      <trkpt lat="39.1826070" lon="-1.5432660">
        <ele>663.0</ele>
        <time>2019-05-11T08:40:06Z</time>
      </trkpt>
      <trkpt lat="39.1825720" lon="-1.5432740">
        <ele>663.2</ele>
        <time>2019-05-11T08:40:07Z</time>
      </trkpt>
      <trkpt lat="39.1825360" lon="-1.5432840">
        <ele>663.4</ele>
        <time>2019-05-11T08:40:08Z</time>
      </trkpt>
      <trkpt lat="39.1824970" lon="-1.5432940">
        <ele>663.8</ele>
        <time>2019-05-11T08:40:09Z</time>
      </trkpt>
      <trkpt lat="39.1824580" lon="-1.5433080">
        <ele>664.0</ele>
        <time>2019-05-11T08:40:10Z</time>
      </trkpt>
      <trkpt lat="39.1824170" lon="-1.5433250">
        <ele>664.2</ele>
        <time>2019-05-11T08:40:11Z</time>
      </trkpt>
      <trkpt lat="39.1823750" lon="-1.5433410">
        <ele>664.4</ele>
        <time>2019-05-11T08:40:12Z</time>
      </trkpt>
      <trkpt lat="39.1823320" lon="-1.5433570">
        <ele>664.8</ele>
        <time>2019-05-11T08:40:13Z</time>
      </trkpt>
      <trkpt lat="39.1822880" lon="-1.5433720">
        <ele>665.0</ele>
        <time>2019-05-11T08:40:14Z</time>
      </trkpt>
      <trkpt lat="39.1822450" lon="-1.5433890">
        <ele>665.0</ele>
        <time>2019-05-11T08:40:15Z</time>
      </trkpt>
      <trkpt lat="39.1822020" lon="-1.5434080">
        <ele>665.2</ele>
        <time>2019-05-11T08:40:16Z</time>
      </trkpt>
      <trkpt lat="39.1821610" lon="-1.5434290">
        <ele>665.4</ele>
        <time>2019-05-11T08:40:17Z</time>
      </trkpt>
      <trkpt lat="39.1821190" lon="-1.5434470">
        <ele>665.4</ele>
        <time>2019-05-11T08:40:18Z</time>
      </trkpt>
      <trkpt lat="39.1820750" lon="-1.5434540">
        <ele>665.6</ele>
        <time>2019-05-11T08:40:19Z</time>
      </trkpt>
      <trkpt lat="39.1820300" lon="-1.5434430">
        <ele>665.6</ele>
        <time>2019-05-11T08:40:20Z</time>
      </trkpt>
      <trkpt lat="39.1819890" lon="-1.5434160">
        <ele>665.6</ele>
        <time>2019-05-11T08:40:21Z</time>
      </trkpt>
      <trkpt lat="39.1819530" lon="-1.5433760">
        <ele>665.8</ele>
        <time>2019-05-11T08:40:22Z</time>
      </trkpt>
      <trkpt lat="39.1819170" lon="-1.5433330">
        <ele>665.8</ele>
        <time>2019-05-11T08:40:23Z</time>
      </trkpt>
      <trkpt lat="39.1818800" lon="-1.5432920">
        <ele>666.0</ele>
        <time>2019-05-11T08:40:24Z</time>
      </trkpt>
      <trkpt lat="39.1818390" lon="-1.5432550">
        <ele>666.0</ele>
        <time>2019-05-11T08:40:25Z</time>
      </trkpt>
      <trkpt lat="39.1817960" lon="-1.5432210">
        <ele>666.2</ele>
        <time>2019-05-11T08:40:26Z</time>
      </trkpt>
      <trkpt lat="39.1817520" lon="-1.5431930">
        <ele>666.2</ele>
        <time>2019-05-11T08:40:27Z</time>
      </trkpt>
      <trkpt lat="39.1817070" lon="-1.5431750">
        <ele>666.4</ele>
        <time>2019-05-11T08:40:28Z</time>
      </trkpt>
      <trkpt lat="39.1816610" lon="-1.5431650">
        <ele>666.4</ele>
        <time>2019-05-11T08:40:29Z</time>
      </trkpt>
      <trkpt lat="39.1816160" lon="-1.5431610">
        <ele>666.4</ele>
        <time>2019-05-11T08:40:30Z</time>
      </trkpt>
      <trkpt lat="39.1815750" lon="-1.5431630">
        <ele>666.4</ele>
        <time>2019-05-11T08:40:31Z</time>
      </trkpt>
      <trkpt lat="39.1815380" lon="-1.5431700">
        <ele>666.4</ele>
        <time>2019-05-11T08:40:32Z</time>
      </trkpt>
      <trkpt lat="39.1815020" lon="-1.5431750">
        <ele>666.4</ele>
        <time>2019-05-11T08:40:33Z</time>
      </trkpt>
      <trkpt lat="39.1814670" lon="-1.5431780">
        <ele>666.6</ele>
        <time>2019-05-11T08:40:34Z</time>
      </trkpt>
      <trkpt lat="39.1814310" lon="-1.5431770">
        <ele>666.8</ele>
        <time>2019-05-11T08:40:35Z</time>
      </trkpt>
      <trkpt lat="39.1813940" lon="-1.5431760">
        <ele>667.0</ele>
        <time>2019-05-11T08:40:36Z</time>
      </trkpt>
      <trkpt lat="39.1813540" lon="-1.5431780">
        <ele>667.4</ele>
        <time>2019-05-11T08:40:37Z</time>
      </trkpt>
      <trkpt lat="39.1813140" lon="-1.5431820">
        <ele>667.6</ele>
        <time>2019-05-11T08:40:38Z</time>
      </trkpt>
      <trkpt lat="39.1812720" lon="-1.5431870">
        <ele>668.0</ele>
        <time>2019-05-11T08:40:39Z</time>
      </trkpt>
      <trkpt lat="39.1812300" lon="-1.5431940">
        <ele>668.4</ele>
        <time>2019-05-11T08:40:40Z</time>
      </trkpt>
      <trkpt lat="39.1811840" lon="-1.5432000">
        <ele>668.8</ele>
        <time>2019-05-11T08:40:41Z</time>
      </trkpt>
      <trkpt lat="39.1811380" lon="-1.5432050">
        <ele>669.0</ele>
        <time>2019-05-11T08:40:42Z</time>
      </trkpt>
      <trkpt lat="39.1810940" lon="-1.5432060">
        <ele>669.4</ele>
        <time>2019-05-11T08:40:43Z</time>
      </trkpt>
      <trkpt lat="39.1810510" lon="-1.5432020">
        <ele>669.6</ele>
        <time>2019-05-11T08:40:44Z</time>
      </trkpt>
      <trkpt lat="39.1810120" lon="-1.5431940">
        <ele>669.6</ele>
        <time>2019-05-11T08:40:45Z</time>
      </trkpt>
      <trkpt lat="39.1809740" lon="-1.5431750">
        <ele>669.8</ele>
        <time>2019-05-11T08:40:46Z</time>
      </trkpt>
      <trkpt lat="39.1809400" lon="-1.5431470">
        <ele>669.8</ele>
        <time>2019-05-11T08:40:47Z</time>
      </trkpt>
      <trkpt lat="39.1809060" lon="-1.5431090">
        <ele>670.0</ele>
        <time>2019-05-11T08:40:48Z</time>
      </trkpt>
      <trkpt lat="39.1808720" lon="-1.5430670">
        <ele>670.0</ele>
        <time>2019-05-11T08:40:49Z</time>
      </trkpt>
      <trkpt lat="39.1808400" lon="-1.5430220">
        <ele>670.2</ele>
        <time>2019-05-11T08:40:50Z</time>
      </trkpt>
      <trkpt lat="39.1808090" lon="-1.5429750">
        <ele>670.4</ele>
        <time>2019-05-11T08:40:51Z</time>
      </trkpt>
      <trkpt lat="39.1807780" lon="-1.5429300">
        <ele>670.6</ele>
        <time>2019-05-11T08:40:52Z</time>
      </trkpt>
      <trkpt lat="39.1807440" lon="-1.5428850">
        <ele>670.8</ele>
        <time>2019-05-11T08:40:53Z</time>
      </trkpt>
      <trkpt lat="39.1807080" lon="-1.5428420">
        <ele>671.0</ele>
        <time>2019-05-11T08:40:54Z</time>
      </trkpt>
      <trkpt lat="39.1806680" lon="-1.5428020">
        <ele>671.4</ele>
        <time>2019-05-11T08:40:55Z</time>
      </trkpt>
      <trkpt lat="39.1806220" lon="-1.5427690">
        <ele>671.4</ele>
        <time>2019-05-11T08:40:56Z</time>
      </trkpt>
      <trkpt lat="39.1805730" lon="-1.5427450">
        <ele>671.6</ele>
        <time>2019-05-11T08:40:57Z</time>
      </trkpt>
      <trkpt lat="39.1805210" lon="-1.5427260">
        <ele>671.6</ele>
        <time>2019-05-11T08:40:58Z</time>
      </trkpt>
      <trkpt lat="39.1804680" lon="-1.5427130">
        <ele>671.8</ele>
        <time>2019-05-11T08:40:59Z</time>
      </trkpt>
      <trkpt lat="39.1804150" lon="-1.5427030">
        <ele>672.0</ele>
        <time>2019-05-11T08:41:00Z</time>
      </trkpt>
      <trkpt lat="39.1803630" lon="-1.5426940">
        <ele>672.0</ele>
        <time>2019-05-11T08:41:01Z</time>
      </trkpt>
      <trkpt lat="39.1803120" lon="-1.5426850">
        <ele>672.2</ele>
        <time>2019-05-11T08:41:02Z</time>
      </trkpt>
      <trkpt lat="39.1802600" lon="-1.5426760">
        <ele>672.2</ele>
        <time>2019-05-11T08:41:03Z</time>
      </trkpt>
      <trkpt lat="39.1802070" lon="-1.5426660">
        <ele>672.2</ele>
        <time>2019-05-11T08:41:04Z</time>
      </trkpt>
      <trkpt lat="39.1801540" lon="-1.5426560">
        <ele>672.4</ele>
        <time>2019-05-11T08:41:05Z</time>
      </trkpt>
      <trkpt lat="39.1801010" lon="-1.5426410">
        <ele>672.6</ele>
        <time>2019-05-11T08:41:06Z</time>
      </trkpt>
      <trkpt lat="39.1800490" lon="-1.5426180">
        <ele>672.8</ele>
        <time>2019-05-11T08:41:07Z</time>
      </trkpt>
      <trkpt lat="39.1799990" lon="-1.5425860">
        <ele>673.0</ele>
        <time>2019-05-11T08:41:08Z</time>
      </trkpt>
      <trkpt lat="39.1799490" lon="-1.5425480">
        <ele>673.0</ele>
        <time>2019-05-11T08:41:09Z</time>
      </trkpt>
      <trkpt lat="39.1798980" lon="-1.5425090">
        <ele>673.0</ele>
        <time>2019-05-11T08:41:10Z</time>
      </trkpt>
      <trkpt lat="39.1798460" lon="-1.5424680">
        <ele>673.0</ele>
        <time>2019-05-11T08:41:11Z</time>
      </trkpt>
      <trkpt lat="39.1797940" lon="-1.5424230">
        <ele>673.0</ele>
        <time>2019-05-11T08:41:12Z</time>
      </trkpt>
      <trkpt lat="39.1797410" lon="-1.5423780">
        <ele>673.0</ele>
        <time>2019-05-11T08:41:13Z</time>
      </trkpt>
      <trkpt lat="39.1796840" lon="-1.5423380">
        <ele>673.0</ele>
        <time>2019-05-11T08:41:14Z</time>
      </trkpt>
      <trkpt lat="39.1796210" lon="-1.5423130">
        <ele>673.0</ele>
        <time>2019-05-11T08:41:15Z</time>
      </trkpt>
      <trkpt lat="39.1795570" lon="-1.5422910">
        <ele>673.0</ele>
        <time>2019-05-11T08:41:16Z</time>
      </trkpt>
      <trkpt lat="39.1794940" lon="-1.5422670">
        <ele>673.0</ele>
        <time>2019-05-11T08:41:17Z</time>
      </trkpt>
      <trkpt lat="39.1794290" lon="-1.5422460">
        <ele>673.0</ele>
        <time>2019-05-11T08:41:18Z</time>
      </trkpt>
      <trkpt lat="39.1793630" lon="-1.5422280">
        <ele>673.0</ele>
        <time>2019-05-11T08:41:19Z</time>
      </trkpt>
      <trkpt lat="39.1792970" lon="-1.5422100">
        <ele>672.8</ele>
        <time>2019-05-11T08:41:20Z</time>
      </trkpt>
      <trkpt lat="39.1792300" lon="-1.5421930">
        <ele>672.6</ele>
        <time>2019-05-11T08:41:21Z</time>
      </trkpt>
      <trkpt lat="39.1791630" lon="-1.5421780">
        <ele>672.6</ele>
        <time>2019-05-11T08:41:22Z</time>
      </trkpt>
      <trkpt lat="39.1790960" lon="-1.5421620">
        <ele>672.4</ele>
        <time>2019-05-11T08:41:23Z</time>
      </trkpt>
      <trkpt lat="39.1790290" lon="-1.5421440">
        <ele>672.4</ele>
        <time>2019-05-11T08:41:24Z</time>
      </trkpt>
      <trkpt lat="39.1789610" lon="-1.5421230">
        <ele>672.2</ele>
        <time>2019-05-11T08:41:25Z</time>
      </trkpt>
      <trkpt lat="39.1788950" lon="-1.5420990">
        <ele>672.2</ele>
        <time>2019-05-11T08:41:26Z</time>
      </trkpt>
      <trkpt lat="39.1788300" lon="-1.5420730">
        <ele>672.0</ele>
        <time>2019-05-11T08:41:27Z</time>
      </trkpt>
      <trkpt lat="39.1787640" lon="-1.5420470">
        <ele>672.0</ele>
        <time>2019-05-11T08:41:28Z</time>
      </trkpt>
      <trkpt lat="39.1786970" lon="-1.5420240">
        <ele>672.0</ele>
        <time>2019-05-11T08:41:29Z</time>
      </trkpt>
      <trkpt lat="39.1786300" lon="-1.5420000">
        <ele>671.8</ele>
        <time>2019-05-11T08:41:30Z</time>
      </trkpt>
      <trkpt lat="39.1785620" lon="-1.5419760">
        <ele>671.8</ele>
        <time>2019-05-11T08:41:31Z</time>
      </trkpt>
      <trkpt lat="39.1784940" lon="-1.5419510">
        <ele>671.8</ele>
        <time>2019-05-11T08:41:32Z</time>
      </trkpt>
      <trkpt lat="39.1784260" lon="-1.5419250">
        <ele>671.6</ele>
        <time>2019-05-11T08:41:33Z</time>
      </trkpt>
      <trkpt lat="39.1783580" lon="-1.5418960">
        <ele>671.6</ele>
        <time>2019-05-11T08:41:34Z</time>
      </trkpt>
      <trkpt lat="39.1782900" lon="-1.5418670">
        <ele>671.6</ele>
        <time>2019-05-11T08:41:35Z</time>
      </trkpt>
      <trkpt lat="39.1782230" lon="-1.5418350">
        <ele>671.6</ele>
        <time>2019-05-11T08:41:36Z</time>
      </trkpt>
      <trkpt lat="39.1781560" lon="-1.5418030">
        <ele>671.6</ele>
        <time>2019-05-11T08:41:37Z</time>
      </trkpt>
      <trkpt lat="39.1780900" lon="-1.5417700">
        <ele>671.6</ele>
        <time>2019-05-11T08:41:38Z</time>
      </trkpt>
      <trkpt lat="39.1780250" lon="-1.5417380">
        <ele>671.6</ele>
        <time>2019-05-11T08:41:39Z</time>
      </trkpt>
      <trkpt lat="39.1779600" lon="-1.5417080">
        <ele>671.6</ele>
        <time>2019-05-11T08:41:40Z</time>
      </trkpt>
      <trkpt lat="39.1778960" lon="-1.5416780">
        <ele>671.6</ele>
        <time>2019-05-11T08:41:41Z</time>
      </trkpt>
      <trkpt lat="39.1778320" lon="-1.5416470">
        <ele>671.6</ele>
        <time>2019-05-11T08:41:42Z</time>
      </trkpt>
      <trkpt lat="39.1777690" lon="-1.5416160">
        <ele>671.6</ele>
        <time>2019-05-11T08:41:43Z</time>
      </trkpt>
      <trkpt lat="39.1777060" lon="-1.5415890">
        <ele>671.6</ele>
        <time>2019-05-11T08:41:44Z</time>
      </trkpt>
      <trkpt lat="39.1776430" lon="-1.5415710">
        <ele>671.6</ele>
        <time>2019-05-11T08:41:45Z</time>
      </trkpt>
      <trkpt lat="39.1775800" lon="-1.5415670">
        <ele>671.6</ele>
        <time>2019-05-11T08:41:46Z</time>
      </trkpt>
      <trkpt lat="39.1775200" lon="-1.5415830">
        <ele>671.8</ele>
        <time>2019-05-11T08:41:47Z</time>
      </trkpt>
      <trkpt lat="39.1774680" lon="-1.5416220">
        <ele>671.8</ele>
        <time>2019-05-11T08:41:48Z</time>
      </trkpt>
      <trkpt lat="39.1774280" lon="-1.5416780">
        <ele>671.8</ele>
        <time>2019-05-11T08:41:49Z</time>
      </trkpt>
      <trkpt lat="39.1773940" lon="-1.5417430">
        <ele>671.8</ele>
        <time>2019-05-11T08:41:50Z</time>
      </trkpt>
      <trkpt lat="39.1773620" lon="-1.5418110">
        <ele>671.8</ele>
        <time>2019-05-11T08:41:51Z</time>
      </trkpt>
      <trkpt lat="39.1773300" lon="-1.5418810">
        <ele>672.0</ele>
        <time>2019-05-11T08:41:52Z</time>
      </trkpt>
      <trkpt lat="39.1772940" lon="-1.5419490">
        <ele>672.2</ele>
        <time>2019-05-11T08:41:53Z</time>
      </trkpt>
      <trkpt lat="39.1772550" lon="-1.5420150">
        <ele>672.2</ele>
        <time>2019-05-11T08:41:54Z</time>
      </trkpt>
      <trkpt lat="39.1772120" lon="-1.5420800">
        <ele>672.4</ele>
        <time>2019-05-11T08:41:55Z</time>
      </trkpt>
      <trkpt lat="39.1771680" lon="-1.5421460">
        <ele>672.4</ele>
        <time>2019-05-11T08:41:56Z</time>
      </trkpt>
      <trkpt lat="39.1771230" lon="-1.5422120">
        <ele>672.4</ele>
        <time>2019-05-11T08:41:57Z</time>
      </trkpt>
      <trkpt lat="39.1770760" lon="-1.5422780">
        <ele>672.4</ele>
        <time>2019-05-11T08:41:58Z</time>
      </trkpt>
      <trkpt lat="39.1770270" lon="-1.5423450">
        <ele>672.4</ele>
        <time>2019-05-11T08:41:59Z</time>
      </trkpt>
      <trkpt lat="39.1769770" lon="-1.5424130">
        <ele>672.4</ele>
        <time>2019-05-11T08:42:00Z</time>
      </trkpt>
      <trkpt lat="39.1769240" lon="-1.5424830">
        <ele>672.6</ele>
        <time>2019-05-11T08:42:01Z</time>
      </trkpt>
      <trkpt lat="39.1768670" lon="-1.5425490">
        <ele>672.6</ele>
        <time>2019-05-11T08:42:02Z</time>
      </trkpt>
      <trkpt lat="39.1768120" lon="-1.5426180">
        <ele>672.6</ele>
        <time>2019-05-11T08:42:03Z</time>
      </trkpt>
      <trkpt lat="39.1767600" lon="-1.5426910">
        <ele>672.6</ele>
        <time>2019-05-11T08:42:04Z</time>
      </trkpt>
      <trkpt lat="39.1767060" lon="-1.5427620">
        <ele>672.4</ele>
        <time>2019-05-11T08:42:05Z</time>
      </trkpt>
      <trkpt lat="39.1766490" lon="-1.5428280">
        <ele>672.4</ele>
        <time>2019-05-11T08:42:06Z</time>
      </trkpt>
      <trkpt lat="39.1765860" lon="-1.5428890">
        <ele>672.4</ele>
        <time>2019-05-11T08:42:07Z</time>
      </trkpt>
      <trkpt lat="39.1765190" lon="-1.5429440">
        <ele>672.4</ele>
        <time>2019-05-11T08:42:08Z</time>
      </trkpt>
      <trkpt lat="39.1764490" lon="-1.5429940">
        <ele>672.4</ele>
        <time>2019-05-11T08:42:09Z</time>
      </trkpt>
      <trkpt lat="39.1763780" lon="-1.5430420">
        <ele>672.4</ele>
        <time>2019-05-11T08:42:10Z</time>
      </trkpt>
      <trkpt lat="39.1763060" lon="-1.5430880">
        <ele>672.2</ele>
        <time>2019-05-11T08:42:11Z</time>
      </trkpt>
      <trkpt lat="39.1762330" lon="-1.5431340">
        <ele>671.8</ele>
        <time>2019-05-11T08:42:12Z</time>
      </trkpt>
      <trkpt lat="39.1761580" lon="-1.5431800">
        <ele>671.6</ele>
        <time>2019-05-11T08:42:13Z</time>
      </trkpt>
      <trkpt lat="39.1760810" lon="-1.5432250">
        <ele>671.4</ele>
        <time>2019-05-11T08:42:14Z</time>
      </trkpt>
      <trkpt lat="39.1760000" lon="-1.5432660">
        <ele>671.2</ele>
        <time>2019-05-11T08:42:15Z</time>
      </trkpt>
      <trkpt lat="39.1759150" lon="-1.5433010">
        <ele>671.0</ele>
        <time>2019-05-11T08:42:16Z</time>
      </trkpt>
      <trkpt lat="39.1758300" lon="-1.5433280">
        <ele>671.0</ele>
        <time>2019-05-11T08:42:17Z</time>
      </trkpt>
      <trkpt lat="39.1757440" lon="-1.5433490">
        <ele>671.0</ele>
        <time>2019-05-11T08:42:18Z</time>
      </trkpt>
      <trkpt lat="39.1756620" lon="-1.5433650">
        <ele>671.0</ele>
        <time>2019-05-11T08:42:19Z</time>
      </trkpt>
      <trkpt lat="39.1755830" lon="-1.5433800">
        <ele>670.8</ele>
        <time>2019-05-11T08:42:20Z</time>
      </trkpt>
      <trkpt lat="39.1755060" lon="-1.5434000">
        <ele>670.6</ele>
        <time>2019-05-11T08:42:21Z</time>
      </trkpt>
      <trkpt lat="39.1754320" lon="-1.5434290">
        <ele>670.0</ele>
        <time>2019-05-11T08:42:22Z</time>
      </trkpt>
      <trkpt lat="39.1753590" lon="-1.5434650">
        <ele>669.8</ele>
        <time>2019-05-11T08:42:23Z</time>
      </trkpt>
      <trkpt lat="39.1752850" lon="-1.5435060">
        <ele>669.6</ele>
        <time>2019-05-11T08:42:24Z</time>
      </trkpt>
      <trkpt lat="39.1752140" lon="-1.5435550">
        <ele>669.4</ele>
        <time>2019-05-11T08:42:25Z</time>
      </trkpt>
      <trkpt lat="39.1751460" lon="-1.5436120">
        <ele>669.4</ele>
        <time>2019-05-11T08:42:26Z</time>
      </trkpt>
      <trkpt lat="39.1750810" lon="-1.5436760">
        <ele>669.2</ele>
        <time>2019-05-11T08:42:27Z</time>
      </trkpt>
      <trkpt lat="39.1750220" lon="-1.5437460">
        <ele>669.2</ele>
        <time>2019-05-11T08:42:28Z</time>
      </trkpt>
      <trkpt lat="39.1749690" lon="-1.5438230">
        <ele>669.2</ele>
        <time>2019-05-11T08:42:29Z</time>
      </trkpt>
      <trkpt lat="39.1749220" lon="-1.5439060">
        <ele>669.2</ele>
        <time>2019-05-11T08:42:30Z</time>
      </trkpt>
      <trkpt lat="39.1748800" lon="-1.5439920">
        <ele>669.2</ele>
        <time>2019-05-11T08:42:31Z</time>
      </trkpt>
      <trkpt lat="39.1748400" lon="-1.5440810">
        <ele>669.2</ele>
        <time>2019-05-11T08:42:32Z</time>
      </trkpt>
      <trkpt lat="39.1748000" lon="-1.5441710">
        <ele>669.0</ele>
        <time>2019-05-11T08:42:33Z</time>
      </trkpt>
      <trkpt lat="39.1747580" lon="-1.5442600">
        <ele>669.0</ele>
        <time>2019-05-11T08:42:34Z</time>
      </trkpt>
      <trkpt lat="39.1747160" lon="-1.5443460">
        <ele>669.0</ele>
        <time>2019-05-11T08:42:35Z</time>
      </trkpt>
      <trkpt lat="39.1746740" lon="-1.5444280">
        <ele>669.0</ele>
        <time>2019-05-11T08:42:36Z</time>
      </trkpt>
      <trkpt lat="39.1746340" lon="-1.5445040">
        <ele>669.0</ele>
        <time>2019-05-11T08:42:37Z</time>
      </trkpt>
      <trkpt lat="39.1745930" lon="-1.5445740">
        <ele>669.0</ele>
        <time>2019-05-11T08:42:38Z</time>
      </trkpt>
      <trkpt lat="39.1745560" lon="-1.5446420">
        <ele>668.8</ele>
        <time>2019-05-11T08:42:39Z</time>
      </trkpt>
      <trkpt lat="39.1745170" lon="-1.5447100">
        <ele>668.6</ele>
        <time>2019-05-11T08:42:40Z</time>
      </trkpt>
      <trkpt lat="39.1744750" lon="-1.5447720">
        <ele>668.4</ele>
        <time>2019-05-11T08:42:41Z</time>
      </trkpt>
      <trkpt lat="39.1744320" lon="-1.5448230">
        <ele>668.2</ele>
        <time>2019-05-11T08:42:42Z</time>
      </trkpt>
      <trkpt lat="39.1743860" lon="-1.5448520">
        <ele>668.2</ele>
        <time>2019-05-11T08:42:43Z</time>
      </trkpt>
      <trkpt lat="39.1743450" lon="-1.5448530">
        <ele>668.0</ele>
        <time>2019-05-11T08:42:44Z</time>
      </trkpt>
      <trkpt lat="39.1743150" lon="-1.5448270">
        <ele>667.8</ele>
        <time>2019-05-11T08:42:45Z</time>
      </trkpt>
      <trkpt lat="39.1742920" lon="-1.5447860">
        <ele>667.8</ele>
        <time>2019-05-11T08:42:46Z</time>
      </trkpt>
      <trkpt lat="39.1742760" lon="-1.5447380">
        <ele>667.6</ele>
        <time>2019-05-11T08:42:47Z</time>
      </trkpt>
      <trkpt lat="39.1742700" lon="-1.5446870">
        <ele>667.6</ele>
        <time>2019-05-11T08:42:48Z</time>
      </trkpt>
      <trkpt lat="39.1742600" lon="-1.5446290">
        <ele>667.4</ele>
        <time>2019-05-11T08:42:49Z</time>
      </trkpt>
      <trkpt lat="39.1742540" lon="-1.5445600">
        <ele>667.4</ele>
        <time>2019-05-11T08:42:50Z</time>
      </trkpt>
      <trkpt lat="39.1742510" lon="-1.5444810">
        <ele>667.2</ele>
        <time>2019-05-11T08:42:51Z</time>
      </trkpt>
      <trkpt lat="39.1742460" lon="-1.5443990">
        <ele>667.0</ele>
        <time>2019-05-11T08:42:52Z</time>
      </trkpt>
      <trkpt lat="39.1742400" lon="-1.5443350">
        <ele>666.8</ele>
        <time>2019-05-11T08:42:53Z</time>
      </trkpt>
      <trkpt lat="39.1742410" lon="-1.5442930">
        <ele>666.4</ele>
        <time>2019-05-11T08:42:54Z</time>
      </trkpt>
      <trkpt lat="39.1742470" lon="-1.5442590">
        <ele>665.8</ele>
        <time>2019-05-11T08:42:55Z</time>
      </trkpt>
      <trkpt lat="39.1742520" lon="-1.5442430">
        <ele>665.2</ele>
        <time>2019-05-11T08:42:56Z</time>
      </trkpt>
      <trkpt lat="39.1742570" lon="-1.5442420">
        <ele>664.6</ele>
        <time>2019-05-11T08:42:57Z</time>
      </trkpt>
      <trkpt lat="39.1742670" lon="-1.5442410">
        <ele>664.2</ele>
        <time>2019-05-11T08:42:58Z</time>
      </trkpt>
      <trkpt lat="39.1742800" lon="-1.5442390">
        <ele>663.4</ele>
        <time>2019-05-11T08:42:59Z</time>
      </trkpt>
      <trkpt lat="39.1743060" lon="-1.5442290">
        <ele>662.6</ele>
        <time>2019-05-11T08:43:00Z</time>
      </trkpt>
      <trkpt lat="39.1743430" lon="-1.5442060">
        <ele>662.2</ele>
        <time>2019-05-11T08:43:01Z</time>
      </trkpt>
      <trkpt lat="39.1743800" lon="-1.5441750">
        <ele>661.8</ele>
        <time>2019-05-11T08:43:02Z</time>
      </trkpt>
      <trkpt lat="39.1744160" lon="-1.5441390">
        <ele>661.4</ele>
        <time>2019-05-11T08:43:03Z</time>
      </trkpt>
      <trkpt lat="39.1744500" lon="-1.5440970">
        <ele>660.8</ele>
        <time>2019-05-11T08:43:04Z</time>
      </trkpt>
      <trkpt lat="39.1744760" lon="-1.5440420">
        <ele>660.6</ele>
        <time>2019-05-11T08:43:05Z</time>
      </trkpt>
      <trkpt lat="39.1744900" lon="-1.5439750">
        <ele>660.4</ele>
        <time>2019-05-11T08:43:06Z</time>
      </trkpt>
      <trkpt lat="39.1744990" lon="-1.5439040">
        <ele>660.4</ele>
        <time>2019-05-11T08:43:07Z</time>
      </trkpt>
      <trkpt lat="39.1745060" lon="-1.5438310">
        <ele>660.2</ele>
        <time>2019-05-11T08:43:08Z</time>
      </trkpt>
      <trkpt lat="39.1745190" lon="-1.5437590">
        <ele>660.2</ele>
        <time>2019-05-11T08:43:09Z</time>
      </trkpt>
      <trkpt lat="39.1745400" lon="-1.5436930">
        <ele>660.2</ele>
        <time>2019-05-11T08:43:10Z</time>
      </trkpt>
      <trkpt lat="39.1745670" lon="-1.5436320">
        <ele>660.0</ele>
        <time>2019-05-11T08:43:11Z</time>
      </trkpt>
      <trkpt lat="39.1745950" lon="-1.5435720">
        <ele>660.0</ele>
        <time>2019-05-11T08:43:12Z</time>
      </trkpt>
      <trkpt lat="39.1746260" lon="-1.5435130">
        <ele>660.0</ele>
        <time>2019-05-11T08:43:13Z</time>
      </trkpt>
      <trkpt lat="39.1746630" lon="-1.5434600">
        <ele>660.0</ele>
        <time>2019-05-11T08:43:14Z</time>
      </trkpt>
      <trkpt lat="39.1747050" lon="-1.5434140">
        <ele>660.0</ele>
        <time>2019-05-11T08:43:15Z</time>
      </trkpt>
      <trkpt lat="39.1747540" lon="-1.5433780">
        <ele>660.0</ele>
        <time>2019-05-11T08:43:16Z</time>
      </trkpt>
      <trkpt lat="39.1748060" lon="-1.5433470">
        <ele>660.0</ele>
        <time>2019-05-11T08:43:17Z</time>
      </trkpt>
      <trkpt lat="39.1748570" lon="-1.5433150">
        <ele>660.0</ele>
        <time>2019-05-11T08:43:18Z</time>
      </trkpt>
      <trkpt lat="39.1749110" lon="-1.5432810">
        <ele>660.0</ele>
        <time>2019-05-11T08:43:19Z</time>
      </trkpt>
      <trkpt lat="39.1749630" lon="-1.5432420">
        <ele>660.0</ele>
        <time>2019-05-11T08:43:20Z</time>
      </trkpt>
      <trkpt lat="39.1750120" lon="-1.5431940">
        <ele>660.0</ele>
        <time>2019-05-11T08:43:21Z</time>
      </trkpt>
      <trkpt lat="39.1750580" lon="-1.5431400">
        <ele>660.0</ele>
        <time>2019-05-11T08:43:22Z</time>
      </trkpt>
      <trkpt lat="39.1751050" lon="-1.5430900">
        <ele>660.0</ele>
        <time>2019-05-11T08:43:23Z</time>
      </trkpt>
      <trkpt lat="39.1751480" lon="-1.5430390">
        <ele>660.0</ele>
        <time>2019-05-11T08:43:24Z</time>
      </trkpt>
      <trkpt lat="39.1751810" lon="-1.5429840">
        <ele>660.0</ele>
        <time>2019-05-11T08:43:25Z</time>
      </trkpt>
      <trkpt lat="39.1751980" lon="-1.5429300">
        <ele>660.0</ele>
        <time>2019-05-11T08:43:26Z</time>
      </trkpt>
      <trkpt lat="39.1751940" lon="-1.5428770">
        <ele>660.0</ele>
        <time>2019-05-11T08:43:27Z</time>
      </trkpt>
      <trkpt lat="39.1751740" lon="-1.5428310">
        <ele>659.8</ele>
        <time>2019-05-11T08:43:28Z</time>
      </trkpt>
      <trkpt lat="39.1751480" lon="-1.5428050">
        <ele>659.8</ele>
        <time>2019-05-11T08:43:29Z</time>
      </trkpt>
      <trkpt lat="39.1751160" lon="-1.5428030">
        <ele>659.6</ele>
        <time>2019-05-11T08:43:30Z</time>
      </trkpt>
      <trkpt lat="39.1750790" lon="-1.5428070">
        <ele>659.6</ele>
        <time>2019-05-11T08:43:31Z</time>
      </trkpt>
      <trkpt lat="39.1750430" lon="-1.5428090">
        <ele>659.4</ele>
        <time>2019-05-11T08:43:32Z</time>
      </trkpt>
      <trkpt lat="39.1750140" lon="-1.5428060">
        <ele>658.8</ele>
        <time>2019-05-11T08:43:33Z</time>
      </trkpt>
      <trkpt lat="39.1749890" lon="-1.5427980">
        <ele>658.2</ele>
        <time>2019-05-11T08:43:34Z</time>
      </trkpt>
      <trkpt lat="39.1749640" lon="-1.5427950">
        <ele>658.0</ele>
        <time>2019-05-11T08:43:35Z</time>
      </trkpt>
      <trkpt lat="39.1749370" lon="-1.5427920">
        <ele>658.0</ele>
        <time>2019-05-11T08:43:36Z</time>
      </trkpt>
      <trkpt lat="39.1749060" lon="-1.5427840">
        <ele>658.0</ele>
        <time>2019-05-11T08:43:37Z</time>
      </trkpt>
      <trkpt lat="39.1748800" lon="-1.5427670">
        <ele>657.8</ele>
        <time>2019-05-11T08:43:38Z</time>
      </trkpt>
      <trkpt lat="39.1748590" lon="-1.5427490">
        <ele>657.8</ele>
        <time>2019-05-11T08:43:39Z</time>
      </trkpt>
      <trkpt lat="39.1748330" lon="-1.5427370">
        <ele>657.8</ele>
        <time>2019-05-11T08:43:40Z</time>
      </trkpt>
      <trkpt lat="39.1748020" lon="-1.5427300">
        <ele>657.8</ele>
        <time>2019-05-11T08:43:41Z</time>
      </trkpt>
      <trkpt lat="39.1747680" lon="-1.5427320">
        <ele>657.8</ele>
        <time>2019-05-11T08:43:42Z</time>
      </trkpt>
      <trkpt lat="39.1747310" lon="-1.5427280">
        <ele>657.8</ele>
        <time>2019-05-11T08:43:43Z</time>
      </trkpt>
      <trkpt lat="39.1746960" lon="-1.5427080">
        <ele>657.8</ele>
        <time>2019-05-11T08:43:44Z</time>
      </trkpt>
      <trkpt lat="39.1746720" lon="-1.5426780">
        <ele>657.8</ele>
        <time>2019-05-11T08:43:45Z</time>
      </trkpt>
      <trkpt lat="39.1746630" lon="-1.5426500">
        <ele>657.8</ele>
        <time>2019-05-11T08:43:46Z</time>
      </trkpt>
      <trkpt lat="39.1746610" lon="-1.5426140">
        <ele>658.0</ele>
        <time>2019-05-11T08:43:47Z</time>
      </trkpt>
      <trkpt lat="39.1746570" lon="-1.5425700">
        <ele>658.0</ele>
        <time>2019-05-11T08:43:48Z</time>
      </trkpt>
      <trkpt lat="39.1746530" lon="-1.5425230">
        <ele>658.0</ele>
        <time>2019-05-11T08:43:49Z</time>
      </trkpt>
      <trkpt lat="39.1746540" lon="-1.5424740">
        <ele>658.2</ele>
        <time>2019-05-11T08:43:50Z</time>
      </trkpt>
      <trkpt lat="39.1746650" lon="-1.5424290">
        <ele>658.2</ele>
        <time>2019-05-11T08:43:51Z</time>
      </trkpt>
      <trkpt lat="39.1746790" lon="-1.5423830">
        <ele>658.2</ele>
        <time>2019-05-11T08:43:52Z</time>
      </trkpt>
      <trkpt lat="39.1746920" lon="-1.5423370">
        <ele>658.4</ele>
        <time>2019-05-11T08:43:53Z</time>
      </trkpt>
      <trkpt lat="39.1747060" lon="-1.5422920">
        <ele>658.8</ele>
        <time>2019-05-11T08:43:54Z</time>
      </trkpt>
      <trkpt lat="39.1747210" lon="-1.5422470">
        <ele>659.2</ele>
        <time>2019-05-11T08:43:55Z</time>
      </trkpt>
      <trkpt lat="39.1747340" lon="-1.5422010">
        <ele>659.4</ele>
        <time>2019-05-11T08:43:56Z</time>
      </trkpt>
      <trkpt lat="39.1747400" lon="-1.5421530">
        <ele>659.4</ele>
        <time>2019-05-11T08:43:57Z</time>
      </trkpt>
      <trkpt lat="39.1747400" lon="-1.5421070">
        <ele>659.6</ele>
        <time>2019-05-11T08:43:58Z</time>
      </trkpt>
      <trkpt lat="39.1747320" lon="-1.5420630">
        <ele>659.6</ele>
        <time>2019-05-11T08:43:59Z</time>
      </trkpt>
      <trkpt lat="39.1747220" lon="-1.5420170">
        <ele>659.8</ele>
        <time>2019-05-11T08:44:00Z</time>
      </trkpt>
      <trkpt lat="39.1747140" lon="-1.5419700">
        <ele>659.8</ele>
        <time>2019-05-11T08:44:01Z</time>
      </trkpt>
      <trkpt lat="39.1746980" lon="-1.5419230">
        <ele>660.0</ele>
        <time>2019-05-11T08:44:02Z</time>
      </trkpt>
      <trkpt lat="39.1746840" lon="-1.5418780">
        <ele>660.0</ele>
        <time>2019-05-11T08:44:03Z</time>
      </trkpt>
      <trkpt lat="39.1746740" lon="-1.5418280">
        <ele>660.2</ele>
        <time>2019-05-11T08:44:04Z</time>
      </trkpt>
      <trkpt lat="39.1746600" lon="-1.5417770">
        <ele>660.4</ele>
        <time>2019-05-11T08:44:05Z</time>
      </trkpt>
      <trkpt lat="39.1746470" lon="-1.5417240">
        <ele>660.6</ele>
        <time>2019-05-11T08:44:06Z</time>
      </trkpt>
      <trkpt lat="39.1746380" lon="-1.5416710">
        <ele>660.8</ele>
        <time>2019-05-11T08:44:07Z</time>
      </trkpt>
      <trkpt lat="39.1746310" lon="-1.5416200">
        <ele>661.0</ele>
        <time>2019-05-11T08:44:08Z</time>
      </trkpt>
      <trkpt lat="39.1746220" lon="-1.5415710">
        <ele>661.0</ele>
        <time>2019-05-11T08:44:09Z</time>
      </trkpt>
      <trkpt lat="39.1746060" lon="-1.5415270">
        <ele>661.2</ele>
        <time>2019-05-11T08:44:10Z</time>
      </trkpt>
      <trkpt lat="39.1745810" lon="-1.5414870">
        <ele>661.4</ele>
        <time>2019-05-11T08:44:11Z</time>
      </trkpt>
      <trkpt lat="39.1745530" lon="-1.5414490">
        <ele>661.4</ele>
        <time>2019-05-11T08:44:12Z</time>
      </trkpt>
      <trkpt lat="39.1745290" lon="-1.5414060">
        <ele>661.6</ele>
        <time>2019-05-11T08:44:13Z</time>
      </trkpt>
      <trkpt lat="39.1745140" lon="-1.5413550">
        <ele>661.6</ele>
        <time>2019-05-11T08:44:14Z</time>
      </trkpt>
      <trkpt lat="39.1744980" lon="-1.5413050">
        <ele>661.8</ele>
        <time>2019-05-11T08:44:15Z</time>
      </trkpt>
      <trkpt lat="39.1744760" lon="-1.5412580">
        <ele>662.0</ele>
        <time>2019-05-11T08:44:16Z</time>
      </trkpt>
      <trkpt lat="39.1744560" lon="-1.5412100">
        <ele>662.0</ele>
        <time>2019-05-11T08:44:17Z</time>
      </trkpt>
      <trkpt lat="39.1744460" lon="-1.5411580">
        <ele>662.2</ele>
        <time>2019-05-11T08:44:18Z</time>
      </trkpt>
      <trkpt lat="39.1744450" lon="-1.5411020">
        <ele>662.2</ele>
        <time>2019-05-11T08:44:19Z</time>
      </trkpt>
      <trkpt lat="39.1744490" lon="-1.5410440">
        <ele>662.2</ele>
        <time>2019-05-11T08:44:20Z</time>
      </trkpt>
      <trkpt lat="39.1744620" lon="-1.5409830">
        <ele>662.2</ele>
        <time>2019-05-11T08:44:21Z</time>
      </trkpt>
      <trkpt lat="39.1744800" lon="-1.5409220">
        <ele>662.2</ele>
        <time>2019-05-11T08:44:22Z</time>
      </trkpt>
      <trkpt lat="39.1745060" lon="-1.5408650">
        <ele>662.2</ele>
        <time>2019-05-11T08:44:23Z</time>
      </trkpt>
      <trkpt lat="39.1745370" lon="-1.5408150">
        <ele>662.2</ele>
        <time>2019-05-11T08:44:24Z</time>
      </trkpt>
      <trkpt lat="39.1745700" lon="-1.5407690">
        <ele>662.2</ele>
        <time>2019-05-11T08:44:25Z</time>
      </trkpt>
      <trkpt lat="39.1746080" lon="-1.5407300">
        <ele>662.2</ele>
        <time>2019-05-11T08:44:26Z</time>
      </trkpt>
      <trkpt lat="39.1746500" lon="-1.5407010">
        <ele>662.2</ele>
        <time>2019-05-11T08:44:27Z</time>
      </trkpt>
      <trkpt lat="39.1746900" lon="-1.5406790">
        <ele>662.2</ele>
        <time>2019-05-11T08:44:28Z</time>
      </trkpt>
      <trkpt lat="39.1747270" lon="-1.5406540">
        <ele>662.2</ele>
        <time>2019-05-11T08:44:29Z</time>
      </trkpt>
      <trkpt lat="39.1747560" lon="-1.5406160">
        <ele>662.2</ele>
        <time>2019-05-11T08:44:30Z</time>
      </trkpt>
      <trkpt lat="39.1747680" lon="-1.5405630">
        <ele>662.2</ele>
        <time>2019-05-11T08:44:31Z</time>
      </trkpt>
      <trkpt lat="39.1747630" lon="-1.5405050">
        <ele>662.2</ele>
        <time>2019-05-11T08:44:32Z</time>
      </trkpt>
      <trkpt lat="39.1747510" lon="-1.5404450">
        <ele>662.2</ele>
        <time>2019-05-11T08:44:33Z</time>
      </trkpt>
      <trkpt lat="39.1747390" lon="-1.5403820">
        <ele>662.2</ele>
        <time>2019-05-11T08:44:34Z</time>
      </trkpt>
      <trkpt lat="39.1747270" lon="-1.5403160">
        <ele>662.2</ele>
        <time>2019-05-11T08:44:35Z</time>
      </trkpt>
      <trkpt lat="39.1747100" lon="-1.5402500">
        <ele>662.2</ele>
        <time>2019-05-11T08:44:36Z</time>
      </trkpt>
      <trkpt lat="39.1746840" lon="-1.5401880">
        <ele>662.2</ele>
        <time>2019-05-11T08:44:37Z</time>
      </trkpt>
      <trkpt lat="39.1746570" lon="-1.5401270">
        <ele>662.2</ele>
        <time>2019-05-11T08:44:38Z</time>
      </trkpt>
      <trkpt lat="39.1746370" lon="-1.5400640">
        <ele>662.2</ele>
        <time>2019-05-11T08:44:39Z</time>
      </trkpt>
      <trkpt lat="39.1746130" lon="-1.5400020">
        <ele>662.2</ele>
        <time>2019-05-11T08:44:40Z</time>
      </trkpt>
      <trkpt lat="39.1745810" lon="-1.5399480">
        <ele>662.2</ele>
        <time>2019-05-11T08:44:41Z</time>
      </trkpt>
      <trkpt lat="39.1745500" lon="-1.5398930">
        <ele>662.2</ele>
        <time>2019-05-11T08:44:42Z</time>
      </trkpt>
      <trkpt lat="39.1745350" lon="-1.5398300">
        <ele>662.2</ele>
        <time>2019-05-11T08:44:43Z</time>
      </trkpt>
      <trkpt lat="39.1745310" lon="-1.5397600">
        <ele>662.2</ele>
        <time>2019-05-11T08:44:44Z</time>
      </trkpt>
      <trkpt lat="39.1745330" lon="-1.5396900">
        <ele>662.2</ele>
        <time>2019-05-11T08:44:45Z</time>
      </trkpt>
      <trkpt lat="39.1745400" lon="-1.5396180">
        <ele>662.2</ele>
        <time>2019-05-11T08:44:46Z</time>
      </trkpt>
      <trkpt lat="39.1745500" lon="-1.5395470">
        <ele>662.4</ele>
        <time>2019-05-11T08:44:47Z</time>
      </trkpt>
      <trkpt lat="39.1745630" lon="-1.5394750">
        <ele>662.4</ele>
        <time>2019-05-11T08:44:48Z</time>
      </trkpt>
      <trkpt lat="39.1745790" lon="-1.5394040">
        <ele>662.4</ele>
        <time>2019-05-11T08:44:49Z</time>
      </trkpt>
      <trkpt lat="39.1745930" lon="-1.5393330">
        <ele>662.4</ele>
        <time>2019-05-11T08:44:50Z</time>
      </trkpt>
      <trkpt lat="39.1746030" lon="-1.5392610">
        <ele>662.4</ele>
        <time>2019-05-11T08:44:51Z</time>
      </trkpt>
      <trkpt lat="39.1746160" lon="-1.5391860">
        <ele>662.4</ele>
        <time>2019-05-11T08:44:52Z</time>
      </trkpt>
      <trkpt lat="39.1746330" lon="-1.5391110">
        <ele>662.6</ele>
        <time>2019-05-11T08:44:53Z</time>
      </trkpt>
      <trkpt lat="39.1746580" lon="-1.5390370">
        <ele>662.8</ele>
        <time>2019-05-11T08:44:54Z</time>
      </trkpt>
      <trkpt lat="39.1746900" lon="-1.5389650">
        <ele>662.8</ele>
        <time>2019-05-11T08:44:55Z</time>
      </trkpt>
      <trkpt lat="39.1747240" lon="-1.5388930">
        <ele>663.0</ele>
        <time>2019-05-11T08:44:56Z</time>
      </trkpt>
      <trkpt lat="39.1747550" lon="-1.5388180">
        <ele>663.0</ele>
        <time>2019-05-11T08:44:57Z</time>
      </trkpt>
      <trkpt lat="39.1747810" lon="-1.5387380">
        <ele>663.0</ele>
        <time>2019-05-11T08:44:58Z</time>
      </trkpt>
      <trkpt lat="39.1748000" lon="-1.5386570">
        <ele>663.2</ele>
        <time>2019-05-11T08:44:59Z</time>
      </trkpt>
      <trkpt lat="39.1748140" lon="-1.5385750">
        <ele>663.2</ele>
        <time>2019-05-11T08:45:00Z</time>
      </trkpt>
      <trkpt lat="39.1748260" lon="-1.5384920">
        <ele>663.2</ele>
        <time>2019-05-11T08:45:01Z</time>
      </trkpt>
      <trkpt lat="39.1748320" lon="-1.5384100">
        <ele>663.2</ele>
        <time>2019-05-11T08:45:02Z</time>
      </trkpt>
      <trkpt lat="39.1748330" lon="-1.5383290">
        <ele>663.2</ele>
        <time>2019-05-11T08:45:03Z</time>
      </trkpt>
      <trkpt lat="39.1748400" lon="-1.5382500">
        <ele>663.4</ele>
        <time>2019-05-11T08:45:04Z</time>
      </trkpt>
      <trkpt lat="39.1748570" lon="-1.5381720">
        <ele>663.4</ele>
        <time>2019-05-11T08:45:05Z</time>
      </trkpt>
      <trkpt lat="39.1748730" lon="-1.5380940">
        <ele>663.4</ele>
        <time>2019-05-11T08:45:06Z</time>
      </trkpt>
      <trkpt lat="39.1748840" lon="-1.5380130">
        <ele>663.4</ele>
        <time>2019-05-11T08:45:07Z</time>
      </trkpt>
      <trkpt lat="39.1748940" lon="-1.5379300">
        <ele>663.2</ele>
        <time>2019-05-11T08:45:08Z</time>
      </trkpt>
      <trkpt lat="39.1749100" lon="-1.5378480">
        <ele>663.2</ele>
        <time>2019-05-11T08:45:09Z</time>
      </trkpt>
      <trkpt lat="39.1749360" lon="-1.5377710">
        <ele>663.2</ele>
        <time>2019-05-11T08:45:10Z</time>
      </trkpt>
      <trkpt lat="39.1749670" lon="-1.5377020">
        <ele>663.2</ele>
        <time>2019-05-11T08:45:11Z</time>
      </trkpt>
      <trkpt lat="39.1750080" lon="-1.5376460">
        <ele>663.2</ele>
        <time>2019-05-11T08:45:12Z</time>
      </trkpt>
      <trkpt lat="39.1750590" lon="-1.5376120">
        <ele>663.2</ele>
        <time>2019-05-11T08:45:13Z</time>
      </trkpt>
      <trkpt lat="39.1751130" lon="-1.5376080">
        <ele>663.2</ele>
        <time>2019-05-11T08:45:14Z</time>
      </trkpt>
      <trkpt lat="39.1751630" lon="-1.5376270">
        <ele>663.2</ele>
        <time>2019-05-11T08:45:15Z</time>
      </trkpt>
      <trkpt lat="39.1752130" lon="-1.5376570">
        <ele>663.2</ele>
        <time>2019-05-11T08:45:16Z</time>
      </trkpt>
      <trkpt lat="39.1752610" lon="-1.5376900">
        <ele>663.2</ele>
        <time>2019-05-11T08:45:17Z</time>
      </trkpt>
      <trkpt lat="39.1753110" lon="-1.5377210">
        <ele>663.2</ele>
        <time>2019-05-11T08:45:18Z</time>
      </trkpt>
      <trkpt lat="39.1753640" lon="-1.5377480">
        <ele>663.2</ele>
        <time>2019-05-11T08:45:19Z</time>
      </trkpt>
      <trkpt lat="39.1754160" lon="-1.5377730">
        <ele>663.2</ele>
        <time>2019-05-11T08:45:20Z</time>
      </trkpt>
      <trkpt lat="39.1754640" lon="-1.5377850">
        <ele>663.2</ele>
        <time>2019-05-11T08:45:21Z</time>
      </trkpt>
      <trkpt lat="39.1755050" lon="-1.5377710">
        <ele>663.2</ele>
        <time>2019-05-11T08:45:22Z</time>
      </trkpt>
      <trkpt lat="39.1755390" lon="-1.5377360">
        <ele>663.2</ele>
        <time>2019-05-11T08:45:23Z</time>
      </trkpt>
      <trkpt lat="39.1755640" lon="-1.5376880">
        <ele>663.2</ele>
        <time>2019-05-11T08:45:24Z</time>
      </trkpt>
      <trkpt lat="39.1755800" lon="-1.5376290">
        <ele>663.2</ele>
        <time>2019-05-11T08:45:25Z</time>
      </trkpt>
      <trkpt lat="39.1755930" lon="-1.5375650">
        <ele>663.4</ele>
        <time>2019-05-11T08:45:26Z</time>
      </trkpt>
      <trkpt lat="39.1756000" lon="-1.5374990">
        <ele>663.4</ele>
        <time>2019-05-11T08:45:27Z</time>
      </trkpt>
      <trkpt lat="39.1756050" lon="-1.5374340">
        <ele>663.4</ele>
        <time>2019-05-11T08:45:28Z</time>
      </trkpt>
      <trkpt lat="39.1756110" lon="-1.5373700">
        <ele>663.4</ele>
        <time>2019-05-11T08:45:29Z</time>
      </trkpt>
      <trkpt lat="39.1756100" lon="-1.5373040">
        <ele>663.4</ele>
        <time>2019-05-11T08:45:30Z</time>
      </trkpt>
      <trkpt lat="39.1756060" lon="-1.5372340">
        <ele>663.4</ele>
        <time>2019-05-11T08:45:31Z</time>
      </trkpt>
      <trkpt lat="39.1756000" lon="-1.5371630">
        <ele>663.4</ele>
        <time>2019-05-11T08:45:32Z</time>
      </trkpt>
      <trkpt lat="39.1756010" lon="-1.5370900">
        <ele>663.6</ele>
        <time>2019-05-11T08:45:33Z</time>
      </trkpt>
      <trkpt lat="39.1756170" lon="-1.5370190">
        <ele>663.6</ele>
        <time>2019-05-11T08:45:34Z</time>
      </trkpt>
      <trkpt lat="39.1756400" lon="-1.5369500">
        <ele>663.6</ele>
        <time>2019-05-11T08:45:35Z</time>
      </trkpt>
      <trkpt lat="39.1756650" lon="-1.5368830">
        <ele>663.6</ele>
        <time>2019-05-11T08:45:36Z</time>
      </trkpt>
      <trkpt lat="39.1756970" lon="-1.5368240">
        <ele>663.6</ele>
        <time>2019-05-11T08:45:37Z</time>
      </trkpt>
      <trkpt lat="39.1757370" lon="-1.5367730">
        <ele>663.6</ele>
        <time>2019-05-11T08:45:38Z</time>
      </trkpt>
      <trkpt lat="39.1757830" lon="-1.5367270">
        <ele>663.6</ele>
        <time>2019-05-11T08:45:39Z</time>
      </trkpt>
      <trkpt lat="39.1758310" lon="-1.5366800">
        <ele>663.6</ele>
        <time>2019-05-11T08:45:40Z</time>
      </trkpt>
      <trkpt lat="39.1758780" lon="-1.5366320">
        <ele>663.6</ele>
        <time>2019-05-11T08:45:41Z</time>
      </trkpt>
      <trkpt lat="39.1759270" lon="-1.5365820">
        <ele>663.6</ele>
        <time>2019-05-11T08:45:42Z</time>
      </trkpt>
      <trkpt lat="39.1759790" lon="-1.5365350">
        <ele>663.6</ele>
        <time>2019-05-11T08:45:43Z</time>
      </trkpt>
      <trkpt lat="39.1760350" lon="-1.5364930">
        <ele>663.6</ele>
        <time>2019-05-11T08:45:44Z</time>
      </trkpt>
      <trkpt lat="39.1760950" lon="-1.5364640">
        <ele>663.6</ele>
        <time>2019-05-11T08:45:45Z</time>
      </trkpt>
      <trkpt lat="39.1761580" lon="-1.5364490">
        <ele>663.6</ele>
        <time>2019-05-11T08:45:46Z</time>
      </trkpt>
      <trkpt lat="39.1762230" lon="-1.5364410">
        <ele>663.6</ele>
        <time>2019-05-11T08:45:47Z</time>
      </trkpt>
      <trkpt lat="39.1762910" lon="-1.5364370">
        <ele>663.6</ele>
        <time>2019-05-11T08:45:48Z</time>
      </trkpt>
      <trkpt lat="39.1763580" lon="-1.5364270">
        <ele>663.6</ele>
        <time>2019-05-11T08:45:49Z</time>
      </trkpt>
      <trkpt lat="39.1764230" lon="-1.5364040">
        <ele>663.6</ele>
        <time>2019-05-11T08:45:50Z</time>
      </trkpt>
      <trkpt lat="39.1764890" lon="-1.5363770">
        <ele>663.6</ele>
        <time>2019-05-11T08:45:51Z</time>
      </trkpt>
      <trkpt lat="39.1765590" lon="-1.5363580">
        <ele>663.6</ele>
        <time>2019-05-11T08:45:52Z</time>
      </trkpt>
      <trkpt lat="39.1766310" lon="-1.5363570">
        <ele>663.6</ele>
        <time>2019-05-11T08:45:53Z</time>
      </trkpt>
      <trkpt lat="39.1767020" lon="-1.5363660">
        <ele>663.6</ele>
        <time>2019-05-11T08:45:54Z</time>
      </trkpt>
      <trkpt lat="39.1767730" lon="-1.5363770">
        <ele>663.4</ele>
        <time>2019-05-11T08:45:55Z</time>
      </trkpt>
      <trkpt lat="39.1768440" lon="-1.5363930">
        <ele>663.4</ele>
        <time>2019-05-11T08:45:56Z</time>
      </trkpt>
      <trkpt lat="39.1769140" lon="-1.5364160">
        <ele>663.4</ele>
        <time>2019-05-11T08:45:57Z</time>
      </trkpt>
      <trkpt lat="39.1769810" lon="-1.5364470">
        <ele>663.4</ele>
        <time>2019-05-11T08:45:58Z</time>
      </trkpt>
      <trkpt lat="39.1770490" lon="-1.5364660">
        <ele>663.0</ele>
        <time>2019-05-11T08:45:59Z</time>
      </trkpt>
      <trkpt lat="39.1771170" lon="-1.5364590">
        <ele>662.6</ele>
        <time>2019-05-11T08:46:00Z</time>
      </trkpt>
      <trkpt lat="39.1771840" lon="-1.5364380">
        <ele>662.2</ele>
        <time>2019-05-11T08:46:01Z</time>
      </trkpt>
      <trkpt lat="39.1772520" lon="-1.5364120">
        <ele>662.0</ele>
        <time>2019-05-11T08:46:02Z</time>
      </trkpt>
      <trkpt lat="39.1773180" lon="-1.5363810">
        <ele>661.8</ele>
        <time>2019-05-11T08:46:03Z</time>
      </trkpt>
      <trkpt lat="39.1773840" lon="-1.5363540">
        <ele>661.8</ele>
        <time>2019-05-11T08:46:04Z</time>
      </trkpt>
      <trkpt lat="39.1774500" lon="-1.5363420">
        <ele>661.6</ele>
        <time>2019-05-11T08:46:05Z</time>
      </trkpt>
      <trkpt lat="39.1775150" lon="-1.5363510">
        <ele>661.4</ele>
        <time>2019-05-11T08:46:06Z</time>
      </trkpt>
      <trkpt lat="39.1775760" lon="-1.5363770">
        <ele>661.2</ele>
        <time>2019-05-11T08:46:07Z</time>
      </trkpt>
      <trkpt lat="39.1776330" lon="-1.5364160">
        <ele>661.2</ele>
        <time>2019-05-11T08:46:08Z</time>
      </trkpt>
      <trkpt lat="39.1776840" lon="-1.5364660">
        <ele>661.0</ele>
        <time>2019-05-11T08:46:09Z</time>
      </trkpt>
      <trkpt lat="39.1777320" lon="-1.5365250">
        <ele>661.0</ele>
        <time>2019-05-11T08:46:10Z</time>
      </trkpt>
      <trkpt lat="39.1777760" lon="-1.5365920">
        <ele>661.0</ele>
        <time>2019-05-11T08:46:11Z</time>
      </trkpt>
      <trkpt lat="39.1778140" lon="-1.5366660">
        <ele>661.0</ele>
        <time>2019-05-11T08:46:12Z</time>
      </trkpt>
      <trkpt lat="39.1778450" lon="-1.5367470">
        <ele>661.0</ele>
        <time>2019-05-11T08:46:13Z</time>
      </trkpt>
      <trkpt lat="39.1778660" lon="-1.5368330">
        <ele>661.0</ele>
        <time>2019-05-11T08:46:14Z</time>
      </trkpt>
      <trkpt lat="39.1778830" lon="-1.5369200">
        <ele>661.0</ele>
        <time>2019-05-11T08:46:15Z</time>
      </trkpt>
      <trkpt lat="39.1779040" lon="-1.5370070">
        <ele>661.0</ele>
        <time>2019-05-11T08:46:16Z</time>
      </trkpt>
      <trkpt lat="39.1779330" lon="-1.5370880">
        <ele>661.0</ele>
        <time>2019-05-11T08:46:17Z</time>
      </trkpt>
      <trkpt lat="39.1779700" lon="-1.5371640">
        <ele>661.0</ele>
        <time>2019-05-11T08:46:18Z</time>
      </trkpt>
      <trkpt lat="39.1780090" lon="-1.5372360">
        <ele>661.0</ele>
        <time>2019-05-11T08:46:19Z</time>
      </trkpt>
      <trkpt lat="39.1780480" lon="-1.5373090">
        <ele>661.0</ele>
        <time>2019-05-11T08:46:20Z</time>
      </trkpt>
      <trkpt lat="39.1780900" lon="-1.5373770">
        <ele>661.0</ele>
        <time>2019-05-11T08:46:21Z</time>
      </trkpt>
      <trkpt lat="39.1781370" lon="-1.5374300">
        <ele>661.0</ele>
        <time>2019-05-11T08:46:22Z</time>
      </trkpt>
      <trkpt lat="39.1781850" lon="-1.5374700">
        <ele>661.2</ele>
        <time>2019-05-11T08:46:23Z</time>
      </trkpt>
      <trkpt lat="39.1782310" lon="-1.5375000">
        <ele>661.2</ele>
        <time>2019-05-11T08:46:24Z</time>
      </trkpt>
      <trkpt lat="39.1782760" lon="-1.5375210">
        <ele>661.2</ele>
        <time>2019-05-11T08:46:25Z</time>
      </trkpt>
      <trkpt lat="39.1783210" lon="-1.5375330">
        <ele>661.4</ele>
        <time>2019-05-11T08:46:26Z</time>
      </trkpt>
      <trkpt lat="39.1783620" lon="-1.5375340">
        <ele>661.4</ele>
        <time>2019-05-11T08:46:27Z</time>
      </trkpt>
      <trkpt lat="39.1784000" lon="-1.5375280">
        <ele>661.4</ele>
        <time>2019-05-11T08:46:28Z</time>
      </trkpt>
      <trkpt lat="39.1784420" lon="-1.5375200">
        <ele>661.4</ele>
        <time>2019-05-11T08:46:29Z</time>
      </trkpt>
      <trkpt lat="39.1784880" lon="-1.5375150">
        <ele>661.4</ele>
        <time>2019-05-11T08:46:30Z</time>
      </trkpt>
      <trkpt lat="39.1785370" lon="-1.5375140">
        <ele>661.8</ele>
        <time>2019-05-11T08:46:31Z</time>
      </trkpt>
      <trkpt lat="39.1785900" lon="-1.5375170">
        <ele>662.0</ele>
        <time>2019-05-11T08:46:32Z</time>
      </trkpt>
      <trkpt lat="39.1786440" lon="-1.5375240">
        <ele>662.2</ele>
        <time>2019-05-11T08:46:33Z</time>
      </trkpt>
      <trkpt lat="39.1787010" lon="-1.5375330">
        <ele>662.2</ele>
        <time>2019-05-11T08:46:34Z</time>
      </trkpt>
      <trkpt lat="39.1787610" lon="-1.5375430">
        <ele>662.4</ele>
        <time>2019-05-11T08:46:35Z</time>
      </trkpt>
      <trkpt lat="39.1788240" lon="-1.5375610">
        <ele>662.6</ele>
        <time>2019-05-11T08:46:36Z</time>
      </trkpt>
      <trkpt lat="39.1788880" lon="-1.5375880">
        <ele>662.6</ele>
        <time>2019-05-11T08:46:37Z</time>
      </trkpt>
      <trkpt lat="39.1789480" lon="-1.5376270">
        <ele>662.6</ele>
        <time>2019-05-11T08:46:38Z</time>
      </trkpt>
      <trkpt lat="39.1790010" lon="-1.5376790">
        <ele>662.6</ele>
        <time>2019-05-11T08:46:39Z</time>
      </trkpt>
      <trkpt lat="39.1790420" lon="-1.5377440">
        <ele>662.6</ele>
        <time>2019-05-11T08:46:40Z</time>
      </trkpt>
      <trkpt lat="39.1790750" lon="-1.5378140">
        <ele>662.6</ele>
        <time>2019-05-11T08:46:41Z</time>
      </trkpt>
      <trkpt lat="39.1791090" lon="-1.5378730">
        <ele>662.6</ele>
        <time>2019-05-11T08:46:42Z</time>
      </trkpt>
      <trkpt lat="39.1791530" lon="-1.5379050">
        <ele>662.8</ele>
        <time>2019-05-11T08:46:43Z</time>
      </trkpt>
      <trkpt lat="39.1792020" lon="-1.5379040">
        <ele>662.8</ele>
        <time>2019-05-11T08:46:44Z</time>
      </trkpt>
      <trkpt lat="39.1792460" lon="-1.5378740">
        <ele>662.8</ele>
        <time>2019-05-11T08:46:45Z</time>
      </trkpt>
      <trkpt lat="39.1792830" lon="-1.5378220">
        <ele>662.6</ele>
        <time>2019-05-11T08:46:46Z</time>
      </trkpt>
      <trkpt lat="39.1793130" lon="-1.5377590">
        <ele>662.6</ele>
        <time>2019-05-11T08:46:47Z</time>
      </trkpt>
      <trkpt lat="39.1793420" lon="-1.5376950">
        <ele>662.6</ele>
        <time>2019-05-11T08:46:48Z</time>
      </trkpt>
      <trkpt lat="39.1793700" lon="-1.5376310">
        <ele>662.4</ele>
        <time>2019-05-11T08:46:49Z</time>
      </trkpt>
      <trkpt lat="39.1794040" lon="-1.5375700">
        <ele>662.0</ele>
        <time>2019-05-11T08:46:50Z</time>
      </trkpt>
      <trkpt lat="39.1794380" lon="-1.5375100">
        <ele>661.8</ele>
        <time>2019-05-11T08:46:51Z</time>
      </trkpt>
      <trkpt lat="39.1794700" lon="-1.5374500">
        <ele>661.8</ele>
        <time>2019-05-11T08:46:52Z</time>
      </trkpt>
      <trkpt lat="39.1795000" lon="-1.5373900">
        <ele>661.6</ele>
        <time>2019-05-11T08:46:53Z</time>
      </trkpt>
      <trkpt lat="39.1795220" lon="-1.5373280">
        <ele>661.6</ele>
        <time>2019-05-11T08:46:54Z</time>
      </trkpt>
      <trkpt lat="39.1795320" lon="-1.5372610">
        <ele>661.4</ele>
        <time>2019-05-11T08:46:55Z</time>
      </trkpt>
      <trkpt lat="39.1795350" lon="-1.5371930">
        <ele>661.4</ele>
        <time>2019-05-11T08:46:56Z</time>
      </trkpt>
      <trkpt lat="39.1795420" lon="-1.5371280">
        <ele>661.6</ele>
        <time>2019-05-11T08:46:57Z</time>
      </trkpt>
      <trkpt lat="39.1795500" lon="-1.5370650">
        <ele>661.6</ele>
        <time>2019-05-11T08:46:58Z</time>
      </trkpt>
      <trkpt lat="39.1795450" lon="-1.5369980">
        <ele>661.2</ele>
        <time>2019-05-11T08:46:59Z</time>
      </trkpt>
      <trkpt lat="39.1795220" lon="-1.5369340">
        <ele>661.2</ele>
        <time>2019-05-11T08:47:00Z</time>
      </trkpt>
      <trkpt lat="39.1794940" lon="-1.5368700">
        <ele>661.4</ele>
        <time>2019-05-11T08:47:01Z</time>
      </trkpt>
      <trkpt lat="39.1794770" lon="-1.5367950">
        <ele>661.2</ele>
        <time>2019-05-11T08:47:02Z</time>
      </trkpt>
      <trkpt lat="39.1794750" lon="-1.5367160">
        <ele>661.2</ele>
        <time>2019-05-11T08:47:03Z</time>
      </trkpt>
      <trkpt lat="39.1794850" lon="-1.5366420">
        <ele>661.2</ele>
        <time>2019-05-11T08:47:04Z</time>
      </trkpt>
      <trkpt lat="39.1794920" lon="-1.5365800">
        <ele>661.2</ele>
        <time>2019-05-11T08:47:05Z</time>
      </trkpt>
      <trkpt lat="39.1794890" lon="-1.5365290">
        <ele>661.2</ele>
        <time>2019-05-11T08:47:06Z</time>
      </trkpt>
      <trkpt lat="39.1794740" lon="-1.5364790">
        <ele>661.2</ele>
        <time>2019-05-11T08:47:07Z</time>
      </trkpt>
      <trkpt lat="39.1794510" lon="-1.5364330">
        <ele>661.2</ele>
        <time>2019-05-11T08:47:08Z</time>
      </trkpt>
      <trkpt lat="39.1794320" lon="-1.5363890">
        <ele>661.0</ele>
        <time>2019-05-11T08:47:09Z</time>
      </trkpt>
      <trkpt lat="39.1794260" lon="-1.5363470">
        <ele>660.8</ele>
        <time>2019-05-11T08:47:10Z</time>
      </trkpt>
      <trkpt lat="39.1794310" lon="-1.5363040">
        <ele>660.6</ele>
        <time>2019-05-11T08:47:11Z</time>
      </trkpt>
      <trkpt lat="39.1794430" lon="-1.5362610">
        <ele>660.4</ele>
        <time>2019-05-11T08:47:12Z</time>
      </trkpt>
      <trkpt lat="39.1794560" lon="-1.5362080">
        <ele>660.0</ele>
        <time>2019-05-11T08:47:13Z</time>
      </trkpt>
      <trkpt lat="39.1794610" lon="-1.5361570">
        <ele>659.6</ele>
        <time>2019-05-11T08:47:14Z</time>
      </trkpt>
      <trkpt lat="39.1794640" lon="-1.5361080">
        <ele>659.2</ele>
        <time>2019-05-11T08:47:15Z</time>
      </trkpt>
      <trkpt lat="39.1794650" lon="-1.5360560">
        <ele>658.4</ele>
        <time>2019-05-11T08:47:16Z</time>
      </trkpt>
      <trkpt lat="39.1794630" lon="-1.5360030">
        <ele>657.8</ele>
        <time>2019-05-11T08:47:17Z</time>
      </trkpt>
      <trkpt lat="39.1794510" lon="-1.5359570">
        <ele>657.0</ele>
        <time>2019-05-11T08:47:18Z</time>
      </trkpt>
      <trkpt lat="39.1794290" lon="-1.5359160">
        <ele>656.6</ele>
        <time>2019-05-11T08:47:19Z</time>
      </trkpt>
      <trkpt lat="39.1794070" lon="-1.5358700">
        <ele>655.8</ele>
        <time>2019-05-11T08:47:20Z</time>
      </trkpt>
      <trkpt lat="39.1793960" lon="-1.5358090">
        <ele>655.0</ele>
        <time>2019-05-11T08:47:21Z</time>
      </trkpt>
      <trkpt lat="39.1793940" lon="-1.5357420">
        <ele>653.2</ele>
        <time>2019-05-11T08:47:22Z</time>
      </trkpt>
      <trkpt lat="39.1793930" lon="-1.5356720">
        <ele>652.6</ele>
        <time>2019-05-11T08:47:23Z</time>
      </trkpt>
      <trkpt lat="39.1793870" lon="-1.5355990">
        <ele>651.8</ele>
        <time>2019-05-11T08:47:24Z</time>
      </trkpt>
      <trkpt lat="39.1793760" lon="-1.5355240">
        <ele>651.0</ele>
        <time>2019-05-11T08:47:25Z</time>
      </trkpt>
      <trkpt lat="39.1793660" lon="-1.5354490">
        <ele>650.4</ele>
        <time>2019-05-11T08:47:26Z</time>
      </trkpt>
      <trkpt lat="39.1793640" lon="-1.5353800">
        <ele>649.8</ele>
        <time>2019-05-11T08:47:27Z</time>
      </trkpt>
      <trkpt lat="39.1793740" lon="-1.5353220">
        <ele>649.2</ele>
        <time>2019-05-11T08:47:28Z</time>
      </trkpt>
      <trkpt lat="39.1794010" lon="-1.5352760">
        <ele>648.8</ele>
        <time>2019-05-11T08:47:29Z</time>
      </trkpt>
      <trkpt lat="39.1794440" lon="-1.5352390">
        <ele>648.4</ele>
        <time>2019-05-11T08:47:30Z</time>
      </trkpt>
      <trkpt lat="39.1794880" lon="-1.5351970">
        <ele>648.4</ele>
        <time>2019-05-11T08:47:31Z</time>
      </trkpt>
      <trkpt lat="39.1795260" lon="-1.5351400">
        <ele>648.2</ele>
        <time>2019-05-11T08:47:32Z</time>
      </trkpt>
      <trkpt lat="39.1795490" lon="-1.5350720">
        <ele>647.8</ele>
        <time>2019-05-11T08:47:33Z</time>
      </trkpt>
      <trkpt lat="39.1795590" lon="-1.5349990">
        <ele>647.4</ele>
        <time>2019-05-11T08:47:34Z</time>
      </trkpt>
      <trkpt lat="39.1795670" lon="-1.5349320">
        <ele>647.0</ele>
        <time>2019-05-11T08:47:35Z</time>
      </trkpt>
      <trkpt lat="39.1795870" lon="-1.5348850">
        <ele>646.6</ele>
        <time>2019-05-11T08:47:36Z</time>
      </trkpt>
      <trkpt lat="39.1796220" lon="-1.5348620">
        <ele>646.0</ele>
        <time>2019-05-11T08:47:37Z</time>
      </trkpt>
      <trkpt lat="39.1796530" lon="-1.5348480">
        <ele>645.8</ele>
        <time>2019-05-11T08:47:38Z</time>
      </trkpt>
      <trkpt lat="39.1796790" lon="-1.5348310">
        <ele>645.6</ele>
        <time>2019-05-11T08:47:39Z</time>
      </trkpt>
      <trkpt lat="39.1797030" lon="-1.5348030">
        <ele>645.4</ele>
        <time>2019-05-11T08:47:40Z</time>
      </trkpt>
      <trkpt lat="39.1797350" lon="-1.5347710">
        <ele>645.2</ele>
        <time>2019-05-11T08:47:41Z</time>
      </trkpt>
      <trkpt lat="39.1797680" lon="-1.5347330">
        <ele>645.2</ele>
        <time>2019-05-11T08:47:42Z</time>
      </trkpt>
      <trkpt lat="39.1798040" lon="-1.5346960">
        <ele>645.0</ele>
        <time>2019-05-11T08:47:43Z</time>
      </trkpt>
      <trkpt lat="39.1798440" lon="-1.5346640">
        <ele>644.8</ele>
        <time>2019-05-11T08:47:44Z</time>
      </trkpt>
      <trkpt lat="39.1798850" lon="-1.5346360">
        <ele>644.4</ele>
        <time>2019-05-11T08:47:45Z</time>
      </trkpt>
      <trkpt lat="39.1799180" lon="-1.5346010">
        <ele>644.0</ele>
        <time>2019-05-11T08:47:46Z</time>
      </trkpt>
      <trkpt lat="39.1799480" lon="-1.5345650">
        <ele>643.6</ele>
        <time>2019-05-11T08:47:47Z</time>
      </trkpt>
      <trkpt lat="39.1799800" lon="-1.5345190">
        <ele>643.4</ele>
        <time>2019-05-11T08:47:48Z</time>
      </trkpt>
      <trkpt lat="39.1800170" lon="-1.5344730">
        <ele>643.2</ele>
        <time>2019-05-11T08:47:49Z</time>
      </trkpt>
      <trkpt lat="39.1800540" lon="-1.5344270">
        <ele>642.8</ele>
        <time>2019-05-11T08:47:50Z</time>
      </trkpt>
      <trkpt lat="39.1800840" lon="-1.5343790">
        <ele>642.0</ele>
        <time>2019-05-11T08:47:51Z</time>
      </trkpt>
      <trkpt lat="39.1801090" lon="-1.5343250">
        <ele>641.4</ele>
        <time>2019-05-11T08:47:52Z</time>
      </trkpt>
      <trkpt lat="39.1801230" lon="-1.5342640">
        <ele>640.8</ele>
        <time>2019-05-11T08:47:53Z</time>
      </trkpt>
      <trkpt lat="39.1801310" lon="-1.5342000">
        <ele>640.4</ele>
        <time>2019-05-11T08:47:54Z</time>
      </trkpt>
      <trkpt lat="39.1801300" lon="-1.5341430">
        <ele>640.2</ele>
        <time>2019-05-11T08:47:55Z</time>
      </trkpt>
      <trkpt lat="39.1801180" lon="-1.5340850">
        <ele>639.8</ele>
        <time>2019-05-11T08:47:56Z</time>
      </trkpt>
      <trkpt lat="39.1801010" lon="-1.5340240">
        <ele>639.6</ele>
        <time>2019-05-11T08:47:57Z</time>
      </trkpt>
      <trkpt lat="39.1800820" lon="-1.5339700">
        <ele>639.6</ele>
        <time>2019-05-11T08:47:58Z</time>
      </trkpt>
      <trkpt lat="39.1800600" lon="-1.5339190">
        <ele>639.2</ele>
        <time>2019-05-11T08:47:59Z</time>
      </trkpt>
      <trkpt lat="39.1800420" lon="-1.5338680">
        <ele>639.0</ele>
        <time>2019-05-11T08:48:00Z</time>
      </trkpt>
      <trkpt lat="39.1800220" lon="-1.5338130">
        <ele>638.4</ele>
        <time>2019-05-11T08:48:01Z</time>
      </trkpt>
      <trkpt lat="39.1800000" lon="-1.5337480">
        <ele>637.6</ele>
        <time>2019-05-11T08:48:02Z</time>
      </trkpt>
      <trkpt lat="39.1799810" lon="-1.5336770">
        <ele>636.6</ele>
        <time>2019-05-11T08:48:03Z</time>
      </trkpt>
      <trkpt lat="39.1799620" lon="-1.5336060">
        <ele>635.6</ele>
        <time>2019-05-11T08:48:04Z</time>
      </trkpt>
      <trkpt lat="39.1799500" lon="-1.5335390">
        <ele>634.6</ele>
        <time>2019-05-11T08:48:05Z</time>
      </trkpt>
      <trkpt lat="39.1799470" lon="-1.5334760">
        <ele>633.6</ele>
        <time>2019-05-11T08:48:06Z</time>
      </trkpt>
      <trkpt lat="39.1799500" lon="-1.5334080">
        <ele>632.8</ele>
        <time>2019-05-11T08:48:07Z</time>
      </trkpt>
      <trkpt lat="39.1799610" lon="-1.5333370">
        <ele>632.0</ele>
        <time>2019-05-11T08:48:08Z</time>
      </trkpt>
      <trkpt lat="39.1799770" lon="-1.5332680">
        <ele>631.2</ele>
        <time>2019-05-11T08:48:09Z</time>
      </trkpt>
      <trkpt lat="39.1800000" lon="-1.5332000">
        <ele>630.4</ele>
        <time>2019-05-11T08:48:10Z</time>
      </trkpt>
      <trkpt lat="39.1800300" lon="-1.5331320">
        <ele>629.8</ele>
        <time>2019-05-11T08:48:11Z</time>
      </trkpt>
      <trkpt lat="39.1800580" lon="-1.5330630">
        <ele>629.2</ele>
        <time>2019-05-11T08:48:12Z</time>
      </trkpt>
      <trkpt lat="39.1800790" lon="-1.5329950">
        <ele>628.4</ele>
        <time>2019-05-11T08:48:13Z</time>
      </trkpt>
      <trkpt lat="39.1800870" lon="-1.5329270">
        <ele>627.6</ele>
        <time>2019-05-11T08:48:14Z</time>
      </trkpt>
      <trkpt lat="39.1800840" lon="-1.5328540">
        <ele>627.2</ele>
        <time>2019-05-11T08:48:15Z</time>
      </trkpt>
      <trkpt lat="39.1800720" lon="-1.5327720">
        <ele>627.0</ele>
        <time>2019-05-11T08:48:16Z</time>
      </trkpt>
      <trkpt lat="39.1800680" lon="-1.5326940">
        <ele>626.8</ele>
        <time>2019-05-11T08:48:17Z</time>
      </trkpt>
      <trkpt lat="39.1800780" lon="-1.5326230">
        <ele>626.6</ele>
        <time>2019-05-11T08:48:18Z</time>
      </trkpt>
      <trkpt lat="39.1800990" lon="-1.5325620">
        <ele>626.4</ele>
        <time>2019-05-11T08:48:19Z</time>
      </trkpt>
      <trkpt lat="39.1801330" lon="-1.5325100">
        <ele>626.0</ele>
        <time>2019-05-11T08:48:20Z</time>
      </trkpt>
      <trkpt lat="39.1801700" lon="-1.5324560">
        <ele>625.8</ele>
        <time>2019-05-11T08:48:21Z</time>
      </trkpt>
      <trkpt lat="39.1802020" lon="-1.5324000">
        <ele>625.6</ele>
        <time>2019-05-11T08:48:22Z</time>
      </trkpt>
      <trkpt lat="39.1802300" lon="-1.5323410">
        <ele>625.6</ele>
        <time>2019-05-11T08:48:23Z</time>
      </trkpt>
      <trkpt lat="39.1802470" lon="-1.5322760">
        <ele>625.6</ele>
        <time>2019-05-11T08:48:24Z</time>
      </trkpt>
      <trkpt lat="39.1802500" lon="-1.5322070">
        <ele>625.6</ele>
        <time>2019-05-11T08:48:25Z</time>
      </trkpt>
      <trkpt lat="39.1802460" lon="-1.5321340">
        <ele>625.4</ele>
        <time>2019-05-11T08:48:26Z</time>
      </trkpt>
      <trkpt lat="39.1802410" lon="-1.5320610">
        <ele>625.4</ele>
        <time>2019-05-11T08:48:27Z</time>
      </trkpt>
      <trkpt lat="39.1802300" lon="-1.5319860">
        <ele>625.4</ele>
        <time>2019-05-11T08:48:28Z</time>
      </trkpt>
      <trkpt lat="39.1802060" lon="-1.5319150">
        <ele>625.4</ele>
        <time>2019-05-11T08:48:29Z</time>
      </trkpt>
      <trkpt lat="39.1801710" lon="-1.5318480">
        <ele>625.4</ele>
        <time>2019-05-11T08:48:30Z</time>
      </trkpt>
      <trkpt lat="39.1801400" lon="-1.5317760">
        <ele>625.2</ele>
        <time>2019-05-11T08:48:31Z</time>
      </trkpt>
      <trkpt lat="39.1801090" lon="-1.5317030">
        <ele>625.2</ele>
        <time>2019-05-11T08:48:32Z</time>
      </trkpt>
      <trkpt lat="39.1800810" lon="-1.5316330">
        <ele>625.2</ele>
        <time>2019-05-11T08:48:33Z</time>
      </trkpt>
      <trkpt lat="39.1800610" lon="-1.5315610">
        <ele>625.2</ele>
        <time>2019-05-11T08:48:34Z</time>
      </trkpt>
      <trkpt lat="39.1800480" lon="-1.5314910">
        <ele>625.2</ele>
        <time>2019-05-11T08:48:35Z</time>
      </trkpt>
      <trkpt lat="39.1800410" lon="-1.5314260">
        <ele>625.2</ele>
        <time>2019-05-11T08:48:36Z</time>
      </trkpt>
      <trkpt lat="39.1800340" lon="-1.5313680">
        <ele>625.2</ele>
        <time>2019-05-11T08:48:37Z</time>
      </trkpt>
      <trkpt lat="39.1800320" lon="-1.5313150">
        <ele>625.2</ele>
        <time>2019-05-11T08:48:38Z</time>
      </trkpt>
      <trkpt lat="39.1800250" lon="-1.5312610">
        <ele>625.2</ele>
        <time>2019-05-11T08:48:39Z</time>
      </trkpt>
      <trkpt lat="39.1800130" lon="-1.5312080">
        <ele>625.4</ele>
        <time>2019-05-11T08:48:40Z</time>
      </trkpt>
      <trkpt lat="39.1799970" lon="-1.5311560">
        <ele>625.4</ele>
        <time>2019-05-11T08:48:41Z</time>
      </trkpt>
      <trkpt lat="39.1799810" lon="-1.5311020">
        <ele>625.4</ele>
        <time>2019-05-11T08:48:42Z</time>
      </trkpt>
      <trkpt lat="39.1799710" lon="-1.5310450">
        <ele>625.6</ele>
        <time>2019-05-11T08:48:43Z</time>
      </trkpt>
      <trkpt lat="39.1799610" lon="-1.5309800">
        <ele>626.0</ele>
        <time>2019-05-11T08:48:44Z</time>
      </trkpt>
      <trkpt lat="39.1799510" lon="-1.5309130">
        <ele>626.2</ele>
        <time>2019-05-11T08:48:45Z</time>
      </trkpt>
      <trkpt lat="39.1799390" lon="-1.5308400">
        <ele>626.6</ele>
        <time>2019-05-11T08:48:46Z</time>
      </trkpt>
      <trkpt lat="39.1799250" lon="-1.5307670">
        <ele>626.8</ele>
        <time>2019-05-11T08:48:47Z</time>
      </trkpt>
      <trkpt lat="39.1799140" lon="-1.5306930">
        <ele>627.0</ele>
        <time>2019-05-11T08:48:48Z</time>
      </trkpt>
      <trkpt lat="39.1799090" lon="-1.5306160">
        <ele>627.4</ele>
        <time>2019-05-11T08:48:49Z</time>
      </trkpt>
      <trkpt lat="39.1799100" lon="-1.5305350">
        <ele>627.4</ele>
        <time>2019-05-11T08:48:50Z</time>
      </trkpt>
      <trkpt lat="39.1799140" lon="-1.5304590">
        <ele>627.6</ele>
        <time>2019-05-11T08:48:51Z</time>
      </trkpt>
      <trkpt lat="39.1799020" lon="-1.5303980">
        <ele>627.6</ele>
        <time>2019-05-11T08:48:52Z</time>
      </trkpt>
      <trkpt lat="39.1798950" lon="-1.5303430">
        <ele>627.6</ele>
        <time>2019-05-11T08:48:53Z</time>
      </trkpt>
      <trkpt lat="39.1799030" lon="-1.5302860">
        <ele>627.6</ele>
        <time>2019-05-11T08:48:54Z</time>
      </trkpt>
      <trkpt lat="39.1799210" lon="-1.5302250">
        <ele>627.6</ele>
        <time>2019-05-11T08:48:55Z</time>
      </trkpt>
      <trkpt lat="39.1799480" lon="-1.5301630">
        <ele>627.6</ele>
        <time>2019-05-11T08:48:56Z</time>
      </trkpt>
      <trkpt lat="39.1799700" lon="-1.5301000">
        <ele>627.6</ele>
        <time>2019-05-11T08:48:57Z</time>
      </trkpt>
      <trkpt lat="39.1799910" lon="-1.5300320">
        <ele>627.6</ele>
        <time>2019-05-11T08:48:58Z</time>
      </trkpt>
      <trkpt lat="39.1800060" lon="-1.5299680">
        <ele>627.6</ele>
        <time>2019-05-11T08:48:59Z</time>
      </trkpt>
      <trkpt lat="39.1800150" lon="-1.5299130">
        <ele>627.6</ele>
        <time>2019-05-11T08:49:00Z</time>
      </trkpt>
      <trkpt lat="39.1800210" lon="-1.5298630">
        <ele>627.6</ele>
        <time>2019-05-11T08:49:01Z</time>
      </trkpt>
      <trkpt lat="39.1800210" lon="-1.5298070">
        <ele>627.6</ele>
        <time>2019-05-11T08:49:02Z</time>
      </trkpt>
      <trkpt lat="39.1800070" lon="-1.5297480">
        <ele>627.4</ele>
        <time>2019-05-11T08:49:03Z</time>
      </trkpt>
      <trkpt lat="39.1799890" lon="-1.5296850">
        <ele>627.4</ele>
        <time>2019-05-11T08:49:04Z</time>
      </trkpt>
      <trkpt lat="39.1799750" lon="-1.5296170">
        <ele>627.4</ele>
        <time>2019-05-11T08:49:05Z</time>
      </trkpt>
      <trkpt lat="39.1799550" lon="-1.5295500">
        <ele>627.4</ele>
        <time>2019-05-11T08:49:06Z</time>
      </trkpt>
      <trkpt lat="39.1799290" lon="-1.5294880">
        <ele>627.4</ele>
        <time>2019-05-11T08:49:07Z</time>
      </trkpt>
      <trkpt lat="39.1799010" lon="-1.5294300">
        <ele>627.4</ele>
        <time>2019-05-11T08:49:08Z</time>
      </trkpt>
      <trkpt lat="39.1798740" lon="-1.5293770">
        <ele>627.4</ele>
        <time>2019-05-11T08:49:09Z</time>
      </trkpt>
      <trkpt lat="39.1798360" lon="-1.5293310">
        <ele>627.4</ele>
        <time>2019-05-11T08:49:10Z</time>
      </trkpt>
      <trkpt lat="39.1797890" lon="-1.5292870">
        <ele>627.4</ele>
        <time>2019-05-11T08:49:11Z</time>
      </trkpt>
      <trkpt lat="39.1797420" lon="-1.5292370">
        <ele>627.4</ele>
        <time>2019-05-11T08:49:12Z</time>
      </trkpt>
      <trkpt lat="39.1796960" lon="-1.5291840">
        <ele>627.4</ele>
        <time>2019-05-11T08:49:13Z</time>
      </trkpt>
      <trkpt lat="39.1796490" lon="-1.5291320">
        <ele>627.4</ele>
        <time>2019-05-11T08:49:14Z</time>
      </trkpt>
      <trkpt lat="39.1796010" lon="-1.5290850">
        <ele>627.4</ele>
        <time>2019-05-11T08:49:15Z</time>
      </trkpt>
      <trkpt lat="39.1795450" lon="-1.5290510">
        <ele>627.4</ele>
        <time>2019-05-11T08:49:16Z</time>
      </trkpt>
      <trkpt lat="39.1794850" lon="-1.5290310">
        <ele>627.4</ele>
        <time>2019-05-11T08:49:17Z</time>
      </trkpt>
      <trkpt lat="39.1794330" lon="-1.5290130">
        <ele>627.4</ele>
        <time>2019-05-11T08:49:18Z</time>
      </trkpt>
      <trkpt lat="39.1793830" lon="-1.5289910">
        <ele>627.4</ele>
        <time>2019-05-11T08:49:19Z</time>
      </trkpt>
      <trkpt lat="39.1793340" lon="-1.5289630">
        <ele>627.4</ele>
        <time>2019-05-11T08:49:20Z</time>
      </trkpt>
      <trkpt lat="39.1792860" lon="-1.5289240">
        <ele>627.6</ele>
        <time>2019-05-11T08:49:21Z</time>
      </trkpt>
      <trkpt lat="39.1792490" lon="-1.5288720">
        <ele>627.6</ele>
        <time>2019-05-11T08:49:22Z</time>
      </trkpt>
      <trkpt lat="39.1792240" lon="-1.5288110">
        <ele>627.6</ele>
        <time>2019-05-11T08:49:23Z</time>
      </trkpt>
      <trkpt lat="39.1792060" lon="-1.5287450">
        <ele>627.6</ele>
        <time>2019-05-11T08:49:24Z</time>
      </trkpt>
      <trkpt lat="39.1791850" lon="-1.5286760">
        <ele>627.6</ele>
        <time>2019-05-11T08:49:25Z</time>
      </trkpt>
      <trkpt lat="39.1791600" lon="-1.5286070">
        <ele>627.8</ele>
        <time>2019-05-11T08:49:26Z</time>
      </trkpt>
      <trkpt lat="39.1791360" lon="-1.5285350">
        <ele>628.0</ele>
        <time>2019-05-11T08:49:27Z</time>
      </trkpt>
      <trkpt lat="39.1790970" lon="-1.5284740">
        <ele>628.0</ele>
        <time>2019-05-11T08:49:28Z</time>
      </trkpt>
      <trkpt lat="39.1790470" lon="-1.5284240">
        <ele>628.0</ele>
        <time>2019-05-11T08:49:29Z</time>
      </trkpt>
      <trkpt lat="39.1790030" lon="-1.5283800">
        <ele>628.0</ele>
        <time>2019-05-11T08:49:30Z</time>
      </trkpt>
      <trkpt lat="39.1789690" lon="-1.5283300">
        <ele>628.2</ele>
        <time>2019-05-11T08:49:31Z</time>
      </trkpt>
      <trkpt lat="39.1789340" lon="-1.5282860">
        <ele>628.2</ele>
        <time>2019-05-11T08:49:32Z</time>
      </trkpt>
      <trkpt lat="39.1788920" lon="-1.5282430">
        <ele>628.2</ele>
        <time>2019-05-11T08:49:33Z</time>
      </trkpt>
      <trkpt lat="39.1788410" lon="-1.5282200">
        <ele>628.2</ele>
        <time>2019-05-11T08:49:34Z</time>
      </trkpt>
      <trkpt lat="39.1787830" lon="-1.5282130">
        <ele>628.2</ele>
        <time>2019-05-11T08:49:35Z</time>
      </trkpt>
      <trkpt lat="39.1787220" lon="-1.5282100">
        <ele>628.2</ele>
        <time>2019-05-11T08:49:36Z</time>
      </trkpt>
      <trkpt lat="39.1786590" lon="-1.5282050">
        <ele>628.2</ele>
        <time>2019-05-11T08:49:37Z</time>
      </trkpt>
      <trkpt lat="39.1785960" lon="-1.5282090">
        <ele>628.2</ele>
        <time>2019-05-11T08:49:38Z</time>
      </trkpt>
      <trkpt lat="39.1785340" lon="-1.5282200">
        <ele>628.2</ele>
        <time>2019-05-11T08:49:39Z</time>
      </trkpt>
      <trkpt lat="39.1784710" lon="-1.5282210">
        <ele>628.2</ele>
        <time>2019-05-11T08:49:40Z</time>
      </trkpt>
      <trkpt lat="39.1784100" lon="-1.5282040">
        <ele>628.2</ele>
        <time>2019-05-11T08:49:41Z</time>
      </trkpt>
      <trkpt lat="39.1783610" lon="-1.5281890">
        <ele>628.0</ele>
        <time>2019-05-11T08:49:42Z</time>
      </trkpt>
      <trkpt lat="39.1783230" lon="-1.5281840">
        <ele>627.8</ele>
        <time>2019-05-11T08:49:43Z</time>
      </trkpt>
      <trkpt lat="39.1782810" lon="-1.5281690">
        <ele>627.8</ele>
        <time>2019-05-11T08:49:44Z</time>
      </trkpt>
      <trkpt lat="39.1782330" lon="-1.5281490">
        <ele>627.8</ele>
        <time>2019-05-11T08:49:45Z</time>
      </trkpt>
      <trkpt lat="39.1781850" lon="-1.5281230">
        <ele>627.6</ele>
        <time>2019-05-11T08:49:46Z</time>
      </trkpt>
      <trkpt lat="39.1781350" lon="-1.5281040">
        <ele>627.4</ele>
        <time>2019-05-11T08:49:47Z</time>
      </trkpt>
      <trkpt lat="39.1780920" lon="-1.5280860">
        <ele>627.2</ele>
        <time>2019-05-11T08:49:48Z</time>
      </trkpt>
      <trkpt lat="39.1780500" lon="-1.5280610">
        <ele>627.0</ele>
        <time>2019-05-11T08:49:49Z</time>
      </trkpt>
      <trkpt lat="39.1780060" lon="-1.5280260">
        <ele>626.8</ele>
        <time>2019-05-11T08:49:50Z</time>
      </trkpt>
      <trkpt lat="39.1779560" lon="-1.5279930">
        <ele>626.2</ele>
        <time>2019-05-11T08:49:51Z</time>
      </trkpt>
      <trkpt lat="39.1779030" lon="-1.5279660">
        <ele>625.8</ele>
        <time>2019-05-11T08:49:52Z</time>
      </trkpt>
      <trkpt lat="39.1778480" lon="-1.5279490">
        <ele>625.4</ele>
        <time>2019-05-11T08:49:53Z</time>
      </trkpt>
      <trkpt lat="39.1777940" lon="-1.5279370">
        <ele>625.0</ele>
        <time>2019-05-11T08:49:54Z</time>
      </trkpt>
      <trkpt lat="39.1777450" lon="-1.5279190">
        <ele>624.8</ele>
        <time>2019-05-11T08:49:55Z</time>
      </trkpt>
      <trkpt lat="39.1776990" lon="-1.5278940">
        <ele>624.6</ele>
        <time>2019-05-11T08:49:56Z</time>
      </trkpt>
      <trkpt lat="39.1776590" lon="-1.5278540">
        <ele>624.4</ele>
        <time>2019-05-11T08:49:57Z</time>
      </trkpt>
      <trkpt lat="39.1776220" lon="-1.5278160">
        <ele>624.2</ele>
        <time>2019-05-11T08:49:58Z</time>
      </trkpt>
      <trkpt lat="39.1775790" lon="-1.5277880">
        <ele>624.0</ele>
        <time>2019-05-11T08:49:59Z</time>
      </trkpt>
      <trkpt lat="39.1775300" lon="-1.5277660">
        <ele>624.0</ele>
        <time>2019-05-11T08:50:00Z</time>
      </trkpt>
      <trkpt lat="39.1774730" lon="-1.5277440">
        <ele>623.8</ele>
        <time>2019-05-11T08:50:01Z</time>
      </trkpt>
      <trkpt lat="39.1774110" lon="-1.5277200">
        <ele>623.8</ele>
        <time>2019-05-11T08:50:02Z</time>
      </trkpt>
      <trkpt lat="39.1773400" lon="-1.5276920">
        <ele>623.8</ele>
        <time>2019-05-11T08:50:03Z</time>
      </trkpt>
      <trkpt lat="39.1772610" lon="-1.5276620">
        <ele>623.8</ele>
        <time>2019-05-11T08:50:04Z</time>
      </trkpt>
      <trkpt lat="39.1771790" lon="-1.5276260">
        <ele>623.8</ele>
        <time>2019-05-11T08:50:05Z</time>
      </trkpt>
      <trkpt lat="39.1770970" lon="-1.5275790">
        <ele>623.8</ele>
        <time>2019-05-11T08:50:06Z</time>
      </trkpt>
      <trkpt lat="39.1770170" lon="-1.5275210">
        <ele>623.4</ele>
        <time>2019-05-11T08:50:07Z</time>
      </trkpt>
      <trkpt lat="39.1769400" lon="-1.5274590">
        <ele>623.2</ele>
        <time>2019-05-11T08:50:08Z</time>
      </trkpt>
      <trkpt lat="39.1768600" lon="-1.5274020">
        <ele>622.8</ele>
        <time>2019-05-11T08:50:09Z</time>
      </trkpt>
      <trkpt lat="39.1767810" lon="-1.5273440">
        <ele>622.6</ele>
        <time>2019-05-11T08:50:10Z</time>
      </trkpt>
      <trkpt lat="39.1766980" lon="-1.5272930">
        <ele>622.0</ele>
        <time>2019-05-11T08:50:11Z</time>
      </trkpt>
      <trkpt lat="39.1766100" lon="-1.5272500">
        <ele>621.8</ele>
        <time>2019-05-11T08:50:12Z</time>
      </trkpt>
      <trkpt lat="39.1765160" lon="-1.5272140">
        <ele>621.2</ele>
        <time>2019-05-11T08:50:13Z</time>
      </trkpt>
      <trkpt lat="39.1764210" lon="-1.5271780">
        <ele>620.8</ele>
        <time>2019-05-11T08:50:14Z</time>
      </trkpt>
      <trkpt lat="39.1763310" lon="-1.5271240">
        <ele>619.6</ele>
        <time>2019-05-11T08:50:15Z</time>
      </trkpt>
      <trkpt lat="39.1762460" lon="-1.5270610">
        <ele>619.0</ele>
        <time>2019-05-11T08:50:16Z</time>
      </trkpt>
      <trkpt lat="39.1761710" lon="-1.5269820">
        <ele>618.6</ele>
        <time>2019-05-11T08:50:17Z</time>
      </trkpt>
      <trkpt lat="39.1761020" lon="-1.5268990">
        <ele>618.4</ele>
        <time>2019-05-11T08:50:18Z</time>
      </trkpt>
      <trkpt lat="39.1760360" lon="-1.5268140">
        <ele>617.8</ele>
        <time>2019-05-11T08:50:19Z</time>
      </trkpt>
      <trkpt lat="39.1759760" lon="-1.5267230">
        <ele>617.0</ele>
        <time>2019-05-11T08:50:20Z</time>
      </trkpt>
      <trkpt lat="39.1759230" lon="-1.5266310">
        <ele>616.2</ele>
        <time>2019-05-11T08:50:21Z</time>
      </trkpt>
      <trkpt lat="39.1758810" lon="-1.5265340">
        <ele>615.6</ele>
        <time>2019-05-11T08:50:22Z</time>
      </trkpt>
      <trkpt lat="39.1758460" lon="-1.5264370">
        <ele>615.2</ele>
        <time>2019-05-11T08:50:23Z</time>
      </trkpt>
      <trkpt lat="39.1758120" lon="-1.5263390">
        <ele>615.0</ele>
        <time>2019-05-11T08:50:24Z</time>
      </trkpt>
      <trkpt lat="39.1757700" lon="-1.5262450">
        <ele>614.8</ele>
        <time>2019-05-11T08:50:25Z</time>
      </trkpt>
      <trkpt lat="39.1757230" lon="-1.5261520">
        <ele>614.6</ele>
        <time>2019-05-11T08:50:26Z</time>
      </trkpt>
      <trkpt lat="39.1756730" lon="-1.5260530">
        <ele>614.6</ele>
        <time>2019-05-11T08:50:27Z</time>
      </trkpt>
      <trkpt lat="39.1756340" lon="-1.5259470">
        <ele>614.4</ele>
        <time>2019-05-11T08:50:28Z</time>
      </trkpt>
      <trkpt lat="39.1756010" lon="-1.5258380">
        <ele>614.4</ele>
        <time>2019-05-11T08:50:29Z</time>
      </trkpt>
      <trkpt lat="39.1755710" lon="-1.5257280">
        <ele>614.4</ele>
        <time>2019-05-11T08:50:30Z</time>
      </trkpt>
      <trkpt lat="39.1755420" lon="-1.5256190">
        <ele>614.4</ele>
        <time>2019-05-11T08:50:31Z</time>
      </trkpt>
      <trkpt lat="39.1755110" lon="-1.5255160">
        <ele>614.2</ele>
        <time>2019-05-11T08:50:32Z</time>
      </trkpt>
      <trkpt lat="39.1754710" lon="-1.5254210">
        <ele>614.0</ele>
        <time>2019-05-11T08:50:33Z</time>
      </trkpt>
      <trkpt lat="39.1754250" lon="-1.5253360">
        <ele>614.0</ele>
        <time>2019-05-11T08:50:34Z</time>
      </trkpt>
      <trkpt lat="39.1753770" lon="-1.5252550">
        <ele>613.8</ele>
        <time>2019-05-11T08:50:35Z</time>
      </trkpt>
      <trkpt lat="39.1753310" lon="-1.5251730">
        <ele>613.8</ele>
        <time>2019-05-11T08:50:36Z</time>
      </trkpt>
      <trkpt lat="39.1752890" lon="-1.5250900">
        <ele>613.8</ele>
        <time>2019-05-11T08:50:37Z</time>
      </trkpt>
      <trkpt lat="39.1752490" lon="-1.5250060">
        <ele>613.6</ele>
        <time>2019-05-11T08:50:38Z</time>
      </trkpt>
      <trkpt lat="39.1752130" lon="-1.5249190">
        <ele>613.6</ele>
        <time>2019-05-11T08:50:39Z</time>
      </trkpt>
      <trkpt lat="39.1751770" lon="-1.5248330">
        <ele>613.6</ele>
        <time>2019-05-11T08:50:40Z</time>
      </trkpt>
      <trkpt lat="39.1751440" lon="-1.5247470">
        <ele>613.6</ele>
        <time>2019-05-11T08:50:41Z</time>
      </trkpt>
      <trkpt lat="39.1751120" lon="-1.5246620">
        <ele>613.6</ele>
        <time>2019-05-11T08:50:42Z</time>
      </trkpt>
      <trkpt lat="39.1750810" lon="-1.5245770">
        <ele>613.6</ele>
        <time>2019-05-11T08:50:43Z</time>
      </trkpt>
      <trkpt lat="39.1750530" lon="-1.5244940">
        <ele>613.6</ele>
        <time>2019-05-11T08:50:44Z</time>
      </trkpt>
      <trkpt lat="39.1750260" lon="-1.5244090">
        <ele>613.6</ele>
        <time>2019-05-11T08:50:45Z</time>
      </trkpt>
      <trkpt lat="39.1750010" lon="-1.5243270">
        <ele>613.8</ele>
        <time>2019-05-11T08:50:46Z</time>
      </trkpt>
      <trkpt lat="39.1749800" lon="-1.5242500">
        <ele>613.8</ele>
        <time>2019-05-11T08:50:47Z</time>
      </trkpt>
      <trkpt lat="39.1749580" lon="-1.5241680">
        <ele>614.2</ele>
        <time>2019-05-11T08:50:48Z</time>
      </trkpt>
      <trkpt lat="39.1749350" lon="-1.5240900">
        <ele>614.4</ele>
        <time>2019-05-11T08:50:49Z</time>
      </trkpt>
      <trkpt lat="39.1749090" lon="-1.5240160">
        <ele>615.2</ele>
        <time>2019-05-11T08:50:50Z</time>
      </trkpt>
      <trkpt lat="39.1748790" lon="-1.5239520">
        <ele>615.6</ele>
        <time>2019-05-11T08:50:51Z</time>
      </trkpt>
      <trkpt lat="39.1748510" lon="-1.5238890">
        <ele>615.8</ele>
        <time>2019-05-11T08:50:52Z</time>
      </trkpt>
      <trkpt lat="39.1748230" lon="-1.5238210">
        <ele>616.2</ele>
        <time>2019-05-11T08:50:53Z</time>
      </trkpt>
      <trkpt lat="39.1748000" lon="-1.5237450">
        <ele>616.6</ele>
        <time>2019-05-11T08:50:54Z</time>
      </trkpt>
      <trkpt lat="39.1747830" lon="-1.5236650">
        <ele>616.8</ele>
        <time>2019-05-11T08:50:55Z</time>
      </trkpt>
      <trkpt lat="39.1747560" lon="-1.5235810">
        <ele>617.2</ele>
        <time>2019-05-11T08:50:56Z</time>
      </trkpt>
      <trkpt lat="39.1747290" lon="-1.5235000">
        <ele>617.2</ele>
        <time>2019-05-11T08:50:57Z</time>
      </trkpt>
      <trkpt lat="39.1747000" lon="-1.5234240">
        <ele>617.4</ele>
        <time>2019-05-11T08:50:58Z</time>
      </trkpt>
      <trkpt lat="39.1746620" lon="-1.5233420">
        <ele>617.4</ele>
        <time>2019-05-11T08:50:59Z</time>
      </trkpt>
      <trkpt lat="39.1746250" lon="-1.5232630">
        <ele>617.4</ele>
        <time>2019-05-11T08:51:00Z</time>
      </trkpt>
      <trkpt lat="39.1745910" lon="-1.5231760">
        <ele>617.4</ele>
        <time>2019-05-11T08:51:01Z</time>
      </trkpt>
      <trkpt lat="39.1745680" lon="-1.5230770">
        <ele>617.4</ele>
        <time>2019-05-11T08:51:02Z</time>
      </trkpt>
      <trkpt lat="39.1745530" lon="-1.5229800">
        <ele>617.4</ele>
        <time>2019-05-11T08:51:03Z</time>
      </trkpt>
      <trkpt lat="39.1745390" lon="-1.5228880">
        <ele>617.4</ele>
        <time>2019-05-11T08:51:04Z</time>
      </trkpt>
      <trkpt lat="39.1745360" lon="-1.5227890">
        <ele>617.6</ele>
        <time>2019-05-11T08:51:05Z</time>
      </trkpt>
      <trkpt lat="39.1745480" lon="-1.5226950">
        <ele>617.6</ele>
        <time>2019-05-11T08:51:06Z</time>
      </trkpt>
      <trkpt lat="39.1745660" lon="-1.5226090">
        <ele>617.6</ele>
        <time>2019-05-11T08:51:07Z</time>
      </trkpt>
      <trkpt lat="39.1745850" lon="-1.5225280">
        <ele>617.6</ele>
        <time>2019-05-11T08:51:08Z</time>
      </trkpt>
      <trkpt lat="39.1745940" lon="-1.5224510">
        <ele>617.6</ele>
        <time>2019-05-11T08:51:09Z</time>
      </trkpt>
      <trkpt lat="39.1745980" lon="-1.5223780">
        <ele>617.6</ele>
        <time>2019-05-11T08:51:10Z</time>
      </trkpt>
      <trkpt lat="39.1745970" lon="-1.5223120">
        <ele>617.6</ele>
        <time>2019-05-11T08:51:11Z</time>
      </trkpt>
      <trkpt lat="39.1745880" lon="-1.5222460">
        <ele>617.6</ele>
        <time>2019-05-11T08:51:12Z</time>
      </trkpt>
      <trkpt lat="39.1745800" lon="-1.5221860">
        <ele>617.6</ele>
        <time>2019-05-11T08:51:13Z</time>
      </trkpt>
      <trkpt lat="39.1745700" lon="-1.5221290">
        <ele>617.6</ele>
        <time>2019-05-11T08:51:14Z</time>
      </trkpt>
      <trkpt lat="39.1745610" lon="-1.5220790">
        <ele>617.6</ele>
        <time>2019-05-11T08:51:15Z</time>
      </trkpt>
      <trkpt lat="39.1745540" lon="-1.5220380">
        <ele>617.8</ele>
        <time>2019-05-11T08:51:16Z</time>
      </trkpt>
      <trkpt lat="39.1745440" lon="-1.5220010">
        <ele>618.0</ele>
        <time>2019-05-11T08:51:17Z</time>
      </trkpt>
      <trkpt lat="39.1745330" lon="-1.5219720">
        <ele>618.4</ele>
        <time>2019-05-11T08:51:18Z</time>
      </trkpt>
      <trkpt lat="39.1745190" lon="-1.5219460">
        <ele>618.8</ele>
        <time>2019-05-11T08:51:19Z</time>
      </trkpt>
      <trkpt lat="39.1745140" lon="-1.5219210">
        <ele>619.6</ele>
        <time>2019-05-11T08:51:20Z</time>
      </trkpt>
      <trkpt lat="39.1745150" lon="-1.5219030">
        <ele>620.0</ele>
        <time>2019-05-11T08:51:21Z</time>
      </trkpt>
      <trkpt lat="39.1745290" lon="-1.5219040">
        <ele>620.6</ele>
        <time>2019-05-11T08:51:22Z</time>
      </trkpt>
      <trkpt lat="39.1745400" lon="-1.5219160">
        <ele>621.2</ele>
        <time>2019-05-11T08:51:23Z</time>
      </trkpt>
      <trkpt lat="39.1745510" lon="-1.5219280">
        <ele>621.8</ele>
        <time>2019-05-11T08:51:24Z</time>
      </trkpt>
      <trkpt lat="39.1745630" lon="-1.5219430">
        <ele>622.2</ele>
        <time>2019-05-11T08:51:25Z</time>
      </trkpt>
      <trkpt lat="39.1745730" lon="-1.5219620">
        <ele>622.4</ele>
        <time>2019-05-11T08:51:26Z</time>
      </trkpt>
      <trkpt lat="39.1745850" lon="-1.5219830">
        <ele>622.4</ele>
        <time>2019-05-11T08:51:27Z</time>
      </trkpt>
      <trkpt lat="39.1746000" lon="-1.5220030">
        <ele>622.6</ele>
        <time>2019-05-11T08:51:28Z</time>
      </trkpt>
      <trkpt lat="39.1746130" lon="-1.5220220">
        <ele>622.8</ele>
        <time>2019-05-11T08:51:29Z</time>
      </trkpt>
      <trkpt lat="39.1746260" lon="-1.5220440">
        <ele>623.0</ele>
        <time>2019-05-11T08:51:30Z</time>
      </trkpt>
      <trkpt lat="39.1746340" lon="-1.5220630">
        <ele>623.2</ele>
        <time>2019-05-11T08:51:31Z</time>
      </trkpt>
      <trkpt lat="39.1746370" lon="-1.5220900">
        <ele>623.6</ele>
        <time>2019-05-11T08:51:32Z</time>
      </trkpt>
      <trkpt lat="39.1746390" lon="-1.5221150">
        <ele>623.8</ele>
        <time>2019-05-11T08:51:33Z</time>
      </trkpt>
      <trkpt lat="39.1746430" lon="-1.5221350">
        <ele>624.2</ele>
        <time>2019-05-11T08:51:34Z</time>
      </trkpt>
      <trkpt lat="39.1746470" lon="-1.5221560">
        <ele>624.4</ele>
        <time>2019-05-11T08:51:35Z</time>
      </trkpt>
      <trkpt lat="39.1746530" lon="-1.5221800">
        <ele>624.6</ele>
        <time>2019-05-11T08:51:36Z</time>
      </trkpt>
      <trkpt lat="39.1746550" lon="-1.5222080">
        <ele>624.8</ele>
        <time>2019-05-11T08:51:37Z</time>
      </trkpt>
      <trkpt lat="39.1746550" lon="-1.5222350">
        <ele>625.2</ele>
        <time>2019-05-11T08:51:38Z</time>
      </trkpt>
      <trkpt lat="39.1746550" lon="-1.5222640">
        <ele>625.4</ele>
        <time>2019-05-11T08:51:39Z</time>
      </trkpt>
      <trkpt lat="39.1746600" lon="-1.5222880">
        <ele>625.6</ele>
        <time>2019-05-11T08:51:40Z</time>
      </trkpt>
      <trkpt lat="39.1746650" lon="-1.5223150">
        <ele>626.0</ele>
        <time>2019-05-11T08:51:41Z</time>
      </trkpt>
      <trkpt lat="39.1746740" lon="-1.5223400">
        <ele>626.2</ele>
        <time>2019-05-11T08:51:42Z</time>
      </trkpt>
      <trkpt lat="39.1746920" lon="-1.5223590">
        <ele>626.4</ele>
        <time>2019-05-11T08:51:43Z</time>
      </trkpt>
      <trkpt lat="39.1747100" lon="-1.5223690">
        <ele>626.6</ele>
        <time>2019-05-11T08:51:44Z</time>
      </trkpt>
      <trkpt lat="39.1747260" lon="-1.5223810">
        <ele>626.8</ele>
        <time>2019-05-11T08:51:45Z</time>
      </trkpt>
      <trkpt lat="39.1747460" lon="-1.5223880">
        <ele>627.0</ele>
        <time>2019-05-11T08:51:46Z</time>
      </trkpt>
      <trkpt lat="39.1747610" lon="-1.5223820">
        <ele>627.2</ele>
        <time>2019-05-11T08:51:47Z</time>
      </trkpt>
      <trkpt lat="39.1747660" lon="-1.5223630">
        <ele>627.6</ele>
        <time>2019-05-11T08:51:48Z</time>
      </trkpt>
      <trkpt lat="39.1747680" lon="-1.5223360">
        <ele>627.6</ele>
        <time>2019-05-11T08:51:49Z</time>
      </trkpt>
      <trkpt lat="39.1747700" lon="-1.5223090">
        <ele>628.2</ele>
        <time>2019-05-11T08:51:50Z</time>
      </trkpt>
      <trkpt lat="39.1747710" lon="-1.5222790">
        <ele>628.6</ele>
        <time>2019-05-11T08:51:51Z</time>
      </trkpt>
      <trkpt lat="39.1747690" lon="-1.5222460">
        <ele>629.2</ele>
        <time>2019-05-11T08:51:52Z</time>
      </trkpt>
      <trkpt lat="39.1747710" lon="-1.5222090">
        <ele>629.6</ele>
        <time>2019-05-11T08:51:53Z</time>
      </trkpt>
      <trkpt lat="39.1747700" lon="-1.5221710">
        <ele>630.0</ele>
        <time>2019-05-11T08:51:54Z</time>
      </trkpt>
      <trkpt lat="39.1747640" lon="-1.5221280">
        <ele>630.4</ele>
        <time>2019-05-11T08:51:55Z</time>
      </trkpt>
      <trkpt lat="39.1747620" lon="-1.5220880">
        <ele>630.8</ele>
        <time>2019-05-11T08:51:56Z</time>
      </trkpt>
      <trkpt lat="39.1747580" lon="-1.5220460">
        <ele>631.0</ele>
        <time>2019-05-11T08:51:57Z</time>
      </trkpt>
      <trkpt lat="39.1747530" lon="-1.5220030">
        <ele>631.2</ele>
        <time>2019-05-11T08:51:58Z</time>
      </trkpt>
      <trkpt lat="39.1747540" lon="-1.5219600">
        <ele>631.2</ele>
        <time>2019-05-11T08:51:59Z</time>
      </trkpt>
      <trkpt lat="39.1747540" lon="-1.5219130">
        <ele>631.6</ele>
        <time>2019-05-11T08:52:00Z</time>
      </trkpt>
      <trkpt lat="39.1747640" lon="-1.5218730">
        <ele>631.8</ele>
        <time>2019-05-11T08:52:01Z</time>
      </trkpt>
      <trkpt lat="39.1747720" lon="-1.5218340">
        <ele>632.0</ele>
        <time>2019-05-11T08:52:02Z</time>
      </trkpt>
      <trkpt lat="39.1747770" lon="-1.5217920">
        <ele>632.2</ele>
        <time>2019-05-11T08:52:03Z</time>
      </trkpt>
      <trkpt lat="39.1747850" lon="-1.5217520">
        <ele>632.4</ele>
        <time>2019-05-11T08:52:04Z</time>
      </trkpt>
      <trkpt lat="39.1747980" lon="-1.5217120">
        <ele>632.6</ele>
        <time>2019-05-11T08:52:05Z</time>
      </trkpt>
      <trkpt lat="39.1748100" lon="-1.5216710">
        <ele>632.6</ele>
        <time>2019-05-11T08:52:06Z</time>
      </trkpt>
      <trkpt lat="39.1748220" lon="-1.5216300">
        <ele>632.8</ele>
        <time>2019-05-11T08:52:07Z</time>
      </trkpt>
      <trkpt lat="39.1748320" lon="-1.5215860">
        <ele>633.0</ele>
        <time>2019-05-11T08:52:08Z</time>
      </trkpt>
      <trkpt lat="39.1748430" lon="-1.5215490">
        <ele>633.4</ele>
        <time>2019-05-11T08:52:09Z</time>
      </trkpt>
      <trkpt lat="39.1748540" lon="-1.5215060">
        <ele>633.8</ele>
        <time>2019-05-11T08:52:10Z</time>
      </trkpt>
      <trkpt lat="39.1748670" lon="-1.5214650">
        <ele>634.2</ele>
        <time>2019-05-11T08:52:11Z</time>
      </trkpt>
      <trkpt lat="39.1748780" lon="-1.5214190">
        <ele>634.6</ele>
        <time>2019-05-11T08:52:12Z</time>
      </trkpt>
      <trkpt lat="39.1748870" lon="-1.5213700">
        <ele>634.8</ele>
        <time>2019-05-11T08:52:13Z</time>
      </trkpt>
      <trkpt lat="39.1749050" lon="-1.5213230">
        <ele>635.2</ele>
        <time>2019-05-11T08:52:14Z</time>
      </trkpt>
      <trkpt lat="39.1749240" lon="-1.5212710">
        <ele>635.6</ele>
        <time>2019-05-11T08:52:15Z</time>
      </trkpt>
      <trkpt lat="39.1749430" lon="-1.5212160">
        <ele>635.8</ele>
        <time>2019-05-11T08:52:16Z</time>
      </trkpt>
      <trkpt lat="39.1749600" lon="-1.5211630">
        <ele>636.0</ele>
        <time>2019-05-11T08:52:17Z</time>
      </trkpt>
      <trkpt lat="39.1749770" lon="-1.5211130">
        <ele>636.2</ele>
        <time>2019-05-11T08:52:18Z</time>
      </trkpt>
      <trkpt lat="39.1749940" lon="-1.5210660">
        <ele>636.2</ele>
        <time>2019-05-11T08:52:19Z</time>
      </trkpt>
      <trkpt lat="39.1750100" lon="-1.5210210">
        <ele>636.4</ele>
        <time>2019-05-11T08:52:20Z</time>
      </trkpt>
      <trkpt lat="39.1750270" lon="-1.5209760">
        <ele>636.4</ele>
        <time>2019-05-11T08:52:21Z</time>
      </trkpt>
      <trkpt lat="39.1750470" lon="-1.5209330">
        <ele>636.4</ele>
        <time>2019-05-11T08:52:22Z</time>
      </trkpt>
      <trkpt lat="39.1750680" lon="-1.5208900">
        <ele>636.4</ele>
        <time>2019-05-11T08:52:23Z</time>
      </trkpt>
      <trkpt lat="39.1750860" lon="-1.5208430">
        <ele>636.6</ele>
        <time>2019-05-11T08:52:24Z</time>
      </trkpt>
      <trkpt lat="39.1751040" lon="-1.5207890">
        <ele>636.6</ele>
        <time>2019-05-11T08:52:25Z</time>
      </trkpt>
      <trkpt lat="39.1751230" lon="-1.5207330">
        <ele>636.6</ele>
        <time>2019-05-11T08:52:26Z</time>
      </trkpt>
      <trkpt lat="39.1751450" lon="-1.5206800">
        <ele>636.6</ele>
        <time>2019-05-11T08:52:27Z</time>
      </trkpt>
      <trkpt lat="39.1751710" lon="-1.5206340">
        <ele>636.8</ele>
        <time>2019-05-11T08:52:28Z</time>
      </trkpt>
      <trkpt lat="39.1751940" lon="-1.5206050">
        <ele>636.8</ele>
        <time>2019-05-11T08:52:29Z</time>
      </trkpt>
      <trkpt lat="39.1752130" lon="-1.5205970">
        <ele>637.0</ele>
        <time>2019-05-11T08:52:30Z</time>
      </trkpt>
      <trkpt lat="39.1752170" lon="-1.5206040">
        <ele>637.0</ele>
        <time>2019-05-11T08:52:31Z</time>
      </trkpt>
      <trkpt lat="39.1752100" lon="-1.5206160">
        <ele>637.2</ele>
        <time>2019-05-11T08:52:32Z</time>
      </trkpt>
      <trkpt lat="39.1751970" lon="-1.5206250">
        <ele>637.2</ele>
        <time>2019-05-11T08:52:33Z</time>
      </trkpt>
      <trkpt lat="39.1751880" lon="-1.5206380">
        <ele>637.2</ele>
        <time>2019-05-11T08:52:34Z</time>
      </trkpt>
      <trkpt lat="39.1751870" lon="-1.5206580">
        <ele>637.4</ele>
        <time>2019-05-11T08:52:35Z</time>
      </trkpt>
      <trkpt lat="39.1751940" lon="-1.5206750">
        <ele>637.4</ele>
        <time>2019-05-11T08:52:36Z</time>
      </trkpt>
      <trkpt lat="39.1752050" lon="-1.5206850">
        <ele>637.6</ele>
        <time>2019-05-11T08:52:37Z</time>
      </trkpt>
      <trkpt lat="39.1752210" lon="-1.5206870">
        <ele>637.8</ele>
        <time>2019-05-11T08:52:38Z</time>
      </trkpt>
      <trkpt lat="39.1752350" lon="-1.5206780">
        <ele>638.2</ele>
        <time>2019-05-11T08:52:39Z</time>
      </trkpt>
      <trkpt lat="39.1752470" lon="-1.5206610">
        <ele>638.2</ele>
        <time>2019-05-11T08:52:40Z</time>
      </trkpt>
      <trkpt lat="39.1752590" lon="-1.5206430">
        <ele>638.6</ele>
        <time>2019-05-11T08:52:41Z</time>
      </trkpt>
      <trkpt lat="39.1752730" lon="-1.5206250">
        <ele>639.0</ele>
        <time>2019-05-11T08:52:42Z</time>
      </trkpt>
      <trkpt lat="39.1752890" lon="-1.5206090">
        <ele>639.4</ele>
        <time>2019-05-11T08:52:43Z</time>
      </trkpt>
      <trkpt lat="39.1753050" lon="-1.5205920">
        <ele>639.8</ele>
        <time>2019-05-11T08:52:44Z</time>
      </trkpt>
      <trkpt lat="39.1753220" lon="-1.5205740">
        <ele>640.2</ele>
        <time>2019-05-11T08:52:45Z</time>
      </trkpt>
      <trkpt lat="39.1753370" lon="-1.5205530">
        <ele>640.6</ele>
        <time>2019-05-11T08:52:46Z</time>
      </trkpt>
      <trkpt lat="39.1753530" lon="-1.5205300">
        <ele>641.0</ele>
        <time>2019-05-11T08:52:47Z</time>
      </trkpt>
      <trkpt lat="39.1753710" lon="-1.5205060">
        <ele>641.2</ele>
        <time>2019-05-11T08:52:48Z</time>
      </trkpt>
      <trkpt lat="39.1753910" lon="-1.5204840">
        <ele>641.8</ele>
        <time>2019-05-11T08:52:49Z</time>
      </trkpt>
      <trkpt lat="39.1754050" lon="-1.5204590">
        <ele>642.2</ele>
        <time>2019-05-11T08:52:50Z</time>
      </trkpt>
      <trkpt lat="39.1754190" lon="-1.5204340">
        <ele>642.4</ele>
        <time>2019-05-11T08:52:51Z</time>
      </trkpt>
      <trkpt lat="39.1754370" lon="-1.5204180">
        <ele>642.8</ele>
        <time>2019-05-11T08:52:52Z</time>
      </trkpt>
      <trkpt lat="39.1754580" lon="-1.5204130">
        <ele>643.2</ele>
        <time>2019-05-11T08:52:53Z</time>
      </trkpt>
      <trkpt lat="39.1754780" lon="-1.5204130">
        <ele>643.6</ele>
        <time>2019-05-11T08:52:54Z</time>
      </trkpt>
      <trkpt lat="39.1754950" lon="-1.5204150">
        <ele>643.6</ele>
        <time>2019-05-11T08:52:55Z</time>
      </trkpt>
      <trkpt lat="39.1755110" lon="-1.5204200">
        <ele>643.8</ele>
        <time>2019-05-11T08:52:56Z</time>
      </trkpt>
      <trkpt lat="39.1755250" lon="-1.5204330">
        <ele>644.0</ele>
        <time>2019-05-11T08:52:57Z</time>
      </trkpt>
      <trkpt lat="39.1755380" lon="-1.5204480">
        <ele>644.2</ele>
        <time>2019-05-11T08:52:58Z</time>
      </trkpt>
      <trkpt lat="39.1755520" lon="-1.5204620">
        <ele>644.6</ele>
        <time>2019-05-11T08:52:59Z</time>
      </trkpt>
      <trkpt lat="39.1755660" lon="-1.5204750">
        <ele>645.0</ele>
        <time>2019-05-11T08:53:00Z</time>
      </trkpt>
      <trkpt lat="39.1755820" lon="-1.5204850">
        <ele>645.2</ele>
        <time>2019-05-11T08:53:01Z</time>
      </trkpt>
      <trkpt lat="39.1755980" lon="-1.5204930">
        <ele>645.6</ele>
        <time>2019-05-11T08:53:02Z</time>
      </trkpt>
      <trkpt lat="39.1756160" lon="-1.5205000">
        <ele>645.8</ele>
        <time>2019-05-11T08:53:03Z</time>
      </trkpt>
      <trkpt lat="39.1756340" lon="-1.5205050">
        <ele>646.0</ele>
        <time>2019-05-11T08:53:04Z</time>
      </trkpt>
      <trkpt lat="39.1756490" lon="-1.5205080">
        <ele>646.4</ele>
        <time>2019-05-11T08:53:05Z</time>
      </trkpt>
      <trkpt lat="39.1756650" lon="-1.5205120">
        <ele>646.6</ele>
        <time>2019-05-11T08:53:06Z</time>
      </trkpt>
      <trkpt lat="39.1756820" lon="-1.5205210">
        <ele>647.0</ele>
        <time>2019-05-11T08:53:07Z</time>
      </trkpt>
      <trkpt lat="39.1757000" lon="-1.5205310">
        <ele>647.4</ele>
        <time>2019-05-11T08:53:08Z</time>
      </trkpt>
      <trkpt lat="39.1757180" lon="-1.5205420">
        <ele>648.0</ele>
        <time>2019-05-11T08:53:09Z</time>
      </trkpt>
      <trkpt lat="39.1757370" lon="-1.5205540">
        <ele>648.2</ele>
        <time>2019-05-11T08:53:10Z</time>
      </trkpt>
      <trkpt lat="39.1757540" lon="-1.5205670">
        <ele>648.6</ele>
        <time>2019-05-11T08:53:11Z</time>
      </trkpt>
      <trkpt lat="39.1757710" lon="-1.5205820">
        <ele>649.0</ele>
        <time>2019-05-11T08:53:12Z</time>
      </trkpt>
      <trkpt lat="39.1757860" lon="-1.5205980">
        <ele>649.2</ele>
        <time>2019-05-11T08:53:13Z</time>
      </trkpt>
      <trkpt lat="39.1758000" lon="-1.5206120">
        <ele>649.4</ele>
        <time>2019-05-11T08:53:14Z</time>
      </trkpt>
      <trkpt lat="39.1758110" lon="-1.5206280">
        <ele>649.6</ele>
        <time>2019-05-11T08:53:15Z</time>
      </trkpt>
      <trkpt lat="39.1758160" lon="-1.5206450">
        <ele>650.0</ele>
        <time>2019-05-11T08:53:16Z</time>
      </trkpt>
      <trkpt lat="39.1758120" lon="-1.5206620">
        <ele>650.2</ele>
        <time>2019-05-11T08:53:17Z</time>
      </trkpt>
      <trkpt lat="39.1758020" lon="-1.5206810">
        <ele>650.4</ele>
        <time>2019-05-11T08:53:18Z</time>
      </trkpt>
      <trkpt lat="39.1757850" lon="-1.5206930">
        <ele>650.6</ele>
        <time>2019-05-11T08:53:19Z</time>
      </trkpt>
      <trkpt lat="39.1757640" lon="-1.5206960">
        <ele>650.8</ele>
        <time>2019-05-11T08:53:20Z</time>
      </trkpt>
      <trkpt lat="39.1757400" lon="-1.5206980">
        <ele>651.0</ele>
        <time>2019-05-11T08:53:21Z</time>
      </trkpt>
      <trkpt lat="39.1757170" lon="-1.5207040">
        <ele>651.2</ele>
        <time>2019-05-11T08:53:22Z</time>
      </trkpt>
      <trkpt lat="39.1756950" lon="-1.5207170">
        <ele>651.2</ele>
        <time>2019-05-11T08:53:23Z</time>
      </trkpt>
      <trkpt lat="39.1756740" lon="-1.5207370">
        <ele>651.4</ele>
        <time>2019-05-11T08:53:24Z</time>
      </trkpt>
      <trkpt lat="39.1756530" lon="-1.5207610">
        <ele>651.6</ele>
        <time>2019-05-11T08:53:25Z</time>
      </trkpt>
      <trkpt lat="39.1756300" lon="-1.5207840">
        <ele>651.6</ele>
        <time>2019-05-11T08:53:26Z</time>
      </trkpt>
      <trkpt lat="39.1756040" lon="-1.5208060">
        <ele>652.0</ele>
        <time>2019-05-11T08:53:27Z</time>
      </trkpt>
      <trkpt lat="39.1755760" lon="-1.5208330">
        <ele>652.4</ele>
        <time>2019-05-11T08:53:28Z</time>
      </trkpt>
      <trkpt lat="39.1755490" lon="-1.5208650">
        <ele>652.6</ele>
        <time>2019-05-11T08:53:29Z</time>
      </trkpt>
      <trkpt lat="39.1755260" lon="-1.5209020">
        <ele>652.8</ele>
        <time>2019-05-11T08:53:30Z</time>
      </trkpt>
      <trkpt lat="39.1755070" lon="-1.5209430">
        <ele>653.0</ele>
        <time>2019-05-11T08:53:31Z</time>
      </trkpt>
      <trkpt lat="39.1754910" lon="-1.5209860">
        <ele>653.0</ele>
        <time>2019-05-11T08:53:32Z</time>
      </trkpt>
      <trkpt lat="39.1754780" lon="-1.5210260">
        <ele>653.2</ele>
        <time>2019-05-11T08:53:33Z</time>
      </trkpt>
      <trkpt lat="39.1754650" lon="-1.5210640">
        <ele>653.2</ele>
        <time>2019-05-11T08:53:34Z</time>
      </trkpt>
      <trkpt lat="39.1754500" lon="-1.5211000">
        <ele>653.2</ele>
        <time>2019-05-11T08:53:35Z</time>
      </trkpt>
      <trkpt lat="39.1754340" lon="-1.5211370">
        <ele>653.4</ele>
        <time>2019-05-11T08:53:36Z</time>
      </trkpt>
      <trkpt lat="39.1754140" lon="-1.5211750">
        <ele>653.4</ele>
        <time>2019-05-11T08:53:37Z</time>
      </trkpt>
      <trkpt lat="39.1753910" lon="-1.5212150">
        <ele>653.4</ele>
        <time>2019-05-11T08:53:38Z</time>
      </trkpt>
      <trkpt lat="39.1753680" lon="-1.5212560">
        <ele>653.4</ele>
        <time>2019-05-11T08:53:39Z</time>
      </trkpt>
      <trkpt lat="39.1753430" lon="-1.5212980">
        <ele>653.6</ele>
        <time>2019-05-11T08:53:40Z</time>
      </trkpt>
      <trkpt lat="39.1753200" lon="-1.5213420">
        <ele>653.8</ele>
        <time>2019-05-11T08:53:41Z</time>
      </trkpt>
      <trkpt lat="39.1752980" lon="-1.5213860">
        <ele>654.0</ele>
        <time>2019-05-11T08:53:42Z</time>
      </trkpt>
      <trkpt lat="39.1752760" lon="-1.5214300">
        <ele>654.2</ele>
        <time>2019-05-11T08:53:43Z</time>
      </trkpt>
      <trkpt lat="39.1752550" lon="-1.5214750">
        <ele>654.4</ele>
        <time>2019-05-11T08:53:44Z</time>
      </trkpt>
      <trkpt lat="39.1752360" lon="-1.5215250">
        <ele>654.4</ele>
        <time>2019-05-11T08:53:45Z</time>
      </trkpt>
      <trkpt lat="39.1752160" lon="-1.5215810">
        <ele>654.4</ele>
        <time>2019-05-11T08:53:46Z</time>
      </trkpt>
      <trkpt lat="39.1751950" lon="-1.5216390">
        <ele>654.4</ele>
        <time>2019-05-11T08:53:47Z</time>
      </trkpt>
      <trkpt lat="39.1751720" lon="-1.5216940">
        <ele>654.4</ele>
        <time>2019-05-11T08:53:48Z</time>
      </trkpt>
      <trkpt lat="39.1751470" lon="-1.5217460">
        <ele>654.4</ele>
        <time>2019-05-11T08:53:49Z</time>
      </trkpt>
      <trkpt lat="39.1751280" lon="-1.5218010">
        <ele>654.4</ele>
        <time>2019-05-11T08:53:50Z</time>
      </trkpt>
      <trkpt lat="39.1751170" lon="-1.5218590">
        <ele>654.4</ele>
        <time>2019-05-11T08:53:51Z</time>
      </trkpt>
      <trkpt lat="39.1751110" lon="-1.5219210">
        <ele>654.4</ele>
        <time>2019-05-11T08:53:52Z</time>
      </trkpt>
      <trkpt lat="39.1751070" lon="-1.5219880">
        <ele>654.2</ele>
        <time>2019-05-11T08:53:53Z</time>
      </trkpt>
      <trkpt lat="39.1751070" lon="-1.5220590">
        <ele>654.2</ele>
        <time>2019-05-11T08:53:54Z</time>
      </trkpt>
      <trkpt lat="39.1751120" lon="-1.5221330">
        <ele>654.2</ele>
        <time>2019-05-11T08:53:55Z</time>
      </trkpt>
      <trkpt lat="39.1751190" lon="-1.5222130">
        <ele>654.2</ele>
        <time>2019-05-11T08:53:56Z</time>
      </trkpt>
      <trkpt lat="39.1751280" lon="-1.5222950">
        <ele>654.0</ele>
        <time>2019-05-11T08:53:57Z</time>
      </trkpt>
      <trkpt lat="39.1751470" lon="-1.5223740">
        <ele>654.0</ele>
        <time>2019-05-11T08:53:58Z</time>
      </trkpt>
      <trkpt lat="39.1751800" lon="-1.5224470">
        <ele>654.0</ele>
        <time>2019-05-11T08:53:59Z</time>
      </trkpt>
      <trkpt lat="39.1752180" lon="-1.5225110">
        <ele>654.0</ele>
        <time>2019-05-11T08:54:00Z</time>
      </trkpt>
      <trkpt lat="39.1752520" lon="-1.5225590">
        <ele>653.8</ele>
        <time>2019-05-11T08:54:01Z</time>
      </trkpt>
      <trkpt lat="39.1752870" lon="-1.5225860">
        <ele>653.4</ele>
        <time>2019-05-11T08:54:02Z</time>
      </trkpt>
      <trkpt lat="39.1753210" lon="-1.5225910">
        <ele>653.2</ele>
        <time>2019-05-11T08:54:03Z</time>
      </trkpt>
      <trkpt lat="39.1753500" lon="-1.5225810">
        <ele>652.4</ele>
        <time>2019-05-11T08:54:04Z</time>
      </trkpt>
      <trkpt lat="39.1753770" lon="-1.5225640">
        <ele>651.4</ele>
        <time>2019-05-11T08:54:05Z</time>
      </trkpt>
      <trkpt lat="39.1754030" lon="-1.5225450">
        <ele>651.0</ele>
        <time>2019-05-11T08:54:06Z</time>
      </trkpt>
      <trkpt lat="39.1754310" lon="-1.5225260">
        <ele>650.6</ele>
        <time>2019-05-11T08:54:07Z</time>
      </trkpt>
      <trkpt lat="39.1754610" lon="-1.5225080">
        <ele>650.6</ele>
        <time>2019-05-11T08:54:08Z</time>
      </trkpt>
      <trkpt lat="39.1754910" lon="-1.5224880">
        <ele>650.4</ele>
        <time>2019-05-11T08:54:09Z</time>
      </trkpt>
      <trkpt lat="39.1755190" lon="-1.5224650">
        <ele>650.4</ele>
        <time>2019-05-11T08:54:10Z</time>
      </trkpt>
      <trkpt lat="39.1755410" lon="-1.5224330">
        <ele>650.4</ele>
        <time>2019-05-11T08:54:11Z</time>
      </trkpt>
      <trkpt lat="39.1755500" lon="-1.5223870">
        <ele>650.4</ele>
        <time>2019-05-11T08:54:12Z</time>
      </trkpt>
      <trkpt lat="39.1755550" lon="-1.5223450">
        <ele>650.4</ele>
        <time>2019-05-11T08:54:13Z</time>
      </trkpt>
      <trkpt lat="39.1755590" lon="-1.5223050">
        <ele>650.4</ele>
        <time>2019-05-11T08:54:14Z</time>
      </trkpt>
      <trkpt lat="39.1755690" lon="-1.5222640">
        <ele>650.6</ele>
        <time>2019-05-11T08:54:15Z</time>
      </trkpt>
      <trkpt lat="39.1755830" lon="-1.5222210">
        <ele>650.6</ele>
        <time>2019-05-11T08:54:16Z</time>
      </trkpt>
      <trkpt lat="39.1755970" lon="-1.5221780">
        <ele>650.8</ele>
        <time>2019-05-11T08:54:17Z</time>
      </trkpt>
      <trkpt lat="39.1756100" lon="-1.5221340">
        <ele>651.4</ele>
        <time>2019-05-11T08:54:18Z</time>
      </trkpt>
      <trkpt lat="39.1756230" lon="-1.5220930">
        <ele>651.8</ele>
        <time>2019-05-11T08:54:19Z</time>
      </trkpt>
      <trkpt lat="39.1756370" lon="-1.5220540">
        <ele>652.2</ele>
        <time>2019-05-11T08:54:20Z</time>
      </trkpt>
      <trkpt lat="39.1756510" lon="-1.5220130">
        <ele>652.4</ele>
        <time>2019-05-11T08:54:21Z</time>
      </trkpt>
      <trkpt lat="39.1756670" lon="-1.5219690">
        <ele>652.6</ele>
        <time>2019-05-11T08:54:22Z</time>
      </trkpt>
      <trkpt lat="39.1756830" lon="-1.5219220">
        <ele>652.6</ele>
        <time>2019-05-11T08:54:23Z</time>
      </trkpt>
      <trkpt lat="39.1757020" lon="-1.5218740">
        <ele>652.8</ele>
        <time>2019-05-11T08:54:24Z</time>
      </trkpt>
      <trkpt lat="39.1757220" lon="-1.5218190">
        <ele>652.8</ele>
        <time>2019-05-11T08:54:25Z</time>
      </trkpt>
      <trkpt lat="39.1757430" lon="-1.5217600">
        <ele>653.0</ele>
        <time>2019-05-11T08:54:26Z</time>
      </trkpt>
      <trkpt lat="39.1757610" lon="-1.5216990">
        <ele>653.0</ele>
        <time>2019-05-11T08:54:27Z</time>
      </trkpt>
      <trkpt lat="39.1757770" lon="-1.5216400">
        <ele>653.2</ele>
        <time>2019-05-11T08:54:28Z</time>
      </trkpt>
      <trkpt lat="39.1757910" lon="-1.5215810">
        <ele>653.2</ele>
        <time>2019-05-11T08:54:29Z</time>
      </trkpt>
      <trkpt lat="39.1758020" lon="-1.5215210">
        <ele>653.2</ele>
        <time>2019-05-11T08:54:30Z</time>
      </trkpt>
      <trkpt lat="39.1758140" lon="-1.5214600">
        <ele>653.2</ele>
        <time>2019-05-11T08:54:31Z</time>
      </trkpt>
      <trkpt lat="39.1758250" lon="-1.5213960">
        <ele>653.2</ele>
        <time>2019-05-11T08:54:32Z</time>
      </trkpt>
      <trkpt lat="39.1758330" lon="-1.5213340">
        <ele>653.2</ele>
        <time>2019-05-11T08:54:33Z</time>
      </trkpt>
      <trkpt lat="39.1758390" lon="-1.5212840">
        <ele>653.2</ele>
        <time>2019-05-11T08:54:34Z</time>
      </trkpt>
      <trkpt lat="39.1758550" lon="-1.5212450">
        <ele>653.2</ele>
        <time>2019-05-11T08:54:35Z</time>
      </trkpt>
      <trkpt lat="39.1758860" lon="-1.5212030">
        <ele>653.2</ele>
        <time>2019-05-11T08:54:36Z</time>
      </trkpt>
      <trkpt lat="39.1759120" lon="-1.5211400">
        <ele>653.2</ele>
        <time>2019-05-11T08:54:37Z</time>
      </trkpt>
      <trkpt lat="39.1759300" lon="-1.5210710">
        <ele>653.0</ele>
        <time>2019-05-11T08:54:38Z</time>
      </trkpt>
      <trkpt lat="39.1759500" lon="-1.5210160">
        <ele>653.0</ele>
        <time>2019-05-11T08:54:39Z</time>
      </trkpt>
      <trkpt lat="39.1759780" lon="-1.5210000">
        <ele>652.8</ele>
        <time>2019-05-11T08:54:40Z</time>
      </trkpt>
      <trkpt lat="39.1760020" lon="-1.5210240">
        <ele>652.6</ele>
        <time>2019-05-11T08:54:41Z</time>
      </trkpt>
      <trkpt lat="39.1760130" lon="-1.5210740">
        <ele>652.6</ele>
        <time>2019-05-11T08:54:42Z</time>
      </trkpt>
      <trkpt lat="39.1760150" lon="-1.5211420">
        <ele>652.4</ele>
        <time>2019-05-11T08:54:43Z</time>
      </trkpt>
      <trkpt lat="39.1760170" lon="-1.5212240">
        <ele>652.0</ele>
        <time>2019-05-11T08:54:44Z</time>
      </trkpt>
      <trkpt lat="39.1760180" lon="-1.5213110">
        <ele>651.4</ele>
        <time>2019-05-11T08:54:45Z</time>
      </trkpt>
      <trkpt lat="39.1760200" lon="-1.5213890">
        <ele>650.6</ele>
        <time>2019-05-11T08:54:46Z</time>
      </trkpt>
      <trkpt lat="39.1760270" lon="-1.5214460">
        <ele>650.0</ele>
        <time>2019-05-11T08:54:47Z</time>
      </trkpt>
      <trkpt lat="39.1760450" lon="-1.5214590">
        <ele>649.4</ele>
        <time>2019-05-11T08:54:48Z</time>
      </trkpt>
      <trkpt lat="39.1760590" lon="-1.5214390">
        <ele>648.8</ele>
        <time>2019-05-11T08:54:49Z</time>
      </trkpt>
      <trkpt lat="39.1760640" lon="-1.5213970">
        <ele>648.4</ele>
        <time>2019-05-11T08:54:50Z</time>
      </trkpt>
      <trkpt lat="39.1760640" lon="-1.5213410">
        <ele>648.0</ele>
        <time>2019-05-11T08:54:51Z</time>
      </trkpt>
      <trkpt lat="39.1760650" lon="-1.5212800">
        <ele>647.6</ele>
        <time>2019-05-11T08:54:52Z</time>
      </trkpt>
      <trkpt lat="39.1760610" lon="-1.5212120">
        <ele>646.2</ele>
        <time>2019-05-11T08:54:53Z</time>
      </trkpt>
      <trkpt lat="39.1760540" lon="-1.5211380">
        <ele>645.2</ele>
        <time>2019-05-11T08:54:54Z</time>
      </trkpt>
      <trkpt lat="39.1760530" lon="-1.5210720">
        <ele>644.2</ele>
        <time>2019-05-11T08:54:55Z</time>
      </trkpt>
      <trkpt lat="39.1760710" lon="-1.5210290">
        <ele>643.8</ele>
        <time>2019-05-11T08:54:56Z</time>
      </trkpt>
      <trkpt lat="39.1761080" lon="-1.5210280">
        <ele>643.4</ele>
        <time>2019-05-11T08:54:57Z</time>
      </trkpt>
      <trkpt lat="39.1761380" lon="-1.5210630">
        <ele>643.2</ele>
        <time>2019-05-11T08:54:58Z</time>
      </trkpt>
      <trkpt lat="39.1761500" lon="-1.5211180">
        <ele>643.0</ele>
        <time>2019-05-11T08:54:59Z</time>
      </trkpt>
      <trkpt lat="39.1761420" lon="-1.5211930">
        <ele>642.8</ele>
        <time>2019-05-11T08:55:00Z</time>
      </trkpt>
      <trkpt lat="39.1761280" lon="-1.5212720">
        <ele>642.6</ele>
        <time>2019-05-11T08:55:01Z</time>
      </trkpt>
      <trkpt lat="39.1761280" lon="-1.5213440">
        <ele>642.2</ele>
        <time>2019-05-11T08:55:02Z</time>
      </trkpt>
      <trkpt lat="39.1761470" lon="-1.5213870">
        <ele>641.8</ele>
        <time>2019-05-11T08:55:03Z</time>
      </trkpt>
      <trkpt lat="39.1761740" lon="-1.5213830">
        <ele>641.6</ele>
        <time>2019-05-11T08:55:04Z</time>
      </trkpt>
      <trkpt lat="39.1761950" lon="-1.5213390">
        <ele>641.2</ele>
        <time>2019-05-11T08:55:05Z</time>
      </trkpt>
      <trkpt lat="39.1762030" lon="-1.5212740">
        <ele>641.0</ele>
        <time>2019-05-11T08:55:06Z</time>
      </trkpt>
      <trkpt lat="39.1762050" lon="-1.5212010">
        <ele>640.6</ele>
        <time>2019-05-11T08:55:07Z</time>
      </trkpt>
      <trkpt lat="39.1762050" lon="-1.5211230">
        <ele>640.0</ele>
        <time>2019-05-11T08:55:08Z</time>
      </trkpt>
      <trkpt lat="39.1762010" lon="-1.5210390">
        <ele>639.4</ele>
        <time>2019-05-11T08:55:09Z</time>
      </trkpt>
      <trkpt lat="39.1761980" lon="-1.5209520">
        <ele>638.6</ele>
        <time>2019-05-11T08:55:10Z</time>
      </trkpt>
      <trkpt lat="39.1761900" lon="-1.5208610">
        <ele>637.6</ele>
        <time>2019-05-11T08:55:11Z</time>
      </trkpt>
      <trkpt lat="39.1761780" lon="-1.5207710">
        <ele>636.8</ele>
        <time>2019-05-11T08:55:12Z</time>
      </trkpt>
      <trkpt lat="39.1761640" lon="-1.5206890">
        <ele>636.4</ele>
        <time>2019-05-11T08:55:13Z</time>
      </trkpt>
      <trkpt lat="39.1761490" lon="-1.5206110">
        <ele>636.0</ele>
        <time>2019-05-11T08:55:14Z</time>
      </trkpt>
      <trkpt lat="39.1761290" lon="-1.5205410">
        <ele>635.6</ele>
        <time>2019-05-11T08:55:15Z</time>
      </trkpt>
      <trkpt lat="39.1761030" lon="-1.5204780">
        <ele>635.4</ele>
        <time>2019-05-11T08:55:16Z</time>
      </trkpt>
      <trkpt lat="39.1760780" lon="-1.5204160">
        <ele>635.2</ele>
        <time>2019-05-11T08:55:17Z</time>
      </trkpt>
      <trkpt lat="39.1760550" lon="-1.5203490">
        <ele>635.2</ele>
        <time>2019-05-11T08:55:18Z</time>
      </trkpt>
      <trkpt lat="39.1760300" lon="-1.5202770">
        <ele>635.2</ele>
        <time>2019-05-11T08:55:19Z</time>
      </trkpt>
      <trkpt lat="39.1759970" lon="-1.5202080">
        <ele>635.0</ele>
        <time>2019-05-11T08:55:20Z</time>
      </trkpt>
      <trkpt lat="39.1759540" lon="-1.5201460">
        <ele>635.0</ele>
        <time>2019-05-11T08:55:21Z</time>
      </trkpt>
      <trkpt lat="39.1759100" lon="-1.5200820">
        <ele>635.0</ele>
        <time>2019-05-11T08:55:22Z</time>
      </trkpt>
      <trkpt lat="39.1758610" lon="-1.5200280">
        <ele>635.0</ele>
        <time>2019-05-11T08:55:23Z</time>
      </trkpt>
      <trkpt lat="39.1758030" lon="-1.5199910">
        <ele>635.0</ele>
        <time>2019-05-11T08:55:24Z</time>
      </trkpt>
      <trkpt lat="39.1757410" lon="-1.5199560">
        <ele>635.0</ele>
        <time>2019-05-11T08:55:25Z</time>
      </trkpt>
      <trkpt lat="39.1756780" lon="-1.5199340">
        <ele>635.0</ele>
        <time>2019-05-11T08:55:26Z</time>
      </trkpt>
      <trkpt lat="39.1756220" lon="-1.5199410">
        <ele>635.0</ele>
        <time>2019-05-11T08:55:27Z</time>
      </trkpt>
      <trkpt lat="39.1755710" lon="-1.5199690">
        <ele>635.0</ele>
        <time>2019-05-11T08:55:28Z</time>
      </trkpt>
      <trkpt lat="39.1755220" lon="-1.5200020">
        <ele>635.0</ele>
        <time>2019-05-11T08:55:29Z</time>
      </trkpt>
      <trkpt lat="39.1754790" lon="-1.5200350">
        <ele>635.0</ele>
        <time>2019-05-11T08:55:30Z</time>
      </trkpt>
      <trkpt lat="39.1754390" lon="-1.5200780">
        <ele>635.0</ele>
        <time>2019-05-11T08:55:31Z</time>
      </trkpt>
      <trkpt lat="39.1754000" lon="-1.5201270">
        <ele>635.2</ele>
        <time>2019-05-11T08:55:32Z</time>
      </trkpt>
      <trkpt lat="39.1753610" lon="-1.5201760">
        <ele>635.2</ele>
        <time>2019-05-11T08:55:33Z</time>
      </trkpt>
      <trkpt lat="39.1753260" lon="-1.5202200">
        <ele>635.2</ele>
        <time>2019-05-11T08:55:34Z</time>
      </trkpt>
      <trkpt lat="39.1752920" lon="-1.5202470">
        <ele>635.2</ele>
        <time>2019-05-11T08:55:35Z</time>
      </trkpt>
      <trkpt lat="39.1752570" lon="-1.5202560">
        <ele>635.2</ele>
        <time>2019-05-11T08:55:36Z</time>
      </trkpt>
      <trkpt lat="39.1752030" lon="-1.5202270">
        <ele>635.2</ele>
        <time>2019-05-11T08:55:37Z</time>
      </trkpt>
      <trkpt lat="39.1751320" lon="-1.5201800">
        <ele>635.2</ele>
        <time>2019-05-11T08:55:38Z</time>
      </trkpt>
      <trkpt lat="39.1750630" lon="-1.5201340">
        <ele>635.2</ele>
        <time>2019-05-11T08:55:39Z</time>
      </trkpt>
      <trkpt lat="39.1750120" lon="-1.5200880">
        <ele>635.2</ele>
        <time>2019-05-11T08:55:40Z</time>
      </trkpt>
      <trkpt lat="39.1749790" lon="-1.5200400">
        <ele>635.2</ele>
        <time>2019-05-11T08:55:41Z</time>
      </trkpt>
      <trkpt lat="39.1749720" lon="-1.5199850">
        <ele>635.2</ele>
        <time>2019-05-11T08:55:42Z</time>
      </trkpt>
      <trkpt lat="39.1749820" lon="-1.5199290">
        <ele>635.2</ele>
        <time>2019-05-11T08:55:43Z</time>
      </trkpt>
      <trkpt lat="39.1750130" lon="-1.5198710">
        <ele>635.2</ele>
        <time>2019-05-11T08:55:44Z</time>
      </trkpt>
      <trkpt lat="39.1750560" lon="-1.5198120">
        <ele>634.8</ele>
        <time>2019-05-11T08:55:45Z</time>
      </trkpt>
      <trkpt lat="39.1751000" lon="-1.5197520">
        <ele>634.0</ele>
        <time>2019-05-11T08:55:46Z</time>
      </trkpt>
      <trkpt lat="39.1751420" lon="-1.5196970">
        <ele>632.8</ele>
        <time>2019-05-11T08:55:47Z</time>
      </trkpt>
      <trkpt lat="39.1751730" lon="-1.5196330">
        <ele>631.6</ele>
        <time>2019-05-11T08:55:48Z</time>
      </trkpt>
      <trkpt lat="39.1751850" lon="-1.5195850">
        <ele>630.6</ele>
        <time>2019-05-11T08:55:49Z</time>
      </trkpt>
      <trkpt lat="39.1751630" lon="-1.5195440">
        <ele>629.8</ele>
        <time>2019-05-11T08:55:50Z</time>
      </trkpt>
      <trkpt lat="39.1751410" lon="-1.5195020">
        <ele>629.4</ele>
        <time>2019-05-11T08:55:51Z</time>
      </trkpt>
      <trkpt lat="39.1751450" lon="-1.5194660">
        <ele>629.2</ele>
        <time>2019-05-11T08:55:52Z</time>
      </trkpt>
      <trkpt lat="39.1751630" lon="-1.5194250">
        <ele>628.8</ele>
        <time>2019-05-11T08:55:53Z</time>
      </trkpt>
      <trkpt lat="39.1751790" lon="-1.5193920">
        <ele>628.4</ele>
        <time>2019-05-11T08:55:54Z</time>
      </trkpt>
      <trkpt lat="39.1751580" lon="-1.5193480">
        <ele>628.0</ele>
        <time>2019-05-11T08:55:55Z</time>
      </trkpt>
      <trkpt lat="39.1751320" lon="-1.5193060">
        <ele>627.4</ele>
        <time>2019-05-11T08:55:56Z</time>
      </trkpt>
      <trkpt lat="39.1750890" lon="-1.5192680">
        <ele>626.8</ele>
        <time>2019-05-11T08:55:57Z</time>
      </trkpt>
      <trkpt lat="39.1750340" lon="-1.5192380">
        <ele>626.2</ele>
        <time>2019-05-11T08:55:58Z</time>
      </trkpt>
      <trkpt lat="39.1749710" lon="-1.5192230">
        <ele>625.6</ele>
        <time>2019-05-11T08:55:59Z</time>
      </trkpt>
      <trkpt lat="39.1749170" lon="-1.5192060">
        <ele>625.0</ele>
        <time>2019-05-11T08:56:00Z</time>
      </trkpt>
      <trkpt lat="39.1748760" lon="-1.5191770">
        <ele>624.4</ele>
        <time>2019-05-11T08:56:01Z</time>
      </trkpt>
      <trkpt lat="39.1748680" lon="-1.5191520">
        <ele>623.2</ele>
        <time>2019-05-11T08:56:02Z</time>
      </trkpt>
      <trkpt lat="39.1748750" lon="-1.5191180">
        <ele>622.8</ele>
        <time>2019-05-11T08:56:03Z</time>
      </trkpt>
      <trkpt lat="39.1748920" lon="-1.5190740">
        <ele>622.2</ele>
        <time>2019-05-11T08:56:04Z</time>
      </trkpt>
      <trkpt lat="39.1749260" lon="-1.5190160">
        <ele>621.4</ele>
        <time>2019-05-11T08:56:05Z</time>
      </trkpt>
      <trkpt lat="39.1749800" lon="-1.5189410">
        <ele>620.8</ele>
        <time>2019-05-11T08:56:06Z</time>
      </trkpt>
      <trkpt lat="39.1750560" lon="-1.5188860">
        <ele>620.0</ele>
        <time>2019-05-11T08:56:07Z</time>
      </trkpt>
      <trkpt lat="39.1751340" lon="-1.5188400">
        <ele>619.0</ele>
        <time>2019-05-11T08:56:08Z</time>
      </trkpt>
      <trkpt lat="39.1752190" lon="-1.5187960">
        <ele>618.0</ele>
        <time>2019-05-11T08:56:09Z</time>
      </trkpt>
      <trkpt lat="39.1753120" lon="-1.5187450">
        <ele>617.2</ele>
        <time>2019-05-11T08:56:10Z</time>
      </trkpt>
      <trkpt lat="39.1754100" lon="-1.5186820">
        <ele>616.4</ele>
        <time>2019-05-11T08:56:11Z</time>
      </trkpt>
      <trkpt lat="39.1755070" lon="-1.5186180">
        <ele>615.6</ele>
        <time>2019-05-11T08:56:12Z</time>
      </trkpt>
      <trkpt lat="39.1756090" lon="-1.5185700">
        <ele>615.0</ele>
        <time>2019-05-11T08:56:13Z</time>
      </trkpt>
      <trkpt lat="39.1757140" lon="-1.5185450">
        <ele>614.2</ele>
        <time>2019-05-11T08:56:14Z</time>
      </trkpt>
      <trkpt lat="39.1758270" lon="-1.5185380">
        <ele>613.2</ele>
        <time>2019-05-11T08:56:15Z</time>
      </trkpt>
      <trkpt lat="39.1759340" lon="-1.5185470">
        <ele>612.4</ele>
        <time>2019-05-11T08:56:16Z</time>
      </trkpt>
      <trkpt lat="39.1760270" lon="-1.5185700">
        <ele>611.6</ele>
        <time>2019-05-11T08:56:17Z</time>
      </trkpt>
      <trkpt lat="39.1761070" lon="-1.5186110">
        <ele>610.6</ele>
        <time>2019-05-11T08:56:18Z</time>
      </trkpt>
      <trkpt lat="39.1761600" lon="-1.5186940">
        <ele>609.6</ele>
        <time>2019-05-11T08:56:19Z</time>
      </trkpt>
      <trkpt lat="39.1762040" lon="-1.5187830">
        <ele>608.8</ele>
        <time>2019-05-11T08:56:20Z</time>
      </trkpt>
      <trkpt lat="39.1762570" lon="-1.5188690">
        <ele>607.8</ele>
        <time>2019-05-11T08:56:21Z</time>
      </trkpt>
      <trkpt lat="39.1763200" lon="-1.5189460">
        <ele>606.8</ele>
        <time>2019-05-11T08:56:22Z</time>
      </trkpt>
      <trkpt lat="39.1763790" lon="-1.5190420">
        <ele>605.8</ele>
        <time>2019-05-11T08:56:23Z</time>
      </trkpt>
      <trkpt lat="39.1764230" lon="-1.5191590">
        <ele>604.4</ele>
        <time>2019-05-11T08:56:24Z</time>
      </trkpt>
      <trkpt lat="39.1764570" lon="-1.5192870">
        <ele>603.2</ele>
        <time>2019-05-11T08:56:25Z</time>
      </trkpt>
      <trkpt lat="39.1764930" lon="-1.5194210">
        <ele>602.2</ele>
        <time>2019-05-11T08:56:26Z</time>
      </trkpt>
      <trkpt lat="39.1765350" lon="-1.5195590">
        <ele>601.4</ele>
        <time>2019-05-11T08:56:27Z</time>
      </trkpt>
      <trkpt lat="39.1765850" lon="-1.5196970">
        <ele>600.6</ele>
        <time>2019-05-11T08:56:28Z</time>
      </trkpt>
      <trkpt lat="39.1766440" lon="-1.5198330">
        <ele>600.2</ele>
        <time>2019-05-11T08:56:29Z</time>
      </trkpt>
      <trkpt lat="39.1767050" lon="-1.5199710">
        <ele>599.6</ele>
        <time>2019-05-11T08:56:30Z</time>
      </trkpt>
      <trkpt lat="39.1767680" lon="-1.5201110">
        <ele>599.0</ele>
        <time>2019-05-11T08:56:31Z</time>
      </trkpt>
      <trkpt lat="39.1768290" lon="-1.5202490">
        <ele>598.0</ele>
        <time>2019-05-11T08:56:32Z</time>
      </trkpt>
      <trkpt lat="39.1768900" lon="-1.5203860">
        <ele>597.2</ele>
        <time>2019-05-11T08:56:33Z</time>
      </trkpt>
      <trkpt lat="39.1769520" lon="-1.5205170">
        <ele>596.4</ele>
        <time>2019-05-11T08:56:34Z</time>
      </trkpt>
      <trkpt lat="39.1770140" lon="-1.5206440">
        <ele>595.8</ele>
        <time>2019-05-11T08:56:35Z</time>
      </trkpt>
      <trkpt lat="39.1770770" lon="-1.5207700">
        <ele>594.6</ele>
        <time>2019-05-11T08:56:36Z</time>
      </trkpt>
      <trkpt lat="39.1771370" lon="-1.5208970">
        <ele>594.0</ele>
        <time>2019-05-11T08:56:37Z</time>
      </trkpt>
      <trkpt lat="39.1771890" lon="-1.5210230">
        <ele>593.4</ele>
        <time>2019-05-11T08:56:38Z</time>
      </trkpt>
      <trkpt lat="39.1772310" lon="-1.5211540">
        <ele>592.8</ele>
        <time>2019-05-11T08:56:39Z</time>
      </trkpt>
      <trkpt lat="39.1772670" lon="-1.5212880">
        <ele>592.4</ele>
        <time>2019-05-11T08:56:40Z</time>
      </trkpt>
      <trkpt lat="39.1773010" lon="-1.5214230">
        <ele>591.8</ele>
        <time>2019-05-11T08:56:41Z</time>
      </trkpt>
      <trkpt lat="39.1773300" lon="-1.5215620">
        <ele>591.4</ele>
        <time>2019-05-11T08:56:42Z</time>
      </trkpt>
      <trkpt lat="39.1773540" lon="-1.5216990">
        <ele>590.8</ele>
        <time>2019-05-11T08:56:43Z</time>
      </trkpt>
      <trkpt lat="39.1773690" lon="-1.5218370">
        <ele>590.6</ele>
        <time>2019-05-11T08:56:44Z</time>
      </trkpt>
      <trkpt lat="39.1773820" lon="-1.5219670">
        <ele>590.2</ele>
        <time>2019-05-11T08:56:45Z</time>
      </trkpt>
      <trkpt lat="39.1774000" lon="-1.5220750">
        <ele>589.6</ele>
        <time>2019-05-11T08:56:46Z</time>
      </trkpt>
      <trkpt lat="39.1774280" lon="-1.5221630">
        <ele>588.8</ele>
        <time>2019-05-11T08:56:47Z</time>
      </trkpt>
      <trkpt lat="39.1774740" lon="-1.5222280">
        <ele>588.0</ele>
        <time>2019-05-11T08:56:48Z</time>
      </trkpt>
      <trkpt lat="39.1775440" lon="-1.5222600">
        <ele>587.4</ele>
        <time>2019-05-11T08:56:49Z</time>
      </trkpt>
      <trkpt lat="39.1776110" lon="-1.5222400">
        <ele>586.8</ele>
        <time>2019-05-11T08:56:50Z</time>
      </trkpt>
      <trkpt lat="39.1776520" lon="-1.5221710">
        <ele>586.2</ele>
        <time>2019-05-11T08:56:51Z</time>
      </trkpt>
      <trkpt lat="39.1776670" lon="-1.5220830">
        <ele>585.6</ele>
        <time>2019-05-11T08:56:52Z</time>
      </trkpt>
      <trkpt lat="39.1776550" lon="-1.5219860">
        <ele>584.6</ele>
        <time>2019-05-11T08:56:53Z</time>
      </trkpt>
      <trkpt lat="39.1776320" lon="-1.5218900">
        <ele>583.6</ele>
        <time>2019-05-11T08:56:54Z</time>
      </trkpt>
      <trkpt lat="39.1776040" lon="-1.5217910">
        <ele>582.4</ele>
        <time>2019-05-11T08:56:55Z</time>
      </trkpt>
      <trkpt lat="39.1775770" lon="-1.5216880">
        <ele>581.2</ele>
        <time>2019-05-11T08:56:56Z</time>
      </trkpt>
      <trkpt lat="39.1775500" lon="-1.5215820">
        <ele>580.0</ele>
        <time>2019-05-11T08:56:57Z</time>
      </trkpt>
      <trkpt lat="39.1775200" lon="-1.5214760">
        <ele>579.4</ele>
        <time>2019-05-11T08:56:58Z</time>
      </trkpt>
      <trkpt lat="39.1774910" lon="-1.5213740">
        <ele>578.8</ele>
        <time>2019-05-11T08:56:59Z</time>
      </trkpt>
      <trkpt lat="39.1774620" lon="-1.5212780">
        <ele>578.6</ele>
        <time>2019-05-11T08:57:00Z</time>
      </trkpt>
      <trkpt lat="39.1774410" lon="-1.5211870">
        <ele>578.2</ele>
        <time>2019-05-11T08:57:01Z</time>
      </trkpt>
      <trkpt lat="39.1774240" lon="-1.5210990">
        <ele>577.8</ele>
        <time>2019-05-11T08:57:02Z</time>
      </trkpt>
      <trkpt lat="39.1774100" lon="-1.5210230">
        <ele>577.4</ele>
        <time>2019-05-11T08:57:03Z</time>
      </trkpt>
      <trkpt lat="39.1774050" lon="-1.5209690">
        <ele>577.0</ele>
        <time>2019-05-11T08:57:04Z</time>
      </trkpt>
      <trkpt lat="39.1774100" lon="-1.5209370">
        <ele>576.6</ele>
        <time>2019-05-11T08:57:05Z</time>
      </trkpt>
      <trkpt lat="39.1774210" lon="-1.5209200">
        <ele>576.2</ele>
        <time>2019-05-11T08:57:06Z</time>
      </trkpt>
      <trkpt lat="39.1774420" lon="-1.5209200">
        <ele>575.8</ele>
        <time>2019-05-11T08:57:07Z</time>
      </trkpt>
      <trkpt lat="39.1774620" lon="-1.5209350">
        <ele>575.2</ele>
        <time>2019-05-11T08:57:08Z</time>
      </trkpt>
      <trkpt lat="39.1774820" lon="-1.5209650">
        <ele>574.8</ele>
        <time>2019-05-11T08:57:09Z</time>
      </trkpt>
      <trkpt lat="39.1775010" lon="-1.5210050">
        <ele>574.2</ele>
        <time>2019-05-11T08:57:10Z</time>
      </trkpt>
      <trkpt lat="39.1775170" lon="-1.5210550">
        <ele>573.2</ele>
        <time>2019-05-11T08:57:11Z</time>
      </trkpt>
      <trkpt lat="39.1775330" lon="-1.5211090">
        <ele>572.8</ele>
        <time>2019-05-11T08:57:12Z</time>
      </trkpt>
      <trkpt lat="39.1775540" lon="-1.5211660">
        <ele>572.6</ele>
        <time>2019-05-11T08:57:13Z</time>
      </trkpt>
      <trkpt lat="39.1775850" lon="-1.5212250">
        <ele>572.4</ele>
        <time>2019-05-11T08:57:14Z</time>
      </trkpt>
      <trkpt lat="39.1776240" lon="-1.5212870">
        <ele>572.2</ele>
        <time>2019-05-11T08:57:15Z</time>
      </trkpt>
      <trkpt lat="39.1776690" lon="-1.5213520">
        <ele>572.0</ele>
        <time>2019-05-11T08:57:16Z</time>
      </trkpt>
      <trkpt lat="39.1777080" lon="-1.5214110">
        <ele>571.8</ele>
        <time>2019-05-11T08:57:17Z</time>
      </trkpt>
      <trkpt lat="39.1777400" lon="-1.5214520">
        <ele>571.8</ele>
        <time>2019-05-11T08:57:18Z</time>
      </trkpt>
      <trkpt lat="39.1777690" lon="-1.5214680">
        <ele>571.6</ele>
        <time>2019-05-11T08:57:19Z</time>
      </trkpt>
      <trkpt lat="39.1777960" lon="-1.5214800">
        <ele>571.6</ele>
        <time>2019-05-11T08:57:20Z</time>
      </trkpt>
      <trkpt lat="39.1778220" lon="-1.5215030">
        <ele>571.0</ele>
        <time>2019-05-11T08:57:21Z</time>
      </trkpt>
      <trkpt lat="39.1778410" lon="-1.5215350">
        <ele>570.2</ele>
        <time>2019-05-11T08:57:22Z</time>
      </trkpt>
      <trkpt lat="39.1778520" lon="-1.5215630">
        <ele>569.6</ele>
        <time>2019-05-11T08:57:23Z</time>
      </trkpt>
      <trkpt lat="39.1778610" lon="-1.5215940">
        <ele>569.2</ele>
        <time>2019-05-11T08:57:24Z</time>
      </trkpt>
      <trkpt lat="39.1778730" lon="-1.5216170">
        <ele>568.6</ele>
        <time>2019-05-11T08:57:25Z</time>
      </trkpt>
      <trkpt lat="39.1778850" lon="-1.5216200">
        <ele>567.8</ele>
        <time>2019-05-11T08:57:26Z</time>
      </trkpt>
      <trkpt lat="39.1778900" lon="-1.5216060">
        <ele>567.0</ele>
        <time>2019-05-11T08:57:27Z</time>
      </trkpt>
      <trkpt lat="39.1778860" lon="-1.5215850">
        <ele>566.2</ele>
        <time>2019-05-11T08:57:28Z</time>
      </trkpt>
      <trkpt lat="39.1778820" lon="-1.5215530">
        <ele>565.6</ele>
        <time>2019-05-11T08:57:29Z</time>
      </trkpt>
      <trkpt lat="39.1778790" lon="-1.5215020">
        <ele>565.4</ele>
        <time>2019-05-11T08:57:30Z</time>
      </trkpt>
      <trkpt lat="39.1778750" lon="-1.5214340">
        <ele>565.0</ele>
        <time>2019-05-11T08:57:31Z</time>
      </trkpt>
      <trkpt lat="39.1778710" lon="-1.5213530">
        <ele>564.8</ele>
        <time>2019-05-11T08:57:32Z</time>
      </trkpt>
      <trkpt lat="39.1778710" lon="-1.5212750">
        <ele>564.6</ele>
        <time>2019-05-11T08:57:33Z</time>
      </trkpt>
      <trkpt lat="39.1778910" lon="-1.5212080">
        <ele>564.4</ele>
        <time>2019-05-11T08:57:34Z</time>
      </trkpt>
      <trkpt lat="39.1779260" lon="-1.5211450">
        <ele>564.0</ele>
        <time>2019-05-11T08:57:35Z</time>
      </trkpt>
      <trkpt lat="39.1779820" lon="-1.5210940">
        <ele>563.8</ele>
        <time>2019-05-11T08:57:36Z</time>
      </trkpt>
      <trkpt lat="39.1780470" lon="-1.5210370">
        <ele>563.4</ele>
        <time>2019-05-11T08:57:37Z</time>
      </trkpt>
      <trkpt lat="39.1781170" lon="-1.5209770">
        <ele>563.2</ele>
        <time>2019-05-11T08:57:38Z</time>
      </trkpt>
      <trkpt lat="39.1781890" lon="-1.5209130">
        <ele>563.0</ele>
        <time>2019-05-11T08:57:39Z</time>
      </trkpt>
      <trkpt lat="39.1782510" lon="-1.5208330">
        <ele>562.8</ele>
        <time>2019-05-11T08:57:40Z</time>
      </trkpt>
      <trkpt lat="39.1783060" lon="-1.5207400">
        <ele>562.6</ele>
        <time>2019-05-11T08:57:41Z</time>
      </trkpt>
      <trkpt lat="39.1783580" lon="-1.5206410">
        <ele>562.4</ele>
        <time>2019-05-11T08:57:42Z</time>
      </trkpt>
      <trkpt lat="39.1784120" lon="-1.5205450">
        <ele>561.8</ele>
        <time>2019-05-11T08:57:43Z</time>
      </trkpt>
      <trkpt lat="39.1784560" lon="-1.5204420">
        <ele>561.2</ele>
        <time>2019-05-11T08:57:44Z</time>
      </trkpt>
      <trkpt lat="39.1784910" lon="-1.5203390">
        <ele>559.8</ele>
        <time>2019-05-11T08:57:45Z</time>
      </trkpt>
      <trkpt lat="39.1785190" lon="-1.5202490">
        <ele>559.2</ele>
        <time>2019-05-11T08:57:46Z</time>
      </trkpt>
      <trkpt lat="39.1785140" lon="-1.5201760">
        <ele>558.6</ele>
        <time>2019-05-11T08:57:47Z</time>
      </trkpt>
      <trkpt lat="39.1784830" lon="-1.5201110">
        <ele>558.0</ele>
        <time>2019-05-11T08:57:48Z</time>
      </trkpt>
      <trkpt lat="39.1784440" lon="-1.5200560">
        <ele>557.4</ele>
        <time>2019-05-11T08:57:49Z</time>
      </trkpt>
      <trkpt lat="39.1784010" lon="-1.5200010">
        <ele>556.4</ele>
        <time>2019-05-11T08:57:50Z</time>
      </trkpt>
      <trkpt lat="39.1783530" lon="-1.5199420">
        <ele>555.6</ele>
        <time>2019-05-11T08:57:51Z</time>
      </trkpt>
      <trkpt lat="39.1783040" lon="-1.5198790">
        <ele>554.2</ele>
        <time>2019-05-11T08:57:52Z</time>
      </trkpt>
      <trkpt lat="39.1782550" lon="-1.5198110">
        <ele>553.0</ele>
        <time>2019-05-11T08:57:53Z</time>
      </trkpt>
      <trkpt lat="39.1782120" lon="-1.5197330">
        <ele>552.2</ele>
        <time>2019-05-11T08:57:54Z</time>
      </trkpt>
      <trkpt lat="39.1781680" lon="-1.5196480">
        <ele>551.8</ele>
        <time>2019-05-11T08:57:55Z</time>
      </trkpt>
      <trkpt lat="39.1781290" lon="-1.5195520">
        <ele>551.6</ele>
        <time>2019-05-11T08:57:56Z</time>
      </trkpt>
      <trkpt lat="39.1780900" lon="-1.5194550">
        <ele>551.6</ele>
        <time>2019-05-11T08:57:57Z</time>
      </trkpt>
      <trkpt lat="39.1780610" lon="-1.5193560">
        <ele>551.4</ele>
        <time>2019-05-11T08:57:58Z</time>
      </trkpt>
      <trkpt lat="39.1780390" lon="-1.5192530">
        <ele>551.4</ele>
        <time>2019-05-11T08:57:59Z</time>
      </trkpt>
      <trkpt lat="39.1780260" lon="-1.5191510">
        <ele>551.4</ele>
        <time>2019-05-11T08:58:00Z</time>
      </trkpt>
      <trkpt lat="39.1780190" lon="-1.5190470">
        <ele>551.4</ele>
        <time>2019-05-11T08:58:01Z</time>
      </trkpt>
      <trkpt lat="39.1780230" lon="-1.5189460">
        <ele>551.4</ele>
        <time>2019-05-11T08:58:02Z</time>
      </trkpt>
      <trkpt lat="39.1780290" lon="-1.5188510">
        <ele>551.4</ele>
        <time>2019-05-11T08:58:03Z</time>
      </trkpt>
      <trkpt lat="39.1780400" lon="-1.5187630">
        <ele>551.4</ele>
        <time>2019-05-11T08:58:04Z</time>
      </trkpt>
      <trkpt lat="39.1780610" lon="-1.5186990">
        <ele>551.4</ele>
        <time>2019-05-11T08:58:05Z</time>
      </trkpt>
      <trkpt lat="39.1780990" lon="-1.5186610">
        <ele>551.4</ele>
        <time>2019-05-11T08:58:06Z</time>
      </trkpt>
      <trkpt lat="39.1781440" lon="-1.5186360">
        <ele>551.4</ele>
        <time>2019-05-11T08:58:07Z</time>
      </trkpt>
      <trkpt lat="39.1781880" lon="-1.5186140">
        <ele>551.4</ele>
        <time>2019-05-11T08:58:08Z</time>
      </trkpt>
      <trkpt lat="39.1782250" lon="-1.5185860">
        <ele>551.4</ele>
        <time>2019-05-11T08:58:09Z</time>
      </trkpt>
      <trkpt lat="39.1782520" lon="-1.5185500">
        <ele>551.6</ele>
        <time>2019-05-11T08:58:10Z</time>
      </trkpt>
      <trkpt lat="39.1782750" lon="-1.5185100">
        <ele>551.8</ele>
        <time>2019-05-11T08:58:11Z</time>
      </trkpt>
      <trkpt lat="39.1782910" lon="-1.5184730">
        <ele>552.0</ele>
        <time>2019-05-11T08:58:12Z</time>
      </trkpt>
      <trkpt lat="39.1783040" lon="-1.5184340">
        <ele>552.2</ele>
        <time>2019-05-11T08:58:13Z</time>
      </trkpt>
      <trkpt lat="39.1783220" lon="-1.5183870">
        <ele>552.4</ele>
        <time>2019-05-11T08:58:14Z</time>
      </trkpt>
      <trkpt lat="39.1783460" lon="-1.5183440">
        <ele>552.6</ele>
        <time>2019-05-11T08:58:15Z</time>
      </trkpt>
      <trkpt lat="39.1783760" lon="-1.5183070">
        <ele>552.8</ele>
        <time>2019-05-11T08:58:16Z</time>
      </trkpt>
      <trkpt lat="39.1784080" lon="-1.5182730">
        <ele>553.2</ele>
        <time>2019-05-11T08:58:17Z</time>
      </trkpt>
      <trkpt lat="39.1784420" lon="-1.5182380">
        <ele>553.6</ele>
        <time>2019-05-11T08:58:18Z</time>
      </trkpt>
      <trkpt lat="39.1784780" lon="-1.5182050">
        <ele>554.0</ele>
        <time>2019-05-11T08:58:19Z</time>
      </trkpt>
      <trkpt lat="39.1785130" lon="-1.5181660">
        <ele>555.2</ele>
        <time>2019-05-11T08:58:20Z</time>
      </trkpt>
      <trkpt lat="39.1785530" lon="-1.5181320">
        <ele>555.4</ele>
        <time>2019-05-11T08:58:21Z</time>
      </trkpt>
      <trkpt lat="39.1785900" lon="-1.5180990">
        <ele>555.8</ele>
        <time>2019-05-11T08:58:22Z</time>
      </trkpt>
      <trkpt lat="39.1786300" lon="-1.5180730">
        <ele>556.0</ele>
        <time>2019-05-11T08:58:23Z</time>
      </trkpt>
      <trkpt lat="39.1786720" lon="-1.5180480">
        <ele>556.4</ele>
        <time>2019-05-11T08:58:24Z</time>
      </trkpt>
      <trkpt lat="39.1787140" lon="-1.5180250">
        <ele>556.4</ele>
        <time>2019-05-11T08:58:25Z</time>
      </trkpt>
      <trkpt lat="39.1787560" lon="-1.5180000">
        <ele>556.6</ele>
        <time>2019-05-11T08:58:26Z</time>
      </trkpt>
      <trkpt lat="39.1788000" lon="-1.5179810">
        <ele>556.6</ele>
        <time>2019-05-11T08:58:27Z</time>
      </trkpt>
      <trkpt lat="39.1788450" lon="-1.5179690">
        <ele>556.8</ele>
        <time>2019-05-11T08:58:28Z</time>
      </trkpt>
      <trkpt lat="39.1788840" lon="-1.5179530">
        <ele>557.0</ele>
        <time>2019-05-11T08:58:29Z</time>
      </trkpt>
      <trkpt lat="39.1789230" lon="-1.5179230">
        <ele>557.4</ele>
        <time>2019-05-11T08:58:30Z</time>
      </trkpt>
      <trkpt lat="39.1789530" lon="-1.5178790">
        <ele>557.6</ele>
        <time>2019-05-11T08:58:31Z</time>
      </trkpt>
      <trkpt lat="39.1789870" lon="-1.5178280">
        <ele>557.6</ele>
        <time>2019-05-11T08:58:32Z</time>
      </trkpt>
      <trkpt lat="39.1790260" lon="-1.5177780">
        <ele>557.8</ele>
        <time>2019-05-11T08:58:33Z</time>
      </trkpt>
      <trkpt lat="39.1790690" lon="-1.5177270">
        <ele>558.0</ele>
        <time>2019-05-11T08:58:34Z</time>
      </trkpt>
      <trkpt lat="39.1791150" lon="-1.5176770">
        <ele>558.2</ele>
        <time>2019-05-11T08:58:35Z</time>
      </trkpt>
      <trkpt lat="39.1791660" lon="-1.5176300">
        <ele>558.2</ele>
        <time>2019-05-11T08:58:36Z</time>
      </trkpt>
      <trkpt lat="39.1792230" lon="-1.5175920">
        <ele>558.2</ele>
        <time>2019-05-11T08:58:37Z</time>
      </trkpt>
      <trkpt lat="39.1792790" lon="-1.5175710">
        <ele>558.2</ele>
        <time>2019-05-11T08:58:38Z</time>
      </trkpt>
      <trkpt lat="39.1793400" lon="-1.5175720">
        <ele>558.2</ele>
        <time>2019-05-11T08:58:39Z</time>
      </trkpt>
      <trkpt lat="39.1793980" lon="-1.5175880">
        <ele>558.2</ele>
        <time>2019-05-11T08:58:40Z</time>
      </trkpt>
      <trkpt lat="39.1794490" lon="-1.5176240">
        <ele>558.2</ele>
        <time>2019-05-11T08:58:41Z</time>
      </trkpt>
      <trkpt lat="39.1794980" lon="-1.5176520">
        <ele>558.2</ele>
        <time>2019-05-11T08:58:42Z</time>
      </trkpt>
      <trkpt lat="39.1795470" lon="-1.5176760">
        <ele>558.2</ele>
        <time>2019-05-11T08:58:43Z</time>
      </trkpt>
      <trkpt lat="39.1795950" lon="-1.5176960">
        <ele>558.2</ele>
        <time>2019-05-11T08:58:44Z</time>
      </trkpt>
      <trkpt lat="39.1796450" lon="-1.5177230">
        <ele>558.2</ele>
        <time>2019-05-11T08:58:45Z</time>
      </trkpt>
      <trkpt lat="39.1796900" lon="-1.5177490">
        <ele>558.2</ele>
        <time>2019-05-11T08:58:46Z</time>
      </trkpt>
      <trkpt lat="39.1797320" lon="-1.5177690">
        <ele>558.2</ele>
        <time>2019-05-11T08:58:47Z</time>
      </trkpt>
      <trkpt lat="39.1797730" lon="-1.5177830">
        <ele>558.2</ele>
        <time>2019-05-11T08:58:48Z</time>
      </trkpt>
      <trkpt lat="39.1798020" lon="-1.5177940">
        <ele>558.2</ele>
        <time>2019-05-11T08:58:49Z</time>
      </trkpt>
      <trkpt lat="39.1798290" lon="-1.5178080">
        <ele>558.2</ele>
        <time>2019-05-11T08:58:50Z</time>
      </trkpt>
      <trkpt lat="39.1798570" lon="-1.5178230">
        <ele>558.2</ele>
        <time>2019-05-11T08:58:51Z</time>
      </trkpt>
      <trkpt lat="39.1798810" lon="-1.5178370">
        <ele>558.2</ele>
        <time>2019-05-11T08:58:52Z</time>
      </trkpt>
      <trkpt lat="39.1799080" lon="-1.5178500">
        <ele>558.2</ele>
        <time>2019-05-11T08:58:53Z</time>
      </trkpt>
      <trkpt lat="39.1799360" lon="-1.5178610">
        <ele>558.2</ele>
        <time>2019-05-11T08:58:54Z</time>
      </trkpt>
      <trkpt lat="39.1799650" lon="-1.5178680">
        <ele>558.4</ele>
        <time>2019-05-11T08:58:55Z</time>
      </trkpt>
      <trkpt lat="39.1799890" lon="-1.5178690">
        <ele>558.6</ele>
        <time>2019-05-11T08:58:56Z</time>
      </trkpt>
      <trkpt lat="39.1800150" lon="-1.5178720">
        <ele>558.8</ele>
        <time>2019-05-11T08:58:57Z</time>
      </trkpt>
      <trkpt lat="39.1800390" lon="-1.5178710">
        <ele>559.2</ele>
        <time>2019-05-11T08:58:58Z</time>
      </trkpt>
      <trkpt lat="39.1800600" lon="-1.5178620">
        <ele>559.6</ele>
        <time>2019-05-11T08:58:59Z</time>
      </trkpt>
      <trkpt lat="39.1800830" lon="-1.5178550">
        <ele>559.8</ele>
        <time>2019-05-11T08:59:00Z</time>
      </trkpt>
      <trkpt lat="39.1801030" lon="-1.5178480">
        <ele>560.2</ele>
        <time>2019-05-11T08:59:01Z</time>
      </trkpt>
      <trkpt lat="39.1801200" lon="-1.5178410">
        <ele>560.6</ele>
        <time>2019-05-11T08:59:02Z</time>
      </trkpt>
      <trkpt lat="39.1801360" lon="-1.5178330">
        <ele>561.0</ele>
        <time>2019-05-11T08:59:03Z</time>
      </trkpt>
      <trkpt lat="39.1801510" lon="-1.5178250">
        <ele>561.2</ele>
        <time>2019-05-11T08:59:04Z</time>
      </trkpt>
      <trkpt lat="39.1801590" lon="-1.5178220">
        <ele>561.4</ele>
        <time>2019-05-11T08:59:05Z</time>
      </trkpt>
      <trkpt lat="39.1801650" lon="-1.5178230">
        <ele>561.8</ele>
        <time>2019-05-11T08:59:06Z</time>
      </trkpt>
      <trkpt lat="39.1801710" lon="-1.5178210">
        <ele>562.2</ele>
        <time>2019-05-11T08:59:07Z</time>
      </trkpt>
      <trkpt lat="39.1801810" lon="-1.5178180">
        <ele>562.4</ele>
        <time>2019-05-11T08:59:08Z</time>
      </trkpt>
      <trkpt lat="39.1801880" lon="-1.5178070">
        <ele>562.8</ele>
        <time>2019-05-11T08:59:09Z</time>
      </trkpt>
      <trkpt lat="39.1802000" lon="-1.5177980">
        <ele>563.0</ele>
        <time>2019-05-11T08:59:10Z</time>
      </trkpt>
      <trkpt lat="39.1802100" lon="-1.5177870">
        <ele>563.4</ele>
        <time>2019-05-11T08:59:11Z</time>
      </trkpt>
      <trkpt lat="39.1802210" lon="-1.5177790">
        <ele>563.6</ele>
        <time>2019-05-11T08:59:12Z</time>
      </trkpt>
      <trkpt lat="39.1802310" lon="-1.5177740">
        <ele>563.6</ele>
        <time>2019-05-11T08:59:13Z</time>
      </trkpt>
      <trkpt lat="39.1802390" lon="-1.5177640">
        <ele>563.8</ele>
        <time>2019-05-11T08:59:14Z</time>
      </trkpt>
      <trkpt lat="39.1802490" lon="-1.5177550">
        <ele>564.0</ele>
        <time>2019-05-11T08:59:15Z</time>
      </trkpt>
      <trkpt lat="39.1802580" lon="-1.5177390">
        <ele>564.2</ele>
        <time>2019-05-11T08:59:16Z</time>
      </trkpt>
      <trkpt lat="39.1802640" lon="-1.5177290">
        <ele>564.6</ele>
        <time>2019-05-11T08:59:17Z</time>
      </trkpt>
      <trkpt lat="39.1802670" lon="-1.5177310">
        <ele>564.8</ele>
        <time>2019-05-11T08:59:18Z</time>
      </trkpt>
      <trkpt lat="39.1802680" lon="-1.5177240">
        <ele>565.0</ele>
        <time>2019-05-11T08:59:19Z</time>
      </trkpt>
      <trkpt lat="39.1802700" lon="-1.5177150">
        <ele>565.2</ele>
        <time>2019-05-11T08:59:20Z</time>
      </trkpt>
      <trkpt lat="39.1802690" lon="-1.5177010">
        <ele>565.4</ele>
        <time>2019-05-11T08:59:21Z</time>
      </trkpt>
      <trkpt lat="39.1802730" lon="-1.5176860">
        <ele>565.6</ele>
        <time>2019-05-11T08:59:22Z</time>
      </trkpt>
      <trkpt lat="39.1802790" lon="-1.5176680">
        <ele>565.8</ele>
        <time>2019-05-11T08:59:23Z</time>
      </trkpt>
      <trkpt lat="39.1802860" lon="-1.5176470">
        <ele>565.8</ele>
        <time>2019-05-11T08:59:24Z</time>
      </trkpt>
      <trkpt lat="39.1802950" lon="-1.5176250">
        <ele>566.0</ele>
        <time>2019-05-11T08:59:25Z</time>
      </trkpt>
      <trkpt lat="39.1803080" lon="-1.5176000">
        <ele>566.0</ele>
        <time>2019-05-11T08:59:26Z</time>
      </trkpt>
      <trkpt lat="39.1803230" lon="-1.5175780">
        <ele>566.2</ele>
        <time>2019-05-11T08:59:27Z</time>
      </trkpt>
      <trkpt lat="39.1803390" lon="-1.5175610">
        <ele>566.2</ele>
        <time>2019-05-11T08:59:28Z</time>
      </trkpt>
      <trkpt lat="39.1803560" lon="-1.5175470">
        <ele>566.2</ele>
        <time>2019-05-11T08:59:29Z</time>
      </trkpt>
      <trkpt lat="39.1803730" lon="-1.5175370">
        <ele>566.4</ele>
        <time>2019-05-11T08:59:30Z</time>
      </trkpt>
      <trkpt lat="39.1803880" lon="-1.5175360">
        <ele>566.4</ele>
        <time>2019-05-11T08:59:31Z</time>
      </trkpt>
      <trkpt lat="39.1804020" lon="-1.5175410">
        <ele>566.6</ele>
        <time>2019-05-11T08:59:32Z</time>
      </trkpt>
      <trkpt lat="39.1804170" lon="-1.5175450">
        <ele>566.8</ele>
        <time>2019-05-11T08:59:33Z</time>
      </trkpt>
      <trkpt lat="39.1804330" lon="-1.5175450">
        <ele>566.8</ele>
        <time>2019-05-11T08:59:34Z</time>
      </trkpt>
      <trkpt lat="39.1804520" lon="-1.5175440">
        <ele>567.2</ele>
        <time>2019-05-11T08:59:35Z</time>
      </trkpt>
      <trkpt lat="39.1804700" lon="-1.5175430">
        <ele>567.4</ele>
        <time>2019-05-11T08:59:36Z</time>
      </trkpt>
      <trkpt lat="39.1804890" lon="-1.5175430">
        <ele>567.6</ele>
        <time>2019-05-11T08:59:37Z</time>
      </trkpt>
      <trkpt lat="39.1805040" lon="-1.5175420">
        <ele>567.8</ele>
        <time>2019-05-11T08:59:38Z</time>
      </trkpt>
      <trkpt lat="39.1805170" lon="-1.5175370">
        <ele>568.2</ele>
        <time>2019-05-11T08:59:39Z</time>
      </trkpt>
      <trkpt lat="39.1805330" lon="-1.5175310">
        <ele>568.6</ele>
        <time>2019-05-11T08:59:40Z</time>
      </trkpt>
      <trkpt lat="39.1805520" lon="-1.5175260">
        <ele>569.0</ele>
        <time>2019-05-11T08:59:41Z</time>
      </trkpt>
      <trkpt lat="39.1805670" lon="-1.5175220">
        <ele>569.2</ele>
        <time>2019-05-11T08:59:42Z</time>
      </trkpt>
      <trkpt lat="39.1805800" lon="-1.5175220">
        <ele>569.4</ele>
        <time>2019-05-11T08:59:43Z</time>
      </trkpt>
      <trkpt lat="39.1805930" lon="-1.5175190">
        <ele>569.6</ele>
        <time>2019-05-11T08:59:44Z</time>
      </trkpt>
      <trkpt lat="39.1806050" lon="-1.5175150">
        <ele>570.0</ele>
        <time>2019-05-11T08:59:45Z</time>
      </trkpt>
      <trkpt lat="39.1806180" lon="-1.5175170">
        <ele>570.6</ele>
        <time>2019-05-11T08:59:46Z</time>
      </trkpt>
      <trkpt lat="39.1806270" lon="-1.5175250">
        <ele>570.8</ele>
        <time>2019-05-11T08:59:47Z</time>
      </trkpt>
      <trkpt lat="39.1806380" lon="-1.5175350">
        <ele>571.0</ele>
        <time>2019-05-11T08:59:48Z</time>
      </trkpt>
      <trkpt lat="39.1806500" lon="-1.5175420">
        <ele>571.4</ele>
        <time>2019-05-11T08:59:49Z</time>
      </trkpt>
      <trkpt lat="39.1806640" lon="-1.5175480">
        <ele>571.6</ele>
        <time>2019-05-11T08:59:50Z</time>
      </trkpt>
      <trkpt lat="39.1806770" lon="-1.5175530">
        <ele>572.0</ele>
        <time>2019-05-11T08:59:51Z</time>
      </trkpt>
      <trkpt lat="39.1806880" lon="-1.5175490">
        <ele>572.2</ele>
        <time>2019-05-11T08:59:52Z</time>
      </trkpt>
      <trkpt lat="39.1807040" lon="-1.5175480">
        <ele>572.4</ele>
        <time>2019-05-11T08:59:53Z</time>
      </trkpt>
      <trkpt lat="39.1807190" lon="-1.5175500">
        <ele>572.6</ele>
        <time>2019-05-11T08:59:54Z</time>
      </trkpt>
      <trkpt lat="39.1807360" lon="-1.5175530">
        <ele>572.6</ele>
        <time>2019-05-11T08:59:55Z</time>
      </trkpt>
      <trkpt lat="39.1807550" lon="-1.5175580">
        <ele>572.8</ele>
        <time>2019-05-11T08:59:56Z</time>
      </trkpt>
      <trkpt lat="39.1807710" lon="-1.5175610">
        <ele>573.0</ele>
        <time>2019-05-11T08:59:57Z</time>
      </trkpt>
      <trkpt lat="39.1807770" lon="-1.5175610">
        <ele>573.2</ele>
        <time>2019-05-11T08:59:58Z</time>
      </trkpt>
      <trkpt lat="39.1807760" lon="-1.5175670">
        <ele>573.4</ele>
        <time>2019-05-11T08:59:59Z</time>
      </trkpt>
      <trkpt lat="39.1807830" lon="-1.5175710">
        <ele>573.6</ele>
        <time>2019-05-11T09:00:00Z</time>
      </trkpt>
      <trkpt lat="39.1807930" lon="-1.5175750">
        <ele>573.8</ele>
        <time>2019-05-11T09:00:01Z</time>
      </trkpt>
      <trkpt lat="39.1808060" lon="-1.5175780">
        <ele>574.0</ele>
        <time>2019-05-11T09:00:02Z</time>
      </trkpt>
      <trkpt lat="39.1808120" lon="-1.5175800">
        <ele>574.2</ele>
        <time>2019-05-11T09:00:03Z</time>
      </trkpt>
      <trkpt lat="39.1808190" lon="-1.5175830">
        <ele>574.4</ele>
        <time>2019-05-11T09:00:04Z</time>
      </trkpt>
      <trkpt lat="39.1808250" lon="-1.5175870">
        <ele>574.8</ele>
        <time>2019-05-11T09:00:05Z</time>
      </trkpt>
      <trkpt lat="39.1808330" lon="-1.5175900">
        <ele>574.8</ele>
        <time>2019-05-11T09:00:06Z</time>
      </trkpt>
      <trkpt lat="39.1808430" lon="-1.5175940">
        <ele>575.0</ele>
        <time>2019-05-11T09:00:07Z</time>
      </trkpt>
      <trkpt lat="39.1808510" lon="-1.5175990">
        <ele>575.0</ele>
        <time>2019-05-11T09:00:08Z</time>
      </trkpt>
      <trkpt lat="39.1808550" lon="-1.5176030">
        <ele>575.2</ele>
        <time>2019-05-11T09:00:09Z</time>
      </trkpt>
      <trkpt lat="39.1808630" lon="-1.5176050">
        <ele>575.2</ele>
        <time>2019-05-11T09:00:10Z</time>
      </trkpt>
      <trkpt lat="39.1808690" lon="-1.5176100">
        <ele>575.4</ele>
        <time>2019-05-11T09:00:11Z</time>
      </trkpt>
      <trkpt lat="39.1808730" lon="-1.5176130">
        <ele>575.6</ele>
        <time>2019-05-11T09:00:12Z</time>
      </trkpt>
      <trkpt lat="39.1808770" lon="-1.5176160">
        <ele>575.8</ele>
        <time>2019-05-11T09:00:13Z</time>
      </trkpt>
      <trkpt lat="39.1808830" lon="-1.5176150">
        <ele>576.0</ele>
        <time>2019-05-11T09:00:14Z</time>
      </trkpt>
      <trkpt lat="39.1808920" lon="-1.5176090">
        <ele>576.2</ele>
        <time>2019-05-11T09:00:15Z</time>
      </trkpt>
      <trkpt lat="39.1809000" lon="-1.5176050">
        <ele>576.2</ele>
        <time>2019-05-11T09:00:16Z</time>
      </trkpt>
      <trkpt lat="39.1809070" lon="-1.5175980">
        <ele>576.4</ele>
        <time>2019-05-11T09:00:17Z</time>
      </trkpt>
      <trkpt lat="39.1809190" lon="-1.5175920">
        <ele>576.4</ele>
        <time>2019-05-11T09:00:18Z</time>
      </trkpt>
      <trkpt lat="39.1809270" lon="-1.5175840">
        <ele>576.6</ele>
        <time>2019-05-11T09:00:19Z</time>
      </trkpt>
      <trkpt lat="39.1809350" lon="-1.5175790">
        <ele>576.8</ele>
        <time>2019-05-11T09:00:20Z</time>
      </trkpt>
      <trkpt lat="39.1809450" lon="-1.5175700">
        <ele>577.0</ele>
        <time>2019-05-11T09:00:21Z</time>
      </trkpt>
      <trkpt lat="39.1809510" lon="-1.5175620">
        <ele>577.2</ele>
        <time>2019-05-11T09:00:22Z</time>
      </trkpt>
      <trkpt lat="39.1809570" lon="-1.5175590">
        <ele>577.4</ele>
        <time>2019-05-11T09:00:23Z</time>
      </trkpt>
      <trkpt lat="39.1809620" lon="-1.5175520">
        <ele>577.6</ele>
        <time>2019-05-11T09:00:24Z</time>
      </trkpt>
      <trkpt lat="39.1809660" lon="-1.5175450">
        <ele>577.6</ele>
        <time>2019-05-11T09:00:25Z</time>
      </trkpt>
      <trkpt lat="39.1809740" lon="-1.5175390">
        <ele>577.8</ele>
        <time>2019-05-11T09:00:26Z</time>
      </trkpt>
      <trkpt lat="39.1809810" lon="-1.5175320">
        <ele>578.0</ele>
        <time>2019-05-11T09:00:27Z</time>
      </trkpt>
      <trkpt lat="39.1809870" lon="-1.5175220">
        <ele>578.2</ele>
        <time>2019-05-11T09:00:28Z</time>
      </trkpt>
      <trkpt lat="39.1809920" lon="-1.5175120">
        <ele>578.4</ele>
        <time>2019-05-11T09:00:29Z</time>
      </trkpt>
      <trkpt lat="39.1809970" lon="-1.5175110">
        <ele>578.8</ele>
        <time>2019-05-11T09:00:30Z</time>
      </trkpt>
      <trkpt lat="39.1809990" lon="-1.5175110">
        <ele>579.0</ele>
        <time>2019-05-11T09:00:31Z</time>
      </trkpt>
      <trkpt lat="39.1810000" lon="-1.5175110">
        <ele>579.2</ele>
        <time>2019-05-11T09:00:32Z</time>
      </trkpt>
      <trkpt lat="39.1810030" lon="-1.5175120">
        <ele>579.4</ele>
        <time>2019-05-11T09:00:33Z</time>
      </trkpt>
      <trkpt lat="39.1810060" lon="-1.5175070">
        <ele>579.6</ele>
        <time>2019-05-11T09:00:34Z</time>
      </trkpt>
      <trkpt lat="39.1810110" lon="-1.5175010">
        <ele>580.0</ele>
        <time>2019-05-11T09:00:35Z</time>
      </trkpt>
      <trkpt lat="39.1810170" lon="-1.5174940">
        <ele>580.0</ele>
        <time>2019-05-11T09:00:36Z</time>
      </trkpt>
      <trkpt lat="39.1810210" lon="-1.5174830">
        <ele>580.2</ele>
        <time>2019-05-11T09:00:37Z</time>
      </trkpt>
      <trkpt lat="39.1810260" lon="-1.5174710">
        <ele>580.4</ele>
        <time>2019-05-11T09:00:38Z</time>
      </trkpt>
      <trkpt lat="39.1810330" lon="-1.5174590">
        <ele>580.4</ele>
        <time>2019-05-11T09:00:39Z</time>
      </trkpt>
      <trkpt lat="39.1810490" lon="-1.5174520">
        <ele>580.4</ele>
        <time>2019-05-11T09:00:40Z</time>
      </trkpt>
      <trkpt lat="39.1810570" lon="-1.5174410">
        <ele>580.6</ele>
        <time>2019-05-11T09:00:41Z</time>
      </trkpt>
      <trkpt lat="39.1810630" lon="-1.5174280">
        <ele>580.6</ele>
        <time>2019-05-11T09:00:42Z</time>
      </trkpt>
      <trkpt lat="39.1810710" lon="-1.5174180">
        <ele>580.6</ele>
        <time>2019-05-11T09:00:43Z</time>
      </trkpt>
      <trkpt lat="39.1810790" lon="-1.5174100">
        <ele>580.8</ele>
        <time>2019-05-11T09:00:44Z</time>
      </trkpt>
      <trkpt lat="39.1810820" lon="-1.5174040">
        <ele>581.0</ele>
        <time>2019-05-11T09:00:45Z</time>
      </trkpt>
      <trkpt lat="39.1810830" lon="-1.5174020">
        <ele>581.2</ele>
        <time>2019-05-11T09:00:46Z</time>
      </trkpt>
      <trkpt lat="39.1810830" lon="-1.5174010">
        <ele>581.2</ele>
        <time>2019-05-11T09:00:47Z</time>
      </trkpt>
      <trkpt lat="39.1810840" lon="-1.5174000">
        <ele>581.4</ele>
        <time>2019-05-11T09:00:48Z</time>
      </trkpt>
      <trkpt lat="39.1810870" lon="-1.5174010">
        <ele>581.4</ele>
        <time>2019-05-11T09:00:49Z</time>
      </trkpt>
      <trkpt lat="39.1810880" lon="-1.5173980">
        <ele>581.6</ele>
        <time>2019-05-11T09:00:50Z</time>
      </trkpt>
      <trkpt lat="39.1811000" lon="-1.5173910">
        <ele>581.8</ele>
        <time>2019-05-11T09:00:51Z</time>
      </trkpt>
      <trkpt lat="39.1811080" lon="-1.5173790">
        <ele>582.0</ele>
        <time>2019-05-11T09:00:52Z</time>
      </trkpt>
      <trkpt lat="39.1811160" lon="-1.5173630">
        <ele>582.2</ele>
        <time>2019-05-11T09:00:53Z</time>
      </trkpt>
      <trkpt lat="39.1811260" lon="-1.5173440">
        <ele>582.2</ele>
        <time>2019-05-11T09:00:54Z</time>
      </trkpt>
      <trkpt lat="39.1811380" lon="-1.5173220">
        <ele>582.2</ele>
        <time>2019-05-11T09:00:55Z</time>
      </trkpt>
      <trkpt lat="39.1811470" lon="-1.5172940">
        <ele>582.2</ele>
        <time>2019-05-11T09:00:56Z</time>
      </trkpt>
      <trkpt lat="39.1811570" lon="-1.5172660">
        <ele>582.2</ele>
        <time>2019-05-11T09:00:57Z</time>
      </trkpt>
      <trkpt lat="39.1811680" lon="-1.5172380">
        <ele>582.4</ele>
        <time>2019-05-11T09:00:58Z</time>
      </trkpt>
      <trkpt lat="39.1811790" lon="-1.5172100">
        <ele>582.4</ele>
        <time>2019-05-11T09:00:59Z</time>
      </trkpt>
      <trkpt lat="39.1811910" lon="-1.5171810">
        <ele>582.6</ele>
        <time>2019-05-11T09:01:00Z</time>
      </trkpt>
      <trkpt lat="39.1812040" lon="-1.5171530">
        <ele>582.8</ele>
        <time>2019-05-11T09:01:01Z</time>
      </trkpt>
      <trkpt lat="39.1812190" lon="-1.5171210">
        <ele>582.8</ele>
        <time>2019-05-11T09:01:02Z</time>
      </trkpt>
      <trkpt lat="39.1812350" lon="-1.5170930">
        <ele>583.0</ele>
        <time>2019-05-11T09:01:03Z</time>
      </trkpt>
      <trkpt lat="39.1812510" lon="-1.5170630">
        <ele>583.2</ele>
        <time>2019-05-11T09:01:04Z</time>
      </trkpt>
      <trkpt lat="39.1812630" lon="-1.5170320">
        <ele>583.2</ele>
        <time>2019-05-11T09:01:05Z</time>
      </trkpt>
      <trkpt lat="39.1812770" lon="-1.5170000">
        <ele>583.4</ele>
        <time>2019-05-11T09:01:06Z</time>
      </trkpt>
      <trkpt lat="39.1812900" lon="-1.5169680">
        <ele>583.4</ele>
        <time>2019-05-11T09:01:07Z</time>
      </trkpt>
      <trkpt lat="39.1813040" lon="-1.5169330">
        <ele>583.6</ele>
        <time>2019-05-11T09:01:08Z</time>
      </trkpt>
      <trkpt lat="39.1813180" lon="-1.5169000">
        <ele>583.6</ele>
        <time>2019-05-11T09:01:09Z</time>
      </trkpt>
      <trkpt lat="39.1813350" lon="-1.5168670">
        <ele>583.6</ele>
        <time>2019-05-11T09:01:10Z</time>
      </trkpt>
      <trkpt lat="39.1813510" lon="-1.5168340">
        <ele>583.8</ele>
        <time>2019-05-11T09:01:11Z</time>
      </trkpt>
      <trkpt lat="39.1813660" lon="-1.5168020">
        <ele>583.8</ele>
        <time>2019-05-11T09:01:12Z</time>
      </trkpt>
      <trkpt lat="39.1813790" lon="-1.5167750">
        <ele>584.0</ele>
        <time>2019-05-11T09:01:13Z</time>
      </trkpt>
      <trkpt lat="39.1813930" lon="-1.5167500">
        <ele>584.2</ele>
        <time>2019-05-11T09:01:14Z</time>
      </trkpt>
      <trkpt lat="39.1814070" lon="-1.5167230">
        <ele>584.2</ele>
        <time>2019-05-11T09:01:15Z</time>
      </trkpt>
      <trkpt lat="39.1814220" lon="-1.5166950">
        <ele>584.4</ele>
        <time>2019-05-11T09:01:16Z</time>
      </trkpt>
      <trkpt lat="39.1814380" lon="-1.5166720">
        <ele>584.4</ele>
        <time>2019-05-11T09:01:17Z</time>
      </trkpt>
      <trkpt lat="39.1814520" lon="-1.5166530">
        <ele>584.4</ele>
        <time>2019-05-11T09:01:18Z</time>
      </trkpt>
      <trkpt lat="39.1814660" lon="-1.5166290">
        <ele>584.6</ele>
        <time>2019-05-11T09:01:19Z</time>
      </trkpt>
      <trkpt lat="39.1814810" lon="-1.5166110">
        <ele>584.8</ele>
        <time>2019-05-11T09:01:20Z</time>
      </trkpt>
      <trkpt lat="39.1814960" lon="-1.5166000">
        <ele>585.0</ele>
        <time>2019-05-11T09:01:21Z</time>
      </trkpt>
      <trkpt lat="39.1815160" lon="-1.5165890">
        <ele>585.2</ele>
        <time>2019-05-11T09:01:22Z</time>
      </trkpt>
      <trkpt lat="39.1815350" lon="-1.5165760">
        <ele>585.2</ele>
        <time>2019-05-11T09:01:23Z</time>
      </trkpt>
      <trkpt lat="39.1815560" lon="-1.5165630">
        <ele>585.6</ele>
        <time>2019-05-11T09:01:24Z</time>
      </trkpt>
      <trkpt lat="39.1815770" lon="-1.5165480">
        <ele>586.0</ele>
        <time>2019-05-11T09:01:25Z</time>
      </trkpt>
      <trkpt lat="39.1815970" lon="-1.5165330">
        <ele>586.2</ele>
        <time>2019-05-11T09:01:26Z</time>
      </trkpt>
      <trkpt lat="39.1816160" lon="-1.5165170">
        <ele>586.6</ele>
        <time>2019-05-11T09:01:27Z</time>
      </trkpt>
      <trkpt lat="39.1816340" lon="-1.5165040">
        <ele>586.8</ele>
        <time>2019-05-11T09:01:28Z</time>
      </trkpt>
      <trkpt lat="39.1816520" lon="-1.5164960">
        <ele>587.0</ele>
        <time>2019-05-11T09:01:29Z</time>
      </trkpt>
      <trkpt lat="39.1816720" lon="-1.5164950">
        <ele>587.2</ele>
        <time>2019-05-11T09:01:30Z</time>
      </trkpt>
      <trkpt lat="39.1816930" lon="-1.5164980">
        <ele>587.2</ele>
        <time>2019-05-11T09:01:31Z</time>
      </trkpt>
      <trkpt lat="39.1817150" lon="-1.5165040">
        <ele>587.2</ele>
        <time>2019-05-11T09:01:32Z</time>
      </trkpt>
      <trkpt lat="39.1817360" lon="-1.5165080">
        <ele>587.4</ele>
        <time>2019-05-11T09:01:33Z</time>
      </trkpt>
      <trkpt lat="39.1817580" lon="-1.5165070">
        <ele>587.4</ele>
        <time>2019-05-11T09:01:34Z</time>
      </trkpt>
      <trkpt lat="39.1817780" lon="-1.5165060">
        <ele>587.6</ele>
        <time>2019-05-11T09:01:35Z</time>
      </trkpt>
      <trkpt lat="39.1817970" lon="-1.5165080">
        <ele>587.8</ele>
        <time>2019-05-11T09:01:36Z</time>
      </trkpt>
      <trkpt lat="39.1818160" lon="-1.5165100">
        <ele>587.8</ele>
        <time>2019-05-11T09:01:37Z</time>
      </trkpt>
      <trkpt lat="39.1818340" lon="-1.5165090">
        <ele>588.0</ele>
        <time>2019-05-11T09:01:38Z</time>
      </trkpt>
      <trkpt lat="39.1818530" lon="-1.5165080">
        <ele>588.2</ele>
        <time>2019-05-11T09:01:39Z</time>
      </trkpt>
      <trkpt lat="39.1818710" lon="-1.5165100">
        <ele>588.6</ele>
        <time>2019-05-11T09:01:40Z</time>
      </trkpt>
      <trkpt lat="39.1818870" lon="-1.5165130">
        <ele>588.8</ele>
        <time>2019-05-11T09:01:41Z</time>
      </trkpt>
      <trkpt lat="39.1819040" lon="-1.5165170">
        <ele>589.0</ele>
        <time>2019-05-11T09:01:42Z</time>
      </trkpt>
      <trkpt lat="39.1819200" lon="-1.5165190">
        <ele>589.2</ele>
        <time>2019-05-11T09:01:43Z</time>
      </trkpt>
      <trkpt lat="39.1819370" lon="-1.5165170">
        <ele>589.4</ele>
        <time>2019-05-11T09:01:44Z</time>
      </trkpt>
      <trkpt lat="39.1819530" lon="-1.5165110">
        <ele>589.6</ele>
        <time>2019-05-11T09:01:45Z</time>
      </trkpt>
      <trkpt lat="39.1819690" lon="-1.5165040">
        <ele>589.8</ele>
        <time>2019-05-11T09:01:46Z</time>
      </trkpt>
      <trkpt lat="39.1819830" lon="-1.5164960">
        <ele>590.0</ele>
        <time>2019-05-11T09:01:47Z</time>
      </trkpt>
      <trkpt lat="39.1819960" lon="-1.5164900">
        <ele>590.4</ele>
        <time>2019-05-11T09:01:48Z</time>
      </trkpt>
      <trkpt lat="39.1820100" lon="-1.5164830">
        <ele>590.6</ele>
        <time>2019-05-11T09:01:49Z</time>
      </trkpt>
      <trkpt lat="39.1820230" lon="-1.5164740">
        <ele>590.8</ele>
        <time>2019-05-11T09:01:50Z</time>
      </trkpt>
      <trkpt lat="39.1820370" lon="-1.5164620">
        <ele>591.0</ele>
        <time>2019-05-11T09:01:51Z</time>
      </trkpt>
      <trkpt lat="39.1820530" lon="-1.5164540">
        <ele>591.4</ele>
        <time>2019-05-11T09:01:52Z</time>
      </trkpt>
      <trkpt lat="39.1820650" lon="-1.5164430">
        <ele>591.6</ele>
        <time>2019-05-11T09:01:53Z</time>
      </trkpt>
      <trkpt lat="39.1820760" lon="-1.5164300">
        <ele>591.8</ele>
        <time>2019-05-11T09:01:54Z</time>
      </trkpt>
      <trkpt lat="39.1820890" lon="-1.5164170">
        <ele>592.0</ele>
        <time>2019-05-11T09:01:55Z</time>
      </trkpt>
      <trkpt lat="39.1821020" lon="-1.5164030">
        <ele>592.2</ele>
        <time>2019-05-11T09:01:56Z</time>
      </trkpt>
      <trkpt lat="39.1821160" lon="-1.5163890">
        <ele>592.4</ele>
        <time>2019-05-11T09:01:57Z</time>
      </trkpt>
      <trkpt lat="39.1821310" lon="-1.5163740">
        <ele>592.6</ele>
        <time>2019-05-11T09:01:58Z</time>
      </trkpt>
      <trkpt lat="39.1821470" lon="-1.5163630">
        <ele>592.8</ele>
        <time>2019-05-11T09:01:59Z</time>
      </trkpt>
      <trkpt lat="39.1821610" lon="-1.5163520">
        <ele>593.0</ele>
        <time>2019-05-11T09:02:00Z</time>
      </trkpt>
      <trkpt lat="39.1821750" lon="-1.5163370">
        <ele>593.2</ele>
        <time>2019-05-11T09:02:01Z</time>
      </trkpt>
      <trkpt lat="39.1821880" lon="-1.5163210">
        <ele>593.4</ele>
        <time>2019-05-11T09:02:02Z</time>
      </trkpt>
      <trkpt lat="39.1822000" lon="-1.5163050">
        <ele>593.4</ele>
        <time>2019-05-11T09:02:03Z</time>
      </trkpt>
      <trkpt lat="39.1822140" lon="-1.5162920">
        <ele>593.4</ele>
        <time>2019-05-11T09:02:04Z</time>
      </trkpt>
      <trkpt lat="39.1822280" lon="-1.5162780">
        <ele>593.6</ele>
        <time>2019-05-11T09:02:05Z</time>
      </trkpt>
      <trkpt lat="39.1822430" lon="-1.5162620">
        <ele>593.8</ele>
        <time>2019-05-11T09:02:06Z</time>
      </trkpt>
      <trkpt lat="39.1822580" lon="-1.5162470">
        <ele>594.0</ele>
        <time>2019-05-11T09:02:07Z</time>
      </trkpt>
      <trkpt lat="39.1822730" lon="-1.5162330">
        <ele>594.2</ele>
        <time>2019-05-11T09:02:08Z</time>
      </trkpt>
      <trkpt lat="39.1822900" lon="-1.5162240">
        <ele>594.2</ele>
        <time>2019-05-11T09:02:09Z</time>
      </trkpt>
      <trkpt lat="39.1823060" lon="-1.5162150">
        <ele>594.4</ele>
        <time>2019-05-11T09:02:10Z</time>
      </trkpt>
      <trkpt lat="39.1823200" lon="-1.5162040">
        <ele>594.4</ele>
        <time>2019-05-11T09:02:11Z</time>
      </trkpt>
      <trkpt lat="39.1823330" lon="-1.5161970">
        <ele>594.4</ele>
        <time>2019-05-11T09:02:12Z</time>
      </trkpt>
      <trkpt lat="39.1823480" lon="-1.5161960">
        <ele>594.6</ele>
        <time>2019-05-11T09:02:13Z</time>
      </trkpt>
      <trkpt lat="39.1823620" lon="-1.5161960">
        <ele>594.6</ele>
        <time>2019-05-11T09:02:14Z</time>
      </trkpt>
      <trkpt lat="39.1823790" lon="-1.5161960">
        <ele>594.8</ele>
        <time>2019-05-11T09:02:15Z</time>
      </trkpt>
      <trkpt lat="39.1823920" lon="-1.5161890">
        <ele>595.0</ele>
        <time>2019-05-11T09:02:16Z</time>
      </trkpt>
      <trkpt lat="39.1824020" lon="-1.5161780">
        <ele>595.2</ele>
        <time>2019-05-11T09:02:17Z</time>
      </trkpt>
      <trkpt lat="39.1824120" lon="-1.5161650">
        <ele>595.4</ele>
        <time>2019-05-11T09:02:18Z</time>
      </trkpt>
      <trkpt lat="39.1824270" lon="-1.5161510">
        <ele>595.6</ele>
        <time>2019-05-11T09:02:19Z</time>
      </trkpt>
      <trkpt lat="39.1824400" lon="-1.5161330">
        <ele>595.8</ele>
        <time>2019-05-11T09:02:20Z</time>
      </trkpt>
      <trkpt lat="39.1824520" lon="-1.5161190">
        <ele>596.0</ele>
        <time>2019-05-11T09:02:21Z</time>
      </trkpt>
      <trkpt lat="39.1824640" lon="-1.5161040">
        <ele>596.4</ele>
        <time>2019-05-11T09:02:22Z</time>
      </trkpt>
      <trkpt lat="39.1824760" lon="-1.5160900">
        <ele>596.6</ele>
        <time>2019-05-11T09:02:23Z</time>
      </trkpt>
      <trkpt lat="39.1824880" lon="-1.5160760">
        <ele>596.8</ele>
        <time>2019-05-11T09:02:24Z</time>
      </trkpt>
      <trkpt lat="39.1824980" lon="-1.5160630">
        <ele>597.2</ele>
        <time>2019-05-11T09:02:25Z</time>
      </trkpt>
      <trkpt lat="39.1825070" lon="-1.5160520">
        <ele>597.4</ele>
        <time>2019-05-11T09:02:26Z</time>
      </trkpt>
      <trkpt lat="39.1825190" lon="-1.5160380">
        <ele>597.6</ele>
        <time>2019-05-11T09:02:27Z</time>
      </trkpt>
      <trkpt lat="39.1825330" lon="-1.5160260">
        <ele>597.8</ele>
        <time>2019-05-11T09:02:28Z</time>
      </trkpt>
      <trkpt lat="39.1825470" lon="-1.5160160">
        <ele>598.2</ele>
        <time>2019-05-11T09:02:29Z</time>
      </trkpt>
      <trkpt lat="39.1825590" lon="-1.5160050">
        <ele>598.4</ele>
        <time>2019-05-11T09:02:30Z</time>
      </trkpt>
      <trkpt lat="39.1825710" lon="-1.5159940">
        <ele>598.8</ele>
        <time>2019-05-11T09:02:31Z</time>
      </trkpt>
      <trkpt lat="39.1825830" lon="-1.5159830">
        <ele>599.0</ele>
        <time>2019-05-11T09:02:32Z</time>
      </trkpt>
      <trkpt lat="39.1825940" lon="-1.5159750">
        <ele>599.2</ele>
        <time>2019-05-11T09:02:33Z</time>
      </trkpt>
      <trkpt lat="39.1826050" lon="-1.5159680">
        <ele>599.2</ele>
        <time>2019-05-11T09:02:34Z</time>
      </trkpt>
      <trkpt lat="39.1826190" lon="-1.5159650">
        <ele>599.4</ele>
        <time>2019-05-11T09:02:35Z</time>
      </trkpt>
      <trkpt lat="39.1826330" lon="-1.5159630">
        <ele>599.4</ele>
        <time>2019-05-11T09:02:36Z</time>
      </trkpt>
      <trkpt lat="39.1826390" lon="-1.5159610">
        <ele>599.6</ele>
        <time>2019-05-11T09:02:37Z</time>
      </trkpt>
      <trkpt lat="39.1826400" lon="-1.5159590">
        <ele>599.6</ele>
        <time>2019-05-11T09:02:38Z</time>
      </trkpt>
      <trkpt lat="39.1826450" lon="-1.5159560">
        <ele>599.8</ele>
        <time>2019-05-11T09:02:39Z</time>
      </trkpt>
      <trkpt lat="39.1826570" lon="-1.5159550">
        <ele>599.8</ele>
        <time>2019-05-11T09:02:40Z</time>
      </trkpt>
      <trkpt lat="39.1826670" lon="-1.5159500">
        <ele>600.0</ele>
        <time>2019-05-11T09:02:41Z</time>
      </trkpt>
      <trkpt lat="39.1826790" lon="-1.5159460">
        <ele>600.2</ele>
        <time>2019-05-11T09:02:42Z</time>
      </trkpt>
      <trkpt lat="39.1826920" lon="-1.5159400">
        <ele>600.2</ele>
        <time>2019-05-11T09:02:43Z</time>
      </trkpt>
      <trkpt lat="39.1827070" lon="-1.5159330">
        <ele>600.6</ele>
        <time>2019-05-11T09:02:44Z</time>
      </trkpt>
      <trkpt lat="39.1827230" lon="-1.5159260">
        <ele>600.8</ele>
        <time>2019-05-11T09:02:45Z</time>
      </trkpt>
      <trkpt lat="39.1827370" lon="-1.5159170">
        <ele>601.0</ele>
        <time>2019-05-11T09:02:46Z</time>
      </trkpt>
      <trkpt lat="39.1827490" lon="-1.5159090">
        <ele>601.2</ele>
        <time>2019-05-11T09:02:47Z</time>
      </trkpt>
      <trkpt lat="39.1827620" lon="-1.5159000">
        <ele>601.2</ele>
        <time>2019-05-11T09:02:48Z</time>
      </trkpt>
      <trkpt lat="39.1827730" lon="-1.5158860">
        <ele>601.4</ele>
        <time>2019-05-11T09:02:49Z</time>
      </trkpt>
      <trkpt lat="39.1827820" lon="-1.5158730">
        <ele>601.6</ele>
        <time>2019-05-11T09:02:50Z</time>
      </trkpt>
      <trkpt lat="39.1827900" lon="-1.5158620">
        <ele>601.6</ele>
        <time>2019-05-11T09:02:51Z</time>
      </trkpt>
      <trkpt lat="39.1827960" lon="-1.5158570">
        <ele>601.8</ele>
        <time>2019-05-11T09:02:52Z</time>
      </trkpt>
      <trkpt lat="39.1827980" lon="-1.5158560">
        <ele>602.0</ele>
        <time>2019-05-11T09:02:53Z</time>
      </trkpt>
      <trkpt lat="39.1828030" lon="-1.5158460">
        <ele>602.2</ele>
        <time>2019-05-11T09:02:54Z</time>
      </trkpt>
      <trkpt lat="39.1828160" lon="-1.5158400">
        <ele>602.2</ele>
        <time>2019-05-11T09:02:55Z</time>
      </trkpt>
      <trkpt lat="39.1828250" lon="-1.5158290">
        <ele>602.4</ele>
        <time>2019-05-11T09:02:56Z</time>
      </trkpt>
      <trkpt lat="39.1828320" lon="-1.5158180">
        <ele>603.0</ele>
        <time>2019-05-11T09:02:57Z</time>
      </trkpt>
      <trkpt lat="39.1828390" lon="-1.5158070">
        <ele>603.2</ele>
        <time>2019-05-11T09:02:58Z</time>
      </trkpt>
      <trkpt lat="39.1828490" lon="-1.5157950">
        <ele>603.4</ele>
        <time>2019-05-11T09:02:59Z</time>
      </trkpt>
      <trkpt lat="39.1828590" lon="-1.5157810">
        <ele>603.6</ele>
        <time>2019-05-11T09:03:00Z</time>
      </trkpt>
      <trkpt lat="39.1828680" lon="-1.5157630">
        <ele>603.6</ele>
        <time>2019-05-11T09:03:01Z</time>
      </trkpt>
      <trkpt lat="39.1828750" lon="-1.5157450">
        <ele>603.6</ele>
        <time>2019-05-11T09:03:02Z</time>
      </trkpt>
      <trkpt lat="39.1828820" lon="-1.5157300">
        <ele>603.8</ele>
        <time>2019-05-11T09:03:03Z</time>
      </trkpt>
      <trkpt lat="39.1828870" lon="-1.5157160">
        <ele>603.8</ele>
        <time>2019-05-11T09:03:04Z</time>
      </trkpt>
      <trkpt lat="39.1828900" lon="-1.5157000">
        <ele>604.0</ele>
        <time>2019-05-11T09:03:05Z</time>
      </trkpt>
      <trkpt lat="39.1828910" lon="-1.5156820">
        <ele>604.2</ele>
        <time>2019-05-11T09:03:06Z</time>
      </trkpt>
      <trkpt lat="39.1828930" lon="-1.5156680">
        <ele>604.4</ele>
        <time>2019-05-11T09:03:07Z</time>
      </trkpt>
      <trkpt lat="39.1828930" lon="-1.5156630">
        <ele>604.6</ele>
        <time>2019-05-11T09:03:08Z</time>
      </trkpt>
      <trkpt lat="39.1828940" lon="-1.5156600">
        <ele>605.0</ele>
        <time>2019-05-11T09:03:09Z</time>
      </trkpt>
      <trkpt lat="39.1828960" lon="-1.5156540">
        <ele>605.0</ele>
        <time>2019-05-11T09:03:10Z</time>
      </trkpt>
      <trkpt lat="39.1829000" lon="-1.5156450">
        <ele>605.2</ele>
        <time>2019-05-11T09:03:11Z</time>
      </trkpt>
      <trkpt lat="39.1829040" lon="-1.5156360">
        <ele>605.4</ele>
        <time>2019-05-11T09:03:12Z</time>
      </trkpt>
      <trkpt lat="39.1829080" lon="-1.5156230">
        <ele>605.8</ele>
        <time>2019-05-11T09:03:13Z</time>
      </trkpt>
      <trkpt lat="39.1829190" lon="-1.5156150">
        <ele>605.8</ele>
        <time>2019-05-11T09:03:14Z</time>
      </trkpt>
      <trkpt lat="39.1829250" lon="-1.5156070">
        <ele>606.0</ele>
        <time>2019-05-11T09:03:15Z</time>
      </trkpt>
      <trkpt lat="39.1829310" lon="-1.5155980">
        <ele>606.0</ele>
        <time>2019-05-11T09:03:16Z</time>
      </trkpt>
      <trkpt lat="39.1829350" lon="-1.5155900">
        <ele>606.2</ele>
        <time>2019-05-11T09:03:17Z</time>
      </trkpt>
      <trkpt lat="39.1829390" lon="-1.5155830">
        <ele>606.4</ele>
        <time>2019-05-11T09:03:18Z</time>
      </trkpt>
      <trkpt lat="39.1829450" lon="-1.5155770">
        <ele>606.4</ele>
        <time>2019-05-11T09:03:19Z</time>
      </trkpt>
      <trkpt lat="39.1829500" lon="-1.5155700">
        <ele>606.6</ele>
        <time>2019-05-11T09:03:20Z</time>
      </trkpt>
      <trkpt lat="39.1829550" lon="-1.5155600">
        <ele>606.6</ele>
        <time>2019-05-11T09:03:21Z</time>
      </trkpt>
      <trkpt lat="39.1829560" lon="-1.5155470">
        <ele>606.8</ele>
        <time>2019-05-11T09:03:22Z</time>
      </trkpt>
      <trkpt lat="39.1829590" lon="-1.5155340">
        <ele>607.0</ele>
        <time>2019-05-11T09:03:23Z</time>
      </trkpt>
      <trkpt lat="39.1829620" lon="-1.5155230">
        <ele>607.2</ele>
        <time>2019-05-11T09:03:24Z</time>
      </trkpt>
      <trkpt lat="39.1829620" lon="-1.5155090">
        <ele>607.4</ele>
        <time>2019-05-11T09:03:25Z</time>
      </trkpt>
      <trkpt lat="39.1829640" lon="-1.5154950">
        <ele>607.4</ele>
        <time>2019-05-11T09:03:26Z</time>
      </trkpt>
      <trkpt lat="39.1829660" lon="-1.5154820">
        <ele>607.4</ele>
        <time>2019-05-11T09:03:27Z</time>
      </trkpt>
      <trkpt lat="39.1829680" lon="-1.5154700">
        <ele>607.4</ele>
        <time>2019-05-11T09:03:28Z</time>
      </trkpt>
      <trkpt lat="39.1829710" lon="-1.5154570">
        <ele>607.6</ele>
        <time>2019-05-11T09:03:29Z</time>
      </trkpt>
      <trkpt lat="39.1829770" lon="-1.5154430">
        <ele>607.8</ele>
        <time>2019-05-11T09:03:30Z</time>
      </trkpt>
      <trkpt lat="39.1829830" lon="-1.5154320">
        <ele>608.0</ele>
        <time>2019-05-11T09:03:31Z</time>
      </trkpt>
      <trkpt lat="39.1829870" lon="-1.5154190">
        <ele>608.4</ele>
        <time>2019-05-11T09:03:32Z</time>
      </trkpt>
      <trkpt lat="39.1829900" lon="-1.5154060">
        <ele>608.6</ele>
        <time>2019-05-11T09:03:33Z</time>
      </trkpt>
      <trkpt lat="39.1829940" lon="-1.5153950">
        <ele>608.6</ele>
        <time>2019-05-11T09:03:34Z</time>
      </trkpt>
      <trkpt lat="39.1829980" lon="-1.5153830">
        <ele>608.8</ele>
        <time>2019-05-11T09:03:35Z</time>
      </trkpt>
      <trkpt lat="39.1829980" lon="-1.5153680">
        <ele>608.8</ele>
        <time>2019-05-11T09:03:36Z</time>
      </trkpt>
      <trkpt lat="39.1829970" lon="-1.5153500">
        <ele>609.0</ele>
        <time>2019-05-11T09:03:37Z</time>
      </trkpt>
      <trkpt lat="39.1829970" lon="-1.5153320">
        <ele>609.2</ele>
        <time>2019-05-11T09:03:38Z</time>
      </trkpt>
      <trkpt lat="39.1830000" lon="-1.5153180">
        <ele>609.4</ele>
        <time>2019-05-11T09:03:39Z</time>
      </trkpt>
      <trkpt lat="39.1830010" lon="-1.5153030">
        <ele>609.6</ele>
        <time>2019-05-11T09:03:40Z</time>
      </trkpt>
      <trkpt lat="39.1830010" lon="-1.5152880">
        <ele>609.8</ele>
        <time>2019-05-11T09:03:41Z</time>
      </trkpt>
      <trkpt lat="39.1830010" lon="-1.5152730">
        <ele>610.0</ele>
        <time>2019-05-11T09:03:42Z</time>
      </trkpt>
      <trkpt lat="39.1829980" lon="-1.5152580">
        <ele>610.2</ele>
        <time>2019-05-11T09:03:43Z</time>
      </trkpt>
      <trkpt lat="39.1830000" lon="-1.5152430">
        <ele>610.4</ele>
        <time>2019-05-11T09:03:44Z</time>
      </trkpt>
      <trkpt lat="39.1830020" lon="-1.5152290">
        <ele>610.6</ele>
        <time>2019-05-11T09:03:45Z</time>
      </trkpt>
      <trkpt lat="39.1830040" lon="-1.5152130">
        <ele>610.8</ele>
        <time>2019-05-11T09:03:46Z</time>
      </trkpt>
      <trkpt lat="39.1830060" lon="-1.5151960">
        <ele>610.8</ele>
        <time>2019-05-11T09:03:47Z</time>
      </trkpt>
      <trkpt lat="39.1830090" lon="-1.5151800">
        <ele>611.0</ele>
        <time>2019-05-11T09:03:48Z</time>
      </trkpt>
      <trkpt lat="39.1830130" lon="-1.5151650">
        <ele>611.0</ele>
        <time>2019-05-11T09:03:49Z</time>
      </trkpt>
      <trkpt lat="39.1830160" lon="-1.5151500">
        <ele>611.2</ele>
        <time>2019-05-11T09:03:50Z</time>
      </trkpt>
      <trkpt lat="39.1830160" lon="-1.5151340">
        <ele>611.4</ele>
        <time>2019-05-11T09:03:51Z</time>
      </trkpt>
      <trkpt lat="39.1830150" lon="-1.5151170">
        <ele>611.4</ele>
        <time>2019-05-11T09:03:52Z</time>
      </trkpt>
      <trkpt lat="39.1830150" lon="-1.5151030">
        <ele>611.6</ele>
        <time>2019-05-11T09:03:53Z</time>
      </trkpt>
      <trkpt lat="39.1830140" lon="-1.5150870">
        <ele>611.8</ele>
        <time>2019-05-11T09:03:54Z</time>
      </trkpt>
      <trkpt lat="39.1830140" lon="-1.5150710">
        <ele>612.0</ele>
        <time>2019-05-11T09:03:55Z</time>
      </trkpt>
      <trkpt lat="39.1830160" lon="-1.5150550">
        <ele>612.2</ele>
        <time>2019-05-11T09:03:56Z</time>
      </trkpt>
      <trkpt lat="39.1830170" lon="-1.5150370">
        <ele>612.2</ele>
        <time>2019-05-11T09:03:57Z</time>
      </trkpt>
      <trkpt lat="39.1830220" lon="-1.5150210">
        <ele>612.4</ele>
        <time>2019-05-11T09:03:58Z</time>
      </trkpt>
      <trkpt lat="39.1830290" lon="-1.5150080">
        <ele>612.4</ele>
        <time>2019-05-11T09:03:59Z</time>
      </trkpt>
      <trkpt lat="39.1830380" lon="-1.5150000">
        <ele>612.6</ele>
        <time>2019-05-11T09:04:00Z</time>
      </trkpt>
      <trkpt lat="39.1830480" lon="-1.5149930">
        <ele>612.8</ele>
        <time>2019-05-11T09:04:01Z</time>
      </trkpt>
      <trkpt lat="39.1830570" lon="-1.5149860">
        <ele>613.0</ele>
        <time>2019-05-11T09:04:02Z</time>
      </trkpt>
      <trkpt lat="39.1830680" lon="-1.5149860">
        <ele>613.0</ele>
        <time>2019-05-11T09:04:03Z</time>
      </trkpt>
      <trkpt lat="39.1830770" lon="-1.5149950">
        <ele>613.2</ele>
        <time>2019-05-11T09:04:04Z</time>
      </trkpt>
      <trkpt lat="39.1830790" lon="-1.5150110">
        <ele>613.4</ele>
        <time>2019-05-11T09:04:05Z</time>
      </trkpt>
      <trkpt lat="39.1830800" lon="-1.5150260">
        <ele>613.6</ele>
        <time>2019-05-11T09:04:06Z</time>
      </trkpt>
      <trkpt lat="39.1830790" lon="-1.5150320">
        <ele>614.2</ele>
        <time>2019-05-11T09:04:07Z</time>
      </trkpt>
      <trkpt lat="39.1830780" lon="-1.5150300">
        <ele>614.6</ele>
        <time>2019-05-11T09:04:08Z</time>
      </trkpt>
      <trkpt lat="39.1830780" lon="-1.5150340">
        <ele>614.8</ele>
        <time>2019-05-11T09:04:09Z</time>
      </trkpt>
      <trkpt lat="39.1830800" lon="-1.5150440">
        <ele>614.8</ele>
        <time>2019-05-11T09:04:10Z</time>
      </trkpt>
      <trkpt lat="39.1830840" lon="-1.5150600">
        <ele>615.2</ele>
        <time>2019-05-11T09:04:11Z</time>
      </trkpt>
      <trkpt lat="39.1830880" lon="-1.5150770">
        <ele>615.2</ele>
        <time>2019-05-11T09:04:12Z</time>
      </trkpt>
      <trkpt lat="39.1830930" lon="-1.5150950">
        <ele>615.4</ele>
        <time>2019-05-11T09:04:13Z</time>
      </trkpt>
      <trkpt lat="39.1830980" lon="-1.5151150">
        <ele>615.4</ele>
        <time>2019-05-11T09:04:14Z</time>
      </trkpt>
      <trkpt lat="39.1831040" lon="-1.5151360">
        <ele>615.4</ele>
        <time>2019-05-11T09:04:15Z</time>
      </trkpt>
      <trkpt lat="39.1831100" lon="-1.5151570">
        <ele>615.6</ele>
        <time>2019-05-11T09:04:16Z</time>
      </trkpt>
      <trkpt lat="39.1831170" lon="-1.5151760">
        <ele>615.6</ele>
        <time>2019-05-11T09:04:17Z</time>
      </trkpt>
      <trkpt lat="39.1831220" lon="-1.5151940">
        <ele>615.6</ele>
        <time>2019-05-11T09:04:18Z</time>
      </trkpt>
      <trkpt lat="39.1831290" lon="-1.5152120">
        <ele>615.8</ele>
        <time>2019-05-11T09:04:19Z</time>
      </trkpt>
      <trkpt lat="39.1831360" lon="-1.5152280">
        <ele>616.0</ele>
        <time>2019-05-11T09:04:20Z</time>
      </trkpt>
      <trkpt lat="39.1831460" lon="-1.5152360">
        <ele>616.0</ele>
        <time>2019-05-11T09:04:21Z</time>
      </trkpt>
      <trkpt lat="39.1831580" lon="-1.5152350">
        <ele>616.0</ele>
        <time>2019-05-11T09:04:22Z</time>
      </trkpt>
      <trkpt lat="39.1831680" lon="-1.5152220">
        <ele>616.4</ele>
        <time>2019-05-11T09:04:23Z</time>
      </trkpt>
      <trkpt lat="39.1831730" lon="-1.5152070">
        <ele>616.6</ele>
        <time>2019-05-11T09:04:24Z</time>
      </trkpt>
      <trkpt lat="39.1831770" lon="-1.5151910">
        <ele>616.8</ele>
        <time>2019-05-11T09:04:25Z</time>
      </trkpt>
      <trkpt lat="39.1831800" lon="-1.5151720">
        <ele>617.0</ele>
        <time>2019-05-11T09:04:26Z</time>
      </trkpt>
      <trkpt lat="39.1831840" lon="-1.5151540">
        <ele>617.2</ele>
        <time>2019-05-11T09:04:27Z</time>
      </trkpt>
      <trkpt lat="39.1831830" lon="-1.5151360">
        <ele>617.4</ele>
        <time>2019-05-11T09:04:28Z</time>
      </trkpt>
      <trkpt lat="39.1831800" lon="-1.5151180">
        <ele>617.6</ele>
        <time>2019-05-11T09:04:29Z</time>
      </trkpt>
      <trkpt lat="39.1831800" lon="-1.5151100">
        <ele>617.8</ele>
        <time>2019-05-11T09:04:30Z</time>
      </trkpt>
      <trkpt lat="39.1831820" lon="-1.5151040">
        <ele>618.0</ele>
        <time>2019-05-11T09:04:31Z</time>
      </trkpt>
      <trkpt lat="39.1831810" lon="-1.5150890">
        <ele>618.2</ele>
        <time>2019-05-11T09:04:32Z</time>
      </trkpt>
      <trkpt lat="39.1831800" lon="-1.5150770">
        <ele>618.4</ele>
        <time>2019-05-11T09:04:33Z</time>
      </trkpt>
      <trkpt lat="39.1831790" lon="-1.5150650">
        <ele>618.6</ele>
        <time>2019-05-11T09:04:34Z</time>
      </trkpt>
      <trkpt lat="39.1831790" lon="-1.5150490">
        <ele>618.6</ele>
        <time>2019-05-11T09:04:35Z</time>
      </trkpt>
      <trkpt lat="39.1831770" lon="-1.5150380">
        <ele>618.8</ele>
        <time>2019-05-11T09:04:36Z</time>
      </trkpt>
      <trkpt lat="39.1831740" lon="-1.5150260">
        <ele>619.2</ele>
        <time>2019-05-11T09:04:37Z</time>
      </trkpt>
      <trkpt lat="39.1831700" lon="-1.5150120">
        <ele>619.2</ele>
        <time>2019-05-11T09:04:38Z</time>
      </trkpt>
      <trkpt lat="39.1831630" lon="-1.5150010">
        <ele>619.4</ele>
        <time>2019-05-11T09:04:39Z</time>
      </trkpt>
      <trkpt lat="39.1831600" lon="-1.5149910">
        <ele>619.4</ele>
        <time>2019-05-11T09:04:40Z</time>
      </trkpt>
      <trkpt lat="39.1831610" lon="-1.5149790">
        <ele>619.8</ele>
        <time>2019-05-11T09:04:41Z</time>
      </trkpt>
      <trkpt lat="39.1831610" lon="-1.5149650">
        <ele>620.0</ele>
        <time>2019-05-11T09:04:42Z</time>
      </trkpt>
      <trkpt lat="39.1831590" lon="-1.5149480">
        <ele>620.2</ele>
        <time>2019-05-11T09:04:43Z</time>
      </trkpt>
      <trkpt lat="39.1831550" lon="-1.5149290">
        <ele>620.6</ele>
        <time>2019-05-11T09:04:44Z</time>
      </trkpt>
      <trkpt lat="39.1831490" lon="-1.5149110">
        <ele>620.8</ele>
        <time>2019-05-11T09:04:45Z</time>
      </trkpt>
      <trkpt lat="39.1831450" lon="-1.5148950">
        <ele>621.0</ele>
        <time>2019-05-11T09:04:46Z</time>
      </trkpt>
      <trkpt lat="39.1831400" lon="-1.5148790">
        <ele>621.2</ele>
        <time>2019-05-11T09:04:47Z</time>
      </trkpt>
      <trkpt lat="39.1831310" lon="-1.5148630">
        <ele>621.4</ele>
        <time>2019-05-11T09:04:48Z</time>
      </trkpt>
      <trkpt lat="39.1831250" lon="-1.5148460">
        <ele>621.6</ele>
        <time>2019-05-11T09:04:49Z</time>
      </trkpt>
      <trkpt lat="39.1831170" lon="-1.5148300">
        <ele>621.6</ele>
        <time>2019-05-11T09:04:50Z</time>
      </trkpt>
      <trkpt lat="39.1831130" lon="-1.5148110">
        <ele>621.6</ele>
        <time>2019-05-11T09:04:51Z</time>
      </trkpt>
      <trkpt lat="39.1831090" lon="-1.5147880">
        <ele>621.8</ele>
        <time>2019-05-11T09:04:52Z</time>
      </trkpt>
      <trkpt lat="39.1831090" lon="-1.5147650">
        <ele>622.0</ele>
        <time>2019-05-11T09:04:53Z</time>
      </trkpt>
      <trkpt lat="39.1831150" lon="-1.5147450">
        <ele>622.2</ele>
        <time>2019-05-11T09:04:54Z</time>
      </trkpt>
      <trkpt lat="39.1831240" lon="-1.5147260">
        <ele>622.2</ele>
        <time>2019-05-11T09:04:55Z</time>
      </trkpt>
      <trkpt lat="39.1831360" lon="-1.5147070">
        <ele>622.4</ele>
        <time>2019-05-11T09:04:56Z</time>
      </trkpt>
      <trkpt lat="39.1831510" lon="-1.5146880">
        <ele>622.6</ele>
        <time>2019-05-11T09:04:57Z</time>
      </trkpt>
      <trkpt lat="39.1831730" lon="-1.5146780">
        <ele>622.8</ele>
        <time>2019-05-11T09:04:58Z</time>
      </trkpt>
      <trkpt lat="39.1831990" lon="-1.5146740">
        <ele>623.0</ele>
        <time>2019-05-11T09:04:59Z</time>
      </trkpt>
      <trkpt lat="39.1832230" lon="-1.5146740">
        <ele>623.0</ele>
        <time>2019-05-11T09:05:00Z</time>
      </trkpt>
      <trkpt lat="39.1832470" lon="-1.5146790">
        <ele>623.2</ele>
        <time>2019-05-11T09:05:01Z</time>
      </trkpt>
      <trkpt lat="39.1832680" lon="-1.5146860">
        <ele>623.6</ele>
        <time>2019-05-11T09:05:02Z</time>
      </trkpt>
      <trkpt lat="39.1832860" lon="-1.5146890">
        <ele>623.6</ele>
        <time>2019-05-11T09:05:03Z</time>
      </trkpt>
      <trkpt lat="39.1833050" lon="-1.5146910">
        <ele>623.8</ele>
        <time>2019-05-11T09:05:04Z</time>
      </trkpt>
      <trkpt lat="39.1833230" lon="-1.5146890">
        <ele>623.8</ele>
        <time>2019-05-11T09:05:05Z</time>
      </trkpt>
      <trkpt lat="39.1833410" lon="-1.5146850">
        <ele>623.8</ele>
        <time>2019-05-11T09:05:06Z</time>
      </trkpt>
      <trkpt lat="39.1833560" lon="-1.5146770">
        <ele>624.0</ele>
        <time>2019-05-11T09:05:07Z</time>
      </trkpt>
      <trkpt lat="39.1833740" lon="-1.5146700">
        <ele>624.0</ele>
        <time>2019-05-11T09:05:08Z</time>
      </trkpt>
      <trkpt lat="39.1833880" lon="-1.5146640">
        <ele>624.2</ele>
        <time>2019-05-11T09:05:09Z</time>
      </trkpt>
      <trkpt lat="39.1834040" lon="-1.5146600">
        <ele>624.2</ele>
        <time>2019-05-11T09:05:10Z</time>
      </trkpt>
      <trkpt lat="39.1834150" lon="-1.5146520">
        <ele>624.4</ele>
        <time>2019-05-11T09:05:11Z</time>
      </trkpt>
      <trkpt lat="39.1834230" lon="-1.5146370">
        <ele>624.6</ele>
        <time>2019-05-11T09:05:12Z</time>
      </trkpt>
      <trkpt lat="39.1834330" lon="-1.5146220">
        <ele>624.8</ele>
        <time>2019-05-11T09:05:13Z</time>
      </trkpt>
      <trkpt lat="39.1834440" lon="-1.5146080">
        <ele>625.0</ele>
        <time>2019-05-11T09:05:14Z</time>
      </trkpt>
      <trkpt lat="39.1834560" lon="-1.5145950">
        <ele>625.2</ele>
        <time>2019-05-11T09:05:15Z</time>
      </trkpt>
      <trkpt lat="39.1834680" lon="-1.5145800">
        <ele>625.8</ele>
        <time>2019-05-11T09:05:16Z</time>
      </trkpt>
      <trkpt lat="39.1834800" lon="-1.5145670">
        <ele>625.8</ele>
        <time>2019-05-11T09:05:17Z</time>
      </trkpt>
      <trkpt lat="39.1834930" lon="-1.5145570">
        <ele>626.0</ele>
        <time>2019-05-11T09:05:18Z</time>
      </trkpt>
      <trkpt lat="39.1835080" lon="-1.5145470">
        <ele>626.2</ele>
        <time>2019-05-11T09:05:19Z</time>
      </trkpt>
      <trkpt lat="39.1835230" lon="-1.5145350">
        <ele>626.4</ele>
        <time>2019-05-11T09:05:20Z</time>
      </trkpt>
      <trkpt lat="39.1835370" lon="-1.5145220">
        <ele>626.6</ele>
        <time>2019-05-11T09:05:21Z</time>
      </trkpt>
      <trkpt lat="39.1835510" lon="-1.5145080">
        <ele>626.6</ele>
        <time>2019-05-11T09:05:22Z</time>
      </trkpt>
      <trkpt lat="39.1835630" lon="-1.5144940">
        <ele>626.8</ele>
        <time>2019-05-11T09:05:23Z</time>
      </trkpt>
      <trkpt lat="39.1835770" lon="-1.5144800">
        <ele>627.0</ele>
        <time>2019-05-11T09:05:24Z</time>
      </trkpt>
      <trkpt lat="39.1835890" lon="-1.5144650">
        <ele>627.2</ele>
        <time>2019-05-11T09:05:25Z</time>
      </trkpt>
      <trkpt lat="39.1836000" lon="-1.5144490">
        <ele>627.4</ele>
        <time>2019-05-11T09:05:26Z</time>
      </trkpt>
      <trkpt lat="39.1836120" lon="-1.5144340">
        <ele>627.4</ele>
        <time>2019-05-11T09:05:27Z</time>
      </trkpt>
      <trkpt lat="39.1836240" lon="-1.5144190">
        <ele>627.6</ele>
        <time>2019-05-11T09:05:28Z</time>
      </trkpt>
      <trkpt lat="39.1836360" lon="-1.5144030">
        <ele>627.6</ele>
        <time>2019-05-11T09:05:29Z</time>
      </trkpt>
      <trkpt lat="39.1836480" lon="-1.5143880">
        <ele>627.8</ele>
        <time>2019-05-11T09:05:30Z</time>
      </trkpt>
      <trkpt lat="39.1836610" lon="-1.5143780">
        <ele>628.0</ele>
        <time>2019-05-11T09:05:31Z</time>
      </trkpt>
      <trkpt lat="39.1836740" lon="-1.5143720">
        <ele>628.0</ele>
        <time>2019-05-11T09:05:32Z</time>
      </trkpt>
      <trkpt lat="39.1836910" lon="-1.5143650">
        <ele>628.2</ele>
        <time>2019-05-11T09:05:33Z</time>
      </trkpt>
      <trkpt lat="39.1837080" lon="-1.5143610">
        <ele>628.4</ele>
        <time>2019-05-11T09:05:34Z</time>
      </trkpt>
      <trkpt lat="39.1837270" lon="-1.5143560">
        <ele>628.6</ele>
        <time>2019-05-11T09:05:35Z</time>
      </trkpt>
      <trkpt lat="39.1837490" lon="-1.5143490">
        <ele>628.8</ele>
        <time>2019-05-11T09:05:36Z</time>
      </trkpt>
      <trkpt lat="39.1837720" lon="-1.5143420">
        <ele>629.0</ele>
        <time>2019-05-11T09:05:37Z</time>
      </trkpt>
      <trkpt lat="39.1837940" lon="-1.5143370">
        <ele>629.2</ele>
        <time>2019-05-11T09:05:38Z</time>
      </trkpt>
      <trkpt lat="39.1838180" lon="-1.5143340">
        <ele>629.4</ele>
        <time>2019-05-11T09:05:39Z</time>
      </trkpt>
      <trkpt lat="39.1838430" lon="-1.5143310">
        <ele>629.4</ele>
        <time>2019-05-11T09:05:40Z</time>
      </trkpt>
      <trkpt lat="39.1838710" lon="-1.5143290">
        <ele>629.6</ele>
        <time>2019-05-11T09:05:41Z</time>
      </trkpt>
      <trkpt lat="39.1838990" lon="-1.5143290">
        <ele>629.8</ele>
        <time>2019-05-11T09:05:42Z</time>
      </trkpt>
      <trkpt lat="39.1839280" lon="-1.5143330">
        <ele>630.0</ele>
        <time>2019-05-11T09:05:43Z</time>
      </trkpt>
      <trkpt lat="39.1839570" lon="-1.5143340">
        <ele>630.0</ele>
        <time>2019-05-11T09:05:44Z</time>
      </trkpt>
      <trkpt lat="39.1839860" lon="-1.5143340">
        <ele>630.0</ele>
        <time>2019-05-11T09:05:45Z</time>
      </trkpt>
      <trkpt lat="39.1840150" lon="-1.5143340">
        <ele>630.2</ele>
        <time>2019-05-11T09:05:46Z</time>
      </trkpt>
      <trkpt lat="39.1840430" lon="-1.5143370">
        <ele>630.2</ele>
        <time>2019-05-11T09:05:47Z</time>
      </trkpt>
      <trkpt lat="39.1840720" lon="-1.5143460">
        <ele>630.2</ele>
        <time>2019-05-11T09:05:48Z</time>
      </trkpt>
      <trkpt lat="39.1840970" lon="-1.5143650">
        <ele>630.4</ele>
        <time>2019-05-11T09:05:49Z</time>
      </trkpt>
      <trkpt lat="39.1841170" lon="-1.5143890">
        <ele>630.4</ele>
        <time>2019-05-11T09:05:50Z</time>
      </trkpt>
      <trkpt lat="39.1841310" lon="-1.5144130">
        <ele>630.6</ele>
        <time>2019-05-11T09:05:51Z</time>
      </trkpt>
      <trkpt lat="39.1841430" lon="-1.5144330">
        <ele>630.6</ele>
        <time>2019-05-11T09:05:52Z</time>
      </trkpt>
      <trkpt lat="39.1841530" lon="-1.5144530">
        <ele>630.6</ele>
        <time>2019-05-11T09:05:53Z</time>
      </trkpt>
      <trkpt lat="39.1841650" lon="-1.5144730">
        <ele>630.8</ele>
        <time>2019-05-11T09:05:54Z</time>
      </trkpt>
      <trkpt lat="39.1841770" lon="-1.5144920">
        <ele>630.8</ele>
        <time>2019-05-11T09:05:55Z</time>
      </trkpt>
      <trkpt lat="39.1841880" lon="-1.5145130">
        <ele>630.8</ele>
        <time>2019-05-11T09:05:56Z</time>
      </trkpt>
      <trkpt lat="39.1841980" lon="-1.5145360">
        <ele>630.8</ele>
        <time>2019-05-11T09:05:57Z</time>
      </trkpt>
      <trkpt lat="39.1842060" lon="-1.5145560">
        <ele>631.2</ele>
        <time>2019-05-11T09:05:58Z</time>
      </trkpt>
      <trkpt lat="39.1842170" lon="-1.5145740">
        <ele>631.4</ele>
        <time>2019-05-11T09:05:59Z</time>
      </trkpt>
      <trkpt lat="39.1842320" lon="-1.5145930">
        <ele>631.8</ele>
        <time>2019-05-11T09:06:00Z</time>
      </trkpt>
      <trkpt lat="39.1842470" lon="-1.5146140">
        <ele>632.0</ele>
        <time>2019-05-11T09:06:01Z</time>
      </trkpt>
      <trkpt lat="39.1842600" lon="-1.5146370">
        <ele>632.0</ele>
        <time>2019-05-11T09:06:02Z</time>
      </trkpt>
      <trkpt lat="39.1842730" lon="-1.5146580">
        <ele>632.2</ele>
        <time>2019-05-11T09:06:03Z</time>
      </trkpt>
      <trkpt lat="39.1842860" lon="-1.5146760">
        <ele>632.4</ele>
        <time>2019-05-11T09:06:04Z</time>
      </trkpt>
      <trkpt lat="39.1843000" lon="-1.5146930">
        <ele>632.6</ele>
        <time>2019-05-11T09:06:05Z</time>
      </trkpt>
      <trkpt lat="39.1843130" lon="-1.5147120">
        <ele>632.8</ele>
        <time>2019-05-11T09:06:06Z</time>
      </trkpt>
      <trkpt lat="39.1843280" lon="-1.5147300">
        <ele>632.8</ele>
        <time>2019-05-11T09:06:07Z</time>
      </trkpt>
      <trkpt lat="39.1843430" lon="-1.5147460">
        <ele>633.0</ele>
        <time>2019-05-11T09:06:08Z</time>
      </trkpt>
      <trkpt lat="39.1843580" lon="-1.5147600">
        <ele>633.0</ele>
        <time>2019-05-11T09:06:09Z</time>
      </trkpt>
      <trkpt lat="39.1843730" lon="-1.5147700">
        <ele>633.2</ele>
        <time>2019-05-11T09:06:10Z</time>
      </trkpt>
      <trkpt lat="39.1843880" lon="-1.5147710">
        <ele>633.2</ele>
        <time>2019-05-11T09:06:11Z</time>
      </trkpt>
      <trkpt lat="39.1844020" lon="-1.5147640">
        <ele>633.6</ele>
        <time>2019-05-11T09:06:12Z</time>
      </trkpt>
      <trkpt lat="39.1844200" lon="-1.5147590">
        <ele>633.8</ele>
        <time>2019-05-11T09:06:13Z</time>
      </trkpt>
      <trkpt lat="39.1844380" lon="-1.5147530">
        <ele>633.8</ele>
        <time>2019-05-11T09:06:14Z</time>
      </trkpt>
      <trkpt lat="39.1844570" lon="-1.5147470">
        <ele>634.0</ele>
        <time>2019-05-11T09:06:15Z</time>
      </trkpt>
      <trkpt lat="39.1844760" lon="-1.5147440">
        <ele>634.0</ele>
        <time>2019-05-11T09:06:16Z</time>
      </trkpt>
      <trkpt lat="39.1844980" lon="-1.5147420">
        <ele>634.4</ele>
        <time>2019-05-11T09:06:17Z</time>
      </trkpt>
      <trkpt lat="39.1845190" lon="-1.5147390">
        <ele>634.6</ele>
        <time>2019-05-11T09:06:18Z</time>
      </trkpt>
      <trkpt lat="39.1845420" lon="-1.5147310">
        <ele>634.8</ele>
        <time>2019-05-11T09:06:19Z</time>
      </trkpt>
      <trkpt lat="39.1845640" lon="-1.5147180">
        <ele>635.0</ele>
        <time>2019-05-11T09:06:20Z</time>
      </trkpt>
      <trkpt lat="39.1845870" lon="-1.5147050">
        <ele>635.2</ele>
        <time>2019-05-11T09:06:21Z</time>
      </trkpt>
      <trkpt lat="39.1846090" lon="-1.5146880">
        <ele>635.2</ele>
        <time>2019-05-11T09:06:22Z</time>
      </trkpt>
      <trkpt lat="39.1846330" lon="-1.5146690">
        <ele>635.4</ele>
        <time>2019-05-11T09:06:23Z</time>
      </trkpt>
      <trkpt lat="39.1846560" lon="-1.5146480">
        <ele>635.6</ele>
        <time>2019-05-11T09:06:24Z</time>
      </trkpt>
      <trkpt lat="39.1846800" lon="-1.5146250">
        <ele>635.6</ele>
        <time>2019-05-11T09:06:25Z</time>
      </trkpt>
      <trkpt lat="39.1847040" lon="-1.5146000">
        <ele>635.8</ele>
        <time>2019-05-11T09:06:26Z</time>
      </trkpt>
      <trkpt lat="39.1847270" lon="-1.5145720">
        <ele>635.8</ele>
        <time>2019-05-11T09:06:27Z</time>
      </trkpt>
      <trkpt lat="39.1847500" lon="-1.5145420">
        <ele>635.8</ele>
        <time>2019-05-11T09:06:28Z</time>
      </trkpt>
      <trkpt lat="39.1847690" lon="-1.5145130">
        <ele>636.0</ele>
        <time>2019-05-11T09:06:29Z</time>
      </trkpt>
      <trkpt lat="39.1847860" lon="-1.5144890">
        <ele>636.0</ele>
        <time>2019-05-11T09:06:30Z</time>
      </trkpt>
      <trkpt lat="39.1848020" lon="-1.5144670">
        <ele>636.0</ele>
        <time>2019-05-11T09:06:31Z</time>
      </trkpt>
      <trkpt lat="39.1848170" lon="-1.5144420">
        <ele>636.0</ele>
        <time>2019-05-11T09:06:32Z</time>
      </trkpt>
      <trkpt lat="39.1848290" lon="-1.5144160">
        <ele>636.0</ele>
        <time>2019-05-11T09:06:33Z</time>
      </trkpt>
      <trkpt lat="39.1848430" lon="-1.5143910">
        <ele>636.0</ele>
        <time>2019-05-11T09:06:34Z</time>
      </trkpt>
      <trkpt lat="39.1848560" lon="-1.5143660">
        <ele>636.2</ele>
        <time>2019-05-11T09:06:35Z</time>
      </trkpt>
      <trkpt lat="39.1848690" lon="-1.5143410">
        <ele>636.2</ele>
        <time>2019-05-11T09:06:36Z</time>
      </trkpt>
      <trkpt lat="39.1848810" lon="-1.5143160">
        <ele>636.2</ele>
        <time>2019-05-11T09:06:37Z</time>
      </trkpt>
      <trkpt lat="39.1848930" lon="-1.5142900">
        <ele>636.4</ele>
        <time>2019-05-11T09:06:38Z</time>
      </trkpt>
      <trkpt lat="39.1849070" lon="-1.5142660">
        <ele>636.4</ele>
        <time>2019-05-11T09:06:39Z</time>
      </trkpt>
      <trkpt lat="39.1849180" lon="-1.5142390">
        <ele>636.6</ele>
        <time>2019-05-11T09:06:40Z</time>
      </trkpt>
      <trkpt lat="39.1849290" lon="-1.5142120">
        <ele>636.6</ele>
        <time>2019-05-11T09:06:41Z</time>
      </trkpt>
      <trkpt lat="39.1849370" lon="-1.5141840">
        <ele>637.0</ele>
        <time>2019-05-11T09:06:42Z</time>
      </trkpt>
      <trkpt lat="39.1849450" lon="-1.5141550">
        <ele>637.0</ele>
        <time>2019-05-11T09:06:43Z</time>
      </trkpt>
      <trkpt lat="39.1849510" lon="-1.5141250">
        <ele>637.2</ele>
        <time>2019-05-11T09:06:44Z</time>
      </trkpt>
      <trkpt lat="39.1849550" lon="-1.5140960">
        <ele>637.4</ele>
        <time>2019-05-11T09:06:45Z</time>
      </trkpt>
      <trkpt lat="39.1849580" lon="-1.5140650">
        <ele>637.8</ele>
        <time>2019-05-11T09:06:46Z</time>
      </trkpt>
      <trkpt lat="39.1849590" lon="-1.5140330">
        <ele>637.8</ele>
        <time>2019-05-11T09:06:47Z</time>
      </trkpt>
      <trkpt lat="39.1849580" lon="-1.5139980">
        <ele>638.0</ele>
        <time>2019-05-11T09:06:48Z</time>
      </trkpt>
      <trkpt lat="39.1849570" lon="-1.5139640">
        <ele>638.2</ele>
        <time>2019-05-11T09:06:49Z</time>
      </trkpt>
      <trkpt lat="39.1849550" lon="-1.5139290">
        <ele>638.4</ele>
        <time>2019-05-11T09:06:50Z</time>
      </trkpt>
      <trkpt lat="39.1849530" lon="-1.5138940">
        <ele>638.6</ele>
        <time>2019-05-11T09:06:51Z</time>
      </trkpt>
      <trkpt lat="39.1849500" lon="-1.5138600">
        <ele>638.6</ele>
        <time>2019-05-11T09:06:52Z</time>
      </trkpt>
      <trkpt lat="39.1849520" lon="-1.5138240">
        <ele>638.8</ele>
        <time>2019-05-11T09:06:53Z</time>
      </trkpt>
      <trkpt lat="39.1849530" lon="-1.5137880">
        <ele>639.0</ele>
        <time>2019-05-11T09:06:54Z</time>
      </trkpt>
      <trkpt lat="39.1849510" lon="-1.5137530">
        <ele>639.2</ele>
        <time>2019-05-11T09:06:55Z</time>
      </trkpt>
      <trkpt lat="39.1849460" lon="-1.5137160">
        <ele>639.4</ele>
        <time>2019-05-11T09:06:56Z</time>
      </trkpt>
      <trkpt lat="39.1849430" lon="-1.5136800">
        <ele>639.4</ele>
        <time>2019-05-11T09:06:57Z</time>
      </trkpt>
      <trkpt lat="39.1849370" lon="-1.5136420">
        <ele>639.6</ele>
        <time>2019-05-11T09:06:58Z</time>
      </trkpt>
      <trkpt lat="39.1849390" lon="-1.5136050">
        <ele>640.2</ele>
        <time>2019-05-11T09:06:59Z</time>
      </trkpt>
      <trkpt lat="39.1849480" lon="-1.5135670">
        <ele>640.2</ele>
        <time>2019-05-11T09:07:00Z</time>
      </trkpt>
      <trkpt lat="39.1849610" lon="-1.5135300">
        <ele>640.4</ele>
        <time>2019-05-11T09:07:01Z</time>
      </trkpt>
      <trkpt lat="39.1849750" lon="-1.5134940">
        <ele>640.6</ele>
        <time>2019-05-11T09:07:02Z</time>
      </trkpt>
      <trkpt lat="39.1849900" lon="-1.5134580">
        <ele>640.6</ele>
        <time>2019-05-11T09:07:03Z</time>
      </trkpt>
      <trkpt lat="39.1850090" lon="-1.5134240">
        <ele>640.8</ele>
        <time>2019-05-11T09:07:04Z</time>
      </trkpt>
      <trkpt lat="39.1850330" lon="-1.5133940">
        <ele>641.0</ele>
        <time>2019-05-11T09:07:05Z</time>
      </trkpt>
      <trkpt lat="39.1850570" lon="-1.5133660">
        <ele>641.2</ele>
        <time>2019-05-11T09:07:06Z</time>
      </trkpt>
      <trkpt lat="39.1850830" lon="-1.5133390">
        <ele>641.4</ele>
        <time>2019-05-11T09:07:07Z</time>
      </trkpt>
      <trkpt lat="39.1851100" lon="-1.5133160">
        <ele>641.6</ele>
        <time>2019-05-11T09:07:08Z</time>
      </trkpt>
      <trkpt lat="39.1851390" lon="-1.5132960">
        <ele>641.6</ele>
        <time>2019-05-11T09:07:09Z</time>
      </trkpt>
      <trkpt lat="39.1851690" lon="-1.5132750">
        <ele>641.8</ele>
        <time>2019-05-11T09:07:10Z</time>
      </trkpt>
      <trkpt lat="39.1851980" lon="-1.5132510">
        <ele>641.8</ele>
        <time>2019-05-11T09:07:11Z</time>
      </trkpt>
      <trkpt lat="39.1852270" lon="-1.5132250">
        <ele>642.0</ele>
        <time>2019-05-11T09:07:12Z</time>
      </trkpt>
      <trkpt lat="39.1852540" lon="-1.5131960">
        <ele>642.0</ele>
        <time>2019-05-11T09:07:13Z</time>
      </trkpt>
      <trkpt lat="39.1852790" lon="-1.5131670">
        <ele>642.2</ele>
        <time>2019-05-11T09:07:14Z</time>
      </trkpt>
      <trkpt lat="39.1853040" lon="-1.5131390">
        <ele>642.2</ele>
        <time>2019-05-11T09:07:15Z</time>
      </trkpt>
      <trkpt lat="39.1853260" lon="-1.5131090">
        <ele>642.4</ele>
        <time>2019-05-11T09:07:16Z</time>
      </trkpt>
      <trkpt lat="39.1853460" lon="-1.5130770">
        <ele>642.4</ele>
        <time>2019-05-11T09:07:17Z</time>
      </trkpt>
      <trkpt lat="39.1853640" lon="-1.5130400">
        <ele>642.6</ele>
        <time>2019-05-11T09:07:18Z</time>
      </trkpt>
      <trkpt lat="39.1853780" lon="-1.5130000">
        <ele>642.6</ele>
        <time>2019-05-11T09:07:19Z</time>
      </trkpt>
      <trkpt lat="39.1853890" lon="-1.5129560">
        <ele>642.8</ele>
        <time>2019-05-11T09:07:20Z</time>
      </trkpt>
      <trkpt lat="39.1854000" lon="-1.5129100">
        <ele>642.8</ele>
        <time>2019-05-11T09:07:21Z</time>
      </trkpt>
      <trkpt lat="39.1854130" lon="-1.5128610">
        <ele>643.0</ele>
        <time>2019-05-11T09:07:22Z</time>
      </trkpt>
      <trkpt lat="39.1854260" lon="-1.5128100">
        <ele>643.2</ele>
        <time>2019-05-11T09:07:23Z</time>
      </trkpt>
      <trkpt lat="39.1854360" lon="-1.5127550">
        <ele>643.2</ele>
        <time>2019-05-11T09:07:24Z</time>
      </trkpt>
      <trkpt lat="39.1854410" lon="-1.5127000">
        <ele>643.2</ele>
        <time>2019-05-11T09:07:25Z</time>
      </trkpt>
      <trkpt lat="39.1854440" lon="-1.5126430">
        <ele>643.4</ele>
        <time>2019-05-11T09:07:26Z</time>
      </trkpt>
      <trkpt lat="39.1854510" lon="-1.5125930">
        <ele>643.6</ele>
        <time>2019-05-11T09:07:27Z</time>
      </trkpt>
      <trkpt lat="39.1854650" lon="-1.5125530">
        <ele>643.6</ele>
        <time>2019-05-11T09:07:28Z</time>
      </trkpt>
      <trkpt lat="39.1854780" lon="-1.5125190">
        <ele>643.6</ele>
        <time>2019-05-11T09:07:29Z</time>
      </trkpt>
      <trkpt lat="39.1854880" lon="-1.5124870">
        <ele>643.6</ele>
        <time>2019-05-11T09:07:30Z</time>
      </trkpt>
      <trkpt lat="39.1855020" lon="-1.5124570">
        <ele>643.8</ele>
        <time>2019-05-11T09:07:31Z</time>
      </trkpt>
      <trkpt lat="39.1855180" lon="-1.5124280">
        <ele>643.8</ele>
        <time>2019-05-11T09:07:32Z</time>
      </trkpt>
      <trkpt lat="39.1855320" lon="-1.5124000">
        <ele>644.0</ele>
        <time>2019-05-11T09:07:33Z</time>
      </trkpt>
      <trkpt lat="39.1855440" lon="-1.5123710">
        <ele>644.4</ele>
        <time>2019-05-11T09:07:34Z</time>
      </trkpt>
      <trkpt lat="39.1855580" lon="-1.5123390">
        <ele>644.6</ele>
        <time>2019-05-11T09:07:35Z</time>
      </trkpt>
      <trkpt lat="39.1855740" lon="-1.5123070">
        <ele>644.6</ele>
        <time>2019-05-11T09:07:36Z</time>
      </trkpt>
      <trkpt lat="39.1855920" lon="-1.5122740">
        <ele>644.8</ele>
        <time>2019-05-11T09:07:37Z</time>
      </trkpt>
      <trkpt lat="39.1856110" lon="-1.5122400">
        <ele>645.0</ele>
        <time>2019-05-11T09:07:38Z</time>
      </trkpt>
      <trkpt lat="39.1856310" lon="-1.5122050">
        <ele>645.2</ele>
        <time>2019-05-11T09:07:39Z</time>
      </trkpt>
      <trkpt lat="39.1856530" lon="-1.5121720">
        <ele>645.4</ele>
        <time>2019-05-11T09:07:40Z</time>
      </trkpt>
      <trkpt lat="39.1856750" lon="-1.5121430">
        <ele>645.6</ele>
        <time>2019-05-11T09:07:41Z</time>
      </trkpt>
      <trkpt lat="39.1856960" lon="-1.5121170">
        <ele>645.8</ele>
        <time>2019-05-11T09:07:42Z</time>
      </trkpt>
      <trkpt lat="39.1857140" lon="-1.5120930">
        <ele>645.8</ele>
        <time>2019-05-11T09:07:43Z</time>
      </trkpt>
      <trkpt lat="39.1857330" lon="-1.5120710">
        <ele>646.0</ele>
        <time>2019-05-11T09:07:44Z</time>
      </trkpt>
      <trkpt lat="39.1857550" lon="-1.5120500">
        <ele>646.2</ele>
        <time>2019-05-11T09:07:45Z</time>
      </trkpt>
      <trkpt lat="39.1857800" lon="-1.5120340">
        <ele>646.4</ele>
        <time>2019-05-11T09:07:46Z</time>
      </trkpt>
      <trkpt lat="39.1858010" lon="-1.5120220">
        <ele>646.4</ele>
        <time>2019-05-11T09:07:47Z</time>
      </trkpt>
      <trkpt lat="39.1858250" lon="-1.5120090">
        <ele>646.6</ele>
        <time>2019-05-11T09:07:48Z</time>
      </trkpt>
      <trkpt lat="39.1858520" lon="-1.5119940">
        <ele>646.8</ele>
        <time>2019-05-11T09:07:49Z</time>
      </trkpt>
      <trkpt lat="39.1858780" lon="-1.5119760">
        <ele>647.0</ele>
        <time>2019-05-11T09:07:50Z</time>
      </trkpt>
      <trkpt lat="39.1859060" lon="-1.5119580">
        <ele>647.0</ele>
        <time>2019-05-11T09:07:51Z</time>
      </trkpt>
      <trkpt lat="39.1859350" lon="-1.5119420">
        <ele>647.0</ele>
        <time>2019-05-11T09:07:52Z</time>
      </trkpt>
      <trkpt lat="39.1859660" lon="-1.5119250">
        <ele>647.0</ele>
        <time>2019-05-11T09:07:53Z</time>
      </trkpt>
      <trkpt lat="39.1859970" lon="-1.5119080">
        <ele>647.2</ele>
        <time>2019-05-11T09:07:54Z</time>
      </trkpt>
      <trkpt lat="39.1860290" lon="-1.5118890">
        <ele>647.4</ele>
        <time>2019-05-11T09:07:55Z</time>
      </trkpt>
      <trkpt lat="39.1860580" lon="-1.5118630">
        <ele>647.4</ele>
        <time>2019-05-11T09:07:56Z</time>
      </trkpt>
      <trkpt lat="39.1860820" lon="-1.5118280">
        <ele>647.6</ele>
        <time>2019-05-11T09:07:57Z</time>
      </trkpt>
      <trkpt lat="39.1861010" lon="-1.5117870">
        <ele>647.6</ele>
        <time>2019-05-11T09:07:58Z</time>
      </trkpt>
      <trkpt lat="39.1861160" lon="-1.5117440">
        <ele>647.6</ele>
        <time>2019-05-11T09:07:59Z</time>
      </trkpt>
      <trkpt lat="39.1861270" lon="-1.5117010">
        <ele>647.8</ele>
        <time>2019-05-11T09:08:00Z</time>
      </trkpt>
      <trkpt lat="39.1861340" lon="-1.5116650">
        <ele>647.8</ele>
        <time>2019-05-11T09:08:01Z</time>
      </trkpt>
      <trkpt lat="39.1861450" lon="-1.5116370">
        <ele>647.8</ele>
        <time>2019-05-11T09:08:02Z</time>
      </trkpt>
      <trkpt lat="39.1861570" lon="-1.5116070">
        <ele>648.0</ele>
        <time>2019-05-11T09:08:03Z</time>
      </trkpt>
      <trkpt lat="39.1861660" lon="-1.5115760">
        <ele>648.0</ele>
        <time>2019-05-11T09:08:04Z</time>
      </trkpt>
      <trkpt lat="39.1861720" lon="-1.5115480">
        <ele>648.2</ele>
        <time>2019-05-11T09:08:05Z</time>
      </trkpt>
      <trkpt lat="39.1861840" lon="-1.5115180">
        <ele>648.2</ele>
        <time>2019-05-11T09:08:06Z</time>
      </trkpt>
      <trkpt lat="39.1861970" lon="-1.5114910">
        <ele>648.2</ele>
        <time>2019-05-11T09:08:07Z</time>
      </trkpt>
      <trkpt lat="39.1862080" lon="-1.5114640">
        <ele>648.8</ele>
        <time>2019-05-11T09:08:08Z</time>
      </trkpt>
      <trkpt lat="39.1862200" lon="-1.5114370">
        <ele>649.0</ele>
        <time>2019-05-11T09:08:09Z</time>
      </trkpt>
      <trkpt lat="39.1862330" lon="-1.5114100">
        <ele>649.2</ele>
        <time>2019-05-11T09:08:10Z</time>
      </trkpt>
      <trkpt lat="39.1862460" lon="-1.5113820">
        <ele>649.4</ele>
        <time>2019-05-11T09:08:11Z</time>
      </trkpt>
      <trkpt lat="39.1862550" lon="-1.5113530">
        <ele>649.6</ele>
        <time>2019-05-11T09:08:12Z</time>
      </trkpt>
      <trkpt lat="39.1862630" lon="-1.5113210">
        <ele>649.6</ele>
        <time>2019-05-11T09:08:13Z</time>
      </trkpt>
      <trkpt lat="39.1862670" lon="-1.5112870">
        <ele>649.8</ele>
        <time>2019-05-11T09:08:14Z</time>
      </trkpt>
      <trkpt lat="39.1862680" lon="-1.5112510">
        <ele>650.2</ele>
        <time>2019-05-11T09:08:15Z</time>
      </trkpt>
      <trkpt lat="39.1862670" lon="-1.5112180">
        <ele>650.2</ele>
        <time>2019-05-11T09:08:16Z</time>
      </trkpt>
      <trkpt lat="39.1862620" lon="-1.5111840">
        <ele>650.6</ele>
        <time>2019-05-11T09:08:17Z</time>
      </trkpt>
      <trkpt lat="39.1862570" lon="-1.5111490">
        <ele>650.8</ele>
        <time>2019-05-11T09:08:18Z</time>
      </trkpt>
      <trkpt lat="39.1862510" lon="-1.5111130">
        <ele>651.0</ele>
        <time>2019-05-11T09:08:19Z</time>
      </trkpt>
      <trkpt lat="39.1862460" lon="-1.5110760">
        <ele>651.2</ele>
        <time>2019-05-11T09:08:20Z</time>
      </trkpt>
      <trkpt lat="39.1862470" lon="-1.5110390">
        <ele>651.4</ele>
        <time>2019-05-11T09:08:21Z</time>
      </trkpt>
      <trkpt lat="39.1862530" lon="-1.5110040">
        <ele>651.4</ele>
        <time>2019-05-11T09:08:22Z</time>
      </trkpt>
      <trkpt lat="39.1862640" lon="-1.5109740">
        <ele>651.4</ele>
        <time>2019-05-11T09:08:23Z</time>
      </trkpt>
      <trkpt lat="39.1862800" lon="-1.5109470">
        <ele>651.6</ele>
        <time>2019-05-11T09:08:24Z</time>
      </trkpt>
      <trkpt lat="39.1863010" lon="-1.5109230">
        <ele>651.8</ele>
        <time>2019-05-11T09:08:25Z</time>
      </trkpt>
      <trkpt lat="39.1863210" lon="-1.5109030">
        <ele>652.0</ele>
        <time>2019-05-11T09:08:26Z</time>
      </trkpt>
      <trkpt lat="39.1863420" lon="-1.5108850">
        <ele>652.0</ele>
        <time>2019-05-11T09:08:27Z</time>
      </trkpt>
      <trkpt lat="39.1863640" lon="-1.5108680">
        <ele>652.2</ele>
        <time>2019-05-11T09:08:28Z</time>
      </trkpt>
      <trkpt lat="39.1863870" lon="-1.5108500">
        <ele>652.2</ele>
        <time>2019-05-11T09:08:29Z</time>
      </trkpt>
      <trkpt lat="39.1864100" lon="-1.5108280">
        <ele>652.6</ele>
        <time>2019-05-11T09:08:30Z</time>
      </trkpt>
      <trkpt lat="39.1864330" lon="-1.5108020">
        <ele>652.8</ele>
        <time>2019-05-11T09:08:31Z</time>
      </trkpt>
      <trkpt lat="39.1864570" lon="-1.5107740">
        <ele>653.0</ele>
        <time>2019-05-11T09:08:32Z</time>
      </trkpt>
      <trkpt lat="39.1864840" lon="-1.5107470">
        <ele>653.2</ele>
        <time>2019-05-11T09:08:33Z</time>
      </trkpt>
      <trkpt lat="39.1865150" lon="-1.5107230">
        <ele>653.4</ele>
        <time>2019-05-11T09:08:34Z</time>
      </trkpt>
      <trkpt lat="39.1865470" lon="-1.5107030">
        <ele>653.6</ele>
        <time>2019-05-11T09:08:35Z</time>
      </trkpt>
      <trkpt lat="39.1865780" lon="-1.5106810">
        <ele>653.8</ele>
        <time>2019-05-11T09:08:36Z</time>
      </trkpt>
      <trkpt lat="39.1866030" lon="-1.5106540">
        <ele>654.2</ele>
        <time>2019-05-11T09:08:37Z</time>
      </trkpt>
      <trkpt lat="39.1866210" lon="-1.5106210">
        <ele>654.4</ele>
        <time>2019-05-11T09:08:38Z</time>
      </trkpt>
      <trkpt lat="39.1866310" lon="-1.5105800">
        <ele>654.6</ele>
        <time>2019-05-11T09:08:39Z</time>
      </trkpt>
      <trkpt lat="39.1866390" lon="-1.5105340">
        <ele>654.6</ele>
        <time>2019-05-11T09:08:40Z</time>
      </trkpt>
      <trkpt lat="39.1866460" lon="-1.5104870">
        <ele>654.8</ele>
        <time>2019-05-11T09:08:41Z</time>
      </trkpt>
      <trkpt lat="39.1866610" lon="-1.5104420">
        <ele>654.8</ele>
        <time>2019-05-11T09:08:42Z</time>
      </trkpt>
      <trkpt lat="39.1866840" lon="-1.5104020">
        <ele>655.0</ele>
        <time>2019-05-11T09:08:43Z</time>
      </trkpt>
      <trkpt lat="39.1867100" lon="-1.5103720">
        <ele>655.0</ele>
        <time>2019-05-11T09:08:44Z</time>
      </trkpt>
      <trkpt lat="39.1867440" lon="-1.5103470">
        <ele>655.2</ele>
        <time>2019-05-11T09:08:45Z</time>
      </trkpt>
      <trkpt lat="39.1867770" lon="-1.5103260">
        <ele>655.2</ele>
        <time>2019-05-11T09:08:46Z</time>
      </trkpt>
      <trkpt lat="39.1868120" lon="-1.5103080">
        <ele>655.2</ele>
        <time>2019-05-11T09:08:47Z</time>
      </trkpt>
      <trkpt lat="39.1868440" lon="-1.5102910">
        <ele>655.4</ele>
        <time>2019-05-11T09:08:48Z</time>
      </trkpt>
      <trkpt lat="39.1868730" lon="-1.5102710">
        <ele>655.4</ele>
        <time>2019-05-11T09:08:49Z</time>
      </trkpt>
      <trkpt lat="39.1869000" lon="-1.5102440">
        <ele>655.4</ele>
        <time>2019-05-11T09:08:50Z</time>
      </trkpt>
      <trkpt lat="39.1869250" lon="-1.5102130">
        <ele>655.6</ele>
        <time>2019-05-11T09:08:51Z</time>
      </trkpt>
      <trkpt lat="39.1869500" lon="-1.5101800">
        <ele>655.8</ele>
        <time>2019-05-11T09:08:52Z</time>
      </trkpt>
      <trkpt lat="39.1869770" lon="-1.5101470">
        <ele>655.8</ele>
        <time>2019-05-11T09:08:53Z</time>
      </trkpt>
      <trkpt lat="39.1870060" lon="-1.5101140">
        <ele>656.0</ele>
        <time>2019-05-11T09:08:54Z</time>
      </trkpt>
      <trkpt lat="39.1870360" lon="-1.5100820">
        <ele>656.4</ele>
        <time>2019-05-11T09:08:55Z</time>
      </trkpt>
      <trkpt lat="39.1870660" lon="-1.5100500">
        <ele>656.6</ele>
        <time>2019-05-11T09:08:56Z</time>
      </trkpt>
      <trkpt lat="39.1870970" lon="-1.5100200">
        <ele>656.8</ele>
        <time>2019-05-11T09:08:57Z</time>
      </trkpt>
      <trkpt lat="39.1871290" lon="-1.5099920">
        <ele>657.0</ele>
        <time>2019-05-11T09:08:58Z</time>
      </trkpt>
      <trkpt lat="39.1871610" lon="-1.5099660">
        <ele>657.2</ele>
        <time>2019-05-11T09:08:59Z</time>
      </trkpt>
      <trkpt lat="39.1871930" lon="-1.5099420">
        <ele>657.2</ele>
        <time>2019-05-11T09:09:00Z</time>
      </trkpt>
      <trkpt lat="39.1872210" lon="-1.5099210">
        <ele>657.4</ele>
        <time>2019-05-11T09:09:01Z</time>
      </trkpt>
      <trkpt lat="39.1872460" lon="-1.5099010">
        <ele>657.4</ele>
        <time>2019-05-11T09:09:02Z</time>
      </trkpt>
      <trkpt lat="39.1872670" lon="-1.5098840">
        <ele>657.6</ele>
        <time>2019-05-11T09:09:03Z</time>
      </trkpt>
      <trkpt lat="39.1872870" lon="-1.5098690">
        <ele>657.6</ele>
        <time>2019-05-11T09:09:04Z</time>
      </trkpt>
      <trkpt lat="39.1873080" lon="-1.5098550">
        <ele>657.8</ele>
        <time>2019-05-11T09:09:05Z</time>
      </trkpt>
      <trkpt lat="39.1873300" lon="-1.5098390">
        <ele>658.0</ele>
        <time>2019-05-11T09:09:06Z</time>
      </trkpt>
      <trkpt lat="39.1873530" lon="-1.5098210">
        <ele>658.2</ele>
        <time>2019-05-11T09:09:07Z</time>
      </trkpt>
      <trkpt lat="39.1873780" lon="-1.5098010">
        <ele>658.4</ele>
        <time>2019-05-11T09:09:08Z</time>
      </trkpt>
      <trkpt lat="39.1874030" lon="-1.5097800">
        <ele>658.6</ele>
        <time>2019-05-11T09:09:09Z</time>
      </trkpt>
      <trkpt lat="39.1874300" lon="-1.5097600">
        <ele>658.8</ele>
        <time>2019-05-11T09:09:10Z</time>
      </trkpt>
      <trkpt lat="39.1874540" lon="-1.5097400">
        <ele>659.0</ele>
        <time>2019-05-11T09:09:11Z</time>
      </trkpt>
      <trkpt lat="39.1874770" lon="-1.5097180">
        <ele>659.2</ele>
        <time>2019-05-11T09:09:12Z</time>
      </trkpt>
      <trkpt lat="39.1874990" lon="-1.5096960">
        <ele>659.4</ele>
        <time>2019-05-11T09:09:13Z</time>
      </trkpt>
      <trkpt lat="39.1875210" lon="-1.5096760">
        <ele>659.6</ele>
        <time>2019-05-11T09:09:14Z</time>
      </trkpt>
      <trkpt lat="39.1875450" lon="-1.5096550">
        <ele>659.8</ele>
        <time>2019-05-11T09:09:15Z</time>
      </trkpt>
      <trkpt lat="39.1875690" lon="-1.5096340">
        <ele>659.8</ele>
        <time>2019-05-11T09:09:16Z</time>
      </trkpt>
      <trkpt lat="39.1875900" lon="-1.5096150">
        <ele>660.0</ele>
        <time>2019-05-11T09:09:17Z</time>
      </trkpt>
      <trkpt lat="39.1876110" lon="-1.5096000">
        <ele>660.2</ele>
        <time>2019-05-11T09:09:18Z</time>
      </trkpt>
      <trkpt lat="39.1876320" lon="-1.5095870">
        <ele>660.4</ele>
        <time>2019-05-11T09:09:19Z</time>
      </trkpt>
      <trkpt lat="39.1876590" lon="-1.5095700">
        <ele>660.6</ele>
        <time>2019-05-11T09:09:20Z</time>
      </trkpt>
      <trkpt lat="39.1876950" lon="-1.5095540">
        <ele>660.8</ele>
        <time>2019-05-11T09:09:21Z</time>
      </trkpt>
      <trkpt lat="39.1877360" lon="-1.5095380">
        <ele>661.0</ele>
        <time>2019-05-11T09:09:22Z</time>
      </trkpt>
      <trkpt lat="39.1877760" lon="-1.5095180">
        <ele>661.4</ele>
        <time>2019-05-11T09:09:23Z</time>
      </trkpt>
      <trkpt lat="39.1878130" lon="-1.5094910">
        <ele>661.6</ele>
        <time>2019-05-11T09:09:24Z</time>
      </trkpt>
      <trkpt lat="39.1878470" lon="-1.5094630">
        <ele>662.0</ele>
        <time>2019-05-11T09:09:25Z</time>
      </trkpt>
      <trkpt lat="39.1878810" lon="-1.5094360">
        <ele>662.2</ele>
        <time>2019-05-11T09:09:26Z</time>
      </trkpt>
      <trkpt lat="39.1879130" lon="-1.5094090">
        <ele>662.6</ele>
        <time>2019-05-11T09:09:27Z</time>
      </trkpt>
      <trkpt lat="39.1879440" lon="-1.5093800">
        <ele>662.8</ele>
        <time>2019-05-11T09:09:28Z</time>
      </trkpt>
      <trkpt lat="39.1879740" lon="-1.5093520">
        <ele>663.0</ele>
        <time>2019-05-11T09:09:29Z</time>
      </trkpt>
      <trkpt lat="39.1880030" lon="-1.5093270">
        <ele>663.0</ele>
        <time>2019-05-11T09:09:30Z</time>
      </trkpt>
      <trkpt lat="39.1880290" lon="-1.5093050">
        <ele>663.2</ele>
        <time>2019-05-11T09:09:31Z</time>
      </trkpt>
      <trkpt lat="39.1880500" lon="-1.5092870">
        <ele>663.2</ele>
        <time>2019-05-11T09:09:32Z</time>
      </trkpt>
      <trkpt lat="39.1880700" lon="-1.5092700">
        <ele>663.2</ele>
        <time>2019-05-11T09:09:33Z</time>
      </trkpt>
      <trkpt lat="39.1880900" lon="-1.5092470">
        <ele>663.2</ele>
        <time>2019-05-11T09:09:34Z</time>
      </trkpt>
      <trkpt lat="39.1881060" lon="-1.5092210">
        <ele>663.2</ele>
        <time>2019-05-11T09:09:35Z</time>
      </trkpt>
      <trkpt lat="39.1881220" lon="-1.5091920">
        <ele>663.2</ele>
        <time>2019-05-11T09:09:36Z</time>
      </trkpt>
      <trkpt lat="39.1881390" lon="-1.5091600">
        <ele>663.2</ele>
        <time>2019-05-11T09:09:37Z</time>
      </trkpt>
      <trkpt lat="39.1881580" lon="-1.5091250">
        <ele>663.2</ele>
        <time>2019-05-11T09:09:38Z</time>
      </trkpt>
      <trkpt lat="39.1881800" lon="-1.5090860">
        <ele>663.2</ele>
        <time>2019-05-11T09:09:39Z</time>
      </trkpt>
      <trkpt lat="39.1882030" lon="-1.5090460">
        <ele>663.4</ele>
        <time>2019-05-11T09:09:40Z</time>
      </trkpt>
      <trkpt lat="39.1882260" lon="-1.5090040">
        <ele>663.4</ele>
        <time>2019-05-11T09:09:41Z</time>
      </trkpt>
      <trkpt lat="39.1882520" lon="-1.5089610">
        <ele>663.6</ele>
        <time>2019-05-11T09:09:42Z</time>
      </trkpt>
      <trkpt lat="39.1882800" lon="-1.5089160">
        <ele>663.8</ele>
        <time>2019-05-11T09:09:43Z</time>
      </trkpt>
      <trkpt lat="39.1883080" lon="-1.5088680">
        <ele>664.0</ele>
        <time>2019-05-11T09:09:44Z</time>
      </trkpt>
      <trkpt lat="39.1883350" lon="-1.5088180">
        <ele>664.2</ele>
        <time>2019-05-11T09:09:45Z</time>
      </trkpt>
      <trkpt lat="39.1883610" lon="-1.5087670">
        <ele>664.2</ele>
        <time>2019-05-11T09:09:46Z</time>
      </trkpt>
      <trkpt lat="39.1883850" lon="-1.5087130">
        <ele>664.4</ele>
        <time>2019-05-11T09:09:47Z</time>
      </trkpt>
      <trkpt lat="39.1884060" lon="-1.5086570">
        <ele>664.4</ele>
        <time>2019-05-11T09:09:48Z</time>
      </trkpt>
      <trkpt lat="39.1884290" lon="-1.5086010">
        <ele>664.4</ele>
        <time>2019-05-11T09:09:49Z</time>
      </trkpt>
      <trkpt lat="39.1884530" lon="-1.5085460">
        <ele>664.4</ele>
        <time>2019-05-11T09:09:50Z</time>
      </trkpt>
      <trkpt lat="39.1884780" lon="-1.5084920">
        <ele>664.6</ele>
        <time>2019-05-11T09:09:51Z</time>
      </trkpt>
      <trkpt lat="39.1885040" lon="-1.5084380">
        <ele>664.8</ele>
        <time>2019-05-11T09:09:52Z</time>
      </trkpt>
      <trkpt lat="39.1885290" lon="-1.5083830">
        <ele>664.8</ele>
        <time>2019-05-11T09:09:53Z</time>
      </trkpt>
      <trkpt lat="39.1885520" lon="-1.5083260">
        <ele>665.0</ele>
        <time>2019-05-11T09:09:54Z</time>
      </trkpt>
      <trkpt lat="39.1885720" lon="-1.5082670">
        <ele>665.0</ele>
        <time>2019-05-11T09:09:55Z</time>
      </trkpt>
      <trkpt lat="39.1885900" lon="-1.5082080">
        <ele>665.0</ele>
        <time>2019-05-11T09:09:56Z</time>
      </trkpt>
      <trkpt lat="39.1886070" lon="-1.5081470">
        <ele>665.0</ele>
        <time>2019-05-11T09:09:57Z</time>
      </trkpt>
      <trkpt lat="39.1886220" lon="-1.5080870">
        <ele>665.0</ele>
        <time>2019-05-11T09:09:58Z</time>
      </trkpt>
      <trkpt lat="39.1886350" lon="-1.5080280">
        <ele>665.0</ele>
        <time>2019-05-11T09:09:59Z</time>
      </trkpt>
      <trkpt lat="39.1886460" lon="-1.5079690">
        <ele>665.2</ele>
        <time>2019-05-11T09:10:00Z</time>
      </trkpt>
      <trkpt lat="39.1886580" lon="-1.5079130">
        <ele>665.2</ele>
        <time>2019-05-11T09:10:01Z</time>
      </trkpt>
      <trkpt lat="39.1886780" lon="-1.5078620">
        <ele>665.2</ele>
        <time>2019-05-11T09:10:02Z</time>
      </trkpt>
      <trkpt lat="39.1887040" lon="-1.5078190">
        <ele>665.2</ele>
        <time>2019-05-11T09:10:03Z</time>
      </trkpt>
      <trkpt lat="39.1887270" lon="-1.5077800">
        <ele>665.4</ele>
        <time>2019-05-11T09:10:04Z</time>
      </trkpt>
      <trkpt lat="39.1887480" lon="-1.5077420">
        <ele>665.4</ele>
        <time>2019-05-11T09:10:05Z</time>
      </trkpt>
      <trkpt lat="39.1887630" lon="-1.5077000">
        <ele>665.6</ele>
        <time>2019-05-11T09:10:06Z</time>
      </trkpt>
      <trkpt lat="39.1887710" lon="-1.5076580">
        <ele>665.6</ele>
        <time>2019-05-11T09:10:07Z</time>
      </trkpt>
      <trkpt lat="39.1887750" lon="-1.5076220">
        <ele>665.8</ele>
        <time>2019-05-11T09:10:08Z</time>
      </trkpt>
      <trkpt lat="39.1887840" lon="-1.5075910">
        <ele>666.0</ele>
        <time>2019-05-11T09:10:09Z</time>
      </trkpt>
      <trkpt lat="39.1887990" lon="-1.5075600">
        <ele>666.2</ele>
        <time>2019-05-11T09:10:10Z</time>
      </trkpt>
      <trkpt lat="39.1888210" lon="-1.5075350">
        <ele>666.6</ele>
        <time>2019-05-11T09:10:11Z</time>
      </trkpt>
      <trkpt lat="39.1888410" lon="-1.5075120">
        <ele>667.0</ele>
        <time>2019-05-11T09:10:12Z</time>
      </trkpt>
      <trkpt lat="39.1888560" lon="-1.5074880">
        <ele>667.2</ele>
        <time>2019-05-11T09:10:13Z</time>
      </trkpt>
      <trkpt lat="39.1888700" lon="-1.5074620">
        <ele>667.8</ele>
        <time>2019-05-11T09:10:14Z</time>
      </trkpt>
      <trkpt lat="39.1888860" lon="-1.5074320">
        <ele>668.2</ele>
        <time>2019-05-11T09:10:15Z</time>
      </trkpt>
      <trkpt lat="39.1889030" lon="-1.5074000">
        <ele>668.6</ele>
        <time>2019-05-11T09:10:16Z</time>
      </trkpt>
      <trkpt lat="39.1889180" lon="-1.5073670">
        <ele>669.0</ele>
        <time>2019-05-11T09:10:17Z</time>
      </trkpt>
      <trkpt lat="39.1889320" lon="-1.5073360">
        <ele>669.4</ele>
        <time>2019-05-11T09:10:18Z</time>
      </trkpt>
      <trkpt lat="39.1889450" lon="-1.5073140">
        <ele>669.6</ele>
        <time>2019-05-11T09:10:19Z</time>
      </trkpt>
      <trkpt lat="39.1889480" lon="-1.5073060">
        <ele>669.8</ele>
        <time>2019-05-11T09:10:20Z</time>
      </trkpt>
      <trkpt lat="39.1889450" lon="-1.5073060">
        <ele>670.0</ele>
        <time>2019-05-11T09:10:21Z</time>
      </trkpt>
      <trkpt lat="39.1889470" lon="-1.5073080">
        <ele>670.0</ele>
        <time>2019-05-11T09:10:22Z</time>
      </trkpt>
      <trkpt lat="39.1889490" lon="-1.5073060">
        <ele>670.4</ele>
        <time>2019-05-11T09:10:23Z</time>
      </trkpt>
      <trkpt lat="39.1889550" lon="-1.5072980">
        <ele>670.6</ele>
        <time>2019-05-11T09:10:24Z</time>
      </trkpt>
      <trkpt lat="39.1889640" lon="-1.5072870">
        <ele>670.8</ele>
        <time>2019-05-11T09:10:25Z</time>
      </trkpt>
      <trkpt lat="39.1889680" lon="-1.5072830">
        <ele>671.0</ele>
        <time>2019-05-11T09:10:26Z</time>
      </trkpt>
      <trkpt lat="39.1889800" lon="-1.5072650">
        <ele>671.0</ele>
        <time>2019-05-11T09:10:27Z</time>
      </trkpt>
      <trkpt lat="39.1889960" lon="-1.5072420">
        <ele>671.0</ele>
        <time>2019-05-11T09:10:28Z</time>
      </trkpt>
      <trkpt lat="39.1890150" lon="-1.5072130">
        <ele>671.0</ele>
        <time>2019-05-11T09:10:29Z</time>
      </trkpt>
      <trkpt lat="39.1890370" lon="-1.5071810">
        <ele>671.0</ele>
        <time>2019-05-11T09:10:30Z</time>
      </trkpt>
      <trkpt lat="39.1890600" lon="-1.5071450">
        <ele>671.0</ele>
        <time>2019-05-11T09:10:31Z</time>
      </trkpt>
      <trkpt lat="39.1890840" lon="-1.5071060">
        <ele>671.0</ele>
        <time>2019-05-11T09:10:32Z</time>
      </trkpt>
      <trkpt lat="39.1891070" lon="-1.5070640">
        <ele>671.0</ele>
        <time>2019-05-11T09:10:33Z</time>
      </trkpt>
      <trkpt lat="39.1891310" lon="-1.5070210">
        <ele>671.0</ele>
        <time>2019-05-11T09:10:34Z</time>
      </trkpt>
      <trkpt lat="39.1891560" lon="-1.5069770">
        <ele>671.2</ele>
        <time>2019-05-11T09:10:35Z</time>
      </trkpt>
      <trkpt lat="39.1891810" lon="-1.5069310">
        <ele>671.2</ele>
        <time>2019-05-11T09:10:36Z</time>
      </trkpt>
      <trkpt lat="39.1892070" lon="-1.5068850">
        <ele>671.2</ele>
        <time>2019-05-11T09:10:37Z</time>
      </trkpt>
      <trkpt lat="39.1892350" lon="-1.5068370">
        <ele>671.4</ele>
        <time>2019-05-11T09:10:38Z</time>
      </trkpt>
      <trkpt lat="39.1892640" lon="-1.5067870">
        <ele>671.6</ele>
        <time>2019-05-11T09:10:39Z</time>
      </trkpt>
      <trkpt lat="39.1892920" lon="-1.5067350">
        <ele>671.8</ele>
        <time>2019-05-11T09:10:40Z</time>
      </trkpt>
      <trkpt lat="39.1893230" lon="-1.5066850">
        <ele>672.0</ele>
        <time>2019-05-11T09:10:41Z</time>
      </trkpt>
      <trkpt lat="39.1893580" lon="-1.5066360">
        <ele>672.2</ele>
        <time>2019-05-11T09:10:42Z</time>
      </trkpt>
      <trkpt lat="39.1893960" lon="-1.5065850">
        <ele>672.2</ele>
        <time>2019-05-11T09:10:43Z</time>
      </trkpt>
      <trkpt lat="39.1894300" lon="-1.5065310">
        <ele>672.4</ele>
        <time>2019-05-11T09:10:44Z</time>
      </trkpt>
      <trkpt lat="39.1894630" lon="-1.5064730">
        <ele>672.4</ele>
        <time>2019-05-11T09:10:45Z</time>
      </trkpt>
      <trkpt lat="39.1894950" lon="-1.5064100">
        <ele>672.4</ele>
        <time>2019-05-11T09:10:46Z</time>
      </trkpt>
      <trkpt lat="39.1895280" lon="-1.5063450">
        <ele>672.4</ele>
        <time>2019-05-11T09:10:47Z</time>
      </trkpt>
      <trkpt lat="39.1895630" lon="-1.5062790">
        <ele>672.4</ele>
        <time>2019-05-11T09:10:48Z</time>
      </trkpt>
      <trkpt lat="39.1896020" lon="-1.5062120">
        <ele>672.4</ele>
        <time>2019-05-11T09:10:49Z</time>
      </trkpt>
      <trkpt lat="39.1896410" lon="-1.5061470">
        <ele>672.4</ele>
        <time>2019-05-11T09:10:50Z</time>
      </trkpt>
      <trkpt lat="39.1896780" lon="-1.5060820">
        <ele>672.4</ele>
        <time>2019-05-11T09:10:51Z</time>
      </trkpt>
      <trkpt lat="39.1897140" lon="-1.5060150">
        <ele>672.4</ele>
        <time>2019-05-11T09:10:52Z</time>
      </trkpt>
      <trkpt lat="39.1897540" lon="-1.5059430">
        <ele>672.4</ele>
        <time>2019-05-11T09:10:53Z</time>
      </trkpt>
      <trkpt lat="39.1897980" lon="-1.5058730">
        <ele>672.4</ele>
        <time>2019-05-11T09:10:54Z</time>
      </trkpt>
      <trkpt lat="39.1898410" lon="-1.5058030">
        <ele>672.4</ele>
        <time>2019-05-11T09:10:55Z</time>
      </trkpt>
      <trkpt lat="39.1898820" lon="-1.5057320">
        <ele>672.4</ele>
        <time>2019-05-11T09:10:56Z</time>
      </trkpt>
      <trkpt lat="39.1899230" lon="-1.5056610">
        <ele>672.4</ele>
        <time>2019-05-11T09:10:57Z</time>
      </trkpt>
      <trkpt lat="39.1899640" lon="-1.5055890">
        <ele>672.4</ele>
        <time>2019-05-11T09:10:58Z</time>
      </trkpt>
      <trkpt lat="39.1900050" lon="-1.5055190">
        <ele>672.4</ele>
        <time>2019-05-11T09:10:59Z</time>
      </trkpt>
      <trkpt lat="39.1900480" lon="-1.5054500">
        <ele>672.0</ele>
        <time>2019-05-11T09:11:00Z</time>
      </trkpt>
      <trkpt lat="39.1900940" lon="-1.5053860">
        <ele>671.8</ele>
        <time>2019-05-11T09:11:01Z</time>
      </trkpt>
      <trkpt lat="39.1901430" lon="-1.5053270">
        <ele>671.6</ele>
        <time>2019-05-11T09:11:02Z</time>
      </trkpt>
      <trkpt lat="39.1901970" lon="-1.5052740">
        <ele>671.4</ele>
        <time>2019-05-11T09:11:03Z</time>
      </trkpt>
      <trkpt lat="39.1902520" lon="-1.5052240">
        <ele>671.4</ele>
        <time>2019-05-11T09:11:04Z</time>
      </trkpt>
      <trkpt lat="39.1903070" lon="-1.5051710">
        <ele>671.2</ele>
        <time>2019-05-11T09:11:05Z</time>
      </trkpt>
      <trkpt lat="39.1903590" lon="-1.5051140">
        <ele>671.2</ele>
        <time>2019-05-11T09:11:06Z</time>
      </trkpt>
      <trkpt lat="39.1904100" lon="-1.5050540">
        <ele>671.2</ele>
        <time>2019-05-11T09:11:07Z</time>
      </trkpt>
      <trkpt lat="39.1904640" lon="-1.5049940">
        <ele>671.0</ele>
        <time>2019-05-11T09:11:08Z</time>
      </trkpt>
      <trkpt lat="39.1905200" lon="-1.5049350">
        <ele>671.0</ele>
        <time>2019-05-11T09:11:09Z</time>
      </trkpt>
      <trkpt lat="39.1905770" lon="-1.5048770">
        <ele>671.0</ele>
        <time>2019-05-11T09:11:10Z</time>
      </trkpt>
      <trkpt lat="39.1906360" lon="-1.5048190">
        <ele>671.0</ele>
        <time>2019-05-11T09:11:11Z</time>
      </trkpt>
      <trkpt lat="39.1906950" lon="-1.5047620">
        <ele>671.0</ele>
        <time>2019-05-11T09:11:12Z</time>
      </trkpt>
      <trkpt lat="39.1907540" lon="-1.5047050">
        <ele>671.0</ele>
        <time>2019-05-11T09:11:13Z</time>
      </trkpt>
      <trkpt lat="39.1908140" lon="-1.5046520">
        <ele>670.8</ele>
        <time>2019-05-11T09:11:14Z</time>
      </trkpt>
      <trkpt lat="39.1908750" lon="-1.5046020">
        <ele>670.8</ele>
        <time>2019-05-11T09:11:15Z</time>
      </trkpt>
      <trkpt lat="39.1909350" lon="-1.5045510">
        <ele>670.8</ele>
        <time>2019-05-11T09:11:16Z</time>
      </trkpt>
      <trkpt lat="39.1909920" lon="-1.5044960">
        <ele>670.6</ele>
        <time>2019-05-11T09:11:17Z</time>
      </trkpt>
      <trkpt lat="39.1910480" lon="-1.5044420">
        <ele>670.6</ele>
        <time>2019-05-11T09:11:18Z</time>
      </trkpt>
      <trkpt lat="39.1911060" lon="-1.5043920">
        <ele>670.4</ele>
        <time>2019-05-11T09:11:19Z</time>
      </trkpt>
      <trkpt lat="39.1911630" lon="-1.5043410">
        <ele>670.4</ele>
        <time>2019-05-11T09:11:20Z</time>
      </trkpt>
      <trkpt lat="39.1912170" lon="-1.5042850">
        <ele>670.2</ele>
        <time>2019-05-11T09:11:21Z</time>
      </trkpt>
      <trkpt lat="39.1912690" lon="-1.5042260">
        <ele>670.2</ele>
        <time>2019-05-11T09:11:22Z</time>
      </trkpt>
      <trkpt lat="39.1913200" lon="-1.5041660">
        <ele>670.0</ele>
        <time>2019-05-11T09:11:23Z</time>
      </trkpt>
      <trkpt lat="39.1913680" lon="-1.5041020">
        <ele>670.0</ele>
        <time>2019-05-11T09:11:24Z</time>
      </trkpt>
      <trkpt lat="39.1914130" lon="-1.5040340">
        <ele>670.0</ele>
        <time>2019-05-11T09:11:25Z</time>
      </trkpt>
      <trkpt lat="39.1914550" lon="-1.5039650">
        <ele>670.0</ele>
        <time>2019-05-11T09:11:26Z</time>
      </trkpt>
      <trkpt lat="39.1914940" lon="-1.5038930">
        <ele>670.0</ele>
        <time>2019-05-11T09:11:27Z</time>
      </trkpt>
      <trkpt lat="39.1915310" lon="-1.5038200">
        <ele>669.8</ele>
        <time>2019-05-11T09:11:28Z</time>
      </trkpt>
      <trkpt lat="39.1915680" lon="-1.5037480">
        <ele>669.8</ele>
        <time>2019-05-11T09:11:29Z</time>
      </trkpt>
      <trkpt lat="39.1916060" lon="-1.5036770">
        <ele>669.8</ele>
        <time>2019-05-11T09:11:30Z</time>
      </trkpt>
      <trkpt lat="39.1916420" lon="-1.5036060">
        <ele>669.8</ele>
        <time>2019-05-11T09:11:31Z</time>
      </trkpt>
      <trkpt lat="39.1916770" lon="-1.5035350">
        <ele>669.8</ele>
        <time>2019-05-11T09:11:32Z</time>
      </trkpt>
      <trkpt lat="39.1917130" lon="-1.5034660">
        <ele>669.8</ele>
        <time>2019-05-11T09:11:33Z</time>
      </trkpt>
      <trkpt lat="39.1917510" lon="-1.5034040">
        <ele>669.8</ele>
        <time>2019-05-11T09:11:34Z</time>
      </trkpt>
      <trkpt lat="39.1917920" lon="-1.5033470">
        <ele>670.0</ele>
        <time>2019-05-11T09:11:35Z</time>
      </trkpt>
      <trkpt lat="39.1918330" lon="-1.5032930">
        <ele>670.0</ele>
        <time>2019-05-11T09:11:36Z</time>
      </trkpt>
      <trkpt lat="39.1918750" lon="-1.5032410">
        <ele>670.0</ele>
        <time>2019-05-11T09:11:37Z</time>
      </trkpt>
      <trkpt lat="39.1919170" lon="-1.5031880">
        <ele>670.2</ele>
        <time>2019-05-11T09:11:38Z</time>
      </trkpt>
      <trkpt lat="39.1919610" lon="-1.5031320">
        <ele>670.2</ele>
        <time>2019-05-11T09:11:39Z</time>
      </trkpt>
      <trkpt lat="39.1920040" lon="-1.5030770">
        <ele>670.2</ele>
        <time>2019-05-11T09:11:40Z</time>
      </trkpt>
      <trkpt lat="39.1920470" lon="-1.5030200">
        <ele>670.4</ele>
        <time>2019-05-11T09:11:41Z</time>
      </trkpt>
      <trkpt lat="39.1920910" lon="-1.5029630">
        <ele>670.4</ele>
        <time>2019-05-11T09:11:42Z</time>
      </trkpt>
      <trkpt lat="39.1921380" lon="-1.5029070">
        <ele>670.6</ele>
        <time>2019-05-11T09:11:43Z</time>
      </trkpt>
      <trkpt lat="39.1921880" lon="-1.5028480">
        <ele>670.6</ele>
        <time>2019-05-11T09:11:44Z</time>
      </trkpt>
      <trkpt lat="39.1922370" lon="-1.5027860">
        <ele>670.8</ele>
        <time>2019-05-11T09:11:45Z</time>
      </trkpt>
      <trkpt lat="39.1922850" lon="-1.5027210">
        <ele>671.0</ele>
        <time>2019-05-11T09:11:46Z</time>
      </trkpt>
      <trkpt lat="39.1923340" lon="-1.5026540">
        <ele>671.0</ele>
        <time>2019-05-11T09:11:47Z</time>
      </trkpt>
      <trkpt lat="39.1923830" lon="-1.5025860">
        <ele>671.0</ele>
        <time>2019-05-11T09:11:48Z</time>
      </trkpt>
      <trkpt lat="39.1924320" lon="-1.5025170">
        <ele>671.2</ele>
        <time>2019-05-11T09:11:49Z</time>
      </trkpt>
      <trkpt lat="39.1924810" lon="-1.5024480">
        <ele>671.2</ele>
        <time>2019-05-11T09:11:50Z</time>
      </trkpt>
      <trkpt lat="39.1925290" lon="-1.5023770">
        <ele>671.2</ele>
        <time>2019-05-11T09:11:51Z</time>
      </trkpt>
      <trkpt lat="39.1925760" lon="-1.5023050">
        <ele>671.2</ele>
        <time>2019-05-11T09:11:52Z</time>
      </trkpt>
      <trkpt lat="39.1926220" lon="-1.5022330">
        <ele>671.2</ele>
        <time>2019-05-11T09:11:53Z</time>
      </trkpt>
      <trkpt lat="39.1926680" lon="-1.5021600">
        <ele>671.2</ele>
        <time>2019-05-11T09:11:54Z</time>
      </trkpt>
      <trkpt lat="39.1927130" lon="-1.5020870">
        <ele>671.2</ele>
        <time>2019-05-11T09:11:55Z</time>
      </trkpt>
      <trkpt lat="39.1927570" lon="-1.5020120">
        <ele>671.2</ele>
        <time>2019-05-11T09:11:56Z</time>
      </trkpt>
      <trkpt lat="39.1927990" lon="-1.5019370">
        <ele>671.0</ele>
        <time>2019-05-11T09:11:57Z</time>
      </trkpt>
      <trkpt lat="39.1928430" lon="-1.5018640">
        <ele>671.0</ele>
        <time>2019-05-11T09:11:58Z</time>
      </trkpt>
      <trkpt lat="39.1928880" lon="-1.5017940">
        <ele>671.0</ele>
        <time>2019-05-11T09:11:59Z</time>
      </trkpt>
      <trkpt lat="39.1929340" lon="-1.5017290">
        <ele>671.0</ele>
        <time>2019-05-11T09:12:00Z</time>
      </trkpt>
      <trkpt lat="39.1929750" lon="-1.5016690">
        <ele>671.0</ele>
        <time>2019-05-11T09:12:01Z</time>
      </trkpt>
      <trkpt lat="39.1929980" lon="-1.5016190">
        <ele>671.0</ele>
        <time>2019-05-11T09:12:02Z</time>
      </trkpt>
      <trkpt lat="39.1929960" lon="-1.5015810">
        <ele>671.0</ele>
        <time>2019-05-11T09:12:03Z</time>
      </trkpt>
      <trkpt lat="39.1929720" lon="-1.5015580">
        <ele>671.0</ele>
        <time>2019-05-11T09:12:04Z</time>
      </trkpt>
      <trkpt lat="39.1929360" lon="-1.5015550">
        <ele>671.0</ele>
        <time>2019-05-11T09:12:05Z</time>
      </trkpt>
      <trkpt lat="39.1928950" lon="-1.5015710">
        <ele>671.0</ele>
        <time>2019-05-11T09:12:06Z</time>
      </trkpt>
      <trkpt lat="39.1928490" lon="-1.5015860">
        <ele>671.0</ele>
        <time>2019-05-11T09:12:07Z</time>
      </trkpt>
      <trkpt lat="39.1927980" lon="-1.5015980">
        <ele>671.0</ele>
        <time>2019-05-11T09:12:08Z</time>
      </trkpt>
      <trkpt lat="39.1927430" lon="-1.5016100">
        <ele>671.0</ele>
        <time>2019-05-11T09:12:09Z</time>
      </trkpt>
      <trkpt lat="39.1926840" lon="-1.5016170">
        <ele>671.0</ele>
        <time>2019-05-11T09:12:10Z</time>
      </trkpt>
      <trkpt lat="39.1926240" lon="-1.5016210">
        <ele>671.0</ele>
        <time>2019-05-11T09:12:11Z</time>
      </trkpt>
      <trkpt lat="39.1925620" lon="-1.5016220">
        <ele>671.0</ele>
        <time>2019-05-11T09:12:12Z</time>
      </trkpt>
      <trkpt lat="39.1924980" lon="-1.5016200">
        <ele>671.0</ele>
        <time>2019-05-11T09:12:13Z</time>
      </trkpt>
      <trkpt lat="39.1924340" lon="-1.5016170">
        <ele>671.0</ele>
        <time>2019-05-11T09:12:14Z</time>
      </trkpt>
      <trkpt lat="39.1923680" lon="-1.5016080">
        <ele>671.0</ele>
        <time>2019-05-11T09:12:15Z</time>
      </trkpt>
      <trkpt lat="39.1923040" lon="-1.5015910">
        <ele>671.0</ele>
        <time>2019-05-11T09:12:16Z</time>
      </trkpt>
      <trkpt lat="39.1922390" lon="-1.5015700">
        <ele>671.0</ele>
        <time>2019-05-11T09:12:17Z</time>
      </trkpt>
      <trkpt lat="39.1921730" lon="-1.5015480">
        <ele>671.0</ele>
        <time>2019-05-11T09:12:18Z</time>
      </trkpt>
      <trkpt lat="39.1921070" lon="-1.5015280">
        <ele>671.0</ele>
        <time>2019-05-11T09:12:19Z</time>
      </trkpt>
      <trkpt lat="39.1920410" lon="-1.5015030">
        <ele>671.0</ele>
        <time>2019-05-11T09:12:20Z</time>
      </trkpt>
      <trkpt lat="39.1919770" lon="-1.5014720">
        <ele>671.0</ele>
        <time>2019-05-11T09:12:21Z</time>
      </trkpt>
      <trkpt lat="39.1919120" lon="-1.5014380">
        <ele>671.0</ele>
        <time>2019-05-11T09:12:22Z</time>
      </trkpt>
      <trkpt lat="39.1918470" lon="-1.5014020">
        <ele>671.0</ele>
        <time>2019-05-11T09:12:23Z</time>
      </trkpt>
      <trkpt lat="39.1917780" lon="-1.5013700">
        <ele>671.0</ele>
        <time>2019-05-11T09:12:24Z</time>
      </trkpt>
      <trkpt lat="39.1917090" lon="-1.5013380">
        <ele>671.0</ele>
        <time>2019-05-11T09:12:25Z</time>
      </trkpt>
      <trkpt lat="39.1916400" lon="-1.5013050">
        <ele>671.0</ele>
        <time>2019-05-11T09:12:26Z</time>
      </trkpt>
      <trkpt lat="39.1915690" lon="-1.5012730">
        <ele>671.0</ele>
        <time>2019-05-11T09:12:27Z</time>
      </trkpt>
      <trkpt lat="39.1914970" lon="-1.5012410">
        <ele>670.8</ele>
        <time>2019-05-11T09:12:28Z</time>
      </trkpt>
      <trkpt lat="39.1914240" lon="-1.5012090">
        <ele>670.8</ele>
        <time>2019-05-11T09:12:29Z</time>
      </trkpt>
      <trkpt lat="39.1913510" lon="-1.5011750">
        <ele>670.8</ele>
        <time>2019-05-11T09:12:30Z</time>
      </trkpt>
      <trkpt lat="39.1912850" lon="-1.5011250">
        <ele>670.8</ele>
        <time>2019-05-11T09:12:31Z</time>
      </trkpt>
      <trkpt lat="39.1912280" lon="-1.5010530">
        <ele>670.8</ele>
        <time>2019-05-11T09:12:32Z</time>
      </trkpt>
      <trkpt lat="39.1911760" lon="-1.5009700">
        <ele>670.8</ele>
        <time>2019-05-11T09:12:33Z</time>
      </trkpt>
      <trkpt lat="39.1911210" lon="-1.5008860">
        <ele>670.6</ele>
        <time>2019-05-11T09:12:34Z</time>
      </trkpt>
      <trkpt lat="39.1910610" lon="-1.5008130">
        <ele>670.6</ele>
        <time>2019-05-11T09:12:35Z</time>
      </trkpt>
      <trkpt lat="39.1909960" lon="-1.5007630">
        <ele>670.4</ele>
        <time>2019-05-11T09:12:36Z</time>
      </trkpt>
      <trkpt lat="39.1909250" lon="-1.5007430">
        <ele>670.2</ele>
        <time>2019-05-11T09:12:37Z</time>
      </trkpt>
      <trkpt lat="39.1908500" lon="-1.5007550">
        <ele>670.0</ele>
        <time>2019-05-11T09:12:38Z</time>
      </trkpt>
      <trkpt lat="39.1907710" lon="-1.5007890">
        <ele>669.4</ele>
        <time>2019-05-11T09:12:39Z</time>
      </trkpt>
      <trkpt lat="39.1906890" lon="-1.5008300">
        <ele>669.0</ele>
        <time>2019-05-11T09:12:40Z</time>
      </trkpt>
      <trkpt lat="39.1906050" lon="-1.5008630">
        <ele>668.6</ele>
        <time>2019-05-11T09:12:41Z</time>
      </trkpt>
      <trkpt lat="39.1905190" lon="-1.5008850">
        <ele>667.8</ele>
        <time>2019-05-11T09:12:42Z</time>
      </trkpt>
      <trkpt lat="39.1904340" lon="-1.5008920">
        <ele>666.2</ele>
        <time>2019-05-11T09:12:43Z</time>
      </trkpt>
      <trkpt lat="39.1903480" lon="-1.5008860">
        <ele>665.6</ele>
        <time>2019-05-11T09:12:44Z</time>
      </trkpt>
      <trkpt lat="39.1902620" lon="-1.5008740">
        <ele>665.0</ele>
        <time>2019-05-11T09:12:45Z</time>
      </trkpt>
      <trkpt lat="39.1901770" lon="-1.5008600">
        <ele>664.0</ele>
        <time>2019-05-11T09:12:46Z</time>
      </trkpt>
      <trkpt lat="39.1900930" lon="-1.5008440">
        <ele>663.0</ele>
        <time>2019-05-11T09:12:47Z</time>
      </trkpt>
      <trkpt lat="39.1900120" lon="-1.5008280">
        <ele>662.4</ele>
        <time>2019-05-11T09:12:48Z</time>
      </trkpt>
      <trkpt lat="39.1899320" lon="-1.5008170">
        <ele>662.0</ele>
        <time>2019-05-11T09:12:49Z</time>
      </trkpt>
      <trkpt lat="39.1898510" lon="-1.5008120">
        <ele>661.8</ele>
        <time>2019-05-11T09:12:50Z</time>
      </trkpt>
      <trkpt lat="39.1897730" lon="-1.5008140">
        <ele>661.6</ele>
        <time>2019-05-11T09:12:51Z</time>
      </trkpt>
      <trkpt lat="39.1897030" lon="-1.5008140">
        <ele>661.2</ele>
        <time>2019-05-11T09:12:52Z</time>
      </trkpt>
      <trkpt lat="39.1896400" lon="-1.5007940">
        <ele>661.0</ele>
        <time>2019-05-11T09:12:53Z</time>
      </trkpt>
      <trkpt lat="39.1895820" lon="-1.5007460">
        <ele>661.0</ele>
        <time>2019-05-11T09:12:54Z</time>
      </trkpt>
      <trkpt lat="39.1895320" lon="-1.5006750">
        <ele>661.0</ele>
        <time>2019-05-11T09:12:55Z</time>
      </trkpt>
      <trkpt lat="39.1895000" lon="-1.5005970">
        <ele>660.8</ele>
        <time>2019-05-11T09:12:56Z</time>
      </trkpt>
      <trkpt lat="39.1894940" lon="-1.5005200">
        <ele>660.8</ele>
        <time>2019-05-11T09:12:57Z</time>
      </trkpt>
      <trkpt lat="39.1895220" lon="-1.5004500">
        <ele>660.8</ele>
        <time>2019-05-11T09:12:58Z</time>
      </trkpt>
      <trkpt lat="39.1895690" lon="-1.5003910">
        <ele>660.8</ele>
        <time>2019-05-11T09:12:59Z</time>
      </trkpt>
      <trkpt lat="39.1896260" lon="-1.5003410">
        <ele>660.8</ele>
        <time>2019-05-11T09:13:00Z</time>
      </trkpt>
      <trkpt lat="39.1896940" lon="-1.5002970">
        <ele>660.6</ele>
        <time>2019-05-11T09:13:01Z</time>
      </trkpt>
      <trkpt lat="39.1897660" lon="-1.5002550">
        <ele>660.0</ele>
        <time>2019-05-11T09:13:02Z</time>
      </trkpt>
      <trkpt lat="39.1898410" lon="-1.5002110">
        <ele>659.4</ele>
        <time>2019-05-11T09:13:03Z</time>
      </trkpt>
      <trkpt lat="39.1899190" lon="-1.5001670">
        <ele>658.8</ele>
        <time>2019-05-11T09:13:04Z</time>
      </trkpt>
      <trkpt lat="39.1899970" lon="-1.5001220">
        <ele>658.2</ele>
        <time>2019-05-11T09:13:05Z</time>
      </trkpt>
      <trkpt lat="39.1900750" lon="-1.5000770">
        <ele>657.8</ele>
        <time>2019-05-11T09:13:06Z</time>
      </trkpt>
      <trkpt lat="39.1901530" lon="-1.5000330">
        <ele>657.8</ele>
        <time>2019-05-11T09:13:07Z</time>
      </trkpt>
      <trkpt lat="39.1902320" lon="-1.4999890">
        <ele>657.6</ele>
        <time>2019-05-11T09:13:08Z</time>
      </trkpt>
      <trkpt lat="39.1903120" lon="-1.4999480">
        <ele>657.6</ele>
        <time>2019-05-11T09:13:09Z</time>
      </trkpt>
      <trkpt lat="39.1903930" lon="-1.4999050">
        <ele>657.4</ele>
        <time>2019-05-11T09:13:10Z</time>
      </trkpt>
      <trkpt lat="39.1904740" lon="-1.4998630">
        <ele>657.2</ele>
        <time>2019-05-11T09:13:11Z</time>
      </trkpt>
      <trkpt lat="39.1905550" lon="-1.4998210">
        <ele>657.0</ele>
        <time>2019-05-11T09:13:12Z</time>
      </trkpt>
      <trkpt lat="39.1906350" lon="-1.4997790">
        <ele>656.8</ele>
        <time>2019-05-11T09:13:13Z</time>
      </trkpt>
      <trkpt lat="39.1907150" lon="-1.4997380">
        <ele>656.6</ele>
        <time>2019-05-11T09:13:14Z</time>
      </trkpt>
      <trkpt lat="39.1907950" lon="-1.4996960">
        <ele>656.6</ele>
        <time>2019-05-11T09:13:15Z</time>
      </trkpt>
      <trkpt lat="39.1908730" lon="-1.4996530">
        <ele>656.4</ele>
        <time>2019-05-11T09:13:16Z</time>
      </trkpt>
      <trkpt lat="39.1909480" lon="-1.4996090">
        <ele>656.2</ele>
        <time>2019-05-11T09:13:17Z</time>
      </trkpt>
      <trkpt lat="39.1910200" lon="-1.4995630">
        <ele>656.2</ele>
        <time>2019-05-11T09:13:18Z</time>
      </trkpt>
      <trkpt lat="39.1910870" lon="-1.4995110">
        <ele>656.2</ele>
        <time>2019-05-11T09:13:19Z</time>
      </trkpt>
      <trkpt lat="39.1911480" lon="-1.4994540">
        <ele>656.0</ele>
        <time>2019-05-11T09:13:20Z</time>
      </trkpt>
      <trkpt lat="39.1912030" lon="-1.4993930">
        <ele>656.0</ele>
        <time>2019-05-11T09:13:21Z</time>
      </trkpt>
      <trkpt lat="39.1912560" lon="-1.4993310">
        <ele>656.0</ele>
        <time>2019-05-11T09:13:22Z</time>
      </trkpt>
      <trkpt lat="39.1913070" lon="-1.4992680">
        <ele>656.0</ele>
        <time>2019-05-11T09:13:23Z</time>
      </trkpt>
      <trkpt lat="39.1913580" lon="-1.4992050">
        <ele>656.0</ele>
        <time>2019-05-11T09:13:24Z</time>
      </trkpt>
      <trkpt lat="39.1914110" lon="-1.4991440">
        <ele>656.0</ele>
        <time>2019-05-11T09:13:25Z</time>
      </trkpt>
      <trkpt lat="39.1914650" lon="-1.4990820">
        <ele>656.0</ele>
        <time>2019-05-11T09:13:26Z</time>
      </trkpt>
      <trkpt lat="39.1915210" lon="-1.4990200">
        <ele>656.0</ele>
        <time>2019-05-11T09:13:27Z</time>
      </trkpt>
      <trkpt lat="39.1915800" lon="-1.4989570">
        <ele>656.0</ele>
        <time>2019-05-11T09:13:28Z</time>
      </trkpt>
      <trkpt lat="39.1916390" lon="-1.4988890">
        <ele>656.0</ele>
        <time>2019-05-11T09:13:29Z</time>
      </trkpt>
      <trkpt lat="39.1916960" lon="-1.4988150">
        <ele>656.0</ele>
        <time>2019-05-11T09:13:30Z</time>
      </trkpt>
      <trkpt lat="39.1917470" lon="-1.4987320">
        <ele>656.0</ele>
        <time>2019-05-11T09:13:31Z</time>
      </trkpt>
      <trkpt lat="39.1917950" lon="-1.4986440">
        <ele>655.8</ele>
        <time>2019-05-11T09:13:32Z</time>
      </trkpt>
      <trkpt lat="39.1918380" lon="-1.4985520">
        <ele>655.8</ele>
        <time>2019-05-11T09:13:33Z</time>
      </trkpt>
      <trkpt lat="39.1918750" lon="-1.4984550">
        <ele>655.8</ele>
        <time>2019-05-11T09:13:34Z</time>
      </trkpt>
      <trkpt lat="39.1919100" lon="-1.4983560">
        <ele>655.8</ele>
        <time>2019-05-11T09:13:35Z</time>
      </trkpt>
      <trkpt lat="39.1919450" lon="-1.4982580">
        <ele>655.8</ele>
        <time>2019-05-11T09:13:36Z</time>
      </trkpt>
      <trkpt lat="39.1919850" lon="-1.4981640">
        <ele>655.6</ele>
        <time>2019-05-11T09:13:37Z</time>
      </trkpt>
      <trkpt lat="39.1920290" lon="-1.4980730">
        <ele>655.6</ele>
        <time>2019-05-11T09:13:38Z</time>
      </trkpt>
      <trkpt lat="39.1920770" lon="-1.4979860">
        <ele>655.4</ele>
        <time>2019-05-11T09:13:39Z</time>
      </trkpt>
      <trkpt lat="39.1921280" lon="-1.4979020">
        <ele>655.2</ele>
        <time>2019-05-11T09:13:40Z</time>
      </trkpt>
      <trkpt lat="39.1921820" lon="-1.4978190">
        <ele>655.0</ele>
        <time>2019-05-11T09:13:41Z</time>
      </trkpt>
      <trkpt lat="39.1922350" lon="-1.4977370">
        <ele>654.8</ele>
        <time>2019-05-11T09:13:42Z</time>
      </trkpt>
      <trkpt lat="39.1922870" lon="-1.4976570">
        <ele>654.6</ele>
        <time>2019-05-11T09:13:43Z</time>
      </trkpt>
      <trkpt lat="39.1923380" lon="-1.4975790">
        <ele>654.6</ele>
        <time>2019-05-11T09:13:44Z</time>
      </trkpt>
      <trkpt lat="39.1923850" lon="-1.4975040">
        <ele>654.6</ele>
        <time>2019-05-11T09:13:45Z</time>
      </trkpt>
      <trkpt lat="39.1924280" lon="-1.4974310">
        <ele>654.6</ele>
        <time>2019-05-11T09:13:46Z</time>
      </trkpt>
      <trkpt lat="39.1924690" lon="-1.4973620">
        <ele>654.4</ele>
        <time>2019-05-11T09:13:47Z</time>
      </trkpt>
      <trkpt lat="39.1925060" lon="-1.4972980">
        <ele>654.4</ele>
        <time>2019-05-11T09:13:48Z</time>
      </trkpt>
      <trkpt lat="39.1925410" lon="-1.4972370">
        <ele>654.4</ele>
        <time>2019-05-11T09:13:49Z</time>
      </trkpt>
      <trkpt lat="39.1925750" lon="-1.4971800">
        <ele>654.4</ele>
        <time>2019-05-11T09:13:50Z</time>
      </trkpt>
      <trkpt lat="39.1926080" lon="-1.4971250">
        <ele>654.4</ele>
        <time>2019-05-11T09:13:51Z</time>
      </trkpt>
      <trkpt lat="39.1926410" lon="-1.4970720">
        <ele>654.6</ele>
        <time>2019-05-11T09:13:52Z</time>
      </trkpt>
      <trkpt lat="39.1926740" lon="-1.4970190">
        <ele>654.8</ele>
        <time>2019-05-11T09:13:53Z</time>
      </trkpt>
      <trkpt lat="39.1927050" lon="-1.4969650">
        <ele>655.0</ele>
        <time>2019-05-11T09:13:54Z</time>
      </trkpt>
      <trkpt lat="39.1927350" lon="-1.4969130">
        <ele>655.2</ele>
        <time>2019-05-11T09:13:55Z</time>
      </trkpt>
      <trkpt lat="39.1927630" lon="-1.4968610">
        <ele>655.8</ele>
        <time>2019-05-11T09:13:56Z</time>
      </trkpt>
      <trkpt lat="39.1927900" lon="-1.4968130">
        <ele>656.4</ele>
        <time>2019-05-11T09:13:57Z</time>
      </trkpt>
      <trkpt lat="39.1928160" lon="-1.4967690">
        <ele>656.8</ele>
        <time>2019-05-11T09:13:58Z</time>
      </trkpt>
      <trkpt lat="39.1928410" lon="-1.4967280">
        <ele>657.0</ele>
        <time>2019-05-11T09:13:59Z</time>
      </trkpt>
      <trkpt lat="39.1928650" lon="-1.4966880">
        <ele>657.4</ele>
        <time>2019-05-11T09:14:00Z</time>
      </trkpt>
      <trkpt lat="39.1928900" lon="-1.4966480">
        <ele>657.4</ele>
        <time>2019-05-11T09:14:01Z</time>
      </trkpt>
      <trkpt lat="39.1929150" lon="-1.4966080">
        <ele>657.6</ele>
        <time>2019-05-11T09:14:02Z</time>
      </trkpt>
      <trkpt lat="39.1929420" lon="-1.4965660">
        <ele>658.0</ele>
        <time>2019-05-11T09:14:03Z</time>
      </trkpt>
      <trkpt lat="39.1929690" lon="-1.4965240">
        <ele>658.4</ele>
        <time>2019-05-11T09:14:04Z</time>
      </trkpt>
      <trkpt lat="39.1929970" lon="-1.4964810">
        <ele>658.8</ele>
        <time>2019-05-11T09:14:05Z</time>
      </trkpt>
      <trkpt lat="39.1930240" lon="-1.4964390">
        <ele>659.4</ele>
        <time>2019-05-11T09:14:06Z</time>
      </trkpt>
      <trkpt lat="39.1930530" lon="-1.4963960">
        <ele>659.8</ele>
        <time>2019-05-11T09:14:07Z</time>
      </trkpt>
      <trkpt lat="39.1930810" lon="-1.4963530">
        <ele>660.2</ele>
        <time>2019-05-11T09:14:08Z</time>
      </trkpt>
      <trkpt lat="39.1931080" lon="-1.4963100">
        <ele>660.4</ele>
        <time>2019-05-11T09:14:09Z</time>
      </trkpt>
      <trkpt lat="39.1931330" lon="-1.4962680">
        <ele>660.6</ele>
        <time>2019-05-11T09:14:10Z</time>
      </trkpt>
      <trkpt lat="39.1931590" lon="-1.4962270">
        <ele>660.8</ele>
        <time>2019-05-11T09:14:11Z</time>
      </trkpt>
      <trkpt lat="39.1931840" lon="-1.4961880">
        <ele>661.0</ele>
        <time>2019-05-11T09:14:12Z</time>
      </trkpt>
      <trkpt lat="39.1932080" lon="-1.4961500">
        <ele>661.2</ele>
        <time>2019-05-11T09:14:13Z</time>
      </trkpt>
      <trkpt lat="39.1932310" lon="-1.4961130">
        <ele>661.4</ele>
        <time>2019-05-11T09:14:14Z</time>
      </trkpt>
      <trkpt lat="39.1932530" lon="-1.4960770">
        <ele>661.6</ele>
        <time>2019-05-11T09:14:15Z</time>
      </trkpt>
      <trkpt lat="39.1932740" lon="-1.4960420">
        <ele>661.8</ele>
        <time>2019-05-11T09:14:16Z</time>
      </trkpt>
      <trkpt lat="39.1932950" lon="-1.4960070">
        <ele>662.0</ele>
        <time>2019-05-11T09:14:17Z</time>
      </trkpt>
      <trkpt lat="39.1933120" lon="-1.4959700">
        <ele>662.2</ele>
        <time>2019-05-11T09:14:18Z</time>
      </trkpt>
      <trkpt lat="39.1933270" lon="-1.4959300">
        <ele>662.6</ele>
        <time>2019-05-11T09:14:19Z</time>
      </trkpt>
      <trkpt lat="39.1933390" lon="-1.4958890">
        <ele>662.8</ele>
        <time>2019-05-11T09:14:20Z</time>
      </trkpt>
      <trkpt lat="39.1933470" lon="-1.4958490">
        <ele>663.2</ele>
        <time>2019-05-11T09:14:21Z</time>
      </trkpt>
      <trkpt lat="39.1933540" lon="-1.4958090">
        <ele>663.4</ele>
        <time>2019-05-11T09:14:22Z</time>
      </trkpt>
      <trkpt lat="39.1933590" lon="-1.4957690">
        <ele>663.8</ele>
        <time>2019-05-11T09:14:23Z</time>
      </trkpt>
      <trkpt lat="39.1933620" lon="-1.4957300">
        <ele>664.0</ele>
        <time>2019-05-11T09:14:24Z</time>
      </trkpt>
      <trkpt lat="39.1933640" lon="-1.4956910">
        <ele>664.2</ele>
        <time>2019-05-11T09:14:25Z</time>
      </trkpt>
      <trkpt lat="39.1933620" lon="-1.4956480">
        <ele>664.4</ele>
        <time>2019-05-11T09:14:26Z</time>
      </trkpt>
      <trkpt lat="39.1933580" lon="-1.4956040">
        <ele>665.2</ele>
        <time>2019-05-11T09:14:27Z</time>
      </trkpt>
      <trkpt lat="39.1933530" lon="-1.4955590">
        <ele>665.4</ele>
        <time>2019-05-11T09:14:28Z</time>
      </trkpt>
      <trkpt lat="39.1933440" lon="-1.4955120">
        <ele>665.8</ele>
        <time>2019-05-11T09:14:29Z</time>
      </trkpt>
      <trkpt lat="39.1933320" lon="-1.4954650">
        <ele>666.2</ele>
        <time>2019-05-11T09:14:30Z</time>
      </trkpt>
      <trkpt lat="39.1933210" lon="-1.4954180">
        <ele>666.4</ele>
        <time>2019-05-11T09:14:31Z</time>
      </trkpt>
      <trkpt lat="39.1933100" lon="-1.4953680">
        <ele>666.8</ele>
        <time>2019-05-11T09:14:32Z</time>
      </trkpt>
      <trkpt lat="39.1933040" lon="-1.4953140">
        <ele>667.2</ele>
        <time>2019-05-11T09:14:33Z</time>
      </trkpt>
      <trkpt lat="39.1933030" lon="-1.4952580">
        <ele>667.6</ele>
        <time>2019-05-11T09:14:34Z</time>
      </trkpt>
      <trkpt lat="39.1933060" lon="-1.4952000">
        <ele>667.8</ele>
        <time>2019-05-11T09:14:35Z</time>
      </trkpt>
      <trkpt lat="39.1933130" lon="-1.4951420">
        <ele>668.2</ele>
        <time>2019-05-11T09:14:36Z</time>
      </trkpt>
      <trkpt lat="39.1933240" lon="-1.4950830">
        <ele>668.4</ele>
        <time>2019-05-11T09:14:37Z</time>
      </trkpt>
      <trkpt lat="39.1933400" lon="-1.4950230">
        <ele>668.6</ele>
        <time>2019-05-11T09:14:38Z</time>
      </trkpt>
      <trkpt lat="39.1933610" lon="-1.4949640">
        <ele>668.6</ele>
        <time>2019-05-11T09:14:39Z</time>
      </trkpt>
      <trkpt lat="39.1933880" lon="-1.4949080">
        <ele>668.8</ele>
        <time>2019-05-11T09:14:40Z</time>
      </trkpt>
      <trkpt lat="39.1934180" lon="-1.4948550">
        <ele>669.0</ele>
        <time>2019-05-11T09:14:41Z</time>
      </trkpt>
      <trkpt lat="39.1934500" lon="-1.4948020">
        <ele>669.2</ele>
        <time>2019-05-11T09:14:42Z</time>
      </trkpt>
      <trkpt lat="39.1934830" lon="-1.4947490">
        <ele>669.2</ele>
        <time>2019-05-11T09:14:43Z</time>
      </trkpt>
      <trkpt lat="39.1935170" lon="-1.4946980">
        <ele>669.2</ele>
        <time>2019-05-11T09:14:44Z</time>
      </trkpt>
      <trkpt lat="39.1935560" lon="-1.4946470">
        <ele>669.4</ele>
        <time>2019-05-11T09:14:45Z</time>
      </trkpt>
      <trkpt lat="39.1935960" lon="-1.4945970">
        <ele>669.4</ele>
        <time>2019-05-11T09:14:46Z</time>
      </trkpt>
      <trkpt lat="39.1936380" lon="-1.4945500">
        <ele>669.4</ele>
        <time>2019-05-11T09:14:47Z</time>
      </trkpt>
      <trkpt lat="39.1936820" lon="-1.4945040">
        <ele>669.6</ele>
        <time>2019-05-11T09:14:48Z</time>
      </trkpt>
      <trkpt lat="39.1937270" lon="-1.4944610">
        <ele>669.6</ele>
        <time>2019-05-11T09:14:49Z</time>
      </trkpt>
      <trkpt lat="39.1937730" lon="-1.4944190">
        <ele>669.8</ele>
        <time>2019-05-11T09:14:50Z</time>
      </trkpt>
      <trkpt lat="39.1938210" lon="-1.4943800">
        <ele>669.8</ele>
        <time>2019-05-11T09:14:51Z</time>
      </trkpt>
      <trkpt lat="39.1938690" lon="-1.4943450">
        <ele>670.0</ele>
        <time>2019-05-11T09:14:52Z</time>
      </trkpt>
      <trkpt lat="39.1939160" lon="-1.4943110">
        <ele>670.0</ele>
        <time>2019-05-11T09:14:53Z</time>
      </trkpt>
      <trkpt lat="39.1939620" lon="-1.4942760">
        <ele>670.0</ele>
        <time>2019-05-11T09:14:54Z</time>
      </trkpt>
      <trkpt lat="39.1940070" lon="-1.4942420">
        <ele>670.2</ele>
        <time>2019-05-11T09:14:55Z</time>
      </trkpt>
      <trkpt lat="39.1940510" lon="-1.4942070">
        <ele>670.2</ele>
        <time>2019-05-11T09:14:56Z</time>
      </trkpt>
      <trkpt lat="39.1940950" lon="-1.4941730">
        <ele>670.4</ele>
        <time>2019-05-11T09:14:57Z</time>
      </trkpt>
      <trkpt lat="39.1941380" lon="-1.4941390">
        <ele>670.4</ele>
        <time>2019-05-11T09:14:58Z</time>
      </trkpt>
      <trkpt lat="39.1941800" lon="-1.4941050">
        <ele>670.4</ele>
        <time>2019-05-11T09:14:59Z</time>
      </trkpt>
      <trkpt lat="39.1942210" lon="-1.4940690">
        <ele>670.6</ele>
        <time>2019-05-11T09:15:00Z</time>
      </trkpt>
      <trkpt lat="39.1942600" lon="-1.4940330">
        <ele>670.6</ele>
        <time>2019-05-11T09:15:01Z</time>
      </trkpt>
      <trkpt lat="39.1942970" lon="-1.4939960">
        <ele>670.8</ele>
        <time>2019-05-11T09:15:02Z</time>
      </trkpt>
      <trkpt lat="39.1943320" lon="-1.4939580">
        <ele>671.0</ele>
        <time>2019-05-11T09:15:03Z</time>
      </trkpt>
      <trkpt lat="39.1943660" lon="-1.4939210">
        <ele>671.0</ele>
        <time>2019-05-11T09:15:04Z</time>
      </trkpt>
      <trkpt lat="39.1944000" lon="-1.4938820">
        <ele>671.2</ele>
        <time>2019-05-11T09:15:05Z</time>
      </trkpt>
      <trkpt lat="39.1944340" lon="-1.4938400">
        <ele>671.2</ele>
        <time>2019-05-11T09:15:06Z</time>
      </trkpt>
      <trkpt lat="39.1944680" lon="-1.4937970">
        <ele>671.4</ele>
        <time>2019-05-11T09:15:07Z</time>
      </trkpt>
      <trkpt lat="39.1945020" lon="-1.4937550">
        <ele>671.4</ele>
        <time>2019-05-11T09:15:08Z</time>
      </trkpt>
      <trkpt lat="39.1945360" lon="-1.4937130">
        <ele>671.6</ele>
        <time>2019-05-11T09:15:09Z</time>
      </trkpt>
      <trkpt lat="39.1945670" lon="-1.4936680">
        <ele>671.6</ele>
        <time>2019-05-11T09:15:10Z</time>
      </trkpt>
      <trkpt lat="39.1945970" lon="-1.4936230">
        <ele>671.8</ele>
        <time>2019-05-11T09:15:11Z</time>
      </trkpt>
      <trkpt lat="39.1946250" lon="-1.4935770">
        <ele>672.0</ele>
        <time>2019-05-11T09:15:12Z</time>
      </trkpt>
      <trkpt lat="39.1946530" lon="-1.4935290">
        <ele>672.0</ele>
        <time>2019-05-11T09:15:13Z</time>
      </trkpt>
      <trkpt lat="39.1946800" lon="-1.4934830">
        <ele>672.0</ele>
        <time>2019-05-11T09:15:14Z</time>
      </trkpt>
      <trkpt lat="39.1947080" lon="-1.4934400">
        <ele>672.2</ele>
        <time>2019-05-11T09:15:15Z</time>
      </trkpt>
      <trkpt lat="39.1947350" lon="-1.4933990">
        <ele>672.4</ele>
        <time>2019-05-11T09:15:16Z</time>
      </trkpt>
      <trkpt lat="39.1947580" lon="-1.4933550">
        <ele>672.6</ele>
        <time>2019-05-11T09:15:17Z</time>
      </trkpt>
      <trkpt lat="39.1947800" lon="-1.4933120">
        <ele>672.6</ele>
        <time>2019-05-11T09:15:18Z</time>
      </trkpt>
      <trkpt lat="39.1948030" lon="-1.4932700">
        <ele>672.8</ele>
        <time>2019-05-11T09:15:19Z</time>
      </trkpt>
      <trkpt lat="39.1948260" lon="-1.4932280">
        <ele>672.8</ele>
        <time>2019-05-11T09:15:20Z</time>
      </trkpt>
      <trkpt lat="39.1948470" lon="-1.4931830">
        <ele>673.0</ele>
        <time>2019-05-11T09:15:21Z</time>
      </trkpt>
      <trkpt lat="39.1948660" lon="-1.4931370">
        <ele>673.2</ele>
        <time>2019-05-11T09:15:22Z</time>
      </trkpt>
      <trkpt lat="39.1948870" lon="-1.4930910">
        <ele>673.6</ele>
        <time>2019-05-11T09:15:23Z</time>
      </trkpt>
      <trkpt lat="39.1949090" lon="-1.4930460">
        <ele>673.8</ele>
        <time>2019-05-11T09:15:24Z</time>
      </trkpt>
      <trkpt lat="39.1949300" lon="-1.4929990">
        <ele>674.2</ele>
        <time>2019-05-11T09:15:25Z</time>
      </trkpt>
      <trkpt lat="39.1949550" lon="-1.4929520">
        <ele>674.6</ele>
        <time>2019-05-11T09:15:26Z</time>
      </trkpt>
      <trkpt lat="39.1949840" lon="-1.4929080">
        <ele>674.8</ele>
        <time>2019-05-11T09:15:27Z</time>
      </trkpt>
      <trkpt lat="39.1950170" lon="-1.4928680">
        <ele>674.8</ele>
        <time>2019-05-11T09:15:28Z</time>
      </trkpt>
      <trkpt lat="39.1950560" lon="-1.4928290">
        <ele>675.0</ele>
        <time>2019-05-11T09:15:29Z</time>
      </trkpt>
      <trkpt lat="39.1950950" lon="-1.4927920">
        <ele>675.2</ele>
        <time>2019-05-11T09:15:30Z</time>
      </trkpt>
      <trkpt lat="39.1951350" lon="-1.4927540">
        <ele>675.2</ele>
        <time>2019-05-11T09:15:31Z</time>
      </trkpt>
      <trkpt lat="39.1951770" lon="-1.4927190">
        <ele>675.4</ele>
        <time>2019-05-11T09:15:32Z</time>
      </trkpt>
      <trkpt lat="39.1952200" lon="-1.4926860">
        <ele>675.4</ele>
        <time>2019-05-11T09:15:33Z</time>
      </trkpt>
      <trkpt lat="39.1952640" lon="-1.4926530">
        <ele>675.4</ele>
        <time>2019-05-11T09:15:34Z</time>
      </trkpt>
      <trkpt lat="39.1953080" lon="-1.4926230">
        <ele>675.6</ele>
        <time>2019-05-11T09:15:35Z</time>
      </trkpt>
      <trkpt lat="39.1953520" lon="-1.4925900">
        <ele>675.6</ele>
        <time>2019-05-11T09:15:36Z</time>
      </trkpt>
      <trkpt lat="39.1953970" lon="-1.4925580">
        <ele>675.8</ele>
        <time>2019-05-11T09:15:37Z</time>
      </trkpt>
      <trkpt lat="39.1954430" lon="-1.4925290">
        <ele>675.8</ele>
        <time>2019-05-11T09:15:38Z</time>
      </trkpt>
      <trkpt lat="39.1954900" lon="-1.4924990">
        <ele>675.8</ele>
        <time>2019-05-11T09:15:39Z</time>
      </trkpt>
      <trkpt lat="39.1955360" lon="-1.4924710">
        <ele>675.8</ele>
        <time>2019-05-11T09:15:40Z</time>
      </trkpt>
      <trkpt lat="39.1955850" lon="-1.4924460">
        <ele>676.2</ele>
        <time>2019-05-11T09:15:41Z</time>
      </trkpt>
      <trkpt lat="39.1956340" lon="-1.4924240">
        <ele>676.2</ele>
        <time>2019-05-11T09:15:42Z</time>
      </trkpt>
      <trkpt lat="39.1956840" lon="-1.4924050">
        <ele>676.2</ele>
        <time>2019-05-11T09:15:43Z</time>
      </trkpt>
      <trkpt lat="39.1957360" lon="-1.4923910">
        <ele>676.4</ele>
        <time>2019-05-11T09:15:44Z</time>
      </trkpt>
      <trkpt lat="39.1957870" lon="-1.4923770">
        <ele>676.4</ele>
        <time>2019-05-11T09:15:45Z</time>
      </trkpt>
      <trkpt lat="39.1958370" lon="-1.4923610">
        <ele>676.4</ele>
        <time>2019-05-11T09:15:46Z</time>
      </trkpt>
      <trkpt lat="39.1958870" lon="-1.4923450">
        <ele>676.4</ele>
        <time>2019-05-11T09:15:47Z</time>
      </trkpt>
      <trkpt lat="39.1959390" lon="-1.4923350">
        <ele>676.6</ele>
        <time>2019-05-11T09:15:48Z</time>
      </trkpt>
      <trkpt lat="39.1959920" lon="-1.4923260">
        <ele>676.8</ele>
        <time>2019-05-11T09:15:49Z</time>
      </trkpt>
      <trkpt lat="39.1960460" lon="-1.4923150">
        <ele>677.0</ele>
        <time>2019-05-11T09:15:50Z</time>
      </trkpt>
      <trkpt lat="39.1961000" lon="-1.4923020">
        <ele>677.2</ele>
        <time>2019-05-11T09:15:51Z</time>
      </trkpt>
      <trkpt lat="39.1961540" lon="-1.4922830">
        <ele>677.2</ele>
        <time>2019-05-11T09:15:52Z</time>
      </trkpt>
      <trkpt lat="39.1962080" lon="-1.4922620">
        <ele>677.4</ele>
        <time>2019-05-11T09:15:53Z</time>
      </trkpt>
      <trkpt lat="39.1962620" lon="-1.4922400">
        <ele>677.4</ele>
        <time>2019-05-11T09:15:54Z</time>
      </trkpt>
      <trkpt lat="39.1963180" lon="-1.4922200">
        <ele>677.6</ele>
        <time>2019-05-11T09:15:55Z</time>
      </trkpt>
      <trkpt lat="39.1963740" lon="-1.4922020">
        <ele>677.6</ele>
        <time>2019-05-11T09:15:56Z</time>
      </trkpt>
      <trkpt lat="39.1964310" lon="-1.4921850">
        <ele>677.8</ele>
        <time>2019-05-11T09:15:57Z</time>
      </trkpt>
      <trkpt lat="39.1964890" lon="-1.4921680">
        <ele>677.8</ele>
        <time>2019-05-11T09:15:58Z</time>
      </trkpt>
      <trkpt lat="39.1965490" lon="-1.4921510">
        <ele>677.8</ele>
        <time>2019-05-11T09:15:59Z</time>
      </trkpt>
      <trkpt lat="39.1966080" lon="-1.4921340">
        <ele>677.8</ele>
        <time>2019-05-11T09:16:00Z</time>
      </trkpt>
      <trkpt lat="39.1966680" lon="-1.4921140">
        <ele>678.0</ele>
        <time>2019-05-11T09:16:01Z</time>
      </trkpt>
      <trkpt lat="39.1967290" lon="-1.4920910">
        <ele>678.0</ele>
        <time>2019-05-11T09:16:02Z</time>
      </trkpt>
      <trkpt lat="39.1967910" lon="-1.4920650">
        <ele>678.0</ele>
        <time>2019-05-11T09:16:03Z</time>
      </trkpt>
      <trkpt lat="39.1968540" lon="-1.4920340">
        <ele>678.0</ele>
        <time>2019-05-11T09:16:04Z</time>
      </trkpt>
      <trkpt lat="39.1969160" lon="-1.4919970">
        <ele>678.0</ele>
        <time>2019-05-11T09:16:05Z</time>
      </trkpt>
      <trkpt lat="39.1969800" lon="-1.4919550">
        <ele>678.0</ele>
        <time>2019-05-11T09:16:06Z</time>
      </trkpt>
      <trkpt lat="39.1970460" lon="-1.4919140">
        <ele>678.0</ele>
        <time>2019-05-11T09:16:07Z</time>
      </trkpt>
      <trkpt lat="39.1971150" lon="-1.4918760">
        <ele>677.8</ele>
        <time>2019-05-11T09:16:08Z</time>
      </trkpt>
      <trkpt lat="39.1971860" lon="-1.4918410">
        <ele>677.8</ele>
        <time>2019-05-11T09:16:09Z</time>
      </trkpt>
      <trkpt lat="39.1972580" lon="-1.4918060">
        <ele>677.8</ele>
        <time>2019-05-11T09:16:10Z</time>
      </trkpt>
      <trkpt lat="39.1973310" lon="-1.4917720">
        <ele>677.6</ele>
        <time>2019-05-11T09:16:11Z</time>
      </trkpt>
      <trkpt lat="39.1974050" lon="-1.4917380">
        <ele>677.4</ele>
        <time>2019-05-11T09:16:12Z</time>
      </trkpt>
      <trkpt lat="39.1974780" lon="-1.4917040">
        <ele>677.2</ele>
        <time>2019-05-11T09:16:13Z</time>
      </trkpt>
      <trkpt lat="39.1975440" lon="-1.4916720">
        <ele>677.2</ele>
        <time>2019-05-11T09:16:14Z</time>
      </trkpt>
      <trkpt lat="39.1975940" lon="-1.4916380">
        <ele>676.8</ele>
        <time>2019-05-11T09:16:15Z</time>
      </trkpt>
      <trkpt lat="39.1976290" lon="-1.4915960">
        <ele>676.6</ele>
        <time>2019-05-11T09:16:16Z</time>
      </trkpt>
      <trkpt lat="39.1976450" lon="-1.4915440">
        <ele>676.4</ele>
        <time>2019-05-11T09:16:17Z</time>
      </trkpt>
      <trkpt lat="39.1976410" lon="-1.4914860">
        <ele>676.2</ele>
        <time>2019-05-11T09:16:18Z</time>
      </trkpt>
      <trkpt lat="39.1976250" lon="-1.4914260">
        <ele>675.8</ele>
        <time>2019-05-11T09:16:19Z</time>
      </trkpt>
      <trkpt lat="39.1976060" lon="-1.4913650">
        <ele>675.8</ele>
        <time>2019-05-11T09:16:20Z</time>
      </trkpt>
      <trkpt lat="39.1975860" lon="-1.4913020">
        <ele>675.4</ele>
        <time>2019-05-11T09:16:21Z</time>
      </trkpt>
      <trkpt lat="39.1975640" lon="-1.4912380">
        <ele>675.2</ele>
        <time>2019-05-11T09:16:22Z</time>
      </trkpt>
      <trkpt lat="39.1975400" lon="-1.4911730">
        <ele>675.0</ele>
        <time>2019-05-11T09:16:23Z</time>
      </trkpt>
      <trkpt lat="39.1975150" lon="-1.4911090">
        <ele>674.8</ele>
        <time>2019-05-11T09:16:24Z</time>
      </trkpt>
      <trkpt lat="39.1974930" lon="-1.4910440">
        <ele>674.8</ele>
        <time>2019-05-11T09:16:25Z</time>
      </trkpt>
      <trkpt lat="39.1974750" lon="-1.4909760">
        <ele>674.8</ele>
        <time>2019-05-11T09:16:26Z</time>
      </trkpt>
      <trkpt lat="39.1974580" lon="-1.4909040">
        <ele>674.8</ele>
        <time>2019-05-11T09:16:27Z</time>
      </trkpt>
      <trkpt lat="39.1974340" lon="-1.4908320">
        <ele>674.8</ele>
        <time>2019-05-11T09:16:28Z</time>
      </trkpt>
      <trkpt lat="39.1974050" lon="-1.4907640">
        <ele>674.8</ele>
        <time>2019-05-11T09:16:29Z</time>
      </trkpt>
      <trkpt lat="39.1973660" lon="-1.4907040">
        <ele>674.8</ele>
        <time>2019-05-11T09:16:30Z</time>
      </trkpt>
      <trkpt lat="39.1973240" lon="-1.4906520">
        <ele>674.8</ele>
        <time>2019-05-11T09:16:31Z</time>
      </trkpt>
      <trkpt lat="39.1972790" lon="-1.4906070">
        <ele>674.8</ele>
        <time>2019-05-11T09:16:32Z</time>
      </trkpt>
      <trkpt lat="39.1972330" lon="-1.4905680">
        <ele>674.8</ele>
        <time>2019-05-11T09:16:33Z</time>
      </trkpt>
      <trkpt lat="39.1971850" lon="-1.4905330">
        <ele>674.8</ele>
        <time>2019-05-11T09:16:34Z</time>
      </trkpt>
      <trkpt lat="39.1971360" lon="-1.4905040">
        <ele>674.8</ele>
        <time>2019-05-11T09:16:35Z</time>
      </trkpt>
      <trkpt lat="39.1970840" lon="-1.4904810">
        <ele>675.0</ele>
        <time>2019-05-11T09:16:36Z</time>
      </trkpt>
      <trkpt lat="39.1970310" lon="-1.4904630">
        <ele>675.0</ele>
        <time>2019-05-11T09:16:37Z</time>
      </trkpt>
      <trkpt lat="39.1969770" lon="-1.4904470">
        <ele>675.2</ele>
        <time>2019-05-11T09:16:38Z</time>
      </trkpt>
      <trkpt lat="39.1969240" lon="-1.4904300">
        <ele>675.4</ele>
        <time>2019-05-11T09:16:39Z</time>
      </trkpt>
      <trkpt lat="39.1968700" lon="-1.4904100">
        <ele>675.8</ele>
        <time>2019-05-11T09:16:40Z</time>
      </trkpt>
      <trkpt lat="39.1968140" lon="-1.4903910">
        <ele>676.0</ele>
        <time>2019-05-11T09:16:41Z</time>
      </trkpt>
      <trkpt lat="39.1967580" lon="-1.4903700">
        <ele>676.2</ele>
        <time>2019-05-11T09:16:42Z</time>
      </trkpt>
      <trkpt lat="39.1967000" lon="-1.4903490">
        <ele>676.4</ele>
        <time>2019-05-11T09:16:43Z</time>
      </trkpt>
      <trkpt lat="39.1966410" lon="-1.4903290">
        <ele>676.6</ele>
        <time>2019-05-11T09:16:44Z</time>
      </trkpt>
      <trkpt lat="39.1965820" lon="-1.4903080">
        <ele>676.8</ele>
        <time>2019-05-11T09:16:45Z</time>
      </trkpt>
      <trkpt lat="39.1965220" lon="-1.4902860">
        <ele>676.8</ele>
        <time>2019-05-11T09:16:46Z</time>
      </trkpt>
      <trkpt lat="39.1964640" lon="-1.4902620">
        <ele>676.8</ele>
        <time>2019-05-11T09:16:47Z</time>
      </trkpt>
      <trkpt lat="39.1964100" lon="-1.4902350">
        <ele>676.8</ele>
        <time>2019-05-11T09:16:48Z</time>
      </trkpt>
      <trkpt lat="39.1963580" lon="-1.4902090">
        <ele>676.8</ele>
        <time>2019-05-11T09:16:49Z</time>
      </trkpt>
      <trkpt lat="39.1963070" lon="-1.4901830">
        <ele>676.8</ele>
        <time>2019-05-11T09:16:50Z</time>
      </trkpt>
      <trkpt lat="39.1962570" lon="-1.4901540">
        <ele>676.8</ele>
        <time>2019-05-11T09:16:51Z</time>
      </trkpt>
      <trkpt lat="39.1962050" lon="-1.4901150">
        <ele>676.8</ele>
        <time>2019-05-11T09:16:52Z</time>
      </trkpt>
      <trkpt lat="39.1961500" lon="-1.4900680">
        <ele>676.8</ele>
        <time>2019-05-11T09:16:53Z</time>
      </trkpt>
      <trkpt lat="39.1960920" lon="-1.4900190">
        <ele>676.8</ele>
        <time>2019-05-11T09:16:54Z</time>
      </trkpt>
      <trkpt lat="39.1960320" lon="-1.4899700">
        <ele>676.6</ele>
        <time>2019-05-11T09:16:55Z</time>
      </trkpt>
      <trkpt lat="39.1959670" lon="-1.4899220">
        <ele>676.6</ele>
        <time>2019-05-11T09:16:56Z</time>
      </trkpt>
      <trkpt lat="39.1959010" lon="-1.4898750">
        <ele>676.6</ele>
        <time>2019-05-11T09:16:57Z</time>
      </trkpt>
      <trkpt lat="39.1958330" lon="-1.4898300">
        <ele>676.6</ele>
        <time>2019-05-11T09:16:58Z</time>
      </trkpt>
      <trkpt lat="39.1957630" lon="-1.4897860">
        <ele>676.4</ele>
        <time>2019-05-11T09:16:59Z</time>
      </trkpt>
      <trkpt lat="39.1956910" lon="-1.4897420">
        <ele>676.2</ele>
        <time>2019-05-11T09:17:00Z</time>
      </trkpt>
      <trkpt lat="39.1956170" lon="-1.4897000">
        <ele>676.0</ele>
        <time>2019-05-11T09:17:01Z</time>
      </trkpt>
      <trkpt lat="39.1955410" lon="-1.4896640">
        <ele>675.8</ele>
        <time>2019-05-11T09:17:02Z</time>
      </trkpt>
      <trkpt lat="39.1954620" lon="-1.4896340">
        <ele>675.6</ele>
        <time>2019-05-11T09:17:03Z</time>
      </trkpt>
      <trkpt lat="39.1953820" lon="-1.4896080">
        <ele>675.4</ele>
        <time>2019-05-11T09:17:04Z</time>
      </trkpt>
      <trkpt lat="39.1953000" lon="-1.4895900">
        <ele>675.4</ele>
        <time>2019-05-11T09:17:05Z</time>
      </trkpt>
      <trkpt lat="39.1952180" lon="-1.4895740">
        <ele>675.4</ele>
        <time>2019-05-11T09:17:06Z</time>
      </trkpt>
      <trkpt lat="39.1951350" lon="-1.4895540">
        <ele>675.2</ele>
        <time>2019-05-11T09:17:07Z</time>
      </trkpt>
      <trkpt lat="39.1950540" lon="-1.4895260">
        <ele>675.0</ele>
        <time>2019-05-11T09:17:08Z</time>
      </trkpt>
      <trkpt lat="39.1949760" lon="-1.4894830">
        <ele>675.0</ele>
        <time>2019-05-11T09:17:09Z</time>
      </trkpt>
      <trkpt lat="39.1949020" lon="-1.4894280">
        <ele>674.8</ele>
        <time>2019-05-11T09:17:10Z</time>
      </trkpt>
      <trkpt lat="39.1948300" lon="-1.4893690">
        <ele>674.6</ele>
        <time>2019-05-11T09:17:11Z</time>
      </trkpt>
      <trkpt lat="39.1947580" lon="-1.4893080">
        <ele>674.4</ele>
        <time>2019-05-11T09:17:12Z</time>
      </trkpt>
      <trkpt lat="39.1946860" lon="-1.4892470">
        <ele>674.2</ele>
        <time>2019-05-11T09:17:13Z</time>
      </trkpt>
      <trkpt lat="39.1946160" lon="-1.4891850">
        <ele>673.8</ele>
        <time>2019-05-11T09:17:14Z</time>
      </trkpt>
      <trkpt lat="39.1945450" lon="-1.4891230">
        <ele>673.6</ele>
        <time>2019-05-11T09:17:15Z</time>
      </trkpt>
      <trkpt lat="39.1944750" lon="-1.4890590">
        <ele>673.2</ele>
        <time>2019-05-11T09:17:16Z</time>
      </trkpt>
      <trkpt lat="39.1944080" lon="-1.4889880">
        <ele>672.8</ele>
        <time>2019-05-11T09:17:17Z</time>
      </trkpt>
      <trkpt lat="39.1943480" lon="-1.4889050">
        <ele>672.6</ele>
        <time>2019-05-11T09:17:18Z</time>
      </trkpt>
      <trkpt lat="39.1942950" lon="-1.4888120">
        <ele>672.2</ele>
        <time>2019-05-11T09:17:19Z</time>
      </trkpt>
      <trkpt lat="39.1942460" lon="-1.4887130">
        <ele>672.0</ele>
        <time>2019-05-11T09:17:20Z</time>
      </trkpt>
      <trkpt lat="39.1941940" lon="-1.4886130">
        <ele>672.0</ele>
        <time>2019-05-11T09:17:21Z</time>
      </trkpt>
      <trkpt lat="39.1941390" lon="-1.4885140">
        <ele>671.8</ele>
        <time>2019-05-11T09:17:22Z</time>
      </trkpt>
      <trkpt lat="39.1940820" lon="-1.4884180">
        <ele>671.8</ele>
        <time>2019-05-11T09:17:23Z</time>
      </trkpt>
      <trkpt lat="39.1940230" lon="-1.4883240">
        <ele>671.6</ele>
        <time>2019-05-11T09:17:24Z</time>
      </trkpt>
      <trkpt lat="39.1939630" lon="-1.4882310">
        <ele>671.2</ele>
        <time>2019-05-11T09:17:25Z</time>
      </trkpt>
      <trkpt lat="39.1939020" lon="-1.4881380">
        <ele>670.8</ele>
        <time>2019-05-11T09:17:26Z</time>
      </trkpt>
      <trkpt lat="39.1938430" lon="-1.4880440">
        <ele>670.4</ele>
        <time>2019-05-11T09:17:27Z</time>
      </trkpt>
      <trkpt lat="39.1937880" lon="-1.4879460">
        <ele>670.2</ele>
        <time>2019-05-11T09:17:28Z</time>
      </trkpt>
      <trkpt lat="39.1937410" lon="-1.4878460">
        <ele>669.8</ele>
        <time>2019-05-11T09:17:29Z</time>
      </trkpt>
      <trkpt lat="39.1937000" lon="-1.4877580">
        <ele>669.8</ele>
        <time>2019-05-11T09:17:30Z</time>
      </trkpt>
      <trkpt lat="39.1936560" lon="-1.4876960">
        <ele>669.6</ele>
        <time>2019-05-11T09:17:31Z</time>
      </trkpt>
      <trkpt lat="39.1936070" lon="-1.4876670">
        <ele>669.4</ele>
        <time>2019-05-11T09:17:32Z</time>
      </trkpt>
      <trkpt lat="39.1935570" lon="-1.4876730">
        <ele>669.4</ele>
        <time>2019-05-11T09:17:33Z</time>
      </trkpt>
      <trkpt lat="39.1935110" lon="-1.4877030">
        <ele>669.2</ele>
        <time>2019-05-11T09:17:34Z</time>
      </trkpt>
      <trkpt lat="39.1934640" lon="-1.4877380">
        <ele>668.8</ele>
        <time>2019-05-11T09:17:35Z</time>
      </trkpt>
      <trkpt lat="39.1934080" lon="-1.4877630">
        <ele>668.6</ele>
        <time>2019-05-11T09:17:36Z</time>
      </trkpt>
      <trkpt lat="39.1933470" lon="-1.4877770">
        <ele>668.2</ele>
        <time>2019-05-11T09:17:37Z</time>
      </trkpt>
      <trkpt lat="39.1932800" lon="-1.4877840">
        <ele>668.0</ele>
        <time>2019-05-11T09:17:38Z</time>
      </trkpt>
      <trkpt lat="39.1932130" lon="-1.4877920">
        <ele>668.0</ele>
        <time>2019-05-11T09:17:39Z</time>
      </trkpt>
      <trkpt lat="39.1931430" lon="-1.4878060">
        <ele>668.0</ele>
        <time>2019-05-11T09:17:40Z</time>
      </trkpt>
      <trkpt lat="39.1930730" lon="-1.4878210">
        <ele>667.8</ele>
        <time>2019-05-11T09:17:41Z</time>
      </trkpt>
      <trkpt lat="39.1930020" lon="-1.4878320">
        <ele>667.8</ele>
        <time>2019-05-11T09:17:42Z</time>
      </trkpt>
      <trkpt lat="39.1929310" lon="-1.4878360">
        <ele>667.8</ele>
        <time>2019-05-11T09:17:43Z</time>
      </trkpt>
      <trkpt lat="39.1928580" lon="-1.4878290">
        <ele>667.6</ele>
        <time>2019-05-11T09:17:44Z</time>
      </trkpt>
      <trkpt lat="39.1927850" lon="-1.4878030">
        <ele>667.6</ele>
        <time>2019-05-11T09:17:45Z</time>
      </trkpt>
      <trkpt lat="39.1927180" lon="-1.4877550">
        <ele>667.6</ele>
        <time>2019-05-11T09:17:46Z</time>
      </trkpt>
      <trkpt lat="39.1926560" lon="-1.4876930">
        <ele>667.4</ele>
        <time>2019-05-11T09:17:47Z</time>
      </trkpt>
      <trkpt lat="39.1925940" lon="-1.4876240">
        <ele>667.4</ele>
        <time>2019-05-11T09:17:48Z</time>
      </trkpt>
      <trkpt lat="39.1925330" lon="-1.4875470">
        <ele>667.2</ele>
        <time>2019-05-11T09:17:49Z</time>
      </trkpt>
      <trkpt lat="39.1924820" lon="-1.4874590">
        <ele>667.0</ele>
        <time>2019-05-11T09:17:50Z</time>
      </trkpt>
      <trkpt lat="39.1924400" lon="-1.4873630">
        <ele>666.6</ele>
        <time>2019-05-11T09:17:51Z</time>
      </trkpt>
      <trkpt lat="39.1924020" lon="-1.4872640">
        <ele>666.2</ele>
        <time>2019-05-11T09:17:52Z</time>
      </trkpt>
      <trkpt lat="39.1923640" lon="-1.4871620">
        <ele>665.8</ele>
        <time>2019-05-11T09:17:53Z</time>
      </trkpt>
      <trkpt lat="39.1923310" lon="-1.4870590">
        <ele>665.4</ele>
        <time>2019-05-11T09:17:54Z</time>
      </trkpt>
      <trkpt lat="39.1922990" lon="-1.4869640">
        <ele>665.0</ele>
        <time>2019-05-11T09:17:55Z</time>
      </trkpt>
      <trkpt lat="39.1922580" lon="-1.4868850">
        <ele>664.6</ele>
        <time>2019-05-11T09:17:56Z</time>
      </trkpt>
      <trkpt lat="39.1922040" lon="-1.4868280">
        <ele>664.2</ele>
        <time>2019-05-11T09:17:57Z</time>
      </trkpt>
      <trkpt lat="39.1921360" lon="-1.4867980">
        <ele>664.0</ele>
        <time>2019-05-11T09:17:58Z</time>
      </trkpt>
      <trkpt lat="39.1920630" lon="-1.4867820">
        <ele>663.6</ele>
        <time>2019-05-11T09:17:59Z</time>
      </trkpt>
      <trkpt lat="39.1919900" lon="-1.4867620">
        <ele>663.2</ele>
        <time>2019-05-11T09:18:00Z</time>
      </trkpt>
      <trkpt lat="39.1919160" lon="-1.4867360">
        <ele>663.0</ele>
        <time>2019-05-11T09:18:01Z</time>
      </trkpt>
      <trkpt lat="39.1918430" lon="-1.4867090">
        <ele>662.8</ele>
        <time>2019-05-11T09:18:02Z</time>
      </trkpt>
      <trkpt lat="39.1917730" lon="-1.4866780">
        <ele>662.4</ele>
        <time>2019-05-11T09:18:03Z</time>
      </trkpt>
      <trkpt lat="39.1917050" lon="-1.4866410">
        <ele>662.0</ele>
        <time>2019-05-11T09:18:04Z</time>
      </trkpt>
      <trkpt lat="39.1916410" lon="-1.4865980">
        <ele>661.8</ele>
        <time>2019-05-11T09:18:05Z</time>
      </trkpt>
      <trkpt lat="39.1915800" lon="-1.4865510">
        <ele>661.8</ele>
        <time>2019-05-11T09:18:06Z</time>
      </trkpt>
      <trkpt lat="39.1915220" lon="-1.4865000">
        <ele>661.4</ele>
        <time>2019-05-11T09:18:07Z</time>
      </trkpt>
      <trkpt lat="39.1914630" lon="-1.4864470">
        <ele>661.2</ele>
        <time>2019-05-11T09:18:08Z</time>
      </trkpt>
      <trkpt lat="39.1914030" lon="-1.4863930">
        <ele>661.2</ele>
        <time>2019-05-11T09:18:09Z</time>
      </trkpt>
      <trkpt lat="39.1913400" lon="-1.4863430">
        <ele>661.0</ele>
        <time>2019-05-11T09:18:10Z</time>
      </trkpt>
      <trkpt lat="39.1912740" lon="-1.4862980">
        <ele>661.2</ele>
        <time>2019-05-11T09:18:11Z</time>
      </trkpt>
      <trkpt lat="39.1912060" lon="-1.4862570">
        <ele>661.0</ele>
        <time>2019-05-11T09:18:12Z</time>
      </trkpt>
      <trkpt lat="39.1911360" lon="-1.4862180">
        <ele>661.0</ele>
        <time>2019-05-11T09:18:13Z</time>
      </trkpt>
      <trkpt lat="39.1910660" lon="-1.4861800">
        <ele>660.8</ele>
        <time>2019-05-11T09:18:14Z</time>
      </trkpt>
      <trkpt lat="39.1909960" lon="-1.4861400">
        <ele>661.0</ele>
        <time>2019-05-11T09:18:15Z</time>
      </trkpt>
      <trkpt lat="39.1909260" lon="-1.4860990">
        <ele>661.0</ele>
        <time>2019-05-11T09:18:16Z</time>
      </trkpt>
      <trkpt lat="39.1908560" lon="-1.4860560">
        <ele>660.8</ele>
        <time>2019-05-11T09:18:17Z</time>
      </trkpt>
      <trkpt lat="39.1907870" lon="-1.4860140">
        <ele>660.8</ele>
        <time>2019-05-11T09:18:18Z</time>
      </trkpt>
      <trkpt lat="39.1907170" lon="-1.4859750">
        <ele>660.8</ele>
        <time>2019-05-11T09:18:19Z</time>
      </trkpt>
      <trkpt lat="39.1906480" lon="-1.4859360">
        <ele>660.6</ele>
        <time>2019-05-11T09:18:20Z</time>
      </trkpt>
      <trkpt lat="39.1905880" lon="-1.4858900">
        <ele>660.8</ele>
        <time>2019-05-11T09:18:21Z</time>
      </trkpt>
      <trkpt lat="39.1905440" lon="-1.4858340">
        <ele>660.6</ele>
        <time>2019-05-11T09:18:22Z</time>
      </trkpt>
      <trkpt lat="39.1905210" lon="-1.4857700">
        <ele>660.6</ele>
        <time>2019-05-11T09:18:23Z</time>
      </trkpt>
      <trkpt lat="39.1905150" lon="-1.4857030">
        <ele>660.4</ele>
        <time>2019-05-11T09:18:24Z</time>
      </trkpt>
      <trkpt lat="39.1905080" lon="-1.4856330">
        <ele>660.4</ele>
        <time>2019-05-11T09:18:25Z</time>
      </trkpt>
      <trkpt lat="39.1904900" lon="-1.4855640">
        <ele>660.2</ele>
        <time>2019-05-11T09:18:26Z</time>
      </trkpt>
      <trkpt lat="39.1904640" lon="-1.4855020">
        <ele>660.0</ele>
        <time>2019-05-11T09:18:27Z</time>
      </trkpt>
      <trkpt lat="39.1904360" lon="-1.4854510">
        <ele>659.6</ele>
        <time>2019-05-11T09:18:28Z</time>
      </trkpt>
      <trkpt lat="39.1904050" lon="-1.4854170">
        <ele>659.2</ele>
        <time>2019-05-11T09:18:29Z</time>
      </trkpt>
      <trkpt lat="39.1903770" lon="-1.4853830">
        <ele>658.8</ele>
        <time>2019-05-11T09:18:30Z</time>
      </trkpt>
      <trkpt lat="39.1903610" lon="-1.4853420">
        <ele>658.6</ele>
        <time>2019-05-11T09:18:31Z</time>
      </trkpt>
      <trkpt lat="39.1903530" lon="-1.4852990">
        <ele>658.6</ele>
        <time>2019-05-11T09:18:32Z</time>
      </trkpt>
      <trkpt lat="39.1903380" lon="-1.4852640">
        <ele>658.4</ele>
        <time>2019-05-11T09:18:33Z</time>
      </trkpt>
      <trkpt lat="39.1903150" lon="-1.4852400">
        <ele>658.4</ele>
        <time>2019-05-11T09:18:34Z</time>
      </trkpt>
      <trkpt lat="39.1902880" lon="-1.4852220">
        <ele>658.4</ele>
        <time>2019-05-11T09:18:35Z</time>
      </trkpt>
      <trkpt lat="39.1902570" lon="-1.4852060">
        <ele>658.2</ele>
        <time>2019-05-11T09:18:36Z</time>
      </trkpt>
      <trkpt lat="39.1902260" lon="-1.4851910">
        <ele>658.0</ele>
        <time>2019-05-11T09:18:37Z</time>
      </trkpt>
      <trkpt lat="39.1901990" lon="-1.4851750">
        <ele>657.8</ele>
        <time>2019-05-11T09:18:38Z</time>
      </trkpt>
      <trkpt lat="39.1901720" lon="-1.4851580">
        <ele>657.6</ele>
        <time>2019-05-11T09:18:39Z</time>
      </trkpt>
      <trkpt lat="39.1901410" lon="-1.4851400">
        <ele>657.2</ele>
        <time>2019-05-11T09:18:40Z</time>
      </trkpt>
      <trkpt lat="39.1901090" lon="-1.4851240">
        <ele>656.8</ele>
        <time>2019-05-11T09:18:41Z</time>
      </trkpt>
      <trkpt lat="39.1900750" lon="-1.4851120">
        <ele>656.4</ele>
        <time>2019-05-11T09:18:42Z</time>
      </trkpt>
      <trkpt lat="39.1900390" lon="-1.4851060">
        <ele>656.2</ele>
        <time>2019-05-11T09:18:43Z</time>
      </trkpt>
      <trkpt lat="39.1899990" lon="-1.4851050">
        <ele>655.8</ele>
        <time>2019-05-11T09:18:44Z</time>
      </trkpt>
      <trkpt lat="39.1899560" lon="-1.4850990">
        <ele>655.2</ele>
        <time>2019-05-11T09:18:45Z</time>
      </trkpt>
      <trkpt lat="39.1899150" lon="-1.4850810">
        <ele>655.0</ele>
        <time>2019-05-11T09:18:46Z</time>
      </trkpt>
      <trkpt lat="39.1898750" lon="-1.4850600">
        <ele>654.6</ele>
        <time>2019-05-11T09:18:47Z</time>
      </trkpt>
      <trkpt lat="39.1898370" lon="-1.4850310">
        <ele>653.8</ele>
        <time>2019-05-11T09:18:48Z</time>
      </trkpt>
      <trkpt lat="39.1898010" lon="-1.4849960">
        <ele>653.4</ele>
        <time>2019-05-11T09:18:49Z</time>
      </trkpt>
      <trkpt lat="39.1897710" lon="-1.4849520">
        <ele>653.0</ele>
        <time>2019-05-11T09:18:50Z</time>
      </trkpt>
      <trkpt lat="39.1897480" lon="-1.4848990">
        <ele>652.6</ele>
        <time>2019-05-11T09:18:51Z</time>
      </trkpt>
      <trkpt lat="39.1897210" lon="-1.4848410">
        <ele>652.4</ele>
        <time>2019-05-11T09:18:52Z</time>
      </trkpt>
      <trkpt lat="39.1896880" lon="-1.4847860">
        <ele>652.0</ele>
        <time>2019-05-11T09:18:53Z</time>
      </trkpt>
      <trkpt lat="39.1896590" lon="-1.4847290">
        <ele>651.8</ele>
        <time>2019-05-11T09:18:54Z</time>
      </trkpt>
      <trkpt lat="39.1896340" lon="-1.4846680">
        <ele>651.8</ele>
        <time>2019-05-11T09:18:55Z</time>
      </trkpt>
      <trkpt lat="39.1896120" lon="-1.4846080">
        <ele>651.6</ele>
        <time>2019-05-11T09:18:56Z</time>
      </trkpt>
      <trkpt lat="39.1895900" lon="-1.4845570">
        <ele>651.6</ele>
        <time>2019-05-11T09:18:57Z</time>
      </trkpt>
      <trkpt lat="39.1895690" lon="-1.4845140">
        <ele>651.4</ele>
        <time>2019-05-11T09:18:58Z</time>
      </trkpt>
      <trkpt lat="39.1895490" lon="-1.4844740">
        <ele>651.0</ele>
        <time>2019-05-11T09:18:59Z</time>
      </trkpt>
      <trkpt lat="39.1895280" lon="-1.4844330">
        <ele>650.8</ele>
        <time>2019-05-11T09:19:00Z</time>
      </trkpt>
      <trkpt lat="39.1895090" lon="-1.4843900">
        <ele>650.6</ele>
        <time>2019-05-11T09:19:01Z</time>
      </trkpt>
      <trkpt lat="39.1894850" lon="-1.4843500">
        <ele>650.4</ele>
        <time>2019-05-11T09:19:02Z</time>
      </trkpt>
      <trkpt lat="39.1894510" lon="-1.4843160">
        <ele>650.0</ele>
        <time>2019-05-11T09:19:03Z</time>
      </trkpt>
      <trkpt lat="39.1894130" lon="-1.4842770">
        <ele>649.6</ele>
        <time>2019-05-11T09:19:04Z</time>
      </trkpt>
      <trkpt lat="39.1893710" lon="-1.4842320">
        <ele>649.4</ele>
        <time>2019-05-11T09:19:05Z</time>
      </trkpt>
      <trkpt lat="39.1893240" lon="-1.4841920">
        <ele>649.0</ele>
        <time>2019-05-11T09:19:06Z</time>
      </trkpt>
      <trkpt lat="39.1892800" lon="-1.4841540">
        <ele>648.6</ele>
        <time>2019-05-11T09:19:07Z</time>
      </trkpt>
      <trkpt lat="39.1892410" lon="-1.4841140">
        <ele>648.2</ele>
        <time>2019-05-11T09:19:08Z</time>
      </trkpt>
      <trkpt lat="39.1891980" lon="-1.4840670">
        <ele>647.4</ele>
        <time>2019-05-11T09:19:09Z</time>
      </trkpt>
      <trkpt lat="39.1891500" lon="-1.4840140">
        <ele>646.8</ele>
        <time>2019-05-11T09:19:10Z</time>
      </trkpt>
      <trkpt lat="39.1891010" lon="-1.4839570">
        <ele>646.2</ele>
        <time>2019-05-11T09:19:11Z</time>
      </trkpt>
      <trkpt lat="39.1890510" lon="-1.4839010">
        <ele>645.8</ele>
        <time>2019-05-11T09:19:12Z</time>
      </trkpt>
      <trkpt lat="39.1890000" lon="-1.4838450">
        <ele>645.2</ele>
        <time>2019-05-11T09:19:13Z</time>
      </trkpt>
      <trkpt lat="39.1889550" lon="-1.4837920">
        <ele>644.6</ele>
        <time>2019-05-11T09:19:14Z</time>
      </trkpt>
      <trkpt lat="39.1889150" lon="-1.4837440">
        <ele>643.8</ele>
        <time>2019-05-11T09:19:15Z</time>
      </trkpt>
      <trkpt lat="39.1888770" lon="-1.4837050">
        <ele>643.2</ele>
        <time>2019-05-11T09:19:16Z</time>
      </trkpt>
      <trkpt lat="39.1888510" lon="-1.4836750">
        <ele>642.6</ele>
        <time>2019-05-11T09:19:17Z</time>
      </trkpt>
      <trkpt lat="39.1888340" lon="-1.4836510">
        <ele>642.0</ele>
        <time>2019-05-11T09:19:18Z</time>
      </trkpt>
      <trkpt lat="39.1888180" lon="-1.4836340">
        <ele>641.4</ele>
        <time>2019-05-11T09:19:19Z</time>
      </trkpt>
      <trkpt lat="39.1887990" lon="-1.4836150">
        <ele>640.8</ele>
        <time>2019-05-11T09:19:20Z</time>
      </trkpt>
      <trkpt lat="39.1887780" lon="-1.4835970">
        <ele>640.4</ele>
        <time>2019-05-11T09:19:21Z</time>
      </trkpt>
      <trkpt lat="39.1887550" lon="-1.4835850">
        <ele>640.0</ele>
        <time>2019-05-11T09:19:22Z</time>
      </trkpt>
      <trkpt lat="39.1887340" lon="-1.4835710">
        <ele>639.6</ele>
        <time>2019-05-11T09:19:23Z</time>
      </trkpt>
      <trkpt lat="39.1887200" lon="-1.4835520">
        <ele>639.4</ele>
        <time>2019-05-11T09:19:24Z</time>
      </trkpt>
      <trkpt lat="39.1887080" lon="-1.4835280">
        <ele>639.2</ele>
        <time>2019-05-11T09:19:25Z</time>
      </trkpt>
      <trkpt lat="39.1886960" lon="-1.4834980">
        <ele>639.0</ele>
        <time>2019-05-11T09:19:26Z</time>
      </trkpt>
      <trkpt lat="39.1886910" lon="-1.4834610">
        <ele>638.8</ele>
        <time>2019-05-11T09:19:27Z</time>
      </trkpt>
      <trkpt lat="39.1886840" lon="-1.4834220">
        <ele>638.6</ele>
        <time>2019-05-11T09:19:28Z</time>
      </trkpt>
      <trkpt lat="39.1886700" lon="-1.4833820">
        <ele>638.6</ele>
        <time>2019-05-11T09:19:29Z</time>
      </trkpt>
      <trkpt lat="39.1886510" lon="-1.4833460">
        <ele>638.4</ele>
        <time>2019-05-11T09:19:30Z</time>
      </trkpt>
      <trkpt lat="39.1886340" lon="-1.4833100">
        <ele>638.4</ele>
        <time>2019-05-11T09:19:31Z</time>
      </trkpt>
      <trkpt lat="39.1886220" lon="-1.4832760">
        <ele>638.4</ele>
        <time>2019-05-11T09:19:32Z</time>
      </trkpt>
      <trkpt lat="39.1886170" lon="-1.4832390">
        <ele>638.2</ele>
        <time>2019-05-11T09:19:33Z</time>
      </trkpt>
      <trkpt lat="39.1886090" lon="-1.4831930">
        <ele>638.2</ele>
        <time>2019-05-11T09:19:34Z</time>
      </trkpt>
      <trkpt lat="39.1885970" lon="-1.4831430">
        <ele>638.0</ele>
        <time>2019-05-11T09:19:35Z</time>
      </trkpt>
      <trkpt lat="39.1885850" lon="-1.4830900">
        <ele>638.0</ele>
        <time>2019-05-11T09:19:36Z</time>
      </trkpt>
      <trkpt lat="39.1885750" lon="-1.4830310">
        <ele>637.8</ele>
        <time>2019-05-11T09:19:37Z</time>
      </trkpt>
      <trkpt lat="39.1885650" lon="-1.4829680">
        <ele>637.6</ele>
        <time>2019-05-11T09:19:38Z</time>
      </trkpt>
      <trkpt lat="39.1885500" lon="-1.4829040">
        <ele>637.6</ele>
        <time>2019-05-11T09:19:39Z</time>
      </trkpt>
      <trkpt lat="39.1885330" lon="-1.4828390">
        <ele>637.6</ele>
        <time>2019-05-11T09:19:40Z</time>
      </trkpt>
      <trkpt lat="39.1885140" lon="-1.4827730">
        <ele>637.4</ele>
        <time>2019-05-11T09:19:41Z</time>
      </trkpt>
      <trkpt lat="39.1884960" lon="-1.4827020">
        <ele>637.2</ele>
        <time>2019-05-11T09:19:42Z</time>
      </trkpt>
      <trkpt lat="39.1884780" lon="-1.4826240">
        <ele>637.0</ele>
        <time>2019-05-11T09:19:43Z</time>
      </trkpt>
      <trkpt lat="39.1884560" lon="-1.4825430">
        <ele>637.0</ele>
        <time>2019-05-11T09:19:44Z</time>
      </trkpt>
      <trkpt lat="39.1884340" lon="-1.4824680">
        <ele>636.8</ele>
        <time>2019-05-11T09:19:45Z</time>
      </trkpt>
      <trkpt lat="39.1884210" lon="-1.4823960">
        <ele>636.4</ele>
        <time>2019-05-11T09:19:46Z</time>
      </trkpt>
      <trkpt lat="39.1884110" lon="-1.4823310">
        <ele>636.2</ele>
        <time>2019-05-11T09:19:47Z</time>
      </trkpt>
      <trkpt lat="39.1884100" lon="-1.4822690">
        <ele>636.0</ele>
        <time>2019-05-11T09:19:48Z</time>
      </trkpt>
      <trkpt lat="39.1884090" lon="-1.4822080">
        <ele>635.6</ele>
        <time>2019-05-11T09:19:49Z</time>
      </trkpt>
      <trkpt lat="39.1883990" lon="-1.4821490">
        <ele>635.4</ele>
        <time>2019-05-11T09:19:50Z</time>
      </trkpt>
      <trkpt lat="39.1883820" lon="-1.4820910">
        <ele>635.0</ele>
        <time>2019-05-11T09:19:51Z</time>
      </trkpt>
      <trkpt lat="39.1883620" lon="-1.4820350">
        <ele>634.4</ele>
        <time>2019-05-11T09:19:52Z</time>
      </trkpt>
      <trkpt lat="39.1883500" lon="-1.4819790">
        <ele>633.8</ele>
        <time>2019-05-11T09:19:53Z</time>
      </trkpt>
      <trkpt lat="39.1883380" lon="-1.4819230">
        <ele>633.0</ele>
        <time>2019-05-11T09:19:54Z</time>
      </trkpt>
      <trkpt lat="39.1883230" lon="-1.4818640">
        <ele>632.6</ele>
        <time>2019-05-11T09:19:55Z</time>
      </trkpt>
      <trkpt lat="39.1883090" lon="-1.4818070">
        <ele>632.2</ele>
        <time>2019-05-11T09:19:56Z</time>
      </trkpt>
      <trkpt lat="39.1883050" lon="-1.4817500">
        <ele>631.8</ele>
        <time>2019-05-11T09:19:57Z</time>
      </trkpt>
      <trkpt lat="39.1883120" lon="-1.4816880">
        <ele>631.4</ele>
        <time>2019-05-11T09:19:58Z</time>
      </trkpt>
      <trkpt lat="39.1883210" lon="-1.4816180">
        <ele>631.2</ele>
        <time>2019-05-11T09:19:59Z</time>
      </trkpt>
      <trkpt lat="39.1883300" lon="-1.4815460">
        <ele>631.0</ele>
        <time>2019-05-11T09:20:00Z</time>
      </trkpt>
      <trkpt lat="39.1883340" lon="-1.4814770">
        <ele>630.8</ele>
        <time>2019-05-11T09:20:01Z</time>
      </trkpt>
      <trkpt lat="39.1883270" lon="-1.4814170">
        <ele>630.6</ele>
        <time>2019-05-11T09:20:02Z</time>
      </trkpt>
      <trkpt lat="39.1883210" lon="-1.4813680">
        <ele>630.6</ele>
        <time>2019-05-11T09:20:03Z</time>
      </trkpt>
      <trkpt lat="39.1883270" lon="-1.4813180">
        <ele>630.2</ele>
        <time>2019-05-11T09:20:04Z</time>
      </trkpt>
      <trkpt lat="39.1883370" lon="-1.4812630">
        <ele>629.8</ele>
        <time>2019-05-11T09:20:05Z</time>
      </trkpt>
      <trkpt lat="39.1883370" lon="-1.4812050">
        <ele>629.2</ele>
        <time>2019-05-11T09:20:06Z</time>
      </trkpt>
      <trkpt lat="39.1883320" lon="-1.4811570">
        <ele>628.8</ele>
        <time>2019-05-11T09:20:07Z</time>
      </trkpt>
      <trkpt lat="39.1883260" lon="-1.4811130">
        <ele>628.0</ele>
        <time>2019-05-11T09:20:08Z</time>
      </trkpt>
      <trkpt lat="39.1883390" lon="-1.4810700">
        <ele>627.4</ele>
        <time>2019-05-11T09:20:09Z</time>
      </trkpt>
      <trkpt lat="39.1883600" lon="-1.4810240">
        <ele>627.0</ele>
        <time>2019-05-11T09:20:10Z</time>
      </trkpt>
      <trkpt lat="39.1883840" lon="-1.4809690">
        <ele>626.6</ele>
        <time>2019-05-11T09:20:11Z</time>
      </trkpt>
      <trkpt lat="39.1884080" lon="-1.4809060">
        <ele>626.2</ele>
        <time>2019-05-11T09:20:12Z</time>
      </trkpt>
      <trkpt lat="39.1884320" lon="-1.4808410">
        <ele>625.6</ele>
        <time>2019-05-11T09:20:13Z</time>
      </trkpt>
      <trkpt lat="39.1884550" lon="-1.4807810">
        <ele>625.2</ele>
        <time>2019-05-11T09:20:14Z</time>
      </trkpt>
      <trkpt lat="39.1884830" lon="-1.4807280">
        <ele>625.0</ele>
        <time>2019-05-11T09:20:15Z</time>
      </trkpt>
      <trkpt lat="39.1885160" lon="-1.4806720">
        <ele>624.8</ele>
        <time>2019-05-11T09:20:16Z</time>
      </trkpt>
      <trkpt lat="39.1885430" lon="-1.4806080">
        <ele>624.6</ele>
        <time>2019-05-11T09:20:17Z</time>
      </trkpt>
      <trkpt lat="39.1885690" lon="-1.4805450">
        <ele>624.0</ele>
        <time>2019-05-11T09:20:18Z</time>
      </trkpt>
      <trkpt lat="39.1886000" lon="-1.4804880">
        <ele>623.6</ele>
        <time>2019-05-11T09:20:19Z</time>
      </trkpt>
      <trkpt lat="39.1886310" lon="-1.4804300">
        <ele>623.0</ele>
        <time>2019-05-11T09:20:20Z</time>
      </trkpt>
      <trkpt lat="39.1886590" lon="-1.4803720">
        <ele>622.6</ele>
        <time>2019-05-11T09:20:21Z</time>
      </trkpt>
      <trkpt lat="39.1886770" lon="-1.4803140">
        <ele>622.2</ele>
        <time>2019-05-11T09:20:22Z</time>
      </trkpt>
      <trkpt lat="39.1886920" lon="-1.4802610">
        <ele>621.6</ele>
        <time>2019-05-11T09:20:23Z</time>
      </trkpt>
      <trkpt lat="39.1887100" lon="-1.4802160">
        <ele>621.0</ele>
        <time>2019-05-11T09:20:24Z</time>
      </trkpt>
      <trkpt lat="39.1887320" lon="-1.4801690">
        <ele>620.6</ele>
        <time>2019-05-11T09:20:25Z</time>
      </trkpt>
      <trkpt lat="39.1887550" lon="-1.4801170">
        <ele>620.2</ele>
        <time>2019-05-11T09:20:26Z</time>
      </trkpt>
      <trkpt lat="39.1887760" lon="-1.4800650">
        <ele>619.6</ele>
        <time>2019-05-11T09:20:27Z</time>
      </trkpt>
      <trkpt lat="39.1887980" lon="-1.4800180">
        <ele>619.0</ele>
        <time>2019-05-11T09:20:28Z</time>
      </trkpt>
      <trkpt lat="39.1888140" lon="-1.4799720">
        <ele>618.4</ele>
        <time>2019-05-11T09:20:29Z</time>
      </trkpt>
      <trkpt lat="39.1888240" lon="-1.4799270">
        <ele>617.6</ele>
        <time>2019-05-11T09:20:30Z</time>
      </trkpt>
      <trkpt lat="39.1888290" lon="-1.4798810">
        <ele>617.0</ele>
        <time>2019-05-11T09:20:31Z</time>
      </trkpt>
      <trkpt lat="39.1888340" lon="-1.4798290">
        <ele>616.6</ele>
        <time>2019-05-11T09:20:32Z</time>
      </trkpt>
      <trkpt lat="39.1888390" lon="-1.4797830">
        <ele>616.0</ele>
        <time>2019-05-11T09:20:33Z</time>
      </trkpt>
      <trkpt lat="39.1888510" lon="-1.4797460">
        <ele>615.4</ele>
        <time>2019-05-11T09:20:34Z</time>
      </trkpt>
      <trkpt lat="39.1888620" lon="-1.4797110">
        <ele>614.8</ele>
        <time>2019-05-11T09:20:35Z</time>
      </trkpt>
      <trkpt lat="39.1888690" lon="-1.4796710">
        <ele>614.0</ele>
        <time>2019-05-11T09:20:36Z</time>
      </trkpt>
      <trkpt lat="39.1888660" lon="-1.4796300">
        <ele>613.0</ele>
        <time>2019-05-11T09:20:37Z</time>
      </trkpt>
      <trkpt lat="39.1888570" lon="-1.4795870">
        <ele>612.2</ele>
        <time>2019-05-11T09:20:38Z</time>
      </trkpt>
      <trkpt lat="39.1888420" lon="-1.4795460">
        <ele>611.6</ele>
        <time>2019-05-11T09:20:39Z</time>
      </trkpt>
      <trkpt lat="39.1888160" lon="-1.4795040">
        <ele>611.2</ele>
        <time>2019-05-11T09:20:40Z</time>
      </trkpt>
      <trkpt lat="39.1887820" lon="-1.4794670">
        <ele>610.6</ele>
        <time>2019-05-11T09:20:41Z</time>
      </trkpt>
      <trkpt lat="39.1887490" lon="-1.4794370">
        <ele>610.0</ele>
        <time>2019-05-11T09:20:42Z</time>
      </trkpt>
      <trkpt lat="39.1887180" lon="-1.4794110">
        <ele>609.2</ele>
        <time>2019-05-11T09:20:43Z</time>
      </trkpt>
      <trkpt lat="39.1886890" lon="-1.4793910">
        <ele>608.8</ele>
        <time>2019-05-11T09:20:44Z</time>
      </trkpt>
      <trkpt lat="39.1886570" lon="-1.4793790">
        <ele>608.2</ele>
        <time>2019-05-11T09:20:45Z</time>
      </trkpt>
      <trkpt lat="39.1886180" lon="-1.4793710">
        <ele>607.8</ele>
        <time>2019-05-11T09:20:46Z</time>
      </trkpt>
      <trkpt lat="39.1885780" lon="-1.4793650">
        <ele>607.0</ele>
        <time>2019-05-11T09:20:47Z</time>
      </trkpt>
      <trkpt lat="39.1885440" lon="-1.4793550">
        <ele>606.0</ele>
        <time>2019-05-11T09:20:48Z</time>
      </trkpt>
      <trkpt lat="39.1885140" lon="-1.4793470">
        <ele>605.6</ele>
        <time>2019-05-11T09:20:49Z</time>
      </trkpt>
      <trkpt lat="39.1884840" lon="-1.4793520">
        <ele>605.0</ele>
        <time>2019-05-11T09:20:50Z</time>
      </trkpt>
      <trkpt lat="39.1884530" lon="-1.4793600">
        <ele>604.4</ele>
        <time>2019-05-11T09:20:51Z</time>
      </trkpt>
      <trkpt lat="39.1884240" lon="-1.4793600">
        <ele>604.2</ele>
        <time>2019-05-11T09:20:52Z</time>
      </trkpt>
      <trkpt lat="39.1883920" lon="-1.4793520">
        <ele>604.0</ele>
        <time>2019-05-11T09:20:53Z</time>
      </trkpt>
      <trkpt lat="39.1883540" lon="-1.4793430">
        <ele>603.6</ele>
        <time>2019-05-11T09:20:54Z</time>
      </trkpt>
      <trkpt lat="39.1883230" lon="-1.4793180">
        <ele>603.2</ele>
        <time>2019-05-11T09:20:55Z</time>
      </trkpt>
      <trkpt lat="39.1883080" lon="-1.4792790">
        <ele>602.8</ele>
        <time>2019-05-11T09:20:56Z</time>
      </trkpt>
      <trkpt lat="39.1883070" lon="-1.4792250">
        <ele>602.4</ele>
        <time>2019-05-11T09:20:57Z</time>
      </trkpt>
      <trkpt lat="39.1883120" lon="-1.4791690">
        <ele>602.0</ele>
        <time>2019-05-11T09:20:58Z</time>
      </trkpt>
      <trkpt lat="39.1883150" lon="-1.4791120">
        <ele>601.8</ele>
        <time>2019-05-11T09:20:59Z</time>
      </trkpt>
      <trkpt lat="39.1883080" lon="-1.4790500">
        <ele>601.6</ele>
        <time>2019-05-11T09:21:00Z</time>
      </trkpt>
      <trkpt lat="39.1882900" lon="-1.4789840">
        <ele>601.4</ele>
        <time>2019-05-11T09:21:01Z</time>
      </trkpt>
      <trkpt lat="39.1882660" lon="-1.4789150">
        <ele>601.2</ele>
        <time>2019-05-11T09:21:02Z</time>
      </trkpt>
      <trkpt lat="39.1882380" lon="-1.4788480">
        <ele>600.8</ele>
        <time>2019-05-11T09:21:03Z</time>
      </trkpt>
      <trkpt lat="39.1882080" lon="-1.4787920">
        <ele>600.4</ele>
        <time>2019-05-11T09:21:04Z</time>
      </trkpt>
      <trkpt lat="39.1881780" lon="-1.4787460">
        <ele>600.0</ele>
        <time>2019-05-11T09:21:05Z</time>
      </trkpt>
      <trkpt lat="39.1881510" lon="-1.4787040">
        <ele>599.4</ele>
        <time>2019-05-11T09:21:06Z</time>
      </trkpt>
      <trkpt lat="39.1881230" lon="-1.4786630">
        <ele>599.0</ele>
        <time>2019-05-11T09:21:07Z</time>
      </trkpt>
      <trkpt lat="39.1880910" lon="-1.4786230">
        <ele>598.6</ele>
        <time>2019-05-11T09:21:08Z</time>
      </trkpt>
      <trkpt lat="39.1880560" lon="-1.4785900">
        <ele>598.4</ele>
        <time>2019-05-11T09:21:09Z</time>
      </trkpt>
      <trkpt lat="39.1880210" lon="-1.4785600">
        <ele>598.0</ele>
        <time>2019-05-11T09:21:10Z</time>
      </trkpt>
      <trkpt lat="39.1879820" lon="-1.4785360">
        <ele>597.4</ele>
        <time>2019-05-11T09:21:11Z</time>
      </trkpt>
      <trkpt lat="39.1879420" lon="-1.4785110">
        <ele>596.6</ele>
        <time>2019-05-11T09:21:12Z</time>
      </trkpt>
      <trkpt lat="39.1879060" lon="-1.4784750">
        <ele>595.8</ele>
        <time>2019-05-11T09:21:13Z</time>
      </trkpt>
      <trkpt lat="39.1878680" lon="-1.4784340">
        <ele>595.0</ele>
        <time>2019-05-11T09:21:14Z</time>
      </trkpt>
      <trkpt lat="39.1878260" lon="-1.4784020">
        <ele>594.4</ele>
        <time>2019-05-11T09:21:15Z</time>
      </trkpt>
      <trkpt lat="39.1877810" lon="-1.4783840">
        <ele>593.8</ele>
        <time>2019-05-11T09:21:16Z</time>
      </trkpt>
      <trkpt lat="39.1877360" lon="-1.4783700">
        <ele>593.0</ele>
        <time>2019-05-11T09:21:17Z</time>
      </trkpt>
      <trkpt lat="39.1876940" lon="-1.4783440">
        <ele>592.4</ele>
        <time>2019-05-11T09:21:18Z</time>
      </trkpt>
      <trkpt lat="39.1876510" lon="-1.4783010">
        <ele>592.2</ele>
        <time>2019-05-11T09:21:19Z</time>
      </trkpt>
      <trkpt lat="39.1876090" lon="-1.4782600">
        <ele>592.0</ele>
        <time>2019-05-11T09:21:20Z</time>
      </trkpt>
      <trkpt lat="39.1875700" lon="-1.4782270">
        <ele>591.4</ele>
        <time>2019-05-11T09:21:21Z</time>
      </trkpt>
      <trkpt lat="39.1875290" lon="-1.4782080">
        <ele>590.2</ele>
        <time>2019-05-11T09:21:22Z</time>
      </trkpt>
      <trkpt lat="39.1874880" lon="-1.4781920">
        <ele>589.8</ele>
        <time>2019-05-11T09:21:23Z</time>
      </trkpt>
      <trkpt lat="39.1874530" lon="-1.4781760">
        <ele>589.2</ele>
        <time>2019-05-11T09:21:24Z</time>
      </trkpt>
      <trkpt lat="39.1874210" lon="-1.4781580">
        <ele>588.8</ele>
        <time>2019-05-11T09:21:25Z</time>
      </trkpt>
      <trkpt lat="39.1873880" lon="-1.4781350">
        <ele>588.0</ele>
        <time>2019-05-11T09:21:26Z</time>
      </trkpt>
      <trkpt lat="39.1873530" lon="-1.4781100">
        <ele>587.0</ele>
        <time>2019-05-11T09:21:27Z</time>
      </trkpt>
      <trkpt lat="39.1873170" lon="-1.4780750">
        <ele>586.2</ele>
        <time>2019-05-11T09:21:28Z</time>
      </trkpt>
      <trkpt lat="39.1872850" lon="-1.4780300">
        <ele>585.6</ele>
        <time>2019-05-11T09:21:29Z</time>
      </trkpt>
      <trkpt lat="39.1872640" lon="-1.4779820">
        <ele>585.2</ele>
        <time>2019-05-11T09:21:30Z</time>
      </trkpt>
      <trkpt lat="39.1872420" lon="-1.4779360">
        <ele>584.4</ele>
        <time>2019-05-11T09:21:31Z</time>
      </trkpt>
      <trkpt lat="39.1872140" lon="-1.4778960">
        <ele>583.4</ele>
        <time>2019-05-11T09:21:32Z</time>
      </trkpt>
      <trkpt lat="39.1871800" lon="-1.4778520">
        <ele>582.8</ele>
        <time>2019-05-11T09:21:33Z</time>
      </trkpt>
      <trkpt lat="39.1871460" lon="-1.4778040">
        <ele>582.0</ele>
        <time>2019-05-11T09:21:34Z</time>
      </trkpt>
      <trkpt lat="39.1871090" lon="-1.4777600">
        <ele>581.6</ele>
        <time>2019-05-11T09:21:35Z</time>
      </trkpt>
      <trkpt lat="39.1870740" lon="-1.4777130">
        <ele>581.0</ele>
        <time>2019-05-11T09:21:36Z</time>
      </trkpt>
      <trkpt lat="39.1870410" lon="-1.4776560">
        <ele>580.4</ele>
        <time>2019-05-11T09:21:37Z</time>
      </trkpt>
      <trkpt lat="39.1870090" lon="-1.4776060">
        <ele>579.6</ele>
        <time>2019-05-11T09:21:38Z</time>
      </trkpt>
      <trkpt lat="39.1869810" lon="-1.4775560">
        <ele>578.8</ele>
        <time>2019-05-11T09:21:39Z</time>
      </trkpt>
      <trkpt lat="39.1869620" lon="-1.4775060">
        <ele>578.0</ele>
        <time>2019-05-11T09:21:40Z</time>
      </trkpt>
      <trkpt lat="39.1869430" lon="-1.4774590">
        <ele>577.6</ele>
        <time>2019-05-11T09:21:41Z</time>
      </trkpt>
      <trkpt lat="39.1869200" lon="-1.4774160">
        <ele>577.2</ele>
        <time>2019-05-11T09:21:42Z</time>
      </trkpt>
      <trkpt lat="39.1868880" lon="-1.4773740">
        <ele>576.6</ele>
        <time>2019-05-11T09:21:43Z</time>
      </trkpt>
      <trkpt lat="39.1868550" lon="-1.4773340">
        <ele>576.0</ele>
        <time>2019-05-11T09:21:44Z</time>
      </trkpt>
      <trkpt lat="39.1868080" lon="-1.4772980">
        <ele>575.6</ele>
        <time>2019-05-11T09:21:45Z</time>
      </trkpt>
      <trkpt lat="39.1867480" lon="-1.4772590">
        <ele>575.0</ele>
        <time>2019-05-11T09:21:46Z</time>
      </trkpt>
      <trkpt lat="39.1866860" lon="-1.4772090">
        <ele>574.4</ele>
        <time>2019-05-11T09:21:47Z</time>
      </trkpt>
      <trkpt lat="39.1866290" lon="-1.4771500">
        <ele>574.0</ele>
        <time>2019-05-11T09:21:48Z</time>
      </trkpt>
      <trkpt lat="39.1865840" lon="-1.4770770">
        <ele>573.4</ele>
        <time>2019-05-11T09:21:49Z</time>
      </trkpt>
      <trkpt lat="39.1865520" lon="-1.4769920">
        <ele>573.0</ele>
        <time>2019-05-11T09:21:50Z</time>
      </trkpt>
      <trkpt lat="39.1865310" lon="-1.4768980">
        <ele>572.2</ele>
        <time>2019-05-11T09:21:51Z</time>
      </trkpt>
      <trkpt lat="39.1865200" lon="-1.4768050">
        <ele>571.2</ele>
        <time>2019-05-11T09:21:52Z</time>
      </trkpt>
      <trkpt lat="39.1865080" lon="-1.4767230">
        <ele>570.2</ele>
        <time>2019-05-11T09:21:53Z</time>
      </trkpt>
      <trkpt lat="39.1864950" lon="-1.4766560">
        <ele>569.2</ele>
        <time>2019-05-11T09:21:54Z</time>
      </trkpt>
      <trkpt lat="39.1864850" lon="-1.4766030">
        <ele>568.6</ele>
        <time>2019-05-11T09:21:55Z</time>
      </trkpt>
      <trkpt lat="39.1864640" lon="-1.4765560">
        <ele>567.8</ele>
        <time>2019-05-11T09:21:56Z</time>
      </trkpt>
      <trkpt lat="39.1864370" lon="-1.4765090">
        <ele>566.2</ele>
        <time>2019-05-11T09:21:57Z</time>
      </trkpt>
      <trkpt lat="39.1864080" lon="-1.4764620">
        <ele>565.8</ele>
        <time>2019-05-11T09:21:58Z</time>
      </trkpt>
      <trkpt lat="39.1863830" lon="-1.4764230">
        <ele>565.2</ele>
        <time>2019-05-11T09:21:59Z</time>
      </trkpt>
      <trkpt lat="39.1863590" lon="-1.4763950">
        <ele>564.8</ele>
        <time>2019-05-11T09:22:00Z</time>
      </trkpt>
      <trkpt lat="39.1863280" lon="-1.4763790">
        <ele>564.2</ele>
        <time>2019-05-11T09:22:01Z</time>
      </trkpt>
      <trkpt lat="39.1862870" lon="-1.4763720">
        <ele>563.6</ele>
        <time>2019-05-11T09:22:02Z</time>
      </trkpt>
      <trkpt lat="39.1862440" lon="-1.4763710">
        <ele>563.2</ele>
        <time>2019-05-11T09:22:03Z</time>
      </trkpt>
      <trkpt lat="39.1862010" lon="-1.4763690">
        <ele>562.6</ele>
        <time>2019-05-11T09:22:04Z</time>
      </trkpt>
      <trkpt lat="39.1861580" lon="-1.4763630">
        <ele>562.2</ele>
        <time>2019-05-11T09:22:05Z</time>
      </trkpt>
      <trkpt lat="39.1861170" lon="-1.4763580">
        <ele>561.4</ele>
        <time>2019-05-11T09:22:06Z</time>
      </trkpt>
      <trkpt lat="39.1860790" lon="-1.4763590">
        <ele>560.8</ele>
        <time>2019-05-11T09:22:07Z</time>
      </trkpt>
      <trkpt lat="39.1860410" lon="-1.4763660">
        <ele>560.4</ele>
        <time>2019-05-11T09:22:08Z</time>
      </trkpt>
      <trkpt lat="39.1860060" lon="-1.4763830">
        <ele>559.8</ele>
        <time>2019-05-11T09:22:09Z</time>
      </trkpt>
      <trkpt lat="39.1859730" lon="-1.4764150">
        <ele>559.4</ele>
        <time>2019-05-11T09:22:10Z</time>
      </trkpt>
      <trkpt lat="39.1859400" lon="-1.4764540">
        <ele>558.8</ele>
        <time>2019-05-11T09:22:11Z</time>
      </trkpt>
      <trkpt lat="39.1859040" lon="-1.4764860">
        <ele>557.8</ele>
        <time>2019-05-11T09:22:12Z</time>
      </trkpt>
      <trkpt lat="39.1858600" lon="-1.4765080">
        <ele>556.8</ele>
        <time>2019-05-11T09:22:13Z</time>
      </trkpt>
      <trkpt lat="39.1858100" lon="-1.4765290">
        <ele>555.6</ele>
        <time>2019-05-11T09:22:14Z</time>
      </trkpt>
      <trkpt lat="39.1857590" lon="-1.4765420">
        <ele>554.8</ele>
        <time>2019-05-11T09:22:15Z</time>
      </trkpt>
      <trkpt lat="39.1857050" lon="-1.4765370">
        <ele>554.0</ele>
        <time>2019-05-11T09:22:16Z</time>
      </trkpt>
      <trkpt lat="39.1856460" lon="-1.4765320">
        <ele>553.4</ele>
        <time>2019-05-11T09:22:17Z</time>
      </trkpt>
      <trkpt lat="39.1855880" lon="-1.4765470">
        <ele>552.8</ele>
        <time>2019-05-11T09:22:18Z</time>
      </trkpt>
      <trkpt lat="39.1855430" lon="-1.4765800">
        <ele>552.6</ele>
        <time>2019-05-11T09:22:19Z</time>
      </trkpt>
      <trkpt lat="39.1855060" lon="-1.4766240">
        <ele>552.0</ele>
        <time>2019-05-11T09:22:20Z</time>
      </trkpt>
      <trkpt lat="39.1854770" lon="-1.4766720">
        <ele>551.4</ele>
        <time>2019-05-11T09:22:21Z</time>
      </trkpt>
      <trkpt lat="39.1854500" lon="-1.4767220">
        <ele>550.4</ele>
        <time>2019-05-11T09:22:22Z</time>
      </trkpt>
      <trkpt lat="39.1854210" lon="-1.4767680">
        <ele>549.4</ele>
        <time>2019-05-11T09:22:23Z</time>
      </trkpt>
      <trkpt lat="39.1853900" lon="-1.4768130">
        <ele>548.6</ele>
        <time>2019-05-11T09:22:24Z</time>
      </trkpt>
      <trkpt lat="39.1853580" lon="-1.4768600">
        <ele>547.8</ele>
        <time>2019-05-11T09:22:25Z</time>
      </trkpt>
      <trkpt lat="39.1853250" lon="-1.4769080">
        <ele>547.6</ele>
        <time>2019-05-11T09:22:26Z</time>
      </trkpt>
      <trkpt lat="39.1852920" lon="-1.4769600">
        <ele>547.4</ele>
        <time>2019-05-11T09:22:27Z</time>
      </trkpt>
      <trkpt lat="39.1852570" lon="-1.4770150">
        <ele>547.2</ele>
        <time>2019-05-11T09:22:28Z</time>
      </trkpt>
      <trkpt lat="39.1852210" lon="-1.4770730">
        <ele>547.0</ele>
        <time>2019-05-11T09:22:29Z</time>
      </trkpt>
      <trkpt lat="39.1851860" lon="-1.4771380">
        <ele>547.0</ele>
        <time>2019-05-11T09:22:30Z</time>
      </trkpt>
      <trkpt lat="39.1851480" lon="-1.4772090">
        <ele>546.8</ele>
        <time>2019-05-11T09:22:31Z</time>
      </trkpt>
      <trkpt lat="39.1851140" lon="-1.4772840">
        <ele>546.8</ele>
        <time>2019-05-11T09:22:32Z</time>
      </trkpt>
      <trkpt lat="39.1850690" lon="-1.4773660">
        <ele>546.6</ele>
        <time>2019-05-11T09:22:33Z</time>
      </trkpt>
      <trkpt lat="39.1850220" lon="-1.4774520">
        <ele>546.6</ele>
        <time>2019-05-11T09:22:34Z</time>
      </trkpt>
      <trkpt lat="39.1849750" lon="-1.4775400">
        <ele>546.4</ele>
        <time>2019-05-11T09:22:35Z</time>
      </trkpt>
      <trkpt lat="39.1849320" lon="-1.4776300">
        <ele>546.4</ele>
        <time>2019-05-11T09:22:36Z</time>
      </trkpt>
      <trkpt lat="39.1848940" lon="-1.4777260">
        <ele>546.4</ele>
        <time>2019-05-11T09:22:37Z</time>
      </trkpt>
      <trkpt lat="39.1848600" lon="-1.4778270">
        <ele>546.4</ele>
        <time>2019-05-11T09:22:38Z</time>
      </trkpt>
      <trkpt lat="39.1848210" lon="-1.4779310">
        <ele>546.4</ele>
        <time>2019-05-11T09:22:39Z</time>
      </trkpt>
      <trkpt lat="39.1847790" lon="-1.4780390">
        <ele>546.4</ele>
        <time>2019-05-11T09:22:40Z</time>
      </trkpt>
      <trkpt lat="39.1847420" lon="-1.4781510">
        <ele>546.0</ele>
        <time>2019-05-11T09:22:41Z</time>
      </trkpt>
      <trkpt lat="39.1847090" lon="-1.4782650">
        <ele>545.8</ele>
        <time>2019-05-11T09:22:42Z</time>
      </trkpt>
      <trkpt lat="39.1846760" lon="-1.4783730">
        <ele>545.8</ele>
        <time>2019-05-11T09:22:43Z</time>
      </trkpt>
      <trkpt lat="39.1846410" lon="-1.4784790">
        <ele>545.6</ele>
        <time>2019-05-11T09:22:44Z</time>
      </trkpt>
      <trkpt lat="39.1846090" lon="-1.4785840">
        <ele>545.4</ele>
        <time>2019-05-11T09:22:45Z</time>
      </trkpt>
      <trkpt lat="39.1845770" lon="-1.4786850">
        <ele>545.2</ele>
        <time>2019-05-11T09:22:46Z</time>
      </trkpt>
      <trkpt lat="39.1845490" lon="-1.4787890">
        <ele>544.8</ele>
        <time>2019-05-11T09:22:47Z</time>
      </trkpt>
      <trkpt lat="39.1845250" lon="-1.4788920">
        <ele>544.4</ele>
        <time>2019-05-11T09:22:48Z</time>
      </trkpt>
      <trkpt lat="39.1845030" lon="-1.4789940">
        <ele>544.2</ele>
        <time>2019-05-11T09:22:49Z</time>
      </trkpt>
      <trkpt lat="39.1844830" lon="-1.4790940">
        <ele>544.0</ele>
        <time>2019-05-11T09:22:50Z</time>
      </trkpt>
      <trkpt lat="39.1844630" lon="-1.4791890">
        <ele>544.0</ele>
        <time>2019-05-11T09:22:51Z</time>
      </trkpt>
      <trkpt lat="39.1844430" lon="-1.4792810">
        <ele>543.8</ele>
        <time>2019-05-11T09:22:52Z</time>
      </trkpt>
      <trkpt lat="39.1844250" lon="-1.4793670">
        <ele>543.8</ele>
        <time>2019-05-11T09:22:53Z</time>
      </trkpt>
      <trkpt lat="39.1844090" lon="-1.4794530">
        <ele>543.8</ele>
        <time>2019-05-11T09:22:54Z</time>
      </trkpt>
      <trkpt lat="39.1843890" lon="-1.4795370">
        <ele>543.8</ele>
        <time>2019-05-11T09:22:55Z</time>
      </trkpt>
      <trkpt lat="39.1843680" lon="-1.4796240">
        <ele>543.8</ele>
        <time>2019-05-11T09:22:56Z</time>
      </trkpt>
      <trkpt lat="39.1843490" lon="-1.4797110">
        <ele>543.8</ele>
        <time>2019-05-11T09:22:57Z</time>
      </trkpt>
      <trkpt lat="39.1843300" lon="-1.4797980">
        <ele>543.8</ele>
        <time>2019-05-11T09:22:58Z</time>
      </trkpt>
      <trkpt lat="39.1843120" lon="-1.4798840">
        <ele>543.8</ele>
        <time>2019-05-11T09:22:59Z</time>
      </trkpt>
      <trkpt lat="39.1842950" lon="-1.4799680">
        <ele>543.8</ele>
        <time>2019-05-11T09:23:00Z</time>
      </trkpt>
      <trkpt lat="39.1842770" lon="-1.4800530">
        <ele>544.0</ele>
        <time>2019-05-11T09:23:01Z</time>
      </trkpt>
      <trkpt lat="39.1842580" lon="-1.4801370">
        <ele>544.0</ele>
        <time>2019-05-11T09:23:02Z</time>
      </trkpt>
      <trkpt lat="39.1842410" lon="-1.4802230">
        <ele>544.2</ele>
        <time>2019-05-11T09:23:03Z</time>
      </trkpt>
      <trkpt lat="39.1842220" lon="-1.4803050">
        <ele>544.4</ele>
        <time>2019-05-11T09:23:04Z</time>
      </trkpt>
      <trkpt lat="39.1842020" lon="-1.4803900">
        <ele>544.4</ele>
        <time>2019-05-11T09:23:05Z</time>
      </trkpt>
      <trkpt lat="39.1841840" lon="-1.4804770">
        <ele>544.6</ele>
        <time>2019-05-11T09:23:06Z</time>
      </trkpt>
      <trkpt lat="39.1841680" lon="-1.4805610">
        <ele>544.6</ele>
        <time>2019-05-11T09:23:07Z</time>
      </trkpt>
      <trkpt lat="39.1841550" lon="-1.4806450">
        <ele>544.8</ele>
        <time>2019-05-11T09:23:08Z</time>
      </trkpt>
      <trkpt lat="39.1841420" lon="-1.4807270">
        <ele>544.8</ele>
        <time>2019-05-11T09:23:09Z</time>
      </trkpt>
      <trkpt lat="39.1841260" lon="-1.4808030">
        <ele>544.8</ele>
        <time>2019-05-11T09:23:10Z</time>
      </trkpt>
      <trkpt lat="39.1841040" lon="-1.4808750">
        <ele>544.8</ele>
        <time>2019-05-11T09:23:11Z</time>
      </trkpt>
      <trkpt lat="39.1840780" lon="-1.4809420">
        <ele>544.8</ele>
        <time>2019-05-11T09:23:12Z</time>
      </trkpt>
      <trkpt lat="39.1840490" lon="-1.4810080">
        <ele>544.8</ele>
        <time>2019-05-11T09:23:13Z</time>
      </trkpt>
      <trkpt lat="39.1840190" lon="-1.4810730">
        <ele>545.0</ele>
        <time>2019-05-11T09:23:14Z</time>
      </trkpt>
      <trkpt lat="39.1839900" lon="-1.4811410">
        <ele>545.0</ele>
        <time>2019-05-11T09:23:15Z</time>
      </trkpt>
      <trkpt lat="39.1839550" lon="-1.4812070">
        <ele>545.2</ele>
        <time>2019-05-11T09:23:16Z</time>
      </trkpt>
      <trkpt lat="39.1839200" lon="-1.4812790">
        <ele>545.4</ele>
        <time>2019-05-11T09:23:17Z</time>
      </trkpt>
      <trkpt lat="39.1838830" lon="-1.4813550">
        <ele>545.6</ele>
        <time>2019-05-11T09:23:18Z</time>
      </trkpt>
      <trkpt lat="39.1838440" lon="-1.4814300">
        <ele>545.8</ele>
        <time>2019-05-11T09:23:19Z</time>
      </trkpt>
      <trkpt lat="39.1838150" lon="-1.4815130">
        <ele>545.8</ele>
        <time>2019-05-11T09:23:20Z</time>
      </trkpt>
      <trkpt lat="39.1837990" lon="-1.4816030">
        <ele>545.8</ele>
        <time>2019-05-11T09:23:21Z</time>
      </trkpt>
      <trkpt lat="39.1838060" lon="-1.4817000">
        <ele>545.8</ele>
        <time>2019-05-11T09:23:22Z</time>
      </trkpt>
      <trkpt lat="39.1838290" lon="-1.4817890">
        <ele>545.8</ele>
        <time>2019-05-11T09:23:23Z</time>
      </trkpt>
      <trkpt lat="39.1838510" lon="-1.4818740">
        <ele>545.8</ele>
        <time>2019-05-11T09:23:24Z</time>
      </trkpt>
      <trkpt lat="39.1838560" lon="-1.4819600">
        <ele>545.8</ele>
        <time>2019-05-11T09:23:25Z</time>
      </trkpt>
      <trkpt lat="39.1838440" lon="-1.4820500">
        <ele>545.8</ele>
        <time>2019-05-11T09:23:26Z</time>
      </trkpt>
      <trkpt lat="39.1838200" lon="-1.4821350">
        <ele>545.6</ele>
        <time>2019-05-11T09:23:27Z</time>
      </trkpt>
      <trkpt lat="39.1837930" lon="-1.4822200">
        <ele>545.4</ele>
        <time>2019-05-11T09:23:28Z</time>
      </trkpt>
      <trkpt lat="39.1837640" lon="-1.4823040">
        <ele>545.4</ele>
        <time>2019-05-11T09:23:29Z</time>
      </trkpt>
      <trkpt lat="39.1837350" lon="-1.4823870">
        <ele>545.0</ele>
        <time>2019-05-11T09:23:30Z</time>
      </trkpt>
      <trkpt lat="39.1837030" lon="-1.4824720">
        <ele>544.8</ele>
        <time>2019-05-11T09:23:31Z</time>
      </trkpt>
      <trkpt lat="39.1836780" lon="-1.4825620">
        <ele>544.8</ele>
        <time>2019-05-11T09:23:32Z</time>
      </trkpt>
      <trkpt lat="39.1836520" lon="-1.4826470">
        <ele>544.8</ele>
        <time>2019-05-11T09:23:33Z</time>
      </trkpt>
      <trkpt lat="39.1836250" lon="-1.4827330">
        <ele>544.6</ele>
        <time>2019-05-11T09:23:34Z</time>
      </trkpt>
      <trkpt lat="39.1835960" lon="-1.4828190">
        <ele>544.6</ele>
        <time>2019-05-11T09:23:35Z</time>
      </trkpt>
      <trkpt lat="39.1835710" lon="-1.4829070">
        <ele>544.6</ele>
        <time>2019-05-11T09:23:36Z</time>
      </trkpt>
      <trkpt lat="39.1835460" lon="-1.4829870">
        <ele>544.6</ele>
        <time>2019-05-11T09:23:37Z</time>
      </trkpt>
      <trkpt lat="39.1835260" lon="-1.4830730">
        <ele>544.6</ele>
        <time>2019-05-11T09:23:38Z</time>
      </trkpt>
      <trkpt lat="39.1835100" lon="-1.4831540">
        <ele>544.6</ele>
        <time>2019-05-11T09:23:39Z</time>
      </trkpt>
      <trkpt lat="39.1835010" lon="-1.4832290">
        <ele>544.6</ele>
        <time>2019-05-11T09:23:40Z</time>
      </trkpt>
      <trkpt lat="39.1834930" lon="-1.4832990">
        <ele>544.6</ele>
        <time>2019-05-11T09:23:41Z</time>
      </trkpt>
      <trkpt lat="39.1834870" lon="-1.4833690">
        <ele>544.6</ele>
        <time>2019-05-11T09:23:42Z</time>
      </trkpt>
      <trkpt lat="39.1834760" lon="-1.4834310">
        <ele>544.6</ele>
        <time>2019-05-11T09:23:43Z</time>
      </trkpt>
      <trkpt lat="39.1834560" lon="-1.4834870">
        <ele>544.6</ele>
        <time>2019-05-11T09:23:44Z</time>
      </trkpt>
      <trkpt lat="39.1834350" lon="-1.4835420">
        <ele>544.6</ele>
        <time>2019-05-11T09:23:45Z</time>
      </trkpt>
      <trkpt lat="39.1834150" lon="-1.4835960">
        <ele>545.0</ele>
        <time>2019-05-11T09:23:46Z</time>
      </trkpt>
      <trkpt lat="39.1834000" lon="-1.4836550">
        <ele>545.4</ele>
        <time>2019-05-11T09:23:47Z</time>
      </trkpt>
      <trkpt lat="39.1833820" lon="-1.4837120">
        <ele>545.6</ele>
        <time>2019-05-11T09:23:48Z</time>
      </trkpt>
      <trkpt lat="39.1833610" lon="-1.4837680">
        <ele>546.0</ele>
        <time>2019-05-11T09:23:49Z</time>
      </trkpt>
      <trkpt lat="39.1833370" lon="-1.4838320">
        <ele>546.4</ele>
        <time>2019-05-11T09:23:50Z</time>
      </trkpt>
      <trkpt lat="39.1833080" lon="-1.4838960">
        <ele>547.0</ele>
        <time>2019-05-11T09:23:51Z</time>
      </trkpt>
      <trkpt lat="39.1832760" lon="-1.4839650">
        <ele>547.4</ele>
        <time>2019-05-11T09:23:52Z</time>
      </trkpt>
      <trkpt lat="39.1832410" lon="-1.4840330">
        <ele>548.0</ele>
        <time>2019-05-11T09:23:53Z</time>
      </trkpt>
      <trkpt lat="39.1832040" lon="-1.4841020">
        <ele>548.2</ele>
        <time>2019-05-11T09:23:54Z</time>
      </trkpt>
      <trkpt lat="39.1831700" lon="-1.4841720">
        <ele>548.4</ele>
        <time>2019-05-11T09:23:55Z</time>
      </trkpt>
      <trkpt lat="39.1831360" lon="-1.4842420">
        <ele>548.4</ele>
        <time>2019-05-11T09:23:56Z</time>
      </trkpt>
      <trkpt lat="39.1830980" lon="-1.4843120">
        <ele>548.4</ele>
        <time>2019-05-11T09:23:57Z</time>
      </trkpt>
      <trkpt lat="39.1830600" lon="-1.4843830">
        <ele>548.4</ele>
        <time>2019-05-11T09:23:58Z</time>
      </trkpt>
      <trkpt lat="39.1830160" lon="-1.4844490">
        <ele>548.4</ele>
        <time>2019-05-11T09:23:59Z</time>
      </trkpt>
      <trkpt lat="39.1829710" lon="-1.4845150">
        <ele>548.4</ele>
        <time>2019-05-11T09:24:00Z</time>
      </trkpt>
      <trkpt lat="39.1829240" lon="-1.4845780">
        <ele>548.4</ele>
        <time>2019-05-11T09:24:01Z</time>
      </trkpt>
      <trkpt lat="39.1828810" lon="-1.4846430">
        <ele>548.4</ele>
        <time>2019-05-11T09:24:02Z</time>
      </trkpt>
      <trkpt lat="39.1828440" lon="-1.4847150">
        <ele>548.4</ele>
        <time>2019-05-11T09:24:03Z</time>
      </trkpt>
      <trkpt lat="39.1828140" lon="-1.4847890">
        <ele>548.4</ele>
        <time>2019-05-11T09:24:04Z</time>
      </trkpt>
      <trkpt lat="39.1827830" lon="-1.4848610">
        <ele>548.4</ele>
        <time>2019-05-11T09:24:05Z</time>
      </trkpt>
      <trkpt lat="39.1827530" lon="-1.4849340">
        <ele>548.4</ele>
        <time>2019-05-11T09:24:06Z</time>
      </trkpt>
      <trkpt lat="39.1827220" lon="-1.4850060">
        <ele>548.4</ele>
        <time>2019-05-11T09:24:07Z</time>
      </trkpt>
      <trkpt lat="39.1826900" lon="-1.4850750">
        <ele>548.4</ele>
        <time>2019-05-11T09:24:08Z</time>
      </trkpt>
      <trkpt lat="39.1826530" lon="-1.4851420">
        <ele>548.4</ele>
        <time>2019-05-11T09:24:09Z</time>
      </trkpt>
      <trkpt lat="39.1826190" lon="-1.4852110">
        <ele>548.4</ele>
        <time>2019-05-11T09:24:10Z</time>
      </trkpt>
      <trkpt lat="39.1825820" lon="-1.4852800">
        <ele>548.4</ele>
        <time>2019-05-11T09:24:11Z</time>
      </trkpt>
      <trkpt lat="39.1825410" lon="-1.4853450">
        <ele>548.4</ele>
        <time>2019-05-11T09:24:12Z</time>
      </trkpt>
      <trkpt lat="39.1824990" lon="-1.4854070">
        <ele>548.4</ele>
        <time>2019-05-11T09:24:13Z</time>
      </trkpt>
      <trkpt lat="39.1824580" lon="-1.4854680">
        <ele>548.4</ele>
        <time>2019-05-11T09:24:14Z</time>
      </trkpt>
      <trkpt lat="39.1824200" lon="-1.4855260">
        <ele>548.6</ele>
        <time>2019-05-11T09:24:15Z</time>
      </trkpt>
      <trkpt lat="39.1823840" lon="-1.4855820">
        <ele>548.6</ele>
        <time>2019-05-11T09:24:16Z</time>
      </trkpt>
      <trkpt lat="39.1823510" lon="-1.4856350">
        <ele>548.6</ele>
        <time>2019-05-11T09:24:17Z</time>
      </trkpt>
      <trkpt lat="39.1823190" lon="-1.4856890">
        <ele>548.6</ele>
        <time>2019-05-11T09:24:18Z</time>
      </trkpt>
      <trkpt lat="39.1822930" lon="-1.4857470">
        <ele>548.6</ele>
        <time>2019-05-11T09:24:19Z</time>
      </trkpt>
      <trkpt lat="39.1822810" lon="-1.4858090">
        <ele>548.6</ele>
        <time>2019-05-11T09:24:20Z</time>
      </trkpt>
      <trkpt lat="39.1822660" lon="-1.4858760">
        <ele>548.6</ele>
        <time>2019-05-11T09:24:21Z</time>
      </trkpt>
      <trkpt lat="39.1822500" lon="-1.4859480">
        <ele>548.6</ele>
        <time>2019-05-11T09:24:22Z</time>
      </trkpt>
      <trkpt lat="39.1822300" lon="-1.4860250">
        <ele>548.8</ele>
        <time>2019-05-11T09:24:23Z</time>
      </trkpt>
      <trkpt lat="39.1822040" lon="-1.4861040">
        <ele>548.8</ele>
        <time>2019-05-11T09:24:24Z</time>
      </trkpt>
      <trkpt lat="39.1821680" lon="-1.4861860">
        <ele>548.8</ele>
        <time>2019-05-11T09:24:25Z</time>
      </trkpt>
      <trkpt lat="39.1821270" lon="-1.4862690">
        <ele>548.8</ele>
        <time>2019-05-11T09:24:26Z</time>
      </trkpt>
      <trkpt lat="39.1820860" lon="-1.4863530">
        <ele>548.8</ele>
        <time>2019-05-11T09:24:27Z</time>
      </trkpt>
      <trkpt lat="39.1820470" lon="-1.4864390">
        <ele>548.8</ele>
        <time>2019-05-11T09:24:28Z</time>
      </trkpt>
      <trkpt lat="39.1820130" lon="-1.4865220">
        <ele>548.6</ele>
        <time>2019-05-11T09:24:29Z</time>
      </trkpt>
      <trkpt lat="39.1819780" lon="-1.4866070">
        <ele>548.6</ele>
        <time>2019-05-11T09:24:30Z</time>
      </trkpt>
      <trkpt lat="39.1819560" lon="-1.4866960">
        <ele>548.6</ele>
        <time>2019-05-11T09:24:31Z</time>
      </trkpt>
      <trkpt lat="39.1819550" lon="-1.4867880">
        <ele>548.6</ele>
        <time>2019-05-11T09:24:32Z</time>
      </trkpt>
      <trkpt lat="39.1819710" lon="-1.4868700">
        <ele>548.4</ele>
        <time>2019-05-11T09:24:33Z</time>
      </trkpt>
      <trkpt lat="39.1820030" lon="-1.4869390">
        <ele>548.2</ele>
        <time>2019-05-11T09:24:34Z</time>
      </trkpt>
      <trkpt lat="39.1820410" lon="-1.4869970">
        <ele>548.0</ele>
        <time>2019-05-11T09:24:35Z</time>
      </trkpt>
      <trkpt lat="39.1820710" lon="-1.4870580">
        <ele>547.8</ele>
        <time>2019-05-11T09:24:36Z</time>
      </trkpt>
      <trkpt lat="39.1820720" lon="-1.4871280">
        <ele>547.8</ele>
        <time>2019-05-11T09:24:37Z</time>
      </trkpt>
      <trkpt lat="39.1820460" lon="-1.4872020">
        <ele>547.6</ele>
        <time>2019-05-11T09:24:38Z</time>
      </trkpt>
      <trkpt lat="39.1820050" lon="-1.4872480">
        <ele>547.2</ele>
        <time>2019-05-11T09:24:39Z</time>
      </trkpt>
      <trkpt lat="39.1819520" lon="-1.4872620">
        <ele>547.0</ele>
        <time>2019-05-11T09:24:40Z</time>
      </trkpt>
      <trkpt lat="39.1818970" lon="-1.4872570">
        <ele>546.6</ele>
        <time>2019-05-11T09:24:41Z</time>
      </trkpt>
      <trkpt lat="39.1818440" lon="-1.4872470">
        <ele>546.2</ele>
        <time>2019-05-11T09:24:42Z</time>
      </trkpt>
      <trkpt lat="39.1817920" lon="-1.4872380">
        <ele>545.8</ele>
        <time>2019-05-11T09:24:43Z</time>
      </trkpt>
      <trkpt lat="39.1817400" lon="-1.4872300">
        <ele>545.6</ele>
        <time>2019-05-11T09:24:44Z</time>
      </trkpt>
      <trkpt lat="39.1816910" lon="-1.4872240">
        <ele>545.4</ele>
        <time>2019-05-11T09:24:45Z</time>
      </trkpt>
      <trkpt lat="39.1816420" lon="-1.4872270">
        <ele>545.2</ele>
        <time>2019-05-11T09:24:46Z</time>
      </trkpt>
      <trkpt lat="39.1815920" lon="-1.4872370">
        <ele>545.2</ele>
        <time>2019-05-11T09:24:47Z</time>
      </trkpt>
      <trkpt lat="39.1815440" lon="-1.4872510">
        <ele>545.2</ele>
        <time>2019-05-11T09:24:48Z</time>
      </trkpt>
      <trkpt lat="39.1814970" lon="-1.4872700">
        <ele>545.2</ele>
        <time>2019-05-11T09:24:49Z</time>
      </trkpt>
      <trkpt lat="39.1814520" lon="-1.4872970">
        <ele>545.2</ele>
        <time>2019-05-11T09:24:50Z</time>
      </trkpt>
      <trkpt lat="39.1814080" lon="-1.4873290">
        <ele>545.2</ele>
        <time>2019-05-11T09:24:51Z</time>
      </trkpt>
      <trkpt lat="39.1813630" lon="-1.4873670">
        <ele>545.2</ele>
        <time>2019-05-11T09:24:52Z</time>
      </trkpt>
      <trkpt lat="39.1813220" lon="-1.4874100">
        <ele>545.2</ele>
        <time>2019-05-11T09:24:53Z</time>
      </trkpt>
      <trkpt lat="39.1812810" lon="-1.4874570">
        <ele>545.6</ele>
        <time>2019-05-11T09:24:54Z</time>
      </trkpt>
      <trkpt lat="39.1812390" lon="-1.4875060">
        <ele>545.8</ele>
        <time>2019-05-11T09:24:55Z</time>
      </trkpt>
      <trkpt lat="39.1811960" lon="-1.4875550">
        <ele>546.0</ele>
        <time>2019-05-11T09:24:56Z</time>
      </trkpt>
      <trkpt lat="39.1811520" lon="-1.4876020">
        <ele>546.2</ele>
        <time>2019-05-11T09:24:57Z</time>
      </trkpt>
      <trkpt lat="39.1811060" lon="-1.4876450">
        <ele>546.4</ele>
        <time>2019-05-11T09:24:58Z</time>
      </trkpt>
      <trkpt lat="39.1810590" lon="-1.4876850">
        <ele>546.6</ele>
        <time>2019-05-11T09:24:59Z</time>
      </trkpt>
      <trkpt lat="39.1810100" lon="-1.4877230">
        <ele>546.6</ele>
        <time>2019-05-11T09:25:00Z</time>
      </trkpt>
      <trkpt lat="39.1809630" lon="-1.4877660">
        <ele>546.8</ele>
        <time>2019-05-11T09:25:01Z</time>
      </trkpt>
      <trkpt lat="39.1809170" lon="-1.4878130">
        <ele>546.8</ele>
        <time>2019-05-11T09:25:02Z</time>
      </trkpt>
      <trkpt lat="39.1808710" lon="-1.4878630">
        <ele>546.8</ele>
        <time>2019-05-11T09:25:03Z</time>
      </trkpt>
      <trkpt lat="39.1808250" lon="-1.4879100">
        <ele>547.0</ele>
        <time>2019-05-11T09:25:04Z</time>
      </trkpt>
      <trkpt lat="39.1807780" lon="-1.4879510">
        <ele>547.2</ele>
        <time>2019-05-11T09:25:05Z</time>
      </trkpt>
      <trkpt lat="39.1807320" lon="-1.4879910">
        <ele>547.4</ele>
        <time>2019-05-11T09:25:06Z</time>
      </trkpt>
      <trkpt lat="39.1806860" lon="-1.4880220">
        <ele>547.8</ele>
        <time>2019-05-11T09:25:07Z</time>
      </trkpt>
      <trkpt lat="39.1806400" lon="-1.4880540">
        <ele>548.0</ele>
        <time>2019-05-11T09:25:08Z</time>
      </trkpt>
      <trkpt lat="39.1805920" lon="-1.4880860">
        <ele>548.2</ele>
        <time>2019-05-11T09:25:09Z</time>
      </trkpt>
      <trkpt lat="39.1805480" lon="-1.4881180">
        <ele>548.2</ele>
        <time>2019-05-11T09:25:10Z</time>
      </trkpt>
      <trkpt lat="39.1805060" lon="-1.4881500">
        <ele>548.4</ele>
        <time>2019-05-11T09:25:11Z</time>
      </trkpt>
      <trkpt lat="39.1804650" lon="-1.4881820">
        <ele>548.4</ele>
        <time>2019-05-11T09:25:12Z</time>
      </trkpt>
      <trkpt lat="39.1804240" lon="-1.4882150">
        <ele>548.4</ele>
        <time>2019-05-11T09:25:13Z</time>
      </trkpt>
      <trkpt lat="39.1803850" lon="-1.4882450">
        <ele>548.6</ele>
        <time>2019-05-11T09:25:14Z</time>
      </trkpt>
      <trkpt lat="39.1803440" lon="-1.4882740">
        <ele>548.6</ele>
        <time>2019-05-11T09:25:15Z</time>
      </trkpt>
      <trkpt lat="39.1803020" lon="-1.4883010">
        <ele>548.8</ele>
        <time>2019-05-11T09:25:16Z</time>
      </trkpt>
      <trkpt lat="39.1802580" lon="-1.4883250">
        <ele>548.8</ele>
        <time>2019-05-11T09:25:17Z</time>
      </trkpt>
      <trkpt lat="39.1802130" lon="-1.4883480">
        <ele>549.0</ele>
        <time>2019-05-11T09:25:18Z</time>
      </trkpt>
      <trkpt lat="39.1801650" lon="-1.4883720">
        <ele>549.2</ele>
        <time>2019-05-11T09:25:19Z</time>
      </trkpt>
      <trkpt lat="39.1801160" lon="-1.4883980">
        <ele>549.2</ele>
        <time>2019-05-11T09:25:20Z</time>
      </trkpt>
      <trkpt lat="39.1800670" lon="-1.4884250">
        <ele>549.4</ele>
        <time>2019-05-11T09:25:21Z</time>
      </trkpt>
      <trkpt lat="39.1800180" lon="-1.4884540">
        <ele>549.6</ele>
        <time>2019-05-11T09:25:22Z</time>
      </trkpt>
      <trkpt lat="39.1799720" lon="-1.4884840">
        <ele>549.6</ele>
        <time>2019-05-11T09:25:23Z</time>
      </trkpt>
      <trkpt lat="39.1799200" lon="-1.4885110">
        <ele>549.8</ele>
        <time>2019-05-11T09:25:24Z</time>
      </trkpt>
      <trkpt lat="39.1798710" lon="-1.4885400">
        <ele>550.0</ele>
        <time>2019-05-11T09:25:25Z</time>
      </trkpt>
      <trkpt lat="39.1798250" lon="-1.4885670">
        <ele>550.2</ele>
        <time>2019-05-11T09:25:26Z</time>
      </trkpt>
      <trkpt lat="39.1797770" lon="-1.4885920">
        <ele>550.2</ele>
        <time>2019-05-11T09:25:27Z</time>
      </trkpt>
      <trkpt lat="39.1797240" lon="-1.4886160">
        <ele>550.2</ele>
        <time>2019-05-11T09:25:28Z</time>
      </trkpt>
      <trkpt lat="39.1796740" lon="-1.4886410">
        <ele>550.4</ele>
        <time>2019-05-11T09:25:29Z</time>
      </trkpt>
      <trkpt lat="39.1796200" lon="-1.4886660">
        <ele>550.4</ele>
        <time>2019-05-11T09:25:30Z</time>
      </trkpt>
      <trkpt lat="39.1795640" lon="-1.4886900">
        <ele>550.4</ele>
        <time>2019-05-11T09:25:31Z</time>
      </trkpt>
      <trkpt lat="39.1795070" lon="-1.4887200">
        <ele>550.4</ele>
        <time>2019-05-11T09:25:32Z</time>
      </trkpt>
      <trkpt lat="39.1794510" lon="-1.4887610">
        <ele>550.4</ele>
        <time>2019-05-11T09:25:33Z</time>
      </trkpt>
      <trkpt lat="39.1793970" lon="-1.4888050">
        <ele>550.4</ele>
        <time>2019-05-11T09:25:34Z</time>
      </trkpt>
      <trkpt lat="39.1793410" lon="-1.4888500">
        <ele>550.4</ele>
        <time>2019-05-11T09:25:35Z</time>
      </trkpt>
      <trkpt lat="39.1792870" lon="-1.4888940">
        <ele>550.4</ele>
        <time>2019-05-11T09:25:36Z</time>
      </trkpt>
      <trkpt lat="39.1792300" lon="-1.4889360">
        <ele>550.4</ele>
        <time>2019-05-11T09:25:37Z</time>
      </trkpt>
      <trkpt lat="39.1791740" lon="-1.4889780">
        <ele>550.4</ele>
        <time>2019-05-11T09:25:38Z</time>
      </trkpt>
      <trkpt lat="39.1791180" lon="-1.4890190">
        <ele>550.4</ele>
        <time>2019-05-11T09:25:39Z</time>
      </trkpt>
      <trkpt lat="39.1790600" lon="-1.4890560">
        <ele>550.2</ele>
        <time>2019-05-11T09:25:40Z</time>
      </trkpt>
      <trkpt lat="39.1790020" lon="-1.4890900">
        <ele>550.2</ele>
        <time>2019-05-11T09:25:41Z</time>
      </trkpt>
      <trkpt lat="39.1789430" lon="-1.4891210">
        <ele>550.0</ele>
        <time>2019-05-11T09:25:42Z</time>
      </trkpt>
      <trkpt lat="39.1788850" lon="-1.4891510">
        <ele>550.0</ele>
        <time>2019-05-11T09:25:43Z</time>
      </trkpt>
      <trkpt lat="39.1788280" lon="-1.4891800">
        <ele>550.0</ele>
        <time>2019-05-11T09:25:44Z</time>
      </trkpt>
      <trkpt lat="39.1787710" lon="-1.4892080">
        <ele>549.8</ele>
        <time>2019-05-11T09:25:45Z</time>
      </trkpt>
      <trkpt lat="39.1787150" lon="-1.4892340">
        <ele>549.8</ele>
        <time>2019-05-11T09:25:46Z</time>
      </trkpt>
      <trkpt lat="39.1786580" lon="-1.4892620">
        <ele>549.6</ele>
        <time>2019-05-11T09:25:47Z</time>
      </trkpt>
      <trkpt lat="39.1786010" lon="-1.4892900">
        <ele>549.6</ele>
        <time>2019-05-11T09:25:48Z</time>
      </trkpt>
      <trkpt lat="39.1785450" lon="-1.4893160">
        <ele>549.4</ele>
        <time>2019-05-11T09:25:49Z</time>
      </trkpt>
      <trkpt lat="39.1784870" lon="-1.4893430">
        <ele>549.4</ele>
        <time>2019-05-11T09:25:50Z</time>
      </trkpt>
      <trkpt lat="39.1784300" lon="-1.4893700">
        <ele>549.4</ele>
        <time>2019-05-11T09:25:51Z</time>
      </trkpt>
      <trkpt lat="39.1783730" lon="-1.4893960">
        <ele>549.4</ele>
        <time>2019-05-11T09:25:52Z</time>
      </trkpt>
      <trkpt lat="39.1783150" lon="-1.4894210">
        <ele>549.2</ele>
        <time>2019-05-11T09:25:53Z</time>
      </trkpt>
      <trkpt lat="39.1782570" lon="-1.4894460">
        <ele>549.2</ele>
        <time>2019-05-11T09:25:54Z</time>
      </trkpt>
      <trkpt lat="39.1781980" lon="-1.4894720">
        <ele>549.2</ele>
        <time>2019-05-11T09:25:55Z</time>
      </trkpt>
      <trkpt lat="39.1781400" lon="-1.4894990">
        <ele>549.2</ele>
        <time>2019-05-11T09:25:56Z</time>
      </trkpt>
      <trkpt lat="39.1780830" lon="-1.4895240">
        <ele>549.2</ele>
        <time>2019-05-11T09:25:57Z</time>
      </trkpt>
      <trkpt lat="39.1780260" lon="-1.4895510">
        <ele>549.0</ele>
        <time>2019-05-11T09:25:58Z</time>
      </trkpt>
      <trkpt lat="39.1779690" lon="-1.4895790">
        <ele>549.0</ele>
        <time>2019-05-11T09:25:59Z</time>
      </trkpt>
      <trkpt lat="39.1779120" lon="-1.4896070">
        <ele>549.0</ele>
        <time>2019-05-11T09:26:00Z</time>
      </trkpt>
      <trkpt lat="39.1778550" lon="-1.4896350">
        <ele>549.0</ele>
        <time>2019-05-11T09:26:01Z</time>
      </trkpt>
      <trkpt lat="39.1777980" lon="-1.4896590">
        <ele>549.0</ele>
        <time>2019-05-11T09:26:02Z</time>
      </trkpt>
      <trkpt lat="39.1777390" lon="-1.4896810">
        <ele>549.0</ele>
        <time>2019-05-11T09:26:03Z</time>
      </trkpt>
      <trkpt lat="39.1776790" lon="-1.4897010">
        <ele>549.0</ele>
        <time>2019-05-11T09:26:04Z</time>
      </trkpt>
      <trkpt lat="39.1776190" lon="-1.4897210">
        <ele>549.0</ele>
        <time>2019-05-11T09:26:05Z</time>
      </trkpt>
      <trkpt lat="39.1775620" lon="-1.4897380">
        <ele>549.0</ele>
        <time>2019-05-11T09:26:06Z</time>
      </trkpt>
      <trkpt lat="39.1775010" lon="-1.4897570">
        <ele>549.0</ele>
        <time>2019-05-11T09:26:07Z</time>
      </trkpt>
      <trkpt lat="39.1774380" lon="-1.4897740">
        <ele>548.8</ele>
        <time>2019-05-11T09:26:08Z</time>
      </trkpt>
      <trkpt lat="39.1773740" lon="-1.4897910">
        <ele>548.8</ele>
        <time>2019-05-11T09:26:09Z</time>
      </trkpt>
      <trkpt lat="39.1773090" lon="-1.4898080">
        <ele>548.8</ele>
        <time>2019-05-11T09:26:10Z</time>
      </trkpt>
      <trkpt lat="39.1772430" lon="-1.4898270">
        <ele>548.8</ele>
        <time>2019-05-11T09:26:11Z</time>
      </trkpt>
      <trkpt lat="39.1771770" lon="-1.4898450">
        <ele>549.0</ele>
        <time>2019-05-11T09:26:12Z</time>
      </trkpt>
      <trkpt lat="39.1771100" lon="-1.4898640">
        <ele>549.0</ele>
        <time>2019-05-11T09:26:13Z</time>
      </trkpt>
      <trkpt lat="39.1770430" lon="-1.4898820">
        <ele>549.0</ele>
        <time>2019-05-11T09:26:14Z</time>
      </trkpt>
      <trkpt lat="39.1769740" lon="-1.4898960">
        <ele>549.0</ele>
        <time>2019-05-11T09:26:15Z</time>
      </trkpt>
      <trkpt lat="39.1769050" lon="-1.4899070">
        <ele>549.0</ele>
        <time>2019-05-11T09:26:16Z</time>
      </trkpt>
      <trkpt lat="39.1768320" lon="-1.4899120">
        <ele>549.0</ele>
        <time>2019-05-11T09:26:17Z</time>
      </trkpt>
      <trkpt lat="39.1767590" lon="-1.4899130">
        <ele>548.8</ele>
        <time>2019-05-11T09:26:18Z</time>
      </trkpt>
      <trkpt lat="39.1766860" lon="-1.4899110">
        <ele>548.8</ele>
        <time>2019-05-11T09:26:19Z</time>
      </trkpt>
      <trkpt lat="39.1766110" lon="-1.4899080">
        <ele>548.6</ele>
        <time>2019-05-11T09:26:20Z</time>
      </trkpt>
      <trkpt lat="39.1765360" lon="-1.4899020">
        <ele>548.6</ele>
        <time>2019-05-11T09:26:21Z</time>
      </trkpt>
      <trkpt lat="39.1764580" lon="-1.4898940">
        <ele>548.6</ele>
        <time>2019-05-11T09:26:22Z</time>
      </trkpt>
      <trkpt lat="39.1763800" lon="-1.4898840">
        <ele>548.4</ele>
        <time>2019-05-11T09:26:23Z</time>
      </trkpt>
      <trkpt lat="39.1763000" lon="-1.4898770">
        <ele>548.2</ele>
        <time>2019-05-11T09:26:24Z</time>
      </trkpt>
      <trkpt lat="39.1762200" lon="-1.4898760">
        <ele>548.2</ele>
        <time>2019-05-11T09:26:25Z</time>
      </trkpt>
      <trkpt lat="39.1761400" lon="-1.4898820">
        <ele>548.0</ele>
        <time>2019-05-11T09:26:26Z</time>
      </trkpt>
      <trkpt lat="39.1760600" lon="-1.4898940">
        <ele>548.0</ele>
        <time>2019-05-11T09:26:27Z</time>
      </trkpt>
      <trkpt lat="39.1759800" lon="-1.4899150">
        <ele>547.8</ele>
        <time>2019-05-11T09:26:28Z</time>
      </trkpt>
      <trkpt lat="39.1759020" lon="-1.4899450">
        <ele>547.8</ele>
        <time>2019-05-11T09:26:29Z</time>
      </trkpt>
      <trkpt lat="39.1758280" lon="-1.4899820">
        <ele>547.6</ele>
        <time>2019-05-11T09:26:30Z</time>
      </trkpt>
      <trkpt lat="39.1757560" lon="-1.4900250">
        <ele>547.4</ele>
        <time>2019-05-11T09:26:31Z</time>
      </trkpt>
      <trkpt lat="39.1756850" lon="-1.4900750">
        <ele>547.4</ele>
        <time>2019-05-11T09:26:32Z</time>
      </trkpt>
      <trkpt lat="39.1756160" lon="-1.4901300">
        <ele>547.2</ele>
        <time>2019-05-11T09:26:33Z</time>
      </trkpt>
      <trkpt lat="39.1755530" lon="-1.4901890">
        <ele>547.0</ele>
        <time>2019-05-11T09:26:34Z</time>
      </trkpt>
      <trkpt lat="39.1754940" lon="-1.4902490">
        <ele>546.6</ele>
        <time>2019-05-11T09:26:35Z</time>
      </trkpt>
      <trkpt lat="39.1754380" lon="-1.4903090">
        <ele>546.4</ele>
        <time>2019-05-11T09:26:36Z</time>
      </trkpt>
      <trkpt lat="39.1753840" lon="-1.4903650">
        <ele>546.4</ele>
        <time>2019-05-11T09:26:37Z</time>
      </trkpt>
      <trkpt lat="39.1753300" lon="-1.4904110">
        <ele>546.4</ele>
        <time>2019-05-11T09:26:38Z</time>
      </trkpt>
      <trkpt lat="39.1752730" lon="-1.4904380">
        <ele>546.4</ele>
        <time>2019-05-11T09:26:39Z</time>
      </trkpt>
      <trkpt lat="39.1752080" lon="-1.4904240">
        <ele>546.2</ele>
        <time>2019-05-11T09:26:40Z</time>
      </trkpt>
      <trkpt lat="39.1751520" lon="-1.4903820">
        <ele>546.2</ele>
        <time>2019-05-11T09:26:41Z</time>
      </trkpt>
      <trkpt lat="39.1751030" lon="-1.4903260">
        <ele>546.2</ele>
        <time>2019-05-11T09:26:42Z</time>
      </trkpt>
      <trkpt lat="39.1750530" lon="-1.4902650">
        <ele>546.0</ele>
        <time>2019-05-11T09:26:43Z</time>
      </trkpt>
      <trkpt lat="39.1750000" lon="-1.4902060">
        <ele>546.0</ele>
        <time>2019-05-11T09:26:44Z</time>
      </trkpt>
      <trkpt lat="39.1749460" lon="-1.4901530">
        <ele>545.8</ele>
        <time>2019-05-11T09:26:45Z</time>
      </trkpt>
      <trkpt lat="39.1749010" lon="-1.4901040">
        <ele>545.8</ele>
        <time>2019-05-11T09:26:46Z</time>
      </trkpt>
      <trkpt lat="39.1748850" lon="-1.4900480">
        <ele>545.8</ele>
        <time>2019-05-11T09:26:47Z</time>
      </trkpt>
      <trkpt lat="39.1749030" lon="-1.4899940">
        <ele>545.6</ele>
        <time>2019-05-11T09:26:48Z</time>
      </trkpt>
      <trkpt lat="39.1749420" lon="-1.4899550">
        <ele>545.4</ele>
        <time>2019-05-11T09:26:49Z</time>
      </trkpt>
      <trkpt lat="39.1749900" lon="-1.4899300">
        <ele>545.2</ele>
        <time>2019-05-11T09:26:50Z</time>
      </trkpt>
      <trkpt lat="39.1750430" lon="-1.4899090">
        <ele>545.0</ele>
        <time>2019-05-11T09:26:51Z</time>
      </trkpt>
      <trkpt lat="39.1750990" lon="-1.4898880">
        <ele>544.8</ele>
        <time>2019-05-11T09:26:52Z</time>
      </trkpt>
      <trkpt lat="39.1751540" lon="-1.4898640">
        <ele>544.4</ele>
        <time>2019-05-11T09:26:53Z</time>
      </trkpt>
      <trkpt lat="39.1752080" lon="-1.4898380">
        <ele>544.2</ele>
        <time>2019-05-11T09:26:54Z</time>
      </trkpt>
      <trkpt lat="39.1752610" lon="-1.4898140">
        <ele>544.0</ele>
        <time>2019-05-11T09:26:55Z</time>
      </trkpt>
      <trkpt lat="39.1753020" lon="-1.4897960">
        <ele>543.8</ele>
        <time>2019-05-11T09:26:56Z</time>
      </trkpt>
      <trkpt lat="39.1753170" lon="-1.4897820">
        <ele>543.6</ele>
        <time>2019-05-11T09:26:57Z</time>
      </trkpt>
      <trkpt lat="39.1753140" lon="-1.4897740">
        <ele>543.4</ele>
        <time>2019-05-11T09:26:58Z</time>
      </trkpt>
      <trkpt lat="39.1753120" lon="-1.4897730">
        <ele>543.2</ele>
        <time>2019-05-11T09:26:59Z</time>
      </trkpt>
      <trkpt lat="39.1753110" lon="-1.4897720">
        <ele>543.2</ele>
        <time>2019-05-11T09:27:00Z</time>
      </trkpt>
      <trkpt lat="39.1753110" lon="-1.4897710">
        <ele>543.0</ele>
        <time>2019-05-11T09:27:01Z</time>
      </trkpt>
      <trkpt lat="39.1753130" lon="-1.4897700">
        <ele>543.0</ele>
        <time>2019-05-11T09:27:02Z</time>
      </trkpt>
      <trkpt lat="39.1753140" lon="-1.4897700">
        <ele>542.8</ele>
        <time>2019-05-11T09:27:03Z</time>
      </trkpt>
      <trkpt lat="39.1753140" lon="-1.4897700">
        <ele>542.4</ele>
        <time>2019-05-11T09:27:04Z</time>
      </trkpt>
      <trkpt lat="39.1753140" lon="-1.4897700">
        <ele>542.2</ele>
        <time>2019-05-11T09:27:05Z</time>
      </trkpt>
      <trkpt lat="39.1753140" lon="-1.4897700">
        <ele>542.2</ele>
        <time>2019-05-11T09:27:06Z</time>
      </trkpt>
      <trkpt lat="39.1753140" lon="-1.4897700">
        <ele>542.2</ele>
        <time>2019-05-11T09:27:07Z</time>
      </trkpt>
      <trkpt lat="39.1753140" lon="-1.4897700">
        <ele>542.0</ele>
        <time>2019-05-11T09:27:08Z</time>
      </trkpt>
      <trkpt lat="39.1753140" lon="-1.4897700">
        <ele>542.0</ele>
        <time>2019-05-11T09:27:09Z</time>
      </trkpt>
      <trkpt lat="39.1753140" lon="-1.4897700">
        <ele>542.0</ele>
        <time>2019-05-11T09:27:10Z</time>
      </trkpt>
      <trkpt lat="39.1753200" lon="-1.4897710">
        <ele>542.0</ele>
        <time>2019-05-11T09:27:11Z</time>
      </trkpt>
      <trkpt lat="39.1753200" lon="-1.4897710">
        <ele>542.0</ele>
        <time>2019-05-11T09:27:12Z</time>
      </trkpt>
      <trkpt lat="39.1753200" lon="-1.4897710">
        <ele>542.0</ele>
        <time>2019-05-11T09:27:13Z</time>
      </trkpt>
      <trkpt lat="39.1753200" lon="-1.4897710">
        <ele>542.0</ele>
        <time>2019-05-11T09:27:14Z</time>
      </trkpt>
      <trkpt lat="39.1753200" lon="-1.4897710">
        <ele>542.0</ele>
        <time>2019-05-11T09:27:15Z</time>
      </trkpt>
      <trkpt lat="39.1753200" lon="-1.4897710">
        <ele>542.0</ele>
        <time>2019-05-11T09:27:16Z</time>
      </trkpt>
      <trkpt lat="39.1753200" lon="-1.4897710">
        <ele>542.0</ele>
        <time>2019-05-11T09:27:17Z</time>
      </trkpt>
      <trkpt lat="39.1753200" lon="-1.4897710">
        <ele>542.0</ele>
        <time>2019-05-11T09:27:18Z</time>
      </trkpt>
      <trkpt lat="39.1753200" lon="-1.4897710">
        <ele>542.0</ele>
        <time>2019-05-11T09:27:19Z</time>
      </trkpt>
      <trkpt lat="39.1753200" lon="-1.4897710">
        <ele>542.0</ele>
        <time>2019-05-11T09:27:20Z</time>
      </trkpt>
      <trkpt lat="39.1753200" lon="-1.4897710">
        <ele>542.0</ele>
        <time>2019-05-11T09:27:21Z</time>
      </trkpt>
      <trkpt lat="39.1753200" lon="-1.4897710">
        <ele>542.0</ele>
        <time>2019-05-11T09:27:22Z</time>
      </trkpt>
      <trkpt lat="39.1753200" lon="-1.4897710">
        <ele>542.0</ele>
        <time>2019-05-11T09:27:23Z</time>
      </trkpt>
      <trkpt lat="39.1753200" lon="-1.4897710">
        <ele>542.0</ele>
        <time>2019-05-11T09:27:24Z</time>
      </trkpt>
      <trkpt lat="39.1753200" lon="-1.4897710">
        <ele>542.0</ele>
        <time>2019-05-11T09:27:25Z</time>
      </trkpt>
      <trkpt lat="39.1753200" lon="-1.4897710">
        <ele>542.0</ele>
        <time>2019-05-11T09:27:26Z</time>
      </trkpt>
      <trkpt lat="39.1753200" lon="-1.4897710">
        <ele>542.0</ele>
        <time>2019-05-11T09:27:27Z</time>
      </trkpt>
      <trkpt lat="39.1753200" lon="-1.4897710">
        <ele>542.0</ele>
        <time>2019-05-11T09:27:28Z</time>
      </trkpt>
      <trkpt lat="39.1753200" lon="-1.4897710">
        <ele>542.0</ele>
        <time>2019-05-11T09:27:29Z</time>
      </trkpt>
      <trkpt lat="39.1753200" lon="-1.4897710">
        <ele>542.0</ele>
        <time>2019-05-11T09:27:30Z</time>
      </trkpt>
      <trkpt lat="39.1753300" lon="-1.4897670">
        <ele>542.0</ele>
        <time>2019-05-11T09:27:31Z</time>
      </trkpt>
      <trkpt lat="39.1753460" lon="-1.4897590">
        <ele>542.0</ele>
        <time>2019-05-11T09:27:32Z</time>
      </trkpt>
      <trkpt lat="39.1753680" lon="-1.4897440">
        <ele>542.0</ele>
        <time>2019-05-11T09:27:33Z</time>
      </trkpt>
      <trkpt lat="39.1753950" lon="-1.4897220">
        <ele>542.0</ele>
        <time>2019-05-11T09:27:34Z</time>
      </trkpt>
      <trkpt lat="39.1754260" lon="-1.4896950">
        <ele>542.0</ele>
        <time>2019-05-11T09:27:35Z</time>
      </trkpt>
      <trkpt lat="39.1754600" lon="-1.4896630">
        <ele>542.0</ele>
        <time>2019-05-11T09:27:36Z</time>
      </trkpt>
      <trkpt lat="39.1754990" lon="-1.4896320">
        <ele>542.0</ele>
        <time>2019-05-11T09:27:37Z</time>
      </trkpt>
      <trkpt lat="39.1755400" lon="-1.4895980">
        <ele>542.0</ele>
        <time>2019-05-11T09:27:38Z</time>
      </trkpt>
      <trkpt lat="39.1755820" lon="-1.4895620">
        <ele>542.0</ele>
        <time>2019-05-11T09:27:39Z</time>
      </trkpt>
      <trkpt lat="39.1756240" lon="-1.4895220">
        <ele>542.0</ele>
        <time>2019-05-11T09:27:40Z</time>
      </trkpt>
      <trkpt lat="39.1756670" lon="-1.4894790">
        <ele>542.0</ele>
        <time>2019-05-11T09:27:41Z</time>
      </trkpt>
      <trkpt lat="39.1757100" lon="-1.4894340">
        <ele>542.0</ele>
        <time>2019-05-11T09:27:42Z</time>
      </trkpt>
      <trkpt lat="39.1757520" lon="-1.4893880">
        <ele>542.0</ele>
        <time>2019-05-11T09:27:43Z</time>
      </trkpt>
      <trkpt lat="39.1757960" lon="-1.4893410">
        <ele>542.0</ele>
        <time>2019-05-11T09:27:44Z</time>
      </trkpt>
      <trkpt lat="39.1758410" lon="-1.4892950">
        <ele>542.0</ele>
        <time>2019-05-11T09:27:45Z</time>
      </trkpt>
      <trkpt lat="39.1758860" lon="-1.4892470">
        <ele>542.0</ele>
        <time>2019-05-11T09:27:46Z</time>
      </trkpt>
      <trkpt lat="39.1759310" lon="-1.4891970">
        <ele>542.0</ele>
        <time>2019-05-11T09:27:47Z</time>
      </trkpt>
      <trkpt lat="39.1759750" lon="-1.4891430">
        <ele>542.0</ele>
        <time>2019-05-11T09:27:48Z</time>
      </trkpt>
      <trkpt lat="39.1760200" lon="-1.4890930">
        <ele>542.0</ele>
        <time>2019-05-11T09:27:49Z</time>
      </trkpt>
      <trkpt lat="39.1760670" lon="-1.4890440">
        <ele>542.0</ele>
        <time>2019-05-11T09:27:50Z</time>
      </trkpt>
      <trkpt lat="39.1761160" lon="-1.4889960">
        <ele>542.0</ele>
        <time>2019-05-11T09:27:51Z</time>
      </trkpt>
      <trkpt lat="39.1761650" lon="-1.4889480">
        <ele>542.0</ele>
        <time>2019-05-11T09:27:52Z</time>
      </trkpt>
      <trkpt lat="39.1762130" lon="-1.4888980">
        <ele>542.0</ele>
        <time>2019-05-11T09:27:53Z</time>
      </trkpt>
      <trkpt lat="39.1762510" lon="-1.4888400">
        <ele>542.0</ele>
        <time>2019-05-11T09:27:54Z</time>
      </trkpt>
      <trkpt lat="39.1762720" lon="-1.4887680">
        <ele>542.0</ele>
        <time>2019-05-11T09:27:55Z</time>
      </trkpt>
      <trkpt lat="39.1762720" lon="-1.4886940">
        <ele>541.8</ele>
        <time>2019-05-11T09:27:56Z</time>
      </trkpt>
      <trkpt lat="39.1762580" lon="-1.4886210">
        <ele>541.8</ele>
        <time>2019-05-11T09:27:57Z</time>
      </trkpt>
      <trkpt lat="39.1762350" lon="-1.4885520">
        <ele>541.8</ele>
        <time>2019-05-11T09:27:58Z</time>
      </trkpt>
      <trkpt lat="39.1762070" lon="-1.4884850">
        <ele>541.8</ele>
        <time>2019-05-11T09:27:59Z</time>
      </trkpt>
      <trkpt lat="39.1761820" lon="-1.4884190">
        <ele>541.8</ele>
        <time>2019-05-11T09:28:00Z</time>
      </trkpt>
      <trkpt lat="39.1761550" lon="-1.4883540">
        <ele>541.8</ele>
        <time>2019-05-11T09:28:01Z</time>
      </trkpt>
      <trkpt lat="39.1761290" lon="-1.4882920">
        <ele>541.8</ele>
        <time>2019-05-11T09:28:02Z</time>
      </trkpt>
      <trkpt lat="39.1761090" lon="-1.4882330">
        <ele>541.8</ele>
        <time>2019-05-11T09:28:03Z</time>
      </trkpt>
      <trkpt lat="39.1761020" lon="-1.4881730">
        <ele>541.8</ele>
        <time>2019-05-11T09:28:04Z</time>
      </trkpt>
      <trkpt lat="39.1761030" lon="-1.4881140">
        <ele>541.8</ele>
        <time>2019-05-11T09:28:05Z</time>
      </trkpt>
      <trkpt lat="39.1761140" lon="-1.4880570">
        <ele>541.8</ele>
        <time>2019-05-11T09:28:06Z</time>
      </trkpt>
      <trkpt lat="39.1761170" lon="-1.4880010">
        <ele>541.8</ele>
        <time>2019-05-11T09:28:07Z</time>
      </trkpt>
      <trkpt lat="39.1761090" lon="-1.4879510">
        <ele>541.8</ele>
        <time>2019-05-11T09:28:08Z</time>
      </trkpt>
      <trkpt lat="39.1760870" lon="-1.4879140">
        <ele>541.8</ele>
        <time>2019-05-11T09:28:09Z</time>
      </trkpt>
      <trkpt lat="39.1760580" lon="-1.4878840">
        <ele>542.0</ele>
        <time>2019-05-11T09:28:10Z</time>
      </trkpt>
      <trkpt lat="39.1760280" lon="-1.4878380">
        <ele>542.4</ele>
        <time>2019-05-11T09:28:11Z</time>
      </trkpt>
      <trkpt lat="39.1760020" lon="-1.4877810">
        <ele>542.8</ele>
        <time>2019-05-11T09:28:12Z</time>
      </trkpt>
      <trkpt lat="39.1759800" lon="-1.4877160">
        <ele>543.2</ele>
        <time>2019-05-11T09:28:13Z</time>
      </trkpt>
      <trkpt lat="39.1759620" lon="-1.4876480">
        <ele>543.6</ele>
        <time>2019-05-11T09:28:14Z</time>
      </trkpt>
      <trkpt lat="39.1759450" lon="-1.4875800">
        <ele>544.2</ele>
        <time>2019-05-11T09:28:15Z</time>
      </trkpt>
      <trkpt lat="39.1759340" lon="-1.4875120">
        <ele>544.6</ele>
        <time>2019-05-11T09:28:16Z</time>
      </trkpt>
      <trkpt lat="39.1759260" lon="-1.4874440">
        <ele>545.0</ele>
        <time>2019-05-11T09:28:17Z</time>
      </trkpt>
      <trkpt lat="39.1759200" lon="-1.4873760">
        <ele>545.2</ele>
        <time>2019-05-11T09:28:18Z</time>
      </trkpt>
      <trkpt lat="39.1759200" lon="-1.4873090">
        <ele>545.4</ele>
        <time>2019-05-11T09:28:19Z</time>
      </trkpt>
      <trkpt lat="39.1759250" lon="-1.4872460">
        <ele>545.4</ele>
        <time>2019-05-11T09:28:20Z</time>
      </trkpt>
      <trkpt lat="39.1759300" lon="-1.4871850">
        <ele>545.4</ele>
        <time>2019-05-11T09:28:21Z</time>
      </trkpt>
      <trkpt lat="39.1759410" lon="-1.4871250">
        <ele>545.6</ele>
        <time>2019-05-11T09:28:22Z</time>
      </trkpt>
      <trkpt lat="39.1759610" lon="-1.4870820">
        <ele>545.6</ele>
        <time>2019-05-11T09:28:23Z</time>
      </trkpt>
      <trkpt lat="39.1759890" lon="-1.4870610">
        <ele>545.8</ele>
        <time>2019-05-11T09:28:24Z</time>
      </trkpt>
      <trkpt lat="39.1760160" lon="-1.4870500">
        <ele>546.2</ele>
        <time>2019-05-11T09:28:25Z</time>
      </trkpt>
      <trkpt lat="39.1760430" lon="-1.4870460">
        <ele>546.4</ele>
        <time>2019-05-11T09:28:26Z</time>
      </trkpt>
      <trkpt lat="39.1760690" lon="-1.4870480">
        <ele>546.6</ele>
        <time>2019-05-11T09:28:27Z</time>
      </trkpt>
      <trkpt lat="39.1760940" lon="-1.4870470">
        <ele>547.0</ele>
        <time>2019-05-11T09:28:28Z</time>
      </trkpt>
      <trkpt lat="39.1761170" lon="-1.4870490">
        <ele>547.4</ele>
        <time>2019-05-11T09:28:29Z</time>
      </trkpt>
      <trkpt lat="39.1761420" lon="-1.4870520">
        <ele>547.8</ele>
        <time>2019-05-11T09:28:30Z</time>
      </trkpt>
      <trkpt lat="39.1761680" lon="-1.4870540">
        <ele>548.2</ele>
        <time>2019-05-11T09:28:31Z</time>
      </trkpt>
      <trkpt lat="39.1761930" lon="-1.4870540">
        <ele>548.6</ele>
        <time>2019-05-11T09:28:32Z</time>
      </trkpt>
      <trkpt lat="39.1762170" lon="-1.4870520">
        <ele>549.2</ele>
        <time>2019-05-11T09:28:33Z</time>
      </trkpt>
      <trkpt lat="39.1762400" lon="-1.4870490">
        <ele>549.4</ele>
        <time>2019-05-11T09:28:34Z</time>
      </trkpt>
      <trkpt lat="39.1762610" lon="-1.4870460">
        <ele>549.8</ele>
        <time>2019-05-11T09:28:35Z</time>
      </trkpt>
      <trkpt lat="39.1762820" lon="-1.4870410">
        <ele>550.2</ele>
        <time>2019-05-11T09:28:36Z</time>
      </trkpt>
      <trkpt lat="39.1763030" lon="-1.4870340">
        <ele>550.6</ele>
        <time>2019-05-11T09:28:37Z</time>
      </trkpt>
      <trkpt lat="39.1763220" lon="-1.4870230">
        <ele>551.0</ele>
        <time>2019-05-11T09:28:38Z</time>
      </trkpt>
      <trkpt lat="39.1763370" lon="-1.4870100">
        <ele>551.2</ele>
        <time>2019-05-11T09:28:39Z</time>
      </trkpt>
      <trkpt lat="39.1763510" lon="-1.4869940">
        <ele>551.6</ele>
        <time>2019-05-11T09:28:40Z</time>
      </trkpt>
      <trkpt lat="39.1763640" lon="-1.4869790">
        <ele>552.0</ele>
        <time>2019-05-11T09:28:41Z</time>
      </trkpt>
      <trkpt lat="39.1763780" lon="-1.4869690">
        <ele>552.2</ele>
        <time>2019-05-11T09:28:42Z</time>
      </trkpt>
      <trkpt lat="39.1763920" lon="-1.4869630">
        <ele>552.4</ele>
        <time>2019-05-11T09:28:43Z</time>
      </trkpt>
      <trkpt lat="39.1764060" lon="-1.4869610">
        <ele>552.8</ele>
        <time>2019-05-11T09:28:44Z</time>
      </trkpt>
      <trkpt lat="39.1764200" lon="-1.4869640">
        <ele>553.0</ele>
        <time>2019-05-11T09:28:45Z</time>
      </trkpt>
      <trkpt lat="39.1764310" lon="-1.4869730">
        <ele>553.2</ele>
        <time>2019-05-11T09:28:46Z</time>
      </trkpt>
      <trkpt lat="39.1764400" lon="-1.4869850">
        <ele>553.4</ele>
        <time>2019-05-11T09:28:47Z</time>
      </trkpt>
      <trkpt lat="39.1764490" lon="-1.4870010">
        <ele>553.6</ele>
        <time>2019-05-11T09:28:48Z</time>
      </trkpt>
      <trkpt lat="39.1764590" lon="-1.4870140">
        <ele>554.0</ele>
        <time>2019-05-11T09:28:49Z</time>
      </trkpt>
      <trkpt lat="39.1764690" lon="-1.4870260">
        <ele>554.2</ele>
        <time>2019-05-11T09:28:50Z</time>
      </trkpt>
      <trkpt lat="39.1764780" lon="-1.4870420">
        <ele>554.6</ele>
        <time>2019-05-11T09:28:51Z</time>
      </trkpt>
      <trkpt lat="39.1764870" lon="-1.4870590">
        <ele>554.8</ele>
        <time>2019-05-11T09:28:52Z</time>
      </trkpt>
      <trkpt lat="39.1764950" lon="-1.4870760">
        <ele>555.2</ele>
        <time>2019-05-11T09:28:53Z</time>
      </trkpt>
      <trkpt lat="39.1765060" lon="-1.4870880">
        <ele>555.4</ele>
        <time>2019-05-11T09:28:54Z</time>
      </trkpt>
      <trkpt lat="39.1765180" lon="-1.4870920">
        <ele>555.8</ele>
        <time>2019-05-11T09:28:55Z</time>
      </trkpt>
      <trkpt lat="39.1765290" lon="-1.4870860">
        <ele>556.0</ele>
        <time>2019-05-11T09:28:56Z</time>
      </trkpt>
      <trkpt lat="39.1765420" lon="-1.4870800">
        <ele>556.4</ele>
        <time>2019-05-11T09:28:57Z</time>
      </trkpt>
      <trkpt lat="39.1765570" lon="-1.4870740">
        <ele>556.6</ele>
        <time>2019-05-11T09:28:58Z</time>
      </trkpt>
      <trkpt lat="39.1765700" lon="-1.4870630">
        <ele>556.8</ele>
        <time>2019-05-11T09:28:59Z</time>
      </trkpt>
      <trkpt lat="39.1765790" lon="-1.4870460">
        <ele>557.0</ele>
        <time>2019-05-11T09:29:00Z</time>
      </trkpt>
      <trkpt lat="39.1765820" lon="-1.4870280">
        <ele>557.2</ele>
        <time>2019-05-11T09:29:01Z</time>
      </trkpt>
      <trkpt lat="39.1765770" lon="-1.4870120">
        <ele>557.4</ele>
        <time>2019-05-11T09:29:02Z</time>
      </trkpt>
      <trkpt lat="39.1765660" lon="-1.4870010">
        <ele>557.6</ele>
        <time>2019-05-11T09:29:03Z</time>
      </trkpt>
      <trkpt lat="39.1765540" lon="-1.4869910">
        <ele>557.8</ele>
        <time>2019-05-11T09:29:04Z</time>
      </trkpt>
      <trkpt lat="39.1765420" lon="-1.4869790">
        <ele>558.0</ele>
        <time>2019-05-11T09:29:05Z</time>
      </trkpt>
      <trkpt lat="39.1765330" lon="-1.4869640">
        <ele>558.0</ele>
        <time>2019-05-11T09:29:06Z</time>
      </trkpt>
      <trkpt lat="39.1765260" lon="-1.4869460">
        <ele>558.2</ele>
        <time>2019-05-11T09:29:07Z</time>
      </trkpt>
      <trkpt lat="39.1765210" lon="-1.4869260">
        <ele>558.4</ele>
        <time>2019-05-11T09:29:08Z</time>
      </trkpt>
      <trkpt lat="39.1765220" lon="-1.4869080">
        <ele>558.6</ele>
        <time>2019-05-11T09:29:09Z</time>
      </trkpt>
      <trkpt lat="39.1765290" lon="-1.4868910">
        <ele>559.0</ele>
        <time>2019-05-11T09:29:10Z</time>
      </trkpt>
      <trkpt lat="39.1765410" lon="-1.4868810">
        <ele>559.4</ele>
        <time>2019-05-11T09:29:11Z</time>
      </trkpt>
      <trkpt lat="39.1765540" lon="-1.4868790">
        <ele>559.6</ele>
        <time>2019-05-11T09:29:12Z</time>
      </trkpt>
      <trkpt lat="39.1765660" lon="-1.4868850">
        <ele>560.0</ele>
        <time>2019-05-11T09:29:13Z</time>
      </trkpt>
      <trkpt lat="39.1765810" lon="-1.4868950">
        <ele>560.0</ele>
        <time>2019-05-11T09:29:14Z</time>
      </trkpt>
      <trkpt lat="39.1765930" lon="-1.4869060">
        <ele>560.2</ele>
        <time>2019-05-11T09:29:15Z</time>
      </trkpt>
      <trkpt lat="39.1766060" lon="-1.4869150">
        <ele>560.4</ele>
        <time>2019-05-11T09:29:16Z</time>
      </trkpt>
      <trkpt lat="39.1766210" lon="-1.4869230">
        <ele>560.4</ele>
        <time>2019-05-11T09:29:17Z</time>
      </trkpt>
      <trkpt lat="39.1766360" lon="-1.4869240">
        <ele>560.6</ele>
        <time>2019-05-11T09:29:18Z</time>
      </trkpt>
      <trkpt lat="39.1766480" lon="-1.4869180">
        <ele>561.0</ele>
        <time>2019-05-11T09:29:19Z</time>
      </trkpt>
      <trkpt lat="39.1766600" lon="-1.4869070">
        <ele>561.0</ele>
        <time>2019-05-11T09:29:20Z</time>
      </trkpt>
      <trkpt lat="39.1766680" lon="-1.4868920">
        <ele>561.4</ele>
        <time>2019-05-11T09:29:21Z</time>
      </trkpt>
      <trkpt lat="39.1766660" lon="-1.4868760">
        <ele>561.6</ele>
        <time>2019-05-11T09:29:22Z</time>
      </trkpt>
      <trkpt lat="39.1766580" lon="-1.4868620">
        <ele>562.0</ele>
        <time>2019-05-11T09:29:23Z</time>
      </trkpt>
      <trkpt lat="39.1766460" lon="-1.4868500">
        <ele>562.2</ele>
        <time>2019-05-11T09:29:24Z</time>
      </trkpt>
      <trkpt lat="39.1766310" lon="-1.4868420">
        <ele>562.4</ele>
        <time>2019-05-11T09:29:25Z</time>
      </trkpt>
      <trkpt lat="39.1766180" lon="-1.4868350">
        <ele>562.6</ele>
        <time>2019-05-11T09:29:26Z</time>
      </trkpt>
      <trkpt lat="39.1766060" lon="-1.4868230">
        <ele>563.0</ele>
        <time>2019-05-11T09:29:27Z</time>
      </trkpt>
      <trkpt lat="39.1765970" lon="-1.4868080">
        <ele>563.2</ele>
        <time>2019-05-11T09:29:28Z</time>
      </trkpt>
      <trkpt lat="39.1765920" lon="-1.4867920">
        <ele>563.4</ele>
        <time>2019-05-11T09:29:29Z</time>
      </trkpt>
      <trkpt lat="39.1765900" lon="-1.4867730">
        <ele>563.6</ele>
        <time>2019-05-11T09:29:30Z</time>
      </trkpt>
      <trkpt lat="39.1765940" lon="-1.4867550">
        <ele>563.8</ele>
        <time>2019-05-11T09:29:31Z</time>
      </trkpt>
      <trkpt lat="39.1766030" lon="-1.4867390">
        <ele>563.8</ele>
        <time>2019-05-11T09:29:32Z</time>
      </trkpt>
      <trkpt lat="39.1766180" lon="-1.4867310">
        <ele>564.0</ele>
        <time>2019-05-11T09:29:33Z</time>
      </trkpt>
      <trkpt lat="39.1766350" lon="-1.4867280">
        <ele>564.0</ele>
        <time>2019-05-11T09:29:34Z</time>
      </trkpt>
      <trkpt lat="39.1766490" lon="-1.4867280">
        <ele>564.2</ele>
        <time>2019-05-11T09:29:35Z</time>
      </trkpt>
      <trkpt lat="39.1766640" lon="-1.4867300">
        <ele>564.4</ele>
        <time>2019-05-11T09:29:36Z</time>
      </trkpt>
      <trkpt lat="39.1766790" lon="-1.4867330">
        <ele>565.0</ele>
        <time>2019-05-11T09:29:37Z</time>
      </trkpt>
      <trkpt lat="39.1766930" lon="-1.4867370">
        <ele>565.0</ele>
        <time>2019-05-11T09:29:38Z</time>
      </trkpt>
      <trkpt lat="39.1767090" lon="-1.4867410">
        <ele>565.2</ele>
        <time>2019-05-11T09:29:39Z</time>
      </trkpt>
      <trkpt lat="39.1767250" lon="-1.4867460">
        <ele>565.6</ele>
        <time>2019-05-11T09:29:40Z</time>
      </trkpt>
      <trkpt lat="39.1767420" lon="-1.4867470">
        <ele>565.8</ele>
        <time>2019-05-11T09:29:41Z</time>
      </trkpt>
      <trkpt lat="39.1767580" lon="-1.4867460">
        <ele>566.2</ele>
        <time>2019-05-11T09:29:42Z</time>
      </trkpt>
      <trkpt lat="39.1767720" lon="-1.4867400">
        <ele>566.6</ele>
        <time>2019-05-11T09:29:43Z</time>
      </trkpt>
      <trkpt lat="39.1767840" lon="-1.4867300">
        <ele>567.0</ele>
        <time>2019-05-11T09:29:44Z</time>
      </trkpt>
      <trkpt lat="39.1767950" lon="-1.4867190">
        <ele>567.4</ele>
        <time>2019-05-11T09:29:45Z</time>
      </trkpt>
      <trkpt lat="39.1768040" lon="-1.4867060">
        <ele>567.4</ele>
        <time>2019-05-11T09:29:46Z</time>
      </trkpt>
      <trkpt lat="39.1768130" lon="-1.4866930">
        <ele>567.6</ele>
        <time>2019-05-11T09:29:47Z</time>
      </trkpt>
      <trkpt lat="39.1768210" lon="-1.4866790">
        <ele>567.8</ele>
        <time>2019-05-11T09:29:48Z</time>
      </trkpt>
      <trkpt lat="39.1768280" lon="-1.4866650">
        <ele>568.2</ele>
        <time>2019-05-11T09:29:49Z</time>
      </trkpt>
      <trkpt lat="39.1768350" lon="-1.4866540">
        <ele>568.2</ele>
        <time>2019-05-11T09:29:50Z</time>
      </trkpt>
      <trkpt lat="39.1768390" lon="-1.4866400">
        <ele>568.4</ele>
        <time>2019-05-11T09:29:51Z</time>
      </trkpt>
      <trkpt lat="39.1768440" lon="-1.4866250">
        <ele>568.8</ele>
        <time>2019-05-11T09:29:52Z</time>
      </trkpt>
      <trkpt lat="39.1768510" lon="-1.4866090">
        <ele>568.8</ele>
        <time>2019-05-11T09:29:53Z</time>
      </trkpt>
      <trkpt lat="39.1768570" lon="-1.4865940">
        <ele>569.0</ele>
        <time>2019-05-11T09:29:54Z</time>
      </trkpt>
      <trkpt lat="39.1768640" lon="-1.4865820">
        <ele>569.4</ele>
        <time>2019-05-11T09:29:55Z</time>
      </trkpt>
      <trkpt lat="39.1768750" lon="-1.4865710">
        <ele>569.6</ele>
        <time>2019-05-11T09:29:56Z</time>
      </trkpt>
      <trkpt lat="39.1768870" lon="-1.4865590">
        <ele>570.0</ele>
        <time>2019-05-11T09:29:57Z</time>
      </trkpt>
      <trkpt lat="39.1768980" lon="-1.4865470">
        <ele>570.2</ele>
        <time>2019-05-11T09:29:58Z</time>
      </trkpt>
      <trkpt lat="39.1769080" lon="-1.4865350">
        <ele>570.8</ele>
        <time>2019-05-11T09:29:59Z</time>
      </trkpt>
      <trkpt lat="39.1769170" lon="-1.4865220">
        <ele>570.8</ele>
        <time>2019-05-11T09:30:00Z</time>
      </trkpt>
      <trkpt lat="39.1769250" lon="-1.4865090">
        <ele>571.4</ele>
        <time>2019-05-11T09:30:01Z</time>
      </trkpt>
      <trkpt lat="39.1769330" lon="-1.4864950">
        <ele>571.8</ele>
        <time>2019-05-11T09:30:02Z</time>
      </trkpt>
      <trkpt lat="39.1769420" lon="-1.4864820">
        <ele>572.0</ele>
        <time>2019-05-11T09:30:03Z</time>
      </trkpt>
      <trkpt lat="39.1769520" lon="-1.4864700">
        <ele>572.2</ele>
        <time>2019-05-11T09:30:04Z</time>
      </trkpt>
      <trkpt lat="39.1769620" lon="-1.4864590">
        <ele>572.6</ele>
        <time>2019-05-11T09:30:05Z</time>
      </trkpt>
      <trkpt lat="39.1769740" lon="-1.4864520">
        <ele>573.0</ele>
        <time>2019-05-11T09:30:06Z</time>
      </trkpt>
      <trkpt lat="39.1769860" lon="-1.4864450">
        <ele>573.2</ele>
        <time>2019-05-11T09:30:07Z</time>
      </trkpt>
      <trkpt lat="39.1769960" lon="-1.4864350">
        <ele>573.4</ele>
        <time>2019-05-11T09:30:08Z</time>
      </trkpt>
      <trkpt lat="39.1770070" lon="-1.4864240">
        <ele>573.6</ele>
        <time>2019-05-11T09:30:09Z</time>
      </trkpt>
      <trkpt lat="39.1770180" lon="-1.4864130">
        <ele>574.0</ele>
        <time>2019-05-11T09:30:10Z</time>
      </trkpt>
      <trkpt lat="39.1770290" lon="-1.4864020">
        <ele>574.4</ele>
        <time>2019-05-11T09:30:11Z</time>
      </trkpt>
      <trkpt lat="39.1770390" lon="-1.4863910">
        <ele>574.6</ele>
        <time>2019-05-11T09:30:12Z</time>
      </trkpt>
      <trkpt lat="39.1770500" lon="-1.4863800">
        <ele>575.0</ele>
        <time>2019-05-11T09:30:13Z</time>
      </trkpt>
      <trkpt lat="39.1770610" lon="-1.4863690">
        <ele>575.2</ele>
        <time>2019-05-11T09:30:14Z</time>
      </trkpt>
      <trkpt lat="39.1770730" lon="-1.4863570">
        <ele>575.2</ele>
        <time>2019-05-11T09:30:15Z</time>
      </trkpt>
      <trkpt lat="39.1770840" lon="-1.4863450">
        <ele>575.4</ele>
        <time>2019-05-11T09:30:16Z</time>
      </trkpt>
      <trkpt lat="39.1770910" lon="-1.4863310">
        <ele>576.0</ele>
        <time>2019-05-11T09:30:17Z</time>
      </trkpt>
      <trkpt lat="39.1770950" lon="-1.4863170">
        <ele>576.0</ele>
        <time>2019-05-11T09:30:18Z</time>
      </trkpt>
      <trkpt lat="39.1770950" lon="-1.4863020">
        <ele>576.6</ele>
        <time>2019-05-11T09:30:19Z</time>
      </trkpt>
      <trkpt lat="39.1770910" lon="-1.4862870">
        <ele>576.6</ele>
        <time>2019-05-11T09:30:20Z</time>
      </trkpt>
      <trkpt lat="39.1770840" lon="-1.4862730">
        <ele>576.8</ele>
        <time>2019-05-11T09:30:21Z</time>
      </trkpt>
      <trkpt lat="39.1770770" lon="-1.4862600">
        <ele>577.0</ele>
        <time>2019-05-11T09:30:22Z</time>
      </trkpt>
      <trkpt lat="39.1770710" lon="-1.4862470">
        <ele>577.4</ele>
        <time>2019-05-11T09:30:23Z</time>
      </trkpt>
      <trkpt lat="39.1770650" lon="-1.4862340">
        <ele>577.4</ele>
        <time>2019-05-11T09:30:24Z</time>
      </trkpt>
      <trkpt lat="39.1770590" lon="-1.4862200">
        <ele>577.8</ele>
        <time>2019-05-11T09:30:25Z</time>
      </trkpt>
      <trkpt lat="39.1770520" lon="-1.4862070">
        <ele>578.0</ele>
        <time>2019-05-11T09:30:26Z</time>
      </trkpt>
      <trkpt lat="39.1770470" lon="-1.4861920">
        <ele>578.2</ele>
        <time>2019-05-11T09:30:27Z</time>
      </trkpt>
      <trkpt lat="39.1770410" lon="-1.4861760">
        <ele>578.4</ele>
        <time>2019-05-11T09:30:28Z</time>
      </trkpt>
      <trkpt lat="39.1770350" lon="-1.4861610">
        <ele>578.6</ele>
        <time>2019-05-11T09:30:29Z</time>
      </trkpt>
      <trkpt lat="39.1770290" lon="-1.4861470">
        <ele>578.8</ele>
        <time>2019-05-11T09:30:30Z</time>
      </trkpt>
      <trkpt lat="39.1770240" lon="-1.4861320">
        <ele>579.2</ele>
        <time>2019-05-11T09:30:31Z</time>
      </trkpt>
      <trkpt lat="39.1770170" lon="-1.4861160">
        <ele>579.2</ele>
        <time>2019-05-11T09:30:32Z</time>
      </trkpt>
      <trkpt lat="39.1770080" lon="-1.4860990">
        <ele>579.4</ele>
        <time>2019-05-11T09:30:33Z</time>
      </trkpt>
      <trkpt lat="39.1769990" lon="-1.4860840">
        <ele>579.8</ele>
        <time>2019-05-11T09:30:34Z</time>
      </trkpt>
      <trkpt lat="39.1769910" lon="-1.4860700">
        <ele>580.0</ele>
        <time>2019-05-11T09:30:35Z</time>
      </trkpt>
      <trkpt lat="39.1769850" lon="-1.4860570">
        <ele>580.0</ele>
        <time>2019-05-11T09:30:36Z</time>
      </trkpt>
      <trkpt lat="39.1769810" lon="-1.4860430">
        <ele>580.6</ele>
        <time>2019-05-11T09:30:37Z</time>
      </trkpt>
      <trkpt lat="39.1769770" lon="-1.4860270">
        <ele>580.6</ele>
        <time>2019-05-11T09:30:38Z</time>
      </trkpt>
      <trkpt lat="39.1769750" lon="-1.4860100">
        <ele>580.8</ele>
        <time>2019-05-11T09:30:39Z</time>
      </trkpt>
      <trkpt lat="39.1769750" lon="-1.4859930">
        <ele>581.2</ele>
        <time>2019-05-11T09:30:40Z</time>
      </trkpt>
      <trkpt lat="39.1769740" lon="-1.4859770">
        <ele>581.4</ele>
        <time>2019-05-11T09:30:41Z</time>
      </trkpt>
      <trkpt lat="39.1769740" lon="-1.4859600">
        <ele>581.8</ele>
        <time>2019-05-11T09:30:42Z</time>
      </trkpt>
      <trkpt lat="39.1769720" lon="-1.4859420">
        <ele>582.0</ele>
        <time>2019-05-11T09:30:43Z</time>
      </trkpt>
      <trkpt lat="39.1769690" lon="-1.4859250">
        <ele>582.4</ele>
        <time>2019-05-11T09:30:44Z</time>
      </trkpt>
      <trkpt lat="39.1769670" lon="-1.4859070">
        <ele>582.6</ele>
        <time>2019-05-11T09:30:45Z</time>
      </trkpt>
      <trkpt lat="39.1769660" lon="-1.4858900">
        <ele>582.8</ele>
        <time>2019-05-11T09:30:46Z</time>
      </trkpt>
      <trkpt lat="39.1769630" lon="-1.4858740">
        <ele>583.2</ele>
        <time>2019-05-11T09:30:47Z</time>
      </trkpt>
      <trkpt lat="39.1769610" lon="-1.4858560">
        <ele>583.4</ele>
        <time>2019-05-11T09:30:48Z</time>
      </trkpt>
      <trkpt lat="39.1769580" lon="-1.4858400">
        <ele>583.6</ele>
        <time>2019-05-11T09:30:49Z</time>
      </trkpt>
      <trkpt lat="39.1769530" lon="-1.4858260">
        <ele>583.8</ele>
        <time>2019-05-11T09:30:50Z</time>
      </trkpt>
      <trkpt lat="39.1769490" lon="-1.4858120">
        <ele>584.0</ele>
        <time>2019-05-11T09:30:51Z</time>
      </trkpt>
      <trkpt lat="39.1769460" lon="-1.4857960">
        <ele>584.0</ele>
        <time>2019-05-11T09:30:52Z</time>
      </trkpt>
      <trkpt lat="39.1769440" lon="-1.4857780">
        <ele>584.4</ele>
        <time>2019-05-11T09:30:53Z</time>
      </trkpt>
      <trkpt lat="39.1769430" lon="-1.4857600">
        <ele>584.6</ele>
        <time>2019-05-11T09:30:54Z</time>
      </trkpt>
      <trkpt lat="39.1769400" lon="-1.4857430">
        <ele>584.8</ele>
        <time>2019-05-11T09:30:55Z</time>
      </trkpt>
      <trkpt lat="39.1769360" lon="-1.4857300">
        <ele>585.0</ele>
        <time>2019-05-11T09:30:56Z</time>
      </trkpt>
      <trkpt lat="39.1769300" lon="-1.4857160">
        <ele>585.2</ele>
        <time>2019-05-11T09:30:57Z</time>
      </trkpt>
      <trkpt lat="39.1769240" lon="-1.4857010">
        <ele>585.6</ele>
        <time>2019-05-11T09:30:58Z</time>
      </trkpt>
      <trkpt lat="39.1769190" lon="-1.4856860">
        <ele>585.8</ele>
        <time>2019-05-11T09:30:59Z</time>
      </trkpt>
      <trkpt lat="39.1769150" lon="-1.4856710">
        <ele>586.0</ele>
        <time>2019-05-11T09:31:00Z</time>
      </trkpt>
      <trkpt lat="39.1769090" lon="-1.4856570">
        <ele>586.2</ele>
        <time>2019-05-11T09:31:01Z</time>
      </trkpt>
      <trkpt lat="39.1769030" lon="-1.4856450">
        <ele>586.4</ele>
        <time>2019-05-11T09:31:02Z</time>
      </trkpt>
      <trkpt lat="39.1768990" lon="-1.4856330">
        <ele>586.6</ele>
        <time>2019-05-11T09:31:03Z</time>
      </trkpt>
      <trkpt lat="39.1768970" lon="-1.4856180">
        <ele>587.0</ele>
        <time>2019-05-11T09:31:04Z</time>
      </trkpt>
      <trkpt lat="39.1768940" lon="-1.4856010">
        <ele>587.0</ele>
        <time>2019-05-11T09:31:05Z</time>
      </trkpt>
      <trkpt lat="39.1768920" lon="-1.4855870">
        <ele>587.2</ele>
        <time>2019-05-11T09:31:06Z</time>
      </trkpt>
      <trkpt lat="39.1768940" lon="-1.4855750">
        <ele>587.4</ele>
        <time>2019-05-11T09:31:07Z</time>
      </trkpt>
      <trkpt lat="39.1768970" lon="-1.4855630">
        <ele>587.6</ele>
        <time>2019-05-11T09:31:08Z</time>
      </trkpt>
      <trkpt lat="39.1769050" lon="-1.4855560">
        <ele>587.8</ele>
        <time>2019-05-11T09:31:09Z</time>
      </trkpt>
      <trkpt lat="39.1769160" lon="-1.4855520">
        <ele>588.0</ele>
        <time>2019-05-11T09:31:10Z</time>
      </trkpt>
      <trkpt lat="39.1769300" lon="-1.4855490">
        <ele>588.6</ele>
        <time>2019-05-11T09:31:11Z</time>
      </trkpt>
      <trkpt lat="39.1769460" lon="-1.4855520">
        <ele>589.0</ele>
        <time>2019-05-11T09:31:12Z</time>
      </trkpt>
      <trkpt lat="39.1769610" lon="-1.4855560">
        <ele>589.2</ele>
        <time>2019-05-11T09:31:13Z</time>
      </trkpt>
      <trkpt lat="39.1769760" lon="-1.4855620">
        <ele>589.4</ele>
        <time>2019-05-11T09:31:14Z</time>
      </trkpt>
      <trkpt lat="39.1769920" lon="-1.4855680">
        <ele>589.6</ele>
        <time>2019-05-11T09:31:15Z</time>
      </trkpt>
      <trkpt lat="39.1770080" lon="-1.4855730">
        <ele>590.0</ele>
        <time>2019-05-11T09:31:16Z</time>
      </trkpt>
      <trkpt lat="39.1770230" lon="-1.4855760">
        <ele>590.0</ele>
        <time>2019-05-11T09:31:17Z</time>
      </trkpt>
      <trkpt lat="39.1770380" lon="-1.4855810">
        <ele>590.2</ele>
        <time>2019-05-11T09:31:18Z</time>
      </trkpt>
      <trkpt lat="39.1770510" lon="-1.4855880">
        <ele>590.4</ele>
        <time>2019-05-11T09:31:19Z</time>
      </trkpt>
      <trkpt lat="39.1770640" lon="-1.4855940">
        <ele>590.8</ele>
        <time>2019-05-11T09:31:20Z</time>
      </trkpt>
      <trkpt lat="39.1770770" lon="-1.4856010">
        <ele>591.0</ele>
        <time>2019-05-11T09:31:21Z</time>
      </trkpt>
      <trkpt lat="39.1770910" lon="-1.4856080">
        <ele>591.2</ele>
        <time>2019-05-11T09:31:22Z</time>
      </trkpt>
      <trkpt lat="39.1771060" lon="-1.4856150">
        <ele>591.4</ele>
        <time>2019-05-11T09:31:23Z</time>
      </trkpt>
      <trkpt lat="39.1771220" lon="-1.4856220">
        <ele>591.6</ele>
        <time>2019-05-11T09:31:24Z</time>
      </trkpt>
      <trkpt lat="39.1771360" lon="-1.4856270">
        <ele>591.8</ele>
        <time>2019-05-11T09:31:25Z</time>
      </trkpt>
      <trkpt lat="39.1771510" lon="-1.4856310">
        <ele>591.8</ele>
        <time>2019-05-11T09:31:26Z</time>
      </trkpt>
      <trkpt lat="39.1771670" lon="-1.4856340">
        <ele>592.0</ele>
        <time>2019-05-11T09:31:27Z</time>
      </trkpt>
      <trkpt lat="39.1771840" lon="-1.4856330">
        <ele>592.2</ele>
        <time>2019-05-11T09:31:28Z</time>
      </trkpt>
      <trkpt lat="39.1772000" lon="-1.4856270">
        <ele>592.2</ele>
        <time>2019-05-11T09:31:29Z</time>
      </trkpt>
      <trkpt lat="39.1772160" lon="-1.4856180">
        <ele>592.4</ele>
        <time>2019-05-11T09:31:30Z</time>
      </trkpt>
      <trkpt lat="39.1772310" lon="-1.4856100">
        <ele>592.4</ele>
        <time>2019-05-11T09:31:31Z</time>
      </trkpt>
      <trkpt lat="39.1772450" lon="-1.4856010">
        <ele>592.4</ele>
        <time>2019-05-11T09:31:32Z</time>
      </trkpt>
      <trkpt lat="39.1772530" lon="-1.4855870">
        <ele>592.4</ele>
        <time>2019-05-11T09:31:33Z</time>
      </trkpt>
      <trkpt lat="39.1772510" lon="-1.4855690">
        <ele>592.6</ele>
        <time>2019-05-11T09:31:34Z</time>
      </trkpt>
      <trkpt lat="39.1772420" lon="-1.4855550">
        <ele>592.6</ele>
        <time>2019-05-11T09:31:35Z</time>
      </trkpt>
      <trkpt lat="39.1772290" lon="-1.4855470">
        <ele>592.8</ele>
        <time>2019-05-11T09:31:36Z</time>
      </trkpt>
      <trkpt lat="39.1772160" lon="-1.4855410">
        <ele>592.8</ele>
        <time>2019-05-11T09:31:37Z</time>
      </trkpt>
      <trkpt lat="39.1772030" lon="-1.4855330">
        <ele>592.8</ele>
        <time>2019-05-11T09:31:38Z</time>
      </trkpt>
      <trkpt lat="39.1771910" lon="-1.4855240">
        <ele>593.0</ele>
        <time>2019-05-11T09:31:39Z</time>
      </trkpt>
      <trkpt lat="39.1771790" lon="-1.4855130">
        <ele>593.0</ele>
        <time>2019-05-11T09:31:40Z</time>
      </trkpt>
      <trkpt lat="39.1771680" lon="-1.4855020">
        <ele>593.2</ele>
        <time>2019-05-11T09:31:41Z</time>
      </trkpt>
      <trkpt lat="39.1771580" lon="-1.4854910">
        <ele>593.4</ele>
        <time>2019-05-11T09:31:42Z</time>
      </trkpt>
      <trkpt lat="39.1771490" lon="-1.4854780">
        <ele>593.6</ele>
        <time>2019-05-11T09:31:43Z</time>
      </trkpt>
      <trkpt lat="39.1771410" lon="-1.4854650">
        <ele>593.8</ele>
        <time>2019-05-11T09:31:44Z</time>
      </trkpt>
      <trkpt lat="39.1771340" lon="-1.4854490">
        <ele>594.2</ele>
        <time>2019-05-11T09:31:45Z</time>
      </trkpt>
      <trkpt lat="39.1771300" lon="-1.4854300">
        <ele>594.6</ele>
        <time>2019-05-11T09:31:46Z</time>
      </trkpt>
      <trkpt lat="39.1771290" lon="-1.4854110">
        <ele>594.8</ele>
        <time>2019-05-11T09:31:47Z</time>
      </trkpt>
      <trkpt lat="39.1771310" lon="-1.4853920">
        <ele>595.0</ele>
        <time>2019-05-11T09:31:48Z</time>
      </trkpt>
      <trkpt lat="39.1771320" lon="-1.4853750">
        <ele>595.4</ele>
        <time>2019-05-11T09:31:49Z</time>
      </trkpt>
      <trkpt lat="39.1771270" lon="-1.4853600">
        <ele>595.6</ele>
        <time>2019-05-11T09:31:50Z</time>
      </trkpt>
      <trkpt lat="39.1771190" lon="-1.4853480">
        <ele>595.8</ele>
        <time>2019-05-11T09:31:51Z</time>
      </trkpt>
      <trkpt lat="39.1771110" lon="-1.4853350">
        <ele>596.0</ele>
        <time>2019-05-11T09:31:52Z</time>
      </trkpt>
      <trkpt lat="39.1771030" lon="-1.4853220">
        <ele>596.2</ele>
        <time>2019-05-11T09:31:53Z</time>
      </trkpt>
      <trkpt lat="39.1770940" lon="-1.4853110">
        <ele>596.4</ele>
        <time>2019-05-11T09:31:54Z</time>
      </trkpt>
      <trkpt lat="39.1770830" lon="-1.4852980">
        <ele>596.6</ele>
        <time>2019-05-11T09:31:55Z</time>
      </trkpt>
      <trkpt lat="39.1770730" lon="-1.4852860">
        <ele>597.0</ele>
        <time>2019-05-11T09:31:56Z</time>
      </trkpt>
      <trkpt lat="39.1770640" lon="-1.4852740">
        <ele>597.2</ele>
        <time>2019-05-11T09:31:57Z</time>
      </trkpt>
      <trkpt lat="39.1770550" lon="-1.4852620">
        <ele>597.4</ele>
        <time>2019-05-11T09:31:58Z</time>
      </trkpt>
      <trkpt lat="39.1770450" lon="-1.4852490">
        <ele>597.6</ele>
        <time>2019-05-11T09:31:59Z</time>
      </trkpt>
      <trkpt lat="39.1770370" lon="-1.4852340">
        <ele>597.8</ele>
        <time>2019-05-11T09:32:00Z</time>
      </trkpt>
      <trkpt lat="39.1770320" lon="-1.4852180">
        <ele>598.0</ele>
        <time>2019-05-11T09:32:01Z</time>
      </trkpt>
      <trkpt lat="39.1770260" lon="-1.4852030">
        <ele>598.2</ele>
        <time>2019-05-11T09:32:02Z</time>
      </trkpt>
      <trkpt lat="39.1770200" lon="-1.4851870">
        <ele>598.4</ele>
        <time>2019-05-11T09:32:03Z</time>
      </trkpt>
      <trkpt lat="39.1770170" lon="-1.4851700">
        <ele>598.6</ele>
        <time>2019-05-11T09:32:04Z</time>
      </trkpt>
      <trkpt lat="39.1770130" lon="-1.4851550">
        <ele>598.6</ele>
        <time>2019-05-11T09:32:05Z</time>
      </trkpt>
      <trkpt lat="39.1770080" lon="-1.4851410">
        <ele>598.8</ele>
        <time>2019-05-11T09:32:06Z</time>
      </trkpt>
      <trkpt lat="39.1770010" lon="-1.4851280">
        <ele>599.2</ele>
        <time>2019-05-11T09:32:07Z</time>
      </trkpt>
      <trkpt lat="39.1769920" lon="-1.4851170">
        <ele>599.4</ele>
        <time>2019-05-11T09:32:08Z</time>
      </trkpt>
      <trkpt lat="39.1769800" lon="-1.4851120">
        <ele>599.6</ele>
        <time>2019-05-11T09:32:09Z</time>
      </trkpt>
      <trkpt lat="39.1769670" lon="-1.4851080">
        <ele>599.8</ele>
        <time>2019-05-11T09:32:10Z</time>
      </trkpt>
      <trkpt lat="39.1769540" lon="-1.4851050">
        <ele>600.0</ele>
        <time>2019-05-11T09:32:11Z</time>
      </trkpt>
      <trkpt lat="39.1769400" lon="-1.4851030">
        <ele>600.0</ele>
        <time>2019-05-11T09:32:12Z</time>
      </trkpt>
      <trkpt lat="39.1769290" lon="-1.4850960">
        <ele>600.4</ele>
        <time>2019-05-11T09:32:13Z</time>
      </trkpt>
      <trkpt lat="39.1769220" lon="-1.4850840">
        <ele>600.8</ele>
        <time>2019-05-11T09:32:14Z</time>
      </trkpt>
      <trkpt lat="39.1769200" lon="-1.4850690">
        <ele>601.0</ele>
        <time>2019-05-11T09:32:15Z</time>
      </trkpt>
      <trkpt lat="39.1769220" lon="-1.4850540">
        <ele>601.4</ele>
        <time>2019-05-11T09:32:16Z</time>
      </trkpt>
      <trkpt lat="39.1769270" lon="-1.4850380">
        <ele>601.6</ele>
        <time>2019-05-11T09:32:17Z</time>
      </trkpt>
      <trkpt lat="39.1769330" lon="-1.4850210">
        <ele>601.8</ele>
        <time>2019-05-11T09:32:18Z</time>
      </trkpt>
      <trkpt lat="39.1769370" lon="-1.4850050">
        <ele>602.0</ele>
        <time>2019-05-11T09:32:19Z</time>
      </trkpt>
      <trkpt lat="39.1769370" lon="-1.4849910">
        <ele>602.6</ele>
        <time>2019-05-11T09:32:20Z</time>
      </trkpt>
      <trkpt lat="39.1769330" lon="-1.4849780">
        <ele>602.8</ele>
        <time>2019-05-11T09:32:21Z</time>
      </trkpt>
      <trkpt lat="39.1769250" lon="-1.4849640">
        <ele>602.8</ele>
        <time>2019-05-11T09:32:22Z</time>
      </trkpt>
      <trkpt lat="39.1769160" lon="-1.4849520">
        <ele>603.2</ele>
        <time>2019-05-11T09:32:23Z</time>
      </trkpt>
      <trkpt lat="39.1769100" lon="-1.4849380">
        <ele>603.4</ele>
        <time>2019-05-11T09:32:24Z</time>
      </trkpt>
      <trkpt lat="39.1769090" lon="-1.4849220">
        <ele>603.8</ele>
        <time>2019-05-11T09:32:25Z</time>
      </trkpt>
      <trkpt lat="39.1769080" lon="-1.4849060">
        <ele>604.2</ele>
        <time>2019-05-11T09:32:26Z</time>
      </trkpt>
      <trkpt lat="39.1769070" lon="-1.4848900">
        <ele>604.4</ele>
        <time>2019-05-11T09:32:27Z</time>
      </trkpt>
      <trkpt lat="39.1769080" lon="-1.4848740">
        <ele>604.4</ele>
        <time>2019-05-11T09:32:28Z</time>
      </trkpt>
      <trkpt lat="39.1769110" lon="-1.4848580">
        <ele>604.6</ele>
        <time>2019-05-11T09:32:29Z</time>
      </trkpt>
      <trkpt lat="39.1769120" lon="-1.4848430">
        <ele>605.0</ele>
        <time>2019-05-11T09:32:30Z</time>
      </trkpt>
      <trkpt lat="39.1769130" lon="-1.4848280">
        <ele>605.6</ele>
        <time>2019-05-11T09:32:31Z</time>
      </trkpt>
      <trkpt lat="39.1769140" lon="-1.4848120">
        <ele>605.6</ele>
        <time>2019-05-11T09:32:32Z</time>
      </trkpt>
      <trkpt lat="39.1769130" lon="-1.4847980">
        <ele>605.8</ele>
        <time>2019-05-11T09:32:33Z</time>
      </trkpt>
      <trkpt lat="39.1769080" lon="-1.4847860">
        <ele>606.0</ele>
        <time>2019-05-11T09:32:34Z</time>
      </trkpt>
      <trkpt lat="39.1769010" lon="-1.4847750">
        <ele>606.2</ele>
        <time>2019-05-11T09:32:35Z</time>
      </trkpt>
      <trkpt lat="39.1768950" lon="-1.4847610">
        <ele>606.6</ele>
        <time>2019-05-11T09:32:36Z</time>
      </trkpt>
      <trkpt lat="39.1768890" lon="-1.4847470">
        <ele>606.8</ele>
        <time>2019-05-11T09:32:37Z</time>
      </trkpt>
      <trkpt lat="39.1768860" lon="-1.4847330">
        <ele>606.8</ele>
        <time>2019-05-11T09:32:38Z</time>
      </trkpt>
      <trkpt lat="39.1768910" lon="-1.4847150">
        <ele>607.0</ele>
        <time>2019-05-11T09:32:39Z</time>
      </trkpt>
      <trkpt lat="39.1768970" lon="-1.4846980">
        <ele>607.2</ele>
        <time>2019-05-11T09:32:40Z</time>
      </trkpt>
      <trkpt lat="39.1769030" lon="-1.4846810">
        <ele>607.4</ele>
        <time>2019-05-11T09:32:41Z</time>
      </trkpt>
      <trkpt lat="39.1769070" lon="-1.4846640">
        <ele>607.6</ele>
        <time>2019-05-11T09:32:42Z</time>
      </trkpt>
      <trkpt lat="39.1769100" lon="-1.4846490">
        <ele>607.8</ele>
        <time>2019-05-11T09:32:43Z</time>
      </trkpt>
      <trkpt lat="39.1769100" lon="-1.4846350">
        <ele>608.0</ele>
        <time>2019-05-11T09:32:44Z</time>
      </trkpt>
      <trkpt lat="39.1769100" lon="-1.4846200">
        <ele>608.4</ele>
        <time>2019-05-11T09:32:45Z</time>
      </trkpt>
      <trkpt lat="39.1769090" lon="-1.4846050">
        <ele>608.8</ele>
        <time>2019-05-11T09:32:46Z</time>
      </trkpt>
      <trkpt lat="39.1769070" lon="-1.4845910">
        <ele>608.8</ele>
        <time>2019-05-11T09:32:47Z</time>
      </trkpt>
      <trkpt lat="39.1769030" lon="-1.4845770">
        <ele>609.0</ele>
        <time>2019-05-11T09:32:48Z</time>
      </trkpt>
      <trkpt lat="39.1768980" lon="-1.4845630">
        <ele>609.2</ele>
        <time>2019-05-11T09:32:49Z</time>
      </trkpt>
      <trkpt lat="39.1768930" lon="-1.4845490">
        <ele>609.4</ele>
        <time>2019-05-11T09:32:50Z</time>
      </trkpt>
      <trkpt lat="39.1768870" lon="-1.4845360">
        <ele>609.6</ele>
        <time>2019-05-11T09:32:51Z</time>
      </trkpt>
      <trkpt lat="39.1768780" lon="-1.4845260">
        <ele>609.6</ele>
        <time>2019-05-11T09:32:52Z</time>
      </trkpt>
      <trkpt lat="39.1768670" lon="-1.4845190">
        <ele>609.8</ele>
        <time>2019-05-11T09:32:53Z</time>
      </trkpt>
      <trkpt lat="39.1768560" lon="-1.4845130">
        <ele>610.2</ele>
        <time>2019-05-11T09:32:54Z</time>
      </trkpt>
      <trkpt lat="39.1768450" lon="-1.4845060">
        <ele>610.6</ele>
        <time>2019-05-11T09:32:55Z</time>
      </trkpt>
      <trkpt lat="39.1768360" lon="-1.4844960">
        <ele>610.8</ele>
        <time>2019-05-11T09:32:56Z</time>
      </trkpt>
      <trkpt lat="39.1768290" lon="-1.4844830">
        <ele>611.0</ele>
        <time>2019-05-11T09:32:57Z</time>
      </trkpt>
      <trkpt lat="39.1768230" lon="-1.4844680">
        <ele>611.2</ele>
        <time>2019-05-11T09:32:58Z</time>
      </trkpt>
      <trkpt lat="39.1768190" lon="-1.4844530">
        <ele>611.6</ele>
        <time>2019-05-11T09:32:59Z</time>
      </trkpt>
      <trkpt lat="39.1768170" lon="-1.4844380">
        <ele>611.8</ele>
        <time>2019-05-11T09:33:00Z</time>
      </trkpt>
      <trkpt lat="39.1768170" lon="-1.4844210">
        <ele>612.0</ele>
        <time>2019-05-11T09:33:01Z</time>
      </trkpt>
      <trkpt lat="39.1768160" lon="-1.4844030">
        <ele>612.2</ele>
        <time>2019-05-11T09:33:02Z</time>
      </trkpt>
      <trkpt lat="39.1768120" lon="-1.4843840">
        <ele>612.4</ele>
        <time>2019-05-11T09:33:03Z</time>
      </trkpt>
      <trkpt lat="39.1768070" lon="-1.4843680">
        <ele>612.6</ele>
        <time>2019-05-11T09:33:04Z</time>
      </trkpt>
      <trkpt lat="39.1768000" lon="-1.4843570">
        <ele>612.6</ele>
        <time>2019-05-11T09:33:05Z</time>
      </trkpt>
      <trkpt lat="39.1767900" lon="-1.4843530">
        <ele>612.8</ele>
        <time>2019-05-11T09:33:06Z</time>
      </trkpt>
      <trkpt lat="39.1767800" lon="-1.4843560">
        <ele>613.0</ele>
        <time>2019-05-11T09:33:07Z</time>
      </trkpt>
      <trkpt lat="39.1767710" lon="-1.4843650">
        <ele>613.0</ele>
        <time>2019-05-11T09:33:08Z</time>
      </trkpt>
      <trkpt lat="39.1767650" lon="-1.4843770">
        <ele>613.2</ele>
        <time>2019-05-11T09:33:09Z</time>
      </trkpt>
      <trkpt lat="39.1767610" lon="-1.4843920">
        <ele>613.4</ele>
        <time>2019-05-11T09:33:10Z</time>
      </trkpt>
      <trkpt lat="39.1767570" lon="-1.4844080">
        <ele>613.8</ele>
        <time>2019-05-11T09:33:11Z</time>
      </trkpt>
      <trkpt lat="39.1767520" lon="-1.4844230">
        <ele>614.2</ele>
        <time>2019-05-11T09:33:12Z</time>
      </trkpt>
      <trkpt lat="39.1767460" lon="-1.4844370">
        <ele>614.4</ele>
        <time>2019-05-11T09:33:13Z</time>
      </trkpt>
      <trkpt lat="39.1767400" lon="-1.4844510">
        <ele>614.8</ele>
        <time>2019-05-11T09:33:14Z</time>
      </trkpt>
      <trkpt lat="39.1767320" lon="-1.4844630">
        <ele>615.0</ele>
        <time>2019-05-11T09:33:15Z</time>
      </trkpt>
      <trkpt lat="39.1767240" lon="-1.4844730">
        <ele>615.0</ele>
        <time>2019-05-11T09:33:16Z</time>
      </trkpt>
      <trkpt lat="39.1767140" lon="-1.4844790">
        <ele>615.2</ele>
        <time>2019-05-11T09:33:17Z</time>
      </trkpt>
      <trkpt lat="39.1767030" lon="-1.4844850">
        <ele>615.4</ele>
        <time>2019-05-11T09:33:18Z</time>
      </trkpt>
      <trkpt lat="39.1766930" lon="-1.4844940">
        <ele>615.4</ele>
        <time>2019-05-11T09:33:19Z</time>
      </trkpt>
      <trkpt lat="39.1766830" lon="-1.4845070">
        <ele>615.6</ele>
        <time>2019-05-11T09:33:20Z</time>
      </trkpt>
      <trkpt lat="39.1766740" lon="-1.4845190">
        <ele>615.8</ele>
        <time>2019-05-11T09:33:21Z</time>
      </trkpt>
      <trkpt lat="39.1766660" lon="-1.4845310">
        <ele>616.0</ele>
        <time>2019-05-11T09:33:22Z</time>
      </trkpt>
      <trkpt lat="39.1766560" lon="-1.4845400">
        <ele>616.4</ele>
        <time>2019-05-11T09:33:23Z</time>
      </trkpt>
      <trkpt lat="39.1766450" lon="-1.4845480">
        <ele>616.6</ele>
        <time>2019-05-11T09:33:24Z</time>
      </trkpt>
      <trkpt lat="39.1766360" lon="-1.4845560">
        <ele>616.8</ele>
        <time>2019-05-11T09:33:25Z</time>
      </trkpt>
      <trkpt lat="39.1766270" lon="-1.4845640">
        <ele>617.0</ele>
        <time>2019-05-11T09:33:26Z</time>
      </trkpt>
      <trkpt lat="39.1766170" lon="-1.4845740">
        <ele>617.2</ele>
        <time>2019-05-11T09:33:27Z</time>
      </trkpt>
      <trkpt lat="39.1766060" lon="-1.4845860">
        <ele>617.6</ele>
        <time>2019-05-11T09:33:28Z</time>
      </trkpt>
      <trkpt lat="39.1765920" lon="-1.4845950">
        <ele>618.0</ele>
        <time>2019-05-11T09:33:29Z</time>
      </trkpt>
      <trkpt lat="39.1765790" lon="-1.4846030">
        <ele>618.0</ele>
        <time>2019-05-11T09:33:30Z</time>
      </trkpt>
      <trkpt lat="39.1765660" lon="-1.4846090">
        <ele>618.4</ele>
        <time>2019-05-11T09:33:31Z</time>
      </trkpt>
      <trkpt lat="39.1765540" lon="-1.4846140">
        <ele>618.6</ele>
        <time>2019-05-11T09:33:32Z</time>
      </trkpt>
      <trkpt lat="39.1765420" lon="-1.4846150">
        <ele>618.8</ele>
        <time>2019-05-11T09:33:33Z</time>
      </trkpt>
      <trkpt lat="39.1765310" lon="-1.4846090">
        <ele>619.0</ele>
        <time>2019-05-11T09:33:34Z</time>
      </trkpt>
      <trkpt lat="39.1765240" lon="-1.4845960">
        <ele>619.2</ele>
        <time>2019-05-11T09:33:35Z</time>
      </trkpt>
      <trkpt lat="39.1765210" lon="-1.4845800">
        <ele>619.2</ele>
        <time>2019-05-11T09:33:36Z</time>
      </trkpt>
      <trkpt lat="39.1765240" lon="-1.4845640">
        <ele>619.4</ele>
        <time>2019-05-11T09:33:37Z</time>
      </trkpt>
      <trkpt lat="39.1765270" lon="-1.4845470">
        <ele>619.4</ele>
        <time>2019-05-11T09:33:38Z</time>
      </trkpt>
      <trkpt lat="39.1765300" lon="-1.4845300">
        <ele>619.6</ele>
        <time>2019-05-11T09:33:39Z</time>
      </trkpt>
      <trkpt lat="39.1765340" lon="-1.4845130">
        <ele>619.8</ele>
        <time>2019-05-11T09:33:40Z</time>
      </trkpt>
      <trkpt lat="39.1765360" lon="-1.4844960">
        <ele>620.0</ele>
        <time>2019-05-11T09:33:41Z</time>
      </trkpt>
      <trkpt lat="39.1765360" lon="-1.4844810">
        <ele>620.2</ele>
        <time>2019-05-11T09:33:42Z</time>
      </trkpt>
      <trkpt lat="39.1765360" lon="-1.4844630">
        <ele>620.4</ele>
        <time>2019-05-11T09:33:43Z</time>
      </trkpt>
      <trkpt lat="39.1765390" lon="-1.4844440">
        <ele>620.8</ele>
        <time>2019-05-11T09:33:44Z</time>
      </trkpt>
      <trkpt lat="39.1765410" lon="-1.4844240">
        <ele>621.0</ele>
        <time>2019-05-11T09:33:45Z</time>
      </trkpt>
      <trkpt lat="39.1765420" lon="-1.4844060">
        <ele>621.2</ele>
        <time>2019-05-11T09:33:46Z</time>
      </trkpt>
      <trkpt lat="39.1765410" lon="-1.4843910">
        <ele>621.4</ele>
        <time>2019-05-11T09:33:47Z</time>
      </trkpt>
      <trkpt lat="39.1765410" lon="-1.4843740">
        <ele>621.8</ele>
        <time>2019-05-11T09:33:48Z</time>
      </trkpt>
      <trkpt lat="39.1765410" lon="-1.4843560">
        <ele>622.0</ele>
        <time>2019-05-11T09:33:49Z</time>
      </trkpt>
      <trkpt lat="39.1765430" lon="-1.4843350">
        <ele>622.2</ele>
        <time>2019-05-11T09:33:50Z</time>
      </trkpt>
      <trkpt lat="39.1765450" lon="-1.4843120">
        <ele>622.4</ele>
        <time>2019-05-11T09:33:51Z</time>
      </trkpt>
      <trkpt lat="39.1765480" lon="-1.4842890">
        <ele>622.8</ele>
        <time>2019-05-11T09:33:52Z</time>
      </trkpt>
      <trkpt lat="39.1765490" lon="-1.4842670">
        <ele>623.0</ele>
        <time>2019-05-11T09:33:53Z</time>
      </trkpt>
      <trkpt lat="39.1765510" lon="-1.4842470">
        <ele>623.2</ele>
        <time>2019-05-11T09:33:54Z</time>
      </trkpt>
      <trkpt lat="39.1765510" lon="-1.4842290">
        <ele>623.4</ele>
        <time>2019-05-11T09:33:55Z</time>
      </trkpt>
      <trkpt lat="39.1765520" lon="-1.4842110">
        <ele>623.6</ele>
        <time>2019-05-11T09:33:56Z</time>
      </trkpt>
      <trkpt lat="39.1765520" lon="-1.4841930">
        <ele>623.8</ele>
        <time>2019-05-11T09:33:57Z</time>
      </trkpt>
      <trkpt lat="39.1765540" lon="-1.4841750">
        <ele>624.0</ele>
        <time>2019-05-11T09:33:58Z</time>
      </trkpt>
      <trkpt lat="39.1765580" lon="-1.4841570">
        <ele>624.4</ele>
        <time>2019-05-11T09:33:59Z</time>
      </trkpt>
      <trkpt lat="39.1765620" lon="-1.4841390">
        <ele>624.6</ele>
        <time>2019-05-11T09:34:00Z</time>
      </trkpt>
      <trkpt lat="39.1765630" lon="-1.4841210">
        <ele>624.8</ele>
        <time>2019-05-11T09:34:01Z</time>
      </trkpt>
      <trkpt lat="39.1765600" lon="-1.4841020">
        <ele>625.0</ele>
        <time>2019-05-11T09:34:02Z</time>
      </trkpt>
      <trkpt lat="39.1765560" lon="-1.4840840">
        <ele>625.4</ele>
        <time>2019-05-11T09:34:03Z</time>
      </trkpt>
      <trkpt lat="39.1765530" lon="-1.4840690">
        <ele>625.8</ele>
        <time>2019-05-11T09:34:04Z</time>
      </trkpt>
      <trkpt lat="39.1765520" lon="-1.4840610">
        <ele>626.0</ele>
        <time>2019-05-11T09:34:05Z</time>
      </trkpt>
      <trkpt lat="39.1765520" lon="-1.4840570">
        <ele>626.2</ele>
        <time>2019-05-11T09:34:06Z</time>
      </trkpt>
      <trkpt lat="39.1765490" lon="-1.4840530">
        <ele>626.6</ele>
        <time>2019-05-11T09:34:07Z</time>
      </trkpt>
      <trkpt lat="39.1765440" lon="-1.4840450">
        <ele>626.8</ele>
        <time>2019-05-11T09:34:08Z</time>
      </trkpt>
      <trkpt lat="39.1765420" lon="-1.4840340">
        <ele>627.0</ele>
        <time>2019-05-11T09:34:09Z</time>
      </trkpt>
      <trkpt lat="39.1765430" lon="-1.4840210">
        <ele>627.2</ele>
        <time>2019-05-11T09:34:10Z</time>
      </trkpt>
      <trkpt lat="39.1765430" lon="-1.4840070">
        <ele>627.6</ele>
        <time>2019-05-11T09:34:11Z</time>
      </trkpt>
      <trkpt lat="39.1765430" lon="-1.4839950">
        <ele>627.8</ele>
        <time>2019-05-11T09:34:12Z</time>
      </trkpt>
      <trkpt lat="39.1765450" lon="-1.4839850">
        <ele>628.0</ele>
        <time>2019-05-11T09:34:13Z</time>
      </trkpt>
      <trkpt lat="39.1765460" lon="-1.4839760">
        <ele>628.2</ele>
        <time>2019-05-11T09:34:14Z</time>
      </trkpt>
      <trkpt lat="39.1765450" lon="-1.4839670">
        <ele>628.2</ele>
        <time>2019-05-11T09:34:15Z</time>
      </trkpt>
      <trkpt lat="39.1765430" lon="-1.4839590">
        <ele>628.4</ele>
        <time>2019-05-11T09:34:16Z</time>
      </trkpt>
      <trkpt lat="39.1765430" lon="-1.4839520">
        <ele>628.4</ele>
        <time>2019-05-11T09:34:17Z</time>
      </trkpt>
      <trkpt lat="39.1765420" lon="-1.4839420">
        <ele>628.8</ele>
        <time>2019-05-11T09:34:18Z</time>
      </trkpt>
      <trkpt lat="39.1765410" lon="-1.4839360">
        <ele>629.2</ele>
        <time>2019-05-11T09:34:19Z</time>
      </trkpt>
      <trkpt lat="39.1765400" lon="-1.4839280">
        <ele>629.4</ele>
        <time>2019-05-11T09:34:20Z</time>
      </trkpt>
      <trkpt lat="39.1765390" lon="-1.4839190">
        <ele>629.6</ele>
        <time>2019-05-11T09:34:21Z</time>
      </trkpt>
      <trkpt lat="39.1765380" lon="-1.4839100">
        <ele>629.8</ele>
        <time>2019-05-11T09:34:22Z</time>
      </trkpt>
      <trkpt lat="39.1765360" lon="-1.4839000">
        <ele>630.0</ele>
        <time>2019-05-11T09:34:23Z</time>
      </trkpt>
      <trkpt lat="39.1765400" lon="-1.4838910">
        <ele>630.2</ele>
        <time>2019-05-11T09:34:24Z</time>
      </trkpt>
      <trkpt lat="39.1765390" lon="-1.4838810">
        <ele>630.2</ele>
        <time>2019-05-11T09:34:25Z</time>
      </trkpt>
      <trkpt lat="39.1765370" lon="-1.4838670">
        <ele>630.4</ele>
        <time>2019-05-11T09:34:26Z</time>
      </trkpt>
      <trkpt lat="39.1765370" lon="-1.4838530">
        <ele>630.4</ele>
        <time>2019-05-11T09:34:27Z</time>
      </trkpt>
      <trkpt lat="39.1765360" lon="-1.4838400">
        <ele>630.6</ele>
        <time>2019-05-11T09:34:28Z</time>
      </trkpt>
      <trkpt lat="39.1765350" lon="-1.4838310">
        <ele>630.6</ele>
        <time>2019-05-11T09:34:29Z</time>
      </trkpt>
      <trkpt lat="39.1765350" lon="-1.4838240">
        <ele>631.0</ele>
        <time>2019-05-11T09:34:30Z</time>
      </trkpt>
      <trkpt lat="39.1765350" lon="-1.4838220">
        <ele>631.0</ele>
        <time>2019-05-11T09:34:31Z</time>
      </trkpt>
      <trkpt lat="39.1765360" lon="-1.4838230">
        <ele>631.2</ele>
        <time>2019-05-11T09:34:32Z</time>
      </trkpt>
      <trkpt lat="39.1765360" lon="-1.4838240">
        <ele>631.2</ele>
        <time>2019-05-11T09:34:33Z</time>
      </trkpt>
      <trkpt lat="39.1765370" lon="-1.4838240">
        <ele>631.4</ele>
        <time>2019-05-11T09:34:34Z</time>
      </trkpt>
      <trkpt lat="39.1765390" lon="-1.4838250">
        <ele>631.4</ele>
        <time>2019-05-11T09:34:35Z</time>
      </trkpt>
      <trkpt lat="39.1765380" lon="-1.4838240">
        <ele>631.6</ele>
        <time>2019-05-11T09:34:36Z</time>
      </trkpt>
      <trkpt lat="39.1765380" lon="-1.4838240">
        <ele>631.8</ele>
        <time>2019-05-11T09:34:37Z</time>
      </trkpt>
      <trkpt lat="39.1765370" lon="-1.4838230">
        <ele>631.8</ele>
        <time>2019-05-11T09:34:38Z</time>
      </trkpt>
      <trkpt lat="39.1765370" lon="-1.4838220">
        <ele>632.0</ele>
        <time>2019-05-11T09:34:39Z</time>
      </trkpt>
      <trkpt lat="39.1765380" lon="-1.4838120">
        <ele>632.0</ele>
        <time>2019-05-11T09:34:40Z</time>
      </trkpt>
      <trkpt lat="39.1765380" lon="-1.4838020">
        <ele>632.0</ele>
        <time>2019-05-11T09:34:41Z</time>
      </trkpt>
      <trkpt lat="39.1765370" lon="-1.4837910">
        <ele>632.0</ele>
        <time>2019-05-11T09:34:42Z</time>
      </trkpt>
      <trkpt lat="39.1765340" lon="-1.4837800">
        <ele>632.0</ele>
        <time>2019-05-11T09:34:43Z</time>
      </trkpt>
      <trkpt lat="39.1765310" lon="-1.4837690">
        <ele>632.0</ele>
        <time>2019-05-11T09:34:44Z</time>
      </trkpt>
      <trkpt lat="39.1765300" lon="-1.4837570">
        <ele>632.0</ele>
        <time>2019-05-11T09:34:45Z</time>
      </trkpt>
      <trkpt lat="39.1765300" lon="-1.4837460">
        <ele>632.0</ele>
        <time>2019-05-11T09:34:46Z</time>
      </trkpt>
      <trkpt lat="39.1765300" lon="-1.4837340">
        <ele>632.2</ele>
        <time>2019-05-11T09:34:47Z</time>
      </trkpt>
      <trkpt lat="39.1765290" lon="-1.4837240">
        <ele>632.2</ele>
        <time>2019-05-11T09:34:48Z</time>
      </trkpt>
      <trkpt lat="39.1765300" lon="-1.4837160">
        <ele>632.4</ele>
        <time>2019-05-11T09:34:49Z</time>
      </trkpt>
      <trkpt lat="39.1765270" lon="-1.4837070">
        <ele>632.6</ele>
        <time>2019-05-11T09:34:50Z</time>
      </trkpt>
      <trkpt lat="39.1765230" lon="-1.4836980">
        <ele>632.8</ele>
        <time>2019-05-11T09:34:51Z</time>
      </trkpt>
      <trkpt lat="39.1765210" lon="-1.4836910">
        <ele>632.8</ele>
        <time>2019-05-11T09:34:52Z</time>
      </trkpt>
      <trkpt lat="39.1765200" lon="-1.4836850">
        <ele>633.0</ele>
        <time>2019-05-11T09:34:53Z</time>
      </trkpt>
      <trkpt lat="39.1765150" lon="-1.4836770">
        <ele>633.2</ele>
        <time>2019-05-11T09:34:54Z</time>
      </trkpt>
      <trkpt lat="39.1765110" lon="-1.4836690">
        <ele>633.4</ele>
        <time>2019-05-11T09:34:55Z</time>
      </trkpt>
      <trkpt lat="39.1765060" lon="-1.4836590">
        <ele>633.6</ele>
        <time>2019-05-11T09:34:56Z</time>
      </trkpt>
      <trkpt lat="39.1765040" lon="-1.4836540">
        <ele>634.0</ele>
        <time>2019-05-11T09:34:57Z</time>
      </trkpt>
      <trkpt lat="39.1765010" lon="-1.4836500">
        <ele>634.2</ele>
        <time>2019-05-11T09:34:58Z</time>
      </trkpt>
      <trkpt lat="39.1764990" lon="-1.4836390">
        <ele>634.4</ele>
        <time>2019-05-11T09:34:59Z</time>
      </trkpt>
      <trkpt lat="39.1764980" lon="-1.4836250">
        <ele>634.4</ele>
        <time>2019-05-11T09:35:00Z</time>
      </trkpt>
      <trkpt lat="39.1765000" lon="-1.4836090">
        <ele>634.6</ele>
        <time>2019-05-11T09:35:01Z</time>
      </trkpt>
      <trkpt lat="39.1764990" lon="-1.4835900">
        <ele>634.8</ele>
        <time>2019-05-11T09:35:02Z</time>
      </trkpt>
      <trkpt lat="39.1764980" lon="-1.4835690">
        <ele>635.0</ele>
        <time>2019-05-11T09:35:03Z</time>
      </trkpt>
      <trkpt lat="39.1764980" lon="-1.4835480">
        <ele>635.2</ele>
        <time>2019-05-11T09:35:04Z</time>
      </trkpt>
      <trkpt lat="39.1764980" lon="-1.4835270">
        <ele>635.2</ele>
        <time>2019-05-11T09:35:05Z</time>
      </trkpt>
      <trkpt lat="39.1764960" lon="-1.4835080">
        <ele>635.4</ele>
        <time>2019-05-11T09:35:06Z</time>
      </trkpt>
      <trkpt lat="39.1764940" lon="-1.4834890">
        <ele>635.4</ele>
        <time>2019-05-11T09:35:07Z</time>
      </trkpt>
      <trkpt lat="39.1764930" lon="-1.4834690">
        <ele>635.4</ele>
        <time>2019-05-11T09:35:08Z</time>
      </trkpt>
      <trkpt lat="39.1764910" lon="-1.4834470">
        <ele>635.4</ele>
        <time>2019-05-11T09:35:09Z</time>
      </trkpt>
      <trkpt lat="39.1764890" lon="-1.4834260">
        <ele>635.4</ele>
        <time>2019-05-11T09:35:10Z</time>
      </trkpt>
      <trkpt lat="39.1764860" lon="-1.4834030">
        <ele>635.4</ele>
        <time>2019-05-11T09:35:11Z</time>
      </trkpt>
      <trkpt lat="39.1764830" lon="-1.4833810">
        <ele>635.6</ele>
        <time>2019-05-11T09:35:12Z</time>
      </trkpt>
      <trkpt lat="39.1764810" lon="-1.4833570">
        <ele>635.8</ele>
        <time>2019-05-11T09:35:13Z</time>
      </trkpt>
      <trkpt lat="39.1764780" lon="-1.4833330">
        <ele>636.0</ele>
        <time>2019-05-11T09:35:14Z</time>
      </trkpt>
      <trkpt lat="39.1764750" lon="-1.4833100">
        <ele>636.2</ele>
        <time>2019-05-11T09:35:15Z</time>
      </trkpt>
      <trkpt lat="39.1764720" lon="-1.4832880">
        <ele>636.2</ele>
        <time>2019-05-11T09:35:16Z</time>
      </trkpt>
      <trkpt lat="39.1764700" lon="-1.4832650">
        <ele>636.4</ele>
        <time>2019-05-11T09:35:17Z</time>
      </trkpt>
      <trkpt lat="39.1764690" lon="-1.4832420">
        <ele>636.6</ele>
        <time>2019-05-11T09:35:18Z</time>
      </trkpt>
      <trkpt lat="39.1764660" lon="-1.4832200">
        <ele>636.8</ele>
        <time>2019-05-11T09:35:19Z</time>
      </trkpt>
      <trkpt lat="39.1764630" lon="-1.4831990">
        <ele>636.8</ele>
        <time>2019-05-11T09:35:20Z</time>
      </trkpt>
      <trkpt lat="39.1764590" lon="-1.4831800">
        <ele>637.0</ele>
        <time>2019-05-11T09:35:21Z</time>
      </trkpt>
      <trkpt lat="39.1764570" lon="-1.4831600">
        <ele>637.2</ele>
        <time>2019-05-11T09:35:22Z</time>
      </trkpt>
      <trkpt lat="39.1764570" lon="-1.4831390">
        <ele>637.2</ele>
        <time>2019-05-11T09:35:23Z</time>
      </trkpt>
      <trkpt lat="39.1764560" lon="-1.4831180">
        <ele>637.4</ele>
        <time>2019-05-11T09:35:24Z</time>
      </trkpt>
      <trkpt lat="39.1764540" lon="-1.4830960">
        <ele>637.4</ele>
        <time>2019-05-11T09:35:25Z</time>
      </trkpt>
      <trkpt lat="39.1764530" lon="-1.4830750">
        <ele>637.6</ele>
        <time>2019-05-11T09:35:26Z</time>
      </trkpt>
      <trkpt lat="39.1764520" lon="-1.4830520">
        <ele>637.8</ele>
        <time>2019-05-11T09:35:27Z</time>
      </trkpt>
      <trkpt lat="39.1764500" lon="-1.4830290">
        <ele>638.0</ele>
        <time>2019-05-11T09:35:28Z</time>
      </trkpt>
      <trkpt lat="39.1764480" lon="-1.4830060">
        <ele>638.2</ele>
        <time>2019-05-11T09:35:29Z</time>
      </trkpt>
      <trkpt lat="39.1764460" lon="-1.4829850">
        <ele>638.2</ele>
        <time>2019-05-11T09:35:30Z</time>
      </trkpt>
      <trkpt lat="39.1764440" lon="-1.4829640">
        <ele>638.4</ele>
        <time>2019-05-11T09:35:31Z</time>
      </trkpt>
      <trkpt lat="39.1764410" lon="-1.4829430">
        <ele>638.6</ele>
        <time>2019-05-11T09:35:32Z</time>
      </trkpt>
      <trkpt lat="39.1764360" lon="-1.4829230">
        <ele>638.6</ele>
        <time>2019-05-11T09:35:33Z</time>
      </trkpt>
      <trkpt lat="39.1764330" lon="-1.4829030">
        <ele>638.8</ele>
        <time>2019-05-11T09:35:34Z</time>
      </trkpt>
      <trkpt lat="39.1764300" lon="-1.4828840">
        <ele>639.0</ele>
        <time>2019-05-11T09:35:35Z</time>
      </trkpt>
      <trkpt lat="39.1764270" lon="-1.4828670">
        <ele>639.2</ele>
        <time>2019-05-11T09:35:36Z</time>
      </trkpt>
      <trkpt lat="39.1764250" lon="-1.4828500">
        <ele>639.4</ele>
        <time>2019-05-11T09:35:37Z</time>
      </trkpt>
      <trkpt lat="39.1764240" lon="-1.4828320">
        <ele>639.6</ele>
        <time>2019-05-11T09:35:38Z</time>
      </trkpt>
      <trkpt lat="39.1764230" lon="-1.4828150">
        <ele>639.8</ele>
        <time>2019-05-11T09:35:39Z</time>
      </trkpt>
      <trkpt lat="39.1764220" lon="-1.4827970">
        <ele>640.0</ele>
        <time>2019-05-11T09:35:40Z</time>
      </trkpt>
      <trkpt lat="39.1764220" lon="-1.4827790">
        <ele>640.0</ele>
        <time>2019-05-11T09:35:41Z</time>
      </trkpt>
      <trkpt lat="39.1764220" lon="-1.4827620">
        <ele>640.2</ele>
        <time>2019-05-11T09:35:42Z</time>
      </trkpt>
      <trkpt lat="39.1764230" lon="-1.4827450">
        <ele>640.4</ele>
        <time>2019-05-11T09:35:43Z</time>
      </trkpt>
      <trkpt lat="39.1764210" lon="-1.4827280">
        <ele>640.6</ele>
        <time>2019-05-11T09:35:44Z</time>
      </trkpt>
      <trkpt lat="39.1764210" lon="-1.4827120">
        <ele>640.8</ele>
        <time>2019-05-11T09:35:45Z</time>
      </trkpt>
      <trkpt lat="39.1764200" lon="-1.4826950">
        <ele>641.0</ele>
        <time>2019-05-11T09:35:46Z</time>
      </trkpt>
      <trkpt lat="39.1764200" lon="-1.4826790">
        <ele>641.4</ele>
        <time>2019-05-11T09:35:47Z</time>
      </trkpt>
      <trkpt lat="39.1764190" lon="-1.4826620">
        <ele>641.6</ele>
        <time>2019-05-11T09:35:48Z</time>
      </trkpt>
      <trkpt lat="39.1764180" lon="-1.4826450">
        <ele>641.8</ele>
        <time>2019-05-11T09:35:49Z</time>
      </trkpt>
      <trkpt lat="39.1764150" lon="-1.4826280">
        <ele>642.2</ele>
        <time>2019-05-11T09:35:50Z</time>
      </trkpt>
      <trkpt lat="39.1764110" lon="-1.4826120">
        <ele>642.4</ele>
        <time>2019-05-11T09:35:51Z</time>
      </trkpt>
      <trkpt lat="39.1764090" lon="-1.4825950">
        <ele>642.6</ele>
        <time>2019-05-11T09:35:52Z</time>
      </trkpt>
      <trkpt lat="39.1764070" lon="-1.4825750">
        <ele>642.6</ele>
        <time>2019-05-11T09:35:53Z</time>
      </trkpt>
      <trkpt lat="39.1764010" lon="-1.4825540">
        <ele>642.8</ele>
        <time>2019-05-11T09:35:54Z</time>
      </trkpt>
      <trkpt lat="39.1763940" lon="-1.4825320">
        <ele>643.0</ele>
        <time>2019-05-11T09:35:55Z</time>
      </trkpt>
      <trkpt lat="39.1763930" lon="-1.4825140">
        <ele>643.2</ele>
        <time>2019-05-11T09:35:56Z</time>
      </trkpt>
      <trkpt lat="39.1763960" lon="-1.4824980">
        <ele>643.4</ele>
        <time>2019-05-11T09:35:57Z</time>
      </trkpt>
      <trkpt lat="39.1764010" lon="-1.4824810">
        <ele>643.6</ele>
        <time>2019-05-11T09:35:58Z</time>
      </trkpt>
      <trkpt lat="39.1764070" lon="-1.4824630">
        <ele>643.8</ele>
        <time>2019-05-11T09:35:59Z</time>
      </trkpt>
      <trkpt lat="39.1764130" lon="-1.4824430">
        <ele>644.0</ele>
        <time>2019-05-11T09:36:00Z</time>
      </trkpt>
      <trkpt lat="39.1764180" lon="-1.4824230">
        <ele>644.2</ele>
        <time>2019-05-11T09:36:01Z</time>
      </trkpt>
      <trkpt lat="39.1764180" lon="-1.4824050">
        <ele>644.6</ele>
        <time>2019-05-11T09:36:02Z</time>
      </trkpt>
      <trkpt lat="39.1764140" lon="-1.4823880">
        <ele>645.0</ele>
        <time>2019-05-11T09:36:03Z</time>
      </trkpt>
      <trkpt lat="39.1764080" lon="-1.4823720">
        <ele>645.4</ele>
        <time>2019-05-11T09:36:04Z</time>
      </trkpt>
      <trkpt lat="39.1764020" lon="-1.4823580">
        <ele>645.6</ele>
        <time>2019-05-11T09:36:05Z</time>
      </trkpt>
      <trkpt lat="39.1764010" lon="-1.4823420">
        <ele>645.8</ele>
        <time>2019-05-11T09:36:06Z</time>
      </trkpt>
      <trkpt lat="39.1763980" lon="-1.4823260">
        <ele>646.0</ele>
        <time>2019-05-11T09:36:07Z</time>
      </trkpt>
      <trkpt lat="39.1763950" lon="-1.4823080">
        <ele>646.2</ele>
        <time>2019-05-11T09:36:08Z</time>
      </trkpt>
      <trkpt lat="39.1763900" lon="-1.4822910">
        <ele>646.4</ele>
        <time>2019-05-11T09:36:09Z</time>
      </trkpt>
      <trkpt lat="39.1763870" lon="-1.4822750">
        <ele>646.8</ele>
        <time>2019-05-11T09:36:10Z</time>
      </trkpt>
      <trkpt lat="39.1763860" lon="-1.4822670">
        <ele>647.2</ele>
        <time>2019-05-11T09:36:11Z</time>
      </trkpt>
      <trkpt lat="39.1763820" lon="-1.4822660">
        <ele>647.4</ele>
        <time>2019-05-11T09:36:12Z</time>
      </trkpt>
      <trkpt lat="39.1763820" lon="-1.4822650">
        <ele>647.6</ele>
        <time>2019-05-11T09:36:13Z</time>
      </trkpt>
      <trkpt lat="39.1763840" lon="-1.4822520">
        <ele>647.8</ele>
        <time>2019-05-11T09:36:14Z</time>
      </trkpt>
      <trkpt lat="39.1763820" lon="-1.4822410">
        <ele>648.0</ele>
        <time>2019-05-11T09:36:15Z</time>
      </trkpt>
      <trkpt lat="39.1763800" lon="-1.4822290">
        <ele>648.2</ele>
        <time>2019-05-11T09:36:16Z</time>
      </trkpt>
      <trkpt lat="39.1763780" lon="-1.4822190">
        <ele>648.6</ele>
        <time>2019-05-11T09:36:17Z</time>
      </trkpt>
      <trkpt lat="39.1763760" lon="-1.4822100">
        <ele>648.8</ele>
        <time>2019-05-11T09:36:18Z</time>
      </trkpt>
      <trkpt lat="39.1763750" lon="-1.4821990">
        <ele>649.2</ele>
        <time>2019-05-11T09:36:19Z</time>
      </trkpt>
      <trkpt lat="39.1763740" lon="-1.4821900">
        <ele>649.4</ele>
        <time>2019-05-11T09:36:20Z</time>
      </trkpt>
      <trkpt lat="39.1763760" lon="-1.4821820">
        <ele>649.4</ele>
        <time>2019-05-11T09:36:21Z</time>
      </trkpt>
      <trkpt lat="39.1763760" lon="-1.4821720">
        <ele>649.8</ele>
        <time>2019-05-11T09:36:22Z</time>
      </trkpt>
      <trkpt lat="39.1763740" lon="-1.4821630">
        <ele>650.0</ele>
        <time>2019-05-11T09:36:23Z</time>
      </trkpt>
      <trkpt lat="39.1763730" lon="-1.4821520">
        <ele>650.2</ele>
        <time>2019-05-11T09:36:24Z</time>
      </trkpt>
      <trkpt lat="39.1763710" lon="-1.4821370">
        <ele>650.4</ele>
        <time>2019-05-11T09:36:25Z</time>
      </trkpt>
      <trkpt lat="39.1763710" lon="-1.4821210">
        <ele>650.6</ele>
        <time>2019-05-11T09:36:26Z</time>
      </trkpt>
      <trkpt lat="39.1763730" lon="-1.4821050">
        <ele>650.8</ele>
        <time>2019-05-11T09:36:27Z</time>
      </trkpt>
      <trkpt lat="39.1763750" lon="-1.4820890">
        <ele>650.8</ele>
        <time>2019-05-11T09:36:28Z</time>
      </trkpt>
      <trkpt lat="39.1763780" lon="-1.4820730">
        <ele>651.0</ele>
        <time>2019-05-11T09:36:29Z</time>
      </trkpt>
      <trkpt lat="39.1763810" lon="-1.4820590">
        <ele>651.2</ele>
        <time>2019-05-11T09:36:30Z</time>
      </trkpt>
      <trkpt lat="39.1763820" lon="-1.4820480">
        <ele>651.4</ele>
        <time>2019-05-11T09:36:31Z</time>
      </trkpt>
      <trkpt lat="39.1763870" lon="-1.4820370">
        <ele>651.4</ele>
        <time>2019-05-11T09:36:32Z</time>
      </trkpt>
      <trkpt lat="39.1763930" lon="-1.4820250">
        <ele>651.6</ele>
        <time>2019-05-11T09:36:33Z</time>
      </trkpt>
      <trkpt lat="39.1763960" lon="-1.4820130">
        <ele>651.6</ele>
        <time>2019-05-11T09:36:34Z</time>
      </trkpt>
      <trkpt lat="39.1763950" lon="-1.4820060">
        <ele>651.8</ele>
        <time>2019-05-11T09:36:35Z</time>
      </trkpt>
      <trkpt lat="39.1763950" lon="-1.4819950">
        <ele>652.0</ele>
        <time>2019-05-11T09:36:36Z</time>
      </trkpt>
      <trkpt lat="39.1763930" lon="-1.4819820">
        <ele>652.0</ele>
        <time>2019-05-11T09:36:37Z</time>
      </trkpt>
      <trkpt lat="39.1763900" lon="-1.4819680">
        <ele>652.0</ele>
        <time>2019-05-11T09:36:38Z</time>
      </trkpt>
      <trkpt lat="39.1763860" lon="-1.4819550">
        <ele>652.4</ele>
        <time>2019-05-11T09:36:39Z</time>
      </trkpt>
      <trkpt lat="39.1763830" lon="-1.4819450">
        <ele>652.2</ele>
        <time>2019-05-11T09:36:40Z</time>
      </trkpt>
      <trkpt lat="39.1763820" lon="-1.4819430">
        <ele>652.2</ele>
        <time>2019-05-11T09:36:41Z</time>
      </trkpt>
      <trkpt lat="39.1763800" lon="-1.4819400">
        <ele>652.4</ele>
        <time>2019-05-11T09:36:42Z</time>
      </trkpt>
      <trkpt lat="39.1763760" lon="-1.4819330">
        <ele>652.6</ele>
        <time>2019-05-11T09:36:43Z</time>
      </trkpt>
      <trkpt lat="39.1763740" lon="-1.4819210">
        <ele>652.6</ele>
        <time>2019-05-11T09:36:44Z</time>
      </trkpt>
      <trkpt lat="39.1763730" lon="-1.4819040">
        <ele>652.8</ele>
        <time>2019-05-11T09:36:45Z</time>
      </trkpt>
      <trkpt lat="39.1763710" lon="-1.4818870">
        <ele>653.0</ele>
        <time>2019-05-11T09:36:46Z</time>
      </trkpt>
      <trkpt lat="39.1763670" lon="-1.4818700">
        <ele>653.0</ele>
        <time>2019-05-11T09:36:47Z</time>
      </trkpt>
      <trkpt lat="39.1763630" lon="-1.4818540">
        <ele>653.2</ele>
        <time>2019-05-11T09:36:48Z</time>
      </trkpt>
      <trkpt lat="39.1763600" lon="-1.4818360">
        <ele>653.2</ele>
        <time>2019-05-11T09:36:49Z</time>
      </trkpt>
      <trkpt lat="39.1763590" lon="-1.4818180">
        <ele>653.4</ele>
        <time>2019-05-11T09:36:50Z</time>
      </trkpt>
      <trkpt lat="39.1763570" lon="-1.4818000">
        <ele>653.4</ele>
        <time>2019-05-11T09:36:51Z</time>
      </trkpt>
      <trkpt lat="39.1763550" lon="-1.4817800">
        <ele>653.4</ele>
        <time>2019-05-11T09:36:52Z</time>
      </trkpt>
      <trkpt lat="39.1763520" lon="-1.4817590">
        <ele>653.4</ele>
        <time>2019-05-11T09:36:53Z</time>
      </trkpt>
      <trkpt lat="39.1763470" lon="-1.4817380">
        <ele>653.6</ele>
        <time>2019-05-11T09:36:54Z</time>
      </trkpt>
      <trkpt lat="39.1763420" lon="-1.4817170">
        <ele>653.6</ele>
        <time>2019-05-11T09:36:55Z</time>
      </trkpt>
      <trkpt lat="39.1763390" lon="-1.4816950">
        <ele>653.8</ele>
        <time>2019-05-11T09:36:56Z</time>
      </trkpt>
      <trkpt lat="39.1763360" lon="-1.4816720">
        <ele>654.2</ele>
        <time>2019-05-11T09:36:57Z</time>
      </trkpt>
      <trkpt lat="39.1763320" lon="-1.4816510">
        <ele>654.2</ele>
        <time>2019-05-11T09:36:58Z</time>
      </trkpt>
      <trkpt lat="39.1763250" lon="-1.4816320">
        <ele>654.4</ele>
        <time>2019-05-11T09:36:59Z</time>
      </trkpt>
      <trkpt lat="39.1763190" lon="-1.4816140">
        <ele>654.4</ele>
        <time>2019-05-11T09:37:00Z</time>
      </trkpt>
      <trkpt lat="39.1763140" lon="-1.4815940">
        <ele>654.6</ele>
        <time>2019-05-11T09:37:01Z</time>
      </trkpt>
      <trkpt lat="39.1763100" lon="-1.4815740">
        <ele>654.8</ele>
        <time>2019-05-11T09:37:02Z</time>
      </trkpt>
      <trkpt lat="39.1763060" lon="-1.4815520">
        <ele>654.8</ele>
        <time>2019-05-11T09:37:03Z</time>
      </trkpt>
      <trkpt lat="39.1763020" lon="-1.4815300">
        <ele>655.0</ele>
        <time>2019-05-11T09:37:04Z</time>
      </trkpt>
      <trkpt lat="39.1762980" lon="-1.4815080">
        <ele>655.2</ele>
        <time>2019-05-11T09:37:05Z</time>
      </trkpt>
      <trkpt lat="39.1762930" lon="-1.4814840">
        <ele>655.6</ele>
        <time>2019-05-11T09:37:06Z</time>
      </trkpt>
      <trkpt lat="39.1762890" lon="-1.4814600">
        <ele>655.8</ele>
        <time>2019-05-11T09:37:07Z</time>
      </trkpt>
      <trkpt lat="39.1762860" lon="-1.4814330">
        <ele>656.0</ele>
        <time>2019-05-11T09:37:08Z</time>
      </trkpt>
      <trkpt lat="39.1762830" lon="-1.4814040">
        <ele>656.2</ele>
        <time>2019-05-11T09:37:09Z</time>
      </trkpt>
      <trkpt lat="39.1762780" lon="-1.4813790">
        <ele>656.4</ele>
        <time>2019-05-11T09:37:10Z</time>
      </trkpt>
      <trkpt lat="39.1762700" lon="-1.4813560">
        <ele>656.6</ele>
        <time>2019-05-11T09:37:11Z</time>
      </trkpt>
      <trkpt lat="39.1762610" lon="-1.4813340">
        <ele>656.8</ele>
        <time>2019-05-11T09:37:12Z</time>
      </trkpt>
      <trkpt lat="39.1762530" lon="-1.4813070">
        <ele>657.0</ele>
        <time>2019-05-11T09:37:13Z</time>
      </trkpt>
      <trkpt lat="39.1762460" lon="-1.4812790">
        <ele>657.2</ele>
        <time>2019-05-11T09:37:14Z</time>
      </trkpt>
      <trkpt lat="39.1762410" lon="-1.4812500">
        <ele>657.2</ele>
        <time>2019-05-11T09:37:15Z</time>
      </trkpt>
      <trkpt lat="39.1762360" lon="-1.4812210">
        <ele>657.4</ele>
        <time>2019-05-11T09:37:16Z</time>
      </trkpt>
      <trkpt lat="39.1762300" lon="-1.4811910">
        <ele>657.8</ele>
        <time>2019-05-11T09:37:17Z</time>
      </trkpt>
      <trkpt lat="39.1762260" lon="-1.4811600">
        <ele>658.2</ele>
        <time>2019-05-11T09:37:18Z</time>
      </trkpt>
      <trkpt lat="39.1762270" lon="-1.4811260">
        <ele>658.4</ele>
        <time>2019-05-11T09:37:19Z</time>
      </trkpt>
      <trkpt lat="39.1762250" lon="-1.4810900">
        <ele>658.8</ele>
        <time>2019-05-11T09:37:20Z</time>
      </trkpt>
      <trkpt lat="39.1762220" lon="-1.4810590">
        <ele>659.0</ele>
        <time>2019-05-11T09:37:21Z</time>
      </trkpt>
      <trkpt lat="39.1762200" lon="-1.4810310">
        <ele>659.4</ele>
        <time>2019-05-11T09:37:22Z</time>
      </trkpt>
      <trkpt lat="39.1762190" lon="-1.4810010">
        <ele>659.6</ele>
        <time>2019-05-11T09:37:23Z</time>
      </trkpt>
      <trkpt lat="39.1762160" lon="-1.4809710">
        <ele>660.0</ele>
        <time>2019-05-11T09:37:24Z</time>
      </trkpt>
      <trkpt lat="39.1762100" lon="-1.4809440">
        <ele>660.2</ele>
        <time>2019-05-11T09:37:25Z</time>
      </trkpt>
      <trkpt lat="39.1762010" lon="-1.4809170">
        <ele>660.6</ele>
        <time>2019-05-11T09:37:26Z</time>
      </trkpt>
      <trkpt lat="39.1761900" lon="-1.4808890">
        <ele>660.8</ele>
        <time>2019-05-11T09:37:27Z</time>
      </trkpt>
      <trkpt lat="39.1761770" lon="-1.4808610">
        <ele>661.0</ele>
        <time>2019-05-11T09:37:28Z</time>
      </trkpt>
      <trkpt lat="39.1761600" lon="-1.4808330">
        <ele>661.0</ele>
        <time>2019-05-11T09:37:29Z</time>
      </trkpt>
      <trkpt lat="39.1761410" lon="-1.4808030">
        <ele>661.2</ele>
        <time>2019-05-11T09:37:30Z</time>
      </trkpt>
      <trkpt lat="39.1761220" lon="-1.4807710">
        <ele>661.2</ele>
        <time>2019-05-11T09:37:31Z</time>
      </trkpt>
      <trkpt lat="39.1761020" lon="-1.4807390">
        <ele>661.4</ele>
        <time>2019-05-11T09:37:32Z</time>
      </trkpt>
      <trkpt lat="39.1760810" lon="-1.4807060">
        <ele>661.4</ele>
        <time>2019-05-11T09:37:33Z</time>
      </trkpt>
      <trkpt lat="39.1760600" lon="-1.4806720">
        <ele>661.6</ele>
        <time>2019-05-11T09:37:34Z</time>
      </trkpt>
      <trkpt lat="39.1760380" lon="-1.4806370">
        <ele>661.8</ele>
        <time>2019-05-11T09:37:35Z</time>
      </trkpt>
      <trkpt lat="39.1760150" lon="-1.4806010">
        <ele>661.8</ele>
        <time>2019-05-11T09:37:36Z</time>
      </trkpt>
      <trkpt lat="39.1759920" lon="-1.4805620">
        <ele>662.0</ele>
        <time>2019-05-11T09:37:37Z</time>
      </trkpt>
      <trkpt lat="39.1759690" lon="-1.4805210">
        <ele>662.0</ele>
        <time>2019-05-11T09:37:38Z</time>
      </trkpt>
      <trkpt lat="39.1759460" lon="-1.4804790">
        <ele>662.2</ele>
        <time>2019-05-11T09:37:39Z</time>
      </trkpt>
      <trkpt lat="39.1759220" lon="-1.4804340">
        <ele>662.2</ele>
        <time>2019-05-11T09:37:40Z</time>
      </trkpt>
      <trkpt lat="39.1758970" lon="-1.4803890">
        <ele>662.4</ele>
        <time>2019-05-11T09:37:41Z</time>
      </trkpt>
      <trkpt lat="39.1758700" lon="-1.4803420">
        <ele>662.4</ele>
        <time>2019-05-11T09:37:42Z</time>
      </trkpt>
      <trkpt lat="39.1758410" lon="-1.4802930">
        <ele>662.6</ele>
        <time>2019-05-11T09:37:43Z</time>
      </trkpt>
      <trkpt lat="39.1758110" lon="-1.4802420">
        <ele>662.6</ele>
        <time>2019-05-11T09:37:44Z</time>
      </trkpt>
      <trkpt lat="39.1757800" lon="-1.4801910">
        <ele>662.6</ele>
        <time>2019-05-11T09:37:45Z</time>
      </trkpt>
      <trkpt lat="39.1757500" lon="-1.4801390">
        <ele>662.6</ele>
        <time>2019-05-11T09:37:46Z</time>
      </trkpt>
      <trkpt lat="39.1757210" lon="-1.4800860">
        <ele>662.6</ele>
        <time>2019-05-11T09:37:47Z</time>
      </trkpt>
      <trkpt lat="39.1756890" lon="-1.4800330">
        <ele>662.6</ele>
        <time>2019-05-11T09:37:48Z</time>
      </trkpt>
      <trkpt lat="39.1756580" lon="-1.4799800">
        <ele>662.6</ele>
        <time>2019-05-11T09:37:49Z</time>
      </trkpt>
      <trkpt lat="39.1756250" lon="-1.4799260">
        <ele>662.6</ele>
        <time>2019-05-11T09:37:50Z</time>
      </trkpt>
      <trkpt lat="39.1755920" lon="-1.4798700">
        <ele>662.6</ele>
        <time>2019-05-11T09:37:51Z</time>
      </trkpt>
      <trkpt lat="39.1755570" lon="-1.4798130">
        <ele>662.6</ele>
        <time>2019-05-11T09:37:52Z</time>
      </trkpt>
      <trkpt lat="39.1755210" lon="-1.4797550">
        <ele>662.6</ele>
        <time>2019-05-11T09:37:53Z</time>
      </trkpt>
      <trkpt lat="39.1754860" lon="-1.4796960">
        <ele>662.6</ele>
        <time>2019-05-11T09:37:54Z</time>
      </trkpt>
      <trkpt lat="39.1754510" lon="-1.4796370">
        <ele>662.6</ele>
        <time>2019-05-11T09:37:55Z</time>
      </trkpt>
      <trkpt lat="39.1754150" lon="-1.4795790">
        <ele>662.6</ele>
        <time>2019-05-11T09:37:56Z</time>
      </trkpt>
      <trkpt lat="39.1753800" lon="-1.4795210">
        <ele>662.6</ele>
        <time>2019-05-11T09:37:57Z</time>
      </trkpt>
      <trkpt lat="39.1753450" lon="-1.4794630">
        <ele>662.6</ele>
        <time>2019-05-11T09:37:58Z</time>
      </trkpt>
      <trkpt lat="39.1753100" lon="-1.4794060">
        <ele>662.6</ele>
        <time>2019-05-11T09:37:59Z</time>
      </trkpt>
      <trkpt lat="39.1752750" lon="-1.4793490">
        <ele>662.6</ele>
        <time>2019-05-11T09:38:00Z</time>
      </trkpt>
      <trkpt lat="39.1752390" lon="-1.4792930">
        <ele>662.6</ele>
        <time>2019-05-11T09:38:01Z</time>
      </trkpt>
      <trkpt lat="39.1752040" lon="-1.4792380">
        <ele>662.6</ele>
        <time>2019-05-11T09:38:02Z</time>
      </trkpt>
      <trkpt lat="39.1751680" lon="-1.4791850">
        <ele>662.6</ele>
        <time>2019-05-11T09:38:03Z</time>
      </trkpt>
      <trkpt lat="39.1751310" lon="-1.4791320">
        <ele>662.6</ele>
        <time>2019-05-11T09:38:04Z</time>
      </trkpt>
      <trkpt lat="39.1750940" lon="-1.4790770">
        <ele>662.6</ele>
        <time>2019-05-11T09:38:05Z</time>
      </trkpt>
      <trkpt lat="39.1750570" lon="-1.4790210">
        <ele>663.0</ele>
        <time>2019-05-11T09:38:06Z</time>
      </trkpt>
      <trkpt lat="39.1750190" lon="-1.4789640">
        <ele>663.2</ele>
        <time>2019-05-11T09:38:07Z</time>
      </trkpt>
      <trkpt lat="39.1749810" lon="-1.4789080">
        <ele>663.2</ele>
        <time>2019-05-11T09:38:08Z</time>
      </trkpt>
      <trkpt lat="39.1749430" lon="-1.4788510">
        <ele>663.2</ele>
        <time>2019-05-11T09:38:09Z</time>
      </trkpt>
      <trkpt lat="39.1749060" lon="-1.4787930">
        <ele>663.2</ele>
        <time>2019-05-11T09:38:10Z</time>
      </trkpt>
      <trkpt lat="39.1748680" lon="-1.4787340">
        <ele>663.4</ele>
        <time>2019-05-11T09:38:11Z</time>
      </trkpt>
      <trkpt lat="39.1748310" lon="-1.4786750">
        <ele>663.4</ele>
        <time>2019-05-11T09:38:12Z</time>
      </trkpt>
      <trkpt lat="39.1747970" lon="-1.4786120">
        <ele>663.4</ele>
        <time>2019-05-11T09:38:13Z</time>
      </trkpt>
      <trkpt lat="39.1747650" lon="-1.4785490">
        <ele>663.4</ele>
        <time>2019-05-11T09:38:14Z</time>
      </trkpt>
      <trkpt lat="39.1747330" lon="-1.4784860">
        <ele>663.4</ele>
        <time>2019-05-11T09:38:15Z</time>
      </trkpt>
      <trkpt lat="39.1747010" lon="-1.4784220">
        <ele>663.4</ele>
        <time>2019-05-11T09:38:16Z</time>
      </trkpt>
      <trkpt lat="39.1746700" lon="-1.4783570">
        <ele>663.4</ele>
        <time>2019-05-11T09:38:17Z</time>
      </trkpt>
      <trkpt lat="39.1746380" lon="-1.4782910">
        <ele>663.4</ele>
        <time>2019-05-11T09:38:18Z</time>
      </trkpt>
      <trkpt lat="39.1746060" lon="-1.4782250">
        <ele>663.4</ele>
        <time>2019-05-11T09:38:19Z</time>
      </trkpt>
      <trkpt lat="39.1745730" lon="-1.4781580">
        <ele>663.4</ele>
        <time>2019-05-11T09:38:20Z</time>
      </trkpt>
      <trkpt lat="39.1745410" lon="-1.4780900">
        <ele>663.4</ele>
        <time>2019-05-11T09:38:21Z</time>
      </trkpt>
      <trkpt lat="39.1745080" lon="-1.4780230">
        <ele>663.4</ele>
        <time>2019-05-11T09:38:22Z</time>
      </trkpt>
      <trkpt lat="39.1744730" lon="-1.4779570">
        <ele>663.6</ele>
        <time>2019-05-11T09:38:23Z</time>
      </trkpt>
      <trkpt lat="39.1744400" lon="-1.4778920">
        <ele>663.6</ele>
        <time>2019-05-11T09:38:24Z</time>
      </trkpt>
      <trkpt lat="39.1744060" lon="-1.4778290">
        <ele>663.6</ele>
        <time>2019-05-11T09:38:25Z</time>
      </trkpt>
      <trkpt lat="39.1743700" lon="-1.4777690">
        <ele>663.6</ele>
        <time>2019-05-11T09:38:26Z</time>
      </trkpt>
      <trkpt lat="39.1743340" lon="-1.4777110">
        <ele>663.6</ele>
        <time>2019-05-11T09:38:27Z</time>
      </trkpt>
      <trkpt lat="39.1742950" lon="-1.4776560">
        <ele>663.8</ele>
        <time>2019-05-11T09:38:28Z</time>
      </trkpt>
      <trkpt lat="39.1742550" lon="-1.4776000">
        <ele>663.8</ele>
        <time>2019-05-11T09:38:29Z</time>
      </trkpt>
      <trkpt lat="39.1742160" lon="-1.4775430">
        <ele>664.0</ele>
        <time>2019-05-11T09:38:30Z</time>
      </trkpt>
      <trkpt lat="39.1741760" lon="-1.4774850">
        <ele>664.0</ele>
        <time>2019-05-11T09:38:31Z</time>
      </trkpt>
      <trkpt lat="39.1741350" lon="-1.4774270">
        <ele>664.2</ele>
        <time>2019-05-11T09:38:32Z</time>
      </trkpt>
      <trkpt lat="39.1740960" lon="-1.4773660">
        <ele>664.2</ele>
        <time>2019-05-11T09:38:33Z</time>
      </trkpt>
      <trkpt lat="39.1740550" lon="-1.4773060">
        <ele>664.2</ele>
        <time>2019-05-11T09:38:34Z</time>
      </trkpt>
      <trkpt lat="39.1740130" lon="-1.4772460">
        <ele>664.2</ele>
        <time>2019-05-11T09:38:35Z</time>
      </trkpt>
      <trkpt lat="39.1739700" lon="-1.4771860">
        <ele>664.2</ele>
        <time>2019-05-11T09:38:36Z</time>
      </trkpt>
      <trkpt lat="39.1739290" lon="-1.4771260">
        <ele>664.2</ele>
        <time>2019-05-11T09:38:37Z</time>
      </trkpt>
      <trkpt lat="39.1738870" lon="-1.4770650">
        <ele>664.2</ele>
        <time>2019-05-11T09:38:38Z</time>
      </trkpt>
      <trkpt lat="39.1738460" lon="-1.4770020">
        <ele>664.4</ele>
        <time>2019-05-11T09:38:39Z</time>
      </trkpt>
      <trkpt lat="39.1738060" lon="-1.4769370">
        <ele>664.4</ele>
        <time>2019-05-11T09:38:40Z</time>
      </trkpt>
      <trkpt lat="39.1737640" lon="-1.4768720">
        <ele>664.4</ele>
        <time>2019-05-11T09:38:41Z</time>
      </trkpt>
      <trkpt lat="39.1737220" lon="-1.4768060">
        <ele>664.4</ele>
        <time>2019-05-11T09:38:42Z</time>
      </trkpt>
      <trkpt lat="39.1736790" lon="-1.4767400">
        <ele>664.4</ele>
        <time>2019-05-11T09:38:43Z</time>
      </trkpt>
      <trkpt lat="39.1736360" lon="-1.4766730">
        <ele>664.4</ele>
        <time>2019-05-11T09:38:44Z</time>
      </trkpt>
      <trkpt lat="39.1735920" lon="-1.4766060">
        <ele>664.6</ele>
        <time>2019-05-11T09:38:45Z</time>
      </trkpt>
      <trkpt lat="39.1735460" lon="-1.4765410">
        <ele>664.6</ele>
        <time>2019-05-11T09:38:46Z</time>
      </trkpt>
      <trkpt lat="39.1735000" lon="-1.4764770">
        <ele>664.6</ele>
        <time>2019-05-11T09:38:47Z</time>
      </trkpt>
      <trkpt lat="39.1734530" lon="-1.4764130">
        <ele>664.6</ele>
        <time>2019-05-11T09:38:48Z</time>
      </trkpt>
      <trkpt lat="39.1734070" lon="-1.4763480">
        <ele>664.6</ele>
        <time>2019-05-11T09:38:49Z</time>
      </trkpt>
      <trkpt lat="39.1733600" lon="-1.4762820">
        <ele>664.6</ele>
        <time>2019-05-11T09:38:50Z</time>
      </trkpt>
      <trkpt lat="39.1733120" lon="-1.4762160">
        <ele>664.6</ele>
        <time>2019-05-11T09:38:51Z</time>
      </trkpt>
      <trkpt lat="39.1732640" lon="-1.4761480">
        <ele>664.6</ele>
        <time>2019-05-11T09:38:52Z</time>
      </trkpt>
      <trkpt lat="39.1732160" lon="-1.4760810">
        <ele>664.6</ele>
        <time>2019-05-11T09:38:53Z</time>
      </trkpt>
      <trkpt lat="39.1731660" lon="-1.4760130">
        <ele>664.6</ele>
        <time>2019-05-11T09:38:54Z</time>
      </trkpt>
      <trkpt lat="39.1731180" lon="-1.4759410">
        <ele>664.6</ele>
        <time>2019-05-11T09:38:55Z</time>
      </trkpt>
      <trkpt lat="39.1730730" lon="-1.4758640">
        <ele>664.6</ele>
        <time>2019-05-11T09:38:56Z</time>
      </trkpt>
      <trkpt lat="39.1730330" lon="-1.4757830">
        <ele>664.6</ele>
        <time>2019-05-11T09:38:57Z</time>
      </trkpt>
      <trkpt lat="39.1729980" lon="-1.4756980">
        <ele>664.6</ele>
        <time>2019-05-11T09:38:58Z</time>
      </trkpt>
      <trkpt lat="39.1729670" lon="-1.4756120">
        <ele>664.6</ele>
        <time>2019-05-11T09:38:59Z</time>
      </trkpt>
      <trkpt lat="39.1729360" lon="-1.4755250">
        <ele>664.6</ele>
        <time>2019-05-11T09:39:00Z</time>
      </trkpt>
      <trkpt lat="39.1729060" lon="-1.4754400">
        <ele>664.6</ele>
        <time>2019-05-11T09:39:01Z</time>
      </trkpt>
      <trkpt lat="39.1728780" lon="-1.4753550">
        <ele>664.6</ele>
        <time>2019-05-11T09:39:02Z</time>
      </trkpt>
      <trkpt lat="39.1728500" lon="-1.4752710">
        <ele>664.6</ele>
        <time>2019-05-11T09:39:03Z</time>
      </trkpt>
      <trkpt lat="39.1728240" lon="-1.4751860">
        <ele>664.6</ele>
        <time>2019-05-11T09:39:04Z</time>
      </trkpt>
      <trkpt lat="39.1727980" lon="-1.4751030">
        <ele>664.6</ele>
        <time>2019-05-11T09:39:05Z</time>
      </trkpt>
      <trkpt lat="39.1727720" lon="-1.4750210">
        <ele>664.6</ele>
        <time>2019-05-11T09:39:06Z</time>
      </trkpt>
      <trkpt lat="39.1727460" lon="-1.4749410">
        <ele>664.6</ele>
        <time>2019-05-11T09:39:07Z</time>
      </trkpt>
      <trkpt lat="39.1727210" lon="-1.4748610">
        <ele>664.6</ele>
        <time>2019-05-11T09:39:08Z</time>
      </trkpt>
      <trkpt lat="39.1726950" lon="-1.4747820">
        <ele>664.8</ele>
        <time>2019-05-11T09:39:09Z</time>
      </trkpt>
      <trkpt lat="39.1726670" lon="-1.4747050">
        <ele>664.8</ele>
        <time>2019-05-11T09:39:10Z</time>
      </trkpt>
      <trkpt lat="39.1726400" lon="-1.4746270">
        <ele>664.8</ele>
        <time>2019-05-11T09:39:11Z</time>
      </trkpt>
      <trkpt lat="39.1726110" lon="-1.4745490">
        <ele>664.8</ele>
        <time>2019-05-11T09:39:12Z</time>
      </trkpt>
      <trkpt lat="39.1725800" lon="-1.4744720">
        <ele>664.8</ele>
        <time>2019-05-11T09:39:13Z</time>
      </trkpt>
      <trkpt lat="39.1725460" lon="-1.4743970">
        <ele>664.8</ele>
        <time>2019-05-11T09:39:14Z</time>
      </trkpt>
      <trkpt lat="39.1725110" lon="-1.4743230">
        <ele>665.0</ele>
        <time>2019-05-11T09:39:15Z</time>
      </trkpt>
      <trkpt lat="39.1724750" lon="-1.4742510">
        <ele>665.0</ele>
        <time>2019-05-11T09:39:16Z</time>
      </trkpt>
      <trkpt lat="39.1724360" lon="-1.4741780">
        <ele>665.2</ele>
        <time>2019-05-11T09:39:17Z</time>
      </trkpt>
      <trkpt lat="39.1723950" lon="-1.4741060">
        <ele>665.4</ele>
        <time>2019-05-11T09:39:18Z</time>
      </trkpt>
      <trkpt lat="39.1723510" lon="-1.4740340">
        <ele>665.6</ele>
        <time>2019-05-11T09:39:19Z</time>
      </trkpt>
      <trkpt lat="39.1723040" lon="-1.4739620">
        <ele>665.8</ele>
        <time>2019-05-11T09:39:20Z</time>
      </trkpt>
      <trkpt lat="39.1722550" lon="-1.4738910">
        <ele>666.0</ele>
        <time>2019-05-11T09:39:21Z</time>
      </trkpt>
      <trkpt lat="39.1722050" lon="-1.4738180">
        <ele>666.2</ele>
        <time>2019-05-11T09:39:22Z</time>
      </trkpt>
      <trkpt lat="39.1721530" lon="-1.4737440">
        <ele>666.2</ele>
        <time>2019-05-11T09:39:23Z</time>
      </trkpt>
      <trkpt lat="39.1721000" lon="-1.4736710">
        <ele>666.2</ele>
        <time>2019-05-11T09:39:24Z</time>
      </trkpt>
      <trkpt lat="39.1720440" lon="-1.4735990">
        <ele>666.2</ele>
        <time>2019-05-11T09:39:25Z</time>
      </trkpt>
      <trkpt lat="39.1719880" lon="-1.4735250">
        <ele>666.2</ele>
        <time>2019-05-11T09:39:26Z</time>
      </trkpt>
      <trkpt lat="39.1719320" lon="-1.4734490">
        <ele>666.2</ele>
        <time>2019-05-11T09:39:27Z</time>
      </trkpt>
      <trkpt lat="39.1718780" lon="-1.4733690">
        <ele>666.2</ele>
        <time>2019-05-11T09:39:28Z</time>
      </trkpt>
      <trkpt lat="39.1718280" lon="-1.4732850">
        <ele>666.2</ele>
        <time>2019-05-11T09:39:29Z</time>
      </trkpt>
      <trkpt lat="39.1717830" lon="-1.4731950">
        <ele>666.2</ele>
        <time>2019-05-11T09:39:30Z</time>
      </trkpt>
      <trkpt lat="39.1717430" lon="-1.4731040">
        <ele>666.0</ele>
        <time>2019-05-11T09:39:31Z</time>
      </trkpt>
      <trkpt lat="39.1717040" lon="-1.4730130">
        <ele>666.0</ele>
        <time>2019-05-11T09:39:32Z</time>
      </trkpt>
      <trkpt lat="39.1716670" lon="-1.4729210">
        <ele>665.8</ele>
        <time>2019-05-11T09:39:33Z</time>
      </trkpt>
      <trkpt lat="39.1716340" lon="-1.4728270">
        <ele>665.8</ele>
        <time>2019-05-11T09:39:34Z</time>
      </trkpt>
      <trkpt lat="39.1716040" lon="-1.4727320">
        <ele>665.6</ele>
        <time>2019-05-11T09:39:35Z</time>
      </trkpt>
      <trkpt lat="39.1715720" lon="-1.4726390">
        <ele>665.6</ele>
        <time>2019-05-11T09:39:36Z</time>
      </trkpt>
      <trkpt lat="39.1715380" lon="-1.4725480">
        <ele>665.4</ele>
        <time>2019-05-11T09:39:37Z</time>
      </trkpt>
      <trkpt lat="39.1715030" lon="-1.4724580">
        <ele>665.4</ele>
        <time>2019-05-11T09:39:38Z</time>
      </trkpt>
      <trkpt lat="39.1714690" lon="-1.4723680">
        <ele>665.4</ele>
        <time>2019-05-11T09:39:39Z</time>
      </trkpt>
      <trkpt lat="39.1714320" lon="-1.4722790">
        <ele>665.2</ele>
        <time>2019-05-11T09:39:40Z</time>
      </trkpt>
      <trkpt lat="39.1713950" lon="-1.4721910">
        <ele>665.2</ele>
        <time>2019-05-11T09:39:41Z</time>
      </trkpt>
      <trkpt lat="39.1713560" lon="-1.4721030">
        <ele>665.2</ele>
        <time>2019-05-11T09:39:42Z</time>
      </trkpt>
      <trkpt lat="39.1713170" lon="-1.4720170">
        <ele>665.2</ele>
        <time>2019-05-11T09:39:43Z</time>
      </trkpt>
      <trkpt lat="39.1712760" lon="-1.4719320">
        <ele>665.2</ele>
        <time>2019-05-11T09:39:44Z</time>
      </trkpt>
      <trkpt lat="39.1712340" lon="-1.4718500">
        <ele>665.2</ele>
        <time>2019-05-11T09:39:45Z</time>
      </trkpt>
      <trkpt lat="39.1711900" lon="-1.4717710">
        <ele>665.2</ele>
        <time>2019-05-11T09:39:46Z</time>
      </trkpt>
      <trkpt lat="39.1711430" lon="-1.4716960">
        <ele>665.2</ele>
        <time>2019-05-11T09:39:47Z</time>
      </trkpt>
      <trkpt lat="39.1710960" lon="-1.4716240">
        <ele>665.2</ele>
        <time>2019-05-11T09:39:48Z</time>
      </trkpt>
      <trkpt lat="39.1710470" lon="-1.4715540">
        <ele>665.2</ele>
        <time>2019-05-11T09:39:49Z</time>
      </trkpt>
      <trkpt lat="39.1709990" lon="-1.4714840">
        <ele>665.2</ele>
        <time>2019-05-11T09:39:50Z</time>
      </trkpt>
      <trkpt lat="39.1709510" lon="-1.4714160">
        <ele>665.4</ele>
        <time>2019-05-11T09:39:51Z</time>
      </trkpt>
      <trkpt lat="39.1709000" lon="-1.4713490">
        <ele>665.4</ele>
        <time>2019-05-11T09:39:52Z</time>
      </trkpt>
      <trkpt lat="39.1708490" lon="-1.4712850">
        <ele>665.4</ele>
        <time>2019-05-11T09:39:53Z</time>
      </trkpt>
      <trkpt lat="39.1707960" lon="-1.4712250">
        <ele>665.4</ele>
        <time>2019-05-11T09:39:54Z</time>
      </trkpt>
      <trkpt lat="39.1707430" lon="-1.4711650">
        <ele>665.4</ele>
        <time>2019-05-11T09:39:55Z</time>
      </trkpt>
      <trkpt lat="39.1706900" lon="-1.4711070">
        <ele>665.4</ele>
        <time>2019-05-11T09:39:56Z</time>
      </trkpt>
      <trkpt lat="39.1706410" lon="-1.4710460">
        <ele>665.4</ele>
        <time>2019-05-11T09:39:57Z</time>
      </trkpt>
      <trkpt lat="39.1705940" lon="-1.4709830">
        <ele>665.6</ele>
        <time>2019-05-11T09:39:58Z</time>
      </trkpt>
      <trkpt lat="39.1705500" lon="-1.4709170">
        <ele>665.6</ele>
        <time>2019-05-11T09:39:59Z</time>
      </trkpt>
      <trkpt lat="39.1705070" lon="-1.4708490">
        <ele>665.6</ele>
        <time>2019-05-11T09:40:00Z</time>
      </trkpt>
      <trkpt lat="39.1704700" lon="-1.4707780">
        <ele>665.8</ele>
        <time>2019-05-11T09:40:01Z</time>
      </trkpt>
      <trkpt lat="39.1704310" lon="-1.4707070">
        <ele>666.0</ele>
        <time>2019-05-11T09:40:02Z</time>
      </trkpt>
      <trkpt lat="39.1703940" lon="-1.4706370">
        <ele>666.2</ele>
        <time>2019-05-11T09:40:03Z</time>
      </trkpt>
      <trkpt lat="39.1703560" lon="-1.4705670">
        <ele>666.2</ele>
        <time>2019-05-11T09:40:04Z</time>
      </trkpt>
      <trkpt lat="39.1703180" lon="-1.4704990">
        <ele>666.6</ele>
        <time>2019-05-11T09:40:05Z</time>
      </trkpt>
      <trkpt lat="39.1702800" lon="-1.4704300">
        <ele>666.6</ele>
        <time>2019-05-11T09:40:06Z</time>
      </trkpt>
      <trkpt lat="39.1702440" lon="-1.4703620">
        <ele>666.8</ele>
        <time>2019-05-11T09:40:07Z</time>
      </trkpt>
      <trkpt lat="39.1702070" lon="-1.4702940">
        <ele>666.8</ele>
        <time>2019-05-11T09:40:08Z</time>
      </trkpt>
      <trkpt lat="39.1701710" lon="-1.4702280">
        <ele>667.0</ele>
        <time>2019-05-11T09:40:09Z</time>
      </trkpt>
      <trkpt lat="39.1701340" lon="-1.4701620">
        <ele>667.2</ele>
        <time>2019-05-11T09:40:10Z</time>
      </trkpt>
      <trkpt lat="39.1701010" lon="-1.4700980">
        <ele>667.2</ele>
        <time>2019-05-11T09:40:11Z</time>
      </trkpt>
      <trkpt lat="39.1700740" lon="-1.4700350">
        <ele>667.4</ele>
        <time>2019-05-11T09:40:12Z</time>
      </trkpt>
      <trkpt lat="39.1700630" lon="-1.4699750">
        <ele>667.4</ele>
        <time>2019-05-11T09:40:13Z</time>
      </trkpt>
      <trkpt lat="39.1700740" lon="-1.4699260">
        <ele>667.4</ele>
        <time>2019-05-11T09:40:14Z</time>
      </trkpt>
      <trkpt lat="39.1701040" lon="-1.4698990">
        <ele>667.6</ele>
        <time>2019-05-11T09:40:15Z</time>
      </trkpt>
      <trkpt lat="39.1701450" lon="-1.4698980">
        <ele>667.6</ele>
        <time>2019-05-11T09:40:16Z</time>
      </trkpt>
      <trkpt lat="39.1701890" lon="-1.4699140">
        <ele>667.6</ele>
        <time>2019-05-11T09:40:17Z</time>
      </trkpt>
      <trkpt lat="39.1702360" lon="-1.4699320">
        <ele>667.6</ele>
        <time>2019-05-11T09:40:18Z</time>
      </trkpt>
      <trkpt lat="39.1702880" lon="-1.4699500">
        <ele>667.6</ele>
        <time>2019-05-11T09:40:19Z</time>
      </trkpt>
      <trkpt lat="39.1703430" lon="-1.4699680">
        <ele>667.6</ele>
        <time>2019-05-11T09:40:20Z</time>
      </trkpt>
      <trkpt lat="39.1704000" lon="-1.4699880">
        <ele>667.6</ele>
        <time>2019-05-11T09:40:21Z</time>
      </trkpt>
      <trkpt lat="39.1704590" lon="-1.4700090">
        <ele>667.6</ele>
        <time>2019-05-11T09:40:22Z</time>
      </trkpt>
      <trkpt lat="39.1705180" lon="-1.4700320">
        <ele>667.6</ele>
        <time>2019-05-11T09:40:23Z</time>
      </trkpt>
      <trkpt lat="39.1705780" lon="-1.4700580">
        <ele>667.8</ele>
        <time>2019-05-11T09:40:24Z</time>
      </trkpt>
      <trkpt lat="39.1706390" lon="-1.4700870">
        <ele>667.8</ele>
        <time>2019-05-11T09:40:25Z</time>
      </trkpt>
      <trkpt lat="39.1707010" lon="-1.4701180">
        <ele>667.8</ele>
        <time>2019-05-11T09:40:26Z</time>
      </trkpt>
      <trkpt lat="39.1707620" lon="-1.4701520">
        <ele>667.8</ele>
        <time>2019-05-11T09:40:27Z</time>
      </trkpt>
      <trkpt lat="39.1708230" lon="-1.4701880">
        <ele>667.8</ele>
        <time>2019-05-11T09:40:28Z</time>
      </trkpt>
      <trkpt lat="39.1708850" lon="-1.4702260">
        <ele>667.8</ele>
        <time>2019-05-11T09:40:29Z</time>
      </trkpt>
      <trkpt lat="39.1709470" lon="-1.4702650">
        <ele>667.8</ele>
        <time>2019-05-11T09:40:30Z</time>
      </trkpt>
      <trkpt lat="39.1710100" lon="-1.4703060">
        <ele>667.8</ele>
        <time>2019-05-11T09:40:31Z</time>
      </trkpt>
      <trkpt lat="39.1710720" lon="-1.4703500">
        <ele>667.8</ele>
        <time>2019-05-11T09:40:32Z</time>
      </trkpt>
      <trkpt lat="39.1711340" lon="-1.4703960">
        <ele>667.8</ele>
        <time>2019-05-11T09:40:33Z</time>
      </trkpt>
      <trkpt lat="39.1711970" lon="-1.4704430">
        <ele>667.8</ele>
        <time>2019-05-11T09:40:34Z</time>
      </trkpt>
      <trkpt lat="39.1712600" lon="-1.4704890">
        <ele>667.8</ele>
        <time>2019-05-11T09:40:35Z</time>
      </trkpt>
      <trkpt lat="39.1713230" lon="-1.4705370">
        <ele>667.8</ele>
        <time>2019-05-11T09:40:36Z</time>
      </trkpt>
      <trkpt lat="39.1713840" lon="-1.4705880">
        <ele>667.8</ele>
        <time>2019-05-11T09:40:37Z</time>
      </trkpt>
      <trkpt lat="39.1714430" lon="-1.4706420">
        <ele>667.8</ele>
        <time>2019-05-11T09:40:38Z</time>
      </trkpt>
      <trkpt lat="39.1715020" lon="-1.4707000">
        <ele>667.6</ele>
        <time>2019-05-11T09:40:39Z</time>
      </trkpt>
      <trkpt lat="39.1715590" lon="-1.4707620">
        <ele>667.6</ele>
        <time>2019-05-11T09:40:40Z</time>
      </trkpt>
      <trkpt lat="39.1716140" lon="-1.4708280">
        <ele>667.6</ele>
        <time>2019-05-11T09:40:41Z</time>
      </trkpt>
      <trkpt lat="39.1716680" lon="-1.4708970">
        <ele>667.6</ele>
        <time>2019-05-11T09:40:42Z</time>
      </trkpt>
      <trkpt lat="39.1717210" lon="-1.4709670">
        <ele>667.6</ele>
        <time>2019-05-11T09:40:43Z</time>
      </trkpt>
      <trkpt lat="39.1717730" lon="-1.4710390">
        <ele>667.4</ele>
        <time>2019-05-11T09:40:44Z</time>
      </trkpt>
      <trkpt lat="39.1718210" lon="-1.4711140">
        <ele>667.2</ele>
        <time>2019-05-11T09:40:45Z</time>
      </trkpt>
      <trkpt lat="39.1718670" lon="-1.4711910">
        <ele>667.0</ele>
        <time>2019-05-11T09:40:46Z</time>
      </trkpt>
      <trkpt lat="39.1719090" lon="-1.4712710">
        <ele>666.8</ele>
        <time>2019-05-11T09:40:47Z</time>
      </trkpt>
      <trkpt lat="39.1719490" lon="-1.4713490">
        <ele>666.6</ele>
        <time>2019-05-11T09:40:48Z</time>
      </trkpt>
      <trkpt lat="39.1719890" lon="-1.4714270">
        <ele>666.6</ele>
        <time>2019-05-11T09:40:49Z</time>
      </trkpt>
      <trkpt lat="39.1720270" lon="-1.4715020">
        <ele>666.6</ele>
        <time>2019-05-11T09:40:50Z</time>
      </trkpt>
      <trkpt lat="39.1720670" lon="-1.4715740">
        <ele>666.4</ele>
        <time>2019-05-11T09:40:51Z</time>
      </trkpt>
      <trkpt lat="39.1721070" lon="-1.4716420">
        <ele>666.4</ele>
        <time>2019-05-11T09:40:52Z</time>
      </trkpt>
      <trkpt lat="39.1721490" lon="-1.4717050">
        <ele>666.2</ele>
        <time>2019-05-11T09:40:53Z</time>
      </trkpt>
      <trkpt lat="39.1721950" lon="-1.4717610">
        <ele>666.2</ele>
        <time>2019-05-11T09:40:54Z</time>
      </trkpt>
      <trkpt lat="39.1722470" lon="-1.4718050">
        <ele>666.2</ele>
        <time>2019-05-11T09:40:55Z</time>
      </trkpt>
      <trkpt lat="39.1723030" lon="-1.4718400">
        <ele>666.0</ele>
        <time>2019-05-11T09:40:56Z</time>
      </trkpt>
      <trkpt lat="39.1723630" lon="-1.4718670">
        <ele>666.0</ele>
        <time>2019-05-11T09:40:57Z</time>
      </trkpt>
      <trkpt lat="39.1724250" lon="-1.4718870">
        <ele>666.0</ele>
        <time>2019-05-11T09:40:58Z</time>
      </trkpt>
      <trkpt lat="39.1724890" lon="-1.4719030">
        <ele>666.0</ele>
        <time>2019-05-11T09:40:59Z</time>
      </trkpt>
      <trkpt lat="39.1725540" lon="-1.4719150">
        <ele>666.0</ele>
        <time>2019-05-11T09:41:00Z</time>
      </trkpt>
      <trkpt lat="39.1726200" lon="-1.4719260">
        <ele>666.0</ele>
        <time>2019-05-11T09:41:01Z</time>
      </trkpt>
      <trkpt lat="39.1726860" lon="-1.4719400">
        <ele>666.0</ele>
        <time>2019-05-11T09:41:02Z</time>
      </trkpt>
      <trkpt lat="39.1727520" lon="-1.4719530">
        <ele>666.0</ele>
        <time>2019-05-11T09:41:03Z</time>
      </trkpt>
      <trkpt lat="39.1728180" lon="-1.4719650">
        <ele>666.0</ele>
        <time>2019-05-11T09:41:04Z</time>
      </trkpt>
      <trkpt lat="39.1728850" lon="-1.4719760">
        <ele>666.0</ele>
        <time>2019-05-11T09:41:05Z</time>
      </trkpt>
      <trkpt lat="39.1729530" lon="-1.4719860">
        <ele>666.0</ele>
        <time>2019-05-11T09:41:06Z</time>
      </trkpt>
      <trkpt lat="39.1730210" lon="-1.4719960">
        <ele>666.0</ele>
        <time>2019-05-11T09:41:07Z</time>
      </trkpt>
      <trkpt lat="39.1730910" lon="-1.4720050">
        <ele>666.0</ele>
        <time>2019-05-11T09:41:08Z</time>
      </trkpt>
      <trkpt lat="39.1731610" lon="-1.4720150">
        <ele>666.0</ele>
        <time>2019-05-11T09:41:09Z</time>
      </trkpt>
      <trkpt lat="39.1732310" lon="-1.4720230">
        <ele>666.2</ele>
        <time>2019-05-11T09:41:10Z</time>
      </trkpt>
      <trkpt lat="39.1733010" lon="-1.4720330">
        <ele>666.2</ele>
        <time>2019-05-11T09:41:11Z</time>
      </trkpt>
      <trkpt lat="39.1733710" lon="-1.4720430">
        <ele>666.2</ele>
        <time>2019-05-11T09:41:12Z</time>
      </trkpt>
      <trkpt lat="39.1734410" lon="-1.4720500">
        <ele>666.2</ele>
        <time>2019-05-11T09:41:13Z</time>
      </trkpt>
      <trkpt lat="39.1735110" lon="-1.4720570">
        <ele>666.2</ele>
        <time>2019-05-11T09:41:14Z</time>
      </trkpt>
      <trkpt lat="39.1735800" lon="-1.4720650">
        <ele>666.2</ele>
        <time>2019-05-11T09:41:15Z</time>
      </trkpt>
      <trkpt lat="39.1736490" lon="-1.4720730">
        <ele>666.2</ele>
        <time>2019-05-11T09:41:16Z</time>
      </trkpt>
      <trkpt lat="39.1737170" lon="-1.4720820">
        <ele>666.2</ele>
        <time>2019-05-11T09:41:17Z</time>
      </trkpt>
      <trkpt lat="39.1737870" lon="-1.4720900">
        <ele>666.2</ele>
        <time>2019-05-11T09:41:18Z</time>
      </trkpt>
      <trkpt lat="39.1738560" lon="-1.4720970">
        <ele>666.2</ele>
        <time>2019-05-11T09:41:19Z</time>
      </trkpt>
      <trkpt lat="39.1739260" lon="-1.4721050">
        <ele>666.2</ele>
        <time>2019-05-11T09:41:20Z</time>
      </trkpt>
      <trkpt lat="39.1739950" lon="-1.4721130">
        <ele>666.2</ele>
        <time>2019-05-11T09:41:21Z</time>
      </trkpt>
      <trkpt lat="39.1740650" lon="-1.4721230">
        <ele>666.2</ele>
        <time>2019-05-11T09:41:22Z</time>
      </trkpt>
      <trkpt lat="39.1741340" lon="-1.4721320">
        <ele>666.2</ele>
        <time>2019-05-11T09:41:23Z</time>
      </trkpt>
      <trkpt lat="39.1742030" lon="-1.4721390">
        <ele>666.2</ele>
        <time>2019-05-11T09:41:24Z</time>
      </trkpt>
      <trkpt lat="39.1742730" lon="-1.4721470">
        <ele>666.2</ele>
        <time>2019-05-11T09:41:25Z</time>
      </trkpt>
      <trkpt lat="39.1743420" lon="-1.4721560">
        <ele>666.2</ele>
        <time>2019-05-11T09:41:26Z</time>
      </trkpt>
      <trkpt lat="39.1744120" lon="-1.4721670">
        <ele>666.0</ele>
        <time>2019-05-11T09:41:27Z</time>
      </trkpt>
      <trkpt lat="39.1744800" lon="-1.4721790">
        <ele>666.0</ele>
        <time>2019-05-11T09:41:28Z</time>
      </trkpt>
      <trkpt lat="39.1745490" lon="-1.4721910">
        <ele>666.0</ele>
        <time>2019-05-11T09:41:29Z</time>
      </trkpt>
      <trkpt lat="39.1746170" lon="-1.4722030">
        <ele>665.6</ele>
        <time>2019-05-11T09:41:30Z</time>
      </trkpt>
      <trkpt lat="39.1746850" lon="-1.4722160">
        <ele>665.4</ele>
        <time>2019-05-11T09:41:31Z</time>
      </trkpt>
      <trkpt lat="39.1747530" lon="-1.4722250">
        <ele>665.2</ele>
        <time>2019-05-11T09:41:32Z</time>
      </trkpt>
      <trkpt lat="39.1748220" lon="-1.4722330">
        <ele>665.0</ele>
        <time>2019-05-11T09:41:33Z</time>
      </trkpt>
      <trkpt lat="39.1748920" lon="-1.4722370">
        <ele>664.8</ele>
        <time>2019-05-11T09:41:34Z</time>
      </trkpt>
      <trkpt lat="39.1749610" lon="-1.4722380">
        <ele>664.8</ele>
        <time>2019-05-11T09:41:35Z</time>
      </trkpt>
      <trkpt lat="39.1750310" lon="-1.4722340">
        <ele>664.8</ele>
        <time>2019-05-11T09:41:36Z</time>
      </trkpt>
      <trkpt lat="39.1750990" lon="-1.4722250">
        <ele>664.6</ele>
        <time>2019-05-11T09:41:37Z</time>
      </trkpt>
      <trkpt lat="39.1751670" lon="-1.4722120">
        <ele>664.6</ele>
        <time>2019-05-11T09:41:38Z</time>
      </trkpt>
      <trkpt lat="39.1752330" lon="-1.4721960">
        <ele>664.6</ele>
        <time>2019-05-11T09:41:39Z</time>
      </trkpt>
      <trkpt lat="39.1752980" lon="-1.4721800">
        <ele>664.4</ele>
        <time>2019-05-11T09:41:40Z</time>
      </trkpt>
      <trkpt lat="39.1753620" lon="-1.4721640">
        <ele>664.4</ele>
        <time>2019-05-11T09:41:41Z</time>
      </trkpt>
      <trkpt lat="39.1754230" lon="-1.4721480">
        <ele>664.4</ele>
        <time>2019-05-11T09:41:42Z</time>
      </trkpt>
      <trkpt lat="39.1754840" lon="-1.4721340">
        <ele>664.4</ele>
        <time>2019-05-11T09:41:43Z</time>
      </trkpt>
      <trkpt lat="39.1755420" lon="-1.4721230">
        <ele>664.4</ele>
        <time>2019-05-11T09:41:44Z</time>
      </trkpt>
      <trkpt lat="39.1755980" lon="-1.4721180">
        <ele>664.4</ele>
        <time>2019-05-11T09:41:45Z</time>
      </trkpt>
      <trkpt lat="39.1756510" lon="-1.4721200">
        <ele>664.4</ele>
        <time>2019-05-11T09:41:46Z</time>
      </trkpt>
      <trkpt lat="39.1756990" lon="-1.4721260">
        <ele>664.4</ele>
        <time>2019-05-11T09:41:47Z</time>
      </trkpt>
      <trkpt lat="39.1757420" lon="-1.4721350">
        <ele>664.4</ele>
        <time>2019-05-11T09:41:48Z</time>
      </trkpt>
      <trkpt lat="39.1757810" lon="-1.4721440">
        <ele>664.4</ele>
        <time>2019-05-11T09:41:49Z</time>
      </trkpt>
      <trkpt lat="39.1758150" lon="-1.4721550">
        <ele>664.6</ele>
        <time>2019-05-11T09:41:50Z</time>
      </trkpt>
      <trkpt lat="39.1758450" lon="-1.4721640">
        <ele>664.6</ele>
        <time>2019-05-11T09:41:51Z</time>
      </trkpt>
      <trkpt lat="39.1758700" lon="-1.4721720">
        <ele>664.8</ele>
        <time>2019-05-11T09:41:52Z</time>
      </trkpt>
      <trkpt lat="39.1758940" lon="-1.4721800">
        <ele>665.0</ele>
        <time>2019-05-11T09:41:53Z</time>
      </trkpt>
      <trkpt lat="39.1759180" lon="-1.4721860">
        <ele>665.4</ele>
        <time>2019-05-11T09:41:54Z</time>
      </trkpt>
      <trkpt lat="39.1759410" lon="-1.4721940">
        <ele>665.6</ele>
        <time>2019-05-11T09:41:55Z</time>
      </trkpt>
      <trkpt lat="39.1759650" lon="-1.4722020">
        <ele>665.8</ele>
        <time>2019-05-11T09:41:56Z</time>
      </trkpt>
      <trkpt lat="39.1759910" lon="-1.4722040">
        <ele>666.0</ele>
        <time>2019-05-11T09:41:57Z</time>
      </trkpt>
      <trkpt lat="39.1760200" lon="-1.4722080">
        <ele>666.2</ele>
        <time>2019-05-11T09:41:58Z</time>
      </trkpt>
      <trkpt lat="39.1760500" lon="-1.4722170">
        <ele>666.6</ele>
        <time>2019-05-11T09:41:59Z</time>
      </trkpt>
      <trkpt lat="39.1760810" lon="-1.4722270">
        <ele>666.8</ele>
        <time>2019-05-11T09:42:00Z</time>
      </trkpt>
      <trkpt lat="39.1761170" lon="-1.4722360">
        <ele>667.0</ele>
        <time>2019-05-11T09:42:01Z</time>
      </trkpt>
      <trkpt lat="39.1761540" lon="-1.4722440">
        <ele>667.4</ele>
        <time>2019-05-11T09:42:02Z</time>
      </trkpt>
      <trkpt lat="39.1761940" lon="-1.4722530">
        <ele>667.8</ele>
        <time>2019-05-11T09:42:03Z</time>
      </trkpt>
      <trkpt lat="39.1762350" lon="-1.4722630">
        <ele>668.0</ele>
        <time>2019-05-11T09:42:04Z</time>
      </trkpt>
      <trkpt lat="39.1762790" lon="-1.4722750">
        <ele>668.2</ele>
        <time>2019-05-11T09:42:05Z</time>
      </trkpt>
      <trkpt lat="39.1763240" lon="-1.4722840">
        <ele>668.6</ele>
        <time>2019-05-11T09:42:06Z</time>
      </trkpt>
      <trkpt lat="39.1763710" lon="-1.4722950">
        <ele>669.2</ele>
        <time>2019-05-11T09:42:07Z</time>
      </trkpt>
      <trkpt lat="39.1764200" lon="-1.4723070">
        <ele>669.4</ele>
        <time>2019-05-11T09:42:08Z</time>
      </trkpt>
      <trkpt lat="39.1764700" lon="-1.4723190">
        <ele>669.4</ele>
        <time>2019-05-11T09:42:09Z</time>
      </trkpt>
      <trkpt lat="39.1765200" lon="-1.4723300">
        <ele>669.4</ele>
        <time>2019-05-11T09:42:10Z</time>
      </trkpt>
      <trkpt lat="39.1765700" lon="-1.4723420">
        <ele>669.6</ele>
        <time>2019-05-11T09:42:11Z</time>
      </trkpt>
      <trkpt lat="39.1766220" lon="-1.4723540">
        <ele>669.6</ele>
        <time>2019-05-11T09:42:12Z</time>
      </trkpt>
      <trkpt lat="39.1766740" lon="-1.4723670">
        <ele>669.6</ele>
        <time>2019-05-11T09:42:13Z</time>
      </trkpt>
      <trkpt lat="39.1767270" lon="-1.4723800">
        <ele>669.6</ele>
        <time>2019-05-11T09:42:14Z</time>
      </trkpt>
      <trkpt lat="39.1767810" lon="-1.4723940">
        <ele>669.8</ele>
        <time>2019-05-11T09:42:15Z</time>
      </trkpt>
      <trkpt lat="39.1768340" lon="-1.4724080">
        <ele>669.8</ele>
        <time>2019-05-11T09:42:16Z</time>
      </trkpt>
      <trkpt lat="39.1768880" lon="-1.4724220">
        <ele>669.8</ele>
        <time>2019-05-11T09:42:17Z</time>
      </trkpt>
      <trkpt lat="39.1769430" lon="-1.4724350">
        <ele>669.8</ele>
        <time>2019-05-11T09:42:18Z</time>
      </trkpt>
      <trkpt lat="39.1769990" lon="-1.4724490">
        <ele>669.8</ele>
        <time>2019-05-11T09:42:19Z</time>
      </trkpt>
      <trkpt lat="39.1770550" lon="-1.4724620">
        <ele>669.8</ele>
        <time>2019-05-11T09:42:20Z</time>
      </trkpt>
      <trkpt lat="39.1771100" lon="-1.4724760">
        <ele>669.8</ele>
        <time>2019-05-11T09:42:21Z</time>
      </trkpt>
      <trkpt lat="39.1771660" lon="-1.4724900">
        <ele>669.8</ele>
        <time>2019-05-11T09:42:22Z</time>
      </trkpt>
      <trkpt lat="39.1772200" lon="-1.4725050">
        <ele>669.8</ele>
        <time>2019-05-11T09:42:23Z</time>
      </trkpt>
      <trkpt lat="39.1772750" lon="-1.4725190">
        <ele>669.8</ele>
        <time>2019-05-11T09:42:24Z</time>
      </trkpt>
      <trkpt lat="39.1773300" lon="-1.4725340">
        <ele>669.8</ele>
        <time>2019-05-11T09:42:25Z</time>
      </trkpt>
      <trkpt lat="39.1773830" lon="-1.4725510">
        <ele>669.8</ele>
        <time>2019-05-11T09:42:26Z</time>
      </trkpt>
      <trkpt lat="39.1774360" lon="-1.4725690">
        <ele>669.8</ele>
        <time>2019-05-11T09:42:27Z</time>
      </trkpt>
      <trkpt lat="39.1774880" lon="-1.4725910">
        <ele>669.6</ele>
        <time>2019-05-11T09:42:28Z</time>
      </trkpt>
      <trkpt lat="39.1775380" lon="-1.4726160">
        <ele>669.8</ele>
        <time>2019-05-11T09:42:29Z</time>
      </trkpt>
      <trkpt lat="39.1775860" lon="-1.4726470">
        <ele>669.8</ele>
        <time>2019-05-11T09:42:30Z</time>
      </trkpt>
      <trkpt lat="39.1776320" lon="-1.4726820">
        <ele>669.8</ele>
        <time>2019-05-11T09:42:31Z</time>
      </trkpt>
      <trkpt lat="39.1776760" lon="-1.4727210">
        <ele>669.8</ele>
        <time>2019-05-11T09:42:32Z</time>
      </trkpt>
      <trkpt lat="39.1777180" lon="-1.4727640">
        <ele>669.8</ele>
        <time>2019-05-11T09:42:33Z</time>
      </trkpt>
      <trkpt lat="39.1777590" lon="-1.4728100">
        <ele>669.8</ele>
        <time>2019-05-11T09:42:34Z</time>
      </trkpt>
      <trkpt lat="39.1777990" lon="-1.4728580">
        <ele>669.8</ele>
        <time>2019-05-11T09:42:35Z</time>
      </trkpt>
      <trkpt lat="39.1778380" lon="-1.4729080">
        <ele>670.0</ele>
        <time>2019-05-11T09:42:36Z</time>
      </trkpt>
      <trkpt lat="39.1778780" lon="-1.4729590">
        <ele>670.0</ele>
        <time>2019-05-11T09:42:37Z</time>
      </trkpt>
      <trkpt lat="39.1779180" lon="-1.4730100">
        <ele>670.0</ele>
        <time>2019-05-11T09:42:38Z</time>
      </trkpt>
      <trkpt lat="39.1779580" lon="-1.4730630">
        <ele>670.0</ele>
        <time>2019-05-11T09:42:39Z</time>
      </trkpt>
      <trkpt lat="39.1779990" lon="-1.4731180">
        <ele>670.2</ele>
        <time>2019-05-11T09:42:40Z</time>
      </trkpt>
      <trkpt lat="39.1780410" lon="-1.4731730">
        <ele>670.0</ele>
        <time>2019-05-11T09:42:41Z</time>
      </trkpt>
      <trkpt lat="39.1780830" lon="-1.4732300">
        <ele>670.0</ele>
        <time>2019-05-11T09:42:42Z</time>
      </trkpt>
      <trkpt lat="39.1781260" lon="-1.4732880">
        <ele>670.0</ele>
        <time>2019-05-11T09:42:43Z</time>
      </trkpt>
      <trkpt lat="39.1781730" lon="-1.4733470">
        <ele>670.0</ele>
        <time>2019-05-11T09:42:44Z</time>
      </trkpt>
      <trkpt lat="39.1782230" lon="-1.4734060">
        <ele>670.0</ele>
        <time>2019-05-11T09:42:45Z</time>
      </trkpt>
      <trkpt lat="39.1782770" lon="-1.4734650">
        <ele>670.0</ele>
        <time>2019-05-11T09:42:46Z</time>
      </trkpt>
      <trkpt lat="39.1783370" lon="-1.4735250">
        <ele>670.0</ele>
        <time>2019-05-11T09:42:47Z</time>
      </trkpt>
      <trkpt lat="39.1784040" lon="-1.4735860">
        <ele>670.0</ele>
        <time>2019-05-11T09:42:48Z</time>
      </trkpt>
      <trkpt lat="39.1784770" lon="-1.4736450">
        <ele>670.0</ele>
        <time>2019-05-11T09:42:49Z</time>
      </trkpt>
      <trkpt lat="39.1785540" lon="-1.4737060">
        <ele>670.0</ele>
        <time>2019-05-11T09:42:50Z</time>
      </trkpt>
      <trkpt lat="39.1786340" lon="-1.4737710">
        <ele>670.0</ele>
        <time>2019-05-11T09:42:51Z</time>
      </trkpt>
      <trkpt lat="39.1787160" lon="-1.4738390">
        <ele>669.8</ele>
        <time>2019-05-11T09:42:52Z</time>
      </trkpt>
      <trkpt lat="39.1788030" lon="-1.4739060">
        <ele>669.6</ele>
        <time>2019-05-11T09:42:53Z</time>
      </trkpt>
      <trkpt lat="39.1788970" lon="-1.4739630">
        <ele>669.2</ele>
        <time>2019-05-11T09:42:54Z</time>
      </trkpt>
      <trkpt lat="39.1789980" lon="-1.4740070">
        <ele>669.0</ele>
        <time>2019-05-11T09:42:55Z</time>
      </trkpt>
      <trkpt lat="39.1791050" lon="-1.4740340">
        <ele>668.6</ele>
        <time>2019-05-11T09:42:56Z</time>
      </trkpt>
      <trkpt lat="39.1792140" lon="-1.4740490">
        <ele>668.0</ele>
        <time>2019-05-11T09:42:57Z</time>
      </trkpt>
      <trkpt lat="39.1793220" lon="-1.4740630">
        <ele>667.2</ele>
        <time>2019-05-11T09:42:58Z</time>
      </trkpt>
      <trkpt lat="39.1794230" lon="-1.4740840">
        <ele>666.6</ele>
        <time>2019-05-11T09:42:59Z</time>
      </trkpt>
      <trkpt lat="39.1795170" lon="-1.4741130">
        <ele>665.6</ele>
        <time>2019-05-11T09:43:00Z</time>
      </trkpt>
      <trkpt lat="39.1796040" lon="-1.4741520">
        <ele>664.8</ele>
        <time>2019-05-11T09:43:01Z</time>
      </trkpt>
      <trkpt lat="39.1796830" lon="-1.4742030">
        <ele>663.8</ele>
        <time>2019-05-11T09:43:02Z</time>
      </trkpt>
      <trkpt lat="39.1797540" lon="-1.4742660">
        <ele>663.0</ele>
        <time>2019-05-11T09:43:03Z</time>
      </trkpt>
      <trkpt lat="39.1798180" lon="-1.4743360">
        <ele>662.4</ele>
        <time>2019-05-11T09:43:04Z</time>
      </trkpt>
      <trkpt lat="39.1798790" lon="-1.4744080">
        <ele>661.8</ele>
        <time>2019-05-11T09:43:05Z</time>
      </trkpt>
      <trkpt lat="39.1799400" lon="-1.4744790">
        <ele>661.4</ele>
        <time>2019-05-11T09:43:06Z</time>
      </trkpt>
      <trkpt lat="39.1800020" lon="-1.4745470">
        <ele>661.0</ele>
        <time>2019-05-11T09:43:07Z</time>
      </trkpt>
      <trkpt lat="39.1800690" lon="-1.4746070">
        <ele>660.6</ele>
        <time>2019-05-11T09:43:08Z</time>
      </trkpt>
      <trkpt lat="39.1801390" lon="-1.4746560">
        <ele>660.4</ele>
        <time>2019-05-11T09:43:09Z</time>
      </trkpt>
      <trkpt lat="39.1802140" lon="-1.4746900">
        <ele>660.4</ele>
        <time>2019-05-11T09:43:10Z</time>
      </trkpt>
      <trkpt lat="39.1802910" lon="-1.4747090">
        <ele>660.2</ele>
        <time>2019-05-11T09:43:11Z</time>
      </trkpt>
      <trkpt lat="39.1803690" lon="-1.4747110">
        <ele>660.2</ele>
        <time>2019-05-11T09:43:12Z</time>
      </trkpt>
      <trkpt lat="39.1804450" lon="-1.4746950">
        <ele>660.0</ele>
        <time>2019-05-11T09:43:13Z</time>
      </trkpt>
      <trkpt lat="39.1805180" lon="-1.4746650">
        <ele>660.0</ele>
        <time>2019-05-11T09:43:14Z</time>
      </trkpt>
      <trkpt lat="39.1805880" lon="-1.4746230">
        <ele>659.8</ele>
        <time>2019-05-11T09:43:15Z</time>
      </trkpt>
      <trkpt lat="39.1806540" lon="-1.4745720">
        <ele>659.8</ele>
        <time>2019-05-11T09:43:16Z</time>
      </trkpt>
      <trkpt lat="39.1807160" lon="-1.4745150">
        <ele>659.6</ele>
        <time>2019-05-11T09:43:17Z</time>
      </trkpt>
      <trkpt lat="39.1807750" lon="-1.4744550">
        <ele>659.6</ele>
        <time>2019-05-11T09:43:18Z</time>
      </trkpt>
      <trkpt lat="39.1808330" lon="-1.4743940">
        <ele>659.6</ele>
        <time>2019-05-11T09:43:19Z</time>
      </trkpt>
      <trkpt lat="39.1808890" lon="-1.4743330">
        <ele>659.6</ele>
        <time>2019-05-11T09:43:20Z</time>
      </trkpt>
      <trkpt lat="39.1809450" lon="-1.4742720">
        <ele>659.6</ele>
        <time>2019-05-11T09:43:21Z</time>
      </trkpt>
      <trkpt lat="39.1809980" lon="-1.4742130">
        <ele>659.4</ele>
        <time>2019-05-11T09:43:22Z</time>
      </trkpt>
      <trkpt lat="39.1810490" lon="-1.4741540">
        <ele>659.4</ele>
        <time>2019-05-11T09:43:23Z</time>
      </trkpt>
      <trkpt lat="39.1811010" lon="-1.4740970">
        <ele>659.4</ele>
        <time>2019-05-11T09:43:24Z</time>
      </trkpt>
      <trkpt lat="39.1811530" lon="-1.4740420">
        <ele>659.0</ele>
        <time>2019-05-11T09:43:25Z</time>
      </trkpt>
      <trkpt lat="39.1812040" lon="-1.4739870">
        <ele>659.0</ele>
        <time>2019-05-11T09:43:26Z</time>
      </trkpt>
      <trkpt lat="39.1812540" lon="-1.4739320">
        <ele>658.8</ele>
        <time>2019-05-11T09:43:27Z</time>
      </trkpt>
      <trkpt lat="39.1813040" lon="-1.4738790">
        <ele>658.6</ele>
        <time>2019-05-11T09:43:28Z</time>
      </trkpt>
      <trkpt lat="39.1813520" lon="-1.4738250">
        <ele>658.6</ele>
        <time>2019-05-11T09:43:29Z</time>
      </trkpt>
      <trkpt lat="39.1814000" lon="-1.4737720">
        <ele>658.4</ele>
        <time>2019-05-11T09:43:30Z</time>
      </trkpt>
      <trkpt lat="39.1814480" lon="-1.4737200">
        <ele>658.4</ele>
        <time>2019-05-11T09:43:31Z</time>
      </trkpt>
      <trkpt lat="39.1814950" lon="-1.4736670">
        <ele>658.4</ele>
        <time>2019-05-11T09:43:32Z</time>
      </trkpt>
      <trkpt lat="39.1815370" lon="-1.4736080">
        <ele>658.4</ele>
        <time>2019-05-11T09:43:33Z</time>
      </trkpt>
      <trkpt lat="39.1815770" lon="-1.4735450">
        <ele>658.4</ele>
        <time>2019-05-11T09:43:34Z</time>
      </trkpt>
      <trkpt lat="39.1816160" lon="-1.4734800">
        <ele>658.4</ele>
        <time>2019-05-11T09:43:35Z</time>
      </trkpt>
      <trkpt lat="39.1816540" lon="-1.4734140">
        <ele>658.2</ele>
        <time>2019-05-11T09:43:36Z</time>
      </trkpt>
      <trkpt lat="39.1816880" lon="-1.4733430">
        <ele>658.2</ele>
        <time>2019-05-11T09:43:37Z</time>
      </trkpt>
      <trkpt lat="39.1817220" lon="-1.4732690">
        <ele>658.2</ele>
        <time>2019-05-11T09:43:38Z</time>
      </trkpt>
      <trkpt lat="39.1817560" lon="-1.4731950">
        <ele>658.2</ele>
        <time>2019-05-11T09:43:39Z</time>
      </trkpt>
      <trkpt lat="39.1817940" lon="-1.4731210">
        <ele>658.2</ele>
        <time>2019-05-11T09:43:40Z</time>
      </trkpt>
      <trkpt lat="39.1818300" lon="-1.4730440">
        <ele>658.2</ele>
        <time>2019-05-11T09:43:41Z</time>
      </trkpt>
      <trkpt lat="39.1818670" lon="-1.4729650">
        <ele>658.2</ele>
        <time>2019-05-11T09:43:42Z</time>
      </trkpt>
      <trkpt lat="39.1819060" lon="-1.4728870">
        <ele>658.2</ele>
        <time>2019-05-11T09:43:43Z</time>
      </trkpt>
      <trkpt lat="39.1819460" lon="-1.4728090">
        <ele>658.2</ele>
        <time>2019-05-11T09:43:44Z</time>
      </trkpt>
      <trkpt lat="39.1819860" lon="-1.4727310">
        <ele>658.2</ele>
        <time>2019-05-11T09:43:45Z</time>
      </trkpt>
      <trkpt lat="39.1820270" lon="-1.4726530">
        <ele>658.2</ele>
        <time>2019-05-11T09:43:46Z</time>
      </trkpt>
      <trkpt lat="39.1820680" lon="-1.4725740">
        <ele>658.2</ele>
        <time>2019-05-11T09:43:47Z</time>
      </trkpt>
      <trkpt lat="39.1821090" lon="-1.4724960">
        <ele>658.2</ele>
        <time>2019-05-11T09:43:48Z</time>
      </trkpt>
      <trkpt lat="39.1821510" lon="-1.4724170">
        <ele>658.2</ele>
        <time>2019-05-11T09:43:49Z</time>
      </trkpt>
      <trkpt lat="39.1821940" lon="-1.4723360">
        <ele>658.2</ele>
        <time>2019-05-11T09:43:50Z</time>
      </trkpt>
      <trkpt lat="39.1822380" lon="-1.4722530">
        <ele>658.2</ele>
        <time>2019-05-11T09:43:51Z</time>
      </trkpt>
      <trkpt lat="39.1822810" lon="-1.4721680">
        <ele>658.2</ele>
        <time>2019-05-11T09:43:52Z</time>
      </trkpt>
      <trkpt lat="39.1823240" lon="-1.4720800">
        <ele>658.2</ele>
        <time>2019-05-11T09:43:53Z</time>
      </trkpt>
      <trkpt lat="39.1823660" lon="-1.4719900">
        <ele>658.2</ele>
        <time>2019-05-11T09:43:54Z</time>
      </trkpt>
      <trkpt lat="39.1824070" lon="-1.4718970">
        <ele>658.0</ele>
        <time>2019-05-11T09:43:55Z</time>
      </trkpt>
      <trkpt lat="39.1824490" lon="-1.4718030">
        <ele>658.0</ele>
        <time>2019-05-11T09:43:56Z</time>
      </trkpt>
      <trkpt lat="39.1824900" lon="-1.4717090">
        <ele>658.0</ele>
        <time>2019-05-11T09:43:57Z</time>
      </trkpt>
      <trkpt lat="39.1825320" lon="-1.4716150">
        <ele>658.0</ele>
        <time>2019-05-11T09:43:58Z</time>
      </trkpt>
      <trkpt lat="39.1825740" lon="-1.4715220">
        <ele>658.0</ele>
        <time>2019-05-11T09:43:59Z</time>
      </trkpt>
      <trkpt lat="39.1826200" lon="-1.4714330">
        <ele>657.8</ele>
        <time>2019-05-11T09:44:00Z</time>
      </trkpt>
      <trkpt lat="39.1826700" lon="-1.4713490">
        <ele>657.8</ele>
        <time>2019-05-11T09:44:01Z</time>
      </trkpt>
      <trkpt lat="39.1827240" lon="-1.4712710">
        <ele>657.8</ele>
        <time>2019-05-11T09:44:02Z</time>
      </trkpt>
      <trkpt lat="39.1827810" lon="-1.4711970">
        <ele>657.8</ele>
        <time>2019-05-11T09:44:03Z</time>
      </trkpt>
      <trkpt lat="39.1828420" lon="-1.4711290">
        <ele>657.6</ele>
        <time>2019-05-11T09:44:04Z</time>
      </trkpt>
      <trkpt lat="39.1829060" lon="-1.4710630">
        <ele>657.6</ele>
        <time>2019-05-11T09:44:05Z</time>
      </trkpt>
      <trkpt lat="39.1829730" lon="-1.4710010">
        <ele>657.4</ele>
        <time>2019-05-11T09:44:06Z</time>
      </trkpt>
      <trkpt lat="39.1830420" lon="-1.4709430">
        <ele>657.4</ele>
        <time>2019-05-11T09:44:07Z</time>
      </trkpt>
      <trkpt lat="39.1831140" lon="-1.4708880">
        <ele>657.4</ele>
        <time>2019-05-11T09:44:08Z</time>
      </trkpt>
      <trkpt lat="39.1831890" lon="-1.4708390">
        <ele>657.2</ele>
        <time>2019-05-11T09:44:09Z</time>
      </trkpt>
      <trkpt lat="39.1832660" lon="-1.4707930">
        <ele>657.2</ele>
        <time>2019-05-11T09:44:10Z</time>
      </trkpt>
      <trkpt lat="39.1833450" lon="-1.4707500">
        <ele>657.0</ele>
        <time>2019-05-11T09:44:11Z</time>
      </trkpt>
      <trkpt lat="39.1834240" lon="-1.4707100">
        <ele>657.0</ele>
        <time>2019-05-11T09:44:12Z</time>
      </trkpt>
      <trkpt lat="39.1835030" lon="-1.4706710">
        <ele>657.0</ele>
        <time>2019-05-11T09:44:13Z</time>
      </trkpt>
      <trkpt lat="39.1835800" lon="-1.4706310">
        <ele>656.8</ele>
        <time>2019-05-11T09:44:14Z</time>
      </trkpt>
      <trkpt lat="39.1836550" lon="-1.4705890">
        <ele>656.6</ele>
        <time>2019-05-11T09:44:15Z</time>
      </trkpt>
      <trkpt lat="39.1837290" lon="-1.4705460">
        <ele>656.6</ele>
        <time>2019-05-11T09:44:16Z</time>
      </trkpt>
      <trkpt lat="39.1838050" lon="-1.4704990">
        <ele>656.4</ele>
        <time>2019-05-11T09:44:17Z</time>
      </trkpt>
      <trkpt lat="39.1838820" lon="-1.4704440">
        <ele>656.4</ele>
        <time>2019-05-11T09:44:18Z</time>
      </trkpt>
      <trkpt lat="39.1839630" lon="-1.4703850">
        <ele>656.2</ele>
        <time>2019-05-11T09:44:19Z</time>
      </trkpt>
      <trkpt lat="39.1840470" lon="-1.4703240">
        <ele>656.2</ele>
        <time>2019-05-11T09:44:20Z</time>
      </trkpt>
      <trkpt lat="39.1841300" lon="-1.4702630">
        <ele>656.0</ele>
        <time>2019-05-11T09:44:21Z</time>
      </trkpt>
      <trkpt lat="39.1842100" lon="-1.4702010">
        <ele>655.8</ele>
        <time>2019-05-11T09:44:22Z</time>
      </trkpt>
      <trkpt lat="39.1842800" lon="-1.4701320">
        <ele>655.8</ele>
        <time>2019-05-11T09:44:23Z</time>
      </trkpt>
      <trkpt lat="39.1843380" lon="-1.4700530">
        <ele>655.4</ele>
        <time>2019-05-11T09:44:24Z</time>
      </trkpt>
      <trkpt lat="39.1843880" lon="-1.4699680">
        <ele>655.0</ele>
        <time>2019-05-11T09:44:25Z</time>
      </trkpt>
      <trkpt lat="39.1844330" lon="-1.4698800">
        <ele>654.6</ele>
        <time>2019-05-11T09:44:26Z</time>
      </trkpt>
      <trkpt lat="39.1844700" lon="-1.4697850">
        <ele>653.8</ele>
        <time>2019-05-11T09:44:27Z</time>
      </trkpt>
      <trkpt lat="39.1844990" lon="-1.4696860">
        <ele>653.6</ele>
        <time>2019-05-11T09:44:28Z</time>
      </trkpt>
      <trkpt lat="39.1845230" lon="-1.4695820">
        <ele>653.6</ele>
        <time>2019-05-11T09:44:29Z</time>
      </trkpt>
      <trkpt lat="39.1845480" lon="-1.4694800">
        <ele>653.2</ele>
        <time>2019-05-11T09:44:30Z</time>
      </trkpt>
      <trkpt lat="39.1845730" lon="-1.4693770">
        <ele>653.0</ele>
        <time>2019-05-11T09:44:31Z</time>
      </trkpt>
      <trkpt lat="39.1845940" lon="-1.4692750">
        <ele>652.4</ele>
        <time>2019-05-11T09:44:32Z</time>
      </trkpt>
      <trkpt lat="39.1846010" lon="-1.4691710">
        <ele>651.6</ele>
        <time>2019-05-11T09:44:33Z</time>
      </trkpt>
      <trkpt lat="39.1845970" lon="-1.4690660">
        <ele>651.0</ele>
        <time>2019-05-11T09:44:34Z</time>
      </trkpt>
      <trkpt lat="39.1845830" lon="-1.4689670">
        <ele>650.8</ele>
        <time>2019-05-11T09:44:35Z</time>
      </trkpt>
      <trkpt lat="39.1845660" lon="-1.4688670">
        <ele>650.2</ele>
        <time>2019-05-11T09:44:36Z</time>
      </trkpt>
      <trkpt lat="39.1845550" lon="-1.4687630">
        <ele>650.0</ele>
        <time>2019-05-11T09:44:37Z</time>
      </trkpt>
      <trkpt lat="39.1845490" lon="-1.4686590">
        <ele>649.8</ele>
        <time>2019-05-11T09:44:38Z</time>
      </trkpt>
      <trkpt lat="39.1845460" lon="-1.4685560">
        <ele>649.8</ele>
        <time>2019-05-11T09:44:39Z</time>
      </trkpt>
      <trkpt lat="39.1845430" lon="-1.4684520">
        <ele>649.6</ele>
        <time>2019-05-11T09:44:40Z</time>
      </trkpt>
      <trkpt lat="39.1845370" lon="-1.4683500">
        <ele>649.4</ele>
        <time>2019-05-11T09:44:41Z</time>
      </trkpt>
      <trkpt lat="39.1845260" lon="-1.4682500">
        <ele>649.2</ele>
        <time>2019-05-11T09:44:42Z</time>
      </trkpt>
      <trkpt lat="39.1845120" lon="-1.4681540">
        <ele>649.2</ele>
        <time>2019-05-11T09:44:43Z</time>
      </trkpt>
      <trkpt lat="39.1845020" lon="-1.4680680">
        <ele>649.0</ele>
        <time>2019-05-11T09:44:44Z</time>
      </trkpt>
      <trkpt lat="39.1845090" lon="-1.4680020">
        <ele>649.0</ele>
        <time>2019-05-11T09:44:45Z</time>
      </trkpt>
      <trkpt lat="39.1845310" lon="-1.4679700">
        <ele>648.8</ele>
        <time>2019-05-11T09:44:46Z</time>
      </trkpt>
      <trkpt lat="39.1845600" lon="-1.4679630">
        <ele>648.8</ele>
        <time>2019-05-11T09:44:47Z</time>
      </trkpt>
      <trkpt lat="39.1845910" lon="-1.4679700">
        <ele>648.6</ele>
        <time>2019-05-11T09:44:48Z</time>
      </trkpt>
      <trkpt lat="39.1846190" lon="-1.4679900">
        <ele>648.6</ele>
        <time>2019-05-11T09:44:49Z</time>
      </trkpt>
      <trkpt lat="39.1846370" lon="-1.4680200">
        <ele>648.6</ele>
        <time>2019-05-11T09:44:50Z</time>
      </trkpt>
      <trkpt lat="39.1846520" lon="-1.4680510">
        <ele>648.4</ele>
        <time>2019-05-11T09:44:51Z</time>
      </trkpt>
      <trkpt lat="39.1846700" lon="-1.4680810">
        <ele>648.2</ele>
        <time>2019-05-11T09:44:52Z</time>
      </trkpt>
      <trkpt lat="39.1846880" lon="-1.4680950">
        <ele>648.0</ele>
        <time>2019-05-11T09:44:53Z</time>
      </trkpt>
      <trkpt lat="39.1847020" lon="-1.4680890">
        <ele>647.8</ele>
        <time>2019-05-11T09:44:54Z</time>
      </trkpt>
      <trkpt lat="39.1847100" lon="-1.4680680">
        <ele>647.6</ele>
        <time>2019-05-11T09:44:55Z</time>
      </trkpt>
      <trkpt lat="39.1847180" lon="-1.4680500">
        <ele>647.2</ele>
        <time>2019-05-11T09:44:56Z</time>
      </trkpt>
      <trkpt lat="39.1847340" lon="-1.4680410">
        <ele>646.8</ele>
        <time>2019-05-11T09:44:57Z</time>
      </trkpt>
      <trkpt lat="39.1847570" lon="-1.4680440">
        <ele>646.4</ele>
        <time>2019-05-11T09:44:58Z</time>
      </trkpt>
      <trkpt lat="39.1847890" lon="-1.4680670">
        <ele>646.2</ele>
        <time>2019-05-11T09:44:59Z</time>
      </trkpt>
      <trkpt lat="39.1848300" lon="-1.4681000">
        <ele>646.2</ele>
        <time>2019-05-11T09:45:00Z</time>
      </trkpt>
      <trkpt lat="39.1848670" lon="-1.4681460">
        <ele>645.6</ele>
        <time>2019-05-11T09:45:01Z</time>
      </trkpt>
      <trkpt lat="39.1849020" lon="-1.4681960">
        <ele>645.4</ele>
        <time>2019-05-11T09:45:02Z</time>
      </trkpt>
      <trkpt lat="39.1849380" lon="-1.4682360">
        <ele>644.8</ele>
        <time>2019-05-11T09:45:03Z</time>
      </trkpt>
      <trkpt lat="39.1849720" lon="-1.4682670">
        <ele>644.4</ele>
        <time>2019-05-11T09:45:04Z</time>
      </trkpt>
      <trkpt lat="39.1849930" lon="-1.4682770">
        <ele>644.0</ele>
        <time>2019-05-11T09:45:05Z</time>
      </trkpt>
      <trkpt lat="39.1850040" lon="-1.4682620">
        <ele>643.6</ele>
        <time>2019-05-11T09:45:06Z</time>
      </trkpt>
      <trkpt lat="39.1850080" lon="-1.4682370">
        <ele>643.2</ele>
        <time>2019-05-11T09:45:07Z</time>
      </trkpt>
      <trkpt lat="39.1850070" lon="-1.4681970">
        <ele>643.0</ele>
        <time>2019-05-11T09:45:08Z</time>
      </trkpt>
      <trkpt lat="39.1850020" lon="-1.4681400">
        <ele>642.4</ele>
        <time>2019-05-11T09:45:09Z</time>
      </trkpt>
      <trkpt lat="39.1850010" lon="-1.4680840">
        <ele>641.8</ele>
        <time>2019-05-11T09:45:10Z</time>
      </trkpt>
      <trkpt lat="39.1850070" lon="-1.4680370">
        <ele>641.2</ele>
        <time>2019-05-11T09:45:11Z</time>
      </trkpt>
      <trkpt lat="39.1850150" lon="-1.4680030">
        <ele>640.8</ele>
        <time>2019-05-11T09:45:12Z</time>
      </trkpt>
      <trkpt lat="39.1850450" lon="-1.4679890">
        <ele>640.4</ele>
        <time>2019-05-11T09:45:13Z</time>
      </trkpt>
      <trkpt lat="39.1850710" lon="-1.4679660">
        <ele>640.2</ele>
        <time>2019-05-11T09:45:14Z</time>
      </trkpt>
      <trkpt lat="39.1850990" lon="-1.4679310">
        <ele>640.0</ele>
        <time>2019-05-11T09:45:15Z</time>
      </trkpt>
      <trkpt lat="39.1851330" lon="-1.4678940">
        <ele>639.6</ele>
        <time>2019-05-11T09:45:16Z</time>
      </trkpt>
      <trkpt lat="39.1851730" lon="-1.4678530">
        <ele>639.2</ele>
        <time>2019-05-11T09:45:17Z</time>
      </trkpt>
      <trkpt lat="39.1852110" lon="-1.4678090">
        <ele>638.4</ele>
        <time>2019-05-11T09:45:18Z</time>
      </trkpt>
      <trkpt lat="39.1852470" lon="-1.4677650">
        <ele>637.8</ele>
        <time>2019-05-11T09:45:19Z</time>
      </trkpt>
      <trkpt lat="39.1852890" lon="-1.4677150">
        <ele>637.2</ele>
        <time>2019-05-11T09:45:20Z</time>
      </trkpt>
      <trkpt lat="39.1853290" lon="-1.4676620">
        <ele>636.6</ele>
        <time>2019-05-11T09:45:21Z</time>
      </trkpt>
      <trkpt lat="39.1853730" lon="-1.4676130">
        <ele>636.0</ele>
        <time>2019-05-11T09:45:22Z</time>
      </trkpt>
      <trkpt lat="39.1854220" lon="-1.4675690">
        <ele>635.4</ele>
        <time>2019-05-11T09:45:23Z</time>
      </trkpt>
      <trkpt lat="39.1854700" lon="-1.4675260">
        <ele>635.0</ele>
        <time>2019-05-11T09:45:24Z</time>
      </trkpt>
      <trkpt lat="39.1855190" lon="-1.4674870">
        <ele>634.6</ele>
        <time>2019-05-11T09:45:25Z</time>
      </trkpt>
      <trkpt lat="39.1855630" lon="-1.4674550">
        <ele>634.4</ele>
        <time>2019-05-11T09:45:26Z</time>
      </trkpt>
      <trkpt lat="39.1856020" lon="-1.4674160">
        <ele>634.2</ele>
        <time>2019-05-11T09:45:27Z</time>
      </trkpt>
      <trkpt lat="39.1856380" lon="-1.4673740">
        <ele>634.0</ele>
        <time>2019-05-11T09:45:28Z</time>
      </trkpt>
      <trkpt lat="39.1856740" lon="-1.4673380">
        <ele>633.6</ele>
        <time>2019-05-11T09:45:29Z</time>
      </trkpt>
      <trkpt lat="39.1857060" lon="-1.4673000">
        <ele>633.2</ele>
        <time>2019-05-11T09:45:30Z</time>
      </trkpt>
      <trkpt lat="39.1857380" lon="-1.4672550">
        <ele>632.8</ele>
        <time>2019-05-11T09:45:31Z</time>
      </trkpt>
      <trkpt lat="39.1857760" lon="-1.4672080">
        <ele>632.4</ele>
        <time>2019-05-11T09:45:32Z</time>
      </trkpt>
      <trkpt lat="39.1858140" lon="-1.4671690">
        <ele>631.8</ele>
        <time>2019-05-11T09:45:33Z</time>
      </trkpt>
      <trkpt lat="39.1858460" lon="-1.4671380">
        <ele>631.0</ele>
        <time>2019-05-11T09:45:34Z</time>
      </trkpt>
      <trkpt lat="39.1858790" lon="-1.4671230">
        <ele>630.2</ele>
        <time>2019-05-11T09:45:35Z</time>
      </trkpt>
      <trkpt lat="39.1859150" lon="-1.4671150">
        <ele>629.0</ele>
        <time>2019-05-11T09:45:36Z</time>
      </trkpt>
      <trkpt lat="39.1859430" lon="-1.4671000">
        <ele>628.4</ele>
        <time>2019-05-11T09:45:37Z</time>
      </trkpt>
      <trkpt lat="39.1859670" lon="-1.4670720">
        <ele>627.6</ele>
        <time>2019-05-11T09:45:38Z</time>
      </trkpt>
      <trkpt lat="39.1859910" lon="-1.4670330">
        <ele>627.0</ele>
        <time>2019-05-11T09:45:39Z</time>
      </trkpt>
      <trkpt lat="39.1860140" lon="-1.4669870">
        <ele>626.4</ele>
        <time>2019-05-11T09:45:40Z</time>
      </trkpt>
      <trkpt lat="39.1860310" lon="-1.4669420">
        <ele>625.8</ele>
        <time>2019-05-11T09:45:41Z</time>
      </trkpt>
      <trkpt lat="39.1860340" lon="-1.4669020">
        <ele>625.0</ele>
        <time>2019-05-11T09:45:42Z</time>
      </trkpt>
      <trkpt lat="39.1860200" lon="-1.4668720">
        <ele>624.2</ele>
        <time>2019-05-11T09:45:43Z</time>
      </trkpt>
      <trkpt lat="39.1860020" lon="-1.4668400">
        <ele>623.2</ele>
        <time>2019-05-11T09:45:44Z</time>
      </trkpt>
      <trkpt lat="39.1859820" lon="-1.4668020">
        <ele>622.4</ele>
        <time>2019-05-11T09:45:45Z</time>
      </trkpt>
      <trkpt lat="39.1859560" lon="-1.4667590">
        <ele>621.8</ele>
        <time>2019-05-11T09:45:46Z</time>
      </trkpt>
      <trkpt lat="39.1859240" lon="-1.4667160">
        <ele>621.2</ele>
        <time>2019-05-11T09:45:47Z</time>
      </trkpt>
      <trkpt lat="39.1858930" lon="-1.4666750">
        <ele>620.6</ele>
        <time>2019-05-11T09:45:48Z</time>
      </trkpt>
      <trkpt lat="39.1858630" lon="-1.4666420">
        <ele>620.0</ele>
        <time>2019-05-11T09:45:49Z</time>
      </trkpt>
      <trkpt lat="39.1858330" lon="-1.4666140">
        <ele>619.6</ele>
        <time>2019-05-11T09:45:50Z</time>
      </trkpt>
      <trkpt lat="39.1858050" lon="-1.4665830">
        <ele>619.4</ele>
        <time>2019-05-11T09:45:51Z</time>
      </trkpt>
      <trkpt lat="39.1857750" lon="-1.4665490">
        <ele>619.2</ele>
        <time>2019-05-11T09:45:52Z</time>
      </trkpt>
      <trkpt lat="39.1857440" lon="-1.4665080">
        <ele>618.8</ele>
        <time>2019-05-11T09:45:53Z</time>
      </trkpt>
      <trkpt lat="39.1857240" lon="-1.4664630">
        <ele>618.6</ele>
        <time>2019-05-11T09:45:54Z</time>
      </trkpt>
      <trkpt lat="39.1857090" lon="-1.4664190">
        <ele>618.0</ele>
        <time>2019-05-11T09:45:55Z</time>
      </trkpt>
      <trkpt lat="39.1856960" lon="-1.4663720">
        <ele>617.4</ele>
        <time>2019-05-11T09:45:56Z</time>
      </trkpt>
      <trkpt lat="39.1856840" lon="-1.4663220">
        <ele>616.8</ele>
        <time>2019-05-11T09:45:57Z</time>
      </trkpt>
      <trkpt lat="39.1856770" lon="-1.4662680">
        <ele>616.6</ele>
        <time>2019-05-11T09:45:58Z</time>
      </trkpt>
      <trkpt lat="39.1856650" lon="-1.4662190">
        <ele>616.0</ele>
        <time>2019-05-11T09:45:59Z</time>
      </trkpt>
      <trkpt lat="39.1856480" lon="-1.4661670">
        <ele>615.6</ele>
        <time>2019-05-11T09:46:00Z</time>
      </trkpt>
      <trkpt lat="39.1856380" lon="-1.4661080">
        <ele>615.2</ele>
        <time>2019-05-11T09:46:01Z</time>
      </trkpt>
      <trkpt lat="39.1856290" lon="-1.4660460">
        <ele>614.6</ele>
        <time>2019-05-11T09:46:02Z</time>
      </trkpt>
      <trkpt lat="39.1856270" lon="-1.4659830">
        <ele>613.8</ele>
        <time>2019-05-11T09:46:03Z</time>
      </trkpt>
      <trkpt lat="39.1856360" lon="-1.4659160">
        <ele>613.2</ele>
        <time>2019-05-11T09:46:04Z</time>
      </trkpt>
      <trkpt lat="39.1856490" lon="-1.4658450">
        <ele>612.2</ele>
        <time>2019-05-11T09:46:05Z</time>
      </trkpt>
      <trkpt lat="39.1856600" lon="-1.4657670">
        <ele>611.6</ele>
        <time>2019-05-11T09:46:06Z</time>
      </trkpt>
      <trkpt lat="39.1856740" lon="-1.4656880">
        <ele>610.6</ele>
        <time>2019-05-11T09:46:07Z</time>
      </trkpt>
      <trkpt lat="39.1856950" lon="-1.4656030">
        <ele>609.8</ele>
        <time>2019-05-11T09:46:08Z</time>
      </trkpt>
      <trkpt lat="39.1857240" lon="-1.4655160">
        <ele>609.0</ele>
        <time>2019-05-11T09:46:09Z</time>
      </trkpt>
      <trkpt lat="39.1857540" lon="-1.4654390">
        <ele>608.4</ele>
        <time>2019-05-11T09:46:10Z</time>
      </trkpt>
      <trkpt lat="39.1857810" lon="-1.4653730">
        <ele>607.4</ele>
        <time>2019-05-11T09:46:11Z</time>
      </trkpt>
      <trkpt lat="39.1857960" lon="-1.4653110">
        <ele>607.0</ele>
        <time>2019-05-11T09:46:12Z</time>
      </trkpt>
      <trkpt lat="39.1858010" lon="-1.4652560">
        <ele>606.6</ele>
        <time>2019-05-11T09:46:13Z</time>
      </trkpt>
      <trkpt lat="39.1858010" lon="-1.4652040">
        <ele>606.2</ele>
        <time>2019-05-11T09:46:14Z</time>
      </trkpt>
      <trkpt lat="39.1857850" lon="-1.4651600">
        <ele>605.4</ele>
        <time>2019-05-11T09:46:15Z</time>
      </trkpt>
      <trkpt lat="39.1857600" lon="-1.4651090">
        <ele>604.4</ele>
        <time>2019-05-11T09:46:16Z</time>
      </trkpt>
      <trkpt lat="39.1857290" lon="-1.4650460">
        <ele>603.4</ele>
        <time>2019-05-11T09:46:17Z</time>
      </trkpt>
      <trkpt lat="39.1856980" lon="-1.4649840">
        <ele>602.2</ele>
        <time>2019-05-11T09:46:18Z</time>
      </trkpt>
      <trkpt lat="39.1856660" lon="-1.4649290">
        <ele>601.0</ele>
        <time>2019-05-11T09:46:19Z</time>
      </trkpt>
      <trkpt lat="39.1856360" lon="-1.4648900">
        <ele>600.0</ele>
        <time>2019-05-11T09:46:20Z</time>
      </trkpt>
      <trkpt lat="39.1855990" lon="-1.4648720">
        <ele>599.0</ele>
        <time>2019-05-11T09:46:21Z</time>
      </trkpt>
      <trkpt lat="39.1855570" lon="-1.4648730">
        <ele>598.0</ele>
        <time>2019-05-11T09:46:22Z</time>
      </trkpt>
      <trkpt lat="39.1855190" lon="-1.4648790">
        <ele>597.0</ele>
        <time>2019-05-11T09:46:23Z</time>
      </trkpt>
      <trkpt lat="39.1854870" lon="-1.4648740">
        <ele>596.2</ele>
        <time>2019-05-11T09:46:24Z</time>
      </trkpt>
      <trkpt lat="39.1854540" lon="-1.4648590">
        <ele>595.2</ele>
        <time>2019-05-11T09:46:25Z</time>
      </trkpt>
      <trkpt lat="39.1854320" lon="-1.4648430">
        <ele>594.0</ele>
        <time>2019-05-11T09:46:26Z</time>
      </trkpt>
      <trkpt lat="39.1854220" lon="-1.4648250">
        <ele>592.8</ele>
        <time>2019-05-11T09:46:27Z</time>
      </trkpt>
      <trkpt lat="39.1854260" lon="-1.4648100">
        <ele>591.8</ele>
        <time>2019-05-11T09:46:28Z</time>
      </trkpt>
      <trkpt lat="39.1854390" lon="-1.4648100">
        <ele>591.0</ele>
        <time>2019-05-11T09:46:29Z</time>
      </trkpt>
      <trkpt lat="39.1854550" lon="-1.4648160">
        <ele>590.4</ele>
        <time>2019-05-11T09:46:30Z</time>
      </trkpt>
      <trkpt lat="39.1854710" lon="-1.4648250">
        <ele>589.8</ele>
        <time>2019-05-11T09:46:31Z</time>
      </trkpt>
      <trkpt lat="39.1854840" lon="-1.4648290">
        <ele>589.4</ele>
        <time>2019-05-11T09:46:32Z</time>
      </trkpt>
      <trkpt lat="39.1854880" lon="-1.4648340">
        <ele>589.4</ele>
        <time>2019-05-11T09:46:33Z</time>
      </trkpt>
      <trkpt lat="39.1854910" lon="-1.4648330">
        <ele>589.2</ele>
        <time>2019-05-11T09:46:34Z</time>
      </trkpt>
      <trkpt lat="39.1854910" lon="-1.4648260">
        <ele>589.0</ele>
        <time>2019-05-11T09:46:35Z</time>
      </trkpt>
      <trkpt lat="39.1854870" lon="-1.4648140">
        <ele>588.8</ele>
        <time>2019-05-11T09:46:36Z</time>
      </trkpt>
      <trkpt lat="39.1854720" lon="-1.4647990">
        <ele>588.6</ele>
        <time>2019-05-11T09:46:37Z</time>
      </trkpt>
      <trkpt lat="39.1854630" lon="-1.4647870">
        <ele>588.4</ele>
        <time>2019-05-11T09:46:38Z</time>
      </trkpt>
      <trkpt lat="39.1854560" lon="-1.4647790">
        <ele>588.2</ele>
        <time>2019-05-11T09:46:39Z</time>
      </trkpt>
      <trkpt lat="39.1854480" lon="-1.4647700">
        <ele>588.0</ele>
        <time>2019-05-11T09:46:40Z</time>
      </trkpt>
      <trkpt lat="39.1854420" lon="-1.4647600">
        <ele>587.6</ele>
        <time>2019-05-11T09:46:41Z</time>
      </trkpt>
      <trkpt lat="39.1854350" lon="-1.4647430">
        <ele>587.6</ele>
        <time>2019-05-11T09:46:42Z</time>
      </trkpt>
      <trkpt lat="39.1854230" lon="-1.4647270">
        <ele>587.4</ele>
        <time>2019-05-11T09:46:43Z</time>
      </trkpt>
      <trkpt lat="39.1854100" lon="-1.4647150">
        <ele>587.2</ele>
        <time>2019-05-11T09:46:44Z</time>
      </trkpt>
      <trkpt lat="39.1853920" lon="-1.4647120">
        <ele>586.6</ele>
        <time>2019-05-11T09:46:45Z</time>
      </trkpt>
      <trkpt lat="39.1853650" lon="-1.4647130">
        <ele>586.6</ele>
        <time>2019-05-11T09:46:46Z</time>
      </trkpt>
      <trkpt lat="39.1853310" lon="-1.4647150">
        <ele>586.4</ele>
        <time>2019-05-11T09:46:47Z</time>
      </trkpt>
      <trkpt lat="39.1852950" lon="-1.4647210">
        <ele>586.4</ele>
        <time>2019-05-11T09:46:48Z</time>
      </trkpt>
      <trkpt lat="39.1852580" lon="-1.4647280">
        <ele>586.2</ele>
        <time>2019-05-11T09:46:49Z</time>
      </trkpt>
      <trkpt lat="39.1852250" lon="-1.4647280">
        <ele>586.2</ele>
        <time>2019-05-11T09:46:50Z</time>
      </trkpt>
      <trkpt lat="39.1851980" lon="-1.4647250">
        <ele>586.0</ele>
        <time>2019-05-11T09:46:51Z</time>
      </trkpt>
      <trkpt lat="39.1851730" lon="-1.4647260">
        <ele>586.0</ele>
        <time>2019-05-11T09:46:52Z</time>
      </trkpt>
      <trkpt lat="39.1851520" lon="-1.4647200">
        <ele>585.8</ele>
        <time>2019-05-11T09:46:53Z</time>
      </trkpt>
      <trkpt lat="39.1851420" lon="-1.4647040">
        <ele>585.8</ele>
        <time>2019-05-11T09:46:54Z</time>
      </trkpt>
      <trkpt lat="39.1851390" lon="-1.4646900">
        <ele>585.8</ele>
        <time>2019-05-11T09:46:55Z</time>
      </trkpt>
      <trkpt lat="39.1851380" lon="-1.4646850">
        <ele>585.6</ele>
        <time>2019-05-11T09:46:56Z</time>
      </trkpt>
      <trkpt lat="39.1851410" lon="-1.4646830">
        <ele>585.4</ele>
        <time>2019-05-11T09:46:57Z</time>
      </trkpt>
      <trkpt lat="39.1851420" lon="-1.4646820">
        <ele>585.0</ele>
        <time>2019-05-11T09:46:58Z</time>
      </trkpt>
      <trkpt lat="39.1851550" lon="-1.4646720">
        <ele>584.6</ele>
        <time>2019-05-11T09:46:59Z</time>
      </trkpt>
      <trkpt lat="39.1851640" lon="-1.4646710">
        <ele>584.2</ele>
        <time>2019-05-11T09:47:00Z</time>
      </trkpt>
      <trkpt lat="39.1851770" lon="-1.4646720">
        <ele>583.8</ele>
        <time>2019-05-11T09:47:01Z</time>
      </trkpt>
      <trkpt lat="39.1851880" lon="-1.4646700">
        <ele>583.6</ele>
        <time>2019-05-11T09:47:02Z</time>
      </trkpt>
      <trkpt lat="39.1851970" lon="-1.4646620">
        <ele>583.4</ele>
        <time>2019-05-11T09:47:03Z</time>
      </trkpt>
      <trkpt lat="39.1852070" lon="-1.4646500">
        <ele>583.2</ele>
        <time>2019-05-11T09:47:04Z</time>
      </trkpt>
      <trkpt lat="39.1852160" lon="-1.4646380">
        <ele>583.0</ele>
        <time>2019-05-11T09:47:05Z</time>
      </trkpt>
      <trkpt lat="39.1852250" lon="-1.4646260">
        <ele>583.0</ele>
        <time>2019-05-11T09:47:06Z</time>
      </trkpt>
      <trkpt lat="39.1852290" lon="-1.4646150">
        <ele>582.8</ele>
        <time>2019-05-11T09:47:07Z</time>
      </trkpt>
      <trkpt lat="39.1852290" lon="-1.4646100">
        <ele>582.6</ele>
        <time>2019-05-11T09:47:08Z</time>
      </trkpt>
      <trkpt lat="39.1852270" lon="-1.4646040">
        <ele>582.2</ele>
        <time>2019-05-11T09:47:09Z</time>
      </trkpt>
      <trkpt lat="39.1852230" lon="-1.4646000">
        <ele>581.8</ele>
        <time>2019-05-11T09:47:10Z</time>
      </trkpt>
      <trkpt lat="39.1852120" lon="-1.4645900">
        <ele>581.6</ele>
        <time>2019-05-11T09:47:11Z</time>
      </trkpt>
      <trkpt lat="39.1851990" lon="-1.4645750">
        <ele>581.2</ele>
        <time>2019-05-11T09:47:12Z</time>
      </trkpt>
      <trkpt lat="39.1851870" lon="-1.4645560">
        <ele>581.0</ele>
        <time>2019-05-11T09:47:13Z</time>
      </trkpt>
      <trkpt lat="39.1851730" lon="-1.4645370">
        <ele>580.8</ele>
        <time>2019-05-11T09:47:14Z</time>
      </trkpt>
      <trkpt lat="39.1851570" lon="-1.4645170">
        <ele>580.4</ele>
        <time>2019-05-11T09:47:15Z</time>
      </trkpt>
      <trkpt lat="39.1851500" lon="-1.4644960">
        <ele>580.2</ele>
        <time>2019-05-11T09:47:16Z</time>
      </trkpt>
      <trkpt lat="39.1851460" lon="-1.4644600">
        <ele>580.0</ele>
        <time>2019-05-11T09:47:17Z</time>
      </trkpt>
      <trkpt lat="39.1851410" lon="-1.4644230">
        <ele>580.0</ele>
        <time>2019-05-11T09:47:18Z</time>
      </trkpt>
      <trkpt lat="39.1851330" lon="-1.4643870">
        <ele>579.6</ele>
        <time>2019-05-11T09:47:19Z</time>
      </trkpt>
      <trkpt lat="39.1851160" lon="-1.4643540">
        <ele>579.4</ele>
        <time>2019-05-11T09:47:20Z</time>
      </trkpt>
      <trkpt lat="39.1850920" lon="-1.4643230">
        <ele>579.2</ele>
        <time>2019-05-11T09:47:21Z</time>
      </trkpt>
      <trkpt lat="39.1850670" lon="-1.4642810">
        <ele>578.8</ele>
        <time>2019-05-11T09:47:22Z</time>
      </trkpt>
      <trkpt lat="39.1850430" lon="-1.4642330">
        <ele>578.4</ele>
        <time>2019-05-11T09:47:23Z</time>
      </trkpt>
      <trkpt lat="39.1850150" lon="-1.4641890">
        <ele>578.2</ele>
        <time>2019-05-11T09:47:24Z</time>
      </trkpt>
      <trkpt lat="39.1849940" lon="-1.4641490">
        <ele>577.8</ele>
        <time>2019-05-11T09:47:25Z</time>
      </trkpt>
      <trkpt lat="39.1849910" lon="-1.4641070">
        <ele>577.2</ele>
        <time>2019-05-11T09:47:26Z</time>
      </trkpt>
      <trkpt lat="39.1850050" lon="-1.4640570">
        <ele>576.6</ele>
        <time>2019-05-11T09:47:27Z</time>
      </trkpt>
      <trkpt lat="39.1850180" lon="-1.4639960">
        <ele>576.0</ele>
        <time>2019-05-11T09:47:28Z</time>
      </trkpt>
      <trkpt lat="39.1850220" lon="-1.4639240">
        <ele>575.6</ele>
        <time>2019-05-11T09:47:29Z</time>
      </trkpt>
      <trkpt lat="39.1850230" lon="-1.4638470">
        <ele>575.2</ele>
        <time>2019-05-11T09:47:30Z</time>
      </trkpt>
      <trkpt lat="39.1850210" lon="-1.4637680">
        <ele>574.6</ele>
        <time>2019-05-11T09:47:31Z</time>
      </trkpt>
      <trkpt lat="39.1850220" lon="-1.4636880">
        <ele>573.8</ele>
        <time>2019-05-11T09:47:32Z</time>
      </trkpt>
      <trkpt lat="39.1850210" lon="-1.4636070">
        <ele>573.2</ele>
        <time>2019-05-11T09:47:33Z</time>
      </trkpt>
      <trkpt lat="39.1850230" lon="-1.4635260">
        <ele>572.2</ele>
        <time>2019-05-11T09:47:34Z</time>
      </trkpt>
      <trkpt lat="39.1850280" lon="-1.4634440">
        <ele>571.2</ele>
        <time>2019-05-11T09:47:35Z</time>
      </trkpt>
      <trkpt lat="39.1850320" lon="-1.4633610">
        <ele>570.6</ele>
        <time>2019-05-11T09:47:36Z</time>
      </trkpt>
      <trkpt lat="39.1850350" lon="-1.4632830">
        <ele>569.8</ele>
        <time>2019-05-11T09:47:37Z</time>
      </trkpt>
      <trkpt lat="39.1850370" lon="-1.4632230">
        <ele>569.0</ele>
        <time>2019-05-11T09:47:38Z</time>
      </trkpt>
      <trkpt lat="39.1850460" lon="-1.4631690">
        <ele>568.4</ele>
        <time>2019-05-11T09:47:39Z</time>
      </trkpt>
      <trkpt lat="39.1850540" lon="-1.4631120">
        <ele>567.6</ele>
        <time>2019-05-11T09:47:40Z</time>
      </trkpt>
      <trkpt lat="39.1850730" lon="-1.4630620">
        <ele>567.0</ele>
        <time>2019-05-11T09:47:41Z</time>
      </trkpt>
      <trkpt lat="39.1851040" lon="-1.4630310">
        <ele>566.8</ele>
        <time>2019-05-11T09:47:42Z</time>
      </trkpt>
      <trkpt lat="39.1851450" lon="-1.4630110">
        <ele>566.6</ele>
        <time>2019-05-11T09:47:43Z</time>
      </trkpt>
      <trkpt lat="39.1851920" lon="-1.4629910">
        <ele>566.4</ele>
        <time>2019-05-11T09:47:44Z</time>
      </trkpt>
      <trkpt lat="39.1852400" lon="-1.4629720">
        <ele>566.0</ele>
        <time>2019-05-11T09:47:45Z</time>
      </trkpt>
      <trkpt lat="39.1852920" lon="-1.4629510">
        <ele>565.6</ele>
        <time>2019-05-11T09:47:46Z</time>
      </trkpt>
      <trkpt lat="39.1853480" lon="-1.4629330">
        <ele>564.8</ele>
        <time>2019-05-11T09:47:47Z</time>
      </trkpt>
      <trkpt lat="39.1854090" lon="-1.4629160">
        <ele>563.8</ele>
        <time>2019-05-11T09:47:48Z</time>
      </trkpt>
      <trkpt lat="39.1854750" lon="-1.4628990">
        <ele>563.0</ele>
        <time>2019-05-11T09:47:49Z</time>
      </trkpt>
      <trkpt lat="39.1855430" lon="-1.4628820">
        <ele>562.6</ele>
        <time>2019-05-11T09:47:50Z</time>
      </trkpt>
      <trkpt lat="39.1856130" lon="-1.4628620">
        <ele>562.4</ele>
        <time>2019-05-11T09:47:51Z</time>
      </trkpt>
      <trkpt lat="39.1856820" lon="-1.4628350">
        <ele>562.2</ele>
        <time>2019-05-11T09:47:52Z</time>
      </trkpt>
      <trkpt lat="39.1857420" lon="-1.4627910">
        <ele>562.0</ele>
        <time>2019-05-11T09:47:53Z</time>
      </trkpt>
      <trkpt lat="39.1857890" lon="-1.4627310">
        <ele>561.8</ele>
        <time>2019-05-11T09:47:54Z</time>
      </trkpt>
      <trkpt lat="39.1858250" lon="-1.4626610">
        <ele>561.6</ele>
        <time>2019-05-11T09:47:55Z</time>
      </trkpt>
      <trkpt lat="39.1858610" lon="-1.4625880">
        <ele>561.4</ele>
        <time>2019-05-11T09:47:56Z</time>
      </trkpt>
      <trkpt lat="39.1859000" lon="-1.4625130">
        <ele>561.2</ele>
        <time>2019-05-11T09:47:57Z</time>
      </trkpt>
      <trkpt lat="39.1859370" lon="-1.4624310">
        <ele>561.2</ele>
        <time>2019-05-11T09:47:58Z</time>
      </trkpt>
      <trkpt lat="39.1859620" lon="-1.4623390">
        <ele>561.0</ele>
        <time>2019-05-11T09:47:59Z</time>
      </trkpt>
      <trkpt lat="39.1859730" lon="-1.4622440">
        <ele>561.0</ele>
        <time>2019-05-11T09:48:00Z</time>
      </trkpt>
      <trkpt lat="39.1859730" lon="-1.4621510">
        <ele>560.8</ele>
        <time>2019-05-11T09:48:01Z</time>
      </trkpt>
      <trkpt lat="39.1859650" lon="-1.4620650">
        <ele>560.6</ele>
        <time>2019-05-11T09:48:02Z</time>
      </trkpt>
      <trkpt lat="39.1859400" lon="-1.4619960">
        <ele>560.6</ele>
        <time>2019-05-11T09:48:03Z</time>
      </trkpt>
      <trkpt lat="39.1858980" lon="-1.4619430">
        <ele>560.4</ele>
        <time>2019-05-11T09:48:04Z</time>
      </trkpt>
      <trkpt lat="39.1858470" lon="-1.4619000">
        <ele>560.4</ele>
        <time>2019-05-11T09:48:05Z</time>
      </trkpt>
      <trkpt lat="39.1857960" lon="-1.4618560">
        <ele>560.4</ele>
        <time>2019-05-11T09:48:06Z</time>
      </trkpt>
      <trkpt lat="39.1857470" lon="-1.4618080">
        <ele>560.4</ele>
        <time>2019-05-11T09:48:07Z</time>
      </trkpt>
      <trkpt lat="39.1856930" lon="-1.4617610">
        <ele>560.4</ele>
        <time>2019-05-11T09:48:08Z</time>
      </trkpt>
      <trkpt lat="39.1856380" lon="-1.4617150">
        <ele>560.2</ele>
        <time>2019-05-11T09:48:09Z</time>
      </trkpt>
      <trkpt lat="39.1855810" lon="-1.4616710">
        <ele>560.2</ele>
        <time>2019-05-11T09:48:10Z</time>
      </trkpt>
      <trkpt lat="39.1855220" lon="-1.4616290">
        <ele>560.2</ele>
        <time>2019-05-11T09:48:11Z</time>
      </trkpt>
      <trkpt lat="39.1854610" lon="-1.4615890">
        <ele>560.2</ele>
        <time>2019-05-11T09:48:12Z</time>
      </trkpt>
      <trkpt lat="39.1853990" lon="-1.4615530">
        <ele>560.2</ele>
        <time>2019-05-11T09:48:13Z</time>
      </trkpt>
      <trkpt lat="39.1853370" lon="-1.4615210">
        <ele>560.2</ele>
        <time>2019-05-11T09:48:14Z</time>
      </trkpt>
      <trkpt lat="39.1852770" lon="-1.4614820">
        <ele>560.0</ele>
        <time>2019-05-11T09:48:15Z</time>
      </trkpt>
      <trkpt lat="39.1852250" lon="-1.4614270">
        <ele>560.2</ele>
        <time>2019-05-11T09:48:16Z</time>
      </trkpt>
      <trkpt lat="39.1851780" lon="-1.4613630">
        <ele>560.2</ele>
        <time>2019-05-11T09:48:17Z</time>
      </trkpt>
      <trkpt lat="39.1851280" lon="-1.4613010">
        <ele>560.0</ele>
        <time>2019-05-11T09:48:18Z</time>
      </trkpt>
      <trkpt lat="39.1850780" lon="-1.4612400">
        <ele>560.0</ele>
        <time>2019-05-11T09:48:19Z</time>
      </trkpt>
      <trkpt lat="39.1850300" lon="-1.4611780">
        <ele>560.0</ele>
        <time>2019-05-11T09:48:20Z</time>
      </trkpt>
      <trkpt lat="39.1849880" lon="-1.4611170">
        <ele>559.8</ele>
        <time>2019-05-11T09:48:21Z</time>
      </trkpt>
      <trkpt lat="39.1849490" lon="-1.4610530">
        <ele>559.6</ele>
        <time>2019-05-11T09:48:22Z</time>
      </trkpt>
      <trkpt lat="39.1849160" lon="-1.4609890">
        <ele>559.4</ele>
        <time>2019-05-11T09:48:23Z</time>
      </trkpt>
      <trkpt lat="39.1848970" lon="-1.4609260">
        <ele>559.4</ele>
        <time>2019-05-11T09:48:24Z</time>
      </trkpt>
      <trkpt lat="39.1848980" lon="-1.4608710">
        <ele>559.2</ele>
        <time>2019-05-11T09:48:25Z</time>
      </trkpt>
      <trkpt lat="39.1849090" lon="-1.4608190">
        <ele>559.2</ele>
        <time>2019-05-11T09:48:26Z</time>
      </trkpt>
      <trkpt lat="39.1849160" lon="-1.4607680">
        <ele>559.2</ele>
        <time>2019-05-11T09:48:27Z</time>
      </trkpt>
      <trkpt lat="39.1849100" lon="-1.4607170">
        <ele>559.0</ele>
        <time>2019-05-11T09:48:28Z</time>
      </trkpt>
      <trkpt lat="39.1848890" lon="-1.4606680">
        <ele>558.6</ele>
        <time>2019-05-11T09:48:29Z</time>
      </trkpt>
      <trkpt lat="39.1848610" lon="-1.4606120">
        <ele>558.6</ele>
        <time>2019-05-11T09:48:30Z</time>
      </trkpt>
      <trkpt lat="39.1848310" lon="-1.4605550">
        <ele>558.6</ele>
        <time>2019-05-11T09:48:31Z</time>
      </trkpt>
      <trkpt lat="39.1848000" lon="-1.4604950">
        <ele>558.6</ele>
        <time>2019-05-11T09:48:32Z</time>
      </trkpt>
      <trkpt lat="39.1847700" lon="-1.4604350">
        <ele>558.4</ele>
        <time>2019-05-11T09:48:33Z</time>
      </trkpt>
      <trkpt lat="39.1847400" lon="-1.4603710">
        <ele>558.4</ele>
        <time>2019-05-11T09:48:34Z</time>
      </trkpt>
      <trkpt lat="39.1847080" lon="-1.4603060">
        <ele>558.4</ele>
        <time>2019-05-11T09:48:35Z</time>
      </trkpt>
      <trkpt lat="39.1846760" lon="-1.4602390">
        <ele>558.2</ele>
        <time>2019-05-11T09:48:36Z</time>
      </trkpt>
      <trkpt lat="39.1846410" lon="-1.4601790">
        <ele>558.2</ele>
        <time>2019-05-11T09:48:37Z</time>
      </trkpt>
      <trkpt lat="39.1846010" lon="-1.4601420">
        <ele>558.2</ele>
        <time>2019-05-11T09:48:38Z</time>
      </trkpt>
      <trkpt lat="39.1845600" lon="-1.4601300">
        <ele>558.2</ele>
        <time>2019-05-11T09:48:39Z</time>
      </trkpt>
      <trkpt lat="39.1845180" lon="-1.4601320">
        <ele>558.2</ele>
        <time>2019-05-11T09:48:40Z</time>
      </trkpt>
      <trkpt lat="39.1844750" lon="-1.4601320">
        <ele>558.2</ele>
        <time>2019-05-11T09:48:41Z</time>
      </trkpt>
      <trkpt lat="39.1844340" lon="-1.4601350">
        <ele>558.2</ele>
        <time>2019-05-11T09:48:42Z</time>
      </trkpt>
      <trkpt lat="39.1843940" lon="-1.4601410">
        <ele>558.2</ele>
        <time>2019-05-11T09:48:43Z</time>
      </trkpt>
      <trkpt lat="39.1843530" lon="-1.4601420">
        <ele>558.2</ele>
        <time>2019-05-11T09:48:44Z</time>
      </trkpt>
      <trkpt lat="39.1843090" lon="-1.4601370">
        <ele>558.2</ele>
        <time>2019-05-11T09:48:45Z</time>
      </trkpt>
      <trkpt lat="39.1842700" lon="-1.4601110">
        <ele>558.2</ele>
        <time>2019-05-11T09:48:46Z</time>
      </trkpt>
      <trkpt lat="39.1842410" lon="-1.4600630">
        <ele>558.0</ele>
        <time>2019-05-11T09:48:47Z</time>
      </trkpt>
      <trkpt lat="39.1842170" lon="-1.4600060">
        <ele>557.8</ele>
        <time>2019-05-11T09:48:48Z</time>
      </trkpt>
      <trkpt lat="39.1841910" lon="-1.4599480">
        <ele>557.6</ele>
        <time>2019-05-11T09:48:49Z</time>
      </trkpt>
      <trkpt lat="39.1841610" lon="-1.4598890">
        <ele>557.2</ele>
        <time>2019-05-11T09:48:50Z</time>
      </trkpt>
      <trkpt lat="39.1841300" lon="-1.4598250">
        <ele>556.8</ele>
        <time>2019-05-11T09:48:51Z</time>
      </trkpt>
      <trkpt lat="39.1840960" lon="-1.4597610">
        <ele>556.6</ele>
        <time>2019-05-11T09:48:52Z</time>
      </trkpt>
      <trkpt lat="39.1840540" lon="-1.4597040">
        <ele>556.2</ele>
        <time>2019-05-11T09:48:53Z</time>
      </trkpt>
      <trkpt lat="39.1840090" lon="-1.4596510">
        <ele>556.0</ele>
        <time>2019-05-11T09:48:54Z</time>
      </trkpt>
      <trkpt lat="39.1839720" lon="-1.4595880">
        <ele>555.8</ele>
        <time>2019-05-11T09:48:55Z</time>
      </trkpt>
      <trkpt lat="39.1839550" lon="-1.4595120">
        <ele>555.6</ele>
        <time>2019-05-11T09:48:56Z</time>
      </trkpt>
      <trkpt lat="39.1839590" lon="-1.4594320">
        <ele>555.6</ele>
        <time>2019-05-11T09:48:57Z</time>
      </trkpt>
      <trkpt lat="39.1839710" lon="-1.4593500">
        <ele>555.4</ele>
        <time>2019-05-11T09:48:58Z</time>
      </trkpt>
      <trkpt lat="39.1839870" lon="-1.4592690">
        <ele>555.4</ele>
        <time>2019-05-11T09:48:59Z</time>
      </trkpt>
      <trkpt lat="39.1840080" lon="-1.4591870">
        <ele>555.4</ele>
        <time>2019-05-11T09:49:00Z</time>
      </trkpt>
      <trkpt lat="39.1840320" lon="-1.4591060">
        <ele>555.4</ele>
        <time>2019-05-11T09:49:01Z</time>
      </trkpt>
      <trkpt lat="39.1840600" lon="-1.4590240">
        <ele>555.4</ele>
        <time>2019-05-11T09:49:02Z</time>
      </trkpt>
      <trkpt lat="39.1840900" lon="-1.4589420">
        <ele>555.4</ele>
        <time>2019-05-11T09:49:03Z</time>
      </trkpt>
      <trkpt lat="39.1841170" lon="-1.4588580">
        <ele>555.2</ele>
        <time>2019-05-11T09:49:04Z</time>
      </trkpt>
      <trkpt lat="39.1841410" lon="-1.4587710">
        <ele>555.2</ele>
        <time>2019-05-11T09:49:05Z</time>
      </trkpt>
      <trkpt lat="39.1841560" lon="-1.4586810">
        <ele>555.2</ele>
        <time>2019-05-11T09:49:06Z</time>
      </trkpt>
      <trkpt lat="39.1841660" lon="-1.4585880">
        <ele>555.2</ele>
        <time>2019-05-11T09:49:07Z</time>
      </trkpt>
      <trkpt lat="39.1841790" lon="-1.4584950">
        <ele>555.2</ele>
        <time>2019-05-11T09:49:08Z</time>
      </trkpt>
      <trkpt lat="39.1842000" lon="-1.4584050">
        <ele>555.2</ele>
        <time>2019-05-11T09:49:09Z</time>
      </trkpt>
      <trkpt lat="39.1842310" lon="-1.4583180">
        <ele>555.2</ele>
        <time>2019-05-11T09:49:10Z</time>
      </trkpt>
      <trkpt lat="39.1842660" lon="-1.4582330">
        <ele>555.0</ele>
        <time>2019-05-11T09:49:11Z</time>
      </trkpt>
      <trkpt lat="39.1843040" lon="-1.4581490">
        <ele>555.0</ele>
        <time>2019-05-11T09:49:12Z</time>
      </trkpt>
      <trkpt lat="39.1843430" lon="-1.4580660">
        <ele>555.0</ele>
        <time>2019-05-11T09:49:13Z</time>
      </trkpt>
      <trkpt lat="39.1843810" lon="-1.4579830">
        <ele>555.0</ele>
        <time>2019-05-11T09:49:14Z</time>
      </trkpt>
      <trkpt lat="39.1844200" lon="-1.4578980">
        <ele>555.0</ele>
        <time>2019-05-11T09:49:15Z</time>
      </trkpt>
      <trkpt lat="39.1844620" lon="-1.4578130">
        <ele>555.0</ele>
        <time>2019-05-11T09:49:16Z</time>
      </trkpt>
      <trkpt lat="39.1845050" lon="-1.4577310">
        <ele>555.0</ele>
        <time>2019-05-11T09:49:17Z</time>
      </trkpt>
      <trkpt lat="39.1845520" lon="-1.4576520">
        <ele>555.0</ele>
        <time>2019-05-11T09:49:18Z</time>
      </trkpt>
      <trkpt lat="39.1846050" lon="-1.4575800">
        <ele>554.6</ele>
        <time>2019-05-11T09:49:19Z</time>
      </trkpt>
      <trkpt lat="39.1846580" lon="-1.4575110">
        <ele>554.6</ele>
        <time>2019-05-11T09:49:20Z</time>
      </trkpt>
      <trkpt lat="39.1847080" lon="-1.4574380">
        <ele>554.4</ele>
        <time>2019-05-11T09:49:21Z</time>
      </trkpt>
      <trkpt lat="39.1847540" lon="-1.4573620">
        <ele>554.6</ele>
        <time>2019-05-11T09:49:22Z</time>
      </trkpt>
      <trkpt lat="39.1847980" lon="-1.4572830">
        <ele>554.4</ele>
        <time>2019-05-11T09:49:23Z</time>
      </trkpt>
      <trkpt lat="39.1848450" lon="-1.4572040">
        <ele>554.4</ele>
        <time>2019-05-11T09:49:24Z</time>
      </trkpt>
      <trkpt lat="39.1848930" lon="-1.4571260">
        <ele>554.2</ele>
        <time>2019-05-11T09:49:25Z</time>
      </trkpt>
      <trkpt lat="39.1849460" lon="-1.4570520">
        <ele>554.2</ele>
        <time>2019-05-11T09:49:26Z</time>
      </trkpt>
      <trkpt lat="39.1850030" lon="-1.4569880">
        <ele>554.2</ele>
        <time>2019-05-11T09:49:27Z</time>
      </trkpt>
      <trkpt lat="39.1850630" lon="-1.4569270">
        <ele>554.0</ele>
        <time>2019-05-11T09:49:28Z</time>
      </trkpt>
      <trkpt lat="39.1851220" lon="-1.4568670">
        <ele>554.0</ele>
        <time>2019-05-11T09:49:29Z</time>
      </trkpt>
      <trkpt lat="39.1851830" lon="-1.4568080">
        <ele>554.0</ele>
        <time>2019-05-11T09:49:30Z</time>
      </trkpt>
      <trkpt lat="39.1852470" lon="-1.4567530">
        <ele>553.6</ele>
        <time>2019-05-11T09:49:31Z</time>
      </trkpt>
      <trkpt lat="39.1853140" lon="-1.4567030">
        <ele>553.6</ele>
        <time>2019-05-11T09:49:32Z</time>
      </trkpt>
      <trkpt lat="39.1853820" lon="-1.4566550">
        <ele>553.4</ele>
        <time>2019-05-11T09:49:33Z</time>
      </trkpt>
      <trkpt lat="39.1854510" lon="-1.4566070">
        <ele>553.0</ele>
        <time>2019-05-11T09:49:34Z</time>
      </trkpt>
      <trkpt lat="39.1855170" lon="-1.4565550">
        <ele>552.8</ele>
        <time>2019-05-11T09:49:35Z</time>
      </trkpt>
      <trkpt lat="39.1855830" lon="-1.4565020">
        <ele>552.6</ele>
        <time>2019-05-11T09:49:36Z</time>
      </trkpt>
      <trkpt lat="39.1856460" lon="-1.4564440">
        <ele>552.6</ele>
        <time>2019-05-11T09:49:37Z</time>
      </trkpt>
      <trkpt lat="39.1857060" lon="-1.4563810">
        <ele>552.4</ele>
        <time>2019-05-11T09:49:38Z</time>
      </trkpt>
      <trkpt lat="39.1857630" lon="-1.4563120">
        <ele>552.4</ele>
        <time>2019-05-11T09:49:39Z</time>
      </trkpt>
      <trkpt lat="39.1858150" lon="-1.4562370">
        <ele>552.4</ele>
        <time>2019-05-11T09:49:40Z</time>
      </trkpt>
      <trkpt lat="39.1858640" lon="-1.4561600">
        <ele>552.4</ele>
        <time>2019-05-11T09:49:41Z</time>
      </trkpt>
      <trkpt lat="39.1859090" lon="-1.4560800">
        <ele>552.4</ele>
        <time>2019-05-11T09:49:42Z</time>
      </trkpt>
      <trkpt lat="39.1859460" lon="-1.4559960">
        <ele>552.2</ele>
        <time>2019-05-11T09:49:43Z</time>
      </trkpt>
      <trkpt lat="39.1859740" lon="-1.4559110">
        <ele>552.0</ele>
        <time>2019-05-11T09:49:44Z</time>
      </trkpt>
      <trkpt lat="39.1860040" lon="-1.4558230">
        <ele>552.0</ele>
        <time>2019-05-11T09:49:45Z</time>
      </trkpt>
      <trkpt lat="39.1860340" lon="-1.4557370">
        <ele>551.8</ele>
        <time>2019-05-11T09:49:46Z</time>
      </trkpt>
      <trkpt lat="39.1860610" lon="-1.4556500">
        <ele>551.6</ele>
        <time>2019-05-11T09:49:47Z</time>
      </trkpt>
      <trkpt lat="39.1860830" lon="-1.4555590">
        <ele>551.6</ele>
        <time>2019-05-11T09:49:48Z</time>
      </trkpt>
      <trkpt lat="39.1860960" lon="-1.4554660">
        <ele>551.2</ele>
        <time>2019-05-11T09:49:49Z</time>
      </trkpt>
      <trkpt lat="39.1861020" lon="-1.4553680">
        <ele>551.2</ele>
        <time>2019-05-11T09:49:50Z</time>
      </trkpt>
      <trkpt lat="39.1861020" lon="-1.4552670">
        <ele>551.0</ele>
        <time>2019-05-11T09:49:51Z</time>
      </trkpt>
      <trkpt lat="39.1860970" lon="-1.4551660">
        <ele>550.8</ele>
        <time>2019-05-11T09:49:52Z</time>
      </trkpt>
      <trkpt lat="39.1860880" lon="-1.4550630">
        <ele>550.6</ele>
        <time>2019-05-11T09:49:53Z</time>
      </trkpt>
      <trkpt lat="39.1860780" lon="-1.4549610">
        <ele>550.6</ele>
        <time>2019-05-11T09:49:54Z</time>
      </trkpt>
      <trkpt lat="39.1860730" lon="-1.4548600">
        <ele>550.6</ele>
        <time>2019-05-11T09:49:55Z</time>
      </trkpt>
      <trkpt lat="39.1860760" lon="-1.4547590">
        <ele>550.6</ele>
        <time>2019-05-11T09:49:56Z</time>
      </trkpt>
      <trkpt lat="39.1860800" lon="-1.4546600">
        <ele>550.6</ele>
        <time>2019-05-11T09:49:57Z</time>
      </trkpt>
      <trkpt lat="39.1860770" lon="-1.4545630">
        <ele>550.6</ele>
        <time>2019-05-11T09:49:58Z</time>
      </trkpt>
      <trkpt lat="39.1860650" lon="-1.4544720">
        <ele>550.4</ele>
        <time>2019-05-11T09:49:59Z</time>
      </trkpt>
      <trkpt lat="39.1860490" lon="-1.4543810">
        <ele>550.4</ele>
        <time>2019-05-11T09:50:00Z</time>
      </trkpt>
      <trkpt lat="39.1860300" lon="-1.4542910">
        <ele>550.4</ele>
        <time>2019-05-11T09:50:01Z</time>
      </trkpt>
      <trkpt lat="39.1860130" lon="-1.4542000">
        <ele>550.4</ele>
        <time>2019-05-11T09:50:02Z</time>
      </trkpt>
      <trkpt lat="39.1859950" lon="-1.4541080">
        <ele>550.4</ele>
        <time>2019-05-11T09:50:03Z</time>
      </trkpt>
      <trkpt lat="39.1859710" lon="-1.4540180">
        <ele>550.2</ele>
        <time>2019-05-11T09:50:04Z</time>
      </trkpt>
      <trkpt lat="39.1859510" lon="-1.4539240">
        <ele>550.2</ele>
        <time>2019-05-11T09:50:05Z</time>
      </trkpt>
      <trkpt lat="39.1859410" lon="-1.4538300">
        <ele>550.0</ele>
        <time>2019-05-11T09:50:06Z</time>
      </trkpt>
      <trkpt lat="39.1859310" lon="-1.4537360">
        <ele>550.0</ele>
        <time>2019-05-11T09:50:07Z</time>
      </trkpt>
      <trkpt lat="39.1859190" lon="-1.4536420">
        <ele>550.0</ele>
        <time>2019-05-11T09:50:08Z</time>
      </trkpt>
      <trkpt lat="39.1859100" lon="-1.4535490">
        <ele>549.8</ele>
        <time>2019-05-11T09:50:09Z</time>
      </trkpt>
      <trkpt lat="39.1859070" lon="-1.4534540">
        <ele>549.6</ele>
        <time>2019-05-11T09:50:10Z</time>
      </trkpt>
      <trkpt lat="39.1859120" lon="-1.4533580">
        <ele>549.6</ele>
        <time>2019-05-11T09:50:11Z</time>
      </trkpt>
      <trkpt lat="39.1859250" lon="-1.4532630">
        <ele>549.6</ele>
        <time>2019-05-11T09:50:12Z</time>
      </trkpt>
      <trkpt lat="39.1859470" lon="-1.4531700">
        <ele>549.4</ele>
        <time>2019-05-11T09:50:13Z</time>
      </trkpt>
      <trkpt lat="39.1859750" lon="-1.4530800">
        <ele>549.4</ele>
        <time>2019-05-11T09:50:14Z</time>
      </trkpt>
      <trkpt lat="39.1860120" lon="-1.4529950">
        <ele>549.2</ele>
        <time>2019-05-11T09:50:15Z</time>
      </trkpt>
      <trkpt lat="39.1860580" lon="-1.4529140">
        <ele>549.2</ele>
        <time>2019-05-11T09:50:16Z</time>
      </trkpt>
      <trkpt lat="39.1861120" lon="-1.4528370">
        <ele>549.2</ele>
        <time>2019-05-11T09:50:17Z</time>
      </trkpt>
      <trkpt lat="39.1861710" lon="-1.4527630">
        <ele>549.0</ele>
        <time>2019-05-11T09:50:18Z</time>
      </trkpt>
      <trkpt lat="39.1862370" lon="-1.4526980">
        <ele>548.8</ele>
        <time>2019-05-11T09:50:19Z</time>
      </trkpt>
      <trkpt lat="39.1863070" lon="-1.4526450">
        <ele>548.8</ele>
        <time>2019-05-11T09:50:20Z</time>
      </trkpt>
      <trkpt lat="39.1863740" lon="-1.4525930">
        <ele>548.6</ele>
        <time>2019-05-11T09:50:21Z</time>
      </trkpt>
      <trkpt lat="39.1864410" lon="-1.4525390">
        <ele>548.6</ele>
        <time>2019-05-11T09:50:22Z</time>
      </trkpt>
      <trkpt lat="39.1865010" lon="-1.4524770">
        <ele>548.6</ele>
        <time>2019-05-11T09:50:23Z</time>
      </trkpt>
      <trkpt lat="39.1865500" lon="-1.4524040">
        <ele>548.4</ele>
        <time>2019-05-11T09:50:24Z</time>
      </trkpt>
      <trkpt lat="39.1865950" lon="-1.4523300">
        <ele>548.2</ele>
        <time>2019-05-11T09:50:25Z</time>
      </trkpt>
      <trkpt lat="39.1866430" lon="-1.4522620">
        <ele>548.2</ele>
        <time>2019-05-11T09:50:26Z</time>
      </trkpt>
      <trkpt lat="39.1866980" lon="-1.4522020">
        <ele>548.2</ele>
        <time>2019-05-11T09:50:27Z</time>
      </trkpt>
      <trkpt lat="39.1867570" lon="-1.4521480">
        <ele>548.2</ele>
        <time>2019-05-11T09:50:28Z</time>
      </trkpt>
      <trkpt lat="39.1868190" lon="-1.4520990">
        <ele>548.0</ele>
        <time>2019-05-11T09:50:29Z</time>
      </trkpt>
      <trkpt lat="39.1868810" lon="-1.4520480">
        <ele>548.0</ele>
        <time>2019-05-11T09:50:30Z</time>
      </trkpt>
      <trkpt lat="39.1869400" lon="-1.4519910">
        <ele>548.0</ele>
        <time>2019-05-11T09:50:31Z</time>
      </trkpt>
      <trkpt lat="39.1869980" lon="-1.4519310">
        <ele>547.8</ele>
        <time>2019-05-11T09:50:32Z</time>
      </trkpt>
      <trkpt lat="39.1870540" lon="-1.4518680">
        <ele>547.8</ele>
        <time>2019-05-11T09:50:33Z</time>
      </trkpt>
      <trkpt lat="39.1871070" lon="-1.4518030">
        <ele>547.8</ele>
        <time>2019-05-11T09:50:34Z</time>
      </trkpt>
      <trkpt lat="39.1871590" lon="-1.4517390">
        <ele>547.8</ele>
        <time>2019-05-11T09:50:35Z</time>
      </trkpt>
      <trkpt lat="39.1872140" lon="-1.4516820">
        <ele>547.6</ele>
        <time>2019-05-11T09:50:36Z</time>
      </trkpt>
      <trkpt lat="39.1872730" lon="-1.4516300">
        <ele>547.6</ele>
        <time>2019-05-11T09:50:37Z</time>
      </trkpt>
      <trkpt lat="39.1873300" lon="-1.4515770">
        <ele>547.6</ele>
        <time>2019-05-11T09:50:38Z</time>
      </trkpt>
      <trkpt lat="39.1873870" lon="-1.4515190">
        <ele>547.4</ele>
        <time>2019-05-11T09:50:39Z</time>
      </trkpt>
      <trkpt lat="39.1874380" lon="-1.4514560">
        <ele>547.4</ele>
        <time>2019-05-11T09:50:40Z</time>
      </trkpt>
      <trkpt lat="39.1874800" lon="-1.4513830">
        <ele>547.4</ele>
        <time>2019-05-11T09:50:41Z</time>
      </trkpt>
      <trkpt lat="39.1875160" lon="-1.4513050">
        <ele>547.4</ele>
        <time>2019-05-11T09:50:42Z</time>
      </trkpt>
      <trkpt lat="39.1875510" lon="-1.4512260">
        <ele>547.4</ele>
        <time>2019-05-11T09:50:43Z</time>
      </trkpt>
      <trkpt lat="39.1875880" lon="-1.4511470">
        <ele>547.4</ele>
        <time>2019-05-11T09:50:44Z</time>
      </trkpt>
      <trkpt lat="39.1876250" lon="-1.4510690">
        <ele>547.4</ele>
        <time>2019-05-11T09:50:45Z</time>
      </trkpt>
      <trkpt lat="39.1876640" lon="-1.4509910">
        <ele>547.4</ele>
        <time>2019-05-11T09:50:46Z</time>
      </trkpt>
      <trkpt lat="39.1877050" lon="-1.4509160">
        <ele>547.2</ele>
        <time>2019-05-11T09:50:47Z</time>
      </trkpt>
      <trkpt lat="39.1877480" lon="-1.4508420">
        <ele>547.2</ele>
        <time>2019-05-11T09:50:48Z</time>
      </trkpt>
      <trkpt lat="39.1877930" lon="-1.4507650">
        <ele>547.2</ele>
        <time>2019-05-11T09:50:49Z</time>
      </trkpt>
      <trkpt lat="39.1878340" lon="-1.4506840">
        <ele>547.2</ele>
        <time>2019-05-11T09:50:50Z</time>
      </trkpt>
      <trkpt lat="39.1878730" lon="-1.4506000">
        <ele>547.0</ele>
        <time>2019-05-11T09:50:51Z</time>
      </trkpt>
      <trkpt lat="39.1879100" lon="-1.4505150">
        <ele>546.8</ele>
        <time>2019-05-11T09:50:52Z</time>
      </trkpt>
      <trkpt lat="39.1879480" lon="-1.4504310">
        <ele>546.8</ele>
        <time>2019-05-11T09:50:53Z</time>
      </trkpt>
      <trkpt lat="39.1879860" lon="-1.4503530">
        <ele>546.6</ele>
        <time>2019-05-11T09:50:54Z</time>
      </trkpt>
      <trkpt lat="39.1880240" lon="-1.4502660">
        <ele>546.2</ele>
        <time>2019-05-11T09:50:55Z</time>
      </trkpt>
      <trkpt lat="39.1880530" lon="-1.4501750">
        <ele>545.8</ele>
        <time>2019-05-11T09:50:56Z</time>
      </trkpt>
      <trkpt lat="39.1880750" lon="-1.4500810">
        <ele>545.6</ele>
        <time>2019-05-11T09:50:57Z</time>
      </trkpt>
      <trkpt lat="39.1880950" lon="-1.4499870">
        <ele>545.4</ele>
        <time>2019-05-11T09:50:58Z</time>
      </trkpt>
      <trkpt lat="39.1881090" lon="-1.4498920">
        <ele>545.4</ele>
        <time>2019-05-11T09:50:59Z</time>
      </trkpt>
      <trkpt lat="39.1881160" lon="-1.4497940">
        <ele>545.4</ele>
        <time>2019-05-11T09:51:00Z</time>
      </trkpt>
      <trkpt lat="39.1881210" lon="-1.4496980">
        <ele>545.2</ele>
        <time>2019-05-11T09:51:01Z</time>
      </trkpt>
      <trkpt lat="39.1881270" lon="-1.4496050">
        <ele>545.0</ele>
        <time>2019-05-11T09:51:02Z</time>
      </trkpt>
      <trkpt lat="39.1881370" lon="-1.4495150">
        <ele>544.8</ele>
        <time>2019-05-11T09:51:03Z</time>
      </trkpt>
      <trkpt lat="39.1881570" lon="-1.4494350">
        <ele>544.6</ele>
        <time>2019-05-11T09:51:04Z</time>
      </trkpt>
      <trkpt lat="39.1881790" lon="-1.4493660">
        <ele>544.6</ele>
        <time>2019-05-11T09:51:05Z</time>
      </trkpt>
      <trkpt lat="39.1881950" lon="-1.4493030">
        <ele>544.6</ele>
        <time>2019-05-11T09:51:06Z</time>
      </trkpt>
      <trkpt lat="39.1882010" lon="-1.4492440">
        <ele>544.4</ele>
        <time>2019-05-11T09:51:07Z</time>
      </trkpt>
      <trkpt lat="39.1881940" lon="-1.4491920">
        <ele>544.4</ele>
        <time>2019-05-11T09:51:08Z</time>
      </trkpt>
      <trkpt lat="39.1881760" lon="-1.4491600">
        <ele>544.2</ele>
        <time>2019-05-11T09:51:09Z</time>
      </trkpt>
      <trkpt lat="39.1881570" lon="-1.4491580">
        <ele>544.2</ele>
        <time>2019-05-11T09:51:10Z</time>
      </trkpt>
      <trkpt lat="39.1881370" lon="-1.4491670">
        <ele>544.2</ele>
        <time>2019-05-11T09:51:11Z</time>
      </trkpt>
      <trkpt lat="39.1881140" lon="-1.4491760">
        <ele>544.0</ele>
        <time>2019-05-11T09:51:12Z</time>
      </trkpt>
      <trkpt lat="39.1880870" lon="-1.4491840">
        <ele>544.0</ele>
        <time>2019-05-11T09:51:13Z</time>
      </trkpt>
      <trkpt lat="39.1880610" lon="-1.4491910">
        <ele>544.0</ele>
        <time>2019-05-11T09:51:14Z</time>
      </trkpt>
      <trkpt lat="39.1880340" lon="-1.4491970">
        <ele>544.0</ele>
        <time>2019-05-11T09:51:15Z</time>
      </trkpt>
      <trkpt lat="39.1880060" lon="-1.4491970">
        <ele>544.0</ele>
        <time>2019-05-11T09:51:16Z</time>
      </trkpt>
      <trkpt lat="39.1879740" lon="-1.4491940">
        <ele>544.0</ele>
        <time>2019-05-11T09:51:17Z</time>
      </trkpt>
      <trkpt lat="39.1879390" lon="-1.4491920">
        <ele>544.0</ele>
        <time>2019-05-11T09:51:18Z</time>
      </trkpt>
      <trkpt lat="39.1879040" lon="-1.4491990">
        <ele>544.0</ele>
        <time>2019-05-11T09:51:19Z</time>
      </trkpt>
      <trkpt lat="39.1878740" lon="-1.4492160">
        <ele>544.0</ele>
        <time>2019-05-11T09:51:20Z</time>
      </trkpt>
      <trkpt lat="39.1878460" lon="-1.4492360">
        <ele>544.2</ele>
        <time>2019-05-11T09:51:21Z</time>
      </trkpt>
      <trkpt lat="39.1878180" lon="-1.4492560">
        <ele>544.4</ele>
        <time>2019-05-11T09:51:22Z</time>
      </trkpt>
      <trkpt lat="39.1877890" lon="-1.4492770">
        <ele>544.4</ele>
        <time>2019-05-11T09:51:23Z</time>
      </trkpt>
      <trkpt lat="39.1877590" lon="-1.4492950">
        <ele>544.8</ele>
        <time>2019-05-11T09:51:24Z</time>
      </trkpt>
      <trkpt lat="39.1877270" lon="-1.4493050">
        <ele>544.6</ele>
        <time>2019-05-11T09:51:25Z</time>
      </trkpt>
      <trkpt lat="39.1876960" lon="-1.4493100">
        <ele>544.8</ele>
        <time>2019-05-11T09:51:26Z</time>
      </trkpt>
      <trkpt lat="39.1876640" lon="-1.4493120">
        <ele>545.0</ele>
        <time>2019-05-11T09:51:27Z</time>
      </trkpt>
      <trkpt lat="39.1876320" lon="-1.4493140">
        <ele>545.2</ele>
        <time>2019-05-11T09:51:28Z</time>
      </trkpt>
      <trkpt lat="39.1876010" lon="-1.4493130">
        <ele>545.2</ele>
        <time>2019-05-11T09:51:29Z</time>
      </trkpt>
      <trkpt lat="39.1875720" lon="-1.4493070">
        <ele>545.4</ele>
        <time>2019-05-11T09:51:30Z</time>
      </trkpt>
      <trkpt lat="39.1875470" lon="-1.4492940">
        <ele>545.6</ele>
        <time>2019-05-11T09:51:31Z</time>
      </trkpt>
      <trkpt lat="39.1875260" lon="-1.4492750">
        <ele>545.6</ele>
        <time>2019-05-11T09:51:32Z</time>
      </trkpt>
      <trkpt lat="39.1875140" lon="-1.4492510">
        <ele>545.6</ele>
        <time>2019-05-11T09:51:33Z</time>
      </trkpt>
      <trkpt lat="39.1875060" lon="-1.4492260">
        <ele>545.6</ele>
        <time>2019-05-11T09:51:34Z</time>
      </trkpt>
      <trkpt lat="39.1875030" lon="-1.4491940">
        <ele>545.6</ele>
        <time>2019-05-11T09:51:35Z</time>
      </trkpt>
      <trkpt lat="39.1875020" lon="-1.4491610">
        <ele>545.8</ele>
        <time>2019-05-11T09:51:36Z</time>
      </trkpt>
      <trkpt lat="39.1875020" lon="-1.4491320">
        <ele>545.8</ele>
        <time>2019-05-11T09:51:37Z</time>
      </trkpt>
      <trkpt lat="39.1875110" lon="-1.4491090">
        <ele>546.0</ele>
        <time>2019-05-11T09:51:38Z</time>
      </trkpt>
      <trkpt lat="39.1875320" lon="-1.4490980">
        <ele>546.2</ele>
        <time>2019-05-11T09:51:39Z</time>
      </trkpt>
      <trkpt lat="39.1875520" lon="-1.4490990">
        <ele>546.4</ele>
        <time>2019-05-11T09:51:40Z</time>
      </trkpt>
      <trkpt lat="39.1875780" lon="-1.4491010">
        <ele>546.6</ele>
        <time>2019-05-11T09:51:41Z</time>
      </trkpt>
      <trkpt lat="39.1876040" lon="-1.4491010">
        <ele>546.8</ele>
        <time>2019-05-11T09:51:42Z</time>
      </trkpt>
      <trkpt lat="39.1876270" lon="-1.4490960">
        <ele>547.0</ele>
        <time>2019-05-11T09:51:43Z</time>
      </trkpt>
      <trkpt lat="39.1876500" lon="-1.4490800">
        <ele>547.0</ele>
        <time>2019-05-11T09:51:44Z</time>
      </trkpt>
      <trkpt lat="39.1876760" lon="-1.4490660">
        <ele>547.2</ele>
        <time>2019-05-11T09:51:45Z</time>
      </trkpt>
      <trkpt lat="39.1877010" lon="-1.4490480">
        <ele>547.2</ele>
        <time>2019-05-11T09:51:46Z</time>
      </trkpt>
      <trkpt lat="39.1877320" lon="-1.4490260">
        <ele>547.4</ele>
        <time>2019-05-11T09:51:47Z</time>
      </trkpt>
      <trkpt lat="39.1877650" lon="-1.4490000">
        <ele>547.4</ele>
        <time>2019-05-11T09:51:48Z</time>
      </trkpt>
      <trkpt lat="39.1877950" lon="-1.4489690">
        <ele>547.4</ele>
        <time>2019-05-11T09:51:49Z</time>
      </trkpt>
      <trkpt lat="39.1878170" lon="-1.4489400">
        <ele>547.4</ele>
        <time>2019-05-11T09:51:50Z</time>
      </trkpt>
      <trkpt lat="39.1878320" lon="-1.4489140">
        <ele>547.4</ele>
        <time>2019-05-11T09:51:51Z</time>
      </trkpt>
      <trkpt lat="39.1878430" lon="-1.4488910">
        <ele>547.6</ele>
        <time>2019-05-11T09:51:52Z</time>
      </trkpt>
      <trkpt lat="39.1878500" lon="-1.4488710">
        <ele>547.6</ele>
        <time>2019-05-11T09:51:53Z</time>
      </trkpt>
      <trkpt lat="39.1878540" lon="-1.4488580">
        <ele>547.8</ele>
        <time>2019-05-11T09:51:54Z</time>
      </trkpt>
      <trkpt lat="39.1878580" lon="-1.4488540">
        <ele>547.8</ele>
        <time>2019-05-11T09:51:55Z</time>
      </trkpt>
      <trkpt lat="39.1878600" lon="-1.4488510">
        <ele>548.0</ele>
        <time>2019-05-11T09:51:56Z</time>
      </trkpt>
      <trkpt lat="39.1878620" lon="-1.4488460">
        <ele>548.0</ele>
        <time>2019-05-11T09:51:57Z</time>
      </trkpt>
      <trkpt lat="39.1878640" lon="-1.4488440">
        <ele>548.2</ele>
        <time>2019-05-11T09:51:58Z</time>
      </trkpt>
      <trkpt lat="39.1878650" lon="-1.4488420">
        <ele>548.2</ele>
        <time>2019-05-11T09:51:59Z</time>
      </trkpt>
      <trkpt lat="39.1878650" lon="-1.4488420">
        <ele>548.2</ele>
        <time>2019-05-11T09:52:00Z</time>
      </trkpt>
      <trkpt lat="39.1878700" lon="-1.4488360">
        <ele>548.2</ele>
        <time>2019-05-11T09:52:01Z</time>
      </trkpt>
      <trkpt lat="39.1878700" lon="-1.4488360">
        <ele>548.2</ele>
        <time>2019-05-11T09:52:02Z</time>
      </trkpt>
      <trkpt lat="39.1878700" lon="-1.4488360">
        <ele>548.2</ele>
        <time>2019-05-11T09:52:03Z</time>
      </trkpt>
      <trkpt lat="39.1878700" lon="-1.4488360">
        <ele>548.2</ele>
        <time>2019-05-11T09:52:04Z</time>
      </trkpt>
      <trkpt lat="39.1878700" lon="-1.4488360">
        <ele>548.4</ele>
        <time>2019-05-11T09:52:05Z</time>
      </trkpt>
      <trkpt lat="39.1878700" lon="-1.4488360">
        <ele>548.4</ele>
        <time>2019-05-11T09:52:06Z</time>
      </trkpt>
      <trkpt lat="39.1878700" lon="-1.4488360">
        <ele>548.6</ele>
        <time>2019-05-11T09:52:07Z</time>
      </trkpt>
      <trkpt lat="39.1878700" lon="-1.4488360">
        <ele>548.6</ele>
        <time>2019-05-11T09:52:08Z</time>
      </trkpt>
      <trkpt lat="39.1878700" lon="-1.4488360">
        <ele>548.8</ele>
        <time>2019-05-11T09:52:09Z</time>
      </trkpt>
      <trkpt lat="39.1878780" lon="-1.4488190">
        <ele>548.8</ele>
        <time>2019-05-11T09:52:10Z</time>
      </trkpt>
      <trkpt lat="39.1878890" lon="-1.4487990">
        <ele>549.0</ele>
        <time>2019-05-11T09:52:11Z</time>
      </trkpt>
      <trkpt lat="39.1879000" lon="-1.4487780">
        <ele>549.0</ele>
        <time>2019-05-11T09:52:12Z</time>
      </trkpt>
      <trkpt lat="39.1879130" lon="-1.4487540">
        <ele>549.0</ele>
        <time>2019-05-11T09:52:13Z</time>
      </trkpt>
      <trkpt lat="39.1879240" lon="-1.4487280">
        <ele>549.2</ele>
        <time>2019-05-11T09:52:14Z</time>
      </trkpt>
      <trkpt lat="39.1879340" lon="-1.4487010">
        <ele>549.2</ele>
        <time>2019-05-11T09:52:15Z</time>
      </trkpt>
      <trkpt lat="39.1879440" lon="-1.4486730">
        <ele>549.2</ele>
        <time>2019-05-11T09:52:16Z</time>
      </trkpt>
      <trkpt lat="39.1879540" lon="-1.4486400">
        <ele>549.2</ele>
        <time>2019-05-11T09:52:17Z</time>
      </trkpt>
      <trkpt lat="39.1879590" lon="-1.4486090">
        <ele>549.4</ele>
        <time>2019-05-11T09:52:18Z</time>
      </trkpt>
      <trkpt lat="39.1879640" lon="-1.4485750">
        <ele>549.4</ele>
        <time>2019-05-11T09:52:19Z</time>
      </trkpt>
      <trkpt lat="39.1879640" lon="-1.4485420">
        <ele>549.4</ele>
        <time>2019-05-11T09:52:20Z</time>
      </trkpt>
      <trkpt lat="39.1879630" lon="-1.4485060">
        <ele>549.6</ele>
        <time>2019-05-11T09:52:21Z</time>
      </trkpt>
      <trkpt lat="39.1879600" lon="-1.4484680">
        <ele>549.6</ele>
        <time>2019-05-11T09:52:22Z</time>
      </trkpt>
      <trkpt lat="39.1879560" lon="-1.4484300">
        <ele>549.8</ele>
        <time>2019-05-11T09:52:23Z</time>
      </trkpt>
      <trkpt lat="39.1879500" lon="-1.4483910">
        <ele>550.0</ele>
        <time>2019-05-11T09:52:24Z</time>
      </trkpt>
      <trkpt lat="39.1879430" lon="-1.4483540">
        <ele>550.0</ele>
        <time>2019-05-11T09:52:25Z</time>
      </trkpt>
      <trkpt lat="39.1879350" lon="-1.4483170">
        <ele>550.4</ele>
        <time>2019-05-11T09:52:26Z</time>
      </trkpt>
      <trkpt lat="39.1879280" lon="-1.4482810">
        <ele>550.6</ele>
        <time>2019-05-11T09:52:27Z</time>
      </trkpt>
      <trkpt lat="39.1879220" lon="-1.4482450">
        <ele>550.8</ele>
        <time>2019-05-11T09:52:28Z</time>
      </trkpt>
      <trkpt lat="39.1879150" lon="-1.4482100">
        <ele>550.8</ele>
        <time>2019-05-11T09:52:29Z</time>
      </trkpt>
      <trkpt lat="39.1879090" lon="-1.4481740">
        <ele>550.8</ele>
        <time>2019-05-11T09:52:30Z</time>
      </trkpt>
      <trkpt lat="39.1879060" lon="-1.4481360">
        <ele>550.8</ele>
        <time>2019-05-11T09:52:31Z</time>
      </trkpt>
      <trkpt lat="39.1879050" lon="-1.4480950">
        <ele>551.0</ele>
        <time>2019-05-11T09:52:32Z</time>
      </trkpt>
      <trkpt lat="39.1879080" lon="-1.4480530">
        <ele>551.2</ele>
        <time>2019-05-11T09:52:33Z</time>
      </trkpt>
      <trkpt lat="39.1879110" lon="-1.4480140">
        <ele>551.4</ele>
        <time>2019-05-11T09:52:34Z</time>
      </trkpt>
      <trkpt lat="39.1879150" lon="-1.4479770">
        <ele>551.6</ele>
        <time>2019-05-11T09:52:35Z</time>
      </trkpt>
      <trkpt lat="39.1879190" lon="-1.4479430">
        <ele>551.6</ele>
        <time>2019-05-11T09:52:36Z</time>
      </trkpt>
      <trkpt lat="39.1879240" lon="-1.4479080">
        <ele>551.8</ele>
        <time>2019-05-11T09:52:37Z</time>
      </trkpt>
      <trkpt lat="39.1879310" lon="-1.4478730">
        <ele>552.0</ele>
        <time>2019-05-11T09:52:38Z</time>
      </trkpt>
      <trkpt lat="39.1879400" lon="-1.4478400">
        <ele>552.0</ele>
        <time>2019-05-11T09:52:39Z</time>
      </trkpt>
      <trkpt lat="39.1879560" lon="-1.4478070">
        <ele>552.2</ele>
        <time>2019-05-11T09:52:40Z</time>
      </trkpt>
      <trkpt lat="39.1879710" lon="-1.4477750">
        <ele>552.4</ele>
        <time>2019-05-11T09:52:41Z</time>
      </trkpt>
      <trkpt lat="39.1879890" lon="-1.4477430">
        <ele>552.4</ele>
        <time>2019-05-11T09:52:42Z</time>
      </trkpt>
      <trkpt lat="39.1880070" lon="-1.4477110">
        <ele>552.6</ele>
        <time>2019-05-11T09:52:43Z</time>
      </trkpt>
      <trkpt lat="39.1880220" lon="-1.4476810">
        <ele>553.0</ele>
        <time>2019-05-11T09:52:44Z</time>
      </trkpt>
      <trkpt lat="39.1880360" lon="-1.4476540">
        <ele>553.2</ele>
        <time>2019-05-11T09:52:45Z</time>
      </trkpt>
      <trkpt lat="39.1880490" lon="-1.4476270">
        <ele>553.2</ele>
        <time>2019-05-11T09:52:46Z</time>
      </trkpt>
      <trkpt lat="39.1880610" lon="-1.4476000">
        <ele>553.4</ele>
        <time>2019-05-11T09:52:47Z</time>
      </trkpt>
      <trkpt lat="39.1880740" lon="-1.4475760">
        <ele>553.4</ele>
        <time>2019-05-11T09:52:48Z</time>
      </trkpt>
      <trkpt lat="39.1880880" lon="-1.4475530">
        <ele>553.6</ele>
        <time>2019-05-11T09:52:49Z</time>
      </trkpt>
      <trkpt lat="39.1881000" lon="-1.4475320">
        <ele>553.6</ele>
        <time>2019-05-11T09:52:50Z</time>
      </trkpt>
      <trkpt lat="39.1881140" lon="-1.4475130">
        <ele>553.8</ele>
        <time>2019-05-11T09:52:51Z</time>
      </trkpt>
      <trkpt lat="39.1881260" lon="-1.4474930">
        <ele>553.8</ele>
        <time>2019-05-11T09:52:52Z</time>
      </trkpt>
      <trkpt lat="39.1881400" lon="-1.4474760">
        <ele>553.8</ele>
        <time>2019-05-11T09:52:53Z</time>
      </trkpt>
      <trkpt lat="39.1881520" lon="-1.4474570">
        <ele>554.0</ele>
        <time>2019-05-11T09:52:54Z</time>
      </trkpt>
      <trkpt lat="39.1881630" lon="-1.4474390">
        <ele>554.2</ele>
        <time>2019-05-11T09:52:55Z</time>
      </trkpt>
      <trkpt lat="39.1881700" lon="-1.4474200">
        <ele>554.4</ele>
        <time>2019-05-11T09:52:56Z</time>
      </trkpt>
      <trkpt lat="39.1881750" lon="-1.4474010">
        <ele>554.6</ele>
        <time>2019-05-11T09:52:57Z</time>
      </trkpt>
      <trkpt lat="39.1881810" lon="-1.4473830">
        <ele>554.8</ele>
        <time>2019-05-11T09:52:58Z</time>
      </trkpt>
      <trkpt lat="39.1881880" lon="-1.4473680">
        <ele>555.0</ele>
        <time>2019-05-11T09:52:59Z</time>
      </trkpt>
      <trkpt lat="39.1881920" lon="-1.4473530">
        <ele>555.0</ele>
        <time>2019-05-11T09:53:00Z</time>
      </trkpt>
      <trkpt lat="39.1881990" lon="-1.4473380">
        <ele>555.2</ele>
        <time>2019-05-11T09:53:01Z</time>
      </trkpt>
      <trkpt lat="39.1882080" lon="-1.4473240">
        <ele>555.4</ele>
        <time>2019-05-11T09:53:02Z</time>
      </trkpt>
      <trkpt lat="39.1882130" lon="-1.4473100">
        <ele>555.4</ele>
        <time>2019-05-11T09:53:03Z</time>
      </trkpt>
      <trkpt lat="39.1882140" lon="-1.4472950">
        <ele>555.8</ele>
        <time>2019-05-11T09:53:04Z</time>
      </trkpt>
      <trkpt lat="39.1882150" lon="-1.4472760">
        <ele>555.6</ele>
        <time>2019-05-11T09:53:05Z</time>
      </trkpt>
      <trkpt lat="39.1882200" lon="-1.4472600">
        <ele>556.0</ele>
        <time>2019-05-11T09:53:06Z</time>
      </trkpt>
      <trkpt lat="39.1882260" lon="-1.4472450">
        <ele>556.4</ele>
        <time>2019-05-11T09:53:07Z</time>
      </trkpt>
      <trkpt lat="39.1882300" lon="-1.4472280">
        <ele>556.6</ele>
        <time>2019-05-11T09:53:08Z</time>
      </trkpt>
      <trkpt lat="39.1882340" lon="-1.4472140">
        <ele>556.8</ele>
        <time>2019-05-11T09:53:09Z</time>
      </trkpt>
      <trkpt lat="39.1882390" lon="-1.4472000">
        <ele>556.8</ele>
        <time>2019-05-11T09:53:10Z</time>
      </trkpt>
      <trkpt lat="39.1882430" lon="-1.4471840">
        <ele>557.0</ele>
        <time>2019-05-11T09:53:11Z</time>
      </trkpt>
      <trkpt lat="39.1882460" lon="-1.4471670">
        <ele>557.0</ele>
        <time>2019-05-11T09:53:12Z</time>
      </trkpt>
      <trkpt lat="39.1882480" lon="-1.4471520">
        <ele>557.2</ele>
        <time>2019-05-11T09:53:13Z</time>
      </trkpt>
      <trkpt lat="39.1882520" lon="-1.4471360">
        <ele>557.4</ele>
        <time>2019-05-11T09:53:14Z</time>
      </trkpt>
      <trkpt lat="39.1882560" lon="-1.4471190">
        <ele>557.6</ele>
        <time>2019-05-11T09:53:15Z</time>
      </trkpt>
      <trkpt lat="39.1882600" lon="-1.4471030">
        <ele>558.0</ele>
        <time>2019-05-11T09:53:16Z</time>
      </trkpt>
      <trkpt lat="39.1882660" lon="-1.4470870">
        <ele>558.2</ele>
        <time>2019-05-11T09:53:17Z</time>
      </trkpt>
      <trkpt lat="39.1882720" lon="-1.4470710">
        <ele>558.6</ele>
        <time>2019-05-11T09:53:18Z</time>
      </trkpt>
      <trkpt lat="39.1882750" lon="-1.4470560">
        <ele>558.8</ele>
        <time>2019-05-11T09:53:19Z</time>
      </trkpt>
      <trkpt lat="39.1882800" lon="-1.4470390">
        <ele>559.0</ele>
        <time>2019-05-11T09:53:20Z</time>
      </trkpt>
      <trkpt lat="39.1882840" lon="-1.4470270">
        <ele>559.2</ele>
        <time>2019-05-11T09:53:21Z</time>
      </trkpt>
      <trkpt lat="39.1882840" lon="-1.4470230">
        <ele>559.4</ele>
        <time>2019-05-11T09:53:22Z</time>
      </trkpt>
      <trkpt lat="39.1882860" lon="-1.4470230">
        <ele>559.8</ele>
        <time>2019-05-11T09:53:23Z</time>
      </trkpt>
      <trkpt lat="39.1882890" lon="-1.4470230">
        <ele>560.0</ele>
        <time>2019-05-11T09:53:24Z</time>
      </trkpt>
      <trkpt lat="39.1882910" lon="-1.4470180">
        <ele>560.2</ele>
        <time>2019-05-11T09:53:25Z</time>
      </trkpt>
      <trkpt lat="39.1882940" lon="-1.4470100">
        <ele>560.4</ele>
        <time>2019-05-11T09:53:26Z</time>
      </trkpt>
      <trkpt lat="39.1882990" lon="-1.4469940">
        <ele>560.6</ele>
        <time>2019-05-11T09:53:27Z</time>
      </trkpt>
      <trkpt lat="39.1883010" lon="-1.4469880">
        <ele>561.0</ele>
        <time>2019-05-11T09:53:28Z</time>
      </trkpt>
      <trkpt lat="39.1883050" lon="-1.4469830">
        <ele>561.2</ele>
        <time>2019-05-11T09:53:29Z</time>
      </trkpt>
      <trkpt lat="39.1883180" lon="-1.4469680">
        <ele>561.4</ele>
        <time>2019-05-11T09:53:30Z</time>
      </trkpt>
      <trkpt lat="39.1883260" lon="-1.4469570">
        <ele>561.6</ele>
        <time>2019-05-11T09:53:31Z</time>
      </trkpt>
      <trkpt lat="39.1883310" lon="-1.4469460">
        <ele>561.6</ele>
        <time>2019-05-11T09:53:32Z</time>
      </trkpt>
      <trkpt lat="39.1883370" lon="-1.4469340">
        <ele>561.6</ele>
        <time>2019-05-11T09:53:33Z</time>
      </trkpt>
      <trkpt lat="39.1883420" lon="-1.4469230">
        <ele>561.8</ele>
        <time>2019-05-11T09:53:34Z</time>
      </trkpt>
      <trkpt lat="39.1883500" lon="-1.4469140">
        <ele>562.0</ele>
        <time>2019-05-11T09:53:35Z</time>
      </trkpt>
      <trkpt lat="39.1883560" lon="-1.4469030">
        <ele>562.0</ele>
        <time>2019-05-11T09:53:36Z</time>
      </trkpt>
      <trkpt lat="39.1883620" lon="-1.4468910">
        <ele>562.0</ele>
        <time>2019-05-11T09:53:37Z</time>
      </trkpt>
      <trkpt lat="39.1883670" lon="-1.4468780">
        <ele>562.0</ele>
        <time>2019-05-11T09:53:38Z</time>
      </trkpt>
      <trkpt lat="39.1883720" lon="-1.4468650">
        <ele>562.2</ele>
        <time>2019-05-11T09:53:39Z</time>
      </trkpt>
      <trkpt lat="39.1883800" lon="-1.4468520">
        <ele>562.2</ele>
        <time>2019-05-11T09:53:40Z</time>
      </trkpt>
      <trkpt lat="39.1883850" lon="-1.4468400">
        <ele>562.4</ele>
        <time>2019-05-11T09:53:41Z</time>
      </trkpt>
      <trkpt lat="39.1883870" lon="-1.4468300">
        <ele>562.6</ele>
        <time>2019-05-11T09:53:42Z</time>
      </trkpt>
      <trkpt lat="39.1883910" lon="-1.4468170">
        <ele>562.6</ele>
        <time>2019-05-11T09:53:43Z</time>
      </trkpt>
      <trkpt lat="39.1883980" lon="-1.4468030">
        <ele>562.8</ele>
        <time>2019-05-11T09:53:44Z</time>
      </trkpt>
      <trkpt lat="39.1884050" lon="-1.4467900">
        <ele>563.0</ele>
        <time>2019-05-11T09:53:45Z</time>
      </trkpt>
      <trkpt lat="39.1884110" lon="-1.4467780">
        <ele>563.0</ele>
        <time>2019-05-11T09:53:46Z</time>
      </trkpt>
      <trkpt lat="39.1884170" lon="-1.4467670">
        <ele>563.2</ele>
        <time>2019-05-11T09:53:47Z</time>
      </trkpt>
      <trkpt lat="39.1884260" lon="-1.4467530">
        <ele>563.4</ele>
        <time>2019-05-11T09:53:48Z</time>
      </trkpt>
      <trkpt lat="39.1884350" lon="-1.4467390">
        <ele>563.6</ele>
        <time>2019-05-11T09:53:49Z</time>
      </trkpt>
      <trkpt lat="39.1884410" lon="-1.4467270">
        <ele>563.8</ele>
        <time>2019-05-11T09:53:50Z</time>
      </trkpt>
      <trkpt lat="39.1884470" lon="-1.4467190">
        <ele>564.0</ele>
        <time>2019-05-11T09:53:51Z</time>
      </trkpt>
      <trkpt lat="39.1884530" lon="-1.4467070">
        <ele>564.2</ele>
        <time>2019-05-11T09:53:52Z</time>
      </trkpt>
      <trkpt lat="39.1884630" lon="-1.4467000">
        <ele>564.4</ele>
        <time>2019-05-11T09:53:53Z</time>
      </trkpt>
      <trkpt lat="39.1884700" lon="-1.4466920">
        <ele>564.6</ele>
        <time>2019-05-11T09:53:54Z</time>
      </trkpt>
      <trkpt lat="39.1884760" lon="-1.4466830">
        <ele>564.6</ele>
        <time>2019-05-11T09:53:55Z</time>
      </trkpt>
      <trkpt lat="39.1884810" lon="-1.4466740">
        <ele>565.0</ele>
        <time>2019-05-11T09:53:56Z</time>
      </trkpt>
      <trkpt lat="39.1884840" lon="-1.4466640">
        <ele>565.2</ele>
        <time>2019-05-11T09:53:57Z</time>
      </trkpt>
      <trkpt lat="39.1884890" lon="-1.4466500">
        <ele>565.4</ele>
        <time>2019-05-11T09:53:58Z</time>
      </trkpt>
      <trkpt lat="39.1884940" lon="-1.4466360">
        <ele>565.4</ele>
        <time>2019-05-11T09:53:59Z</time>
      </trkpt>
      <trkpt lat="39.1885050" lon="-1.4466170">
        <ele>565.6</ele>
        <time>2019-05-11T09:54:00Z</time>
      </trkpt>
      <trkpt lat="39.1885150" lon="-1.4466050">
        <ele>565.8</ele>
        <time>2019-05-11T09:54:01Z</time>
      </trkpt>
      <trkpt lat="39.1885240" lon="-1.4465920">
        <ele>566.0</ele>
        <time>2019-05-11T09:54:02Z</time>
      </trkpt>
      <trkpt lat="39.1885290" lon="-1.4465810">
        <ele>566.2</ele>
        <time>2019-05-11T09:54:03Z</time>
      </trkpt>
      <trkpt lat="39.1885360" lon="-1.4465690">
        <ele>566.4</ele>
        <time>2019-05-11T09:54:04Z</time>
      </trkpt>
      <trkpt lat="39.1885410" lon="-1.4465590">
        <ele>566.4</ele>
        <time>2019-05-11T09:54:05Z</time>
      </trkpt>
      <trkpt lat="39.1885490" lon="-1.4465480">
        <ele>566.6</ele>
        <time>2019-05-11T09:54:06Z</time>
      </trkpt>
      <trkpt lat="39.1885570" lon="-1.4465370">
        <ele>566.6</ele>
        <time>2019-05-11T09:54:07Z</time>
      </trkpt>
      <trkpt lat="39.1885690" lon="-1.4465290">
        <ele>566.8</ele>
        <time>2019-05-11T09:54:08Z</time>
      </trkpt>
      <trkpt lat="39.1885790" lon="-1.4465210">
        <ele>567.0</ele>
        <time>2019-05-11T09:54:09Z</time>
      </trkpt>
      <trkpt lat="39.1885870" lon="-1.4465110">
        <ele>567.2</ele>
        <time>2019-05-11T09:54:10Z</time>
      </trkpt>
      <trkpt lat="39.1885920" lon="-1.4465020">
        <ele>567.4</ele>
        <time>2019-05-11T09:54:11Z</time>
      </trkpt>
      <trkpt lat="39.1885980" lon="-1.4464930">
        <ele>567.8</ele>
        <time>2019-05-11T09:54:12Z</time>
      </trkpt>
      <trkpt lat="39.1885990" lon="-1.4464870">
        <ele>568.0</ele>
        <time>2019-05-11T09:54:13Z</time>
      </trkpt>
      <trkpt lat="39.1885960" lon="-1.4464860">
        <ele>568.0</ele>
        <time>2019-05-11T09:54:14Z</time>
      </trkpt>
      <trkpt lat="39.1885940" lon="-1.4464800">
        <ele>568.2</ele>
        <time>2019-05-11T09:54:15Z</time>
      </trkpt>
      <trkpt lat="39.1886020" lon="-1.4464670">
        <ele>568.8</ele>
        <time>2019-05-11T09:54:16Z</time>
      </trkpt>
      <trkpt lat="39.1886070" lon="-1.4464540">
        <ele>569.0</ele>
        <time>2019-05-11T09:54:17Z</time>
      </trkpt>
      <trkpt lat="39.1886140" lon="-1.4464400">
        <ele>569.2</ele>
        <time>2019-05-11T09:54:18Z</time>
      </trkpt>
      <trkpt lat="39.1886260" lon="-1.4464240">
        <ele>569.4</ele>
        <time>2019-05-11T09:54:19Z</time>
      </trkpt>
      <trkpt lat="39.1886390" lon="-1.4464060">
        <ele>569.6</ele>
        <time>2019-05-11T09:54:20Z</time>
      </trkpt>
      <trkpt lat="39.1886560" lon="-1.4463910">
        <ele>569.8</ele>
        <time>2019-05-11T09:54:21Z</time>
      </trkpt>
      <trkpt lat="39.1886710" lon="-1.4463810">
        <ele>569.8</ele>
        <time>2019-05-11T09:54:22Z</time>
      </trkpt>
      <trkpt lat="39.1886860" lon="-1.4463670">
        <ele>570.0</ele>
        <time>2019-05-11T09:54:23Z</time>
      </trkpt>
      <trkpt lat="39.1887000" lon="-1.4463510">
        <ele>570.0</ele>
        <time>2019-05-11T09:54:24Z</time>
      </trkpt>
      <trkpt lat="39.1887110" lon="-1.4463380">
        <ele>570.0</ele>
        <time>2019-05-11T09:54:25Z</time>
      </trkpt>
      <trkpt lat="39.1887210" lon="-1.4463250">
        <ele>570.2</ele>
        <time>2019-05-11T09:54:26Z</time>
      </trkpt>
      <trkpt lat="39.1887340" lon="-1.4463140">
        <ele>570.4</ele>
        <time>2019-05-11T09:54:27Z</time>
      </trkpt>
      <trkpt lat="39.1887460" lon="-1.4463110">
        <ele>570.6</ele>
        <time>2019-05-11T09:54:28Z</time>
      </trkpt>
      <trkpt lat="39.1887500" lon="-1.4463100">
        <ele>571.0</ele>
        <time>2019-05-11T09:54:29Z</time>
      </trkpt>
      <trkpt lat="39.1887540" lon="-1.4463100">
        <ele>571.0</ele>
        <time>2019-05-11T09:54:30Z</time>
      </trkpt>
      <trkpt lat="39.1887630" lon="-1.4463050">
        <ele>571.4</ele>
        <time>2019-05-11T09:54:31Z</time>
      </trkpt>
      <trkpt lat="39.1887740" lon="-1.4462990">
        <ele>571.8</ele>
        <time>2019-05-11T09:54:32Z</time>
      </trkpt>
      <trkpt lat="39.1887830" lon="-1.4462950">
        <ele>572.0</ele>
        <time>2019-05-11T09:54:33Z</time>
      </trkpt>
      <trkpt lat="39.1887910" lon="-1.4462910">
        <ele>572.2</ele>
        <time>2019-05-11T09:54:34Z</time>
      </trkpt>
      <trkpt lat="39.1888010" lon="-1.4462880">
        <ele>572.4</ele>
        <time>2019-05-11T09:54:35Z</time>
      </trkpt>
      <trkpt lat="39.1888110" lon="-1.4462840">
        <ele>572.6</ele>
        <time>2019-05-11T09:54:36Z</time>
      </trkpt>
      <trkpt lat="39.1888180" lon="-1.4462780">
        <ele>572.6</ele>
        <time>2019-05-11T09:54:37Z</time>
      </trkpt>
      <trkpt lat="39.1888260" lon="-1.4462710">
        <ele>572.8</ele>
        <time>2019-05-11T09:54:38Z</time>
      </trkpt>
      <trkpt lat="39.1888310" lon="-1.4462670">
        <ele>572.8</ele>
        <time>2019-05-11T09:54:39Z</time>
      </trkpt>
      <trkpt lat="39.1888320" lon="-1.4462660">
        <ele>573.0</ele>
        <time>2019-05-11T09:54:40Z</time>
      </trkpt>
      <trkpt lat="39.1888350" lon="-1.4462630">
        <ele>573.2</ele>
        <time>2019-05-11T09:54:41Z</time>
      </trkpt>
      <trkpt lat="39.1888430" lon="-1.4462590">
        <ele>573.4</ele>
        <time>2019-05-11T09:54:42Z</time>
      </trkpt>
      <trkpt lat="39.1888560" lon="-1.4462570">
        <ele>573.6</ele>
        <time>2019-05-11T09:54:43Z</time>
      </trkpt>
      <trkpt lat="39.1888740" lon="-1.4462560">
        <ele>573.6</ele>
        <time>2019-05-11T09:54:44Z</time>
      </trkpt>
      <trkpt lat="39.1888940" lon="-1.4462510">
        <ele>573.6</ele>
        <time>2019-05-11T09:54:45Z</time>
      </trkpt>
      <trkpt lat="39.1889140" lon="-1.4462460">
        <ele>573.8</ele>
        <time>2019-05-11T09:54:46Z</time>
      </trkpt>
      <trkpt lat="39.1889340" lon="-1.4462390">
        <ele>573.8</ele>
        <time>2019-05-11T09:54:47Z</time>
      </trkpt>
      <trkpt lat="39.1889560" lon="-1.4462310">
        <ele>573.8</ele>
        <time>2019-05-11T09:54:48Z</time>
      </trkpt>
      <trkpt lat="39.1889780" lon="-1.4462230">
        <ele>573.8</ele>
        <time>2019-05-11T09:54:49Z</time>
      </trkpt>
      <trkpt lat="39.1890000" lon="-1.4462150">
        <ele>574.0</ele>
        <time>2019-05-11T09:54:50Z</time>
      </trkpt>
      <trkpt lat="39.1890230" lon="-1.4462080">
        <ele>574.0</ele>
        <time>2019-05-11T09:54:51Z</time>
      </trkpt>
      <trkpt lat="39.1890460" lon="-1.4461990">
        <ele>574.0</ele>
        <time>2019-05-11T09:54:52Z</time>
      </trkpt>
      <trkpt lat="39.1890690" lon="-1.4461880">
        <ele>574.0</ele>
        <time>2019-05-11T09:54:53Z</time>
      </trkpt>
      <trkpt lat="39.1890920" lon="-1.4461790">
        <ele>574.2</ele>
        <time>2019-05-11T09:54:54Z</time>
      </trkpt>
      <trkpt lat="39.1891140" lon="-1.4461720">
        <ele>574.2</ele>
        <time>2019-05-11T09:54:55Z</time>
      </trkpt>
      <trkpt lat="39.1891350" lon="-1.4461670">
        <ele>574.2</ele>
        <time>2019-05-11T09:54:56Z</time>
      </trkpt>
      <trkpt lat="39.1891560" lon="-1.4461630">
        <ele>574.2</ele>
        <time>2019-05-11T09:54:57Z</time>
      </trkpt>
      <trkpt lat="39.1891750" lon="-1.4461600">
        <ele>574.2</ele>
        <time>2019-05-11T09:54:58Z</time>
      </trkpt>
      <trkpt lat="39.1891850" lon="-1.4461600">
        <ele>574.4</ele>
        <time>2019-05-11T09:54:59Z</time>
      </trkpt>
      <trkpt lat="39.1891860" lon="-1.4461610">
        <ele>574.4</ele>
        <time>2019-05-11T09:55:00Z</time>
      </trkpt>
      <trkpt lat="39.1891850" lon="-1.4461610">
        <ele>574.6</ele>
        <time>2019-05-11T09:55:01Z</time>
      </trkpt>
      <trkpt lat="39.1891880" lon="-1.4461610">
        <ele>574.8</ele>
        <time>2019-05-11T09:55:02Z</time>
      </trkpt>
      <trkpt lat="39.1891930" lon="-1.4461540">
        <ele>575.0</ele>
        <time>2019-05-11T09:55:03Z</time>
      </trkpt>
      <trkpt lat="39.1891960" lon="-1.4461450">
        <ele>575.2</ele>
        <time>2019-05-11T09:55:04Z</time>
      </trkpt>
      <trkpt lat="39.1892000" lon="-1.4461330">
        <ele>575.4</ele>
        <time>2019-05-11T09:55:05Z</time>
      </trkpt>
      <trkpt lat="39.1892010" lon="-1.4461220">
        <ele>575.6</ele>
        <time>2019-05-11T09:55:06Z</time>
      </trkpt>
      <trkpt lat="39.1892000" lon="-1.4461120">
        <ele>575.8</ele>
        <time>2019-05-11T09:55:07Z</time>
      </trkpt>
      <trkpt lat="39.1892020" lon="-1.4461020">
        <ele>575.8</ele>
        <time>2019-05-11T09:55:08Z</time>
      </trkpt>
      <trkpt lat="39.1891980" lon="-1.4460930">
        <ele>576.0</ele>
        <time>2019-05-11T09:55:09Z</time>
      </trkpt>
      <trkpt lat="39.1891930" lon="-1.4460870">
        <ele>576.0</ele>
        <time>2019-05-11T09:55:10Z</time>
      </trkpt>
      <trkpt lat="39.1891880" lon="-1.4460800">
        <ele>576.2</ele>
        <time>2019-05-11T09:55:11Z</time>
      </trkpt>
      <trkpt lat="39.1891850" lon="-1.4460700">
        <ele>576.4</ele>
        <time>2019-05-11T09:55:12Z</time>
      </trkpt>
      <trkpt lat="39.1891830" lon="-1.4460530">
        <ele>576.6</ele>
        <time>2019-05-11T09:55:13Z</time>
      </trkpt>
      <trkpt lat="39.1891810" lon="-1.4460360">
        <ele>576.8</ele>
        <time>2019-05-11T09:55:14Z</time>
      </trkpt>
      <trkpt lat="39.1891760" lon="-1.4460220">
        <ele>577.2</ele>
        <time>2019-05-11T09:55:15Z</time>
      </trkpt>
      <trkpt lat="39.1891670" lon="-1.4460110">
        <ele>577.4</ele>
        <time>2019-05-11T09:55:16Z</time>
      </trkpt>
      <trkpt lat="39.1891570" lon="-1.4460050">
        <ele>577.8</ele>
        <time>2019-05-11T09:55:17Z</time>
      </trkpt>
      <trkpt lat="39.1891460" lon="-1.4459990">
        <ele>578.0</ele>
        <time>2019-05-11T09:55:18Z</time>
      </trkpt>
      <trkpt lat="39.1891320" lon="-1.4459920">
        <ele>578.2</ele>
        <time>2019-05-11T09:55:19Z</time>
      </trkpt>
      <trkpt lat="39.1891130" lon="-1.4459840">
        <ele>578.4</ele>
        <time>2019-05-11T09:55:20Z</time>
      </trkpt>
      <trkpt lat="39.1890900" lon="-1.4459780">
        <ele>578.6</ele>
        <time>2019-05-11T09:55:21Z</time>
      </trkpt>
      <trkpt lat="39.1890650" lon="-1.4459760">
        <ele>578.6</ele>
        <time>2019-05-11T09:55:22Z</time>
      </trkpt>
      <trkpt lat="39.1890410" lon="-1.4459750">
        <ele>578.6</ele>
        <time>2019-05-11T09:55:23Z</time>
      </trkpt>
      <trkpt lat="39.1890170" lon="-1.4459690">
        <ele>578.8</ele>
        <time>2019-05-11T09:55:24Z</time>
      </trkpt>
      <trkpt lat="39.1889930" lon="-1.4459610">
        <ele>578.8</ele>
        <time>2019-05-11T09:55:25Z</time>
      </trkpt>
      <trkpt lat="39.1889680" lon="-1.4459540">
        <ele>578.8</ele>
        <time>2019-05-11T09:55:26Z</time>
      </trkpt>
      <trkpt lat="39.1889440" lon="-1.4459470">
        <ele>578.8</ele>
        <time>2019-05-11T09:55:27Z</time>
      </trkpt>
      <trkpt lat="39.1889210" lon="-1.4459410">
        <ele>578.8</ele>
        <time>2019-05-11T09:55:28Z</time>
      </trkpt>
      <trkpt lat="39.1888980" lon="-1.4459400">
        <ele>578.8</ele>
        <time>2019-05-11T09:55:29Z</time>
      </trkpt>
      <trkpt lat="39.1888740" lon="-1.4459400">
        <ele>578.8</ele>
        <time>2019-05-11T09:55:30Z</time>
      </trkpt>
      <trkpt lat="39.1888500" lon="-1.4459420">
        <ele>578.8</ele>
        <time>2019-05-11T09:55:31Z</time>
      </trkpt>
      <trkpt lat="39.1888270" lon="-1.4459450">
        <ele>578.8</ele>
        <time>2019-05-11T09:55:32Z</time>
      </trkpt>
      <trkpt lat="39.1888050" lon="-1.4459480">
        <ele>579.0</ele>
        <time>2019-05-11T09:55:33Z</time>
      </trkpt>
      <trkpt lat="39.1887810" lon="-1.4459530">
        <ele>579.2</ele>
        <time>2019-05-11T09:55:34Z</time>
      </trkpt>
      <trkpt lat="39.1887580" lon="-1.4459580">
        <ele>579.4</ele>
        <time>2019-05-11T09:55:35Z</time>
      </trkpt>
      <trkpt lat="39.1887360" lon="-1.4459610">
        <ele>579.4</ele>
        <time>2019-05-11T09:55:36Z</time>
      </trkpt>
      <trkpt lat="39.1887130" lon="-1.4459620">
        <ele>579.6</ele>
        <time>2019-05-11T09:55:37Z</time>
      </trkpt>
      <trkpt lat="39.1886890" lon="-1.4459610">
        <ele>579.6</ele>
        <time>2019-05-11T09:55:38Z</time>
      </trkpt>
      <trkpt lat="39.1886650" lon="-1.4459570">
        <ele>579.8</ele>
        <time>2019-05-11T09:55:39Z</time>
      </trkpt>
      <trkpt lat="39.1886410" lon="-1.4459500">
        <ele>580.0</ele>
        <time>2019-05-11T09:55:40Z</time>
      </trkpt>
      <trkpt lat="39.1886180" lon="-1.4459380">
        <ele>580.0</ele>
        <time>2019-05-11T09:55:41Z</time>
      </trkpt>
      <trkpt lat="39.1885960" lon="-1.4459190">
        <ele>580.2</ele>
        <time>2019-05-11T09:55:42Z</time>
      </trkpt>
      <trkpt lat="39.1885730" lon="-1.4459010">
        <ele>580.4</ele>
        <time>2019-05-11T09:55:43Z</time>
      </trkpt>
      <trkpt lat="39.1885490" lon="-1.4458850">
        <ele>580.4</ele>
        <time>2019-05-11T09:55:44Z</time>
      </trkpt>
      <trkpt lat="39.1885240" lon="-1.4458710">
        <ele>580.8</ele>
        <time>2019-05-11T09:55:45Z</time>
      </trkpt>
      <trkpt lat="39.1885010" lon="-1.4458600">
        <ele>581.0</ele>
        <time>2019-05-11T09:55:46Z</time>
      </trkpt>
      <trkpt lat="39.1884790" lon="-1.4458530">
        <ele>581.0</ele>
        <time>2019-05-11T09:55:47Z</time>
      </trkpt>
      <trkpt lat="39.1884570" lon="-1.4458470">
        <ele>581.2</ele>
        <time>2019-05-11T09:55:48Z</time>
      </trkpt>
      <trkpt lat="39.1884350" lon="-1.4458410">
        <ele>581.4</ele>
        <time>2019-05-11T09:55:49Z</time>
      </trkpt>
      <trkpt lat="39.1884140" lon="-1.4458330">
        <ele>581.4</ele>
        <time>2019-05-11T09:55:50Z</time>
      </trkpt>
      <trkpt lat="39.1883900" lon="-1.4458230">
        <ele>581.6</ele>
        <time>2019-05-11T09:55:51Z</time>
      </trkpt>
      <trkpt lat="39.1883680" lon="-1.4458110">
        <ele>581.6</ele>
        <time>2019-05-11T09:55:52Z</time>
      </trkpt>
      <trkpt lat="39.1883470" lon="-1.4458000">
        <ele>581.8</ele>
        <time>2019-05-11T09:55:53Z</time>
      </trkpt>
      <trkpt lat="39.1883300" lon="-1.4457890">
        <ele>582.0</ele>
        <time>2019-05-11T09:55:54Z</time>
      </trkpt>
      <trkpt lat="39.1883140" lon="-1.4457790">
        <ele>582.2</ele>
        <time>2019-05-11T09:55:55Z</time>
      </trkpt>
      <trkpt lat="39.1882990" lon="-1.4457670">
        <ele>582.2</ele>
        <time>2019-05-11T09:55:56Z</time>
      </trkpt>
      <trkpt lat="39.1882820" lon="-1.4457540">
        <ele>582.4</ele>
        <time>2019-05-11T09:55:57Z</time>
      </trkpt>
      <trkpt lat="39.1882640" lon="-1.4457430">
        <ele>582.8</ele>
        <time>2019-05-11T09:55:58Z</time>
      </trkpt>
      <trkpt lat="39.1882460" lon="-1.4457320">
        <ele>582.8</ele>
        <time>2019-05-11T09:55:59Z</time>
      </trkpt>
      <trkpt lat="39.1882260" lon="-1.4457210">
        <ele>583.0</ele>
        <time>2019-05-11T09:56:00Z</time>
      </trkpt>
      <trkpt lat="39.1882120" lon="-1.4457070">
        <ele>583.4</ele>
        <time>2019-05-11T09:56:01Z</time>
      </trkpt>
      <trkpt lat="39.1881960" lon="-1.4456950">
        <ele>583.6</ele>
        <time>2019-05-11T09:56:02Z</time>
      </trkpt>
      <trkpt lat="39.1881770" lon="-1.4456860">
        <ele>583.8</ele>
        <time>2019-05-11T09:56:03Z</time>
      </trkpt>
      <trkpt lat="39.1881600" lon="-1.4456790">
        <ele>584.0</ele>
        <time>2019-05-11T09:56:04Z</time>
      </trkpt>
      <trkpt lat="39.1881430" lon="-1.4456720">
        <ele>584.0</ele>
        <time>2019-05-11T09:56:05Z</time>
      </trkpt>
      <trkpt lat="39.1881270" lon="-1.4456640">
        <ele>584.2</ele>
        <time>2019-05-11T09:56:06Z</time>
      </trkpt>
      <trkpt lat="39.1881130" lon="-1.4456520">
        <ele>584.4</ele>
        <time>2019-05-11T09:56:07Z</time>
      </trkpt>
      <trkpt lat="39.1880960" lon="-1.4456410">
        <ele>584.8</ele>
        <time>2019-05-11T09:56:08Z</time>
      </trkpt>
      <trkpt lat="39.1880800" lon="-1.4456300">
        <ele>585.0</ele>
        <time>2019-05-11T09:56:09Z</time>
      </trkpt>
      <trkpt lat="39.1880650" lon="-1.4456200">
        <ele>585.2</ele>
        <time>2019-05-11T09:56:10Z</time>
      </trkpt>
      <trkpt lat="39.1880560" lon="-1.4456060">
        <ele>585.4</ele>
        <time>2019-05-11T09:56:11Z</time>
      </trkpt>
      <trkpt lat="39.1880470" lon="-1.4455890">
        <ele>585.6</ele>
        <time>2019-05-11T09:56:12Z</time>
      </trkpt>
      <trkpt lat="39.1880360" lon="-1.4455700">
        <ele>585.8</ele>
        <time>2019-05-11T09:56:13Z</time>
      </trkpt>
      <trkpt lat="39.1880200" lon="-1.4455550">
        <ele>586.2</ele>
        <time>2019-05-11T09:56:14Z</time>
      </trkpt>
      <trkpt lat="39.1880050" lon="-1.4455420">
        <ele>586.4</ele>
        <time>2019-05-11T09:56:15Z</time>
      </trkpt>
      <trkpt lat="39.1879910" lon="-1.4455280">
        <ele>586.6</ele>
        <time>2019-05-11T09:56:16Z</time>
      </trkpt>
      <trkpt lat="39.1879780" lon="-1.4455170">
        <ele>587.0</ele>
        <time>2019-05-11T09:56:17Z</time>
      </trkpt>
      <trkpt lat="39.1879640" lon="-1.4455090">
        <ele>587.4</ele>
        <time>2019-05-11T09:56:18Z</time>
      </trkpt>
      <trkpt lat="39.1879460" lon="-1.4455020">
        <ele>587.6</ele>
        <time>2019-05-11T09:56:19Z</time>
      </trkpt>
      <trkpt lat="39.1879260" lon="-1.4454960">
        <ele>587.8</ele>
        <time>2019-05-11T09:56:20Z</time>
      </trkpt>
      <trkpt lat="39.1879120" lon="-1.4454910">
        <ele>588.0</ele>
        <time>2019-05-11T09:56:21Z</time>
      </trkpt>
      <trkpt lat="39.1878960" lon="-1.4454820">
        <ele>588.2</ele>
        <time>2019-05-11T09:56:22Z</time>
      </trkpt>
      <trkpt lat="39.1878810" lon="-1.4454750">
        <ele>588.4</ele>
        <time>2019-05-11T09:56:23Z</time>
      </trkpt>
      <trkpt lat="39.1878600" lon="-1.4454700">
        <ele>588.8</ele>
        <time>2019-05-11T09:56:24Z</time>
      </trkpt>
      <trkpt lat="39.1878430" lon="-1.4454670">
        <ele>589.0</ele>
        <time>2019-05-11T09:56:25Z</time>
      </trkpt>
      <trkpt lat="39.1878300" lon="-1.4454600">
        <ele>589.2</ele>
        <time>2019-05-11T09:56:26Z</time>
      </trkpt>
      <trkpt lat="39.1878190" lon="-1.4454520">
        <ele>589.4</ele>
        <time>2019-05-11T09:56:27Z</time>
      </trkpt>
      <trkpt lat="39.1878090" lon="-1.4454450">
        <ele>589.6</ele>
        <time>2019-05-11T09:56:28Z</time>
      </trkpt>
      <trkpt lat="39.1878000" lon="-1.4454400">
        <ele>589.8</ele>
        <time>2019-05-11T09:56:29Z</time>
      </trkpt>
      <trkpt lat="39.1877860" lon="-1.4454330">
        <ele>590.0</ele>
        <time>2019-05-11T09:56:30Z</time>
      </trkpt>
      <trkpt lat="39.1877730" lon="-1.4454280">
        <ele>590.4</ele>
        <time>2019-05-11T09:56:31Z</time>
      </trkpt>
      <trkpt lat="39.1877600" lon="-1.4454210">
        <ele>590.6</ele>
        <time>2019-05-11T09:56:32Z</time>
      </trkpt>
      <trkpt lat="39.1877460" lon="-1.4454170">
        <ele>591.0</ele>
        <time>2019-05-11T09:56:33Z</time>
      </trkpt>
      <trkpt lat="39.1877330" lon="-1.4454140">
        <ele>591.2</ele>
        <time>2019-05-11T09:56:34Z</time>
      </trkpt>
      <trkpt lat="39.1877190" lon="-1.4454130">
        <ele>591.6</ele>
        <time>2019-05-11T09:56:35Z</time>
      </trkpt>
      <trkpt lat="39.1877040" lon="-1.4454100">
        <ele>591.8</ele>
        <time>2019-05-11T09:56:36Z</time>
      </trkpt>
      <trkpt lat="39.1876890" lon="-1.4454080">
        <ele>592.0</ele>
        <time>2019-05-11T09:56:37Z</time>
      </trkpt>
      <trkpt lat="39.1876760" lon="-1.4454030">
        <ele>592.0</ele>
        <time>2019-05-11T09:56:38Z</time>
      </trkpt>
      <trkpt lat="39.1876640" lon="-1.4453950">
        <ele>592.2</ele>
        <time>2019-05-11T09:56:39Z</time>
      </trkpt>
      <trkpt lat="39.1876500" lon="-1.4453880">
        <ele>592.4</ele>
        <time>2019-05-11T09:56:40Z</time>
      </trkpt>
      <trkpt lat="39.1876380" lon="-1.4453780">
        <ele>592.6</ele>
        <time>2019-05-11T09:56:41Z</time>
      </trkpt>
      <trkpt lat="39.1876270" lon="-1.4453660">
        <ele>592.8</ele>
        <time>2019-05-11T09:56:42Z</time>
      </trkpt>
      <trkpt lat="39.1876160" lon="-1.4453530">
        <ele>593.2</ele>
        <time>2019-05-11T09:56:43Z</time>
      </trkpt>
      <trkpt lat="39.1876010" lon="-1.4453480">
        <ele>593.2</ele>
        <time>2019-05-11T09:56:44Z</time>
      </trkpt>
      <trkpt lat="39.1875870" lon="-1.4453440">
        <ele>593.4</ele>
        <time>2019-05-11T09:56:45Z</time>
      </trkpt>
      <trkpt lat="39.1875730" lon="-1.4453430">
        <ele>593.8</ele>
        <time>2019-05-11T09:56:46Z</time>
      </trkpt>
      <trkpt lat="39.1875610" lon="-1.4453380">
        <ele>594.0</ele>
        <time>2019-05-11T09:56:47Z</time>
      </trkpt>
      <trkpt lat="39.1875480" lon="-1.4453330">
        <ele>594.0</ele>
        <time>2019-05-11T09:56:48Z</time>
      </trkpt>
      <trkpt lat="39.1875340" lon="-1.4453280">
        <ele>594.2</ele>
        <time>2019-05-11T09:56:49Z</time>
      </trkpt>
      <trkpt lat="39.1875180" lon="-1.4453230">
        <ele>594.4</ele>
        <time>2019-05-11T09:56:50Z</time>
      </trkpt>
      <trkpt lat="39.1875030" lon="-1.4453190">
        <ele>594.6</ele>
        <time>2019-05-11T09:56:51Z</time>
      </trkpt>
      <trkpt lat="39.1874930" lon="-1.4453130">
        <ele>595.0</ele>
        <time>2019-05-11T09:56:52Z</time>
      </trkpt>
      <trkpt lat="39.1874820" lon="-1.4453080">
        <ele>595.2</ele>
        <time>2019-05-11T09:56:53Z</time>
      </trkpt>
      <trkpt lat="39.1874730" lon="-1.4453020">
        <ele>595.4</ele>
        <time>2019-05-11T09:56:54Z</time>
      </trkpt>
      <trkpt lat="39.1874630" lon="-1.4452970">
        <ele>595.6</ele>
        <time>2019-05-11T09:56:55Z</time>
      </trkpt>
      <trkpt lat="39.1874550" lon="-1.4452920">
        <ele>595.8</ele>
        <time>2019-05-11T09:56:56Z</time>
      </trkpt>
      <trkpt lat="39.1874430" lon="-1.4452880">
        <ele>596.0</ele>
        <time>2019-05-11T09:56:57Z</time>
      </trkpt>
      <trkpt lat="39.1874320" lon="-1.4452810">
        <ele>596.4</ele>
        <time>2019-05-11T09:56:58Z</time>
      </trkpt>
      <trkpt lat="39.1874210" lon="-1.4452750">
        <ele>596.6</ele>
        <time>2019-05-11T09:56:59Z</time>
      </trkpt>
      <trkpt lat="39.1874090" lon="-1.4452710">
        <ele>597.0</ele>
        <time>2019-05-11T09:57:00Z</time>
      </trkpt>
      <trkpt lat="39.1873990" lon="-1.4452630">
        <ele>597.2</ele>
        <time>2019-05-11T09:57:01Z</time>
      </trkpt>
      <trkpt lat="39.1873900" lon="-1.4452530">
        <ele>597.6</ele>
        <time>2019-05-11T09:57:02Z</time>
      </trkpt>
      <trkpt lat="39.1873790" lon="-1.4452420">
        <ele>597.8</ele>
        <time>2019-05-11T09:57:03Z</time>
      </trkpt>
      <trkpt lat="39.1873690" lon="-1.4452310">
        <ele>598.0</ele>
        <time>2019-05-11T09:57:04Z</time>
      </trkpt>
      <trkpt lat="39.1873560" lon="-1.4452190">
        <ele>598.0</ele>
        <time>2019-05-11T09:57:05Z</time>
      </trkpt>
      <trkpt lat="39.1873440" lon="-1.4452060">
        <ele>598.4</ele>
        <time>2019-05-11T09:57:06Z</time>
      </trkpt>
      <trkpt lat="39.1873310" lon="-1.4451970">
        <ele>598.6</ele>
        <time>2019-05-11T09:57:07Z</time>
      </trkpt>
      <trkpt lat="39.1873170" lon="-1.4451890">
        <ele>598.8</ele>
        <time>2019-05-11T09:57:08Z</time>
      </trkpt>
      <trkpt lat="39.1873040" lon="-1.4451840">
        <ele>599.0</ele>
        <time>2019-05-11T09:57:09Z</time>
      </trkpt>
      <trkpt lat="39.1872920" lon="-1.4451800">
        <ele>599.6</ele>
        <time>2019-05-11T09:57:10Z</time>
      </trkpt>
      <trkpt lat="39.1872800" lon="-1.4451760">
        <ele>599.8</ele>
        <time>2019-05-11T09:57:11Z</time>
      </trkpt>
      <trkpt lat="39.1872710" lon="-1.4451730">
        <ele>600.0</ele>
        <time>2019-05-11T09:57:12Z</time>
      </trkpt>
      <trkpt lat="39.1872570" lon="-1.4451680">
        <ele>600.2</ele>
        <time>2019-05-11T09:57:13Z</time>
      </trkpt>
      <trkpt lat="39.1872410" lon="-1.4451620">
        <ele>600.6</ele>
        <time>2019-05-11T09:57:14Z</time>
      </trkpt>
      <trkpt lat="39.1872270" lon="-1.4451560">
        <ele>601.0</ele>
        <time>2019-05-11T09:57:15Z</time>
      </trkpt>
      <trkpt lat="39.1872150" lon="-1.4451460">
        <ele>601.2</ele>
        <time>2019-05-11T09:57:16Z</time>
      </trkpt>
      <trkpt lat="39.1872040" lon="-1.4451380">
        <ele>601.4</ele>
        <time>2019-05-11T09:57:17Z</time>
      </trkpt>
      <trkpt lat="39.1871980" lon="-1.4451340">
        <ele>601.6</ele>
        <time>2019-05-11T09:57:18Z</time>
      </trkpt>
      <trkpt lat="39.1871960" lon="-1.4451350">
        <ele>601.8</ele>
        <time>2019-05-11T09:57:19Z</time>
      </trkpt>
      <trkpt lat="39.1871900" lon="-1.4451320">
        <ele>601.8</ele>
        <time>2019-05-11T09:57:20Z</time>
      </trkpt>
      <trkpt lat="39.1871790" lon="-1.4451320">
        <ele>602.0</ele>
        <time>2019-05-11T09:57:21Z</time>
      </trkpt>
      <trkpt lat="39.1871770" lon="-1.4451320">
        <ele>602.2</ele>
        <time>2019-05-11T09:57:22Z</time>
      </trkpt>
      <trkpt lat="39.1871760" lon="-1.4451320">
        <ele>602.4</ele>
        <time>2019-05-11T09:57:23Z</time>
      </trkpt>
      <trkpt lat="39.1871720" lon="-1.4451340">
        <ele>602.6</ele>
        <time>2019-05-11T09:57:24Z</time>
      </trkpt>
      <trkpt lat="39.1871730" lon="-1.4451310">
        <ele>602.8</ele>
        <time>2019-05-11T09:57:25Z</time>
      </trkpt>
      <trkpt lat="39.1871730" lon="-1.4451300">
        <ele>603.0</ele>
        <time>2019-05-11T09:57:26Z</time>
      </trkpt>
      <trkpt lat="39.1871700" lon="-1.4451280">
        <ele>603.0</ele>
        <time>2019-05-11T09:57:27Z</time>
      </trkpt>
      <trkpt lat="39.1871670" lon="-1.4451230">
        <ele>603.2</ele>
        <time>2019-05-11T09:57:28Z</time>
      </trkpt>
      <trkpt lat="39.1871640" lon="-1.4451160">
        <ele>603.2</ele>
        <time>2019-05-11T09:57:29Z</time>
      </trkpt>
      <trkpt lat="39.1871590" lon="-1.4451100">
        <ele>603.4</ele>
        <time>2019-05-11T09:57:30Z</time>
      </trkpt>
      <trkpt lat="39.1871490" lon="-1.4451060">
        <ele>603.4</ele>
        <time>2019-05-11T09:57:31Z</time>
      </trkpt>
      <trkpt lat="39.1871370" lon="-1.4451040">
        <ele>603.4</ele>
        <time>2019-05-11T09:57:32Z</time>
      </trkpt>
      <trkpt lat="39.1871250" lon="-1.4451040">
        <ele>603.4</ele>
        <time>2019-05-11T09:57:33Z</time>
      </trkpt>
      <trkpt lat="39.1871140" lon="-1.4451040">
        <ele>603.4</ele>
        <time>2019-05-11T09:57:34Z</time>
      </trkpt>
      <trkpt lat="39.1871040" lon="-1.4451040">
        <ele>603.6</ele>
        <time>2019-05-11T09:57:35Z</time>
      </trkpt>
      <trkpt lat="39.1870950" lon="-1.4451010">
        <ele>603.6</ele>
        <time>2019-05-11T09:57:36Z</time>
      </trkpt>
      <trkpt lat="39.1870860" lon="-1.4450990">
        <ele>603.6</ele>
        <time>2019-05-11T09:57:37Z</time>
      </trkpt>
      <trkpt lat="39.1870770" lon="-1.4450950">
        <ele>603.8</ele>
        <time>2019-05-11T09:57:38Z</time>
      </trkpt>
      <trkpt lat="39.1870700" lon="-1.4450920">
        <ele>604.0</ele>
        <time>2019-05-11T09:57:39Z</time>
      </trkpt>
      <trkpt lat="39.1870580" lon="-1.4450900">
        <ele>604.2</ele>
        <time>2019-05-11T09:57:40Z</time>
      </trkpt>
      <trkpt lat="39.1870510" lon="-1.4450820">
        <ele>604.4</ele>
        <time>2019-05-11T09:57:41Z</time>
      </trkpt>
      <trkpt lat="39.1870470" lon="-1.4450770">
        <ele>604.6</ele>
        <time>2019-05-11T09:57:42Z</time>
      </trkpt>
      <trkpt lat="39.1870460" lon="-1.4450770">
        <ele>604.8</ele>
        <time>2019-05-11T09:57:43Z</time>
      </trkpt>
      <trkpt lat="39.1870400" lon="-1.4450760">
        <ele>605.0</ele>
        <time>2019-05-11T09:57:44Z</time>
      </trkpt>
      <trkpt lat="39.1870320" lon="-1.4450740">
        <ele>605.2</ele>
        <time>2019-05-11T09:57:45Z</time>
      </trkpt>
      <trkpt lat="39.1870210" lon="-1.4450720">
        <ele>605.4</ele>
        <time>2019-05-11T09:57:46Z</time>
      </trkpt>
      <trkpt lat="39.1870160" lon="-1.4450680">
        <ele>605.6</ele>
        <time>2019-05-11T09:57:47Z</time>
      </trkpt>
      <trkpt lat="39.1870050" lon="-1.4450630">
        <ele>605.8</ele>
        <time>2019-05-11T09:57:48Z</time>
      </trkpt>
      <trkpt lat="39.1869970" lon="-1.4450580">
        <ele>605.8</ele>
        <time>2019-05-11T09:57:49Z</time>
      </trkpt>
      <trkpt lat="39.1869870" lon="-1.4450550">
        <ele>606.0</ele>
        <time>2019-05-11T09:57:50Z</time>
      </trkpt>
      <trkpt lat="39.1869760" lon="-1.4450530">
        <ele>606.2</ele>
        <time>2019-05-11T09:57:51Z</time>
      </trkpt>
      <trkpt lat="39.1869690" lon="-1.4450510">
        <ele>606.4</ele>
        <time>2019-05-11T09:57:52Z</time>
      </trkpt>
      <trkpt lat="39.1869590" lon="-1.4450470">
        <ele>606.6</ele>
        <time>2019-05-11T09:57:53Z</time>
      </trkpt>
      <trkpt lat="39.1869510" lon="-1.4450420">
        <ele>606.6</ele>
        <time>2019-05-11T09:57:54Z</time>
      </trkpt>
      <trkpt lat="39.1869400" lon="-1.4450390">
        <ele>606.8</ele>
        <time>2019-05-11T09:57:55Z</time>
      </trkpt>
      <trkpt lat="39.1869310" lon="-1.4450360">
        <ele>607.0</ele>
        <time>2019-05-11T09:57:56Z</time>
      </trkpt>
      <trkpt lat="39.1869230" lon="-1.4450290">
        <ele>607.2</ele>
        <time>2019-05-11T09:57:57Z</time>
      </trkpt>
      <trkpt lat="39.1869130" lon="-1.4450210">
        <ele>607.2</ele>
        <time>2019-05-11T09:57:58Z</time>
      </trkpt>
      <trkpt lat="39.1869000" lon="-1.4450170">
        <ele>607.4</ele>
        <time>2019-05-11T09:57:59Z</time>
      </trkpt>
      <trkpt lat="39.1868860" lon="-1.4450160">
        <ele>607.6</ele>
        <time>2019-05-11T09:58:00Z</time>
      </trkpt>
      <trkpt lat="39.1868750" lon="-1.4450150">
        <ele>607.8</ele>
        <time>2019-05-11T09:58:01Z</time>
      </trkpt>
      <trkpt lat="39.1868630" lon="-1.4450130">
        <ele>607.8</ele>
        <time>2019-05-11T09:58:02Z</time>
      </trkpt>
      <trkpt lat="39.1868510" lon="-1.4450090">
        <ele>608.0</ele>
        <time>2019-05-11T09:58:03Z</time>
      </trkpt>
      <trkpt lat="39.1868410" lon="-1.4450060">
        <ele>608.2</ele>
        <time>2019-05-11T09:58:04Z</time>
      </trkpt>
      <trkpt lat="39.1868330" lon="-1.4450060">
        <ele>608.6</ele>
        <time>2019-05-11T09:58:05Z</time>
      </trkpt>
      <trkpt lat="39.1868250" lon="-1.4450080">
        <ele>608.6</ele>
        <time>2019-05-11T09:58:06Z</time>
      </trkpt>
      <trkpt lat="39.1868160" lon="-1.4450090">
        <ele>608.8</ele>
        <time>2019-05-11T09:58:07Z</time>
      </trkpt>
      <trkpt lat="39.1868080" lon="-1.4450080">
        <ele>608.8</ele>
        <time>2019-05-11T09:58:08Z</time>
      </trkpt>
      <trkpt lat="39.1868010" lon="-1.4450070">
        <ele>609.0</ele>
        <time>2019-05-11T09:58:09Z</time>
      </trkpt>
      <trkpt lat="39.1867940" lon="-1.4450060">
        <ele>609.0</ele>
        <time>2019-05-11T09:58:10Z</time>
      </trkpt>
      <trkpt lat="39.1867850" lon="-1.4450040">
        <ele>609.2</ele>
        <time>2019-05-11T09:58:11Z</time>
      </trkpt>
      <trkpt lat="39.1867770" lon="-1.4450030">
        <ele>609.2</ele>
        <time>2019-05-11T09:58:12Z</time>
      </trkpt>
      <trkpt lat="39.1867700" lon="-1.4450020">
        <ele>609.4</ele>
        <time>2019-05-11T09:58:13Z</time>
      </trkpt>
      <trkpt lat="39.1867630" lon="-1.4450030">
        <ele>609.4</ele>
        <time>2019-05-11T09:58:14Z</time>
      </trkpt>
      <trkpt lat="39.1867530" lon="-1.4449990">
        <ele>609.6</ele>
        <time>2019-05-11T09:58:15Z</time>
      </trkpt>
      <trkpt lat="39.1867430" lon="-1.4449940">
        <ele>609.6</ele>
        <time>2019-05-11T09:58:16Z</time>
      </trkpt>
      <trkpt lat="39.1867330" lon="-1.4449890">
        <ele>610.0</ele>
        <time>2019-05-11T09:58:17Z</time>
      </trkpt>
      <trkpt lat="39.1867230" lon="-1.4449850">
        <ele>610.2</ele>
        <time>2019-05-11T09:58:18Z</time>
      </trkpt>
      <trkpt lat="39.1867140" lon="-1.4449800">
        <ele>610.6</ele>
        <time>2019-05-11T09:58:19Z</time>
      </trkpt>
      <trkpt lat="39.1867060" lon="-1.4449770">
        <ele>610.8</ele>
        <time>2019-05-11T09:58:20Z</time>
      </trkpt>
      <trkpt lat="39.1866990" lon="-1.4449770">
        <ele>611.0</ele>
        <time>2019-05-11T09:58:21Z</time>
      </trkpt>
      <trkpt lat="39.1866880" lon="-1.4449790">
        <ele>611.2</ele>
        <time>2019-05-11T09:58:22Z</time>
      </trkpt>
      <trkpt lat="39.1866780" lon="-1.4449810">
        <ele>611.2</ele>
        <time>2019-05-11T09:58:23Z</time>
      </trkpt>
      <trkpt lat="39.1866730" lon="-1.4449840">
        <ele>611.4</ele>
        <time>2019-05-11T09:58:24Z</time>
      </trkpt>
      <trkpt lat="39.1866640" lon="-1.4449880">
        <ele>611.4</ele>
        <time>2019-05-11T09:58:25Z</time>
      </trkpt>
      <trkpt lat="39.1866570" lon="-1.4449910">
        <ele>611.6</ele>
        <time>2019-05-11T09:58:26Z</time>
      </trkpt>
      <trkpt lat="39.1866480" lon="-1.4449950">
        <ele>611.6</ele>
        <time>2019-05-11T09:58:27Z</time>
      </trkpt>
      <trkpt lat="39.1866370" lon="-1.4449990">
        <ele>611.6</ele>
        <time>2019-05-11T09:58:28Z</time>
      </trkpt>
      <trkpt lat="39.1866310" lon="-1.4450030">
        <ele>611.8</ele>
        <time>2019-05-11T09:58:29Z</time>
      </trkpt>
      <trkpt lat="39.1866220" lon="-1.4450070">
        <ele>612.0</ele>
        <time>2019-05-11T09:58:30Z</time>
      </trkpt>
      <trkpt lat="39.1866150" lon="-1.4450100">
        <ele>612.0</ele>
        <time>2019-05-11T09:58:31Z</time>
      </trkpt>
      <trkpt lat="39.1866050" lon="-1.4450130">
        <ele>612.2</ele>
        <time>2019-05-11T09:58:32Z</time>
      </trkpt>
      <trkpt lat="39.1865910" lon="-1.4450170">
        <ele>612.6</ele>
        <time>2019-05-11T09:58:33Z</time>
      </trkpt>
      <trkpt lat="39.1865820" lon="-1.4450180">
        <ele>612.8</ele>
        <time>2019-05-11T09:58:34Z</time>
      </trkpt>
      <trkpt lat="39.1865760" lon="-1.4450160">
        <ele>613.0</ele>
        <time>2019-05-11T09:58:35Z</time>
      </trkpt>
      <trkpt lat="39.1865690" lon="-1.4450160">
        <ele>613.2</ele>
        <time>2019-05-11T09:58:36Z</time>
      </trkpt>
      <trkpt lat="39.1865610" lon="-1.4450130">
        <ele>613.4</ele>
        <time>2019-05-11T09:58:37Z</time>
      </trkpt>
      <trkpt lat="39.1865490" lon="-1.4450080">
        <ele>613.6</ele>
        <time>2019-05-11T09:58:38Z</time>
      </trkpt>
      <trkpt lat="39.1865380" lon="-1.4450060">
        <ele>614.0</ele>
        <time>2019-05-11T09:58:39Z</time>
      </trkpt>
      <trkpt lat="39.1865270" lon="-1.4450060">
        <ele>614.2</ele>
        <time>2019-05-11T09:58:40Z</time>
      </trkpt>
      <trkpt lat="39.1865180" lon="-1.4450020">
        <ele>614.4</ele>
        <time>2019-05-11T09:58:41Z</time>
      </trkpt>
      <trkpt lat="39.1865090" lon="-1.4449990">
        <ele>614.6</ele>
        <time>2019-05-11T09:58:42Z</time>
      </trkpt>
      <trkpt lat="39.1864990" lon="-1.4449990">
        <ele>614.8</ele>
        <time>2019-05-11T09:58:43Z</time>
      </trkpt>
      <trkpt lat="39.1864920" lon="-1.4449960">
        <ele>614.8</ele>
        <time>2019-05-11T09:58:44Z</time>
      </trkpt>
      <trkpt lat="39.1864880" lon="-1.4449940">
        <ele>614.8</ele>
        <time>2019-05-11T09:58:45Z</time>
      </trkpt>
      <trkpt lat="39.1864850" lon="-1.4449940">
        <ele>615.0</ele>
        <time>2019-05-11T09:58:46Z</time>
      </trkpt>
      <trkpt lat="39.1864820" lon="-1.4449920">
        <ele>615.2</ele>
        <time>2019-05-11T09:58:47Z</time>
      </trkpt>
      <trkpt lat="39.1864740" lon="-1.4449910">
        <ele>615.2</ele>
        <time>2019-05-11T09:58:48Z</time>
      </trkpt>
      <trkpt lat="39.1864620" lon="-1.4449920">
        <ele>615.4</ele>
        <time>2019-05-11T09:58:49Z</time>
      </trkpt>
      <trkpt lat="39.1864480" lon="-1.4449930">
        <ele>615.6</ele>
        <time>2019-05-11T09:58:50Z</time>
      </trkpt>
      <trkpt lat="39.1864340" lon="-1.4449890">
        <ele>615.8</ele>
        <time>2019-05-11T09:58:51Z</time>
      </trkpt>
      <trkpt lat="39.1864200" lon="-1.4449850">
        <ele>615.8</ele>
        <time>2019-05-11T09:58:52Z</time>
      </trkpt>
      <trkpt lat="39.1864070" lon="-1.4449820">
        <ele>615.8</ele>
        <time>2019-05-11T09:58:53Z</time>
      </trkpt>
      <trkpt lat="39.1863960" lon="-1.4449750">
        <ele>616.0</ele>
        <time>2019-05-11T09:58:54Z</time>
      </trkpt>
      <trkpt lat="39.1863820" lon="-1.4449670">
        <ele>616.0</ele>
        <time>2019-05-11T09:58:55Z</time>
      </trkpt>
      <trkpt lat="39.1863690" lon="-1.4449580">
        <ele>616.2</ele>
        <time>2019-05-11T09:58:56Z</time>
      </trkpt>
      <trkpt lat="39.1863570" lon="-1.4449470">
        <ele>616.2</ele>
        <time>2019-05-11T09:58:57Z</time>
      </trkpt>
      <trkpt lat="39.1863430" lon="-1.4449340">
        <ele>616.4</ele>
        <time>2019-05-11T09:58:58Z</time>
      </trkpt>
      <trkpt lat="39.1863280" lon="-1.4449250">
        <ele>616.6</ele>
        <time>2019-05-11T09:58:59Z</time>
      </trkpt>
      <trkpt lat="39.1863140" lon="-1.4449170">
        <ele>616.8</ele>
        <time>2019-05-11T09:59:00Z</time>
      </trkpt>
      <trkpt lat="39.1862980" lon="-1.4449130">
        <ele>617.2</ele>
        <time>2019-05-11T09:59:01Z</time>
      </trkpt>
      <trkpt lat="39.1862820" lon="-1.4449070">
        <ele>617.4</ele>
        <time>2019-05-11T09:59:02Z</time>
      </trkpt>
      <trkpt lat="39.1862660" lon="-1.4449010">
        <ele>617.8</ele>
        <time>2019-05-11T09:59:03Z</time>
      </trkpt>
      <trkpt lat="39.1862510" lon="-1.4448940">
        <ele>618.0</ele>
        <time>2019-05-11T09:59:04Z</time>
      </trkpt>
      <trkpt lat="39.1862340" lon="-1.4448910">
        <ele>618.2</ele>
        <time>2019-05-11T09:59:05Z</time>
      </trkpt>
      <trkpt lat="39.1862150" lon="-1.4448870">
        <ele>618.4</ele>
        <time>2019-05-11T09:59:06Z</time>
      </trkpt>
      <trkpt lat="39.1861980" lon="-1.4448790">
        <ele>618.6</ele>
        <time>2019-05-11T09:59:07Z</time>
      </trkpt>
      <trkpt lat="39.1861810" lon="-1.4448680">
        <ele>618.8</ele>
        <time>2019-05-11T09:59:08Z</time>
      </trkpt>
      <trkpt lat="39.1861650" lon="-1.4448560">
        <ele>619.0</ele>
        <time>2019-05-11T09:59:09Z</time>
      </trkpt>
      <trkpt lat="39.1861490" lon="-1.4448430">
        <ele>619.2</ele>
        <time>2019-05-11T09:59:10Z</time>
      </trkpt>
      <trkpt lat="39.1861330" lon="-1.4448310">
        <ele>619.4</ele>
        <time>2019-05-11T09:59:11Z</time>
      </trkpt>
      <trkpt lat="39.1861160" lon="-1.4448190">
        <ele>619.8</ele>
        <time>2019-05-11T09:59:12Z</time>
      </trkpt>
      <trkpt lat="39.1860980" lon="-1.4448080">
        <ele>620.0</ele>
        <time>2019-05-11T09:59:13Z</time>
      </trkpt>
      <trkpt lat="39.1860820" lon="-1.4447980">
        <ele>620.2</ele>
        <time>2019-05-11T09:59:14Z</time>
      </trkpt>
      <trkpt lat="39.1860670" lon="-1.4447900">
        <ele>620.4</ele>
        <time>2019-05-11T09:59:15Z</time>
      </trkpt>
      <trkpt lat="39.1860540" lon="-1.4447810">
        <ele>620.6</ele>
        <time>2019-05-11T09:59:16Z</time>
      </trkpt>
      <trkpt lat="39.1860400" lon="-1.4447710">
        <ele>620.8</ele>
        <time>2019-05-11T09:59:17Z</time>
      </trkpt>
      <trkpt lat="39.1860270" lon="-1.4447580">
        <ele>621.0</ele>
        <time>2019-05-11T09:59:18Z</time>
      </trkpt>
      <trkpt lat="39.1860120" lon="-1.4447460">
        <ele>621.2</ele>
        <time>2019-05-11T09:59:19Z</time>
      </trkpt>
      <trkpt lat="39.1859970" lon="-1.4447350">
        <ele>621.2</ele>
        <time>2019-05-11T09:59:20Z</time>
      </trkpt>
      <trkpt lat="39.1859810" lon="-1.4447240">
        <ele>621.2</ele>
        <time>2019-05-11T09:59:21Z</time>
      </trkpt>
      <trkpt lat="39.1859640" lon="-1.4447140">
        <ele>621.4</ele>
        <time>2019-05-11T09:59:22Z</time>
      </trkpt>
      <trkpt lat="39.1859460" lon="-1.4447060">
        <ele>621.6</ele>
        <time>2019-05-11T09:59:23Z</time>
      </trkpt>
      <trkpt lat="39.1859300" lon="-1.4446980">
        <ele>621.8</ele>
        <time>2019-05-11T09:59:24Z</time>
      </trkpt>
      <trkpt lat="39.1859150" lon="-1.4446910">
        <ele>621.8</ele>
        <time>2019-05-11T09:59:25Z</time>
      </trkpt>
      <trkpt lat="39.1859000" lon="-1.4446850">
        <ele>622.0</ele>
        <time>2019-05-11T09:59:26Z</time>
      </trkpt>
      <trkpt lat="39.1858850" lon="-1.4446750">
        <ele>622.4</ele>
        <time>2019-05-11T09:59:27Z</time>
      </trkpt>
      <trkpt lat="39.1858700" lon="-1.4446650">
        <ele>622.6</ele>
        <time>2019-05-11T09:59:28Z</time>
      </trkpt>
      <trkpt lat="39.1858550" lon="-1.4446540">
        <ele>622.8</ele>
        <time>2019-05-11T09:59:29Z</time>
      </trkpt>
      <trkpt lat="39.1858380" lon="-1.4446440">
        <ele>622.8</ele>
        <time>2019-05-11T09:59:30Z</time>
      </trkpt>
      <trkpt lat="39.1858220" lon="-1.4446340">
        <ele>623.0</ele>
        <time>2019-05-11T09:59:31Z</time>
      </trkpt>
      <trkpt lat="39.1858070" lon="-1.4446270">
        <ele>623.0</ele>
        <time>2019-05-11T09:59:32Z</time>
      </trkpt>
      <trkpt lat="39.1857910" lon="-1.4446180">
        <ele>623.0</ele>
        <time>2019-05-11T09:59:33Z</time>
      </trkpt>
      <trkpt lat="39.1857730" lon="-1.4446080">
        <ele>623.2</ele>
        <time>2019-05-11T09:59:34Z</time>
      </trkpt>
      <trkpt lat="39.1857580" lon="-1.4445960">
        <ele>623.2</ele>
        <time>2019-05-11T09:59:35Z</time>
      </trkpt>
      <trkpt lat="39.1857400" lon="-1.4445890">
        <ele>623.4</ele>
        <time>2019-05-11T09:59:36Z</time>
      </trkpt>
      <trkpt lat="39.1857220" lon="-1.4445830">
        <ele>623.4</ele>
        <time>2019-05-11T09:59:37Z</time>
      </trkpt>
      <trkpt lat="39.1857070" lon="-1.4445730">
        <ele>623.6</ele>
        <time>2019-05-11T09:59:38Z</time>
      </trkpt>
      <trkpt lat="39.1856950" lon="-1.4445620">
        <ele>623.8</ele>
        <time>2019-05-11T09:59:39Z</time>
      </trkpt>
      <trkpt lat="39.1856830" lon="-1.4445510">
        <ele>623.8</ele>
        <time>2019-05-11T09:59:40Z</time>
      </trkpt>
      <trkpt lat="39.1856700" lon="-1.4445440">
        <ele>624.0</ele>
        <time>2019-05-11T09:59:41Z</time>
      </trkpt>
      <trkpt lat="39.1856570" lon="-1.4445360">
        <ele>624.0</ele>
        <time>2019-05-11T09:59:42Z</time>
      </trkpt>
      <trkpt lat="39.1856460" lon="-1.4445280">
        <ele>624.2</ele>
        <time>2019-05-11T09:59:43Z</time>
      </trkpt>
      <trkpt lat="39.1856350" lon="-1.4445200">
        <ele>624.4</ele>
        <time>2019-05-11T09:59:44Z</time>
      </trkpt>
      <trkpt lat="39.1856240" lon="-1.4445100">
        <ele>624.6</ele>
        <time>2019-05-11T09:59:45Z</time>
      </trkpt>
      <trkpt lat="39.1856110" lon="-1.4445020">
        <ele>624.8</ele>
        <time>2019-05-11T09:59:46Z</time>
      </trkpt>
      <trkpt lat="39.1855980" lon="-1.4444960">
        <ele>625.0</ele>
        <time>2019-05-11T09:59:47Z</time>
      </trkpt>
      <trkpt lat="39.1855850" lon="-1.4444910">
        <ele>625.2</ele>
        <time>2019-05-11T09:59:48Z</time>
      </trkpt>
      <trkpt lat="39.1855730" lon="-1.4444900">
        <ele>625.4</ele>
        <time>2019-05-11T09:59:49Z</time>
      </trkpt>
      <trkpt lat="39.1855610" lon="-1.4444860">
        <ele>625.6</ele>
        <time>2019-05-11T09:59:50Z</time>
      </trkpt>
      <trkpt lat="39.1855500" lon="-1.4444820">
        <ele>625.8</ele>
        <time>2019-05-11T09:59:51Z</time>
      </trkpt>
      <trkpt lat="39.1855390" lon="-1.4444780">
        <ele>626.0</ele>
        <time>2019-05-11T09:59:52Z</time>
      </trkpt>
      <trkpt lat="39.1855250" lon="-1.4444730">
        <ele>626.2</ele>
        <time>2019-05-11T09:59:53Z</time>
      </trkpt>
      <trkpt lat="39.1855120" lon="-1.4444660">
        <ele>626.6</ele>
        <time>2019-05-11T09:59:54Z</time>
      </trkpt>
      <trkpt lat="39.1855000" lon="-1.4444570">
        <ele>626.8</ele>
        <time>2019-05-11T09:59:55Z</time>
      </trkpt>
      <trkpt lat="39.1854870" lon="-1.4444500">
        <ele>627.0</ele>
        <time>2019-05-11T09:59:56Z</time>
      </trkpt>
      <trkpt lat="39.1854730" lon="-1.4444470">
        <ele>627.2</ele>
        <time>2019-05-11T09:59:57Z</time>
      </trkpt>
      <trkpt lat="39.1854600" lon="-1.4444420">
        <ele>627.6</ele>
        <time>2019-05-11T09:59:58Z</time>
      </trkpt>
      <trkpt lat="39.1854480" lon="-1.4444350">
        <ele>627.8</ele>
        <time>2019-05-11T09:59:59Z</time>
      </trkpt>
      <trkpt lat="39.1854380" lon="-1.4444250">
        <ele>628.0</ele>
        <time>2019-05-11T10:00:00Z</time>
      </trkpt>
      <trkpt lat="39.1854270" lon="-1.4444140">
        <ele>628.2</ele>
        <time>2019-05-11T10:00:01Z</time>
      </trkpt>
      <trkpt lat="39.1854120" lon="-1.4444080">
        <ele>628.4</ele>
        <time>2019-05-11T10:00:02Z</time>
      </trkpt>
      <trkpt lat="39.1853960" lon="-1.4444060">
        <ele>628.8</ele>
        <time>2019-05-11T10:00:03Z</time>
      </trkpt>
      <trkpt lat="39.1853820" lon="-1.4444050">
        <ele>629.0</ele>
        <time>2019-05-11T10:00:04Z</time>
      </trkpt>
      <trkpt lat="39.1853680" lon="-1.4444040">
        <ele>629.2</ele>
        <time>2019-05-11T10:00:05Z</time>
      </trkpt>
      <trkpt lat="39.1853540" lon="-1.4444000">
        <ele>629.4</ele>
        <time>2019-05-11T10:00:06Z</time>
      </trkpt>
      <trkpt lat="39.1853410" lon="-1.4443940">
        <ele>629.8</ele>
        <time>2019-05-11T10:00:07Z</time>
      </trkpt>
      <trkpt lat="39.1853290" lon="-1.4443850">
        <ele>630.0</ele>
        <time>2019-05-11T10:00:08Z</time>
      </trkpt>
      <trkpt lat="39.1853180" lon="-1.4443750">
        <ele>630.2</ele>
        <time>2019-05-11T10:00:09Z</time>
      </trkpt>
      <trkpt lat="39.1853070" lon="-1.4443650">
        <ele>630.4</ele>
        <time>2019-05-11T10:00:10Z</time>
      </trkpt>
      <trkpt lat="39.1852970" lon="-1.4443540">
        <ele>630.6</ele>
        <time>2019-05-11T10:00:11Z</time>
      </trkpt>
      <trkpt lat="39.1852910" lon="-1.4443380">
        <ele>630.8</ele>
        <time>2019-05-11T10:00:12Z</time>
      </trkpt>
      <trkpt lat="39.1852810" lon="-1.4443210">
        <ele>631.0</ele>
        <time>2019-05-11T10:00:13Z</time>
      </trkpt>
      <trkpt lat="39.1852650" lon="-1.4443090">
        <ele>631.2</ele>
        <time>2019-05-11T10:00:14Z</time>
      </trkpt>
      <trkpt lat="39.1852500" lon="-1.4442990">
        <ele>631.6</ele>
        <time>2019-05-11T10:00:15Z</time>
      </trkpt>
      <trkpt lat="39.1852380" lon="-1.4442880">
        <ele>631.8</ele>
        <time>2019-05-11T10:00:16Z</time>
      </trkpt>
      <trkpt lat="39.1852250" lon="-1.4442780">
        <ele>632.0</ele>
        <time>2019-05-11T10:00:17Z</time>
      </trkpt>
      <trkpt lat="39.1852120" lon="-1.4442660">
        <ele>632.2</ele>
        <time>2019-05-11T10:00:18Z</time>
      </trkpt>
      <trkpt lat="39.1851990" lon="-1.4442540">
        <ele>632.2</ele>
        <time>2019-05-11T10:00:19Z</time>
      </trkpt>
      <trkpt lat="39.1851870" lon="-1.4442390">
        <ele>632.4</ele>
        <time>2019-05-11T10:00:20Z</time>
      </trkpt>
      <trkpt lat="39.1851770" lon="-1.4442230">
        <ele>632.4</ele>
        <time>2019-05-11T10:00:21Z</time>
      </trkpt>
      <trkpt lat="39.1851670" lon="-1.4442030">
        <ele>632.4</ele>
        <time>2019-05-11T10:00:22Z</time>
      </trkpt>
      <trkpt lat="39.1851550" lon="-1.4441810">
        <ele>632.4</ele>
        <time>2019-05-11T10:00:23Z</time>
      </trkpt>
      <trkpt lat="39.1851350" lon="-1.4441620">
        <ele>632.6</ele>
        <time>2019-05-11T10:00:24Z</time>
      </trkpt>
      <trkpt lat="39.1851130" lon="-1.4441430">
        <ele>632.6</ele>
        <time>2019-05-11T10:00:25Z</time>
      </trkpt>
      <trkpt lat="39.1850950" lon="-1.4441210">
        <ele>632.6</ele>
        <time>2019-05-11T10:00:26Z</time>
      </trkpt>
      <trkpt lat="39.1850760" lon="-1.4441020">
        <ele>632.6</ele>
        <time>2019-05-11T10:00:27Z</time>
      </trkpt>
      <trkpt lat="39.1850570" lon="-1.4440890">
        <ele>632.6</ele>
        <time>2019-05-11T10:00:28Z</time>
      </trkpt>
      <trkpt lat="39.1850390" lon="-1.4440820">
        <ele>632.6</ele>
        <time>2019-05-11T10:00:29Z</time>
      </trkpt>
      <trkpt lat="39.1850230" lon="-1.4440770">
        <ele>632.8</ele>
        <time>2019-05-11T10:00:30Z</time>
      </trkpt>
      <trkpt lat="39.1850080" lon="-1.4440710">
        <ele>632.8</ele>
        <time>2019-05-11T10:00:31Z</time>
      </trkpt>
      <trkpt lat="39.1849960" lon="-1.4440640">
        <ele>632.8</ele>
        <time>2019-05-11T10:00:32Z</time>
      </trkpt>
      <trkpt lat="39.1849890" lon="-1.4440490">
        <ele>632.8</ele>
        <time>2019-05-11T10:00:33Z</time>
      </trkpt>
      <trkpt lat="39.1849850" lon="-1.4440300">
        <ele>632.8</ele>
        <time>2019-05-11T10:00:34Z</time>
      </trkpt>
      <trkpt lat="39.1849740" lon="-1.4440120">
        <ele>633.0</ele>
        <time>2019-05-11T10:00:35Z</time>
      </trkpt>
      <trkpt lat="39.1849620" lon="-1.4439990">
        <ele>633.0</ele>
        <time>2019-05-11T10:00:36Z</time>
      </trkpt>
      <trkpt lat="39.1849470" lon="-1.4439910">
        <ele>633.4</ele>
        <time>2019-05-11T10:00:37Z</time>
      </trkpt>
      <trkpt lat="39.1849350" lon="-1.4439810">
        <ele>633.8</ele>
        <time>2019-05-11T10:00:38Z</time>
      </trkpt>
      <trkpt lat="39.1849260" lon="-1.4439710">
        <ele>634.4</ele>
        <time>2019-05-11T10:00:39Z</time>
      </trkpt>
      <trkpt lat="39.1849160" lon="-1.4439620">
        <ele>634.6</ele>
        <time>2019-05-11T10:00:40Z</time>
      </trkpt>
      <trkpt lat="39.1849070" lon="-1.4439560">
        <ele>634.8</ele>
        <time>2019-05-11T10:00:41Z</time>
      </trkpt>
      <trkpt lat="39.1848950" lon="-1.4439510">
        <ele>635.0</ele>
        <time>2019-05-11T10:00:42Z</time>
      </trkpt>
      <trkpt lat="39.1848810" lon="-1.4439420">
        <ele>635.0</ele>
        <time>2019-05-11T10:00:43Z</time>
      </trkpt>
      <trkpt lat="39.1848660" lon="-1.4439300">
        <ele>635.2</ele>
        <time>2019-05-11T10:00:44Z</time>
      </trkpt>
      <trkpt lat="39.1848480" lon="-1.4439200">
        <ele>635.4</ele>
        <time>2019-05-11T10:00:45Z</time>
      </trkpt>
      <trkpt lat="39.1848380" lon="-1.4439090">
        <ele>635.8</ele>
        <time>2019-05-11T10:00:46Z</time>
      </trkpt>
      <trkpt lat="39.1848260" lon="-1.4438980">
        <ele>635.8</ele>
        <time>2019-05-11T10:00:47Z</time>
      </trkpt>
      <trkpt lat="39.1848140" lon="-1.4438880">
        <ele>636.0</ele>
        <time>2019-05-11T10:00:48Z</time>
      </trkpt>
      <trkpt lat="39.1848020" lon="-1.4438790">
        <ele>636.2</ele>
        <time>2019-05-11T10:00:49Z</time>
      </trkpt>
      <trkpt lat="39.1847890" lon="-1.4438710">
        <ele>636.4</ele>
        <time>2019-05-11T10:00:50Z</time>
      </trkpt>
      <trkpt lat="39.1847780" lon="-1.4438600">
        <ele>636.8</ele>
        <time>2019-05-11T10:00:51Z</time>
      </trkpt>
      <trkpt lat="39.1847680" lon="-1.4438460">
        <ele>637.2</ele>
        <time>2019-05-11T10:00:52Z</time>
      </trkpt>
      <trkpt lat="39.1847590" lon="-1.4438340">
        <ele>637.4</ele>
        <time>2019-05-11T10:00:53Z</time>
      </trkpt>
      <trkpt lat="39.1847500" lon="-1.4438240">
        <ele>637.6</ele>
        <time>2019-05-11T10:00:54Z</time>
      </trkpt>
      <trkpt lat="39.1847410" lon="-1.4438120">
        <ele>638.0</ele>
        <time>2019-05-11T10:00:55Z</time>
      </trkpt>
      <trkpt lat="39.1847270" lon="-1.4438040">
        <ele>638.2</ele>
        <time>2019-05-11T10:00:56Z</time>
      </trkpt>
      <trkpt lat="39.1847140" lon="-1.4437950">
        <ele>638.4</ele>
        <time>2019-05-11T10:00:57Z</time>
      </trkpt>
      <trkpt lat="39.1847030" lon="-1.4437840">
        <ele>638.8</ele>
        <time>2019-05-11T10:00:58Z</time>
      </trkpt>
      <trkpt lat="39.1846920" lon="-1.4437730">
        <ele>639.0</ele>
        <time>2019-05-11T10:00:59Z</time>
      </trkpt>
      <trkpt lat="39.1846800" lon="-1.4437600">
        <ele>639.4</ele>
        <time>2019-05-11T10:01:00Z</time>
      </trkpt>
      <trkpt lat="39.1846710" lon="-1.4437480">
        <ele>639.6</ele>
        <time>2019-05-11T10:01:01Z</time>
      </trkpt>
      <trkpt lat="39.1846640" lon="-1.4437350">
        <ele>639.8</ele>
        <time>2019-05-11T10:01:02Z</time>
      </trkpt>
      <trkpt lat="39.1846570" lon="-1.4437190">
        <ele>640.0</ele>
        <time>2019-05-11T10:01:03Z</time>
      </trkpt>
      <trkpt lat="39.1846510" lon="-1.4437000">
        <ele>640.4</ele>
        <time>2019-05-11T10:01:04Z</time>
      </trkpt>
      <trkpt lat="39.1846430" lon="-1.4436830">
        <ele>640.8</ele>
        <time>2019-05-11T10:01:05Z</time>
      </trkpt>
      <trkpt lat="39.1846350" lon="-1.4436690">
        <ele>641.0</ele>
        <time>2019-05-11T10:01:06Z</time>
      </trkpt>
      <trkpt lat="39.1846270" lon="-1.4436530">
        <ele>641.4</ele>
        <time>2019-05-11T10:01:07Z</time>
      </trkpt>
      <trkpt lat="39.1846190" lon="-1.4436370">
        <ele>641.8</ele>
        <time>2019-05-11T10:01:08Z</time>
      </trkpt>
      <trkpt lat="39.1846090" lon="-1.4436230">
        <ele>642.2</ele>
        <time>2019-05-11T10:01:09Z</time>
      </trkpt>
      <trkpt lat="39.1846010" lon="-1.4436060">
        <ele>642.4</ele>
        <time>2019-05-11T10:01:10Z</time>
      </trkpt>
      <trkpt lat="39.1845910" lon="-1.4435900">
        <ele>642.6</ele>
        <time>2019-05-11T10:01:11Z</time>
      </trkpt>
      <trkpt lat="39.1845810" lon="-1.4435760">
        <ele>643.0</ele>
        <time>2019-05-11T10:01:12Z</time>
      </trkpt>
      <trkpt lat="39.1845750" lon="-1.4435720">
        <ele>643.2</ele>
        <time>2019-05-11T10:01:13Z</time>
      </trkpt>
      <trkpt lat="39.1845770" lon="-1.4435710">
        <ele>643.6</ele>
        <time>2019-05-11T10:01:14Z</time>
      </trkpt>
      <trkpt lat="39.1845800" lon="-1.4435700">
        <ele>643.8</ele>
        <time>2019-05-11T10:01:15Z</time>
      </trkpt>
      <trkpt lat="39.1845790" lon="-1.4435640">
        <ele>644.0</ele>
        <time>2019-05-11T10:01:16Z</time>
      </trkpt>
      <trkpt lat="39.1845750" lon="-1.4435530">
        <ele>644.4</ele>
        <time>2019-05-11T10:01:17Z</time>
      </trkpt>
      <trkpt lat="39.1845710" lon="-1.4435430">
        <ele>644.8</ele>
        <time>2019-05-11T10:01:18Z</time>
      </trkpt>
      <trkpt lat="39.1845670" lon="-1.4435370">
        <ele>645.0</ele>
        <time>2019-05-11T10:01:19Z</time>
      </trkpt>
      <trkpt lat="39.1845700" lon="-1.4435320">
        <ele>645.2</ele>
        <time>2019-05-11T10:01:20Z</time>
      </trkpt>
      <trkpt lat="39.1845700" lon="-1.4435320">
        <ele>645.4</ele>
        <time>2019-05-11T10:01:21Z</time>
      </trkpt>
      <trkpt lat="39.1845700" lon="-1.4435310">
        <ele>645.4</ele>
        <time>2019-05-11T10:01:22Z</time>
      </trkpt>
      <trkpt lat="39.1845690" lon="-1.4435290">
        <ele>645.6</ele>
        <time>2019-05-11T10:01:23Z</time>
      </trkpt>
      <trkpt lat="39.1845650" lon="-1.4435240">
        <ele>645.6</ele>
        <time>2019-05-11T10:01:24Z</time>
      </trkpt>
      <trkpt lat="39.1845580" lon="-1.4435160">
        <ele>645.8</ele>
        <time>2019-05-11T10:01:25Z</time>
      </trkpt>
      <trkpt lat="39.1845520" lon="-1.4435050">
        <ele>646.0</ele>
        <time>2019-05-11T10:01:26Z</time>
      </trkpt>
      <trkpt lat="39.1845470" lon="-1.4434930">
        <ele>646.0</ele>
        <time>2019-05-11T10:01:27Z</time>
      </trkpt>
      <trkpt lat="39.1845420" lon="-1.4434810">
        <ele>646.0</ele>
        <time>2019-05-11T10:01:28Z</time>
      </trkpt>
      <trkpt lat="39.1845360" lon="-1.4434730">
        <ele>646.0</ele>
        <time>2019-05-11T10:01:29Z</time>
      </trkpt>
      <trkpt lat="39.1845270" lon="-1.4434660">
        <ele>646.2</ele>
        <time>2019-05-11T10:01:30Z</time>
      </trkpt>
      <trkpt lat="39.1845200" lon="-1.4434600">
        <ele>646.2</ele>
        <time>2019-05-11T10:01:31Z</time>
      </trkpt>
      <trkpt lat="39.1845120" lon="-1.4434530">
        <ele>646.2</ele>
        <time>2019-05-11T10:01:32Z</time>
      </trkpt>
      <trkpt lat="39.1845040" lon="-1.4434410">
        <ele>646.2</ele>
        <time>2019-05-11T10:01:33Z</time>
      </trkpt>
      <trkpt lat="39.1844980" lon="-1.4434330">
        <ele>646.4</ele>
        <time>2019-05-11T10:01:34Z</time>
      </trkpt>
      <trkpt lat="39.1844920" lon="-1.4434290">
        <ele>646.4</ele>
        <time>2019-05-11T10:01:35Z</time>
      </trkpt>
      <trkpt lat="39.1844840" lon="-1.4434210">
        <ele>646.8</ele>
        <time>2019-05-11T10:01:36Z</time>
      </trkpt>
      <trkpt lat="39.1844750" lon="-1.4434150">
        <ele>647.0</ele>
        <time>2019-05-11T10:01:37Z</time>
      </trkpt>
      <trkpt lat="39.1844700" lon="-1.4434070">
        <ele>647.2</ele>
        <time>2019-05-11T10:01:38Z</time>
      </trkpt>
      <trkpt lat="39.1844630" lon="-1.4433980">
        <ele>647.4</ele>
        <time>2019-05-11T10:01:39Z</time>
      </trkpt>
      <trkpt lat="39.1844570" lon="-1.4433870">
        <ele>647.6</ele>
        <time>2019-05-11T10:01:40Z</time>
      </trkpt>
      <trkpt lat="39.1844500" lon="-1.4433780">
        <ele>647.8</ele>
        <time>2019-05-11T10:01:41Z</time>
      </trkpt>
      <trkpt lat="39.1844460" lon="-1.4433710">
        <ele>648.0</ele>
        <time>2019-05-11T10:01:42Z</time>
      </trkpt>
      <trkpt lat="39.1844430" lon="-1.4433640">
        <ele>648.0</ele>
        <time>2019-05-11T10:01:43Z</time>
      </trkpt>
      <trkpt lat="39.1844390" lon="-1.4433530">
        <ele>648.4</ele>
        <time>2019-05-11T10:01:44Z</time>
      </trkpt>
      <trkpt lat="39.1844340" lon="-1.4433450">
        <ele>648.4</ele>
        <time>2019-05-11T10:01:45Z</time>
      </trkpt>
      <trkpt lat="39.1844300" lon="-1.4433330">
        <ele>648.8</ele>
        <time>2019-05-11T10:01:46Z</time>
      </trkpt>
      <trkpt lat="39.1844240" lon="-1.4433190">
        <ele>649.0</ele>
        <time>2019-05-11T10:01:47Z</time>
      </trkpt>
      <trkpt lat="39.1844180" lon="-1.4433040">
        <ele>649.2</ele>
        <time>2019-05-11T10:01:48Z</time>
      </trkpt>
      <trkpt lat="39.1844150" lon="-1.4432940">
        <ele>649.4</ele>
        <time>2019-05-11T10:01:49Z</time>
      </trkpt>
      <trkpt lat="39.1844140" lon="-1.4432920">
        <ele>649.6</ele>
        <time>2019-05-11T10:01:50Z</time>
      </trkpt>
      <trkpt lat="39.1844130" lon="-1.4432920">
        <ele>649.8</ele>
        <time>2019-05-11T10:01:51Z</time>
      </trkpt>
      <trkpt lat="39.1844140" lon="-1.4432870">
        <ele>650.0</ele>
        <time>2019-05-11T10:01:52Z</time>
      </trkpt>
      <trkpt lat="39.1844140" lon="-1.4432760">
        <ele>650.2</ele>
        <time>2019-05-11T10:01:53Z</time>
      </trkpt>
      <trkpt lat="39.1844140" lon="-1.4432620">
        <ele>650.4</ele>
        <time>2019-05-11T10:01:54Z</time>
      </trkpt>
      <trkpt lat="39.1844120" lon="-1.4432480">
        <ele>650.6</ele>
        <time>2019-05-11T10:01:55Z</time>
      </trkpt>
      <trkpt lat="39.1844070" lon="-1.4432300">
        <ele>650.6</ele>
        <time>2019-05-11T10:01:56Z</time>
      </trkpt>
      <trkpt lat="39.1844000" lon="-1.4432120">
        <ele>650.8</ele>
        <time>2019-05-11T10:01:57Z</time>
      </trkpt>
      <trkpt lat="39.1843950" lon="-1.4431930">
        <ele>650.8</ele>
        <time>2019-05-11T10:01:58Z</time>
      </trkpt>
      <trkpt lat="39.1843890" lon="-1.4431770">
        <ele>650.8</ele>
        <time>2019-05-11T10:01:59Z</time>
      </trkpt>
      <trkpt lat="39.1843820" lon="-1.4431590">
        <ele>651.0</ele>
        <time>2019-05-11T10:02:00Z</time>
      </trkpt>
      <trkpt lat="39.1843750" lon="-1.4431430">
        <ele>651.0</ele>
        <time>2019-05-11T10:02:01Z</time>
      </trkpt>
      <trkpt lat="39.1843710" lon="-1.4431320">
        <ele>651.2</ele>
        <time>2019-05-11T10:02:02Z</time>
      </trkpt>
      <trkpt lat="39.1843680" lon="-1.4431310">
        <ele>651.2</ele>
        <time>2019-05-11T10:02:03Z</time>
      </trkpt>
      <trkpt lat="39.1843660" lon="-1.4431270">
        <ele>651.2</ele>
        <time>2019-05-11T10:02:04Z</time>
      </trkpt>
      <trkpt lat="39.1843610" lon="-1.4431180">
        <ele>651.4</ele>
        <time>2019-05-11T10:02:05Z</time>
      </trkpt>
      <trkpt lat="39.1843480" lon="-1.4431060">
        <ele>651.6</ele>
        <time>2019-05-11T10:02:06Z</time>
      </trkpt>
      <trkpt lat="39.1843360" lon="-1.4430950">
        <ele>651.6</ele>
        <time>2019-05-11T10:02:07Z</time>
      </trkpt>
      <trkpt lat="39.1843270" lon="-1.4430840">
        <ele>651.8</ele>
        <time>2019-05-11T10:02:08Z</time>
      </trkpt>
      <trkpt lat="39.1843190" lon="-1.4430720">
        <ele>652.0</ele>
        <time>2019-05-11T10:02:09Z</time>
      </trkpt>
      <trkpt lat="39.1843110" lon="-1.4430620">
        <ele>652.4</ele>
        <time>2019-05-11T10:02:10Z</time>
      </trkpt>
      <trkpt lat="39.1843050" lon="-1.4430500">
        <ele>652.4</ele>
        <time>2019-05-11T10:02:11Z</time>
      </trkpt>
      <trkpt lat="39.1843000" lon="-1.4430370">
        <ele>652.6</ele>
        <time>2019-05-11T10:02:12Z</time>
      </trkpt>
      <trkpt lat="39.1842990" lon="-1.4430230">
        <ele>652.8</ele>
        <time>2019-05-11T10:02:13Z</time>
      </trkpt>
      <trkpt lat="39.1843030" lon="-1.4430100">
        <ele>652.8</ele>
        <time>2019-05-11T10:02:14Z</time>
      </trkpt>
      <trkpt lat="39.1843040" lon="-1.4429930">
        <ele>653.0</ele>
        <time>2019-05-11T10:02:15Z</time>
      </trkpt>
      <trkpt lat="39.1843020" lon="-1.4429730">
        <ele>653.2</ele>
        <time>2019-05-11T10:02:16Z</time>
      </trkpt>
      <trkpt lat="39.1842980" lon="-1.4429540">
        <ele>653.4</ele>
        <time>2019-05-11T10:02:17Z</time>
      </trkpt>
      <trkpt lat="39.1842960" lon="-1.4429360">
        <ele>653.6</ele>
        <time>2019-05-11T10:02:18Z</time>
      </trkpt>
      <trkpt lat="39.1842980" lon="-1.4429150">
        <ele>653.8</ele>
        <time>2019-05-11T10:02:19Z</time>
      </trkpt>
      <trkpt lat="39.1842940" lon="-1.4428940">
        <ele>654.0</ele>
        <time>2019-05-11T10:02:20Z</time>
      </trkpt>
      <trkpt lat="39.1842870" lon="-1.4428680">
        <ele>654.2</ele>
        <time>2019-05-11T10:02:21Z</time>
      </trkpt>
      <trkpt lat="39.1842770" lon="-1.4428420">
        <ele>654.2</ele>
        <time>2019-05-11T10:02:22Z</time>
      </trkpt>
      <trkpt lat="39.1842650" lon="-1.4428130">
        <ele>654.2</ele>
        <time>2019-05-11T10:02:23Z</time>
      </trkpt>
      <trkpt lat="39.1842550" lon="-1.4427800">
        <ele>654.2</ele>
        <time>2019-05-11T10:02:24Z</time>
      </trkpt>
      <trkpt lat="39.1842470" lon="-1.4427450">
        <ele>654.2</ele>
        <time>2019-05-11T10:02:25Z</time>
      </trkpt>
      <trkpt lat="39.1842370" lon="-1.4427090">
        <ele>654.2</ele>
        <time>2019-05-11T10:02:26Z</time>
      </trkpt>
      <trkpt lat="39.1842270" lon="-1.4426710">
        <ele>654.2</ele>
        <time>2019-05-11T10:02:27Z</time>
      </trkpt>
      <trkpt lat="39.1842170" lon="-1.4426300">
        <ele>654.2</ele>
        <time>2019-05-11T10:02:28Z</time>
      </trkpt>
      <trkpt lat="39.1842080" lon="-1.4425870">
        <ele>654.2</ele>
        <time>2019-05-11T10:02:29Z</time>
      </trkpt>
      <trkpt lat="39.1841940" lon="-1.4425470">
        <ele>654.2</ele>
        <time>2019-05-11T10:02:30Z</time>
      </trkpt>
      <trkpt lat="39.1841840" lon="-1.4425030">
        <ele>654.2</ele>
        <time>2019-05-11T10:02:31Z</time>
      </trkpt>
      <trkpt lat="39.1841710" lon="-1.4424600">
        <ele>654.2</ele>
        <time>2019-05-11T10:02:32Z</time>
      </trkpt>
      <trkpt lat="39.1841590" lon="-1.4424170">
        <ele>654.2</ele>
        <time>2019-05-11T10:02:33Z</time>
      </trkpt>
      <trkpt lat="39.1841490" lon="-1.4423730">
        <ele>654.2</ele>
        <time>2019-05-11T10:02:34Z</time>
      </trkpt>
      <trkpt lat="39.1841400" lon="-1.4423270">
        <ele>654.2</ele>
        <time>2019-05-11T10:02:35Z</time>
      </trkpt>
      <trkpt lat="39.1841310" lon="-1.4422820">
        <ele>654.2</ele>
        <time>2019-05-11T10:02:36Z</time>
      </trkpt>
      <trkpt lat="39.1841230" lon="-1.4422380">
        <ele>654.2</ele>
        <time>2019-05-11T10:02:37Z</time>
      </trkpt>
      <trkpt lat="39.1841150" lon="-1.4421910">
        <ele>654.2</ele>
        <time>2019-05-11T10:02:38Z</time>
      </trkpt>
      <trkpt lat="39.1841090" lon="-1.4421420">
        <ele>654.2</ele>
        <time>2019-05-11T10:02:39Z</time>
      </trkpt>
      <trkpt lat="39.1841070" lon="-1.4420900">
        <ele>654.2</ele>
        <time>2019-05-11T10:02:40Z</time>
      </trkpt>
      <trkpt lat="39.1841010" lon="-1.4420420">
        <ele>654.2</ele>
        <time>2019-05-11T10:02:41Z</time>
      </trkpt>
      <trkpt lat="39.1840920" lon="-1.4419970">
        <ele>654.2</ele>
        <time>2019-05-11T10:02:42Z</time>
      </trkpt>
      <trkpt lat="39.1840810" lon="-1.4419570">
        <ele>654.2</ele>
        <time>2019-05-11T10:02:43Z</time>
      </trkpt>
      <trkpt lat="39.1840700" lon="-1.4419230">
        <ele>654.2</ele>
        <time>2019-05-11T10:02:44Z</time>
      </trkpt>
      <trkpt lat="39.1840630" lon="-1.4418900">
        <ele>654.4</ele>
        <time>2019-05-11T10:02:45Z</time>
      </trkpt>
      <trkpt lat="39.1840530" lon="-1.4418550">
        <ele>654.4</ele>
        <time>2019-05-11T10:02:46Z</time>
      </trkpt>
      <trkpt lat="39.1840410" lon="-1.4418190">
        <ele>654.4</ele>
        <time>2019-05-11T10:02:47Z</time>
      </trkpt>
      <trkpt lat="39.1840260" lon="-1.4417810">
        <ele>654.4</ele>
        <time>2019-05-11T10:02:48Z</time>
      </trkpt>
      <trkpt lat="39.1840140" lon="-1.4417390">
        <ele>654.4</ele>
        <time>2019-05-11T10:02:49Z</time>
      </trkpt>
      <trkpt lat="39.1840010" lon="-1.4416930">
        <ele>654.4</ele>
        <time>2019-05-11T10:02:50Z</time>
      </trkpt>
      <trkpt lat="39.1839840" lon="-1.4416460">
        <ele>654.6</ele>
        <time>2019-05-11T10:02:51Z</time>
      </trkpt>
      <trkpt lat="39.1839680" lon="-1.4416010">
        <ele>654.8</ele>
        <time>2019-05-11T10:02:52Z</time>
      </trkpt>
      <trkpt lat="39.1839540" lon="-1.4415540">
        <ele>655.0</ele>
        <time>2019-05-11T10:02:53Z</time>
      </trkpt>
      <trkpt lat="39.1839460" lon="-1.4415030">
        <ele>655.0</ele>
        <time>2019-05-11T10:02:54Z</time>
      </trkpt>
      <trkpt lat="39.1839450" lon="-1.4414470">
        <ele>655.2</ele>
        <time>2019-05-11T10:02:55Z</time>
      </trkpt>
      <trkpt lat="39.1839430" lon="-1.4413920">
        <ele>655.2</ele>
        <time>2019-05-11T10:02:56Z</time>
      </trkpt>
      <trkpt lat="39.1839400" lon="-1.4413420">
        <ele>655.2</ele>
        <time>2019-05-11T10:02:57Z</time>
      </trkpt>
      <trkpt lat="39.1839400" lon="-1.4412990">
        <ele>655.2</ele>
        <time>2019-05-11T10:02:58Z</time>
      </trkpt>
      <trkpt lat="39.1839420" lon="-1.4412570">
        <ele>655.2</ele>
        <time>2019-05-11T10:02:59Z</time>
      </trkpt>
      <trkpt lat="39.1839410" lon="-1.4412150">
        <ele>655.2</ele>
        <time>2019-05-11T10:03:00Z</time>
      </trkpt>
      <trkpt lat="39.1839370" lon="-1.4411710">
        <ele>655.2</ele>
        <time>2019-05-11T10:03:01Z</time>
      </trkpt>
      <trkpt lat="39.1839290" lon="-1.4411290">
        <ele>655.2</ele>
        <time>2019-05-11T10:03:02Z</time>
      </trkpt>
      <trkpt lat="39.1839150" lon="-1.4410910">
        <ele>655.0</ele>
        <time>2019-05-11T10:03:03Z</time>
      </trkpt>
      <trkpt lat="39.1839010" lon="-1.4410510">
        <ele>655.0</ele>
        <time>2019-05-11T10:03:04Z</time>
      </trkpt>
      <trkpt lat="39.1838850" lon="-1.4410130">
        <ele>655.0</ele>
        <time>2019-05-11T10:03:05Z</time>
      </trkpt>
      <trkpt lat="39.1838690" lon="-1.4409750">
        <ele>655.0</ele>
        <time>2019-05-11T10:03:06Z</time>
      </trkpt>
      <trkpt lat="39.1838560" lon="-1.4409370">
        <ele>655.0</ele>
        <time>2019-05-11T10:03:07Z</time>
      </trkpt>
      <trkpt lat="39.1838480" lon="-1.4408960">
        <ele>654.8</ele>
        <time>2019-05-11T10:03:08Z</time>
      </trkpt>
      <trkpt lat="39.1838430" lon="-1.4408540">
        <ele>654.8</ele>
        <time>2019-05-11T10:03:09Z</time>
      </trkpt>
      <trkpt lat="39.1838380" lon="-1.4408160">
        <ele>654.8</ele>
        <time>2019-05-11T10:03:10Z</time>
      </trkpt>
      <trkpt lat="39.1838300" lon="-1.4407830">
        <ele>654.8</ele>
        <time>2019-05-11T10:03:11Z</time>
      </trkpt>
      <trkpt lat="39.1838220" lon="-1.4407530">
        <ele>654.8</ele>
        <time>2019-05-11T10:03:12Z</time>
      </trkpt>
      <trkpt lat="39.1838180" lon="-1.4407210">
        <ele>654.8</ele>
        <time>2019-05-11T10:03:13Z</time>
      </trkpt>
      <trkpt lat="39.1838180" lon="-1.4406910">
        <ele>655.0</ele>
        <time>2019-05-11T10:03:14Z</time>
      </trkpt>
      <trkpt lat="39.1838200" lon="-1.4406580">
        <ele>655.0</ele>
        <time>2019-05-11T10:03:15Z</time>
      </trkpt>
      <trkpt lat="39.1838210" lon="-1.4406240">
        <ele>655.0</ele>
        <time>2019-05-11T10:03:16Z</time>
      </trkpt>
      <trkpt lat="39.1838200" lon="-1.4405890">
        <ele>655.0</ele>
        <time>2019-05-11T10:03:17Z</time>
      </trkpt>
      <trkpt lat="39.1838180" lon="-1.4405530">
        <ele>655.0</ele>
        <time>2019-05-11T10:03:18Z</time>
      </trkpt>
      <trkpt lat="39.1838140" lon="-1.4405230">
        <ele>655.0</ele>
        <time>2019-05-11T10:03:19Z</time>
      </trkpt>
      <trkpt lat="39.1838130" lon="-1.4404900">
        <ele>655.2</ele>
        <time>2019-05-11T10:03:20Z</time>
      </trkpt>
      <trkpt lat="39.1838150" lon="-1.4404510">
        <ele>655.4</ele>
        <time>2019-05-11T10:03:21Z</time>
      </trkpt>
      <trkpt lat="39.1838150" lon="-1.4404100">
        <ele>655.4</ele>
        <time>2019-05-11T10:03:22Z</time>
      </trkpt>
      <trkpt lat="39.1838150" lon="-1.4403710">
        <ele>655.6</ele>
        <time>2019-05-11T10:03:23Z</time>
      </trkpt>
      <trkpt lat="39.1838110" lon="-1.4403320">
        <ele>655.6</ele>
        <time>2019-05-11T10:03:24Z</time>
      </trkpt>
      <trkpt lat="39.1838050" lon="-1.4402880">
        <ele>655.8</ele>
        <time>2019-05-11T10:03:25Z</time>
      </trkpt>
      <trkpt lat="39.1837980" lon="-1.4402390">
        <ele>656.2</ele>
        <time>2019-05-11T10:03:26Z</time>
      </trkpt>
      <trkpt lat="39.1837940" lon="-1.4401860">
        <ele>656.4</ele>
        <time>2019-05-11T10:03:27Z</time>
      </trkpt>
      <trkpt lat="39.1837930" lon="-1.4401260">
        <ele>656.6</ele>
        <time>2019-05-11T10:03:28Z</time>
      </trkpt>
      <trkpt lat="39.1837930" lon="-1.4400660">
        <ele>656.6</ele>
        <time>2019-05-11T10:03:29Z</time>
      </trkpt>
      <trkpt lat="39.1837870" lon="-1.4400070">
        <ele>656.6</ele>
        <time>2019-05-11T10:03:30Z</time>
      </trkpt>
      <trkpt lat="39.1837780" lon="-1.4399560">
        <ele>656.8</ele>
        <time>2019-05-11T10:03:31Z</time>
      </trkpt>
      <trkpt lat="39.1837690" lon="-1.4399110">
        <ele>656.8</ele>
        <time>2019-05-11T10:03:32Z</time>
      </trkpt>
      <trkpt lat="39.1837620" lon="-1.4398620">
        <ele>656.8</ele>
        <time>2019-05-11T10:03:33Z</time>
      </trkpt>
      <trkpt lat="39.1837560" lon="-1.4398140">
        <ele>656.8</ele>
        <time>2019-05-11T10:03:34Z</time>
      </trkpt>
      <trkpt lat="39.1837470" lon="-1.4397710">
        <ele>656.8</ele>
        <time>2019-05-11T10:03:35Z</time>
      </trkpt>
      <trkpt lat="39.1837400" lon="-1.4397300">
        <ele>656.8</ele>
        <time>2019-05-11T10:03:36Z</time>
      </trkpt>
      <trkpt lat="39.1837340" lon="-1.4396880">
        <ele>656.8</ele>
        <time>2019-05-11T10:03:37Z</time>
      </trkpt>
      <trkpt lat="39.1837250" lon="-1.4396470">
        <ele>656.8</ele>
        <time>2019-05-11T10:03:38Z</time>
      </trkpt>
      <trkpt lat="39.1837140" lon="-1.4396070">
        <ele>657.0</ele>
        <time>2019-05-11T10:03:39Z</time>
      </trkpt>
      <trkpt lat="39.1837000" lon="-1.4395680">
        <ele>657.0</ele>
        <time>2019-05-11T10:03:40Z</time>
      </trkpt>
      <trkpt lat="39.1836850" lon="-1.4395280">
        <ele>657.0</ele>
        <time>2019-05-11T10:03:41Z</time>
      </trkpt>
      <trkpt lat="39.1836680" lon="-1.4394870">
        <ele>657.0</ele>
        <time>2019-05-11T10:03:42Z</time>
      </trkpt>
      <trkpt lat="39.1836480" lon="-1.4394450">
        <ele>657.0</ele>
        <time>2019-05-11T10:03:43Z</time>
      </trkpt>
      <trkpt lat="39.1836250" lon="-1.4394010">
        <ele>657.0</ele>
        <time>2019-05-11T10:03:44Z</time>
      </trkpt>
      <trkpt lat="39.1836000" lon="-1.4393560">
        <ele>657.2</ele>
        <time>2019-05-11T10:03:45Z</time>
      </trkpt>
      <trkpt lat="39.1835720" lon="-1.4393060">
        <ele>657.2</ele>
        <time>2019-05-11T10:03:46Z</time>
      </trkpt>
      <trkpt lat="39.1835420" lon="-1.4392540">
        <ele>657.2</ele>
        <time>2019-05-11T10:03:47Z</time>
      </trkpt>
      <trkpt lat="39.1835110" lon="-1.4392030">
        <ele>657.2</ele>
        <time>2019-05-11T10:03:48Z</time>
      </trkpt>
      <trkpt lat="39.1834800" lon="-1.4391540">
        <ele>657.4</ele>
        <time>2019-05-11T10:03:49Z</time>
      </trkpt>
      <trkpt lat="39.1834470" lon="-1.4391050">
        <ele>657.4</ele>
        <time>2019-05-11T10:03:50Z</time>
      </trkpt>
      <trkpt lat="39.1834140" lon="-1.4390560">
        <ele>657.6</ele>
        <time>2019-05-11T10:03:51Z</time>
      </trkpt>
      <trkpt lat="39.1833840" lon="-1.4390080">
        <ele>657.6</ele>
        <time>2019-05-11T10:03:52Z</time>
      </trkpt>
      <trkpt lat="39.1833570" lon="-1.4389610">
        <ele>657.8</ele>
        <time>2019-05-11T10:03:53Z</time>
      </trkpt>
      <trkpt lat="39.1833330" lon="-1.4389160">
        <ele>657.8</ele>
        <time>2019-05-11T10:03:54Z</time>
      </trkpt>
      <trkpt lat="39.1833090" lon="-1.4388710">
        <ele>657.8</ele>
        <time>2019-05-11T10:03:55Z</time>
      </trkpt>
      <trkpt lat="39.1832810" lon="-1.4388310">
        <ele>657.8</ele>
        <time>2019-05-11T10:03:56Z</time>
      </trkpt>
      <trkpt lat="39.1832490" lon="-1.4387900">
        <ele>657.8</ele>
        <time>2019-05-11T10:03:57Z</time>
      </trkpt>
      <trkpt lat="39.1832120" lon="-1.4387520">
        <ele>658.0</ele>
        <time>2019-05-11T10:03:58Z</time>
      </trkpt>
      <trkpt lat="39.1831740" lon="-1.4387150">
        <ele>658.2</ele>
        <time>2019-05-11T10:03:59Z</time>
      </trkpt>
      <trkpt lat="39.1831340" lon="-1.4386830">
        <ele>658.4</ele>
        <time>2019-05-11T10:04:00Z</time>
      </trkpt>
      <trkpt lat="39.1830960" lon="-1.4386540">
        <ele>658.6</ele>
        <time>2019-05-11T10:04:01Z</time>
      </trkpt>
      <trkpt lat="39.1830590" lon="-1.4386220">
        <ele>658.8</ele>
        <time>2019-05-11T10:04:02Z</time>
      </trkpt>
      <trkpt lat="39.1830240" lon="-1.4385890">
        <ele>658.8</ele>
        <time>2019-05-11T10:04:03Z</time>
      </trkpt>
      <trkpt lat="39.1829880" lon="-1.4385570">
        <ele>658.8</ele>
        <time>2019-05-11T10:04:04Z</time>
      </trkpt>
      <trkpt lat="39.1829490" lon="-1.4385260">
        <ele>659.0</ele>
        <time>2019-05-11T10:04:05Z</time>
      </trkpt>
      <trkpt lat="39.1829050" lon="-1.4384990">
        <ele>659.0</ele>
        <time>2019-05-11T10:04:06Z</time>
      </trkpt>
      <trkpt lat="39.1828600" lon="-1.4384740">
        <ele>659.0</ele>
        <time>2019-05-11T10:04:07Z</time>
      </trkpt>
      <trkpt lat="39.1828190" lon="-1.4384420">
        <ele>659.2</ele>
        <time>2019-05-11T10:04:08Z</time>
      </trkpt>
      <trkpt lat="39.1827830" lon="-1.4384000">
        <ele>659.2</ele>
        <time>2019-05-11T10:04:09Z</time>
      </trkpt>
      <trkpt lat="39.1827520" lon="-1.4383520">
        <ele>659.4</ele>
        <time>2019-05-11T10:04:10Z</time>
      </trkpt>
      <trkpt lat="39.1827270" lon="-1.4383000">
        <ele>659.4</ele>
        <time>2019-05-11T10:04:11Z</time>
      </trkpt>
      <trkpt lat="39.1827080" lon="-1.4382460">
        <ele>659.4</ele>
        <time>2019-05-11T10:04:12Z</time>
      </trkpt>
      <trkpt lat="39.1826980" lon="-1.4381950">
        <ele>659.4</ele>
        <time>2019-05-11T10:04:13Z</time>
      </trkpt>
      <trkpt lat="39.1826910" lon="-1.4381390">
        <ele>659.4</ele>
        <time>2019-05-11T10:04:14Z</time>
      </trkpt>
      <trkpt lat="39.1826840" lon="-1.4380850">
        <ele>659.6</ele>
        <time>2019-05-11T10:04:15Z</time>
      </trkpt>
      <trkpt lat="39.1826790" lon="-1.4380340">
        <ele>659.6</ele>
        <time>2019-05-11T10:04:16Z</time>
      </trkpt>
      <trkpt lat="39.1826790" lon="-1.4379780">
        <ele>659.6</ele>
        <time>2019-05-11T10:04:17Z</time>
      </trkpt>
      <trkpt lat="39.1826800" lon="-1.4379200">
        <ele>659.8</ele>
        <time>2019-05-11T10:04:18Z</time>
      </trkpt>
      <trkpt lat="39.1826780" lon="-1.4378610">
        <ele>659.8</ele>
        <time>2019-05-11T10:04:19Z</time>
      </trkpt>
      <trkpt lat="39.1826650" lon="-1.4378070">
        <ele>660.0</ele>
        <time>2019-05-11T10:04:20Z</time>
      </trkpt>
      <trkpt lat="39.1826450" lon="-1.4377570">
        <ele>660.0</ele>
        <time>2019-05-11T10:04:21Z</time>
      </trkpt>
      <trkpt lat="39.1826180" lon="-1.4377100">
        <ele>660.0</ele>
        <time>2019-05-11T10:04:22Z</time>
      </trkpt>
      <trkpt lat="39.1825820" lon="-1.4376690">
        <ele>660.0</ele>
        <time>2019-05-11T10:04:23Z</time>
      </trkpt>
      <trkpt lat="39.1825370" lon="-1.4376320">
        <ele>660.0</ele>
        <time>2019-05-11T10:04:24Z</time>
      </trkpt>
      <trkpt lat="39.1824880" lon="-1.4375980">
        <ele>660.2</ele>
        <time>2019-05-11T10:04:25Z</time>
      </trkpt>
      <trkpt lat="39.1824360" lon="-1.4375670">
        <ele>660.2</ele>
        <time>2019-05-11T10:04:26Z</time>
      </trkpt>
      <trkpt lat="39.1823860" lon="-1.4375360">
        <ele>660.4</ele>
        <time>2019-05-11T10:04:27Z</time>
      </trkpt>
      <trkpt lat="39.1823400" lon="-1.4375020">
        <ele>660.4</ele>
        <time>2019-05-11T10:04:28Z</time>
      </trkpt>
      <trkpt lat="39.1823020" lon="-1.4374640">
        <ele>660.4</ele>
        <time>2019-05-11T10:04:29Z</time>
      </trkpt>
      <trkpt lat="39.1822650" lon="-1.4374240">
        <ele>660.4</ele>
        <time>2019-05-11T10:04:30Z</time>
      </trkpt>
      <trkpt lat="39.1822270" lon="-1.4373850">
        <ele>660.4</ele>
        <time>2019-05-11T10:04:31Z</time>
      </trkpt>
      <trkpt lat="39.1821980" lon="-1.4373370">
        <ele>660.4</ele>
        <time>2019-05-11T10:04:32Z</time>
      </trkpt>
      <trkpt lat="39.1821870" lon="-1.4372810">
        <ele>660.4</ele>
        <time>2019-05-11T10:04:33Z</time>
      </trkpt>
      <trkpt lat="39.1821950" lon="-1.4372300">
        <ele>660.4</ele>
        <time>2019-05-11T10:04:34Z</time>
      </trkpt>
      <trkpt lat="39.1822220" lon="-1.4371900">
        <ele>660.0</ele>
        <time>2019-05-11T10:04:35Z</time>
      </trkpt>
      <trkpt lat="39.1822590" lon="-1.4371600">
        <ele>659.8</ele>
        <time>2019-05-11T10:04:36Z</time>
      </trkpt>
      <trkpt lat="39.1823000" lon="-1.4371420">
        <ele>659.4</ele>
        <time>2019-05-11T10:04:37Z</time>
      </trkpt>
      <trkpt lat="39.1823390" lon="-1.4371300">
        <ele>659.2</ele>
        <time>2019-05-11T10:04:38Z</time>
      </trkpt>
      <trkpt lat="39.1823750" lon="-1.4371210">
        <ele>659.0</ele>
        <time>2019-05-11T10:04:39Z</time>
      </trkpt>
      <trkpt lat="39.1824080" lon="-1.4371110">
        <ele>659.0</ele>
        <time>2019-05-11T10:04:40Z</time>
      </trkpt>
      <trkpt lat="39.1824370" lon="-1.4370990">
        <ele>659.0</ele>
        <time>2019-05-11T10:04:41Z</time>
      </trkpt>
      <trkpt lat="39.1824660" lon="-1.4370870">
        <ele>659.0</ele>
        <time>2019-05-11T10:04:42Z</time>
      </trkpt>
      <trkpt lat="39.1824950" lon="-1.4370730">
        <ele>659.0</ele>
        <time>2019-05-11T10:04:43Z</time>
      </trkpt>
      <trkpt lat="39.1825250" lon="-1.4370600">
        <ele>659.0</ele>
        <time>2019-05-11T10:04:44Z</time>
      </trkpt>
      <trkpt lat="39.1825570" lon="-1.4370480">
        <ele>659.0</ele>
        <time>2019-05-11T10:04:45Z</time>
      </trkpt>
      <trkpt lat="39.1825890" lon="-1.4370380">
        <ele>659.0</ele>
        <time>2019-05-11T10:04:46Z</time>
      </trkpt>
      <trkpt lat="39.1826210" lon="-1.4370240">
        <ele>659.4</ele>
        <time>2019-05-11T10:04:47Z</time>
      </trkpt>
      <trkpt lat="39.1826530" lon="-1.4370070">
        <ele>659.6</ele>
        <time>2019-05-11T10:04:48Z</time>
      </trkpt>
      <trkpt lat="39.1826840" lon="-1.4369860">
        <ele>659.8</ele>
        <time>2019-05-11T10:04:49Z</time>
      </trkpt>
      <trkpt lat="39.1827130" lon="-1.4369630">
        <ele>660.2</ele>
        <time>2019-05-11T10:04:50Z</time>
      </trkpt>
      <trkpt lat="39.1827370" lon="-1.4369320">
        <ele>660.6</ele>
        <time>2019-05-11T10:04:51Z</time>
      </trkpt>
      <trkpt lat="39.1827540" lon="-1.4368950">
        <ele>660.8</ele>
        <time>2019-05-11T10:04:52Z</time>
      </trkpt>
      <trkpt lat="39.1827660" lon="-1.4368580">
        <ele>660.8</ele>
        <time>2019-05-11T10:04:53Z</time>
      </trkpt>
      <trkpt lat="39.1827770" lon="-1.4368200">
        <ele>661.0</ele>
        <time>2019-05-11T10:04:54Z</time>
      </trkpt>
      <trkpt lat="39.1827890" lon="-1.4367790">
        <ele>661.0</ele>
        <time>2019-05-11T10:04:55Z</time>
      </trkpt>
      <trkpt lat="39.1828020" lon="-1.4367370">
        <ele>661.0</ele>
        <time>2019-05-11T10:04:56Z</time>
      </trkpt>
      <trkpt lat="39.1828170" lon="-1.4366950">
        <ele>661.0</ele>
        <time>2019-05-11T10:04:57Z</time>
      </trkpt>
      <trkpt lat="39.1828350" lon="-1.4366530">
        <ele>661.2</ele>
        <time>2019-05-11T10:04:58Z</time>
      </trkpt>
      <trkpt lat="39.1828550" lon="-1.4366120">
        <ele>661.4</ele>
        <time>2019-05-11T10:04:59Z</time>
      </trkpt>
      <trkpt lat="39.1828770" lon="-1.4365710">
        <ele>661.6</ele>
        <time>2019-05-11T10:05:00Z</time>
      </trkpt>
      <trkpt lat="39.1829000" lon="-1.4365300">
        <ele>661.8</ele>
        <time>2019-05-11T10:05:01Z</time>
      </trkpt>
      <trkpt lat="39.1829220" lon="-1.4364900">
        <ele>662.0</ele>
        <time>2019-05-11T10:05:02Z</time>
      </trkpt>
      <trkpt lat="39.1829430" lon="-1.4364480">
        <ele>662.2</ele>
        <time>2019-05-11T10:05:03Z</time>
      </trkpt>
      <trkpt lat="39.1829590" lon="-1.4363990">
        <ele>662.4</ele>
        <time>2019-05-11T10:05:04Z</time>
      </trkpt>
      <trkpt lat="39.1829680" lon="-1.4363430">
        <ele>662.4</ele>
        <time>2019-05-11T10:05:05Z</time>
      </trkpt>
      <trkpt lat="39.1829730" lon="-1.4362870">
        <ele>662.4</ele>
        <time>2019-05-11T10:05:06Z</time>
      </trkpt>
      <trkpt lat="39.1829810" lon="-1.4362310">
        <ele>662.4</ele>
        <time>2019-05-11T10:05:07Z</time>
      </trkpt>
      <trkpt lat="39.1829910" lon="-1.4361740">
        <ele>662.4</ele>
        <time>2019-05-11T10:05:08Z</time>
      </trkpt>
      <trkpt lat="39.1830060" lon="-1.4361210">
        <ele>662.6</ele>
        <time>2019-05-11T10:05:09Z</time>
      </trkpt>
      <trkpt lat="39.1830250" lon="-1.4360730">
        <ele>662.6</ele>
        <time>2019-05-11T10:05:10Z</time>
      </trkpt>
      <trkpt lat="39.1830460" lon="-1.4360260">
        <ele>662.6</ele>
        <time>2019-05-11T10:05:11Z</time>
      </trkpt>
      <trkpt lat="39.1830670" lon="-1.4359800">
        <ele>662.6</ele>
        <time>2019-05-11T10:05:12Z</time>
      </trkpt>
      <trkpt lat="39.1830910" lon="-1.4359350">
        <ele>662.6</ele>
        <time>2019-05-11T10:05:13Z</time>
      </trkpt>
      <trkpt lat="39.1831160" lon="-1.4358890">
        <ele>662.6</ele>
        <time>2019-05-11T10:05:14Z</time>
      </trkpt>
      <trkpt lat="39.1831420" lon="-1.4358420">
        <ele>662.6</ele>
        <time>2019-05-11T10:05:15Z</time>
      </trkpt>
      <trkpt lat="39.1831690" lon="-1.4357950">
        <ele>662.8</ele>
        <time>2019-05-11T10:05:16Z</time>
      </trkpt>
      <trkpt lat="39.1831960" lon="-1.4357500">
        <ele>662.8</ele>
        <time>2019-05-11T10:05:17Z</time>
      </trkpt>
      <trkpt lat="39.1832230" lon="-1.4357060">
        <ele>662.8</ele>
        <time>2019-05-11T10:05:18Z</time>
      </trkpt>
      <trkpt lat="39.1832510" lon="-1.4356630">
        <ele>662.8</ele>
        <time>2019-05-11T10:05:19Z</time>
      </trkpt>
      <trkpt lat="39.1832790" lon="-1.4356220">
        <ele>662.8</ele>
        <time>2019-05-11T10:05:20Z</time>
      </trkpt>
      <trkpt lat="39.1833050" lon="-1.4355840">
        <ele>662.8</ele>
        <time>2019-05-11T10:05:21Z</time>
      </trkpt>
      <trkpt lat="39.1833290" lon="-1.4355480">
        <ele>662.8</ele>
        <time>2019-05-11T10:05:22Z</time>
      </trkpt>
      <trkpt lat="39.1833490" lon="-1.4355120">
        <ele>663.0</ele>
        <time>2019-05-11T10:05:23Z</time>
      </trkpt>
      <trkpt lat="39.1833700" lon="-1.4354770">
        <ele>663.0</ele>
        <time>2019-05-11T10:05:24Z</time>
      </trkpt>
      <trkpt lat="39.1833900" lon="-1.4354430">
        <ele>663.2</ele>
        <time>2019-05-11T10:05:25Z</time>
      </trkpt>
      <trkpt lat="39.1834100" lon="-1.4354080">
        <ele>663.2</ele>
        <time>2019-05-11T10:05:26Z</time>
      </trkpt>
      <trkpt lat="39.1834310" lon="-1.4353730">
        <ele>663.2</ele>
        <time>2019-05-11T10:05:27Z</time>
      </trkpt>
      <trkpt lat="39.1834520" lon="-1.4353390">
        <ele>663.2</ele>
        <time>2019-05-11T10:05:28Z</time>
      </trkpt>
      <trkpt lat="39.1834720" lon="-1.4353060">
        <ele>663.6</ele>
        <time>2019-05-11T10:05:29Z</time>
      </trkpt>
      <trkpt lat="39.1834930" lon="-1.4352730">
        <ele>664.0</ele>
        <time>2019-05-11T10:05:30Z</time>
      </trkpt>
      <trkpt lat="39.1835120" lon="-1.4352400">
        <ele>664.2</ele>
        <time>2019-05-11T10:05:31Z</time>
      </trkpt>
      <trkpt lat="39.1835300" lon="-1.4352060">
        <ele>664.6</ele>
        <time>2019-05-11T10:05:32Z</time>
      </trkpt>
      <trkpt lat="39.1835470" lon="-1.4351750">
        <ele>664.8</ele>
        <time>2019-05-11T10:05:33Z</time>
      </trkpt>
      <trkpt lat="39.1835650" lon="-1.4351430">
        <ele>665.0</ele>
        <time>2019-05-11T10:05:34Z</time>
      </trkpt>
      <trkpt lat="39.1835830" lon="-1.4351100">
        <ele>665.2</ele>
        <time>2019-05-11T10:05:35Z</time>
      </trkpt>
      <trkpt lat="39.1836000" lon="-1.4350770">
        <ele>665.2</ele>
        <time>2019-05-11T10:05:36Z</time>
      </trkpt>
      <trkpt lat="39.1836180" lon="-1.4350440">
        <ele>665.4</ele>
        <time>2019-05-11T10:05:37Z</time>
      </trkpt>
      <trkpt lat="39.1836370" lon="-1.4350110">
        <ele>665.6</ele>
        <time>2019-05-11T10:05:38Z</time>
      </trkpt>
      <trkpt lat="39.1836550" lon="-1.4349780">
        <ele>666.0</ele>
        <time>2019-05-11T10:05:39Z</time>
      </trkpt>
      <trkpt lat="39.1836710" lon="-1.4349440">
        <ele>666.4</ele>
        <time>2019-05-11T10:05:40Z</time>
      </trkpt>
      <trkpt lat="39.1836870" lon="-1.4349100">
        <ele>666.4</ele>
        <time>2019-05-11T10:05:41Z</time>
      </trkpt>
      <trkpt lat="39.1837020" lon="-1.4348750">
        <ele>666.6</ele>
        <time>2019-05-11T10:05:42Z</time>
      </trkpt>
      <trkpt lat="39.1837170" lon="-1.4348410">
        <ele>666.8</ele>
        <time>2019-05-11T10:05:43Z</time>
      </trkpt>
      <trkpt lat="39.1837320" lon="-1.4348080">
        <ele>667.2</ele>
        <time>2019-05-11T10:05:44Z</time>
      </trkpt>
      <trkpt lat="39.1837470" lon="-1.4347740">
        <ele>667.4</ele>
        <time>2019-05-11T10:05:45Z</time>
      </trkpt>
      <trkpt lat="39.1837620" lon="-1.4347400">
        <ele>667.6</ele>
        <time>2019-05-11T10:05:46Z</time>
      </trkpt>
      <trkpt lat="39.1837740" lon="-1.4347060">
        <ele>667.8</ele>
        <time>2019-05-11T10:05:47Z</time>
      </trkpt>
      <trkpt lat="39.1837850" lon="-1.4346710">
        <ele>668.0</ele>
        <time>2019-05-11T10:05:48Z</time>
      </trkpt>
      <trkpt lat="39.1837980" lon="-1.4346360">
        <ele>668.2</ele>
        <time>2019-05-11T10:05:49Z</time>
      </trkpt>
      <trkpt lat="39.1838110" lon="-1.4346020">
        <ele>668.6</ele>
        <time>2019-05-11T10:05:50Z</time>
      </trkpt>
      <trkpt lat="39.1838230" lon="-1.4345680">
        <ele>668.8</ele>
        <time>2019-05-11T10:05:51Z</time>
      </trkpt>
      <trkpt lat="39.1838360" lon="-1.4345350">
        <ele>669.0</ele>
        <time>2019-05-11T10:05:52Z</time>
      </trkpt>
      <trkpt lat="39.1838480" lon="-1.4345020">
        <ele>669.2</ele>
        <time>2019-05-11T10:05:53Z</time>
      </trkpt>
      <trkpt lat="39.1838600" lon="-1.4344700">
        <ele>669.4</ele>
        <time>2019-05-11T10:05:54Z</time>
      </trkpt>
      <trkpt lat="39.1838720" lon="-1.4344380">
        <ele>669.6</ele>
        <time>2019-05-11T10:05:55Z</time>
      </trkpt>
      <trkpt lat="39.1838840" lon="-1.4344060">
        <ele>669.8</ele>
        <time>2019-05-11T10:05:56Z</time>
      </trkpt>
      <trkpt lat="39.1838960" lon="-1.4343750">
        <ele>670.0</ele>
        <time>2019-05-11T10:05:57Z</time>
      </trkpt>
      <trkpt lat="39.1839060" lon="-1.4343440">
        <ele>670.2</ele>
        <time>2019-05-11T10:05:58Z</time>
      </trkpt>
      <trkpt lat="39.1839140" lon="-1.4343130">
        <ele>670.4</ele>
        <time>2019-05-11T10:05:59Z</time>
      </trkpt>
      <trkpt lat="39.1839230" lon="-1.4342820">
        <ele>670.6</ele>
        <time>2019-05-11T10:06:00Z</time>
      </trkpt>
      <trkpt lat="39.1839320" lon="-1.4342520">
        <ele>671.0</ele>
        <time>2019-05-11T10:06:01Z</time>
      </trkpt>
      <trkpt lat="39.1839420" lon="-1.4342200">
        <ele>671.2</ele>
        <time>2019-05-11T10:06:02Z</time>
      </trkpt>
      <trkpt lat="39.1839510" lon="-1.4341870">
        <ele>671.4</ele>
        <time>2019-05-11T10:06:03Z</time>
      </trkpt>
      <trkpt lat="39.1839580" lon="-1.4341530">
        <ele>671.6</ele>
        <time>2019-05-11T10:06:04Z</time>
      </trkpt>
      <trkpt lat="39.1839670" lon="-1.4341170">
        <ele>671.8</ele>
        <time>2019-05-11T10:06:05Z</time>
      </trkpt>
      <trkpt lat="39.1839770" lon="-1.4340790">
        <ele>672.0</ele>
        <time>2019-05-11T10:06:06Z</time>
      </trkpt>
      <trkpt lat="39.1839900" lon="-1.4340390">
        <ele>672.4</ele>
        <time>2019-05-11T10:06:07Z</time>
      </trkpt>
      <trkpt lat="39.1840060" lon="-1.4340020">
        <ele>672.4</ele>
        <time>2019-05-11T10:06:08Z</time>
      </trkpt>
      <trkpt lat="39.1840250" lon="-1.4339680">
        <ele>672.6</ele>
        <time>2019-05-11T10:06:09Z</time>
      </trkpt>
      <trkpt lat="39.1840490" lon="-1.4339420">
        <ele>672.8</ele>
        <time>2019-05-11T10:06:10Z</time>
      </trkpt>
      <trkpt lat="39.1840740" lon="-1.4339180">
        <ele>673.0</ele>
        <time>2019-05-11T10:06:11Z</time>
      </trkpt>
      <trkpt lat="39.1841000" lon="-1.4338940">
        <ele>673.4</ele>
        <time>2019-05-11T10:06:12Z</time>
      </trkpt>
      <trkpt lat="39.1841260" lon="-1.4338700">
        <ele>673.6</ele>
        <time>2019-05-11T10:06:13Z</time>
      </trkpt>
      <trkpt lat="39.1841500" lon="-1.4338450">
        <ele>673.8</ele>
        <time>2019-05-11T10:06:14Z</time>
      </trkpt>
      <trkpt lat="39.1841750" lon="-1.4338200">
        <ele>674.2</ele>
        <time>2019-05-11T10:06:15Z</time>
      </trkpt>
      <trkpt lat="39.1842010" lon="-1.4337960">
        <ele>674.8</ele>
        <time>2019-05-11T10:06:16Z</time>
      </trkpt>
      <trkpt lat="39.1842280" lon="-1.4337730">
        <ele>675.2</ele>
        <time>2019-05-11T10:06:17Z</time>
      </trkpt>
      <trkpt lat="39.1842550" lon="-1.4337510">
        <ele>675.4</ele>
        <time>2019-05-11T10:06:18Z</time>
      </trkpt>
      <trkpt lat="39.1842820" lon="-1.4337280">
        <ele>675.6</ele>
        <time>2019-05-11T10:06:19Z</time>
      </trkpt>
      <trkpt lat="39.1843090" lon="-1.4337040">
        <ele>675.8</ele>
        <time>2019-05-11T10:06:20Z</time>
      </trkpt>
      <trkpt lat="39.1843350" lon="-1.4336790">
        <ele>676.0</ele>
        <time>2019-05-11T10:06:21Z</time>
      </trkpt>
      <trkpt lat="39.1843600" lon="-1.4336510">
        <ele>676.2</ele>
        <time>2019-05-11T10:06:22Z</time>
      </trkpt>
      <trkpt lat="39.1843870" lon="-1.4336240">
        <ele>676.6</ele>
        <time>2019-05-11T10:06:23Z</time>
      </trkpt>
      <trkpt lat="39.1844140" lon="-1.4335960">
        <ele>676.8</ele>
        <time>2019-05-11T10:06:24Z</time>
      </trkpt>
      <trkpt lat="39.1844420" lon="-1.4335660">
        <ele>677.2</ele>
        <time>2019-05-11T10:06:25Z</time>
      </trkpt>
      <trkpt lat="39.1844690" lon="-1.4335350">
        <ele>677.4</ele>
        <time>2019-05-11T10:06:26Z</time>
      </trkpt>
      <trkpt lat="39.1844960" lon="-1.4335010">
        <ele>677.6</ele>
        <time>2019-05-11T10:06:27Z</time>
      </trkpt>
      <trkpt lat="39.1845230" lon="-1.4334660">
        <ele>677.8</ele>
        <time>2019-05-11T10:06:28Z</time>
      </trkpt>
      <trkpt lat="39.1845490" lon="-1.4334280">
        <ele>677.8</ele>
        <time>2019-05-11T10:06:29Z</time>
      </trkpt>
      <trkpt lat="39.1845740" lon="-1.4333890">
        <ele>678.0</ele>
        <time>2019-05-11T10:06:30Z</time>
      </trkpt>
      <trkpt lat="39.1846010" lon="-1.4333490">
        <ele>678.0</ele>
        <time>2019-05-11T10:06:31Z</time>
      </trkpt>
      <trkpt lat="39.1846280" lon="-1.4333090">
        <ele>678.0</ele>
        <time>2019-05-11T10:06:32Z</time>
      </trkpt>
      <trkpt lat="39.1846580" lon="-1.4332710">
        <ele>678.0</ele>
        <time>2019-05-11T10:06:33Z</time>
      </trkpt>
      <trkpt lat="39.1846900" lon="-1.4332350">
        <ele>678.2</ele>
        <time>2019-05-11T10:06:34Z</time>
      </trkpt>
      <trkpt lat="39.1847220" lon="-1.4331980">
        <ele>678.2</ele>
        <time>2019-05-11T10:06:35Z</time>
      </trkpt>
      <trkpt lat="39.1847520" lon="-1.4331590">
        <ele>678.4</ele>
        <time>2019-05-11T10:06:36Z</time>
      </trkpt>
      <trkpt lat="39.1847820" lon="-1.4331200">
        <ele>678.6</ele>
        <time>2019-05-11T10:06:37Z</time>
      </trkpt>
      <trkpt lat="39.1848140" lon="-1.4330820">
        <ele>678.6</ele>
        <time>2019-05-11T10:06:38Z</time>
      </trkpt>
      <trkpt lat="39.1848460" lon="-1.4330440">
        <ele>678.8</ele>
        <time>2019-05-11T10:06:39Z</time>
      </trkpt>
      <trkpt lat="39.1848770" lon="-1.4330020">
        <ele>678.8</ele>
        <time>2019-05-11T10:06:40Z</time>
      </trkpt>
      <trkpt lat="39.1849060" lon="-1.4329580">
        <ele>678.8</ele>
        <time>2019-05-11T10:06:41Z</time>
      </trkpt>
      <trkpt lat="39.1849330" lon="-1.4329100">
        <ele>678.8</ele>
        <time>2019-05-11T10:06:42Z</time>
      </trkpt>
      <trkpt lat="39.1849580" lon="-1.4328590">
        <ele>678.8</ele>
        <time>2019-05-11T10:06:43Z</time>
      </trkpt>
      <trkpt lat="39.1849810" lon="-1.4328080">
        <ele>679.0</ele>
        <time>2019-05-11T10:06:44Z</time>
      </trkpt>
      <trkpt lat="39.1850000" lon="-1.4327540">
        <ele>679.0</ele>
        <time>2019-05-11T10:06:45Z</time>
      </trkpt>
      <trkpt lat="39.1850190" lon="-1.4326980">
        <ele>679.2</ele>
        <time>2019-05-11T10:06:46Z</time>
      </trkpt>
      <trkpt lat="39.1850370" lon="-1.4326390">
        <ele>679.2</ele>
        <time>2019-05-11T10:06:47Z</time>
      </trkpt>
      <trkpt lat="39.1850530" lon="-1.4325770">
        <ele>679.2</ele>
        <time>2019-05-11T10:06:48Z</time>
      </trkpt>
      <trkpt lat="39.1850690" lon="-1.4325150">
        <ele>679.2</ele>
        <time>2019-05-11T10:06:49Z</time>
      </trkpt>
      <trkpt lat="39.1850830" lon="-1.4324520">
        <ele>679.4</ele>
        <time>2019-05-11T10:06:50Z</time>
      </trkpt>
      <trkpt lat="39.1850970" lon="-1.4323890">
        <ele>679.4</ele>
        <time>2019-05-11T10:06:51Z</time>
      </trkpt>
      <trkpt lat="39.1851120" lon="-1.4323260">
        <ele>679.4</ele>
        <time>2019-05-11T10:06:52Z</time>
      </trkpt>
      <trkpt lat="39.1851260" lon="-1.4322620">
        <ele>679.6</ele>
        <time>2019-05-11T10:06:53Z</time>
      </trkpt>
      <trkpt lat="39.1851420" lon="-1.4322000">
        <ele>679.6</ele>
        <time>2019-05-11T10:06:54Z</time>
      </trkpt>
      <trkpt lat="39.1851620" lon="-1.4321380">
        <ele>679.6</ele>
        <time>2019-05-11T10:06:55Z</time>
      </trkpt>
      <trkpt lat="39.1851840" lon="-1.4320780">
        <ele>679.6</ele>
        <time>2019-05-11T10:06:56Z</time>
      </trkpt>
      <trkpt lat="39.1852080" lon="-1.4320190">
        <ele>679.6</ele>
        <time>2019-05-11T10:06:57Z</time>
      </trkpt>
      <trkpt lat="39.1852290" lon="-1.4319590">
        <ele>679.6</ele>
        <time>2019-05-11T10:06:58Z</time>
      </trkpt>
      <trkpt lat="39.1852480" lon="-1.4318980">
        <ele>679.8</ele>
        <time>2019-05-11T10:06:59Z</time>
      </trkpt>
      <trkpt lat="39.1852650" lon="-1.4318380">
        <ele>679.8</ele>
        <time>2019-05-11T10:07:00Z</time>
      </trkpt>
      <trkpt lat="39.1852810" lon="-1.4317800">
        <ele>679.8</ele>
        <time>2019-05-11T10:07:01Z</time>
      </trkpt>
      <trkpt lat="39.1852920" lon="-1.4317220">
        <ele>679.8</ele>
        <time>2019-05-11T10:07:02Z</time>
      </trkpt>
      <trkpt lat="39.1852990" lon="-1.4316650">
        <ele>679.8</ele>
        <time>2019-05-11T10:07:03Z</time>
      </trkpt>
      <trkpt lat="39.1853060" lon="-1.4316110">
        <ele>679.8</ele>
        <time>2019-05-11T10:07:04Z</time>
      </trkpt>
      <trkpt lat="39.1853160" lon="-1.4315590">
        <ele>679.8</ele>
        <time>2019-05-11T10:07:05Z</time>
      </trkpt>
      <trkpt lat="39.1853240" lon="-1.4315100">
        <ele>679.8</ele>
        <time>2019-05-11T10:07:06Z</time>
      </trkpt>
      <trkpt lat="39.1853330" lon="-1.4314650">
        <ele>680.0</ele>
        <time>2019-05-11T10:07:07Z</time>
      </trkpt>
      <trkpt lat="39.1853430" lon="-1.4314220">
        <ele>680.0</ele>
        <time>2019-05-11T10:07:08Z</time>
      </trkpt>
      <trkpt lat="39.1853570" lon="-1.4313830">
        <ele>680.0</ele>
        <time>2019-05-11T10:07:09Z</time>
      </trkpt>
      <trkpt lat="39.1853710" lon="-1.4313470">
        <ele>680.0</ele>
        <time>2019-05-11T10:07:10Z</time>
      </trkpt>
      <trkpt lat="39.1853840" lon="-1.4313130">
        <ele>680.0</ele>
        <time>2019-05-11T10:07:11Z</time>
      </trkpt>
      <trkpt lat="39.1853960" lon="-1.4312820">
        <ele>680.0</ele>
        <time>2019-05-11T10:07:12Z</time>
      </trkpt>
      <trkpt lat="39.1854050" lon="-1.4312570">
        <ele>680.0</ele>
        <time>2019-05-11T10:07:13Z</time>
      </trkpt>
      <trkpt lat="39.1854090" lon="-1.4312460">
        <ele>680.0</ele>
        <time>2019-05-11T10:07:14Z</time>
      </trkpt>
      <trkpt lat="39.1854090" lon="-1.4312450">
        <ele>680.2</ele>
        <time>2019-05-11T10:07:15Z</time>
      </trkpt>
      <trkpt lat="39.1854090" lon="-1.4312450">
        <ele>680.2</ele>
        <time>2019-05-11T10:07:16Z</time>
      </trkpt>
      <trkpt lat="39.1854100" lon="-1.4312460">
        <ele>680.2</ele>
        <time>2019-05-11T10:07:17Z</time>
      </trkpt>
      <trkpt lat="39.1854090" lon="-1.4312470">
        <ele>680.2</ele>
        <time>2019-05-11T10:07:18Z</time>
      </trkpt>
      <trkpt lat="39.1854090" lon="-1.4312470">
        <ele>680.2</ele>
        <time>2019-05-11T10:07:19Z</time>
      </trkpt>
      <trkpt lat="39.1854090" lon="-1.4312470">
        <ele>680.2</ele>
        <time>2019-05-11T10:07:20Z</time>
      </trkpt>
      <trkpt lat="39.1854090" lon="-1.4312470">
        <ele>680.2</ele>
        <time>2019-05-11T10:07:21Z</time>
      </trkpt>
      <trkpt lat="39.1854090" lon="-1.4312470">
        <ele>680.2</ele>
        <time>2019-05-11T10:07:22Z</time>
      </trkpt>
      <trkpt lat="39.1854090" lon="-1.4312470">
        <ele>680.2</ele>
        <time>2019-05-11T10:07:23Z</time>
      </trkpt>
      <trkpt lat="39.1854090" lon="-1.4312470">
        <ele>680.2</ele>
        <time>2019-05-11T10:07:24Z</time>
      </trkpt>
      <trkpt lat="39.1854090" lon="-1.4312470">
        <ele>680.2</ele>
        <time>2019-05-11T10:07:25Z</time>
      </trkpt>
      <trkpt lat="39.1854090" lon="-1.4312470">
        <ele>680.2</ele>
        <time>2019-05-11T10:07:26Z</time>
      </trkpt>
      <trkpt lat="39.1854090" lon="-1.4312470">
        <ele>680.2</ele>
        <time>2019-05-11T10:07:27Z</time>
      </trkpt>
      <trkpt lat="39.1854090" lon="-1.4312470">
        <ele>680.2</ele>
        <time>2019-05-11T10:07:28Z</time>
      </trkpt>
      <trkpt lat="39.1854090" lon="-1.4312470">
        <ele>680.2</ele>
        <time>2019-05-11T10:07:29Z</time>
      </trkpt>
      <trkpt lat="39.1854090" lon="-1.4312470">
        <ele>680.2</ele>
        <time>2019-05-11T10:07:30Z</time>
      </trkpt>
      <trkpt lat="39.1854090" lon="-1.4312470">
        <ele>680.2</ele>
        <time>2019-05-11T10:07:31Z</time>
      </trkpt>
      <trkpt lat="39.1854090" lon="-1.4312470">
        <ele>680.2</ele>
        <time>2019-05-11T10:07:32Z</time>
      </trkpt>
      <trkpt lat="39.1854090" lon="-1.4312470">
        <ele>680.2</ele>
        <time>2019-05-11T10:07:33Z</time>
      </trkpt>
      <trkpt lat="39.1854140" lon="-1.4312440">
        <ele>680.2</ele>
        <time>2019-05-11T10:07:34Z</time>
      </trkpt>
      <trkpt lat="39.1854250" lon="-1.4312360">
        <ele>680.2</ele>
        <time>2019-05-11T10:07:35Z</time>
      </trkpt>
      <trkpt lat="39.1854380" lon="-1.4312200">
        <ele>680.2</ele>
        <time>2019-05-11T10:07:36Z</time>
      </trkpt>
      <trkpt lat="39.1854500" lon="-1.4311970">
        <ele>680.2</ele>
        <time>2019-05-11T10:07:37Z</time>
      </trkpt>
      <trkpt lat="39.1854640" lon="-1.4311690">
        <ele>680.2</ele>
        <time>2019-05-11T10:07:38Z</time>
      </trkpt>
      <trkpt lat="39.1854790" lon="-1.4311390">
        <ele>680.2</ele>
        <time>2019-05-11T10:07:39Z</time>
      </trkpt>
      <trkpt lat="39.1854980" lon="-1.4311080">
        <ele>680.2</ele>
        <time>2019-05-11T10:07:40Z</time>
      </trkpt>
      <trkpt lat="39.1855170" lon="-1.4310720">
        <ele>680.2</ele>
        <time>2019-05-11T10:07:41Z</time>
      </trkpt>
      <trkpt lat="39.1855350" lon="-1.4310320">
        <ele>680.2</ele>
        <time>2019-05-11T10:07:42Z</time>
      </trkpt>
      <trkpt lat="39.1855520" lon="-1.4309910">
        <ele>680.2</ele>
        <time>2019-05-11T10:07:43Z</time>
      </trkpt>
      <trkpt lat="39.1855690" lon="-1.4309510">
        <ele>680.2</ele>
        <time>2019-05-11T10:07:44Z</time>
      </trkpt>
      <trkpt lat="39.1855880" lon="-1.4309120">
        <ele>680.2</ele>
        <time>2019-05-11T10:07:45Z</time>
      </trkpt>
      <trkpt lat="39.1856050" lon="-1.4308730">
        <ele>680.2</ele>
        <time>2019-05-11T10:07:46Z</time>
      </trkpt>
      <trkpt lat="39.1856230" lon="-1.4308340">
        <ele>680.2</ele>
        <time>2019-05-11T10:07:47Z</time>
      </trkpt>
      <trkpt lat="39.1856380" lon="-1.4307940">
        <ele>680.2</ele>
        <time>2019-05-11T10:07:48Z</time>
      </trkpt>
      <trkpt lat="39.1856510" lon="-1.4307520">
        <ele>680.2</ele>
        <time>2019-05-11T10:07:49Z</time>
      </trkpt>
      <trkpt lat="39.1856700" lon="-1.4307140">
        <ele>680.2</ele>
        <time>2019-05-11T10:07:50Z</time>
      </trkpt>
      <trkpt lat="39.1856960" lon="-1.4306830">
        <ele>680.2</ele>
        <time>2019-05-11T10:07:51Z</time>
      </trkpt>
      <trkpt lat="39.1857290" lon="-1.4306670">
        <ele>680.2</ele>
        <time>2019-05-11T10:07:52Z</time>
      </trkpt>
      <trkpt lat="39.1857730" lon="-1.4306680">
        <ele>680.2</ele>
        <time>2019-05-11T10:07:53Z</time>
      </trkpt>
      <trkpt lat="39.1858260" lon="-1.4306750">
        <ele>680.0</ele>
        <time>2019-05-11T10:07:54Z</time>
      </trkpt>
      <trkpt lat="39.1858780" lon="-1.4306860">
        <ele>680.0</ele>
        <time>2019-05-11T10:07:55Z</time>
      </trkpt>
      <trkpt lat="39.1859200" lon="-1.4307160">
        <ele>680.0</ele>
        <time>2019-05-11T10:07:56Z</time>
      </trkpt>
      <trkpt lat="39.1859470" lon="-1.4307760">
        <ele>680.0</ele>
        <time>2019-05-11T10:07:57Z</time>
      </trkpt>
      <trkpt lat="39.1859600" lon="-1.4308580">
        <ele>680.0</ele>
        <time>2019-05-11T10:07:58Z</time>
      </trkpt>
      <trkpt lat="39.1859690" lon="-1.4309480">
        <ele>680.0</ele>
        <time>2019-05-11T10:07:59Z</time>
      </trkpt>
      <trkpt lat="39.1859870" lon="-1.4310380">
        <ele>680.0</ele>
        <time>2019-05-11T10:08:00Z</time>
      </trkpt>
      <trkpt lat="39.1860130" lon="-1.4311170">
        <ele>679.8</ele>
        <time>2019-05-11T10:08:01Z</time>
      </trkpt>
      <trkpt lat="39.1860340" lon="-1.4311800">
        <ele>679.2</ele>
        <time>2019-05-11T10:08:02Z</time>
      </trkpt>
      <trkpt lat="39.1860490" lon="-1.4312270">
        <ele>678.4</ele>
        <time>2019-05-11T10:08:03Z</time>
      </trkpt>
      <trkpt lat="39.1860560" lon="-1.4312560">
        <ele>677.6</ele>
        <time>2019-05-11T10:08:04Z</time>
      </trkpt>
      <trkpt lat="39.1860600" lon="-1.4312750">
        <ele>676.8</ele>
        <time>2019-05-11T10:08:05Z</time>
      </trkpt>
      <trkpt lat="39.1860680" lon="-1.4312900">
        <ele>676.0</ele>
        <time>2019-05-11T10:08:06Z</time>
      </trkpt>
      <trkpt lat="39.1860780" lon="-1.4312990">
        <ele>675.4</ele>
        <time>2019-05-11T10:08:07Z</time>
      </trkpt>
      <trkpt lat="39.1860870" lon="-1.4313010">
        <ele>674.4</ele>
        <time>2019-05-11T10:08:08Z</time>
      </trkpt>
      <trkpt lat="39.1860900" lon="-1.4312990">
        <ele>673.8</ele>
        <time>2019-05-11T10:08:09Z</time>
      </trkpt>
      <trkpt lat="39.1860890" lon="-1.4312980">
        <ele>673.2</ele>
        <time>2019-05-11T10:08:10Z</time>
      </trkpt>
      <trkpt lat="39.1860910" lon="-1.4312950">
        <ele>672.8</ele>
        <time>2019-05-11T10:08:11Z</time>
      </trkpt>
      <trkpt lat="39.1860920" lon="-1.4312950">
        <ele>672.2</ele>
        <time>2019-05-11T10:08:12Z</time>
      </trkpt>
      <trkpt lat="39.1860930" lon="-1.4312930">
        <ele>672.0</ele>
        <time>2019-05-11T10:08:13Z</time>
      </trkpt>
      <trkpt lat="39.1860940" lon="-1.4312820">
        <ele>671.8</ele>
        <time>2019-05-11T10:08:14Z</time>
      </trkpt>
      <trkpt lat="39.1860920" lon="-1.4312360">
        <ele>671.6</ele>
        <time>2019-05-11T10:08:15Z</time>
      </trkpt>
      <trkpt lat="39.1860950" lon="-1.4311710">
        <ele>671.4</ele>
        <time>2019-05-11T10:08:16Z</time>
      </trkpt>
      <trkpt lat="39.1861010" lon="-1.4310990">
        <ele>671.4</ele>
        <time>2019-05-11T10:08:17Z</time>
      </trkpt>
      <trkpt lat="39.1861200" lon="-1.4310200">
        <ele>671.4</ele>
        <time>2019-05-11T10:08:18Z</time>
      </trkpt>
      <trkpt lat="39.1861510" lon="-1.4309330">
        <ele>671.2</ele>
        <time>2019-05-11T10:08:19Z</time>
      </trkpt>
      <trkpt lat="39.1861860" lon="-1.4308550">
        <ele>671.2</ele>
        <time>2019-05-11T10:08:20Z</time>
      </trkpt>
      <trkpt lat="39.1862220" lon="-1.4307960">
        <ele>671.2</ele>
        <time>2019-05-11T10:08:21Z</time>
      </trkpt>
      <trkpt lat="39.1862580" lon="-1.4307380">
        <ele>670.8</ele>
        <time>2019-05-11T10:08:22Z</time>
      </trkpt>
      <trkpt lat="39.1862900" lon="-1.4306800">
        <ele>670.4</ele>
        <time>2019-05-11T10:08:23Z</time>
      </trkpt>
      <trkpt lat="39.1863240" lon="-1.4306180">
        <ele>670.0</ele>
        <time>2019-05-11T10:08:24Z</time>
      </trkpt>
      <trkpt lat="39.1863430" lon="-1.4305460">
        <ele>669.4</ele>
        <time>2019-05-11T10:08:25Z</time>
      </trkpt>
      <trkpt lat="39.1863510" lon="-1.4304690">
        <ele>668.6</ele>
        <time>2019-05-11T10:08:26Z</time>
      </trkpt>
      <trkpt lat="39.1863550" lon="-1.4303930">
        <ele>667.8</ele>
        <time>2019-05-11T10:08:27Z</time>
      </trkpt>
      <trkpt lat="39.1863530" lon="-1.4303190">
        <ele>666.8</ele>
        <time>2019-05-11T10:08:28Z</time>
      </trkpt>
      <trkpt lat="39.1863550" lon="-1.4302440">
        <ele>666.0</ele>
        <time>2019-05-11T10:08:29Z</time>
      </trkpt>
      <trkpt lat="39.1863560" lon="-1.4301690">
        <ele>664.8</ele>
        <time>2019-05-11T10:08:30Z</time>
      </trkpt>
      <trkpt lat="39.1863620" lon="-1.4300950">
        <ele>663.6</ele>
        <time>2019-05-11T10:08:31Z</time>
      </trkpt>
      <trkpt lat="39.1863650" lon="-1.4300220">
        <ele>663.0</ele>
        <time>2019-05-11T10:08:32Z</time>
      </trkpt>
      <trkpt lat="39.1863650" lon="-1.4299490">
        <ele>662.0</ele>
        <time>2019-05-11T10:08:33Z</time>
      </trkpt>
      <trkpt lat="39.1863630" lon="-1.4298770">
        <ele>661.6</ele>
        <time>2019-05-11T10:08:34Z</time>
      </trkpt>
      <trkpt lat="39.1863590" lon="-1.4298120">
        <ele>661.4</ele>
        <time>2019-05-11T10:08:35Z</time>
      </trkpt>
      <trkpt lat="39.1863600" lon="-1.4297540">
        <ele>661.2</ele>
        <time>2019-05-11T10:08:36Z</time>
      </trkpt>
      <trkpt lat="39.1863650" lon="-1.4296980">
        <ele>661.2</ele>
        <time>2019-05-11T10:08:37Z</time>
      </trkpt>
      <trkpt lat="39.1863650" lon="-1.4296450">
        <ele>661.2</ele>
        <time>2019-05-11T10:08:38Z</time>
      </trkpt>
      <trkpt lat="39.1863610" lon="-1.4295920">
        <ele>661.2</ele>
        <time>2019-05-11T10:08:39Z</time>
      </trkpt>
      <trkpt lat="39.1863550" lon="-1.4295390">
        <ele>661.0</ele>
        <time>2019-05-11T10:08:40Z</time>
      </trkpt>
      <trkpt lat="39.1863550" lon="-1.4294860">
        <ele>661.0</ele>
        <time>2019-05-11T10:08:41Z</time>
      </trkpt>
      <trkpt lat="39.1863540" lon="-1.4294340">
        <ele>661.0</ele>
        <time>2019-05-11T10:08:42Z</time>
      </trkpt>
      <trkpt lat="39.1863500" lon="-1.4293810">
        <ele>661.2</ele>
        <time>2019-05-11T10:08:43Z</time>
      </trkpt>
      <trkpt lat="39.1863410" lon="-1.4293250">
        <ele>661.4</ele>
        <time>2019-05-11T10:08:44Z</time>
      </trkpt>
      <trkpt lat="39.1863330" lon="-1.4292660">
        <ele>661.4</ele>
        <time>2019-05-11T10:08:45Z</time>
      </trkpt>
      <trkpt lat="39.1863320" lon="-1.4292090">
        <ele>661.6</ele>
        <time>2019-05-11T10:08:46Z</time>
      </trkpt>
      <trkpt lat="39.1863360" lon="-1.4291550">
        <ele>662.0</ele>
        <time>2019-05-11T10:08:47Z</time>
      </trkpt>
      <trkpt lat="39.1863430" lon="-1.4291020">
        <ele>662.0</ele>
        <time>2019-05-11T10:08:48Z</time>
      </trkpt>
      <trkpt lat="39.1863570" lon="-1.4290500">
        <ele>662.2</ele>
        <time>2019-05-11T10:08:49Z</time>
      </trkpt>
      <trkpt lat="39.1863780" lon="-1.4290020">
        <ele>662.4</ele>
        <time>2019-05-11T10:08:50Z</time>
      </trkpt>
      <trkpt lat="39.1864020" lon="-1.4289580">
        <ele>662.4</ele>
        <time>2019-05-11T10:08:51Z</time>
      </trkpt>
      <trkpt lat="39.1864260" lon="-1.4289130">
        <ele>662.6</ele>
        <time>2019-05-11T10:08:52Z</time>
      </trkpt>
      <trkpt lat="39.1864420" lon="-1.4288680">
        <ele>662.6</ele>
        <time>2019-05-11T10:08:53Z</time>
      </trkpt>
      <trkpt lat="39.1864520" lon="-1.4288200">
        <ele>662.6</ele>
        <time>2019-05-11T10:08:54Z</time>
      </trkpt>
      <trkpt lat="39.1864620" lon="-1.4287770">
        <ele>662.6</ele>
        <time>2019-05-11T10:08:55Z</time>
      </trkpt>
      <trkpt lat="39.1864720" lon="-1.4287400">
        <ele>662.8</ele>
        <time>2019-05-11T10:08:56Z</time>
      </trkpt>
      <trkpt lat="39.1864850" lon="-1.4287040">
        <ele>662.8</ele>
        <time>2019-05-11T10:08:57Z</time>
      </trkpt>
      <trkpt lat="39.1864990" lon="-1.4286670">
        <ele>662.8</ele>
        <time>2019-05-11T10:08:58Z</time>
      </trkpt>
      <trkpt lat="39.1865090" lon="-1.4286250">
        <ele>662.8</ele>
        <time>2019-05-11T10:08:59Z</time>
      </trkpt>
      <trkpt lat="39.1865150" lon="-1.4285790">
        <ele>662.8</ele>
        <time>2019-05-11T10:09:00Z</time>
      </trkpt>
      <trkpt lat="39.1865160" lon="-1.4285310">
        <ele>663.0</ele>
        <time>2019-05-11T10:09:01Z</time>
      </trkpt>
      <trkpt lat="39.1865140" lon="-1.4284850">
        <ele>663.0</ele>
        <time>2019-05-11T10:09:02Z</time>
      </trkpt>
      <trkpt lat="39.1865100" lon="-1.4284360">
        <ele>663.0</ele>
        <time>2019-05-11T10:09:03Z</time>
      </trkpt>
      <trkpt lat="39.1865030" lon="-1.4283840">
        <ele>663.2</ele>
        <time>2019-05-11T10:09:04Z</time>
      </trkpt>
      <trkpt lat="39.1864940" lon="-1.4283310">
        <ele>663.2</ele>
        <time>2019-05-11T10:09:05Z</time>
      </trkpt>
      <trkpt lat="39.1864870" lon="-1.4282710">
        <ele>663.4</ele>
        <time>2019-05-11T10:09:06Z</time>
      </trkpt>
      <trkpt lat="39.1864830" lon="-1.4282080">
        <ele>663.4</ele>
        <time>2019-05-11T10:09:07Z</time>
      </trkpt>
      <trkpt lat="39.1864810" lon="-1.4281450">
        <ele>663.4</ele>
        <time>2019-05-11T10:09:08Z</time>
      </trkpt>
      <trkpt lat="39.1864800" lon="-1.4280820">
        <ele>663.4</ele>
        <time>2019-05-11T10:09:09Z</time>
      </trkpt>
      <trkpt lat="39.1864750" lon="-1.4280230">
        <ele>663.6</ele>
        <time>2019-05-11T10:09:10Z</time>
      </trkpt>
      <trkpt lat="39.1864650" lon="-1.4279700">
        <ele>663.6</ele>
        <time>2019-05-11T10:09:11Z</time>
      </trkpt>
      <trkpt lat="39.1864590" lon="-1.4279190">
        <ele>663.6</ele>
        <time>2019-05-11T10:09:12Z</time>
      </trkpt>
      <trkpt lat="39.1864570" lon="-1.4278710">
        <ele>663.8</ele>
        <time>2019-05-11T10:09:13Z</time>
      </trkpt>
      <trkpt lat="39.1864630" lon="-1.4278250">
        <ele>663.8</ele>
        <time>2019-05-11T10:09:14Z</time>
      </trkpt>
      <trkpt lat="39.1864790" lon="-1.4277850">
        <ele>663.8</ele>
        <time>2019-05-11T10:09:15Z</time>
      </trkpt>
      <trkpt lat="39.1865100" lon="-1.4277480">
        <ele>664.0</ele>
        <time>2019-05-11T10:09:16Z</time>
      </trkpt>
      <trkpt lat="39.1865540" lon="-1.4277130">
        <ele>664.0</ele>
        <time>2019-05-11T10:09:17Z</time>
      </trkpt>
      <trkpt lat="39.1866010" lon="-1.4276690">
        <ele>664.0</ele>
        <time>2019-05-11T10:09:18Z</time>
      </trkpt>
      <trkpt lat="39.1866440" lon="-1.4276170">
        <ele>664.0</ele>
        <time>2019-05-11T10:09:19Z</time>
      </trkpt>
      <trkpt lat="39.1866900" lon="-1.4275640">
        <ele>664.0</ele>
        <time>2019-05-11T10:09:20Z</time>
      </trkpt>
      <trkpt lat="39.1867360" lon="-1.4275110">
        <ele>664.0</ele>
        <time>2019-05-11T10:09:21Z</time>
      </trkpt>
      <trkpt lat="39.1867830" lon="-1.4274600">
        <ele>664.0</ele>
        <time>2019-05-11T10:09:22Z</time>
      </trkpt>
      <trkpt lat="39.1868320" lon="-1.4274110">
        <ele>664.0</ele>
        <time>2019-05-11T10:09:23Z</time>
      </trkpt>
      <trkpt lat="39.1868840" lon="-1.4273680">
        <ele>664.0</ele>
        <time>2019-05-11T10:09:24Z</time>
      </trkpt>
      <trkpt lat="39.1869360" lon="-1.4273250">
        <ele>664.0</ele>
        <time>2019-05-11T10:09:25Z</time>
      </trkpt>
      <trkpt lat="39.1869860" lon="-1.4272790">
        <ele>664.0</ele>
        <time>2019-05-11T10:09:26Z</time>
      </trkpt>
      <trkpt lat="39.1870370" lon="-1.4272330">
        <ele>664.0</ele>
        <time>2019-05-11T10:09:27Z</time>
      </trkpt>
      <trkpt lat="39.1870810" lon="-1.4271850">
        <ele>664.2</ele>
        <time>2019-05-11T10:09:28Z</time>
      </trkpt>
      <trkpt lat="39.1871110" lon="-1.4271310">
        <ele>664.2</ele>
        <time>2019-05-11T10:09:29Z</time>
      </trkpt>
      <trkpt lat="39.1871280" lon="-1.4270760">
        <ele>664.2</ele>
        <time>2019-05-11T10:09:30Z</time>
      </trkpt>
      <trkpt lat="39.1871430" lon="-1.4270220">
        <ele>664.2</ele>
        <time>2019-05-11T10:09:31Z</time>
      </trkpt>
      <trkpt lat="39.1871580" lon="-1.4269670">
        <ele>664.0</ele>
        <time>2019-05-11T10:09:32Z</time>
      </trkpt>
      <trkpt lat="39.1871730" lon="-1.4269180">
        <ele>664.0</ele>
        <time>2019-05-11T10:09:33Z</time>
      </trkpt>
      <trkpt lat="39.1871870" lon="-1.4268810">
        <ele>664.0</ele>
        <time>2019-05-11T10:09:34Z</time>
      </trkpt>
      <trkpt lat="39.1871970" lon="-1.4268430">
        <ele>663.8</ele>
        <time>2019-05-11T10:09:35Z</time>
      </trkpt>
      <trkpt lat="39.1871980" lon="-1.4267930">
        <ele>663.8</ele>
        <time>2019-05-11T10:09:36Z</time>
      </trkpt>
      <trkpt lat="39.1871910" lon="-1.4267370">
        <ele>663.6</ele>
        <time>2019-05-11T10:09:37Z</time>
      </trkpt>
      <trkpt lat="39.1871810" lon="-1.4266830">
        <ele>663.8</ele>
        <time>2019-05-11T10:09:38Z</time>
      </trkpt>
      <trkpt lat="39.1871800" lon="-1.4266330">
        <ele>663.6</ele>
        <time>2019-05-11T10:09:39Z</time>
      </trkpt>
      <trkpt lat="39.1871830" lon="-1.4265890">
        <ele>663.6</ele>
        <time>2019-05-11T10:09:40Z</time>
      </trkpt>
      <trkpt lat="39.1871870" lon="-1.4265430">
        <ele>663.6</ele>
        <time>2019-05-11T10:09:41Z</time>
      </trkpt>
      <trkpt lat="39.1871830" lon="-1.4265000">
        <ele>663.2</ele>
        <time>2019-05-11T10:09:42Z</time>
      </trkpt>
      <trkpt lat="39.1871670" lon="-1.4264630">
        <ele>663.0</ele>
        <time>2019-05-11T10:09:43Z</time>
      </trkpt>
      <trkpt lat="39.1871490" lon="-1.4264280">
        <ele>663.0</ele>
        <time>2019-05-11T10:09:44Z</time>
      </trkpt>
      <trkpt lat="39.1871380" lon="-1.4263990">
        <ele>663.0</ele>
        <time>2019-05-11T10:09:45Z</time>
      </trkpt>
      <trkpt lat="39.1871290" lon="-1.4263800">
        <ele>662.8</ele>
        <time>2019-05-11T10:09:46Z</time>
      </trkpt>
      <trkpt lat="39.1871260" lon="-1.4263610">
        <ele>662.8</ele>
        <time>2019-05-11T10:09:47Z</time>
      </trkpt>
      <trkpt lat="39.1871220" lon="-1.4263430">
        <ele>662.8</ele>
        <time>2019-05-11T10:09:48Z</time>
      </trkpt>
      <trkpt lat="39.1871180" lon="-1.4263170">
        <ele>662.8</ele>
        <time>2019-05-11T10:09:49Z</time>
      </trkpt>
      <trkpt lat="39.1871110" lon="-1.4262910">
        <ele>662.8</ele>
        <time>2019-05-11T10:09:50Z</time>
      </trkpt>
      <trkpt lat="39.1871010" lon="-1.4262590">
        <ele>662.8</ele>
        <time>2019-05-11T10:09:51Z</time>
      </trkpt>
      <trkpt lat="39.1870880" lon="-1.4262250">
        <ele>663.2</ele>
        <time>2019-05-11T10:09:52Z</time>
      </trkpt>
      <trkpt lat="39.1870770" lon="-1.4261870">
        <ele>663.4</ele>
        <time>2019-05-11T10:09:53Z</time>
      </trkpt>
      <trkpt lat="39.1870630" lon="-1.4261510">
        <ele>663.8</ele>
        <time>2019-05-11T10:09:54Z</time>
      </trkpt>
      <trkpt lat="39.1870470" lon="-1.4261150">
        <ele>663.8</ele>
        <time>2019-05-11T10:09:55Z</time>
      </trkpt>
      <trkpt lat="39.1870290" lon="-1.4260810">
        <ele>664.0</ele>
        <time>2019-05-11T10:09:56Z</time>
      </trkpt>
      <trkpt lat="39.1870070" lon="-1.4260460">
        <ele>664.0</ele>
        <time>2019-05-11T10:09:57Z</time>
      </trkpt>
      <trkpt lat="39.1869840" lon="-1.4260090">
        <ele>664.2</ele>
        <time>2019-05-11T10:09:58Z</time>
      </trkpt>
      <trkpt lat="39.1869580" lon="-1.4259700">
        <ele>664.2</ele>
        <time>2019-05-11T10:09:59Z</time>
      </trkpt>
      <trkpt lat="39.1869330" lon="-1.4259280">
        <ele>664.2</ele>
        <time>2019-05-11T10:10:00Z</time>
      </trkpt>
      <trkpt lat="39.1869050" lon="-1.4258860">
        <ele>664.4</ele>
        <time>2019-05-11T10:10:01Z</time>
      </trkpt>
      <trkpt lat="39.1868760" lon="-1.4258430">
        <ele>664.6</ele>
        <time>2019-05-11T10:10:02Z</time>
      </trkpt>
      <trkpt lat="39.1868440" lon="-1.4258010">
        <ele>664.8</ele>
        <time>2019-05-11T10:10:03Z</time>
      </trkpt>
      <trkpt lat="39.1868110" lon="-1.4257570">
        <ele>665.0</ele>
        <time>2019-05-11T10:10:04Z</time>
      </trkpt>
      <trkpt lat="39.1867780" lon="-1.4257140">
        <ele>665.0</ele>
        <time>2019-05-11T10:10:05Z</time>
      </trkpt>
      <trkpt lat="39.1867460" lon="-1.4256700">
        <ele>665.0</ele>
        <time>2019-05-11T10:10:06Z</time>
      </trkpt>
      <trkpt lat="39.1867240" lon="-1.4256190">
        <ele>665.0</ele>
        <time>2019-05-11T10:10:07Z</time>
      </trkpt>
      <trkpt lat="39.1867080" lon="-1.4255600">
        <ele>665.0</ele>
        <time>2019-05-11T10:10:08Z</time>
      </trkpt>
      <trkpt lat="39.1866900" lon="-1.4254970">
        <ele>665.0</ele>
        <time>2019-05-11T10:10:09Z</time>
      </trkpt>
      <trkpt lat="39.1866700" lon="-1.4254360">
        <ele>665.0</ele>
        <time>2019-05-11T10:10:10Z</time>
      </trkpt>
      <trkpt lat="39.1866520" lon="-1.4253850">
        <ele>665.0</ele>
        <time>2019-05-11T10:10:11Z</time>
      </trkpt>
      <trkpt lat="39.1866450" lon="-1.4253350">
        <ele>665.0</ele>
        <time>2019-05-11T10:10:12Z</time>
      </trkpt>
      <trkpt lat="39.1866380" lon="-1.4252860">
        <ele>665.0</ele>
        <time>2019-05-11T10:10:13Z</time>
      </trkpt>
      <trkpt lat="39.1866260" lon="-1.4252360">
        <ele>665.0</ele>
        <time>2019-05-11T10:10:14Z</time>
      </trkpt>
      <trkpt lat="39.1866100" lon="-1.4251820">
        <ele>665.0</ele>
        <time>2019-05-11T10:10:15Z</time>
      </trkpt>
      <trkpt lat="39.1865910" lon="-1.4251290">
        <ele>665.0</ele>
        <time>2019-05-11T10:10:16Z</time>
      </trkpt>
      <trkpt lat="39.1865750" lon="-1.4250730">
        <ele>664.8</ele>
        <time>2019-05-11T10:10:17Z</time>
      </trkpt>
      <trkpt lat="39.1865580" lon="-1.4250190">
        <ele>664.8</ele>
        <time>2019-05-11T10:10:18Z</time>
      </trkpt>
      <trkpt lat="39.1865400" lon="-1.4249650">
        <ele>664.8</ele>
        <time>2019-05-11T10:10:19Z</time>
      </trkpt>
      <trkpt lat="39.1865190" lon="-1.4249130">
        <ele>664.8</ele>
        <time>2019-05-11T10:10:20Z</time>
      </trkpt>
      <trkpt lat="39.1864940" lon="-1.4248670">
        <ele>664.8</ele>
        <time>2019-05-11T10:10:21Z</time>
      </trkpt>
      <trkpt lat="39.1864690" lon="-1.4248250">
        <ele>664.6</ele>
        <time>2019-05-11T10:10:22Z</time>
      </trkpt>
      <trkpt lat="39.1864470" lon="-1.4247870">
        <ele>664.6</ele>
        <time>2019-05-11T10:10:23Z</time>
      </trkpt>
      <trkpt lat="39.1864300" lon="-1.4247530">
        <ele>664.6</ele>
        <time>2019-05-11T10:10:24Z</time>
      </trkpt>
      <trkpt lat="39.1864130" lon="-1.4247190">
        <ele>664.6</ele>
        <time>2019-05-11T10:10:25Z</time>
      </trkpt>
      <trkpt lat="39.1863890" lon="-1.4246880">
        <ele>664.8</ele>
        <time>2019-05-11T10:10:26Z</time>
      </trkpt>
      <trkpt lat="39.1863690" lon="-1.4246480">
        <ele>664.8</ele>
        <time>2019-05-11T10:10:27Z</time>
      </trkpt>
      <trkpt lat="39.1863540" lon="-1.4246010">
        <ele>664.8</ele>
        <time>2019-05-11T10:10:28Z</time>
      </trkpt>
      <trkpt lat="39.1863440" lon="-1.4245510">
        <ele>664.8</ele>
        <time>2019-05-11T10:10:29Z</time>
      </trkpt>
      <trkpt lat="39.1863360" lon="-1.4244980">
        <ele>665.0</ele>
        <time>2019-05-11T10:10:30Z</time>
      </trkpt>
      <trkpt lat="39.1863240" lon="-1.4244490">
        <ele>665.2</ele>
        <time>2019-05-11T10:10:31Z</time>
      </trkpt>
      <trkpt lat="39.1863050" lon="-1.4244080">
        <ele>665.2</ele>
        <time>2019-05-11T10:10:32Z</time>
      </trkpt>
      <trkpt lat="39.1862830" lon="-1.4243650">
        <ele>665.4</ele>
        <time>2019-05-11T10:10:33Z</time>
      </trkpt>
      <trkpt lat="39.1862670" lon="-1.4243160">
        <ele>665.4</ele>
        <time>2019-05-11T10:10:34Z</time>
      </trkpt>
      <trkpt lat="39.1862600" lon="-1.4242590">
        <ele>665.4</ele>
        <time>2019-05-11T10:10:35Z</time>
      </trkpt>
      <trkpt lat="39.1862570" lon="-1.4241980">
        <ele>665.4</ele>
        <time>2019-05-11T10:10:36Z</time>
      </trkpt>
      <trkpt lat="39.1862600" lon="-1.4241400">
        <ele>665.4</ele>
        <time>2019-05-11T10:10:37Z</time>
      </trkpt>
      <trkpt lat="39.1862660" lon="-1.4240870">
        <ele>665.4</ele>
        <time>2019-05-11T10:10:38Z</time>
      </trkpt>
      <trkpt lat="39.1862680" lon="-1.4240390">
        <ele>665.4</ele>
        <time>2019-05-11T10:10:39Z</time>
      </trkpt>
      <trkpt lat="39.1862690" lon="-1.4239950">
        <ele>665.6</ele>
        <time>2019-05-11T10:10:40Z</time>
      </trkpt>
      <trkpt lat="39.1862580" lon="-1.4239590">
        <ele>665.6</ele>
        <time>2019-05-11T10:10:41Z</time>
      </trkpt>
      <trkpt lat="39.1862460" lon="-1.4239250">
        <ele>665.6</ele>
        <time>2019-05-11T10:10:42Z</time>
      </trkpt>
      <trkpt lat="39.1862360" lon="-1.4238870">
        <ele>665.6</ele>
        <time>2019-05-11T10:10:43Z</time>
      </trkpt>
      <trkpt lat="39.1862280" lon="-1.4238390">
        <ele>665.8</ele>
        <time>2019-05-11T10:10:44Z</time>
      </trkpt>
      <trkpt lat="39.1862220" lon="-1.4237850">
        <ele>665.8</ele>
        <time>2019-05-11T10:10:45Z</time>
      </trkpt>
      <trkpt lat="39.1862180" lon="-1.4237310">
        <ele>665.8</ele>
        <time>2019-05-11T10:10:46Z</time>
      </trkpt>
      <trkpt lat="39.1862180" lon="-1.4236770">
        <ele>665.8</ele>
        <time>2019-05-11T10:10:47Z</time>
      </trkpt>
      <trkpt lat="39.1862180" lon="-1.4236270">
        <ele>665.8</ele>
        <time>2019-05-11T10:10:48Z</time>
      </trkpt>
      <trkpt lat="39.1862190" lon="-1.4235750">
        <ele>665.8</ele>
        <time>2019-05-11T10:10:49Z</time>
      </trkpt>
      <trkpt lat="39.1862170" lon="-1.4235180">
        <ele>665.8</ele>
        <time>2019-05-11T10:10:50Z</time>
      </trkpt>
      <trkpt lat="39.1862110" lon="-1.4234650">
        <ele>665.6</ele>
        <time>2019-05-11T10:10:51Z</time>
      </trkpt>
      <trkpt lat="39.1862040" lon="-1.4234180">
        <ele>665.6</ele>
        <time>2019-05-11T10:10:52Z</time>
      </trkpt>
      <trkpt lat="39.1861960" lon="-1.4233740">
        <ele>665.6</ele>
        <time>2019-05-11T10:10:53Z</time>
      </trkpt>
      <trkpt lat="39.1861930" lon="-1.4233320">
        <ele>665.6</ele>
        <time>2019-05-11T10:10:54Z</time>
      </trkpt>
      <trkpt lat="39.1861950" lon="-1.4232910">
        <ele>665.6</ele>
        <time>2019-05-11T10:10:55Z</time>
      </trkpt>
      <trkpt lat="39.1862020" lon="-1.4232500">
        <ele>665.6</ele>
        <time>2019-05-11T10:10:56Z</time>
      </trkpt>
      <trkpt lat="39.1862070" lon="-1.4232070">
        <ele>665.8</ele>
        <time>2019-05-11T10:10:57Z</time>
      </trkpt>
      <trkpt lat="39.1862090" lon="-1.4231610">
        <ele>665.8</ele>
        <time>2019-05-11T10:10:58Z</time>
      </trkpt>
      <trkpt lat="39.1862070" lon="-1.4231170">
        <ele>666.0</ele>
        <time>2019-05-11T10:10:59Z</time>
      </trkpt>
      <trkpt lat="39.1862050" lon="-1.4230740">
        <ele>666.0</ele>
        <time>2019-05-11T10:11:00Z</time>
      </trkpt>
      <trkpt lat="39.1862070" lon="-1.4230310">
        <ele>666.0</ele>
        <time>2019-05-11T10:11:01Z</time>
      </trkpt>
      <trkpt lat="39.1862070" lon="-1.4229860">
        <ele>666.0</ele>
        <time>2019-05-11T10:11:02Z</time>
      </trkpt>
      <trkpt lat="39.1862060" lon="-1.4229430">
        <ele>666.0</ele>
        <time>2019-05-11T10:11:03Z</time>
      </trkpt>
      <trkpt lat="39.1862070" lon="-1.4228990">
        <ele>666.0</ele>
        <time>2019-05-11T10:11:04Z</time>
      </trkpt>
      <trkpt lat="39.1862110" lon="-1.4228560">
        <ele>666.0</ele>
        <time>2019-05-11T10:11:05Z</time>
      </trkpt>
      <trkpt lat="39.1862120" lon="-1.4228110">
        <ele>666.2</ele>
        <time>2019-05-11T10:11:06Z</time>
      </trkpt>
      <trkpt lat="39.1862090" lon="-1.4227650">
        <ele>666.4</ele>
        <time>2019-05-11T10:11:07Z</time>
      </trkpt>
      <trkpt lat="39.1862070" lon="-1.4227190">
        <ele>666.6</ele>
        <time>2019-05-11T10:11:08Z</time>
      </trkpt>
      <trkpt lat="39.1862100" lon="-1.4226760">
        <ele>666.8</ele>
        <time>2019-05-11T10:11:09Z</time>
      </trkpt>
      <trkpt lat="39.1862120" lon="-1.4226350">
        <ele>666.8</ele>
        <time>2019-05-11T10:11:10Z</time>
      </trkpt>
      <trkpt lat="39.1862140" lon="-1.4225910">
        <ele>667.0</ele>
        <time>2019-05-11T10:11:11Z</time>
      </trkpt>
      <trkpt lat="39.1862190" lon="-1.4225450">
        <ele>667.2</ele>
        <time>2019-05-11T10:11:12Z</time>
      </trkpt>
      <trkpt lat="39.1862200" lon="-1.4224970">
        <ele>667.2</ele>
        <time>2019-05-11T10:11:13Z</time>
      </trkpt>
      <trkpt lat="39.1862190" lon="-1.4224500">
        <ele>667.2</ele>
        <time>2019-05-11T10:11:14Z</time>
      </trkpt>
      <trkpt lat="39.1862120" lon="-1.4224130">
        <ele>667.2</ele>
        <time>2019-05-11T10:11:15Z</time>
      </trkpt>
      <trkpt lat="39.1862060" lon="-1.4223820">
        <ele>667.2</ele>
        <time>2019-05-11T10:11:16Z</time>
      </trkpt>
      <trkpt lat="39.1862030" lon="-1.4223480">
        <ele>667.2</ele>
        <time>2019-05-11T10:11:17Z</time>
      </trkpt>
      <trkpt lat="39.1862010" lon="-1.4223120">
        <ele>667.2</ele>
        <time>2019-05-11T10:11:18Z</time>
      </trkpt>
      <trkpt lat="39.1861960" lon="-1.4222760">
        <ele>667.2</ele>
        <time>2019-05-11T10:11:19Z</time>
      </trkpt>
      <trkpt lat="39.1861850" lon="-1.4222460">
        <ele>667.2</ele>
        <time>2019-05-11T10:11:20Z</time>
      </trkpt>
      <trkpt lat="39.1861730" lon="-1.4222180">
        <ele>667.2</ele>
        <time>2019-05-11T10:11:21Z</time>
      </trkpt>
      <trkpt lat="39.1861630" lon="-1.4221860">
        <ele>667.2</ele>
        <time>2019-05-11T10:11:22Z</time>
      </trkpt>
      <trkpt lat="39.1861510" lon="-1.4221500">
        <ele>667.0</ele>
        <time>2019-05-11T10:11:23Z</time>
      </trkpt>
      <trkpt lat="39.1861410" lon="-1.4221070">
        <ele>667.0</ele>
        <time>2019-05-11T10:11:24Z</time>
      </trkpt>
      <trkpt lat="39.1861380" lon="-1.4220650">
        <ele>667.0</ele>
        <time>2019-05-11T10:11:25Z</time>
      </trkpt>
      <trkpt lat="39.1861370" lon="-1.4220210">
        <ele>667.0</ele>
        <time>2019-05-11T10:11:26Z</time>
      </trkpt>
      <trkpt lat="39.1861340" lon="-1.4219780">
        <ele>667.0</ele>
        <time>2019-05-11T10:11:27Z</time>
      </trkpt>
      <trkpt lat="39.1861300" lon="-1.4219370">
        <ele>667.0</ele>
        <time>2019-05-11T10:11:28Z</time>
      </trkpt>
      <trkpt lat="39.1861270" lon="-1.4219000">
        <ele>667.0</ele>
        <time>2019-05-11T10:11:29Z</time>
      </trkpt>
      <trkpt lat="39.1861230" lon="-1.4218640">
        <ele>667.0</ele>
        <time>2019-05-11T10:11:30Z</time>
      </trkpt>
      <trkpt lat="39.1861140" lon="-1.4218270">
        <ele>667.0</ele>
        <time>2019-05-11T10:11:31Z</time>
      </trkpt>
      <trkpt lat="39.1861030" lon="-1.4217880">
        <ele>667.0</ele>
        <time>2019-05-11T10:11:32Z</time>
      </trkpt>
      <trkpt lat="39.1860910" lon="-1.4217460">
        <ele>667.0</ele>
        <time>2019-05-11T10:11:33Z</time>
      </trkpt>
      <trkpt lat="39.1860740" lon="-1.4217030">
        <ele>667.2</ele>
        <time>2019-05-11T10:11:34Z</time>
      </trkpt>
      <trkpt lat="39.1860510" lon="-1.4216620">
        <ele>667.2</ele>
        <time>2019-05-11T10:11:35Z</time>
      </trkpt>
      <trkpt lat="39.1860270" lon="-1.4216240">
        <ele>667.4</ele>
        <time>2019-05-11T10:11:36Z</time>
      </trkpt>
      <trkpt lat="39.1860080" lon="-1.4215840">
        <ele>667.4</ele>
        <time>2019-05-11T10:11:37Z</time>
      </trkpt>
      <trkpt lat="39.1859960" lon="-1.4215420">
        <ele>667.4</ele>
        <time>2019-05-11T10:11:38Z</time>
      </trkpt>
      <trkpt lat="39.1859860" lon="-1.4214990">
        <ele>667.4</ele>
        <time>2019-05-11T10:11:39Z</time>
      </trkpt>
      <trkpt lat="39.1859810" lon="-1.4214530">
        <ele>667.6</ele>
        <time>2019-05-11T10:11:40Z</time>
      </trkpt>
      <trkpt lat="39.1859770" lon="-1.4214040">
        <ele>667.6</ele>
        <time>2019-05-11T10:11:41Z</time>
      </trkpt>
      <trkpt lat="39.1859750" lon="-1.4213510">
        <ele>667.6</ele>
        <time>2019-05-11T10:11:42Z</time>
      </trkpt>
      <trkpt lat="39.1859750" lon="-1.4212940">
        <ele>667.6</ele>
        <time>2019-05-11T10:11:43Z</time>
      </trkpt>
      <trkpt lat="39.1859790" lon="-1.4212270">
        <ele>667.6</ele>
        <time>2019-05-11T10:11:44Z</time>
      </trkpt>
      <trkpt lat="39.1859810" lon="-1.4211580">
        <ele>667.6</ele>
        <time>2019-05-11T10:11:45Z</time>
      </trkpt>
      <trkpt lat="39.1859800" lon="-1.4210980">
        <ele>667.6</ele>
        <time>2019-05-11T10:11:46Z</time>
      </trkpt>
      <trkpt lat="39.1859760" lon="-1.4210430">
        <ele>667.6</ele>
        <time>2019-05-11T10:11:47Z</time>
      </trkpt>
      <trkpt lat="39.1859750" lon="-1.4209940">
        <ele>667.6</ele>
        <time>2019-05-11T10:11:48Z</time>
      </trkpt>
      <trkpt lat="39.1859780" lon="-1.4209470">
        <ele>667.6</ele>
        <time>2019-05-11T10:11:49Z</time>
      </trkpt>
      <trkpt lat="39.1859810" lon="-1.4208950">
        <ele>667.4</ele>
        <time>2019-05-11T10:11:50Z</time>
      </trkpt>
      <trkpt lat="39.1859850" lon="-1.4208420">
        <ele>667.4</ele>
        <time>2019-05-11T10:11:51Z</time>
      </trkpt>
      <trkpt lat="39.1859940" lon="-1.4207830">
        <ele>667.2</ele>
        <time>2019-05-11T10:11:52Z</time>
      </trkpt>
      <trkpt lat="39.1860000" lon="-1.4207250">
        <ele>667.2</ele>
        <time>2019-05-11T10:11:53Z</time>
      </trkpt>
      <trkpt lat="39.1860030" lon="-1.4206640">
        <ele>667.2</ele>
        <time>2019-05-11T10:11:54Z</time>
      </trkpt>
      <trkpt lat="39.1860050" lon="-1.4206000">
        <ele>667.2</ele>
        <time>2019-05-11T10:11:55Z</time>
      </trkpt>
      <trkpt lat="39.1860110" lon="-1.4205400">
        <ele>667.0</ele>
        <time>2019-05-11T10:11:56Z</time>
      </trkpt>
      <trkpt lat="39.1860200" lon="-1.4204860">
        <ele>667.0</ele>
        <time>2019-05-11T10:11:57Z</time>
      </trkpt>
      <trkpt lat="39.1860310" lon="-1.4204350">
        <ele>667.0</ele>
        <time>2019-05-11T10:11:58Z</time>
      </trkpt>
      <trkpt lat="39.1860450" lon="-1.4203850">
        <ele>667.0</ele>
        <time>2019-05-11T10:11:59Z</time>
      </trkpt>
      <trkpt lat="39.1860610" lon="-1.4203340">
        <ele>667.0</ele>
        <time>2019-05-11T10:12:00Z</time>
      </trkpt>
      <trkpt lat="39.1860730" lon="-1.4202830">
        <ele>667.0</ele>
        <time>2019-05-11T10:12:01Z</time>
      </trkpt>
      <trkpt lat="39.1860770" lon="-1.4202330">
        <ele>667.0</ele>
        <time>2019-05-11T10:12:02Z</time>
      </trkpt>
      <trkpt lat="39.1860800" lon="-1.4201830">
        <ele>667.0</ele>
        <time>2019-05-11T10:12:03Z</time>
      </trkpt>
      <trkpt lat="39.1860870" lon="-1.4201340">
        <ele>667.0</ele>
        <time>2019-05-11T10:12:04Z</time>
      </trkpt>
      <trkpt lat="39.1860990" lon="-1.4200880">
        <ele>667.0</ele>
        <time>2019-05-11T10:12:05Z</time>
      </trkpt>
      <trkpt lat="39.1861120" lon="-1.4200420">
        <ele>667.0</ele>
        <time>2019-05-11T10:12:06Z</time>
      </trkpt>
      <trkpt lat="39.1861180" lon="-1.4199950">
        <ele>667.2</ele>
        <time>2019-05-11T10:12:07Z</time>
      </trkpt>
      <trkpt lat="39.1861070" lon="-1.4199600">
        <ele>667.2</ele>
        <time>2019-05-11T10:12:08Z</time>
      </trkpt>
      <trkpt lat="39.1860830" lon="-1.4199440">
        <ele>667.2</ele>
        <time>2019-05-11T10:12:09Z</time>
      </trkpt>
      <trkpt lat="39.1860560" lon="-1.4199440">
        <ele>667.2</ele>
        <time>2019-05-11T10:12:10Z</time>
      </trkpt>
      <trkpt lat="39.1860280" lon="-1.4199520">
        <ele>667.2</ele>
        <time>2019-05-11T10:12:11Z</time>
      </trkpt>
      <trkpt lat="39.1859980" lon="-1.4199570">
        <ele>667.2</ele>
        <time>2019-05-11T10:12:12Z</time>
      </trkpt>
      <trkpt lat="39.1859670" lon="-1.4199580">
        <ele>667.4</ele>
        <time>2019-05-11T10:12:13Z</time>
      </trkpt>
      <trkpt lat="39.1859360" lon="-1.4199670">
        <ele>667.6</ele>
        <time>2019-05-11T10:12:14Z</time>
      </trkpt>
      <trkpt lat="39.1859080" lon="-1.4199850">
        <ele>667.8</ele>
        <time>2019-05-11T10:12:15Z</time>
      </trkpt>
      <trkpt lat="39.1858800" lon="-1.4200070">
        <ele>668.2</ele>
        <time>2019-05-11T10:12:16Z</time>
      </trkpt>
      <trkpt lat="39.1858500" lon="-1.4200280">
        <ele>668.6</ele>
        <time>2019-05-11T10:12:17Z</time>
      </trkpt>
      <trkpt lat="39.1858180" lon="-1.4200480">
        <ele>668.8</ele>
        <time>2019-05-11T10:12:18Z</time>
      </trkpt>
      <trkpt lat="39.1857830" lon="-1.4200680">
        <ele>669.0</ele>
        <time>2019-05-11T10:12:19Z</time>
      </trkpt>
      <trkpt lat="39.1857470" lon="-1.4200870">
        <ele>669.0</ele>
        <time>2019-05-11T10:12:20Z</time>
      </trkpt>
      <trkpt lat="39.1857080" lon="-1.4201050">
        <ele>669.4</ele>
        <time>2019-05-11T10:12:21Z</time>
      </trkpt>
      <trkpt lat="39.1856660" lon="-1.4201190">
        <ele>669.4</ele>
        <time>2019-05-11T10:12:22Z</time>
      </trkpt>
      <trkpt lat="39.1856220" lon="-1.4201310">
        <ele>669.6</ele>
        <time>2019-05-11T10:12:23Z</time>
      </trkpt>
      <trkpt lat="39.1855780" lon="-1.4201430">
        <ele>669.8</ele>
        <time>2019-05-11T10:12:24Z</time>
      </trkpt>
      <trkpt lat="39.1855330" lon="-1.4201570">
        <ele>670.0</ele>
        <time>2019-05-11T10:12:25Z</time>
      </trkpt>
      <trkpt lat="39.1854860" lon="-1.4201680">
        <ele>670.2</ele>
        <time>2019-05-11T10:12:26Z</time>
      </trkpt>
      <trkpt lat="39.1854390" lon="-1.4201790">
        <ele>670.4</ele>
        <time>2019-05-11T10:12:27Z</time>
      </trkpt>
      <trkpt lat="39.1853930" lon="-1.4201910">
        <ele>670.4</ele>
        <time>2019-05-11T10:12:28Z</time>
      </trkpt>
      <trkpt lat="39.1853460" lon="-1.4202060">
        <ele>670.4</ele>
        <time>2019-05-11T10:12:29Z</time>
      </trkpt>
      <trkpt lat="39.1852990" lon="-1.4202230">
        <ele>670.6</ele>
        <time>2019-05-11T10:12:30Z</time>
      </trkpt>
      <trkpt lat="39.1852530" lon="-1.4202420">
        <ele>670.8</ele>
        <time>2019-05-11T10:12:31Z</time>
      </trkpt>
      <trkpt lat="39.1852070" lon="-1.4202600">
        <ele>670.8</ele>
        <time>2019-05-11T10:12:32Z</time>
      </trkpt>
      <trkpt lat="39.1851600" lon="-1.4202780">
        <ele>671.0</ele>
        <time>2019-05-11T10:12:33Z</time>
      </trkpt>
      <trkpt lat="39.1851130" lon="-1.4202980">
        <ele>671.0</ele>
        <time>2019-05-11T10:12:34Z</time>
      </trkpt>
      <trkpt lat="39.1850630" lon="-1.4203190">
        <ele>671.0</ele>
        <time>2019-05-11T10:12:35Z</time>
      </trkpt>
      <trkpt lat="39.1850140" lon="-1.4203410">
        <ele>671.0</ele>
        <time>2019-05-11T10:12:36Z</time>
      </trkpt>
      <trkpt lat="39.1849640" lon="-1.4203650">
        <ele>671.0</ele>
        <time>2019-05-11T10:12:37Z</time>
      </trkpt>
      <trkpt lat="39.1849150" lon="-1.4203960">
        <ele>671.0</ele>
        <time>2019-05-11T10:12:38Z</time>
      </trkpt>
      <trkpt lat="39.1848690" lon="-1.4204340">
        <ele>671.0</ele>
        <time>2019-05-11T10:12:39Z</time>
      </trkpt>
      <trkpt lat="39.1848250" lon="-1.4204790">
        <ele>671.0</ele>
        <time>2019-05-11T10:12:40Z</time>
      </trkpt>
      <trkpt lat="39.1847800" lon="-1.4205270">
        <ele>671.0</ele>
        <time>2019-05-11T10:12:41Z</time>
      </trkpt>
      <trkpt lat="39.1847330" lon="-1.4205760">
        <ele>671.0</ele>
        <time>2019-05-11T10:12:42Z</time>
      </trkpt>
      <trkpt lat="39.1846850" lon="-1.4206260">
        <ele>671.0</ele>
        <time>2019-05-11T10:12:43Z</time>
      </trkpt>
      <trkpt lat="39.1846360" lon="-1.4206760">
        <ele>671.0</ele>
        <time>2019-05-11T10:12:44Z</time>
      </trkpt>
      <trkpt lat="39.1845850" lon="-1.4207260">
        <ele>670.8</ele>
        <time>2019-05-11T10:12:45Z</time>
      </trkpt>
      <trkpt lat="39.1845300" lon="-1.4207660">
        <ele>670.6</ele>
        <time>2019-05-11T10:12:46Z</time>
      </trkpt>
      <trkpt lat="39.1844700" lon="-1.4207980">
        <ele>670.6</ele>
        <time>2019-05-11T10:12:47Z</time>
      </trkpt>
      <trkpt lat="39.1844110" lon="-1.4208300">
        <ele>670.6</ele>
        <time>2019-05-11T10:12:48Z</time>
      </trkpt>
      <trkpt lat="39.1843550" lon="-1.4208720">
        <ele>670.4</ele>
        <time>2019-05-11T10:12:49Z</time>
      </trkpt>
      <trkpt lat="39.1843060" lon="-1.4209260">
        <ele>670.4</ele>
        <time>2019-05-11T10:12:50Z</time>
      </trkpt>
      <trkpt lat="39.1842620" lon="-1.4209900">
        <ele>670.4</ele>
        <time>2019-05-11T10:12:51Z</time>
      </trkpt>
      <trkpt lat="39.1842210" lon="-1.4210590">
        <ele>670.4</ele>
        <time>2019-05-11T10:12:52Z</time>
      </trkpt>
      <trkpt lat="39.1841800" lon="-1.4211310">
        <ele>670.4</ele>
        <time>2019-05-11T10:12:53Z</time>
      </trkpt>
      <trkpt lat="39.1841400" lon="-1.4212050">
        <ele>670.2</ele>
        <time>2019-05-11T10:12:54Z</time>
      </trkpt>
      <trkpt lat="39.1840980" lon="-1.4212790">
        <ele>670.0</ele>
        <time>2019-05-11T10:12:55Z</time>
      </trkpt>
      <trkpt lat="39.1840550" lon="-1.4213510">
        <ele>670.0</ele>
        <time>2019-05-11T10:12:56Z</time>
      </trkpt>
      <trkpt lat="39.1840070" lon="-1.4214180">
        <ele>670.0</ele>
        <time>2019-05-11T10:12:57Z</time>
      </trkpt>
      <trkpt lat="39.1839550" lon="-1.4214800">
        <ele>669.8</ele>
        <time>2019-05-11T10:12:58Z</time>
      </trkpt>
      <trkpt lat="39.1839020" lon="-1.4215410">
        <ele>669.6</ele>
        <time>2019-05-11T10:12:59Z</time>
      </trkpt>
      <trkpt lat="39.1838500" lon="-1.4216060">
        <ele>669.2</ele>
        <time>2019-05-11T10:13:00Z</time>
      </trkpt>
      <trkpt lat="39.1838030" lon="-1.4216810">
        <ele>669.0</ele>
        <time>2019-05-11T10:13:01Z</time>
      </trkpt>
      <trkpt lat="39.1837670" lon="-1.4217650">
        <ele>668.6</ele>
        <time>2019-05-11T10:13:02Z</time>
      </trkpt>
      <trkpt lat="39.1837330" lon="-1.4218510">
        <ele>668.6</ele>
        <time>2019-05-11T10:13:03Z</time>
      </trkpt>
      <trkpt lat="39.1836920" lon="-1.4219320">
        <ele>668.4</ele>
        <time>2019-05-11T10:13:04Z</time>
      </trkpt>
      <trkpt lat="39.1836510" lon="-1.4220110">
        <ele>668.2</ele>
        <time>2019-05-11T10:13:05Z</time>
      </trkpt>
      <trkpt lat="39.1836130" lon="-1.4220930">
        <ele>668.0</ele>
        <time>2019-05-11T10:13:06Z</time>
      </trkpt>
      <trkpt lat="39.1835790" lon="-1.4221770">
        <ele>667.8</ele>
        <time>2019-05-11T10:13:07Z</time>
      </trkpt>
      <trkpt lat="39.1835480" lon="-1.4222610">
        <ele>667.8</ele>
        <time>2019-05-11T10:13:08Z</time>
      </trkpt>
      <trkpt lat="39.1835140" lon="-1.4223410">
        <ele>667.6</ele>
        <time>2019-05-11T10:13:09Z</time>
      </trkpt>
      <trkpt lat="39.1834710" lon="-1.4224110">
        <ele>667.6</ele>
        <time>2019-05-11T10:13:10Z</time>
      </trkpt>
      <trkpt lat="39.1834190" lon="-1.4224690">
        <ele>667.6</ele>
        <time>2019-05-11T10:13:11Z</time>
      </trkpt>
      <trkpt lat="39.1833630" lon="-1.4225110">
        <ele>667.6</ele>
        <time>2019-05-11T10:13:12Z</time>
      </trkpt>
      <trkpt lat="39.1833110" lon="-1.4225460">
        <ele>667.4</ele>
        <time>2019-05-11T10:13:13Z</time>
      </trkpt>
      <trkpt lat="39.1832620" lon="-1.4225800">
        <ele>667.4</ele>
        <time>2019-05-11T10:13:14Z</time>
      </trkpt>
      <trkpt lat="39.1832130" lon="-1.4226010">
        <ele>667.4</ele>
        <time>2019-05-11T10:13:15Z</time>
      </trkpt>
      <trkpt lat="39.1831700" lon="-1.4225930">
        <ele>667.2</ele>
        <time>2019-05-11T10:13:16Z</time>
      </trkpt>
      <trkpt lat="39.1831280" lon="-1.4225630">
        <ele>667.2</ele>
        <time>2019-05-11T10:13:17Z</time>
      </trkpt>
      <trkpt lat="39.1830840" lon="-1.4225350">
        <ele>667.2</ele>
        <time>2019-05-11T10:13:18Z</time>
      </trkpt>
      <trkpt lat="39.1830390" lon="-1.4225190">
        <ele>666.8</ele>
        <time>2019-05-11T10:13:19Z</time>
      </trkpt>
      <trkpt lat="39.1829980" lon="-1.4225130">
        <ele>666.8</ele>
        <time>2019-05-11T10:13:20Z</time>
      </trkpt>
      <trkpt lat="39.1829590" lon="-1.4225080">
        <ele>666.8</ele>
        <time>2019-05-11T10:13:21Z</time>
      </trkpt>
      <trkpt lat="39.1829200" lon="-1.4225030">
        <ele>666.8</ele>
        <time>2019-05-11T10:13:22Z</time>
      </trkpt>
      <trkpt lat="39.1828910" lon="-1.4225020">
        <ele>666.6</ele>
        <time>2019-05-11T10:13:23Z</time>
      </trkpt>
      <trkpt lat="39.1828880" lon="-1.4224990">
        <ele>666.4</ele>
        <time>2019-05-11T10:13:24Z</time>
      </trkpt>
      <trkpt lat="39.1828770" lon="-1.4224960">
        <ele>666.2</ele>
        <time>2019-05-11T10:13:25Z</time>
      </trkpt>
      <trkpt lat="39.1828610" lon="-1.4225070">
        <ele>666.0</ele>
        <time>2019-05-11T10:13:26Z</time>
      </trkpt>
      <trkpt lat="39.1828330" lon="-1.4224980">
        <ele>666.0</ele>
        <time>2019-05-11T10:13:27Z</time>
      </trkpt>
      <trkpt lat="39.1828060" lon="-1.4224770">
        <ele>666.0</ele>
        <time>2019-05-11T10:13:28Z</time>
      </trkpt>
      <trkpt lat="39.1827760" lon="-1.4224510">
        <ele>666.0</ele>
        <time>2019-05-11T10:13:29Z</time>
      </trkpt>
      <trkpt lat="39.1827460" lon="-1.4224280">
        <ele>666.0</ele>
        <time>2019-05-11T10:13:30Z</time>
      </trkpt>
      <trkpt lat="39.1827160" lon="-1.4224110">
        <ele>666.0</ele>
        <time>2019-05-11T10:13:31Z</time>
      </trkpt>
      <trkpt lat="39.1826940" lon="-1.4223950">
        <ele>666.0</ele>
        <time>2019-05-11T10:13:32Z</time>
      </trkpt>
      <trkpt lat="39.1826750" lon="-1.4223830">
        <ele>666.0</ele>
        <time>2019-05-11T10:13:33Z</time>
      </trkpt>
      <trkpt lat="39.1826600" lon="-1.4223670">
        <ele>666.0</ele>
        <time>2019-05-11T10:13:34Z</time>
      </trkpt>
      <trkpt lat="39.1826400" lon="-1.4223450">
        <ele>666.0</ele>
        <time>2019-05-11T10:13:35Z</time>
      </trkpt>
      <trkpt lat="39.1826140" lon="-1.4223230">
        <ele>666.0</ele>
        <time>2019-05-11T10:13:36Z</time>
      </trkpt>
      <trkpt lat="39.1825820" lon="-1.4223080">
        <ele>666.2</ele>
        <time>2019-05-11T10:13:37Z</time>
      </trkpt>
      <trkpt lat="39.1825490" lon="-1.4223000">
        <ele>666.6</ele>
        <time>2019-05-11T10:13:38Z</time>
      </trkpt>
      <trkpt lat="39.1825150" lon="-1.4222990">
        <ele>667.0</ele>
        <time>2019-05-11T10:13:39Z</time>
      </trkpt>
      <trkpt lat="39.1824830" lon="-1.4223000">
        <ele>667.6</ele>
        <time>2019-05-11T10:13:40Z</time>
      </trkpt>
      <trkpt lat="39.1824530" lon="-1.4223020">
        <ele>668.2</ele>
        <time>2019-05-11T10:13:41Z</time>
      </trkpt>
      <trkpt lat="39.1824220" lon="-1.4223050">
        <ele>668.4</ele>
        <time>2019-05-11T10:13:42Z</time>
      </trkpt>
      <trkpt lat="39.1823940" lon="-1.4223090">
        <ele>668.4</ele>
        <time>2019-05-11T10:13:43Z</time>
      </trkpt>
      <trkpt lat="39.1823670" lon="-1.4223150">
        <ele>668.8</ele>
        <time>2019-05-11T10:13:44Z</time>
      </trkpt>
      <trkpt lat="39.1823390" lon="-1.4223190">
        <ele>668.8</ele>
        <time>2019-05-11T10:13:45Z</time>
      </trkpt>
      <trkpt lat="39.1823100" lon="-1.4223230">
        <ele>669.2</ele>
        <time>2019-05-11T10:13:46Z</time>
      </trkpt>
      <trkpt lat="39.1822790" lon="-1.4223290">
        <ele>669.4</ele>
        <time>2019-05-11T10:13:47Z</time>
      </trkpt>
      <trkpt lat="39.1822490" lon="-1.4223330">
        <ele>669.6</ele>
        <time>2019-05-11T10:13:48Z</time>
      </trkpt>
      <trkpt lat="39.1822200" lon="-1.4223330">
        <ele>669.8</ele>
        <time>2019-05-11T10:13:49Z</time>
      </trkpt>
      <trkpt lat="39.1821920" lon="-1.4223280">
        <ele>670.0</ele>
        <time>2019-05-11T10:13:50Z</time>
      </trkpt>
      <trkpt lat="39.1821660" lon="-1.4223170">
        <ele>670.4</ele>
        <time>2019-05-11T10:13:51Z</time>
      </trkpt>
      <trkpt lat="39.1821470" lon="-1.4222990">
        <ele>670.6</ele>
        <time>2019-05-11T10:13:52Z</time>
      </trkpt>
      <trkpt lat="39.1821370" lon="-1.4222730">
        <ele>670.8</ele>
        <time>2019-05-11T10:13:53Z</time>
      </trkpt>
      <trkpt lat="39.1821390" lon="-1.4222460">
        <ele>671.2</ele>
        <time>2019-05-11T10:13:54Z</time>
      </trkpt>
      <trkpt lat="39.1821540" lon="-1.4222270">
        <ele>671.4</ele>
        <time>2019-05-11T10:13:55Z</time>
      </trkpt>
      <trkpt lat="39.1821770" lon="-1.4222160">
        <ele>671.6</ele>
        <time>2019-05-11T10:13:56Z</time>
      </trkpt>
      <trkpt lat="39.1822040" lon="-1.4222080">
        <ele>671.8</ele>
        <time>2019-05-11T10:13:57Z</time>
      </trkpt>
      <trkpt lat="39.1822330" lon="-1.4222020">
        <ele>672.0</ele>
        <time>2019-05-11T10:13:58Z</time>
      </trkpt>
      <trkpt lat="39.1822640" lon="-1.4221970">
        <ele>672.2</ele>
        <time>2019-05-11T10:13:59Z</time>
      </trkpt>
      <trkpt lat="39.1822970" lon="-1.4221900">
        <ele>672.4</ele>
        <time>2019-05-11T10:14:00Z</time>
      </trkpt>
      <trkpt lat="39.1823290" lon="-1.4221770">
        <ele>672.6</ele>
        <time>2019-05-11T10:14:01Z</time>
      </trkpt>
      <trkpt lat="39.1823580" lon="-1.4221570">
        <ele>673.0</ele>
        <time>2019-05-11T10:14:02Z</time>
      </trkpt>
      <trkpt lat="39.1823830" lon="-1.4221320">
        <ele>673.0</ele>
        <time>2019-05-11T10:14:03Z</time>
      </trkpt>
      <trkpt lat="39.1824050" lon="-1.4221030">
        <ele>673.4</ele>
        <time>2019-05-11T10:14:04Z</time>
      </trkpt>
      <trkpt lat="39.1824260" lon="-1.4220740">
        <ele>673.4</ele>
        <time>2019-05-11T10:14:05Z</time>
      </trkpt>
      <trkpt lat="39.1824490" lon="-1.4220430">
        <ele>673.6</ele>
        <time>2019-05-11T10:14:06Z</time>
      </trkpt>
      <trkpt lat="39.1824740" lon="-1.4220120">
        <ele>673.6</ele>
        <time>2019-05-11T10:14:07Z</time>
      </trkpt>
      <trkpt lat="39.1825010" lon="-1.4219780">
        <ele>673.8</ele>
        <time>2019-05-11T10:14:08Z</time>
      </trkpt>
      <trkpt lat="39.1825290" lon="-1.4219420">
        <ele>674.0</ele>
        <time>2019-05-11T10:14:09Z</time>
      </trkpt>
      <trkpt lat="39.1825590" lon="-1.4219030">
        <ele>674.2</ele>
        <time>2019-05-11T10:14:10Z</time>
      </trkpt>
      <trkpt lat="39.1825900" lon="-1.4218630">
        <ele>674.4</ele>
        <time>2019-05-11T10:14:11Z</time>
      </trkpt>
      <trkpt lat="39.1826190" lon="-1.4218210">
        <ele>674.6</ele>
        <time>2019-05-11T10:14:12Z</time>
      </trkpt>
      <trkpt lat="39.1826440" lon="-1.4217780">
        <ele>674.8</ele>
        <time>2019-05-11T10:14:13Z</time>
      </trkpt>
      <trkpt lat="39.1826640" lon="-1.4217300">
        <ele>674.8</ele>
        <time>2019-05-11T10:14:14Z</time>
      </trkpt>
      <trkpt lat="39.1826770" lon="-1.4216780">
        <ele>675.0</ele>
        <time>2019-05-11T10:14:15Z</time>
      </trkpt>
      <trkpt lat="39.1826800" lon="-1.4216210">
        <ele>675.0</ele>
        <time>2019-05-11T10:14:16Z</time>
      </trkpt>
      <trkpt lat="39.1826750" lon="-1.4215630">
        <ele>675.0</ele>
        <time>2019-05-11T10:14:17Z</time>
      </trkpt>
      <trkpt lat="39.1826610" lon="-1.4215110">
        <ele>675.0</ele>
        <time>2019-05-11T10:14:18Z</time>
      </trkpt>
      <trkpt lat="39.1826440" lon="-1.4214670">
        <ele>675.0</ele>
        <time>2019-05-11T10:14:19Z</time>
      </trkpt>
      <trkpt lat="39.1826260" lon="-1.4214250">
        <ele>675.0</ele>
        <time>2019-05-11T10:14:20Z</time>
      </trkpt>
      <trkpt lat="39.1826110" lon="-1.4213820">
        <ele>675.0</ele>
        <time>2019-05-11T10:14:21Z</time>
      </trkpt>
      <trkpt lat="39.1826000" lon="-1.4213340">
        <ele>675.0</ele>
        <time>2019-05-11T10:14:22Z</time>
      </trkpt>
      <trkpt lat="39.1825900" lon="-1.4212840">
        <ele>675.2</ele>
        <time>2019-05-11T10:14:23Z</time>
      </trkpt>
      <trkpt lat="39.1825820" lon="-1.4212310">
        <ele>675.2</ele>
        <time>2019-05-11T10:14:24Z</time>
      </trkpt>
      <trkpt lat="39.1825760" lon="-1.4211750">
        <ele>675.2</ele>
        <time>2019-05-11T10:14:25Z</time>
      </trkpt>
      <trkpt lat="39.1825700" lon="-1.4211160">
        <ele>675.2</ele>
        <time>2019-05-11T10:14:26Z</time>
      </trkpt>
      <trkpt lat="39.1825600" lon="-1.4210510">
        <ele>675.2</ele>
        <time>2019-05-11T10:14:27Z</time>
      </trkpt>
      <trkpt lat="39.1825440" lon="-1.4209750">
        <ele>675.2</ele>
        <time>2019-05-11T10:14:28Z</time>
      </trkpt>
      <trkpt lat="39.1825250" lon="-1.4208890">
        <ele>675.2</ele>
        <time>2019-05-11T10:14:29Z</time>
      </trkpt>
      <trkpt lat="39.1824990" lon="-1.4207960">
        <ele>675.0</ele>
        <time>2019-05-11T10:14:30Z</time>
      </trkpt>
      <trkpt lat="39.1824630" lon="-1.4207020">
        <ele>675.0</ele>
        <time>2019-05-11T10:14:31Z</time>
      </trkpt>
      <trkpt lat="39.1824240" lon="-1.4206100">
        <ele>675.0</ele>
        <time>2019-05-11T10:14:32Z</time>
      </trkpt>
      <trkpt lat="39.1823840" lon="-1.4205180">
        <ele>675.0</ele>
        <time>2019-05-11T10:14:33Z</time>
      </trkpt>
      <trkpt lat="39.1823420" lon="-1.4204290">
        <ele>675.0</ele>
        <time>2019-05-11T10:14:34Z</time>
      </trkpt>
      <trkpt lat="39.1823040" lon="-1.4203450">
        <ele>675.0</ele>
        <time>2019-05-11T10:14:35Z</time>
      </trkpt>
      <trkpt lat="39.1822720" lon="-1.4202610">
        <ele>674.6</ele>
        <time>2019-05-11T10:14:36Z</time>
      </trkpt>
      <trkpt lat="39.1822470" lon="-1.4201760">
        <ele>674.2</ele>
        <time>2019-05-11T10:14:37Z</time>
      </trkpt>
      <trkpt lat="39.1822310" lon="-1.4200880">
        <ele>673.6</ele>
        <time>2019-05-11T10:14:38Z</time>
      </trkpt>
      <trkpt lat="39.1822220" lon="-1.4200000">
        <ele>673.0</ele>
        <time>2019-05-11T10:14:39Z</time>
      </trkpt>
      <trkpt lat="39.1822240" lon="-1.4199100">
        <ele>672.6</ele>
        <time>2019-05-11T10:14:40Z</time>
      </trkpt>
      <trkpt lat="39.1822380" lon="-1.4198250">
        <ele>672.4</ele>
        <time>2019-05-11T10:14:41Z</time>
      </trkpt>
      <trkpt lat="39.1822630" lon="-1.4197470">
        <ele>672.2</ele>
        <time>2019-05-11T10:14:42Z</time>
      </trkpt>
      <trkpt lat="39.1822970" lon="-1.4196790">
        <ele>672.2</ele>
        <time>2019-05-11T10:14:43Z</time>
      </trkpt>
      <trkpt lat="39.1823360" lon="-1.4196220">
        <ele>672.2</ele>
        <time>2019-05-11T10:14:44Z</time>
      </trkpt>
      <trkpt lat="39.1823820" lon="-1.4195810">
        <ele>672.0</ele>
        <time>2019-05-11T10:14:45Z</time>
      </trkpt>
      <trkpt lat="39.1824270" lon="-1.4195530">
        <ele>672.0</ele>
        <time>2019-05-11T10:14:46Z</time>
      </trkpt>
      <trkpt lat="39.1824630" lon="-1.4195260">
        <ele>672.0</ele>
        <time>2019-05-11T10:14:47Z</time>
      </trkpt>
      <trkpt lat="39.1824840" lon="-1.4194920">
        <ele>672.0</ele>
        <time>2019-05-11T10:14:48Z</time>
      </trkpt>
      <trkpt lat="39.1824870" lon="-1.4194560">
        <ele>672.0</ele>
        <time>2019-05-11T10:14:49Z</time>
      </trkpt>
      <trkpt lat="39.1824790" lon="-1.4194240">
        <ele>672.0</ele>
        <time>2019-05-11T10:14:50Z</time>
      </trkpt>
      <trkpt lat="39.1824660" lon="-1.4193950">
        <ele>672.0</ele>
        <time>2019-05-11T10:14:51Z</time>
      </trkpt>
      <trkpt lat="39.1824530" lon="-1.4193650">
        <ele>672.0</ele>
        <time>2019-05-11T10:14:52Z</time>
      </trkpt>
      <trkpt lat="39.1824390" lon="-1.4193370">
        <ele>672.0</ele>
        <time>2019-05-11T10:14:53Z</time>
      </trkpt>
      <trkpt lat="39.1824260" lon="-1.4193040">
        <ele>672.0</ele>
        <time>2019-05-11T10:14:54Z</time>
      </trkpt>
      <trkpt lat="39.1824120" lon="-1.4192680">
        <ele>672.0</ele>
        <time>2019-05-11T10:14:55Z</time>
      </trkpt>
      <trkpt lat="39.1823970" lon="-1.4192350">
        <ele>672.2</ele>
        <time>2019-05-11T10:14:56Z</time>
      </trkpt>
      <trkpt lat="39.1823810" lon="-1.4192030">
        <ele>672.4</ele>
        <time>2019-05-11T10:14:57Z</time>
      </trkpt>
      <trkpt lat="39.1823670" lon="-1.4191720">
        <ele>672.4</ele>
        <time>2019-05-11T10:14:58Z</time>
      </trkpt>
      <trkpt lat="39.1823520" lon="-1.4191400">
        <ele>672.6</ele>
        <time>2019-05-11T10:14:59Z</time>
      </trkpt>
      <trkpt lat="39.1823380" lon="-1.4191050">
        <ele>672.6</ele>
        <time>2019-05-11T10:15:00Z</time>
      </trkpt>
      <trkpt lat="39.1823210" lon="-1.4190700">
        <ele>672.8</ele>
        <time>2019-05-11T10:15:01Z</time>
      </trkpt>
      <trkpt lat="39.1823060" lon="-1.4190340">
        <ele>673.0</ele>
        <time>2019-05-11T10:15:02Z</time>
      </trkpt>
      <trkpt lat="39.1822910" lon="-1.4189960">
        <ele>673.4</ele>
        <time>2019-05-11T10:15:03Z</time>
      </trkpt>
      <trkpt lat="39.1822780" lon="-1.4189560">
        <ele>673.8</ele>
        <time>2019-05-11T10:15:04Z</time>
      </trkpt>
      <trkpt lat="39.1822680" lon="-1.4189150">
        <ele>674.0</ele>
        <time>2019-05-11T10:15:05Z</time>
      </trkpt>
      <trkpt lat="39.1822590" lon="-1.4188740">
        <ele>674.2</ele>
        <time>2019-05-11T10:15:06Z</time>
      </trkpt>
      <trkpt lat="39.1822520" lon="-1.4188320">
        <ele>674.4</ele>
        <time>2019-05-11T10:15:07Z</time>
      </trkpt>
      <trkpt lat="39.1822490" lon="-1.4187890">
        <ele>674.6</ele>
        <time>2019-05-11T10:15:08Z</time>
      </trkpt>
      <trkpt lat="39.1822450" lon="-1.4187460">
        <ele>674.8</ele>
        <time>2019-05-11T10:15:09Z</time>
      </trkpt>
      <trkpt lat="39.1822420" lon="-1.4187040">
        <ele>675.0</ele>
        <time>2019-05-11T10:15:10Z</time>
      </trkpt>
      <trkpt lat="39.1822400" lon="-1.4186610">
        <ele>675.0</ele>
        <time>2019-05-11T10:15:11Z</time>
      </trkpt>
      <trkpt lat="39.1822370" lon="-1.4186180">
        <ele>675.2</ele>
        <time>2019-05-11T10:15:12Z</time>
      </trkpt>
      <trkpt lat="39.1822320" lon="-1.4185750">
        <ele>675.2</ele>
        <time>2019-05-11T10:15:13Z</time>
      </trkpt>
      <trkpt lat="39.1822260" lon="-1.4185340">
        <ele>675.4</ele>
        <time>2019-05-11T10:15:14Z</time>
      </trkpt>
      <trkpt lat="39.1822150" lon="-1.4184950">
        <ele>675.4</ele>
        <time>2019-05-11T10:15:15Z</time>
      </trkpt>
      <trkpt lat="39.1822010" lon="-1.4184580">
        <ele>675.6</ele>
        <time>2019-05-11T10:15:16Z</time>
      </trkpt>
      <trkpt lat="39.1821870" lon="-1.4184220">
        <ele>675.8</ele>
        <time>2019-05-11T10:15:17Z</time>
      </trkpt>
      <trkpt lat="39.1821730" lon="-1.4183880">
        <ele>676.0</ele>
        <time>2019-05-11T10:15:18Z</time>
      </trkpt>
      <trkpt lat="39.1821580" lon="-1.4183560">
        <ele>676.2</ele>
        <time>2019-05-11T10:15:19Z</time>
      </trkpt>
      <trkpt lat="39.1821420" lon="-1.4183250">
        <ele>676.4</ele>
        <time>2019-05-11T10:15:20Z</time>
      </trkpt>
      <trkpt lat="39.1821260" lon="-1.4182950">
        <ele>676.4</ele>
        <time>2019-05-11T10:15:21Z</time>
      </trkpt>
      <trkpt lat="39.1821090" lon="-1.4182650">
        <ele>676.6</ele>
        <time>2019-05-11T10:15:22Z</time>
      </trkpt>
      <trkpt lat="39.1820900" lon="-1.4182350">
        <ele>676.6</ele>
        <time>2019-05-11T10:15:23Z</time>
      </trkpt>
      <trkpt lat="39.1820710" lon="-1.4182040">
        <ele>676.8</ele>
        <time>2019-05-11T10:15:24Z</time>
      </trkpt>
      <trkpt lat="39.1820510" lon="-1.4181730">
        <ele>676.8</ele>
        <time>2019-05-11T10:15:25Z</time>
      </trkpt>
      <trkpt lat="39.1820300" lon="-1.4181410">
        <ele>677.2</ele>
        <time>2019-05-11T10:15:26Z</time>
      </trkpt>
      <trkpt lat="39.1820100" lon="-1.4181060">
        <ele>677.4</ele>
        <time>2019-05-11T10:15:27Z</time>
      </trkpt>
      <trkpt lat="39.1819890" lon="-1.4180720">
        <ele>677.6</ele>
        <time>2019-05-11T10:15:28Z</time>
      </trkpt>
      <trkpt lat="39.1819670" lon="-1.4180380">
        <ele>677.8</ele>
        <time>2019-05-11T10:15:29Z</time>
      </trkpt>
      <trkpt lat="39.1819430" lon="-1.4180030">
        <ele>678.0</ele>
        <time>2019-05-11T10:15:30Z</time>
      </trkpt>
      <trkpt lat="39.1819160" lon="-1.4179680">
        <ele>678.2</ele>
        <time>2019-05-11T10:15:31Z</time>
      </trkpt>
      <trkpt lat="39.1818880" lon="-1.4179360">
        <ele>678.2</ele>
        <time>2019-05-11T10:15:32Z</time>
      </trkpt>
      <trkpt lat="39.1818590" lon="-1.4179050">
        <ele>678.4</ele>
        <time>2019-05-11T10:15:33Z</time>
      </trkpt>
      <trkpt lat="39.1818280" lon="-1.4178750">
        <ele>678.6</ele>
        <time>2019-05-11T10:15:34Z</time>
      </trkpt>
      <trkpt lat="39.1817970" lon="-1.4178450">
        <ele>678.6</ele>
        <time>2019-05-11T10:15:35Z</time>
      </trkpt>
      <trkpt lat="39.1817660" lon="-1.4178150">
        <ele>678.8</ele>
        <time>2019-05-11T10:15:36Z</time>
      </trkpt>
      <trkpt lat="39.1817370" lon="-1.4177830">
        <ele>678.8</ele>
        <time>2019-05-11T10:15:37Z</time>
      </trkpt>
      <trkpt lat="39.1817090" lon="-1.4177530">
        <ele>679.0</ele>
        <time>2019-05-11T10:15:38Z</time>
      </trkpt>
      <trkpt lat="39.1816820" lon="-1.4177210">
        <ele>679.0</ele>
        <time>2019-05-11T10:15:39Z</time>
      </trkpt>
      <trkpt lat="39.1816570" lon="-1.4176900">
        <ele>679.2</ele>
        <time>2019-05-11T10:15:40Z</time>
      </trkpt>
      <trkpt lat="39.1816330" lon="-1.4176600">
        <ele>679.4</ele>
        <time>2019-05-11T10:15:41Z</time>
      </trkpt>
      <trkpt lat="39.1816090" lon="-1.4176310">
        <ele>679.4</ele>
        <time>2019-05-11T10:15:42Z</time>
      </trkpt>
      <trkpt lat="39.1815840" lon="-1.4176040">
        <ele>679.4</ele>
        <time>2019-05-11T10:15:43Z</time>
      </trkpt>
      <trkpt lat="39.1815590" lon="-1.4175760">
        <ele>679.6</ele>
        <time>2019-05-11T10:15:44Z</time>
      </trkpt>
      <trkpt lat="39.1815320" lon="-1.4175470">
        <ele>679.6</ele>
        <time>2019-05-11T10:15:45Z</time>
      </trkpt>
      <trkpt lat="39.1815060" lon="-1.4175150">
        <ele>679.8</ele>
        <time>2019-05-11T10:15:46Z</time>
      </trkpt>
      <trkpt lat="39.1814790" lon="-1.4174820">
        <ele>680.0</ele>
        <time>2019-05-11T10:15:47Z</time>
      </trkpt>
      <trkpt lat="39.1814520" lon="-1.4174470">
        <ele>680.2</ele>
        <time>2019-05-11T10:15:48Z</time>
      </trkpt>
      <trkpt lat="39.1814240" lon="-1.4174140">
        <ele>680.4</ele>
        <time>2019-05-11T10:15:49Z</time>
      </trkpt>
      <trkpt lat="39.1813960" lon="-1.4173810">
        <ele>680.8</ele>
        <time>2019-05-11T10:15:50Z</time>
      </trkpt>
      <trkpt lat="39.1813690" lon="-1.4173450">
        <ele>681.0</ele>
        <time>2019-05-11T10:15:51Z</time>
      </trkpt>
      <trkpt lat="39.1813450" lon="-1.4173060">
        <ele>681.2</ele>
        <time>2019-05-11T10:15:52Z</time>
      </trkpt>
      <trkpt lat="39.1813200" lon="-1.4172670">
        <ele>681.4</ele>
        <time>2019-05-11T10:15:53Z</time>
      </trkpt>
      <trkpt lat="39.1812940" lon="-1.4172260">
        <ele>681.6</ele>
        <time>2019-05-11T10:15:54Z</time>
      </trkpt>
      <trkpt lat="39.1812690" lon="-1.4171830">
        <ele>681.8</ele>
        <time>2019-05-11T10:15:55Z</time>
      </trkpt>
      <trkpt lat="39.1812440" lon="-1.4171390">
        <ele>681.8</ele>
        <time>2019-05-11T10:15:56Z</time>
      </trkpt>
      <trkpt lat="39.1812190" lon="-1.4170930">
        <ele>682.2</ele>
        <time>2019-05-11T10:15:57Z</time>
      </trkpt>
      <trkpt lat="39.1811930" lon="-1.4170460">
        <ele>682.4</ele>
        <time>2019-05-11T10:15:58Z</time>
      </trkpt>
      <trkpt lat="39.1811660" lon="-1.4169990">
        <ele>682.4</ele>
        <time>2019-05-11T10:15:59Z</time>
      </trkpt>
      <trkpt lat="39.1811400" lon="-1.4169510">
        <ele>682.4</ele>
        <time>2019-05-11T10:16:00Z</time>
      </trkpt>
      <trkpt lat="39.1811140" lon="-1.4169020">
        <ele>682.6</ele>
        <time>2019-05-11T10:16:01Z</time>
      </trkpt>
      <trkpt lat="39.1810880" lon="-1.4168530">
        <ele>682.6</ele>
        <time>2019-05-11T10:16:02Z</time>
      </trkpt>
      <trkpt lat="39.1810610" lon="-1.4168030">
        <ele>682.8</ele>
        <time>2019-05-11T10:16:03Z</time>
      </trkpt>
      <trkpt lat="39.1810340" lon="-1.4167540">
        <ele>682.8</ele>
        <time>2019-05-11T10:16:04Z</time>
      </trkpt>
      <trkpt lat="39.1810080" lon="-1.4167040">
        <ele>683.0</ele>
        <time>2019-05-11T10:16:05Z</time>
      </trkpt>
      <trkpt lat="39.1809810" lon="-1.4166540">
        <ele>683.0</ele>
        <time>2019-05-11T10:16:06Z</time>
      </trkpt>
      <trkpt lat="39.1809550" lon="-1.4166030">
        <ele>683.0</ele>
        <time>2019-05-11T10:16:07Z</time>
      </trkpt>
      <trkpt lat="39.1809300" lon="-1.4165530">
        <ele>683.0</ele>
        <time>2019-05-11T10:16:08Z</time>
      </trkpt>
      <trkpt lat="39.1809040" lon="-1.4165050">
        <ele>683.2</ele>
        <time>2019-05-11T10:16:09Z</time>
      </trkpt>
      <trkpt lat="39.1808800" lon="-1.4164570">
        <ele>683.4</ele>
        <time>2019-05-11T10:16:10Z</time>
      </trkpt>
      <trkpt lat="39.1808580" lon="-1.4164100">
        <ele>683.4</ele>
        <time>2019-05-11T10:16:11Z</time>
      </trkpt>
      <trkpt lat="39.1808360" lon="-1.4163650">
        <ele>683.6</ele>
        <time>2019-05-11T10:16:12Z</time>
      </trkpt>
      <trkpt lat="39.1808160" lon="-1.4163220">
        <ele>683.8</ele>
        <time>2019-05-11T10:16:13Z</time>
      </trkpt>
      <trkpt lat="39.1807990" lon="-1.4162810">
        <ele>683.8</ele>
        <time>2019-05-11T10:16:14Z</time>
      </trkpt>
      <trkpt lat="39.1807830" lon="-1.4162420">
        <ele>684.0</ele>
        <time>2019-05-11T10:16:15Z</time>
      </trkpt>
      <trkpt lat="39.1807680" lon="-1.4162040">
        <ele>684.2</ele>
        <time>2019-05-11T10:16:16Z</time>
      </trkpt>
      <trkpt lat="39.1807540" lon="-1.4161670">
        <ele>684.4</ele>
        <time>2019-05-11T10:16:17Z</time>
      </trkpt>
      <trkpt lat="39.1807410" lon="-1.4161290">
        <ele>684.6</ele>
        <time>2019-05-11T10:16:18Z</time>
      </trkpt>
      <trkpt lat="39.1807280" lon="-1.4160900">
        <ele>684.8</ele>
        <time>2019-05-11T10:16:19Z</time>
      </trkpt>
      <trkpt lat="39.1807150" lon="-1.4160500">
        <ele>685.2</ele>
        <time>2019-05-11T10:16:20Z</time>
      </trkpt>
      <trkpt lat="39.1807010" lon="-1.4160090">
        <ele>685.4</ele>
        <time>2019-05-11T10:16:21Z</time>
      </trkpt>
      <trkpt lat="39.1806880" lon="-1.4159680">
        <ele>685.8</ele>
        <time>2019-05-11T10:16:22Z</time>
      </trkpt>
      <trkpt lat="39.1806750" lon="-1.4159270">
        <ele>686.2</ele>
        <time>2019-05-11T10:16:23Z</time>
      </trkpt>
      <trkpt lat="39.1806620" lon="-1.4158840">
        <ele>686.4</ele>
        <time>2019-05-11T10:16:24Z</time>
      </trkpt>
      <trkpt lat="39.1806480" lon="-1.4158400">
        <ele>686.8</ele>
        <time>2019-05-11T10:16:25Z</time>
      </trkpt>
      <trkpt lat="39.1806320" lon="-1.4157950">
        <ele>687.0</ele>
        <time>2019-05-11T10:16:26Z</time>
      </trkpt>
      <trkpt lat="39.1806170" lon="-1.4157470">
        <ele>687.2</ele>
        <time>2019-05-11T10:16:27Z</time>
      </trkpt>
      <trkpt lat="39.1806030" lon="-1.4156990">
        <ele>687.4</ele>
        <time>2019-05-11T10:16:28Z</time>
      </trkpt>
      <trkpt lat="39.1805870" lon="-1.4156500">
        <ele>687.8</ele>
        <time>2019-05-11T10:16:29Z</time>
      </trkpt>
      <trkpt lat="39.1805710" lon="-1.4155990">
        <ele>688.0</ele>
        <time>2019-05-11T10:16:30Z</time>
      </trkpt>
      <trkpt lat="39.1805520" lon="-1.4155460">
        <ele>688.2</ele>
        <time>2019-05-11T10:16:31Z</time>
      </trkpt>
      <trkpt lat="39.1805300" lon="-1.4154930">
        <ele>688.2</ele>
        <time>2019-05-11T10:16:32Z</time>
      </trkpt>
      <trkpt lat="39.1805070" lon="-1.4154420">
        <ele>688.2</ele>
        <time>2019-05-11T10:16:33Z</time>
      </trkpt>
      <trkpt lat="39.1804840" lon="-1.4153890">
        <ele>688.4</ele>
        <time>2019-05-11T10:16:34Z</time>
      </trkpt>
      <trkpt lat="39.1804610" lon="-1.4153370">
        <ele>688.4</ele>
        <time>2019-05-11T10:16:35Z</time>
      </trkpt>
      <trkpt lat="39.1804360" lon="-1.4152850">
        <ele>688.4</ele>
        <time>2019-05-11T10:16:36Z</time>
      </trkpt>
      <trkpt lat="39.1804100" lon="-1.4152320">
        <ele>688.6</ele>
        <time>2019-05-11T10:16:37Z</time>
      </trkpt>
      <trkpt lat="39.1803840" lon="-1.4151780">
        <ele>688.6</ele>
        <time>2019-05-11T10:16:38Z</time>
      </trkpt>
      <trkpt lat="39.1803580" lon="-1.4151220">
        <ele>688.6</ele>
        <time>2019-05-11T10:16:39Z</time>
      </trkpt>
      <trkpt lat="39.1803330" lon="-1.4150660">
        <ele>688.6</ele>
        <time>2019-05-11T10:16:40Z</time>
      </trkpt>
      <trkpt lat="39.1803060" lon="-1.4150120">
        <ele>688.6</ele>
        <time>2019-05-11T10:16:41Z</time>
      </trkpt>
      <trkpt lat="39.1802800" lon="-1.4149600">
        <ele>688.6</ele>
        <time>2019-05-11T10:16:42Z</time>
      </trkpt>
      <trkpt lat="39.1802530" lon="-1.4149090">
        <ele>688.6</ele>
        <time>2019-05-11T10:16:43Z</time>
      </trkpt>
      <trkpt lat="39.1802270" lon="-1.4148570">
        <ele>688.6</ele>
        <time>2019-05-11T10:16:44Z</time>
      </trkpt>
      <trkpt lat="39.1802010" lon="-1.4148040">
        <ele>688.8</ele>
        <time>2019-05-11T10:16:45Z</time>
      </trkpt>
      <trkpt lat="39.1801760" lon="-1.4147480">
        <ele>688.8</ele>
        <time>2019-05-11T10:16:46Z</time>
      </trkpt>
      <trkpt lat="39.1801490" lon="-1.4146870">
        <ele>688.8</ele>
        <time>2019-05-11T10:16:47Z</time>
      </trkpt>
      <trkpt lat="39.1801160" lon="-1.4146260">
        <ele>688.8</ele>
        <time>2019-05-11T10:16:48Z</time>
      </trkpt>
      <trkpt lat="39.1800800" lon="-1.4145610">
        <ele>688.8</ele>
        <time>2019-05-11T10:16:49Z</time>
      </trkpt>
      <trkpt lat="39.1800410" lon="-1.4144940">
        <ele>688.8</ele>
        <time>2019-05-11T10:16:50Z</time>
      </trkpt>
      <trkpt lat="39.1800010" lon="-1.4144250">
        <ele>688.8</ele>
        <time>2019-05-11T10:16:51Z</time>
      </trkpt>
      <trkpt lat="39.1799630" lon="-1.4143540">
        <ele>688.8</ele>
        <time>2019-05-11T10:16:52Z</time>
      </trkpt>
      <trkpt lat="39.1799240" lon="-1.4142780">
        <ele>688.8</ele>
        <time>2019-05-11T10:16:53Z</time>
      </trkpt>
      <trkpt lat="39.1798810" lon="-1.4141970">
        <ele>688.8</ele>
        <time>2019-05-11T10:16:54Z</time>
      </trkpt>
      <trkpt lat="39.1798380" lon="-1.4141120">
        <ele>688.8</ele>
        <time>2019-05-11T10:16:55Z</time>
      </trkpt>
      <trkpt lat="39.1797950" lon="-1.4140230">
        <ele>688.8</ele>
        <time>2019-05-11T10:16:56Z</time>
      </trkpt>
      <trkpt lat="39.1797520" lon="-1.4139300">
        <ele>688.6</ele>
        <time>2019-05-11T10:16:57Z</time>
      </trkpt>
      <trkpt lat="39.1797120" lon="-1.4138310">
        <ele>688.2</ele>
        <time>2019-05-11T10:16:58Z</time>
      </trkpt>
      <trkpt lat="39.1796790" lon="-1.4137260">
        <ele>688.2</ele>
        <time>2019-05-11T10:16:59Z</time>
      </trkpt>
      <trkpt lat="39.1796530" lon="-1.4136180">
        <ele>688.0</ele>
        <time>2019-05-11T10:17:00Z</time>
      </trkpt>
      <trkpt lat="39.1796290" lon="-1.4135060">
        <ele>687.6</ele>
        <time>2019-05-11T10:17:01Z</time>
      </trkpt>
      <trkpt lat="39.1796080" lon="-1.4133890">
        <ele>687.0</ele>
        <time>2019-05-11T10:17:02Z</time>
      </trkpt>
      <trkpt lat="39.1795930" lon="-1.4132680">
        <ele>686.4</ele>
        <time>2019-05-11T10:17:03Z</time>
      </trkpt>
      <trkpt lat="39.1795800" lon="-1.4131440">
        <ele>686.2</ele>
        <time>2019-05-11T10:17:04Z</time>
      </trkpt>
      <trkpt lat="39.1795690" lon="-1.4130210">
        <ele>685.6</ele>
        <time>2019-05-11T10:17:05Z</time>
      </trkpt>
      <trkpt lat="39.1795580" lon="-1.4128970">
        <ele>685.2</ele>
        <time>2019-05-11T10:17:06Z</time>
      </trkpt>
      <trkpt lat="39.1795440" lon="-1.4127720">
        <ele>684.8</ele>
        <time>2019-05-11T10:17:07Z</time>
      </trkpt>
      <trkpt lat="39.1795260" lon="-1.4126480">
        <ele>684.6</ele>
        <time>2019-05-11T10:17:08Z</time>
      </trkpt>
      <trkpt lat="39.1795020" lon="-1.4125280">
        <ele>684.0</ele>
        <time>2019-05-11T10:17:09Z</time>
      </trkpt>
      <trkpt lat="39.1794730" lon="-1.4124120">
        <ele>683.6</ele>
        <time>2019-05-11T10:17:10Z</time>
      </trkpt>
      <trkpt lat="39.1794410" lon="-1.4123010">
        <ele>683.2</ele>
        <time>2019-05-11T10:17:11Z</time>
      </trkpt>
      <trkpt lat="39.1794170" lon="-1.4121910">
        <ele>682.6</ele>
        <time>2019-05-11T10:17:12Z</time>
      </trkpt>
      <trkpt lat="39.1794030" lon="-1.4120810">
        <ele>681.8</ele>
        <time>2019-05-11T10:17:13Z</time>
      </trkpt>
      <trkpt lat="39.1793910" lon="-1.4119750">
        <ele>680.8</ele>
        <time>2019-05-11T10:17:14Z</time>
      </trkpt>
      <trkpt lat="39.1793730" lon="-1.4118700">
        <ele>680.2</ele>
        <time>2019-05-11T10:17:15Z</time>
      </trkpt>
      <trkpt lat="39.1793500" lon="-1.4117660">
        <ele>679.8</ele>
        <time>2019-05-11T10:17:16Z</time>
      </trkpt>
      <trkpt lat="39.1793240" lon="-1.4116580">
        <ele>679.4</ele>
        <time>2019-05-11T10:17:17Z</time>
      </trkpt>
      <trkpt lat="39.1793000" lon="-1.4115480">
        <ele>679.2</ele>
        <time>2019-05-11T10:17:18Z</time>
      </trkpt>
      <trkpt lat="39.1792860" lon="-1.4114410">
        <ele>678.6</ele>
        <time>2019-05-11T10:17:19Z</time>
      </trkpt>
      <trkpt lat="39.1792850" lon="-1.4113350">
        <ele>678.2</ele>
        <time>2019-05-11T10:17:20Z</time>
      </trkpt>
      <trkpt lat="39.1793030" lon="-1.4112330">
        <ele>678.0</ele>
        <time>2019-05-11T10:17:21Z</time>
      </trkpt>
      <trkpt lat="39.1793370" lon="-1.4111420">
        <ele>677.8</ele>
        <time>2019-05-11T10:17:22Z</time>
      </trkpt>
      <trkpt lat="39.1793860" lon="-1.4110630">
        <ele>677.8</ele>
        <time>2019-05-11T10:17:23Z</time>
      </trkpt>
      <trkpt lat="39.1794400" lon="-1.4109930">
        <ele>677.6</ele>
        <time>2019-05-11T10:17:24Z</time>
      </trkpt>
      <trkpt lat="39.1794890" lon="-1.4109230">
        <ele>677.4</ele>
        <time>2019-05-11T10:17:25Z</time>
      </trkpt>
      <trkpt lat="39.1795350" lon="-1.4108510">
        <ele>677.2</ele>
        <time>2019-05-11T10:17:26Z</time>
      </trkpt>
      <trkpt lat="39.1795800" lon="-1.4107820">
        <ele>677.0</ele>
        <time>2019-05-11T10:17:27Z</time>
      </trkpt>
      <trkpt lat="39.1796230" lon="-1.4107140">
        <ele>677.0</ele>
        <time>2019-05-11T10:17:28Z</time>
      </trkpt>
      <trkpt lat="39.1796660" lon="-1.4106470">
        <ele>677.0</ele>
        <time>2019-05-11T10:17:29Z</time>
      </trkpt>
      <trkpt lat="39.1797100" lon="-1.4105810">
        <ele>677.0</ele>
        <time>2019-05-11T10:17:30Z</time>
      </trkpt>
      <trkpt lat="39.1797550" lon="-1.4105160">
        <ele>677.0</ele>
        <time>2019-05-11T10:17:31Z</time>
      </trkpt>
      <trkpt lat="39.1797990" lon="-1.4104520">
        <ele>677.0</ele>
        <time>2019-05-11T10:17:32Z</time>
      </trkpt>
      <trkpt lat="39.1798430" lon="-1.4103880">
        <ele>677.0</ele>
        <time>2019-05-11T10:17:33Z</time>
      </trkpt>
      <trkpt lat="39.1798850" lon="-1.4103240">
        <ele>677.0</ele>
        <time>2019-05-11T10:17:34Z</time>
      </trkpt>
      <trkpt lat="39.1799260" lon="-1.4102600">
        <ele>677.2</ele>
        <time>2019-05-11T10:17:35Z</time>
      </trkpt>
      <trkpt lat="39.1799690" lon="-1.4101960">
        <ele>677.2</ele>
        <time>2019-05-11T10:17:36Z</time>
      </trkpt>
      <trkpt lat="39.1800130" lon="-1.4101290">
        <ele>677.2</ele>
        <time>2019-05-11T10:17:37Z</time>
      </trkpt>
      <trkpt lat="39.1800570" lon="-1.4100590">
        <ele>677.2</ele>
        <time>2019-05-11T10:17:38Z</time>
      </trkpt>
      <trkpt lat="39.1801020" lon="-1.4099870">
        <ele>677.2</ele>
        <time>2019-05-11T10:17:39Z</time>
      </trkpt>
      <trkpt lat="39.1801490" lon="-1.4099130">
        <ele>677.2</ele>
        <time>2019-05-11T10:17:40Z</time>
      </trkpt>
      <trkpt lat="39.1801970" lon="-1.4098370">
        <ele>677.2</ele>
        <time>2019-05-11T10:17:41Z</time>
      </trkpt>
      <trkpt lat="39.1802440" lon="-1.4097570">
        <ele>677.2</ele>
        <time>2019-05-11T10:17:42Z</time>
      </trkpt>
      <trkpt lat="39.1802910" lon="-1.4096760">
        <ele>677.2</ele>
        <time>2019-05-11T10:17:43Z</time>
      </trkpt>
      <trkpt lat="39.1803370" lon="-1.4095910">
        <ele>677.2</ele>
        <time>2019-05-11T10:17:44Z</time>
      </trkpt>
      <trkpt lat="39.1803800" lon="-1.4095020">
        <ele>677.2</ele>
        <time>2019-05-11T10:17:45Z</time>
      </trkpt>
      <trkpt lat="39.1804180" lon="-1.4094080">
        <ele>677.2</ele>
        <time>2019-05-11T10:17:46Z</time>
      </trkpt>
      <trkpt lat="39.1804490" lon="-1.4093100">
        <ele>677.2</ele>
        <time>2019-05-11T10:17:47Z</time>
      </trkpt>
      <trkpt lat="39.1804760" lon="-1.4092090">
        <ele>677.2</ele>
        <time>2019-05-11T10:17:48Z</time>
      </trkpt>
      <trkpt lat="39.1805020" lon="-1.4091070">
        <ele>677.2</ele>
        <time>2019-05-11T10:17:49Z</time>
      </trkpt>
      <trkpt lat="39.1805270" lon="-1.4090030">
        <ele>677.0</ele>
        <time>2019-05-11T10:17:50Z</time>
      </trkpt>
      <trkpt lat="39.1805450" lon="-1.4088970">
        <ele>677.0</ele>
        <time>2019-05-11T10:17:51Z</time>
      </trkpt>
      <trkpt lat="39.1805570" lon="-1.4087900">
        <ele>677.0</ele>
        <time>2019-05-11T10:17:52Z</time>
      </trkpt>
      <trkpt lat="39.1805690" lon="-1.4086840">
        <ele>676.8</ele>
        <time>2019-05-11T10:17:53Z</time>
      </trkpt>
      <trkpt lat="39.1805810" lon="-1.4085790">
        <ele>676.8</ele>
        <time>2019-05-11T10:17:54Z</time>
      </trkpt>
      <trkpt lat="39.1805960" lon="-1.4084770">
        <ele>676.8</ele>
        <time>2019-05-11T10:17:55Z</time>
      </trkpt>
      <trkpt lat="39.1806190" lon="-1.4083790">
        <ele>676.2</ele>
        <time>2019-05-11T10:17:56Z</time>
      </trkpt>
      <trkpt lat="39.1806490" lon="-1.4082850">
        <ele>676.0</ele>
        <time>2019-05-11T10:17:57Z</time>
      </trkpt>
      <trkpt lat="39.1806860" lon="-1.4081970">
        <ele>675.8</ele>
        <time>2019-05-11T10:17:58Z</time>
      </trkpt>
      <trkpt lat="39.1807300" lon="-1.4081170">
        <ele>675.4</ele>
        <time>2019-05-11T10:17:59Z</time>
      </trkpt>
      <trkpt lat="39.1807780" lon="-1.4080420">
        <ele>675.0</ele>
        <time>2019-05-11T10:18:00Z</time>
      </trkpt>
      <trkpt lat="39.1808290" lon="-1.4079760">
        <ele>674.8</ele>
        <time>2019-05-11T10:18:01Z</time>
      </trkpt>
      <trkpt lat="39.1808870" lon="-1.4079220">
        <ele>674.6</ele>
        <time>2019-05-11T10:18:02Z</time>
      </trkpt>
      <trkpt lat="39.1809530" lon="-1.4078890">
        <ele>674.6</ele>
        <time>2019-05-11T10:18:03Z</time>
      </trkpt>
      <trkpt lat="39.1810210" lon="-1.4078800">
        <ele>674.4</ele>
        <time>2019-05-11T10:18:04Z</time>
      </trkpt>
      <trkpt lat="39.1810890" lon="-1.4078960">
        <ele>674.4</ele>
        <time>2019-05-11T10:18:05Z</time>
      </trkpt>
      <trkpt lat="39.1811520" lon="-1.4079280">
        <ele>674.4</ele>
        <time>2019-05-11T10:18:06Z</time>
      </trkpt>
      <trkpt lat="39.1812130" lon="-1.4079680">
        <ele>674.0</ele>
        <time>2019-05-11T10:18:07Z</time>
      </trkpt>
      <trkpt lat="39.1812740" lon="-1.4080080">
        <ele>674.0</ele>
        <time>2019-05-11T10:18:08Z</time>
      </trkpt>
      <trkpt lat="39.1813330" lon="-1.4080470">
        <ele>673.8</ele>
        <time>2019-05-11T10:18:09Z</time>
      </trkpt>
      <trkpt lat="39.1813910" lon="-1.4080840">
        <ele>673.8</ele>
        <time>2019-05-11T10:18:10Z</time>
      </trkpt>
      <trkpt lat="39.1814500" lon="-1.4081200">
        <ele>673.8</ele>
        <time>2019-05-11T10:18:11Z</time>
      </trkpt>
      <trkpt lat="39.1815100" lon="-1.4081520">
        <ele>673.8</ele>
        <time>2019-05-11T10:18:12Z</time>
      </trkpt>
      <trkpt lat="39.1815710" lon="-1.4081820">
        <ele>673.8</ele>
        <time>2019-05-11T10:18:13Z</time>
      </trkpt>
      <trkpt lat="39.1816320" lon="-1.4082060">
        <ele>673.8</ele>
        <time>2019-05-11T10:18:14Z</time>
      </trkpt>
      <trkpt lat="39.1816930" lon="-1.4082250">
        <ele>673.8</ele>
        <time>2019-05-11T10:18:15Z</time>
      </trkpt>
      <trkpt lat="39.1817570" lon="-1.4082370">
        <ele>673.8</ele>
        <time>2019-05-11T10:18:16Z</time>
      </trkpt>
      <trkpt lat="39.1818240" lon="-1.4082420">
        <ele>673.8</ele>
        <time>2019-05-11T10:18:17Z</time>
      </trkpt>
      <trkpt lat="39.1818930" lon="-1.4082450">
        <ele>674.0</ele>
        <time>2019-05-11T10:18:18Z</time>
      </trkpt>
      <trkpt lat="39.1819630" lon="-1.4082420">
        <ele>674.0</ele>
        <time>2019-05-11T10:18:19Z</time>
      </trkpt>
      <trkpt lat="39.1820330" lon="-1.4082370">
        <ele>674.2</ele>
        <time>2019-05-11T10:18:20Z</time>
      </trkpt>
      <trkpt lat="39.1821050" lon="-1.4082270">
        <ele>674.2</ele>
        <time>2019-05-11T10:18:21Z</time>
      </trkpt>
      <trkpt lat="39.1821740" lon="-1.4082130">
        <ele>674.2</ele>
        <time>2019-05-11T10:18:22Z</time>
      </trkpt>
      <trkpt lat="39.1822440" lon="-1.4081920">
        <ele>674.2</ele>
        <time>2019-05-11T10:18:23Z</time>
      </trkpt>
      <trkpt lat="39.1823120" lon="-1.4081690">
        <ele>674.2</ele>
        <time>2019-05-11T10:18:24Z</time>
      </trkpt>
      <trkpt lat="39.1823800" lon="-1.4081450">
        <ele>674.2</ele>
        <time>2019-05-11T10:18:25Z</time>
      </trkpt>
      <trkpt lat="39.1824480" lon="-1.4081220">
        <ele>674.4</ele>
        <time>2019-05-11T10:18:26Z</time>
      </trkpt>
      <trkpt lat="39.1825180" lon="-1.4081010">
        <ele>674.4</ele>
        <time>2019-05-11T10:18:27Z</time>
      </trkpt>
      <trkpt lat="39.1825870" lon="-1.4080830">
        <ele>674.4</ele>
        <time>2019-05-11T10:18:28Z</time>
      </trkpt>
      <trkpt lat="39.1826530" lon="-1.4080700">
        <ele>674.4</ele>
        <time>2019-05-11T10:18:29Z</time>
      </trkpt>
      <trkpt lat="39.1827180" lon="-1.4080650">
        <ele>674.6</ele>
        <time>2019-05-11T10:18:30Z</time>
      </trkpt>
      <trkpt lat="39.1827800" lon="-1.4080680">
        <ele>674.6</ele>
        <time>2019-05-11T10:18:31Z</time>
      </trkpt>
      <trkpt lat="39.1828400" lon="-1.4080740">
        <ele>674.6</ele>
        <time>2019-05-11T10:18:32Z</time>
      </trkpt>
      <trkpt lat="39.1829010" lon="-1.4080810">
        <ele>674.6</ele>
        <time>2019-05-11T10:18:33Z</time>
      </trkpt>
      <trkpt lat="39.1829620" lon="-1.4080850">
        <ele>674.6</ele>
        <time>2019-05-11T10:18:34Z</time>
      </trkpt>
      <trkpt lat="39.1830260" lon="-1.4080860">
        <ele>674.6</ele>
        <time>2019-05-11T10:18:35Z</time>
      </trkpt>
      <trkpt lat="39.1830900" lon="-1.4080870">
        <ele>674.8</ele>
        <time>2019-05-11T10:18:36Z</time>
      </trkpt>
      <trkpt lat="39.1831560" lon="-1.4080900">
        <ele>675.0</ele>
        <time>2019-05-11T10:18:37Z</time>
      </trkpt>
      <trkpt lat="39.1832230" lon="-1.4080980">
        <ele>675.2</ele>
        <time>2019-05-11T10:18:38Z</time>
      </trkpt>
      <trkpt lat="39.1832900" lon="-1.4081070">
        <ele>675.4</ele>
        <time>2019-05-11T10:18:39Z</time>
      </trkpt>
      <trkpt lat="39.1833550" lon="-1.4081160">
        <ele>675.4</ele>
        <time>2019-05-11T10:18:40Z</time>
      </trkpt>
      <trkpt lat="39.1834180" lon="-1.4081230">
        <ele>675.6</ele>
        <time>2019-05-11T10:18:41Z</time>
      </trkpt>
      <trkpt lat="39.1834800" lon="-1.4081310">
        <ele>675.6</ele>
        <time>2019-05-11T10:18:42Z</time>
      </trkpt>
      <trkpt lat="39.1835410" lon="-1.4081400">
        <ele>675.6</ele>
        <time>2019-05-11T10:18:43Z</time>
      </trkpt>
      <trkpt lat="39.1836010" lon="-1.4081490">
        <ele>675.6</ele>
        <time>2019-05-11T10:18:44Z</time>
      </trkpt>
      <trkpt lat="39.1836610" lon="-1.4081550">
        <ele>675.8</ele>
        <time>2019-05-11T10:18:45Z</time>
      </trkpt>
      <trkpt lat="39.1837200" lon="-1.4081620">
        <ele>675.8</ele>
        <time>2019-05-11T10:18:46Z</time>
      </trkpt>
      <trkpt lat="39.1837780" lon="-1.4081730">
        <ele>676.0</ele>
        <time>2019-05-11T10:18:47Z</time>
      </trkpt>
      <trkpt lat="39.1838370" lon="-1.4081850">
        <ele>676.2</ele>
        <time>2019-05-11T10:18:48Z</time>
      </trkpt>
      <trkpt lat="39.1838980" lon="-1.4081970">
        <ele>676.2</ele>
        <time>2019-05-11T10:18:49Z</time>
      </trkpt>
      <trkpt lat="39.1839590" lon="-1.4082080">
        <ele>676.4</ele>
        <time>2019-05-11T10:18:50Z</time>
      </trkpt>
      <trkpt lat="39.1840220" lon="-1.4082150">
        <ele>676.4</ele>
        <time>2019-05-11T10:18:51Z</time>
      </trkpt>
      <trkpt lat="39.1840860" lon="-1.4082130">
        <ele>676.6</ele>
        <time>2019-05-11T10:18:52Z</time>
      </trkpt>
      <trkpt lat="39.1841520" lon="-1.4082030">
        <ele>676.6</ele>
        <time>2019-05-11T10:18:53Z</time>
      </trkpt>
      <trkpt lat="39.1842170" lon="-1.4081930">
        <ele>676.6</ele>
        <time>2019-05-11T10:18:54Z</time>
      </trkpt>
      <trkpt lat="39.1842860" lon="-1.4081950">
        <ele>676.4</ele>
        <time>2019-05-11T10:18:55Z</time>
      </trkpt>
      <trkpt lat="39.1843580" lon="-1.4082190">
        <ele>676.6</ele>
        <time>2019-05-11T10:18:56Z</time>
      </trkpt>
      <trkpt lat="39.1844250" lon="-1.4082610">
        <ele>676.6</ele>
        <time>2019-05-11T10:18:57Z</time>
      </trkpt>
      <trkpt lat="39.1844860" lon="-1.4083140">
        <ele>676.6</ele>
        <time>2019-05-11T10:18:58Z</time>
      </trkpt>
      <trkpt lat="39.1845460" lon="-1.4083740">
        <ele>676.6</ele>
        <time>2019-05-11T10:18:59Z</time>
      </trkpt>
      <trkpt lat="39.1846100" lon="-1.4084300">
        <ele>676.6</ele>
        <time>2019-05-11T10:19:00Z</time>
      </trkpt>
      <trkpt lat="39.1846820" lon="-1.4084800">
        <ele>676.4</ele>
        <time>2019-05-11T10:19:01Z</time>
      </trkpt>
      <trkpt lat="39.1847580" lon="-1.4085210">
        <ele>676.4</ele>
        <time>2019-05-11T10:19:02Z</time>
      </trkpt>
      <trkpt lat="39.1848340" lon="-1.4085540">
        <ele>676.0</ele>
        <time>2019-05-11T10:19:03Z</time>
      </trkpt>
      <trkpt lat="39.1849110" lon="-1.4085840">
        <ele>675.2</ele>
        <time>2019-05-11T10:19:04Z</time>
      </trkpt>
      <trkpt lat="39.1849820" lon="-1.4086130">
        <ele>674.4</ele>
        <time>2019-05-11T10:19:05Z</time>
      </trkpt>
      <trkpt lat="39.1850510" lon="-1.4086420">
        <ele>674.2</ele>
        <time>2019-05-11T10:19:06Z</time>
      </trkpt>
      <trkpt lat="39.1851160" lon="-1.4086660">
        <ele>673.8</ele>
        <time>2019-05-11T10:19:07Z</time>
      </trkpt>
      <trkpt lat="39.1851830" lon="-1.4086820">
        <ele>673.6</ele>
        <time>2019-05-11T10:19:08Z</time>
      </trkpt>
      <trkpt lat="39.1852470" lon="-1.4086830">
        <ele>673.6</ele>
        <time>2019-05-11T10:19:09Z</time>
      </trkpt>
      <trkpt lat="39.1853120" lon="-1.4086720">
        <ele>673.4</ele>
        <time>2019-05-11T10:19:10Z</time>
      </trkpt>
      <trkpt lat="39.1853710" lon="-1.4086490">
        <ele>673.4</ele>
        <time>2019-05-11T10:19:11Z</time>
      </trkpt>
      <trkpt lat="39.1854310" lon="-1.4086160">
        <ele>673.2</ele>
        <time>2019-05-11T10:19:12Z</time>
      </trkpt>
      <trkpt lat="39.1854940" lon="-1.4085740">
        <ele>673.2</ele>
        <time>2019-05-11T10:19:13Z</time>
      </trkpt>
      <trkpt lat="39.1855560" lon="-1.4085260">
        <ele>673.0</ele>
        <time>2019-05-11T10:19:14Z</time>
      </trkpt>
      <trkpt lat="39.1856150" lon="-1.4084790">
        <ele>673.0</ele>
        <time>2019-05-11T10:19:15Z</time>
      </trkpt>
      <trkpt lat="39.1856700" lon="-1.4084330">
        <ele>673.0</ele>
        <time>2019-05-11T10:19:16Z</time>
      </trkpt>
      <trkpt lat="39.1857190" lon="-1.4083880">
        <ele>672.8</ele>
        <time>2019-05-11T10:19:17Z</time>
      </trkpt>
      <trkpt lat="39.1857660" lon="-1.4083460">
        <ele>673.0</ele>
        <time>2019-05-11T10:19:18Z</time>
      </trkpt>
      <trkpt lat="39.1858120" lon="-1.4083080">
        <ele>673.0</ele>
        <time>2019-05-11T10:19:19Z</time>
      </trkpt>
      <trkpt lat="39.1858590" lon="-1.4082710">
        <ele>673.0</ele>
        <time>2019-05-11T10:19:20Z</time>
      </trkpt>
      <trkpt lat="39.1859050" lon="-1.4082340">
        <ele>673.0</ele>
        <time>2019-05-11T10:19:21Z</time>
      </trkpt>
      <trkpt lat="39.1859580" lon="-1.4082040">
        <ele>673.2</ele>
        <time>2019-05-11T10:19:22Z</time>
      </trkpt>
      <trkpt lat="39.1860130" lon="-1.4081810">
        <ele>673.2</ele>
        <time>2019-05-11T10:19:23Z</time>
      </trkpt>
      <trkpt lat="39.1860720" lon="-1.4081660">
        <ele>673.2</ele>
        <time>2019-05-11T10:19:24Z</time>
      </trkpt>
      <trkpt lat="39.1861330" lon="-1.4081610">
        <ele>673.2</ele>
        <time>2019-05-11T10:19:25Z</time>
      </trkpt>
      <trkpt lat="39.1861960" lon="-1.4081570">
        <ele>673.2</ele>
        <time>2019-05-11T10:19:26Z</time>
      </trkpt>
      <trkpt lat="39.1862640" lon="-1.4081560">
        <ele>673.2</ele>
        <time>2019-05-11T10:19:27Z</time>
      </trkpt>
      <trkpt lat="39.1863360" lon="-1.4081610">
        <ele>673.2</ele>
        <time>2019-05-11T10:19:28Z</time>
      </trkpt>
      <trkpt lat="39.1864050" lon="-1.4081840">
        <ele>673.0</ele>
        <time>2019-05-11T10:19:29Z</time>
      </trkpt>
      <trkpt lat="39.1864590" lon="-1.4082320">
        <ele>673.0</ele>
        <time>2019-05-11T10:19:30Z</time>
      </trkpt>
      <trkpt lat="39.1864850" lon="-1.4082980">
        <ele>672.8</ele>
        <time>2019-05-11T10:19:31Z</time>
      </trkpt>
      <trkpt lat="39.1864820" lon="-1.4083680">
        <ele>672.8</ele>
        <time>2019-05-11T10:19:32Z</time>
      </trkpt>
      <trkpt lat="39.1864610" lon="-1.4084380">
        <ele>672.8</ele>
        <time>2019-05-11T10:19:33Z</time>
      </trkpt>
      <trkpt lat="39.1864410" lon="-1.4085100">
        <ele>672.8</ele>
        <time>2019-05-11T10:19:34Z</time>
      </trkpt>
      <trkpt lat="39.1864300" lon="-1.4085840">
        <ele>672.8</ele>
        <time>2019-05-11T10:19:35Z</time>
      </trkpt>
      <trkpt lat="39.1864280" lon="-1.4086590">
        <ele>672.6</ele>
        <time>2019-05-11T10:19:36Z</time>
      </trkpt>
      <trkpt lat="39.1864310" lon="-1.4087320">
        <ele>672.2</ele>
        <time>2019-05-11T10:19:37Z</time>
      </trkpt>
      <trkpt lat="39.1864410" lon="-1.4088090">
        <ele>672.0</ele>
        <time>2019-05-11T10:19:38Z</time>
      </trkpt>
      <trkpt lat="39.1864580" lon="-1.4088890">
        <ele>671.8</ele>
        <time>2019-05-11T10:19:39Z</time>
      </trkpt>
      <trkpt lat="39.1864740" lon="-1.4089720">
        <ele>671.6</ele>
        <time>2019-05-11T10:19:40Z</time>
      </trkpt>
      <trkpt lat="39.1864860" lon="-1.4090540">
        <ele>671.6</ele>
        <time>2019-05-11T10:19:41Z</time>
      </trkpt>
      <trkpt lat="39.1864900" lon="-1.4091370">
        <ele>671.4</ele>
        <time>2019-05-11T10:19:42Z</time>
      </trkpt>
      <trkpt lat="39.1864860" lon="-1.4092200">
        <ele>671.4</ele>
        <time>2019-05-11T10:19:43Z</time>
      </trkpt>
      <trkpt lat="39.1864780" lon="-1.4093040">
        <ele>671.4</ele>
        <time>2019-05-11T10:19:44Z</time>
      </trkpt>
      <trkpt lat="39.1864660" lon="-1.4093850">
        <ele>671.4</ele>
        <time>2019-05-11T10:19:45Z</time>
      </trkpt>
      <trkpt lat="39.1864550" lon="-1.4094660">
        <ele>671.4</ele>
        <time>2019-05-11T10:19:46Z</time>
      </trkpt>
      <trkpt lat="39.1864500" lon="-1.4095480">
        <ele>671.4</ele>
        <time>2019-05-11T10:19:47Z</time>
      </trkpt>
      <trkpt lat="39.1864520" lon="-1.4096290">
        <ele>671.4</ele>
        <time>2019-05-11T10:19:48Z</time>
      </trkpt>
      <trkpt lat="39.1864600" lon="-1.4097100">
        <ele>671.4</ele>
        <time>2019-05-11T10:19:49Z</time>
      </trkpt>
      <trkpt lat="39.1864700" lon="-1.4097890">
        <ele>671.4</ele>
        <time>2019-05-11T10:19:50Z</time>
      </trkpt>
      <trkpt lat="39.1864770" lon="-1.4098650">
        <ele>671.4</ele>
        <time>2019-05-11T10:19:51Z</time>
      </trkpt>
      <trkpt lat="39.1864790" lon="-1.4099410">
        <ele>671.4</ele>
        <time>2019-05-11T10:19:52Z</time>
      </trkpt>
      <trkpt lat="39.1864770" lon="-1.4100180">
        <ele>671.4</ele>
        <time>2019-05-11T10:19:53Z</time>
      </trkpt>
      <trkpt lat="39.1864770" lon="-1.4100940">
        <ele>671.4</ele>
        <time>2019-05-11T10:19:54Z</time>
      </trkpt>
      <trkpt lat="39.1864780" lon="-1.4101680">
        <ele>671.6</ele>
        <time>2019-05-11T10:19:55Z</time>
      </trkpt>
      <trkpt lat="39.1864680" lon="-1.4102360">
        <ele>671.6</ele>
        <time>2019-05-11T10:19:56Z</time>
      </trkpt>
      <trkpt lat="39.1864370" lon="-1.4103000">
        <ele>671.6</ele>
        <time>2019-05-11T10:19:57Z</time>
      </trkpt>
      <trkpt lat="39.1864060" lon="-1.4103640">
        <ele>671.6</ele>
        <time>2019-05-11T10:19:58Z</time>
      </trkpt>
      <trkpt lat="39.1863970" lon="-1.4104280">
        <ele>671.6</ele>
        <time>2019-05-11T10:19:59Z</time>
      </trkpt>
      <trkpt lat="39.1864130" lon="-1.4104870">
        <ele>671.6</ele>
        <time>2019-05-11T10:20:00Z</time>
      </trkpt>
      <trkpt lat="39.1864450" lon="-1.4105350">
        <ele>671.6</ele>
        <time>2019-05-11T10:20:01Z</time>
      </trkpt>
      <trkpt lat="39.1864840" lon="-1.4105710">
        <ele>671.6</ele>
        <time>2019-05-11T10:20:02Z</time>
      </trkpt>
      <trkpt lat="39.1865330" lon="-1.4105980">
        <ele>671.6</ele>
        <time>2019-05-11T10:20:03Z</time>
      </trkpt>
      <trkpt lat="39.1865860" lon="-1.4106220">
        <ele>671.6</ele>
        <time>2019-05-11T10:20:04Z</time>
      </trkpt>
      <trkpt lat="39.1866440" lon="-1.4106430">
        <ele>671.6</ele>
        <time>2019-05-11T10:20:05Z</time>
      </trkpt>
      <trkpt lat="39.1867060" lon="-1.4106660">
        <ele>671.6</ele>
        <time>2019-05-11T10:20:06Z</time>
      </trkpt>
      <trkpt lat="39.1867670" lon="-1.4107000">
        <ele>671.6</ele>
        <time>2019-05-11T10:20:07Z</time>
      </trkpt>
      <trkpt lat="39.1868190" lon="-1.4107450">
        <ele>671.6</ele>
        <time>2019-05-11T10:20:08Z</time>
      </trkpt>
      <trkpt lat="39.1868640" lon="-1.4107940">
        <ele>671.6</ele>
        <time>2019-05-11T10:20:09Z</time>
      </trkpt>
      <trkpt lat="39.1869060" lon="-1.4108410">
        <ele>671.6</ele>
        <time>2019-05-11T10:20:10Z</time>
      </trkpt>
      <trkpt lat="39.1869460" lon="-1.4108880">
        <ele>671.6</ele>
        <time>2019-05-11T10:20:11Z</time>
      </trkpt>
      <trkpt lat="39.1869840" lon="-1.4109330">
        <ele>671.6</ele>
        <time>2019-05-11T10:20:12Z</time>
      </trkpt>
      <trkpt lat="39.1870240" lon="-1.4109770">
        <ele>671.6</ele>
        <time>2019-05-11T10:20:13Z</time>
      </trkpt>
      <trkpt lat="39.1870640" lon="-1.4110240">
        <ele>671.6</ele>
        <time>2019-05-11T10:20:14Z</time>
      </trkpt>
      <trkpt lat="39.1871050" lon="-1.4110740">
        <ele>671.6</ele>
        <time>2019-05-11T10:20:15Z</time>
      </trkpt>
      <trkpt lat="39.1871460" lon="-1.4111280">
        <ele>671.6</ele>
        <time>2019-05-11T10:20:16Z</time>
      </trkpt>
      <trkpt lat="39.1871810" lon="-1.4111900">
        <ele>671.4</ele>
        <time>2019-05-11T10:20:17Z</time>
      </trkpt>
      <trkpt lat="39.1872000" lon="-1.4112630">
        <ele>671.4</ele>
        <time>2019-05-11T10:20:18Z</time>
      </trkpt>
      <trkpt lat="39.1871950" lon="-1.4113290">
        <ele>671.4</ele>
        <time>2019-05-11T10:20:19Z</time>
      </trkpt>
      <trkpt lat="39.1871680" lon="-1.4113710">
        <ele>671.4</ele>
        <time>2019-05-11T10:20:20Z</time>
      </trkpt>
      <trkpt lat="39.1871300" lon="-1.4114000">
        <ele>671.4</ele>
        <time>2019-05-11T10:20:21Z</time>
      </trkpt>
      <trkpt lat="39.1870910" lon="-1.4114260">
        <ele>671.4</ele>
        <time>2019-05-11T10:20:22Z</time>
      </trkpt>
      <trkpt lat="39.1870510" lon="-1.4114480">
        <ele>671.4</ele>
        <time>2019-05-11T10:20:23Z</time>
      </trkpt>
      <trkpt lat="39.1870130" lon="-1.4114750">
        <ele>671.4</ele>
        <time>2019-05-11T10:20:24Z</time>
      </trkpt>
      <trkpt lat="39.1869800" lon="-1.4115120">
        <ele>671.4</ele>
        <time>2019-05-11T10:20:25Z</time>
      </trkpt>
      <trkpt lat="39.1869580" lon="-1.4115570">
        <ele>671.4</ele>
        <time>2019-05-11T10:20:26Z</time>
      </trkpt>
      <trkpt lat="39.1869410" lon="-1.4116060">
        <ele>671.4</ele>
        <time>2019-05-11T10:20:27Z</time>
      </trkpt>
      <trkpt lat="39.1869240" lon="-1.4116560">
        <ele>671.4</ele>
        <time>2019-05-11T10:20:28Z</time>
      </trkpt>
      <trkpt lat="39.1869060" lon="-1.4117030">
        <ele>671.4</ele>
        <time>2019-05-11T10:20:29Z</time>
      </trkpt>
      <trkpt lat="39.1868850" lon="-1.4117580">
        <ele>671.4</ele>
        <time>2019-05-11T10:20:30Z</time>
      </trkpt>
      <trkpt lat="39.1868650" lon="-1.4118140">
        <ele>671.4</ele>
        <time>2019-05-11T10:20:31Z</time>
      </trkpt>
      <trkpt lat="39.1868430" lon="-1.4118710">
        <ele>671.4</ele>
        <time>2019-05-11T10:20:32Z</time>
      </trkpt>
      <trkpt lat="39.1868170" lon="-1.4119230">
        <ele>671.6</ele>
        <time>2019-05-11T10:20:33Z</time>
      </trkpt>
      <trkpt lat="39.1867880" lon="-1.4119710">
        <ele>671.6</ele>
        <time>2019-05-11T10:20:34Z</time>
      </trkpt>
      <trkpt lat="39.1867600" lon="-1.4120200">
        <ele>671.6</ele>
        <time>2019-05-11T10:20:35Z</time>
      </trkpt>
      <trkpt lat="39.1867370" lon="-1.4120740">
        <ele>671.8</ele>
        <time>2019-05-11T10:20:36Z</time>
      </trkpt>
      <trkpt lat="39.1867220" lon="-1.4121330">
        <ele>671.8</ele>
        <time>2019-05-11T10:20:37Z</time>
      </trkpt>
      <trkpt lat="39.1867170" lon="-1.4121970">
        <ele>671.8</ele>
        <time>2019-05-11T10:20:38Z</time>
      </trkpt>
      <trkpt lat="39.1867220" lon="-1.4122640">
        <ele>672.0</ele>
        <time>2019-05-11T10:20:39Z</time>
      </trkpt>
      <trkpt lat="39.1867330" lon="-1.4123320">
        <ele>672.0</ele>
        <time>2019-05-11T10:20:40Z</time>
      </trkpt>
      <trkpt lat="39.1867490" lon="-1.4124010">
        <ele>672.0</ele>
        <time>2019-05-11T10:20:41Z</time>
      </trkpt>
      <trkpt lat="39.1867660" lon="-1.4124720">
        <ele>672.4</ele>
        <time>2019-05-11T10:20:42Z</time>
      </trkpt>
      <trkpt lat="39.1867830" lon="-1.4125440">
        <ele>672.6</ele>
        <time>2019-05-11T10:20:43Z</time>
      </trkpt>
      <trkpt lat="39.1867970" lon="-1.4126170">
        <ele>672.8</ele>
        <time>2019-05-11T10:20:44Z</time>
      </trkpt>
      <trkpt lat="39.1868080" lon="-1.4126900">
        <ele>673.0</ele>
        <time>2019-05-11T10:20:45Z</time>
      </trkpt>
      <trkpt lat="39.1868150" lon="-1.4127640">
        <ele>673.2</ele>
        <time>2019-05-11T10:20:46Z</time>
      </trkpt>
      <trkpt lat="39.1868190" lon="-1.4128410">
        <ele>673.2</ele>
        <time>2019-05-11T10:20:47Z</time>
      </trkpt>
      <trkpt lat="39.1868220" lon="-1.4129200">
        <ele>673.4</ele>
        <time>2019-05-11T10:20:48Z</time>
      </trkpt>
      <trkpt lat="39.1868220" lon="-1.4130030">
        <ele>673.4</ele>
        <time>2019-05-11T10:20:49Z</time>
      </trkpt>
      <trkpt lat="39.1868200" lon="-1.4130870">
        <ele>673.6</ele>
        <time>2019-05-11T10:20:50Z</time>
      </trkpt>
      <trkpt lat="39.1868180" lon="-1.4131720">
        <ele>673.6</ele>
        <time>2019-05-11T10:20:51Z</time>
      </trkpt>
      <trkpt lat="39.1868150" lon="-1.4132570">
        <ele>673.6</ele>
        <time>2019-05-11T10:20:52Z</time>
      </trkpt>
      <trkpt lat="39.1868160" lon="-1.4133420">
        <ele>673.6</ele>
        <time>2019-05-11T10:20:53Z</time>
      </trkpt>
      <trkpt lat="39.1868190" lon="-1.4134240">
        <ele>673.6</ele>
        <time>2019-05-11T10:20:54Z</time>
      </trkpt>
      <trkpt lat="39.1868250" lon="-1.4135060">
        <ele>673.6</ele>
        <time>2019-05-11T10:20:55Z</time>
      </trkpt>
      <trkpt lat="39.1868370" lon="-1.4135860">
        <ele>673.6</ele>
        <time>2019-05-11T10:20:56Z</time>
      </trkpt>
      <trkpt lat="39.1868510" lon="-1.4136650">
        <ele>673.6</ele>
        <time>2019-05-11T10:20:57Z</time>
      </trkpt>
      <trkpt lat="39.1868680" lon="-1.4137420">
        <ele>673.6</ele>
        <time>2019-05-11T10:20:58Z</time>
      </trkpt>
      <trkpt lat="39.1868880" lon="-1.4138170">
        <ele>673.6</ele>
        <time>2019-05-11T10:20:59Z</time>
      </trkpt>
      <trkpt lat="39.1869120" lon="-1.4138880">
        <ele>673.4</ele>
        <time>2019-05-11T10:21:00Z</time>
      </trkpt>
      <trkpt lat="39.1869400" lon="-1.4139560">
        <ele>673.4</ele>
        <time>2019-05-11T10:21:01Z</time>
      </trkpt>
      <trkpt lat="39.1869720" lon="-1.4140240">
        <ele>673.2</ele>
        <time>2019-05-11T10:21:02Z</time>
      </trkpt>
      <trkpt lat="39.1870070" lon="-1.4140890">
        <ele>673.2</ele>
        <time>2019-05-11T10:21:03Z</time>
      </trkpt>
      <trkpt lat="39.1870430" lon="-1.4141530">
        <ele>673.2</ele>
        <time>2019-05-11T10:21:04Z</time>
      </trkpt>
      <trkpt lat="39.1870730" lon="-1.4142210">
        <ele>673.2</ele>
        <time>2019-05-11T10:21:05Z</time>
      </trkpt>
      <trkpt lat="39.1870900" lon="-1.4142950">
        <ele>673.2</ele>
        <time>2019-05-11T10:21:06Z</time>
      </trkpt>
      <trkpt lat="39.1871030" lon="-1.4143730">
        <ele>673.2</ele>
        <time>2019-05-11T10:21:07Z</time>
      </trkpt>
      <trkpt lat="39.1871170" lon="-1.4144510">
        <ele>673.2</ele>
        <time>2019-05-11T10:21:08Z</time>
      </trkpt>
      <trkpt lat="39.1871380" lon="-1.4145280">
        <ele>673.2</ele>
        <time>2019-05-11T10:21:09Z</time>
      </trkpt>
      <trkpt lat="39.1871670" lon="-1.4145970">
        <ele>673.2</ele>
        <time>2019-05-11T10:21:10Z</time>
      </trkpt>
      <trkpt lat="39.1872060" lon="-1.4146540">
        <ele>673.2</ele>
        <time>2019-05-11T10:21:11Z</time>
      </trkpt>
      <trkpt lat="39.1872550" lon="-1.4146920">
        <ele>673.2</ele>
        <time>2019-05-11T10:21:12Z</time>
      </trkpt>
      <trkpt lat="39.1873090" lon="-1.4147170">
        <ele>673.0</ele>
        <time>2019-05-11T10:21:13Z</time>
      </trkpt>
      <trkpt lat="39.1873690" lon="-1.4147300">
        <ele>673.0</ele>
        <time>2019-05-11T10:21:14Z</time>
      </trkpt>
      <trkpt lat="39.1874330" lon="-1.4147360">
        <ele>673.0</ele>
        <time>2019-05-11T10:21:15Z</time>
      </trkpt>
      <trkpt lat="39.1874980" lon="-1.4147480">
        <ele>673.0</ele>
        <time>2019-05-11T10:21:16Z</time>
      </trkpt>
      <trkpt lat="39.1875580" lon="-1.4147650">
        <ele>672.8</ele>
        <time>2019-05-11T10:21:17Z</time>
      </trkpt>
      <trkpt lat="39.1876090" lon="-1.4147890">
        <ele>672.8</ele>
        <time>2019-05-11T10:21:18Z</time>
      </trkpt>
      <trkpt lat="39.1876550" lon="-1.4148200">
        <ele>672.8</ele>
        <time>2019-05-11T10:21:19Z</time>
      </trkpt>
      <trkpt lat="39.1876980" lon="-1.4148570">
        <ele>672.8</ele>
        <time>2019-05-11T10:21:20Z</time>
      </trkpt>
      <trkpt lat="39.1877390" lon="-1.4148980">
        <ele>672.6</ele>
        <time>2019-05-11T10:21:21Z</time>
      </trkpt>
      <trkpt lat="39.1877770" lon="-1.4149400">
        <ele>672.4</ele>
        <time>2019-05-11T10:21:22Z</time>
      </trkpt>
      <trkpt lat="39.1878150" lon="-1.4149800">
        <ele>672.4</ele>
        <time>2019-05-11T10:21:23Z</time>
      </trkpt>
      <trkpt lat="39.1878500" lon="-1.4150220">
        <ele>672.4</ele>
        <time>2019-05-11T10:21:24Z</time>
      </trkpt>
      <trkpt lat="39.1878820" lon="-1.4150680">
        <ele>672.4</ele>
        <time>2019-05-11T10:21:25Z</time>
      </trkpt>
      <trkpt lat="39.1879120" lon="-1.4151150">
        <ele>672.4</ele>
        <time>2019-05-11T10:21:26Z</time>
      </trkpt>
      <trkpt lat="39.1879430" lon="-1.4151650">
        <ele>672.4</ele>
        <time>2019-05-11T10:21:27Z</time>
      </trkpt>
      <trkpt lat="39.1879740" lon="-1.4152160">
        <ele>672.4</ele>
        <time>2019-05-11T10:21:28Z</time>
      </trkpt>
      <trkpt lat="39.1880050" lon="-1.4152700">
        <ele>672.4</ele>
        <time>2019-05-11T10:21:29Z</time>
      </trkpt>
      <trkpt lat="39.1880360" lon="-1.4153240">
        <ele>672.4</ele>
        <time>2019-05-11T10:21:30Z</time>
      </trkpt>
      <trkpt lat="39.1880680" lon="-1.4153780">
        <ele>672.4</ele>
        <time>2019-05-11T10:21:31Z</time>
      </trkpt>
      <trkpt lat="39.1881010" lon="-1.4154310">
        <ele>672.6</ele>
        <time>2019-05-11T10:21:32Z</time>
      </trkpt>
      <trkpt lat="39.1881350" lon="-1.4154820">
        <ele>672.6</ele>
        <time>2019-05-11T10:21:33Z</time>
      </trkpt>
      <trkpt lat="39.1881680" lon="-1.4155300">
        <ele>672.6</ele>
        <time>2019-05-11T10:21:34Z</time>
      </trkpt>
      <trkpt lat="39.1882030" lon="-1.4155770">
        <ele>672.8</ele>
        <time>2019-05-11T10:21:35Z</time>
      </trkpt>
      <trkpt lat="39.1882400" lon="-1.4156230">
        <ele>672.8</ele>
        <time>2019-05-11T10:21:36Z</time>
      </trkpt>
      <trkpt lat="39.1882810" lon="-1.4156640">
        <ele>672.8</ele>
        <time>2019-05-11T10:21:37Z</time>
      </trkpt>
      <trkpt lat="39.1883270" lon="-1.4157000">
        <ele>673.0</ele>
        <time>2019-05-11T10:21:38Z</time>
      </trkpt>
      <trkpt lat="39.1883790" lon="-1.4157280">
        <ele>673.2</ele>
        <time>2019-05-11T10:21:39Z</time>
      </trkpt>
      <trkpt lat="39.1884360" lon="-1.4157410">
        <ele>673.4</ele>
        <time>2019-05-11T10:21:40Z</time>
      </trkpt>
      <trkpt lat="39.1884940" lon="-1.4157420">
        <ele>673.6</ele>
        <time>2019-05-11T10:21:41Z</time>
      </trkpt>
      <trkpt lat="39.1885510" lon="-1.4157380">
        <ele>673.6</ele>
        <time>2019-05-11T10:21:42Z</time>
      </trkpt>
      <trkpt lat="39.1886100" lon="-1.4157380">
        <ele>673.8</ele>
        <time>2019-05-11T10:21:43Z</time>
      </trkpt>
      <trkpt lat="39.1886710" lon="-1.4157490">
        <ele>673.8</ele>
        <time>2019-05-11T10:21:44Z</time>
      </trkpt>
      <trkpt lat="39.1887370" lon="-1.4157680">
        <ele>673.8</ele>
        <time>2019-05-11T10:21:45Z</time>
      </trkpt>
      <trkpt lat="39.1888040" lon="-1.4157880">
        <ele>673.8</ele>
        <time>2019-05-11T10:21:46Z</time>
      </trkpt>
      <trkpt lat="39.1888690" lon="-1.4158100">
        <ele>673.8</ele>
        <time>2019-05-11T10:21:47Z</time>
      </trkpt>
      <trkpt lat="39.1889320" lon="-1.4158330">
        <ele>673.8</ele>
        <time>2019-05-11T10:21:48Z</time>
      </trkpt>
      <trkpt lat="39.1889860" lon="-1.4158560">
        <ele>673.8</ele>
        <time>2019-05-11T10:21:49Z</time>
      </trkpt>
      <trkpt lat="39.1890410" lon="-1.4158800">
        <ele>673.8</ele>
        <time>2019-05-11T10:21:50Z</time>
      </trkpt>
      <trkpt lat="39.1890960" lon="-1.4158990">
        <ele>673.8</ele>
        <time>2019-05-11T10:21:51Z</time>
      </trkpt>
      <trkpt lat="39.1891510" lon="-1.4159210">
        <ele>673.8</ele>
        <time>2019-05-11T10:21:52Z</time>
      </trkpt>
      <trkpt lat="39.1892080" lon="-1.4159480">
        <ele>673.8</ele>
        <time>2019-05-11T10:21:53Z</time>
      </trkpt>
      <trkpt lat="39.1892660" lon="-1.4159830">
        <ele>673.6</ele>
        <time>2019-05-11T10:21:54Z</time>
      </trkpt>
      <trkpt lat="39.1893200" lon="-1.4160230">
        <ele>673.6</ele>
        <time>2019-05-11T10:21:55Z</time>
      </trkpt>
      <trkpt lat="39.1893790" lon="-1.4160650">
        <ele>673.4</ele>
        <time>2019-05-11T10:21:56Z</time>
      </trkpt>
      <trkpt lat="39.1894390" lon="-1.4160990">
        <ele>673.4</ele>
        <time>2019-05-11T10:21:57Z</time>
      </trkpt>
      <trkpt lat="39.1894970" lon="-1.4161240">
        <ele>673.4</ele>
        <time>2019-05-11T10:21:58Z</time>
      </trkpt>
      <trkpt lat="39.1895500" lon="-1.4161490">
        <ele>673.4</ele>
        <time>2019-05-11T10:21:59Z</time>
      </trkpt>
      <trkpt lat="39.1896030" lon="-1.4161750">
        <ele>673.4</ele>
        <time>2019-05-11T10:22:00Z</time>
      </trkpt>
      <trkpt lat="39.1896530" lon="-1.4162030">
        <ele>673.4</ele>
        <time>2019-05-11T10:22:01Z</time>
      </trkpt>
      <trkpt lat="39.1897020" lon="-1.4162350">
        <ele>673.4</ele>
        <time>2019-05-11T10:22:02Z</time>
      </trkpt>
      <trkpt lat="39.1897500" lon="-1.4162710">
        <ele>673.4</ele>
        <time>2019-05-11T10:22:03Z</time>
      </trkpt>
      <trkpt lat="39.1897970" lon="-1.4163150">
        <ele>673.4</ele>
        <time>2019-05-11T10:22:04Z</time>
      </trkpt>
      <trkpt lat="39.1898420" lon="-1.4163640">
        <ele>673.4</ele>
        <time>2019-05-11T10:22:05Z</time>
      </trkpt>
      <trkpt lat="39.1898830" lon="-1.4164180">
        <ele>673.4</ele>
        <time>2019-05-11T10:22:06Z</time>
      </trkpt>
      <trkpt lat="39.1899200" lon="-1.4164740">
        <ele>673.4</ele>
        <time>2019-05-11T10:22:07Z</time>
      </trkpt>
      <trkpt lat="39.1899580" lon="-1.4165300">
        <ele>673.4</ele>
        <time>2019-05-11T10:22:08Z</time>
      </trkpt>
      <trkpt lat="39.1900010" lon="-1.4165830">
        <ele>673.6</ele>
        <time>2019-05-11T10:22:09Z</time>
      </trkpt>
      <trkpt lat="39.1900470" lon="-1.4166360">
        <ele>673.6</ele>
        <time>2019-05-11T10:22:10Z</time>
      </trkpt>
      <trkpt lat="39.1900920" lon="-1.4166910">
        <ele>673.6</ele>
        <time>2019-05-11T10:22:11Z</time>
      </trkpt>
      <trkpt lat="39.1901320" lon="-1.4167510">
        <ele>673.8</ele>
        <time>2019-05-11T10:22:12Z</time>
      </trkpt>
      <trkpt lat="39.1901640" lon="-1.4168120">
        <ele>673.8</ele>
        <time>2019-05-11T10:22:13Z</time>
      </trkpt>
      <trkpt lat="39.1901910" lon="-1.4168710">
        <ele>673.8</ele>
        <time>2019-05-11T10:22:14Z</time>
      </trkpt>
      <trkpt lat="39.1902170" lon="-1.4169300">
        <ele>673.8</ele>
        <time>2019-05-11T10:22:15Z</time>
      </trkpt>
      <trkpt lat="39.1902400" lon="-1.4169910">
        <ele>673.8</ele>
        <time>2019-05-11T10:22:16Z</time>
      </trkpt>
      <trkpt lat="39.1902620" lon="-1.4170530">
        <ele>673.8</ele>
        <time>2019-05-11T10:22:17Z</time>
      </trkpt>
      <trkpt lat="39.1902840" lon="-1.4171170">
        <ele>673.8</ele>
        <time>2019-05-11T10:22:18Z</time>
      </trkpt>
      <trkpt lat="39.1903060" lon="-1.4171820">
        <ele>674.0</ele>
        <time>2019-05-11T10:22:19Z</time>
      </trkpt>
      <trkpt lat="39.1903280" lon="-1.4172470">
        <ele>674.2</ele>
        <time>2019-05-11T10:22:20Z</time>
      </trkpt>
      <trkpt lat="39.1903480" lon="-1.4173120">
        <ele>674.4</ele>
        <time>2019-05-11T10:22:21Z</time>
      </trkpt>
      <trkpt lat="39.1903670" lon="-1.4173800">
        <ele>674.6</ele>
        <time>2019-05-11T10:22:22Z</time>
      </trkpt>
      <trkpt lat="39.1903850" lon="-1.4174490">
        <ele>674.6</ele>
        <time>2019-05-11T10:22:23Z</time>
      </trkpt>
      <trkpt lat="39.1904030" lon="-1.4175220">
        <ele>674.8</ele>
        <time>2019-05-11T10:22:24Z</time>
      </trkpt>
      <trkpt lat="39.1904250" lon="-1.4175960">
        <ele>674.8</ele>
        <time>2019-05-11T10:22:25Z</time>
      </trkpt>
      <trkpt lat="39.1904470" lon="-1.4176710">
        <ele>675.0</ele>
        <time>2019-05-11T10:22:26Z</time>
      </trkpt>
      <trkpt lat="39.1904700" lon="-1.4177470">
        <ele>675.0</ele>
        <time>2019-05-11T10:22:27Z</time>
      </trkpt>
      <trkpt lat="39.1904900" lon="-1.4178260">
        <ele>675.0</ele>
        <time>2019-05-11T10:22:28Z</time>
      </trkpt>
      <trkpt lat="39.1905060" lon="-1.4179060">
        <ele>675.0</ele>
        <time>2019-05-11T10:22:29Z</time>
      </trkpt>
      <trkpt lat="39.1905190" lon="-1.4179840">
        <ele>675.2</ele>
        <time>2019-05-11T10:22:30Z</time>
      </trkpt>
      <trkpt lat="39.1905320" lon="-1.4180620">
        <ele>675.2</ele>
        <time>2019-05-11T10:22:31Z</time>
      </trkpt>
      <trkpt lat="39.1905450" lon="-1.4181440">
        <ele>675.2</ele>
        <time>2019-05-11T10:22:32Z</time>
      </trkpt>
      <trkpt lat="39.1905540" lon="-1.4182310">
        <ele>675.2</ele>
        <time>2019-05-11T10:22:33Z</time>
      </trkpt>
      <trkpt lat="39.1905540" lon="-1.4183230">
        <ele>675.2</ele>
        <time>2019-05-11T10:22:34Z</time>
      </trkpt>
      <trkpt lat="39.1905470" lon="-1.4184180">
        <ele>675.2</ele>
        <time>2019-05-11T10:22:35Z</time>
      </trkpt>
      <trkpt lat="39.1905420" lon="-1.4185080">
        <ele>675.2</ele>
        <time>2019-05-11T10:22:36Z</time>
      </trkpt>
      <trkpt lat="39.1905420" lon="-1.4185920">
        <ele>675.2</ele>
        <time>2019-05-11T10:22:37Z</time>
      </trkpt>
      <trkpt lat="39.1905440" lon="-1.4186750">
        <ele>675.2</ele>
        <time>2019-05-11T10:22:38Z</time>
      </trkpt>
      <trkpt lat="39.1905450" lon="-1.4187560">
        <ele>675.2</ele>
        <time>2019-05-11T10:22:39Z</time>
      </trkpt>
      <trkpt lat="39.1905430" lon="-1.4188360">
        <ele>674.8</ele>
        <time>2019-05-11T10:22:40Z</time>
      </trkpt>
      <trkpt lat="39.1905360" lon="-1.4189180">
        <ele>674.6</ele>
        <time>2019-05-11T10:22:41Z</time>
      </trkpt>
      <trkpt lat="39.1905250" lon="-1.4190010">
        <ele>674.2</ele>
        <time>2019-05-11T10:22:42Z</time>
      </trkpt>
      <trkpt lat="39.1905100" lon="-1.4190850">
        <ele>674.0</ele>
        <time>2019-05-11T10:22:43Z</time>
      </trkpt>
      <trkpt lat="39.1904930" lon="-1.4191670">
        <ele>674.0</ele>
        <time>2019-05-11T10:22:44Z</time>
      </trkpt>
      <trkpt lat="39.1904720" lon="-1.4192490">
        <ele>673.8</ele>
        <time>2019-05-11T10:22:45Z</time>
      </trkpt>
      <trkpt lat="39.1904500" lon="-1.4193300">
        <ele>673.8</ele>
        <time>2019-05-11T10:22:46Z</time>
      </trkpt>
      <trkpt lat="39.1904230" lon="-1.4194080">
        <ele>673.8</ele>
        <time>2019-05-11T10:22:47Z</time>
      </trkpt>
      <trkpt lat="39.1903970" lon="-1.4194840">
        <ele>673.6</ele>
        <time>2019-05-11T10:22:48Z</time>
      </trkpt>
      <trkpt lat="39.1903700" lon="-1.4195590">
        <ele>673.6</ele>
        <time>2019-05-11T10:22:49Z</time>
      </trkpt>
      <trkpt lat="39.1903450" lon="-1.4196320">
        <ele>673.6</ele>
        <time>2019-05-11T10:22:50Z</time>
      </trkpt>
      <trkpt lat="39.1903180" lon="-1.4197050">
        <ele>673.6</ele>
        <time>2019-05-11T10:22:51Z</time>
      </trkpt>
      <trkpt lat="39.1902900" lon="-1.4197780">
        <ele>673.6</ele>
        <time>2019-05-11T10:22:52Z</time>
      </trkpt>
      <trkpt lat="39.1902660" lon="-1.4198540">
        <ele>673.4</ele>
        <time>2019-05-11T10:22:53Z</time>
      </trkpt>
      <trkpt lat="39.1902520" lon="-1.4199380">
        <ele>673.4</ele>
        <time>2019-05-11T10:22:54Z</time>
      </trkpt>
      <trkpt lat="39.1902480" lon="-1.4200250">
        <ele>673.4</ele>
        <time>2019-05-11T10:22:55Z</time>
      </trkpt>
      <trkpt lat="39.1902490" lon="-1.4201150">
        <ele>673.2</ele>
        <time>2019-05-11T10:22:56Z</time>
      </trkpt>
      <trkpt lat="39.1902420" lon="-1.4202070">
        <ele>673.2</ele>
        <time>2019-05-11T10:22:57Z</time>
      </trkpt>
      <trkpt lat="39.1902240" lon="-1.4202960">
        <ele>673.2</ele>
        <time>2019-05-11T10:22:58Z</time>
      </trkpt>
      <trkpt lat="39.1902010" lon="-1.4203780">
        <ele>673.2</ele>
        <time>2019-05-11T10:22:59Z</time>
      </trkpt>
      <trkpt lat="39.1901810" lon="-1.4204550">
        <ele>673.2</ele>
        <time>2019-05-11T10:23:00Z</time>
      </trkpt>
      <trkpt lat="39.1901630" lon="-1.4205260">
        <ele>673.2</ele>
        <time>2019-05-11T10:23:01Z</time>
      </trkpt>
      <trkpt lat="39.1901460" lon="-1.4205970">
        <ele>673.2</ele>
        <time>2019-05-11T10:23:02Z</time>
      </trkpt>
      <trkpt lat="39.1901280" lon="-1.4206690">
        <ele>673.0</ele>
        <time>2019-05-11T10:23:03Z</time>
      </trkpt>
      <trkpt lat="39.1901100" lon="-1.4207440">
        <ele>673.0</ele>
        <time>2019-05-11T10:23:04Z</time>
      </trkpt>
      <trkpt lat="39.1900910" lon="-1.4208210">
        <ele>673.0</ele>
        <time>2019-05-11T10:23:05Z</time>
      </trkpt>
      <trkpt lat="39.1900720" lon="-1.4208980">
        <ele>672.8</ele>
        <time>2019-05-11T10:23:06Z</time>
      </trkpt>
      <trkpt lat="39.1900530" lon="-1.4209720">
        <ele>672.8</ele>
        <time>2019-05-11T10:23:07Z</time>
      </trkpt>
      <trkpt lat="39.1900350" lon="-1.4210430">
        <ele>672.8</ele>
        <time>2019-05-11T10:23:08Z</time>
      </trkpt>
      <trkpt lat="39.1900180" lon="-1.4211130">
        <ele>672.8</ele>
        <time>2019-05-11T10:23:09Z</time>
      </trkpt>
      <trkpt lat="39.1900010" lon="-1.4211840">
        <ele>672.8</ele>
        <time>2019-05-11T10:23:10Z</time>
      </trkpt>
      <trkpt lat="39.1899860" lon="-1.4212550">
        <ele>672.8</ele>
        <time>2019-05-11T10:23:11Z</time>
      </trkpt>
      <trkpt lat="39.1899740" lon="-1.4213260">
        <ele>672.8</ele>
        <time>2019-05-11T10:23:12Z</time>
      </trkpt>
      <trkpt lat="39.1899630" lon="-1.4213990">
        <ele>672.8</ele>
        <time>2019-05-11T10:23:13Z</time>
      </trkpt>
      <trkpt lat="39.1899530" lon="-1.4214730">
        <ele>672.8</ele>
        <time>2019-05-11T10:23:14Z</time>
      </trkpt>
      <trkpt lat="39.1899470" lon="-1.4215510">
        <ele>672.8</ele>
        <time>2019-05-11T10:23:15Z</time>
      </trkpt>
      <trkpt lat="39.1899530" lon="-1.4216320">
        <ele>672.8</ele>
        <time>2019-05-11T10:23:16Z</time>
      </trkpt>
      <trkpt lat="39.1899680" lon="-1.4217140">
        <ele>672.8</ele>
        <time>2019-05-11T10:23:17Z</time>
      </trkpt>
      <trkpt lat="39.1899910" lon="-1.4217970">
        <ele>672.8</ele>
        <time>2019-05-11T10:23:18Z</time>
      </trkpt>
      <trkpt lat="39.1900130" lon="-1.4218830">
        <ele>672.8</ele>
        <time>2019-05-11T10:23:19Z</time>
      </trkpt>
      <trkpt lat="39.1900400" lon="-1.4219730">
        <ele>672.8</ele>
        <time>2019-05-11T10:23:20Z</time>
      </trkpt>
      <trkpt lat="39.1900790" lon="-1.4220580">
        <ele>672.8</ele>
        <time>2019-05-11T10:23:21Z</time>
      </trkpt>
      <trkpt lat="39.1901190" lon="-1.4221410">
        <ele>672.8</ele>
        <time>2019-05-11T10:23:22Z</time>
      </trkpt>
      <trkpt lat="39.1901570" lon="-1.4222260">
        <ele>672.8</ele>
        <time>2019-05-11T10:23:23Z</time>
      </trkpt>
      <trkpt lat="39.1901900" lon="-1.4223150">
        <ele>672.8</ele>
        <time>2019-05-11T10:23:24Z</time>
      </trkpt>
      <trkpt lat="39.1902170" lon="-1.4224000">
        <ele>672.6</ele>
        <time>2019-05-11T10:23:25Z</time>
      </trkpt>
      <trkpt lat="39.1902460" lon="-1.4224780">
        <ele>672.4</ele>
        <time>2019-05-11T10:23:26Z</time>
      </trkpt>
      <trkpt lat="39.1902840" lon="-1.4225430">
        <ele>672.2</ele>
        <time>2019-05-11T10:23:27Z</time>
      </trkpt>
      <trkpt lat="39.1903310" lon="-1.4225920">
        <ele>672.0</ele>
        <time>2019-05-11T10:23:28Z</time>
      </trkpt>
      <trkpt lat="39.1903820" lon="-1.4226250">
        <ele>671.8</ele>
        <time>2019-05-11T10:23:29Z</time>
      </trkpt>
      <trkpt lat="39.1904370" lon="-1.4226450">
        <ele>671.8</ele>
        <time>2019-05-11T10:23:30Z</time>
      </trkpt>
      <trkpt lat="39.1904910" lon="-1.4226590">
        <ele>671.6</ele>
        <time>2019-05-11T10:23:31Z</time>
      </trkpt>
      <trkpt lat="39.1905410" lon="-1.4226660">
        <ele>671.6</ele>
        <time>2019-05-11T10:23:32Z</time>
      </trkpt>
      <trkpt lat="39.1905890" lon="-1.4226700">
        <ele>671.6</ele>
        <time>2019-05-11T10:23:33Z</time>
      </trkpt>
      <trkpt lat="39.1906350" lon="-1.4226710">
        <ele>671.6</ele>
        <time>2019-05-11T10:23:34Z</time>
      </trkpt>
      <trkpt lat="39.1906790" lon="-1.4226720">
        <ele>671.6</ele>
        <time>2019-05-11T10:23:35Z</time>
      </trkpt>
      <trkpt lat="39.1907230" lon="-1.4226770">
        <ele>671.6</ele>
        <time>2019-05-11T10:23:36Z</time>
      </trkpt>
      <trkpt lat="39.1907670" lon="-1.4226910">
        <ele>671.6</ele>
        <time>2019-05-11T10:23:37Z</time>
      </trkpt>
      <trkpt lat="39.1908120" lon="-1.4227110">
        <ele>671.6</ele>
        <time>2019-05-11T10:23:38Z</time>
      </trkpt>
      <trkpt lat="39.1908600" lon="-1.4227330">
        <ele>671.8</ele>
        <time>2019-05-11T10:23:39Z</time>
      </trkpt>
      <trkpt lat="39.1909120" lon="-1.4227590">
        <ele>672.0</ele>
        <time>2019-05-11T10:23:40Z</time>
      </trkpt>
      <trkpt lat="39.1909640" lon="-1.4227890">
        <ele>672.2</ele>
        <time>2019-05-11T10:23:41Z</time>
      </trkpt>
      <trkpt lat="39.1910160" lon="-1.4228220">
        <ele>672.4</ele>
        <time>2019-05-11T10:23:42Z</time>
      </trkpt>
      <trkpt lat="39.1910680" lon="-1.4228590">
        <ele>672.4</ele>
        <time>2019-05-11T10:23:43Z</time>
      </trkpt>
      <trkpt lat="39.1911180" lon="-1.4228980">
        <ele>672.6</ele>
        <time>2019-05-11T10:23:44Z</time>
      </trkpt>
      <trkpt lat="39.1911680" lon="-1.4229380">
        <ele>672.6</ele>
        <time>2019-05-11T10:23:45Z</time>
      </trkpt>
      <trkpt lat="39.1912180" lon="-1.4229800">
        <ele>672.8</ele>
        <time>2019-05-11T10:23:46Z</time>
      </trkpt>
      <trkpt lat="39.1912690" lon="-1.4230240">
        <ele>672.8</ele>
        <time>2019-05-11T10:23:47Z</time>
      </trkpt>
      <trkpt lat="39.1913200" lon="-1.4230670">
        <ele>672.8</ele>
        <time>2019-05-11T10:23:48Z</time>
      </trkpt>
      <trkpt lat="39.1913690" lon="-1.4231110">
        <ele>672.8</ele>
        <time>2019-05-11T10:23:49Z</time>
      </trkpt>
      <trkpt lat="39.1914180" lon="-1.4231560">
        <ele>673.0</ele>
        <time>2019-05-11T10:23:50Z</time>
      </trkpt>
      <trkpt lat="39.1914670" lon="-1.4232000">
        <ele>673.0</ele>
        <time>2019-05-11T10:23:51Z</time>
      </trkpt>
      <trkpt lat="39.1915160" lon="-1.4232450">
        <ele>673.0</ele>
        <time>2019-05-11T10:23:52Z</time>
      </trkpt>
      <trkpt lat="39.1915660" lon="-1.4232890">
        <ele>673.0</ele>
        <time>2019-05-11T10:23:53Z</time>
      </trkpt>
      <trkpt lat="39.1916150" lon="-1.4233320">
        <ele>673.0</ele>
        <time>2019-05-11T10:23:54Z</time>
      </trkpt>
      <trkpt lat="39.1916630" lon="-1.4233740">
        <ele>673.0</ele>
        <time>2019-05-11T10:23:55Z</time>
      </trkpt>
      <trkpt lat="39.1917110" lon="-1.4234150">
        <ele>673.0</ele>
        <time>2019-05-11T10:23:56Z</time>
      </trkpt>
      <trkpt lat="39.1917570" lon="-1.4234560">
        <ele>673.0</ele>
        <time>2019-05-11T10:23:57Z</time>
      </trkpt>
      <trkpt lat="39.1918030" lon="-1.4234960">
        <ele>673.0</ele>
        <time>2019-05-11T10:23:58Z</time>
      </trkpt>
      <trkpt lat="39.1918490" lon="-1.4235350">
        <ele>673.0</ele>
        <time>2019-05-11T10:23:59Z</time>
      </trkpt>
      <trkpt lat="39.1918950" lon="-1.4235710">
        <ele>673.0</ele>
        <time>2019-05-11T10:24:00Z</time>
      </trkpt>
      <trkpt lat="39.1919440" lon="-1.4236030">
        <ele>673.0</ele>
        <time>2019-05-11T10:24:01Z</time>
      </trkpt>
      <trkpt lat="39.1919940" lon="-1.4236310">
        <ele>673.0</ele>
        <time>2019-05-11T10:24:02Z</time>
      </trkpt>
      <trkpt lat="39.1920470" lon="-1.4236500">
        <ele>673.0</ele>
        <time>2019-05-11T10:24:03Z</time>
      </trkpt>
      <trkpt lat="39.1921010" lon="-1.4236580">
        <ele>673.0</ele>
        <time>2019-05-11T10:24:04Z</time>
      </trkpt>
      <trkpt lat="39.1921550" lon="-1.4236520">
        <ele>673.0</ele>
        <time>2019-05-11T10:24:05Z</time>
      </trkpt>
      <trkpt lat="39.1922080" lon="-1.4236410">
        <ele>673.2</ele>
        <time>2019-05-11T10:24:06Z</time>
      </trkpt>
      <trkpt lat="39.1922590" lon="-1.4236340">
        <ele>673.2</ele>
        <time>2019-05-11T10:24:07Z</time>
      </trkpt>
      <trkpt lat="39.1923100" lon="-1.4236450">
        <ele>673.2</ele>
        <time>2019-05-11T10:24:08Z</time>
      </trkpt>
      <trkpt lat="39.1923550" lon="-1.4236760">
        <ele>673.2</ele>
        <time>2019-05-11T10:24:09Z</time>
      </trkpt>
      <trkpt lat="39.1923910" lon="-1.4237250">
        <ele>673.2</ele>
        <time>2019-05-11T10:24:10Z</time>
      </trkpt>
      <trkpt lat="39.1924180" lon="-1.4237890">
        <ele>673.2</ele>
        <time>2019-05-11T10:24:11Z</time>
      </trkpt>
      <trkpt lat="39.1924330" lon="-1.4238610">
        <ele>673.2</ele>
        <time>2019-05-11T10:24:12Z</time>
      </trkpt>
      <trkpt lat="39.1924380" lon="-1.4239370">
        <ele>673.2</ele>
        <time>2019-05-11T10:24:13Z</time>
      </trkpt>
      <trkpt lat="39.1924390" lon="-1.4240130">
        <ele>673.2</ele>
        <time>2019-05-11T10:24:14Z</time>
      </trkpt>
      <trkpt lat="39.1924380" lon="-1.4240890">
        <ele>673.2</ele>
        <time>2019-05-11T10:24:15Z</time>
      </trkpt>
      <trkpt lat="39.1924380" lon="-1.4241660">
        <ele>673.2</ele>
        <time>2019-05-11T10:24:16Z</time>
      </trkpt>
      <trkpt lat="39.1924430" lon="-1.4242420">
        <ele>673.2</ele>
        <time>2019-05-11T10:24:17Z</time>
      </trkpt>
      <trkpt lat="39.1924590" lon="-1.4243080">
        <ele>673.2</ele>
        <time>2019-05-11T10:24:18Z</time>
      </trkpt>
      <trkpt lat="39.1924830" lon="-1.4243580">
        <ele>673.2</ele>
        <time>2019-05-11T10:24:19Z</time>
      </trkpt>
      <trkpt lat="39.1925130" lon="-1.4243850">
        <ele>673.2</ele>
        <time>2019-05-11T10:24:20Z</time>
      </trkpt>
      <trkpt lat="39.1925430" lon="-1.4243860">
        <ele>673.2</ele>
        <time>2019-05-11T10:24:21Z</time>
      </trkpt>
      <trkpt lat="39.1925710" lon="-1.4243710">
        <ele>673.2</ele>
        <time>2019-05-11T10:24:22Z</time>
      </trkpt>
      <trkpt lat="39.1926000" lon="-1.4243490">
        <ele>673.0</ele>
        <time>2019-05-11T10:24:23Z</time>
      </trkpt>
      <trkpt lat="39.1926270" lon="-1.4243220">
        <ele>673.0</ele>
        <time>2019-05-11T10:24:24Z</time>
      </trkpt>
      <trkpt lat="39.1926530" lon="-1.4242910">
        <ele>672.8</ele>
        <time>2019-05-11T10:24:25Z</time>
      </trkpt>
      <trkpt lat="39.1926830" lon="-1.4242610">
        <ele>672.8</ele>
        <time>2019-05-11T10:24:26Z</time>
      </trkpt>
      <trkpt lat="39.1927140" lon="-1.4242310">
        <ele>672.8</ele>
        <time>2019-05-11T10:24:27Z</time>
      </trkpt>
      <trkpt lat="39.1927430" lon="-1.4242010">
        <ele>672.8</ele>
        <time>2019-05-11T10:24:28Z</time>
      </trkpt>
      <trkpt lat="39.1927710" lon="-1.4241680">
        <ele>672.8</ele>
        <time>2019-05-11T10:24:29Z</time>
      </trkpt>
      <trkpt lat="39.1928000" lon="-1.4241350">
        <ele>672.8</ele>
        <time>2019-05-11T10:24:30Z</time>
      </trkpt>
      <trkpt lat="39.1928300" lon="-1.4241020">
        <ele>672.8</ele>
        <time>2019-05-11T10:24:31Z</time>
      </trkpt>
      <trkpt lat="39.1928600" lon="-1.4240670">
        <ele>672.8</ele>
        <time>2019-05-11T10:24:32Z</time>
      </trkpt>
      <trkpt lat="39.1928890" lon="-1.4240290">
        <ele>672.8</ele>
        <time>2019-05-11T10:24:33Z</time>
      </trkpt>
      <trkpt lat="39.1929180" lon="-1.4239930">
        <ele>672.8</ele>
        <time>2019-05-11T10:24:34Z</time>
      </trkpt>
      <trkpt lat="39.1929520" lon="-1.4239650">
        <ele>673.0</ele>
        <time>2019-05-11T10:24:35Z</time>
      </trkpt>
      <trkpt lat="39.1929870" lon="-1.4239420">
        <ele>673.0</ele>
        <time>2019-05-11T10:24:36Z</time>
      </trkpt>
      <trkpt lat="39.1930220" lon="-1.4239140">
        <ele>673.0</ele>
        <time>2019-05-11T10:24:37Z</time>
      </trkpt>
      <trkpt lat="39.1930570" lon="-1.4238820">
        <ele>673.0</ele>
        <time>2019-05-11T10:24:38Z</time>
      </trkpt>
      <trkpt lat="39.1930930" lon="-1.4238540">
        <ele>673.2</ele>
        <time>2019-05-11T10:24:39Z</time>
      </trkpt>
      <trkpt lat="39.1931280" lon="-1.4238270">
        <ele>673.2</ele>
        <time>2019-05-11T10:24:40Z</time>
      </trkpt>
      <trkpt lat="39.1931550" lon="-1.4237940">
        <ele>673.4</ele>
        <time>2019-05-11T10:24:41Z</time>
      </trkpt>
      <trkpt lat="39.1931800" lon="-1.4237580">
        <ele>673.4</ele>
        <time>2019-05-11T10:24:42Z</time>
      </trkpt>
      <trkpt lat="39.1932000" lon="-1.4237210">
        <ele>673.4</ele>
        <time>2019-05-11T10:24:43Z</time>
      </trkpt>
      <trkpt lat="39.1932100" lon="-1.4236790">
        <ele>673.6</ele>
        <time>2019-05-11T10:24:44Z</time>
      </trkpt>
      <trkpt lat="39.1932060" lon="-1.4236380">
        <ele>673.6</ele>
        <time>2019-05-11T10:24:45Z</time>
      </trkpt>
      <trkpt lat="39.1931950" lon="-1.4235980">
        <ele>673.6</ele>
        <time>2019-05-11T10:24:46Z</time>
      </trkpt>
      <trkpt lat="39.1931770" lon="-1.4235600">
        <ele>673.6</ele>
        <time>2019-05-11T10:24:47Z</time>
      </trkpt>
      <trkpt lat="39.1931600" lon="-1.4235240">
        <ele>673.6</ele>
        <time>2019-05-11T10:24:48Z</time>
      </trkpt>
      <trkpt lat="39.1931440" lon="-1.4234860">
        <ele>673.8</ele>
        <time>2019-05-11T10:24:49Z</time>
      </trkpt>
      <trkpt lat="39.1931230" lon="-1.4234540">
        <ele>673.8</ele>
        <time>2019-05-11T10:24:50Z</time>
      </trkpt>
      <trkpt lat="39.1931000" lon="-1.4234250">
        <ele>674.0</ele>
        <time>2019-05-11T10:24:51Z</time>
      </trkpt>
      <trkpt lat="39.1930760" lon="-1.4233970">
        <ele>674.0</ele>
        <time>2019-05-11T10:24:52Z</time>
      </trkpt>
      <trkpt lat="39.1930480" lon="-1.4233760">
        <ele>674.0</ele>
        <time>2019-05-11T10:24:53Z</time>
      </trkpt>
      <trkpt lat="39.1930180" lon="-1.4233600">
        <ele>674.0</ele>
        <time>2019-05-11T10:24:54Z</time>
      </trkpt>
      <trkpt lat="39.1929950" lon="-1.4233420">
        <ele>674.2</ele>
        <time>2019-05-11T10:24:55Z</time>
      </trkpt>
      <trkpt lat="39.1929750" lon="-1.4233150">
        <ele>674.2</ele>
        <time>2019-05-11T10:24:56Z</time>
      </trkpt>
      <trkpt lat="39.1929520" lon="-1.4232860">
        <ele>674.2</ele>
        <time>2019-05-11T10:24:57Z</time>
      </trkpt>
      <trkpt lat="39.1929250" lon="-1.4232590">
        <ele>674.4</ele>
        <time>2019-05-11T10:24:58Z</time>
      </trkpt>
      <trkpt lat="39.1928970" lon="-1.4232350">
        <ele>674.6</ele>
        <time>2019-05-11T10:24:59Z</time>
      </trkpt>
      <trkpt lat="39.1928710" lon="-1.4232160">
        <ele>674.6</ele>
        <time>2019-05-11T10:25:00Z</time>
      </trkpt>
      <trkpt lat="39.1928470" lon="-1.4232000">
        <ele>674.8</ele>
        <time>2019-05-11T10:25:01Z</time>
      </trkpt>
      <trkpt lat="39.1928230" lon="-1.4231800">
        <ele>675.0</ele>
        <time>2019-05-11T10:25:02Z</time>
      </trkpt>
      <trkpt lat="39.1928000" lon="-1.4231520">
        <ele>675.2</ele>
        <time>2019-05-11T10:25:03Z</time>
      </trkpt>
      <trkpt lat="39.1927810" lon="-1.4231140">
        <ele>675.2</ele>
        <time>2019-05-11T10:25:04Z</time>
      </trkpt>
      <trkpt lat="39.1927600" lon="-1.4230740">
        <ele>675.2</ele>
        <time>2019-05-11T10:25:05Z</time>
      </trkpt>
      <trkpt lat="39.1927320" lon="-1.4230410">
        <ele>675.4</ele>
        <time>2019-05-11T10:25:06Z</time>
      </trkpt>
      <trkpt lat="39.1926980" lon="-1.4230160">
        <ele>675.4</ele>
        <time>2019-05-11T10:25:07Z</time>
      </trkpt>
      <trkpt lat="39.1926670" lon="-1.4229840">
        <ele>675.4</ele>
        <time>2019-05-11T10:25:08Z</time>
      </trkpt>
      <trkpt lat="39.1926420" lon="-1.4229440">
        <ele>675.6</ele>
        <time>2019-05-11T10:25:09Z</time>
      </trkpt>
      <trkpt lat="39.1926230" lon="-1.4228960">
        <ele>675.6</ele>
        <time>2019-05-11T10:25:10Z</time>
      </trkpt>
      <trkpt lat="39.1926030" lon="-1.4228450">
        <ele>675.6</ele>
        <time>2019-05-11T10:25:11Z</time>
      </trkpt>
      <trkpt lat="39.1925820" lon="-1.4227950">
        <ele>675.6</ele>
        <time>2019-05-11T10:25:12Z</time>
      </trkpt>
      <trkpt lat="39.1925620" lon="-1.4227490">
        <ele>675.6</ele>
        <time>2019-05-11T10:25:13Z</time>
      </trkpt>
      <trkpt lat="39.1925410" lon="-1.4227070">
        <ele>675.6</ele>
        <time>2019-05-11T10:25:14Z</time>
      </trkpt>
      <trkpt lat="39.1925180" lon="-1.4226700">
        <ele>675.6</ele>
        <time>2019-05-11T10:25:15Z</time>
      </trkpt>
      <trkpt lat="39.1924940" lon="-1.4226310">
        <ele>675.6</ele>
        <time>2019-05-11T10:25:16Z</time>
      </trkpt>
      <trkpt lat="39.1924690" lon="-1.4225910">
        <ele>675.6</ele>
        <time>2019-05-11T10:25:17Z</time>
      </trkpt>
      <trkpt lat="39.1924450" lon="-1.4225480">
        <ele>675.4</ele>
        <time>2019-05-11T10:25:18Z</time>
      </trkpt>
      <trkpt lat="39.1924190" lon="-1.4225100">
        <ele>675.2</ele>
        <time>2019-05-11T10:25:19Z</time>
      </trkpt>
      <trkpt lat="39.1923910" lon="-1.4224760">
        <ele>675.2</ele>
        <time>2019-05-11T10:25:20Z</time>
      </trkpt>
      <trkpt lat="39.1923660" lon="-1.4224370">
        <ele>675.0</ele>
        <time>2019-05-11T10:25:21Z</time>
      </trkpt>
      <trkpt lat="39.1923450" lon="-1.4223900">
        <ele>675.0</ele>
        <time>2019-05-11T10:25:22Z</time>
      </trkpt>
      <trkpt lat="39.1923330" lon="-1.4223330">
        <ele>674.8</ele>
        <time>2019-05-11T10:25:23Z</time>
      </trkpt>
      <trkpt lat="39.1923230" lon="-1.4222770">
        <ele>674.8</ele>
        <time>2019-05-11T10:25:24Z</time>
      </trkpt>
      <trkpt lat="39.1923110" lon="-1.4222200">
        <ele>674.8</ele>
        <time>2019-05-11T10:25:25Z</time>
      </trkpt>
      <trkpt lat="39.1922970" lon="-1.4221640">
        <ele>674.8</ele>
        <time>2019-05-11T10:25:26Z</time>
      </trkpt>
      <trkpt lat="39.1922870" lon="-1.4221030">
        <ele>674.6</ele>
        <time>2019-05-11T10:25:27Z</time>
      </trkpt>
      <trkpt lat="39.1922740" lon="-1.4220420">
        <ele>674.6</ele>
        <time>2019-05-11T10:25:28Z</time>
      </trkpt>
      <trkpt lat="39.1922560" lon="-1.4219810">
        <ele>674.6</ele>
        <time>2019-05-11T10:25:29Z</time>
      </trkpt>
      <trkpt lat="39.1922360" lon="-1.4219190">
        <ele>674.4</ele>
        <time>2019-05-11T10:25:30Z</time>
      </trkpt>
      <trkpt lat="39.1922190" lon="-1.4218610">
        <ele>674.4</ele>
        <time>2019-05-11T10:25:31Z</time>
      </trkpt>
      <trkpt lat="39.1921980" lon="-1.4218110">
        <ele>674.4</ele>
        <time>2019-05-11T10:25:32Z</time>
      </trkpt>
      <trkpt lat="39.1921810" lon="-1.4217620">
        <ele>674.4</ele>
        <time>2019-05-11T10:25:33Z</time>
      </trkpt>
      <trkpt lat="39.1921700" lon="-1.4217190">
        <ele>674.4</ele>
        <time>2019-05-11T10:25:34Z</time>
      </trkpt>
      <trkpt lat="39.1921610" lon="-1.4216740">
        <ele>674.4</ele>
        <time>2019-05-11T10:25:35Z</time>
      </trkpt>
      <trkpt lat="39.1921500" lon="-1.4216310">
        <ele>674.2</ele>
        <time>2019-05-11T10:25:36Z</time>
      </trkpt>
      <trkpt lat="39.1921310" lon="-1.4215910">
        <ele>674.2</ele>
        <time>2019-05-11T10:25:37Z</time>
      </trkpt>
      <trkpt lat="39.1921100" lon="-1.4215610">
        <ele>674.2</ele>
        <time>2019-05-11T10:25:38Z</time>
      </trkpt>
      <trkpt lat="39.1920910" lon="-1.4215330">
        <ele>674.2</ele>
        <time>2019-05-11T10:25:39Z</time>
      </trkpt>
      <trkpt lat="39.1920720" lon="-1.4214990">
        <ele>674.2</ele>
        <time>2019-05-11T10:25:40Z</time>
      </trkpt>
      <trkpt lat="39.1920550" lon="-1.4214590">
        <ele>674.2</ele>
        <time>2019-05-11T10:25:41Z</time>
      </trkpt>
      <trkpt lat="39.1920400" lon="-1.4214150">
        <ele>674.2</ele>
        <time>2019-05-11T10:25:42Z</time>
      </trkpt>
      <trkpt lat="39.1920240" lon="-1.4213710">
        <ele>674.2</ele>
        <time>2019-05-11T10:25:43Z</time>
      </trkpt>
      <trkpt lat="39.1920060" lon="-1.4213240">
        <ele>674.0</ele>
        <time>2019-05-11T10:25:44Z</time>
      </trkpt>
      <trkpt lat="39.1919940" lon="-1.4212720">
        <ele>674.0</ele>
        <time>2019-05-11T10:25:45Z</time>
      </trkpt>
      <trkpt lat="39.1919840" lon="-1.4212180">
        <ele>674.0</ele>
        <time>2019-05-11T10:25:46Z</time>
      </trkpt>
      <trkpt lat="39.1919740" lon="-1.4211640">
        <ele>674.0</ele>
        <time>2019-05-11T10:25:47Z</time>
      </trkpt>
      <trkpt lat="39.1919660" lon="-1.4211100">
        <ele>674.2</ele>
        <time>2019-05-11T10:25:48Z</time>
      </trkpt>
      <trkpt lat="39.1919590" lon="-1.4210540">
        <ele>674.2</ele>
        <time>2019-05-11T10:25:49Z</time>
      </trkpt>
      <trkpt lat="39.1919490" lon="-1.4209980">
        <ele>674.2</ele>
        <time>2019-05-11T10:25:50Z</time>
      </trkpt>
      <trkpt lat="39.1919370" lon="-1.4209450">
        <ele>674.2</ele>
        <time>2019-05-11T10:25:51Z</time>
      </trkpt>
      <trkpt lat="39.1919230" lon="-1.4208930">
        <ele>674.2</ele>
        <time>2019-05-11T10:25:52Z</time>
      </trkpt>
      <trkpt lat="39.1919050" lon="-1.4208430">
        <ele>674.2</ele>
        <time>2019-05-11T10:25:53Z</time>
      </trkpt>
      <trkpt lat="39.1918830" lon="-1.4207940">
        <ele>674.2</ele>
        <time>2019-05-11T10:25:54Z</time>
      </trkpt>
      <trkpt lat="39.1918580" lon="-1.4207450">
        <ele>674.2</ele>
        <time>2019-05-11T10:25:55Z</time>
      </trkpt>
      <trkpt lat="39.1918310" lon="-1.4206950">
        <ele>674.2</ele>
        <time>2019-05-11T10:25:56Z</time>
      </trkpt>
      <trkpt lat="39.1918010" lon="-1.4206460">
        <ele>674.2</ele>
        <time>2019-05-11T10:25:57Z</time>
      </trkpt>
      <trkpt lat="39.1917680" lon="-1.4205960">
        <ele>674.4</ele>
        <time>2019-05-11T10:25:58Z</time>
      </trkpt>
      <trkpt lat="39.1917340" lon="-1.4205500">
        <ele>674.4</ele>
        <time>2019-05-11T10:25:59Z</time>
      </trkpt>
      <trkpt lat="39.1917020" lon="-1.4205080">
        <ele>674.4</ele>
        <time>2019-05-11T10:26:00Z</time>
      </trkpt>
      <trkpt lat="39.1916740" lon="-1.4204650">
        <ele>674.6</ele>
        <time>2019-05-11T10:26:01Z</time>
      </trkpt>
      <trkpt lat="39.1916510" lon="-1.4204210">
        <ele>674.6</ele>
        <time>2019-05-11T10:26:02Z</time>
      </trkpt>
      <trkpt lat="39.1916350" lon="-1.4203750">
        <ele>674.6</ele>
        <time>2019-05-11T10:26:03Z</time>
      </trkpt>
      <trkpt lat="39.1916160" lon="-1.4203330">
        <ele>674.6</ele>
        <time>2019-05-11T10:26:04Z</time>
      </trkpt>
      <trkpt lat="39.1915980" lon="-1.4202930">
        <ele>674.6</ele>
        <time>2019-05-11T10:26:05Z</time>
      </trkpt>
      <trkpt lat="39.1915860" lon="-1.4202500">
        <ele>674.6</ele>
        <time>2019-05-11T10:26:06Z</time>
      </trkpt>
      <trkpt lat="39.1915810" lon="-1.4202030">
        <ele>674.6</ele>
        <time>2019-05-11T10:26:07Z</time>
      </trkpt>
      <trkpt lat="39.1915790" lon="-1.4201620">
        <ele>674.6</ele>
        <time>2019-05-11T10:26:08Z</time>
      </trkpt>
      <trkpt lat="39.1915730" lon="-1.4201310">
        <ele>674.6</ele>
        <time>2019-05-11T10:26:09Z</time>
      </trkpt>
      <trkpt lat="39.1915620" lon="-1.4201050">
        <ele>674.6</ele>
        <time>2019-05-11T10:26:10Z</time>
      </trkpt>
      <trkpt lat="39.1915470" lon="-1.4200820">
        <ele>674.6</ele>
        <time>2019-05-11T10:26:11Z</time>
      </trkpt>
      <trkpt lat="39.1915340" lon="-1.4200590">
        <ele>674.6</ele>
        <time>2019-05-11T10:26:12Z</time>
      </trkpt>
      <trkpt lat="39.1915220" lon="-1.4200330">
        <ele>674.6</ele>
        <time>2019-05-11T10:26:13Z</time>
      </trkpt>
      <trkpt lat="39.1915110" lon="-1.4200020">
        <ele>674.6</ele>
        <time>2019-05-11T10:26:14Z</time>
      </trkpt>
      <trkpt lat="39.1915030" lon="-1.4199680">
        <ele>674.2</ele>
        <time>2019-05-11T10:26:15Z</time>
      </trkpt>
      <trkpt lat="39.1914990" lon="-1.4199260">
        <ele>674.2</ele>
        <time>2019-05-11T10:26:16Z</time>
      </trkpt>
      <trkpt lat="39.1914940" lon="-1.4198820">
        <ele>674.0</ele>
        <time>2019-05-11T10:26:17Z</time>
      </trkpt>
      <trkpt lat="39.1914900" lon="-1.4198330">
        <ele>674.0</ele>
        <time>2019-05-11T10:26:18Z</time>
      </trkpt>
      <trkpt lat="39.1914870" lon="-1.4197810">
        <ele>674.0</ele>
        <time>2019-05-11T10:26:19Z</time>
      </trkpt>
      <trkpt lat="39.1914820" lon="-1.4197270">
        <ele>673.8</ele>
        <time>2019-05-11T10:26:20Z</time>
      </trkpt>
      <trkpt lat="39.1914740" lon="-1.4196730">
        <ele>673.8</ele>
        <time>2019-05-11T10:26:21Z</time>
      </trkpt>
      <trkpt lat="39.1914640" lon="-1.4196190">
        <ele>673.8</ele>
        <time>2019-05-11T10:26:22Z</time>
      </trkpt>
      <trkpt lat="39.1914550" lon="-1.4195640">
        <ele>673.8</ele>
        <time>2019-05-11T10:26:23Z</time>
      </trkpt>
      <trkpt lat="39.1914470" lon="-1.4195100">
        <ele>673.8</ele>
        <time>2019-05-11T10:26:24Z</time>
      </trkpt>
      <trkpt lat="39.1914430" lon="-1.4194560">
        <ele>673.8</ele>
        <time>2019-05-11T10:26:25Z</time>
      </trkpt>
      <trkpt lat="39.1914390" lon="-1.4194000">
        <ele>673.8</ele>
        <time>2019-05-11T10:26:26Z</time>
      </trkpt>
      <trkpt lat="39.1914350" lon="-1.4193450">
        <ele>673.8</ele>
        <time>2019-05-11T10:26:27Z</time>
      </trkpt>
      <trkpt lat="39.1914340" lon="-1.4192880">
        <ele>673.8</ele>
        <time>2019-05-11T10:26:28Z</time>
      </trkpt>
      <trkpt lat="39.1914290" lon="-1.4192350">
        <ele>673.8</ele>
        <time>2019-05-11T10:26:29Z</time>
      </trkpt>
      <trkpt lat="39.1914300" lon="-1.4191840">
        <ele>673.8</ele>
        <time>2019-05-11T10:26:30Z</time>
      </trkpt>
      <trkpt lat="39.1914330" lon="-1.4191350">
        <ele>674.0</ele>
        <time>2019-05-11T10:26:31Z</time>
      </trkpt>
      <trkpt lat="39.1914350" lon="-1.4190880">
        <ele>674.0</ele>
        <time>2019-05-11T10:26:32Z</time>
      </trkpt>
      <trkpt lat="39.1914340" lon="-1.4190410">
        <ele>674.0</ele>
        <time>2019-05-11T10:26:33Z</time>
      </trkpt>
      <trkpt lat="39.1914310" lon="-1.4189950">
        <ele>674.0</ele>
        <time>2019-05-11T10:26:34Z</time>
      </trkpt>
      <trkpt lat="39.1914300" lon="-1.4189500">
        <ele>674.0</ele>
        <time>2019-05-11T10:26:35Z</time>
      </trkpt>
      <trkpt lat="39.1914250" lon="-1.4189050">
        <ele>674.2</ele>
        <time>2019-05-11T10:26:36Z</time>
      </trkpt>
      <trkpt lat="39.1914190" lon="-1.4188600">
        <ele>674.4</ele>
        <time>2019-05-11T10:26:37Z</time>
      </trkpt>
      <trkpt lat="39.1914140" lon="-1.4188140">
        <ele>674.4</ele>
        <time>2019-05-11T10:26:38Z</time>
      </trkpt>
      <trkpt lat="39.1914110" lon="-1.4187690">
        <ele>674.4</ele>
        <time>2019-05-11T10:26:39Z</time>
      </trkpt>
      <trkpt lat="39.1914090" lon="-1.4187250">
        <ele>674.6</ele>
        <time>2019-05-11T10:26:40Z</time>
      </trkpt>
      <trkpt lat="39.1914090" lon="-1.4186810">
        <ele>674.8</ele>
        <time>2019-05-11T10:26:41Z</time>
      </trkpt>
      <trkpt lat="39.1914130" lon="-1.4186360">
        <ele>674.8</ele>
        <time>2019-05-11T10:26:42Z</time>
      </trkpt>
      <trkpt lat="39.1914210" lon="-1.4185940">
        <ele>675.0</ele>
        <time>2019-05-11T10:26:43Z</time>
      </trkpt>
      <trkpt lat="39.1914360" lon="-1.4185550">
        <ele>675.0</ele>
        <time>2019-05-11T10:26:44Z</time>
      </trkpt>
      <trkpt lat="39.1914560" lon="-1.4185120">
        <ele>675.0</ele>
        <time>2019-05-11T10:26:45Z</time>
      </trkpt>
      <trkpt lat="39.1914800" lon="-1.4184680">
        <ele>675.0</ele>
        <time>2019-05-11T10:26:46Z</time>
      </trkpt>
      <trkpt lat="39.1915000" lon="-1.4184250">
        <ele>675.2</ele>
        <time>2019-05-11T10:26:47Z</time>
      </trkpt>
      <trkpt lat="39.1915220" lon="-1.4183880">
        <ele>675.2</ele>
        <time>2019-05-11T10:26:48Z</time>
      </trkpt>
      <trkpt lat="39.1915450" lon="-1.4183560">
        <ele>675.2</ele>
        <time>2019-05-11T10:26:49Z</time>
      </trkpt>
      <trkpt lat="39.1915690" lon="-1.4183230">
        <ele>675.4</ele>
        <time>2019-05-11T10:26:50Z</time>
      </trkpt>
      <trkpt lat="39.1915890" lon="-1.4182830">
        <ele>675.4</ele>
        <time>2019-05-11T10:26:51Z</time>
      </trkpt>
      <trkpt lat="39.1916070" lon="-1.4182370">
        <ele>675.4</ele>
        <time>2019-05-11T10:26:52Z</time>
      </trkpt>
      <trkpt lat="39.1916260" lon="-1.4181920">
        <ele>675.4</ele>
        <time>2019-05-11T10:26:53Z</time>
      </trkpt>
      <trkpt lat="39.1916430" lon="-1.4181460">
        <ele>675.4</ele>
        <time>2019-05-11T10:26:54Z</time>
      </trkpt>
      <trkpt lat="39.1916510" lon="-1.4180990">
        <ele>675.4</ele>
        <time>2019-05-11T10:26:55Z</time>
      </trkpt>
      <trkpt lat="39.1916540" lon="-1.4180540">
        <ele>675.4</ele>
        <time>2019-05-11T10:26:56Z</time>
      </trkpt>
      <trkpt lat="39.1916590" lon="-1.4180090">
        <ele>675.4</ele>
        <time>2019-05-11T10:26:57Z</time>
      </trkpt>
      <trkpt lat="39.1916620" lon="-1.4179690">
        <ele>675.4</ele>
        <time>2019-05-11T10:26:58Z</time>
      </trkpt>
      <trkpt lat="39.1916640" lon="-1.4179290">
        <ele>675.6</ele>
        <time>2019-05-11T10:26:59Z</time>
      </trkpt>
      <trkpt lat="39.1916690" lon="-1.4178860">
        <ele>675.6</ele>
        <time>2019-05-11T10:27:00Z</time>
      </trkpt>
      <trkpt lat="39.1916740" lon="-1.4178400">
        <ele>675.6</ele>
        <time>2019-05-11T10:27:01Z</time>
      </trkpt>
      <trkpt lat="39.1916810" lon="-1.4177920">
        <ele>675.6</ele>
        <time>2019-05-11T10:27:02Z</time>
      </trkpt>
      <trkpt lat="39.1916920" lon="-1.4177430">
        <ele>675.6</ele>
        <time>2019-05-11T10:27:03Z</time>
      </trkpt>
      <trkpt lat="39.1917110" lon="-1.4176960">
        <ele>675.6</ele>
        <time>2019-05-11T10:27:04Z</time>
      </trkpt>
      <trkpt lat="39.1917310" lon="-1.4176470">
        <ele>675.6</ele>
        <time>2019-05-11T10:27:05Z</time>
      </trkpt>
      <trkpt lat="39.1917400" lon="-1.4175940">
        <ele>675.6</ele>
        <time>2019-05-11T10:27:06Z</time>
      </trkpt>
      <trkpt lat="39.1917470" lon="-1.4175460">
        <ele>675.6</ele>
        <time>2019-05-11T10:27:07Z</time>
      </trkpt>
      <trkpt lat="39.1917640" lon="-1.4174970">
        <ele>675.6</ele>
        <time>2019-05-11T10:27:08Z</time>
      </trkpt>
      <trkpt lat="39.1917890" lon="-1.4174520">
        <ele>675.6</ele>
        <time>2019-05-11T10:27:09Z</time>
      </trkpt>
      <trkpt lat="39.1918140" lon="-1.4174080">
        <ele>675.8</ele>
        <time>2019-05-11T10:27:10Z</time>
      </trkpt>
      <trkpt lat="39.1918370" lon="-1.4173630">
        <ele>675.8</ele>
        <time>2019-05-11T10:27:11Z</time>
      </trkpt>
      <trkpt lat="39.1918590" lon="-1.4173200">
        <ele>675.8</ele>
        <time>2019-05-11T10:27:12Z</time>
      </trkpt>
      <trkpt lat="39.1918790" lon="-1.4172800">
        <ele>676.0</ele>
        <time>2019-05-11T10:27:13Z</time>
      </trkpt>
      <trkpt lat="39.1919010" lon="-1.4172400">
        <ele>676.0</ele>
        <time>2019-05-11T10:27:14Z</time>
      </trkpt>
      <trkpt lat="39.1919220" lon="-1.4171980">
        <ele>676.0</ele>
        <time>2019-05-11T10:27:15Z</time>
      </trkpt>
      <trkpt lat="39.1919470" lon="-1.4171550">
        <ele>676.0</ele>
        <time>2019-05-11T10:27:16Z</time>
      </trkpt>
      <trkpt lat="39.1919720" lon="-1.4171100">
        <ele>676.0</ele>
        <time>2019-05-11T10:27:17Z</time>
      </trkpt>
      <trkpt lat="39.1919950" lon="-1.4170610">
        <ele>676.0</ele>
        <time>2019-05-11T10:27:18Z</time>
      </trkpt>
      <trkpt lat="39.1920180" lon="-1.4170100">
        <ele>676.0</ele>
        <time>2019-05-11T10:27:19Z</time>
      </trkpt>
      <trkpt lat="39.1920400" lon="-1.4169600">
        <ele>676.0</ele>
        <time>2019-05-11T10:27:20Z</time>
      </trkpt>
      <trkpt lat="39.1920610" lon="-1.4169080">
        <ele>676.0</ele>
        <time>2019-05-11T10:27:21Z</time>
      </trkpt>
      <trkpt lat="39.1920820" lon="-1.4168570">
        <ele>676.0</ele>
        <time>2019-05-11T10:27:22Z</time>
      </trkpt>
      <trkpt lat="39.1921020" lon="-1.4168040">
        <ele>676.0</ele>
        <time>2019-05-11T10:27:23Z</time>
      </trkpt>
      <trkpt lat="39.1921240" lon="-1.4167520">
        <ele>676.0</ele>
        <time>2019-05-11T10:27:24Z</time>
      </trkpt>
      <trkpt lat="39.1921440" lon="-1.4167010">
        <ele>676.0</ele>
        <time>2019-05-11T10:27:25Z</time>
      </trkpt>
      <trkpt lat="39.1921620" lon="-1.4166530">
        <ele>676.0</ele>
        <time>2019-05-11T10:27:26Z</time>
      </trkpt>
      <trkpt lat="39.1921750" lon="-1.4166050">
        <ele>676.0</ele>
        <time>2019-05-11T10:27:27Z</time>
      </trkpt>
      <trkpt lat="39.1921870" lon="-1.4165610">
        <ele>676.0</ele>
        <time>2019-05-11T10:27:28Z</time>
      </trkpt>
      <trkpt lat="39.1922050" lon="-1.4165210">
        <ele>676.0</ele>
        <time>2019-05-11T10:27:29Z</time>
      </trkpt>
      <trkpt lat="39.1922260" lon="-1.4164870">
        <ele>676.0</ele>
        <time>2019-05-11T10:27:30Z</time>
      </trkpt>
      <trkpt lat="39.1922480" lon="-1.4164520">
        <ele>676.0</ele>
        <time>2019-05-11T10:27:31Z</time>
      </trkpt>
      <trkpt lat="39.1922660" lon="-1.4164150">
        <ele>676.0</ele>
        <time>2019-05-11T10:27:32Z</time>
      </trkpt>
      <trkpt lat="39.1922820" lon="-1.4163780">
        <ele>676.0</ele>
        <time>2019-05-11T10:27:33Z</time>
      </trkpt>
      <trkpt lat="39.1922940" lon="-1.4163440">
        <ele>676.2</ele>
        <time>2019-05-11T10:27:34Z</time>
      </trkpt>
      <trkpt lat="39.1923020" lon="-1.4163080">
        <ele>676.4</ele>
        <time>2019-05-11T10:27:35Z</time>
      </trkpt>
      <trkpt lat="39.1923140" lon="-1.4162720">
        <ele>676.6</ele>
        <time>2019-05-11T10:27:36Z</time>
      </trkpt>
      <trkpt lat="39.1923230" lon="-1.4162360">
        <ele>676.8</ele>
        <time>2019-05-11T10:27:37Z</time>
      </trkpt>
      <trkpt lat="39.1923320" lon="-1.4161990">
        <ele>677.2</ele>
        <time>2019-05-11T10:27:38Z</time>
      </trkpt>
      <trkpt lat="39.1923380" lon="-1.4161630">
        <ele>677.2</ele>
        <time>2019-05-11T10:27:39Z</time>
      </trkpt>
      <trkpt lat="39.1923470" lon="-1.4161250">
        <ele>677.6</ele>
        <time>2019-05-11T10:27:40Z</time>
      </trkpt>
      <trkpt lat="39.1923570" lon="-1.4160860">
        <ele>677.8</ele>
        <time>2019-05-11T10:27:41Z</time>
      </trkpt>
      <trkpt lat="39.1923700" lon="-1.4160480">
        <ele>678.0</ele>
        <time>2019-05-11T10:27:42Z</time>
      </trkpt>
      <trkpt lat="39.1923870" lon="-1.4160130">
        <ele>678.2</ele>
        <time>2019-05-11T10:27:43Z</time>
      </trkpt>
      <trkpt lat="39.1924050" lon="-1.4159790">
        <ele>678.4</ele>
        <time>2019-05-11T10:27:44Z</time>
      </trkpt>
      <trkpt lat="39.1924220" lon="-1.4159420">
        <ele>678.6</ele>
        <time>2019-05-11T10:27:45Z</time>
      </trkpt>
      <trkpt lat="39.1924350" lon="-1.4159050">
        <ele>678.8</ele>
        <time>2019-05-11T10:27:46Z</time>
      </trkpt>
      <trkpt lat="39.1924450" lon="-1.4158690">
        <ele>678.8</ele>
        <time>2019-05-11T10:27:47Z</time>
      </trkpt>
      <trkpt lat="39.1924550" lon="-1.4158330">
        <ele>679.0</ele>
        <time>2019-05-11T10:27:48Z</time>
      </trkpt>
      <trkpt lat="39.1924690" lon="-1.4157980">
        <ele>679.0</ele>
        <time>2019-05-11T10:27:49Z</time>
      </trkpt>
      <trkpt lat="39.1924840" lon="-1.4157630">
        <ele>679.2</ele>
        <time>2019-05-11T10:27:50Z</time>
      </trkpt>
      <trkpt lat="39.1924980" lon="-1.4157260">
        <ele>679.2</ele>
        <time>2019-05-11T10:27:51Z</time>
      </trkpt>
      <trkpt lat="39.1925110" lon="-1.4156890">
        <ele>679.4</ele>
        <time>2019-05-11T10:27:52Z</time>
      </trkpt>
      <trkpt lat="39.1925220" lon="-1.4156500">
        <ele>679.6</ele>
        <time>2019-05-11T10:27:53Z</time>
      </trkpt>
      <trkpt lat="39.1925330" lon="-1.4156050">
        <ele>679.6</ele>
        <time>2019-05-11T10:27:54Z</time>
      </trkpt>
      <trkpt lat="39.1925440" lon="-1.4155610">
        <ele>679.8</ele>
        <time>2019-05-11T10:27:55Z</time>
      </trkpt>
      <trkpt lat="39.1925490" lon="-1.4155190">
        <ele>680.0</ele>
        <time>2019-05-11T10:27:56Z</time>
      </trkpt>
      <trkpt lat="39.1925560" lon="-1.4154850">
        <ele>680.2</ele>
        <time>2019-05-11T10:27:57Z</time>
      </trkpt>
      <trkpt lat="39.1925620" lon="-1.4154560">
        <ele>680.2</ele>
        <time>2019-05-11T10:27:58Z</time>
      </trkpt>
      <trkpt lat="39.1925720" lon="-1.4154310">
        <ele>680.4</ele>
        <time>2019-05-11T10:27:59Z</time>
      </trkpt>
      <trkpt lat="39.1925840" lon="-1.4154050">
        <ele>680.4</ele>
        <time>2019-05-11T10:28:00Z</time>
      </trkpt>
      <trkpt lat="39.1925970" lon="-1.4153750">
        <ele>680.4</ele>
        <time>2019-05-11T10:28:01Z</time>
      </trkpt>
      <trkpt lat="39.1926110" lon="-1.4153440">
        <ele>680.4</ele>
        <time>2019-05-11T10:28:02Z</time>
      </trkpt>
      <trkpt lat="39.1926210" lon="-1.4153160">
        <ele>680.4</ele>
        <time>2019-05-11T10:28:03Z</time>
      </trkpt>
      <trkpt lat="39.1926260" lon="-1.4152870">
        <ele>680.8</ele>
        <time>2019-05-11T10:28:04Z</time>
      </trkpt>
      <trkpt lat="39.1926240" lon="-1.4152490">
        <ele>681.0</ele>
        <time>2019-05-11T10:28:05Z</time>
      </trkpt>
      <trkpt lat="39.1926140" lon="-1.4152100">
        <ele>681.4</ele>
        <time>2019-05-11T10:28:06Z</time>
      </trkpt>
      <trkpt lat="39.1926130" lon="-1.4151780">
        <ele>681.6</ele>
        <time>2019-05-11T10:28:07Z</time>
      </trkpt>
      <trkpt lat="39.1926190" lon="-1.4151530">
        <ele>681.8</ele>
        <time>2019-05-11T10:28:08Z</time>
      </trkpt>
      <trkpt lat="39.1926270" lon="-1.4151300">
        <ele>682.0</ele>
        <time>2019-05-11T10:28:09Z</time>
      </trkpt>
      <trkpt lat="39.1926370" lon="-1.4151020">
        <ele>682.0</ele>
        <time>2019-05-11T10:28:10Z</time>
      </trkpt>
      <trkpt lat="39.1926440" lon="-1.4150710">
        <ele>682.0</ele>
        <time>2019-05-11T10:28:11Z</time>
      </trkpt>
      <trkpt lat="39.1926520" lon="-1.4150360">
        <ele>682.2</ele>
        <time>2019-05-11T10:28:12Z</time>
      </trkpt>
      <trkpt lat="39.1926600" lon="-1.4150060">
        <ele>682.2</ele>
        <time>2019-05-11T10:28:13Z</time>
      </trkpt>
      <trkpt lat="39.1926760" lon="-1.4149780">
        <ele>682.4</ele>
        <time>2019-05-11T10:28:14Z</time>
      </trkpt>
      <trkpt lat="39.1926940" lon="-1.4149530">
        <ele>682.8</ele>
        <time>2019-05-11T10:28:15Z</time>
      </trkpt>
      <trkpt lat="39.1927070" lon="-1.4149320">
        <ele>683.0</ele>
        <time>2019-05-11T10:28:16Z</time>
      </trkpt>
      <trkpt lat="39.1927230" lon="-1.4149080">
        <ele>683.2</ele>
        <time>2019-05-11T10:28:17Z</time>
      </trkpt>
      <trkpt lat="39.1927370" lon="-1.4148860">
        <ele>683.2</ele>
        <time>2019-05-11T10:28:18Z</time>
      </trkpt>
      <trkpt lat="39.1927460" lon="-1.4148610">
        <ele>683.4</ele>
        <time>2019-05-11T10:28:19Z</time>
      </trkpt>
      <trkpt lat="39.1927520" lon="-1.4148380">
        <ele>683.4</ele>
        <time>2019-05-11T10:28:20Z</time>
      </trkpt>
      <trkpt lat="39.1927580" lon="-1.4148150">
        <ele>683.4</ele>
        <time>2019-05-11T10:28:21Z</time>
      </trkpt>
      <trkpt lat="39.1927680" lon="-1.4147930">
        <ele>683.4</ele>
        <time>2019-05-11T10:28:22Z</time>
      </trkpt>
      <trkpt lat="39.1927760" lon="-1.4147730">
        <ele>683.4</ele>
        <time>2019-05-11T10:28:23Z</time>
      </trkpt>
      <trkpt lat="39.1927790" lon="-1.4147490">
        <ele>683.4</ele>
        <time>2019-05-11T10:28:24Z</time>
      </trkpt>
      <trkpt lat="39.1927890" lon="-1.4147260">
        <ele>683.6</ele>
        <time>2019-05-11T10:28:25Z</time>
      </trkpt>
      <trkpt lat="39.1928020" lon="-1.4147080">
        <ele>683.6</ele>
        <time>2019-05-11T10:28:26Z</time>
      </trkpt>
      <trkpt lat="39.1928120" lon="-1.4146950">
        <ele>683.6</ele>
        <time>2019-05-11T10:28:27Z</time>
      </trkpt>
      <trkpt lat="39.1928160" lon="-1.4146780">
        <ele>683.6</ele>
        <time>2019-05-11T10:28:28Z</time>
      </trkpt>
      <trkpt lat="39.1928260" lon="-1.4146580">
        <ele>683.6</ele>
        <time>2019-05-11T10:28:29Z</time>
      </trkpt>
      <trkpt lat="39.1928430" lon="-1.4146410">
        <ele>683.6</ele>
        <time>2019-05-11T10:28:30Z</time>
      </trkpt>
      <trkpt lat="39.1928620" lon="-1.4146290">
        <ele>683.6</ele>
        <time>2019-05-11T10:28:31Z</time>
      </trkpt>
      <trkpt lat="39.1928820" lon="-1.4146190">
        <ele>683.8</ele>
        <time>2019-05-11T10:28:32Z</time>
      </trkpt>
      <trkpt lat="39.1929010" lon="-1.4146040">
        <ele>684.0</ele>
        <time>2019-05-11T10:28:33Z</time>
      </trkpt>
      <trkpt lat="39.1929150" lon="-1.4145890">
        <ele>684.4</ele>
        <time>2019-05-11T10:28:34Z</time>
      </trkpt>
      <trkpt lat="39.1929240" lon="-1.4145750">
        <ele>684.4</ele>
        <time>2019-05-11T10:28:35Z</time>
      </trkpt>
      <trkpt lat="39.1929280" lon="-1.4145650">
        <ele>684.6</ele>
        <time>2019-05-11T10:28:36Z</time>
      </trkpt>
      <trkpt lat="39.1929330" lon="-1.4145560">
        <ele>684.8</ele>
        <time>2019-05-11T10:28:37Z</time>
      </trkpt>
      <trkpt lat="39.1929390" lon="-1.4145450">
        <ele>684.8</ele>
        <time>2019-05-11T10:28:38Z</time>
      </trkpt>
      <trkpt lat="39.1929430" lon="-1.4145400">
        <ele>684.8</ele>
        <time>2019-05-11T10:28:39Z</time>
      </trkpt>
      <trkpt lat="39.1929420" lon="-1.4145380">
        <ele>685.0</ele>
        <time>2019-05-11T10:28:40Z</time>
      </trkpt>
      <trkpt lat="39.1929460" lon="-1.4145320">
        <ele>685.0</ele>
        <time>2019-05-11T10:28:41Z</time>
      </trkpt>
      <trkpt lat="39.1929510" lon="-1.4145180">
        <ele>685.0</ele>
        <time>2019-05-11T10:28:42Z</time>
      </trkpt>
      <trkpt lat="39.1929600" lon="-1.4145040">
        <ele>685.0</ele>
        <time>2019-05-11T10:28:43Z</time>
      </trkpt>
      <trkpt lat="39.1929680" lon="-1.4144920">
        <ele>685.0</ele>
        <time>2019-05-11T10:28:44Z</time>
      </trkpt>
      <trkpt lat="39.1929770" lon="-1.4144820">
        <ele>685.0</ele>
        <time>2019-05-11T10:28:45Z</time>
      </trkpt>
      <trkpt lat="39.1929870" lon="-1.4144720">
        <ele>685.0</ele>
        <time>2019-05-11T10:28:46Z</time>
      </trkpt>
      <trkpt lat="39.1929970" lon="-1.4144610">
        <ele>685.0</ele>
        <time>2019-05-11T10:28:47Z</time>
      </trkpt>
      <trkpt lat="39.1930120" lon="-1.4144510">
        <ele>685.0</ele>
        <time>2019-05-11T10:28:48Z</time>
      </trkpt>
      <trkpt lat="39.1930300" lon="-1.4144360">
        <ele>685.0</ele>
        <time>2019-05-11T10:28:49Z</time>
      </trkpt>
      <trkpt lat="39.1930500" lon="-1.4144160">
        <ele>685.0</ele>
        <time>2019-05-11T10:28:50Z</time>
      </trkpt>
      <trkpt lat="39.1930680" lon="-1.4143950">
        <ele>685.0</ele>
        <time>2019-05-11T10:28:51Z</time>
      </trkpt>
      <trkpt lat="39.1930820" lon="-1.4143770">
        <ele>685.0</ele>
        <time>2019-05-11T10:28:52Z</time>
      </trkpt>
      <trkpt lat="39.1931010" lon="-1.4143610">
        <ele>685.0</ele>
        <time>2019-05-11T10:28:53Z</time>
      </trkpt>
      <trkpt lat="39.1931220" lon="-1.4143460">
        <ele>685.2</ele>
        <time>2019-05-11T10:28:54Z</time>
      </trkpt>
      <trkpt lat="39.1931390" lon="-1.4143320">
        <ele>685.2</ele>
        <time>2019-05-11T10:28:55Z</time>
      </trkpt>
      <trkpt lat="39.1931540" lon="-1.4143210">
        <ele>685.2</ele>
        <time>2019-05-11T10:28:56Z</time>
      </trkpt>
      <trkpt lat="39.1931660" lon="-1.4143070">
        <ele>685.2</ele>
        <time>2019-05-11T10:28:57Z</time>
      </trkpt>
      <trkpt lat="39.1931820" lon="-1.4142890">
        <ele>685.2</ele>
        <time>2019-05-11T10:28:58Z</time>
      </trkpt>
      <trkpt lat="39.1931920" lon="-1.4142700">
        <ele>685.2</ele>
        <time>2019-05-11T10:28:59Z</time>
      </trkpt>
      <trkpt lat="39.1932050" lon="-1.4142550">
        <ele>685.2</ele>
        <time>2019-05-11T10:29:00Z</time>
      </trkpt>
      <trkpt lat="39.1932190" lon="-1.4142370">
        <ele>685.2</ele>
        <time>2019-05-11T10:29:01Z</time>
      </trkpt>
      <trkpt lat="39.1932310" lon="-1.4142170">
        <ele>685.4</ele>
        <time>2019-05-11T10:29:02Z</time>
      </trkpt>
      <trkpt lat="39.1932410" lon="-1.4141990">
        <ele>685.4</ele>
        <time>2019-05-11T10:29:03Z</time>
      </trkpt>
      <trkpt lat="39.1932500" lon="-1.4141830">
        <ele>685.4</ele>
        <time>2019-05-11T10:29:04Z</time>
      </trkpt>
      <trkpt lat="39.1932600" lon="-1.4141710">
        <ele>685.6</ele>
        <time>2019-05-11T10:29:05Z</time>
      </trkpt>
      <trkpt lat="39.1932660" lon="-1.4141660">
        <ele>685.8</ele>
        <time>2019-05-11T10:29:06Z</time>
      </trkpt>
      <trkpt lat="39.1932670" lon="-1.4141660">
        <ele>685.8</ele>
        <time>2019-05-11T10:29:07Z</time>
      </trkpt>
      <trkpt lat="39.1932700" lon="-1.4141660">
        <ele>686.0</ele>
        <time>2019-05-11T10:29:08Z</time>
      </trkpt>
      <trkpt lat="39.1932790" lon="-1.4141640">
        <ele>686.2</ele>
        <time>2019-05-11T10:29:09Z</time>
      </trkpt>
      <trkpt lat="39.1932840" lon="-1.4141490">
        <ele>686.2</ele>
        <time>2019-05-11T10:29:10Z</time>
      </trkpt>
      <trkpt lat="39.1932950" lon="-1.4141280">
        <ele>686.6</ele>
        <time>2019-05-11T10:29:11Z</time>
      </trkpt>
      <trkpt lat="39.1933060" lon="-1.4141010">
        <ele>686.6</ele>
        <time>2019-05-11T10:29:12Z</time>
      </trkpt>
      <trkpt lat="39.1933190" lon="-1.4140710">
        <ele>686.8</ele>
        <time>2019-05-11T10:29:13Z</time>
      </trkpt>
      <trkpt lat="39.1933290" lon="-1.4140340">
        <ele>686.8</ele>
        <time>2019-05-11T10:29:14Z</time>
      </trkpt>
      <trkpt lat="39.1933340" lon="-1.4139850">
        <ele>686.8</ele>
        <time>2019-05-11T10:29:15Z</time>
      </trkpt>
      <trkpt lat="39.1933360" lon="-1.4139320">
        <ele>686.8</ele>
        <time>2019-05-11T10:29:16Z</time>
      </trkpt>
      <trkpt lat="39.1933310" lon="-1.4138790">
        <ele>686.8</ele>
        <time>2019-05-11T10:29:17Z</time>
      </trkpt>
      <trkpt lat="39.1933230" lon="-1.4138330">
        <ele>686.8</ele>
        <time>2019-05-11T10:29:18Z</time>
      </trkpt>
      <trkpt lat="39.1933200" lon="-1.4137950">
        <ele>686.8</ele>
        <time>2019-05-11T10:29:19Z</time>
      </trkpt>
      <trkpt lat="39.1933160" lon="-1.4137620">
        <ele>686.8</ele>
        <time>2019-05-11T10:29:20Z</time>
      </trkpt>
      <trkpt lat="39.1933090" lon="-1.4137290">
        <ele>686.8</ele>
        <time>2019-05-11T10:29:21Z</time>
      </trkpt>
      <trkpt lat="39.1933050" lon="-1.4137030">
        <ele>686.4</ele>
        <time>2019-05-11T10:29:22Z</time>
      </trkpt>
      <trkpt lat="39.1932990" lon="-1.4136820">
        <ele>686.2</ele>
        <time>2019-05-11T10:29:23Z</time>
      </trkpt>
      <trkpt lat="39.1932920" lon="-1.4136600">
        <ele>686.2</ele>
        <time>2019-05-11T10:29:24Z</time>
      </trkpt>
      <trkpt lat="39.1932860" lon="-1.4136360">
        <ele>686.2</ele>
        <time>2019-05-11T10:29:25Z</time>
      </trkpt>
      <trkpt lat="39.1932820" lon="-1.4136090">
        <ele>686.2</ele>
        <time>2019-05-11T10:29:26Z</time>
      </trkpt>
      <trkpt lat="39.1932790" lon="-1.4135780">
        <ele>686.2</ele>
        <time>2019-05-11T10:29:27Z</time>
      </trkpt>
      <trkpt lat="39.1932750" lon="-1.4135450">
        <ele>686.2</ele>
        <time>2019-05-11T10:29:28Z</time>
      </trkpt>
      <trkpt lat="39.1932730" lon="-1.4135110">
        <ele>686.2</ele>
        <time>2019-05-11T10:29:29Z</time>
      </trkpt>
      <trkpt lat="39.1932700" lon="-1.4134810">
        <ele>686.2</ele>
        <time>2019-05-11T10:29:30Z</time>
      </trkpt>
      <trkpt lat="39.1932660" lon="-1.4134510">
        <ele>686.2</ele>
        <time>2019-05-11T10:29:31Z</time>
      </trkpt>
      <trkpt lat="39.1932630" lon="-1.4134180">
        <ele>686.2</ele>
        <time>2019-05-11T10:29:32Z</time>
      </trkpt>
      <trkpt lat="39.1932590" lon="-1.4133810">
        <ele>686.2</ele>
        <time>2019-05-11T10:29:33Z</time>
      </trkpt>
      <trkpt lat="39.1932560" lon="-1.4133440">
        <ele>686.2</ele>
        <time>2019-05-11T10:29:34Z</time>
      </trkpt>
      <trkpt lat="39.1932530" lon="-1.4133020">
        <ele>686.2</ele>
        <time>2019-05-11T10:29:35Z</time>
      </trkpt>
      <trkpt lat="39.1932480" lon="-1.4132610">
        <ele>686.2</ele>
        <time>2019-05-11T10:29:36Z</time>
      </trkpt>
      <trkpt lat="39.1932450" lon="-1.4132170">
        <ele>686.4</ele>
        <time>2019-05-11T10:29:37Z</time>
      </trkpt>
      <trkpt lat="39.1932430" lon="-1.4131740">
        <ele>686.4</ele>
        <time>2019-05-11T10:29:38Z</time>
      </trkpt>
      <trkpt lat="39.1932420" lon="-1.4131300">
        <ele>686.4</ele>
        <time>2019-05-11T10:29:39Z</time>
      </trkpt>
      <trkpt lat="39.1932440" lon="-1.4130830">
        <ele>686.4</ele>
        <time>2019-05-11T10:29:40Z</time>
      </trkpt>
      <trkpt lat="39.1932510" lon="-1.4130330">
        <ele>686.4</ele>
        <time>2019-05-11T10:29:41Z</time>
      </trkpt>
      <trkpt lat="39.1932610" lon="-1.4129830">
        <ele>686.4</ele>
        <time>2019-05-11T10:29:42Z</time>
      </trkpt>
      <trkpt lat="39.1932730" lon="-1.4129300">
        <ele>686.4</ele>
        <time>2019-05-11T10:29:43Z</time>
      </trkpt>
      <trkpt lat="39.1932810" lon="-1.4128790">
        <ele>686.4</ele>
        <time>2019-05-11T10:29:44Z</time>
      </trkpt>
      <trkpt lat="39.1932870" lon="-1.4128340">
        <ele>686.4</ele>
        <time>2019-05-11T10:29:45Z</time>
      </trkpt>
      <trkpt lat="39.1932920" lon="-1.4127920">
        <ele>686.4</ele>
        <time>2019-05-11T10:29:46Z</time>
      </trkpt>
      <trkpt lat="39.1932890" lon="-1.4127540">
        <ele>686.4</ele>
        <time>2019-05-11T10:29:47Z</time>
      </trkpt>
      <trkpt lat="39.1932870" lon="-1.4127240">
        <ele>686.4</ele>
        <time>2019-05-11T10:29:48Z</time>
      </trkpt>
      <trkpt lat="39.1932850" lon="-1.4126900">
        <ele>686.4</ele>
        <time>2019-05-11T10:29:49Z</time>
      </trkpt>
      <trkpt lat="39.1932810" lon="-1.4126520">
        <ele>686.4</ele>
        <time>2019-05-11T10:29:50Z</time>
      </trkpt>
      <trkpt lat="39.1932790" lon="-1.4126150">
        <ele>686.4</ele>
        <time>2019-05-11T10:29:51Z</time>
      </trkpt>
      <trkpt lat="39.1932800" lon="-1.4125790">
        <ele>686.4</ele>
        <time>2019-05-11T10:29:52Z</time>
      </trkpt>
      <trkpt lat="39.1932810" lon="-1.4125430">
        <ele>686.4</ele>
        <time>2019-05-11T10:29:53Z</time>
      </trkpt>
      <trkpt lat="39.1932820" lon="-1.4125040">
        <ele>686.4</ele>
        <time>2019-05-11T10:29:54Z</time>
      </trkpt>
      <trkpt lat="39.1932830" lon="-1.4124630">
        <ele>686.4</ele>
        <time>2019-05-11T10:29:55Z</time>
      </trkpt>
      <trkpt lat="39.1932790" lon="-1.4124250">
        <ele>686.6</ele>
        <time>2019-05-11T10:29:56Z</time>
      </trkpt>
      <trkpt lat="39.1932720" lon="-1.4123880">
        <ele>686.8</ele>
        <time>2019-05-11T10:29:57Z</time>
      </trkpt>
      <trkpt lat="39.1932620" lon="-1.4123550">
        <ele>686.8</ele>
        <time>2019-05-11T10:29:58Z</time>
      </trkpt>
      <trkpt lat="39.1932570" lon="-1.4123220">
        <ele>686.8</ele>
        <time>2019-05-11T10:29:59Z</time>
      </trkpt>
      <trkpt lat="39.1932520" lon="-1.4122920">
        <ele>686.8</ele>
        <time>2019-05-11T10:30:00Z</time>
      </trkpt>
      <trkpt lat="39.1932460" lon="-1.4122570">
        <ele>687.0</ele>
        <time>2019-05-11T10:30:01Z</time>
      </trkpt>
      <trkpt lat="39.1932380" lon="-1.4122110">
        <ele>687.0</ele>
        <time>2019-05-11T10:30:02Z</time>
      </trkpt>
      <trkpt lat="39.1932230" lon="-1.4121670">
        <ele>687.0</ele>
        <time>2019-05-11T10:30:03Z</time>
      </trkpt>
      <trkpt lat="39.1932100" lon="-1.4121240">
        <ele>687.0</ele>
        <time>2019-05-11T10:30:04Z</time>
      </trkpt>
      <trkpt lat="39.1931970" lon="-1.4120870">
        <ele>687.0</ele>
        <time>2019-05-11T10:30:05Z</time>
      </trkpt>
      <trkpt lat="39.1931870" lon="-1.4120530">
        <ele>687.0</ele>
        <time>2019-05-11T10:30:06Z</time>
      </trkpt>
      <trkpt lat="39.1931750" lon="-1.4120110">
        <ele>687.0</ele>
        <time>2019-05-11T10:30:07Z</time>
      </trkpt>
      <trkpt lat="39.1931620" lon="-1.4119630">
        <ele>687.0</ele>
        <time>2019-05-11T10:30:08Z</time>
      </trkpt>
      <trkpt lat="39.1931480" lon="-1.4119120">
        <ele>687.0</ele>
        <time>2019-05-11T10:30:09Z</time>
      </trkpt>
      <trkpt lat="39.1931390" lon="-1.4118610">
        <ele>686.8</ele>
        <time>2019-05-11T10:30:10Z</time>
      </trkpt>
      <trkpt lat="39.1931320" lon="-1.4118110">
        <ele>686.8</ele>
        <time>2019-05-11T10:30:11Z</time>
      </trkpt>
      <trkpt lat="39.1931360" lon="-1.4117530">
        <ele>686.8</ele>
        <time>2019-05-11T10:30:12Z</time>
      </trkpt>
      <trkpt lat="39.1931370" lon="-1.4116950">
        <ele>686.8</ele>
        <time>2019-05-11T10:30:13Z</time>
      </trkpt>
      <trkpt lat="39.1931420" lon="-1.4116300">
        <ele>686.8</ele>
        <time>2019-05-11T10:30:14Z</time>
      </trkpt>
      <trkpt lat="39.1931410" lon="-1.4115640">
        <ele>686.6</ele>
        <time>2019-05-11T10:30:15Z</time>
      </trkpt>
      <trkpt lat="39.1931400" lon="-1.4114980">
        <ele>686.6</ele>
        <time>2019-05-11T10:30:16Z</time>
      </trkpt>
      <trkpt lat="39.1931400" lon="-1.4114400">
        <ele>686.6</ele>
        <time>2019-05-11T10:30:17Z</time>
      </trkpt>
      <trkpt lat="39.1931440" lon="-1.4113880">
        <ele>686.6</ele>
        <time>2019-05-11T10:30:18Z</time>
      </trkpt>
      <trkpt lat="39.1931460" lon="-1.4113350">
        <ele>686.4</ele>
        <time>2019-05-11T10:30:19Z</time>
      </trkpt>
      <trkpt lat="39.1931430" lon="-1.4112880">
        <ele>686.4</ele>
        <time>2019-05-11T10:30:20Z</time>
      </trkpt>
      <trkpt lat="39.1931410" lon="-1.4112450">
        <ele>686.4</ele>
        <time>2019-05-11T10:30:21Z</time>
      </trkpt>
      <trkpt lat="39.1931410" lon="-1.4112030">
        <ele>686.2</ele>
        <time>2019-05-11T10:30:22Z</time>
      </trkpt>
      <trkpt lat="39.1931430" lon="-1.4111590">
        <ele>686.2</ele>
        <time>2019-05-11T10:30:23Z</time>
      </trkpt>
      <trkpt lat="39.1931410" lon="-1.4111180">
        <ele>686.2</ele>
        <time>2019-05-11T10:30:24Z</time>
      </trkpt>
      <trkpt lat="39.1931390" lon="-1.4110820">
        <ele>686.2</ele>
        <time>2019-05-11T10:30:25Z</time>
      </trkpt>
      <trkpt lat="39.1931390" lon="-1.4110420">
        <ele>686.2</ele>
        <time>2019-05-11T10:30:26Z</time>
      </trkpt>
      <trkpt lat="39.1931420" lon="-1.4109970">
        <ele>686.2</ele>
        <time>2019-05-11T10:30:27Z</time>
      </trkpt>
      <trkpt lat="39.1931480" lon="-1.4109510">
        <ele>686.2</ele>
        <time>2019-05-11T10:30:28Z</time>
      </trkpt>
      <trkpt lat="39.1931570" lon="-1.4109040">
        <ele>686.2</ele>
        <time>2019-05-11T10:30:29Z</time>
      </trkpt>
      <trkpt lat="39.1931660" lon="-1.4108570">
        <ele>686.2</ele>
        <time>2019-05-11T10:30:30Z</time>
      </trkpt>
      <trkpt lat="39.1931760" lon="-1.4108110">
        <ele>686.2</ele>
        <time>2019-05-11T10:30:31Z</time>
      </trkpt>
      <trkpt lat="39.1931880" lon="-1.4107660">
        <ele>686.2</ele>
        <time>2019-05-11T10:30:32Z</time>
      </trkpt>
      <trkpt lat="39.1931980" lon="-1.4107220">
        <ele>686.2</ele>
        <time>2019-05-11T10:30:33Z</time>
      </trkpt>
      <trkpt lat="39.1932110" lon="-1.4106750">
        <ele>686.4</ele>
        <time>2019-05-11T10:30:34Z</time>
      </trkpt>
      <trkpt lat="39.1932230" lon="-1.4106270">
        <ele>686.6</ele>
        <time>2019-05-11T10:30:35Z</time>
      </trkpt>
      <trkpt lat="39.1932380" lon="-1.4105730">
        <ele>686.6</ele>
        <time>2019-05-11T10:30:36Z</time>
      </trkpt>
      <trkpt lat="39.1932570" lon="-1.4105180">
        <ele>686.6</ele>
        <time>2019-05-11T10:30:37Z</time>
      </trkpt>
      <trkpt lat="39.1932730" lon="-1.4104680">
        <ele>686.6</ele>
        <time>2019-05-11T10:30:38Z</time>
      </trkpt>
      <trkpt lat="39.1932850" lon="-1.4104190">
        <ele>686.6</ele>
        <time>2019-05-11T10:30:39Z</time>
      </trkpt>
      <trkpt lat="39.1932960" lon="-1.4103710">
        <ele>686.8</ele>
        <time>2019-05-11T10:30:40Z</time>
      </trkpt>
      <trkpt lat="39.1933000" lon="-1.4103270">
        <ele>686.8</ele>
        <time>2019-05-11T10:30:41Z</time>
      </trkpt>
      <trkpt lat="39.1932990" lon="-1.4102820">
        <ele>686.8</ele>
        <time>2019-05-11T10:30:42Z</time>
      </trkpt>
      <trkpt lat="39.1933000" lon="-1.4102370">
        <ele>686.8</ele>
        <time>2019-05-11T10:30:43Z</time>
      </trkpt>
      <trkpt lat="39.1932990" lon="-1.4101910">
        <ele>686.8</ele>
        <time>2019-05-11T10:30:44Z</time>
      </trkpt>
      <trkpt lat="39.1932960" lon="-1.4101410">
        <ele>686.8</ele>
        <time>2019-05-11T10:30:45Z</time>
      </trkpt>
      <trkpt lat="39.1932960" lon="-1.4100840">
        <ele>686.8</ele>
        <time>2019-05-11T10:30:46Z</time>
      </trkpt>
      <trkpt lat="39.1932990" lon="-1.4100230">
        <ele>686.8</ele>
        <time>2019-05-11T10:30:47Z</time>
      </trkpt>
      <trkpt lat="39.1932990" lon="-1.4099650">
        <ele>686.8</ele>
        <time>2019-05-11T10:30:48Z</time>
      </trkpt>
      <trkpt lat="39.1932970" lon="-1.4099060">
        <ele>686.8</ele>
        <time>2019-05-11T10:30:49Z</time>
      </trkpt>
      <trkpt lat="39.1932940" lon="-1.4098400">
        <ele>686.6</ele>
        <time>2019-05-11T10:30:50Z</time>
      </trkpt>
      <trkpt lat="39.1932910" lon="-1.4097700">
        <ele>686.6</ele>
        <time>2019-05-11T10:30:51Z</time>
      </trkpt>
      <trkpt lat="39.1932880" lon="-1.4097080">
        <ele>686.6</ele>
        <time>2019-05-11T10:30:52Z</time>
      </trkpt>
      <trkpt lat="39.1932860" lon="-1.4096510">
        <ele>686.6</ele>
        <time>2019-05-11T10:30:53Z</time>
      </trkpt>
      <trkpt lat="39.1932830" lon="-1.4095960">
        <ele>686.6</ele>
        <time>2019-05-11T10:30:54Z</time>
      </trkpt>
      <trkpt lat="39.1932820" lon="-1.4095460">
        <ele>686.6</ele>
        <time>2019-05-11T10:30:55Z</time>
      </trkpt>
      <trkpt lat="39.1932850" lon="-1.4094990">
        <ele>686.8</ele>
        <time>2019-05-11T10:30:56Z</time>
      </trkpt>
      <trkpt lat="39.1932890" lon="-1.4094490">
        <ele>686.8</ele>
        <time>2019-05-11T10:30:57Z</time>
      </trkpt>
      <trkpt lat="39.1932960" lon="-1.4093980">
        <ele>686.8</ele>
        <time>2019-05-11T10:30:58Z</time>
      </trkpt>
      <trkpt lat="39.1933060" lon="-1.4093450">
        <ele>686.8</ele>
        <time>2019-05-11T10:30:59Z</time>
      </trkpt>
      <trkpt lat="39.1933160" lon="-1.4092940">
        <ele>687.0</ele>
        <time>2019-05-11T10:31:00Z</time>
      </trkpt>
      <trkpt lat="39.1933260" lon="-1.4092430">
        <ele>687.0</ele>
        <time>2019-05-11T10:31:01Z</time>
      </trkpt>
      <trkpt lat="39.1933330" lon="-1.4091890">
        <ele>687.0</ele>
        <time>2019-05-11T10:31:02Z</time>
      </trkpt>
      <trkpt lat="39.1933400" lon="-1.4091360">
        <ele>687.0</ele>
        <time>2019-05-11T10:31:03Z</time>
      </trkpt>
      <trkpt lat="39.1933550" lon="-1.4090850">
        <ele>687.0</ele>
        <time>2019-05-11T10:31:04Z</time>
      </trkpt>
      <trkpt lat="39.1933690" lon="-1.4090330">
        <ele>687.0</ele>
        <time>2019-05-11T10:31:05Z</time>
      </trkpt>
      <trkpt lat="39.1933830" lon="-1.4089770">
        <ele>687.2</ele>
        <time>2019-05-11T10:31:06Z</time>
      </trkpt>
      <trkpt lat="39.1933970" lon="-1.4089170">
        <ele>687.2</ele>
        <time>2019-05-11T10:31:07Z</time>
      </trkpt>
      <trkpt lat="39.1934100" lon="-1.4088590">
        <ele>687.2</ele>
        <time>2019-05-11T10:31:08Z</time>
      </trkpt>
      <trkpt lat="39.1934200" lon="-1.4088020">
        <ele>687.2</ele>
        <time>2019-05-11T10:31:09Z</time>
      </trkpt>
      <trkpt lat="39.1934290" lon="-1.4087420">
        <ele>687.2</ele>
        <time>2019-05-11T10:31:10Z</time>
      </trkpt>
      <trkpt lat="39.1934350" lon="-1.4086800">
        <ele>687.2</ele>
        <time>2019-05-11T10:31:11Z</time>
      </trkpt>
      <trkpt lat="39.1934360" lon="-1.4086190">
        <ele>687.4</ele>
        <time>2019-05-11T10:31:12Z</time>
      </trkpt>
      <trkpt lat="39.1934370" lon="-1.4085610">
        <ele>687.4</ele>
        <time>2019-05-11T10:31:13Z</time>
      </trkpt>
      <trkpt lat="39.1934400" lon="-1.4085050">
        <ele>687.4</ele>
        <time>2019-05-11T10:31:14Z</time>
      </trkpt>
      <trkpt lat="39.1934390" lon="-1.4084520">
        <ele>687.4</ele>
        <time>2019-05-11T10:31:15Z</time>
      </trkpt>
      <trkpt lat="39.1934370" lon="-1.4084010">
        <ele>687.4</ele>
        <time>2019-05-11T10:31:16Z</time>
      </trkpt>
      <trkpt lat="39.1934320" lon="-1.4083500">
        <ele>687.4</ele>
        <time>2019-05-11T10:31:17Z</time>
      </trkpt>
      <trkpt lat="39.1934290" lon="-1.4083010">
        <ele>687.4</ele>
        <time>2019-05-11T10:31:18Z</time>
      </trkpt>
      <trkpt lat="39.1934360" lon="-1.4082520">
        <ele>687.6</ele>
        <time>2019-05-11T10:31:19Z</time>
      </trkpt>
      <trkpt lat="39.1934470" lon="-1.4082040">
        <ele>687.6</ele>
        <time>2019-05-11T10:31:20Z</time>
      </trkpt>
      <trkpt lat="39.1934580" lon="-1.4081530">
        <ele>687.6</ele>
        <time>2019-05-11T10:31:21Z</time>
      </trkpt>
      <trkpt lat="39.1934690" lon="-1.4081050">
        <ele>687.6</ele>
        <time>2019-05-11T10:31:22Z</time>
      </trkpt>
      <trkpt lat="39.1934820" lon="-1.4080580">
        <ele>687.8</ele>
        <time>2019-05-11T10:31:23Z</time>
      </trkpt>
      <trkpt lat="39.1934950" lon="-1.4080140">
        <ele>687.8</ele>
        <time>2019-05-11T10:31:24Z</time>
      </trkpt>
      <trkpt lat="39.1935080" lon="-1.4079700">
        <ele>688.0</ele>
        <time>2019-05-11T10:31:25Z</time>
      </trkpt>
      <trkpt lat="39.1935220" lon="-1.4079270">
        <ele>688.2</ele>
        <time>2019-05-11T10:31:26Z</time>
      </trkpt>
      <trkpt lat="39.1935380" lon="-1.4078790">
        <ele>688.4</ele>
        <time>2019-05-11T10:31:27Z</time>
      </trkpt>
      <trkpt lat="39.1935500" lon="-1.4078320">
        <ele>688.6</ele>
        <time>2019-05-11T10:31:28Z</time>
      </trkpt>
      <trkpt lat="39.1935670" lon="-1.4077850">
        <ele>688.8</ele>
        <time>2019-05-11T10:31:29Z</time>
      </trkpt>
      <trkpt lat="39.1935820" lon="-1.4077340">
        <ele>688.8</ele>
        <time>2019-05-11T10:31:30Z</time>
      </trkpt>
      <trkpt lat="39.1935900" lon="-1.4076860">
        <ele>689.0</ele>
        <time>2019-05-11T10:31:31Z</time>
      </trkpt>
      <trkpt lat="39.1936000" lon="-1.4076400">
        <ele>688.8</ele>
        <time>2019-05-11T10:31:32Z</time>
      </trkpt>
      <trkpt lat="39.1936120" lon="-1.4075920">
        <ele>688.8</ele>
        <time>2019-05-11T10:31:33Z</time>
      </trkpt>
      <trkpt lat="39.1936230" lon="-1.4075490">
        <ele>688.8</ele>
        <time>2019-05-11T10:31:34Z</time>
      </trkpt>
      <trkpt lat="39.1936350" lon="-1.4075090">
        <ele>689.0</ele>
        <time>2019-05-11T10:31:35Z</time>
      </trkpt>
      <trkpt lat="39.1936470" lon="-1.4074690">
        <ele>689.0</ele>
        <time>2019-05-11T10:31:36Z</time>
      </trkpt>
      <trkpt lat="39.1936620" lon="-1.4074260">
        <ele>689.0</ele>
        <time>2019-05-11T10:31:37Z</time>
      </trkpt>
      <trkpt lat="39.1936790" lon="-1.4073790">
        <ele>689.0</ele>
        <time>2019-05-11T10:31:38Z</time>
      </trkpt>
      <trkpt lat="39.1936990" lon="-1.4073310">
        <ele>689.0</ele>
        <time>2019-05-11T10:31:39Z</time>
      </trkpt>
      <trkpt lat="39.1937230" lon="-1.4072870">
        <ele>689.0</ele>
        <time>2019-05-11T10:31:40Z</time>
      </trkpt>
      <trkpt lat="39.1937580" lon="-1.4072480">
        <ele>689.2</ele>
        <time>2019-05-11T10:31:41Z</time>
      </trkpt>
      <trkpt lat="39.1937910" lon="-1.4072080">
        <ele>689.2</ele>
        <time>2019-05-11T10:31:42Z</time>
      </trkpt>
      <trkpt lat="39.1938200" lon="-1.4071700">
        <ele>689.4</ele>
        <time>2019-05-11T10:31:43Z</time>
      </trkpt>
      <trkpt lat="39.1938430" lon="-1.4071360">
        <ele>689.4</ele>
        <time>2019-05-11T10:31:44Z</time>
      </trkpt>
      <trkpt lat="39.1938650" lon="-1.4071010">
        <ele>689.4</ele>
        <time>2019-05-11T10:31:45Z</time>
      </trkpt>
      <trkpt lat="39.1938850" lon="-1.4070660">
        <ele>689.6</ele>
        <time>2019-05-11T10:31:46Z</time>
      </trkpt>
      <trkpt lat="39.1939030" lon="-1.4070270">
        <ele>689.6</ele>
        <time>2019-05-11T10:31:47Z</time>
      </trkpt>
      <trkpt lat="39.1939220" lon="-1.4069860">
        <ele>689.6</ele>
        <time>2019-05-11T10:31:48Z</time>
      </trkpt>
      <trkpt lat="39.1939410" lon="-1.4069490">
        <ele>689.6</ele>
        <time>2019-05-11T10:31:49Z</time>
      </trkpt>
      <trkpt lat="39.1939590" lon="-1.4069160">
        <ele>689.6</ele>
        <time>2019-05-11T10:31:50Z</time>
      </trkpt>
      <trkpt lat="39.1939810" lon="-1.4068820">
        <ele>689.8</ele>
        <time>2019-05-11T10:31:51Z</time>
      </trkpt>
      <trkpt lat="39.1940010" lon="-1.4068420">
        <ele>689.8</ele>
        <time>2019-05-11T10:31:52Z</time>
      </trkpt>
      <trkpt lat="39.1940170" lon="-1.4068000">
        <ele>689.8</ele>
        <time>2019-05-11T10:31:53Z</time>
      </trkpt>
      <trkpt lat="39.1940310" lon="-1.4067620">
        <ele>689.8</ele>
        <time>2019-05-11T10:31:54Z</time>
      </trkpt>
      <trkpt lat="39.1940500" lon="-1.4067240">
        <ele>690.0</ele>
        <time>2019-05-11T10:31:55Z</time>
      </trkpt>
      <trkpt lat="39.1940690" lon="-1.4066860">
        <ele>690.2</ele>
        <time>2019-05-11T10:31:56Z</time>
      </trkpt>
      <trkpt lat="39.1940850" lon="-1.4066490">
        <ele>690.4</ele>
        <time>2019-05-11T10:31:57Z</time>
      </trkpt>
      <trkpt lat="39.1941030" lon="-1.4066130">
        <ele>690.4</ele>
        <time>2019-05-11T10:31:58Z</time>
      </trkpt>
      <trkpt lat="39.1941210" lon="-1.4065760">
        <ele>690.6</ele>
        <time>2019-05-11T10:31:59Z</time>
      </trkpt>
      <trkpt lat="39.1941380" lon="-1.4065330">
        <ele>690.6</ele>
        <time>2019-05-11T10:32:00Z</time>
      </trkpt>
      <trkpt lat="39.1941550" lon="-1.4064930">
        <ele>690.8</ele>
        <time>2019-05-11T10:32:01Z</time>
      </trkpt>
      <trkpt lat="39.1941730" lon="-1.4064540">
        <ele>691.0</ele>
        <time>2019-05-11T10:32:02Z</time>
      </trkpt>
      <trkpt lat="39.1941990" lon="-1.4064190">
        <ele>691.2</ele>
        <time>2019-05-11T10:32:03Z</time>
      </trkpt>
      <trkpt lat="39.1942250" lon="-1.4063830">
        <ele>691.2</ele>
        <time>2019-05-11T10:32:04Z</time>
      </trkpt>
      <trkpt lat="39.1942460" lon="-1.4063410">
        <ele>691.4</ele>
        <time>2019-05-11T10:32:05Z</time>
      </trkpt>
      <trkpt lat="39.1942670" lon="-1.4062960">
        <ele>691.4</ele>
        <time>2019-05-11T10:32:06Z</time>
      </trkpt>
      <trkpt lat="39.1942920" lon="-1.4062510">
        <ele>691.4</ele>
        <time>2019-05-11T10:32:07Z</time>
      </trkpt>
      <trkpt lat="39.1943170" lon="-1.4062040">
        <ele>691.4</ele>
        <time>2019-05-11T10:32:08Z</time>
      </trkpt>
      <trkpt lat="39.1943390" lon="-1.4061560">
        <ele>691.4</ele>
        <time>2019-05-11T10:32:09Z</time>
      </trkpt>
      <trkpt lat="39.1943550" lon="-1.4061050">
        <ele>691.4</ele>
        <time>2019-05-11T10:32:10Z</time>
      </trkpt>
      <trkpt lat="39.1943660" lon="-1.4060490">
        <ele>691.4</ele>
        <time>2019-05-11T10:32:11Z</time>
      </trkpt>
      <trkpt lat="39.1943680" lon="-1.4059920">
        <ele>691.4</ele>
        <time>2019-05-11T10:32:12Z</time>
      </trkpt>
      <trkpt lat="39.1943620" lon="-1.4059310">
        <ele>691.4</ele>
        <time>2019-05-11T10:32:13Z</time>
      </trkpt>
      <trkpt lat="39.1943450" lon="-1.4058670">
        <ele>691.4</ele>
        <time>2019-05-11T10:32:14Z</time>
      </trkpt>
      <trkpt lat="39.1943250" lon="-1.4057960">
        <ele>691.4</ele>
        <time>2019-05-11T10:32:15Z</time>
      </trkpt>
      <trkpt lat="39.1943020" lon="-1.4057220">
        <ele>691.4</ele>
        <time>2019-05-11T10:32:16Z</time>
      </trkpt>
      <trkpt lat="39.1942780" lon="-1.4056450">
        <ele>691.4</ele>
        <time>2019-05-11T10:32:17Z</time>
      </trkpt>
      <trkpt lat="39.1942470" lon="-1.4055620">
        <ele>691.4</ele>
        <time>2019-05-11T10:32:18Z</time>
      </trkpt>
      <trkpt lat="39.1942070" lon="-1.4054820">
        <ele>691.2</ele>
        <time>2019-05-11T10:32:19Z</time>
      </trkpt>
      <trkpt lat="39.1941670" lon="-1.4054010">
        <ele>691.0</ele>
        <time>2019-05-11T10:32:20Z</time>
      </trkpt>
      <trkpt lat="39.1941240" lon="-1.4053260">
        <ele>691.0</ele>
        <time>2019-05-11T10:32:21Z</time>
      </trkpt>
      <trkpt lat="39.1940870" lon="-1.4052480">
        <ele>690.0</ele>
        <time>2019-05-11T10:32:22Z</time>
      </trkpt>
      <trkpt lat="39.1940620" lon="-1.4051730">
        <ele>689.6</ele>
        <time>2019-05-11T10:32:23Z</time>
      </trkpt>
      <trkpt lat="39.1940410" lon="-1.4051060">
        <ele>689.2</ele>
        <time>2019-05-11T10:32:24Z</time>
      </trkpt>
      <trkpt lat="39.1940170" lon="-1.4050390">
        <ele>688.8</ele>
        <time>2019-05-11T10:32:25Z</time>
      </trkpt>
      <trkpt lat="39.1939930" lon="-1.4049740">
        <ele>688.6</ele>
        <time>2019-05-11T10:32:26Z</time>
      </trkpt>
      <trkpt lat="39.1939690" lon="-1.4049070">
        <ele>688.4</ele>
        <time>2019-05-11T10:32:27Z</time>
      </trkpt>
      <trkpt lat="39.1939450" lon="-1.4048450">
        <ele>688.4</ele>
        <time>2019-05-11T10:32:28Z</time>
      </trkpt>
      <trkpt lat="39.1939190" lon="-1.4047860">
        <ele>688.2</ele>
        <time>2019-05-11T10:32:29Z</time>
      </trkpt>
      <trkpt lat="39.1938880" lon="-1.4047320">
        <ele>688.2</ele>
        <time>2019-05-11T10:32:30Z</time>
      </trkpt>
      <trkpt lat="39.1938620" lon="-1.4046740">
        <ele>688.2</ele>
        <time>2019-05-11T10:32:31Z</time>
      </trkpt>
      <trkpt lat="39.1938360" lon="-1.4046160">
        <ele>688.2</ele>
        <time>2019-05-11T10:32:32Z</time>
      </trkpt>
      <trkpt lat="39.1938170" lon="-1.4045560">
        <ele>688.2</ele>
        <time>2019-05-11T10:32:33Z</time>
      </trkpt>
      <trkpt lat="39.1937940" lon="-1.4044970">
        <ele>688.2</ele>
        <time>2019-05-11T10:32:34Z</time>
      </trkpt>
      <trkpt lat="39.1937710" lon="-1.4044410">
        <ele>688.2</ele>
        <time>2019-05-11T10:32:35Z</time>
      </trkpt>
      <trkpt lat="39.1937460" lon="-1.4043860">
        <ele>688.2</ele>
        <time>2019-05-11T10:32:36Z</time>
      </trkpt>
      <trkpt lat="39.1937150" lon="-1.4043350">
        <ele>688.2</ele>
        <time>2019-05-11T10:32:37Z</time>
      </trkpt>
      <trkpt lat="39.1936830" lon="-1.4042880">
        <ele>688.2</ele>
        <time>2019-05-11T10:32:38Z</time>
      </trkpt>
      <trkpt lat="39.1936520" lon="-1.4042420">
        <ele>688.2</ele>
        <time>2019-05-11T10:32:39Z</time>
      </trkpt>
      <trkpt lat="39.1936220" lon="-1.4041970">
        <ele>688.2</ele>
        <time>2019-05-11T10:32:40Z</time>
      </trkpt>
      <trkpt lat="39.1935970" lon="-1.4041510">
        <ele>688.2</ele>
        <time>2019-05-11T10:32:41Z</time>
      </trkpt>
      <trkpt lat="39.1935730" lon="-1.4041090">
        <ele>688.2</ele>
        <time>2019-05-11T10:32:42Z</time>
      </trkpt>
      <trkpt lat="39.1935540" lon="-1.4040650">
        <ele>688.2</ele>
        <time>2019-05-11T10:32:43Z</time>
      </trkpt>
      <trkpt lat="39.1935340" lon="-1.4040180">
        <ele>688.2</ele>
        <time>2019-05-11T10:32:44Z</time>
      </trkpt>
      <trkpt lat="39.1935140" lon="-1.4039650">
        <ele>688.2</ele>
        <time>2019-05-11T10:32:45Z</time>
      </trkpt>
      <trkpt lat="39.1935010" lon="-1.4039040">
        <ele>688.2</ele>
        <time>2019-05-11T10:32:46Z</time>
      </trkpt>
      <trkpt lat="39.1934920" lon="-1.4038430">
        <ele>688.2</ele>
        <time>2019-05-11T10:32:47Z</time>
      </trkpt>
      <trkpt lat="39.1934780" lon="-1.4037910">
        <ele>688.2</ele>
        <time>2019-05-11T10:32:48Z</time>
      </trkpt>
      <trkpt lat="39.1934640" lon="-1.4037460">
        <ele>688.2</ele>
        <time>2019-05-11T10:32:49Z</time>
      </trkpt>
      <trkpt lat="39.1934500" lon="-1.4037010">
        <ele>688.4</ele>
        <time>2019-05-11T10:32:50Z</time>
      </trkpt>
      <trkpt lat="39.1934340" lon="-1.4036580">
        <ele>688.4</ele>
        <time>2019-05-11T10:32:51Z</time>
      </trkpt>
      <trkpt lat="39.1934180" lon="-1.4036180">
        <ele>688.4</ele>
        <time>2019-05-11T10:32:52Z</time>
      </trkpt>
      <trkpt lat="39.1934060" lon="-1.4035740">
        <ele>688.6</ele>
        <time>2019-05-11T10:32:53Z</time>
      </trkpt>
      <trkpt lat="39.1933860" lon="-1.4035290">
        <ele>688.6</ele>
        <time>2019-05-11T10:32:54Z</time>
      </trkpt>
      <trkpt lat="39.1933650" lon="-1.4034830">
        <ele>688.6</ele>
        <time>2019-05-11T10:32:55Z</time>
      </trkpt>
      <trkpt lat="39.1933430" lon="-1.4034360">
        <ele>688.8</ele>
        <time>2019-05-11T10:32:56Z</time>
      </trkpt>
      <trkpt lat="39.1933190" lon="-1.4033920">
        <ele>689.0</ele>
        <time>2019-05-11T10:32:57Z</time>
      </trkpt>
      <trkpt lat="39.1932990" lon="-1.4033490">
        <ele>689.0</ele>
        <time>2019-05-11T10:32:58Z</time>
      </trkpt>
      <trkpt lat="39.1932790" lon="-1.4033110">
        <ele>689.2</ele>
        <time>2019-05-11T10:32:59Z</time>
      </trkpt>
      <trkpt lat="39.1932620" lon="-1.4032740">
        <ele>689.2</ele>
        <time>2019-05-11T10:33:00Z</time>
      </trkpt>
      <trkpt lat="39.1932490" lon="-1.4032360">
        <ele>689.2</ele>
        <time>2019-05-11T10:33:01Z</time>
      </trkpt>
      <trkpt lat="39.1932390" lon="-1.4031910">
        <ele>689.2</ele>
        <time>2019-05-11T10:33:02Z</time>
      </trkpt>
      <trkpt lat="39.1932280" lon="-1.4031470">
        <ele>689.2</ele>
        <time>2019-05-11T10:33:03Z</time>
      </trkpt>
      <trkpt lat="39.1932140" lon="-1.4030990">
        <ele>689.2</ele>
        <time>2019-05-11T10:33:04Z</time>
      </trkpt>
      <trkpt lat="39.1932010" lon="-1.4030510">
        <ele>689.2</ele>
        <time>2019-05-11T10:33:05Z</time>
      </trkpt>
      <trkpt lat="39.1931920" lon="-1.4030030">
        <ele>689.4</ele>
        <time>2019-05-11T10:33:06Z</time>
      </trkpt>
      <trkpt lat="39.1931850" lon="-1.4029510">
        <ele>689.4</ele>
        <time>2019-05-11T10:33:07Z</time>
      </trkpt>
      <trkpt lat="39.1931790" lon="-1.4028930">
        <ele>689.4</ele>
        <time>2019-05-11T10:33:08Z</time>
      </trkpt>
      <trkpt lat="39.1931710" lon="-1.4028340">
        <ele>689.4</ele>
        <time>2019-05-11T10:33:09Z</time>
      </trkpt>
      <trkpt lat="39.1931600" lon="-1.4027750">
        <ele>689.4</ele>
        <time>2019-05-11T10:33:10Z</time>
      </trkpt>
      <trkpt lat="39.1931470" lon="-1.4027140">
        <ele>689.4</ele>
        <time>2019-05-11T10:33:11Z</time>
      </trkpt>
      <trkpt lat="39.1931340" lon="-1.4026540">
        <ele>689.6</ele>
        <time>2019-05-11T10:33:12Z</time>
      </trkpt>
      <trkpt lat="39.1931250" lon="-1.4025930">
        <ele>689.6</ele>
        <time>2019-05-11T10:33:13Z</time>
      </trkpt>
      <trkpt lat="39.1931170" lon="-1.4025320">
        <ele>689.6</ele>
        <time>2019-05-11T10:33:14Z</time>
      </trkpt>
      <trkpt lat="39.1931120" lon="-1.4024730">
        <ele>689.6</ele>
        <time>2019-05-11T10:33:15Z</time>
      </trkpt>
      <trkpt lat="39.1931050" lon="-1.4024140">
        <ele>689.4</ele>
        <time>2019-05-11T10:33:16Z</time>
      </trkpt>
      <trkpt lat="39.1930930" lon="-1.4023560">
        <ele>689.4</ele>
        <time>2019-05-11T10:33:17Z</time>
      </trkpt>
      <trkpt lat="39.1930840" lon="-1.4022990">
        <ele>689.4</ele>
        <time>2019-05-11T10:33:18Z</time>
      </trkpt>
      <trkpt lat="39.1930710" lon="-1.4022460">
        <ele>689.4</ele>
        <time>2019-05-11T10:33:19Z</time>
      </trkpt>
      <trkpt lat="39.1930600" lon="-1.4021950">
        <ele>689.4</ele>
        <time>2019-05-11T10:33:20Z</time>
      </trkpt>
      <trkpt lat="39.1930470" lon="-1.4021360">
        <ele>689.2</ele>
        <time>2019-05-11T10:33:21Z</time>
      </trkpt>
      <trkpt lat="39.1930290" lon="-1.4020770">
        <ele>689.2</ele>
        <time>2019-05-11T10:33:22Z</time>
      </trkpt>
      <trkpt lat="39.1930140" lon="-1.4020190">
        <ele>689.0</ele>
        <time>2019-05-11T10:33:23Z</time>
      </trkpt>
      <trkpt lat="39.1930010" lon="-1.4019630">
        <ele>688.8</ele>
        <time>2019-05-11T10:33:24Z</time>
      </trkpt>
      <trkpt lat="39.1929850" lon="-1.4019130">
        <ele>688.6</ele>
        <time>2019-05-11T10:33:25Z</time>
      </trkpt>
      <trkpt lat="39.1929700" lon="-1.4018610">
        <ele>688.4</ele>
        <time>2019-05-11T10:33:26Z</time>
      </trkpt>
      <trkpt lat="39.1929450" lon="-1.4018110">
        <ele>688.4</ele>
        <time>2019-05-11T10:33:27Z</time>
      </trkpt>
      <trkpt lat="39.1929170" lon="-1.4017560">
        <ele>688.2</ele>
        <time>2019-05-11T10:33:28Z</time>
      </trkpt>
      <trkpt lat="39.1928840" lon="-1.4017070">
        <ele>688.2</ele>
        <time>2019-05-11T10:33:29Z</time>
      </trkpt>
      <trkpt lat="39.1928450" lon="-1.4016730">
        <ele>688.2</ele>
        <time>2019-05-11T10:33:30Z</time>
      </trkpt>
      <trkpt lat="39.1928060" lon="-1.4016360">
        <ele>688.2</ele>
        <time>2019-05-11T10:33:31Z</time>
      </trkpt>
      <trkpt lat="39.1927710" lon="-1.4015850">
        <ele>688.2</ele>
        <time>2019-05-11T10:33:32Z</time>
      </trkpt>
      <trkpt lat="39.1927420" lon="-1.4015210">
        <ele>688.2</ele>
        <time>2019-05-11T10:33:33Z</time>
      </trkpt>
      <trkpt lat="39.1927220" lon="-1.4014430">
        <ele>688.2</ele>
        <time>2019-05-11T10:33:34Z</time>
      </trkpt>
      <trkpt lat="39.1927050" lon="-1.4013640">
        <ele>688.0</ele>
        <time>2019-05-11T10:33:35Z</time>
      </trkpt>
      <trkpt lat="39.1927030" lon="-1.4012800">
        <ele>688.0</ele>
        <time>2019-05-11T10:33:36Z</time>
      </trkpt>
      <trkpt lat="39.1927080" lon="-1.4011950">
        <ele>687.8</ele>
        <time>2019-05-11T10:33:37Z</time>
      </trkpt>
      <trkpt lat="39.1927070" lon="-1.4011040">
        <ele>687.8</ele>
        <time>2019-05-11T10:33:38Z</time>
      </trkpt>
      <trkpt lat="39.1926920" lon="-1.4010020">
        <ele>687.6</ele>
        <time>2019-05-11T10:33:39Z</time>
      </trkpt>
      <trkpt lat="39.1926680" lon="-1.4009020">
        <ele>687.6</ele>
        <time>2019-05-11T10:33:40Z</time>
      </trkpt>
      <trkpt lat="39.1926370" lon="-1.4008100">
        <ele>687.6</ele>
        <time>2019-05-11T10:33:41Z</time>
      </trkpt>
      <trkpt lat="39.1926030" lon="-1.4007200">
        <ele>687.6</ele>
        <time>2019-05-11T10:33:42Z</time>
      </trkpt>
      <trkpt lat="39.1925760" lon="-1.4006300">
        <ele>687.6</ele>
        <time>2019-05-11T10:33:43Z</time>
      </trkpt>
      <trkpt lat="39.1925570" lon="-1.4005360">
        <ele>687.2</ele>
        <time>2019-05-11T10:33:44Z</time>
      </trkpt>
      <trkpt lat="39.1925390" lon="-1.4004410">
        <ele>686.6</ele>
        <time>2019-05-11T10:33:45Z</time>
      </trkpt>
      <trkpt lat="39.1925170" lon="-1.4003460">
        <ele>686.0</ele>
        <time>2019-05-11T10:33:46Z</time>
      </trkpt>
      <trkpt lat="39.1925000" lon="-1.4002480">
        <ele>685.6</ele>
        <time>2019-05-11T10:33:47Z</time>
      </trkpt>
      <trkpt lat="39.1924890" lon="-1.4001510">
        <ele>685.0</ele>
        <time>2019-05-11T10:33:48Z</time>
      </trkpt>
      <trkpt lat="39.1924830" lon="-1.4000540">
        <ele>684.6</ele>
        <time>2019-05-11T10:33:49Z</time>
      </trkpt>
      <trkpt lat="39.1924790" lon="-1.3999580">
        <ele>684.4</ele>
        <time>2019-05-11T10:33:50Z</time>
      </trkpt>
      <trkpt lat="39.1924690" lon="-1.3998660">
        <ele>684.2</ele>
        <time>2019-05-11T10:33:51Z</time>
      </trkpt>
      <trkpt lat="39.1924480" lon="-1.3997830">
        <ele>684.2</ele>
        <time>2019-05-11T10:33:52Z</time>
      </trkpt>
      <trkpt lat="39.1924230" lon="-1.3997130">
        <ele>684.0</ele>
        <time>2019-05-11T10:33:53Z</time>
      </trkpt>
      <trkpt lat="39.1924010" lon="-1.3996490">
        <ele>684.0</ele>
        <time>2019-05-11T10:33:54Z</time>
      </trkpt>
      <trkpt lat="39.1923910" lon="-1.3995850">
        <ele>684.0</ele>
        <time>2019-05-11T10:33:55Z</time>
      </trkpt>
      <trkpt lat="39.1923880" lon="-1.3995200">
        <ele>684.0</ele>
        <time>2019-05-11T10:33:56Z</time>
      </trkpt>
      <trkpt lat="39.1923850" lon="-1.3994520">
        <ele>684.0</ele>
        <time>2019-05-11T10:33:57Z</time>
      </trkpt>
      <trkpt lat="39.1923810" lon="-1.3993820">
        <ele>684.0</ele>
        <time>2019-05-11T10:33:58Z</time>
      </trkpt>
      <trkpt lat="39.1923750" lon="-1.3993130">
        <ele>684.0</ele>
        <time>2019-05-11T10:33:59Z</time>
      </trkpt>
      <trkpt lat="39.1923620" lon="-1.3992480">
        <ele>684.0</ele>
        <time>2019-05-11T10:34:00Z</time>
      </trkpt>
      <trkpt lat="39.1923370" lon="-1.3991910">
        <ele>684.0</ele>
        <time>2019-05-11T10:34:01Z</time>
      </trkpt>
      <trkpt lat="39.1923020" lon="-1.3991460">
        <ele>684.0</ele>
        <time>2019-05-11T10:34:02Z</time>
      </trkpt>
      <trkpt lat="39.1922680" lon="-1.3991160">
        <ele>684.0</ele>
        <time>2019-05-11T10:34:03Z</time>
      </trkpt>
      <trkpt lat="39.1922380" lon="-1.3991050">
        <ele>683.8</ele>
        <time>2019-05-11T10:34:04Z</time>
      </trkpt>
      <trkpt lat="39.1922120" lon="-1.3991210">
        <ele>683.8</ele>
        <time>2019-05-11T10:34:05Z</time>
      </trkpt>
      <trkpt lat="39.1921900" lon="-1.3991550">
        <ele>683.8</ele>
        <time>2019-05-11T10:34:06Z</time>
      </trkpt>
      <trkpt lat="39.1921660" lon="-1.3991980">
        <ele>683.8</ele>
        <time>2019-05-11T10:34:07Z</time>
      </trkpt>
      <trkpt lat="39.1921390" lon="-1.3992470">
        <ele>683.8</ele>
        <time>2019-05-11T10:34:08Z</time>
      </trkpt>
      <trkpt lat="39.1921150" lon="-1.3993010">
        <ele>683.8</ele>
        <time>2019-05-11T10:34:09Z</time>
      </trkpt>
      <trkpt lat="39.1920930" lon="-1.3993590">
        <ele>683.6</ele>
        <time>2019-05-11T10:34:10Z</time>
      </trkpt>
      <trkpt lat="39.1920700" lon="-1.3994180">
        <ele>683.2</ele>
        <time>2019-05-11T10:34:11Z</time>
      </trkpt>
      <trkpt lat="39.1920470" lon="-1.3994780">
        <ele>683.0</ele>
        <time>2019-05-11T10:34:12Z</time>
      </trkpt>
      <trkpt lat="39.1920230" lon="-1.3995380">
        <ele>682.8</ele>
        <time>2019-05-11T10:34:13Z</time>
      </trkpt>
      <trkpt lat="39.1920020" lon="-1.3996010">
        <ele>682.6</ele>
        <time>2019-05-11T10:34:14Z</time>
      </trkpt>
      <trkpt lat="39.1919840" lon="-1.3996690">
        <ele>682.6</ele>
        <time>2019-05-11T10:34:15Z</time>
      </trkpt>
      <trkpt lat="39.1919670" lon="-1.3997390">
        <ele>682.4</ele>
        <time>2019-05-11T10:34:16Z</time>
      </trkpt>
      <trkpt lat="39.1919450" lon="-1.3998110">
        <ele>682.4</ele>
        <time>2019-05-11T10:34:17Z</time>
      </trkpt>
      <trkpt lat="39.1919190" lon="-1.3998820">
        <ele>682.4</ele>
        <time>2019-05-11T10:34:18Z</time>
      </trkpt>
      <trkpt lat="39.1918880" lon="-1.3999390">
        <ele>682.4</ele>
        <time>2019-05-11T10:34:19Z</time>
      </trkpt>
      <trkpt lat="39.1918470" lon="-1.3999720">
        <ele>682.2</ele>
        <time>2019-05-11T10:34:20Z</time>
      </trkpt>
      <trkpt lat="39.1917990" lon="-1.3999850">
        <ele>682.2</ele>
        <time>2019-05-11T10:34:21Z</time>
      </trkpt>
      <trkpt lat="39.1917460" lon="-1.3999920">
        <ele>682.2</ele>
        <time>2019-05-11T10:34:22Z</time>
      </trkpt>
      <trkpt lat="39.1916950" lon="-1.3999910">
        <ele>682.2</ele>
        <time>2019-05-11T10:34:23Z</time>
      </trkpt>
      <trkpt lat="39.1916440" lon="-1.3999820">
        <ele>682.0</ele>
        <time>2019-05-11T10:34:24Z</time>
      </trkpt>
      <trkpt lat="39.1915960" lon="-1.3999780">
        <ele>681.8</ele>
        <time>2019-05-11T10:34:25Z</time>
      </trkpt>
      <trkpt lat="39.1915530" lon="-1.3999950">
        <ele>681.6</ele>
        <time>2019-05-11T10:34:26Z</time>
      </trkpt>
      <trkpt lat="39.1915290" lon="-1.4000300">
        <ele>681.6</ele>
        <time>2019-05-11T10:34:27Z</time>
      </trkpt>
      <trkpt lat="39.1915190" lon="-1.4000720">
        <ele>681.6</ele>
        <time>2019-05-11T10:34:28Z</time>
      </trkpt>
      <trkpt lat="39.1915110" lon="-1.4001120">
        <ele>681.4</ele>
        <time>2019-05-11T10:34:29Z</time>
      </trkpt>
      <trkpt lat="39.1914950" lon="-1.4001510">
        <ele>681.4</ele>
        <time>2019-05-11T10:34:30Z</time>
      </trkpt>
      <trkpt lat="39.1914780" lon="-1.4001920">
        <ele>681.2</ele>
        <time>2019-05-11T10:34:31Z</time>
      </trkpt>
      <trkpt lat="39.1914630" lon="-1.4002380">
        <ele>680.8</ele>
        <time>2019-05-11T10:34:32Z</time>
      </trkpt>
      <trkpt lat="39.1914490" lon="-1.4002890">
        <ele>680.6</ele>
        <time>2019-05-11T10:34:33Z</time>
      </trkpt>
      <trkpt lat="39.1914330" lon="-1.4003390">
        <ele>680.4</ele>
        <time>2019-05-11T10:34:34Z</time>
      </trkpt>
      <trkpt lat="39.1914170" lon="-1.4003930">
        <ele>680.4</ele>
        <time>2019-05-11T10:34:35Z</time>
      </trkpt>
      <trkpt lat="39.1914030" lon="-1.4004490">
        <ele>680.2</ele>
        <time>2019-05-11T10:34:36Z</time>
      </trkpt>
      <trkpt lat="39.1913880" lon="-1.4005070">
        <ele>680.2</ele>
        <time>2019-05-11T10:34:37Z</time>
      </trkpt>
      <trkpt lat="39.1913680" lon="-1.4005620">
        <ele>680.2</ele>
        <time>2019-05-11T10:34:38Z</time>
      </trkpt>
      <trkpt lat="39.1913390" lon="-1.4006090">
        <ele>680.0</ele>
        <time>2019-05-11T10:34:39Z</time>
      </trkpt>
      <trkpt lat="39.1913020" lon="-1.4006460">
        <ele>680.0</ele>
        <time>2019-05-11T10:34:40Z</time>
      </trkpt>
      <trkpt lat="39.1912610" lon="-1.4006800">
        <ele>680.0</ele>
        <time>2019-05-11T10:34:41Z</time>
      </trkpt>
      <trkpt lat="39.1912170" lon="-1.4007120">
        <ele>680.0</ele>
        <time>2019-05-11T10:34:42Z</time>
      </trkpt>
      <trkpt lat="39.1911740" lon="-1.4007420">
        <ele>679.8</ele>
        <time>2019-05-11T10:34:43Z</time>
      </trkpt>
      <trkpt lat="39.1911300" lon="-1.4007700">
        <ele>679.8</ele>
        <time>2019-05-11T10:34:44Z</time>
      </trkpt>
      <trkpt lat="39.1910890" lon="-1.4008060">
        <ele>679.8</ele>
        <time>2019-05-11T10:34:45Z</time>
      </trkpt>
      <trkpt lat="39.1910630" lon="-1.4008560">
        <ele>679.8</ele>
        <time>2019-05-11T10:34:46Z</time>
      </trkpt>
      <trkpt lat="39.1910430" lon="-1.4009110">
        <ele>679.8</ele>
        <time>2019-05-11T10:34:47Z</time>
      </trkpt>
      <trkpt lat="39.1910230" lon="-1.4009670">
        <ele>679.6</ele>
        <time>2019-05-11T10:34:48Z</time>
      </trkpt>
      <trkpt lat="39.1910040" lon="-1.4010240">
        <ele>679.6</ele>
        <time>2019-05-11T10:34:49Z</time>
      </trkpt>
      <trkpt lat="39.1909820" lon="-1.4010790">
        <ele>679.6</ele>
        <time>2019-05-11T10:34:50Z</time>
      </trkpt>
      <trkpt lat="39.1909620" lon="-1.4011350">
        <ele>679.4</ele>
        <time>2019-05-11T10:34:51Z</time>
      </trkpt>
      <trkpt lat="39.1909500" lon="-1.4011950">
        <ele>679.4</ele>
        <time>2019-05-11T10:34:52Z</time>
      </trkpt>
      <trkpt lat="39.1909470" lon="-1.4012560">
        <ele>679.2</ele>
        <time>2019-05-11T10:34:53Z</time>
      </trkpt>
      <trkpt lat="39.1909410" lon="-1.4013160">
        <ele>679.0</ele>
        <time>2019-05-11T10:34:54Z</time>
      </trkpt>
      <trkpt lat="39.1909220" lon="-1.4013720">
        <ele>679.0</ele>
        <time>2019-05-11T10:34:55Z</time>
      </trkpt>
      <trkpt lat="39.1908890" lon="-1.4014170">
        <ele>678.8</ele>
        <time>2019-05-11T10:34:56Z</time>
      </trkpt>
      <trkpt lat="39.1908480" lon="-1.4014340">
        <ele>678.8</ele>
        <time>2019-05-11T10:34:57Z</time>
      </trkpt>
      <trkpt lat="39.1908050" lon="-1.4014340">
        <ele>678.8</ele>
        <time>2019-05-11T10:34:58Z</time>
      </trkpt>
      <trkpt lat="39.1907620" lon="-1.4014360">
        <ele>678.6</ele>
        <time>2019-05-11T10:34:59Z</time>
      </trkpt>
      <trkpt lat="39.1907200" lon="-1.4014440">
        <ele>678.6</ele>
        <time>2019-05-11T10:35:00Z</time>
      </trkpt>
      <trkpt lat="39.1906760" lon="-1.4014420">
        <ele>678.6</ele>
        <time>2019-05-11T10:35:01Z</time>
      </trkpt>
      <trkpt lat="39.1906370" lon="-1.4014260">
        <ele>678.6</ele>
        <time>2019-05-11T10:35:02Z</time>
      </trkpt>
      <trkpt lat="39.1906090" lon="-1.4013940">
        <ele>678.4</ele>
        <time>2019-05-11T10:35:03Z</time>
      </trkpt>
      <trkpt lat="39.1905920" lon="-1.4013530">
        <ele>678.2</ele>
        <time>2019-05-11T10:35:04Z</time>
      </trkpt>
      <trkpt lat="39.1905810" lon="-1.4013060">
        <ele>678.2</ele>
        <time>2019-05-11T10:35:05Z</time>
      </trkpt>
      <trkpt lat="39.1905710" lon="-1.4012640">
        <ele>678.2</ele>
        <time>2019-05-11T10:35:06Z</time>
      </trkpt>
      <trkpt lat="39.1905610" lon="-1.4012290">
        <ele>678.0</ele>
        <time>2019-05-11T10:35:07Z</time>
      </trkpt>
      <trkpt lat="39.1905510" lon="-1.4011950">
        <ele>678.0</ele>
        <time>2019-05-11T10:35:08Z</time>
      </trkpt>
      <trkpt lat="39.1905400" lon="-1.4011610">
        <ele>678.0</ele>
        <time>2019-05-11T10:35:09Z</time>
      </trkpt>
      <trkpt lat="39.1905280" lon="-1.4011260">
        <ele>678.0</ele>
        <time>2019-05-11T10:35:10Z</time>
      </trkpt>
      <trkpt lat="39.1905160" lon="-1.4010900">
        <ele>678.0</ele>
        <time>2019-05-11T10:35:11Z</time>
      </trkpt>
      <trkpt lat="39.1905070" lon="-1.4010490">
        <ele>678.0</ele>
        <time>2019-05-11T10:35:12Z</time>
      </trkpt>
      <trkpt lat="39.1905010" lon="-1.4010100">
        <ele>677.8</ele>
        <time>2019-05-11T10:35:13Z</time>
      </trkpt>
      <trkpt lat="39.1904950" lon="-1.4009780">
        <ele>677.6</ele>
        <time>2019-05-11T10:35:14Z</time>
      </trkpt>
      <trkpt lat="39.1904840" lon="-1.4009560">
        <ele>677.6</ele>
        <time>2019-05-11T10:35:15Z</time>
      </trkpt>
      <trkpt lat="39.1904640" lon="-1.4009500">
        <ele>677.4</ele>
        <time>2019-05-11T10:35:16Z</time>
      </trkpt>
      <trkpt lat="39.1904370" lon="-1.4009550">
        <ele>677.2</ele>
        <time>2019-05-11T10:35:17Z</time>
      </trkpt>
      <trkpt lat="39.1904030" lon="-1.4009620">
        <ele>677.2</ele>
        <time>2019-05-11T10:35:18Z</time>
      </trkpt>
      <trkpt lat="39.1903630" lon="-1.4009740">
        <ele>677.0</ele>
        <time>2019-05-11T10:35:19Z</time>
      </trkpt>
      <trkpt lat="39.1903190" lon="-1.4009920">
        <ele>677.0</ele>
        <time>2019-05-11T10:35:20Z</time>
      </trkpt>
      <trkpt lat="39.1902740" lon="-1.4010140">
        <ele>677.0</ele>
        <time>2019-05-11T10:35:21Z</time>
      </trkpt>
      <trkpt lat="39.1902320" lon="-1.4010320">
        <ele>676.8</ele>
        <time>2019-05-11T10:35:22Z</time>
      </trkpt>
      <trkpt lat="39.1901920" lon="-1.4010360">
        <ele>676.6</ele>
        <time>2019-05-11T10:35:23Z</time>
      </trkpt>
      <trkpt lat="39.1901580" lon="-1.4010180">
        <ele>676.2</ele>
        <time>2019-05-11T10:35:24Z</time>
      </trkpt>
      <trkpt lat="39.1901360" lon="-1.4009870">
        <ele>676.0</ele>
        <time>2019-05-11T10:35:25Z</time>
      </trkpt>
      <trkpt lat="39.1901320" lon="-1.4009490">
        <ele>675.8</ele>
        <time>2019-05-11T10:35:26Z</time>
      </trkpt>
      <trkpt lat="39.1901360" lon="-1.4009130">
        <ele>675.6</ele>
        <time>2019-05-11T10:35:27Z</time>
      </trkpt>
      <trkpt lat="39.1901420" lon="-1.4008810">
        <ele>675.4</ele>
        <time>2019-05-11T10:35:28Z</time>
      </trkpt>
      <trkpt lat="39.1901500" lon="-1.4008480">
        <ele>675.2</ele>
        <time>2019-05-11T10:35:29Z</time>
      </trkpt>
      <trkpt lat="39.1901610" lon="-1.4008150">
        <ele>675.0</ele>
        <time>2019-05-11T10:35:30Z</time>
      </trkpt>
      <trkpt lat="39.1901740" lon="-1.4007800">
        <ele>675.0</ele>
        <time>2019-05-11T10:35:31Z</time>
      </trkpt>
      <trkpt lat="39.1901920" lon="-1.4007480">
        <ele>674.8</ele>
        <time>2019-05-11T10:35:32Z</time>
      </trkpt>
      <trkpt lat="39.1902100" lon="-1.4007170">
        <ele>674.8</ele>
        <time>2019-05-11T10:35:33Z</time>
      </trkpt>
      <trkpt lat="39.1902290" lon="-1.4006840">
        <ele>674.8</ele>
        <time>2019-05-11T10:35:34Z</time>
      </trkpt>
      <trkpt lat="39.1902490" lon="-1.4006480">
        <ele>674.8</ele>
        <time>2019-05-11T10:35:35Z</time>
      </trkpt>
      <trkpt lat="39.1902680" lon="-1.4006090">
        <ele>674.6</ele>
        <time>2019-05-11T10:35:36Z</time>
      </trkpt>
      <trkpt lat="39.1902880" lon="-1.4005680">
        <ele>674.6</ele>
        <time>2019-05-11T10:35:37Z</time>
      </trkpt>
      <trkpt lat="39.1903090" lon="-1.4005260">
        <ele>674.6</ele>
        <time>2019-05-11T10:35:38Z</time>
      </trkpt>
      <trkpt lat="39.1903300" lon="-1.4004850">
        <ele>674.6</ele>
        <time>2019-05-11T10:35:39Z</time>
      </trkpt>
      <trkpt lat="39.1903530" lon="-1.4004490">
        <ele>674.6</ele>
        <time>2019-05-11T10:35:40Z</time>
      </trkpt>
      <trkpt lat="39.1903830" lon="-1.4004230">
        <ele>674.8</ele>
        <time>2019-05-11T10:35:41Z</time>
      </trkpt>
      <trkpt lat="39.1904180" lon="-1.4004050">
        <ele>674.8</ele>
        <time>2019-05-11T10:35:42Z</time>
      </trkpt>
      <trkpt lat="39.1904530" lon="-1.4003910">
        <ele>674.8</ele>
        <time>2019-05-11T10:35:43Z</time>
      </trkpt>
      <trkpt lat="39.1904900" lon="-1.4003810">
        <ele>674.8</ele>
        <time>2019-05-11T10:35:44Z</time>
      </trkpt>
      <trkpt lat="39.1905290" lon="-1.4003690">
        <ele>674.8</ele>
        <time>2019-05-11T10:35:45Z</time>
      </trkpt>
      <trkpt lat="39.1905640" lon="-1.4003500">
        <ele>674.8</ele>
        <time>2019-05-11T10:35:46Z</time>
      </trkpt>
      <trkpt lat="39.1905940" lon="-1.4003260">
        <ele>674.8</ele>
        <time>2019-05-11T10:35:47Z</time>
      </trkpt>
      <trkpt lat="39.1906250" lon="-1.4003000">
        <ele>674.8</ele>
        <time>2019-05-11T10:35:48Z</time>
      </trkpt>
      <trkpt lat="39.1906540" lon="-1.4002680">
        <ele>675.0</ele>
        <time>2019-05-11T10:35:49Z</time>
      </trkpt>
      <trkpt lat="39.1906790" lon="-1.4002290">
        <ele>675.0</ele>
        <time>2019-05-11T10:35:50Z</time>
      </trkpt>
      <trkpt lat="39.1906990" lon="-1.4001850">
        <ele>675.0</ele>
        <time>2019-05-11T10:35:51Z</time>
      </trkpt>
      <trkpt lat="39.1907160" lon="-1.4001350">
        <ele>675.0</ele>
        <time>2019-05-11T10:35:52Z</time>
      </trkpt>
      <trkpt lat="39.1907270" lon="-1.4000820">
        <ele>675.0</ele>
        <time>2019-05-11T10:35:53Z</time>
      </trkpt>
      <trkpt lat="39.1907270" lon="-1.4000280">
        <ele>675.0</ele>
        <time>2019-05-11T10:35:54Z</time>
      </trkpt>
      <trkpt lat="39.1907160" lon="-1.3999800">
        <ele>675.0</ele>
        <time>2019-05-11T10:35:55Z</time>
      </trkpt>
      <trkpt lat="39.1907030" lon="-1.3999370">
        <ele>675.0</ele>
        <time>2019-05-11T10:35:56Z</time>
      </trkpt>
      <trkpt lat="39.1906910" lon="-1.3998910">
        <ele>675.0</ele>
        <time>2019-05-11T10:35:57Z</time>
      </trkpt>
      <trkpt lat="39.1906780" lon="-1.3998420">
        <ele>675.2</ele>
        <time>2019-05-11T10:35:58Z</time>
      </trkpt>
      <trkpt lat="39.1906640" lon="-1.3997910">
        <ele>675.2</ele>
        <time>2019-05-11T10:35:59Z</time>
      </trkpt>
      <trkpt lat="39.1906530" lon="-1.3997390">
        <ele>675.2</ele>
        <time>2019-05-11T10:36:00Z</time>
      </trkpt>
      <trkpt lat="39.1906500" lon="-1.3996900">
        <ele>675.2</ele>
        <time>2019-05-11T10:36:01Z</time>
      </trkpt>
      <trkpt lat="39.1906470" lon="-1.3996440">
        <ele>675.4</ele>
        <time>2019-05-11T10:36:02Z</time>
      </trkpt>
      <trkpt lat="39.1906340" lon="-1.3996080">
        <ele>675.4</ele>
        <time>2019-05-11T10:36:03Z</time>
      </trkpt>
      <trkpt lat="39.1906220" lon="-1.3995810">
        <ele>675.6</ele>
        <time>2019-05-11T10:36:04Z</time>
      </trkpt>
      <trkpt lat="39.1906120" lon="-1.3995590">
        <ele>675.6</ele>
        <time>2019-05-11T10:36:05Z</time>
      </trkpt>
      <trkpt lat="39.1906070" lon="-1.3995320">
        <ele>675.6</ele>
        <time>2019-05-11T10:36:06Z</time>
      </trkpt>
      <trkpt lat="39.1906060" lon="-1.3994980">
        <ele>675.8</ele>
        <time>2019-05-11T10:36:07Z</time>
      </trkpt>
      <trkpt lat="39.1906050" lon="-1.3994620">
        <ele>675.8</ele>
        <time>2019-05-11T10:36:08Z</time>
      </trkpt>
      <trkpt lat="39.1906060" lon="-1.3994220">
        <ele>675.8</ele>
        <time>2019-05-11T10:36:09Z</time>
      </trkpt>
      <trkpt lat="39.1906080" lon="-1.3993790">
        <ele>676.0</ele>
        <time>2019-05-11T10:36:10Z</time>
      </trkpt>
      <trkpt lat="39.1906080" lon="-1.3993320">
        <ele>676.0</ele>
        <time>2019-05-11T10:36:11Z</time>
      </trkpt>
      <trkpt lat="39.1906110" lon="-1.3992790">
        <ele>676.0</ele>
        <time>2019-05-11T10:36:12Z</time>
      </trkpt>
      <trkpt lat="39.1906120" lon="-1.3992280">
        <ele>676.0</ele>
        <time>2019-05-11T10:36:13Z</time>
      </trkpt>
      <trkpt lat="39.1906130" lon="-1.3991790">
        <ele>676.0</ele>
        <time>2019-05-11T10:36:14Z</time>
      </trkpt>
      <trkpt lat="39.1906180" lon="-1.3991300">
        <ele>676.0</ele>
        <time>2019-05-11T10:36:15Z</time>
      </trkpt>
      <trkpt lat="39.1906320" lon="-1.3990800">
        <ele>676.0</ele>
        <time>2019-05-11T10:36:16Z</time>
      </trkpt>
      <trkpt lat="39.1906600" lon="-1.3990420">
        <ele>676.0</ele>
        <time>2019-05-11T10:36:17Z</time>
      </trkpt>
      <trkpt lat="39.1906960" lon="-1.3990160">
        <ele>676.0</ele>
        <time>2019-05-11T10:36:18Z</time>
      </trkpt>
      <trkpt lat="39.1907260" lon="-1.3989920">
        <ele>676.0</ele>
        <time>2019-05-11T10:36:19Z</time>
      </trkpt>
      <trkpt lat="39.1907580" lon="-1.3989690">
        <ele>676.0</ele>
        <time>2019-05-11T10:36:20Z</time>
      </trkpt>
      <trkpt lat="39.1907920" lon="-1.3989510">
        <ele>676.0</ele>
        <time>2019-05-11T10:36:21Z</time>
      </trkpt>
      <trkpt lat="39.1908250" lon="-1.3989270">
        <ele>675.8</ele>
        <time>2019-05-11T10:36:22Z</time>
      </trkpt>
      <trkpt lat="39.1908530" lon="-1.3988950">
        <ele>675.8</ele>
        <time>2019-05-11T10:36:23Z</time>
      </trkpt>
      <trkpt lat="39.1908760" lon="-1.3988580">
        <ele>675.6</ele>
        <time>2019-05-11T10:36:24Z</time>
      </trkpt>
      <trkpt lat="39.1908970" lon="-1.3988200">
        <ele>675.6</ele>
        <time>2019-05-11T10:36:25Z</time>
      </trkpt>
      <trkpt lat="39.1909140" lon="-1.3987800">
        <ele>675.6</ele>
        <time>2019-05-11T10:36:26Z</time>
      </trkpt>
      <trkpt lat="39.1909230" lon="-1.3987390">
        <ele>675.6</ele>
        <time>2019-05-11T10:36:27Z</time>
      </trkpt>
      <trkpt lat="39.1909480" lon="-1.3984590">
        <ele>675.6</ele>
        <time>2019-05-11T10:36:31Z</time>
      </trkpt>
      <trkpt lat="39.1909470" lon="-1.3984340">
        <ele>675.6</ele>
        <time>2019-05-11T10:36:32Z</time>
      </trkpt>
      <trkpt lat="39.1909450" lon="-1.3984090">
        <ele>675.6</ele>
        <time>2019-05-11T10:36:33Z</time>
      </trkpt>
      <trkpt lat="39.1909420" lon="-1.3983570">
        <ele>675.8</ele>
        <time>2019-05-11T10:36:34Z</time>
      </trkpt>
      <trkpt lat="39.1909390" lon="-1.3983000">
        <ele>676.0</ele>
        <time>2019-05-11T10:36:35Z</time>
      </trkpt>
      <trkpt lat="39.1909400" lon="-1.3982400">
        <ele>676.2</ele>
        <time>2019-05-11T10:36:36Z</time>
      </trkpt>
      <trkpt lat="39.1909560" lon="-1.3981820">
        <ele>676.2</ele>
        <time>2019-05-11T10:36:37Z</time>
      </trkpt>
      <trkpt lat="39.1909740" lon="-1.3981260">
        <ele>676.4</ele>
        <time>2019-05-11T10:36:38Z</time>
      </trkpt>
      <trkpt lat="39.1909870" lon="-1.3980720">
        <ele>676.4</ele>
        <time>2019-05-11T10:36:39Z</time>
      </trkpt>
      <trkpt lat="39.1909970" lon="-1.3980230">
        <ele>676.4</ele>
        <time>2019-05-11T10:36:40Z</time>
      </trkpt>
      <trkpt lat="39.1910080" lon="-1.3979740">
        <ele>676.6</ele>
        <time>2019-05-11T10:36:41Z</time>
      </trkpt>
      <trkpt lat="39.1910140" lon="-1.3979210">
        <ele>676.6</ele>
        <time>2019-05-11T10:36:42Z</time>
      </trkpt>
      <trkpt lat="39.1910230" lon="-1.3978640">
        <ele>676.6</ele>
        <time>2019-05-11T10:36:43Z</time>
      </trkpt>
      <trkpt lat="39.1910340" lon="-1.3978070">
        <ele>676.6</ele>
        <time>2019-05-11T10:36:44Z</time>
      </trkpt>
      <trkpt lat="39.1910470" lon="-1.3977530">
        <ele>676.6</ele>
        <time>2019-05-11T10:36:45Z</time>
      </trkpt>
      <trkpt lat="39.1910570" lon="-1.3977010">
        <ele>676.8</ele>
        <time>2019-05-11T10:36:46Z</time>
      </trkpt>
      <trkpt lat="39.1910690" lon="-1.3976460">
        <ele>676.8</ele>
        <time>2019-05-11T10:36:47Z</time>
      </trkpt>
      <trkpt lat="39.1910790" lon="-1.3975940">
        <ele>676.8</ele>
        <time>2019-05-11T10:36:48Z</time>
      </trkpt>
      <trkpt lat="39.1910890" lon="-1.3975420">
        <ele>676.8</ele>
        <time>2019-05-11T10:36:49Z</time>
      </trkpt>
      <trkpt lat="39.1911000" lon="-1.3974910">
        <ele>677.0</ele>
        <time>2019-05-11T10:36:50Z</time>
      </trkpt>
      <trkpt lat="39.1911170" lon="-1.3974400">
        <ele>677.0</ele>
        <time>2019-05-11T10:36:51Z</time>
      </trkpt>
      <trkpt lat="39.1911340" lon="-1.3973830">
        <ele>677.2</ele>
        <time>2019-05-11T10:36:52Z</time>
      </trkpt>
      <trkpt lat="39.1911510" lon="-1.3973270">
        <ele>677.2</ele>
        <time>2019-05-11T10:36:53Z</time>
      </trkpt>
      <trkpt lat="39.1911710" lon="-1.3972740">
        <ele>677.4</ele>
        <time>2019-05-11T10:36:54Z</time>
      </trkpt>
      <trkpt lat="39.1911890" lon="-1.3972170">
        <ele>677.4</ele>
        <time>2019-05-11T10:36:55Z</time>
      </trkpt>
      <trkpt lat="39.1911960" lon="-1.3971630">
        <ele>677.6</ele>
        <time>2019-05-11T10:36:56Z</time>
      </trkpt>
      <trkpt lat="39.1911980" lon="-1.3971100">
        <ele>677.6</ele>
        <time>2019-05-11T10:36:57Z</time>
      </trkpt>
      <trkpt lat="39.1911910" lon="-1.3970590">
        <ele>677.6</ele>
        <time>2019-05-11T10:36:58Z</time>
      </trkpt>
      <trkpt lat="39.1911850" lon="-1.3970130">
        <ele>677.6</ele>
        <time>2019-05-11T10:36:59Z</time>
      </trkpt>
      <trkpt lat="39.1911870" lon="-1.3969650">
        <ele>677.8</ele>
        <time>2019-05-11T10:37:00Z</time>
      </trkpt>
      <trkpt lat="39.1912000" lon="-1.3969140">
        <ele>677.8</ele>
        <time>2019-05-11T10:37:01Z</time>
      </trkpt>
      <trkpt lat="39.1912230" lon="-1.3968620">
        <ele>677.8</ele>
        <time>2019-05-11T10:37:02Z</time>
      </trkpt>
      <trkpt lat="39.1912490" lon="-1.3968100">
        <ele>677.8</ele>
        <time>2019-05-11T10:37:03Z</time>
      </trkpt>
      <trkpt lat="39.1912720" lon="-1.3967610">
        <ele>677.8</ele>
        <time>2019-05-11T10:37:04Z</time>
      </trkpt>
      <trkpt lat="39.1912890" lon="-1.3967110">
        <ele>677.8</ele>
        <time>2019-05-11T10:37:05Z</time>
      </trkpt>
      <trkpt lat="39.1912960" lon="-1.3966600">
        <ele>677.8</ele>
        <time>2019-05-11T10:37:06Z</time>
      </trkpt>
      <trkpt lat="39.1913000" lon="-1.3966100">
        <ele>677.8</ele>
        <time>2019-05-11T10:37:07Z</time>
      </trkpt>
      <trkpt lat="39.1913030" lon="-1.3965630">
        <ele>677.8</ele>
        <time>2019-05-11T10:37:08Z</time>
      </trkpt>
      <trkpt lat="39.1912990" lon="-1.3965120">
        <ele>677.8</ele>
        <time>2019-05-11T10:37:09Z</time>
      </trkpt>
      <trkpt lat="39.1912950" lon="-1.3964580">
        <ele>677.8</ele>
        <time>2019-05-11T10:37:10Z</time>
      </trkpt>
      <trkpt lat="39.1912920" lon="-1.3964020">
        <ele>677.8</ele>
        <time>2019-05-11T10:37:11Z</time>
      </trkpt>
      <trkpt lat="39.1912780" lon="-1.3963550">
        <ele>677.8</ele>
        <time>2019-05-11T10:37:12Z</time>
      </trkpt>
      <trkpt lat="39.1912570" lon="-1.3963130">
        <ele>678.0</ele>
        <time>2019-05-11T10:37:13Z</time>
      </trkpt>
      <trkpt lat="39.1912280" lon="-1.3962840">
        <ele>678.0</ele>
        <time>2019-05-11T10:37:14Z</time>
      </trkpt>
      <trkpt lat="39.1912040" lon="-1.3962570">
        <ele>678.0</ele>
        <time>2019-05-11T10:37:15Z</time>
      </trkpt>
      <trkpt lat="39.1911830" lon="-1.3962320">
        <ele>678.2</ele>
        <time>2019-05-11T10:37:16Z</time>
      </trkpt>
      <trkpt lat="39.1911660" lon="-1.3962030">
        <ele>678.2</ele>
        <time>2019-05-11T10:37:17Z</time>
      </trkpt>
      <trkpt lat="39.1911490" lon="-1.3961790">
        <ele>678.2</ele>
        <time>2019-05-11T10:37:18Z</time>
      </trkpt>
      <trkpt lat="39.1911310" lon="-1.3961580">
        <ele>678.2</ele>
        <time>2019-05-11T10:37:19Z</time>
      </trkpt>
      <trkpt lat="39.1911130" lon="-1.3961420">
        <ele>678.4</ele>
        <time>2019-05-11T10:37:20Z</time>
      </trkpt>
      <trkpt lat="39.1910920" lon="-1.3961300">
        <ele>678.4</ele>
        <time>2019-05-11T10:37:21Z</time>
      </trkpt>
      <trkpt lat="39.1910720" lon="-1.3961090">
        <ele>678.8</ele>
        <time>2019-05-11T10:37:22Z</time>
      </trkpt>
      <trkpt lat="39.1910520" lon="-1.3960770">
        <ele>679.0</ele>
        <time>2019-05-11T10:37:23Z</time>
      </trkpt>
      <trkpt lat="39.1910330" lon="-1.3960390">
        <ele>679.2</ele>
        <time>2019-05-11T10:37:24Z</time>
      </trkpt>
      <trkpt lat="39.1910200" lon="-1.3959980">
        <ele>679.4</ele>
        <time>2019-05-11T10:37:25Z</time>
      </trkpt>
      <trkpt lat="39.1910060" lon="-1.3959580">
        <ele>679.6</ele>
        <time>2019-05-11T10:37:26Z</time>
      </trkpt>
      <trkpt lat="39.1909840" lon="-1.3959220">
        <ele>679.8</ele>
        <time>2019-05-11T10:37:27Z</time>
      </trkpt>
      <trkpt lat="39.1909560" lon="-1.3958910">
        <ele>680.0</ele>
        <time>2019-05-11T10:37:28Z</time>
      </trkpt>
      <trkpt lat="39.1909280" lon="-1.3958650">
        <ele>680.2</ele>
        <time>2019-05-11T10:37:29Z</time>
      </trkpt>
      <trkpt lat="39.1908980" lon="-1.3958410">
        <ele>680.2</ele>
        <time>2019-05-11T10:37:30Z</time>
      </trkpt>
      <trkpt lat="39.1908670" lon="-1.3958140">
        <ele>680.6</ele>
        <time>2019-05-11T10:37:31Z</time>
      </trkpt>
      <trkpt lat="39.1908340" lon="-1.3957830">
        <ele>680.6</ele>
        <time>2019-05-11T10:37:32Z</time>
      </trkpt>
      <trkpt lat="39.1908020" lon="-1.3957530">
        <ele>680.8</ele>
        <time>2019-05-11T10:37:33Z</time>
      </trkpt>
      <trkpt lat="39.1907710" lon="-1.3957240">
        <ele>680.8</ele>
        <time>2019-05-11T10:37:34Z</time>
      </trkpt>
      <trkpt lat="39.1907380" lon="-1.3957020">
        <ele>680.8</ele>
        <time>2019-05-11T10:37:35Z</time>
      </trkpt>
      <trkpt lat="39.1907050" lon="-1.3956830">
        <ele>680.8</ele>
        <time>2019-05-11T10:37:36Z</time>
      </trkpt>
      <trkpt lat="39.1906690" lon="-1.3956700">
        <ele>680.8</ele>
        <time>2019-05-11T10:37:37Z</time>
      </trkpt>
      <trkpt lat="39.1906300" lon="-1.3956640">
        <ele>680.8</ele>
        <time>2019-05-11T10:37:38Z</time>
      </trkpt>
      <trkpt lat="39.1905920" lon="-1.3956750">
        <ele>680.8</ele>
        <time>2019-05-11T10:37:39Z</time>
      </trkpt>
      <trkpt lat="39.1905610" lon="-1.3956960">
        <ele>680.8</ele>
        <time>2019-05-11T10:37:40Z</time>
      </trkpt>
      <trkpt lat="39.1905280" lon="-1.3957170">
        <ele>680.8</ele>
        <time>2019-05-11T10:37:41Z</time>
      </trkpt>
      <trkpt lat="39.1904890" lon="-1.3957360">
        <ele>680.8</ele>
        <time>2019-05-11T10:37:42Z</time>
      </trkpt>
      <trkpt lat="39.1904480" lon="-1.3957570">
        <ele>680.8</ele>
        <time>2019-05-11T10:37:43Z</time>
      </trkpt>
      <trkpt lat="39.1904040" lon="-1.3957740">
        <ele>680.8</ele>
        <time>2019-05-11T10:37:44Z</time>
      </trkpt>
      <trkpt lat="39.1903570" lon="-1.3957860">
        <ele>680.8</ele>
        <time>2019-05-11T10:37:45Z</time>
      </trkpt>
      <trkpt lat="39.1903060" lon="-1.3958020">
        <ele>680.8</ele>
        <time>2019-05-11T10:37:46Z</time>
      </trkpt>
      <trkpt lat="39.1902550" lon="-1.3958160">
        <ele>680.8</ele>
        <time>2019-05-11T10:37:47Z</time>
      </trkpt>
      <trkpt lat="39.1902050" lon="-1.3958300">
        <ele>680.6</ele>
        <time>2019-05-11T10:37:48Z</time>
      </trkpt>
      <trkpt lat="39.1901570" lon="-1.3958460">
        <ele>680.6</ele>
        <time>2019-05-11T10:37:49Z</time>
      </trkpt>
      <trkpt lat="39.1901120" lon="-1.3958640">
        <ele>680.6</ele>
        <time>2019-05-11T10:37:50Z</time>
      </trkpt>
      <trkpt lat="39.1900610" lon="-1.3958780">
        <ele>680.6</ele>
        <time>2019-05-11T10:37:51Z</time>
      </trkpt>
      <trkpt lat="39.1900150" lon="-1.3958910">
        <ele>680.6</ele>
        <time>2019-05-11T10:37:52Z</time>
      </trkpt>
      <trkpt lat="39.1899750" lon="-1.3959020">
        <ele>680.6</ele>
        <time>2019-05-11T10:37:53Z</time>
      </trkpt>
      <trkpt lat="39.1899360" lon="-1.3959180">
        <ele>680.6</ele>
        <time>2019-05-11T10:37:54Z</time>
      </trkpt>
      <trkpt lat="39.1898990" lon="-1.3959410">
        <ele>680.4</ele>
        <time>2019-05-11T10:37:55Z</time>
      </trkpt>
      <trkpt lat="39.1898660" lon="-1.3959710">
        <ele>680.2</ele>
        <time>2019-05-11T10:37:56Z</time>
      </trkpt>
      <trkpt lat="39.1898320" lon="-1.3959840">
        <ele>680.2</ele>
        <time>2019-05-11T10:37:57Z</time>
      </trkpt>
      <trkpt lat="39.1897990" lon="-1.3959780">
        <ele>680.2</ele>
        <time>2019-05-11T10:37:58Z</time>
      </trkpt>
      <trkpt lat="39.1897660" lon="-1.3959600">
        <ele>680.0</ele>
        <time>2019-05-11T10:37:59Z</time>
      </trkpt>
      <trkpt lat="39.1897410" lon="-1.3959340">
        <ele>679.8</ele>
        <time>2019-05-11T10:38:00Z</time>
      </trkpt>
      <trkpt lat="39.1897210" lon="-1.3959030">
        <ele>679.6</ele>
        <time>2019-05-11T10:38:01Z</time>
      </trkpt>
      <trkpt lat="39.1897020" lon="-1.3958660">
        <ele>679.4</ele>
        <time>2019-05-11T10:38:02Z</time>
      </trkpt>
      <trkpt lat="39.1896840" lon="-1.3958300">
        <ele>679.4</ele>
        <time>2019-05-11T10:38:03Z</time>
      </trkpt>
      <trkpt lat="39.1896660" lon="-1.3957960">
        <ele>679.4</ele>
        <time>2019-05-11T10:38:04Z</time>
      </trkpt>
      <trkpt lat="39.1896450" lon="-1.3957620">
        <ele>679.4</ele>
        <time>2019-05-11T10:38:05Z</time>
      </trkpt>
      <trkpt lat="39.1896180" lon="-1.3957260">
        <ele>679.4</ele>
        <time>2019-05-11T10:38:06Z</time>
      </trkpt>
      <trkpt lat="39.1895890" lon="-1.3956890">
        <ele>679.2</ele>
        <time>2019-05-11T10:38:07Z</time>
      </trkpt>
      <trkpt lat="39.1895580" lon="-1.3956520">
        <ele>679.2</ele>
        <time>2019-05-11T10:38:08Z</time>
      </trkpt>
      <trkpt lat="39.1895270" lon="-1.3956190">
        <ele>679.2</ele>
        <time>2019-05-11T10:38:09Z</time>
      </trkpt>
      <trkpt lat="39.1894940" lon="-1.3955890">
        <ele>679.2</ele>
        <time>2019-05-11T10:38:10Z</time>
      </trkpt>
      <trkpt lat="39.1894620" lon="-1.3955580">
        <ele>679.4</ele>
        <time>2019-05-11T10:38:11Z</time>
      </trkpt>
      <trkpt lat="39.1894300" lon="-1.3955240">
        <ele>679.4</ele>
        <time>2019-05-11T10:38:12Z</time>
      </trkpt>
      <trkpt lat="39.1893960" lon="-1.3954910">
        <ele>679.6</ele>
        <time>2019-05-11T10:38:13Z</time>
      </trkpt>
      <trkpt lat="39.1893610" lon="-1.3954590">
        <ele>679.6</ele>
        <time>2019-05-11T10:38:14Z</time>
      </trkpt>
      <trkpt lat="39.1893250" lon="-1.3954270">
        <ele>679.6</ele>
        <time>2019-05-11T10:38:15Z</time>
      </trkpt>
      <trkpt lat="39.1892920" lon="-1.3953890">
        <ele>679.6</ele>
        <time>2019-05-11T10:38:16Z</time>
      </trkpt>
      <trkpt lat="39.1892620" lon="-1.3953470">
        <ele>679.8</ele>
        <time>2019-05-11T10:38:17Z</time>
      </trkpt>
      <trkpt lat="39.1892300" lon="-1.3953090">
        <ele>679.8</ele>
        <time>2019-05-11T10:38:18Z</time>
      </trkpt>
      <trkpt lat="39.1891950" lon="-1.3952760">
        <ele>679.8</ele>
        <time>2019-05-11T10:38:19Z</time>
      </trkpt>
      <trkpt lat="39.1891600" lon="-1.3952460">
        <ele>679.8</ele>
        <time>2019-05-11T10:38:20Z</time>
      </trkpt>
      <trkpt lat="39.1891290" lon="-1.3952100">
        <ele>679.8</ele>
        <time>2019-05-11T10:38:21Z</time>
      </trkpt>
      <trkpt lat="39.1891100" lon="-1.3951640">
        <ele>679.8</ele>
        <time>2019-05-11T10:38:22Z</time>
      </trkpt>
      <trkpt lat="39.1891090" lon="-1.3951140">
        <ele>680.0</ele>
        <time>2019-05-11T10:38:23Z</time>
      </trkpt>
      <trkpt lat="39.1891250" lon="-1.3950640">
        <ele>680.0</ele>
        <time>2019-05-11T10:38:24Z</time>
      </trkpt>
      <trkpt lat="39.1891490" lon="-1.3950160">
        <ele>680.2</ele>
        <time>2019-05-11T10:38:25Z</time>
      </trkpt>
      <trkpt lat="39.1891790" lon="-1.3949720">
        <ele>680.2</ele>
        <time>2019-05-11T10:38:26Z</time>
      </trkpt>
      <trkpt lat="39.1892150" lon="-1.3949320">
        <ele>680.2</ele>
        <time>2019-05-11T10:38:27Z</time>
      </trkpt>
      <trkpt lat="39.1892550" lon="-1.3948970">
        <ele>680.2</ele>
        <time>2019-05-11T10:38:28Z</time>
      </trkpt>
      <trkpt lat="39.1892980" lon="-1.3948660">
        <ele>680.2</ele>
        <time>2019-05-11T10:38:29Z</time>
      </trkpt>
      <trkpt lat="39.1893440" lon="-1.3948390">
        <ele>680.4</ele>
        <time>2019-05-11T10:38:30Z</time>
      </trkpt>
      <trkpt lat="39.1893890" lon="-1.3948150">
        <ele>680.4</ele>
        <time>2019-05-11T10:38:31Z</time>
      </trkpt>
      <trkpt lat="39.1894320" lon="-1.3947890">
        <ele>680.4</ele>
        <time>2019-05-11T10:38:32Z</time>
      </trkpt>
      <trkpt lat="39.1894740" lon="-1.3947600">
        <ele>680.4</ele>
        <time>2019-05-11T10:38:33Z</time>
      </trkpt>
      <trkpt lat="39.1895160" lon="-1.3947260">
        <ele>680.6</ele>
        <time>2019-05-11T10:38:34Z</time>
      </trkpt>
      <trkpt lat="39.1895580" lon="-1.3946900">
        <ele>680.6</ele>
        <time>2019-05-11T10:38:35Z</time>
      </trkpt>
      <trkpt lat="39.1895960" lon="-1.3946470">
        <ele>680.6</ele>
        <time>2019-05-11T10:38:36Z</time>
      </trkpt>
      <trkpt lat="39.1896290" lon="-1.3945970">
        <ele>680.8</ele>
        <time>2019-05-11T10:38:37Z</time>
      </trkpt>
      <trkpt lat="39.1896590" lon="-1.3945430">
        <ele>680.8</ele>
        <time>2019-05-11T10:38:38Z</time>
      </trkpt>
      <trkpt lat="39.1896870" lon="-1.3944880">
        <ele>680.8</ele>
        <time>2019-05-11T10:38:39Z</time>
      </trkpt>
      <trkpt lat="39.1897140" lon="-1.3944310">
        <ele>680.8</ele>
        <time>2019-05-11T10:38:40Z</time>
      </trkpt>
      <trkpt lat="39.1897400" lon="-1.3943730">
        <ele>680.8</ele>
        <time>2019-05-11T10:38:41Z</time>
      </trkpt>
      <trkpt lat="39.1897630" lon="-1.3943150">
        <ele>681.0</ele>
        <time>2019-05-11T10:38:42Z</time>
      </trkpt>
      <trkpt lat="39.1897840" lon="-1.3942580">
        <ele>681.0</ele>
        <time>2019-05-11T10:38:43Z</time>
      </trkpt>
      <trkpt lat="39.1898000" lon="-1.3942010">
        <ele>681.0</ele>
        <time>2019-05-11T10:38:44Z</time>
      </trkpt>
      <trkpt lat="39.1898120" lon="-1.3941440">
        <ele>681.0</ele>
        <time>2019-05-11T10:38:45Z</time>
      </trkpt>
      <trkpt lat="39.1898210" lon="-1.3940880">
        <ele>681.0</ele>
        <time>2019-05-11T10:38:46Z</time>
      </trkpt>
      <trkpt lat="39.1898310" lon="-1.3940280">
        <ele>681.0</ele>
        <time>2019-05-11T10:38:47Z</time>
      </trkpt>
      <trkpt lat="39.1898450" lon="-1.3939640">
        <ele>681.0</ele>
        <time>2019-05-11T10:38:48Z</time>
      </trkpt>
      <trkpt lat="39.1898620" lon="-1.3938980">
        <ele>681.0</ele>
        <time>2019-05-11T10:38:49Z</time>
      </trkpt>
      <trkpt lat="39.1898870" lon="-1.3938340">
        <ele>681.0</ele>
        <time>2019-05-11T10:38:50Z</time>
      </trkpt>
      <trkpt lat="39.1899130" lon="-1.3937780">
        <ele>681.0</ele>
        <time>2019-05-11T10:38:51Z</time>
      </trkpt>
      <trkpt lat="39.1899410" lon="-1.3937270">
        <ele>681.0</ele>
        <time>2019-05-11T10:38:52Z</time>
      </trkpt>
      <trkpt lat="39.1899740" lon="-1.3936820">
        <ele>681.0</ele>
        <time>2019-05-11T10:38:53Z</time>
      </trkpt>
      <trkpt lat="39.1900080" lon="-1.3936390">
        <ele>680.8</ele>
        <time>2019-05-11T10:38:54Z</time>
      </trkpt>
      <trkpt lat="39.1900410" lon="-1.3936020">
        <ele>680.8</ele>
        <time>2019-05-11T10:38:55Z</time>
      </trkpt>
      <trkpt lat="39.1900780" lon="-1.3935760">
        <ele>680.8</ele>
        <time>2019-05-11T10:38:56Z</time>
      </trkpt>
      <trkpt lat="39.1901160" lon="-1.3935610">
        <ele>680.8</ele>
        <time>2019-05-11T10:38:57Z</time>
      </trkpt>
      <trkpt lat="39.1901540" lon="-1.3935520">
        <ele>680.8</ele>
        <time>2019-05-11T10:38:58Z</time>
      </trkpt>
      <trkpt lat="39.1901860" lon="-1.3935460">
        <ele>680.8</ele>
        <time>2019-05-11T10:38:59Z</time>
      </trkpt>
      <trkpt lat="39.1902210" lon="-1.3935440">
        <ele>680.8</ele>
        <time>2019-05-11T10:39:00Z</time>
      </trkpt>
      <trkpt lat="39.1902530" lon="-1.3935370">
        <ele>680.8</ele>
        <time>2019-05-11T10:39:01Z</time>
      </trkpt>
      <trkpt lat="39.1902820" lon="-1.3935220">
        <ele>680.8</ele>
        <time>2019-05-11T10:39:02Z</time>
      </trkpt>
      <trkpt lat="39.1903150" lon="-1.3935060">
        <ele>680.8</ele>
        <time>2019-05-11T10:39:03Z</time>
      </trkpt>
      <trkpt lat="39.1903520" lon="-1.3934840">
        <ele>680.8</ele>
        <time>2019-05-11T10:39:04Z</time>
      </trkpt>
      <trkpt lat="39.1903880" lon="-1.3934590">
        <ele>680.8</ele>
        <time>2019-05-11T10:39:05Z</time>
      </trkpt>
      <trkpt lat="39.1904250" lon="-1.3934320">
        <ele>680.8</ele>
        <time>2019-05-11T10:39:06Z</time>
      </trkpt>
      <trkpt lat="39.1904620" lon="-1.3934010">
        <ele>680.8</ele>
        <time>2019-05-11T10:39:07Z</time>
      </trkpt>
      <trkpt lat="39.1904990" lon="-1.3933680">
        <ele>680.8</ele>
        <time>2019-05-11T10:39:08Z</time>
      </trkpt>
      <trkpt lat="39.1905380" lon="-1.3933340">
        <ele>680.8</ele>
        <time>2019-05-11T10:39:09Z</time>
      </trkpt>
      <trkpt lat="39.1905760" lon="-1.3933010">
        <ele>680.8</ele>
        <time>2019-05-11T10:39:10Z</time>
      </trkpt>
      <trkpt lat="39.1906090" lon="-1.3932630">
        <ele>681.0</ele>
        <time>2019-05-11T10:39:11Z</time>
      </trkpt>
      <trkpt lat="39.1906440" lon="-1.3932200">
        <ele>681.2</ele>
        <time>2019-05-11T10:39:12Z</time>
      </trkpt>
      <trkpt lat="39.1906790" lon="-1.3931800">
        <ele>681.2</ele>
        <time>2019-05-11T10:39:13Z</time>
      </trkpt>
      <trkpt lat="39.1907100" lon="-1.3931370">
        <ele>681.2</ele>
        <time>2019-05-11T10:39:14Z</time>
      </trkpt>
      <trkpt lat="39.1907370" lon="-1.3930900">
        <ele>681.2</ele>
        <time>2019-05-11T10:39:15Z</time>
      </trkpt>
      <trkpt lat="39.1907630" lon="-1.3930450">
        <ele>681.4</ele>
        <time>2019-05-11T10:39:16Z</time>
      </trkpt>
      <trkpt lat="39.1907860" lon="-1.3929990">
        <ele>681.6</ele>
        <time>2019-05-11T10:39:17Z</time>
      </trkpt>
      <trkpt lat="39.1908090" lon="-1.3929520">
        <ele>681.6</ele>
        <time>2019-05-11T10:39:18Z</time>
      </trkpt>
      <trkpt lat="39.1908330" lon="-1.3929060">
        <ele>681.8</ele>
        <time>2019-05-11T10:39:19Z</time>
      </trkpt>
      <trkpt lat="39.1908560" lon="-1.3928580">
        <ele>682.2</ele>
        <time>2019-05-11T10:39:20Z</time>
      </trkpt>
      <trkpt lat="39.1908780" lon="-1.3928070">
        <ele>682.2</ele>
        <time>2019-05-11T10:39:21Z</time>
      </trkpt>
      <trkpt lat="39.1908960" lon="-1.3927530">
        <ele>682.6</ele>
        <time>2019-05-11T10:39:22Z</time>
      </trkpt>
      <trkpt lat="39.1909090" lon="-1.3926950">
        <ele>683.0</ele>
        <time>2019-05-11T10:39:23Z</time>
      </trkpt>
      <trkpt lat="39.1909180" lon="-1.3926340">
        <ele>683.2</ele>
        <time>2019-05-11T10:39:24Z</time>
      </trkpt>
      <trkpt lat="39.1909250" lon="-1.3925720">
        <ele>683.6</ele>
        <time>2019-05-11T10:39:25Z</time>
      </trkpt>
      <trkpt lat="39.1909290" lon="-1.3925090">
        <ele>683.8</ele>
        <time>2019-05-11T10:39:26Z</time>
      </trkpt>
      <trkpt lat="39.1909340" lon="-1.3924450">
        <ele>683.8</ele>
        <time>2019-05-11T10:39:27Z</time>
      </trkpt>
      <trkpt lat="39.1909430" lon="-1.3923790">
        <ele>683.8</ele>
        <time>2019-05-11T10:39:28Z</time>
      </trkpt>
      <trkpt lat="39.1909580" lon="-1.3923130">
        <ele>683.8</ele>
        <time>2019-05-11T10:39:29Z</time>
      </trkpt>
      <trkpt lat="39.1909700" lon="-1.3922470">
        <ele>683.8</ele>
        <time>2019-05-11T10:39:30Z</time>
      </trkpt>
      <trkpt lat="39.1909790" lon="-1.3921840">
        <ele>683.8</ele>
        <time>2019-05-11T10:39:31Z</time>
      </trkpt>
      <trkpt lat="39.1909880" lon="-1.3921230">
        <ele>683.8</ele>
        <time>2019-05-11T10:39:32Z</time>
      </trkpt>
      <trkpt lat="39.1909970" lon="-1.3920660">
        <ele>683.8</ele>
        <time>2019-05-11T10:39:33Z</time>
      </trkpt>
      <trkpt lat="39.1910060" lon="-1.3920070">
        <ele>683.8</ele>
        <time>2019-05-11T10:39:34Z</time>
      </trkpt>
      <trkpt lat="39.1910160" lon="-1.3919470">
        <ele>683.8</ele>
        <time>2019-05-11T10:39:35Z</time>
      </trkpt>
      <trkpt lat="39.1910230" lon="-1.3918840">
        <ele>683.8</ele>
        <time>2019-05-11T10:39:36Z</time>
      </trkpt>
      <trkpt lat="39.1910240" lon="-1.3918180">
        <ele>683.8</ele>
        <time>2019-05-11T10:39:37Z</time>
      </trkpt>
      <trkpt lat="39.1910160" lon="-1.3917520">
        <ele>683.8</ele>
        <time>2019-05-11T10:39:38Z</time>
      </trkpt>
      <trkpt lat="39.1909970" lon="-1.3916890">
        <ele>683.6</ele>
        <time>2019-05-11T10:39:39Z</time>
      </trkpt>
      <trkpt lat="39.1909750" lon="-1.3916310">
        <ele>683.6</ele>
        <time>2019-05-11T10:39:40Z</time>
      </trkpt>
      <trkpt lat="39.1909530" lon="-1.3915730">
        <ele>683.4</ele>
        <time>2019-05-11T10:39:41Z</time>
      </trkpt>
      <trkpt lat="39.1909290" lon="-1.3915160">
        <ele>683.4</ele>
        <time>2019-05-11T10:39:42Z</time>
      </trkpt>
      <trkpt lat="39.1909050" lon="-1.3914590">
        <ele>683.4</ele>
        <time>2019-05-11T10:39:43Z</time>
      </trkpt>
      <trkpt lat="39.1908820" lon="-1.3914010">
        <ele>683.4</ele>
        <time>2019-05-11T10:39:44Z</time>
      </trkpt>
      <trkpt lat="39.1908580" lon="-1.3913420">
        <ele>683.4</ele>
        <time>2019-05-11T10:39:45Z</time>
      </trkpt>
      <trkpt lat="39.1908250" lon="-1.3912960">
        <ele>683.4</ele>
        <time>2019-05-11T10:39:46Z</time>
      </trkpt>
      <trkpt lat="39.1907850" lon="-1.3912590">
        <ele>683.2</ele>
        <time>2019-05-11T10:39:47Z</time>
      </trkpt>
      <trkpt lat="39.1907410" lon="-1.3912240">
        <ele>683.2</ele>
        <time>2019-05-11T10:39:48Z</time>
      </trkpt>
      <trkpt lat="39.1906950" lon="-1.3911840">
        <ele>683.2</ele>
        <time>2019-05-11T10:39:49Z</time>
      </trkpt>
      <trkpt lat="39.1906520" lon="-1.3911390">
        <ele>683.2</ele>
        <time>2019-05-11T10:39:50Z</time>
      </trkpt>
      <trkpt lat="39.1906140" lon="-1.3910900">
        <ele>683.0</ele>
        <time>2019-05-11T10:39:51Z</time>
      </trkpt>
      <trkpt lat="39.1905820" lon="-1.3910460">
        <ele>683.0</ele>
        <time>2019-05-11T10:39:52Z</time>
      </trkpt>
      <trkpt lat="39.1905560" lon="-1.3910110">
        <ele>683.0</ele>
        <time>2019-05-11T10:39:53Z</time>
      </trkpt>
      <trkpt lat="39.1905350" lon="-1.3909810">
        <ele>682.8</ele>
        <time>2019-05-11T10:39:54Z</time>
      </trkpt>
      <trkpt lat="39.1905130" lon="-1.3909460">
        <ele>682.8</ele>
        <time>2019-05-11T10:39:55Z</time>
      </trkpt>
      <trkpt lat="39.1904960" lon="-1.3909010">
        <ele>682.8</ele>
        <time>2019-05-11T10:39:56Z</time>
      </trkpt>
      <trkpt lat="39.1904840" lon="-1.3908510">
        <ele>682.6</ele>
        <time>2019-05-11T10:39:57Z</time>
      </trkpt>
      <trkpt lat="39.1904650" lon="-1.3908020">
        <ele>682.2</ele>
        <time>2019-05-11T10:39:58Z</time>
      </trkpt>
      <trkpt lat="39.1904410" lon="-1.3907600">
        <ele>681.8</ele>
        <time>2019-05-11T10:39:59Z</time>
      </trkpt>
      <trkpt lat="39.1904230" lon="-1.3907100">
        <ele>681.4</ele>
        <time>2019-05-11T10:40:00Z</time>
      </trkpt>
      <trkpt lat="39.1904110" lon="-1.3906520">
        <ele>681.0</ele>
        <time>2019-05-11T10:40:01Z</time>
      </trkpt>
      <trkpt lat="39.1904020" lon="-1.3905910">
        <ele>680.4</ele>
        <time>2019-05-11T10:40:02Z</time>
      </trkpt>
      <trkpt lat="39.1903940" lon="-1.3905320">
        <ele>680.2</ele>
        <time>2019-05-11T10:40:03Z</time>
      </trkpt>
      <trkpt lat="39.1903850" lon="-1.3904770">
        <ele>680.0</ele>
        <time>2019-05-11T10:40:04Z</time>
      </trkpt>
      <trkpt lat="39.1903730" lon="-1.3904260">
        <ele>679.8</ele>
        <time>2019-05-11T10:40:05Z</time>
      </trkpt>
      <trkpt lat="39.1903600" lon="-1.3903840">
        <ele>679.8</ele>
        <time>2019-05-11T10:40:06Z</time>
      </trkpt>
      <trkpt lat="39.1903530" lon="-1.3903560">
        <ele>679.6</ele>
        <time>2019-05-11T10:40:07Z</time>
      </trkpt>
      <trkpt lat="39.1903530" lon="-1.3903470">
        <ele>679.6</ele>
        <time>2019-05-11T10:40:08Z</time>
      </trkpt>
      <trkpt lat="39.1903550" lon="-1.3903390">
        <ele>679.6</ele>
        <time>2019-05-11T10:40:09Z</time>
      </trkpt>
      <trkpt lat="39.1903580" lon="-1.3903260">
        <ele>679.6</ele>
        <time>2019-05-11T10:40:10Z</time>
      </trkpt>
      <trkpt lat="39.1903630" lon="-1.3903100">
        <ele>679.6</ele>
        <time>2019-05-11T10:40:11Z</time>
      </trkpt>
      <trkpt lat="39.1903730" lon="-1.3902920">
        <ele>679.6</ele>
        <time>2019-05-11T10:40:12Z</time>
      </trkpt>
      <trkpt lat="39.1903860" lon="-1.3902780">
        <ele>679.6</ele>
        <time>2019-05-11T10:40:13Z</time>
      </trkpt>
      <trkpt lat="39.1903980" lon="-1.3902670">
        <ele>679.6</ele>
        <time>2019-05-11T10:40:14Z</time>
      </trkpt>
      <trkpt lat="39.1904150" lon="-1.3902580">
        <ele>679.6</ele>
        <time>2019-05-11T10:40:15Z</time>
      </trkpt>
      <trkpt lat="39.1904330" lon="-1.3902520">
        <ele>679.6</ele>
        <time>2019-05-11T10:40:16Z</time>
      </trkpt>
      <trkpt lat="39.1904490" lon="-1.3902470">
        <ele>679.6</ele>
        <time>2019-05-11T10:40:17Z</time>
      </trkpt>
      <trkpt lat="39.1904630" lon="-1.3902410">
        <ele>679.8</ele>
        <time>2019-05-11T10:40:18Z</time>
      </trkpt>
      <trkpt lat="39.1904810" lon="-1.3902330">
        <ele>680.0</ele>
        <time>2019-05-11T10:40:19Z</time>
      </trkpt>
      <trkpt lat="39.1904990" lon="-1.3902240">
        <ele>680.4</ele>
        <time>2019-05-11T10:40:20Z</time>
      </trkpt>
      <trkpt lat="39.1905200" lon="-1.3902080">
        <ele>680.6</ele>
        <time>2019-05-11T10:40:21Z</time>
      </trkpt>
      <trkpt lat="39.1905440" lon="-1.3901830">
        <ele>680.8</ele>
        <time>2019-05-11T10:40:22Z</time>
      </trkpt>
      <trkpt lat="39.1905710" lon="-1.3901520">
        <ele>681.0</ele>
        <time>2019-05-11T10:40:23Z</time>
      </trkpt>
      <trkpt lat="39.1905990" lon="-1.3901170">
        <ele>681.2</ele>
        <time>2019-05-11T10:40:24Z</time>
      </trkpt>
      <trkpt lat="39.1906290" lon="-1.3900780">
        <ele>681.4</ele>
        <time>2019-05-11T10:40:25Z</time>
      </trkpt>
      <trkpt lat="39.1906580" lon="-1.3900340">
        <ele>681.4</ele>
        <time>2019-05-11T10:40:26Z</time>
      </trkpt>
      <trkpt lat="39.1906840" lon="-1.3899850">
        <ele>681.6</ele>
        <time>2019-05-11T10:40:27Z</time>
      </trkpt>
      <trkpt lat="39.1907090" lon="-1.3899330">
        <ele>681.6</ele>
        <time>2019-05-11T10:40:28Z</time>
      </trkpt>
      <trkpt lat="39.1907310" lon="-1.3898780">
        <ele>681.8</ele>
        <time>2019-05-11T10:40:29Z</time>
      </trkpt>
      <trkpt lat="39.1907500" lon="-1.3898220">
        <ele>681.8</ele>
        <time>2019-05-11T10:40:30Z</time>
      </trkpt>
      <trkpt lat="39.1907700" lon="-1.3897660">
        <ele>681.8</ele>
        <time>2019-05-11T10:40:31Z</time>
      </trkpt>
      <trkpt lat="39.1907910" lon="-1.3897090">
        <ele>681.8</ele>
        <time>2019-05-11T10:40:32Z</time>
      </trkpt>
      <trkpt lat="39.1908130" lon="-1.3896540">
        <ele>682.0</ele>
        <time>2019-05-11T10:40:33Z</time>
      </trkpt>
      <trkpt lat="39.1908360" lon="-1.3896020">
        <ele>682.0</ele>
        <time>2019-05-11T10:40:34Z</time>
      </trkpt>
      <trkpt lat="39.1908590" lon="-1.3895510">
        <ele>682.0</ele>
        <time>2019-05-11T10:40:35Z</time>
      </trkpt>
      <trkpt lat="39.1908840" lon="-1.3895020">
        <ele>682.0</ele>
        <time>2019-05-11T10:40:36Z</time>
      </trkpt>
      <trkpt lat="39.1909110" lon="-1.3894550">
        <ele>682.0</ele>
        <time>2019-05-11T10:40:37Z</time>
      </trkpt>
      <trkpt lat="39.1909370" lon="-1.3894070">
        <ele>682.0</ele>
        <time>2019-05-11T10:40:38Z</time>
      </trkpt>
      <trkpt lat="39.1909630" lon="-1.3893630">
        <ele>682.0</ele>
        <time>2019-05-11T10:40:39Z</time>
      </trkpt>
      <trkpt lat="39.1909900" lon="-1.3893230">
        <ele>682.0</ele>
        <time>2019-05-11T10:40:40Z</time>
      </trkpt>
      <trkpt lat="39.1910160" lon="-1.3892830">
        <ele>682.0</ele>
        <time>2019-05-11T10:40:41Z</time>
      </trkpt>
      <trkpt lat="39.1910430" lon="-1.3892430">
        <ele>682.0</ele>
        <time>2019-05-11T10:40:42Z</time>
      </trkpt>
      <trkpt lat="39.1910700" lon="-1.3892060">
        <ele>682.0</ele>
        <time>2019-05-11T10:40:43Z</time>
      </trkpt>
      <trkpt lat="39.1910980" lon="-1.3891710">
        <ele>682.0</ele>
        <time>2019-05-11T10:40:44Z</time>
      </trkpt>
      <trkpt lat="39.1911260" lon="-1.3891350">
        <ele>682.0</ele>
        <time>2019-05-11T10:40:45Z</time>
      </trkpt>
      <trkpt lat="39.1911550" lon="-1.3891010">
        <ele>682.2</ele>
        <time>2019-05-11T10:40:46Z</time>
      </trkpt>
      <trkpt lat="39.1911840" lon="-1.3890650">
        <ele>682.2</ele>
        <time>2019-05-11T10:40:47Z</time>
      </trkpt>
      <trkpt lat="39.1912140" lon="-1.3890290">
        <ele>682.4</ele>
        <time>2019-05-11T10:40:48Z</time>
      </trkpt>
      <trkpt lat="39.1912480" lon="-1.3889910">
        <ele>682.6</ele>
        <time>2019-05-11T10:40:49Z</time>
      </trkpt>
      <trkpt lat="39.1912840" lon="-1.3889490">
        <ele>683.0</ele>
        <time>2019-05-11T10:40:50Z</time>
      </trkpt>
      <trkpt lat="39.1913210" lon="-1.3889010">
        <ele>683.0</ele>
        <time>2019-05-11T10:40:51Z</time>
      </trkpt>
      <trkpt lat="39.1913560" lon="-1.3888460">
        <ele>683.2</ele>
        <time>2019-05-11T10:40:52Z</time>
      </trkpt>
      <trkpt lat="39.1913890" lon="-1.3887860">
        <ele>683.2</ele>
        <time>2019-05-11T10:40:53Z</time>
      </trkpt>
      <trkpt lat="39.1914200" lon="-1.3887220">
        <ele>683.4</ele>
        <time>2019-05-11T10:40:54Z</time>
      </trkpt>
      <trkpt lat="39.1914500" lon="-1.3886580">
        <ele>683.6</ele>
        <time>2019-05-11T10:40:55Z</time>
      </trkpt>
      <trkpt lat="39.1914770" lon="-1.3885920">
        <ele>683.8</ele>
        <time>2019-05-11T10:40:56Z</time>
      </trkpt>
      <trkpt lat="39.1915010" lon="-1.3885230">
        <ele>684.0</ele>
        <time>2019-05-11T10:40:57Z</time>
      </trkpt>
      <trkpt lat="39.1915190" lon="-1.3884500">
        <ele>684.2</ele>
        <time>2019-05-11T10:40:58Z</time>
      </trkpt>
      <trkpt lat="39.1915290" lon="-1.3883750">
        <ele>684.4</ele>
        <time>2019-05-11T10:40:59Z</time>
      </trkpt>
      <trkpt lat="39.1915370" lon="-1.3882980">
        <ele>685.0</ele>
        <time>2019-05-11T10:41:00Z</time>
      </trkpt>
      <trkpt lat="39.1915410" lon="-1.3882210">
        <ele>685.0</ele>
        <time>2019-05-11T10:41:01Z</time>
      </trkpt>
      <trkpt lat="39.1915390" lon="-1.3881420">
        <ele>685.2</ele>
        <time>2019-05-11T10:41:02Z</time>
      </trkpt>
      <trkpt lat="39.1915330" lon="-1.3880620">
        <ele>685.2</ele>
        <time>2019-05-11T10:41:03Z</time>
      </trkpt>
      <trkpt lat="39.1915240" lon="-1.3879820">
        <ele>685.2</ele>
        <time>2019-05-11T10:41:04Z</time>
      </trkpt>
      <trkpt lat="39.1915100" lon="-1.3879020">
        <ele>685.2</ele>
        <time>2019-05-11T10:41:05Z</time>
      </trkpt>
      <trkpt lat="39.1914870" lon="-1.3878240">
        <ele>685.2</ele>
        <time>2019-05-11T10:41:06Z</time>
      </trkpt>
      <trkpt lat="39.1914520" lon="-1.3877530">
        <ele>685.2</ele>
        <time>2019-05-11T10:41:07Z</time>
      </trkpt>
      <trkpt lat="39.1914170" lon="-1.3876900">
        <ele>685.2</ele>
        <time>2019-05-11T10:41:08Z</time>
      </trkpt>
      <trkpt lat="39.1913950" lon="-1.3876300">
        <ele>685.2</ele>
        <time>2019-05-11T10:41:09Z</time>
      </trkpt>
      <trkpt lat="39.1913950" lon="-1.3875730">
        <ele>685.2</ele>
        <time>2019-05-11T10:41:10Z</time>
      </trkpt>
      <trkpt lat="39.1914120" lon="-1.3875300">
        <ele>685.2</ele>
        <time>2019-05-11T10:41:11Z</time>
      </trkpt>
      <trkpt lat="39.1914460" lon="-1.3875050">
        <ele>685.2</ele>
        <time>2019-05-11T10:41:12Z</time>
      </trkpt>
      <trkpt lat="39.1914830" lon="-1.3874880">
        <ele>685.2</ele>
        <time>2019-05-11T10:41:13Z</time>
      </trkpt>
      <trkpt lat="39.1915220" lon="-1.3874720">
        <ele>685.0</ele>
        <time>2019-05-11T10:41:14Z</time>
      </trkpt>
      <trkpt lat="39.1915600" lon="-1.3874520">
        <ele>684.8</ele>
        <time>2019-05-11T10:41:15Z</time>
      </trkpt>
      <trkpt lat="39.1915990" lon="-1.3874270">
        <ele>684.4</ele>
        <time>2019-05-11T10:41:16Z</time>
      </trkpt>
      <trkpt lat="39.1916380" lon="-1.3873970">
        <ele>684.4</ele>
        <time>2019-05-11T10:41:17Z</time>
      </trkpt>
      <trkpt lat="39.1916750" lon="-1.3873620">
        <ele>684.2</ele>
        <time>2019-05-11T10:41:18Z</time>
      </trkpt>
      <trkpt lat="39.1917100" lon="-1.3873230">
        <ele>684.2</ele>
        <time>2019-05-11T10:41:19Z</time>
      </trkpt>
      <trkpt lat="39.1917460" lon="-1.3872800">
        <ele>684.2</ele>
        <time>2019-05-11T10:41:20Z</time>
      </trkpt>
      <trkpt lat="39.1917830" lon="-1.3872370">
        <ele>684.2</ele>
        <time>2019-05-11T10:41:21Z</time>
      </trkpt>
      <trkpt lat="39.1918210" lon="-1.3871940">
        <ele>684.0</ele>
        <time>2019-05-11T10:41:22Z</time>
      </trkpt>
      <trkpt lat="39.1918590" lon="-1.3871530">
        <ele>684.0</ele>
        <time>2019-05-11T10:41:23Z</time>
      </trkpt>
      <trkpt lat="39.1918990" lon="-1.3871200">
        <ele>684.0</ele>
        <time>2019-05-11T10:41:24Z</time>
      </trkpt>
      <trkpt lat="39.1919370" lon="-1.3870960">
        <ele>684.0</ele>
        <time>2019-05-11T10:41:25Z</time>
      </trkpt>
      <trkpt lat="39.1919780" lon="-1.3870810">
        <ele>684.2</ele>
        <time>2019-05-11T10:41:26Z</time>
      </trkpt>
      <trkpt lat="39.1920190" lon="-1.3870670">
        <ele>684.2</ele>
        <time>2019-05-11T10:41:27Z</time>
      </trkpt>
      <trkpt lat="39.1920580" lon="-1.3870530">
        <ele>684.2</ele>
        <time>2019-05-11T10:41:28Z</time>
      </trkpt>
      <trkpt lat="39.1920980" lon="-1.3870390">
        <ele>684.2</ele>
        <time>2019-05-11T10:41:29Z</time>
      </trkpt>
      <trkpt lat="39.1921400" lon="-1.3870250">
        <ele>684.2</ele>
        <time>2019-05-11T10:41:30Z</time>
      </trkpt>
      <trkpt lat="39.1921820" lon="-1.3870080">
        <ele>684.4</ele>
        <time>2019-05-11T10:41:31Z</time>
      </trkpt>
      <trkpt lat="39.1922250" lon="-1.3869840">
        <ele>684.8</ele>
        <time>2019-05-11T10:41:32Z</time>
      </trkpt>
      <trkpt lat="39.1922650" lon="-1.3869510">
        <ele>685.4</ele>
        <time>2019-05-11T10:41:33Z</time>
      </trkpt>
      <trkpt lat="39.1923000" lon="-1.3869060">
        <ele>686.0</ele>
        <time>2019-05-11T10:41:34Z</time>
      </trkpt>
      <trkpt lat="39.1923290" lon="-1.3868540">
        <ele>686.4</ele>
        <time>2019-05-11T10:41:35Z</time>
      </trkpt>
      <trkpt lat="39.1923570" lon="-1.3867980">
        <ele>686.4</ele>
        <time>2019-05-11T10:41:36Z</time>
      </trkpt>
      <trkpt lat="39.1923870" lon="-1.3867420">
        <ele>686.6</ele>
        <time>2019-05-11T10:41:37Z</time>
      </trkpt>
      <trkpt lat="39.1924170" lon="-1.3866870">
        <ele>686.6</ele>
        <time>2019-05-11T10:41:38Z</time>
      </trkpt>
      <trkpt lat="39.1924490" lon="-1.3866320">
        <ele>686.8</ele>
        <time>2019-05-11T10:41:39Z</time>
      </trkpt>
      <trkpt lat="39.1924830" lon="-1.3865780">
        <ele>686.8</ele>
        <time>2019-05-11T10:41:40Z</time>
      </trkpt>
      <trkpt lat="39.1925140" lon="-1.3865210">
        <ele>686.8</ele>
        <time>2019-05-11T10:41:41Z</time>
      </trkpt>
      <trkpt lat="39.1925380" lon="-1.3864570">
        <ele>686.8</ele>
        <time>2019-05-11T10:41:42Z</time>
      </trkpt>
      <trkpt lat="39.1925580" lon="-1.3863890">
        <ele>686.8</ele>
        <time>2019-05-11T10:41:43Z</time>
      </trkpt>
      <trkpt lat="39.1925780" lon="-1.3863220">
        <ele>686.8</ele>
        <time>2019-05-11T10:41:44Z</time>
      </trkpt>
      <trkpt lat="39.1926010" lon="-1.3862530">
        <ele>686.8</ele>
        <time>2019-05-11T10:41:45Z</time>
      </trkpt>
      <trkpt lat="39.1926260" lon="-1.3861870">
        <ele>686.8</ele>
        <time>2019-05-11T10:41:46Z</time>
      </trkpt>
      <trkpt lat="39.1926510" lon="-1.3861230">
        <ele>687.0</ele>
        <time>2019-05-11T10:41:47Z</time>
      </trkpt>
      <trkpt lat="39.1926760" lon="-1.3860610">
        <ele>687.0</ele>
        <time>2019-05-11T10:41:48Z</time>
      </trkpt>
      <trkpt lat="39.1926990" lon="-1.3859980">
        <ele>687.0</ele>
        <time>2019-05-11T10:41:49Z</time>
      </trkpt>
      <trkpt lat="39.1927190" lon="-1.3859340">
        <ele>687.0</ele>
        <time>2019-05-11T10:41:50Z</time>
      </trkpt>
      <trkpt lat="39.1927320" lon="-1.3858670">
        <ele>687.0</ele>
        <time>2019-05-11T10:41:51Z</time>
      </trkpt>
      <trkpt lat="39.1927370" lon="-1.3857980">
        <ele>687.0</ele>
        <time>2019-05-11T10:41:52Z</time>
      </trkpt>
      <trkpt lat="39.1927260" lon="-1.3857290">
        <ele>687.0</ele>
        <time>2019-05-11T10:41:53Z</time>
      </trkpt>
      <trkpt lat="39.1926950" lon="-1.3856650">
        <ele>687.0</ele>
        <time>2019-05-11T10:41:54Z</time>
      </trkpt>
      <trkpt lat="39.1926500" lon="-1.3856120">
        <ele>687.0</ele>
        <time>2019-05-11T10:41:55Z</time>
      </trkpt>
      <trkpt lat="39.1925960" lon="-1.3855680">
        <ele>687.0</ele>
        <time>2019-05-11T10:41:56Z</time>
      </trkpt>
      <trkpt lat="39.1925450" lon="-1.3855200">
        <ele>687.0</ele>
        <time>2019-05-11T10:41:57Z</time>
      </trkpt>
      <trkpt lat="39.1924960" lon="-1.3854710">
        <ele>687.0</ele>
        <time>2019-05-11T10:41:58Z</time>
      </trkpt>
      <trkpt lat="39.1924580" lon="-1.3854150">
        <ele>687.0</ele>
        <time>2019-05-11T10:41:59Z</time>
      </trkpt>
      <trkpt lat="39.1924270" lon="-1.3853560">
        <ele>686.8</ele>
        <time>2019-05-11T10:42:00Z</time>
      </trkpt>
      <trkpt lat="39.1924070" lon="-1.3852960">
        <ele>686.6</ele>
        <time>2019-05-11T10:42:01Z</time>
      </trkpt>
      <trkpt lat="39.1924030" lon="-1.3852370">
        <ele>686.2</ele>
        <time>2019-05-11T10:42:02Z</time>
      </trkpt>
      <trkpt lat="39.1924170" lon="-1.3851800">
        <ele>686.0</ele>
        <time>2019-05-11T10:42:03Z</time>
      </trkpt>
      <trkpt lat="39.1924370" lon="-1.3851170">
        <ele>686.0</ele>
        <time>2019-05-11T10:42:04Z</time>
      </trkpt>
      <trkpt lat="39.1924610" lon="-1.3850450">
        <ele>685.8</ele>
        <time>2019-05-11T10:42:05Z</time>
      </trkpt>
      <trkpt lat="39.1924760" lon="-1.3849690">
        <ele>685.8</ele>
        <time>2019-05-11T10:42:06Z</time>
      </trkpt>
      <trkpt lat="39.1924870" lon="-1.3848950">
        <ele>685.8</ele>
        <time>2019-05-11T10:42:07Z</time>
      </trkpt>
      <trkpt lat="39.1924950" lon="-1.3848200">
        <ele>685.8</ele>
        <time>2019-05-11T10:42:08Z</time>
      </trkpt>
      <trkpt lat="39.1925000" lon="-1.3847460">
        <ele>685.8</ele>
        <time>2019-05-11T10:42:09Z</time>
      </trkpt>
      <trkpt lat="39.1925000" lon="-1.3846740">
        <ele>685.8</ele>
        <time>2019-05-11T10:42:10Z</time>
      </trkpt>
      <trkpt lat="39.1925000" lon="-1.3846030">
        <ele>685.8</ele>
        <time>2019-05-11T10:42:11Z</time>
      </trkpt>
      <trkpt lat="39.1925010" lon="-1.3845330">
        <ele>685.8</ele>
        <time>2019-05-11T10:42:12Z</time>
      </trkpt>
      <trkpt lat="39.1924990" lon="-1.3844640">
        <ele>686.0</ele>
        <time>2019-05-11T10:42:13Z</time>
      </trkpt>
      <trkpt lat="39.1924930" lon="-1.3843970">
        <ele>686.0</ele>
        <time>2019-05-11T10:42:14Z</time>
      </trkpt>
      <trkpt lat="39.1924870" lon="-1.3843330">
        <ele>686.0</ele>
        <time>2019-05-11T10:42:15Z</time>
      </trkpt>
      <trkpt lat="39.1924760" lon="-1.3842700">
        <ele>686.0</ele>
        <time>2019-05-11T10:42:16Z</time>
      </trkpt>
      <trkpt lat="39.1924590" lon="-1.3842070">
        <ele>686.2</ele>
        <time>2019-05-11T10:42:17Z</time>
      </trkpt>
      <trkpt lat="39.1924390" lon="-1.3841460">
        <ele>686.2</ele>
        <time>2019-05-11T10:42:18Z</time>
      </trkpt>
      <trkpt lat="39.1924180" lon="-1.3840840">
        <ele>686.2</ele>
        <time>2019-05-11T10:42:19Z</time>
      </trkpt>
      <trkpt lat="39.1923950" lon="-1.3840220">
        <ele>686.2</ele>
        <time>2019-05-11T10:42:20Z</time>
      </trkpt>
      <trkpt lat="39.1923700" lon="-1.3839630">
        <ele>686.2</ele>
        <time>2019-05-11T10:42:21Z</time>
      </trkpt>
      <trkpt lat="39.1923430" lon="-1.3839070">
        <ele>686.4</ele>
        <time>2019-05-11T10:42:22Z</time>
      </trkpt>
      <trkpt lat="39.1923150" lon="-1.3838510">
        <ele>686.4</ele>
        <time>2019-05-11T10:42:23Z</time>
      </trkpt>
      <trkpt lat="39.1922830" lon="-1.3837950">
        <ele>686.4</ele>
        <time>2019-05-11T10:42:24Z</time>
      </trkpt>
      <trkpt lat="39.1922490" lon="-1.3837400">
        <ele>686.4</ele>
        <time>2019-05-11T10:42:25Z</time>
      </trkpt>
      <trkpt lat="39.1922130" lon="-1.3836850">
        <ele>686.4</ele>
        <time>2019-05-11T10:42:26Z</time>
      </trkpt>
      <trkpt lat="39.1921750" lon="-1.3836310">
        <ele>686.4</ele>
        <time>2019-05-11T10:42:27Z</time>
      </trkpt>
      <trkpt lat="39.1921350" lon="-1.3835780">
        <ele>686.4</ele>
        <time>2019-05-11T10:42:28Z</time>
      </trkpt>
      <trkpt lat="39.1920930" lon="-1.3835270">
        <ele>686.6</ele>
        <time>2019-05-11T10:42:29Z</time>
      </trkpt>
      <trkpt lat="39.1920490" lon="-1.3834780">
        <ele>686.6</ele>
        <time>2019-05-11T10:42:30Z</time>
      </trkpt>
      <trkpt lat="39.1920040" lon="-1.3834320">
        <ele>686.6</ele>
        <time>2019-05-11T10:42:31Z</time>
      </trkpt>
      <trkpt lat="39.1919590" lon="-1.3833850">
        <ele>686.6</ele>
        <time>2019-05-11T10:42:32Z</time>
      </trkpt>
      <trkpt lat="39.1919130" lon="-1.3833390">
        <ele>686.6</ele>
        <time>2019-05-11T10:42:33Z</time>
      </trkpt>
      <trkpt lat="39.1918670" lon="-1.3832940">
        <ele>686.6</ele>
        <time>2019-05-11T10:42:34Z</time>
      </trkpt>
      <trkpt lat="39.1918220" lon="-1.3832490">
        <ele>686.8</ele>
        <time>2019-05-11T10:42:35Z</time>
      </trkpt>
      <trkpt lat="39.1917770" lon="-1.3832070">
        <ele>686.6</ele>
        <time>2019-05-11T10:42:36Z</time>
      </trkpt>
      <trkpt lat="39.1917280" lon="-1.3831720">
        <ele>686.6</ele>
        <time>2019-05-11T10:42:37Z</time>
      </trkpt>
      <trkpt lat="39.1916770" lon="-1.3831430">
        <ele>686.6</ele>
        <time>2019-05-11T10:42:38Z</time>
      </trkpt>
      <trkpt lat="39.1916250" lon="-1.3831160">
        <ele>686.6</ele>
        <time>2019-05-11T10:42:39Z</time>
      </trkpt>
      <trkpt lat="39.1915690" lon="-1.3830940">
        <ele>686.8</ele>
        <time>2019-05-11T10:42:40Z</time>
      </trkpt>
      <trkpt lat="39.1915110" lon="-1.3830730">
        <ele>686.8</ele>
        <time>2019-05-11T10:42:41Z</time>
      </trkpt>
      <trkpt lat="39.1914530" lon="-1.3830500">
        <ele>686.8</ele>
        <time>2019-05-11T10:42:42Z</time>
      </trkpt>
      <trkpt lat="39.1913970" lon="-1.3830230">
        <ele>686.8</ele>
        <time>2019-05-11T10:42:43Z</time>
      </trkpt>
      <trkpt lat="39.1913410" lon="-1.3829910">
        <ele>686.8</ele>
        <time>2019-05-11T10:42:44Z</time>
      </trkpt>
      <trkpt lat="39.1912860" lon="-1.3829540">
        <ele>686.8</ele>
        <time>2019-05-11T10:42:45Z</time>
      </trkpt>
      <trkpt lat="39.1912340" lon="-1.3829120">
        <ele>686.8</ele>
        <time>2019-05-11T10:42:46Z</time>
      </trkpt>
      <trkpt lat="39.1911840" lon="-1.3828680">
        <ele>686.8</ele>
        <time>2019-05-11T10:42:47Z</time>
      </trkpt>
      <trkpt lat="39.1911350" lon="-1.3828240">
        <ele>686.8</ele>
        <time>2019-05-11T10:42:48Z</time>
      </trkpt>
      <trkpt lat="39.1910840" lon="-1.3827790">
        <ele>686.8</ele>
        <time>2019-05-11T10:42:49Z</time>
      </trkpt>
      <trkpt lat="39.1910340" lon="-1.3827330">
        <ele>686.8</ele>
        <time>2019-05-11T10:42:50Z</time>
      </trkpt>
      <trkpt lat="39.1909840" lon="-1.3826860">
        <ele>686.8</ele>
        <time>2019-05-11T10:42:51Z</time>
      </trkpt>
      <trkpt lat="39.1909320" lon="-1.3826370">
        <ele>686.6</ele>
        <time>2019-05-11T10:42:52Z</time>
      </trkpt>
      <trkpt lat="39.1908790" lon="-1.3825890">
        <ele>686.6</ele>
        <time>2019-05-11T10:42:53Z</time>
      </trkpt>
      <trkpt lat="39.1908290" lon="-1.3825360">
        <ele>686.6</ele>
        <time>2019-05-11T10:42:54Z</time>
      </trkpt>
      <trkpt lat="39.1907860" lon="-1.3824730">
        <ele>686.6</ele>
        <time>2019-05-11T10:42:55Z</time>
      </trkpt>
      <trkpt lat="39.1907500" lon="-1.3824020">
        <ele>686.6</ele>
        <time>2019-05-11T10:42:56Z</time>
      </trkpt>
      <trkpt lat="39.1907180" lon="-1.3823270">
        <ele>686.6</ele>
        <time>2019-05-11T10:42:57Z</time>
      </trkpt>
      <trkpt lat="39.1906860" lon="-1.3822510">
        <ele>686.6</ele>
        <time>2019-05-11T10:42:58Z</time>
      </trkpt>
      <trkpt lat="39.1906520" lon="-1.3821750">
        <ele>686.6</ele>
        <time>2019-05-11T10:42:59Z</time>
      </trkpt>
      <trkpt lat="39.1906180" lon="-1.3821010">
        <ele>686.4</ele>
        <time>2019-05-11T10:43:00Z</time>
      </trkpt>
      <trkpt lat="39.1905830" lon="-1.3820240">
        <ele>686.4</ele>
        <time>2019-05-11T10:43:01Z</time>
      </trkpt>
      <trkpt lat="39.1905440" lon="-1.3819490">
        <ele>686.4</ele>
        <time>2019-05-11T10:43:02Z</time>
      </trkpt>
      <trkpt lat="39.1905080" lon="-1.3818750">
        <ele>686.4</ele>
        <time>2019-05-11T10:43:03Z</time>
      </trkpt>
      <trkpt lat="39.1904760" lon="-1.3817980">
        <ele>686.2</ele>
        <time>2019-05-11T10:43:04Z</time>
      </trkpt>
      <trkpt lat="39.1904460" lon="-1.3817220">
        <ele>686.2</ele>
        <time>2019-05-11T10:43:05Z</time>
      </trkpt>
      <trkpt lat="39.1904170" lon="-1.3816470">
        <ele>686.2</ele>
        <time>2019-05-11T10:43:06Z</time>
      </trkpt>
      <trkpt lat="39.1903910" lon="-1.3815730">
        <ele>686.2</ele>
        <time>2019-05-11T10:43:07Z</time>
      </trkpt>
      <trkpt lat="39.1903650" lon="-1.3814990">
        <ele>686.2</ele>
        <time>2019-05-11T10:43:08Z</time>
      </trkpt>
      <trkpt lat="39.1903390" lon="-1.3814260">
        <ele>686.2</ele>
        <time>2019-05-11T10:43:09Z</time>
      </trkpt>
      <trkpt lat="39.1903130" lon="-1.3813530">
        <ele>686.2</ele>
        <time>2019-05-11T10:43:10Z</time>
      </trkpt>
      <trkpt lat="39.1902860" lon="-1.3812790">
        <ele>686.2</ele>
        <time>2019-05-11T10:43:11Z</time>
      </trkpt>
      <trkpt lat="39.1902600" lon="-1.3812030">
        <ele>686.2</ele>
        <time>2019-05-11T10:43:12Z</time>
      </trkpt>
      <trkpt lat="39.1902330" lon="-1.3811270">
        <ele>686.4</ele>
        <time>2019-05-11T10:43:13Z</time>
      </trkpt>
      <trkpt lat="39.1902060" lon="-1.3810490">
        <ele>686.4</ele>
        <time>2019-05-11T10:43:14Z</time>
      </trkpt>
      <trkpt lat="39.1901800" lon="-1.3809700">
        <ele>686.4</ele>
        <time>2019-05-11T10:43:15Z</time>
      </trkpt>
      <trkpt lat="39.1901600" lon="-1.3808890">
        <ele>686.4</ele>
        <time>2019-05-11T10:43:16Z</time>
      </trkpt>
      <trkpt lat="39.1901440" lon="-1.3808080">
        <ele>686.6</ele>
        <time>2019-05-11T10:43:17Z</time>
      </trkpt>
      <trkpt lat="39.1901330" lon="-1.3807280">
        <ele>686.6</ele>
        <time>2019-05-11T10:43:18Z</time>
      </trkpt>
      <trkpt lat="39.1901290" lon="-1.3806450">
        <ele>686.6</ele>
        <time>2019-05-11T10:43:19Z</time>
      </trkpt>
      <trkpt lat="39.1901310" lon="-1.3805630">
        <ele>686.8</ele>
        <time>2019-05-11T10:43:20Z</time>
      </trkpt>
      <trkpt lat="39.1901410" lon="-1.3804830">
        <ele>686.8</ele>
        <time>2019-05-11T10:43:21Z</time>
      </trkpt>
      <trkpt lat="39.1901590" lon="-1.3804060">
        <ele>686.8</ele>
        <time>2019-05-11T10:43:22Z</time>
      </trkpt>
      <trkpt lat="39.1901880" lon="-1.3803370">
        <ele>686.8</ele>
        <time>2019-05-11T10:43:23Z</time>
      </trkpt>
      <trkpt lat="39.1902300" lon="-1.3802820">
        <ele>687.0</ele>
        <time>2019-05-11T10:43:24Z</time>
      </trkpt>
      <trkpt lat="39.1902830" lon="-1.3802430">
        <ele>687.0</ele>
        <time>2019-05-11T10:43:25Z</time>
      </trkpt>
      <trkpt lat="39.1903400" lon="-1.3802140">
        <ele>687.0</ele>
        <time>2019-05-11T10:43:26Z</time>
      </trkpt>
      <trkpt lat="39.1904000" lon="-1.3801900">
        <ele>687.0</ele>
        <time>2019-05-11T10:43:27Z</time>
      </trkpt>
      <trkpt lat="39.1904610" lon="-1.3801670">
        <ele>687.2</ele>
        <time>2019-05-11T10:43:28Z</time>
      </trkpt>
      <trkpt lat="39.1905220" lon="-1.3801440">
        <ele>687.2</ele>
        <time>2019-05-11T10:43:29Z</time>
      </trkpt>
      <trkpt lat="39.1905800" lon="-1.3801210">
        <ele>687.2</ele>
        <time>2019-05-11T10:43:30Z</time>
      </trkpt>
      <trkpt lat="39.1906380" lon="-1.3801000">
        <ele>687.4</ele>
        <time>2019-05-11T10:43:31Z</time>
      </trkpt>
      <trkpt lat="39.1906930" lon="-1.3800780">
        <ele>687.4</ele>
        <time>2019-05-11T10:43:32Z</time>
      </trkpt>
      <trkpt lat="39.1907460" lon="-1.3800550">
        <ele>687.6</ele>
        <time>2019-05-11T10:43:33Z</time>
      </trkpt>
      <trkpt lat="39.1908000" lon="-1.3800340">
        <ele>687.6</ele>
        <time>2019-05-11T10:43:34Z</time>
      </trkpt>
      <trkpt lat="39.1908540" lon="-1.3800130">
        <ele>687.6</ele>
        <time>2019-05-11T10:43:35Z</time>
      </trkpt>
      <trkpt lat="39.1909080" lon="-1.3799900">
        <ele>687.6</ele>
        <time>2019-05-11T10:43:36Z</time>
      </trkpt>
      <trkpt lat="39.1909620" lon="-1.3799710">
        <ele>687.6</ele>
        <time>2019-05-11T10:43:37Z</time>
      </trkpt>
      <trkpt lat="39.1910180" lon="-1.3799570">
        <ele>687.8</ele>
        <time>2019-05-11T10:43:38Z</time>
      </trkpt>
      <trkpt lat="39.1910720" lon="-1.3799410">
        <ele>687.8</ele>
        <time>2019-05-11T10:43:39Z</time>
      </trkpt>
      <trkpt lat="39.1911240" lon="-1.3799260">
        <ele>687.8</ele>
        <time>2019-05-11T10:43:40Z</time>
      </trkpt>
      <trkpt lat="39.1911750" lon="-1.3799130">
        <ele>687.8</ele>
        <time>2019-05-11T10:43:41Z</time>
      </trkpt>
      <trkpt lat="39.1912230" lon="-1.3799040">
        <ele>687.8</ele>
        <time>2019-05-11T10:43:42Z</time>
      </trkpt>
      <trkpt lat="39.1912730" lon="-1.3798970">
        <ele>687.8</ele>
        <time>2019-05-11T10:43:43Z</time>
      </trkpt>
      <trkpt lat="39.1913240" lon="-1.3798930">
        <ele>688.0</ele>
        <time>2019-05-11T10:43:44Z</time>
      </trkpt>
      <trkpt lat="39.1913770" lon="-1.3798900">
        <ele>688.0</ele>
        <time>2019-05-11T10:43:45Z</time>
      </trkpt>
      <trkpt lat="39.1914300" lon="-1.3798860">
        <ele>688.2</ele>
        <time>2019-05-11T10:43:46Z</time>
      </trkpt>
      <trkpt lat="39.1914840" lon="-1.3798860">
        <ele>688.2</ele>
        <time>2019-05-11T10:43:47Z</time>
      </trkpt>
      <trkpt lat="39.1915370" lon="-1.3798870">
        <ele>688.2</ele>
        <time>2019-05-11T10:43:48Z</time>
      </trkpt>
      <trkpt lat="39.1915910" lon="-1.3798840">
        <ele>688.2</ele>
        <time>2019-05-11T10:43:49Z</time>
      </trkpt>
      <trkpt lat="39.1916430" lon="-1.3798770">
        <ele>688.4</ele>
        <time>2019-05-11T10:43:50Z</time>
      </trkpt>
      <trkpt lat="39.1916950" lon="-1.3798670">
        <ele>688.4</ele>
        <time>2019-05-11T10:43:51Z</time>
      </trkpt>
      <trkpt lat="39.1917440" lon="-1.3798520">
        <ele>688.6</ele>
        <time>2019-05-11T10:43:52Z</time>
      </trkpt>
      <trkpt lat="39.1917920" lon="-1.3798330">
        <ele>688.8</ele>
        <time>2019-05-11T10:43:53Z</time>
      </trkpt>
      <trkpt lat="39.1918400" lon="-1.3798130">
        <ele>689.0</ele>
        <time>2019-05-11T10:43:54Z</time>
      </trkpt>
      <trkpt lat="39.1918870" lon="-1.3797940">
        <ele>689.2</ele>
        <time>2019-05-11T10:43:55Z</time>
      </trkpt>
      <trkpt lat="39.1919350" lon="-1.3797770">
        <ele>689.4</ele>
        <time>2019-05-11T10:43:56Z</time>
      </trkpt>
      <trkpt lat="39.1919870" lon="-1.3797640">
        <ele>689.4</ele>
        <time>2019-05-11T10:43:57Z</time>
      </trkpt>
      <trkpt lat="39.1920360" lon="-1.3797500">
        <ele>689.4</ele>
        <time>2019-05-11T10:43:58Z</time>
      </trkpt>
      <trkpt lat="39.1920820" lon="-1.3797360">
        <ele>689.6</ele>
        <time>2019-05-11T10:43:59Z</time>
      </trkpt>
      <trkpt lat="39.1921260" lon="-1.3797210">
        <ele>689.8</ele>
        <time>2019-05-11T10:44:00Z</time>
      </trkpt>
      <trkpt lat="39.1921700" lon="-1.3797080">
        <ele>690.0</ele>
        <time>2019-05-11T10:44:01Z</time>
      </trkpt>
      <trkpt lat="39.1922090" lon="-1.3796930">
        <ele>690.4</ele>
        <time>2019-05-11T10:44:02Z</time>
      </trkpt>
      <trkpt lat="39.1922440" lon="-1.3796790">
        <ele>690.4</ele>
        <time>2019-05-11T10:44:03Z</time>
      </trkpt>
      <trkpt lat="39.1922740" lon="-1.3796680">
        <ele>690.6</ele>
        <time>2019-05-11T10:44:04Z</time>
      </trkpt>
      <trkpt lat="39.1922950" lon="-1.3796620">
        <ele>690.8</ele>
        <time>2019-05-11T10:44:05Z</time>
      </trkpt>
      <trkpt lat="39.1923160" lon="-1.3796620">
        <ele>690.8</ele>
        <time>2019-05-11T10:44:06Z</time>
      </trkpt>
      <trkpt lat="39.1923380" lon="-1.3796640">
        <ele>690.8</ele>
        <time>2019-05-11T10:44:07Z</time>
      </trkpt>
      <trkpt lat="39.1923580" lon="-1.3796600">
        <ele>690.8</ele>
        <time>2019-05-11T10:44:08Z</time>
      </trkpt>
      <trkpt lat="39.1923780" lon="-1.3796570">
        <ele>690.8</ele>
        <time>2019-05-11T10:44:09Z</time>
      </trkpt>
      <trkpt lat="39.1923970" lon="-1.3796560">
        <ele>690.8</ele>
        <time>2019-05-11T10:44:10Z</time>
      </trkpt>
      <trkpt lat="39.1924180" lon="-1.3796530">
        <ele>690.8</ele>
        <time>2019-05-11T10:44:11Z</time>
      </trkpt>
      <trkpt lat="39.1924390" lon="-1.3796490">
        <ele>690.8</ele>
        <time>2019-05-11T10:44:12Z</time>
      </trkpt>
      <trkpt lat="39.1924600" lon="-1.3796430">
        <ele>690.8</ele>
        <time>2019-05-11T10:44:13Z</time>
      </trkpt>
      <trkpt lat="39.1924830" lon="-1.3796400">
        <ele>691.0</ele>
        <time>2019-05-11T10:44:14Z</time>
      </trkpt>
      <trkpt lat="39.1925080" lon="-1.3796370">
        <ele>691.0</ele>
        <time>2019-05-11T10:44:15Z</time>
      </trkpt>
      <trkpt lat="39.1925360" lon="-1.3796320">
        <ele>691.0</ele>
        <time>2019-05-11T10:44:16Z</time>
      </trkpt>
      <trkpt lat="39.1925620" lon="-1.3796270">
        <ele>691.0</ele>
        <time>2019-05-11T10:44:17Z</time>
      </trkpt>
      <trkpt lat="39.1925900" lon="-1.3796260">
        <ele>691.0</ele>
        <time>2019-05-11T10:44:18Z</time>
      </trkpt>
      <trkpt lat="39.1926180" lon="-1.3796250">
        <ele>691.0</ele>
        <time>2019-05-11T10:44:19Z</time>
      </trkpt>
      <trkpt lat="39.1926500" lon="-1.3796230">
        <ele>691.0</ele>
        <time>2019-05-11T10:44:20Z</time>
      </trkpt>
      <trkpt lat="39.1926820" lon="-1.3796190">
        <ele>691.0</ele>
        <time>2019-05-11T10:44:21Z</time>
      </trkpt>
      <trkpt lat="39.1927150" lon="-1.3796150">
        <ele>691.0</ele>
        <time>2019-05-11T10:44:22Z</time>
      </trkpt>
      <trkpt lat="39.1927490" lon="-1.3796060">
        <ele>691.2</ele>
        <time>2019-05-11T10:44:23Z</time>
      </trkpt>
      <trkpt lat="39.1927730" lon="-1.3795910">
        <ele>691.2</ele>
        <time>2019-05-11T10:44:24Z</time>
      </trkpt>
      <trkpt lat="39.1927970" lon="-1.3795700">
        <ele>691.4</ele>
        <time>2019-05-11T10:44:25Z</time>
      </trkpt>
      <trkpt lat="39.1928190" lon="-1.3795430">
        <ele>691.6</ele>
        <time>2019-05-11T10:44:26Z</time>
      </trkpt>
      <trkpt lat="39.1928400" lon="-1.3795080">
        <ele>692.0</ele>
        <time>2019-05-11T10:44:27Z</time>
      </trkpt>
      <trkpt lat="39.1928640" lon="-1.3794740">
        <ele>692.2</ele>
        <time>2019-05-11T10:44:28Z</time>
      </trkpt>
      <trkpt lat="39.1928880" lon="-1.3794400">
        <ele>692.4</ele>
        <time>2019-05-11T10:44:29Z</time>
      </trkpt>
      <trkpt lat="39.1929110" lon="-1.3794070">
        <ele>692.4</ele>
        <time>2019-05-11T10:44:30Z</time>
      </trkpt>
      <trkpt lat="39.1929330" lon="-1.3793770">
        <ele>692.6</ele>
        <time>2019-05-11T10:44:31Z</time>
      </trkpt>
      <trkpt lat="39.1929560" lon="-1.3793500">
        <ele>693.0</ele>
        <time>2019-05-11T10:44:32Z</time>
      </trkpt>
      <trkpt lat="39.1929770" lon="-1.3793230">
        <ele>693.2</ele>
        <time>2019-05-11T10:44:33Z</time>
      </trkpt>
      <trkpt lat="39.1930010" lon="-1.3792930">
        <ele>693.4</ele>
        <time>2019-05-11T10:44:34Z</time>
      </trkpt>
      <trkpt lat="39.1930240" lon="-1.3792610">
        <ele>693.4</ele>
        <time>2019-05-11T10:44:35Z</time>
      </trkpt>
      <trkpt lat="39.1930500" lon="-1.3792310">
        <ele>693.6</ele>
        <time>2019-05-11T10:44:36Z</time>
      </trkpt>
      <trkpt lat="39.1930770" lon="-1.3792030">
        <ele>693.6</ele>
        <time>2019-05-11T10:44:37Z</time>
      </trkpt>
      <trkpt lat="39.1931040" lon="-1.3791750">
        <ele>693.8</ele>
        <time>2019-05-11T10:44:38Z</time>
      </trkpt>
      <trkpt lat="39.1931330" lon="-1.3791590">
        <ele>694.2</ele>
        <time>2019-05-11T10:44:39Z</time>
      </trkpt>
      <trkpt lat="39.1931670" lon="-1.3791760">
        <ele>694.6</ele>
        <time>2019-05-11T10:44:40Z</time>
      </trkpt>
      <trkpt lat="39.1931980" lon="-1.3791990">
        <ele>695.0</ele>
        <time>2019-05-11T10:44:41Z</time>
      </trkpt>
      <trkpt lat="39.1932280" lon="-1.3792230">
        <ele>695.6</ele>
        <time>2019-05-11T10:44:42Z</time>
      </trkpt>
      <trkpt lat="39.1932580" lon="-1.3792490">
        <ele>696.0</ele>
        <time>2019-05-11T10:44:43Z</time>
      </trkpt>
      <trkpt lat="39.1932930" lon="-1.3792660">
        <ele>696.4</ele>
        <time>2019-05-11T10:44:44Z</time>
      </trkpt>
      <trkpt lat="39.1933280" lon="-1.3792850">
        <ele>696.6</ele>
        <time>2019-05-11T10:44:45Z</time>
      </trkpt>
      <trkpt lat="39.1933630" lon="-1.3793050">
        <ele>696.8</ele>
        <time>2019-05-11T10:44:46Z</time>
      </trkpt>
      <trkpt lat="39.1933980" lon="-1.3793280">
        <ele>696.8</ele>
        <time>2019-05-11T10:44:47Z</time>
      </trkpt>
      <trkpt lat="39.1934340" lon="-1.3793500">
        <ele>697.0</ele>
        <time>2019-05-11T10:44:48Z</time>
      </trkpt>
      <trkpt lat="39.1934710" lon="-1.3793740">
        <ele>697.2</ele>
        <time>2019-05-11T10:44:49Z</time>
      </trkpt>
      <trkpt lat="39.1935080" lon="-1.3794020">
        <ele>697.2</ele>
        <time>2019-05-11T10:44:50Z</time>
      </trkpt>
      <trkpt lat="39.1935460" lon="-1.3794310">
        <ele>697.4</ele>
        <time>2019-05-11T10:44:51Z</time>
      </trkpt>
      <trkpt lat="39.1935850" lon="-1.3794600">
        <ele>697.6</ele>
        <time>2019-05-11T10:44:52Z</time>
      </trkpt>
      <trkpt lat="39.1936220" lon="-1.3794860">
        <ele>697.6</ele>
        <time>2019-05-11T10:44:53Z</time>
      </trkpt>
      <trkpt lat="39.1936590" lon="-1.3795080">
        <ele>697.8</ele>
        <time>2019-05-11T10:44:54Z</time>
      </trkpt>
      <trkpt lat="39.1936930" lon="-1.3795320">
        <ele>698.0</ele>
        <time>2019-05-11T10:44:55Z</time>
      </trkpt>
      <trkpt lat="39.1937300" lon="-1.3795480">
        <ele>698.0</ele>
        <time>2019-05-11T10:44:56Z</time>
      </trkpt>
      <trkpt lat="39.1937680" lon="-1.3795460">
        <ele>698.2</ele>
        <time>2019-05-11T10:44:57Z</time>
      </trkpt>
      <trkpt lat="39.1938060" lon="-1.3795280">
        <ele>698.2</ele>
        <time>2019-05-11T10:44:58Z</time>
      </trkpt>
      <trkpt lat="39.1938410" lon="-1.3794950">
        <ele>698.2</ele>
        <time>2019-05-11T10:44:59Z</time>
      </trkpt>
      <trkpt lat="39.1938750" lon="-1.3794520">
        <ele>698.2</ele>
        <time>2019-05-11T10:45:00Z</time>
      </trkpt>
      <trkpt lat="39.1939080" lon="-1.3794030">
        <ele>698.0</ele>
        <time>2019-05-11T10:45:01Z</time>
      </trkpt>
      <trkpt lat="39.1939410" lon="-1.3793510">
        <ele>698.2</ele>
        <time>2019-05-11T10:45:02Z</time>
      </trkpt>
      <trkpt lat="39.1939750" lon="-1.3793000">
        <ele>698.2</ele>
        <time>2019-05-11T10:45:03Z</time>
      </trkpt>
      <trkpt lat="39.1940110" lon="-1.3792500">
        <ele>698.2</ele>
        <time>2019-05-11T10:45:04Z</time>
      </trkpt>
      <trkpt lat="39.1940500" lon="-1.3792040">
        <ele>698.2</ele>
        <time>2019-05-11T10:45:05Z</time>
      </trkpt>
      <trkpt lat="39.1940910" lon="-1.3791600">
        <ele>698.0</ele>
        <time>2019-05-11T10:45:06Z</time>
      </trkpt>
      <trkpt lat="39.1941350" lon="-1.3791160">
        <ele>698.0</ele>
        <time>2019-05-11T10:45:07Z</time>
      </trkpt>
      <trkpt lat="39.1941780" lon="-1.3790690">
        <ele>698.0</ele>
        <time>2019-05-11T10:45:08Z</time>
      </trkpt>
      <trkpt lat="39.1942240" lon="-1.3790180">
        <ele>698.0</ele>
        <time>2019-05-11T10:45:09Z</time>
      </trkpt>
      <trkpt lat="39.1942730" lon="-1.3789650">
        <ele>698.0</ele>
        <time>2019-05-11T10:45:10Z</time>
      </trkpt>
      <trkpt lat="39.1943240" lon="-1.3789100">
        <ele>698.0</ele>
        <time>2019-05-11T10:45:11Z</time>
      </trkpt>
      <trkpt lat="39.1943760" lon="-1.3788550">
        <ele>697.8</ele>
        <time>2019-05-11T10:45:12Z</time>
      </trkpt>
      <trkpt lat="39.1944300" lon="-1.3787970">
        <ele>697.6</ele>
        <time>2019-05-11T10:45:13Z</time>
      </trkpt>
      <trkpt lat="39.1944860" lon="-1.3787410">
        <ele>697.4</ele>
        <time>2019-05-11T10:45:14Z</time>
      </trkpt>
      <trkpt lat="39.1945400" lon="-1.3786840">
        <ele>697.4</ele>
        <time>2019-05-11T10:45:15Z</time>
      </trkpt>
      <trkpt lat="39.1945940" lon="-1.3786260">
        <ele>697.0</ele>
        <time>2019-05-11T10:45:16Z</time>
      </trkpt>
      <trkpt lat="39.1946470" lon="-1.3785640">
        <ele>696.8</ele>
        <time>2019-05-11T10:45:17Z</time>
      </trkpt>
      <trkpt lat="39.1946990" lon="-1.3784980">
        <ele>696.6</ele>
        <time>2019-05-11T10:45:18Z</time>
      </trkpt>
      <trkpt lat="39.1947500" lon="-1.3784290">
        <ele>696.4</ele>
        <time>2019-05-11T10:45:19Z</time>
      </trkpt>
      <trkpt lat="39.1947970" lon="-1.3783540">
        <ele>696.2</ele>
        <time>2019-05-11T10:45:20Z</time>
      </trkpt>
      <trkpt lat="39.1948440" lon="-1.3782770">
        <ele>696.0</ele>
        <time>2019-05-11T10:45:21Z</time>
      </trkpt>
      <trkpt lat="39.1948860" lon="-1.3781980">
        <ele>695.8</ele>
        <time>2019-05-11T10:45:22Z</time>
      </trkpt>
      <trkpt lat="39.1949180" lon="-1.3781160">
        <ele>695.4</ele>
        <time>2019-05-11T10:45:23Z</time>
      </trkpt>
      <trkpt lat="39.1949300" lon="-1.3780320">
        <ele>695.2</ele>
        <time>2019-05-11T10:45:24Z</time>
      </trkpt>
      <trkpt lat="39.1949180" lon="-1.3779500">
        <ele>695.0</ele>
        <time>2019-05-11T10:45:25Z</time>
      </trkpt>
      <trkpt lat="39.1948930" lon="-1.3778730">
        <ele>694.6</ele>
        <time>2019-05-11T10:45:26Z</time>
      </trkpt>
      <trkpt lat="39.1948650" lon="-1.3777970">
        <ele>694.2</ele>
        <time>2019-05-11T10:45:27Z</time>
      </trkpt>
      <trkpt lat="39.1948360" lon="-1.3777170">
        <ele>693.8</ele>
        <time>2019-05-11T10:45:28Z</time>
      </trkpt>
      <trkpt lat="39.1948060" lon="-1.3776360">
        <ele>693.4</ele>
        <time>2019-05-11T10:45:29Z</time>
      </trkpt>
      <trkpt lat="39.1947740" lon="-1.3775560">
        <ele>692.6</ele>
        <time>2019-05-11T10:45:30Z</time>
      </trkpt>
      <trkpt lat="39.1947390" lon="-1.3774780">
        <ele>692.0</ele>
        <time>2019-05-11T10:45:31Z</time>
      </trkpt>
      <trkpt lat="39.1947040" lon="-1.3774000">
        <ele>691.6</ele>
        <time>2019-05-11T10:45:32Z</time>
      </trkpt>
      <trkpt lat="39.1946680" lon="-1.3773220">
        <ele>691.4</ele>
        <time>2019-05-11T10:45:33Z</time>
      </trkpt>
      <trkpt lat="39.1946260" lon="-1.3772470">
        <ele>691.4</ele>
        <time>2019-05-11T10:45:34Z</time>
      </trkpt>
      <trkpt lat="39.1945830" lon="-1.3771740">
        <ele>691.2</ele>
        <time>2019-05-11T10:45:35Z</time>
      </trkpt>
      <trkpt lat="39.1945410" lon="-1.3771020">
        <ele>691.2</ele>
        <time>2019-05-11T10:45:36Z</time>
      </trkpt>
      <trkpt lat="39.1945030" lon="-1.3770280">
        <ele>691.2</ele>
        <time>2019-05-11T10:45:37Z</time>
      </trkpt>
      <trkpt lat="39.1944680" lon="-1.3769540">
        <ele>691.0</ele>
        <time>2019-05-11T10:45:38Z</time>
      </trkpt>
      <trkpt lat="39.1944320" lon="-1.3768790">
        <ele>690.8</ele>
        <time>2019-05-11T10:45:39Z</time>
      </trkpt>
      <trkpt lat="39.1943960" lon="-1.3768010">
        <ele>690.8</ele>
        <time>2019-05-11T10:45:40Z</time>
      </trkpt>
      <trkpt lat="39.1943610" lon="-1.3767220">
        <ele>690.6</ele>
        <time>2019-05-11T10:45:41Z</time>
      </trkpt>
      <trkpt lat="39.1943280" lon="-1.3766380">
        <ele>690.6</ele>
        <time>2019-05-11T10:45:42Z</time>
      </trkpt>
      <trkpt lat="39.1942890" lon="-1.3765590">
        <ele>690.4</ele>
        <time>2019-05-11T10:45:43Z</time>
      </trkpt>
      <trkpt lat="39.1942540" lon="-1.3764890">
        <ele>690.2</ele>
        <time>2019-05-11T10:45:44Z</time>
      </trkpt>
      <trkpt lat="39.1942350" lon="-1.3764170">
        <ele>690.2</ele>
        <time>2019-05-11T10:45:45Z</time>
      </trkpt>
      <trkpt lat="39.1942230" lon="-1.3763450">
        <ele>690.0</ele>
        <time>2019-05-11T10:45:46Z</time>
      </trkpt>
      <trkpt lat="39.1942100" lon="-1.3762700">
        <ele>690.0</ele>
        <time>2019-05-11T10:45:47Z</time>
      </trkpt>
      <trkpt lat="39.1941960" lon="-1.3761920">
        <ele>689.6</ele>
        <time>2019-05-11T10:45:48Z</time>
      </trkpt>
      <trkpt lat="39.1941830" lon="-1.3761110">
        <ele>689.4</ele>
        <time>2019-05-11T10:45:49Z</time>
      </trkpt>
      <trkpt lat="39.1941700" lon="-1.3760270">
        <ele>689.0</ele>
        <time>2019-05-11T10:45:50Z</time>
      </trkpt>
      <trkpt lat="39.1941520" lon="-1.3759450">
        <ele>688.4</ele>
        <time>2019-05-11T10:45:51Z</time>
      </trkpt>
      <trkpt lat="39.1941320" lon="-1.3758650">
        <ele>687.8</ele>
        <time>2019-05-11T10:45:52Z</time>
      </trkpt>
      <trkpt lat="39.1941050" lon="-1.3757920">
        <ele>687.2</ele>
        <time>2019-05-11T10:45:53Z</time>
      </trkpt>
      <trkpt lat="39.1940770" lon="-1.3757240">
        <ele>687.0</ele>
        <time>2019-05-11T10:45:54Z</time>
      </trkpt>
      <trkpt lat="39.1940560" lon="-1.3756590">
        <ele>686.8</ele>
        <time>2019-05-11T10:45:55Z</time>
      </trkpt>
      <trkpt lat="39.1940450" lon="-1.3755950">
        <ele>686.6</ele>
        <time>2019-05-11T10:45:56Z</time>
      </trkpt>
      <trkpt lat="39.1940320" lon="-1.3755280">
        <ele>686.6</ele>
        <time>2019-05-11T10:45:57Z</time>
      </trkpt>
      <trkpt lat="39.1940160" lon="-1.3754580">
        <ele>686.4</ele>
        <time>2019-05-11T10:45:58Z</time>
      </trkpt>
      <trkpt lat="39.1940060" lon="-1.3753840">
        <ele>686.4</ele>
        <time>2019-05-11T10:45:59Z</time>
      </trkpt>
      <trkpt lat="39.1940030" lon="-1.3753110">
        <ele>686.2</ele>
        <time>2019-05-11T10:46:00Z</time>
      </trkpt>
      <trkpt lat="39.1940040" lon="-1.3752370">
        <ele>686.0</ele>
        <time>2019-05-11T10:46:01Z</time>
      </trkpt>
      <trkpt lat="39.1940000" lon="-1.3751680">
        <ele>685.8</ele>
        <time>2019-05-11T10:46:02Z</time>
      </trkpt>
      <trkpt lat="39.1939970" lon="-1.3751030">
        <ele>685.8</ele>
        <time>2019-05-11T10:46:03Z</time>
      </trkpt>
      <trkpt lat="39.1939920" lon="-1.3750400">
        <ele>685.8</ele>
        <time>2019-05-11T10:46:04Z</time>
      </trkpt>
      <trkpt lat="39.1939820" lon="-1.3749830">
        <ele>685.6</ele>
        <time>2019-05-11T10:46:05Z</time>
      </trkpt>
      <trkpt lat="39.1939790" lon="-1.3749310">
        <ele>685.6</ele>
        <time>2019-05-11T10:46:06Z</time>
      </trkpt>
      <trkpt lat="39.1939860" lon="-1.3748880">
        <ele>685.6</ele>
        <time>2019-05-11T10:46:07Z</time>
      </trkpt>
      <trkpt lat="39.1939960" lon="-1.3748500">
        <ele>685.4</ele>
        <time>2019-05-11T10:46:08Z</time>
      </trkpt>
      <trkpt lat="39.1940080" lon="-1.3748140">
        <ele>685.4</ele>
        <time>2019-05-11T10:46:09Z</time>
      </trkpt>
      <trkpt lat="39.1940160" lon="-1.3747760">
        <ele>685.2</ele>
        <time>2019-05-11T10:46:10Z</time>
      </trkpt>
      <trkpt lat="39.1940210" lon="-1.3747330">
        <ele>685.2</ele>
        <time>2019-05-11T10:46:11Z</time>
      </trkpt>
      <trkpt lat="39.1940250" lon="-1.3746850">
        <ele>685.0</ele>
        <time>2019-05-11T10:46:12Z</time>
      </trkpt>
      <trkpt lat="39.1940230" lon="-1.3746380">
        <ele>684.8</ele>
        <time>2019-05-11T10:46:13Z</time>
      </trkpt>
      <trkpt lat="39.1940210" lon="-1.3745910">
        <ele>684.6</ele>
        <time>2019-05-11T10:46:14Z</time>
      </trkpt>
      <trkpt lat="39.1940160" lon="-1.3745420">
        <ele>684.4</ele>
        <time>2019-05-11T10:46:15Z</time>
      </trkpt>
      <trkpt lat="39.1940040" lon="-1.3744910">
        <ele>684.0</ele>
        <time>2019-05-11T10:46:16Z</time>
      </trkpt>
      <trkpt lat="39.1939900" lon="-1.3744390">
        <ele>683.4</ele>
        <time>2019-05-11T10:46:17Z</time>
      </trkpt>
      <trkpt lat="39.1939750" lon="-1.3743950">
        <ele>683.0</ele>
        <time>2019-05-11T10:46:18Z</time>
      </trkpt>
      <trkpt lat="39.1939610" lon="-1.3743530">
        <ele>682.6</ele>
        <time>2019-05-11T10:46:19Z</time>
      </trkpt>
      <trkpt lat="39.1939500" lon="-1.3743130">
        <ele>682.2</ele>
        <time>2019-05-11T10:46:20Z</time>
      </trkpt>
      <trkpt lat="39.1939440" lon="-1.3742740">
        <ele>681.4</ele>
        <time>2019-05-11T10:46:21Z</time>
      </trkpt>
      <trkpt lat="39.1939430" lon="-1.3742370">
        <ele>681.0</ele>
        <time>2019-05-11T10:46:22Z</time>
      </trkpt>
      <trkpt lat="39.1939450" lon="-1.3741980">
        <ele>680.4</ele>
        <time>2019-05-11T10:46:23Z</time>
      </trkpt>
      <trkpt lat="39.1939420" lon="-1.3741620">
        <ele>680.0</ele>
        <time>2019-05-11T10:46:24Z</time>
      </trkpt>
      <trkpt lat="39.1939390" lon="-1.3741250">
        <ele>679.6</ele>
        <time>2019-05-11T10:46:25Z</time>
      </trkpt>
      <trkpt lat="39.1939380" lon="-1.3740800">
        <ele>679.4</ele>
        <time>2019-05-11T10:46:26Z</time>
      </trkpt>
      <trkpt lat="39.1939280" lon="-1.3740390">
        <ele>678.6</ele>
        <time>2019-05-11T10:46:27Z</time>
      </trkpt>
      <trkpt lat="39.1939160" lon="-1.3740000">
        <ele>678.0</ele>
        <time>2019-05-11T10:46:28Z</time>
      </trkpt>
      <trkpt lat="39.1939090" lon="-1.3739580">
        <ele>677.4</ele>
        <time>2019-05-11T10:46:29Z</time>
      </trkpt>
      <trkpt lat="39.1939030" lon="-1.3739140">
        <ele>677.0</ele>
        <time>2019-05-11T10:46:30Z</time>
      </trkpt>
      <trkpt lat="39.1938970" lon="-1.3738720">
        <ele>676.6</ele>
        <time>2019-05-11T10:46:31Z</time>
      </trkpt>
      <trkpt lat="39.1938920" lon="-1.3738290">
        <ele>676.0</ele>
        <time>2019-05-11T10:46:32Z</time>
      </trkpt>
      <trkpt lat="39.1938820" lon="-1.3737960">
        <ele>675.8</ele>
        <time>2019-05-11T10:46:33Z</time>
      </trkpt>
      <trkpt lat="39.1938720" lon="-1.3737680">
        <ele>675.4</ele>
        <time>2019-05-11T10:46:34Z</time>
      </trkpt>
      <trkpt lat="39.1938650" lon="-1.3737380">
        <ele>675.2</ele>
        <time>2019-05-11T10:46:35Z</time>
      </trkpt>
      <trkpt lat="39.1938600" lon="-1.3737070">
        <ele>674.6</ele>
        <time>2019-05-11T10:46:36Z</time>
      </trkpt>
      <trkpt lat="39.1938600" lon="-1.3736840">
        <ele>674.4</ele>
        <time>2019-05-11T10:46:37Z</time>
      </trkpt>
      <trkpt lat="39.1938710" lon="-1.3736720">
        <ele>673.8</ele>
        <time>2019-05-11T10:46:38Z</time>
      </trkpt>
      <trkpt lat="39.1938830" lon="-1.3736690">
        <ele>673.4</ele>
        <time>2019-05-11T10:46:39Z</time>
      </trkpt>
      <trkpt lat="39.1938890" lon="-1.3736770">
        <ele>672.8</ele>
        <time>2019-05-11T10:46:40Z</time>
      </trkpt>
      <trkpt lat="39.1938880" lon="-1.3736880">
        <ele>672.2</ele>
        <time>2019-05-11T10:46:41Z</time>
      </trkpt>
      <trkpt lat="39.1938880" lon="-1.3736990">
        <ele>671.6</ele>
        <time>2019-05-11T10:46:42Z</time>
      </trkpt>
      <trkpt lat="39.1938910" lon="-1.3737030">
        <ele>671.0</ele>
        <time>2019-05-11T10:46:43Z</time>
      </trkpt>
      <trkpt lat="39.1939010" lon="-1.3737090">
        <ele>670.4</ele>
        <time>2019-05-11T10:46:44Z</time>
      </trkpt>
      <trkpt lat="39.1939220" lon="-1.3737190">
        <ele>670.0</ele>
        <time>2019-05-11T10:46:45Z</time>
      </trkpt>
      <trkpt lat="39.1939350" lon="-1.3737360">
        <ele>669.2</ele>
        <time>2019-05-11T10:46:46Z</time>
      </trkpt>
      <trkpt lat="39.1939470" lon="-1.3737590">
        <ele>669.0</ele>
        <time>2019-05-11T10:46:47Z</time>
      </trkpt>
      <trkpt lat="39.1939600" lon="-1.3737840">
        <ele>668.6</ele>
        <time>2019-05-11T10:46:48Z</time>
      </trkpt>
      <trkpt lat="39.1939700" lon="-1.3738100">
        <ele>668.4</ele>
        <time>2019-05-11T10:46:49Z</time>
      </trkpt>
      <trkpt lat="39.1939800" lon="-1.3738310">
        <ele>668.4</ele>
        <time>2019-05-11T10:46:50Z</time>
      </trkpt>
      <trkpt lat="39.1939870" lon="-1.3738460">
        <ele>668.2</ele>
        <time>2019-05-11T10:46:51Z</time>
      </trkpt>
      <trkpt lat="39.1939920" lon="-1.3738530">
        <ele>668.0</ele>
        <time>2019-05-11T10:46:52Z</time>
      </trkpt>
      <trkpt lat="39.1939980" lon="-1.3738600">
        <ele>667.8</ele>
        <time>2019-05-11T10:46:53Z</time>
      </trkpt>
      <trkpt lat="39.1940040" lon="-1.3738600">
        <ele>667.6</ele>
        <time>2019-05-11T10:46:54Z</time>
      </trkpt>
      <trkpt lat="39.1940070" lon="-1.3738580">
        <ele>667.2</ele>
        <time>2019-05-11T10:46:55Z</time>
      </trkpt>
      <trkpt lat="39.1940100" lon="-1.3738510">
        <ele>666.8</ele>
        <time>2019-05-11T10:46:56Z</time>
      </trkpt>
      <trkpt lat="39.1940160" lon="-1.3738440">
        <ele>666.4</ele>
        <time>2019-05-11T10:46:57Z</time>
      </trkpt>
      <trkpt lat="39.1940160" lon="-1.3738400">
        <ele>666.2</ele>
        <time>2019-05-11T10:46:58Z</time>
      </trkpt>
      <trkpt lat="39.1940100" lon="-1.3738240">
        <ele>666.0</ele>
        <time>2019-05-11T10:46:59Z</time>
      </trkpt>
      <trkpt lat="39.1940050" lon="-1.3738150">
        <ele>665.8</ele>
        <time>2019-05-11T10:47:00Z</time>
      </trkpt>
      <trkpt lat="39.1939990" lon="-1.3738020">
        <ele>665.6</ele>
        <time>2019-05-11T10:47:01Z</time>
      </trkpt>
      <trkpt lat="39.1939960" lon="-1.3737900">
        <ele>665.6</ele>
        <time>2019-05-11T10:47:02Z</time>
      </trkpt>
      <trkpt lat="39.1939880" lon="-1.3737710">
        <ele>665.6</ele>
        <time>2019-05-11T10:47:03Z</time>
      </trkpt>
      <trkpt lat="39.1939810" lon="-1.3737510">
        <ele>665.4</ele>
        <time>2019-05-11T10:47:04Z</time>
      </trkpt>
      <trkpt lat="39.1939730" lon="-1.3737260">
        <ele>665.2</ele>
        <time>2019-05-11T10:47:05Z</time>
      </trkpt>
      <trkpt lat="39.1939650" lon="-1.3737000">
        <ele>665.0</ele>
        <time>2019-05-11T10:47:06Z</time>
      </trkpt>
      <trkpt lat="39.1939560" lon="-1.3736740">
        <ele>664.8</ele>
        <time>2019-05-11T10:47:07Z</time>
      </trkpt>
      <trkpt lat="39.1939560" lon="-1.3736430">
        <ele>664.6</ele>
        <time>2019-05-11T10:47:08Z</time>
      </trkpt>
      <trkpt lat="39.1939620" lon="-1.3736100">
        <ele>664.4</ele>
        <time>2019-05-11T10:47:09Z</time>
      </trkpt>
      <trkpt lat="39.1939640" lon="-1.3735830">
        <ele>664.2</ele>
        <time>2019-05-11T10:47:10Z</time>
      </trkpt>
      <trkpt lat="39.1939670" lon="-1.3735580">
        <ele>664.0</ele>
        <time>2019-05-11T10:47:11Z</time>
      </trkpt>
      <trkpt lat="39.1939730" lon="-1.3735330">
        <ele>663.8</ele>
        <time>2019-05-11T10:47:12Z</time>
      </trkpt>
      <trkpt lat="39.1939820" lon="-1.3735090">
        <ele>663.4</ele>
        <time>2019-05-11T10:47:13Z</time>
      </trkpt>
      <trkpt lat="39.1939920" lon="-1.3734810">
        <ele>663.2</ele>
        <time>2019-05-11T10:47:14Z</time>
      </trkpt>
      <trkpt lat="39.1939930" lon="-1.3734490">
        <ele>662.8</ele>
        <time>2019-05-11T10:47:15Z</time>
      </trkpt>
      <trkpt lat="39.1939890" lon="-1.3734180">
        <ele>662.4</ele>
        <time>2019-05-11T10:47:16Z</time>
      </trkpt>
      <trkpt lat="39.1939870" lon="-1.3733870">
        <ele>661.8</ele>
        <time>2019-05-11T10:47:17Z</time>
      </trkpt>
      <trkpt lat="39.1939840" lon="-1.3733520">
        <ele>661.2</ele>
        <time>2019-05-11T10:47:18Z</time>
      </trkpt>
      <trkpt lat="39.1939810" lon="-1.3733130">
        <ele>660.8</ele>
        <time>2019-05-11T10:47:19Z</time>
      </trkpt>
      <trkpt lat="39.1939810" lon="-1.3732710">
        <ele>660.2</ele>
        <time>2019-05-11T10:47:20Z</time>
      </trkpt>
      <trkpt lat="39.1939820" lon="-1.3732270">
        <ele>659.6</ele>
        <time>2019-05-11T10:47:21Z</time>
      </trkpt>
      <trkpt lat="39.1939820" lon="-1.3731910">
        <ele>659.2</ele>
        <time>2019-05-11T10:47:22Z</time>
      </trkpt>
      <trkpt lat="39.1939840" lon="-1.3731610">
        <ele>658.6</ele>
        <time>2019-05-11T10:47:23Z</time>
      </trkpt>
      <trkpt lat="39.1939910" lon="-1.3731370">
        <ele>658.0</ele>
        <time>2019-05-11T10:47:24Z</time>
      </trkpt>
      <trkpt lat="39.1940060" lon="-1.3731140">
        <ele>657.4</ele>
        <time>2019-05-11T10:47:25Z</time>
      </trkpt>
      <trkpt lat="39.1940120" lon="-1.3730890">
        <ele>657.0</ele>
        <time>2019-05-11T10:47:26Z</time>
      </trkpt>
      <trkpt lat="39.1940180" lon="-1.3730620">
        <ele>656.6</ele>
        <time>2019-05-11T10:47:27Z</time>
      </trkpt>
      <trkpt lat="39.1940240" lon="-1.3730350">
        <ele>656.4</ele>
        <time>2019-05-11T10:47:28Z</time>
      </trkpt>
      <trkpt lat="39.1940320" lon="-1.3730060">
        <ele>656.0</ele>
        <time>2019-05-11T10:47:29Z</time>
      </trkpt>
      <trkpt lat="39.1940420" lon="-1.3729750">
        <ele>655.8</ele>
        <time>2019-05-11T10:47:30Z</time>
      </trkpt>
      <trkpt lat="39.1940530" lon="-1.3729460">
        <ele>655.6</ele>
        <time>2019-05-11T10:47:31Z</time>
      </trkpt>
      <trkpt lat="39.1940620" lon="-1.3729190">
        <ele>655.4</ele>
        <time>2019-05-11T10:47:32Z</time>
      </trkpt>
      <trkpt lat="39.1940700" lon="-1.3728950">
        <ele>654.8</ele>
        <time>2019-05-11T10:47:33Z</time>
      </trkpt>
      <trkpt lat="39.1940830" lon="-1.3728710">
        <ele>654.2</ele>
        <time>2019-05-11T10:47:34Z</time>
      </trkpt>
      <trkpt lat="39.1940970" lon="-1.3728470">
        <ele>653.4</ele>
        <time>2019-05-11T10:47:35Z</time>
      </trkpt>
      <trkpt lat="39.1941120" lon="-1.3728230">
        <ele>653.0</ele>
        <time>2019-05-11T10:47:36Z</time>
      </trkpt>
      <trkpt lat="39.1941240" lon="-1.3727970">
        <ele>652.4</ele>
        <time>2019-05-11T10:47:37Z</time>
      </trkpt>
      <trkpt lat="39.1941400" lon="-1.3727730">
        <ele>651.8</ele>
        <time>2019-05-11T10:47:38Z</time>
      </trkpt>
      <trkpt lat="39.1941510" lon="-1.3727530">
        <ele>651.4</ele>
        <time>2019-05-11T10:47:39Z</time>
      </trkpt>
      <trkpt lat="39.1941550" lon="-1.3727320">
        <ele>650.6</ele>
        <time>2019-05-11T10:47:40Z</time>
      </trkpt>
      <trkpt lat="39.1941590" lon="-1.3727120">
        <ele>650.2</ele>
        <time>2019-05-11T10:47:41Z</time>
      </trkpt>
      <trkpt lat="39.1941680" lon="-1.3727000">
        <ele>649.6</ele>
        <time>2019-05-11T10:47:42Z</time>
      </trkpt>
      <trkpt lat="39.1941780" lon="-1.3727010">
        <ele>649.2</ele>
        <time>2019-05-11T10:47:43Z</time>
      </trkpt>
      <trkpt lat="39.1941830" lon="-1.3727090">
        <ele>648.6</ele>
        <time>2019-05-11T10:47:44Z</time>
      </trkpt>
      <trkpt lat="39.1941820" lon="-1.3727170">
        <ele>648.0</ele>
        <time>2019-05-11T10:47:45Z</time>
      </trkpt>
      <trkpt lat="39.1941780" lon="-1.3727280">
        <ele>647.6</ele>
        <time>2019-05-11T10:47:46Z</time>
      </trkpt>
      <trkpt lat="39.1941730" lon="-1.3727370">
        <ele>647.2</ele>
        <time>2019-05-11T10:47:47Z</time>
      </trkpt>
      <trkpt lat="39.1941710" lon="-1.3727540">
        <ele>646.8</ele>
        <time>2019-05-11T10:47:48Z</time>
      </trkpt>
      <trkpt lat="39.1941660" lon="-1.3727710">
        <ele>646.4</ele>
        <time>2019-05-11T10:47:49Z</time>
      </trkpt>
      <trkpt lat="39.1941600" lon="-1.3727940">
        <ele>646.2</ele>
        <time>2019-05-11T10:47:50Z</time>
      </trkpt>
      <trkpt lat="39.1941540" lon="-1.3728180">
        <ele>645.8</ele>
        <time>2019-05-11T10:47:51Z</time>
      </trkpt>
      <trkpt lat="39.1941490" lon="-1.3728410">
        <ele>645.6</ele>
        <time>2019-05-11T10:47:52Z</time>
      </trkpt>
      <trkpt lat="39.1941490" lon="-1.3728630">
        <ele>645.4</ele>
        <time>2019-05-11T10:47:53Z</time>
      </trkpt>
      <trkpt lat="39.1941500" lon="-1.3728850">
        <ele>645.2</ele>
        <time>2019-05-11T10:47:54Z</time>
      </trkpt>
      <trkpt lat="39.1941550" lon="-1.3729100">
        <ele>645.2</ele>
        <time>2019-05-11T10:47:55Z</time>
      </trkpt>
      <trkpt lat="39.1941600" lon="-1.3729370">
        <ele>644.6</ele>
        <time>2019-05-11T10:47:56Z</time>
      </trkpt>
      <trkpt lat="39.1941600" lon="-1.3729680">
        <ele>644.4</ele>
        <time>2019-05-11T10:47:57Z</time>
      </trkpt>
      <trkpt lat="39.1941590" lon="-1.3730000">
        <ele>644.2</ele>
        <time>2019-05-11T10:47:58Z</time>
      </trkpt>
      <trkpt lat="39.1941540" lon="-1.3730330">
        <ele>643.8</ele>
        <time>2019-05-11T10:47:59Z</time>
      </trkpt>
      <trkpt lat="39.1941460" lon="-1.3730630">
        <ele>643.6</ele>
        <time>2019-05-11T10:48:00Z</time>
      </trkpt>
      <trkpt lat="39.1941410" lon="-1.3730890">
        <ele>643.2</ele>
        <time>2019-05-11T10:48:01Z</time>
      </trkpt>
      <trkpt lat="39.1941370" lon="-1.3731130">
        <ele>642.8</ele>
        <time>2019-05-11T10:48:02Z</time>
      </trkpt>
      <trkpt lat="39.1941320" lon="-1.3731410">
        <ele>642.4</ele>
        <time>2019-05-11T10:48:03Z</time>
      </trkpt>
      <trkpt lat="39.1941340" lon="-1.3731690">
        <ele>642.2</ele>
        <time>2019-05-11T10:48:04Z</time>
      </trkpt>
      <trkpt lat="39.1941420" lon="-1.3731990">
        <ele>642.0</ele>
        <time>2019-05-11T10:48:05Z</time>
      </trkpt>
      <trkpt lat="39.1941510" lon="-1.3732310">
        <ele>641.8</ele>
        <time>2019-05-11T10:48:06Z</time>
      </trkpt>
      <trkpt lat="39.1941540" lon="-1.3732670">
        <ele>641.4</ele>
        <time>2019-05-11T10:48:07Z</time>
      </trkpt>
      <trkpt lat="39.1941560" lon="-1.3733010">
        <ele>641.2</ele>
        <time>2019-05-11T10:48:08Z</time>
      </trkpt>
      <trkpt lat="39.1941610" lon="-1.3733320">
        <ele>641.2</ele>
        <time>2019-05-11T10:48:09Z</time>
      </trkpt>
      <trkpt lat="39.1941650" lon="-1.3733620">
        <ele>641.0</ele>
        <time>2019-05-11T10:48:10Z</time>
      </trkpt>
      <trkpt lat="39.1941680" lon="-1.3733880">
        <ele>640.8</ele>
        <time>2019-05-11T10:48:11Z</time>
      </trkpt>
      <trkpt lat="39.1941740" lon="-1.3734110">
        <ele>640.6</ele>
        <time>2019-05-11T10:48:12Z</time>
      </trkpt>
      <trkpt lat="39.1941830" lon="-1.3734370">
        <ele>640.0</ele>
        <time>2019-05-11T10:48:13Z</time>
      </trkpt>
      <trkpt lat="39.1941920" lon="-1.3734630">
        <ele>639.6</ele>
        <time>2019-05-11T10:48:14Z</time>
      </trkpt>
      <trkpt lat="39.1941990" lon="-1.3734910">
        <ele>639.2</ele>
        <time>2019-05-11T10:48:15Z</time>
      </trkpt>
      <trkpt lat="39.1942090" lon="-1.3735160">
        <ele>638.8</ele>
        <time>2019-05-11T10:48:16Z</time>
      </trkpt>
      <trkpt lat="39.1942190" lon="-1.3735370">
        <ele>638.4</ele>
        <time>2019-05-11T10:48:17Z</time>
      </trkpt>
      <trkpt lat="39.1942280" lon="-1.3735570">
        <ele>638.2</ele>
        <time>2019-05-11T10:48:18Z</time>
      </trkpt>
      <trkpt lat="39.1942360" lon="-1.3735820">
        <ele>638.0</ele>
        <time>2019-05-11T10:48:19Z</time>
      </trkpt>
      <trkpt lat="39.1942480" lon="-1.3736100">
        <ele>637.6</ele>
        <time>2019-05-11T10:48:20Z</time>
      </trkpt>
      <trkpt lat="39.1942670" lon="-1.3736340">
        <ele>637.4</ele>
        <time>2019-05-11T10:48:21Z</time>
      </trkpt>
      <trkpt lat="39.1942840" lon="-1.3736550">
        <ele>637.2</ele>
        <time>2019-05-11T10:48:22Z</time>
      </trkpt>
      <trkpt lat="39.1943040" lon="-1.3736800">
        <ele>636.8</ele>
        <time>2019-05-11T10:48:23Z</time>
      </trkpt>
      <trkpt lat="39.1943240" lon="-1.3737070">
        <ele>636.4</ele>
        <time>2019-05-11T10:48:24Z</time>
      </trkpt>
      <trkpt lat="39.1943410" lon="-1.3737400">
        <ele>636.0</ele>
        <time>2019-05-11T10:48:25Z</time>
      </trkpt>
      <trkpt lat="39.1943550" lon="-1.3737760">
        <ele>635.6</ele>
        <time>2019-05-11T10:48:26Z</time>
      </trkpt>
      <trkpt lat="39.1943760" lon="-1.3738100">
        <ele>635.6</ele>
        <time>2019-05-11T10:48:27Z</time>
      </trkpt>
      <trkpt lat="39.1943940" lon="-1.3738460">
        <ele>635.4</ele>
        <time>2019-05-11T10:48:28Z</time>
      </trkpt>
      <trkpt lat="39.1944060" lon="-1.3738800">
        <ele>635.0</ele>
        <time>2019-05-11T10:48:29Z</time>
      </trkpt>
      <trkpt lat="39.1944160" lon="-1.3739080">
        <ele>634.2</ele>
        <time>2019-05-11T10:48:30Z</time>
      </trkpt>
      <trkpt lat="39.1944280" lon="-1.3739300">
        <ele>634.0</ele>
        <time>2019-05-11T10:48:31Z</time>
      </trkpt>
      <trkpt lat="39.1944430" lon="-1.3739450">
        <ele>633.2</ele>
        <time>2019-05-11T10:48:32Z</time>
      </trkpt>
      <trkpt lat="39.1944630" lon="-1.3739590">
        <ele>632.6</ele>
        <time>2019-05-11T10:48:33Z</time>
      </trkpt>
      <trkpt lat="39.1944800" lon="-1.3739790">
        <ele>632.2</ele>
        <time>2019-05-11T10:48:34Z</time>
      </trkpt>
      <trkpt lat="39.1944960" lon="-1.3739980">
        <ele>631.8</ele>
        <time>2019-05-11T10:48:35Z</time>
      </trkpt>
      <trkpt lat="39.1945170" lon="-1.3740180">
        <ele>631.4</ele>
        <time>2019-05-11T10:48:36Z</time>
      </trkpt>
      <trkpt lat="39.1945420" lon="-1.3740360">
        <ele>630.8</ele>
        <time>2019-05-11T10:48:37Z</time>
      </trkpt>
      <trkpt lat="39.1945610" lon="-1.3740520">
        <ele>630.6</ele>
        <time>2019-05-11T10:48:38Z</time>
      </trkpt>
      <trkpt lat="39.1945800" lon="-1.3740740">
        <ele>630.2</ele>
        <time>2019-05-11T10:48:39Z</time>
      </trkpt>
      <trkpt lat="39.1945970" lon="-1.3740980">
        <ele>630.0</ele>
        <time>2019-05-11T10:48:40Z</time>
      </trkpt>
      <trkpt lat="39.1946120" lon="-1.3741170">
        <ele>629.6</ele>
        <time>2019-05-11T10:48:41Z</time>
      </trkpt>
      <trkpt lat="39.1946290" lon="-1.3741320">
        <ele>629.0</ele>
        <time>2019-05-11T10:48:42Z</time>
      </trkpt>
      <trkpt lat="39.1946500" lon="-1.3741460">
        <ele>628.4</ele>
        <time>2019-05-11T10:48:43Z</time>
      </trkpt>
      <trkpt lat="39.1946720" lon="-1.3741650">
        <ele>627.6</ele>
        <time>2019-05-11T10:48:44Z</time>
      </trkpt>
      <trkpt lat="39.1946900" lon="-1.3741870">
        <ele>627.0</ele>
        <time>2019-05-11T10:48:45Z</time>
      </trkpt>
      <trkpt lat="39.1947130" lon="-1.3742090">
        <ele>626.6</ele>
        <time>2019-05-11T10:48:46Z</time>
      </trkpt>
      <trkpt lat="39.1947340" lon="-1.3742330">
        <ele>626.0</ele>
        <time>2019-05-11T10:48:47Z</time>
      </trkpt>
      <trkpt lat="39.1947530" lon="-1.3742550">
        <ele>625.6</ele>
        <time>2019-05-11T10:48:48Z</time>
      </trkpt>
      <trkpt lat="39.1947710" lon="-1.3742740">
        <ele>625.2</ele>
        <time>2019-05-11T10:48:49Z</time>
      </trkpt>
      <trkpt lat="39.1947810" lon="-1.3742960">
        <ele>624.6</ele>
        <time>2019-05-11T10:48:50Z</time>
      </trkpt>
      <trkpt lat="39.1947900" lon="-1.3743200">
        <ele>624.0</ele>
        <time>2019-05-11T10:48:51Z</time>
      </trkpt>
      <trkpt lat="39.1948070" lon="-1.3743440">
        <ele>623.4</ele>
        <time>2019-05-11T10:48:52Z</time>
      </trkpt>
      <trkpt lat="39.1948260" lon="-1.3743770">
        <ele>623.0</ele>
        <time>2019-05-11T10:48:53Z</time>
      </trkpt>
      <trkpt lat="39.1948370" lon="-1.3744190">
        <ele>622.6</ele>
        <time>2019-05-11T10:48:54Z</time>
      </trkpt>
      <trkpt lat="39.1948450" lon="-1.3744670">
        <ele>622.2</ele>
        <time>2019-05-11T10:48:55Z</time>
      </trkpt>
      <trkpt lat="39.1948500" lon="-1.3745200">
        <ele>621.8</ele>
        <time>2019-05-11T10:48:56Z</time>
      </trkpt>
      <trkpt lat="39.1948510" lon="-1.3745750">
        <ele>621.4</ele>
        <time>2019-05-11T10:48:57Z</time>
      </trkpt>
      <trkpt lat="39.1948560" lon="-1.3746280">
        <ele>621.0</ele>
        <time>2019-05-11T10:48:58Z</time>
      </trkpt>
      <trkpt lat="39.1948690" lon="-1.3746730">
        <ele>620.6</ele>
        <time>2019-05-11T10:48:59Z</time>
      </trkpt>
      <trkpt lat="39.1948920" lon="-1.3747110">
        <ele>620.4</ele>
        <time>2019-05-11T10:49:00Z</time>
      </trkpt>
      <trkpt lat="39.1949180" lon="-1.3747430">
        <ele>620.2</ele>
        <time>2019-05-11T10:49:01Z</time>
      </trkpt>
      <trkpt lat="39.1949400" lon="-1.3747750">
        <ele>619.8</ele>
        <time>2019-05-11T10:49:02Z</time>
      </trkpt>
      <trkpt lat="39.1949590" lon="-1.3748070">
        <ele>619.4</ele>
        <time>2019-05-11T10:49:03Z</time>
      </trkpt>
      <trkpt lat="39.1949750" lon="-1.3748320">
        <ele>619.2</ele>
        <time>2019-05-11T10:49:04Z</time>
      </trkpt>
      <trkpt lat="39.1949830" lon="-1.3748560">
        <ele>618.6</ele>
        <time>2019-05-11T10:49:05Z</time>
      </trkpt>
      <trkpt lat="39.1949890" lon="-1.3748770">
        <ele>618.2</ele>
        <time>2019-05-11T10:49:06Z</time>
      </trkpt>
      <trkpt lat="39.1950010" lon="-1.3748940">
        <ele>617.6</ele>
        <time>2019-05-11T10:49:07Z</time>
      </trkpt>
      <trkpt lat="39.1950210" lon="-1.3749110">
        <ele>617.0</ele>
        <time>2019-05-11T10:49:08Z</time>
      </trkpt>
      <trkpt lat="39.1950360" lon="-1.3749310">
        <ele>616.4</ele>
        <time>2019-05-11T10:49:09Z</time>
      </trkpt>
      <trkpt lat="39.1950460" lon="-1.3749540">
        <ele>615.8</ele>
        <time>2019-05-11T10:49:10Z</time>
      </trkpt>
      <trkpt lat="39.1950450" lon="-1.3749860">
        <ele>615.4</ele>
        <time>2019-05-11T10:49:11Z</time>
      </trkpt>
      <trkpt lat="39.1950440" lon="-1.3750250">
        <ele>614.8</ele>
        <time>2019-05-11T10:49:12Z</time>
      </trkpt>
      <trkpt lat="39.1950480" lon="-1.3750640">
        <ele>614.4</ele>
        <time>2019-05-11T10:49:13Z</time>
      </trkpt>
      <trkpt lat="39.1950540" lon="-1.3750970">
        <ele>613.6</ele>
        <time>2019-05-11T10:49:14Z</time>
      </trkpt>
      <trkpt lat="39.1950650" lon="-1.3751310">
        <ele>613.2</ele>
        <time>2019-05-11T10:49:15Z</time>
      </trkpt>
      <trkpt lat="39.1950820" lon="-1.3751690">
        <ele>612.4</ele>
        <time>2019-05-11T10:49:16Z</time>
      </trkpt>
      <trkpt lat="39.1951050" lon="-1.3752090">
        <ele>611.8</ele>
        <time>2019-05-11T10:49:17Z</time>
      </trkpt>
      <trkpt lat="39.1951340" lon="-1.3752500">
        <ele>611.4</ele>
        <time>2019-05-11T10:49:18Z</time>
      </trkpt>
      <trkpt lat="39.1951600" lon="-1.3752880">
        <ele>610.8</ele>
        <time>2019-05-11T10:49:19Z</time>
      </trkpt>
      <trkpt lat="39.1951840" lon="-1.3753200">
        <ele>610.6</ele>
        <time>2019-05-11T10:49:20Z</time>
      </trkpt>
      <trkpt lat="39.1952080" lon="-1.3753470">
        <ele>610.0</ele>
        <time>2019-05-11T10:49:21Z</time>
      </trkpt>
      <trkpt lat="39.1952270" lon="-1.3753760">
        <ele>609.4</ele>
        <time>2019-05-11T10:49:22Z</time>
      </trkpt>
      <trkpt lat="39.1952430" lon="-1.3754080">
        <ele>609.0</ele>
        <time>2019-05-11T10:49:23Z</time>
      </trkpt>
      <trkpt lat="39.1952500" lon="-1.3754420">
        <ele>608.6</ele>
        <time>2019-05-11T10:49:24Z</time>
      </trkpt>
      <trkpt lat="39.1952600" lon="-1.3754720">
        <ele>608.2</ele>
        <time>2019-05-11T10:49:25Z</time>
      </trkpt>
      <trkpt lat="39.1952750" lon="-1.3754990">
        <ele>607.6</ele>
        <time>2019-05-11T10:49:26Z</time>
      </trkpt>
      <trkpt lat="39.1952860" lon="-1.3755290">
        <ele>607.2</ele>
        <time>2019-05-11T10:49:27Z</time>
      </trkpt>
      <trkpt lat="39.1953000" lon="-1.3755600">
        <ele>606.8</ele>
        <time>2019-05-11T10:49:28Z</time>
      </trkpt>
      <trkpt lat="39.1953150" lon="-1.3755900">
        <ele>606.2</ele>
        <time>2019-05-11T10:49:29Z</time>
      </trkpt>
      <trkpt lat="39.1953300" lon="-1.3756170">
        <ele>605.8</ele>
        <time>2019-05-11T10:49:30Z</time>
      </trkpt>
      <trkpt lat="39.1953400" lon="-1.3756410">
        <ele>605.4</ele>
        <time>2019-05-11T10:49:31Z</time>
      </trkpt>
      <trkpt lat="39.1953530" lon="-1.3756710">
        <ele>605.0</ele>
        <time>2019-05-11T10:49:32Z</time>
      </trkpt>
      <trkpt lat="39.1953630" lon="-1.3757020">
        <ele>604.8</ele>
        <time>2019-05-11T10:49:33Z</time>
      </trkpt>
      <trkpt lat="39.1953730" lon="-1.3757310">
        <ele>604.4</ele>
        <time>2019-05-11T10:49:34Z</time>
      </trkpt>
      <trkpt lat="39.1953800" lon="-1.3757620">
        <ele>604.2</ele>
        <time>2019-05-11T10:49:35Z</time>
      </trkpt>
      <trkpt lat="39.1953870" lon="-1.3757960">
        <ele>603.8</ele>
        <time>2019-05-11T10:49:36Z</time>
      </trkpt>
      <trkpt lat="39.1953910" lon="-1.3758320">
        <ele>603.4</ele>
        <time>2019-05-11T10:49:37Z</time>
      </trkpt>
      <trkpt lat="39.1954000" lon="-1.3758650">
        <ele>602.8</ele>
        <time>2019-05-11T10:49:38Z</time>
      </trkpt>
      <trkpt lat="39.1954190" lon="-1.3758950">
        <ele>601.8</ele>
        <time>2019-05-11T10:49:39Z</time>
      </trkpt>
      <trkpt lat="39.1954430" lon="-1.3759160">
        <ele>601.2</ele>
        <time>2019-05-11T10:49:40Z</time>
      </trkpt>
      <trkpt lat="39.1954680" lon="-1.3759300">
        <ele>600.8</ele>
        <time>2019-05-11T10:49:41Z</time>
      </trkpt>
      <trkpt lat="39.1954930" lon="-1.3759510">
        <ele>600.4</ele>
        <time>2019-05-11T10:49:42Z</time>
      </trkpt>
      <trkpt lat="39.1955190" lon="-1.3759830">
        <ele>599.8</ele>
        <time>2019-05-11T10:49:43Z</time>
      </trkpt>
      <trkpt lat="39.1955480" lon="-1.3760190">
        <ele>599.6</ele>
        <time>2019-05-11T10:49:44Z</time>
      </trkpt>
      <trkpt lat="39.1955840" lon="-1.3760560">
        <ele>599.2</ele>
        <time>2019-05-11T10:49:45Z</time>
      </trkpt>
      <trkpt lat="39.1956220" lon="-1.3760950">
        <ele>598.6</ele>
        <time>2019-05-11T10:49:46Z</time>
      </trkpt>
      <trkpt lat="39.1956600" lon="-1.3761340">
        <ele>598.2</ele>
        <time>2019-05-11T10:49:47Z</time>
      </trkpt>
      <trkpt lat="39.1957020" lon="-1.3761680">
        <ele>597.8</ele>
        <time>2019-05-11T10:49:48Z</time>
      </trkpt>
      <trkpt lat="39.1957410" lon="-1.3761990">
        <ele>597.6</ele>
        <time>2019-05-11T10:49:49Z</time>
      </trkpt>
      <trkpt lat="39.1957730" lon="-1.3762260">
        <ele>597.4</ele>
        <time>2019-05-11T10:49:50Z</time>
      </trkpt>
      <trkpt lat="39.1957980" lon="-1.3762540">
        <ele>597.2</ele>
        <time>2019-05-11T10:49:51Z</time>
      </trkpt>
      <trkpt lat="39.1958200" lon="-1.3762790">
        <ele>597.2</ele>
        <time>2019-05-11T10:49:52Z</time>
      </trkpt>
      <trkpt lat="39.1958390" lon="-1.3763110">
        <ele>597.0</ele>
        <time>2019-05-11T10:49:53Z</time>
      </trkpt>
      <trkpt lat="39.1958570" lon="-1.3763500">
        <ele>596.6</ele>
        <time>2019-05-11T10:49:54Z</time>
      </trkpt>
      <trkpt lat="39.1958740" lon="-1.3763950">
        <ele>596.4</ele>
        <time>2019-05-11T10:49:55Z</time>
      </trkpt>
      <trkpt lat="39.1958950" lon="-1.3764430">
        <ele>596.0</ele>
        <time>2019-05-11T10:49:56Z</time>
      </trkpt>
      <trkpt lat="39.1959170" lon="-1.3764930">
        <ele>595.6</ele>
        <time>2019-05-11T10:49:57Z</time>
      </trkpt>
      <trkpt lat="39.1959450" lon="-1.3765440">
        <ele>595.2</ele>
        <time>2019-05-11T10:49:58Z</time>
      </trkpt>
      <trkpt lat="39.1959740" lon="-1.3765930">
        <ele>594.8</ele>
        <time>2019-05-11T10:49:59Z</time>
      </trkpt>
      <trkpt lat="39.1960060" lon="-1.3766450">
        <ele>594.2</ele>
        <time>2019-05-11T10:50:00Z</time>
      </trkpt>
      <trkpt lat="39.1960480" lon="-1.3766950">
        <ele>593.8</ele>
        <time>2019-05-11T10:50:01Z</time>
      </trkpt>
      <trkpt lat="39.1960950" lon="-1.3767420">
        <ele>593.6</ele>
        <time>2019-05-11T10:50:02Z</time>
      </trkpt>
      <trkpt lat="39.1961410" lon="-1.3767800">
        <ele>593.4</ele>
        <time>2019-05-11T10:50:03Z</time>
      </trkpt>
      <trkpt lat="39.1961890" lon="-1.3768110">
        <ele>593.0</ele>
        <time>2019-05-11T10:50:04Z</time>
      </trkpt>
      <trkpt lat="39.1962370" lon="-1.3768390">
        <ele>592.8</ele>
        <time>2019-05-11T10:50:05Z</time>
      </trkpt>
      <trkpt lat="39.1962870" lon="-1.3768600">
        <ele>592.6</ele>
        <time>2019-05-11T10:50:06Z</time>
      </trkpt>
      <trkpt lat="39.1963380" lon="-1.3768670">
        <ele>592.4</ele>
        <time>2019-05-11T10:50:07Z</time>
      </trkpt>
      <trkpt lat="39.1963890" lon="-1.3768740">
        <ele>592.2</ele>
        <time>2019-05-11T10:50:08Z</time>
      </trkpt>
      <trkpt lat="39.1964290" lon="-1.3768860">
        <ele>592.2</ele>
        <time>2019-05-11T10:50:09Z</time>
      </trkpt>
      <trkpt lat="39.1964600" lon="-1.3768970">
        <ele>592.0</ele>
        <time>2019-05-11T10:50:10Z</time>
      </trkpt>
      <trkpt lat="39.1964860" lon="-1.3769030">
        <ele>591.4</ele>
        <time>2019-05-11T10:50:11Z</time>
      </trkpt>
      <trkpt lat="39.1965090" lon="-1.3768900">
        <ele>591.0</ele>
        <time>2019-05-11T10:50:12Z</time>
      </trkpt>
      <trkpt lat="39.1965190" lon="-1.3768670">
        <ele>590.6</ele>
        <time>2019-05-11T10:50:13Z</time>
      </trkpt>
      <trkpt lat="39.1965170" lon="-1.3768490">
        <ele>590.4</ele>
        <time>2019-05-11T10:50:14Z</time>
      </trkpt>
      <trkpt lat="39.1965030" lon="-1.3768340">
        <ele>589.8</ele>
        <time>2019-05-11T10:50:15Z</time>
      </trkpt>
      <trkpt lat="39.1964820" lon="-1.3768190">
        <ele>589.2</ele>
        <time>2019-05-11T10:50:16Z</time>
      </trkpt>
      <trkpt lat="39.1964490" lon="-1.3768040">
        <ele>588.8</ele>
        <time>2019-05-11T10:50:17Z</time>
      </trkpt>
      <trkpt lat="39.1964110" lon="-1.3767890">
        <ele>588.2</ele>
        <time>2019-05-11T10:50:18Z</time>
      </trkpt>
      <trkpt lat="39.1963690" lon="-1.3767700">
        <ele>587.8</ele>
        <time>2019-05-11T10:50:19Z</time>
      </trkpt>
      <trkpt lat="39.1963250" lon="-1.3767440">
        <ele>587.6</ele>
        <time>2019-05-11T10:50:20Z</time>
      </trkpt>
      <trkpt lat="39.1962790" lon="-1.3767100">
        <ele>587.2</ele>
        <time>2019-05-11T10:50:21Z</time>
      </trkpt>
      <trkpt lat="39.1962390" lon="-1.3766660">
        <ele>587.0</ele>
        <time>2019-05-11T10:50:22Z</time>
      </trkpt>
      <trkpt lat="39.1962000" lon="-1.3766140">
        <ele>586.8</ele>
        <time>2019-05-11T10:50:23Z</time>
      </trkpt>
      <trkpt lat="39.1961630" lon="-1.3765640">
        <ele>586.6</ele>
        <time>2019-05-11T10:50:24Z</time>
      </trkpt>
      <trkpt lat="39.1961380" lon="-1.3765120">
        <ele>586.4</ele>
        <time>2019-05-11T10:50:25Z</time>
      </trkpt>
      <trkpt lat="39.1961150" lon="-1.3764600">
        <ele>586.2</ele>
        <time>2019-05-11T10:50:26Z</time>
      </trkpt>
      <trkpt lat="39.1960910" lon="-1.3764070">
        <ele>586.0</ele>
        <time>2019-05-11T10:50:27Z</time>
      </trkpt>
      <trkpt lat="39.1960720" lon="-1.3763550">
        <ele>586.0</ele>
        <time>2019-05-11T10:50:28Z</time>
      </trkpt>
      <trkpt lat="39.1960550" lon="-1.3763000">
        <ele>585.8</ele>
        <time>2019-05-11T10:50:29Z</time>
      </trkpt>
      <trkpt lat="39.1960440" lon="-1.3762420">
        <ele>585.6</ele>
        <time>2019-05-11T10:50:30Z</time>
      </trkpt>
      <trkpt lat="39.1960350" lon="-1.3761820">
        <ele>585.4</ele>
        <time>2019-05-11T10:50:31Z</time>
      </trkpt>
      <trkpt lat="39.1960260" lon="-1.3761350">
        <ele>585.0</ele>
        <time>2019-05-11T10:50:32Z</time>
      </trkpt>
      <trkpt lat="39.1960100" lon="-1.3761000">
        <ele>584.4</ele>
        <time>2019-05-11T10:50:33Z</time>
      </trkpt>
      <trkpt lat="39.1959960" lon="-1.3760730">
        <ele>584.0</ele>
        <time>2019-05-11T10:50:34Z</time>
      </trkpt>
      <trkpt lat="39.1959820" lon="-1.3760470">
        <ele>583.6</ele>
        <time>2019-05-11T10:50:35Z</time>
      </trkpt>
      <trkpt lat="39.1959640" lon="-1.3760180">
        <ele>583.4</ele>
        <time>2019-05-11T10:50:36Z</time>
      </trkpt>
      <trkpt lat="39.1959370" lon="-1.3759970">
        <ele>583.2</ele>
        <time>2019-05-11T10:50:37Z</time>
      </trkpt>
      <trkpt lat="39.1959110" lon="-1.3759700">
        <ele>583.0</ele>
        <time>2019-05-11T10:50:38Z</time>
      </trkpt>
      <trkpt lat="39.1958890" lon="-1.3759300">
        <ele>582.8</ele>
        <time>2019-05-11T10:50:39Z</time>
      </trkpt>
      <trkpt lat="39.1958620" lon="-1.3758930">
        <ele>582.0</ele>
        <time>2019-05-11T10:50:40Z</time>
      </trkpt>
      <trkpt lat="39.1958370" lon="-1.3758580">
        <ele>581.6</ele>
        <time>2019-05-11T10:50:41Z</time>
      </trkpt>
      <trkpt lat="39.1958180" lon="-1.3758310">
        <ele>581.2</ele>
        <time>2019-05-11T10:50:42Z</time>
      </trkpt>
      <trkpt lat="39.1958120" lon="-1.3758070">
        <ele>581.0</ele>
        <time>2019-05-11T10:50:43Z</time>
      </trkpt>
      <trkpt lat="39.1958150" lon="-1.3757880">
        <ele>580.8</ele>
        <time>2019-05-11T10:50:44Z</time>
      </trkpt>
      <trkpt lat="39.1958280" lon="-1.3757880">
        <ele>580.6</ele>
        <time>2019-05-11T10:50:45Z</time>
      </trkpt>
      <trkpt lat="39.1958430" lon="-1.3757970">
        <ele>580.4</ele>
        <time>2019-05-11T10:50:46Z</time>
      </trkpt>
      <trkpt lat="39.1958590" lon="-1.3758150">
        <ele>580.2</ele>
        <time>2019-05-11T10:50:47Z</time>
      </trkpt>
      <trkpt lat="39.1958740" lon="-1.3758330">
        <ele>580.0</ele>
        <time>2019-05-11T10:50:48Z</time>
      </trkpt>
      <trkpt lat="39.1958980" lon="-1.3758490">
        <ele>579.8</ele>
        <time>2019-05-11T10:50:49Z</time>
      </trkpt>
      <trkpt lat="39.1959200" lon="-1.3758620">
        <ele>579.0</ele>
        <time>2019-05-11T10:50:50Z</time>
      </trkpt>
      <trkpt lat="39.1959460" lon="-1.3758730">
        <ele>578.4</ele>
        <time>2019-05-11T10:50:51Z</time>
      </trkpt>
      <trkpt lat="39.1959700" lon="-1.3758850">
        <ele>578.2</ele>
        <time>2019-05-11T10:50:52Z</time>
      </trkpt>
      <trkpt lat="39.1959880" lon="-1.3759060">
        <ele>577.8</ele>
        <time>2019-05-11T10:50:53Z</time>
      </trkpt>
      <trkpt lat="39.1960080" lon="-1.3759250">
        <ele>577.6</ele>
        <time>2019-05-11T10:50:54Z</time>
      </trkpt>
      <trkpt lat="39.1960270" lon="-1.3759340">
        <ele>577.2</ele>
        <time>2019-05-11T10:50:55Z</time>
      </trkpt>
      <trkpt lat="39.1960520" lon="-1.3759330">
        <ele>576.6</ele>
        <time>2019-05-11T10:50:56Z</time>
      </trkpt>
      <trkpt lat="39.1960770" lon="-1.3759320">
        <ele>576.2</ele>
        <time>2019-05-11T10:50:57Z</time>
      </trkpt>
      <trkpt lat="39.1960990" lon="-1.3759360">
        <ele>575.8</ele>
        <time>2019-05-11T10:50:58Z</time>
      </trkpt>
      <trkpt lat="39.1961230" lon="-1.3759500">
        <ele>575.2</ele>
        <time>2019-05-11T10:50:59Z</time>
      </trkpt>
      <trkpt lat="39.1961500" lon="-1.3759760">
        <ele>574.6</ele>
        <time>2019-05-11T10:51:00Z</time>
      </trkpt>
      <trkpt lat="39.1961690" lon="-1.3760130">
        <ele>574.2</ele>
        <time>2019-05-11T10:51:01Z</time>
      </trkpt>
      <trkpt lat="39.1961900" lon="-1.3760550">
        <ele>573.8</ele>
        <time>2019-05-11T10:51:02Z</time>
      </trkpt>
      <trkpt lat="39.1962120" lon="-1.3760980">
        <ele>573.6</ele>
        <time>2019-05-11T10:51:03Z</time>
      </trkpt>
      <trkpt lat="39.1962300" lon="-1.3761450">
        <ele>573.2</ele>
        <time>2019-05-11T10:51:04Z</time>
      </trkpt>
      <trkpt lat="39.1962440" lon="-1.3761970">
        <ele>573.0</ele>
        <time>2019-05-11T10:51:05Z</time>
      </trkpt>
      <trkpt lat="39.1962630" lon="-1.3762420">
        <ele>572.6</ele>
        <time>2019-05-11T10:51:06Z</time>
      </trkpt>
      <trkpt lat="39.1962950" lon="-1.3762740">
        <ele>572.2</ele>
        <time>2019-05-11T10:51:07Z</time>
      </trkpt>
      <trkpt lat="39.1963300" lon="-1.3763080">
        <ele>572.0</ele>
        <time>2019-05-11T10:51:08Z</time>
      </trkpt>
      <trkpt lat="39.1963640" lon="-1.3763490">
        <ele>571.6</ele>
        <time>2019-05-11T10:51:09Z</time>
      </trkpt>
      <trkpt lat="39.1963980" lon="-1.3763930">
        <ele>571.6</ele>
        <time>2019-05-11T10:51:10Z</time>
      </trkpt>
      <trkpt lat="39.1964280" lon="-1.3764290">
        <ele>571.4</ele>
        <time>2019-05-11T10:51:11Z</time>
      </trkpt>
      <trkpt lat="39.1964550" lon="-1.3764510">
        <ele>571.4</ele>
        <time>2019-05-11T10:51:12Z</time>
      </trkpt>
      <trkpt lat="39.1964880" lon="-1.3764650">
        <ele>571.2</ele>
        <time>2019-05-11T10:51:13Z</time>
      </trkpt>
      <trkpt lat="39.1965230" lon="-1.3764680">
        <ele>571.0</ele>
        <time>2019-05-11T10:51:14Z</time>
      </trkpt>
      <trkpt lat="39.1965570" lon="-1.3764610">
        <ele>570.8</ele>
        <time>2019-05-11T10:51:15Z</time>
      </trkpt>
      <trkpt lat="39.1965920" lon="-1.3764530">
        <ele>570.4</ele>
        <time>2019-05-11T10:51:16Z</time>
      </trkpt>
      <trkpt lat="39.1966260" lon="-1.3764500">
        <ele>570.2</ele>
        <time>2019-05-11T10:51:17Z</time>
      </trkpt>
      <trkpt lat="39.1966570" lon="-1.3764540">
        <ele>570.0</ele>
        <time>2019-05-11T10:51:18Z</time>
      </trkpt>
      <trkpt lat="39.1966920" lon="-1.3764570">
        <ele>569.6</ele>
        <time>2019-05-11T10:51:19Z</time>
      </trkpt>
      <trkpt lat="39.1967270" lon="-1.3764590">
        <ele>569.0</ele>
        <time>2019-05-11T10:51:20Z</time>
      </trkpt>
      <trkpt lat="39.1967600" lon="-1.3764650">
        <ele>568.6</ele>
        <time>2019-05-11T10:51:21Z</time>
      </trkpt>
      <trkpt lat="39.1967910" lon="-1.3764710">
        <ele>568.4</ele>
        <time>2019-05-11T10:51:22Z</time>
      </trkpt>
      <trkpt lat="39.1968210" lon="-1.3764770">
        <ele>568.2</ele>
        <time>2019-05-11T10:51:23Z</time>
      </trkpt>
      <trkpt lat="39.1968590" lon="-1.3764850">
        <ele>567.8</ele>
        <time>2019-05-11T10:51:24Z</time>
      </trkpt>
      <trkpt lat="39.1968970" lon="-1.3764970">
        <ele>566.8</ele>
        <time>2019-05-11T10:51:25Z</time>
      </trkpt>
      <trkpt lat="39.1969360" lon="-1.3765080">
        <ele>566.2</ele>
        <time>2019-05-11T10:51:26Z</time>
      </trkpt>
      <trkpt lat="39.1969680" lon="-1.3765250">
        <ele>565.8</ele>
        <time>2019-05-11T10:51:27Z</time>
      </trkpt>
      <trkpt lat="39.1969990" lon="-1.3765490">
        <ele>565.2</ele>
        <time>2019-05-11T10:51:28Z</time>
      </trkpt>
      <trkpt lat="39.1970290" lon="-1.3765790">
        <ele>564.8</ele>
        <time>2019-05-11T10:51:29Z</time>
      </trkpt>
      <trkpt lat="39.1970510" lon="-1.3766160">
        <ele>564.2</ele>
        <time>2019-05-11T10:51:30Z</time>
      </trkpt>
      <trkpt lat="39.1970700" lon="-1.3766580">
        <ele>563.8</ele>
        <time>2019-05-11T10:51:31Z</time>
      </trkpt>
      <trkpt lat="39.1970890" lon="-1.3767030">
        <ele>563.4</ele>
        <time>2019-05-11T10:51:32Z</time>
      </trkpt>
      <trkpt lat="39.1971070" lon="-1.3767470">
        <ele>562.8</ele>
        <time>2019-05-11T10:51:33Z</time>
      </trkpt>
      <trkpt lat="39.1971210" lon="-1.3767970">
        <ele>562.4</ele>
        <time>2019-05-11T10:51:34Z</time>
      </trkpt>
      <trkpt lat="39.1971270" lon="-1.3768540">
        <ele>561.8</ele>
        <time>2019-05-11T10:51:35Z</time>
      </trkpt>
      <trkpt lat="39.1971250" lon="-1.3769120">
        <ele>561.2</ele>
        <time>2019-05-11T10:51:36Z</time>
      </trkpt>
      <trkpt lat="39.1971180" lon="-1.3769680">
        <ele>560.6</ele>
        <time>2019-05-11T10:51:37Z</time>
      </trkpt>
      <trkpt lat="39.1971110" lon="-1.3770210">
        <ele>560.0</ele>
        <time>2019-05-11T10:51:38Z</time>
      </trkpt>
      <trkpt lat="39.1971090" lon="-1.3770600">
        <ele>559.4</ele>
        <time>2019-05-11T10:51:39Z</time>
      </trkpt>
      <trkpt lat="39.1971050" lon="-1.3770900">
        <ele>558.8</ele>
        <time>2019-05-11T10:51:40Z</time>
      </trkpt>
      <trkpt lat="39.1971040" lon="-1.3771170">
        <ele>558.4</ele>
        <time>2019-05-11T10:51:41Z</time>
      </trkpt>
      <trkpt lat="39.1971090" lon="-1.3771420">
        <ele>558.0</ele>
        <time>2019-05-11T10:51:42Z</time>
      </trkpt>
      <trkpt lat="39.1971170" lon="-1.3771680">
        <ele>557.4</ele>
        <time>2019-05-11T10:51:43Z</time>
      </trkpt>
      <trkpt lat="39.1971230" lon="-1.3771930">
        <ele>556.8</ele>
        <time>2019-05-11T10:51:44Z</time>
      </trkpt>
      <trkpt lat="39.1971270" lon="-1.3772210">
        <ele>556.4</ele>
        <time>2019-05-11T10:51:45Z</time>
      </trkpt>
      <trkpt lat="39.1971270" lon="-1.3772510">
        <ele>556.0</ele>
        <time>2019-05-11T10:51:46Z</time>
      </trkpt>
      <trkpt lat="39.1971260" lon="-1.3772780">
        <ele>555.4</ele>
        <time>2019-05-11T10:51:47Z</time>
      </trkpt>
      <trkpt lat="39.1971280" lon="-1.3773040">
        <ele>555.0</ele>
        <time>2019-05-11T10:51:48Z</time>
      </trkpt>
      <trkpt lat="39.1971310" lon="-1.3773310">
        <ele>554.6</ele>
        <time>2019-05-11T10:51:49Z</time>
      </trkpt>
      <trkpt lat="39.1971340" lon="-1.3773610">
        <ele>554.2</ele>
        <time>2019-05-11T10:51:50Z</time>
      </trkpt>
      <trkpt lat="39.1971350" lon="-1.3773920">
        <ele>553.8</ele>
        <time>2019-05-11T10:51:51Z</time>
      </trkpt>
      <trkpt lat="39.1971350" lon="-1.3774200">
        <ele>553.4</ele>
        <time>2019-05-11T10:51:52Z</time>
      </trkpt>
      <trkpt lat="39.1971370" lon="-1.3774500">
        <ele>553.2</ele>
        <time>2019-05-11T10:51:53Z</time>
      </trkpt>
      <trkpt lat="39.1971420" lon="-1.3774880">
        <ele>552.8</ele>
        <time>2019-05-11T10:51:54Z</time>
      </trkpt>
      <trkpt lat="39.1971570" lon="-1.3775260">
        <ele>552.6</ele>
        <time>2019-05-11T10:51:55Z</time>
      </trkpt>
      <trkpt lat="39.1971820" lon="-1.3775550">
        <ele>552.4</ele>
        <time>2019-05-11T10:51:56Z</time>
      </trkpt>
      <trkpt lat="39.1972060" lon="-1.3775790">
        <ele>551.8</ele>
        <time>2019-05-11T10:51:57Z</time>
      </trkpt>
      <trkpt lat="39.1972230" lon="-1.3776040">
        <ele>551.2</ele>
        <time>2019-05-11T10:51:58Z</time>
      </trkpt>
      <trkpt lat="39.1972430" lon="-1.3776300">
        <ele>550.6</ele>
        <time>2019-05-11T10:51:59Z</time>
      </trkpt>
      <trkpt lat="39.1972620" lon="-1.3776590">
        <ele>549.8</ele>
        <time>2019-05-11T10:52:00Z</time>
      </trkpt>
      <trkpt lat="39.1972740" lon="-1.3776900">
        <ele>549.4</ele>
        <time>2019-05-11T10:52:01Z</time>
      </trkpt>
      <trkpt lat="39.1972810" lon="-1.3777180">
        <ele>549.0</ele>
        <time>2019-05-11T10:52:02Z</time>
      </trkpt>
      <trkpt lat="39.1972880" lon="-1.3777460">
        <ele>548.2</ele>
        <time>2019-05-11T10:52:03Z</time>
      </trkpt>
      <trkpt lat="39.1972990" lon="-1.3777790">
        <ele>547.6</ele>
        <time>2019-05-11T10:52:04Z</time>
      </trkpt>
      <trkpt lat="39.1973120" lon="-1.3778210">
        <ele>547.0</ele>
        <time>2019-05-11T10:52:05Z</time>
      </trkpt>
      <trkpt lat="39.1973260" lon="-1.3778690">
        <ele>546.6</ele>
        <time>2019-05-11T10:52:06Z</time>
      </trkpt>
      <trkpt lat="39.1973330" lon="-1.3779180">
        <ele>546.0</ele>
        <time>2019-05-11T10:52:07Z</time>
      </trkpt>
      <trkpt lat="39.1973420" lon="-1.3779720">
        <ele>545.4</ele>
        <time>2019-05-11T10:52:08Z</time>
      </trkpt>
      <trkpt lat="39.1973540" lon="-1.3780230">
        <ele>545.0</ele>
        <time>2019-05-11T10:52:09Z</time>
      </trkpt>
      <trkpt lat="39.1973610" lon="-1.3780700">
        <ele>544.6</ele>
        <time>2019-05-11T10:52:10Z</time>
      </trkpt>
      <trkpt lat="39.1973670" lon="-1.3781190">
        <ele>544.0</ele>
        <time>2019-05-11T10:52:11Z</time>
      </trkpt>
      <trkpt lat="39.1973760" lon="-1.3781720">
        <ele>543.8</ele>
        <time>2019-05-11T10:52:12Z</time>
      </trkpt>
      <trkpt lat="39.1973830" lon="-1.3782310">
        <ele>543.4</ele>
        <time>2019-05-11T10:52:13Z</time>
      </trkpt>
      <trkpt lat="39.1973840" lon="-1.3782980">
        <ele>542.8</ele>
        <time>2019-05-11T10:52:14Z</time>
      </trkpt>
      <trkpt lat="39.1973820" lon="-1.3783700">
        <ele>542.0</ele>
        <time>2019-05-11T10:52:15Z</time>
      </trkpt>
      <trkpt lat="39.1973800" lon="-1.3784500">
        <ele>541.6</ele>
        <time>2019-05-11T10:52:16Z</time>
      </trkpt>
      <trkpt lat="39.1973740" lon="-1.3785320">
        <ele>541.0</ele>
        <time>2019-05-11T10:52:17Z</time>
      </trkpt>
      <trkpt lat="39.1973670" lon="-1.3786180">
        <ele>540.2</ele>
        <time>2019-05-11T10:52:18Z</time>
      </trkpt>
      <trkpt lat="39.1973580" lon="-1.3787010">
        <ele>539.8</ele>
        <time>2019-05-11T10:52:19Z</time>
      </trkpt>
      <trkpt lat="39.1973500" lon="-1.3787860">
        <ele>539.2</ele>
        <time>2019-05-11T10:52:20Z</time>
      </trkpt>
      <trkpt lat="39.1973450" lon="-1.3788720">
        <ele>538.8</ele>
        <time>2019-05-11T10:52:21Z</time>
      </trkpt>
      <trkpt lat="39.1973420" lon="-1.3789570">
        <ele>538.4</ele>
        <time>2019-05-11T10:52:22Z</time>
      </trkpt>
      <trkpt lat="39.1973400" lon="-1.3790370">
        <ele>538.2</ele>
        <time>2019-05-11T10:52:23Z</time>
      </trkpt>
      <trkpt lat="39.1973360" lon="-1.3791180">
        <ele>537.6</ele>
        <time>2019-05-11T10:52:24Z</time>
      </trkpt>
      <trkpt lat="39.1973270" lon="-1.3791970">
        <ele>537.4</ele>
        <time>2019-05-11T10:52:25Z</time>
      </trkpt>
      <trkpt lat="39.1973110" lon="-1.3792750">
        <ele>537.0</ele>
        <time>2019-05-11T10:52:26Z</time>
      </trkpt>
      <trkpt lat="39.1972910" lon="-1.3793540">
        <ele>536.4</ele>
        <time>2019-05-11T10:52:27Z</time>
      </trkpt>
      <trkpt lat="39.1972710" lon="-1.3794370">
        <ele>535.8</ele>
        <time>2019-05-11T10:52:28Z</time>
      </trkpt>
      <trkpt lat="39.1972510" lon="-1.3795230">
        <ele>535.2</ele>
        <time>2019-05-11T10:52:29Z</time>
      </trkpt>
      <trkpt lat="39.1972240" lon="-1.3796050">
        <ele>534.8</ele>
        <time>2019-05-11T10:52:30Z</time>
      </trkpt>
      <trkpt lat="39.1971930" lon="-1.3796800">
        <ele>534.6</ele>
        <time>2019-05-11T10:52:31Z</time>
      </trkpt>
      <trkpt lat="39.1971680" lon="-1.3797510">
        <ele>534.2</ele>
        <time>2019-05-11T10:52:32Z</time>
      </trkpt>
      <trkpt lat="39.1971570" lon="-1.3798150">
        <ele>534.0</ele>
        <time>2019-05-11T10:52:33Z</time>
      </trkpt>
      <trkpt lat="39.1971480" lon="-1.3798820">
        <ele>533.2</ele>
        <time>2019-05-11T10:52:34Z</time>
      </trkpt>
      <trkpt lat="39.1971330" lon="-1.3799530">
        <ele>532.6</ele>
        <time>2019-05-11T10:52:35Z</time>
      </trkpt>
      <trkpt lat="39.1971120" lon="-1.3800210">
        <ele>532.2</ele>
        <time>2019-05-11T10:52:36Z</time>
      </trkpt>
      <trkpt lat="39.1970880" lon="-1.3800880">
        <ele>531.6</ele>
        <time>2019-05-11T10:52:37Z</time>
      </trkpt>
      <trkpt lat="39.1970610" lon="-1.3801510">
        <ele>531.2</ele>
        <time>2019-05-11T10:52:38Z</time>
      </trkpt>
      <trkpt lat="39.1970350" lon="-1.3802070">
        <ele>530.8</ele>
        <time>2019-05-11T10:52:39Z</time>
      </trkpt>
      <trkpt lat="39.1970120" lon="-1.3802610">
        <ele>530.4</ele>
        <time>2019-05-11T10:52:40Z</time>
      </trkpt>
      <trkpt lat="39.1969990" lon="-1.3803220">
        <ele>530.0</ele>
        <time>2019-05-11T10:52:41Z</time>
      </trkpt>
      <trkpt lat="39.1969880" lon="-1.3803880">
        <ele>529.6</ele>
        <time>2019-05-11T10:52:42Z</time>
      </trkpt>
      <trkpt lat="39.1969660" lon="-1.3804520">
        <ele>529.2</ele>
        <time>2019-05-11T10:52:43Z</time>
      </trkpt>
      <trkpt lat="39.1969360" lon="-1.3805080">
        <ele>529.0</ele>
        <time>2019-05-11T10:52:44Z</time>
      </trkpt>
      <trkpt lat="39.1969030" lon="-1.3805590">
        <ele>528.8</ele>
        <time>2019-05-11T10:52:45Z</time>
      </trkpt>
      <trkpt lat="39.1968680" lon="-1.3806080">
        <ele>528.4</ele>
        <time>2019-05-11T10:52:46Z</time>
      </trkpt>
      <trkpt lat="39.1968370" lon="-1.3806580">
        <ele>527.8</ele>
        <time>2019-05-11T10:52:47Z</time>
      </trkpt>
      <trkpt lat="39.1968090" lon="-1.3807070">
        <ele>527.2</ele>
        <time>2019-05-11T10:52:48Z</time>
      </trkpt>
      <trkpt lat="39.1967900" lon="-1.3807580">
        <ele>527.0</ele>
        <time>2019-05-11T10:52:49Z</time>
      </trkpt>
      <trkpt lat="39.1967740" lon="-1.3808080">
        <ele>527.0</ele>
        <time>2019-05-11T10:52:50Z</time>
      </trkpt>
      <trkpt lat="39.1967560" lon="-1.3808570">
        <ele>526.8</ele>
        <time>2019-05-11T10:52:51Z</time>
      </trkpt>
      <trkpt lat="39.1967390" lon="-1.3809060">
        <ele>526.8</ele>
        <time>2019-05-11T10:52:52Z</time>
      </trkpt>
      <trkpt lat="39.1967230" lon="-1.3809570">
        <ele>526.8</ele>
        <time>2019-05-11T10:52:53Z</time>
      </trkpt>
      <trkpt lat="39.1967080" lon="-1.3810050">
        <ele>526.8</ele>
        <time>2019-05-11T10:52:54Z</time>
      </trkpt>
      <trkpt lat="39.1966880" lon="-1.3810510">
        <ele>526.8</ele>
        <time>2019-05-11T10:52:55Z</time>
      </trkpt>
      <trkpt lat="39.1966670" lon="-1.3810930">
        <ele>526.8</ele>
        <time>2019-05-11T10:52:56Z</time>
      </trkpt>
      <trkpt lat="39.1966480" lon="-1.3811320">
        <ele>526.8</ele>
        <time>2019-05-11T10:52:57Z</time>
      </trkpt>
      <trkpt lat="39.1966300" lon="-1.3811670">
        <ele>527.0</ele>
        <time>2019-05-11T10:52:58Z</time>
      </trkpt>
      <trkpt lat="39.1966100" lon="-1.3812030">
        <ele>527.4</ele>
        <time>2019-05-11T10:52:59Z</time>
      </trkpt>
      <trkpt lat="39.1965870" lon="-1.3812440">
        <ele>527.6</ele>
        <time>2019-05-11T10:53:00Z</time>
      </trkpt>
      <trkpt lat="39.1965610" lon="-1.3812850">
        <ele>527.8</ele>
        <time>2019-05-11T10:53:01Z</time>
      </trkpt>
      <trkpt lat="39.1965350" lon="-1.3813280">
        <ele>528.0</ele>
        <time>2019-05-11T10:53:02Z</time>
      </trkpt>
      <trkpt lat="39.1965100" lon="-1.3813680">
        <ele>528.2</ele>
        <time>2019-05-11T10:53:03Z</time>
      </trkpt>
      <trkpt lat="39.1964860" lon="-1.3814100">
        <ele>528.4</ele>
        <time>2019-05-11T10:53:04Z</time>
      </trkpt>
      <trkpt lat="39.1964650" lon="-1.3814510">
        <ele>528.6</ele>
        <time>2019-05-11T10:53:05Z</time>
      </trkpt>
      <trkpt lat="39.1964430" lon="-1.3814900">
        <ele>528.8</ele>
        <time>2019-05-11T10:53:06Z</time>
      </trkpt>
      <trkpt lat="39.1964180" lon="-1.3815240">
        <ele>529.0</ele>
        <time>2019-05-11T10:53:07Z</time>
      </trkpt>
      <trkpt lat="39.1963930" lon="-1.3815620">
        <ele>529.0</ele>
        <time>2019-05-11T10:53:08Z</time>
      </trkpt>
      <trkpt lat="39.1963700" lon="-1.3816060">
        <ele>529.4</ele>
        <time>2019-05-11T10:53:09Z</time>
      </trkpt>
      <trkpt lat="39.1963500" lon="-1.3816510">
        <ele>529.6</ele>
        <time>2019-05-11T10:53:10Z</time>
      </trkpt>
      <trkpt lat="39.1963310" lon="-1.3816990">
        <ele>530.0</ele>
        <time>2019-05-11T10:53:11Z</time>
      </trkpt>
      <trkpt lat="39.1963130" lon="-1.3817510">
        <ele>530.2</ele>
        <time>2019-05-11T10:53:12Z</time>
      </trkpt>
      <trkpt lat="39.1962950" lon="-1.3818070">
        <ele>530.4</ele>
        <time>2019-05-11T10:53:13Z</time>
      </trkpt>
      <trkpt lat="39.1962760" lon="-1.3818770">
        <ele>530.8</ele>
        <time>2019-05-11T10:53:14Z</time>
      </trkpt>
      <trkpt lat="39.1962560" lon="-1.3819440">
        <ele>531.2</ele>
        <time>2019-05-11T10:53:15Z</time>
      </trkpt>
      <trkpt lat="39.1962360" lon="-1.3820170">
        <ele>531.4</ele>
        <time>2019-05-11T10:53:16Z</time>
      </trkpt>
      <trkpt lat="39.1962140" lon="-1.3820940">
        <ele>531.6</ele>
        <time>2019-05-11T10:53:17Z</time>
      </trkpt>
      <trkpt lat="39.1961900" lon="-1.3821740">
        <ele>531.8</ele>
        <time>2019-05-11T10:53:18Z</time>
      </trkpt>
      <trkpt lat="39.1961630" lon="-1.3822540">
        <ele>531.8</ele>
        <time>2019-05-11T10:53:19Z</time>
      </trkpt>
      <trkpt lat="39.1961380" lon="-1.3823320">
        <ele>531.8</ele>
        <time>2019-05-11T10:53:20Z</time>
      </trkpt>
      <trkpt lat="39.1961110" lon="-1.3824060">
        <ele>531.8</ele>
        <time>2019-05-11T10:53:21Z</time>
      </trkpt>
      <trkpt lat="39.1960860" lon="-1.3824770">
        <ele>531.8</ele>
        <time>2019-05-11T10:53:22Z</time>
      </trkpt>
      <trkpt lat="39.1960570" lon="-1.3825480">
        <ele>531.8</ele>
        <time>2019-05-11T10:53:23Z</time>
      </trkpt>
      <trkpt lat="39.1960270" lon="-1.3826110">
        <ele>531.8</ele>
        <time>2019-05-11T10:53:24Z</time>
      </trkpt>
      <trkpt lat="39.1959980" lon="-1.3826790">
        <ele>531.8</ele>
        <time>2019-05-11T10:53:25Z</time>
      </trkpt>
      <trkpt lat="39.1959730" lon="-1.3827480">
        <ele>532.2</ele>
        <time>2019-05-11T10:53:26Z</time>
      </trkpt>
      <trkpt lat="39.1959470" lon="-1.3828210">
        <ele>532.2</ele>
        <time>2019-05-11T10:53:27Z</time>
      </trkpt>
      <trkpt lat="39.1959210" lon="-1.3828870">
        <ele>532.2</ele>
        <time>2019-05-11T10:53:28Z</time>
      </trkpt>
      <trkpt lat="39.1958920" lon="-1.3829540">
        <ele>532.2</ele>
        <time>2019-05-11T10:53:29Z</time>
      </trkpt>
      <trkpt lat="39.1958580" lon="-1.3830230">
        <ele>532.2</ele>
        <time>2019-05-11T10:53:30Z</time>
      </trkpt>
      <trkpt lat="39.1958160" lon="-1.3830970">
        <ele>532.2</ele>
        <time>2019-05-11T10:53:31Z</time>
      </trkpt>
      <trkpt lat="39.1957690" lon="-1.3831750">
        <ele>532.2</ele>
        <time>2019-05-11T10:53:32Z</time>
      </trkpt>
      <trkpt lat="39.1957240" lon="-1.3832600">
        <ele>532.2</ele>
        <time>2019-05-11T10:53:33Z</time>
      </trkpt>
      <trkpt lat="39.1956790" lon="-1.3833520">
        <ele>532.0</ele>
        <time>2019-05-11T10:53:34Z</time>
      </trkpt>
      <trkpt lat="39.1956330" lon="-1.3834510">
        <ele>532.0</ele>
        <time>2019-05-11T10:53:35Z</time>
      </trkpt>
      <trkpt lat="39.1955940" lon="-1.3835610">
        <ele>532.0</ele>
        <time>2019-05-11T10:53:36Z</time>
      </trkpt>
      <trkpt lat="39.1955620" lon="-1.3836870">
        <ele>532.0</ele>
        <time>2019-05-11T10:53:37Z</time>
      </trkpt>
      <trkpt lat="39.1955450" lon="-1.3838210">
        <ele>532.0</ele>
        <time>2019-05-11T10:53:38Z</time>
      </trkpt>
      <trkpt lat="39.1955420" lon="-1.3839490">
        <ele>531.8</ele>
        <time>2019-05-11T10:53:39Z</time>
      </trkpt>
      <trkpt lat="39.1955460" lon="-1.3840720">
        <ele>531.8</ele>
        <time>2019-05-11T10:53:40Z</time>
      </trkpt>
      <trkpt lat="39.1955510" lon="-1.3841930">
        <ele>531.8</ele>
        <time>2019-05-11T10:53:41Z</time>
      </trkpt>
      <trkpt lat="39.1955520" lon="-1.3843050">
        <ele>531.8</ele>
        <time>2019-05-11T10:53:42Z</time>
      </trkpt>
      <trkpt lat="39.1955510" lon="-1.3844110">
        <ele>530.6</ele>
        <time>2019-05-11T10:53:43Z</time>
      </trkpt>
      <trkpt lat="39.1955490" lon="-1.3845110">
        <ele>529.8</ele>
        <time>2019-05-11T10:53:44Z</time>
      </trkpt>
      <trkpt lat="39.1955470" lon="-1.3845990">
        <ele>529.2</ele>
        <time>2019-05-11T10:53:45Z</time>
      </trkpt>
      <trkpt lat="39.1955460" lon="-1.3846830">
        <ele>529.0</ele>
        <time>2019-05-11T10:53:46Z</time>
      </trkpt>
      <trkpt lat="39.1955460" lon="-1.3847610">
        <ele>528.8</ele>
        <time>2019-05-11T10:53:47Z</time>
      </trkpt>
      <trkpt lat="39.1955420" lon="-1.3848330">
        <ele>528.8</ele>
        <time>2019-05-11T10:53:48Z</time>
      </trkpt>
      <trkpt lat="39.1955300" lon="-1.3849050">
        <ele>528.8</ele>
        <time>2019-05-11T10:53:49Z</time>
      </trkpt>
      <trkpt lat="39.1955180" lon="-1.3849770">
        <ele>528.8</ele>
        <time>2019-05-11T10:53:50Z</time>
      </trkpt>
      <trkpt lat="39.1955020" lon="-1.3850500">
        <ele>528.8</ele>
        <time>2019-05-11T10:53:51Z</time>
      </trkpt>
      <trkpt lat="39.1954850" lon="-1.3851220">
        <ele>528.8</ele>
        <time>2019-05-11T10:53:52Z</time>
      </trkpt>
      <trkpt lat="39.1954660" lon="-1.3851930">
        <ele>528.8</ele>
        <time>2019-05-11T10:53:53Z</time>
      </trkpt>
      <trkpt lat="39.1954470" lon="-1.3852640">
        <ele>529.0</ele>
        <time>2019-05-11T10:53:54Z</time>
      </trkpt>
      <trkpt lat="39.1954280" lon="-1.3853330">
        <ele>529.4</ele>
        <time>2019-05-11T10:53:55Z</time>
      </trkpt>
      <trkpt lat="39.1954090" lon="-1.3853990">
        <ele>529.6</ele>
        <time>2019-05-11T10:53:56Z</time>
      </trkpt>
      <trkpt lat="39.1953870" lon="-1.3854620">
        <ele>529.8</ele>
        <time>2019-05-11T10:53:57Z</time>
      </trkpt>
      <trkpt lat="39.1953640" lon="-1.3855220">
        <ele>529.8</ele>
        <time>2019-05-11T10:53:58Z</time>
      </trkpt>
      <trkpt lat="39.1953420" lon="-1.3855800">
        <ele>529.8</ele>
        <time>2019-05-11T10:53:59Z</time>
      </trkpt>
      <trkpt lat="39.1953180" lon="-1.3856370">
        <ele>529.8</ele>
        <time>2019-05-11T10:54:00Z</time>
      </trkpt>
      <trkpt lat="39.1952950" lon="-1.3856970">
        <ele>530.0</ele>
        <time>2019-05-11T10:54:01Z</time>
      </trkpt>
      <trkpt lat="39.1952750" lon="-1.3857580">
        <ele>530.2</ele>
        <time>2019-05-11T10:54:02Z</time>
      </trkpt>
      <trkpt lat="39.1952540" lon="-1.3858230">
        <ele>530.4</ele>
        <time>2019-05-11T10:54:03Z</time>
      </trkpt>
      <trkpt lat="39.1952320" lon="-1.3858870">
        <ele>530.8</ele>
        <time>2019-05-11T10:54:04Z</time>
      </trkpt>
      <trkpt lat="39.1952120" lon="-1.3859600">
        <ele>531.0</ele>
        <time>2019-05-11T10:54:05Z</time>
      </trkpt>
      <trkpt lat="39.1951910" lon="-1.3860360">
        <ele>531.2</ele>
        <time>2019-05-11T10:54:06Z</time>
      </trkpt>
      <trkpt lat="39.1951700" lon="-1.3861110">
        <ele>531.2</ele>
        <time>2019-05-11T10:54:07Z</time>
      </trkpt>
      <trkpt lat="39.1951500" lon="-1.3861840">
        <ele>531.4</ele>
        <time>2019-05-11T10:54:08Z</time>
      </trkpt>
      <trkpt lat="39.1951310" lon="-1.3862630">
        <ele>531.4</ele>
        <time>2019-05-11T10:54:09Z</time>
      </trkpt>
      <trkpt lat="39.1951080" lon="-1.3863380">
        <ele>531.4</ele>
        <time>2019-05-11T10:54:10Z</time>
      </trkpt>
      <trkpt lat="39.1950860" lon="-1.3864150">
        <ele>531.4</ele>
        <time>2019-05-11T10:54:11Z</time>
      </trkpt>
      <trkpt lat="39.1950660" lon="-1.3864940">
        <ele>531.4</ele>
        <time>2019-05-11T10:54:12Z</time>
      </trkpt>
      <trkpt lat="39.1950450" lon="-1.3865790">
        <ele>531.4</ele>
        <time>2019-05-11T10:54:13Z</time>
      </trkpt>
      <trkpt lat="39.1950190" lon="-1.3866620">
        <ele>531.4</ele>
        <time>2019-05-11T10:54:14Z</time>
      </trkpt>
      <trkpt lat="39.1949920" lon="-1.3867460">
        <ele>531.4</ele>
        <time>2019-05-11T10:54:15Z</time>
      </trkpt>
      <trkpt lat="39.1949640" lon="-1.3868250">
        <ele>531.4</ele>
        <time>2019-05-11T10:54:16Z</time>
      </trkpt>
      <trkpt lat="39.1949370" lon="-1.3869120">
        <ele>531.4</ele>
        <time>2019-05-11T10:54:17Z</time>
      </trkpt>
      <trkpt lat="39.1949050" lon="-1.3870040">
        <ele>531.4</ele>
        <time>2019-05-11T10:54:18Z</time>
      </trkpt>
      <trkpt lat="39.1948670" lon="-1.3870950">
        <ele>531.4</ele>
        <time>2019-05-11T10:54:19Z</time>
      </trkpt>
      <trkpt lat="39.1948230" lon="-1.3871760">
        <ele>531.2</ele>
        <time>2019-05-11T10:54:20Z</time>
      </trkpt>
      <trkpt lat="39.1947710" lon="-1.3872590">
        <ele>531.0</ele>
        <time>2019-05-11T10:54:21Z</time>
      </trkpt>
      <trkpt lat="39.1947210" lon="-1.3873380">
        <ele>530.8</ele>
        <time>2019-05-11T10:54:22Z</time>
      </trkpt>
      <trkpt lat="39.1946730" lon="-1.3874160">
        <ele>530.8</ele>
        <time>2019-05-11T10:54:23Z</time>
      </trkpt>
      <trkpt lat="39.1946190" lon="-1.3874900">
        <ele>530.6</ele>
        <time>2019-05-11T10:54:24Z</time>
      </trkpt>
      <trkpt lat="39.1945720" lon="-1.3875640">
        <ele>530.6</ele>
        <time>2019-05-11T10:54:25Z</time>
      </trkpt>
      <trkpt lat="39.1945280" lon="-1.3876330">
        <ele>530.6</ele>
        <time>2019-05-11T10:54:26Z</time>
      </trkpt>
      <trkpt lat="39.1944830" lon="-1.3877030">
        <ele>530.6</ele>
        <time>2019-05-11T10:54:27Z</time>
      </trkpt>
      <trkpt lat="39.1944410" lon="-1.3877710">
        <ele>530.6</ele>
        <time>2019-05-11T10:54:28Z</time>
      </trkpt>
      <trkpt lat="39.1944010" lon="-1.3878410">
        <ele>530.6</ele>
        <time>2019-05-11T10:54:29Z</time>
      </trkpt>
      <trkpt lat="39.1943590" lon="-1.3879080">
        <ele>530.6</ele>
        <time>2019-05-11T10:54:30Z</time>
      </trkpt>
      <trkpt lat="39.1943170" lon="-1.3879770">
        <ele>530.6</ele>
        <time>2019-05-11T10:54:31Z</time>
      </trkpt>
      <trkpt lat="39.1942750" lon="-1.3880460">
        <ele>530.6</ele>
        <time>2019-05-11T10:54:32Z</time>
      </trkpt>
      <trkpt lat="39.1942320" lon="-1.3881170">
        <ele>530.6</ele>
        <time>2019-05-11T10:54:33Z</time>
      </trkpt>
      <trkpt lat="39.1941890" lon="-1.3881910">
        <ele>530.6</ele>
        <time>2019-05-11T10:54:34Z</time>
      </trkpt>
      <trkpt lat="39.1941460" lon="-1.3882590">
        <ele>530.8</ele>
        <time>2019-05-11T10:54:35Z</time>
      </trkpt>
      <trkpt lat="39.1941030" lon="-1.3883240">
        <ele>530.8</ele>
        <time>2019-05-11T10:54:36Z</time>
      </trkpt>
      <trkpt lat="39.1940620" lon="-1.3883870">
        <ele>531.0</ele>
        <time>2019-05-11T10:54:37Z</time>
      </trkpt>
      <trkpt lat="39.1940230" lon="-1.3884490">
        <ele>531.0</ele>
        <time>2019-05-11T10:54:38Z</time>
      </trkpt>
      <trkpt lat="39.1939890" lon="-1.3885190">
        <ele>531.0</ele>
        <time>2019-05-11T10:54:39Z</time>
      </trkpt>
      <trkpt lat="39.1939560" lon="-1.3885830">
        <ele>531.2</ele>
        <time>2019-05-11T10:54:40Z</time>
      </trkpt>
      <trkpt lat="39.1939220" lon="-1.3886470">
        <ele>531.4</ele>
        <time>2019-05-11T10:54:41Z</time>
      </trkpt>
      <trkpt lat="39.1938850" lon="-1.3887140">
        <ele>531.4</ele>
        <time>2019-05-11T10:54:42Z</time>
      </trkpt>
      <trkpt lat="39.1938500" lon="-1.3887840">
        <ele>531.8</ele>
        <time>2019-05-11T10:54:43Z</time>
      </trkpt>
      <trkpt lat="39.1938140" lon="-1.3888580">
        <ele>532.0</ele>
        <time>2019-05-11T10:54:44Z</time>
      </trkpt>
      <trkpt lat="39.1937780" lon="-1.3889380">
        <ele>532.2</ele>
        <time>2019-05-11T10:54:45Z</time>
      </trkpt>
      <trkpt lat="39.1937430" lon="-1.3890230">
        <ele>532.4</ele>
        <time>2019-05-11T10:54:46Z</time>
      </trkpt>
      <trkpt lat="39.1937070" lon="-1.3891130">
        <ele>532.4</ele>
        <time>2019-05-11T10:54:47Z</time>
      </trkpt>
      <trkpt lat="39.1936750" lon="-1.3892080">
        <ele>532.4</ele>
        <time>2019-05-11T10:54:48Z</time>
      </trkpt>
      <trkpt lat="39.1936470" lon="-1.3893030">
        <ele>532.4</ele>
        <time>2019-05-11T10:54:49Z</time>
      </trkpt>
      <trkpt lat="39.1936230" lon="-1.3893980">
        <ele>532.4</ele>
        <time>2019-05-11T10:54:50Z</time>
      </trkpt>
      <trkpt lat="39.1936010" lon="-1.3894890">
        <ele>532.4</ele>
        <time>2019-05-11T10:54:51Z</time>
      </trkpt>
      <trkpt lat="39.1935800" lon="-1.3895750">
        <ele>532.4</ele>
        <time>2019-05-11T10:54:52Z</time>
      </trkpt>
      <trkpt lat="39.1935540" lon="-1.3896590">
        <ele>532.4</ele>
        <time>2019-05-11T10:54:53Z</time>
      </trkpt>
      <trkpt lat="39.1935270" lon="-1.3897430">
        <ele>532.2</ele>
        <time>2019-05-11T10:54:54Z</time>
      </trkpt>
      <trkpt lat="39.1935020" lon="-1.3898290">
        <ele>531.8</ele>
        <time>2019-05-11T10:54:55Z</time>
      </trkpt>
      <trkpt lat="39.1934770" lon="-1.3899190">
        <ele>531.6</ele>
        <time>2019-05-11T10:54:56Z</time>
      </trkpt>
      <trkpt lat="39.1934530" lon="-1.3900120">
        <ele>531.4</ele>
        <time>2019-05-11T10:54:57Z</time>
      </trkpt>
      <trkpt lat="39.1934260" lon="-1.3901060">
        <ele>531.4</ele>
        <time>2019-05-11T10:54:58Z</time>
      </trkpt>
      <trkpt lat="39.1933990" lon="-1.3902030">
        <ele>531.2</ele>
        <time>2019-05-11T10:54:59Z</time>
      </trkpt>
      <trkpt lat="39.1933730" lon="-1.3902980">
        <ele>531.2</ele>
        <time>2019-05-11T10:55:00Z</time>
      </trkpt>
      <trkpt lat="39.1933480" lon="-1.3903940">
        <ele>531.2</ele>
        <time>2019-05-11T10:55:01Z</time>
      </trkpt>
      <trkpt lat="39.1933250" lon="-1.3904920">
        <ele>531.2</ele>
        <time>2019-05-11T10:55:02Z</time>
      </trkpt>
      <trkpt lat="39.1933080" lon="-1.3905960">
        <ele>531.0</ele>
        <time>2019-05-11T10:55:03Z</time>
      </trkpt>
      <trkpt lat="39.1932970" lon="-1.3907000">
        <ele>531.0</ele>
        <time>2019-05-11T10:55:04Z</time>
      </trkpt>
      <trkpt lat="39.1932810" lon="-1.3908100">
        <ele>531.0</ele>
        <time>2019-05-11T10:55:05Z</time>
      </trkpt>
      <trkpt lat="39.1932640" lon="-1.3909210">
        <ele>530.8</ele>
        <time>2019-05-11T10:55:06Z</time>
      </trkpt>
      <trkpt lat="39.1932450" lon="-1.3910320">
        <ele>530.8</ele>
        <time>2019-05-11T10:55:07Z</time>
      </trkpt>
      <trkpt lat="39.1932280" lon="-1.3911360">
        <ele>530.6</ele>
        <time>2019-05-11T10:55:08Z</time>
      </trkpt>
      <trkpt lat="39.1932180" lon="-1.3912250">
        <ele>530.4</ele>
        <time>2019-05-11T10:55:09Z</time>
      </trkpt>
      <trkpt lat="39.1932120" lon="-1.3912820">
        <ele>530.2</ele>
        <time>2019-05-11T10:55:10Z</time>
      </trkpt>
      <trkpt lat="39.1932090" lon="-1.3913030">
        <ele>530.0</ele>
        <time>2019-05-11T10:55:11Z</time>
      </trkpt>
      <trkpt lat="39.1932140" lon="-1.3912980">
        <ele>529.6</ele>
        <time>2019-05-11T10:55:12Z</time>
      </trkpt>
      <trkpt lat="39.1932170" lon="-1.3912840">
        <ele>529.0</ele>
        <time>2019-05-11T10:55:13Z</time>
      </trkpt>
      <trkpt lat="39.1932250" lon="-1.3912590">
        <ele>528.6</ele>
        <time>2019-05-11T10:55:14Z</time>
      </trkpt>
      <trkpt lat="39.1932270" lon="-1.3912260">
        <ele>528.2</ele>
        <time>2019-05-11T10:55:15Z</time>
      </trkpt>
      <trkpt lat="39.1932340" lon="-1.3911890">
        <ele>527.8</ele>
        <time>2019-05-11T10:55:16Z</time>
      </trkpt>
      <trkpt lat="39.1932400" lon="-1.3911510">
        <ele>527.4</ele>
        <time>2019-05-11T10:55:17Z</time>
      </trkpt>
      <trkpt lat="39.1932440" lon="-1.3911220">
        <ele>527.0</ele>
        <time>2019-05-11T10:55:18Z</time>
      </trkpt>
      <trkpt lat="39.1932480" lon="-1.3911060">
        <ele>526.8</ele>
        <time>2019-05-11T10:55:19Z</time>
      </trkpt>
      <trkpt lat="39.1932440" lon="-1.3911060">
        <ele>526.8</ele>
        <time>2019-05-11T10:55:20Z</time>
      </trkpt>
      <trkpt lat="39.1932420" lon="-1.3911050">
        <ele>526.6</ele>
        <time>2019-05-11T10:55:21Z</time>
      </trkpt>
      <trkpt lat="39.1932400" lon="-1.3911070">
        <ele>526.6</ele>
        <time>2019-05-11T10:55:22Z</time>
      </trkpt>
      <trkpt lat="39.1932390" lon="-1.3911100">
        <ele>526.6</ele>
        <time>2019-05-11T10:55:23Z</time>
      </trkpt>
      <trkpt lat="39.1932370" lon="-1.3911140">
        <ele>526.4</ele>
        <time>2019-05-11T10:55:24Z</time>
      </trkpt>
      <trkpt lat="39.1932370" lon="-1.3911140">
        <ele>526.4</ele>
        <time>2019-05-11T10:55:25Z</time>
      </trkpt>
      <trkpt lat="39.1932370" lon="-1.3911140">
        <ele>526.4</ele>
        <time>2019-05-11T10:55:26Z</time>
      </trkpt>
      <trkpt lat="39.1932400" lon="-1.3911220">
        <ele>526.4</ele>
        <time>2019-05-11T10:55:27Z</time>
      </trkpt>
      <trkpt lat="39.1932380" lon="-1.3911370">
        <ele>526.2</ele>
        <time>2019-05-11T10:55:28Z</time>
      </trkpt>
      <trkpt lat="39.1932350" lon="-1.3911520">
        <ele>526.2</ele>
        <time>2019-05-11T10:55:29Z</time>
      </trkpt>
      <trkpt lat="39.1932320" lon="-1.3911710">
        <ele>526.2</ele>
        <time>2019-05-11T10:55:30Z</time>
      </trkpt>
      <trkpt lat="39.1932300" lon="-1.3911930">
        <ele>526.2</ele>
        <time>2019-05-11T10:55:31Z</time>
      </trkpt>
      <trkpt lat="39.1932290" lon="-1.3912160">
        <ele>526.2</ele>
        <time>2019-05-11T10:55:32Z</time>
      </trkpt>
      <trkpt lat="39.1932300" lon="-1.3912420">
        <ele>526.2</ele>
        <time>2019-05-11T10:55:33Z</time>
      </trkpt>
      <trkpt lat="39.1932300" lon="-1.3912700">
        <ele>526.2</ele>
        <time>2019-05-11T10:55:34Z</time>
      </trkpt>
      <trkpt lat="39.1932290" lon="-1.3913030">
        <ele>526.2</ele>
        <time>2019-05-11T10:55:35Z</time>
      </trkpt>
      <trkpt lat="39.1932270" lon="-1.3913420">
        <ele>526.2</ele>
        <time>2019-05-11T10:55:36Z</time>
      </trkpt>
      <trkpt lat="39.1932220" lon="-1.3913850">
        <ele>526.2</ele>
        <time>2019-05-11T10:55:37Z</time>
      </trkpt>
      <trkpt lat="39.1932190" lon="-1.3914280">
        <ele>526.2</ele>
        <time>2019-05-11T10:55:38Z</time>
      </trkpt>
      <trkpt lat="39.1932130" lon="-1.3914720">
        <ele>526.2</ele>
        <time>2019-05-11T10:55:39Z</time>
      </trkpt>
      <trkpt lat="39.1932070" lon="-1.3915160">
        <ele>526.2</ele>
        <time>2019-05-11T10:55:40Z</time>
      </trkpt>
      <trkpt lat="39.1931980" lon="-1.3915580">
        <ele>526.2</ele>
        <time>2019-05-11T10:55:41Z</time>
      </trkpt>
      <trkpt lat="39.1931860" lon="-1.3915960">
        <ele>526.2</ele>
        <time>2019-05-11T10:55:42Z</time>
      </trkpt>
      <trkpt lat="39.1931770" lon="-1.3916310">
        <ele>526.2</ele>
        <time>2019-05-11T10:55:43Z</time>
      </trkpt>
      <trkpt lat="39.1931700" lon="-1.3916630">
        <ele>526.2</ele>
        <time>2019-05-11T10:55:44Z</time>
      </trkpt>
      <trkpt lat="39.1931630" lon="-1.3916900">
        <ele>526.4</ele>
        <time>2019-05-11T10:55:45Z</time>
      </trkpt>
      <trkpt lat="39.1931600" lon="-1.3917190">
        <ele>526.4</ele>
        <time>2019-05-11T10:55:46Z</time>
      </trkpt>
      <trkpt lat="39.1931580" lon="-1.3917500">
        <ele>526.4</ele>
        <time>2019-05-11T10:55:47Z</time>
      </trkpt>
      <trkpt lat="39.1931540" lon="-1.3917790">
        <ele>526.4</ele>
        <time>2019-05-11T10:55:48Z</time>
      </trkpt>
      <trkpt lat="39.1931540" lon="-1.3918060">
        <ele>526.6</ele>
        <time>2019-05-11T10:55:49Z</time>
      </trkpt>
      <trkpt lat="39.1931540" lon="-1.3918330">
        <ele>526.8</ele>
        <time>2019-05-11T10:55:50Z</time>
      </trkpt>
      <trkpt lat="39.1931550" lon="-1.3918610">
        <ele>527.0</ele>
        <time>2019-05-11T10:55:51Z</time>
      </trkpt>
      <trkpt lat="39.1931540" lon="-1.3918880">
        <ele>527.2</ele>
        <time>2019-05-11T10:55:52Z</time>
      </trkpt>
      <trkpt lat="39.1931540" lon="-1.3919130">
        <ele>527.4</ele>
        <time>2019-05-11T10:55:53Z</time>
      </trkpt>
      <trkpt lat="39.1931570" lon="-1.3919290">
        <ele>527.6</ele>
        <time>2019-05-11T10:55:54Z</time>
      </trkpt>
      <trkpt lat="39.1931560" lon="-1.3919300">
        <ele>527.8</ele>
        <time>2019-05-11T10:55:55Z</time>
      </trkpt>
      <trkpt lat="39.1931570" lon="-1.3919290">
        <ele>528.0</ele>
        <time>2019-05-11T10:55:56Z</time>
      </trkpt>
      <trkpt lat="39.1931580" lon="-1.3919280">
        <ele>528.2</ele>
        <time>2019-05-11T10:55:57Z</time>
      </trkpt>
      <trkpt lat="39.1931590" lon="-1.3919280">
        <ele>528.4</ele>
        <time>2019-05-11T10:55:58Z</time>
      </trkpt>
      <trkpt lat="39.1931600" lon="-1.3919280">
        <ele>528.6</ele>
        <time>2019-05-11T10:55:59Z</time>
      </trkpt>
      <trkpt lat="39.1931600" lon="-1.3919280">
        <ele>528.8</ele>
        <time>2019-05-11T10:56:00Z</time>
      </trkpt>
      <trkpt lat="39.1931600" lon="-1.3919280">
        <ele>529.0</ele>
        <time>2019-05-11T10:56:01Z</time>
      </trkpt>
      <trkpt lat="39.1931600" lon="-1.3919280">
        <ele>529.0</ele>
        <time>2019-05-11T10:56:02Z</time>
      </trkpt>
      <trkpt lat="39.1931600" lon="-1.3919280">
        <ele>529.0</ele>
        <time>2019-05-11T10:56:03Z</time>
      </trkpt>
      <trkpt lat="39.1931600" lon="-1.3919280">
        <ele>529.0</ele>
        <time>2019-05-11T10:56:04Z</time>
      </trkpt>
      <trkpt lat="39.1931600" lon="-1.3919280">
        <ele>529.0</ele>
        <time>2019-05-11T10:56:05Z</time>
      </trkpt>
      <trkpt lat="39.1931600" lon="-1.3919280">
        <ele>529.0</ele>
        <time>2019-05-11T10:56:06Z</time>
      </trkpt>
      <trkpt lat="39.1931600" lon="-1.3919280">
        <ele>529.0</ele>
        <time>2019-05-11T10:56:07Z</time>
      </trkpt>
      <trkpt lat="39.1931600" lon="-1.3919280">
        <ele>529.0</ele>
        <time>2019-05-11T10:56:08Z</time>
      </trkpt>
      <trkpt lat="39.1931600" lon="-1.3919280">
        <ele>529.0</ele>
        <time>2019-05-11T10:56:09Z</time>
      </trkpt>
      <trkpt lat="39.1931600" lon="-1.3919280">
        <ele>529.0</ele>
        <time>2019-05-11T10:56:10Z</time>
      </trkpt>
      <trkpt lat="39.1931600" lon="-1.3919280">
        <ele>529.0</ele>
        <time>2019-05-11T10:56:11Z</time>
      </trkpt>
      <trkpt lat="39.1931600" lon="-1.3919280">
        <ele>529.0</ele>
        <time>2019-05-11T10:56:12Z</time>
      </trkpt>
      <trkpt lat="39.1931600" lon="-1.3919280">
        <ele>529.0</ele>
        <time>2019-05-11T10:56:13Z</time>
      </trkpt>
      <trkpt lat="39.1931600" lon="-1.3919280">
        <ele>529.0</ele>
        <time>2019-05-11T10:56:14Z</time>
      </trkpt>
      <trkpt lat="39.1931600" lon="-1.3919280">
        <ele>529.0</ele>
        <time>2019-05-11T10:56:15Z</time>
      </trkpt>
      <trkpt lat="39.1931600" lon="-1.3919280">
        <ele>529.0</ele>
        <time>2019-05-11T10:56:16Z</time>
      </trkpt>
      <trkpt lat="39.1931600" lon="-1.3919280">
        <ele>529.0</ele>
        <time>2019-05-11T10:56:17Z</time>
      </trkpt>
      <trkpt lat="39.1931600" lon="-1.3919280">
        <ele>529.0</ele>
        <time>2019-05-11T10:56:18Z</time>
      </trkpt>
      <trkpt lat="39.1931600" lon="-1.3919280">
        <ele>529.0</ele>
        <time>2019-05-11T10:56:19Z</time>
      </trkpt>
      <trkpt lat="39.1931600" lon="-1.3919280">
        <ele>529.0</ele>
        <time>2019-05-11T10:56:20Z</time>
      </trkpt>
      <trkpt lat="39.1931600" lon="-1.3919280">
        <ele>529.2</ele>
        <time>2019-05-11T10:56:21Z</time>
      </trkpt>
      <trkpt lat="39.1931600" lon="-1.3919280">
        <ele>529.2</ele>
        <time>2019-05-11T10:56:22Z</time>
      </trkpt>
      <trkpt lat="39.1931600" lon="-1.3919280">
        <ele>529.2</ele>
        <time>2019-05-11T10:56:23Z</time>
      </trkpt>
      <trkpt lat="39.1931600" lon="-1.3919280">
        <ele>529.2</ele>
        <time>2019-05-11T10:56:24Z</time>
      </trkpt>
      <trkpt lat="39.1931580" lon="-1.3919360">
        <ele>529.2</ele>
        <time>2019-05-11T10:56:25Z</time>
      </trkpt>
      <trkpt lat="39.1931580" lon="-1.3919360">
        <ele>529.2</ele>
        <time>2019-05-11T10:56:26Z</time>
      </trkpt>
      <trkpt lat="39.1931580" lon="-1.3919510">
        <ele>529.2</ele>
        <time>2019-05-11T10:56:27Z</time>
      </trkpt>
      <trkpt lat="39.1931540" lon="-1.3919700">
        <ele>529.2</ele>
        <time>2019-05-11T10:56:28Z</time>
      </trkpt>
      <trkpt lat="39.1931490" lon="-1.3919980">
        <ele>529.2</ele>
        <time>2019-05-11T10:56:29Z</time>
      </trkpt>
      <trkpt lat="39.1931450" lon="-1.3920310">
        <ele>529.2</ele>
        <time>2019-05-11T10:56:30Z</time>
      </trkpt>
      <trkpt lat="39.1931400" lon="-1.3920660">
        <ele>529.2</ele>
        <time>2019-05-11T10:56:31Z</time>
      </trkpt>
      <trkpt lat="39.1931370" lon="-1.3921130">
        <ele>529.2</ele>
        <time>2019-05-11T10:56:32Z</time>
      </trkpt>
      <trkpt lat="39.1931370" lon="-1.3921650">
        <ele>529.2</ele>
        <time>2019-05-11T10:56:33Z</time>
      </trkpt>
      <trkpt lat="39.1931380" lon="-1.3922210">
        <ele>529.2</ele>
        <time>2019-05-11T10:56:34Z</time>
      </trkpt>
      <trkpt lat="39.1931410" lon="-1.3922800">
        <ele>529.2</ele>
        <time>2019-05-11T10:56:35Z</time>
      </trkpt>
      <trkpt lat="39.1931430" lon="-1.3923430">
        <ele>529.4</ele>
        <time>2019-05-11T10:56:36Z</time>
      </trkpt>
      <trkpt lat="39.1931430" lon="-1.3924090">
        <ele>529.4</ele>
        <time>2019-05-11T10:56:37Z</time>
      </trkpt>
      <trkpt lat="39.1931410" lon="-1.3924780">
        <ele>529.4</ele>
        <time>2019-05-11T10:56:38Z</time>
      </trkpt>
      <trkpt lat="39.1931370" lon="-1.3925560">
        <ele>529.4</ele>
        <time>2019-05-11T10:56:39Z</time>
      </trkpt>
      <trkpt lat="39.1931370" lon="-1.3926320">
        <ele>529.4</ele>
        <time>2019-05-11T10:56:40Z</time>
      </trkpt>
      <trkpt lat="39.1931430" lon="-1.3927050">
        <ele>529.4</ele>
        <time>2019-05-11T10:56:41Z</time>
      </trkpt>
      <trkpt lat="39.1931480" lon="-1.3927790">
        <ele>529.4</ele>
        <time>2019-05-11T10:56:42Z</time>
      </trkpt>
      <trkpt lat="39.1931520" lon="-1.3928550">
        <ele>529.4</ele>
        <time>2019-05-11T10:56:43Z</time>
      </trkpt>
      <trkpt lat="39.1931560" lon="-1.3929330">
        <ele>529.4</ele>
        <time>2019-05-11T10:56:44Z</time>
      </trkpt>
      <trkpt lat="39.1931620" lon="-1.3930130">
        <ele>529.4</ele>
        <time>2019-05-11T10:56:45Z</time>
      </trkpt>
      <trkpt lat="39.1931660" lon="-1.3930930">
        <ele>529.4</ele>
        <time>2019-05-11T10:56:46Z</time>
      </trkpt>
      <trkpt lat="39.1931660" lon="-1.3931760">
        <ele>529.4</ele>
        <time>2019-05-11T10:56:47Z</time>
      </trkpt>
      <trkpt lat="39.1931650" lon="-1.3932600">
        <ele>529.4</ele>
        <time>2019-05-11T10:56:48Z</time>
      </trkpt>
      <trkpt lat="39.1931640" lon="-1.3933440">
        <ele>529.4</ele>
        <time>2019-05-11T10:56:49Z</time>
      </trkpt>
      <trkpt lat="39.1931670" lon="-1.3934280">
        <ele>529.2</ele>
        <time>2019-05-11T10:56:50Z</time>
      </trkpt>
      <trkpt lat="39.1931720" lon="-1.3935120">
        <ele>529.2</ele>
        <time>2019-05-11T10:56:51Z</time>
      </trkpt>
      <trkpt lat="39.1931800" lon="-1.3935980">
        <ele>529.2</ele>
        <time>2019-05-11T10:56:52Z</time>
      </trkpt>
      <trkpt lat="39.1931900" lon="-1.3936900">
        <ele>529.2</ele>
        <time>2019-05-11T10:56:53Z</time>
      </trkpt>
      <trkpt lat="39.1932050" lon="-1.3937730">
        <ele>529.2</ele>
        <time>2019-05-11T10:56:54Z</time>
      </trkpt>
      <trkpt lat="39.1932230" lon="-1.3938550">
        <ele>529.2</ele>
        <time>2019-05-11T10:56:55Z</time>
      </trkpt>
      <trkpt lat="39.1932400" lon="-1.3939360">
        <ele>529.2</ele>
        <time>2019-05-11T10:56:56Z</time>
      </trkpt>
      <trkpt lat="39.1932530" lon="-1.3940140">
        <ele>529.2</ele>
        <time>2019-05-11T10:56:57Z</time>
      </trkpt>
      <trkpt lat="39.1932650" lon="-1.3940860">
        <ele>529.2</ele>
        <time>2019-05-11T10:56:58Z</time>
      </trkpt>
      <trkpt lat="39.1932740" lon="-1.3941310">
        <ele>529.2</ele>
        <time>2019-05-11T10:56:59Z</time>
      </trkpt>
      <trkpt lat="39.1932780" lon="-1.3941460">
        <ele>529.2</ele>
        <time>2019-05-11T10:57:00Z</time>
      </trkpt>
      <trkpt lat="39.1932830" lon="-1.3941390">
        <ele>529.2</ele>
        <time>2019-05-11T10:57:01Z</time>
      </trkpt>
      <trkpt lat="39.1932830" lon="-1.3941230">
        <ele>529.2</ele>
        <time>2019-05-11T10:57:02Z</time>
      </trkpt>
      <trkpt lat="39.1932780" lon="-1.3941030">
        <ele>529.2</ele>
        <time>2019-05-11T10:57:03Z</time>
      </trkpt>
      <trkpt lat="39.1932700" lon="-1.3940790">
        <ele>529.2</ele>
        <time>2019-05-11T10:57:04Z</time>
      </trkpt>
      <trkpt lat="39.1932650" lon="-1.3940630">
        <ele>529.2</ele>
        <time>2019-05-11T10:57:05Z</time>
      </trkpt>
      <trkpt lat="39.1932660" lon="-1.3940620">
        <ele>529.2</ele>
        <time>2019-05-11T10:57:06Z</time>
      </trkpt>
      <trkpt lat="39.1932680" lon="-1.3940600">
        <ele>529.4</ele>
        <time>2019-05-11T10:57:07Z</time>
      </trkpt>
      <trkpt lat="39.1932670" lon="-1.3940610">
        <ele>529.2</ele>
        <time>2019-05-11T10:57:08Z</time>
      </trkpt>
      <trkpt lat="39.1932700" lon="-1.3940630">
        <ele>529.2</ele>
        <time>2019-05-11T10:57:09Z</time>
      </trkpt>
      <trkpt lat="39.1932710" lon="-1.3940630">
        <ele>529.2</ele>
        <time>2019-05-11T10:57:10Z</time>
      </trkpt>
      <trkpt lat="39.1932710" lon="-1.3940630">
        <ele>529.2</ele>
        <time>2019-05-11T10:57:11Z</time>
      </trkpt>
      <trkpt lat="39.1932710" lon="-1.3940630">
        <ele>529.2</ele>
        <time>2019-05-11T10:57:12Z</time>
      </trkpt>
      <trkpt lat="39.1932710" lon="-1.3940630">
        <ele>529.2</ele>
        <time>2019-05-11T10:57:13Z</time>
      </trkpt>
      <trkpt lat="39.1932710" lon="-1.3940630">
        <ele>529.0</ele>
        <time>2019-05-11T10:57:14Z</time>
      </trkpt>
      <trkpt lat="39.1932710" lon="-1.3940630">
        <ele>529.0</ele>
        <time>2019-05-11T10:57:15Z</time>
      </trkpt>
      <trkpt lat="39.1932710" lon="-1.3940630">
        <ele>529.0</ele>
        <time>2019-05-11T10:57:16Z</time>
      </trkpt>
      <trkpt lat="39.1932710" lon="-1.3940630">
        <ele>529.0</ele>
        <time>2019-05-11T10:57:17Z</time>
      </trkpt>
      <trkpt lat="39.1932710" lon="-1.3940630">
        <ele>529.0</ele>
        <time>2019-05-11T10:57:18Z</time>
      </trkpt>
      <trkpt lat="39.1932710" lon="-1.3940630">
        <ele>528.8</ele>
        <time>2019-05-11T10:57:19Z</time>
      </trkpt>
      <trkpt lat="39.1932710" lon="-1.3940630">
        <ele>528.8</ele>
        <time>2019-05-11T10:57:20Z</time>
      </trkpt>
      <trkpt lat="39.1932710" lon="-1.3940630">
        <ele>528.8</ele>
        <time>2019-05-11T10:57:21Z</time>
      </trkpt>
      <trkpt lat="39.1932710" lon="-1.3940630">
        <ele>528.8</ele>
        <time>2019-05-11T10:57:22Z</time>
      </trkpt>
      <trkpt lat="39.1932710" lon="-1.3940630">
        <ele>528.8</ele>
        <time>2019-05-11T10:57:23Z</time>
      </trkpt>
      <trkpt lat="39.1932710" lon="-1.3940630">
        <ele>528.8</ele>
        <time>2019-05-11T10:57:24Z</time>
      </trkpt>
      <trkpt lat="39.1932710" lon="-1.3940630">
        <ele>528.8</ele>
        <time>2019-05-11T10:57:25Z</time>
      </trkpt>
      <trkpt lat="39.1932710" lon="-1.3940630">
        <ele>528.8</ele>
        <time>2019-05-11T10:57:26Z</time>
      </trkpt>
      <trkpt lat="39.1932710" lon="-1.3940630">
        <ele>528.8</ele>
        <time>2019-05-11T10:57:27Z</time>
      </trkpt>
      <trkpt lat="39.1932710" lon="-1.3940740">
        <ele>528.8</ele>
        <time>2019-05-11T10:57:28Z</time>
      </trkpt>
      <trkpt lat="39.1932710" lon="-1.3940740">
        <ele>528.8</ele>
        <time>2019-05-11T10:57:29Z</time>
      </trkpt>
      <trkpt lat="39.1932650" lon="-1.3940770">
        <ele>528.8</ele>
        <time>2019-05-11T10:57:30Z</time>
      </trkpt>
      <trkpt lat="39.1932650" lon="-1.3940780">
        <ele>528.8</ele>
        <time>2019-05-11T10:57:31Z</time>
      </trkpt>
      <trkpt lat="39.1932650" lon="-1.3940780">
        <ele>528.8</ele>
        <time>2019-05-11T10:57:32Z</time>
      </trkpt>
      <trkpt lat="39.1932650" lon="-1.3940780">
        <ele>528.8</ele>
        <time>2019-05-11T10:57:33Z</time>
      </trkpt>
      <trkpt lat="39.1932650" lon="-1.3940780">
        <ele>529.0</ele>
        <time>2019-05-11T10:57:34Z</time>
      </trkpt>
      <trkpt lat="39.1932670" lon="-1.3940840">
        <ele>529.0</ele>
        <time>2019-05-11T10:57:35Z</time>
      </trkpt>
      <trkpt lat="39.1932670" lon="-1.3940840">
        <ele>529.0</ele>
        <time>2019-05-11T10:57:36Z</time>
      </trkpt>
      <trkpt lat="39.1932700" lon="-1.3940990">
        <ele>529.0</ele>
        <time>2019-05-11T10:57:37Z</time>
      </trkpt>
      <trkpt lat="39.1932710" lon="-1.3941050">
        <ele>529.2</ele>
        <time>2019-05-11T10:57:38Z</time>
      </trkpt>
      <trkpt lat="39.1932730" lon="-1.3941160">
        <ele>529.2</ele>
        <time>2019-05-11T10:57:39Z</time>
      </trkpt>
      <trkpt lat="39.1932730" lon="-1.3941210">
        <ele>529.2</ele>
        <time>2019-05-11T10:57:40Z</time>
      </trkpt>
      <trkpt lat="39.1932740" lon="-1.3941230">
        <ele>529.2</ele>
        <time>2019-05-11T10:57:41Z</time>
      </trkpt>
      <trkpt lat="39.1932770" lon="-1.3941270">
        <ele>529.4</ele>
        <time>2019-05-11T10:57:42Z</time>
      </trkpt>
      <trkpt lat="39.1932800" lon="-1.3941300">
        <ele>529.4</ele>
        <time>2019-05-11T10:57:43Z</time>
      </trkpt>
      <trkpt lat="39.1932810" lon="-1.3941410">
        <ele>529.4</ele>
        <time>2019-05-11T10:57:44Z</time>
      </trkpt>
      <trkpt lat="39.1932810" lon="-1.3941520">
        <ele>529.4</ele>
        <time>2019-05-11T10:57:45Z</time>
      </trkpt>
      <trkpt lat="39.1932830" lon="-1.3941670">
        <ele>529.6</ele>
        <time>2019-05-11T10:57:46Z</time>
      </trkpt>
      <trkpt lat="39.1932840" lon="-1.3941750">
        <ele>529.6</ele>
        <time>2019-05-11T10:57:47Z</time>
      </trkpt>
      <trkpt lat="39.1932840" lon="-1.3941820">
        <ele>529.8</ele>
        <time>2019-05-11T10:57:48Z</time>
      </trkpt>
      <trkpt lat="39.1932900" lon="-1.3941870">
        <ele>529.8</ele>
        <time>2019-05-11T10:57:49Z</time>
      </trkpt>
      <trkpt lat="39.1932900" lon="-1.3941900">
        <ele>529.8</ele>
        <time>2019-05-11T10:57:50Z</time>
      </trkpt>
      <trkpt lat="39.1932890" lon="-1.3941910">
        <ele>529.8</ele>
        <time>2019-05-11T10:57:51Z</time>
      </trkpt>
      <trkpt lat="39.1932890" lon="-1.3941930">
        <ele>529.8</ele>
        <time>2019-05-11T10:57:52Z</time>
      </trkpt>
      <trkpt lat="39.1932900" lon="-1.3941940">
        <ele>530.0</ele>
        <time>2019-05-11T10:57:53Z</time>
      </trkpt>
      <trkpt lat="39.1932900" lon="-1.3941940">
        <ele>530.0</ele>
        <time>2019-05-11T10:57:54Z</time>
      </trkpt>
      <trkpt lat="39.1932910" lon="-1.3941940">
        <ele>530.0</ele>
        <time>2019-05-11T10:57:55Z</time>
      </trkpt>
      <trkpt lat="39.1932910" lon="-1.3941940">
        <ele>530.0</ele>
        <time>2019-05-11T10:57:56Z</time>
      </trkpt>
      <trkpt lat="39.1932910" lon="-1.3941940">
        <ele>530.0</ele>
        <time>2019-05-11T10:57:57Z</time>
      </trkpt>
      <trkpt lat="39.1932910" lon="-1.3941940">
        <ele>530.0</ele>
        <time>2019-05-11T10:57:58Z</time>
      </trkpt>
      <trkpt lat="39.1932910" lon="-1.3941940">
        <ele>530.0</ele>
        <time>2019-05-11T10:57:59Z</time>
      </trkpt>
      <trkpt lat="39.1932910" lon="-1.3941940">
        <ele>530.0</ele>
        <time>2019-05-11T10:58:00Z</time>
      </trkpt>
      <trkpt lat="39.1932910" lon="-1.3941940">
        <ele>530.0</ele>
        <time>2019-05-11T10:58:01Z</time>
      </trkpt>
      <trkpt lat="39.1932910" lon="-1.3941940">
        <ele>530.0</ele>
        <time>2019-05-11T10:58:02Z</time>
      </trkpt>
      <trkpt lat="39.1932910" lon="-1.3941940">
        <ele>530.0</ele>
        <time>2019-05-11T10:58:03Z</time>
      </trkpt>
      <trkpt lat="39.1932910" lon="-1.3941940">
        <ele>530.0</ele>
        <time>2019-05-11T10:58:04Z</time>
      </trkpt>
      <trkpt lat="39.1932910" lon="-1.3941970">
        <ele>530.0</ele>
        <time>2019-05-11T10:58:05Z</time>
      </trkpt>
      <trkpt lat="39.1932920" lon="-1.3942090">
        <ele>530.0</ele>
        <time>2019-05-11T10:58:06Z</time>
      </trkpt>
      <trkpt lat="39.1932950" lon="-1.3942180">
        <ele>530.0</ele>
        <time>2019-05-11T10:58:07Z</time>
      </trkpt>
      <trkpt lat="39.1932970" lon="-1.3942230">
        <ele>530.0</ele>
        <time>2019-05-11T10:58:08Z</time>
      </trkpt>
      <trkpt lat="39.1932980" lon="-1.3942220">
        <ele>530.0</ele>
        <time>2019-05-11T10:58:09Z</time>
      </trkpt>
      <trkpt lat="39.1932980" lon="-1.3942240">
        <ele>530.0</ele>
        <time>2019-05-11T10:58:10Z</time>
      </trkpt>
      <trkpt lat="39.1932990" lon="-1.3942260">
        <ele>530.0</ele>
        <time>2019-05-11T10:58:11Z</time>
      </trkpt>
      <trkpt lat="39.1933000" lon="-1.3942260">
        <ele>530.0</ele>
        <time>2019-05-11T10:58:12Z</time>
      </trkpt>
      <trkpt lat="39.1933020" lon="-1.3942260">
        <ele>530.0</ele>
        <time>2019-05-11T10:58:13Z</time>
      </trkpt>
      <trkpt lat="39.1933050" lon="-1.3942290">
        <ele>530.2</ele>
        <time>2019-05-11T10:58:14Z</time>
      </trkpt>
      <trkpt lat="39.1933090" lon="-1.3942390">
        <ele>530.2</ele>
        <time>2019-05-11T10:58:15Z</time>
      </trkpt>
      <trkpt lat="39.1933180" lon="-1.3942510">
        <ele>530.2</ele>
        <time>2019-05-11T10:58:16Z</time>
      </trkpt>
      <trkpt lat="39.1933270" lon="-1.3942640">
        <ele>530.4</ele>
        <time>2019-05-11T10:58:17Z</time>
      </trkpt>
      <trkpt lat="39.1933340" lon="-1.3942790">
        <ele>530.4</ele>
        <time>2019-05-11T10:58:18Z</time>
      </trkpt>
      <trkpt lat="39.1933400" lon="-1.3943000">
        <ele>530.4</ele>
        <time>2019-05-11T10:58:19Z</time>
      </trkpt>
      <trkpt lat="39.1933470" lon="-1.3943220">
        <ele>530.4</ele>
        <time>2019-05-11T10:58:20Z</time>
      </trkpt>
      <trkpt lat="39.1933540" lon="-1.3943400">
        <ele>530.4</ele>
        <time>2019-05-11T10:58:21Z</time>
      </trkpt>
      <trkpt lat="39.1933610" lon="-1.3943600">
        <ele>530.4</ele>
        <time>2019-05-11T10:58:22Z</time>
      </trkpt>
      <trkpt lat="39.1933680" lon="-1.3943850">
        <ele>530.4</ele>
        <time>2019-05-11T10:58:23Z</time>
      </trkpt>
      <trkpt lat="39.1933720" lon="-1.3944130">
        <ele>530.6</ele>
        <time>2019-05-11T10:58:24Z</time>
      </trkpt>
      <trkpt lat="39.1933740" lon="-1.3944450">
        <ele>530.6</ele>
        <time>2019-05-11T10:58:25Z</time>
      </trkpt>
      <trkpt lat="39.1933770" lon="-1.3944790">
        <ele>530.6</ele>
        <time>2019-05-11T10:58:26Z</time>
      </trkpt>
      <trkpt lat="39.1933810" lon="-1.3945150">
        <ele>530.8</ele>
        <time>2019-05-11T10:58:27Z</time>
      </trkpt>
      <trkpt lat="39.1933860" lon="-1.3945510">
        <ele>530.8</ele>
        <time>2019-05-11T10:58:28Z</time>
      </trkpt>
      <trkpt lat="39.1933890" lon="-1.3945860">
        <ele>530.8</ele>
        <time>2019-05-11T10:58:29Z</time>
      </trkpt>
      <trkpt lat="39.1933900" lon="-1.3946160">
        <ele>530.8</ele>
        <time>2019-05-11T10:58:30Z</time>
      </trkpt>
      <trkpt lat="39.1933920" lon="-1.3946400">
        <ele>531.0</ele>
        <time>2019-05-11T10:58:31Z</time>
      </trkpt>
      <trkpt lat="39.1933940" lon="-1.3946700">
        <ele>531.0</ele>
        <time>2019-05-11T10:58:32Z</time>
      </trkpt>
      <trkpt lat="39.1933950" lon="-1.3947010">
        <ele>531.2</ele>
        <time>2019-05-11T10:58:33Z</time>
      </trkpt>
      <trkpt lat="39.1933980" lon="-1.3947280">
        <ele>531.2</ele>
        <time>2019-05-11T10:58:34Z</time>
      </trkpt>
      <trkpt lat="39.1933970" lon="-1.3947630">
        <ele>531.4</ele>
        <time>2019-05-11T10:58:35Z</time>
      </trkpt>
      <trkpt lat="39.1933980" lon="-1.3947990">
        <ele>531.4</ele>
        <time>2019-05-11T10:58:36Z</time>
      </trkpt>
      <trkpt lat="39.1934030" lon="-1.3948370">
        <ele>531.8</ele>
        <time>2019-05-11T10:58:37Z</time>
      </trkpt>
      <trkpt lat="39.1934060" lon="-1.3948770">
        <ele>532.0</ele>
        <time>2019-05-11T10:58:38Z</time>
      </trkpt>
      <trkpt lat="39.1934080" lon="-1.3949170">
        <ele>532.2</ele>
        <time>2019-05-11T10:58:39Z</time>
      </trkpt>
      <trkpt lat="39.1934100" lon="-1.3949560">
        <ele>532.4</ele>
        <time>2019-05-11T10:58:40Z</time>
      </trkpt>
      <trkpt lat="39.1934130" lon="-1.3949950">
        <ele>532.6</ele>
        <time>2019-05-11T10:58:41Z</time>
      </trkpt>
      <trkpt lat="39.1934180" lon="-1.3950330">
        <ele>533.0</ele>
        <time>2019-05-11T10:58:42Z</time>
      </trkpt>
      <trkpt lat="39.1934220" lon="-1.3950700">
        <ele>533.2</ele>
        <time>2019-05-11T10:58:43Z</time>
      </trkpt>
      <trkpt lat="39.1934290" lon="-1.3951050">
        <ele>533.4</ele>
        <time>2019-05-11T10:58:44Z</time>
      </trkpt>
      <trkpt lat="39.1934350" lon="-1.3951360">
        <ele>533.6</ele>
        <time>2019-05-11T10:58:45Z</time>
      </trkpt>
      <trkpt lat="39.1934420" lon="-1.3951690">
        <ele>533.8</ele>
        <time>2019-05-11T10:58:46Z</time>
      </trkpt>
      <trkpt lat="39.1934470" lon="-1.3951960">
        <ele>533.8</ele>
        <time>2019-05-11T10:58:47Z</time>
      </trkpt>
      <trkpt lat="39.1934530" lon="-1.3952220">
        <ele>534.0</ele>
        <time>2019-05-11T10:58:48Z</time>
      </trkpt>
      <trkpt lat="39.1934580" lon="-1.3952480">
        <ele>534.2</ele>
        <time>2019-05-11T10:58:49Z</time>
      </trkpt>
      <trkpt lat="39.1934620" lon="-1.3952730">
        <ele>534.4</ele>
        <time>2019-05-11T10:58:50Z</time>
      </trkpt>
      <trkpt lat="39.1934630" lon="-1.3952980">
        <ele>534.8</ele>
        <time>2019-05-11T10:58:51Z</time>
      </trkpt>
      <trkpt lat="39.1934620" lon="-1.3953200">
        <ele>535.0</ele>
        <time>2019-05-11T10:58:52Z</time>
      </trkpt>
      <trkpt lat="39.1934620" lon="-1.3953450">
        <ele>535.4</ele>
        <time>2019-05-11T10:58:53Z</time>
      </trkpt>
      <trkpt lat="39.1934650" lon="-1.3953720">
        <ele>535.8</ele>
        <time>2019-05-11T10:58:54Z</time>
      </trkpt>
      <trkpt lat="39.1934690" lon="-1.3953990">
        <ele>536.2</ele>
        <time>2019-05-11T10:58:55Z</time>
      </trkpt>
      <trkpt lat="39.1934730" lon="-1.3954250">
        <ele>537.2</ele>
        <time>2019-05-11T10:58:56Z</time>
      </trkpt>
      <trkpt lat="39.1934770" lon="-1.3954540">
        <ele>537.8</ele>
        <time>2019-05-11T10:58:57Z</time>
      </trkpt>
      <trkpt lat="39.1934830" lon="-1.3954790">
        <ele>538.2</ele>
        <time>2019-05-11T10:58:58Z</time>
      </trkpt>
      <trkpt lat="39.1934900" lon="-1.3955050">
        <ele>538.4</ele>
        <time>2019-05-11T10:58:59Z</time>
      </trkpt>
      <trkpt lat="39.1934960" lon="-1.3955300">
        <ele>538.8</ele>
        <time>2019-05-11T10:59:00Z</time>
      </trkpt>
      <trkpt lat="39.1935000" lon="-1.3955530">
        <ele>539.0</ele>
        <time>2019-05-11T10:59:01Z</time>
      </trkpt>
      <trkpt lat="39.1935050" lon="-1.3955730">
        <ele>539.4</ele>
        <time>2019-05-11T10:59:02Z</time>
      </trkpt>
      <trkpt lat="39.1935110" lon="-1.3955970">
        <ele>539.6</ele>
        <time>2019-05-11T10:59:03Z</time>
      </trkpt>
      <trkpt lat="39.1935170" lon="-1.3956240">
        <ele>539.8</ele>
        <time>2019-05-11T10:59:04Z</time>
      </trkpt>
      <trkpt lat="39.1935240" lon="-1.3956500">
        <ele>540.4</ele>
        <time>2019-05-11T10:59:05Z</time>
      </trkpt>
      <trkpt lat="39.1935320" lon="-1.3956760">
        <ele>540.8</ele>
        <time>2019-05-11T10:59:06Z</time>
      </trkpt>
      <trkpt lat="39.1935380" lon="-1.3957050">
        <ele>541.2</ele>
        <time>2019-05-11T10:59:07Z</time>
      </trkpt>
      <trkpt lat="39.1935450" lon="-1.3957300">
        <ele>541.4</ele>
        <time>2019-05-11T10:59:08Z</time>
      </trkpt>
      <trkpt lat="39.1935520" lon="-1.3957600">
        <ele>541.8</ele>
        <time>2019-05-11T10:59:09Z</time>
      </trkpt>
      <trkpt lat="39.1935600" lon="-1.3957910">
        <ele>542.0</ele>
        <time>2019-05-11T10:59:10Z</time>
      </trkpt>
      <trkpt lat="39.1935670" lon="-1.3958250">
        <ele>542.4</ele>
        <time>2019-05-11T10:59:11Z</time>
      </trkpt>
      <trkpt lat="39.1935740" lon="-1.3958580">
        <ele>542.8</ele>
        <time>2019-05-11T10:59:12Z</time>
      </trkpt>
      <trkpt lat="39.1935810" lon="-1.3958930">
        <ele>543.0</ele>
        <time>2019-05-11T10:59:13Z</time>
      </trkpt>
      <trkpt lat="39.1935870" lon="-1.3959280">
        <ele>543.2</ele>
        <time>2019-05-11T10:59:14Z</time>
      </trkpt>
      <trkpt lat="39.1935940" lon="-1.3959650">
        <ele>543.4</ele>
        <time>2019-05-11T10:59:15Z</time>
      </trkpt>
      <trkpt lat="39.1935990" lon="-1.3960020">
        <ele>543.8</ele>
        <time>2019-05-11T10:59:16Z</time>
      </trkpt>
      <trkpt lat="39.1936040" lon="-1.3960380">
        <ele>544.0</ele>
        <time>2019-05-11T10:59:17Z</time>
      </trkpt>
      <trkpt lat="39.1936090" lon="-1.3960760">
        <ele>544.2</ele>
        <time>2019-05-11T10:59:18Z</time>
      </trkpt>
      <trkpt lat="39.1936130" lon="-1.3961160">
        <ele>544.4</ele>
        <time>2019-05-11T10:59:19Z</time>
      </trkpt>
      <trkpt lat="39.1936140" lon="-1.3961580">
        <ele>544.4</ele>
        <time>2019-05-11T10:59:20Z</time>
      </trkpt>
      <trkpt lat="39.1936130" lon="-1.3961990">
        <ele>544.8</ele>
        <time>2019-05-11T10:59:21Z</time>
      </trkpt>
      <trkpt lat="39.1936070" lon="-1.3962370">
        <ele>544.8</ele>
        <time>2019-05-11T10:59:22Z</time>
      </trkpt>
      <trkpt lat="39.1935940" lon="-1.3962730">
        <ele>545.0</ele>
        <time>2019-05-11T10:59:23Z</time>
      </trkpt>
      <trkpt lat="39.1935770" lon="-1.3963070">
        <ele>545.2</ele>
        <time>2019-05-11T10:59:24Z</time>
      </trkpt>
      <trkpt lat="39.1935540" lon="-1.3963410">
        <ele>545.4</ele>
        <time>2019-05-11T10:59:25Z</time>
      </trkpt>
      <trkpt lat="39.1935280" lon="-1.3963750">
        <ele>545.6</ele>
        <time>2019-05-11T10:59:26Z</time>
      </trkpt>
      <trkpt lat="39.1934980" lon="-1.3964080">
        <ele>545.6</ele>
        <time>2019-05-11T10:59:27Z</time>
      </trkpt>
      <trkpt lat="39.1934660" lon="-1.3964410">
        <ele>545.6</ele>
        <time>2019-05-11T10:59:28Z</time>
      </trkpt>
      <trkpt lat="39.1934360" lon="-1.3964820">
        <ele>545.8</ele>
        <time>2019-05-11T10:59:29Z</time>
      </trkpt>
      <trkpt lat="39.1934130" lon="-1.3965210">
        <ele>545.8</ele>
        <time>2019-05-11T10:59:30Z</time>
      </trkpt>
      <trkpt lat="39.1933970" lon="-1.3965750">
        <ele>546.0</ele>
        <time>2019-05-11T10:59:31Z</time>
      </trkpt>
      <trkpt lat="39.1933910" lon="-1.3966400">
        <ele>546.0</ele>
        <time>2019-05-11T10:59:32Z</time>
      </trkpt>
      <trkpt lat="39.1934030" lon="-1.3967060">
        <ele>546.0</ele>
        <time>2019-05-11T10:59:33Z</time>
      </trkpt>
      <trkpt lat="39.1934280" lon="-1.3967640">
        <ele>546.0</ele>
        <time>2019-05-11T10:59:34Z</time>
      </trkpt>
      <trkpt lat="39.1934670" lon="-1.3968160">
        <ele>546.0</ele>
        <time>2019-05-11T10:59:35Z</time>
      </trkpt>
      <trkpt lat="39.1935170" lon="-1.3968440">
        <ele>546.0</ele>
        <time>2019-05-11T10:59:36Z</time>
      </trkpt>
      <trkpt lat="39.1935740" lon="-1.3968680">
        <ele>546.0</ele>
        <time>2019-05-11T10:59:37Z</time>
      </trkpt>
      <trkpt lat="39.1936370" lon="-1.3968870">
        <ele>546.0</ele>
        <time>2019-05-11T10:59:38Z</time>
      </trkpt>
      <trkpt lat="39.1936940" lon="-1.3969050">
        <ele>546.0</ele>
        <time>2019-05-11T10:59:39Z</time>
      </trkpt>
      <trkpt lat="39.1937490" lon="-1.3969210">
        <ele>545.4</ele>
        <time>2019-05-11T10:59:40Z</time>
      </trkpt>
      <trkpt lat="39.1937950" lon="-1.3969410">
        <ele>545.0</ele>
        <time>2019-05-11T10:59:41Z</time>
      </trkpt>
      <trkpt lat="39.1938310" lon="-1.3969720">
        <ele>544.8</ele>
        <time>2019-05-11T10:59:42Z</time>
      </trkpt>
      <trkpt lat="39.1938580" lon="-1.3970020">
        <ele>544.8</ele>
        <time>2019-05-11T10:59:43Z</time>
      </trkpt>
      <trkpt lat="39.1938740" lon="-1.3970310">
        <ele>544.6</ele>
        <time>2019-05-11T10:59:44Z</time>
      </trkpt>
      <trkpt lat="39.1938840" lon="-1.3970630">
        <ele>544.6</ele>
        <time>2019-05-11T10:59:45Z</time>
      </trkpt>
      <trkpt lat="39.1938880" lon="-1.3970950">
        <ele>544.6</ele>
        <time>2019-05-11T10:59:46Z</time>
      </trkpt>
      <trkpt lat="39.1938870" lon="-1.3971270">
        <ele>544.6</ele>
        <time>2019-05-11T10:59:47Z</time>
      </trkpt>
      <trkpt lat="39.1938810" lon="-1.3971560">
        <ele>544.6</ele>
        <time>2019-05-11T10:59:48Z</time>
      </trkpt>
      <trkpt lat="39.1938780" lon="-1.3971860">
        <ele>544.6</ele>
        <time>2019-05-11T10:59:49Z</time>
      </trkpt>
      <trkpt lat="39.1938810" lon="-1.3972120">
        <ele>544.6</ele>
        <time>2019-05-11T10:59:50Z</time>
      </trkpt>
      <trkpt lat="39.1938840" lon="-1.3972380">
        <ele>545.0</ele>
        <time>2019-05-11T10:59:51Z</time>
      </trkpt>
      <trkpt lat="39.1938860" lon="-1.3972580">
        <ele>545.2</ele>
        <time>2019-05-11T10:59:52Z</time>
      </trkpt>
      <trkpt lat="39.1938870" lon="-1.3972660">
        <ele>545.4</ele>
        <time>2019-05-11T10:59:53Z</time>
      </trkpt>
      <trkpt lat="39.1938890" lon="-1.3972650">
        <ele>545.6</ele>
        <time>2019-05-11T10:59:54Z</time>
      </trkpt>
      <trkpt lat="39.1938910" lon="-1.3972650">
        <ele>545.6</ele>
        <time>2019-05-11T10:59:55Z</time>
      </trkpt>
      <trkpt lat="39.1938910" lon="-1.3972690">
        <ele>545.8</ele>
        <time>2019-05-11T10:59:56Z</time>
      </trkpt>
      <trkpt lat="39.1938920" lon="-1.3972780">
        <ele>546.0</ele>
        <time>2019-05-11T10:59:57Z</time>
      </trkpt>
      <trkpt lat="39.1938930" lon="-1.3972940">
        <ele>546.2</ele>
        <time>2019-05-11T10:59:58Z</time>
      </trkpt>
      <trkpt lat="39.1938930" lon="-1.3972930">
        <ele>546.4</ele>
        <time>2019-05-11T10:59:59Z</time>
      </trkpt>
      <trkpt lat="39.1938950" lon="-1.3972940">
        <ele>546.4</ele>
        <time>2019-05-11T11:00:00Z</time>
      </trkpt>
      <trkpt lat="39.1938970" lon="-1.3972950">
        <ele>546.6</ele>
        <time>2019-05-11T11:00:01Z</time>
      </trkpt>
      <trkpt lat="39.1938970" lon="-1.3973010">
        <ele>546.6</ele>
        <time>2019-05-11T11:00:02Z</time>
      </trkpt>
      <trkpt lat="39.1938960" lon="-1.3973130">
        <ele>546.6</ele>
        <time>2019-05-11T11:00:03Z</time>
      </trkpt>
      <trkpt lat="39.1938960" lon="-1.3973230">
        <ele>546.8</ele>
        <time>2019-05-11T11:00:04Z</time>
      </trkpt>
      <trkpt lat="39.1938950" lon="-1.3973230">
        <ele>546.8</ele>
        <time>2019-05-11T11:00:05Z</time>
      </trkpt>
      <trkpt lat="39.1938970" lon="-1.3973200">
        <ele>546.8</ele>
        <time>2019-05-11T11:00:06Z</time>
      </trkpt>
      <trkpt lat="39.1938980" lon="-1.3973200">
        <ele>546.8</ele>
        <time>2019-05-11T11:00:07Z</time>
      </trkpt>
      <trkpt lat="39.1938950" lon="-1.3973210">
        <ele>547.0</ele>
        <time>2019-05-11T11:00:08Z</time>
      </trkpt>
      <trkpt lat="39.1938950" lon="-1.3973210">
        <ele>547.0</ele>
        <time>2019-05-11T11:00:09Z</time>
      </trkpt>
      <trkpt lat="39.1938950" lon="-1.3973210">
        <ele>547.0</ele>
        <time>2019-05-11T11:00:10Z</time>
      </trkpt>
      <trkpt lat="39.1938950" lon="-1.3973210">
        <ele>547.0</ele>
        <time>2019-05-11T11:00:11Z</time>
      </trkpt>
      <trkpt lat="39.1938950" lon="-1.3973220">
        <ele>547.0</ele>
        <time>2019-05-11T11:00:12Z</time>
      </trkpt>
      <trkpt lat="39.1938950" lon="-1.3973220">
        <ele>547.0</ele>
        <time>2019-05-11T11:00:13Z</time>
      </trkpt>
      <trkpt lat="39.1938950" lon="-1.3973220">
        <ele>547.0</ele>
        <time>2019-05-11T11:00:14Z</time>
      </trkpt>
      <trkpt lat="39.1938950" lon="-1.3973220">
        <ele>547.0</ele>
        <time>2019-05-11T11:00:15Z</time>
      </trkpt>
      <trkpt lat="39.1938950" lon="-1.3973220">
        <ele>547.0</ele>
        <time>2019-05-11T11:00:16Z</time>
      </trkpt>
      <trkpt lat="39.1938960" lon="-1.3973220">
        <ele>547.0</ele>
        <time>2019-05-11T11:00:17Z</time>
      </trkpt>
      <trkpt lat="39.1938960" lon="-1.3973220">
        <ele>547.0</ele>
        <time>2019-05-11T11:00:18Z</time>
      </trkpt>
      <trkpt lat="39.1938950" lon="-1.3973220">
        <ele>547.0</ele>
        <time>2019-05-11T11:00:19Z</time>
      </trkpt>
      <trkpt lat="39.1938960" lon="-1.3973220">
        <ele>547.0</ele>
        <time>2019-05-11T11:00:20Z</time>
      </trkpt>
      <trkpt lat="39.1938960" lon="-1.3973220">
        <ele>547.0</ele>
        <time>2019-05-11T11:00:21Z</time>
      </trkpt>
      <trkpt lat="39.1938960" lon="-1.3973220">
        <ele>547.0</ele>
        <time>2019-05-11T11:00:22Z</time>
      </trkpt>
      <trkpt lat="39.1938960" lon="-1.3973220">
        <ele>547.0</ele>
        <time>2019-05-11T11:00:23Z</time>
      </trkpt>
      <trkpt lat="39.1938960" lon="-1.3973220">
        <ele>547.0</ele>
        <time>2019-05-11T11:00:24Z</time>
      </trkpt>
      <trkpt lat="39.1938960" lon="-1.3973220">
        <ele>546.8</ele>
        <time>2019-05-11T11:00:25Z</time>
      </trkpt>
      <trkpt lat="39.1938960" lon="-1.3973220">
        <ele>546.8</ele>
        <time>2019-05-11T11:00:26Z</time>
      </trkpt>
      <trkpt lat="39.1938960" lon="-1.3973290">
        <ele>546.8</ele>
        <time>2019-05-11T11:00:27Z</time>
      </trkpt>
      <trkpt lat="39.1938970" lon="-1.3973330">
        <ele>546.8</ele>
        <time>2019-05-11T11:00:28Z</time>
      </trkpt>
      <trkpt lat="39.1938970" lon="-1.3973340">
        <ele>546.8</ele>
        <time>2019-05-11T11:00:29Z</time>
      </trkpt>
      <trkpt lat="39.1938970" lon="-1.3973390">
        <ele>546.8</ele>
        <time>2019-05-11T11:00:30Z</time>
      </trkpt>
      <trkpt lat="39.1938980" lon="-1.3973490">
        <ele>546.8</ele>
        <time>2019-05-11T11:00:31Z</time>
      </trkpt>
      <trkpt lat="39.1938990" lon="-1.3973550">
        <ele>546.8</ele>
        <time>2019-05-11T11:00:32Z</time>
      </trkpt>
      <trkpt lat="39.1939010" lon="-1.3973590">
        <ele>546.8</ele>
        <time>2019-05-11T11:00:33Z</time>
      </trkpt>
      <trkpt lat="39.1939020" lon="-1.3973700">
        <ele>546.8</ele>
        <time>2019-05-11T11:00:34Z</time>
      </trkpt>
      <trkpt lat="39.1939020" lon="-1.3973810">
        <ele>547.0</ele>
        <time>2019-05-11T11:00:35Z</time>
      </trkpt>
      <trkpt lat="39.1939030" lon="-1.3973830">
        <ele>547.0</ele>
        <time>2019-05-11T11:00:36Z</time>
      </trkpt>
      <trkpt lat="39.1939020" lon="-1.3973830">
        <ele>547.0</ele>
        <time>2019-05-11T11:00:37Z</time>
      </trkpt>
      <trkpt lat="39.1939010" lon="-1.3973910">
        <ele>547.0</ele>
        <time>2019-05-11T11:00:38Z</time>
      </trkpt>
      <trkpt lat="39.1939020" lon="-1.3974050">
        <ele>547.0</ele>
        <time>2019-05-11T11:00:39Z</time>
      </trkpt>
      <trkpt lat="39.1939020" lon="-1.3974260">
        <ele>547.2</ele>
        <time>2019-05-11T11:00:40Z</time>
      </trkpt>
      <trkpt lat="39.1939010" lon="-1.3974480">
        <ele>547.2</ele>
        <time>2019-05-11T11:00:41Z</time>
      </trkpt>
      <trkpt lat="39.1938990" lon="-1.3974690">
        <ele>547.2</ele>
        <time>2019-05-11T11:00:42Z</time>
      </trkpt>
      <trkpt lat="39.1938990" lon="-1.3974860">
        <ele>547.2</ele>
        <time>2019-05-11T11:00:43Z</time>
      </trkpt>
      <trkpt lat="39.1938990" lon="-1.3974960">
        <ele>547.2</ele>
        <time>2019-05-11T11:00:44Z</time>
      </trkpt>
      <trkpt lat="39.1939000" lon="-1.3974980">
        <ele>547.2</ele>
        <time>2019-05-11T11:00:45Z</time>
      </trkpt>
      <trkpt lat="39.1938990" lon="-1.3974970">
        <ele>547.4</ele>
        <time>2019-05-11T11:00:46Z</time>
      </trkpt>
      <trkpt lat="39.1939000" lon="-1.3974960">
        <ele>547.4</ele>
        <time>2019-05-11T11:00:47Z</time>
      </trkpt>
      <trkpt lat="39.1939010" lon="-1.3974940">
        <ele>547.6</ele>
        <time>2019-05-11T11:00:48Z</time>
      </trkpt>
      <trkpt lat="39.1939020" lon="-1.3974940">
        <ele>547.6</ele>
        <time>2019-05-11T11:00:49Z</time>
      </trkpt>
      <trkpt lat="39.1939010" lon="-1.3974940">
        <ele>547.8</ele>
        <time>2019-05-11T11:00:50Z</time>
      </trkpt>
      <trkpt lat="39.1939010" lon="-1.3974940">
        <ele>547.8</ele>
        <time>2019-05-11T11:00:51Z</time>
      </trkpt>
      <trkpt lat="39.1939010" lon="-1.3974940">
        <ele>547.8</ele>
        <time>2019-05-11T11:00:52Z</time>
      </trkpt>
      <trkpt lat="39.1939010" lon="-1.3974940">
        <ele>547.8</ele>
        <time>2019-05-11T11:00:53Z</time>
      </trkpt>
      <trkpt lat="39.1939010" lon="-1.3974940">
        <ele>548.0</ele>
        <time>2019-05-11T11:00:54Z</time>
      </trkpt>
      <trkpt lat="39.1939010" lon="-1.3974940">
        <ele>548.0</ele>
        <time>2019-05-11T11:00:55Z</time>
      </trkpt>
      <trkpt lat="39.1939010" lon="-1.3974940">
        <ele>548.0</ele>
        <time>2019-05-11T11:00:56Z</time>
      </trkpt>
      <trkpt lat="39.1939010" lon="-1.3974950">
        <ele>548.0</ele>
        <time>2019-05-11T11:00:57Z</time>
      </trkpt>
      <trkpt lat="39.1939020" lon="-1.3974940">
        <ele>548.0</ele>
        <time>2019-05-11T11:00:58Z</time>
      </trkpt>
      <trkpt lat="39.1939030" lon="-1.3974960">
        <ele>548.0</ele>
        <time>2019-05-11T11:00:59Z</time>
      </trkpt>
      <trkpt lat="39.1939090" lon="-1.3975060">
        <ele>548.0</ele>
        <time>2019-05-11T11:01:00Z</time>
      </trkpt>
      <trkpt lat="39.1939180" lon="-1.3975210">
        <ele>548.0</ele>
        <time>2019-05-11T11:01:01Z</time>
      </trkpt>
      <trkpt lat="39.1939260" lon="-1.3975420">
        <ele>548.0</ele>
        <time>2019-05-11T11:01:02Z</time>
      </trkpt>
      <trkpt lat="39.1939290" lon="-1.3975690">
        <ele>548.0</ele>
        <time>2019-05-11T11:01:03Z</time>
      </trkpt>
      <trkpt lat="39.1939320" lon="-1.3975980">
        <ele>548.0</ele>
        <time>2019-05-11T11:01:04Z</time>
      </trkpt>
      <trkpt lat="39.1939310" lon="-1.3976250">
        <ele>548.0</ele>
        <time>2019-05-11T11:01:05Z</time>
      </trkpt>
      <trkpt lat="39.1939310" lon="-1.3976460">
        <ele>548.0</ele>
        <time>2019-05-11T11:01:06Z</time>
      </trkpt>
      <trkpt lat="39.1939320" lon="-1.3976610">
        <ele>548.0</ele>
        <time>2019-05-11T11:01:07Z</time>
      </trkpt>
      <trkpt lat="39.1939360" lon="-1.3976730">
        <ele>548.0</ele>
        <time>2019-05-11T11:01:08Z</time>
      </trkpt>
      <trkpt lat="39.1939400" lon="-1.3976880">
        <ele>548.2</ele>
        <time>2019-05-11T11:01:09Z</time>
      </trkpt>
      <trkpt lat="39.1939420" lon="-1.3977040">
        <ele>548.2</ele>
        <time>2019-05-11T11:01:10Z</time>
      </trkpt>
      <trkpt lat="39.1939430" lon="-1.3977220">
        <ele>548.2</ele>
        <time>2019-05-11T11:01:11Z</time>
      </trkpt>
      <trkpt lat="39.1939420" lon="-1.3977360">
        <ele>548.4</ele>
        <time>2019-05-11T11:01:12Z</time>
      </trkpt>
      <trkpt lat="39.1939430" lon="-1.3977400">
        <ele>548.6</ele>
        <time>2019-05-11T11:01:13Z</time>
      </trkpt>
      <trkpt lat="39.1939430" lon="-1.3977390">
        <ele>548.8</ele>
        <time>2019-05-11T11:01:14Z</time>
      </trkpt>
      <trkpt lat="39.1939420" lon="-1.3977380">
        <ele>548.8</ele>
        <time>2019-05-11T11:01:15Z</time>
      </trkpt>
      <trkpt lat="39.1939410" lon="-1.3977390">
        <ele>548.8</ele>
        <time>2019-05-11T11:01:16Z</time>
      </trkpt>
      <trkpt lat="39.1939410" lon="-1.3977430">
        <ele>549.0</ele>
        <time>2019-05-11T11:01:17Z</time>
      </trkpt>
      <trkpt lat="39.1939420" lon="-1.3977510">
        <ele>549.0</ele>
        <time>2019-05-11T11:01:18Z</time>
      </trkpt>
      <trkpt lat="39.1939440" lon="-1.3977710">
        <ele>549.0</ele>
        <time>2019-05-11T11:01:19Z</time>
      </trkpt>
      <trkpt lat="39.1939460" lon="-1.3977890">
        <ele>549.2</ele>
        <time>2019-05-11T11:01:20Z</time>
      </trkpt>
      <trkpt lat="39.1939470" lon="-1.3978070">
        <ele>549.2</ele>
        <time>2019-05-11T11:01:21Z</time>
      </trkpt>
      <trkpt lat="39.1939510" lon="-1.3978270">
        <ele>549.2</ele>
        <time>2019-05-11T11:01:22Z</time>
      </trkpt>
      <trkpt lat="39.1939550" lon="-1.3978450">
        <ele>549.2</ele>
        <time>2019-05-11T11:01:23Z</time>
      </trkpt>
      <trkpt lat="39.1939580" lon="-1.3978640">
        <ele>549.2</ele>
        <time>2019-05-11T11:01:24Z</time>
      </trkpt>
      <trkpt lat="39.1939570" lon="-1.3978840">
        <ele>549.4</ele>
        <time>2019-05-11T11:01:25Z</time>
      </trkpt>
      <trkpt lat="39.1939560" lon="-1.3979040">
        <ele>549.4</ele>
        <time>2019-05-11T11:01:26Z</time>
      </trkpt>
      <trkpt lat="39.1939560" lon="-1.3979240">
        <ele>549.6</ele>
        <time>2019-05-11T11:01:27Z</time>
      </trkpt>
      <trkpt lat="39.1939600" lon="-1.3979440">
        <ele>549.6</ele>
        <time>2019-05-11T11:01:28Z</time>
      </trkpt>
      <trkpt lat="39.1939650" lon="-1.3979630">
        <ele>549.8</ele>
        <time>2019-05-11T11:01:29Z</time>
      </trkpt>
      <trkpt lat="39.1939720" lon="-1.3979840">
        <ele>549.8</ele>
        <time>2019-05-11T11:01:30Z</time>
      </trkpt>
      <trkpt lat="39.1939760" lon="-1.3980090">
        <ele>549.8</ele>
        <time>2019-05-11T11:01:31Z</time>
      </trkpt>
      <trkpt lat="39.1939760" lon="-1.3980330">
        <ele>549.8</ele>
        <time>2019-05-11T11:01:32Z</time>
      </trkpt>
      <trkpt lat="39.1939780" lon="-1.3980540">
        <ele>550.0</ele>
        <time>2019-05-11T11:01:33Z</time>
      </trkpt>
      <trkpt lat="39.1939790" lon="-1.3980650">
        <ele>550.0</ele>
        <time>2019-05-11T11:01:34Z</time>
      </trkpt>
      <trkpt lat="39.1939800" lon="-1.3980650">
        <ele>550.0</ele>
        <time>2019-05-11T11:01:35Z</time>
      </trkpt>
      <trkpt lat="39.1939790" lon="-1.3980640">
        <ele>550.0</ele>
        <time>2019-05-11T11:01:36Z</time>
      </trkpt>
      <trkpt lat="39.1939770" lon="-1.3980630">
        <ele>550.0</ele>
        <time>2019-05-11T11:01:37Z</time>
      </trkpt>
      <trkpt lat="39.1939760" lon="-1.3980660">
        <ele>550.2</ele>
        <time>2019-05-11T11:01:38Z</time>
      </trkpt>
      <trkpt lat="39.1939770" lon="-1.3980730">
        <ele>550.2</ele>
        <time>2019-05-11T11:01:39Z</time>
      </trkpt>
      <trkpt lat="39.1939790" lon="-1.3980770">
        <ele>550.2</ele>
        <time>2019-05-11T11:01:40Z</time>
      </trkpt>
      <trkpt lat="39.1939800" lon="-1.3980780">
        <ele>550.4</ele>
        <time>2019-05-11T11:01:41Z</time>
      </trkpt>
      <trkpt lat="39.1939820" lon="-1.3980840">
        <ele>550.4</ele>
        <time>2019-05-11T11:01:42Z</time>
      </trkpt>
      <trkpt lat="39.1939830" lon="-1.3980990">
        <ele>550.4</ele>
        <time>2019-05-11T11:01:43Z</time>
      </trkpt>
      <trkpt lat="39.1939840" lon="-1.3981220">
        <ele>550.4</ele>
        <time>2019-05-11T11:01:44Z</time>
      </trkpt>
      <trkpt lat="39.1939870" lon="-1.3981520">
        <ele>550.4</ele>
        <time>2019-05-11T11:01:45Z</time>
      </trkpt>
      <trkpt lat="39.1939950" lon="-1.3981920">
        <ele>550.4</ele>
        <time>2019-05-11T11:01:46Z</time>
      </trkpt>
      <trkpt lat="39.1940040" lon="-1.3982390">
        <ele>550.4</ele>
        <time>2019-05-11T11:01:47Z</time>
      </trkpt>
      <trkpt lat="39.1940130" lon="-1.3982880">
        <ele>550.4</ele>
        <time>2019-05-11T11:01:48Z</time>
      </trkpt>
      <trkpt lat="39.1940200" lon="-1.3983360">
        <ele>550.4</ele>
        <time>2019-05-11T11:01:49Z</time>
      </trkpt>
      <trkpt lat="39.1940250" lon="-1.3983840">
        <ele>550.4</ele>
        <time>2019-05-11T11:01:50Z</time>
      </trkpt>
      <trkpt lat="39.1940310" lon="-1.3984330">
        <ele>550.4</ele>
        <time>2019-05-11T11:01:51Z</time>
      </trkpt>
      <trkpt lat="39.1940370" lon="-1.3984790">
        <ele>550.6</ele>
        <time>2019-05-11T11:01:52Z</time>
      </trkpt>
      <trkpt lat="39.1940420" lon="-1.3985220">
        <ele>550.6</ele>
        <time>2019-05-11T11:01:53Z</time>
      </trkpt>
      <trkpt lat="39.1940460" lon="-1.3985640">
        <ele>550.6</ele>
        <time>2019-05-11T11:01:54Z</time>
      </trkpt>
      <trkpt lat="39.1940520" lon="-1.3986060">
        <ele>550.6</ele>
        <time>2019-05-11T11:01:55Z</time>
      </trkpt>
      <trkpt lat="39.1940600" lon="-1.3986470">
        <ele>550.8</ele>
        <time>2019-05-11T11:01:56Z</time>
      </trkpt>
      <trkpt lat="39.1940710" lon="-1.3986870">
        <ele>550.8</ele>
        <time>2019-05-11T11:01:57Z</time>
      </trkpt>
      <trkpt lat="39.1940830" lon="-1.3987240">
        <ele>550.8</ele>
        <time>2019-05-11T11:01:58Z</time>
      </trkpt>
      <trkpt lat="39.1940980" lon="-1.3987630">
        <ele>550.8</ele>
        <time>2019-05-11T11:01:59Z</time>
      </trkpt>
      <trkpt lat="39.1941160" lon="-1.3988030">
        <ele>550.8</ele>
        <time>2019-05-11T11:02:00Z</time>
      </trkpt>
      <trkpt lat="39.1941370" lon="-1.3988460">
        <ele>550.8</ele>
        <time>2019-05-11T11:02:01Z</time>
      </trkpt>
      <trkpt lat="39.1941570" lon="-1.3988910">
        <ele>551.0</ele>
        <time>2019-05-11T11:02:02Z</time>
      </trkpt>
      <trkpt lat="39.1941750" lon="-1.3989420">
        <ele>551.0</ele>
        <time>2019-05-11T11:02:03Z</time>
      </trkpt>
      <trkpt lat="39.1941890" lon="-1.3989990">
        <ele>551.0</ele>
        <time>2019-05-11T11:02:04Z</time>
      </trkpt>
      <trkpt lat="39.1942030" lon="-1.3990590">
        <ele>551.0</ele>
        <time>2019-05-11T11:02:05Z</time>
      </trkpt>
      <trkpt lat="39.1942150" lon="-1.3991190">
        <ele>551.0</ele>
        <time>2019-05-11T11:02:06Z</time>
      </trkpt>
      <trkpt lat="39.1942240" lon="-1.3991780">
        <ele>551.0</ele>
        <time>2019-05-11T11:02:07Z</time>
      </trkpt>
      <trkpt lat="39.1942290" lon="-1.3992360">
        <ele>551.0</ele>
        <time>2019-05-11T11:02:08Z</time>
      </trkpt>
      <trkpt lat="39.1942320" lon="-1.3992910">
        <ele>551.0</ele>
        <time>2019-05-11T11:02:09Z</time>
      </trkpt>
      <trkpt lat="39.1942330" lon="-1.3993460">
        <ele>551.0</ele>
        <time>2019-05-11T11:02:10Z</time>
      </trkpt>
      <trkpt lat="39.1942320" lon="-1.3994020">
        <ele>551.0</ele>
        <time>2019-05-11T11:02:11Z</time>
      </trkpt>
      <trkpt lat="39.1942310" lon="-1.3994570">
        <ele>551.0</ele>
        <time>2019-05-11T11:02:12Z</time>
      </trkpt>
      <trkpt lat="39.1942310" lon="-1.3995140">
        <ele>551.0</ele>
        <time>2019-05-11T11:02:13Z</time>
      </trkpt>
      <trkpt lat="39.1942290" lon="-1.3995670">
        <ele>551.0</ele>
        <time>2019-05-11T11:02:14Z</time>
      </trkpt>
      <trkpt lat="39.1942300" lon="-1.3996200">
        <ele>551.2</ele>
        <time>2019-05-11T11:02:15Z</time>
      </trkpt>
      <trkpt lat="39.1942320" lon="-1.3996720">
        <ele>551.2</ele>
        <time>2019-05-11T11:02:16Z</time>
      </trkpt>
      <trkpt lat="39.1942340" lon="-1.3997230">
        <ele>551.2</ele>
        <time>2019-05-11T11:02:17Z</time>
      </trkpt>
      <trkpt lat="39.1942340" lon="-1.3997710">
        <ele>551.2</ele>
        <time>2019-05-11T11:02:18Z</time>
      </trkpt>
      <trkpt lat="39.1942330" lon="-1.3998160">
        <ele>551.2</ele>
        <time>2019-05-11T11:02:19Z</time>
      </trkpt>
      <trkpt lat="39.1942320" lon="-1.3998590">
        <ele>551.4</ele>
        <time>2019-05-11T11:02:20Z</time>
      </trkpt>
      <trkpt lat="39.1942300" lon="-1.3999050">
        <ele>551.4</ele>
        <time>2019-05-11T11:02:21Z</time>
      </trkpt>
      <trkpt lat="39.1942310" lon="-1.3999540">
        <ele>551.6</ele>
        <time>2019-05-11T11:02:22Z</time>
      </trkpt>
      <trkpt lat="39.1942350" lon="-1.4000090">
        <ele>552.2</ele>
        <time>2019-05-11T11:02:23Z</time>
      </trkpt>
      <trkpt lat="39.1942370" lon="-1.4000680">
        <ele>552.4</ele>
        <time>2019-05-11T11:02:24Z</time>
      </trkpt>
      <trkpt lat="39.1942460" lon="-1.4001330">
        <ele>552.6</ele>
        <time>2019-05-11T11:02:25Z</time>
      </trkpt>
      <trkpt lat="39.1942640" lon="-1.4001960">
        <ele>552.8</ele>
        <time>2019-05-11T11:02:26Z</time>
      </trkpt>
      <trkpt lat="39.1942910" lon="-1.4002560">
        <ele>552.8</ele>
        <time>2019-05-11T11:02:27Z</time>
      </trkpt>
      <trkpt lat="39.1943180" lon="-1.4003170">
        <ele>553.0</ele>
        <time>2019-05-11T11:02:28Z</time>
      </trkpt>
      <trkpt lat="39.1943450" lon="-1.4003820">
        <ele>553.0</ele>
        <time>2019-05-11T11:02:29Z</time>
      </trkpt>
      <trkpt lat="39.1943700" lon="-1.4004520">
        <ele>553.0</ele>
        <time>2019-05-11T11:02:30Z</time>
      </trkpt>
      <trkpt lat="39.1943930" lon="-1.4005220">
        <ele>553.0</ele>
        <time>2019-05-11T11:02:31Z</time>
      </trkpt>
      <trkpt lat="39.1944150" lon="-1.4005940">
        <ele>553.0</ele>
        <time>2019-05-11T11:02:32Z</time>
      </trkpt>
      <trkpt lat="39.1944380" lon="-1.4006670">
        <ele>553.0</ele>
        <time>2019-05-11T11:02:33Z</time>
      </trkpt>
      <trkpt lat="39.1944650" lon="-1.4007400">
        <ele>553.0</ele>
        <time>2019-05-11T11:02:34Z</time>
      </trkpt>
      <trkpt lat="39.1944890" lon="-1.4008120">
        <ele>553.0</ele>
        <time>2019-05-11T11:02:35Z</time>
      </trkpt>
      <trkpt lat="39.1945170" lon="-1.4008880">
        <ele>553.0</ele>
        <time>2019-05-11T11:02:36Z</time>
      </trkpt>
      <trkpt lat="39.1945480" lon="-1.4009660">
        <ele>552.8</ele>
        <time>2019-05-11T11:02:37Z</time>
      </trkpt>
      <trkpt lat="39.1945830" lon="-1.4010440">
        <ele>552.8</ele>
        <time>2019-05-11T11:02:38Z</time>
      </trkpt>
      <trkpt lat="39.1946220" lon="-1.4011250">
        <ele>552.6</ele>
        <time>2019-05-11T11:02:39Z</time>
      </trkpt>
      <trkpt lat="39.1946570" lon="-1.4012080">
        <ele>552.6</ele>
        <time>2019-05-11T11:02:40Z</time>
      </trkpt>
      <trkpt lat="39.1946900" lon="-1.4012900">
        <ele>552.6</ele>
        <time>2019-05-11T11:02:41Z</time>
      </trkpt>
      <trkpt lat="39.1947200" lon="-1.4013730">
        <ele>552.4</ele>
        <time>2019-05-11T11:02:42Z</time>
      </trkpt>
      <trkpt lat="39.1947500" lon="-1.4014550">
        <ele>552.0</ele>
        <time>2019-05-11T11:02:43Z</time>
      </trkpt>
      <trkpt lat="39.1947790" lon="-1.4015370">
        <ele>551.6</ele>
        <time>2019-05-11T11:02:44Z</time>
      </trkpt>
      <trkpt lat="39.1948120" lon="-1.4016190">
        <ele>551.6</ele>
        <time>2019-05-11T11:02:45Z</time>
      </trkpt>
      <trkpt lat="39.1948470" lon="-1.4016970">
        <ele>551.2</ele>
        <time>2019-05-11T11:02:46Z</time>
      </trkpt>
      <trkpt lat="39.1948870" lon="-1.4017750">
        <ele>550.8</ele>
        <time>2019-05-11T11:02:47Z</time>
      </trkpt>
      <trkpt lat="39.1949370" lon="-1.4018550">
        <ele>550.6</ele>
        <time>2019-05-11T11:02:48Z</time>
      </trkpt>
      <trkpt lat="39.1949940" lon="-1.4019350">
        <ele>550.4</ele>
        <time>2019-05-11T11:02:49Z</time>
      </trkpt>
      <trkpt lat="39.1950580" lon="-1.4020180">
        <ele>550.2</ele>
        <time>2019-05-11T11:02:50Z</time>
      </trkpt>
      <trkpt lat="39.1951180" lon="-1.4021060">
        <ele>550.0</ele>
        <time>2019-05-11T11:02:51Z</time>
      </trkpt>
      <trkpt lat="39.1951790" lon="-1.4021950">
        <ele>550.0</ele>
        <time>2019-05-11T11:02:52Z</time>
      </trkpt>
      <trkpt lat="39.1952390" lon="-1.4022840">
        <ele>549.8</ele>
        <time>2019-05-11T11:02:53Z</time>
      </trkpt>
      <trkpt lat="39.1953010" lon="-1.4023660">
        <ele>549.6</ele>
        <time>2019-05-11T11:02:54Z</time>
      </trkpt>
      <trkpt lat="39.1953700" lon="-1.4024450">
        <ele>549.4</ele>
        <time>2019-05-11T11:02:55Z</time>
      </trkpt>
      <trkpt lat="39.1954400" lon="-1.4025190">
        <ele>549.0</ele>
        <time>2019-05-11T11:02:56Z</time>
      </trkpt>
      <trkpt lat="39.1955070" lon="-1.4025900">
        <ele>548.6</ele>
        <time>2019-05-11T11:02:57Z</time>
      </trkpt>
      <trkpt lat="39.1955710" lon="-1.4026600">
        <ele>547.4</ele>
        <time>2019-05-11T11:02:58Z</time>
      </trkpt>
      <trkpt lat="39.1956310" lon="-1.4027310">
        <ele>546.8</ele>
        <time>2019-05-11T11:02:59Z</time>
      </trkpt>
      <trkpt lat="39.1956890" lon="-1.4028030">
        <ele>546.2</ele>
        <time>2019-05-11T11:03:00Z</time>
      </trkpt>
      <trkpt lat="39.1957480" lon="-1.4028750">
        <ele>545.6</ele>
        <time>2019-05-11T11:03:01Z</time>
      </trkpt>
      <trkpt lat="39.1958090" lon="-1.4029470">
        <ele>545.2</ele>
        <time>2019-05-11T11:03:02Z</time>
      </trkpt>
      <trkpt lat="39.1958690" lon="-1.4030190">
        <ele>544.8</ele>
        <time>2019-05-11T11:03:03Z</time>
      </trkpt>
      <trkpt lat="39.1959280" lon="-1.4030900">
        <ele>544.6</ele>
        <time>2019-05-11T11:03:04Z</time>
      </trkpt>
      <trkpt lat="39.1959860" lon="-1.4031580">
        <ele>544.2</ele>
        <time>2019-05-11T11:03:05Z</time>
      </trkpt>
      <trkpt lat="39.1960430" lon="-1.4032320">
        <ele>544.0</ele>
        <time>2019-05-11T11:03:06Z</time>
      </trkpt>
      <trkpt lat="39.1960990" lon="-1.4033090">
        <ele>543.8</ele>
        <time>2019-05-11T11:03:07Z</time>
      </trkpt>
      <trkpt lat="39.1961580" lon="-1.4033840">
        <ele>543.4</ele>
        <time>2019-05-11T11:03:08Z</time>
      </trkpt>
      <trkpt lat="39.1962160" lon="-1.4034580">
        <ele>543.2</ele>
        <time>2019-05-11T11:03:09Z</time>
      </trkpt>
      <trkpt lat="39.1962740" lon="-1.4035290">
        <ele>542.8</ele>
        <time>2019-05-11T11:03:10Z</time>
      </trkpt>
      <trkpt lat="39.1963260" lon="-1.4035980">
        <ele>542.6</ele>
        <time>2019-05-11T11:03:11Z</time>
      </trkpt>
      <trkpt lat="39.1963780" lon="-1.4036610">
        <ele>542.6</ele>
        <time>2019-05-11T11:03:12Z</time>
      </trkpt>
      <trkpt lat="39.1964250" lon="-1.4037240">
        <ele>542.4</ele>
        <time>2019-05-11T11:03:13Z</time>
      </trkpt>
      <trkpt lat="39.1964670" lon="-1.4037880">
        <ele>542.2</ele>
        <time>2019-05-11T11:03:14Z</time>
      </trkpt>
      <trkpt lat="39.1965070" lon="-1.4038470">
        <ele>542.2</ele>
        <time>2019-05-11T11:03:15Z</time>
      </trkpt>
      <trkpt lat="39.1965450" lon="-1.4039060">
        <ele>542.2</ele>
        <time>2019-05-11T11:03:16Z</time>
      </trkpt>
      <trkpt lat="39.1965840" lon="-1.4039590">
        <ele>542.0</ele>
        <time>2019-05-11T11:03:17Z</time>
      </trkpt>
      <trkpt lat="39.1966230" lon="-1.4040010">
        <ele>542.0</ele>
        <time>2019-05-11T11:03:18Z</time>
      </trkpt>
      <trkpt lat="39.1966620" lon="-1.4040340">
        <ele>542.0</ele>
        <time>2019-05-11T11:03:19Z</time>
      </trkpt>
      <trkpt lat="39.1967000" lon="-1.4040560">
        <ele>542.0</ele>
        <time>2019-05-11T11:03:20Z</time>
      </trkpt>
      <trkpt lat="39.1967370" lon="-1.4040730">
        <ele>542.0</ele>
        <time>2019-05-11T11:03:21Z</time>
      </trkpt>
      <trkpt lat="39.1967770" lon="-1.4040870">
        <ele>542.0</ele>
        <time>2019-05-11T11:03:22Z</time>
      </trkpt>
      <trkpt lat="39.1968180" lon="-1.4041030">
        <ele>542.0</ele>
        <time>2019-05-11T11:03:23Z</time>
      </trkpt>
      <trkpt lat="39.1968630" lon="-1.4041240">
        <ele>542.2</ele>
        <time>2019-05-11T11:03:24Z</time>
      </trkpt>
      <trkpt lat="39.1969010" lon="-1.4041530">
        <ele>542.2</ele>
        <time>2019-05-11T11:03:25Z</time>
      </trkpt>
      <trkpt lat="39.1969420" lon="-1.4041790">
        <ele>542.4</ele>
        <time>2019-05-11T11:03:26Z</time>
      </trkpt>
      <trkpt lat="39.1969870" lon="-1.4042040">
        <ele>542.8</ele>
        <time>2019-05-11T11:03:27Z</time>
      </trkpt>
      <trkpt lat="39.1970300" lon="-1.4042360">
        <ele>543.0</ele>
        <time>2019-05-11T11:03:28Z</time>
      </trkpt>
      <trkpt lat="39.1970760" lon="-1.4042720">
        <ele>543.2</ele>
        <time>2019-05-11T11:03:29Z</time>
      </trkpt>
      <trkpt lat="39.1971230" lon="-1.4043090">
        <ele>543.2</ele>
        <time>2019-05-11T11:03:30Z</time>
      </trkpt>
      <trkpt lat="39.1971740" lon="-1.4043470">
        <ele>543.2</ele>
        <time>2019-05-11T11:03:31Z</time>
      </trkpt>
      <trkpt lat="39.1972280" lon="-1.4043820">
        <ele>543.2</ele>
        <time>2019-05-11T11:03:32Z</time>
      </trkpt>
      <trkpt lat="39.1972820" lon="-1.4044220">
        <ele>543.4</ele>
        <time>2019-05-11T11:03:33Z</time>
      </trkpt>
      <trkpt lat="39.1973360" lon="-1.4044660">
        <ele>543.4</ele>
        <time>2019-05-11T11:03:34Z</time>
      </trkpt>
      <trkpt lat="39.1973910" lon="-1.4045130">
        <ele>543.4</ele>
        <time>2019-05-11T11:03:35Z</time>
      </trkpt>
      <trkpt lat="39.1974380" lon="-1.4045660">
        <ele>543.4</ele>
        <time>2019-05-11T11:03:36Z</time>
      </trkpt>
      <trkpt lat="39.1974730" lon="-1.4046250">
        <ele>543.4</ele>
        <time>2019-05-11T11:03:37Z</time>
      </trkpt>
      <trkpt lat="39.1974950" lon="-1.4046880">
        <ele>543.4</ele>
        <time>2019-05-11T11:03:38Z</time>
      </trkpt>
      <trkpt lat="39.1975080" lon="-1.4047530">
        <ele>543.4</ele>
        <time>2019-05-11T11:03:39Z</time>
      </trkpt>
      <trkpt lat="39.1975100" lon="-1.4048120">
        <ele>543.4</ele>
        <time>2019-05-11T11:03:40Z</time>
      </trkpt>
      <trkpt lat="39.1975060" lon="-1.4048650">
        <ele>543.4</ele>
        <time>2019-05-11T11:03:41Z</time>
      </trkpt>
      <trkpt lat="39.1975030" lon="-1.4049130">
        <ele>543.4</ele>
        <time>2019-05-11T11:03:42Z</time>
      </trkpt>
      <trkpt lat="39.1975010" lon="-1.4049580">
        <ele>543.4</ele>
        <time>2019-05-11T11:03:43Z</time>
      </trkpt>
      <trkpt lat="39.1974980" lon="-1.4049990">
        <ele>543.4</ele>
        <time>2019-05-11T11:03:44Z</time>
      </trkpt>
      <trkpt lat="39.1974910" lon="-1.4050380">
        <ele>543.4</ele>
        <time>2019-05-11T11:03:45Z</time>
      </trkpt>
      <trkpt lat="39.1974820" lon="-1.4050750">
        <ele>543.4</ele>
        <time>2019-05-11T11:03:46Z</time>
      </trkpt>
      <trkpt lat="39.1974730" lon="-1.4051110">
        <ele>543.4</ele>
        <time>2019-05-11T11:03:47Z</time>
      </trkpt>
      <trkpt lat="39.1974640" lon="-1.4051510">
        <ele>543.4</ele>
        <time>2019-05-11T11:03:48Z</time>
      </trkpt>
      <trkpt lat="39.1974550" lon="-1.4051920">
        <ele>543.6</ele>
        <time>2019-05-11T11:03:49Z</time>
      </trkpt>
      <trkpt lat="39.1974450" lon="-1.4052370">
        <ele>543.8</ele>
        <time>2019-05-11T11:03:50Z</time>
      </trkpt>
      <trkpt lat="39.1974320" lon="-1.4052840">
        <ele>544.0</ele>
        <time>2019-05-11T11:03:51Z</time>
      </trkpt>
      <trkpt lat="39.1974150" lon="-1.4053330">
        <ele>544.2</ele>
        <time>2019-05-11T11:03:52Z</time>
      </trkpt>
      <trkpt lat="39.1973920" lon="-1.4053820">
        <ele>544.4</ele>
        <time>2019-05-11T11:03:53Z</time>
      </trkpt>
      <trkpt lat="39.1973680" lon="-1.4054310">
        <ele>544.4</ele>
        <time>2019-05-11T11:03:54Z</time>
      </trkpt>
      <trkpt lat="39.1973420" lon="-1.4054800">
        <ele>544.6</ele>
        <time>2019-05-11T11:03:55Z</time>
      </trkpt>
      <trkpt lat="39.1973180" lon="-1.4055290">
        <ele>545.0</ele>
        <time>2019-05-11T11:03:56Z</time>
      </trkpt>
      <trkpt lat="39.1972920" lon="-1.4055770">
        <ele>545.0</ele>
        <time>2019-05-11T11:03:57Z</time>
      </trkpt>
      <trkpt lat="39.1972680" lon="-1.4056260">
        <ele>545.2</ele>
        <time>2019-05-11T11:03:58Z</time>
      </trkpt>
      <trkpt lat="39.1972430" lon="-1.4056750">
        <ele>545.2</ele>
        <time>2019-05-11T11:03:59Z</time>
      </trkpt>
      <trkpt lat="39.1972230" lon="-1.4057300">
        <ele>545.4</ele>
        <time>2019-05-11T11:04:00Z</time>
      </trkpt>
      <trkpt lat="39.1972040" lon="-1.4057900">
        <ele>545.4</ele>
        <time>2019-05-11T11:04:01Z</time>
      </trkpt>
      <trkpt lat="39.1971750" lon="-1.4058460">
        <ele>545.6</ele>
        <time>2019-05-11T11:04:02Z</time>
      </trkpt>
      <trkpt lat="39.1971420" lon="-1.4059020">
        <ele>545.6</ele>
        <time>2019-05-11T11:04:03Z</time>
      </trkpt>
      <trkpt lat="39.1971140" lon="-1.4059630">
        <ele>545.6</ele>
        <time>2019-05-11T11:04:04Z</time>
      </trkpt>
      <trkpt lat="39.1970760" lon="-1.4060240">
        <ele>545.6</ele>
        <time>2019-05-11T11:04:05Z</time>
      </trkpt>
      <trkpt lat="39.1970350" lon="-1.4060890">
        <ele>545.6</ele>
        <time>2019-05-11T11:04:06Z</time>
      </trkpt>
      <trkpt lat="39.1969890" lon="-1.4061510">
        <ele>545.6</ele>
        <time>2019-05-11T11:04:07Z</time>
      </trkpt>
      <trkpt lat="39.1969470" lon="-1.4062170">
        <ele>545.6</ele>
        <time>2019-05-11T11:04:08Z</time>
      </trkpt>
      <trkpt lat="39.1969020" lon="-1.4062840">
        <ele>545.6</ele>
        <time>2019-05-11T11:04:09Z</time>
      </trkpt>
      <trkpt lat="39.1968620" lon="-1.4063500">
        <ele>545.4</ele>
        <time>2019-05-11T11:04:10Z</time>
      </trkpt>
      <trkpt lat="39.1968270" lon="-1.4064110">
        <ele>545.2</ele>
        <time>2019-05-11T11:04:11Z</time>
      </trkpt>
      <trkpt lat="39.1967900" lon="-1.4064610">
        <ele>545.0</ele>
        <time>2019-05-11T11:04:12Z</time>
      </trkpt>
      <trkpt lat="39.1967520" lon="-1.4065030">
        <ele>545.0</ele>
        <time>2019-05-11T11:04:13Z</time>
      </trkpt>
      <trkpt lat="39.1967170" lon="-1.4065430">
        <ele>545.0</ele>
        <time>2019-05-11T11:04:14Z</time>
      </trkpt>
      <trkpt lat="39.1966900" lon="-1.4065780">
        <ele>545.0</ele>
        <time>2019-05-11T11:04:15Z</time>
      </trkpt>
      <trkpt lat="39.1966680" lon="-1.4066050">
        <ele>545.0</ele>
        <time>2019-05-11T11:04:16Z</time>
      </trkpt>
      <trkpt lat="39.1966450" lon="-1.4066350">
        <ele>544.8</ele>
        <time>2019-05-11T11:04:17Z</time>
      </trkpt>
      <trkpt lat="39.1966200" lon="-1.4066630">
        <ele>544.8</ele>
        <time>2019-05-11T11:04:18Z</time>
      </trkpt>
      <trkpt lat="39.1965920" lon="-1.4066970">
        <ele>544.8</ele>
        <time>2019-05-11T11:04:19Z</time>
      </trkpt>
      <trkpt lat="39.1965620" lon="-1.4067300">
        <ele>544.8</ele>
        <time>2019-05-11T11:04:20Z</time>
      </trkpt>
      <trkpt lat="39.1965320" lon="-1.4067660">
        <ele>544.8</ele>
        <time>2019-05-11T11:04:21Z</time>
      </trkpt>
      <trkpt lat="39.1965000" lon="-1.4068060">
        <ele>545.0</ele>
        <time>2019-05-11T11:04:22Z</time>
      </trkpt>
      <trkpt lat="39.1964700" lon="-1.4068390">
        <ele>545.2</ele>
        <time>2019-05-11T11:04:23Z</time>
      </trkpt>
      <trkpt lat="39.1964420" lon="-1.4068840">
        <ele>545.4</ele>
        <time>2019-05-11T11:04:24Z</time>
      </trkpt>
      <trkpt lat="39.1964160" lon="-1.4069310">
        <ele>545.4</ele>
        <time>2019-05-11T11:04:25Z</time>
      </trkpt>
      <trkpt lat="39.1963910" lon="-1.4069800">
        <ele>545.6</ele>
        <time>2019-05-11T11:04:26Z</time>
      </trkpt>
      <trkpt lat="39.1963650" lon="-1.4070310">
        <ele>545.6</ele>
        <time>2019-05-11T11:04:27Z</time>
      </trkpt>
      <trkpt lat="39.1963410" lon="-1.4070830">
        <ele>545.8</ele>
        <time>2019-05-11T11:04:28Z</time>
      </trkpt>
      <trkpt lat="39.1963200" lon="-1.4071420">
        <ele>545.8</ele>
        <time>2019-05-11T11:04:29Z</time>
      </trkpt>
      <trkpt lat="39.1962920" lon="-1.4072040">
        <ele>545.8</ele>
        <time>2019-05-11T11:04:30Z</time>
      </trkpt>
      <trkpt lat="39.1962580" lon="-1.4072710">
        <ele>545.8</ele>
        <time>2019-05-11T11:04:31Z</time>
      </trkpt>
      <trkpt lat="39.1962160" lon="-1.4073390">
        <ele>545.8</ele>
        <time>2019-05-11T11:04:32Z</time>
      </trkpt>
      <trkpt lat="39.1961740" lon="-1.4074070">
        <ele>545.8</ele>
        <time>2019-05-11T11:04:33Z</time>
      </trkpt>
      <trkpt lat="39.1961340" lon="-1.4074740">
        <ele>545.8</ele>
        <time>2019-05-11T11:04:34Z</time>
      </trkpt>
      <trkpt lat="39.1960950" lon="-1.4075380">
        <ele>545.8</ele>
        <time>2019-05-11T11:04:35Z</time>
      </trkpt>
      <trkpt lat="39.1960580" lon="-1.4076070">
        <ele>545.8</ele>
        <time>2019-05-11T11:04:36Z</time>
      </trkpt>
      <trkpt lat="39.1960260" lon="-1.4076830">
        <ele>545.8</ele>
        <time>2019-05-11T11:04:37Z</time>
      </trkpt>
      <trkpt lat="39.1959990" lon="-1.4077660">
        <ele>545.8</ele>
        <time>2019-05-11T11:04:38Z</time>
      </trkpt>
      <trkpt lat="39.1959760" lon="-1.4078550">
        <ele>545.6</ele>
        <time>2019-05-11T11:04:39Z</time>
      </trkpt>
      <trkpt lat="39.1959530" lon="-1.4079480">
        <ele>545.4</ele>
        <time>2019-05-11T11:04:40Z</time>
      </trkpt>
      <trkpt lat="39.1959360" lon="-1.4080420">
        <ele>545.2</ele>
        <time>2019-05-11T11:04:41Z</time>
      </trkpt>
      <trkpt lat="39.1959210" lon="-1.4081420">
        <ele>544.8</ele>
        <time>2019-05-11T11:04:42Z</time>
      </trkpt>
      <trkpt lat="39.1959080" lon="-1.4082410">
        <ele>544.6</ele>
        <time>2019-05-11T11:04:43Z</time>
      </trkpt>
      <trkpt lat="39.1958970" lon="-1.4083390">
        <ele>544.4</ele>
        <time>2019-05-11T11:04:44Z</time>
      </trkpt>
      <trkpt lat="39.1958840" lon="-1.4084330">
        <ele>544.4</ele>
        <time>2019-05-11T11:04:45Z</time>
      </trkpt>
      <trkpt lat="39.1958640" lon="-1.4085260">
        <ele>544.2</ele>
        <time>2019-05-11T11:04:46Z</time>
      </trkpt>
      <trkpt lat="39.1958430" lon="-1.4086220">
        <ele>544.2</ele>
        <time>2019-05-11T11:04:47Z</time>
      </trkpt>
      <trkpt lat="39.1958270" lon="-1.4087250">
        <ele>544.0</ele>
        <time>2019-05-11T11:04:48Z</time>
      </trkpt>
      <trkpt lat="39.1958190" lon="-1.4088310">
        <ele>543.8</ele>
        <time>2019-05-11T11:04:49Z</time>
      </trkpt>
      <trkpt lat="39.1958120" lon="-1.4089350">
        <ele>543.6</ele>
        <time>2019-05-11T11:04:50Z</time>
      </trkpt>
      <trkpt lat="39.1958030" lon="-1.4090350">
        <ele>543.4</ele>
        <time>2019-05-11T11:04:51Z</time>
      </trkpt>
      <trkpt lat="39.1957930" lon="-1.4091390">
        <ele>543.0</ele>
        <time>2019-05-11T11:04:52Z</time>
      </trkpt>
      <trkpt lat="39.1957860" lon="-1.4092480">
        <ele>542.8</ele>
        <time>2019-05-11T11:04:53Z</time>
      </trkpt>
      <trkpt lat="39.1957870" lon="-1.4093480">
        <ele>542.4</ele>
        <time>2019-05-11T11:04:54Z</time>
      </trkpt>
      <trkpt lat="39.1957910" lon="-1.4094520">
        <ele>541.8</ele>
        <time>2019-05-11T11:04:55Z</time>
      </trkpt>
      <trkpt lat="39.1957950" lon="-1.4095500">
        <ele>541.6</ele>
        <time>2019-05-11T11:04:56Z</time>
      </trkpt>
      <trkpt lat="39.1957920" lon="-1.4096430">
        <ele>541.0</ele>
        <time>2019-05-11T11:04:57Z</time>
      </trkpt>
      <trkpt lat="39.1957850" lon="-1.4097300">
        <ele>540.8</ele>
        <time>2019-05-11T11:04:58Z</time>
      </trkpt>
      <trkpt lat="39.1957830" lon="-1.4098080">
        <ele>540.8</ele>
        <time>2019-05-11T11:04:59Z</time>
      </trkpt>
      <trkpt lat="39.1957800" lon="-1.4098830">
        <ele>540.6</ele>
        <time>2019-05-11T11:05:00Z</time>
      </trkpt>
      <trkpt lat="39.1957770" lon="-1.4099560">
        <ele>540.6</ele>
        <time>2019-05-11T11:05:01Z</time>
      </trkpt>
      <trkpt lat="39.1957770" lon="-1.4100290">
        <ele>540.4</ele>
        <time>2019-05-11T11:05:02Z</time>
      </trkpt>
      <trkpt lat="39.1957830" lon="-1.4101010">
        <ele>540.2</ele>
        <time>2019-05-11T11:05:03Z</time>
      </trkpt>
      <trkpt lat="39.1957930" lon="-1.4101740">
        <ele>540.2</ele>
        <time>2019-05-11T11:05:04Z</time>
      </trkpt>
      <trkpt lat="39.1958000" lon="-1.4102460">
        <ele>540.2</ele>
        <time>2019-05-11T11:05:05Z</time>
      </trkpt>
      <trkpt lat="39.1958060" lon="-1.4103210">
        <ele>540.2</ele>
        <time>2019-05-11T11:05:06Z</time>
      </trkpt>
      <trkpt lat="39.1958100" lon="-1.4103970">
        <ele>540.0</ele>
        <time>2019-05-11T11:05:07Z</time>
      </trkpt>
      <trkpt lat="39.1958150" lon="-1.4104710">
        <ele>540.0</ele>
        <time>2019-05-11T11:05:08Z</time>
      </trkpt>
      <trkpt lat="39.1958200" lon="-1.4105460">
        <ele>540.0</ele>
        <time>2019-05-11T11:05:09Z</time>
      </trkpt>
      <trkpt lat="39.1958240" lon="-1.4106190">
        <ele>540.0</ele>
        <time>2019-05-11T11:05:10Z</time>
      </trkpt>
      <trkpt lat="39.1958270" lon="-1.4106880">
        <ele>540.0</ele>
        <time>2019-05-11T11:05:11Z</time>
      </trkpt>
      <trkpt lat="39.1958280" lon="-1.4107560">
        <ele>540.0</ele>
        <time>2019-05-11T11:05:12Z</time>
      </trkpt>
      <trkpt lat="39.1958260" lon="-1.4108240">
        <ele>540.0</ele>
        <time>2019-05-11T11:05:13Z</time>
      </trkpt>
      <trkpt lat="39.1958240" lon="-1.4108930">
        <ele>540.0</ele>
        <time>2019-05-11T11:05:14Z</time>
      </trkpt>
      <trkpt lat="39.1958200" lon="-1.4109650">
        <ele>540.0</ele>
        <time>2019-05-11T11:05:15Z</time>
      </trkpt>
      <trkpt lat="39.1958110" lon="-1.4110390">
        <ele>540.0</ele>
        <time>2019-05-11T11:05:16Z</time>
      </trkpt>
      <trkpt lat="39.1958030" lon="-1.4111130">
        <ele>540.0</ele>
        <time>2019-05-11T11:05:17Z</time>
      </trkpt>
      <trkpt lat="39.1958040" lon="-1.4111910">
        <ele>540.0</ele>
        <time>2019-05-11T11:05:18Z</time>
      </trkpt>
      <trkpt lat="39.1958180" lon="-1.4112670">
        <ele>540.0</ele>
        <time>2019-05-11T11:05:19Z</time>
      </trkpt>
      <trkpt lat="39.1958480" lon="-1.4113390">
        <ele>540.0</ele>
        <time>2019-05-11T11:05:20Z</time>
      </trkpt>
      <trkpt lat="39.1958870" lon="-1.4114020">
        <ele>540.0</ele>
        <time>2019-05-11T11:05:21Z</time>
      </trkpt>
      <trkpt lat="39.1959220" lon="-1.4114670">
        <ele>539.8</ele>
        <time>2019-05-11T11:05:22Z</time>
      </trkpt>
      <trkpt lat="39.1959470" lon="-1.4115440">
        <ele>539.8</ele>
        <time>2019-05-11T11:05:23Z</time>
      </trkpt>
      <trkpt lat="39.1959670" lon="-1.4116310">
        <ele>539.8</ele>
        <time>2019-05-11T11:05:24Z</time>
      </trkpt>
      <trkpt lat="39.1959790" lon="-1.4117210">
        <ele>539.6</ele>
        <time>2019-05-11T11:05:25Z</time>
      </trkpt>
      <trkpt lat="39.1959900" lon="-1.4118110">
        <ele>539.6</ele>
        <time>2019-05-11T11:05:26Z</time>
      </trkpt>
      <trkpt lat="39.1959980" lon="-1.4119010">
        <ele>539.4</ele>
        <time>2019-05-11T11:05:27Z</time>
      </trkpt>
      <trkpt lat="39.1960050" lon="-1.4119900">
        <ele>539.4</ele>
        <time>2019-05-11T11:05:28Z</time>
      </trkpt>
      <trkpt lat="39.1960140" lon="-1.4120750">
        <ele>539.0</ele>
        <time>2019-05-11T11:05:29Z</time>
      </trkpt>
      <trkpt lat="39.1960210" lon="-1.4121570">
        <ele>538.8</ele>
        <time>2019-05-11T11:05:30Z</time>
      </trkpt>
      <trkpt lat="39.1960230" lon="-1.4122370">
        <ele>538.6</ele>
        <time>2019-05-11T11:05:31Z</time>
      </trkpt>
      <trkpt lat="39.1960230" lon="-1.4123110">
        <ele>538.2</ele>
        <time>2019-05-11T11:05:32Z</time>
      </trkpt>
      <trkpt lat="39.1960220" lon="-1.4123850">
        <ele>538.0</ele>
        <time>2019-05-11T11:05:33Z</time>
      </trkpt>
      <trkpt lat="39.1960200" lon="-1.4124580">
        <ele>537.8</ele>
        <time>2019-05-11T11:05:34Z</time>
      </trkpt>
      <trkpt lat="39.1960160" lon="-1.4125300">
        <ele>537.6</ele>
        <time>2019-05-11T11:05:35Z</time>
      </trkpt>
      <trkpt lat="39.1960090" lon="-1.4126020">
        <ele>537.6</ele>
        <time>2019-05-11T11:05:36Z</time>
      </trkpt>
      <trkpt lat="39.1960000" lon="-1.4126720">
        <ele>537.6</ele>
        <time>2019-05-11T11:05:37Z</time>
      </trkpt>
      <trkpt lat="39.1959800" lon="-1.4127410">
        <ele>537.6</ele>
        <time>2019-05-11T11:05:38Z</time>
      </trkpt>
      <trkpt lat="39.1959550" lon="-1.4128070">
        <ele>537.4</ele>
        <time>2019-05-11T11:05:39Z</time>
      </trkpt>
      <trkpt lat="39.1959270" lon="-1.4128800">
        <ele>537.4</ele>
        <time>2019-05-11T11:05:40Z</time>
      </trkpt>
      <trkpt lat="39.1959080" lon="-1.4129630">
        <ele>537.4</ele>
        <time>2019-05-11T11:05:41Z</time>
      </trkpt>
      <trkpt lat="39.1959030" lon="-1.4130510">
        <ele>537.4</ele>
        <time>2019-05-11T11:05:42Z</time>
      </trkpt>
      <trkpt lat="39.1959000" lon="-1.4131350">
        <ele>537.4</ele>
        <time>2019-05-11T11:05:43Z</time>
      </trkpt>
      <trkpt lat="39.1958950" lon="-1.4132120">
        <ele>537.4</ele>
        <time>2019-05-11T11:05:44Z</time>
      </trkpt>
      <trkpt lat="39.1958850" lon="-1.4132850">
        <ele>537.4</ele>
        <time>2019-05-11T11:05:45Z</time>
      </trkpt>
      <trkpt lat="39.1958680" lon="-1.4133510">
        <ele>537.2</ele>
        <time>2019-05-11T11:05:46Z</time>
      </trkpt>
      <trkpt lat="39.1958420" lon="-1.4134130">
        <ele>537.0</ele>
        <time>2019-05-11T11:05:47Z</time>
      </trkpt>
      <trkpt lat="39.1958120" lon="-1.4134750">
        <ele>536.8</ele>
        <time>2019-05-11T11:05:48Z</time>
      </trkpt>
      <trkpt lat="39.1957800" lon="-1.4135310">
        <ele>536.8</ele>
        <time>2019-05-11T11:05:49Z</time>
      </trkpt>
      <trkpt lat="39.1957490" lon="-1.4135830">
        <ele>536.6</ele>
        <time>2019-05-11T11:05:50Z</time>
      </trkpt>
      <trkpt lat="39.1957190" lon="-1.4136320">
        <ele>536.6</ele>
        <time>2019-05-11T11:05:51Z</time>
      </trkpt>
      <trkpt lat="39.1956900" lon="-1.4136750">
        <ele>536.6</ele>
        <time>2019-05-11T11:05:52Z</time>
      </trkpt>
      <trkpt lat="39.1956640" lon="-1.4137180">
        <ele>536.6</ele>
        <time>2019-05-11T11:05:53Z</time>
      </trkpt>
      <trkpt lat="39.1956420" lon="-1.4137600">
        <ele>536.6</ele>
        <time>2019-05-11T11:05:54Z</time>
      </trkpt>
      <trkpt lat="39.1956230" lon="-1.4137950">
        <ele>536.6</ele>
        <time>2019-05-11T11:05:55Z</time>
      </trkpt>
      <trkpt lat="39.1956030" lon="-1.4138280">
        <ele>536.6</ele>
        <time>2019-05-11T11:05:56Z</time>
      </trkpt>
      <trkpt lat="39.1955840" lon="-1.4138580">
        <ele>536.6</ele>
        <time>2019-05-11T11:05:57Z</time>
      </trkpt>
      <trkpt lat="39.1955660" lon="-1.4138820">
        <ele>536.8</ele>
        <time>2019-05-11T11:05:58Z</time>
      </trkpt>
      <trkpt lat="39.1955510" lon="-1.4139040">
        <ele>537.0</ele>
        <time>2019-05-11T11:05:59Z</time>
      </trkpt>
      <trkpt lat="39.1955350" lon="-1.4139280">
        <ele>537.2</ele>
        <time>2019-05-11T11:06:00Z</time>
      </trkpt>
      <trkpt lat="39.1955200" lon="-1.4139590">
        <ele>537.4</ele>
        <time>2019-05-11T11:06:01Z</time>
      </trkpt>
      <trkpt lat="39.1955060" lon="-1.4139920">
        <ele>537.4</ele>
        <time>2019-05-11T11:06:02Z</time>
      </trkpt>
      <trkpt lat="39.1954920" lon="-1.4140250">
        <ele>537.6</ele>
        <time>2019-05-11T11:06:03Z</time>
      </trkpt>
      <trkpt lat="39.1954760" lon="-1.4140560">
        <ele>537.8</ele>
        <time>2019-05-11T11:06:04Z</time>
      </trkpt>
      <trkpt lat="39.1954580" lon="-1.4140860">
        <ele>538.2</ele>
        <time>2019-05-11T11:06:05Z</time>
      </trkpt>
      <trkpt lat="39.1954430" lon="-1.4141180">
        <ele>538.4</ele>
        <time>2019-05-11T11:06:06Z</time>
      </trkpt>
      <trkpt lat="39.1954280" lon="-1.4141480">
        <ele>538.6</ele>
        <time>2019-05-11T11:06:07Z</time>
      </trkpt>
      <trkpt lat="39.1954140" lon="-1.4141800">
        <ele>538.6</ele>
        <time>2019-05-11T11:06:08Z</time>
      </trkpt>
      <trkpt lat="39.1954000" lon="-1.4142110">
        <ele>538.8</ele>
        <time>2019-05-11T11:06:09Z</time>
      </trkpt>
      <trkpt lat="39.1953870" lon="-1.4142440">
        <ele>539.0</ele>
        <time>2019-05-11T11:06:10Z</time>
      </trkpt>
      <trkpt lat="39.1953750" lon="-1.4142710">
        <ele>539.2</ele>
        <time>2019-05-11T11:06:11Z</time>
      </trkpt>
      <trkpt lat="39.1953650" lon="-1.4142940">
        <ele>539.4</ele>
        <time>2019-05-11T11:06:12Z</time>
      </trkpt>
      <trkpt lat="39.1953570" lon="-1.4143190">
        <ele>539.6</ele>
        <time>2019-05-11T11:06:13Z</time>
      </trkpt>
      <trkpt lat="39.1953440" lon="-1.4143430">
        <ele>539.6</ele>
        <time>2019-05-11T11:06:14Z</time>
      </trkpt>
      <trkpt lat="39.1953300" lon="-1.4143720">
        <ele>539.8</ele>
        <time>2019-05-11T11:06:15Z</time>
      </trkpt>
      <trkpt lat="39.1953130" lon="-1.4144030">
        <ele>539.8</ele>
        <time>2019-05-11T11:06:16Z</time>
      </trkpt>
      <trkpt lat="39.1952970" lon="-1.4144390">
        <ele>540.0</ele>
        <time>2019-05-11T11:06:17Z</time>
      </trkpt>
      <trkpt lat="39.1952790" lon="-1.4144750">
        <ele>540.2</ele>
        <time>2019-05-11T11:06:18Z</time>
      </trkpt>
      <trkpt lat="39.1952610" lon="-1.4145170">
        <ele>540.2</ele>
        <time>2019-05-11T11:06:19Z</time>
      </trkpt>
      <trkpt lat="39.1952410" lon="-1.4145630">
        <ele>540.4</ele>
        <time>2019-05-11T11:06:20Z</time>
      </trkpt>
      <trkpt lat="39.1952180" lon="-1.4146100">
        <ele>540.4</ele>
        <time>2019-05-11T11:06:21Z</time>
      </trkpt>
      <trkpt lat="39.1951950" lon="-1.4146610">
        <ele>540.6</ele>
        <time>2019-05-11T11:06:22Z</time>
      </trkpt>
      <trkpt lat="39.1951680" lon="-1.4147160">
        <ele>540.6</ele>
        <time>2019-05-11T11:06:23Z</time>
      </trkpt>
      <trkpt lat="39.1951350" lon="-1.4147740">
        <ele>540.6</ele>
        <time>2019-05-11T11:06:24Z</time>
      </trkpt>
      <trkpt lat="39.1951000" lon="-1.4148310">
        <ele>540.8</ele>
        <time>2019-05-11T11:06:25Z</time>
      </trkpt>
      <trkpt lat="39.1950680" lon="-1.4148850">
        <ele>541.0</ele>
        <time>2019-05-11T11:06:26Z</time>
      </trkpt>
      <trkpt lat="39.1950380" lon="-1.4149320">
        <ele>541.0</ele>
        <time>2019-05-11T11:06:27Z</time>
      </trkpt>
      <trkpt lat="39.1950060" lon="-1.4149800">
        <ele>541.0</ele>
        <time>2019-05-11T11:06:28Z</time>
      </trkpt>
      <trkpt lat="39.1949690" lon="-1.4150300">
        <ele>541.0</ele>
        <time>2019-05-11T11:06:29Z</time>
      </trkpt>
      <trkpt lat="39.1949340" lon="-1.4150820">
        <ele>541.0</ele>
        <time>2019-05-11T11:06:30Z</time>
      </trkpt>
      <trkpt lat="39.1948910" lon="-1.4151350">
        <ele>540.8</ele>
        <time>2019-05-11T11:06:31Z</time>
      </trkpt>
      <trkpt lat="39.1948600" lon="-1.4151980">
        <ele>540.6</ele>
        <time>2019-05-11T11:06:32Z</time>
      </trkpt>
      <trkpt lat="39.1948260" lon="-1.4152610">
        <ele>540.4</ele>
        <time>2019-05-11T11:06:33Z</time>
      </trkpt>
      <trkpt lat="39.1947980" lon="-1.4153200">
        <ele>540.4</ele>
        <time>2019-05-11T11:06:34Z</time>
      </trkpt>
      <trkpt lat="39.1947680" lon="-1.4153760">
        <ele>540.4</ele>
        <time>2019-05-11T11:06:35Z</time>
      </trkpt>
      <trkpt lat="39.1947440" lon="-1.4154290">
        <ele>540.2</ele>
        <time>2019-05-11T11:06:36Z</time>
      </trkpt>
      <trkpt lat="39.1947240" lon="-1.4154790">
        <ele>540.2</ele>
        <time>2019-05-11T11:06:37Z</time>
      </trkpt>
      <trkpt lat="39.1947090" lon="-1.4155290">
        <ele>540.2</ele>
        <time>2019-05-11T11:06:38Z</time>
      </trkpt>
      <trkpt lat="39.1946920" lon="-1.4155770">
        <ele>540.2</ele>
        <time>2019-05-11T11:06:39Z</time>
      </trkpt>
      <trkpt lat="39.1946720" lon="-1.4156230">
        <ele>540.2</ele>
        <time>2019-05-11T11:06:40Z</time>
      </trkpt>
      <trkpt lat="39.1946440" lon="-1.4156640">
        <ele>540.2</ele>
        <time>2019-05-11T11:06:41Z</time>
      </trkpt>
      <trkpt lat="39.1946210" lon="-1.4157080">
        <ele>540.2</ele>
        <time>2019-05-11T11:06:42Z</time>
      </trkpt>
      <trkpt lat="39.1945960" lon="-1.4157470">
        <ele>540.2</ele>
        <time>2019-05-11T11:06:43Z</time>
      </trkpt>
      <trkpt lat="39.1945670" lon="-1.4157800">
        <ele>540.2</ele>
        <time>2019-05-11T11:06:44Z</time>
      </trkpt>
      <trkpt lat="39.1945400" lon="-1.4158100">
        <ele>540.2</ele>
        <time>2019-05-11T11:06:45Z</time>
      </trkpt>
      <trkpt lat="39.1945180" lon="-1.4158370">
        <ele>540.4</ele>
        <time>2019-05-11T11:06:46Z</time>
      </trkpt>
      <trkpt lat="39.1944970" lon="-1.4158620">
        <ele>540.4</ele>
        <time>2019-05-11T11:06:47Z</time>
      </trkpt>
      <trkpt lat="39.1944750" lon="-1.4158860">
        <ele>540.6</ele>
        <time>2019-05-11T11:06:48Z</time>
      </trkpt>
      <trkpt lat="39.1944540" lon="-1.4159090">
        <ele>540.8</ele>
        <time>2019-05-11T11:06:49Z</time>
      </trkpt>
      <trkpt lat="39.1944310" lon="-1.4159320">
        <ele>540.8</ele>
        <time>2019-05-11T11:06:50Z</time>
      </trkpt>
      <trkpt lat="39.1944080" lon="-1.4159560">
        <ele>540.8</ele>
        <time>2019-05-11T11:06:51Z</time>
      </trkpt>
      <trkpt lat="39.1943880" lon="-1.4159790">
        <ele>541.0</ele>
        <time>2019-05-11T11:06:52Z</time>
      </trkpt>
      <trkpt lat="39.1943700" lon="-1.4159980">
        <ele>541.0</ele>
        <time>2019-05-11T11:06:53Z</time>
      </trkpt>
      <trkpt lat="39.1943510" lon="-1.4160210">
        <ele>541.2</ele>
        <time>2019-05-11T11:06:54Z</time>
      </trkpt>
      <trkpt lat="39.1943310" lon="-1.4160470">
        <ele>541.2</ele>
        <time>2019-05-11T11:06:55Z</time>
      </trkpt>
      <trkpt lat="39.1943070" lon="-1.4160650">
        <ele>541.6</ele>
        <time>2019-05-11T11:06:56Z</time>
      </trkpt>
      <trkpt lat="39.1942830" lon="-1.4160830">
        <ele>541.8</ele>
        <time>2019-05-11T11:06:57Z</time>
      </trkpt>
      <trkpt lat="39.1942590" lon="-1.4161060">
        <ele>541.8</ele>
        <time>2019-05-11T11:06:58Z</time>
      </trkpt>
      <trkpt lat="39.1942280" lon="-1.4161330">
        <ele>541.8</ele>
        <time>2019-05-11T11:06:59Z</time>
      </trkpt>
      <trkpt lat="39.1942030" lon="-1.4161590">
        <ele>541.8</ele>
        <time>2019-05-11T11:07:00Z</time>
      </trkpt>
      <trkpt lat="39.1941760" lon="-1.4161880">
        <ele>542.2</ele>
        <time>2019-05-11T11:07:01Z</time>
      </trkpt>
      <trkpt lat="39.1941450" lon="-1.4162150">
        <ele>542.4</ele>
        <time>2019-05-11T11:07:02Z</time>
      </trkpt>
      <trkpt lat="39.1941120" lon="-1.4162430">
        <ele>542.4</ele>
        <time>2019-05-11T11:07:03Z</time>
      </trkpt>
      <trkpt lat="39.1940790" lon="-1.4162730">
        <ele>542.4</ele>
        <time>2019-05-11T11:07:04Z</time>
      </trkpt>
      <trkpt lat="39.1940490" lon="-1.4163000">
        <ele>542.6</ele>
        <time>2019-05-11T11:07:05Z</time>
      </trkpt>
      <trkpt lat="39.1940190" lon="-1.4163350">
        <ele>542.6</ele>
        <time>2019-05-11T11:07:06Z</time>
      </trkpt>
      <trkpt lat="39.1939920" lon="-1.4163780">
        <ele>542.8</ele>
        <time>2019-05-11T11:07:07Z</time>
      </trkpt>
      <trkpt lat="39.1939670" lon="-1.4164230">
        <ele>542.8</ele>
        <time>2019-05-11T11:07:08Z</time>
      </trkpt>
      <trkpt lat="39.1939460" lon="-1.4164680">
        <ele>542.8</ele>
        <time>2019-05-11T11:07:09Z</time>
      </trkpt>
      <trkpt lat="39.1939350" lon="-1.4165140">
        <ele>543.2</ele>
        <time>2019-05-11T11:07:10Z</time>
      </trkpt>
      <trkpt lat="39.1939220" lon="-1.4165640">
        <ele>543.2</ele>
        <time>2019-05-11T11:07:11Z</time>
      </trkpt>
      <trkpt lat="39.1939090" lon="-1.4166200">
        <ele>543.2</ele>
        <time>2019-05-11T11:07:12Z</time>
      </trkpt>
      <trkpt lat="39.1938940" lon="-1.4166780">
        <ele>543.4</ele>
        <time>2019-05-11T11:07:13Z</time>
      </trkpt>
      <trkpt lat="39.1938790" lon="-1.4167410">
        <ele>543.4</ele>
        <time>2019-05-11T11:07:14Z</time>
      </trkpt>
      <trkpt lat="39.1938610" lon="-1.4168120">
        <ele>543.4</ele>
        <time>2019-05-11T11:07:15Z</time>
      </trkpt>
      <trkpt lat="39.1938390" lon="-1.4168830">
        <ele>543.4</ele>
        <time>2019-05-11T11:07:16Z</time>
      </trkpt>
      <trkpt lat="39.1938120" lon="-1.4169550">
        <ele>543.4</ele>
        <time>2019-05-11T11:07:17Z</time>
      </trkpt>
      <trkpt lat="39.1937860" lon="-1.4170310">
        <ele>543.4</ele>
        <time>2019-05-11T11:07:18Z</time>
      </trkpt>
      <trkpt lat="39.1937670" lon="-1.4171100">
        <ele>543.4</ele>
        <time>2019-05-11T11:07:19Z</time>
      </trkpt>
      <trkpt lat="39.1937540" lon="-1.4171890">
        <ele>543.4</ele>
        <time>2019-05-11T11:07:20Z</time>
      </trkpt>
      <trkpt lat="39.1937390" lon="-1.4172620">
        <ele>543.4</ele>
        <time>2019-05-11T11:07:21Z</time>
      </trkpt>
      <trkpt lat="39.1937210" lon="-1.4173270">
        <ele>543.4</ele>
        <time>2019-05-11T11:07:22Z</time>
      </trkpt>
      <trkpt lat="39.1936960" lon="-1.4173870">
        <ele>543.4</ele>
        <time>2019-05-11T11:07:23Z</time>
      </trkpt>
      <trkpt lat="39.1936660" lon="-1.4174430">
        <ele>543.2</ele>
        <time>2019-05-11T11:07:24Z</time>
      </trkpt>
      <trkpt lat="39.1936380" lon="-1.4174970">
        <ele>543.2</ele>
        <time>2019-05-11T11:07:25Z</time>
      </trkpt>
      <trkpt lat="39.1936150" lon="-1.4175490">
        <ele>543.2</ele>
        <time>2019-05-11T11:07:26Z</time>
      </trkpt>
      <trkpt lat="39.1935980" lon="-1.4176030">
        <ele>543.2</ele>
        <time>2019-05-11T11:07:27Z</time>
      </trkpt>
      <trkpt lat="39.1935790" lon="-1.4176540">
        <ele>543.2</ele>
        <time>2019-05-11T11:07:28Z</time>
      </trkpt>
      <trkpt lat="39.1935650" lon="-1.4177060">
        <ele>543.2</ele>
        <time>2019-05-11T11:07:29Z</time>
      </trkpt>
      <trkpt lat="39.1935530" lon="-1.4177590">
        <ele>543.2</ele>
        <time>2019-05-11T11:07:30Z</time>
      </trkpt>
      <trkpt lat="39.1935430" lon="-1.4178140">
        <ele>543.2</ele>
        <time>2019-05-11T11:07:31Z</time>
      </trkpt>
      <trkpt lat="39.1935340" lon="-1.4178690">
        <ele>543.2</ele>
        <time>2019-05-11T11:07:32Z</time>
      </trkpt>
      <trkpt lat="39.1935260" lon="-1.4179220">
        <ele>543.2</ele>
        <time>2019-05-11T11:07:33Z</time>
      </trkpt>
      <trkpt lat="39.1935170" lon="-1.4179720">
        <ele>543.2</ele>
        <time>2019-05-11T11:07:34Z</time>
      </trkpt>
      <trkpt lat="39.1935080" lon="-1.4180170">
        <ele>543.6</ele>
        <time>2019-05-11T11:07:35Z</time>
      </trkpt>
      <trkpt lat="39.1934990" lon="-1.4180600">
        <ele>543.6</ele>
        <time>2019-05-11T11:07:36Z</time>
      </trkpt>
      <trkpt lat="39.1934890" lon="-1.4181020">
        <ele>543.6</ele>
        <time>2019-05-11T11:07:37Z</time>
      </trkpt>
      <trkpt lat="39.1934790" lon="-1.4181460">
        <ele>543.6</ele>
        <time>2019-05-11T11:07:38Z</time>
      </trkpt>
      <trkpt lat="39.1934710" lon="-1.4181900">
        <ele>543.6</ele>
        <time>2019-05-11T11:07:39Z</time>
      </trkpt>
      <trkpt lat="39.1934650" lon="-1.4182340">
        <ele>543.6</ele>
        <time>2019-05-11T11:07:40Z</time>
      </trkpt>
      <trkpt lat="39.1934590" lon="-1.4182800">
        <ele>543.6</ele>
        <time>2019-05-11T11:07:41Z</time>
      </trkpt>
      <trkpt lat="39.1934530" lon="-1.4183290">
        <ele>543.6</ele>
        <time>2019-05-11T11:07:42Z</time>
      </trkpt>
      <trkpt lat="39.1934480" lon="-1.4183800">
        <ele>543.6</ele>
        <time>2019-05-11T11:07:43Z</time>
      </trkpt>
      <trkpt lat="39.1934440" lon="-1.4184320">
        <ele>543.4</ele>
        <time>2019-05-11T11:07:44Z</time>
      </trkpt>
      <trkpt lat="39.1934370" lon="-1.4184840">
        <ele>543.4</ele>
        <time>2019-05-11T11:07:45Z</time>
      </trkpt>
      <trkpt lat="39.1934290" lon="-1.4185350">
        <ele>543.4</ele>
        <time>2019-05-11T11:07:46Z</time>
      </trkpt>
      <trkpt lat="39.1934220" lon="-1.4185850">
        <ele>543.4</ele>
        <time>2019-05-11T11:07:47Z</time>
      </trkpt>
      <trkpt lat="39.1934150" lon="-1.4186370">
        <ele>543.4</ele>
        <time>2019-05-11T11:07:48Z</time>
      </trkpt>
      <trkpt lat="39.1934070" lon="-1.4186860">
        <ele>543.4</ele>
        <time>2019-05-11T11:07:49Z</time>
      </trkpt>
      <trkpt lat="39.1934000" lon="-1.4187350">
        <ele>543.4</ele>
        <time>2019-05-11T11:07:50Z</time>
      </trkpt>
      <trkpt lat="39.1933950" lon="-1.4187810">
        <ele>543.4</ele>
        <time>2019-05-11T11:07:51Z</time>
      </trkpt>
      <trkpt lat="39.1933920" lon="-1.4188240">
        <ele>543.4</ele>
        <time>2019-05-11T11:07:52Z</time>
      </trkpt>
      <trkpt lat="39.1933920" lon="-1.4188640">
        <ele>543.4</ele>
        <time>2019-05-11T11:07:53Z</time>
      </trkpt>
      <trkpt lat="39.1933970" lon="-1.4189030">
        <ele>543.6</ele>
        <time>2019-05-11T11:07:54Z</time>
      </trkpt>
      <trkpt lat="39.1934010" lon="-1.4189390">
        <ele>543.6</ele>
        <time>2019-05-11T11:07:55Z</time>
      </trkpt>
      <trkpt lat="39.1934000" lon="-1.4189740">
        <ele>543.8</ele>
        <time>2019-05-11T11:07:56Z</time>
      </trkpt>
      <trkpt lat="39.1933990" lon="-1.4190090">
        <ele>543.8</ele>
        <time>2019-05-11T11:07:57Z</time>
      </trkpt>
      <trkpt lat="39.1934020" lon="-1.4190420">
        <ele>543.8</ele>
        <time>2019-05-11T11:07:58Z</time>
      </trkpt>
      <trkpt lat="39.1934080" lon="-1.4190730">
        <ele>543.8</ele>
        <time>2019-05-11T11:07:59Z</time>
      </trkpt>
      <trkpt lat="39.1934130" lon="-1.4191040">
        <ele>544.0</ele>
        <time>2019-05-11T11:08:00Z</time>
      </trkpt>
      <trkpt lat="39.1934150" lon="-1.4191360">
        <ele>544.0</ele>
        <time>2019-05-11T11:08:01Z</time>
      </trkpt>
      <trkpt lat="39.1934180" lon="-1.4191700">
        <ele>544.2</ele>
        <time>2019-05-11T11:08:02Z</time>
      </trkpt>
      <trkpt lat="39.1934210" lon="-1.4192050">
        <ele>544.4</ele>
        <time>2019-05-11T11:08:03Z</time>
      </trkpt>
      <trkpt lat="39.1934270" lon="-1.4192430">
        <ele>544.4</ele>
        <time>2019-05-11T11:08:04Z</time>
      </trkpt>
      <trkpt lat="39.1934370" lon="-1.4192790">
        <ele>544.4</ele>
        <time>2019-05-11T11:08:05Z</time>
      </trkpt>
      <trkpt lat="39.1934480" lon="-1.4193200">
        <ele>544.6</ele>
        <time>2019-05-11T11:08:06Z</time>
      </trkpt>
      <trkpt lat="39.1934600" lon="-1.4193650">
        <ele>544.8</ele>
        <time>2019-05-11T11:08:07Z</time>
      </trkpt>
      <trkpt lat="39.1934720" lon="-1.4194120">
        <ele>545.0</ele>
        <time>2019-05-11T11:08:08Z</time>
      </trkpt>
      <trkpt lat="39.1934850" lon="-1.4194600">
        <ele>545.0</ele>
        <time>2019-05-11T11:08:09Z</time>
      </trkpt>
      <trkpt lat="39.1934990" lon="-1.4195100">
        <ele>545.2</ele>
        <time>2019-05-11T11:08:10Z</time>
      </trkpt>
      <trkpt lat="39.1935110" lon="-1.4195620">
        <ele>545.4</ele>
        <time>2019-05-11T11:08:11Z</time>
      </trkpt>
      <trkpt lat="39.1935230" lon="-1.4196100">
        <ele>545.4</ele>
        <time>2019-05-11T11:08:12Z</time>
      </trkpt>
      <trkpt lat="39.1935420" lon="-1.4196570">
        <ele>545.6</ele>
        <time>2019-05-11T11:08:13Z</time>
      </trkpt>
      <trkpt lat="39.1935600" lon="-1.4197030">
        <ele>545.8</ele>
        <time>2019-05-11T11:08:14Z</time>
      </trkpt>
      <trkpt lat="39.1935820" lon="-1.4197460">
        <ele>545.8</ele>
        <time>2019-05-11T11:08:15Z</time>
      </trkpt>
      <trkpt lat="39.1936010" lon="-1.4197880">
        <ele>545.8</ele>
        <time>2019-05-11T11:08:16Z</time>
      </trkpt>
      <trkpt lat="39.1936170" lon="-1.4198290">
        <ele>546.0</ele>
        <time>2019-05-11T11:08:17Z</time>
      </trkpt>
      <trkpt lat="39.1936310" lon="-1.4198740">
        <ele>546.0</ele>
        <time>2019-05-11T11:08:18Z</time>
      </trkpt>
      <trkpt lat="39.1936440" lon="-1.4199230">
        <ele>546.0</ele>
        <time>2019-05-11T11:08:19Z</time>
      </trkpt>
      <trkpt lat="39.1936580" lon="-1.4199760">
        <ele>546.2</ele>
        <time>2019-05-11T11:08:20Z</time>
      </trkpt>
      <trkpt lat="39.1936740" lon="-1.4200340">
        <ele>546.2</ele>
        <time>2019-05-11T11:08:21Z</time>
      </trkpt>
      <trkpt lat="39.1936930" lon="-1.4200930">
        <ele>546.2</ele>
        <time>2019-05-11T11:08:22Z</time>
      </trkpt>
      <trkpt lat="39.1937200" lon="-1.4201500">
        <ele>546.2</ele>
        <time>2019-05-11T11:08:23Z</time>
      </trkpt>
      <trkpt lat="39.1937500" lon="-1.4202070">
        <ele>546.2</ele>
        <time>2019-05-11T11:08:24Z</time>
      </trkpt>
      <trkpt lat="39.1937780" lon="-1.4202650">
        <ele>546.2</ele>
        <time>2019-05-11T11:08:25Z</time>
      </trkpt>
      <trkpt lat="39.1938060" lon="-1.4203260">
        <ele>546.2</ele>
        <time>2019-05-11T11:08:26Z</time>
      </trkpt>
      <trkpt lat="39.1938340" lon="-1.4203910">
        <ele>546.2</ele>
        <time>2019-05-11T11:08:27Z</time>
      </trkpt>
      <trkpt lat="39.1938660" lon="-1.4204560">
        <ele>546.2</ele>
        <time>2019-05-11T11:08:28Z</time>
      </trkpt>
      <trkpt lat="39.1939090" lon="-1.4205220">
        <ele>546.2</ele>
        <time>2019-05-11T11:08:29Z</time>
      </trkpt>
      <trkpt lat="39.1939580" lon="-1.4205840">
        <ele>546.2</ele>
        <time>2019-05-11T11:08:30Z</time>
      </trkpt>
      <trkpt lat="39.1940080" lon="-1.4206470">
        <ele>546.2</ele>
        <time>2019-05-11T11:08:31Z</time>
      </trkpt>
      <trkpt lat="39.1940590" lon="-1.4207080">
        <ele>546.0</ele>
        <time>2019-05-11T11:08:32Z</time>
      </trkpt>
      <trkpt lat="39.1941060" lon="-1.4207710">
        <ele>545.8</ele>
        <time>2019-05-11T11:08:33Z</time>
      </trkpt>
      <trkpt lat="39.1941530" lon="-1.4208340">
        <ele>545.8</ele>
        <time>2019-05-11T11:08:34Z</time>
      </trkpt>
      <trkpt lat="39.1941950" lon="-1.4209030">
        <ele>545.6</ele>
        <time>2019-05-11T11:08:35Z</time>
      </trkpt>
      <trkpt lat="39.1942340" lon="-1.4209740">
        <ele>545.2</ele>
        <time>2019-05-11T11:08:36Z</time>
      </trkpt>
      <trkpt lat="39.1942780" lon="-1.4210440">
        <ele>544.8</ele>
        <time>2019-05-11T11:08:37Z</time>
      </trkpt>
      <trkpt lat="39.1943250" lon="-1.4211130">
        <ele>544.6</ele>
        <time>2019-05-11T11:08:38Z</time>
      </trkpt>
      <trkpt lat="39.1943780" lon="-1.4211820">
        <ele>544.6</ele>
        <time>2019-05-11T11:08:39Z</time>
      </trkpt>
      <trkpt lat="39.1944360" lon="-1.4212420">
        <ele>544.4</ele>
        <time>2019-05-11T11:08:40Z</time>
      </trkpt>
      <trkpt lat="39.1944950" lon="-1.4212990">
        <ele>544.2</ele>
        <time>2019-05-11T11:08:41Z</time>
      </trkpt>
      <trkpt lat="39.1945530" lon="-1.4213580">
        <ele>544.0</ele>
        <time>2019-05-11T11:08:42Z</time>
      </trkpt>
      <trkpt lat="39.1946150" lon="-1.4214140">
        <ele>543.8</ele>
        <time>2019-05-11T11:08:43Z</time>
      </trkpt>
      <trkpt lat="39.1946810" lon="-1.4214670">
        <ele>543.6</ele>
        <time>2019-05-11T11:08:44Z</time>
      </trkpt>
      <trkpt lat="39.1947510" lon="-1.4215230">
        <ele>543.0</ele>
        <time>2019-05-11T11:08:45Z</time>
      </trkpt>
      <trkpt lat="39.1948200" lon="-1.4215810">
        <ele>542.8</ele>
        <time>2019-05-11T11:08:46Z</time>
      </trkpt>
      <trkpt lat="39.1948870" lon="-1.4216460">
        <ele>542.4</ele>
        <time>2019-05-11T11:08:47Z</time>
      </trkpt>
      <trkpt lat="39.1949580" lon="-1.4217130">
        <ele>542.2</ele>
        <time>2019-05-11T11:08:48Z</time>
      </trkpt>
      <trkpt lat="39.1950300" lon="-1.4217770">
        <ele>542.0</ele>
        <time>2019-05-11T11:08:49Z</time>
      </trkpt>
      <trkpt lat="39.1951020" lon="-1.4218380">
        <ele>541.6</ele>
        <time>2019-05-11T11:08:50Z</time>
      </trkpt>
      <trkpt lat="39.1951730" lon="-1.4218980">
        <ele>541.0</ele>
        <time>2019-05-11T11:08:51Z</time>
      </trkpt>
      <trkpt lat="39.1952410" lon="-1.4219600">
        <ele>540.6</ele>
        <time>2019-05-11T11:08:52Z</time>
      </trkpt>
      <trkpt lat="39.1953050" lon="-1.4220260">
        <ele>540.2</ele>
        <time>2019-05-11T11:08:53Z</time>
      </trkpt>
      <trkpt lat="39.1953710" lon="-1.4220870">
        <ele>539.4</ele>
        <time>2019-05-11T11:08:54Z</time>
      </trkpt>
      <trkpt lat="39.1954360" lon="-1.4221470">
        <ele>538.8</ele>
        <time>2019-05-11T11:08:55Z</time>
      </trkpt>
      <trkpt lat="39.1955000" lon="-1.4222070">
        <ele>538.2</ele>
        <time>2019-05-11T11:08:56Z</time>
      </trkpt>
      <trkpt lat="39.1955630" lon="-1.4222650">
        <ele>537.6</ele>
        <time>2019-05-11T11:08:57Z</time>
      </trkpt>
      <trkpt lat="39.1956200" lon="-1.4223200">
        <ele>537.2</ele>
        <time>2019-05-11T11:08:58Z</time>
      </trkpt>
      <trkpt lat="39.1956740" lon="-1.4223750">
        <ele>536.8</ele>
        <time>2019-05-11T11:08:59Z</time>
      </trkpt>
      <trkpt lat="39.1957260" lon="-1.4224270">
        <ele>536.2</ele>
        <time>2019-05-11T11:09:00Z</time>
      </trkpt>
      <trkpt lat="39.1957760" lon="-1.4224760">
        <ele>536.0</ele>
        <time>2019-05-11T11:09:01Z</time>
      </trkpt>
      <trkpt lat="39.1958250" lon="-1.4225250">
        <ele>535.8</ele>
        <time>2019-05-11T11:09:02Z</time>
      </trkpt>
      <trkpt lat="39.1958750" lon="-1.4225700">
        <ele>535.4</ele>
        <time>2019-05-11T11:09:03Z</time>
      </trkpt>
      <trkpt lat="39.1959220" lon="-1.4226170">
        <ele>535.0</ele>
        <time>2019-05-11T11:09:04Z</time>
      </trkpt>
      <trkpt lat="39.1959650" lon="-1.4226700">
        <ele>535.0</ele>
        <time>2019-05-11T11:09:05Z</time>
      </trkpt>
      <trkpt lat="39.1960060" lon="-1.4227210">
        <ele>534.8</ele>
        <time>2019-05-11T11:09:06Z</time>
      </trkpt>
      <trkpt lat="39.1960440" lon="-1.4227750">
        <ele>534.8</ele>
        <time>2019-05-11T11:09:07Z</time>
      </trkpt>
      <trkpt lat="39.1960760" lon="-1.4228240">
        <ele>534.8</ele>
        <time>2019-05-11T11:09:08Z</time>
      </trkpt>
      <trkpt lat="39.1961090" lon="-1.4228770">
        <ele>534.8</ele>
        <time>2019-05-11T11:09:09Z</time>
      </trkpt>
      <trkpt lat="39.1961410" lon="-1.4229280">
        <ele>534.8</ele>
        <time>2019-05-11T11:09:10Z</time>
      </trkpt>
      <trkpt lat="39.1961680" lon="-1.4229830">
        <ele>534.8</ele>
        <time>2019-05-11T11:09:11Z</time>
      </trkpt>
      <trkpt lat="39.1961950" lon="-1.4230360">
        <ele>534.8</ele>
        <time>2019-05-11T11:09:12Z</time>
      </trkpt>
      <trkpt lat="39.1962210" lon="-1.4230900">
        <ele>534.8</ele>
        <time>2019-05-11T11:09:13Z</time>
      </trkpt>
      <trkpt lat="39.1962460" lon="-1.4231460">
        <ele>534.8</ele>
        <time>2019-05-11T11:09:14Z</time>
      </trkpt>
      <trkpt lat="39.1962670" lon="-1.4232050">
        <ele>534.8</ele>
        <time>2019-05-11T11:09:15Z</time>
      </trkpt>
      <trkpt lat="39.1962840" lon="-1.4232650">
        <ele>535.0</ele>
        <time>2019-05-11T11:09:16Z</time>
      </trkpt>
      <trkpt lat="39.1963010" lon="-1.4233260">
        <ele>535.4</ele>
        <time>2019-05-11T11:09:17Z</time>
      </trkpt>
      <trkpt lat="39.1963170" lon="-1.4233850">
        <ele>535.6</ele>
        <time>2019-05-11T11:09:18Z</time>
      </trkpt>
      <trkpt lat="39.1963310" lon="-1.4234490">
        <ele>535.8</ele>
        <time>2019-05-11T11:09:19Z</time>
      </trkpt>
      <trkpt lat="39.1963440" lon="-1.4235160">
        <ele>535.8</ele>
        <time>2019-05-11T11:09:20Z</time>
      </trkpt>
      <trkpt lat="39.1963580" lon="-1.4235860">
        <ele>536.0</ele>
        <time>2019-05-11T11:09:21Z</time>
      </trkpt>
      <trkpt lat="39.1963740" lon="-1.4236580">
        <ele>536.0</ele>
        <time>2019-05-11T11:09:22Z</time>
      </trkpt>
      <trkpt lat="39.1963890" lon="-1.4237350">
        <ele>536.0</ele>
        <time>2019-05-11T11:09:23Z</time>
      </trkpt>
      <trkpt lat="39.1964050" lon="-1.4238170">
        <ele>536.0</ele>
        <time>2019-05-11T11:09:24Z</time>
      </trkpt>
      <trkpt lat="39.1964200" lon="-1.4239030">
        <ele>536.0</ele>
        <time>2019-05-11T11:09:25Z</time>
      </trkpt>
      <trkpt lat="39.1964340" lon="-1.4239890">
        <ele>536.0</ele>
        <time>2019-05-11T11:09:26Z</time>
      </trkpt>
      <trkpt lat="39.1964490" lon="-1.4240750">
        <ele>536.0</ele>
        <time>2019-05-11T11:09:27Z</time>
      </trkpt>
      <trkpt lat="39.1964620" lon="-1.4241620">
        <ele>536.0</ele>
        <time>2019-05-11T11:09:28Z</time>
      </trkpt>
      <trkpt lat="39.1964710" lon="-1.4242480">
        <ele>536.0</ele>
        <time>2019-05-11T11:09:29Z</time>
      </trkpt>
      <trkpt lat="39.1964770" lon="-1.4243310">
        <ele>536.0</ele>
        <time>2019-05-11T11:09:30Z</time>
      </trkpt>
      <trkpt lat="39.1964820" lon="-1.4244120">
        <ele>536.0</ele>
        <time>2019-05-11T11:09:31Z</time>
      </trkpt>
      <trkpt lat="39.1964880" lon="-1.4244930">
        <ele>535.8</ele>
        <time>2019-05-11T11:09:32Z</time>
      </trkpt>
      <trkpt lat="39.1964920" lon="-1.4245760">
        <ele>535.6</ele>
        <time>2019-05-11T11:09:33Z</time>
      </trkpt>
      <trkpt lat="39.1964930" lon="-1.4246590">
        <ele>535.6</ele>
        <time>2019-05-11T11:09:34Z</time>
      </trkpt>
      <trkpt lat="39.1964920" lon="-1.4247420">
        <ele>535.4</ele>
        <time>2019-05-11T11:09:35Z</time>
      </trkpt>
      <trkpt lat="39.1964930" lon="-1.4248250">
        <ele>535.4</ele>
        <time>2019-05-11T11:09:36Z</time>
      </trkpt>
      <trkpt lat="39.1964940" lon="-1.4249060">
        <ele>535.4</ele>
        <time>2019-05-11T11:09:37Z</time>
      </trkpt>
      <trkpt lat="39.1964950" lon="-1.4249870">
        <ele>535.4</ele>
        <time>2019-05-11T11:09:38Z</time>
      </trkpt>
      <trkpt lat="39.1964930" lon="-1.4250690">
        <ele>535.2</ele>
        <time>2019-05-11T11:09:39Z</time>
      </trkpt>
      <trkpt lat="39.1964870" lon="-1.4251520">
        <ele>535.2</ele>
        <time>2019-05-11T11:09:40Z</time>
      </trkpt>
      <trkpt lat="39.1964800" lon="-1.4252350">
        <ele>535.0</ele>
        <time>2019-05-11T11:09:41Z</time>
      </trkpt>
      <trkpt lat="39.1964670" lon="-1.4253140">
        <ele>534.8</ele>
        <time>2019-05-11T11:09:42Z</time>
      </trkpt>
      <trkpt lat="39.1964490" lon="-1.4253920">
        <ele>534.8</ele>
        <time>2019-05-11T11:09:43Z</time>
      </trkpt>
      <trkpt lat="39.1964280" lon="-1.4254670">
        <ele>534.8</ele>
        <time>2019-05-11T11:09:44Z</time>
      </trkpt>
      <trkpt lat="39.1964070" lon="-1.4255410">
        <ele>534.6</ele>
        <time>2019-05-11T11:09:45Z</time>
      </trkpt>
      <trkpt lat="39.1963830" lon="-1.4256110">
        <ele>534.6</ele>
        <time>2019-05-11T11:09:46Z</time>
      </trkpt>
      <trkpt lat="39.1963530" lon="-1.4256740">
        <ele>534.6</ele>
        <time>2019-05-11T11:09:47Z</time>
      </trkpt>
      <trkpt lat="39.1963170" lon="-1.4257350">
        <ele>534.6</ele>
        <time>2019-05-11T11:09:48Z</time>
      </trkpt>
      <trkpt lat="39.1962800" lon="-1.4257970">
        <ele>534.6</ele>
        <time>2019-05-11T11:09:49Z</time>
      </trkpt>
      <trkpt lat="39.1962430" lon="-1.4258530">
        <ele>534.6</ele>
        <time>2019-05-11T11:09:50Z</time>
      </trkpt>
      <trkpt lat="39.1962060" lon="-1.4259060">
        <ele>534.6</ele>
        <time>2019-05-11T11:09:51Z</time>
      </trkpt>
      <trkpt lat="39.1961670" lon="-1.4259610">
        <ele>534.8</ele>
        <time>2019-05-11T11:09:52Z</time>
      </trkpt>
      <trkpt lat="39.1961230" lon="-1.4260120">
        <ele>535.0</ele>
        <time>2019-05-11T11:09:53Z</time>
      </trkpt>
      <trkpt lat="39.1960800" lon="-1.4260580">
        <ele>535.2</ele>
        <time>2019-05-11T11:09:54Z</time>
      </trkpt>
      <trkpt lat="39.1960390" lon="-1.4261030">
        <ele>535.6</ele>
        <time>2019-05-11T11:09:55Z</time>
      </trkpt>
      <trkpt lat="39.1959960" lon="-1.4261470">
        <ele>535.6</ele>
        <time>2019-05-11T11:09:56Z</time>
      </trkpt>
      <trkpt lat="39.1959490" lon="-1.4261910">
        <ele>535.8</ele>
        <time>2019-05-11T11:09:57Z</time>
      </trkpt>
      <trkpt lat="39.1959000" lon="-1.4262380">
        <ele>535.8</ele>
        <time>2019-05-11T11:09:58Z</time>
      </trkpt>
      <trkpt lat="39.1958550" lon="-1.4262840">
        <ele>535.8</ele>
        <time>2019-05-11T11:09:59Z</time>
      </trkpt>
      <trkpt lat="39.1958060" lon="-1.4263310">
        <ele>535.8</ele>
        <time>2019-05-11T11:10:00Z</time>
      </trkpt>
      <trkpt lat="39.1957530" lon="-1.4263800">
        <ele>535.8</ele>
        <time>2019-05-11T11:10:01Z</time>
      </trkpt>
      <trkpt lat="39.1956960" lon="-1.4264300">
        <ele>535.8</ele>
        <time>2019-05-11T11:10:02Z</time>
      </trkpt>
      <trkpt lat="39.1956340" lon="-1.4264810">
        <ele>535.8</ele>
        <time>2019-05-11T11:10:03Z</time>
      </trkpt>
      <trkpt lat="39.1955690" lon="-1.4265330">
        <ele>535.8</ele>
        <time>2019-05-11T11:10:04Z</time>
      </trkpt>
      <trkpt lat="39.1955040" lon="-1.4265750">
        <ele>535.8</ele>
        <time>2019-05-11T11:10:05Z</time>
      </trkpt>
      <trkpt lat="39.1954390" lon="-1.4266000">
        <ele>535.8</ele>
        <time>2019-05-11T11:10:06Z</time>
      </trkpt>
      <trkpt lat="39.1953730" lon="-1.4266290">
        <ele>535.8</ele>
        <time>2019-05-11T11:10:07Z</time>
      </trkpt>
      <trkpt lat="39.1953080" lon="-1.4266580">
        <ele>535.6</ele>
        <time>2019-05-11T11:10:08Z</time>
      </trkpt>
      <trkpt lat="39.1952410" lon="-1.4266910">
        <ele>535.6</ele>
        <time>2019-05-11T11:10:09Z</time>
      </trkpt>
      <trkpt lat="39.1951710" lon="-1.4267280">
        <ele>535.4</ele>
        <time>2019-05-11T11:10:10Z</time>
      </trkpt>
      <trkpt lat="39.1950980" lon="-1.4267730">
        <ele>535.0</ele>
        <time>2019-05-11T11:10:11Z</time>
      </trkpt>
      <trkpt lat="39.1950230" lon="-1.4268160">
        <ele>534.8</ele>
        <time>2019-05-11T11:10:12Z</time>
      </trkpt>
      <trkpt lat="39.1949460" lon="-1.4268580">
        <ele>534.6</ele>
        <time>2019-05-11T11:10:13Z</time>
      </trkpt>
      <trkpt lat="39.1948690" lon="-1.4268910">
        <ele>534.4</ele>
        <time>2019-05-11T11:10:14Z</time>
      </trkpt>
      <trkpt lat="39.1947940" lon="-1.4269150">
        <ele>534.2</ele>
        <time>2019-05-11T11:10:15Z</time>
      </trkpt>
      <trkpt lat="39.1947230" lon="-1.4269420">
        <ele>534.0</ele>
        <time>2019-05-11T11:10:16Z</time>
      </trkpt>
      <trkpt lat="39.1946510" lon="-1.4269710">
        <ele>533.8</ele>
        <time>2019-05-11T11:10:17Z</time>
      </trkpt>
      <trkpt lat="39.1945810" lon="-1.4269970">
        <ele>533.4</ele>
        <time>2019-05-11T11:10:18Z</time>
      </trkpt>
      <trkpt lat="39.1945130" lon="-1.4270100">
        <ele>533.4</ele>
        <time>2019-05-11T11:10:19Z</time>
      </trkpt>
      <trkpt lat="39.1944480" lon="-1.4270120">
        <ele>533.2</ele>
        <time>2019-05-11T11:10:20Z</time>
      </trkpt>
      <trkpt lat="39.1943860" lon="-1.4270100">
        <ele>533.2</ele>
        <time>2019-05-11T11:10:21Z</time>
      </trkpt>
      <trkpt lat="39.1943290" lon="-1.4270080">
        <ele>533.2</ele>
        <time>2019-05-11T11:10:22Z</time>
      </trkpt>
      <trkpt lat="39.1942740" lon="-1.4270030">
        <ele>533.2</ele>
        <time>2019-05-11T11:10:23Z</time>
      </trkpt>
      <trkpt lat="39.1942170" lon="-1.4270010">
        <ele>533.2</ele>
        <time>2019-05-11T11:10:24Z</time>
      </trkpt>
      <trkpt lat="39.1941590" lon="-1.4270050">
        <ele>533.2</ele>
        <time>2019-05-11T11:10:25Z</time>
      </trkpt>
      <trkpt lat="39.1940990" lon="-1.4270070">
        <ele>533.2</ele>
        <time>2019-05-11T11:10:26Z</time>
      </trkpt>
      <trkpt lat="39.1940400" lon="-1.4270120">
        <ele>533.2</ele>
        <time>2019-05-11T11:10:27Z</time>
      </trkpt>
      <trkpt lat="39.1939810" lon="-1.4270200">
        <ele>533.4</ele>
        <time>2019-05-11T11:10:28Z</time>
      </trkpt>
      <trkpt lat="39.1939230" lon="-1.4270240">
        <ele>534.0</ele>
        <time>2019-05-11T11:10:29Z</time>
      </trkpt>
      <trkpt lat="39.1938660" lon="-1.4270290">
        <ele>534.2</ele>
        <time>2019-05-11T11:10:30Z</time>
      </trkpt>
      <trkpt lat="39.1938120" lon="-1.4270360">
        <ele>534.2</ele>
        <time>2019-05-11T11:10:31Z</time>
      </trkpt>
      <trkpt lat="39.1937590" lon="-1.4270370">
        <ele>534.2</ele>
        <time>2019-05-11T11:10:32Z</time>
      </trkpt>
      <trkpt lat="39.1937050" lon="-1.4270460">
        <ele>534.2</ele>
        <time>2019-05-11T11:10:33Z</time>
      </trkpt>
      <trkpt lat="39.1936520" lon="-1.4270600">
        <ele>534.4</ele>
        <time>2019-05-11T11:10:34Z</time>
      </trkpt>
      <trkpt lat="39.1936000" lon="-1.4270630">
        <ele>534.4</ele>
        <time>2019-05-11T11:10:35Z</time>
      </trkpt>
      <trkpt lat="39.1935490" lon="-1.4270610">
        <ele>534.4</ele>
        <time>2019-05-11T11:10:36Z</time>
      </trkpt>
      <trkpt lat="39.1934970" lon="-1.4270570">
        <ele>534.4</ele>
        <time>2019-05-11T11:10:37Z</time>
      </trkpt>
      <trkpt lat="39.1934430" lon="-1.4270490">
        <ele>534.4</ele>
        <time>2019-05-11T11:10:38Z</time>
      </trkpt>
      <trkpt lat="39.1933870" lon="-1.4270380">
        <ele>534.4</ele>
        <time>2019-05-11T11:10:39Z</time>
      </trkpt>
      <trkpt lat="39.1933300" lon="-1.4270310">
        <ele>534.2</ele>
        <time>2019-05-11T11:10:40Z</time>
      </trkpt>
      <trkpt lat="39.1932760" lon="-1.4270240">
        <ele>534.2</ele>
        <time>2019-05-11T11:10:41Z</time>
      </trkpt>
      <trkpt lat="39.1932260" lon="-1.4270180">
        <ele>534.2</ele>
        <time>2019-05-11T11:10:42Z</time>
      </trkpt>
      <trkpt lat="39.1931760" lon="-1.4270080">
        <ele>534.2</ele>
        <time>2019-05-11T11:10:43Z</time>
      </trkpt>
      <trkpt lat="39.1931280" lon="-1.4269950">
        <ele>534.2</ele>
        <time>2019-05-11T11:10:44Z</time>
      </trkpt>
      <trkpt lat="39.1930810" lon="-1.4269820">
        <ele>534.2</ele>
        <time>2019-05-11T11:10:45Z</time>
      </trkpt>
      <trkpt lat="39.1930340" lon="-1.4269710">
        <ele>534.0</ele>
        <time>2019-05-11T11:10:46Z</time>
      </trkpt>
      <trkpt lat="39.1929880" lon="-1.4269640">
        <ele>534.0</ele>
        <time>2019-05-11T11:10:47Z</time>
      </trkpt>
      <trkpt lat="39.1929420" lon="-1.4269540">
        <ele>534.0</ele>
        <time>2019-05-11T11:10:48Z</time>
      </trkpt>
      <trkpt lat="39.1928930" lon="-1.4269420">
        <ele>534.0</ele>
        <time>2019-05-11T11:10:49Z</time>
      </trkpt>
      <trkpt lat="39.1928410" lon="-1.4269370">
        <ele>534.0</ele>
        <time>2019-05-11T11:10:50Z</time>
      </trkpt>
      <trkpt lat="39.1927880" lon="-1.4269250">
        <ele>534.0</ele>
        <time>2019-05-11T11:10:51Z</time>
      </trkpt>
      <trkpt lat="39.1927320" lon="-1.4269130">
        <ele>534.0</ele>
        <time>2019-05-11T11:10:52Z</time>
      </trkpt>
      <trkpt lat="39.1926730" lon="-1.4268980">
        <ele>534.0</ele>
        <time>2019-05-11T11:10:53Z</time>
      </trkpt>
      <trkpt lat="39.1926130" lon="-1.4268830">
        <ele>534.0</ele>
        <time>2019-05-11T11:10:54Z</time>
      </trkpt>
      <trkpt lat="39.1925510" lon="-1.4268710">
        <ele>534.0</ele>
        <time>2019-05-11T11:10:55Z</time>
      </trkpt>
      <trkpt lat="39.1924900" lon="-1.4268590">
        <ele>534.0</ele>
        <time>2019-05-11T11:10:56Z</time>
      </trkpt>
      <trkpt lat="39.1924310" lon="-1.4268470">
        <ele>534.0</ele>
        <time>2019-05-11T11:10:57Z</time>
      </trkpt>
      <trkpt lat="39.1923740" lon="-1.4268370">
        <ele>534.0</ele>
        <time>2019-05-11T11:10:58Z</time>
      </trkpt>
      <trkpt lat="39.1923180" lon="-1.4268280">
        <ele>534.0</ele>
        <time>2019-05-11T11:10:59Z</time>
      </trkpt>
      <trkpt lat="39.1922640" lon="-1.4268200">
        <ele>534.0</ele>
        <time>2019-05-11T11:11:00Z</time>
      </trkpt>
      <trkpt lat="39.1922130" lon="-1.4268080">
        <ele>534.0</ele>
        <time>2019-05-11T11:11:01Z</time>
      </trkpt>
      <trkpt lat="39.1921600" lon="-1.4268040">
        <ele>534.0</ele>
        <time>2019-05-11T11:11:02Z</time>
      </trkpt>
      <trkpt lat="39.1921070" lon="-1.4267980">
        <ele>534.0</ele>
        <time>2019-05-11T11:11:03Z</time>
      </trkpt>
      <trkpt lat="39.1920530" lon="-1.4267870">
        <ele>534.0</ele>
        <time>2019-05-11T11:11:04Z</time>
      </trkpt>
      <trkpt lat="39.1920000" lon="-1.4267790">
        <ele>534.2</ele>
        <time>2019-05-11T11:11:05Z</time>
      </trkpt>
      <trkpt lat="39.1919490" lon="-1.4267660">
        <ele>534.2</ele>
        <time>2019-05-11T11:11:06Z</time>
      </trkpt>
      <trkpt lat="39.1918960" lon="-1.4267610">
        <ele>534.2</ele>
        <time>2019-05-11T11:11:07Z</time>
      </trkpt>
      <trkpt lat="39.1918410" lon="-1.4267570">
        <ele>534.2</ele>
        <time>2019-05-11T11:11:08Z</time>
      </trkpt>
      <trkpt lat="39.1917850" lon="-1.4267530">
        <ele>534.2</ele>
        <time>2019-05-11T11:11:09Z</time>
      </trkpt>
      <trkpt lat="39.1917260" lon="-1.4267520">
        <ele>534.2</ele>
        <time>2019-05-11T11:11:10Z</time>
      </trkpt>
      <trkpt lat="39.1916660" lon="-1.4267470">
        <ele>534.2</ele>
        <time>2019-05-11T11:11:11Z</time>
      </trkpt>
      <trkpt lat="39.1916050" lon="-1.4267480">
        <ele>534.2</ele>
        <time>2019-05-11T11:11:12Z</time>
      </trkpt>
      <trkpt lat="39.1915440" lon="-1.4267490">
        <ele>534.4</ele>
        <time>2019-05-11T11:11:13Z</time>
      </trkpt>
      <trkpt lat="39.1914820" lon="-1.4267470">
        <ele>534.4</ele>
        <time>2019-05-11T11:11:14Z</time>
      </trkpt>
      <trkpt lat="39.1914200" lon="-1.4267400">
        <ele>534.4</ele>
        <time>2019-05-11T11:11:15Z</time>
      </trkpt>
      <trkpt lat="39.1913590" lon="-1.4267280">
        <ele>534.4</ele>
        <time>2019-05-11T11:11:16Z</time>
      </trkpt>
      <trkpt lat="39.1912980" lon="-1.4267230">
        <ele>534.4</ele>
        <time>2019-05-11T11:11:17Z</time>
      </trkpt>
      <trkpt lat="39.1912380" lon="-1.4267160">
        <ele>534.6</ele>
        <time>2019-05-11T11:11:18Z</time>
      </trkpt>
      <trkpt lat="39.1911810" lon="-1.4267010">
        <ele>534.6</ele>
        <time>2019-05-11T11:11:19Z</time>
      </trkpt>
      <trkpt lat="39.1911280" lon="-1.4266880">
        <ele>534.8</ele>
        <time>2019-05-11T11:11:20Z</time>
      </trkpt>
      <trkpt lat="39.1910780" lon="-1.4266750">
        <ele>534.8</ele>
        <time>2019-05-11T11:11:21Z</time>
      </trkpt>
      <trkpt lat="39.1910330" lon="-1.4266660">
        <ele>535.0</ele>
        <time>2019-05-11T11:11:22Z</time>
      </trkpt>
      <trkpt lat="39.1909910" lon="-1.4266560">
        <ele>535.2</ele>
        <time>2019-05-11T11:11:23Z</time>
      </trkpt>
      <trkpt lat="39.1909510" lon="-1.4266490">
        <ele>535.4</ele>
        <time>2019-05-11T11:11:24Z</time>
      </trkpt>
      <trkpt lat="39.1909090" lon="-1.4266440">
        <ele>535.6</ele>
        <time>2019-05-11T11:11:25Z</time>
      </trkpt>
      <trkpt lat="39.1908660" lon="-1.4266390">
        <ele>535.6</ele>
        <time>2019-05-11T11:11:26Z</time>
      </trkpt>
      <trkpt lat="39.1908240" lon="-1.4266270">
        <ele>535.6</ele>
        <time>2019-05-11T11:11:27Z</time>
      </trkpt>
      <trkpt lat="39.1907830" lon="-1.4266180">
        <ele>535.8</ele>
        <time>2019-05-11T11:11:28Z</time>
      </trkpt>
      <trkpt lat="39.1907420" lon="-1.4265970">
        <ele>535.8</ele>
        <time>2019-05-11T11:11:29Z</time>
      </trkpt>
      <trkpt lat="39.1907000" lon="-1.4265840">
        <ele>535.8</ele>
        <time>2019-05-11T11:11:30Z</time>
      </trkpt>
      <trkpt lat="39.1906580" lon="-1.4265740">
        <ele>536.0</ele>
        <time>2019-05-11T11:11:31Z</time>
      </trkpt>
      <trkpt lat="39.1906130" lon="-1.4265630">
        <ele>536.0</ele>
        <time>2019-05-11T11:11:32Z</time>
      </trkpt>
      <trkpt lat="39.1905660" lon="-1.4265620">
        <ele>536.2</ele>
        <time>2019-05-11T11:11:33Z</time>
      </trkpt>
      <trkpt lat="39.1905170" lon="-1.4265690">
        <ele>536.2</ele>
        <time>2019-05-11T11:11:34Z</time>
      </trkpt>
      <trkpt lat="39.1904670" lon="-1.4265780">
        <ele>536.2</ele>
        <time>2019-05-11T11:11:35Z</time>
      </trkpt>
      <trkpt lat="39.1904170" lon="-1.4265870">
        <ele>536.4</ele>
        <time>2019-05-11T11:11:36Z</time>
      </trkpt>
      <trkpt lat="39.1903690" lon="-1.4266000">
        <ele>536.6</ele>
        <time>2019-05-11T11:11:37Z</time>
      </trkpt>
      <trkpt lat="39.1903200" lon="-1.4266090">
        <ele>536.6</ele>
        <time>2019-05-11T11:11:38Z</time>
      </trkpt>
      <trkpt lat="39.1902750" lon="-1.4266210">
        <ele>536.8</ele>
        <time>2019-05-11T11:11:39Z</time>
      </trkpt>
      <trkpt lat="39.1902250" lon="-1.4266400">
        <ele>536.8</ele>
        <time>2019-05-11T11:11:40Z</time>
      </trkpt>
      <trkpt lat="39.1901690" lon="-1.4266680">
        <ele>536.8</ele>
        <time>2019-05-11T11:11:41Z</time>
      </trkpt>
      <trkpt lat="39.1901100" lon="-1.4267000">
        <ele>536.8</ele>
        <time>2019-05-11T11:11:42Z</time>
      </trkpt>
      <trkpt lat="39.1900580" lon="-1.4267480">
        <ele>536.8</ele>
        <time>2019-05-11T11:11:43Z</time>
      </trkpt>
      <trkpt lat="39.1900160" lon="-1.4268030">
        <ele>536.8</ele>
        <time>2019-05-11T11:11:44Z</time>
      </trkpt>
      <trkpt lat="39.1900030" lon="-1.4269000">
        <ele>536.8</ele>
        <time>2019-05-11T11:11:45Z</time>
      </trkpt>
      <trkpt lat="39.1900140" lon="-1.4269970">
        <ele>536.8</ele>
        <time>2019-05-11T11:11:46Z</time>
      </trkpt>
      <trkpt lat="39.1900450" lon="-1.4270830">
        <ele>536.8</ele>
        <time>2019-05-11T11:11:47Z</time>
      </trkpt>
      <trkpt lat="39.1900790" lon="-1.4271540">
        <ele>536.4</ele>
        <time>2019-05-11T11:11:48Z</time>
      </trkpt>
      <trkpt lat="39.1901190" lon="-1.4272160">
        <ele>535.8</ele>
        <time>2019-05-11T11:11:49Z</time>
      </trkpt>
      <trkpt lat="39.1901550" lon="-1.4272700">
        <ele>535.2</ele>
        <time>2019-05-11T11:11:50Z</time>
      </trkpt>
      <trkpt lat="39.1901790" lon="-1.4273100">
        <ele>534.6</ele>
        <time>2019-05-11T11:11:51Z</time>
      </trkpt>
      <trkpt lat="39.1901940" lon="-1.4273430">
        <ele>534.2</ele>
        <time>2019-05-11T11:11:52Z</time>
      </trkpt>
      <trkpt lat="39.1902040" lon="-1.4273750">
        <ele>533.8</ele>
        <time>2019-05-11T11:11:53Z</time>
      </trkpt>
      <trkpt lat="39.1902140" lon="-1.4274080">
        <ele>533.6</ele>
        <time>2019-05-11T11:11:54Z</time>
      </trkpt>
      <trkpt lat="39.1902290" lon="-1.4274420">
        <ele>533.4</ele>
        <time>2019-05-11T11:11:55Z</time>
      </trkpt>
      <trkpt lat="39.1902460" lon="-1.4274750">
        <ele>532.8</ele>
        <time>2019-05-11T11:11:56Z</time>
      </trkpt>
      <trkpt lat="39.1902630" lon="-1.4275090">
        <ele>532.4</ele>
        <time>2019-05-11T11:11:57Z</time>
      </trkpt>
      <trkpt lat="39.1902760" lon="-1.4275430">
        <ele>532.2</ele>
        <time>2019-05-11T11:11:58Z</time>
      </trkpt>
      <trkpt lat="39.1902880" lon="-1.4275780">
        <ele>532.0</ele>
        <time>2019-05-11T11:11:59Z</time>
      </trkpt>
      <trkpt lat="39.1902950" lon="-1.4276080">
        <ele>531.8</ele>
        <time>2019-05-11T11:12:00Z</time>
      </trkpt>
      <trkpt lat="39.1903020" lon="-1.4276320">
        <ele>531.6</ele>
        <time>2019-05-11T11:12:01Z</time>
      </trkpt>
      <trkpt lat="39.1903080" lon="-1.4276540">
        <ele>531.6</ele>
        <time>2019-05-11T11:12:02Z</time>
      </trkpt>
      <trkpt lat="39.1903160" lon="-1.4276760">
        <ele>531.4</ele>
        <time>2019-05-11T11:12:03Z</time>
      </trkpt>
      <trkpt lat="39.1903200" lon="-1.4276970">
        <ele>531.4</ele>
        <time>2019-05-11T11:12:04Z</time>
      </trkpt>
      <trkpt lat="39.1903200" lon="-1.4277090">
        <ele>531.4</ele>
        <time>2019-05-11T11:12:05Z</time>
      </trkpt>
      <trkpt lat="39.1903220" lon="-1.4277110">
        <ele>531.2</ele>
        <time>2019-05-11T11:12:06Z</time>
      </trkpt>
      <trkpt lat="39.1903220" lon="-1.4277110">
        <ele>531.2</ele>
        <time>2019-05-11T11:12:07Z</time>
      </trkpt>
      <trkpt lat="39.1903220" lon="-1.4277150">
        <ele>531.2</ele>
        <time>2019-05-11T11:12:08Z</time>
      </trkpt>
      <trkpt lat="39.1903240" lon="-1.4277190">
        <ele>531.0</ele>
        <time>2019-05-11T11:12:09Z</time>
      </trkpt>
      <trkpt lat="39.1903250" lon="-1.4277230">
        <ele>530.8</ele>
        <time>2019-05-11T11:12:10Z</time>
      </trkpt>
      <trkpt lat="39.1903250" lon="-1.4277230">
        <ele>531.0</ele>
        <time>2019-05-11T11:12:11Z</time>
      </trkpt>
      <trkpt lat="39.1903320" lon="-1.4277270">
        <ele>531.0</ele>
        <time>2019-05-11T11:12:12Z</time>
      </trkpt>
      <trkpt lat="39.1903320" lon="-1.4277270">
        <ele>531.0</ele>
        <time>2019-05-11T11:12:13Z</time>
      </trkpt>
      <trkpt lat="39.1903320" lon="-1.4277270">
        <ele>531.0</ele>
        <time>2019-05-11T11:12:14Z</time>
      </trkpt>
      <trkpt lat="39.1903320" lon="-1.4277270">
        <ele>530.8</ele>
        <time>2019-05-11T11:12:15Z</time>
      </trkpt>
      <trkpt lat="39.1903290" lon="-1.4277200">
        <ele>530.8</ele>
        <time>2019-05-11T11:12:16Z</time>
      </trkpt>
      <trkpt lat="39.1903290" lon="-1.4277200">
        <ele>530.8</ele>
        <time>2019-05-11T11:12:17Z</time>
      </trkpt>
      <trkpt lat="39.1903290" lon="-1.4277200">
        <ele>530.8</ele>
        <time>2019-05-11T11:12:18Z</time>
      </trkpt>
      <trkpt lat="39.1903290" lon="-1.4277200">
        <ele>530.8</ele>
        <time>2019-05-11T11:12:19Z</time>
      </trkpt>
      <trkpt lat="39.1903290" lon="-1.4277200">
        <ele>530.8</ele>
        <time>2019-05-11T11:12:20Z</time>
      </trkpt>
      <trkpt lat="39.1903290" lon="-1.4277200">
        <ele>530.8</ele>
        <time>2019-05-11T11:12:21Z</time>
      </trkpt>
      <trkpt lat="39.1903290" lon="-1.4277200">
        <ele>530.8</ele>
        <time>2019-05-11T11:12:22Z</time>
      </trkpt>
      <trkpt lat="39.1903290" lon="-1.4277200">
        <ele>530.8</ele>
        <time>2019-05-11T11:12:23Z</time>
      </trkpt>
      <trkpt lat="39.1903290" lon="-1.4277200">
        <ele>530.8</ele>
        <time>2019-05-11T11:12:24Z</time>
      </trkpt>
      <trkpt lat="39.1903290" lon="-1.4277200">
        <ele>530.8</ele>
        <time>2019-05-11T11:12:25Z</time>
      </trkpt>
      <trkpt lat="39.1903290" lon="-1.4277200">
        <ele>530.8</ele>
        <time>2019-05-11T11:12:26Z</time>
      </trkpt>
      <trkpt lat="39.1903290" lon="-1.4277200">
        <ele>530.8</ele>
        <time>2019-05-11T11:12:27Z</time>
      </trkpt>
      <trkpt lat="39.1903290" lon="-1.4277200">
        <ele>530.8</ele>
        <time>2019-05-11T11:12:28Z</time>
      </trkpt>
      <trkpt lat="39.1903290" lon="-1.4277200">
        <ele>530.8</ele>
        <time>2019-05-11T11:12:29Z</time>
      </trkpt>
      <trkpt lat="39.1903290" lon="-1.4277200">
        <ele>530.8</ele>
        <time>2019-05-11T11:12:30Z</time>
      </trkpt>
      <trkpt lat="39.1903290" lon="-1.4277200">
        <ele>530.8</ele>
        <time>2019-05-11T11:12:31Z</time>
      </trkpt>
      <trkpt lat="39.1901580" lon="-1.4273380">
        <ele>526.4</ele>
        <time>2019-05-12T07:00:09Z</time>
      </trkpt>
      <trkpt lat="39.1901580" lon="-1.4273370">
        <ele>526.6</ele>
        <time>2019-05-12T07:00:10Z</time>
      </trkpt>
      <trkpt lat="39.1901580" lon="-1.4273370">
        <ele>526.4</ele>
        <time>2019-05-12T07:00:11Z</time>
      </trkpt>
      <trkpt lat="39.1901520" lon="-1.4273310">
        <ele>526.4</ele>
        <time>2019-05-12T07:00:12Z</time>
      </trkpt>
      <trkpt lat="39.1901410" lon="-1.4273140">
        <ele>526.6</ele>
        <time>2019-05-12T07:00:13Z</time>
      </trkpt>
      <trkpt lat="39.1901330" lon="-1.4272900">
        <ele>526.6</ele>
        <time>2019-05-12T07:00:14Z</time>
      </trkpt>
      <trkpt lat="39.1901230" lon="-1.4272620">
        <ele>526.6</ele>
        <time>2019-05-12T07:00:15Z</time>
      </trkpt>
      <trkpt lat="39.1901110" lon="-1.4272310">
        <ele>526.6</ele>
        <time>2019-05-12T07:00:16Z</time>
      </trkpt>
      <trkpt lat="39.1900980" lon="-1.4271980">
        <ele>526.6</ele>
        <time>2019-05-12T07:00:17Z</time>
      </trkpt>
      <trkpt lat="39.1900850" lon="-1.4271670">
        <ele>526.6</ele>
        <time>2019-05-12T07:00:18Z</time>
      </trkpt>
      <trkpt lat="39.1900750" lon="-1.4271390">
        <ele>526.8</ele>
        <time>2019-05-12T07:00:19Z</time>
      </trkpt>
      <trkpt lat="39.1900660" lon="-1.4271140">
        <ele>527.0</ele>
        <time>2019-05-12T07:00:20Z</time>
      </trkpt>
      <trkpt lat="39.1900560" lon="-1.4270940">
        <ele>526.8</ele>
        <time>2019-05-12T07:00:21Z</time>
      </trkpt>
      <trkpt lat="39.1900490" lon="-1.4270760">
        <ele>527.0</ele>
        <time>2019-05-12T07:00:22Z</time>
      </trkpt>
      <trkpt lat="39.1900410" lon="-1.4270550">
        <ele>527.2</ele>
        <time>2019-05-12T07:00:23Z</time>
      </trkpt>
      <trkpt lat="39.1900360" lon="-1.4270350">
        <ele>527.2</ele>
        <time>2019-05-12T07:00:24Z</time>
      </trkpt>
      <trkpt lat="39.1900330" lon="-1.4270190">
        <ele>527.0</ele>
        <time>2019-05-12T07:00:25Z</time>
      </trkpt>
      <trkpt lat="39.1900300" lon="-1.4270030">
        <ele>527.0</ele>
        <time>2019-05-12T07:00:26Z</time>
      </trkpt>
      <trkpt lat="39.1900320" lon="-1.4269820">
        <ele>527.2</ele>
        <time>2019-05-12T07:00:27Z</time>
      </trkpt>
      <trkpt lat="39.1900390" lon="-1.4269580">
        <ele>527.0</ele>
        <time>2019-05-12T07:00:28Z</time>
      </trkpt>
      <trkpt lat="39.1900450" lon="-1.4269330">
        <ele>527.0</ele>
        <time>2019-05-12T07:00:29Z</time>
      </trkpt>
      <trkpt lat="39.1900510" lon="-1.4269120">
        <ele>526.8</ele>
        <time>2019-05-12T07:00:30Z</time>
      </trkpt>
      <trkpt lat="39.1900610" lon="-1.4268940">
        <ele>526.8</ele>
        <time>2019-05-12T07:00:31Z</time>
      </trkpt>
      <trkpt lat="39.1900700" lon="-1.4268790">
        <ele>527.0</ele>
        <time>2019-05-12T07:00:32Z</time>
      </trkpt>
      <trkpt lat="39.1900820" lon="-1.4268650">
        <ele>527.2</ele>
        <time>2019-05-12T07:00:33Z</time>
      </trkpt>
      <trkpt lat="39.1900960" lon="-1.4268500">
        <ele>527.2</ele>
        <time>2019-05-12T07:00:34Z</time>
      </trkpt>
      <trkpt lat="39.1901120" lon="-1.4268350">
        <ele>527.2</ele>
        <time>2019-05-12T07:00:35Z</time>
      </trkpt>
      <trkpt lat="39.1901300" lon="-1.4268180">
        <ele>527.2</ele>
        <time>2019-05-12T07:00:36Z</time>
      </trkpt>
      <trkpt lat="39.1901490" lon="-1.4268020">
        <ele>527.4</ele>
        <time>2019-05-12T07:00:37Z</time>
      </trkpt>
      <trkpt lat="39.1901680" lon="-1.4267870">
        <ele>527.4</ele>
        <time>2019-05-12T07:00:38Z</time>
      </trkpt>
      <trkpt lat="39.1901880" lon="-1.4267720">
        <ele>527.4</ele>
        <time>2019-05-12T07:00:39Z</time>
      </trkpt>
      <trkpt lat="39.1902080" lon="-1.4267580">
        <ele>527.6</ele>
        <time>2019-05-12T07:00:40Z</time>
      </trkpt>
      <trkpt lat="39.1902270" lon="-1.4267430">
        <ele>527.8</ele>
        <time>2019-05-12T07:00:41Z</time>
      </trkpt>
      <trkpt lat="39.1902460" lon="-1.4267280">
        <ele>528.0</ele>
        <time>2019-05-12T07:00:42Z</time>
      </trkpt>
      <trkpt lat="39.1902680" lon="-1.4267100">
        <ele>528.0</ele>
        <time>2019-05-12T07:00:43Z</time>
      </trkpt>
      <trkpt lat="39.1902910" lon="-1.4266920">
        <ele>528.4</ele>
        <time>2019-05-12T07:00:44Z</time>
      </trkpt>
      <trkpt lat="39.1903160" lon="-1.4266740">
        <ele>528.6</ele>
        <time>2019-05-12T07:00:45Z</time>
      </trkpt>
      <trkpt lat="39.1903440" lon="-1.4266520">
        <ele>528.8</ele>
        <time>2019-05-12T07:00:46Z</time>
      </trkpt>
      <trkpt lat="39.1903780" lon="-1.4266240">
        <ele>529.0</ele>
        <time>2019-05-12T07:00:47Z</time>
      </trkpt>
      <trkpt lat="39.1904190" lon="-1.4265980">
        <ele>529.2</ele>
        <time>2019-05-12T07:00:48Z</time>
      </trkpt>
      <trkpt lat="39.1904650" lon="-1.4265840">
        <ele>529.6</ele>
        <time>2019-05-12T07:00:49Z</time>
      </trkpt>
      <trkpt lat="39.1905220" lon="-1.4265770">
        <ele>530.0</ele>
        <time>2019-05-12T07:00:50Z</time>
      </trkpt>
      <trkpt lat="39.1905830" lon="-1.4265830">
        <ele>530.4</ele>
        <time>2019-05-12T07:00:51Z</time>
      </trkpt>
      <trkpt lat="39.1906480" lon="-1.4265970">
        <ele>531.0</ele>
        <time>2019-05-12T07:00:52Z</time>
      </trkpt>
      <trkpt lat="39.1907180" lon="-1.4266150">
        <ele>531.4</ele>
        <time>2019-05-12T07:00:53Z</time>
      </trkpt>
      <trkpt lat="39.1907890" lon="-1.4266370">
        <ele>531.8</ele>
        <time>2019-05-12T07:00:54Z</time>
      </trkpt>
      <trkpt lat="39.1908640" lon="-1.4266650">
        <ele>532.0</ele>
        <time>2019-05-12T07:00:55Z</time>
      </trkpt>
      <trkpt lat="39.1909410" lon="-1.4266940">
        <ele>532.2</ele>
        <time>2019-05-12T07:00:56Z</time>
      </trkpt>
      <trkpt lat="39.1910210" lon="-1.4267210">
        <ele>532.2</ele>
        <time>2019-05-12T07:00:57Z</time>
      </trkpt>
      <trkpt lat="39.1911020" lon="-1.4267440">
        <ele>532.4</ele>
        <time>2019-05-12T07:00:58Z</time>
      </trkpt>
      <trkpt lat="39.1911840" lon="-1.4267560">
        <ele>532.4</ele>
        <time>2019-05-12T07:00:59Z</time>
      </trkpt>
      <trkpt lat="39.1912660" lon="-1.4267570">
        <ele>532.4</ele>
        <time>2019-05-12T07:01:00Z</time>
      </trkpt>
      <trkpt lat="39.1913480" lon="-1.4267560">
        <ele>532.4</ele>
        <time>2019-05-12T07:01:01Z</time>
      </trkpt>
      <trkpt lat="39.1914330" lon="-1.4267480">
        <ele>532.4</ele>
        <time>2019-05-12T07:01:02Z</time>
      </trkpt>
      <trkpt lat="39.1915230" lon="-1.4267370">
        <ele>532.4</ele>
        <time>2019-05-12T07:01:03Z</time>
      </trkpt>
      <trkpt lat="39.1916170" lon="-1.4267270">
        <ele>532.4</ele>
        <time>2019-05-12T07:01:04Z</time>
      </trkpt>
      <trkpt lat="39.1917130" lon="-1.4267180">
        <ele>532.4</ele>
        <time>2019-05-12T07:01:05Z</time>
      </trkpt>
      <trkpt lat="39.1918120" lon="-1.4267120">
        <ele>532.2</ele>
        <time>2019-05-12T07:01:06Z</time>
      </trkpt>
      <trkpt lat="39.1919090" lon="-1.4267150">
        <ele>532.0</ele>
        <time>2019-05-12T07:01:07Z</time>
      </trkpt>
      <trkpt lat="39.1920050" lon="-1.4267230">
        <ele>531.8</ele>
        <time>2019-05-12T07:01:08Z</time>
      </trkpt>
      <trkpt lat="39.1920970" lon="-1.4267360">
        <ele>531.6</ele>
        <time>2019-05-12T07:01:09Z</time>
      </trkpt>
      <trkpt lat="39.1921880" lon="-1.4267510">
        <ele>531.4</ele>
        <time>2019-05-12T07:01:10Z</time>
      </trkpt>
      <trkpt lat="39.1922790" lon="-1.4267660">
        <ele>531.2</ele>
        <time>2019-05-12T07:01:11Z</time>
      </trkpt>
      <trkpt lat="39.1923660" lon="-1.4267830">
        <ele>531.0</ele>
        <time>2019-05-12T07:01:12Z</time>
      </trkpt>
      <trkpt lat="39.1924510" lon="-1.4268030">
        <ele>531.0</ele>
        <time>2019-05-12T07:01:13Z</time>
      </trkpt>
      <trkpt lat="39.1925370" lon="-1.4268270">
        <ele>530.8</ele>
        <time>2019-05-12T07:01:14Z</time>
      </trkpt>
      <trkpt lat="39.1926200" lon="-1.4268520">
        <ele>530.6</ele>
        <time>2019-05-12T07:01:15Z</time>
      </trkpt>
      <trkpt lat="39.1927040" lon="-1.4268770">
        <ele>530.4</ele>
        <time>2019-05-12T07:01:16Z</time>
      </trkpt>
      <trkpt lat="39.1927890" lon="-1.4268980">
        <ele>530.4</ele>
        <time>2019-05-12T07:01:17Z</time>
      </trkpt>
      <trkpt lat="39.1928750" lon="-1.4269160">
        <ele>530.2</ele>
        <time>2019-05-12T07:01:18Z</time>
      </trkpt>
      <trkpt lat="39.1929640" lon="-1.4269300">
        <ele>530.2</ele>
        <time>2019-05-12T07:01:19Z</time>
      </trkpt>
      <trkpt lat="39.1930540" lon="-1.4269430">
        <ele>530.2</ele>
        <time>2019-05-12T07:01:20Z</time>
      </trkpt>
      <trkpt lat="39.1931460" lon="-1.4269580">
        <ele>530.2</ele>
        <time>2019-05-12T07:01:21Z</time>
      </trkpt>
      <trkpt lat="39.1932380" lon="-1.4269770">
        <ele>530.0</ele>
        <time>2019-05-12T07:01:22Z</time>
      </trkpt>
      <trkpt lat="39.1933330" lon="-1.4269960">
        <ele>529.8</ele>
        <time>2019-05-12T07:01:23Z</time>
      </trkpt>
      <trkpt lat="39.1934310" lon="-1.4270110">
        <ele>529.8</ele>
        <time>2019-05-12T07:01:24Z</time>
      </trkpt>
      <trkpt lat="39.1935290" lon="-1.4270190">
        <ele>529.8</ele>
        <time>2019-05-12T07:01:25Z</time>
      </trkpt>
      <trkpt lat="39.1936260" lon="-1.4270220">
        <ele>529.6</ele>
        <time>2019-05-12T07:01:26Z</time>
      </trkpt>
      <trkpt lat="39.1937180" lon="-1.4270230">
        <ele>529.6</ele>
        <time>2019-05-12T07:01:27Z</time>
      </trkpt>
      <trkpt lat="39.1938120" lon="-1.4270200">
        <ele>529.6</ele>
        <time>2019-05-12T07:01:28Z</time>
      </trkpt>
      <trkpt lat="39.1939090" lon="-1.4270140">
        <ele>529.6</ele>
        <time>2019-05-12T07:01:29Z</time>
      </trkpt>
      <trkpt lat="39.1940040" lon="-1.4270090">
        <ele>529.4</ele>
        <time>2019-05-12T07:01:30Z</time>
      </trkpt>
      <trkpt lat="39.1940970" lon="-1.4270020">
        <ele>529.4</ele>
        <time>2019-05-12T07:01:31Z</time>
      </trkpt>
      <trkpt lat="39.1941830" lon="-1.4270000">
        <ele>529.4</ele>
        <time>2019-05-12T07:01:32Z</time>
      </trkpt>
      <trkpt lat="39.1942580" lon="-1.4270200">
        <ele>529.4</ele>
        <time>2019-05-12T07:01:33Z</time>
      </trkpt>
      <trkpt lat="39.1943270" lon="-1.4270670">
        <ele>529.4</ele>
        <time>2019-05-12T07:01:34Z</time>
      </trkpt>
      <trkpt lat="39.1943910" lon="-1.4271290">
        <ele>529.4</ele>
        <time>2019-05-12T07:01:35Z</time>
      </trkpt>
      <trkpt lat="39.1944360" lon="-1.4272040">
        <ele>529.4</ele>
        <time>2019-05-12T07:01:36Z</time>
      </trkpt>
      <trkpt lat="39.1944220" lon="-1.4273070">
        <ele>529.2</ele>
        <time>2019-05-12T07:01:37Z</time>
      </trkpt>
      <trkpt lat="39.1944060" lon="-1.4274090">
        <ele>529.2</ele>
        <time>2019-05-12T07:01:38Z</time>
      </trkpt>
      <trkpt lat="39.1943890" lon="-1.4275100">
        <ele>529.2</ele>
        <time>2019-05-12T07:01:39Z</time>
      </trkpt>
      <trkpt lat="39.1943740" lon="-1.4276090">
        <ele>529.2</ele>
        <time>2019-05-12T07:01:40Z</time>
      </trkpt>
      <trkpt lat="39.1943620" lon="-1.4277080">
        <ele>529.0</ele>
        <time>2019-05-12T07:01:41Z</time>
      </trkpt>
      <trkpt lat="39.1943500" lon="-1.4278090">
        <ele>529.0</ele>
        <time>2019-05-12T07:01:42Z</time>
      </trkpt>
      <trkpt lat="39.1943380" lon="-1.4279090">
        <ele>529.0</ele>
        <time>2019-05-12T07:01:43Z</time>
      </trkpt>
      <trkpt lat="39.1943270" lon="-1.4280100">
        <ele>529.0</ele>
        <time>2019-05-12T07:01:44Z</time>
      </trkpt>
      <trkpt lat="39.1943160" lon="-1.4281090">
        <ele>528.8</ele>
        <time>2019-05-12T07:01:45Z</time>
      </trkpt>
      <trkpt lat="39.1943050" lon="-1.4282050">
        <ele>528.8</ele>
        <time>2019-05-12T07:01:46Z</time>
      </trkpt>
      <trkpt lat="39.1942980" lon="-1.4282990">
        <ele>528.6</ele>
        <time>2019-05-12T07:01:47Z</time>
      </trkpt>
      <trkpt lat="39.1943020" lon="-1.4283890">
        <ele>528.6</ele>
        <time>2019-05-12T07:01:48Z</time>
      </trkpt>
      <trkpt lat="39.1943210" lon="-1.4284750">
        <ele>528.6</ele>
        <time>2019-05-12T07:01:49Z</time>
      </trkpt>
      <trkpt lat="39.1943620" lon="-1.4285450">
        <ele>528.6</ele>
        <time>2019-05-12T07:01:50Z</time>
      </trkpt>
      <trkpt lat="39.1944210" lon="-1.4285920">
        <ele>528.6</ele>
        <time>2019-05-12T07:01:51Z</time>
      </trkpt>
      <trkpt lat="39.1944890" lon="-1.4286170">
        <ele>528.6</ele>
        <time>2019-05-12T07:01:52Z</time>
      </trkpt>
      <trkpt lat="39.1945560" lon="-1.4286270">
        <ele>528.6</ele>
        <time>2019-05-12T07:01:53Z</time>
      </trkpt>
      <trkpt lat="39.1946250" lon="-1.4286310">
        <ele>528.6</ele>
        <time>2019-05-12T07:01:54Z</time>
      </trkpt>
      <trkpt lat="39.1946940" lon="-1.4286340">
        <ele>528.6</ele>
        <time>2019-05-12T07:01:55Z</time>
      </trkpt>
      <trkpt lat="39.1947660" lon="-1.4286350">
        <ele>528.6</ele>
        <time>2019-05-12T07:01:56Z</time>
      </trkpt>
      <trkpt lat="39.1948360" lon="-1.4286340">
        <ele>528.6</ele>
        <time>2019-05-12T07:01:57Z</time>
      </trkpt>
      <trkpt lat="39.1949080" lon="-1.4286300">
        <ele>528.6</ele>
        <time>2019-05-12T07:01:58Z</time>
      </trkpt>
      <trkpt lat="39.1949810" lon="-1.4286220">
        <ele>528.8</ele>
        <time>2019-05-12T07:01:59Z</time>
      </trkpt>
      <trkpt lat="39.1950530" lon="-1.4286120">
        <ele>528.8</ele>
        <time>2019-05-12T07:02:00Z</time>
      </trkpt>
      <trkpt lat="39.1951250" lon="-1.4286010">
        <ele>529.0</ele>
        <time>2019-05-12T07:02:01Z</time>
      </trkpt>
      <trkpt lat="39.1951950" lon="-1.4285890">
        <ele>529.2</ele>
        <time>2019-05-12T07:02:02Z</time>
      </trkpt>
      <trkpt lat="39.1952620" lon="-1.4285780">
        <ele>529.4</ele>
        <time>2019-05-12T07:02:03Z</time>
      </trkpt>
      <trkpt lat="39.1953290" lon="-1.4285650">
        <ele>529.6</ele>
        <time>2019-05-12T07:02:04Z</time>
      </trkpt>
      <trkpt lat="39.1953940" lon="-1.4285490">
        <ele>529.8</ele>
        <time>2019-05-12T07:02:05Z</time>
      </trkpt>
      <trkpt lat="39.1954580" lon="-1.4285290">
        <ele>530.0</ele>
        <time>2019-05-12T07:02:06Z</time>
      </trkpt>
      <trkpt lat="39.1955220" lon="-1.4285070">
        <ele>530.0</ele>
        <time>2019-05-12T07:02:07Z</time>
      </trkpt>
      <trkpt lat="39.1955840" lon="-1.4284840">
        <ele>530.2</ele>
        <time>2019-05-12T07:02:08Z</time>
      </trkpt>
      <trkpt lat="39.1956450" lon="-1.4284610">
        <ele>530.4</ele>
        <time>2019-05-12T07:02:09Z</time>
      </trkpt>
      <trkpt lat="39.1957060" lon="-1.4284370">
        <ele>530.6</ele>
        <time>2019-05-12T07:02:10Z</time>
      </trkpt>
      <trkpt lat="39.1957660" lon="-1.4284140">
        <ele>531.0</ele>
        <time>2019-05-12T07:02:11Z</time>
      </trkpt>
      <trkpt lat="39.1958270" lon="-1.4283920">
        <ele>531.2</ele>
        <time>2019-05-12T07:02:12Z</time>
      </trkpt>
      <trkpt lat="39.1958890" lon="-1.4283700">
        <ele>531.4</ele>
        <time>2019-05-12T07:02:13Z</time>
      </trkpt>
      <trkpt lat="39.1959490" lon="-1.4283450">
        <ele>531.6</ele>
        <time>2019-05-12T07:02:14Z</time>
      </trkpt>
      <trkpt lat="39.1960100" lon="-1.4283230">
        <ele>531.8</ele>
        <time>2019-05-12T07:02:15Z</time>
      </trkpt>
      <trkpt lat="39.1960710" lon="-1.4283030">
        <ele>532.2</ele>
        <time>2019-05-12T07:02:16Z</time>
      </trkpt>
      <trkpt lat="39.1961330" lon="-1.4282860">
        <ele>532.4</ele>
        <time>2019-05-12T07:02:17Z</time>
      </trkpt>
      <trkpt lat="39.1961950" lon="-1.4282660">
        <ele>532.6</ele>
        <time>2019-05-12T07:02:18Z</time>
      </trkpt>
      <trkpt lat="39.1962540" lon="-1.4282410">
        <ele>533.0</ele>
        <time>2019-05-12T07:02:19Z</time>
      </trkpt>
      <trkpt lat="39.1963140" lon="-1.4282160">
        <ele>533.2</ele>
        <time>2019-05-12T07:02:20Z</time>
      </trkpt>
      <trkpt lat="39.1963740" lon="-1.4281890">
        <ele>533.4</ele>
        <time>2019-05-12T07:02:21Z</time>
      </trkpt>
      <trkpt lat="39.1964290" lon="-1.4281600">
        <ele>534.0</ele>
        <time>2019-05-12T07:02:22Z</time>
      </trkpt>
      <trkpt lat="39.1964840" lon="-1.4281300">
        <ele>534.2</ele>
        <time>2019-05-12T07:02:23Z</time>
      </trkpt>
      <trkpt lat="39.1965420" lon="-1.4281010">
        <ele>534.6</ele>
        <time>2019-05-12T07:02:24Z</time>
      </trkpt>
      <trkpt lat="39.1966000" lon="-1.4280680">
        <ele>535.0</ele>
        <time>2019-05-12T07:02:25Z</time>
      </trkpt>
      <trkpt lat="39.1966550" lon="-1.4280340">
        <ele>535.2</ele>
        <time>2019-05-12T07:02:26Z</time>
      </trkpt>
      <trkpt lat="39.1967100" lon="-1.4280000">
        <ele>535.6</ele>
        <time>2019-05-12T07:02:27Z</time>
      </trkpt>
      <trkpt lat="39.1967670" lon="-1.4279630">
        <ele>535.8</ele>
        <time>2019-05-12T07:02:28Z</time>
      </trkpt>
      <trkpt lat="39.1968210" lon="-1.4279210">
        <ele>536.2</ele>
        <time>2019-05-12T07:02:29Z</time>
      </trkpt>
      <trkpt lat="39.1968750" lon="-1.4278790">
        <ele>536.4</ele>
        <time>2019-05-12T07:02:30Z</time>
      </trkpt>
      <trkpt lat="39.1969310" lon="-1.4278380">
        <ele>536.8</ele>
        <time>2019-05-12T07:02:31Z</time>
      </trkpt>
      <trkpt lat="39.1969850" lon="-1.4277950">
        <ele>537.0</ele>
        <time>2019-05-12T07:02:32Z</time>
      </trkpt>
      <trkpt lat="39.1970360" lon="-1.4277470">
        <ele>537.4</ele>
        <time>2019-05-12T07:02:33Z</time>
      </trkpt>
      <trkpt lat="39.1970870" lon="-1.4276970">
        <ele>537.6</ele>
        <time>2019-05-12T07:02:34Z</time>
      </trkpt>
      <trkpt lat="39.1971350" lon="-1.4276430">
        <ele>537.8</ele>
        <time>2019-05-12T07:02:35Z</time>
      </trkpt>
      <trkpt lat="39.1971830" lon="-1.4275920">
        <ele>537.8</ele>
        <time>2019-05-12T07:02:36Z</time>
      </trkpt>
      <trkpt lat="39.1972270" lon="-1.4275560">
        <ele>537.8</ele>
        <time>2019-05-12T07:02:37Z</time>
      </trkpt>
      <trkpt lat="39.1972720" lon="-1.4275030">
        <ele>538.2</ele>
        <time>2019-05-12T07:02:38Z</time>
      </trkpt>
      <trkpt lat="39.1973180" lon="-1.4274550">
        <ele>538.4</ele>
        <time>2019-05-12T07:02:39Z</time>
      </trkpt>
      <trkpt lat="39.1973660" lon="-1.4274110">
        <ele>538.8</ele>
        <time>2019-05-12T07:02:40Z</time>
      </trkpt>
      <trkpt lat="39.1974130" lon="-1.4273770">
        <ele>539.0</ele>
        <time>2019-05-12T07:02:41Z</time>
      </trkpt>
      <trkpt lat="39.1974590" lon="-1.4273460">
        <ele>539.2</ele>
        <time>2019-05-12T07:02:42Z</time>
      </trkpt>
      <trkpt lat="39.1975070" lon="-1.4273200">
        <ele>539.4</ele>
        <time>2019-05-12T07:02:43Z</time>
      </trkpt>
      <trkpt lat="39.1975570" lon="-1.4273050">
        <ele>539.6</ele>
        <time>2019-05-12T07:02:44Z</time>
      </trkpt>
      <trkpt lat="39.1976070" lon="-1.4272970">
        <ele>539.8</ele>
        <time>2019-05-12T07:02:45Z</time>
      </trkpt>
      <trkpt lat="39.1976570" lon="-1.4272930">
        <ele>540.2</ele>
        <time>2019-05-12T07:02:46Z</time>
      </trkpt>
      <trkpt lat="39.1977080" lon="-1.4272930">
        <ele>540.2</ele>
        <time>2019-05-12T07:02:47Z</time>
      </trkpt>
      <trkpt lat="39.1977570" lon="-1.4272970">
        <ele>540.6</ele>
        <time>2019-05-12T07:02:48Z</time>
      </trkpt>
      <trkpt lat="39.1978030" lon="-1.4273040">
        <ele>540.8</ele>
        <time>2019-05-12T07:02:49Z</time>
      </trkpt>
      <trkpt lat="39.1978480" lon="-1.4273130">
        <ele>541.2</ele>
        <time>2019-05-12T07:02:50Z</time>
      </trkpt>
      <trkpt lat="39.1978910" lon="-1.4273230">
        <ele>541.6</ele>
        <time>2019-05-12T07:02:51Z</time>
      </trkpt>
      <trkpt lat="39.1979360" lon="-1.4273320">
        <ele>541.8</ele>
        <time>2019-05-12T07:02:52Z</time>
      </trkpt>
      <trkpt lat="39.1979780" lon="-1.4273390">
        <ele>542.2</ele>
        <time>2019-05-12T07:02:53Z</time>
      </trkpt>
      <trkpt lat="39.1980210" lon="-1.4273460">
        <ele>542.6</ele>
        <time>2019-05-12T07:02:54Z</time>
      </trkpt>
      <trkpt lat="39.1980640" lon="-1.4273500">
        <ele>542.8</ele>
        <time>2019-05-12T07:02:55Z</time>
      </trkpt>
      <trkpt lat="39.1981090" lon="-1.4273490">
        <ele>543.0</ele>
        <time>2019-05-12T07:02:56Z</time>
      </trkpt>
      <trkpt lat="39.1981520" lon="-1.4273400">
        <ele>543.8</ele>
        <time>2019-05-12T07:02:57Z</time>
      </trkpt>
      <trkpt lat="39.1981950" lon="-1.4273220">
        <ele>544.0</ele>
        <time>2019-05-12T07:02:58Z</time>
      </trkpt>
      <trkpt lat="39.1982360" lon="-1.4272980">
        <ele>544.4</ele>
        <time>2019-05-12T07:02:59Z</time>
      </trkpt>
      <trkpt lat="39.1982700" lon="-1.4272640">
        <ele>544.6</ele>
        <time>2019-05-12T07:03:00Z</time>
      </trkpt>
      <trkpt lat="39.1982900" lon="-1.4272230">
        <ele>545.0</ele>
        <time>2019-05-12T07:03:01Z</time>
      </trkpt>
      <trkpt lat="39.1982980" lon="-1.4271740">
        <ele>545.4</ele>
        <time>2019-05-12T07:03:02Z</time>
      </trkpt>
      <trkpt lat="39.1982980" lon="-1.4271220">
        <ele>545.8</ele>
        <time>2019-05-12T07:03:03Z</time>
      </trkpt>
      <trkpt lat="39.1982910" lon="-1.4270670">
        <ele>546.0</ele>
        <time>2019-05-12T07:03:04Z</time>
      </trkpt>
      <trkpt lat="39.1982780" lon="-1.4270110">
        <ele>546.2</ele>
        <time>2019-05-12T07:03:05Z</time>
      </trkpt>
      <trkpt lat="39.1982690" lon="-1.4269530">
        <ele>546.4</ele>
        <time>2019-05-12T07:03:06Z</time>
      </trkpt>
      <trkpt lat="39.1982590" lon="-1.4268980">
        <ele>546.6</ele>
        <time>2019-05-12T07:03:07Z</time>
      </trkpt>
      <trkpt lat="39.1982440" lon="-1.4268450">
        <ele>547.0</ele>
        <time>2019-05-12T07:03:08Z</time>
      </trkpt>
      <trkpt lat="39.1982300" lon="-1.4267920">
        <ele>547.4</ele>
        <time>2019-05-12T07:03:09Z</time>
      </trkpt>
      <trkpt lat="39.1982130" lon="-1.4267420">
        <ele>547.6</ele>
        <time>2019-05-12T07:03:10Z</time>
      </trkpt>
      <trkpt lat="39.1981980" lon="-1.4266930">
        <ele>548.0</ele>
        <time>2019-05-12T07:03:11Z</time>
      </trkpt>
      <trkpt lat="39.1981860" lon="-1.4266450">
        <ele>548.4</ele>
        <time>2019-05-12T07:03:12Z</time>
      </trkpt>
      <trkpt lat="39.1981730" lon="-1.4265990">
        <ele>548.6</ele>
        <time>2019-05-12T07:03:13Z</time>
      </trkpt>
      <trkpt lat="39.1981590" lon="-1.4265540">
        <ele>549.0</ele>
        <time>2019-05-12T07:03:14Z</time>
      </trkpt>
      <trkpt lat="39.1981460" lon="-1.4265090">
        <ele>549.2</ele>
        <time>2019-05-12T07:03:15Z</time>
      </trkpt>
      <trkpt lat="39.1981380" lon="-1.4264640">
        <ele>549.4</ele>
        <time>2019-05-12T07:03:16Z</time>
      </trkpt>
      <trkpt lat="39.1981330" lon="-1.4264190">
        <ele>549.8</ele>
        <time>2019-05-12T07:03:17Z</time>
      </trkpt>
      <trkpt lat="39.1981380" lon="-1.4263770">
        <ele>550.0</ele>
        <time>2019-05-12T07:03:18Z</time>
      </trkpt>
      <trkpt lat="39.1981500" lon="-1.4263390">
        <ele>550.4</ele>
        <time>2019-05-12T07:03:19Z</time>
      </trkpt>
      <trkpt lat="39.1981690" lon="-1.4263080">
        <ele>550.8</ele>
        <time>2019-05-12T07:03:20Z</time>
      </trkpt>
      <trkpt lat="39.1981910" lon="-1.4262870">
        <ele>551.0</ele>
        <time>2019-05-12T07:03:21Z</time>
      </trkpt>
      <trkpt lat="39.1982190" lon="-1.4262730">
        <ele>551.4</ele>
        <time>2019-05-12T07:03:22Z</time>
      </trkpt>
      <trkpt lat="39.1982480" lon="-1.4262660">
        <ele>551.6</ele>
        <time>2019-05-12T07:03:23Z</time>
      </trkpt>
      <trkpt lat="39.1982790" lon="-1.4262650">
        <ele>551.8</ele>
        <time>2019-05-12T07:03:24Z</time>
      </trkpt>
      <trkpt lat="39.1983110" lon="-1.4262700">
        <ele>552.2</ele>
        <time>2019-05-12T07:03:25Z</time>
      </trkpt>
      <trkpt lat="39.1983440" lon="-1.4262760">
        <ele>552.6</ele>
        <time>2019-05-12T07:03:26Z</time>
      </trkpt>
      <trkpt lat="39.1983780" lon="-1.4262860">
        <ele>552.8</ele>
        <time>2019-05-12T07:03:27Z</time>
      </trkpt>
      <trkpt lat="39.1984120" lon="-1.4262950">
        <ele>553.2</ele>
        <time>2019-05-12T07:03:28Z</time>
      </trkpt>
      <trkpt lat="39.1984450" lon="-1.4263040">
        <ele>553.6</ele>
        <time>2019-05-12T07:03:29Z</time>
      </trkpt>
      <trkpt lat="39.1984790" lon="-1.4263120">
        <ele>554.0</ele>
        <time>2019-05-12T07:03:30Z</time>
      </trkpt>
      <trkpt lat="39.1985130" lon="-1.4263190">
        <ele>554.8</ele>
        <time>2019-05-12T07:03:31Z</time>
      </trkpt>
      <trkpt lat="39.1985490" lon="-1.4263270">
        <ele>555.2</ele>
        <time>2019-05-12T07:03:32Z</time>
      </trkpt>
      <trkpt lat="39.1985840" lon="-1.4263340">
        <ele>555.6</ele>
        <time>2019-05-12T07:03:33Z</time>
      </trkpt>
      <trkpt lat="39.1986200" lon="-1.4263420">
        <ele>556.0</ele>
        <time>2019-05-12T07:03:34Z</time>
      </trkpt>
      <trkpt lat="39.1986580" lon="-1.4263500">
        <ele>556.2</ele>
        <time>2019-05-12T07:03:35Z</time>
      </trkpt>
      <trkpt lat="39.1986950" lon="-1.4263590">
        <ele>556.6</ele>
        <time>2019-05-12T07:03:36Z</time>
      </trkpt>
      <trkpt lat="39.1987310" lon="-1.4263670">
        <ele>557.0</ele>
        <time>2019-05-12T07:03:37Z</time>
      </trkpt>
      <trkpt lat="39.1987700" lon="-1.4263720">
        <ele>557.2</ele>
        <time>2019-05-12T07:03:38Z</time>
      </trkpt>
      <trkpt lat="39.1988080" lon="-1.4263760">
        <ele>557.6</ele>
        <time>2019-05-12T07:03:39Z</time>
      </trkpt>
      <trkpt lat="39.1988460" lon="-1.4263750">
        <ele>557.8</ele>
        <time>2019-05-12T07:03:40Z</time>
      </trkpt>
      <trkpt lat="39.1988820" lon="-1.4263700">
        <ele>558.2</ele>
        <time>2019-05-12T07:03:41Z</time>
      </trkpt>
      <trkpt lat="39.1989180" lon="-1.4263560">
        <ele>558.4</ele>
        <time>2019-05-12T07:03:42Z</time>
      </trkpt>
      <trkpt lat="39.1989510" lon="-1.4263350">
        <ele>558.8</ele>
        <time>2019-05-12T07:03:43Z</time>
      </trkpt>
      <trkpt lat="39.1989820" lon="-1.4263060">
        <ele>559.0</ele>
        <time>2019-05-12T07:03:44Z</time>
      </trkpt>
      <trkpt lat="39.1990070" lon="-1.4262720">
        <ele>559.2</ele>
        <time>2019-05-12T07:03:45Z</time>
      </trkpt>
      <trkpt lat="39.1990290" lon="-1.4262330">
        <ele>559.4</ele>
        <time>2019-05-12T07:03:46Z</time>
      </trkpt>
      <trkpt lat="39.1990470" lon="-1.4261910">
        <ele>559.6</ele>
        <time>2019-05-12T07:03:47Z</time>
      </trkpt>
      <trkpt lat="39.1990610" lon="-1.4261460">
        <ele>560.0</ele>
        <time>2019-05-12T07:03:48Z</time>
      </trkpt>
      <trkpt lat="39.1990740" lon="-1.4261010">
        <ele>560.2</ele>
        <time>2019-05-12T07:03:49Z</time>
      </trkpt>
      <trkpt lat="39.1990870" lon="-1.4260560">
        <ele>560.4</ele>
        <time>2019-05-12T07:03:50Z</time>
      </trkpt>
      <trkpt lat="39.1991010" lon="-1.4260120">
        <ele>560.6</ele>
        <time>2019-05-12T07:03:51Z</time>
      </trkpt>
      <trkpt lat="39.1991140" lon="-1.4259690">
        <ele>561.0</ele>
        <time>2019-05-12T07:03:52Z</time>
      </trkpt>
      <trkpt lat="39.1991260" lon="-1.4259260">
        <ele>561.2</ele>
        <time>2019-05-12T07:03:53Z</time>
      </trkpt>
      <trkpt lat="39.1991380" lon="-1.4258820">
        <ele>561.4</ele>
        <time>2019-05-12T07:03:54Z</time>
      </trkpt>
      <trkpt lat="39.1991510" lon="-1.4258380">
        <ele>561.8</ele>
        <time>2019-05-12T07:03:55Z</time>
      </trkpt>
      <trkpt lat="39.1991630" lon="-1.4257940">
        <ele>562.0</ele>
        <time>2019-05-12T07:03:56Z</time>
      </trkpt>
      <trkpt lat="39.1991750" lon="-1.4257490">
        <ele>562.2</ele>
        <time>2019-05-12T07:03:57Z</time>
      </trkpt>
      <trkpt lat="39.1991860" lon="-1.4257040">
        <ele>562.6</ele>
        <time>2019-05-12T07:03:58Z</time>
      </trkpt>
      <trkpt lat="39.1991990" lon="-1.4256580">
        <ele>563.0</ele>
        <time>2019-05-12T07:03:59Z</time>
      </trkpt>
      <trkpt lat="39.1992110" lon="-1.4256130">
        <ele>563.2</ele>
        <time>2019-05-12T07:04:00Z</time>
      </trkpt>
      <trkpt lat="39.1992210" lon="-1.4255690">
        <ele>563.4</ele>
        <time>2019-05-12T07:04:01Z</time>
      </trkpt>
      <trkpt lat="39.1992330" lon="-1.4255240">
        <ele>564.0</ele>
        <time>2019-05-12T07:04:02Z</time>
      </trkpt>
      <trkpt lat="39.1992450" lon="-1.4254790">
        <ele>564.2</ele>
        <time>2019-05-12T07:04:03Z</time>
      </trkpt>
      <trkpt lat="39.1992580" lon="-1.4254330">
        <ele>564.6</ele>
        <time>2019-05-12T07:04:04Z</time>
      </trkpt>
      <trkpt lat="39.1992680" lon="-1.4253850">
        <ele>565.0</ele>
        <time>2019-05-12T07:04:05Z</time>
      </trkpt>
      <trkpt lat="39.1992740" lon="-1.4253360">
        <ele>565.6</ele>
        <time>2019-05-12T07:04:06Z</time>
      </trkpt>
      <trkpt lat="39.1992750" lon="-1.4252870">
        <ele>565.8</ele>
        <time>2019-05-12T07:04:07Z</time>
      </trkpt>
      <trkpt lat="39.1992710" lon="-1.4252380">
        <ele>566.0</ele>
        <time>2019-05-12T07:04:08Z</time>
      </trkpt>
      <trkpt lat="39.1992590" lon="-1.4251910">
        <ele>566.2</ele>
        <time>2019-05-12T07:04:09Z</time>
      </trkpt>
      <trkpt lat="39.1992410" lon="-1.4251480">
        <ele>566.6</ele>
        <time>2019-05-12T07:04:10Z</time>
      </trkpt>
      <trkpt lat="39.1992170" lon="-1.4251070">
        <ele>566.8</ele>
        <time>2019-05-12T07:04:11Z</time>
      </trkpt>
      <trkpt lat="39.1991880" lon="-1.4250690">
        <ele>567.2</ele>
        <time>2019-05-12T07:04:12Z</time>
      </trkpt>
      <trkpt lat="39.1991550" lon="-1.4250370">
        <ele>567.4</ele>
        <time>2019-05-12T07:04:13Z</time>
      </trkpt>
      <trkpt lat="39.1991210" lon="-1.4250070">
        <ele>567.6</ele>
        <time>2019-05-12T07:04:14Z</time>
      </trkpt>
      <trkpt lat="39.1990850" lon="-1.4249780">
        <ele>567.8</ele>
        <time>2019-05-12T07:04:15Z</time>
      </trkpt>
      <trkpt lat="39.1990510" lon="-1.4249460">
        <ele>568.0</ele>
        <time>2019-05-12T07:04:16Z</time>
      </trkpt>
      <trkpt lat="39.1990180" lon="-1.4249150">
        <ele>568.2</ele>
        <time>2019-05-12T07:04:17Z</time>
      </trkpt>
      <trkpt lat="39.1989940" lon="-1.4248760">
        <ele>568.4</ele>
        <time>2019-05-12T07:04:18Z</time>
      </trkpt>
      <trkpt lat="39.1989840" lon="-1.4248270">
        <ele>568.6</ele>
        <time>2019-05-12T07:04:19Z</time>
      </trkpt>
      <trkpt lat="39.1989910" lon="-1.4247800">
        <ele>568.6</ele>
        <time>2019-05-12T07:04:20Z</time>
      </trkpt>
      <trkpt lat="39.1990130" lon="-1.4247480">
        <ele>568.8</ele>
        <time>2019-05-12T07:04:21Z</time>
      </trkpt>
      <trkpt lat="39.1990430" lon="-1.4247390">
        <ele>569.0</ele>
        <time>2019-05-12T07:04:22Z</time>
      </trkpt>
      <trkpt lat="39.1990750" lon="-1.4247440">
        <ele>569.2</ele>
        <time>2019-05-12T07:04:23Z</time>
      </trkpt>
      <trkpt lat="39.1991070" lon="-1.4247600">
        <ele>569.2</ele>
        <time>2019-05-12T07:04:24Z</time>
      </trkpt>
      <trkpt lat="39.1991370" lon="-1.4247820">
        <ele>569.4</ele>
        <time>2019-05-12T07:04:25Z</time>
      </trkpt>
      <trkpt lat="39.1991650" lon="-1.4248100">
        <ele>569.4</ele>
        <time>2019-05-12T07:04:26Z</time>
      </trkpt>
      <trkpt lat="39.1991920" lon="-1.4248420">
        <ele>569.6</ele>
        <time>2019-05-12T07:04:27Z</time>
      </trkpt>
      <trkpt lat="39.1992190" lon="-1.4248750">
        <ele>570.0</ele>
        <time>2019-05-12T07:04:28Z</time>
      </trkpt>
      <trkpt lat="39.1992470" lon="-1.4249090">
        <ele>570.4</ele>
        <time>2019-05-12T07:04:29Z</time>
      </trkpt>
      <trkpt lat="39.1992740" lon="-1.4249440">
        <ele>570.8</ele>
        <time>2019-05-12T07:04:30Z</time>
      </trkpt>
      <trkpt lat="39.1993020" lon="-1.4249780">
        <ele>571.2</ele>
        <time>2019-05-12T07:04:31Z</time>
      </trkpt>
      <trkpt lat="39.1993270" lon="-1.4250140">
        <ele>571.6</ele>
        <time>2019-05-12T07:04:32Z</time>
      </trkpt>
      <trkpt lat="39.1993520" lon="-1.4250520">
        <ele>571.8</ele>
        <time>2019-05-12T07:04:33Z</time>
      </trkpt>
      <trkpt lat="39.1993730" lon="-1.4250910">
        <ele>572.2</ele>
        <time>2019-05-12T07:04:34Z</time>
      </trkpt>
      <trkpt lat="39.1993910" lon="-1.4251340">
        <ele>572.6</ele>
        <time>2019-05-12T07:04:35Z</time>
      </trkpt>
      <trkpt lat="39.1994060" lon="-1.4251770">
        <ele>572.8</ele>
        <time>2019-05-12T07:04:36Z</time>
      </trkpt>
      <trkpt lat="39.1994190" lon="-1.4252220">
        <ele>573.0</ele>
        <time>2019-05-12T07:04:37Z</time>
      </trkpt>
      <trkpt lat="39.1994280" lon="-1.4252680">
        <ele>573.4</ele>
        <time>2019-05-12T07:04:38Z</time>
      </trkpt>
      <trkpt lat="39.1994330" lon="-1.4253150">
        <ele>573.6</ele>
        <time>2019-05-12T07:04:39Z</time>
      </trkpt>
      <trkpt lat="39.1994350" lon="-1.4253630">
        <ele>574.0</ele>
        <time>2019-05-12T07:04:40Z</time>
      </trkpt>
      <trkpt lat="39.1994360" lon="-1.4254120">
        <ele>574.6</ele>
        <time>2019-05-12T07:04:41Z</time>
      </trkpt>
      <trkpt lat="39.1994350" lon="-1.4254610">
        <ele>575.0</ele>
        <time>2019-05-12T07:04:42Z</time>
      </trkpt>
      <trkpt lat="39.1994310" lon="-1.4255110">
        <ele>575.4</ele>
        <time>2019-05-12T07:04:43Z</time>
      </trkpt>
      <trkpt lat="39.1994270" lon="-1.4255610">
        <ele>575.6</ele>
        <time>2019-05-12T07:04:44Z</time>
      </trkpt>
      <trkpt lat="39.1994220" lon="-1.4256120">
        <ele>575.8</ele>
        <time>2019-05-12T07:04:45Z</time>
      </trkpt>
      <trkpt lat="39.1994160" lon="-1.4256610">
        <ele>576.2</ele>
        <time>2019-05-12T07:04:46Z</time>
      </trkpt>
      <trkpt lat="39.1994110" lon="-1.4257120">
        <ele>576.4</ele>
        <time>2019-05-12T07:04:47Z</time>
      </trkpt>
      <trkpt lat="39.1994070" lon="-1.4257610">
        <ele>576.8</ele>
        <time>2019-05-12T07:04:48Z</time>
      </trkpt>
      <trkpt lat="39.1994070" lon="-1.4258100">
        <ele>577.0</ele>
        <time>2019-05-12T07:04:49Z</time>
      </trkpt>
      <trkpt lat="39.1994100" lon="-1.4258580">
        <ele>577.2</ele>
        <time>2019-05-12T07:04:50Z</time>
      </trkpt>
      <trkpt lat="39.1994150" lon="-1.4259060">
        <ele>577.4</ele>
        <time>2019-05-12T07:04:51Z</time>
      </trkpt>
      <trkpt lat="39.1994200" lon="-1.4259520">
        <ele>577.4</ele>
        <time>2019-05-12T07:04:52Z</time>
      </trkpt>
      <trkpt lat="39.1994260" lon="-1.4259970">
        <ele>577.6</ele>
        <time>2019-05-12T07:04:53Z</time>
      </trkpt>
      <trkpt lat="39.1994310" lon="-1.4260410">
        <ele>578.0</ele>
        <time>2019-05-12T07:04:54Z</time>
      </trkpt>
      <trkpt lat="39.1994350" lon="-1.4260860">
        <ele>578.2</ele>
        <time>2019-05-12T07:04:55Z</time>
      </trkpt>
      <trkpt lat="39.1994380" lon="-1.4261320">
        <ele>578.4</ele>
        <time>2019-05-12T07:04:56Z</time>
      </trkpt>
      <trkpt lat="39.1994410" lon="-1.4261790">
        <ele>578.6</ele>
        <time>2019-05-12T07:04:57Z</time>
      </trkpt>
      <trkpt lat="39.1994410" lon="-1.4262270">
        <ele>579.0</ele>
        <time>2019-05-12T07:04:58Z</time>
      </trkpt>
      <trkpt lat="39.1994390" lon="-1.4262720">
        <ele>579.2</ele>
        <time>2019-05-12T07:04:59Z</time>
      </trkpt>
      <trkpt lat="39.1994370" lon="-1.4263170">
        <ele>579.4</ele>
        <time>2019-05-12T07:05:00Z</time>
      </trkpt>
      <trkpt lat="39.1994330" lon="-1.4263600">
        <ele>579.8</ele>
        <time>2019-05-12T07:05:01Z</time>
      </trkpt>
      <trkpt lat="39.1994300" lon="-1.4264030">
        <ele>580.0</ele>
        <time>2019-05-12T07:05:02Z</time>
      </trkpt>
      <trkpt lat="39.1994260" lon="-1.4264470">
        <ele>580.2</ele>
        <time>2019-05-12T07:05:03Z</time>
      </trkpt>
      <trkpt lat="39.1994220" lon="-1.4264920">
        <ele>580.4</ele>
        <time>2019-05-12T07:05:04Z</time>
      </trkpt>
      <trkpt lat="39.1994160" lon="-1.4265370">
        <ele>580.6</ele>
        <time>2019-05-12T07:05:05Z</time>
      </trkpt>
      <trkpt lat="39.1994100" lon="-1.4265830">
        <ele>580.8</ele>
        <time>2019-05-12T07:05:06Z</time>
      </trkpt>
      <trkpt lat="39.1994040" lon="-1.4266300">
        <ele>581.0</ele>
        <time>2019-05-12T07:05:07Z</time>
      </trkpt>
      <trkpt lat="39.1993970" lon="-1.4266760">
        <ele>581.4</ele>
        <time>2019-05-12T07:05:08Z</time>
      </trkpt>
      <trkpt lat="39.1993870" lon="-1.4267220">
        <ele>581.6</ele>
        <time>2019-05-12T07:05:09Z</time>
      </trkpt>
      <trkpt lat="39.1993750" lon="-1.4267690">
        <ele>582.0</ele>
        <time>2019-05-12T07:05:10Z</time>
      </trkpt>
      <trkpt lat="39.1993600" lon="-1.4268160">
        <ele>582.4</ele>
        <time>2019-05-12T07:05:11Z</time>
      </trkpt>
      <trkpt lat="39.1993410" lon="-1.4268600">
        <ele>582.6</ele>
        <time>2019-05-12T07:05:12Z</time>
      </trkpt>
      <trkpt lat="39.1993190" lon="-1.4268990">
        <ele>582.8</ele>
        <time>2019-05-12T07:05:13Z</time>
      </trkpt>
      <trkpt lat="39.1992920" lon="-1.4269340">
        <ele>583.0</ele>
        <time>2019-05-12T07:05:14Z</time>
      </trkpt>
      <trkpt lat="39.1992630" lon="-1.4269630">
        <ele>583.2</ele>
        <time>2019-05-12T07:05:15Z</time>
      </trkpt>
      <trkpt lat="39.1992310" lon="-1.4269900">
        <ele>583.6</ele>
        <time>2019-05-12T07:05:16Z</time>
      </trkpt>
      <trkpt lat="39.1992000" lon="-1.4270150">
        <ele>583.8</ele>
        <time>2019-05-12T07:05:17Z</time>
      </trkpt>
      <trkpt lat="39.1991690" lon="-1.4270380">
        <ele>584.0</ele>
        <time>2019-05-12T07:05:18Z</time>
      </trkpt>
      <trkpt lat="39.1991370" lon="-1.4270580">
        <ele>584.2</ele>
        <time>2019-05-12T07:05:19Z</time>
      </trkpt>
      <trkpt lat="39.1991050" lon="-1.4270770">
        <ele>584.4</ele>
        <time>2019-05-12T07:05:20Z</time>
      </trkpt>
      <trkpt lat="39.1990720" lon="-1.4270940">
        <ele>584.6</ele>
        <time>2019-05-12T07:05:21Z</time>
      </trkpt>
      <trkpt lat="39.1990390" lon="-1.4271110">
        <ele>585.0</ele>
        <time>2019-05-12T07:05:22Z</time>
      </trkpt>
      <trkpt lat="39.1990080" lon="-1.4271310">
        <ele>585.2</ele>
        <time>2019-05-12T07:05:23Z</time>
      </trkpt>
      <trkpt lat="39.1989760" lon="-1.4271550">
        <ele>585.6</ele>
        <time>2019-05-12T07:05:24Z</time>
      </trkpt>
      <trkpt lat="39.1989470" lon="-1.4271840">
        <ele>585.8</ele>
        <time>2019-05-12T07:05:25Z</time>
      </trkpt>
      <trkpt lat="39.1989220" lon="-1.4272160">
        <ele>586.2</ele>
        <time>2019-05-12T07:05:26Z</time>
      </trkpt>
      <trkpt lat="39.1988990" lon="-1.4272520">
        <ele>586.4</ele>
        <time>2019-05-12T07:05:27Z</time>
      </trkpt>
      <trkpt lat="39.1988780" lon="-1.4272890">
        <ele>586.6</ele>
        <time>2019-05-12T07:05:28Z</time>
      </trkpt>
      <trkpt lat="39.1988600" lon="-1.4273270">
        <ele>586.8</ele>
        <time>2019-05-12T07:05:29Z</time>
      </trkpt>
      <trkpt lat="39.1988430" lon="-1.4273650">
        <ele>587.2</ele>
        <time>2019-05-12T07:05:30Z</time>
      </trkpt>
      <trkpt lat="39.1988260" lon="-1.4274040">
        <ele>587.4</ele>
        <time>2019-05-12T07:05:31Z</time>
      </trkpt>
      <trkpt lat="39.1988090" lon="-1.4274420">
        <ele>587.6</ele>
        <time>2019-05-12T07:05:32Z</time>
      </trkpt>
      <trkpt lat="39.1987910" lon="-1.4274800">
        <ele>587.8</ele>
        <time>2019-05-12T07:05:33Z</time>
      </trkpt>
      <trkpt lat="39.1987740" lon="-1.4275170">
        <ele>588.0</ele>
        <time>2019-05-12T07:05:34Z</time>
      </trkpt>
      <trkpt lat="39.1987570" lon="-1.4275550">
        <ele>588.2</ele>
        <time>2019-05-12T07:05:35Z</time>
      </trkpt>
      <trkpt lat="39.1987410" lon="-1.4275940">
        <ele>588.4</ele>
        <time>2019-05-12T07:05:36Z</time>
      </trkpt>
      <trkpt lat="39.1987250" lon="-1.4276320">
        <ele>588.8</ele>
        <time>2019-05-12T07:05:37Z</time>
      </trkpt>
      <trkpt lat="39.1987090" lon="-1.4276710">
        <ele>589.0</ele>
        <time>2019-05-12T07:05:38Z</time>
      </trkpt>
      <trkpt lat="39.1986950" lon="-1.4277100">
        <ele>589.4</ele>
        <time>2019-05-12T07:05:39Z</time>
      </trkpt>
      <trkpt lat="39.1986830" lon="-1.4277500">
        <ele>589.6</ele>
        <time>2019-05-12T07:05:40Z</time>
      </trkpt>
      <trkpt lat="39.1986770" lon="-1.4277920">
        <ele>589.8</ele>
        <time>2019-05-12T07:05:41Z</time>
      </trkpt>
      <trkpt lat="39.1986780" lon="-1.4278320">
        <ele>590.0</ele>
        <time>2019-05-12T07:05:42Z</time>
      </trkpt>
      <trkpt lat="39.1986890" lon="-1.4278700">
        <ele>590.2</ele>
        <time>2019-05-12T07:05:43Z</time>
      </trkpt>
      <trkpt lat="39.1987090" lon="-1.4279010">
        <ele>590.4</ele>
        <time>2019-05-12T07:05:44Z</time>
      </trkpt>
      <trkpt lat="39.1987410" lon="-1.4279160">
        <ele>590.6</ele>
        <time>2019-05-12T07:05:45Z</time>
      </trkpt>
      <trkpt lat="39.1987760" lon="-1.4279170">
        <ele>590.8</ele>
        <time>2019-05-12T07:05:46Z</time>
      </trkpt>
      <trkpt lat="39.1988110" lon="-1.4279020">
        <ele>591.0</ele>
        <time>2019-05-12T07:05:47Z</time>
      </trkpt>
      <trkpt lat="39.1988410" lon="-1.4278780">
        <ele>591.2</ele>
        <time>2019-05-12T07:05:48Z</time>
      </trkpt>
      <trkpt lat="39.1988660" lon="-1.4278480">
        <ele>591.4</ele>
        <time>2019-05-12T07:05:49Z</time>
      </trkpt>
      <trkpt lat="39.1988910" lon="-1.4278160">
        <ele>591.6</ele>
        <time>2019-05-12T07:05:50Z</time>
      </trkpt>
      <trkpt lat="39.1989150" lon="-1.4277840">
        <ele>592.4</ele>
        <time>2019-05-12T07:05:51Z</time>
      </trkpt>
      <trkpt lat="39.1989410" lon="-1.4277530">
        <ele>592.8</ele>
        <time>2019-05-12T07:05:52Z</time>
      </trkpt>
      <trkpt lat="39.1989670" lon="-1.4277230">
        <ele>593.0</ele>
        <time>2019-05-12T07:05:53Z</time>
      </trkpt>
      <trkpt lat="39.1989930" lon="-1.4276940">
        <ele>593.4</ele>
        <time>2019-05-12T07:05:54Z</time>
      </trkpt>
      <trkpt lat="39.1990220" lon="-1.4276670">
        <ele>593.8</ele>
        <time>2019-05-12T07:05:55Z</time>
      </trkpt>
      <trkpt lat="39.1990520" lon="-1.4276430">
        <ele>594.0</ele>
        <time>2019-05-12T07:05:56Z</time>
      </trkpt>
      <trkpt lat="39.1990820" lon="-1.4276210">
        <ele>594.4</ele>
        <time>2019-05-12T07:05:57Z</time>
      </trkpt>
      <trkpt lat="39.1991130" lon="-1.4275990">
        <ele>594.6</ele>
        <time>2019-05-12T07:05:58Z</time>
      </trkpt>
      <trkpt lat="39.1991440" lon="-1.4275780">
        <ele>595.0</ele>
        <time>2019-05-12T07:05:59Z</time>
      </trkpt>
      <trkpt lat="39.1991780" lon="-1.4275580">
        <ele>595.2</ele>
        <time>2019-05-12T07:06:00Z</time>
      </trkpt>
      <trkpt lat="39.1992130" lon="-1.4275400">
        <ele>595.4</ele>
        <time>2019-05-12T07:06:01Z</time>
      </trkpt>
      <trkpt lat="39.1992490" lon="-1.4275230">
        <ele>595.6</ele>
        <time>2019-05-12T07:06:02Z</time>
      </trkpt>
      <trkpt lat="39.1992850" lon="-1.4275070">
        <ele>595.6</ele>
        <time>2019-05-12T07:06:03Z</time>
      </trkpt>
      <trkpt lat="39.1993220" lon="-1.4274940">
        <ele>596.0</ele>
        <time>2019-05-12T07:06:04Z</time>
      </trkpt>
      <trkpt lat="39.1993600" lon="-1.4274810">
        <ele>596.2</ele>
        <time>2019-05-12T07:06:05Z</time>
      </trkpt>
      <trkpt lat="39.1993990" lon="-1.4274670">
        <ele>596.4</ele>
        <time>2019-05-12T07:06:06Z</time>
      </trkpt>
      <trkpt lat="39.1994370" lon="-1.4274540">
        <ele>596.6</ele>
        <time>2019-05-12T07:06:07Z</time>
      </trkpt>
      <trkpt lat="39.1994740" lon="-1.4274380">
        <ele>596.8</ele>
        <time>2019-05-12T07:06:08Z</time>
      </trkpt>
      <trkpt lat="39.1995130" lon="-1.4274220">
        <ele>597.2</ele>
        <time>2019-05-12T07:06:09Z</time>
      </trkpt>
      <trkpt lat="39.1995510" lon="-1.4274030">
        <ele>597.4</ele>
        <time>2019-05-12T07:06:10Z</time>
      </trkpt>
      <trkpt lat="39.1995910" lon="-1.4273770">
        <ele>597.6</ele>
        <time>2019-05-12T07:06:11Z</time>
      </trkpt>
      <trkpt lat="39.1996290" lon="-1.4273450">
        <ele>597.8</ele>
        <time>2019-05-12T07:06:12Z</time>
      </trkpt>
      <trkpt lat="39.1996680" lon="-1.4273030">
        <ele>597.8</ele>
        <time>2019-05-12T07:06:13Z</time>
      </trkpt>
      <trkpt lat="39.1997030" lon="-1.4272540">
        <ele>598.0</ele>
        <time>2019-05-12T07:06:14Z</time>
      </trkpt>
      <trkpt lat="39.1997300" lon="-1.4271970">
        <ele>598.2</ele>
        <time>2019-05-12T07:06:15Z</time>
      </trkpt>
      <trkpt lat="39.1997470" lon="-1.4271360">
        <ele>598.4</ele>
        <time>2019-05-12T07:06:16Z</time>
      </trkpt>
      <trkpt lat="39.1997600" lon="-1.4270720">
        <ele>598.4</ele>
        <time>2019-05-12T07:06:17Z</time>
      </trkpt>
      <trkpt lat="39.1997690" lon="-1.4270090">
        <ele>598.6</ele>
        <time>2019-05-12T07:06:18Z</time>
      </trkpt>
      <trkpt lat="39.1997760" lon="-1.4269430">
        <ele>598.6</ele>
        <time>2019-05-12T07:06:19Z</time>
      </trkpt>
      <trkpt lat="39.1997820" lon="-1.4268750">
        <ele>598.6</ele>
        <time>2019-05-12T07:06:20Z</time>
      </trkpt>
      <trkpt lat="39.1997890" lon="-1.4268050">
        <ele>598.6</ele>
        <time>2019-05-12T07:06:21Z</time>
      </trkpt>
      <trkpt lat="39.1997960" lon="-1.4267340">
        <ele>598.6</ele>
        <time>2019-05-12T07:06:22Z</time>
      </trkpt>
      <trkpt lat="39.1998030" lon="-1.4266630">
        <ele>598.8</ele>
        <time>2019-05-12T07:06:23Z</time>
      </trkpt>
      <trkpt lat="39.1998090" lon="-1.4265910">
        <ele>598.8</ele>
        <time>2019-05-12T07:06:24Z</time>
      </trkpt>
      <trkpt lat="39.1998160" lon="-1.4265200">
        <ele>598.8</ele>
        <time>2019-05-12T07:06:25Z</time>
      </trkpt>
      <trkpt lat="39.1998250" lon="-1.4264500">
        <ele>598.8</ele>
        <time>2019-05-12T07:06:26Z</time>
      </trkpt>
      <trkpt lat="39.1998360" lon="-1.4263800">
        <ele>599.0</ele>
        <time>2019-05-12T07:06:27Z</time>
      </trkpt>
      <trkpt lat="39.1998460" lon="-1.4263120">
        <ele>599.0</ele>
        <time>2019-05-12T07:06:28Z</time>
      </trkpt>
      <trkpt lat="39.1998540" lon="-1.4262460">
        <ele>599.0</ele>
        <time>2019-05-12T07:06:29Z</time>
      </trkpt>
      <trkpt lat="39.1998620" lon="-1.4261820">
        <ele>599.0</ele>
        <time>2019-05-12T07:06:30Z</time>
      </trkpt>
      <trkpt lat="39.1998710" lon="-1.4261210">
        <ele>599.0</ele>
        <time>2019-05-12T07:06:31Z</time>
      </trkpt>
      <trkpt lat="39.1998850" lon="-1.4260640">
        <ele>599.2</ele>
        <time>2019-05-12T07:06:32Z</time>
      </trkpt>
      <trkpt lat="39.1999060" lon="-1.4260130">
        <ele>599.4</ele>
        <time>2019-05-12T07:06:33Z</time>
      </trkpt>
      <trkpt lat="39.1999350" lon="-1.4259760">
        <ele>599.4</ele>
        <time>2019-05-12T07:06:34Z</time>
      </trkpt>
      <trkpt lat="39.1999700" lon="-1.4259640">
        <ele>599.6</ele>
        <time>2019-05-12T07:06:35Z</time>
      </trkpt>
      <trkpt lat="39.2000030" lon="-1.4259810">
        <ele>599.8</ele>
        <time>2019-05-12T07:06:36Z</time>
      </trkpt>
      <trkpt lat="39.2000290" lon="-1.4260160">
        <ele>600.0</ele>
        <time>2019-05-12T07:06:37Z</time>
      </trkpt>
      <trkpt lat="39.2000430" lon="-1.4260630">
        <ele>600.0</ele>
        <time>2019-05-12T07:06:38Z</time>
      </trkpt>
      <trkpt lat="39.2000490" lon="-1.4261130">
        <ele>600.4</ele>
        <time>2019-05-12T07:06:39Z</time>
      </trkpt>
      <trkpt lat="39.2000500" lon="-1.4261650">
        <ele>600.6</ele>
        <time>2019-05-12T07:06:40Z</time>
      </trkpt>
      <trkpt lat="39.2000470" lon="-1.4262160">
        <ele>600.8</ele>
        <time>2019-05-12T07:06:41Z</time>
      </trkpt>
      <trkpt lat="39.2000430" lon="-1.4262680">
        <ele>601.2</ele>
        <time>2019-05-12T07:06:42Z</time>
      </trkpt>
      <trkpt lat="39.2000380" lon="-1.4263210">
        <ele>601.4</ele>
        <time>2019-05-12T07:06:43Z</time>
      </trkpt>
      <trkpt lat="39.2000320" lon="-1.4263740">
        <ele>601.8</ele>
        <time>2019-05-12T07:06:44Z</time>
      </trkpt>
      <trkpt lat="39.2000230" lon="-1.4264270">
        <ele>602.2</ele>
        <time>2019-05-12T07:06:45Z</time>
      </trkpt>
      <trkpt lat="39.2000140" lon="-1.4264800">
        <ele>602.6</ele>
        <time>2019-05-12T07:06:46Z</time>
      </trkpt>
      <trkpt lat="39.2000040" lon="-1.4265320">
        <ele>603.2</ele>
        <time>2019-05-12T07:06:47Z</time>
      </trkpt>
      <trkpt lat="39.1999940" lon="-1.4265830">
        <ele>603.6</ele>
        <time>2019-05-12T07:06:48Z</time>
      </trkpt>
      <trkpt lat="39.1999850" lon="-1.4266340">
        <ele>603.8</ele>
        <time>2019-05-12T07:06:49Z</time>
      </trkpt>
      <trkpt lat="39.1999790" lon="-1.4266850">
        <ele>604.2</ele>
        <time>2019-05-12T07:06:50Z</time>
      </trkpt>
      <trkpt lat="39.1999740" lon="-1.4267360">
        <ele>604.4</ele>
        <time>2019-05-12T07:06:51Z</time>
      </trkpt>
      <trkpt lat="39.1999700" lon="-1.4267870">
        <ele>604.6</ele>
        <time>2019-05-12T07:06:52Z</time>
      </trkpt>
      <trkpt lat="39.1999670" lon="-1.4268380">
        <ele>605.0</ele>
        <time>2019-05-12T07:06:53Z</time>
      </trkpt>
      <trkpt lat="39.1999640" lon="-1.4268890">
        <ele>605.2</ele>
        <time>2019-05-12T07:06:54Z</time>
      </trkpt>
      <trkpt lat="39.1999630" lon="-1.4269400">
        <ele>605.4</ele>
        <time>2019-05-12T07:06:55Z</time>
      </trkpt>
      <trkpt lat="39.1999630" lon="-1.4269910">
        <ele>605.8</ele>
        <time>2019-05-12T07:06:56Z</time>
      </trkpt>
      <trkpt lat="39.1999640" lon="-1.4270440">
        <ele>606.0</ele>
        <time>2019-05-12T07:06:57Z</time>
      </trkpt>
      <trkpt lat="39.1999670" lon="-1.4270960">
        <ele>606.2</ele>
        <time>2019-05-12T07:06:58Z</time>
      </trkpt>
      <trkpt lat="39.1999730" lon="-1.4271490">
        <ele>606.4</ele>
        <time>2019-05-12T07:06:59Z</time>
      </trkpt>
      <trkpt lat="39.1999790" lon="-1.4272020">
        <ele>607.0</ele>
        <time>2019-05-12T07:07:00Z</time>
      </trkpt>
      <trkpt lat="39.1999850" lon="-1.4272550">
        <ele>607.2</ele>
        <time>2019-05-12T07:07:01Z</time>
      </trkpt>
      <trkpt lat="39.1999900" lon="-1.4273100">
        <ele>607.4</ele>
        <time>2019-05-12T07:07:02Z</time>
      </trkpt>
      <trkpt lat="39.1999920" lon="-1.4273660">
        <ele>607.6</ele>
        <time>2019-05-12T07:07:03Z</time>
      </trkpt>
      <trkpt lat="39.1999890" lon="-1.4274220">
        <ele>607.8</ele>
        <time>2019-05-12T07:07:04Z</time>
      </trkpt>
      <trkpt lat="39.1999770" lon="-1.4274750">
        <ele>608.0</ele>
        <time>2019-05-12T07:07:05Z</time>
      </trkpt>
      <trkpt lat="39.1999570" lon="-1.4275230">
        <ele>608.2</ele>
        <time>2019-05-12T07:07:06Z</time>
      </trkpt>
      <trkpt lat="39.1999310" lon="-1.4275620">
        <ele>608.4</ele>
        <time>2019-05-12T07:07:07Z</time>
      </trkpt>
      <trkpt lat="39.1999010" lon="-1.4275950">
        <ele>608.6</ele>
        <time>2019-05-12T07:07:08Z</time>
      </trkpt>
      <trkpt lat="39.1998690" lon="-1.4276240">
        <ele>608.8</ele>
        <time>2019-05-12T07:07:09Z</time>
      </trkpt>
      <trkpt lat="39.1998340" lon="-1.4276500">
        <ele>609.0</ele>
        <time>2019-05-12T07:07:10Z</time>
      </trkpt>
      <trkpt lat="39.1997980" lon="-1.4276760">
        <ele>609.0</ele>
        <time>2019-05-12T07:07:11Z</time>
      </trkpt>
      <trkpt lat="39.1997600" lon="-1.4277000">
        <ele>609.2</ele>
        <time>2019-05-12T07:07:12Z</time>
      </trkpt>
      <trkpt lat="39.1997210" lon="-1.4277240">
        <ele>609.4</ele>
        <time>2019-05-12T07:07:13Z</time>
      </trkpt>
      <trkpt lat="39.1996820" lon="-1.4277480">
        <ele>609.8</ele>
        <time>2019-05-12T07:07:14Z</time>
      </trkpt>
      <trkpt lat="39.1996420" lon="-1.4277710">
        <ele>610.0</ele>
        <time>2019-05-12T07:07:15Z</time>
      </trkpt>
      <trkpt lat="39.1996040" lon="-1.4277940">
        <ele>610.4</ele>
        <time>2019-05-12T07:07:16Z</time>
      </trkpt>
      <trkpt lat="39.1995660" lon="-1.4278170">
        <ele>610.6</ele>
        <time>2019-05-12T07:07:17Z</time>
      </trkpt>
      <trkpt lat="39.1995300" lon="-1.4278420">
        <ele>610.8</ele>
        <time>2019-05-12T07:07:18Z</time>
      </trkpt>
      <trkpt lat="39.1994940" lon="-1.4278670">
        <ele>611.2</ele>
        <time>2019-05-12T07:07:19Z</time>
      </trkpt>
      <trkpt lat="39.1994570" lon="-1.4278910">
        <ele>611.4</ele>
        <time>2019-05-12T07:07:20Z</time>
      </trkpt>
      <trkpt lat="39.1994200" lon="-1.4279150">
        <ele>611.6</ele>
        <time>2019-05-12T07:07:21Z</time>
      </trkpt>
      <trkpt lat="39.1993820" lon="-1.4279410">
        <ele>611.8</ele>
        <time>2019-05-12T07:07:22Z</time>
      </trkpt>
      <trkpt lat="39.1993440" lon="-1.4279670">
        <ele>611.8</ele>
        <time>2019-05-12T07:07:23Z</time>
      </trkpt>
      <trkpt lat="39.1993060" lon="-1.4279960">
        <ele>612.0</ele>
        <time>2019-05-12T07:07:24Z</time>
      </trkpt>
      <trkpt lat="39.1992700" lon="-1.4280290">
        <ele>612.2</ele>
        <time>2019-05-12T07:07:25Z</time>
      </trkpt>
      <trkpt lat="39.1992340" lon="-1.4280640">
        <ele>612.4</ele>
        <time>2019-05-12T07:07:26Z</time>
      </trkpt>
      <trkpt lat="39.1991990" lon="-1.4281020">
        <ele>612.6</ele>
        <time>2019-05-12T07:07:27Z</time>
      </trkpt>
      <trkpt lat="39.1991650" lon="-1.4281420">
        <ele>612.8</ele>
        <time>2019-05-12T07:07:28Z</time>
      </trkpt>
      <trkpt lat="39.1991330" lon="-1.4281850">
        <ele>613.0</ele>
        <time>2019-05-12T07:07:29Z</time>
      </trkpt>
      <trkpt lat="39.1991030" lon="-1.4282310">
        <ele>613.2</ele>
        <time>2019-05-12T07:07:30Z</time>
      </trkpt>
      <trkpt lat="39.1990740" lon="-1.4282790">
        <ele>613.4</ele>
        <time>2019-05-12T07:07:31Z</time>
      </trkpt>
      <trkpt lat="39.1990470" lon="-1.4283280">
        <ele>613.6</ele>
        <time>2019-05-12T07:07:32Z</time>
      </trkpt>
      <trkpt lat="39.1990190" lon="-1.4283770">
        <ele>613.6</ele>
        <time>2019-05-12T07:07:33Z</time>
      </trkpt>
      <trkpt lat="39.1989910" lon="-1.4284280">
        <ele>613.8</ele>
        <time>2019-05-12T07:07:34Z</time>
      </trkpt>
      <trkpt lat="39.1989630" lon="-1.4284790">
        <ele>614.2</ele>
        <time>2019-05-12T07:07:35Z</time>
      </trkpt>
      <trkpt lat="39.1989380" lon="-1.4285310">
        <ele>614.2</ele>
        <time>2019-05-12T07:07:36Z</time>
      </trkpt>
      <trkpt lat="39.1989140" lon="-1.4285830">
        <ele>614.4</ele>
        <time>2019-05-12T07:07:37Z</time>
      </trkpt>
      <trkpt lat="39.1988930" lon="-1.4286360">
        <ele>614.6</ele>
        <time>2019-05-12T07:07:38Z</time>
      </trkpt>
      <trkpt lat="39.1988750" lon="-1.4286900">
        <ele>614.6</ele>
        <time>2019-05-12T07:07:39Z</time>
      </trkpt>
      <trkpt lat="39.1988610" lon="-1.4287450">
        <ele>614.8</ele>
        <time>2019-05-12T07:07:40Z</time>
      </trkpt>
      <trkpt lat="39.1988500" lon="-1.4288010">
        <ele>615.0</ele>
        <time>2019-05-12T07:07:41Z</time>
      </trkpt>
      <trkpt lat="39.1988420" lon="-1.4288580">
        <ele>615.2</ele>
        <time>2019-05-12T07:07:42Z</time>
      </trkpt>
      <trkpt lat="39.1988360" lon="-1.4289150">
        <ele>615.2</ele>
        <time>2019-05-12T07:07:43Z</time>
      </trkpt>
      <trkpt lat="39.1988310" lon="-1.4289710">
        <ele>615.4</ele>
        <time>2019-05-12T07:07:44Z</time>
      </trkpt>
      <trkpt lat="39.1988260" lon="-1.4290260">
        <ele>615.6</ele>
        <time>2019-05-12T07:07:45Z</time>
      </trkpt>
      <trkpt lat="39.1988220" lon="-1.4290800">
        <ele>615.8</ele>
        <time>2019-05-12T07:07:46Z</time>
      </trkpt>
      <trkpt lat="39.1988190" lon="-1.4291350">
        <ele>616.0</ele>
        <time>2019-05-12T07:07:47Z</time>
      </trkpt>
      <trkpt lat="39.1988170" lon="-1.4291890">
        <ele>616.2</ele>
        <time>2019-05-12T07:07:48Z</time>
      </trkpt>
      <trkpt lat="39.1988160" lon="-1.4292420">
        <ele>616.4</ele>
        <time>2019-05-12T07:07:49Z</time>
      </trkpt>
      <trkpt lat="39.1988150" lon="-1.4292940">
        <ele>616.6</ele>
        <time>2019-05-12T07:07:50Z</time>
      </trkpt>
      <trkpt lat="39.1988140" lon="-1.4293460">
        <ele>616.8</ele>
        <time>2019-05-12T07:07:51Z</time>
      </trkpt>
      <trkpt lat="39.1988120" lon="-1.4293960">
        <ele>617.0</ele>
        <time>2019-05-12T07:07:52Z</time>
      </trkpt>
      <trkpt lat="39.1988110" lon="-1.4294470">
        <ele>617.2</ele>
        <time>2019-05-12T07:07:53Z</time>
      </trkpt>
      <trkpt lat="39.1988090" lon="-1.4294970">
        <ele>617.4</ele>
        <time>2019-05-12T07:07:54Z</time>
      </trkpt>
      <trkpt lat="39.1988080" lon="-1.4295460">
        <ele>617.6</ele>
        <time>2019-05-12T07:07:55Z</time>
      </trkpt>
      <trkpt lat="39.1988050" lon="-1.4295960">
        <ele>618.0</ele>
        <time>2019-05-12T07:07:56Z</time>
      </trkpt>
      <trkpt lat="39.1988010" lon="-1.4296450">
        <ele>618.2</ele>
        <time>2019-05-12T07:07:57Z</time>
      </trkpt>
      <trkpt lat="39.1987980" lon="-1.4296930">
        <ele>618.4</ele>
        <time>2019-05-12T07:07:58Z</time>
      </trkpt>
      <trkpt lat="39.1987940" lon="-1.4297410">
        <ele>618.8</ele>
        <time>2019-05-12T07:07:59Z</time>
      </trkpt>
      <trkpt lat="39.1987870" lon="-1.4297890">
        <ele>619.0</ele>
        <time>2019-05-12T07:08:00Z</time>
      </trkpt>
      <trkpt lat="39.1987770" lon="-1.4298370">
        <ele>619.2</ele>
        <time>2019-05-12T07:08:01Z</time>
      </trkpt>
      <trkpt lat="39.1987640" lon="-1.4298840">
        <ele>619.6</ele>
        <time>2019-05-12T07:08:02Z</time>
      </trkpt>
      <trkpt lat="39.1987460" lon="-1.4299290">
        <ele>619.8</ele>
        <time>2019-05-12T07:08:03Z</time>
      </trkpt>
      <trkpt lat="39.1987200" lon="-1.4299690">
        <ele>620.0</ele>
        <time>2019-05-12T07:08:04Z</time>
      </trkpt>
      <trkpt lat="39.1986880" lon="-1.4300000">
        <ele>620.4</ele>
        <time>2019-05-12T07:08:05Z</time>
      </trkpt>
      <trkpt lat="39.1986530" lon="-1.4300190">
        <ele>620.6</ele>
        <time>2019-05-12T07:08:06Z</time>
      </trkpt>
      <trkpt lat="39.1986160" lon="-1.4300250">
        <ele>620.8</ele>
        <time>2019-05-12T07:08:07Z</time>
      </trkpt>
      <trkpt lat="39.1985770" lon="-1.4300190">
        <ele>621.2</ele>
        <time>2019-05-12T07:08:08Z</time>
      </trkpt>
      <trkpt lat="39.1985400" lon="-1.4300060">
        <ele>621.6</ele>
        <time>2019-05-12T07:08:09Z</time>
      </trkpt>
      <trkpt lat="39.1985040" lon="-1.4299880">
        <ele>622.0</ele>
        <time>2019-05-12T07:08:10Z</time>
      </trkpt>
      <trkpt lat="39.1984690" lon="-1.4299700">
        <ele>622.2</ele>
        <time>2019-05-12T07:08:11Z</time>
      </trkpt>
      <trkpt lat="39.1984350" lon="-1.4299460">
        <ele>622.4</ele>
        <time>2019-05-12T07:08:12Z</time>
      </trkpt>
      <trkpt lat="39.1983990" lon="-1.4299230">
        <ele>622.8</ele>
        <time>2019-05-12T07:08:13Z</time>
      </trkpt>
      <trkpt lat="39.1983650" lon="-1.4299000">
        <ele>623.0</ele>
        <time>2019-05-12T07:08:14Z</time>
      </trkpt>
      <trkpt lat="39.1983300" lon="-1.4298760">
        <ele>623.4</ele>
        <time>2019-05-12T07:08:15Z</time>
      </trkpt>
      <trkpt lat="39.1982940" lon="-1.4298520">
        <ele>623.8</ele>
        <time>2019-05-12T07:08:16Z</time>
      </trkpt>
      <trkpt lat="39.1982580" lon="-1.4298290">
        <ele>624.0</ele>
        <time>2019-05-12T07:08:17Z</time>
      </trkpt>
      <trkpt lat="39.1982200" lon="-1.4298050">
        <ele>624.4</ele>
        <time>2019-05-12T07:08:18Z</time>
      </trkpt>
      <trkpt lat="39.1981870" lon="-1.4297790">
        <ele>624.8</ele>
        <time>2019-05-12T07:08:19Z</time>
      </trkpt>
      <trkpt lat="39.1981490" lon="-1.4297570">
        <ele>625.0</ele>
        <time>2019-05-12T07:08:20Z</time>
      </trkpt>
      <trkpt lat="39.1981120" lon="-1.4297340">
        <ele>625.2</ele>
        <time>2019-05-12T07:08:21Z</time>
      </trkpt>
      <trkpt lat="39.1980770" lon="-1.4297090">
        <ele>625.4</ele>
        <time>2019-05-12T07:08:22Z</time>
      </trkpt>
      <trkpt lat="39.1980410" lon="-1.4296850">
        <ele>625.6</ele>
        <time>2019-05-12T07:08:23Z</time>
      </trkpt>
      <trkpt lat="39.1980050" lon="-1.4296620">
        <ele>626.0</ele>
        <time>2019-05-12T07:08:24Z</time>
      </trkpt>
      <trkpt lat="39.1979690" lon="-1.4296400">
        <ele>626.2</ele>
        <time>2019-05-12T07:08:25Z</time>
      </trkpt>
      <trkpt lat="39.1979330" lon="-1.4296180">
        <ele>626.4</ele>
        <time>2019-05-12T07:08:26Z</time>
      </trkpt>
      <trkpt lat="39.1978990" lon="-1.4295940">
        <ele>626.6</ele>
        <time>2019-05-12T07:08:27Z</time>
      </trkpt>
      <trkpt lat="39.1978640" lon="-1.4295710">
        <ele>626.8</ele>
        <time>2019-05-12T07:08:28Z</time>
      </trkpt>
      <trkpt lat="39.1978290" lon="-1.4295470">
        <ele>627.2</ele>
        <time>2019-05-12T07:08:29Z</time>
      </trkpt>
      <trkpt lat="39.1977950" lon="-1.4295240">
        <ele>627.4</ele>
        <time>2019-05-12T07:08:30Z</time>
      </trkpt>
      <trkpt lat="39.1977600" lon="-1.4295010">
        <ele>627.6</ele>
        <time>2019-05-12T07:08:31Z</time>
      </trkpt>
      <trkpt lat="39.1977250" lon="-1.4294760">
        <ele>627.8</ele>
        <time>2019-05-12T07:08:32Z</time>
      </trkpt>
      <trkpt lat="39.1976890" lon="-1.4294510">
        <ele>628.2</ele>
        <time>2019-05-12T07:08:33Z</time>
      </trkpt>
      <trkpt lat="39.1976530" lon="-1.4294270">
        <ele>628.4</ele>
        <time>2019-05-12T07:08:34Z</time>
      </trkpt>
      <trkpt lat="39.1976160" lon="-1.4294030">
        <ele>628.6</ele>
        <time>2019-05-12T07:08:35Z</time>
      </trkpt>
      <trkpt lat="39.1975770" lon="-1.4293810">
        <ele>628.8</ele>
        <time>2019-05-12T07:08:36Z</time>
      </trkpt>
      <trkpt lat="39.1975380" lon="-1.4293600">
        <ele>628.8</ele>
        <time>2019-05-12T07:08:37Z</time>
      </trkpt>
      <trkpt lat="39.1974970" lon="-1.4293410">
        <ele>629.2</ele>
        <time>2019-05-12T07:08:38Z</time>
      </trkpt>
      <trkpt lat="39.1974570" lon="-1.4293260">
        <ele>629.4</ele>
        <time>2019-05-12T07:08:39Z</time>
      </trkpt>
      <trkpt lat="39.1974160" lon="-1.4293130">
        <ele>629.6</ele>
        <time>2019-05-12T07:08:40Z</time>
      </trkpt>
      <trkpt lat="39.1973760" lon="-1.4293010">
        <ele>629.8</ele>
        <time>2019-05-12T07:08:41Z</time>
      </trkpt>
      <trkpt lat="39.1973360" lon="-1.4292890">
        <ele>630.0</ele>
        <time>2019-05-12T07:08:42Z</time>
      </trkpt>
      <trkpt lat="39.1972970" lon="-1.4292750">
        <ele>630.2</ele>
        <time>2019-05-12T07:08:43Z</time>
      </trkpt>
      <trkpt lat="39.1972590" lon="-1.4292590">
        <ele>630.4</ele>
        <time>2019-05-12T07:08:44Z</time>
      </trkpt>
      <trkpt lat="39.1972220" lon="-1.4292390">
        <ele>630.8</ele>
        <time>2019-05-12T07:08:45Z</time>
      </trkpt>
      <trkpt lat="39.1971850" lon="-1.4292170">
        <ele>631.0</ele>
        <time>2019-05-12T07:08:46Z</time>
      </trkpt>
      <trkpt lat="39.1971500" lon="-1.4291930">
        <ele>631.4</ele>
        <time>2019-05-12T07:08:47Z</time>
      </trkpt>
      <trkpt lat="39.1971150" lon="-1.4291670">
        <ele>631.6</ele>
        <time>2019-05-12T07:08:48Z</time>
      </trkpt>
      <trkpt lat="39.1970810" lon="-1.4291360">
        <ele>632.0</ele>
        <time>2019-05-12T07:08:49Z</time>
      </trkpt>
      <trkpt lat="39.1970490" lon="-1.4291030">
        <ele>632.2</ele>
        <time>2019-05-12T07:08:50Z</time>
      </trkpt>
      <trkpt lat="39.1970180" lon="-1.4290710">
        <ele>632.6</ele>
        <time>2019-05-12T07:08:51Z</time>
      </trkpt>
      <trkpt lat="39.1969870" lon="-1.4290390">
        <ele>632.8</ele>
        <time>2019-05-12T07:08:52Z</time>
      </trkpt>
      <trkpt lat="39.1969560" lon="-1.4290090">
        <ele>632.8</ele>
        <time>2019-05-12T07:08:53Z</time>
      </trkpt>
      <trkpt lat="39.1969240" lon="-1.4289800">
        <ele>633.0</ele>
        <time>2019-05-12T07:08:54Z</time>
      </trkpt>
      <trkpt lat="39.1968920" lon="-1.4289540">
        <ele>633.2</ele>
        <time>2019-05-12T07:08:55Z</time>
      </trkpt>
      <trkpt lat="39.1968580" lon="-1.4289310">
        <ele>633.4</ele>
        <time>2019-05-12T07:08:56Z</time>
      </trkpt>
      <trkpt lat="39.1968210" lon="-1.4289180">
        <ele>633.6</ele>
        <time>2019-05-12T07:08:57Z</time>
      </trkpt>
      <trkpt lat="39.1967830" lon="-1.4289180">
        <ele>633.8</ele>
        <time>2019-05-12T07:08:58Z</time>
      </trkpt>
      <trkpt lat="39.1967510" lon="-1.4289390">
        <ele>634.2</ele>
        <time>2019-05-12T07:08:59Z</time>
      </trkpt>
      <trkpt lat="39.1967360" lon="-1.4289780">
        <ele>634.8</ele>
        <time>2019-05-12T07:09:00Z</time>
      </trkpt>
      <trkpt lat="39.1967390" lon="-1.4290230">
        <ele>635.0</ele>
        <time>2019-05-12T07:09:01Z</time>
      </trkpt>
      <trkpt lat="39.1967540" lon="-1.4290660">
        <ele>635.4</ele>
        <time>2019-05-12T07:09:02Z</time>
      </trkpt>
      <trkpt lat="39.1967770" lon="-1.4291060">
        <ele>635.6</ele>
        <time>2019-05-12T07:09:03Z</time>
      </trkpt>
      <trkpt lat="39.1968070" lon="-1.4291400">
        <ele>635.8</ele>
        <time>2019-05-12T07:09:04Z</time>
      </trkpt>
      <trkpt lat="39.1968410" lon="-1.4291710">
        <ele>636.2</ele>
        <time>2019-05-12T07:09:05Z</time>
      </trkpt>
      <trkpt lat="39.1968780" lon="-1.4291990">
        <ele>636.4</ele>
        <time>2019-05-12T07:09:06Z</time>
      </trkpt>
      <trkpt lat="39.1969140" lon="-1.4292280">
        <ele>636.4</ele>
        <time>2019-05-12T07:09:07Z</time>
      </trkpt>
      <trkpt lat="39.1969540" lon="-1.4292550">
        <ele>636.6</ele>
        <time>2019-05-12T07:09:08Z</time>
      </trkpt>
      <trkpt lat="39.1969910" lon="-1.4292860">
        <ele>636.8</ele>
        <time>2019-05-12T07:09:09Z</time>
      </trkpt>
      <trkpt lat="39.1970270" lon="-1.4293170">
        <ele>637.2</ele>
        <time>2019-05-12T07:09:10Z</time>
      </trkpt>
      <trkpt lat="39.1970630" lon="-1.4293500">
        <ele>637.4</ele>
        <time>2019-05-12T07:09:11Z</time>
      </trkpt>
      <trkpt lat="39.1971010" lon="-1.4293820">
        <ele>637.6</ele>
        <time>2019-05-12T07:09:12Z</time>
      </trkpt>
      <trkpt lat="39.1971400" lon="-1.4294120">
        <ele>637.8</ele>
        <time>2019-05-12T07:09:13Z</time>
      </trkpt>
      <trkpt lat="39.1971780" lon="-1.4294430">
        <ele>638.0</ele>
        <time>2019-05-12T07:09:14Z</time>
      </trkpt>
      <trkpt lat="39.1972190" lon="-1.4294720">
        <ele>638.2</ele>
        <time>2019-05-12T07:09:15Z</time>
      </trkpt>
      <trkpt lat="39.1972620" lon="-1.4294990">
        <ele>638.2</ele>
        <time>2019-05-12T07:09:16Z</time>
      </trkpt>
      <trkpt lat="39.1973070" lon="-1.4295220">
        <ele>638.4</ele>
        <time>2019-05-12T07:09:17Z</time>
      </trkpt>
      <trkpt lat="39.1973530" lon="-1.4295430">
        <ele>638.6</ele>
        <time>2019-05-12T07:09:18Z</time>
      </trkpt>
      <trkpt lat="39.1974010" lon="-1.4295610">
        <ele>638.8</ele>
        <time>2019-05-12T07:09:19Z</time>
      </trkpt>
      <trkpt lat="39.1974490" lon="-1.4295800">
        <ele>639.2</ele>
        <time>2019-05-12T07:09:20Z</time>
      </trkpt>
      <trkpt lat="39.1974960" lon="-1.4296020">
        <ele>639.4</ele>
        <time>2019-05-12T07:09:21Z</time>
      </trkpt>
      <trkpt lat="39.1975420" lon="-1.4296270">
        <ele>639.4</ele>
        <time>2019-05-12T07:09:22Z</time>
      </trkpt>
      <trkpt lat="39.1975890" lon="-1.4296550">
        <ele>639.6</ele>
        <time>2019-05-12T07:09:23Z</time>
      </trkpt>
      <trkpt lat="39.1976370" lon="-1.4296820">
        <ele>639.6</ele>
        <time>2019-05-12T07:09:24Z</time>
      </trkpt>
      <trkpt lat="39.1976830" lon="-1.4297150">
        <ele>639.8</ele>
        <time>2019-05-12T07:09:25Z</time>
      </trkpt>
      <trkpt lat="39.1977260" lon="-1.4297510">
        <ele>640.0</ele>
        <time>2019-05-12T07:09:26Z</time>
      </trkpt>
      <trkpt lat="39.1977690" lon="-1.4297870">
        <ele>640.2</ele>
        <time>2019-05-12T07:09:27Z</time>
      </trkpt>
      <trkpt lat="39.1978110" lon="-1.4298230">
        <ele>640.2</ele>
        <time>2019-05-12T07:09:28Z</time>
      </trkpt>
      <trkpt lat="39.1978520" lon="-1.4298590">
        <ele>640.4</ele>
        <time>2019-05-12T07:09:29Z</time>
      </trkpt>
      <trkpt lat="39.1978930" lon="-1.4298960">
        <ele>640.6</ele>
        <time>2019-05-12T07:09:30Z</time>
      </trkpt>
      <trkpt lat="39.1979350" lon="-1.4299320">
        <ele>640.6</ele>
        <time>2019-05-12T07:09:31Z</time>
      </trkpt>
      <trkpt lat="39.1979740" lon="-1.4299690">
        <ele>640.8</ele>
        <time>2019-05-12T07:09:32Z</time>
      </trkpt>
      <trkpt lat="39.1980150" lon="-1.4300040">
        <ele>641.0</ele>
        <time>2019-05-12T07:09:33Z</time>
      </trkpt>
      <trkpt lat="39.1980540" lon="-1.4300390">
        <ele>641.2</ele>
        <time>2019-05-12T07:09:34Z</time>
      </trkpt>
      <trkpt lat="39.1980930" lon="-1.4300760">
        <ele>641.4</ele>
        <time>2019-05-12T07:09:35Z</time>
      </trkpt>
      <trkpt lat="39.1981290" lon="-1.4301110">
        <ele>641.6</ele>
        <time>2019-05-12T07:09:36Z</time>
      </trkpt>
      <trkpt lat="39.1981660" lon="-1.4301460">
        <ele>641.6</ele>
        <time>2019-05-12T07:09:37Z</time>
      </trkpt>
      <trkpt lat="39.1982000" lon="-1.4301800">
        <ele>641.8</ele>
        <time>2019-05-12T07:09:38Z</time>
      </trkpt>
      <trkpt lat="39.1982350" lon="-1.4302140">
        <ele>642.0</ele>
        <time>2019-05-12T07:09:39Z</time>
      </trkpt>
      <trkpt lat="39.1982690" lon="-1.4302480">
        <ele>642.2</ele>
        <time>2019-05-12T07:09:40Z</time>
      </trkpt>
      <trkpt lat="39.1983030" lon="-1.4302840">
        <ele>642.4</ele>
        <time>2019-05-12T07:09:41Z</time>
      </trkpt>
      <trkpt lat="39.1983350" lon="-1.4303210">
        <ele>642.4</ele>
        <time>2019-05-12T07:09:42Z</time>
      </trkpt>
      <trkpt lat="39.1983660" lon="-1.4303600">
        <ele>642.6</ele>
        <time>2019-05-12T07:09:43Z</time>
      </trkpt>
      <trkpt lat="39.1983950" lon="-1.4303990">
        <ele>642.8</ele>
        <time>2019-05-12T07:09:44Z</time>
      </trkpt>
      <trkpt lat="39.1984230" lon="-1.4304380">
        <ele>643.0</ele>
        <time>2019-05-12T07:09:45Z</time>
      </trkpt>
      <trkpt lat="39.1984500" lon="-1.4304760">
        <ele>643.4</ele>
        <time>2019-05-12T07:09:46Z</time>
      </trkpt>
      <trkpt lat="39.1984750" lon="-1.4305140">
        <ele>643.8</ele>
        <time>2019-05-12T07:09:47Z</time>
      </trkpt>
      <trkpt lat="39.1984990" lon="-1.4305520">
        <ele>644.0</ele>
        <time>2019-05-12T07:09:48Z</time>
      </trkpt>
      <trkpt lat="39.1985190" lon="-1.4305910">
        <ele>644.4</ele>
        <time>2019-05-12T07:09:49Z</time>
      </trkpt>
      <trkpt lat="39.1985380" lon="-1.4306320">
        <ele>644.6</ele>
        <time>2019-05-12T07:09:50Z</time>
      </trkpt>
      <trkpt lat="39.1985550" lon="-1.4306740">
        <ele>645.0</ele>
        <time>2019-05-12T07:09:51Z</time>
      </trkpt>
      <trkpt lat="39.1985700" lon="-1.4307190">
        <ele>645.2</ele>
        <time>2019-05-12T07:09:52Z</time>
      </trkpt>
      <trkpt lat="39.1985890" lon="-1.4307610">
        <ele>645.4</ele>
        <time>2019-05-12T07:09:53Z</time>
      </trkpt>
      <trkpt lat="39.1986060" lon="-1.4308050">
        <ele>646.0</ele>
        <time>2019-05-12T07:09:54Z</time>
      </trkpt>
      <trkpt lat="39.1986200" lon="-1.4308500">
        <ele>646.4</ele>
        <time>2019-05-12T07:09:55Z</time>
      </trkpt>
      <trkpt lat="39.1986340" lon="-1.4308950">
        <ele>646.6</ele>
        <time>2019-05-12T07:09:56Z</time>
      </trkpt>
      <trkpt lat="39.1986470" lon="-1.4309410">
        <ele>647.0</ele>
        <time>2019-05-12T07:09:57Z</time>
      </trkpt>
      <trkpt lat="39.1986590" lon="-1.4309880">
        <ele>647.2</ele>
        <time>2019-05-12T07:09:58Z</time>
      </trkpt>
      <trkpt lat="39.1986700" lon="-1.4310340">
        <ele>647.4</ele>
        <time>2019-05-12T07:09:59Z</time>
      </trkpt>
      <trkpt lat="39.1986810" lon="-1.4310810">
        <ele>647.6</ele>
        <time>2019-05-12T07:10:00Z</time>
      </trkpt>
      <trkpt lat="39.1986900" lon="-1.4311290">
        <ele>647.8</ele>
        <time>2019-05-12T07:10:01Z</time>
      </trkpt>
      <trkpt lat="39.1987000" lon="-1.4311770">
        <ele>648.2</ele>
        <time>2019-05-12T07:10:02Z</time>
      </trkpt>
      <trkpt lat="39.1987100" lon="-1.4312250">
        <ele>648.4</ele>
        <time>2019-05-12T07:10:03Z</time>
      </trkpt>
      <trkpt lat="39.1987180" lon="-1.4312730">
        <ele>648.6</ele>
        <time>2019-05-12T07:10:04Z</time>
      </trkpt>
      <trkpt lat="39.1987300" lon="-1.4313200">
        <ele>648.8</ele>
        <time>2019-05-12T07:10:05Z</time>
      </trkpt>
      <trkpt lat="39.1987420" lon="-1.4313650">
        <ele>649.0</ele>
        <time>2019-05-12T07:10:06Z</time>
      </trkpt>
      <trkpt lat="39.1987540" lon="-1.4314100">
        <ele>649.4</ele>
        <time>2019-05-12T07:10:07Z</time>
      </trkpt>
      <trkpt lat="39.1987670" lon="-1.4314550">
        <ele>649.8</ele>
        <time>2019-05-12T07:10:08Z</time>
      </trkpt>
      <trkpt lat="39.1987810" lon="-1.4314980">
        <ele>650.0</ele>
        <time>2019-05-12T07:10:09Z</time>
      </trkpt>
      <trkpt lat="39.1987930" lon="-1.4315430">
        <ele>650.4</ele>
        <time>2019-05-12T07:10:10Z</time>
      </trkpt>
      <trkpt lat="39.1988060" lon="-1.4315900">
        <ele>650.8</ele>
        <time>2019-05-12T07:10:11Z</time>
      </trkpt>
      <trkpt lat="39.1988170" lon="-1.4316380">
        <ele>651.0</ele>
        <time>2019-05-12T07:10:12Z</time>
      </trkpt>
      <trkpt lat="39.1988280" lon="-1.4316870">
        <ele>651.2</ele>
        <time>2019-05-12T07:10:13Z</time>
      </trkpt>
      <trkpt lat="39.1988410" lon="-1.4317360">
        <ele>651.4</ele>
        <time>2019-05-12T07:10:14Z</time>
      </trkpt>
      <trkpt lat="39.1988550" lon="-1.4317830">
        <ele>651.6</ele>
        <time>2019-05-12T07:10:15Z</time>
      </trkpt>
      <trkpt lat="39.1988720" lon="-1.4318290">
        <ele>652.0</ele>
        <time>2019-05-12T07:10:16Z</time>
      </trkpt>
      <trkpt lat="39.1988940" lon="-1.4318710">
        <ele>652.2</ele>
        <time>2019-05-12T07:10:17Z</time>
      </trkpt>
      <trkpt lat="39.1989230" lon="-1.4319040">
        <ele>652.4</ele>
        <time>2019-05-12T07:10:18Z</time>
      </trkpt>
      <trkpt lat="39.1989570" lon="-1.4319260">
        <ele>652.6</ele>
        <time>2019-05-12T07:10:19Z</time>
      </trkpt>
      <trkpt lat="39.1989970" lon="-1.4319300">
        <ele>652.8</ele>
        <time>2019-05-12T07:10:20Z</time>
      </trkpt>
      <trkpt lat="39.1990360" lon="-1.4319160">
        <ele>653.0</ele>
        <time>2019-05-12T07:10:21Z</time>
      </trkpt>
      <trkpt lat="39.1990720" lon="-1.4318890">
        <ele>653.4</ele>
        <time>2019-05-12T07:10:22Z</time>
      </trkpt>
      <trkpt lat="39.1991030" lon="-1.4318530">
        <ele>653.6</ele>
        <time>2019-05-12T07:10:23Z</time>
      </trkpt>
      <trkpt lat="39.1991280" lon="-1.4318100">
        <ele>653.8</ele>
        <time>2019-05-12T07:10:24Z</time>
      </trkpt>
      <trkpt lat="39.1991510" lon="-1.4317640">
        <ele>654.0</ele>
        <time>2019-05-12T07:10:25Z</time>
      </trkpt>
      <trkpt lat="39.1991710" lon="-1.4317150">
        <ele>654.2</ele>
        <time>2019-05-12T07:10:26Z</time>
      </trkpt>
      <trkpt lat="39.1991890" lon="-1.4316650">
        <ele>654.4</ele>
        <time>2019-05-12T07:10:27Z</time>
      </trkpt>
      <trkpt lat="39.1992030" lon="-1.4316160">
        <ele>654.8</ele>
        <time>2019-05-12T07:10:28Z</time>
      </trkpt>
      <trkpt lat="39.1992150" lon="-1.4315650">
        <ele>655.2</ele>
        <time>2019-05-12T07:10:29Z</time>
      </trkpt>
      <trkpt lat="39.1992250" lon="-1.4315130">
        <ele>655.4</ele>
        <time>2019-05-12T07:10:30Z</time>
      </trkpt>
      <trkpt lat="39.1992330" lon="-1.4314610">
        <ele>655.6</ele>
        <time>2019-05-12T07:10:31Z</time>
      </trkpt>
      <trkpt lat="39.1992390" lon="-1.4314080">
        <ele>655.8</ele>
        <time>2019-05-12T07:10:32Z</time>
      </trkpt>
      <trkpt lat="39.1992460" lon="-1.4313560">
        <ele>656.0</ele>
        <time>2019-05-12T07:10:33Z</time>
      </trkpt>
      <trkpt lat="39.1992520" lon="-1.4313050">
        <ele>656.2</ele>
        <time>2019-05-12T07:10:34Z</time>
      </trkpt>
      <trkpt lat="39.1992590" lon="-1.4312550">
        <ele>656.4</ele>
        <time>2019-05-12T07:10:35Z</time>
      </trkpt>
      <trkpt lat="39.1992680" lon="-1.4312050">
        <ele>656.8</ele>
        <time>2019-05-12T07:10:36Z</time>
      </trkpt>
      <trkpt lat="39.1992770" lon="-1.4311560">
        <ele>657.0</ele>
        <time>2019-05-12T07:10:37Z</time>
      </trkpt>
      <trkpt lat="39.1992880" lon="-1.4311080">
        <ele>657.2</ele>
        <time>2019-05-12T07:10:38Z</time>
      </trkpt>
      <trkpt lat="39.1993010" lon="-1.4310610">
        <ele>657.4</ele>
        <time>2019-05-12T07:10:39Z</time>
      </trkpt>
      <trkpt lat="39.1993160" lon="-1.4310150">
        <ele>657.8</ele>
        <time>2019-05-12T07:10:40Z</time>
      </trkpt>
      <trkpt lat="39.1993310" lon="-1.4309690">
        <ele>658.0</ele>
        <time>2019-05-12T07:10:41Z</time>
      </trkpt>
      <trkpt lat="39.1993460" lon="-1.4309230">
        <ele>658.2</ele>
        <time>2019-05-12T07:10:42Z</time>
      </trkpt>
      <trkpt lat="39.1993620" lon="-1.4308790">
        <ele>658.4</ele>
        <time>2019-05-12T07:10:43Z</time>
      </trkpt>
      <trkpt lat="39.1993800" lon="-1.4308360">
        <ele>658.8</ele>
        <time>2019-05-12T07:10:44Z</time>
      </trkpt>
      <trkpt lat="39.1993990" lon="-1.4307940">
        <ele>659.0</ele>
        <time>2019-05-12T07:10:45Z</time>
      </trkpt>
      <trkpt lat="39.1994190" lon="-1.4307520">
        <ele>659.2</ele>
        <time>2019-05-12T07:10:46Z</time>
      </trkpt>
      <trkpt lat="39.1994380" lon="-1.4307100">
        <ele>659.4</ele>
        <time>2019-05-12T07:10:47Z</time>
      </trkpt>
      <trkpt lat="39.1994580" lon="-1.4306700">
        <ele>659.6</ele>
        <time>2019-05-12T07:10:48Z</time>
      </trkpt>
      <trkpt lat="39.1994790" lon="-1.4306290">
        <ele>659.8</ele>
        <time>2019-05-12T07:10:49Z</time>
      </trkpt>
      <trkpt lat="39.1994990" lon="-1.4305890">
        <ele>660.0</ele>
        <time>2019-05-12T07:10:50Z</time>
      </trkpt>
      <trkpt lat="39.1995170" lon="-1.4305460">
        <ele>660.4</ele>
        <time>2019-05-12T07:10:51Z</time>
      </trkpt>
      <trkpt lat="39.1995330" lon="-1.4305030">
        <ele>660.8</ele>
        <time>2019-05-12T07:10:52Z</time>
      </trkpt>
      <trkpt lat="39.1995490" lon="-1.4304610">
        <ele>661.0</ele>
        <time>2019-05-12T07:10:53Z</time>
      </trkpt>
      <trkpt lat="39.1995650" lon="-1.4304180">
        <ele>661.4</ele>
        <time>2019-05-12T07:10:54Z</time>
      </trkpt>
      <trkpt lat="39.1995810" lon="-1.4303750">
        <ele>661.6</ele>
        <time>2019-05-12T07:10:55Z</time>
      </trkpt>
      <trkpt lat="39.1995970" lon="-1.4303320">
        <ele>662.0</ele>
        <time>2019-05-12T07:10:56Z</time>
      </trkpt>
      <trkpt lat="39.1996130" lon="-1.4302880">
        <ele>662.2</ele>
        <time>2019-05-12T07:10:57Z</time>
      </trkpt>
      <trkpt lat="39.1996290" lon="-1.4302430">
        <ele>662.4</ele>
        <time>2019-05-12T07:10:58Z</time>
      </trkpt>
      <trkpt lat="39.1996430" lon="-1.4301970">
        <ele>662.6</ele>
        <time>2019-05-12T07:10:59Z</time>
      </trkpt>
      <trkpt lat="39.1996550" lon="-1.4301510">
        <ele>663.0</ele>
        <time>2019-05-12T07:11:00Z</time>
      </trkpt>
      <trkpt lat="39.1996640" lon="-1.4301040">
        <ele>663.2</ele>
        <time>2019-05-12T07:11:01Z</time>
      </trkpt>
      <trkpt lat="39.1996730" lon="-1.4300570">
        <ele>663.4</ele>
        <time>2019-05-12T07:11:02Z</time>
      </trkpt>
      <trkpt lat="39.1996800" lon="-1.4300100">
        <ele>663.6</ele>
        <time>2019-05-12T07:11:03Z</time>
      </trkpt>
      <trkpt lat="39.1996840" lon="-1.4299640">
        <ele>664.2</ele>
        <time>2019-05-12T07:11:04Z</time>
      </trkpt>
      <trkpt lat="39.1996910" lon="-1.4299150">
        <ele>664.4</ele>
        <time>2019-05-12T07:11:05Z</time>
      </trkpt>
      <trkpt lat="39.1996980" lon="-1.4298660">
        <ele>664.6</ele>
        <time>2019-05-12T07:11:06Z</time>
      </trkpt>
      <trkpt lat="39.1997070" lon="-1.4298160">
        <ele>665.0</ele>
        <time>2019-05-12T07:11:07Z</time>
      </trkpt>
      <trkpt lat="39.1997180" lon="-1.4297650">
        <ele>665.2</ele>
        <time>2019-05-12T07:11:08Z</time>
      </trkpt>
      <trkpt lat="39.1997300" lon="-1.4297140">
        <ele>665.4</ele>
        <time>2019-05-12T07:11:09Z</time>
      </trkpt>
      <trkpt lat="39.1997430" lon="-1.4296640">
        <ele>665.8</ele>
        <time>2019-05-12T07:11:10Z</time>
      </trkpt>
      <trkpt lat="39.1997590" lon="-1.4296150">
        <ele>666.2</ele>
        <time>2019-05-12T07:11:11Z</time>
      </trkpt>
      <trkpt lat="39.1997780" lon="-1.4295680">
        <ele>666.4</ele>
        <time>2019-05-12T07:11:12Z</time>
      </trkpt>
      <trkpt lat="39.1998000" lon="-1.4295240">
        <ele>666.8</ele>
        <time>2019-05-12T07:11:13Z</time>
      </trkpt>
      <trkpt lat="39.1998260" lon="-1.4294830">
        <ele>667.0</ele>
        <time>2019-05-12T07:11:14Z</time>
      </trkpt>
      <trkpt lat="39.1998530" lon="-1.4294440">
        <ele>667.2</ele>
        <time>2019-05-12T07:11:15Z</time>
      </trkpt>
      <trkpt lat="39.1998830" lon="-1.4294070">
        <ele>667.6</ele>
        <time>2019-05-12T07:11:16Z</time>
      </trkpt>
      <trkpt lat="39.1999150" lon="-1.4293730">
        <ele>667.6</ele>
        <time>2019-05-12T07:11:17Z</time>
      </trkpt>
      <trkpt lat="39.1999490" lon="-1.4293410">
        <ele>667.8</ele>
        <time>2019-05-12T07:11:18Z</time>
      </trkpt>
      <trkpt lat="39.1999840" lon="-1.4293110">
        <ele>668.0</ele>
        <time>2019-05-12T07:11:19Z</time>
      </trkpt>
      <trkpt lat="39.2000200" lon="-1.4292830">
        <ele>668.4</ele>
        <time>2019-05-12T07:11:20Z</time>
      </trkpt>
      <trkpt lat="39.2000570" lon="-1.4292560">
        <ele>668.6</ele>
        <time>2019-05-12T07:11:21Z</time>
      </trkpt>
      <trkpt lat="39.2000970" lon="-1.4292330">
        <ele>668.8</ele>
        <time>2019-05-12T07:11:22Z</time>
      </trkpt>
      <trkpt lat="39.2001360" lon="-1.4292100">
        <ele>669.0</ele>
        <time>2019-05-12T07:11:23Z</time>
      </trkpt>
      <trkpt lat="39.2001760" lon="-1.4291870">
        <ele>669.2</ele>
        <time>2019-05-12T07:11:24Z</time>
      </trkpt>
      <trkpt lat="39.2002170" lon="-1.4291680">
        <ele>669.4</ele>
        <time>2019-05-12T07:11:25Z</time>
      </trkpt>
      <trkpt lat="39.2002590" lon="-1.4291520">
        <ele>669.6</ele>
        <time>2019-05-12T07:11:26Z</time>
      </trkpt>
      <trkpt lat="39.2003010" lon="-1.4291370">
        <ele>669.8</ele>
        <time>2019-05-12T07:11:27Z</time>
      </trkpt>
      <trkpt lat="39.2003440" lon="-1.4291210">
        <ele>670.0</ele>
        <time>2019-05-12T07:11:28Z</time>
      </trkpt>
      <trkpt lat="39.2003860" lon="-1.4291010">
        <ele>670.2</ele>
        <time>2019-05-12T07:11:29Z</time>
      </trkpt>
      <trkpt lat="39.2004280" lon="-1.4290790">
        <ele>670.4</ele>
        <time>2019-05-12T07:11:30Z</time>
      </trkpt>
      <trkpt lat="39.2004670" lon="-1.4290560">
        <ele>670.6</ele>
        <time>2019-05-12T07:11:31Z</time>
      </trkpt>
      <trkpt lat="39.2005050" lon="-1.4290300">
        <ele>670.6</ele>
        <time>2019-05-12T07:11:32Z</time>
      </trkpt>
      <trkpt lat="39.2005420" lon="-1.4290040">
        <ele>670.8</ele>
        <time>2019-05-12T07:11:33Z</time>
      </trkpt>
      <trkpt lat="39.2005760" lon="-1.4289760">
        <ele>670.8</ele>
        <time>2019-05-12T07:11:34Z</time>
      </trkpt>
      <trkpt lat="39.2006090" lon="-1.4289450">
        <ele>671.0</ele>
        <time>2019-05-12T07:11:35Z</time>
      </trkpt>
      <trkpt lat="39.2006410" lon="-1.4289150">
        <ele>671.2</ele>
        <time>2019-05-12T07:11:36Z</time>
      </trkpt>
      <trkpt lat="39.2006730" lon="-1.4288840">
        <ele>671.4</ele>
        <time>2019-05-12T07:11:37Z</time>
      </trkpt>
      <trkpt lat="39.2007040" lon="-1.4288510">
        <ele>671.6</ele>
        <time>2019-05-12T07:11:38Z</time>
      </trkpt>
      <trkpt lat="39.2007340" lon="-1.4288160">
        <ele>671.8</ele>
        <time>2019-05-12T07:11:39Z</time>
      </trkpt>
      <trkpt lat="39.2007630" lon="-1.4287790">
        <ele>672.0</ele>
        <time>2019-05-12T07:11:40Z</time>
      </trkpt>
      <trkpt lat="39.2007890" lon="-1.4287430">
        <ele>672.4</ele>
        <time>2019-05-12T07:11:41Z</time>
      </trkpt>
      <trkpt lat="39.2008160" lon="-1.4287060">
        <ele>672.8</ele>
        <time>2019-05-12T07:11:42Z</time>
      </trkpt>
      <trkpt lat="39.2008430" lon="-1.4286700">
        <ele>673.2</ele>
        <time>2019-05-12T07:11:43Z</time>
      </trkpt>
      <trkpt lat="39.2008690" lon="-1.4286330">
        <ele>673.4</ele>
        <time>2019-05-12T07:11:44Z</time>
      </trkpt>
      <trkpt lat="39.2008960" lon="-1.4285960">
        <ele>673.4</ele>
        <time>2019-05-12T07:11:45Z</time>
      </trkpt>
      <trkpt lat="39.2009230" lon="-1.4285590">
        <ele>673.6</ele>
        <time>2019-05-12T07:11:46Z</time>
      </trkpt>
      <trkpt lat="39.2009500" lon="-1.4285220">
        <ele>674.0</ele>
        <time>2019-05-12T07:11:47Z</time>
      </trkpt>
      <trkpt lat="39.2009750" lon="-1.4284840">
        <ele>674.2</ele>
        <time>2019-05-12T07:11:48Z</time>
      </trkpt>
      <trkpt lat="39.2009990" lon="-1.4284450">
        <ele>674.4</ele>
        <time>2019-05-12T07:11:49Z</time>
      </trkpt>
      <trkpt lat="39.2010240" lon="-1.4284070">
        <ele>674.4</ele>
        <time>2019-05-12T07:11:50Z</time>
      </trkpt>
      <trkpt lat="39.2010490" lon="-1.4283680">
        <ele>674.6</ele>
        <time>2019-05-12T07:11:51Z</time>
      </trkpt>
      <trkpt lat="39.2010740" lon="-1.4283300">
        <ele>674.8</ele>
        <time>2019-05-12T07:11:52Z</time>
      </trkpt>
      <trkpt lat="39.2011000" lon="-1.4282940">
        <ele>675.2</ele>
        <time>2019-05-12T07:11:53Z</time>
      </trkpt>
      <trkpt lat="39.2011270" lon="-1.4282590">
        <ele>675.4</ele>
        <time>2019-05-12T07:11:54Z</time>
      </trkpt>
      <trkpt lat="39.2011580" lon="-1.4282290">
        <ele>675.6</ele>
        <time>2019-05-12T07:11:55Z</time>
      </trkpt>
      <trkpt lat="39.2011920" lon="-1.4282090">
        <ele>675.8</ele>
        <time>2019-05-12T07:11:56Z</time>
      </trkpt>
      <trkpt lat="39.2012280" lon="-1.4282010">
        <ele>676.0</ele>
        <time>2019-05-12T07:11:57Z</time>
      </trkpt>
      <trkpt lat="39.2012640" lon="-1.4282090">
        <ele>676.2</ele>
        <time>2019-05-12T07:11:58Z</time>
      </trkpt>
      <trkpt lat="39.2012950" lon="-1.4282310">
        <ele>676.4</ele>
        <time>2019-05-12T07:11:59Z</time>
      </trkpt>
      <trkpt lat="39.2013150" lon="-1.4282670">
        <ele>676.6</ele>
        <time>2019-05-12T07:12:00Z</time>
      </trkpt>
      <trkpt lat="39.2013200" lon="-1.4283120">
        <ele>677.0</ele>
        <time>2019-05-12T07:12:01Z</time>
      </trkpt>
      <trkpt lat="39.2013110" lon="-1.4283590">
        <ele>677.2</ele>
        <time>2019-05-12T07:12:02Z</time>
      </trkpt>
      <trkpt lat="39.2012930" lon="-1.4284050">
        <ele>677.2</ele>
        <time>2019-05-12T07:12:03Z</time>
      </trkpt>
      <trkpt lat="39.2012720" lon="-1.4284500">
        <ele>677.4</ele>
        <time>2019-05-12T07:12:04Z</time>
      </trkpt>
      <trkpt lat="39.2012460" lon="-1.4284950">
        <ele>677.6</ele>
        <time>2019-05-12T07:12:05Z</time>
      </trkpt>
      <trkpt lat="39.2012200" lon="-1.4285400">
        <ele>677.8</ele>
        <time>2019-05-12T07:12:06Z</time>
      </trkpt>
      <trkpt lat="39.2011920" lon="-1.4285860">
        <ele>678.0</ele>
        <time>2019-05-12T07:12:07Z</time>
      </trkpt>
      <trkpt lat="39.2011620" lon="-1.4286330">
        <ele>678.4</ele>
        <time>2019-05-12T07:12:08Z</time>
      </trkpt>
      <trkpt lat="39.2011300" lon="-1.4286820">
        <ele>678.6</ele>
        <time>2019-05-12T07:12:09Z</time>
      </trkpt>
      <trkpt lat="39.2010970" lon="-1.4287310">
        <ele>679.0</ele>
        <time>2019-05-12T07:12:10Z</time>
      </trkpt>
      <trkpt lat="39.2010630" lon="-1.4287790">
        <ele>679.4</ele>
        <time>2019-05-12T07:12:11Z</time>
      </trkpt>
      <trkpt lat="39.2010320" lon="-1.4288290">
        <ele>679.6</ele>
        <time>2019-05-12T07:12:12Z</time>
      </trkpt>
      <trkpt lat="39.2010030" lon="-1.4288840">
        <ele>679.8</ele>
        <time>2019-05-12T07:12:13Z</time>
      </trkpt>
      <trkpt lat="39.2009780" lon="-1.4289440">
        <ele>680.2</ele>
        <time>2019-05-12T07:12:14Z</time>
      </trkpt>
      <trkpt lat="39.2009560" lon="-1.4290050">
        <ele>680.4</ele>
        <time>2019-05-12T07:12:15Z</time>
      </trkpt>
      <trkpt lat="39.2009370" lon="-1.4290700">
        <ele>680.4</ele>
        <time>2019-05-12T07:12:16Z</time>
      </trkpt>
      <trkpt lat="39.2009230" lon="-1.4291370">
        <ele>680.6</ele>
        <time>2019-05-12T07:12:17Z</time>
      </trkpt>
      <trkpt lat="39.2009130" lon="-1.4292060">
        <ele>680.6</ele>
        <time>2019-05-12T07:12:18Z</time>
      </trkpt>
      <trkpt lat="39.2009070" lon="-1.4292760">
        <ele>680.8</ele>
        <time>2019-05-12T07:12:19Z</time>
      </trkpt>
      <trkpt lat="39.2009070" lon="-1.4293460">
        <ele>680.8</ele>
        <time>2019-05-12T07:12:20Z</time>
      </trkpt>
      <trkpt lat="39.2009070" lon="-1.4294150">
        <ele>681.0</ele>
        <time>2019-05-12T07:12:21Z</time>
      </trkpt>
      <trkpt lat="39.2009080" lon="-1.4294830">
        <ele>681.4</ele>
        <time>2019-05-12T07:12:22Z</time>
      </trkpt>
      <trkpt lat="39.2009080" lon="-1.4295510">
        <ele>681.6</ele>
        <time>2019-05-12T07:12:23Z</time>
      </trkpt>
      <trkpt lat="39.2009070" lon="-1.4296190">
        <ele>681.8</ele>
        <time>2019-05-12T07:12:24Z</time>
      </trkpt>
      <trkpt lat="39.2009060" lon="-1.4296860">
        <ele>682.0</ele>
        <time>2019-05-12T07:12:25Z</time>
      </trkpt>
      <trkpt lat="39.2009050" lon="-1.4297530">
        <ele>682.2</ele>
        <time>2019-05-12T07:12:26Z</time>
      </trkpt>
      <trkpt lat="39.2009030" lon="-1.4298190">
        <ele>682.6</ele>
        <time>2019-05-12T07:12:27Z</time>
      </trkpt>
      <trkpt lat="39.2009010" lon="-1.4298850">
        <ele>682.8</ele>
        <time>2019-05-12T07:12:28Z</time>
      </trkpt>
      <trkpt lat="39.2009000" lon="-1.4299510">
        <ele>683.2</ele>
        <time>2019-05-12T07:12:29Z</time>
      </trkpt>
      <trkpt lat="39.2008990" lon="-1.4300170">
        <ele>683.4</ele>
        <time>2019-05-12T07:12:30Z</time>
      </trkpt>
      <trkpt lat="39.2008990" lon="-1.4300830">
        <ele>683.6</ele>
        <time>2019-05-12T07:12:31Z</time>
      </trkpt>
      <trkpt lat="39.2008990" lon="-1.4301520">
        <ele>683.8</ele>
        <time>2019-05-12T07:12:32Z</time>
      </trkpt>
      <trkpt lat="39.2009000" lon="-1.4302230">
        <ele>683.8</ele>
        <time>2019-05-12T07:12:33Z</time>
      </trkpt>
      <trkpt lat="39.2009000" lon="-1.4302940">
        <ele>684.0</ele>
        <time>2019-05-12T07:12:34Z</time>
      </trkpt>
      <trkpt lat="39.2009010" lon="-1.4303660">
        <ele>684.2</ele>
        <time>2019-05-12T07:12:35Z</time>
      </trkpt>
      <trkpt lat="39.2009000" lon="-1.4304400">
        <ele>684.4</ele>
        <time>2019-05-12T07:12:36Z</time>
      </trkpt>
      <trkpt lat="39.2009000" lon="-1.4305140">
        <ele>684.8</ele>
        <time>2019-05-12T07:12:37Z</time>
      </trkpt>
      <trkpt lat="39.2008990" lon="-1.4305890">
        <ele>684.8</ele>
        <time>2019-05-12T07:12:38Z</time>
      </trkpt>
      <trkpt lat="39.2008990" lon="-1.4306640">
        <ele>685.0</ele>
        <time>2019-05-12T07:12:39Z</time>
      </trkpt>
      <trkpt lat="39.2009000" lon="-1.4307410">
        <ele>685.2</ele>
        <time>2019-05-12T07:12:40Z</time>
      </trkpt>
      <trkpt lat="39.2009030" lon="-1.4308190">
        <ele>685.4</ele>
        <time>2019-05-12T07:12:41Z</time>
      </trkpt>
      <trkpt lat="39.2009070" lon="-1.4308970">
        <ele>685.6</ele>
        <time>2019-05-12T07:12:42Z</time>
      </trkpt>
      <trkpt lat="39.2009140" lon="-1.4309760">
        <ele>685.8</ele>
        <time>2019-05-12T07:12:43Z</time>
      </trkpt>
      <trkpt lat="39.2009220" lon="-1.4310550">
        <ele>685.8</ele>
        <time>2019-05-12T07:12:44Z</time>
      </trkpt>
      <trkpt lat="39.2009310" lon="-1.4311350">
        <ele>686.0</ele>
        <time>2019-05-12T07:12:45Z</time>
      </trkpt>
      <trkpt lat="39.2009410" lon="-1.4312130">
        <ele>686.0</ele>
        <time>2019-05-12T07:12:46Z</time>
      </trkpt>
      <trkpt lat="39.2009530" lon="-1.4312900">
        <ele>686.0</ele>
        <time>2019-05-12T07:12:47Z</time>
      </trkpt>
      <trkpt lat="39.2009610" lon="-1.4313670">
        <ele>686.2</ele>
        <time>2019-05-12T07:12:48Z</time>
      </trkpt>
      <trkpt lat="39.2009550" lon="-1.4314480">
        <ele>686.4</ele>
        <time>2019-05-12T07:12:49Z</time>
      </trkpt>
      <trkpt lat="39.2009340" lon="-1.4315280">
        <ele>686.4</ele>
        <time>2019-05-12T07:12:50Z</time>
      </trkpt>
      <trkpt lat="39.2008980" lon="-1.4316060">
        <ele>686.4</ele>
        <time>2019-05-12T07:12:51Z</time>
      </trkpt>
      <trkpt lat="39.2008560" lon="-1.4316810">
        <ele>686.4</ele>
        <time>2019-05-12T07:12:52Z</time>
      </trkpt>
      <trkpt lat="39.2008100" lon="-1.4317570">
        <ele>686.4</ele>
        <time>2019-05-12T07:12:53Z</time>
      </trkpt>
      <trkpt lat="39.2007630" lon="-1.4318330">
        <ele>686.4</ele>
        <time>2019-05-12T07:12:54Z</time>
      </trkpt>
      <trkpt lat="39.2007130" lon="-1.4319090">
        <ele>686.4</ele>
        <time>2019-05-12T07:12:55Z</time>
      </trkpt>
      <trkpt lat="39.2006640" lon="-1.4319890">
        <ele>686.4</ele>
        <time>2019-05-12T07:12:56Z</time>
      </trkpt>
      <trkpt lat="39.2006210" lon="-1.4320760">
        <ele>686.4</ele>
        <time>2019-05-12T07:12:57Z</time>
      </trkpt>
      <trkpt lat="39.2005870" lon="-1.4321730">
        <ele>686.2</ele>
        <time>2019-05-12T07:12:58Z</time>
      </trkpt>
      <trkpt lat="39.2005590" lon="-1.4322730">
        <ele>686.2</ele>
        <time>2019-05-12T07:12:59Z</time>
      </trkpt>
      <trkpt lat="39.2005250" lon="-1.4323740">
        <ele>686.0</ele>
        <time>2019-05-12T07:13:00Z</time>
      </trkpt>
      <trkpt lat="39.2004850" lon="-1.4324750">
        <ele>685.8</ele>
        <time>2019-05-12T07:13:01Z</time>
      </trkpt>
      <trkpt lat="39.2004420" lon="-1.4325770">
        <ele>685.6</ele>
        <time>2019-05-12T07:13:02Z</time>
      </trkpt>
      <trkpt lat="39.2003950" lon="-1.4326790">
        <ele>685.2</ele>
        <time>2019-05-12T07:13:03Z</time>
      </trkpt>
      <trkpt lat="39.2003420" lon="-1.4327790">
        <ele>685.0</ele>
        <time>2019-05-12T07:13:04Z</time>
      </trkpt>
      <trkpt lat="39.2002860" lon="-1.4328800">
        <ele>684.8</ele>
        <time>2019-05-12T07:13:05Z</time>
      </trkpt>
      <trkpt lat="39.2002280" lon="-1.4329810">
        <ele>684.6</ele>
        <time>2019-05-12T07:13:06Z</time>
      </trkpt>
      <trkpt lat="39.2001710" lon="-1.4330840">
        <ele>684.6</ele>
        <time>2019-05-12T07:13:07Z</time>
      </trkpt>
      <trkpt lat="39.2001150" lon="-1.4331910">
        <ele>684.4</ele>
        <time>2019-05-12T07:13:08Z</time>
      </trkpt>
      <trkpt lat="39.2000610" lon="-1.4332990">
        <ele>684.2</ele>
        <time>2019-05-12T07:13:09Z</time>
      </trkpt>
      <trkpt lat="39.2000100" lon="-1.4334090">
        <ele>683.8</ele>
        <time>2019-05-12T07:13:10Z</time>
      </trkpt>
      <trkpt lat="39.1999660" lon="-1.4335230">
        <ele>683.6</ele>
        <time>2019-05-12T07:13:11Z</time>
      </trkpt>
      <trkpt lat="39.1999320" lon="-1.4336400">
        <ele>683.6</ele>
        <time>2019-05-12T07:13:12Z</time>
      </trkpt>
      <trkpt lat="39.1999070" lon="-1.4337610">
        <ele>683.4</ele>
        <time>2019-05-12T07:13:13Z</time>
      </trkpt>
      <trkpt lat="39.1998920" lon="-1.4338850">
        <ele>683.2</ele>
        <time>2019-05-12T07:13:14Z</time>
      </trkpt>
      <trkpt lat="39.1998850" lon="-1.4340100">
        <ele>683.0</ele>
        <time>2019-05-12T07:13:15Z</time>
      </trkpt>
      <trkpt lat="39.1998800" lon="-1.4341330">
        <ele>682.8</ele>
        <time>2019-05-12T07:13:16Z</time>
      </trkpt>
      <trkpt lat="39.1998720" lon="-1.4342530">
        <ele>682.4</ele>
        <time>2019-05-12T07:13:17Z</time>
      </trkpt>
      <trkpt lat="39.1998650" lon="-1.4343730">
        <ele>682.4</ele>
        <time>2019-05-12T07:13:18Z</time>
      </trkpt>
      <trkpt lat="39.1998690" lon="-1.4344910">
        <ele>682.0</ele>
        <time>2019-05-12T07:13:19Z</time>
      </trkpt>
      <trkpt lat="39.1998880" lon="-1.4346080">
        <ele>681.8</ele>
        <time>2019-05-12T07:13:20Z</time>
      </trkpt>
      <trkpt lat="39.1999220" lon="-1.4347170">
        <ele>681.4</ele>
        <time>2019-05-12T07:13:21Z</time>
      </trkpt>
      <trkpt lat="39.1999710" lon="-1.4348110">
        <ele>681.4</ele>
        <time>2019-05-12T07:13:22Z</time>
      </trkpt>
      <trkpt lat="39.2000380" lon="-1.4348810">
        <ele>681.0</ele>
        <time>2019-05-12T07:13:23Z</time>
      </trkpt>
      <trkpt lat="39.2001070" lon="-1.4349390">
        <ele>681.0</ele>
        <time>2019-05-12T07:13:24Z</time>
      </trkpt>
      <trkpt lat="39.2001670" lon="-1.4349990">
        <ele>680.8</ele>
        <time>2019-05-12T07:13:25Z</time>
      </trkpt>
      <trkpt lat="39.2002170" lon="-1.4350740">
        <ele>680.8</ele>
        <time>2019-05-12T07:13:26Z</time>
      </trkpt>
      <trkpt lat="39.2002540" lon="-1.4351600">
        <ele>680.8</ele>
        <time>2019-05-12T07:13:27Z</time>
      </trkpt>
      <trkpt lat="39.2002800" lon="-1.4352560">
        <ele>680.8</ele>
        <time>2019-05-12T07:13:28Z</time>
      </trkpt>
      <trkpt lat="39.2002990" lon="-1.4353540">
        <ele>680.8</ele>
        <time>2019-05-12T07:13:29Z</time>
      </trkpt>
      <trkpt lat="39.2003110" lon="-1.4354580">
        <ele>680.8</ele>
        <time>2019-05-12T07:13:30Z</time>
      </trkpt>
      <trkpt lat="39.2003210" lon="-1.4355620">
        <ele>680.8</ele>
        <time>2019-05-12T07:13:31Z</time>
      </trkpt>
      <trkpt lat="39.2003320" lon="-1.4356660">
        <ele>680.8</ele>
        <time>2019-05-12T07:13:32Z</time>
      </trkpt>
      <trkpt lat="39.2003440" lon="-1.4357700">
        <ele>680.8</ele>
        <time>2019-05-12T07:13:33Z</time>
      </trkpt>
      <trkpt lat="39.2003550" lon="-1.4358720">
        <ele>680.8</ele>
        <time>2019-05-12T07:13:34Z</time>
      </trkpt>
      <trkpt lat="39.2003610" lon="-1.4359770">
        <ele>681.0</ele>
        <time>2019-05-12T07:13:35Z</time>
      </trkpt>
      <trkpt lat="39.2003630" lon="-1.4360840">
        <ele>681.0</ele>
        <time>2019-05-12T07:13:36Z</time>
      </trkpt>
      <trkpt lat="39.2003600" lon="-1.4361920">
        <ele>681.0</ele>
        <time>2019-05-12T07:13:37Z</time>
      </trkpt>
      <trkpt lat="39.2003510" lon="-1.4363010">
        <ele>681.2</ele>
        <time>2019-05-12T07:13:38Z</time>
      </trkpt>
      <trkpt lat="39.2003380" lon="-1.4364090">
        <ele>681.4</ele>
        <time>2019-05-12T07:13:39Z</time>
      </trkpt>
      <trkpt lat="39.2003270" lon="-1.4365200">
        <ele>681.6</ele>
        <time>2019-05-12T07:13:40Z</time>
      </trkpt>
      <trkpt lat="39.2003230" lon="-1.4366300">
        <ele>681.6</ele>
        <time>2019-05-12T07:13:41Z</time>
      </trkpt>
      <trkpt lat="39.2003240" lon="-1.4367400">
        <ele>681.8</ele>
        <time>2019-05-12T07:13:42Z</time>
      </trkpt>
      <trkpt lat="39.2003290" lon="-1.4368510">
        <ele>682.0</ele>
        <time>2019-05-12T07:13:43Z</time>
      </trkpt>
      <trkpt lat="39.2003380" lon="-1.4369610">
        <ele>682.2</ele>
        <time>2019-05-12T07:13:44Z</time>
      </trkpt>
      <trkpt lat="39.2003490" lon="-1.4370710">
        <ele>682.2</ele>
        <time>2019-05-12T07:13:45Z</time>
      </trkpt>
      <trkpt lat="39.2003620" lon="-1.4371780">
        <ele>682.2</ele>
        <time>2019-05-12T07:13:46Z</time>
      </trkpt>
      <trkpt lat="39.2003760" lon="-1.4372850">
        <ele>682.2</ele>
        <time>2019-05-12T07:13:47Z</time>
      </trkpt>
      <trkpt lat="39.2003920" lon="-1.4373910">
        <ele>682.2</ele>
        <time>2019-05-12T07:13:48Z</time>
      </trkpt>
      <trkpt lat="39.2004090" lon="-1.4374970">
        <ele>682.2</ele>
        <time>2019-05-12T07:13:49Z</time>
      </trkpt>
      <trkpt lat="39.2004260" lon="-1.4376020">
        <ele>682.2</ele>
        <time>2019-05-12T07:13:50Z</time>
      </trkpt>
      <trkpt lat="39.2004440" lon="-1.4377070">
        <ele>682.2</ele>
        <time>2019-05-12T07:13:51Z</time>
      </trkpt>
      <trkpt lat="39.2004600" lon="-1.4378120">
        <ele>682.2</ele>
        <time>2019-05-12T07:13:52Z</time>
      </trkpt>
      <trkpt lat="39.2004770" lon="-1.4379160">
        <ele>682.4</ele>
        <time>2019-05-12T07:13:53Z</time>
      </trkpt>
      <trkpt lat="39.2004950" lon="-1.4380190">
        <ele>682.4</ele>
        <time>2019-05-12T07:13:54Z</time>
      </trkpt>
      <trkpt lat="39.2005150" lon="-1.4381210">
        <ele>682.4</ele>
        <time>2019-05-12T07:13:55Z</time>
      </trkpt>
      <trkpt lat="39.2005350" lon="-1.4382230">
        <ele>682.4</ele>
        <time>2019-05-12T07:13:56Z</time>
      </trkpt>
      <trkpt lat="39.2005540" lon="-1.4383240">
        <ele>682.4</ele>
        <time>2019-05-12T07:13:57Z</time>
      </trkpt>
      <trkpt lat="39.2005750" lon="-1.4384250">
        <ele>682.4</ele>
        <time>2019-05-12T07:13:58Z</time>
      </trkpt>
      <trkpt lat="39.2005960" lon="-1.4385240">
        <ele>682.4</ele>
        <time>2019-05-12T07:13:59Z</time>
      </trkpt>
      <trkpt lat="39.2006180" lon="-1.4386220">
        <ele>682.6</ele>
        <time>2019-05-12T07:14:00Z</time>
      </trkpt>
      <trkpt lat="39.2006400" lon="-1.4387200">
        <ele>682.6</ele>
        <time>2019-05-12T07:14:01Z</time>
      </trkpt>
      <trkpt lat="39.2006610" lon="-1.4388160">
        <ele>682.6</ele>
        <time>2019-05-12T07:14:02Z</time>
      </trkpt>
      <trkpt lat="39.2006800" lon="-1.4389120">
        <ele>682.8</ele>
        <time>2019-05-12T07:14:03Z</time>
      </trkpt>
      <trkpt lat="39.2007000" lon="-1.4390070">
        <ele>683.0</ele>
        <time>2019-05-12T07:14:04Z</time>
      </trkpt>
      <trkpt lat="39.2007200" lon="-1.4391010">
        <ele>683.0</ele>
        <time>2019-05-12T07:14:05Z</time>
      </trkpt>
      <trkpt lat="39.2007410" lon="-1.4391930">
        <ele>683.2</ele>
        <time>2019-05-12T07:14:06Z</time>
      </trkpt>
      <trkpt lat="39.2007610" lon="-1.4392830">
        <ele>683.4</ele>
        <time>2019-05-12T07:14:07Z</time>
      </trkpt>
      <trkpt lat="39.2007820" lon="-1.4393740">
        <ele>683.6</ele>
        <time>2019-05-12T07:14:08Z</time>
      </trkpt>
      <trkpt lat="39.2008020" lon="-1.4394660">
        <ele>683.8</ele>
        <time>2019-05-12T07:14:09Z</time>
      </trkpt>
      <trkpt lat="39.2008200" lon="-1.4395580">
        <ele>683.8</ele>
        <time>2019-05-12T07:14:10Z</time>
      </trkpt>
      <trkpt lat="39.2008370" lon="-1.4396510">
        <ele>683.6</ele>
        <time>2019-05-12T07:14:11Z</time>
      </trkpt>
      <trkpt lat="39.2008520" lon="-1.4397440">
        <ele>683.8</ele>
        <time>2019-05-12T07:14:12Z</time>
      </trkpt>
      <trkpt lat="39.2008660" lon="-1.4398370">
        <ele>684.2</ele>
        <time>2019-05-12T07:14:13Z</time>
      </trkpt>
      <trkpt lat="39.2008770" lon="-1.4399320">
        <ele>684.4</ele>
        <time>2019-05-12T07:14:14Z</time>
      </trkpt>
      <trkpt lat="39.2008850" lon="-1.4400260">
        <ele>684.8</ele>
        <time>2019-05-12T07:14:15Z</time>
      </trkpt>
      <trkpt lat="39.2008910" lon="-1.4401210">
        <ele>685.0</ele>
        <time>2019-05-12T07:14:16Z</time>
      </trkpt>
      <trkpt lat="39.2008940" lon="-1.4402160">
        <ele>685.4</ele>
        <time>2019-05-12T07:14:17Z</time>
      </trkpt>
      <trkpt lat="39.2008940" lon="-1.4403110">
        <ele>685.6</ele>
        <time>2019-05-12T07:14:18Z</time>
      </trkpt>
      <trkpt lat="39.2008910" lon="-1.4404070">
        <ele>685.8</ele>
        <time>2019-05-12T07:14:19Z</time>
      </trkpt>
      <trkpt lat="39.2008870" lon="-1.4405030">
        <ele>686.2</ele>
        <time>2019-05-12T07:14:20Z</time>
      </trkpt>
      <trkpt lat="39.2008820" lon="-1.4405980">
        <ele>686.4</ele>
        <time>2019-05-12T07:14:21Z</time>
      </trkpt>
      <trkpt lat="39.2008780" lon="-1.4406940">
        <ele>686.6</ele>
        <time>2019-05-12T07:14:22Z</time>
      </trkpt>
      <trkpt lat="39.2008760" lon="-1.4407890">
        <ele>686.8</ele>
        <time>2019-05-12T07:14:23Z</time>
      </trkpt>
      <trkpt lat="39.2008750" lon="-1.4408830">
        <ele>687.0</ele>
        <time>2019-05-12T07:14:24Z</time>
      </trkpt>
      <trkpt lat="39.2008780" lon="-1.4409780">
        <ele>687.2</ele>
        <time>2019-05-12T07:14:25Z</time>
      </trkpt>
      <trkpt lat="39.2008850" lon="-1.4410720">
        <ele>687.6</ele>
        <time>2019-05-12T07:14:26Z</time>
      </trkpt>
      <trkpt lat="39.2008960" lon="-1.4411650">
        <ele>687.6</ele>
        <time>2019-05-12T07:14:27Z</time>
      </trkpt>
      <trkpt lat="39.2009090" lon="-1.4412570">
        <ele>688.0</ele>
        <time>2019-05-12T07:14:28Z</time>
      </trkpt>
      <trkpt lat="39.2009240" lon="-1.4413500">
        <ele>688.0</ele>
        <time>2019-05-12T07:14:29Z</time>
      </trkpt>
      <trkpt lat="39.2009420" lon="-1.4414460">
        <ele>688.2</ele>
        <time>2019-05-12T07:14:30Z</time>
      </trkpt>
      <trkpt lat="39.2009600" lon="-1.4415420">
        <ele>688.6</ele>
        <time>2019-05-12T07:14:31Z</time>
      </trkpt>
      <trkpt lat="39.2009800" lon="-1.4416390">
        <ele>688.8</ele>
        <time>2019-05-12T07:14:32Z</time>
      </trkpt>
      <trkpt lat="39.2010020" lon="-1.4417370">
        <ele>689.0</ele>
        <time>2019-05-12T07:14:33Z</time>
      </trkpt>
      <trkpt lat="39.2010250" lon="-1.4418340">
        <ele>689.2</ele>
        <time>2019-05-12T07:14:34Z</time>
      </trkpt>
      <trkpt lat="39.2010490" lon="-1.4419320">
        <ele>689.4</ele>
        <time>2019-05-12T07:14:35Z</time>
      </trkpt>
      <trkpt lat="39.2010710" lon="-1.4420310">
        <ele>689.4</ele>
        <time>2019-05-12T07:14:36Z</time>
      </trkpt>
      <trkpt lat="39.2010930" lon="-1.4421300">
        <ele>689.6</ele>
        <time>2019-05-12T07:14:37Z</time>
      </trkpt>
      <trkpt lat="39.2011150" lon="-1.4422290">
        <ele>689.6</ele>
        <time>2019-05-12T07:14:38Z</time>
      </trkpt>
      <trkpt lat="39.2011360" lon="-1.4423280">
        <ele>689.6</ele>
        <time>2019-05-12T07:14:39Z</time>
      </trkpt>
      <trkpt lat="39.2011570" lon="-1.4424280">
        <ele>689.6</ele>
        <time>2019-05-12T07:14:40Z</time>
      </trkpt>
      <trkpt lat="39.2011770" lon="-1.4425290">
        <ele>689.8</ele>
        <time>2019-05-12T07:14:41Z</time>
      </trkpt>
      <trkpt lat="39.2011960" lon="-1.4426310">
        <ele>689.8</ele>
        <time>2019-05-12T07:14:42Z</time>
      </trkpt>
      <trkpt lat="39.2012140" lon="-1.4427340">
        <ele>689.8</ele>
        <time>2019-05-12T07:14:43Z</time>
      </trkpt>
      <trkpt lat="39.2012300" lon="-1.4428360">
        <ele>689.8</ele>
        <time>2019-05-12T07:14:44Z</time>
      </trkpt>
      <trkpt lat="39.2012450" lon="-1.4429380">
        <ele>689.8</ele>
        <time>2019-05-12T07:14:45Z</time>
      </trkpt>
      <trkpt lat="39.2012610" lon="-1.4430400">
        <ele>689.8</ele>
        <time>2019-05-12T07:14:46Z</time>
      </trkpt>
      <trkpt lat="39.2012780" lon="-1.4431410">
        <ele>689.8</ele>
        <time>2019-05-12T07:14:47Z</time>
      </trkpt>
      <trkpt lat="39.2012950" lon="-1.4432400">
        <ele>689.8</ele>
        <time>2019-05-12T07:14:48Z</time>
      </trkpt>
      <trkpt lat="39.2013130" lon="-1.4433400">
        <ele>689.8</ele>
        <time>2019-05-12T07:14:49Z</time>
      </trkpt>
      <trkpt lat="39.2013310" lon="-1.4434380">
        <ele>689.8</ele>
        <time>2019-05-12T07:14:50Z</time>
      </trkpt>
      <trkpt lat="39.2013480" lon="-1.4435370">
        <ele>689.8</ele>
        <time>2019-05-12T07:14:51Z</time>
      </trkpt>
      <trkpt lat="39.2013650" lon="-1.4436360">
        <ele>689.8</ele>
        <time>2019-05-12T07:14:52Z</time>
      </trkpt>
      <trkpt lat="39.2013810" lon="-1.4437340">
        <ele>689.8</ele>
        <time>2019-05-12T07:14:53Z</time>
      </trkpt>
      <trkpt lat="39.2013970" lon="-1.4438310">
        <ele>690.0</ele>
        <time>2019-05-12T07:14:54Z</time>
      </trkpt>
      <trkpt lat="39.2014150" lon="-1.4439260">
        <ele>690.0</ele>
        <time>2019-05-12T07:14:55Z</time>
      </trkpt>
      <trkpt lat="39.2014370" lon="-1.4440180">
        <ele>690.2</ele>
        <time>2019-05-12T07:14:56Z</time>
      </trkpt>
      <trkpt lat="39.2014640" lon="-1.4441080">
        <ele>690.2</ele>
        <time>2019-05-12T07:14:57Z</time>
      </trkpt>
      <trkpt lat="39.2014920" lon="-1.4441960">
        <ele>690.2</ele>
        <time>2019-05-12T07:14:58Z</time>
      </trkpt>
      <trkpt lat="39.2015240" lon="-1.4442820">
        <ele>690.2</ele>
        <time>2019-05-12T07:14:59Z</time>
      </trkpt>
      <trkpt lat="39.2015580" lon="-1.4443650">
        <ele>690.2</ele>
        <time>2019-05-12T07:15:00Z</time>
      </trkpt>
      <trkpt lat="39.2015930" lon="-1.4444480">
        <ele>690.4</ele>
        <time>2019-05-12T07:15:01Z</time>
      </trkpt>
      <trkpt lat="39.2016270" lon="-1.4445310">
        <ele>690.4</ele>
        <time>2019-05-12T07:15:02Z</time>
      </trkpt>
      <trkpt lat="39.2016610" lon="-1.4446160">
        <ele>690.6</ele>
        <time>2019-05-12T07:15:03Z</time>
      </trkpt>
      <trkpt lat="39.2016940" lon="-1.4447010">
        <ele>690.8</ele>
        <time>2019-05-12T07:15:04Z</time>
      </trkpt>
      <trkpt lat="39.2017250" lon="-1.4447870">
        <ele>690.8</ele>
        <time>2019-05-12T07:15:05Z</time>
      </trkpt>
      <trkpt lat="39.2017550" lon="-1.4448750">
        <ele>691.0</ele>
        <time>2019-05-12T07:15:06Z</time>
      </trkpt>
      <trkpt lat="39.2017840" lon="-1.4449650">
        <ele>691.2</ele>
        <time>2019-05-12T07:15:07Z</time>
      </trkpt>
      <trkpt lat="39.2018120" lon="-1.4450560">
        <ele>691.4</ele>
        <time>2019-05-12T07:15:08Z</time>
      </trkpt>
      <trkpt lat="39.2018380" lon="-1.4451490">
        <ele>691.6</ele>
        <time>2019-05-12T07:15:09Z</time>
      </trkpt>
      <trkpt lat="39.2018640" lon="-1.4452430">
        <ele>691.6</ele>
        <time>2019-05-12T07:15:10Z</time>
      </trkpt>
      <trkpt lat="39.2018890" lon="-1.4453380">
        <ele>691.8</ele>
        <time>2019-05-12T07:15:11Z</time>
      </trkpt>
      <trkpt lat="39.2019160" lon="-1.4454340">
        <ele>691.8</ele>
        <time>2019-05-12T07:15:12Z</time>
      </trkpt>
      <trkpt lat="39.2019440" lon="-1.4455300">
        <ele>691.8</ele>
        <time>2019-05-12T07:15:13Z</time>
      </trkpt>
      <trkpt lat="39.2019690" lon="-1.4456270">
        <ele>692.0</ele>
        <time>2019-05-12T07:15:14Z</time>
      </trkpt>
      <trkpt lat="39.2019930" lon="-1.4457240">
        <ele>692.0</ele>
        <time>2019-05-12T07:15:15Z</time>
      </trkpt>
      <trkpt lat="39.2020140" lon="-1.4458230">
        <ele>692.0</ele>
        <time>2019-05-12T07:15:16Z</time>
      </trkpt>
      <trkpt lat="39.2020310" lon="-1.4459230">
        <ele>692.2</ele>
        <time>2019-05-12T07:15:17Z</time>
      </trkpt>
      <trkpt lat="39.2020430" lon="-1.4460260">
        <ele>692.2</ele>
        <time>2019-05-12T07:15:18Z</time>
      </trkpt>
      <trkpt lat="39.2020520" lon="-1.4461300">
        <ele>692.2</ele>
        <time>2019-05-12T07:15:19Z</time>
      </trkpt>
      <trkpt lat="39.2020600" lon="-1.4462350">
        <ele>692.2</ele>
        <time>2019-05-12T07:15:20Z</time>
      </trkpt>
      <trkpt lat="39.2020670" lon="-1.4463400">
        <ele>692.2</ele>
        <time>2019-05-12T07:15:21Z</time>
      </trkpt>
      <trkpt lat="39.2020750" lon="-1.4464470">
        <ele>692.2</ele>
        <time>2019-05-12T07:15:22Z</time>
      </trkpt>
      <trkpt lat="39.2020820" lon="-1.4465540">
        <ele>692.2</ele>
        <time>2019-05-12T07:15:23Z</time>
      </trkpt>
      <trkpt lat="39.2020890" lon="-1.4466620">
        <ele>692.2</ele>
        <time>2019-05-12T07:15:24Z</time>
      </trkpt>
      <trkpt lat="39.2020940" lon="-1.4467720">
        <ele>692.2</ele>
        <time>2019-05-12T07:15:25Z</time>
      </trkpt>
      <trkpt lat="39.2020980" lon="-1.4468820">
        <ele>692.2</ele>
        <time>2019-05-12T07:15:26Z</time>
      </trkpt>
      <trkpt lat="39.2021010" lon="-1.4469920">
        <ele>692.2</ele>
        <time>2019-05-12T07:15:27Z</time>
      </trkpt>
      <trkpt lat="39.2021030" lon="-1.4471040">
        <ele>692.2</ele>
        <time>2019-05-12T07:15:28Z</time>
      </trkpt>
      <trkpt lat="39.2021050" lon="-1.4472160">
        <ele>692.2</ele>
        <time>2019-05-12T07:15:29Z</time>
      </trkpt>
      <trkpt lat="39.2021060" lon="-1.4473280">
        <ele>692.2</ele>
        <time>2019-05-12T07:15:30Z</time>
      </trkpt>
      <trkpt lat="39.2021060" lon="-1.4474400">
        <ele>692.0</ele>
        <time>2019-05-12T07:15:31Z</time>
      </trkpt>
      <trkpt lat="39.2021070" lon="-1.4475500">
        <ele>691.8</ele>
        <time>2019-05-12T07:15:32Z</time>
      </trkpt>
      <trkpt lat="39.2021070" lon="-1.4476610">
        <ele>691.8</ele>
        <time>2019-05-12T07:15:33Z</time>
      </trkpt>
      <trkpt lat="39.2021060" lon="-1.4477700">
        <ele>691.8</ele>
        <time>2019-05-12T07:15:34Z</time>
      </trkpt>
      <trkpt lat="39.2021030" lon="-1.4478790">
        <ele>691.8</ele>
        <time>2019-05-12T07:15:35Z</time>
      </trkpt>
      <trkpt lat="39.2020990" lon="-1.4479880">
        <ele>691.6</ele>
        <time>2019-05-12T07:15:36Z</time>
      </trkpt>
      <trkpt lat="39.2020950" lon="-1.4480960">
        <ele>691.6</ele>
        <time>2019-05-12T07:15:37Z</time>
      </trkpt>
      <trkpt lat="39.2020940" lon="-1.4482020">
        <ele>691.6</ele>
        <time>2019-05-12T07:15:38Z</time>
      </trkpt>
      <trkpt lat="39.2020970" lon="-1.4483080">
        <ele>691.6</ele>
        <time>2019-05-12T07:15:39Z</time>
      </trkpt>
      <trkpt lat="39.2021060" lon="-1.4484120">
        <ele>691.6</ele>
        <time>2019-05-12T07:15:40Z</time>
      </trkpt>
      <trkpt lat="39.2021170" lon="-1.4485140">
        <ele>691.6</ele>
        <time>2019-05-12T07:15:41Z</time>
      </trkpt>
      <trkpt lat="39.2021290" lon="-1.4486150">
        <ele>691.6</ele>
        <time>2019-05-12T07:15:42Z</time>
      </trkpt>
      <trkpt lat="39.2021400" lon="-1.4487160">
        <ele>691.6</ele>
        <time>2019-05-12T07:15:43Z</time>
      </trkpt>
      <trkpt lat="39.2021480" lon="-1.4488160">
        <ele>691.6</ele>
        <time>2019-05-12T07:15:44Z</time>
      </trkpt>
      <trkpt lat="39.2021540" lon="-1.4489180">
        <ele>691.6</ele>
        <time>2019-05-12T07:15:45Z</time>
      </trkpt>
      <trkpt lat="39.2021590" lon="-1.4490220">
        <ele>691.8</ele>
        <time>2019-05-12T07:15:46Z</time>
      </trkpt>
      <trkpt lat="39.2021620" lon="-1.4491260">
        <ele>691.8</ele>
        <time>2019-05-12T07:15:47Z</time>
      </trkpt>
      <trkpt lat="39.2021630" lon="-1.4492310">
        <ele>691.8</ele>
        <time>2019-05-12T07:15:48Z</time>
      </trkpt>
      <trkpt lat="39.2021610" lon="-1.4493360">
        <ele>691.8</ele>
        <time>2019-05-12T07:15:49Z</time>
      </trkpt>
      <trkpt lat="39.2021570" lon="-1.4494400">
        <ele>692.0</ele>
        <time>2019-05-12T07:15:50Z</time>
      </trkpt>
      <trkpt lat="39.2021520" lon="-1.4495460">
        <ele>692.0</ele>
        <time>2019-05-12T07:15:51Z</time>
      </trkpt>
      <trkpt lat="39.2021460" lon="-1.4496540">
        <ele>692.0</ele>
        <time>2019-05-12T07:15:52Z</time>
      </trkpt>
      <trkpt lat="39.2021420" lon="-1.4497630">
        <ele>692.0</ele>
        <time>2019-05-12T07:15:53Z</time>
      </trkpt>
      <trkpt lat="39.2021390" lon="-1.4498730">
        <ele>692.2</ele>
        <time>2019-05-12T07:15:54Z</time>
      </trkpt>
      <trkpt lat="39.2021330" lon="-1.4499840">
        <ele>692.2</ele>
        <time>2019-05-12T07:15:55Z</time>
      </trkpt>
      <trkpt lat="39.2021270" lon="-1.4500950">
        <ele>692.2</ele>
        <time>2019-05-12T07:15:56Z</time>
      </trkpt>
      <trkpt lat="39.2021190" lon="-1.4502070">
        <ele>692.2</ele>
        <time>2019-05-12T07:15:57Z</time>
      </trkpt>
      <trkpt lat="39.2021100" lon="-1.4503180">
        <ele>692.2</ele>
        <time>2019-05-12T07:15:58Z</time>
      </trkpt>
      <trkpt lat="39.2020990" lon="-1.4504290">
        <ele>692.2</ele>
        <time>2019-05-12T07:15:59Z</time>
      </trkpt>
      <trkpt lat="39.2020890" lon="-1.4505390">
        <ele>692.2</ele>
        <time>2019-05-12T07:16:00Z</time>
      </trkpt>
      <trkpt lat="39.2020790" lon="-1.4506490">
        <ele>692.2</ele>
        <time>2019-05-12T07:16:01Z</time>
      </trkpt>
      <trkpt lat="39.2020690" lon="-1.4507590">
        <ele>692.2</ele>
        <time>2019-05-12T07:16:02Z</time>
      </trkpt>
      <trkpt lat="39.2020600" lon="-1.4508690">
        <ele>692.2</ele>
        <time>2019-05-12T07:16:03Z</time>
      </trkpt>
      <trkpt lat="39.2020520" lon="-1.4509810">
        <ele>692.2</ele>
        <time>2019-05-12T07:16:04Z</time>
      </trkpt>
      <trkpt lat="39.2020450" lon="-1.4510940">
        <ele>692.0</ele>
        <time>2019-05-12T07:16:05Z</time>
      </trkpt>
      <trkpt lat="39.2020410" lon="-1.4512090">
        <ele>692.0</ele>
        <time>2019-05-12T07:16:06Z</time>
      </trkpt>
      <trkpt lat="39.2020380" lon="-1.4513250">
        <ele>692.0</ele>
        <time>2019-05-12T07:16:07Z</time>
      </trkpt>
      <trkpt lat="39.2020370" lon="-1.4514420">
        <ele>692.0</ele>
        <time>2019-05-12T07:16:08Z</time>
      </trkpt>
      <trkpt lat="39.2020400" lon="-1.4515610">
        <ele>692.0</ele>
        <time>2019-05-12T07:16:09Z</time>
      </trkpt>
      <trkpt lat="39.2020440" lon="-1.4516810">
        <ele>691.8</ele>
        <time>2019-05-12T07:16:10Z</time>
      </trkpt>
      <trkpt lat="39.2020500" lon="-1.4518000">
        <ele>691.8</ele>
        <time>2019-05-12T07:16:11Z</time>
      </trkpt>
      <trkpt lat="39.2020580" lon="-1.4519190">
        <ele>691.8</ele>
        <time>2019-05-12T07:16:12Z</time>
      </trkpt>
      <trkpt lat="39.2020670" lon="-1.4520370">
        <ele>691.8</ele>
        <time>2019-05-12T07:16:13Z</time>
      </trkpt>
      <trkpt lat="39.2020790" lon="-1.4521550">
        <ele>691.8</ele>
        <time>2019-05-12T07:16:14Z</time>
      </trkpt>
      <trkpt lat="39.2020930" lon="-1.4522730">
        <ele>691.8</ele>
        <time>2019-05-12T07:16:15Z</time>
      </trkpt>
      <trkpt lat="39.2021090" lon="-1.4523920">
        <ele>691.8</ele>
        <time>2019-05-12T07:16:16Z</time>
      </trkpt>
      <trkpt lat="39.2021260" lon="-1.4525140">
        <ele>691.8</ele>
        <time>2019-05-12T07:16:17Z</time>
      </trkpt>
      <trkpt lat="39.2021410" lon="-1.4526370">
        <ele>691.8</ele>
        <time>2019-05-12T07:16:18Z</time>
      </trkpt>
      <trkpt lat="39.2021550" lon="-1.4527610">
        <ele>691.8</ele>
        <time>2019-05-12T07:16:19Z</time>
      </trkpt>
      <trkpt lat="39.2021680" lon="-1.4528840">
        <ele>691.8</ele>
        <time>2019-05-12T07:16:20Z</time>
      </trkpt>
      <trkpt lat="39.2021790" lon="-1.4530060">
        <ele>691.8</ele>
        <time>2019-05-12T07:16:21Z</time>
      </trkpt>
      <trkpt lat="39.2021900" lon="-1.4531280">
        <ele>691.8</ele>
        <time>2019-05-12T07:16:22Z</time>
      </trkpt>
      <trkpt lat="39.2022000" lon="-1.4532520">
        <ele>691.8</ele>
        <time>2019-05-12T07:16:23Z</time>
      </trkpt>
      <trkpt lat="39.2022100" lon="-1.4533770">
        <ele>691.8</ele>
        <time>2019-05-12T07:16:24Z</time>
      </trkpt>
      <trkpt lat="39.2022190" lon="-1.4535040">
        <ele>691.8</ele>
        <time>2019-05-12T07:16:25Z</time>
      </trkpt>
      <trkpt lat="39.2022270" lon="-1.4536310">
        <ele>691.8</ele>
        <time>2019-05-12T07:16:26Z</time>
      </trkpt>
      <trkpt lat="39.2022360" lon="-1.4537570">
        <ele>691.8</ele>
        <time>2019-05-12T07:16:27Z</time>
      </trkpt>
      <trkpt lat="39.2022440" lon="-1.4538850">
        <ele>691.6</ele>
        <time>2019-05-12T07:16:28Z</time>
      </trkpt>
      <trkpt lat="39.2022500" lon="-1.4540130">
        <ele>691.6</ele>
        <time>2019-05-12T07:16:29Z</time>
      </trkpt>
      <trkpt lat="39.2022550" lon="-1.4541410">
        <ele>691.4</ele>
        <time>2019-05-12T07:16:30Z</time>
      </trkpt>
      <trkpt lat="39.2022560" lon="-1.4542690">
        <ele>691.2</ele>
        <time>2019-05-12T07:16:31Z</time>
      </trkpt>
      <trkpt lat="39.2022530" lon="-1.4543960">
        <ele>691.2</ele>
        <time>2019-05-12T07:16:32Z</time>
      </trkpt>
      <trkpt lat="39.2022490" lon="-1.4545240">
        <ele>690.8</ele>
        <time>2019-05-12T07:16:33Z</time>
      </trkpt>
      <trkpt lat="39.2022450" lon="-1.4546510">
        <ele>690.6</ele>
        <time>2019-05-12T07:16:34Z</time>
      </trkpt>
      <trkpt lat="39.2022420" lon="-1.4547760">
        <ele>690.4</ele>
        <time>2019-05-12T07:16:35Z</time>
      </trkpt>
      <trkpt lat="39.2022410" lon="-1.4549010">
        <ele>690.0</ele>
        <time>2019-05-12T07:16:36Z</time>
      </trkpt>
      <trkpt lat="39.2022400" lon="-1.4550260">
        <ele>689.8</ele>
        <time>2019-05-12T07:16:37Z</time>
      </trkpt>
      <trkpt lat="39.2022350" lon="-1.4551500">
        <ele>689.6</ele>
        <time>2019-05-12T07:16:38Z</time>
      </trkpt>
      <trkpt lat="39.2022240" lon="-1.4552750">
        <ele>689.4</ele>
        <time>2019-05-12T07:16:39Z</time>
      </trkpt>
      <trkpt lat="39.2022110" lon="-1.4553980">
        <ele>689.2</ele>
        <time>2019-05-12T07:16:40Z</time>
      </trkpt>
      <trkpt lat="39.2021990" lon="-1.4555190">
        <ele>689.2</ele>
        <time>2019-05-12T07:16:41Z</time>
      </trkpt>
      <trkpt lat="39.2021880" lon="-1.4556390">
        <ele>689.0</ele>
        <time>2019-05-12T07:16:42Z</time>
      </trkpt>
      <trkpt lat="39.2021780" lon="-1.4557560">
        <ele>689.0</ele>
        <time>2019-05-12T07:16:43Z</time>
      </trkpt>
      <trkpt lat="39.2021670" lon="-1.4558700">
        <ele>689.0</ele>
        <time>2019-05-12T07:16:44Z</time>
      </trkpt>
      <trkpt lat="39.2021550" lon="-1.4559820">
        <ele>688.8</ele>
        <time>2019-05-12T07:16:45Z</time>
      </trkpt>
      <trkpt lat="39.2021440" lon="-1.4560930">
        <ele>688.8</ele>
        <time>2019-05-12T07:16:46Z</time>
      </trkpt>
      <trkpt lat="39.2021340" lon="-1.4562040">
        <ele>688.6</ele>
        <time>2019-05-12T07:16:47Z</time>
      </trkpt>
      <trkpt lat="39.2021250" lon="-1.4563170">
        <ele>688.6</ele>
        <time>2019-05-12T07:16:48Z</time>
      </trkpt>
      <trkpt lat="39.2021160" lon="-1.4564290">
        <ele>688.6</ele>
        <time>2019-05-12T07:16:49Z</time>
      </trkpt>
      <trkpt lat="39.2021060" lon="-1.4565420">
        <ele>688.6</ele>
        <time>2019-05-12T07:16:50Z</time>
      </trkpt>
      <trkpt lat="39.2020980" lon="-1.4566550">
        <ele>688.6</ele>
        <time>2019-05-12T07:16:51Z</time>
      </trkpt>
      <trkpt lat="39.2020880" lon="-1.4567670">
        <ele>688.4</ele>
        <time>2019-05-12T07:16:52Z</time>
      </trkpt>
      <trkpt lat="39.2020770" lon="-1.4568770">
        <ele>688.4</ele>
        <time>2019-05-12T07:16:53Z</time>
      </trkpt>
      <trkpt lat="39.2020650" lon="-1.4569860">
        <ele>688.4</ele>
        <time>2019-05-12T07:16:54Z</time>
      </trkpt>
      <trkpt lat="39.2020520" lon="-1.4570940">
        <ele>688.4</ele>
        <time>2019-05-12T07:16:55Z</time>
      </trkpt>
      <trkpt lat="39.2020350" lon="-1.4572010">
        <ele>688.4</ele>
        <time>2019-05-12T07:16:56Z</time>
      </trkpt>
      <trkpt lat="39.2020150" lon="-1.4573050">
        <ele>688.4</ele>
        <time>2019-05-12T07:16:57Z</time>
      </trkpt>
      <trkpt lat="39.2019930" lon="-1.4574100">
        <ele>688.4</ele>
        <time>2019-05-12T07:16:58Z</time>
      </trkpt>
      <trkpt lat="39.2019710" lon="-1.4575160">
        <ele>688.2</ele>
        <time>2019-05-12T07:16:59Z</time>
      </trkpt>
      <trkpt lat="39.2019480" lon="-1.4576230">
        <ele>688.2</ele>
        <time>2019-05-12T07:17:00Z</time>
      </trkpt>
      <trkpt lat="39.2019270" lon="-1.4577290">
        <ele>688.2</ele>
        <time>2019-05-12T07:17:01Z</time>
      </trkpt>
      <trkpt lat="39.2019060" lon="-1.4578350">
        <ele>688.4</ele>
        <time>2019-05-12T07:17:02Z</time>
      </trkpt>
      <trkpt lat="39.2018890" lon="-1.4579410">
        <ele>688.4</ele>
        <time>2019-05-12T07:17:03Z</time>
      </trkpt>
      <trkpt lat="39.2018750" lon="-1.4580470">
        <ele>688.4</ele>
        <time>2019-05-12T07:17:04Z</time>
      </trkpt>
      <trkpt lat="39.2018640" lon="-1.4581530">
        <ele>688.4</ele>
        <time>2019-05-12T07:17:05Z</time>
      </trkpt>
      <trkpt lat="39.2018560" lon="-1.4582600">
        <ele>688.4</ele>
        <time>2019-05-12T07:17:06Z</time>
      </trkpt>
      <trkpt lat="39.2018530" lon="-1.4583660">
        <ele>688.6</ele>
        <time>2019-05-12T07:17:07Z</time>
      </trkpt>
      <trkpt lat="39.2018570" lon="-1.4584730">
        <ele>688.6</ele>
        <time>2019-05-12T07:17:08Z</time>
      </trkpt>
      <trkpt lat="39.2018650" lon="-1.4585790">
        <ele>688.6</ele>
        <time>2019-05-12T07:17:09Z</time>
      </trkpt>
      <trkpt lat="39.2018780" lon="-1.4586850">
        <ele>688.6</ele>
        <time>2019-05-12T07:17:10Z</time>
      </trkpt>
      <trkpt lat="39.2018920" lon="-1.4587900">
        <ele>688.6</ele>
        <time>2019-05-12T07:17:11Z</time>
      </trkpt>
      <trkpt lat="39.2019080" lon="-1.4588940">
        <ele>688.6</ele>
        <time>2019-05-12T07:17:12Z</time>
      </trkpt>
      <trkpt lat="39.2019230" lon="-1.4589970">
        <ele>688.6</ele>
        <time>2019-05-12T07:17:13Z</time>
      </trkpt>
      <trkpt lat="39.2019380" lon="-1.4590990">
        <ele>688.8</ele>
        <time>2019-05-12T07:17:14Z</time>
      </trkpt>
      <trkpt lat="39.2019520" lon="-1.4592010">
        <ele>688.8</ele>
        <time>2019-05-12T07:17:15Z</time>
      </trkpt>
      <trkpt lat="39.2019650" lon="-1.4593050">
        <ele>688.8</ele>
        <time>2019-05-12T07:17:16Z</time>
      </trkpt>
      <trkpt lat="39.2019760" lon="-1.4594090">
        <ele>688.8</ele>
        <time>2019-05-12T07:17:17Z</time>
      </trkpt>
      <trkpt lat="39.2019840" lon="-1.4595150">
        <ele>688.8</ele>
        <time>2019-05-12T07:17:18Z</time>
      </trkpt>
      <trkpt lat="39.2019910" lon="-1.4596200">
        <ele>689.0</ele>
        <time>2019-05-12T07:17:19Z</time>
      </trkpt>
      <trkpt lat="39.2019930" lon="-1.4597250">
        <ele>688.8</ele>
        <time>2019-05-12T07:17:20Z</time>
      </trkpt>
      <trkpt lat="39.2019900" lon="-1.4598290">
        <ele>688.8</ele>
        <time>2019-05-12T07:17:21Z</time>
      </trkpt>
      <trkpt lat="39.2019830" lon="-1.4599340">
        <ele>688.6</ele>
        <time>2019-05-12T07:17:22Z</time>
      </trkpt>
      <trkpt lat="39.2019710" lon="-1.4600400">
        <ele>688.8</ele>
        <time>2019-05-12T07:17:23Z</time>
      </trkpt>
      <trkpt lat="39.2019580" lon="-1.4601450">
        <ele>688.6</ele>
        <time>2019-05-12T07:17:24Z</time>
      </trkpt>
      <trkpt lat="39.2019470" lon="-1.4602530">
        <ele>688.6</ele>
        <time>2019-05-12T07:17:25Z</time>
      </trkpt>
      <trkpt lat="39.2019380" lon="-1.4603630">
        <ele>688.6</ele>
        <time>2019-05-12T07:17:26Z</time>
      </trkpt>
      <trkpt lat="39.2019240" lon="-1.4604730">
        <ele>688.6</ele>
        <time>2019-05-12T07:17:27Z</time>
      </trkpt>
      <trkpt lat="39.2019060" lon="-1.4605830">
        <ele>688.6</ele>
        <time>2019-05-12T07:17:28Z</time>
      </trkpt>
      <trkpt lat="39.2018890" lon="-1.4606930">
        <ele>688.8</ele>
        <time>2019-05-12T07:17:29Z</time>
      </trkpt>
      <trkpt lat="39.2018740" lon="-1.4608030">
        <ele>688.8</ele>
        <time>2019-05-12T07:17:30Z</time>
      </trkpt>
      <trkpt lat="39.2018620" lon="-1.4609150">
        <ele>688.6</ele>
        <time>2019-05-12T07:17:31Z</time>
      </trkpt>
      <trkpt lat="39.2018510" lon="-1.4610260">
        <ele>688.6</ele>
        <time>2019-05-12T07:17:32Z</time>
      </trkpt>
      <trkpt lat="39.2018430" lon="-1.4611380">
        <ele>688.6</ele>
        <time>2019-05-12T07:17:33Z</time>
      </trkpt>
      <trkpt lat="39.2018400" lon="-1.4612490">
        <ele>688.4</ele>
        <time>2019-05-12T07:17:34Z</time>
      </trkpt>
      <trkpt lat="39.2018410" lon="-1.4613590">
        <ele>688.2</ele>
        <time>2019-05-12T07:17:35Z</time>
      </trkpt>
      <trkpt lat="39.2018440" lon="-1.4614690">
        <ele>688.0</ele>
        <time>2019-05-12T07:17:36Z</time>
      </trkpt>
      <trkpt lat="39.2018530" lon="-1.4615780">
        <ele>687.8</ele>
        <time>2019-05-12T07:17:37Z</time>
      </trkpt>
      <trkpt lat="39.2018670" lon="-1.4616860">
        <ele>687.6</ele>
        <time>2019-05-12T07:17:38Z</time>
      </trkpt>
      <trkpt lat="39.2018870" lon="-1.4617910">
        <ele>687.6</ele>
        <time>2019-05-12T07:17:39Z</time>
      </trkpt>
      <trkpt lat="39.2019110" lon="-1.4618930">
        <ele>687.6</ele>
        <time>2019-05-12T07:17:40Z</time>
      </trkpt>
      <trkpt lat="39.2019400" lon="-1.4619930">
        <ele>687.6</ele>
        <time>2019-05-12T07:17:41Z</time>
      </trkpt>
      <trkpt lat="39.2019710" lon="-1.4620900">
        <ele>687.6</ele>
        <time>2019-05-12T07:17:42Z</time>
      </trkpt>
      <trkpt lat="39.2020060" lon="-1.4621860">
        <ele>687.6</ele>
        <time>2019-05-12T07:17:43Z</time>
      </trkpt>
      <trkpt lat="39.2020430" lon="-1.4622790">
        <ele>687.6</ele>
        <time>2019-05-12T07:17:44Z</time>
      </trkpt>
      <trkpt lat="39.2020820" lon="-1.4623720">
        <ele>687.6</ele>
        <time>2019-05-12T07:17:45Z</time>
      </trkpt>
      <trkpt lat="39.2021220" lon="-1.4624650">
        <ele>687.6</ele>
        <time>2019-05-12T07:17:46Z</time>
      </trkpt>
      <trkpt lat="39.2021630" lon="-1.4625580">
        <ele>687.6</ele>
        <time>2019-05-12T07:17:47Z</time>
      </trkpt>
      <trkpt lat="39.2022030" lon="-1.4626530">
        <ele>687.8</ele>
        <time>2019-05-12T07:17:48Z</time>
      </trkpt>
      <trkpt lat="39.2022400" lon="-1.4627490">
        <ele>687.8</ele>
        <time>2019-05-12T07:17:49Z</time>
      </trkpt>
      <trkpt lat="39.2022760" lon="-1.4628460">
        <ele>687.8</ele>
        <time>2019-05-12T07:17:50Z</time>
      </trkpt>
      <trkpt lat="39.2023090" lon="-1.4629440">
        <ele>687.8</ele>
        <time>2019-05-12T07:17:51Z</time>
      </trkpt>
      <trkpt lat="39.2023400" lon="-1.4630430">
        <ele>687.8</ele>
        <time>2019-05-12T07:17:52Z</time>
      </trkpt>
      <trkpt lat="39.2023670" lon="-1.4631450">
        <ele>687.8</ele>
        <time>2019-05-12T07:17:53Z</time>
      </trkpt>
      <trkpt lat="39.2023910" lon="-1.4632510">
        <ele>687.8</ele>
        <time>2019-05-12T07:17:54Z</time>
      </trkpt>
      <trkpt lat="39.2024140" lon="-1.4633590">
        <ele>687.8</ele>
        <time>2019-05-12T07:17:55Z</time>
      </trkpt>
      <trkpt lat="39.2024360" lon="-1.4634700">
        <ele>687.8</ele>
        <time>2019-05-12T07:17:56Z</time>
      </trkpt>
      <trkpt lat="39.2024580" lon="-1.4635810">
        <ele>687.8</ele>
        <time>2019-05-12T07:17:57Z</time>
      </trkpt>
      <trkpt lat="39.2024830" lon="-1.4636910">
        <ele>687.8</ele>
        <time>2019-05-12T07:17:58Z</time>
      </trkpt>
      <trkpt lat="39.2025130" lon="-1.4638000">
        <ele>687.8</ele>
        <time>2019-05-12T07:17:59Z</time>
      </trkpt>
      <trkpt lat="39.2025480" lon="-1.4639060">
        <ele>687.8</ele>
        <time>2019-05-12T07:18:00Z</time>
      </trkpt>
      <trkpt lat="39.2025850" lon="-1.4640100">
        <ele>687.4</ele>
        <time>2019-05-12T07:18:01Z</time>
      </trkpt>
      <trkpt lat="39.2026210" lon="-1.4641130">
        <ele>686.6</ele>
        <time>2019-05-12T07:18:02Z</time>
      </trkpt>
      <trkpt lat="39.2026570" lon="-1.4642140">
        <ele>686.2</ele>
        <time>2019-05-12T07:18:03Z</time>
      </trkpt>
      <trkpt lat="39.2026910" lon="-1.4643150">
        <ele>685.8</ele>
        <time>2019-05-12T07:18:04Z</time>
      </trkpt>
      <trkpt lat="39.2027240" lon="-1.4644170">
        <ele>685.8</ele>
        <time>2019-05-12T07:18:05Z</time>
      </trkpt>
      <trkpt lat="39.2027550" lon="-1.4645210">
        <ele>685.8</ele>
        <time>2019-05-12T07:18:06Z</time>
      </trkpt>
      <trkpt lat="39.2027850" lon="-1.4646260">
        <ele>685.6</ele>
        <time>2019-05-12T07:18:07Z</time>
      </trkpt>
      <trkpt lat="39.2028130" lon="-1.4647320">
        <ele>685.4</ele>
        <time>2019-05-12T07:18:08Z</time>
      </trkpt>
      <trkpt lat="39.2028390" lon="-1.4648400">
        <ele>685.4</ele>
        <time>2019-05-12T07:18:09Z</time>
      </trkpt>
      <trkpt lat="39.2028630" lon="-1.4649500">
        <ele>685.2</ele>
        <time>2019-05-12T07:18:10Z</time>
      </trkpt>
      <trkpt lat="39.2028830" lon="-1.4650610">
        <ele>685.2</ele>
        <time>2019-05-12T07:18:11Z</time>
      </trkpt>
      <trkpt lat="39.2029010" lon="-1.4651720">
        <ele>685.2</ele>
        <time>2019-05-12T07:18:12Z</time>
      </trkpt>
      <trkpt lat="39.2029170" lon="-1.4652810">
        <ele>685.2</ele>
        <time>2019-05-12T07:18:13Z</time>
      </trkpt>
      <trkpt lat="39.2029340" lon="-1.4653910">
        <ele>685.2</ele>
        <time>2019-05-12T07:18:14Z</time>
      </trkpt>
      <trkpt lat="39.2029520" lon="-1.4655010">
        <ele>685.2</ele>
        <time>2019-05-12T07:18:15Z</time>
      </trkpt>
      <trkpt lat="39.2029670" lon="-1.4656120">
        <ele>685.2</ele>
        <time>2019-05-12T07:18:16Z</time>
      </trkpt>
      <trkpt lat="39.2029800" lon="-1.4657240">
        <ele>685.0</ele>
        <time>2019-05-12T07:18:17Z</time>
      </trkpt>
      <trkpt lat="39.2029900" lon="-1.4658370">
        <ele>685.0</ele>
        <time>2019-05-12T07:18:18Z</time>
      </trkpt>
      <trkpt lat="39.2029990" lon="-1.4659510">
        <ele>685.0</ele>
        <time>2019-05-12T07:18:19Z</time>
      </trkpt>
      <trkpt lat="39.2030080" lon="-1.4660650">
        <ele>685.0</ele>
        <time>2019-05-12T07:18:20Z</time>
      </trkpt>
      <trkpt lat="39.2030120" lon="-1.4661780">
        <ele>685.0</ele>
        <time>2019-05-12T07:18:21Z</time>
      </trkpt>
      <trkpt lat="39.2030110" lon="-1.4662920">
        <ele>685.0</ele>
        <time>2019-05-12T07:18:22Z</time>
      </trkpt>
      <trkpt lat="39.2030050" lon="-1.4664050">
        <ele>685.0</ele>
        <time>2019-05-12T07:18:23Z</time>
      </trkpt>
      <trkpt lat="39.2029950" lon="-1.4665160">
        <ele>685.0</ele>
        <time>2019-05-12T07:18:24Z</time>
      </trkpt>
      <trkpt lat="39.2029820" lon="-1.4666230">
        <ele>685.0</ele>
        <time>2019-05-12T07:18:25Z</time>
      </trkpt>
      <trkpt lat="39.2029670" lon="-1.4667290">
        <ele>684.8</ele>
        <time>2019-05-12T07:18:26Z</time>
      </trkpt>
      <trkpt lat="39.2029520" lon="-1.4668340">
        <ele>684.8</ele>
        <time>2019-05-12T07:18:27Z</time>
      </trkpt>
      <trkpt lat="39.2029360" lon="-1.4669400">
        <ele>684.8</ele>
        <time>2019-05-12T07:18:28Z</time>
      </trkpt>
      <trkpt lat="39.2029200" lon="-1.4670460">
        <ele>684.8</ele>
        <time>2019-05-12T07:18:29Z</time>
      </trkpt>
      <trkpt lat="39.2029010" lon="-1.4671530">
        <ele>684.8</ele>
        <time>2019-05-12T07:18:30Z</time>
      </trkpt>
      <trkpt lat="39.2028810" lon="-1.4672610">
        <ele>684.6</ele>
        <time>2019-05-12T07:18:31Z</time>
      </trkpt>
      <trkpt lat="39.2028640" lon="-1.4673690">
        <ele>684.6</ele>
        <time>2019-05-12T07:18:32Z</time>
      </trkpt>
      <trkpt lat="39.2028470" lon="-1.4674790">
        <ele>684.4</ele>
        <time>2019-05-12T07:18:33Z</time>
      </trkpt>
      <trkpt lat="39.2028310" lon="-1.4675890">
        <ele>684.4</ele>
        <time>2019-05-12T07:18:34Z</time>
      </trkpt>
      <trkpt lat="39.2028170" lon="-1.4676990">
        <ele>684.4</ele>
        <time>2019-05-12T07:18:35Z</time>
      </trkpt>
      <trkpt lat="39.2028140" lon="-1.4678090">
        <ele>684.4</ele>
        <time>2019-05-12T07:18:36Z</time>
      </trkpt>
      <trkpt lat="39.2028240" lon="-1.4679150">
        <ele>684.4</ele>
        <time>2019-05-12T07:18:37Z</time>
      </trkpt>
      <trkpt lat="39.2028500" lon="-1.4680170">
        <ele>684.4</ele>
        <time>2019-05-12T07:18:38Z</time>
      </trkpt>
      <trkpt lat="39.2028900" lon="-1.4681110">
        <ele>684.4</ele>
        <time>2019-05-12T07:18:39Z</time>
      </trkpt>
      <trkpt lat="39.2029410" lon="-1.4681990">
        <ele>684.4</ele>
        <time>2019-05-12T07:18:40Z</time>
      </trkpt>
      <trkpt lat="39.2029950" lon="-1.4682840">
        <ele>684.4</ele>
        <time>2019-05-12T07:18:41Z</time>
      </trkpt>
      <trkpt lat="39.2030500" lon="-1.4683660">
        <ele>684.4</ele>
        <time>2019-05-12T07:18:42Z</time>
      </trkpt>
      <trkpt lat="39.2031020" lon="-1.4684420">
        <ele>684.4</ele>
        <time>2019-05-12T07:18:43Z</time>
      </trkpt>
      <trkpt lat="39.2031500" lon="-1.4685140">
        <ele>684.4</ele>
        <time>2019-05-12T07:18:44Z</time>
      </trkpt>
      <trkpt lat="39.2031940" lon="-1.4685840">
        <ele>684.4</ele>
        <time>2019-05-12T07:18:45Z</time>
      </trkpt>
      <trkpt lat="39.2032340" lon="-1.4686550">
        <ele>684.4</ele>
        <time>2019-05-12T07:18:46Z</time>
      </trkpt>
      <trkpt lat="39.2032650" lon="-1.4687270">
        <ele>684.4</ele>
        <time>2019-05-12T07:18:47Z</time>
      </trkpt>
      <trkpt lat="39.2032810" lon="-1.4687990">
        <ele>684.2</ele>
        <time>2019-05-12T07:18:48Z</time>
      </trkpt>
      <trkpt lat="39.2032840" lon="-1.4688720">
        <ele>684.2</ele>
        <time>2019-05-12T07:18:49Z</time>
      </trkpt>
      <trkpt lat="39.2032790" lon="-1.4689440">
        <ele>684.0</ele>
        <time>2019-05-12T07:18:50Z</time>
      </trkpt>
      <trkpt lat="39.2032630" lon="-1.4690140">
        <ele>684.0</ele>
        <time>2019-05-12T07:18:51Z</time>
      </trkpt>
      <trkpt lat="39.2032370" lon="-1.4690820">
        <ele>683.8</ele>
        <time>2019-05-12T07:18:52Z</time>
      </trkpt>
      <trkpt lat="39.2032090" lon="-1.4691500">
        <ele>683.6</ele>
        <time>2019-05-12T07:18:53Z</time>
      </trkpt>
      <trkpt lat="39.2031780" lon="-1.4692180">
        <ele>683.6</ele>
        <time>2019-05-12T07:18:54Z</time>
      </trkpt>
      <trkpt lat="39.2031440" lon="-1.4692880">
        <ele>683.6</ele>
        <time>2019-05-12T07:18:55Z</time>
      </trkpt>
      <trkpt lat="39.2031060" lon="-1.4693570">
        <ele>683.6</ele>
        <time>2019-05-12T07:18:56Z</time>
      </trkpt>
      <trkpt lat="39.2030660" lon="-1.4694280">
        <ele>683.6</ele>
        <time>2019-05-12T07:18:57Z</time>
      </trkpt>
      <trkpt lat="39.2030300" lon="-1.4695040">
        <ele>683.6</ele>
        <time>2019-05-12T07:18:58Z</time>
      </trkpt>
      <trkpt lat="39.2029980" lon="-1.4695830">
        <ele>683.6</ele>
        <time>2019-05-12T07:18:59Z</time>
      </trkpt>
      <trkpt lat="39.2029690" lon="-1.4696670">
        <ele>683.6</ele>
        <time>2019-05-12T07:19:00Z</time>
      </trkpt>
      <trkpt lat="39.2029420" lon="-1.4697510">
        <ele>683.6</ele>
        <time>2019-05-12T07:19:01Z</time>
      </trkpt>
      <trkpt lat="39.2029180" lon="-1.4698340">
        <ele>683.6</ele>
        <time>2019-05-12T07:19:02Z</time>
      </trkpt>
      <trkpt lat="39.2028950" lon="-1.4699170">
        <ele>683.6</ele>
        <time>2019-05-12T07:19:03Z</time>
      </trkpt>
      <trkpt lat="39.2028660" lon="-1.4699960">
        <ele>683.6</ele>
        <time>2019-05-12T07:19:04Z</time>
      </trkpt>
      <trkpt lat="39.2028280" lon="-1.4700700">
        <ele>683.8</ele>
        <time>2019-05-12T07:19:05Z</time>
      </trkpt>
      <trkpt lat="39.2027800" lon="-1.4701320">
        <ele>684.0</ele>
        <time>2019-05-12T07:19:06Z</time>
      </trkpt>
      <trkpt lat="39.2027210" lon="-1.4701780">
        <ele>684.0</ele>
        <time>2019-05-12T07:19:07Z</time>
      </trkpt>
      <trkpt lat="39.2026550" lon="-1.4702120">
        <ele>684.2</ele>
        <time>2019-05-12T07:19:08Z</time>
      </trkpt>
      <trkpt lat="39.2025880" lon="-1.4702390">
        <ele>684.4</ele>
        <time>2019-05-12T07:19:09Z</time>
      </trkpt>
      <trkpt lat="39.2025200" lon="-1.4702630">
        <ele>684.4</ele>
        <time>2019-05-12T07:19:10Z</time>
      </trkpt>
      <trkpt lat="39.2024520" lon="-1.4702840">
        <ele>684.6</ele>
        <time>2019-05-12T07:19:11Z</time>
      </trkpt>
      <trkpt lat="39.2023820" lon="-1.4703050">
        <ele>684.6</ele>
        <time>2019-05-12T07:19:12Z</time>
      </trkpt>
      <trkpt lat="39.2023110" lon="-1.4703270">
        <ele>684.6</ele>
        <time>2019-05-12T07:19:13Z</time>
      </trkpt>
      <trkpt lat="39.2022390" lon="-1.4703460">
        <ele>684.6</ele>
        <time>2019-05-12T07:19:14Z</time>
      </trkpt>
      <trkpt lat="39.2021690" lon="-1.4703650">
        <ele>684.6</ele>
        <time>2019-05-12T07:19:15Z</time>
      </trkpt>
      <trkpt lat="39.2021050" lon="-1.4703930">
        <ele>684.6</ele>
        <time>2019-05-12T07:19:16Z</time>
      </trkpt>
      <trkpt lat="39.2020520" lon="-1.4704400">
        <ele>684.6</ele>
        <time>2019-05-12T07:19:17Z</time>
      </trkpt>
      <trkpt lat="39.2020110" lon="-1.4705050">
        <ele>684.8</ele>
        <time>2019-05-12T07:19:18Z</time>
      </trkpt>
      <trkpt lat="39.2019770" lon="-1.4705840">
        <ele>684.8</ele>
        <time>2019-05-12T07:19:19Z</time>
      </trkpt>
      <trkpt lat="39.2019500" lon="-1.4706700">
        <ele>684.8</ele>
        <time>2019-05-12T07:19:20Z</time>
      </trkpt>
      <trkpt lat="39.2019240" lon="-1.4707600">
        <ele>685.0</ele>
        <time>2019-05-12T07:19:21Z</time>
      </trkpt>
      <trkpt lat="39.2018990" lon="-1.4708520">
        <ele>685.0</ele>
        <time>2019-05-12T07:19:22Z</time>
      </trkpt>
      <trkpt lat="39.2018720" lon="-1.4709460">
        <ele>685.0</ele>
        <time>2019-05-12T07:19:23Z</time>
      </trkpt>
      <trkpt lat="39.2018480" lon="-1.4710430">
        <ele>685.0</ele>
        <time>2019-05-12T07:19:24Z</time>
      </trkpt>
      <trkpt lat="39.2018280" lon="-1.4711430">
        <ele>685.0</ele>
        <time>2019-05-12T07:19:25Z</time>
      </trkpt>
      <trkpt lat="39.2018100" lon="-1.4712440">
        <ele>685.0</ele>
        <time>2019-05-12T07:19:26Z</time>
      </trkpt>
      <trkpt lat="39.2017930" lon="-1.4713440">
        <ele>685.2</ele>
        <time>2019-05-12T07:19:27Z</time>
      </trkpt>
      <trkpt lat="39.2017760" lon="-1.4714450">
        <ele>685.2</ele>
        <time>2019-05-12T07:19:28Z</time>
      </trkpt>
      <trkpt lat="39.2017590" lon="-1.4715440">
        <ele>685.2</ele>
        <time>2019-05-12T07:19:29Z</time>
      </trkpt>
      <trkpt lat="39.2017410" lon="-1.4716440">
        <ele>685.2</ele>
        <time>2019-05-12T07:19:30Z</time>
      </trkpt>
      <trkpt lat="39.2017240" lon="-1.4717420">
        <ele>685.0</ele>
        <time>2019-05-12T07:19:31Z</time>
      </trkpt>
      <trkpt lat="39.2017090" lon="-1.4718400">
        <ele>685.0</ele>
        <time>2019-05-12T07:19:32Z</time>
      </trkpt>
      <trkpt lat="39.2016930" lon="-1.4719380">
        <ele>685.0</ele>
        <time>2019-05-12T07:19:33Z</time>
      </trkpt>
      <trkpt lat="39.2016760" lon="-1.4720340">
        <ele>685.0</ele>
        <time>2019-05-12T07:19:34Z</time>
      </trkpt>
      <trkpt lat="39.2016610" lon="-1.4721300">
        <ele>685.0</ele>
        <time>2019-05-12T07:19:35Z</time>
      </trkpt>
      <trkpt lat="39.2016470" lon="-1.4722250">
        <ele>685.0</ele>
        <time>2019-05-12T07:19:36Z</time>
      </trkpt>
      <trkpt lat="39.2016340" lon="-1.4723190">
        <ele>684.8</ele>
        <time>2019-05-12T07:19:37Z</time>
      </trkpt>
      <trkpt lat="39.2016190" lon="-1.4724100">
        <ele>685.0</ele>
        <time>2019-05-12T07:19:38Z</time>
      </trkpt>
      <trkpt lat="39.2016040" lon="-1.4724990">
        <ele>685.0</ele>
        <time>2019-05-12T07:19:39Z</time>
      </trkpt>
      <trkpt lat="39.2015880" lon="-1.4725870">
        <ele>685.0</ele>
        <time>2019-05-12T07:19:40Z</time>
      </trkpt>
      <trkpt lat="39.2015710" lon="-1.4726670">
        <ele>685.0</ele>
        <time>2019-05-12T07:19:41Z</time>
      </trkpt>
      <trkpt lat="39.2015510" lon="-1.4727360">
        <ele>685.0</ele>
        <time>2019-05-12T07:19:42Z</time>
      </trkpt>
      <trkpt lat="39.2015250" lon="-1.4727930">
        <ele>684.8</ele>
        <time>2019-05-12T07:19:43Z</time>
      </trkpt>
      <trkpt lat="39.2014880" lon="-1.4728340">
        <ele>684.8</ele>
        <time>2019-05-12T07:19:44Z</time>
      </trkpt>
      <trkpt lat="39.2014390" lon="-1.4728630">
        <ele>684.8</ele>
        <time>2019-05-12T07:19:45Z</time>
      </trkpt>
      <trkpt lat="39.2013830" lon="-1.4728920">
        <ele>684.6</ele>
        <time>2019-05-12T07:19:46Z</time>
      </trkpt>
      <trkpt lat="39.2013230" lon="-1.4729230">
        <ele>684.4</ele>
        <time>2019-05-12T07:19:47Z</time>
      </trkpt>
      <trkpt lat="39.2012590" lon="-1.4729580">
        <ele>684.2</ele>
        <time>2019-05-12T07:19:48Z</time>
      </trkpt>
      <trkpt lat="39.2011950" lon="-1.4729950">
        <ele>684.0</ele>
        <time>2019-05-12T07:19:49Z</time>
      </trkpt>
      <trkpt lat="39.2011320" lon="-1.4730370">
        <ele>683.8</ele>
        <time>2019-05-12T07:19:50Z</time>
      </trkpt>
      <trkpt lat="39.2010700" lon="-1.4730850">
        <ele>683.8</ele>
        <time>2019-05-12T07:19:51Z</time>
      </trkpt>
      <trkpt lat="39.2010090" lon="-1.4731380">
        <ele>683.8</ele>
        <time>2019-05-12T07:19:52Z</time>
      </trkpt>
      <trkpt lat="39.2009510" lon="-1.4731960">
        <ele>683.8</ele>
        <time>2019-05-12T07:19:53Z</time>
      </trkpt>
      <trkpt lat="39.2008920" lon="-1.4732520">
        <ele>683.6</ele>
        <time>2019-05-12T07:19:54Z</time>
      </trkpt>
      <trkpt lat="39.2008310" lon="-1.4733020">
        <ele>683.6</ele>
        <time>2019-05-12T07:19:55Z</time>
      </trkpt>
      <trkpt lat="39.2007620" lon="-1.4733370">
        <ele>683.6</ele>
        <time>2019-05-12T07:19:56Z</time>
      </trkpt>
      <trkpt lat="39.2006870" lon="-1.4733540">
        <ele>683.6</ele>
        <time>2019-05-12T07:19:57Z</time>
      </trkpt>
      <trkpt lat="39.2006080" lon="-1.4733490">
        <ele>683.6</ele>
        <time>2019-05-12T07:19:58Z</time>
      </trkpt>
      <trkpt lat="39.2005310" lon="-1.4733230">
        <ele>683.8</ele>
        <time>2019-05-12T07:19:59Z</time>
      </trkpt>
      <trkpt lat="39.2004580" lon="-1.4732820">
        <ele>683.8</ele>
        <time>2019-05-12T07:20:00Z</time>
      </trkpt>
      <trkpt lat="39.2003870" lon="-1.4732340">
        <ele>684.0</ele>
        <time>2019-05-12T07:20:01Z</time>
      </trkpt>
      <trkpt lat="39.2003170" lon="-1.4731850">
        <ele>684.0</ele>
        <time>2019-05-12T07:20:02Z</time>
      </trkpt>
      <trkpt lat="39.2002460" lon="-1.4731410">
        <ele>684.0</ele>
        <time>2019-05-12T07:20:03Z</time>
      </trkpt>
      <trkpt lat="39.2001740" lon="-1.4731000">
        <ele>684.0</ele>
        <time>2019-05-12T07:20:04Z</time>
      </trkpt>
      <trkpt lat="39.2001010" lon="-1.4730600">
        <ele>684.2</ele>
        <time>2019-05-12T07:20:05Z</time>
      </trkpt>
      <trkpt lat="39.2000280" lon="-1.4730210">
        <ele>684.2</ele>
        <time>2019-05-12T07:20:06Z</time>
      </trkpt>
      <trkpt lat="39.1999580" lon="-1.4729900">
        <ele>684.2</ele>
        <time>2019-05-12T07:20:07Z</time>
      </trkpt>
      <trkpt lat="39.1998870" lon="-1.4729680">
        <ele>684.2</ele>
        <time>2019-05-12T07:20:08Z</time>
      </trkpt>
      <trkpt lat="39.1998110" lon="-1.4729550">
        <ele>684.2</ele>
        <time>2019-05-12T07:20:09Z</time>
      </trkpt>
      <trkpt lat="39.1997310" lon="-1.4729440">
        <ele>684.2</ele>
        <time>2019-05-12T07:20:10Z</time>
      </trkpt>
      <trkpt lat="39.1996490" lon="-1.4729280">
        <ele>684.2</ele>
        <time>2019-05-12T07:20:11Z</time>
      </trkpt>
      <trkpt lat="39.1995670" lon="-1.4729030">
        <ele>684.0</ele>
        <time>2019-05-12T07:20:12Z</time>
      </trkpt>
      <trkpt lat="39.1994900" lon="-1.4728700">
        <ele>684.0</ele>
        <time>2019-05-12T07:20:13Z</time>
      </trkpt>
      <trkpt lat="39.1994170" lon="-1.4728340">
        <ele>683.8</ele>
        <time>2019-05-12T07:20:14Z</time>
      </trkpt>
      <trkpt lat="39.1993430" lon="-1.4728070">
        <ele>683.6</ele>
        <time>2019-05-12T07:20:15Z</time>
      </trkpt>
      <trkpt lat="39.1992660" lon="-1.4727990">
        <ele>683.4</ele>
        <time>2019-05-12T07:20:16Z</time>
      </trkpt>
      <trkpt lat="39.1991900" lon="-1.4728110">
        <ele>683.0</ele>
        <time>2019-05-12T07:20:17Z</time>
      </trkpt>
      <trkpt lat="39.1991170" lon="-1.4728360">
        <ele>682.6</ele>
        <time>2019-05-12T07:20:18Z</time>
      </trkpt>
      <trkpt lat="39.1990490" lon="-1.4728690">
        <ele>682.2</ele>
        <time>2019-05-12T07:20:19Z</time>
      </trkpt>
      <trkpt lat="39.1989860" lon="-1.4729060">
        <ele>681.8</ele>
        <time>2019-05-12T07:20:20Z</time>
      </trkpt>
      <trkpt lat="39.1989300" lon="-1.4729440">
        <ele>680.6</ele>
        <time>2019-05-12T07:20:21Z</time>
      </trkpt>
      <trkpt lat="39.1988760" lon="-1.4729740">
        <ele>679.8</ele>
        <time>2019-05-12T07:20:22Z</time>
      </trkpt>
      <trkpt lat="39.1988200" lon="-1.4729960">
        <ele>679.2</ele>
        <time>2019-05-12T07:20:23Z</time>
      </trkpt>
      <trkpt lat="39.1987630" lon="-1.4730080">
        <ele>678.8</ele>
        <time>2019-05-12T07:20:24Z</time>
      </trkpt>
      <trkpt lat="39.1987120" lon="-1.4730080">
        <ele>678.6</ele>
        <time>2019-05-12T07:20:25Z</time>
      </trkpt>
      <trkpt lat="39.1986730" lon="-1.4730030">
        <ele>678.4</ele>
        <time>2019-05-12T07:20:26Z</time>
      </trkpt>
      <trkpt lat="39.1986350" lon="-1.4729980">
        <ele>678.2</ele>
        <time>2019-05-12T07:20:27Z</time>
      </trkpt>
      <trkpt lat="39.1985920" lon="-1.4729850">
        <ele>678.0</ele>
        <time>2019-05-12T07:20:28Z</time>
      </trkpt>
      <trkpt lat="39.1985420" lon="-1.4729630">
        <ele>677.4</ele>
        <time>2019-05-12T07:20:29Z</time>
      </trkpt>
      <trkpt lat="39.1984900" lon="-1.4729250">
        <ele>676.8</ele>
        <time>2019-05-12T07:20:30Z</time>
      </trkpt>
      <trkpt lat="39.1984350" lon="-1.4728760">
        <ele>676.2</ele>
        <time>2019-05-12T07:20:31Z</time>
      </trkpt>
      <trkpt lat="39.1983800" lon="-1.4728230">
        <ele>675.4</ele>
        <time>2019-05-12T07:20:32Z</time>
      </trkpt>
      <trkpt lat="39.1983230" lon="-1.4727740">
        <ele>674.8</ele>
        <time>2019-05-12T07:20:33Z</time>
      </trkpt>
      <trkpt lat="39.1982680" lon="-1.4727270">
        <ele>674.2</ele>
        <time>2019-05-12T07:20:34Z</time>
      </trkpt>
      <trkpt lat="39.1982090" lon="-1.4726830">
        <ele>674.0</ele>
        <time>2019-05-12T07:20:35Z</time>
      </trkpt>
      <trkpt lat="39.1981450" lon="-1.4726380">
        <ele>673.6</ele>
        <time>2019-05-12T07:20:36Z</time>
      </trkpt>
      <trkpt lat="39.1980810" lon="-1.4725930">
        <ele>673.2</ele>
        <time>2019-05-12T07:20:37Z</time>
      </trkpt>
      <trkpt lat="39.1980210" lon="-1.4725500">
        <ele>672.6</ele>
        <time>2019-05-12T07:20:38Z</time>
      </trkpt>
      <trkpt lat="39.1979650" lon="-1.4725100">
        <ele>672.2</ele>
        <time>2019-05-12T07:20:39Z</time>
      </trkpt>
      <trkpt lat="39.1979100" lon="-1.4724870">
        <ele>672.0</ele>
        <time>2019-05-12T07:20:40Z</time>
      </trkpt>
      <trkpt lat="39.1978550" lon="-1.4724940">
        <ele>671.8</ele>
        <time>2019-05-12T07:20:41Z</time>
      </trkpt>
      <trkpt lat="39.1978010" lon="-1.4725240">
        <ele>671.6</ele>
        <time>2019-05-12T07:20:42Z</time>
      </trkpt>
      <trkpt lat="39.1977470" lon="-1.4725650">
        <ele>671.4</ele>
        <time>2019-05-12T07:20:43Z</time>
      </trkpt>
      <trkpt lat="39.1976890" lon="-1.4726080">
        <ele>671.6</ele>
        <time>2019-05-12T07:20:44Z</time>
      </trkpt>
      <trkpt lat="39.1976240" lon="-1.4726490">
        <ele>671.2</ele>
        <time>2019-05-12T07:20:45Z</time>
      </trkpt>
      <trkpt lat="39.1975520" lon="-1.4726890">
        <ele>671.2</ele>
        <time>2019-05-12T07:20:46Z</time>
      </trkpt>
      <trkpt lat="39.1974750" lon="-1.4727220">
        <ele>671.4</ele>
        <time>2019-05-12T07:20:47Z</time>
      </trkpt>
      <trkpt lat="39.1973920" lon="-1.4727490">
        <ele>671.4</ele>
        <time>2019-05-12T07:20:48Z</time>
      </trkpt>
      <trkpt lat="39.1973090" lon="-1.4727740">
        <ele>671.4</ele>
        <time>2019-05-12T07:20:49Z</time>
      </trkpt>
      <trkpt lat="39.1972270" lon="-1.4728010">
        <ele>671.4</ele>
        <time>2019-05-12T07:20:50Z</time>
      </trkpt>
      <trkpt lat="39.1971490" lon="-1.4728270">
        <ele>671.4</ele>
        <time>2019-05-12T07:20:51Z</time>
      </trkpt>
      <trkpt lat="39.1970690" lon="-1.4728460">
        <ele>671.4</ele>
        <time>2019-05-12T07:20:52Z</time>
      </trkpt>
      <trkpt lat="39.1969870" lon="-1.4728550">
        <ele>671.4</ele>
        <time>2019-05-12T07:20:53Z</time>
      </trkpt>
      <trkpt lat="39.1969090" lon="-1.4728520">
        <ele>671.4</ele>
        <time>2019-05-12T07:20:54Z</time>
      </trkpt>
      <trkpt lat="39.1968380" lon="-1.4728410">
        <ele>671.0</ele>
        <time>2019-05-12T07:20:55Z</time>
      </trkpt>
      <trkpt lat="39.1967690" lon="-1.4728410">
        <ele>670.6</ele>
        <time>2019-05-12T07:20:56Z</time>
      </trkpt>
      <trkpt lat="39.1967020" lon="-1.4728620">
        <ele>670.0</ele>
        <time>2019-05-12T07:20:57Z</time>
      </trkpt>
      <trkpt lat="39.1966410" lon="-1.4728990">
        <ele>669.0</ele>
        <time>2019-05-12T07:20:58Z</time>
      </trkpt>
      <trkpt lat="39.1965880" lon="-1.4729340">
        <ele>668.0</ele>
        <time>2019-05-12T07:20:59Z</time>
      </trkpt>
      <trkpt lat="39.1965450" lon="-1.4729610">
        <ele>666.4</ele>
        <time>2019-05-12T07:21:00Z</time>
      </trkpt>
      <trkpt lat="39.1965050" lon="-1.4729790">
        <ele>665.4</ele>
        <time>2019-05-12T07:21:01Z</time>
      </trkpt>
      <trkpt lat="39.1964600" lon="-1.4729850">
        <ele>664.4</ele>
        <time>2019-05-12T07:21:02Z</time>
      </trkpt>
      <trkpt lat="39.1964110" lon="-1.4729750">
        <ele>663.4</ele>
        <time>2019-05-12T07:21:03Z</time>
      </trkpt>
      <trkpt lat="39.1963650" lon="-1.4729550">
        <ele>662.4</ele>
        <time>2019-05-12T07:21:04Z</time>
      </trkpt>
      <trkpt lat="39.1963220" lon="-1.4729280">
        <ele>661.8</ele>
        <time>2019-05-12T07:21:05Z</time>
      </trkpt>
      <trkpt lat="39.1962830" lon="-1.4728940">
        <ele>661.2</ele>
        <time>2019-05-12T07:21:06Z</time>
      </trkpt>
      <trkpt lat="39.1962480" lon="-1.4728580">
        <ele>660.8</ele>
        <time>2019-05-12T07:21:07Z</time>
      </trkpt>
      <trkpt lat="39.1962170" lon="-1.4728320">
        <ele>660.0</ele>
        <time>2019-05-12T07:21:08Z</time>
      </trkpt>
      <trkpt lat="39.1961890" lon="-1.4728170">
        <ele>659.2</ele>
        <time>2019-05-12T07:21:09Z</time>
      </trkpt>
      <trkpt lat="39.1961560" lon="-1.4728050">
        <ele>658.6</ele>
        <time>2019-05-12T07:21:10Z</time>
      </trkpt>
      <trkpt lat="39.1961120" lon="-1.4728010">
        <ele>658.2</ele>
        <time>2019-05-12T07:21:11Z</time>
      </trkpt>
      <trkpt lat="39.1960580" lon="-1.4728060">
        <ele>657.8</ele>
        <time>2019-05-12T07:21:12Z</time>
      </trkpt>
      <trkpt lat="39.1959970" lon="-1.4728170">
        <ele>657.2</ele>
        <time>2019-05-12T07:21:13Z</time>
      </trkpt>
      <trkpt lat="39.1959400" lon="-1.4728290">
        <ele>657.0</ele>
        <time>2019-05-12T07:21:14Z</time>
      </trkpt>
      <trkpt lat="39.1958980" lon="-1.4728360">
        <ele>656.6</ele>
        <time>2019-05-12T07:21:15Z</time>
      </trkpt>
      <trkpt lat="39.1958670" lon="-1.4728400">
        <ele>655.8</ele>
        <time>2019-05-12T07:21:16Z</time>
      </trkpt>
      <trkpt lat="39.1958440" lon="-1.4728430">
        <ele>655.2</ele>
        <time>2019-05-12T07:21:17Z</time>
      </trkpt>
      <trkpt lat="39.1958280" lon="-1.4728390">
        <ele>654.6</ele>
        <time>2019-05-12T07:21:18Z</time>
      </trkpt>
      <trkpt lat="39.1958110" lon="-1.4728320">
        <ele>653.8</ele>
        <time>2019-05-12T07:21:19Z</time>
      </trkpt>
      <trkpt lat="39.1957960" lon="-1.4728250">
        <ele>653.2</ele>
        <time>2019-05-12T07:21:20Z</time>
      </trkpt>
      <trkpt lat="39.1957830" lon="-1.4728190">
        <ele>652.4</ele>
        <time>2019-05-12T07:21:21Z</time>
      </trkpt>
      <trkpt lat="39.1957700" lon="-1.4728140">
        <ele>651.6</ele>
        <time>2019-05-12T07:21:22Z</time>
      </trkpt>
      <trkpt lat="39.1957570" lon="-1.4728100">
        <ele>650.6</ele>
        <time>2019-05-12T07:21:23Z</time>
      </trkpt>
      <trkpt lat="39.1957400" lon="-1.4728090">
        <ele>649.8</ele>
        <time>2019-05-12T07:21:24Z</time>
      </trkpt>
      <trkpt lat="39.1957220" lon="-1.4728160">
        <ele>649.2</ele>
        <time>2019-05-12T07:21:25Z</time>
      </trkpt>
      <trkpt lat="39.1957080" lon="-1.4728340">
        <ele>648.8</ele>
        <time>2019-05-12T07:21:26Z</time>
      </trkpt>
      <trkpt lat="39.1957030" lon="-1.4728580">
        <ele>648.4</ele>
        <time>2019-05-12T07:21:27Z</time>
      </trkpt>
      <trkpt lat="39.1957130" lon="-1.4728820">
        <ele>648.2</ele>
        <time>2019-05-12T07:21:28Z</time>
      </trkpt>
      <trkpt lat="39.1957340" lon="-1.4729100">
        <ele>648.0</ele>
        <time>2019-05-12T07:21:29Z</time>
      </trkpt>
      <trkpt lat="39.1957640" lon="-1.4729440">
        <ele>647.4</ele>
        <time>2019-05-12T07:21:30Z</time>
      </trkpt>
      <trkpt lat="39.1958020" lon="-1.4729810">
        <ele>647.0</ele>
        <time>2019-05-12T07:21:31Z</time>
      </trkpt>
      <trkpt lat="39.1958420" lon="-1.4730250">
        <ele>647.0</ele>
        <time>2019-05-12T07:21:32Z</time>
      </trkpt>
      <trkpt lat="39.1958800" lon="-1.4730760">
        <ele>646.8</ele>
        <time>2019-05-12T07:21:33Z</time>
      </trkpt>
      <trkpt lat="39.1959200" lon="-1.4731300">
        <ele>646.6</ele>
        <time>2019-05-12T07:21:34Z</time>
      </trkpt>
      <trkpt lat="39.1959630" lon="-1.4731820">
        <ele>646.0</ele>
        <time>2019-05-12T07:21:35Z</time>
      </trkpt>
      <trkpt lat="39.1960100" lon="-1.4732280">
        <ele>645.8</ele>
        <time>2019-05-12T07:21:36Z</time>
      </trkpt>
      <trkpt lat="39.1960590" lon="-1.4732640">
        <ele>645.6</ele>
        <time>2019-05-12T07:21:37Z</time>
      </trkpt>
      <trkpt lat="39.1961100" lon="-1.4732930">
        <ele>645.2</ele>
        <time>2019-05-12T07:21:38Z</time>
      </trkpt>
      <trkpt lat="39.1961620" lon="-1.4733170">
        <ele>645.0</ele>
        <time>2019-05-12T07:21:39Z</time>
      </trkpt>
      <trkpt lat="39.1962150" lon="-1.4733330">
        <ele>645.0</ele>
        <time>2019-05-12T07:21:40Z</time>
      </trkpt>
      <trkpt lat="39.1962690" lon="-1.4733450">
        <ele>645.0</ele>
        <time>2019-05-12T07:21:41Z</time>
      </trkpt>
      <trkpt lat="39.1963220" lon="-1.4733530">
        <ele>644.8</ele>
        <time>2019-05-12T07:21:42Z</time>
      </trkpt>
      <trkpt lat="39.1963760" lon="-1.4733550">
        <ele>644.8</ele>
        <time>2019-05-12T07:21:43Z</time>
      </trkpt>
      <trkpt lat="39.1964290" lon="-1.4733520">
        <ele>644.8</ele>
        <time>2019-05-12T07:21:44Z</time>
      </trkpt>
      <trkpt lat="39.1964810" lon="-1.4733390">
        <ele>644.8</ele>
        <time>2019-05-12T07:21:45Z</time>
      </trkpt>
      <trkpt lat="39.1965320" lon="-1.4733160">
        <ele>644.8</ele>
        <time>2019-05-12T07:21:46Z</time>
      </trkpt>
      <trkpt lat="39.1965810" lon="-1.4732900">
        <ele>644.8</ele>
        <time>2019-05-12T07:21:47Z</time>
      </trkpt>
      <trkpt lat="39.1966310" lon="-1.4732620">
        <ele>644.8</ele>
        <time>2019-05-12T07:21:48Z</time>
      </trkpt>
      <trkpt lat="39.1966790" lon="-1.4732350">
        <ele>645.0</ele>
        <time>2019-05-12T07:21:49Z</time>
      </trkpt>
      <trkpt lat="39.1967240" lon="-1.4732130">
        <ele>645.4</ele>
        <time>2019-05-12T07:21:50Z</time>
      </trkpt>
      <trkpt lat="39.1967660" lon="-1.4732040">
        <ele>645.6</ele>
        <time>2019-05-12T07:21:51Z</time>
      </trkpt>
      <trkpt lat="39.1968060" lon="-1.4732090">
        <ele>646.0</ele>
        <time>2019-05-12T07:21:52Z</time>
      </trkpt>
      <trkpt lat="39.1968390" lon="-1.4732230">
        <ele>646.2</ele>
        <time>2019-05-12T07:21:53Z</time>
      </trkpt>
      <trkpt lat="39.1968660" lon="-1.4732430">
        <ele>646.8</ele>
        <time>2019-05-12T07:21:54Z</time>
      </trkpt>
      <trkpt lat="39.1968830" lon="-1.4732730">
        <ele>647.2</ele>
        <time>2019-05-12T07:21:55Z</time>
      </trkpt>
      <trkpt lat="39.1968830" lon="-1.4733150">
        <ele>647.6</ele>
        <time>2019-05-12T07:21:56Z</time>
      </trkpt>
      <trkpt lat="39.1968650" lon="-1.4733580">
        <ele>647.6</ele>
        <time>2019-05-12T07:21:57Z</time>
      </trkpt>
      <trkpt lat="39.1968320" lon="-1.4733910">
        <ele>647.6</ele>
        <time>2019-05-12T07:21:58Z</time>
      </trkpt>
      <trkpt lat="39.1967910" lon="-1.4734200">
        <ele>647.8</ele>
        <time>2019-05-12T07:21:59Z</time>
      </trkpt>
      <trkpt lat="39.1967490" lon="-1.4734570">
        <ele>647.8</ele>
        <time>2019-05-12T07:22:00Z</time>
      </trkpt>
      <trkpt lat="39.1967070" lon="-1.4735010">
        <ele>647.8</ele>
        <time>2019-05-12T07:22:01Z</time>
      </trkpt>
      <trkpt lat="39.1966630" lon="-1.4735550">
        <ele>647.8</ele>
        <time>2019-05-12T07:22:02Z</time>
      </trkpt>
      <trkpt lat="39.1966150" lon="-1.4736140">
        <ele>647.8</ele>
        <time>2019-05-12T07:22:03Z</time>
      </trkpt>
      <trkpt lat="39.1965620" lon="-1.4736720">
        <ele>647.8</ele>
        <time>2019-05-12T07:22:04Z</time>
      </trkpt>
      <trkpt lat="39.1965000" lon="-1.4737140">
        <ele>647.6</ele>
        <time>2019-05-12T07:22:05Z</time>
      </trkpt>
      <trkpt lat="39.1964390" lon="-1.4737350">
        <ele>647.4</ele>
        <time>2019-05-12T07:22:06Z</time>
      </trkpt>
      <trkpt lat="39.1963790" lon="-1.4737480">
        <ele>647.2</ele>
        <time>2019-05-12T07:22:07Z</time>
      </trkpt>
      <trkpt lat="39.1963150" lon="-1.4737540">
        <ele>647.2</ele>
        <time>2019-05-12T07:22:08Z</time>
      </trkpt>
      <trkpt lat="39.1962430" lon="-1.4737540">
        <ele>647.0</ele>
        <time>2019-05-12T07:22:09Z</time>
      </trkpt>
      <trkpt lat="39.1961680" lon="-1.4737470">
        <ele>647.0</ele>
        <time>2019-05-12T07:22:10Z</time>
      </trkpt>
      <trkpt lat="39.1960890" lon="-1.4737350">
        <ele>646.8</ele>
        <time>2019-05-12T07:22:11Z</time>
      </trkpt>
      <trkpt lat="39.1960050" lon="-1.4737140">
        <ele>646.8</ele>
        <time>2019-05-12T07:22:12Z</time>
      </trkpt>
      <trkpt lat="39.1959190" lon="-1.4736820">
        <ele>646.6</ele>
        <time>2019-05-12T07:22:13Z</time>
      </trkpt>
      <trkpt lat="39.1958340" lon="-1.4736390">
        <ele>646.6</ele>
        <time>2019-05-12T07:22:14Z</time>
      </trkpt>
      <trkpt lat="39.1957470" lon="-1.4735860">
        <ele>646.6</ele>
        <time>2019-05-12T07:22:15Z</time>
      </trkpt>
      <trkpt lat="39.1956580" lon="-1.4735300">
        <ele>646.4</ele>
        <time>2019-05-12T07:22:16Z</time>
      </trkpt>
      <trkpt lat="39.1955630" lon="-1.4734810">
        <ele>646.2</ele>
        <time>2019-05-12T07:22:17Z</time>
      </trkpt>
      <trkpt lat="39.1954640" lon="-1.4734390">
        <ele>646.0</ele>
        <time>2019-05-12T07:22:18Z</time>
      </trkpt>
      <trkpt lat="39.1953620" lon="-1.4734000">
        <ele>646.0</ele>
        <time>2019-05-12T07:22:19Z</time>
      </trkpt>
      <trkpt lat="39.1952590" lon="-1.4733600">
        <ele>645.6</ele>
        <time>2019-05-12T07:22:20Z</time>
      </trkpt>
      <trkpt lat="39.1951540" lon="-1.4733210">
        <ele>645.0</ele>
        <time>2019-05-12T07:22:21Z</time>
      </trkpt>
      <trkpt lat="39.1950480" lon="-1.4732820">
        <ele>644.6</ele>
        <time>2019-05-12T07:22:22Z</time>
      </trkpt>
      <trkpt lat="39.1949420" lon="-1.4732460">
        <ele>644.0</ele>
        <time>2019-05-12T07:22:23Z</time>
      </trkpt>
      <trkpt lat="39.1948360" lon="-1.4732120">
        <ele>643.4</ele>
        <time>2019-05-12T07:22:24Z</time>
      </trkpt>
      <trkpt lat="39.1947330" lon="-1.4731690">
        <ele>642.6</ele>
        <time>2019-05-12T07:22:25Z</time>
      </trkpt>
      <trkpt lat="39.1946340" lon="-1.4731140">
        <ele>641.8</ele>
        <time>2019-05-12T07:22:26Z</time>
      </trkpt>
      <trkpt lat="39.1945420" lon="-1.4730450">
        <ele>641.2</ele>
        <time>2019-05-12T07:22:27Z</time>
      </trkpt>
      <trkpt lat="39.1944580" lon="-1.4729640">
        <ele>640.6</ele>
        <time>2019-05-12T07:22:28Z</time>
      </trkpt>
      <trkpt lat="39.1943810" lon="-1.4728720">
        <ele>640.2</ele>
        <time>2019-05-12T07:22:29Z</time>
      </trkpt>
      <trkpt lat="39.1943110" lon="-1.4727710">
        <ele>639.4</ele>
        <time>2019-05-12T07:22:30Z</time>
      </trkpt>
      <trkpt lat="39.1942460" lon="-1.4726650">
        <ele>638.8</ele>
        <time>2019-05-12T07:22:31Z</time>
      </trkpt>
      <trkpt lat="39.1941880" lon="-1.4725540">
        <ele>638.6</ele>
        <time>2019-05-12T07:22:32Z</time>
      </trkpt>
      <trkpt lat="39.1941410" lon="-1.4724360">
        <ele>638.2</ele>
        <time>2019-05-12T07:22:33Z</time>
      </trkpt>
      <trkpt lat="39.1941060" lon="-1.4723140">
        <ele>637.8</ele>
        <time>2019-05-12T07:22:34Z</time>
      </trkpt>
      <trkpt lat="39.1940770" lon="-1.4721930">
        <ele>637.4</ele>
        <time>2019-05-12T07:22:35Z</time>
      </trkpt>
      <trkpt lat="39.1940470" lon="-1.4720770">
        <ele>637.0</ele>
        <time>2019-05-12T07:22:36Z</time>
      </trkpt>
      <trkpt lat="39.1940100" lon="-1.4719670">
        <ele>636.8</ele>
        <time>2019-05-12T07:22:37Z</time>
      </trkpt>
      <trkpt lat="39.1939650" lon="-1.4718620">
        <ele>636.6</ele>
        <time>2019-05-12T07:22:38Z</time>
      </trkpt>
      <trkpt lat="39.1939140" lon="-1.4717620">
        <ele>636.4</ele>
        <time>2019-05-12T07:22:39Z</time>
      </trkpt>
      <trkpt lat="39.1938570" lon="-1.4716630">
        <ele>636.2</ele>
        <time>2019-05-12T07:22:40Z</time>
      </trkpt>
      <trkpt lat="39.1937980" lon="-1.4715630">
        <ele>636.2</ele>
        <time>2019-05-12T07:22:41Z</time>
      </trkpt>
      <trkpt lat="39.1937380" lon="-1.4714630">
        <ele>636.0</ele>
        <time>2019-05-12T07:22:42Z</time>
      </trkpt>
      <trkpt lat="39.1936780" lon="-1.4713630">
        <ele>636.0</ele>
        <time>2019-05-12T07:22:43Z</time>
      </trkpt>
      <trkpt lat="39.1936200" lon="-1.4712660">
        <ele>636.0</ele>
        <time>2019-05-12T07:22:44Z</time>
      </trkpt>
      <trkpt lat="39.1935650" lon="-1.4711790">
        <ele>635.8</ele>
        <time>2019-05-12T07:22:45Z</time>
      </trkpt>
      <trkpt lat="39.1935130" lon="-1.4711120">
        <ele>635.8</ele>
        <time>2019-05-12T07:22:46Z</time>
      </trkpt>
      <trkpt lat="39.1934630" lon="-1.4710670">
        <ele>635.6</ele>
        <time>2019-05-12T07:22:47Z</time>
      </trkpt>
      <trkpt lat="39.1934220" lon="-1.4710440">
        <ele>635.4</ele>
        <time>2019-05-12T07:22:48Z</time>
      </trkpt>
      <trkpt lat="39.1933830" lon="-1.4710460">
        <ele>635.4</ele>
        <time>2019-05-12T07:22:49Z</time>
      </trkpt>
      <trkpt lat="39.1933420" lon="-1.4710670">
        <ele>635.0</ele>
        <time>2019-05-12T07:22:50Z</time>
      </trkpt>
      <trkpt lat="39.1933020" lon="-1.4711040">
        <ele>634.6</ele>
        <time>2019-05-12T07:22:51Z</time>
      </trkpt>
      <trkpt lat="39.1932610" lon="-1.4711530">
        <ele>634.2</ele>
        <time>2019-05-12T07:22:52Z</time>
      </trkpt>
      <trkpt lat="39.1932190" lon="-1.4712100">
        <ele>633.8</ele>
        <time>2019-05-12T07:22:53Z</time>
      </trkpt>
      <trkpt lat="39.1931760" lon="-1.4712740">
        <ele>633.4</ele>
        <time>2019-05-12T07:22:54Z</time>
      </trkpt>
      <trkpt lat="39.1931370" lon="-1.4713350">
        <ele>633.0</ele>
        <time>2019-05-12T07:22:55Z</time>
      </trkpt>
      <trkpt lat="39.1931010" lon="-1.4713820">
        <ele>632.2</ele>
        <time>2019-05-12T07:22:56Z</time>
      </trkpt>
      <trkpt lat="39.1930700" lon="-1.4714090">
        <ele>631.4</ele>
        <time>2019-05-12T07:22:57Z</time>
      </trkpt>
      <trkpt lat="39.1930430" lon="-1.4714170">
        <ele>631.0</ele>
        <time>2019-05-12T07:22:58Z</time>
      </trkpt>
      <trkpt lat="39.1930190" lon="-1.4714100">
        <ele>630.4</ele>
        <time>2019-05-12T07:22:59Z</time>
      </trkpt>
      <trkpt lat="39.1929990" lon="-1.4713850">
        <ele>629.8</ele>
        <time>2019-05-12T07:23:00Z</time>
      </trkpt>
      <trkpt lat="39.1929820" lon="-1.4713450">
        <ele>629.2</ele>
        <time>2019-05-12T07:23:01Z</time>
      </trkpt>
      <trkpt lat="39.1929690" lon="-1.4712950">
        <ele>628.6</ele>
        <time>2019-05-12T07:23:02Z</time>
      </trkpt>
      <trkpt lat="39.1929580" lon="-1.4712390">
        <ele>628.0</ele>
        <time>2019-05-12T07:23:03Z</time>
      </trkpt>
      <trkpt lat="39.1929440" lon="-1.4711780">
        <ele>627.2</ele>
        <time>2019-05-12T07:23:04Z</time>
      </trkpt>
      <trkpt lat="39.1929300" lon="-1.4711170">
        <ele>626.2</ele>
        <time>2019-05-12T07:23:05Z</time>
      </trkpt>
      <trkpt lat="39.1929170" lon="-1.4710590">
        <ele>625.4</ele>
        <time>2019-05-12T07:23:06Z</time>
      </trkpt>
      <trkpt lat="39.1929050" lon="-1.4710010">
        <ele>624.8</ele>
        <time>2019-05-12T07:23:07Z</time>
      </trkpt>
      <trkpt lat="39.1929000" lon="-1.4709370">
        <ele>624.2</ele>
        <time>2019-05-12T07:23:08Z</time>
      </trkpt>
      <trkpt lat="39.1929040" lon="-1.4708690">
        <ele>623.8</ele>
        <time>2019-05-12T07:23:09Z</time>
      </trkpt>
      <trkpt lat="39.1929150" lon="-1.4708040">
        <ele>623.4</ele>
        <time>2019-05-12T07:23:10Z</time>
      </trkpt>
      <trkpt lat="39.1929320" lon="-1.4707470">
        <ele>623.0</ele>
        <time>2019-05-12T07:23:11Z</time>
      </trkpt>
      <trkpt lat="39.1929520" lon="-1.4706940">
        <ele>622.8</ele>
        <time>2019-05-12T07:23:12Z</time>
      </trkpt>
      <trkpt lat="39.1929740" lon="-1.4706440">
        <ele>622.2</ele>
        <time>2019-05-12T07:23:13Z</time>
      </trkpt>
      <trkpt lat="39.1929980" lon="-1.4706010">
        <ele>620.2</ele>
        <time>2019-05-12T07:23:14Z</time>
      </trkpt>
      <trkpt lat="39.1930170" lon="-1.4705590">
        <ele>619.4</ele>
        <time>2019-05-12T07:23:15Z</time>
      </trkpt>
      <trkpt lat="39.1930250" lon="-1.4705160">
        <ele>618.4</ele>
        <time>2019-05-12T07:23:16Z</time>
      </trkpt>
      <trkpt lat="39.1930190" lon="-1.4704720">
        <ele>617.8</ele>
        <time>2019-05-12T07:23:17Z</time>
      </trkpt>
      <trkpt lat="39.1929970" lon="-1.4704350">
        <ele>617.2</ele>
        <time>2019-05-12T07:23:18Z</time>
      </trkpt>
      <trkpt lat="39.1929630" lon="-1.4704140">
        <ele>616.8</ele>
        <time>2019-05-12T07:23:19Z</time>
      </trkpt>
      <trkpt lat="39.1929210" lon="-1.4704140">
        <ele>616.6</ele>
        <time>2019-05-12T07:23:20Z</time>
      </trkpt>
      <trkpt lat="39.1928730" lon="-1.4704340">
        <ele>616.2</ele>
        <time>2019-05-12T07:23:21Z</time>
      </trkpt>
      <trkpt lat="39.1928260" lon="-1.4704770">
        <ele>616.0</ele>
        <time>2019-05-12T07:23:22Z</time>
      </trkpt>
      <trkpt lat="39.1927830" lon="-1.4705370">
        <ele>615.6</ele>
        <time>2019-05-12T07:23:23Z</time>
      </trkpt>
      <trkpt lat="39.1927460" lon="-1.4706110">
        <ele>615.2</ele>
        <time>2019-05-12T07:23:24Z</time>
      </trkpt>
      <trkpt lat="39.1927100" lon="-1.4706900">
        <ele>614.8</ele>
        <time>2019-05-12T07:23:25Z</time>
      </trkpt>
      <trkpt lat="39.1926750" lon="-1.4707730">
        <ele>614.2</ele>
        <time>2019-05-12T07:23:26Z</time>
      </trkpt>
      <trkpt lat="39.1926420" lon="-1.4708590">
        <ele>613.6</ele>
        <time>2019-05-12T07:23:27Z</time>
      </trkpt>
      <trkpt lat="39.1926130" lon="-1.4709450">
        <ele>613.0</ele>
        <time>2019-05-12T07:23:28Z</time>
      </trkpt>
      <trkpt lat="39.1925900" lon="-1.4710220">
        <ele>612.6</ele>
        <time>2019-05-12T07:23:29Z</time>
      </trkpt>
      <trkpt lat="39.1925700" lon="-1.4710770">
        <ele>612.2</ele>
        <time>2019-05-12T07:23:30Z</time>
      </trkpt>
      <trkpt lat="39.1925530" lon="-1.4711090">
        <ele>611.8</ele>
        <time>2019-05-12T07:23:31Z</time>
      </trkpt>
      <trkpt lat="39.1925320" lon="-1.4711280">
        <ele>611.8</ele>
        <time>2019-05-12T07:23:32Z</time>
      </trkpt>
      <trkpt lat="39.1925070" lon="-1.4711360">
        <ele>611.6</ele>
        <time>2019-05-12T07:23:33Z</time>
      </trkpt>
      <trkpt lat="39.1924820" lon="-1.4711330">
        <ele>611.4</ele>
        <time>2019-05-12T07:23:34Z</time>
      </trkpt>
      <trkpt lat="39.1924600" lon="-1.4711120">
        <ele>611.4</ele>
        <time>2019-05-12T07:23:35Z</time>
      </trkpt>
      <trkpt lat="39.1924370" lon="-1.4710740">
        <ele>611.2</ele>
        <time>2019-05-12T07:23:36Z</time>
      </trkpt>
      <trkpt lat="39.1924160" lon="-1.4710200">
        <ele>611.0</ele>
        <time>2019-05-12T07:23:37Z</time>
      </trkpt>
      <trkpt lat="39.1924020" lon="-1.4709560">
        <ele>610.6</ele>
        <time>2019-05-12T07:23:38Z</time>
      </trkpt>
      <trkpt lat="39.1923880" lon="-1.4708890">
        <ele>610.2</ele>
        <time>2019-05-12T07:23:39Z</time>
      </trkpt>
      <trkpt lat="39.1923700" lon="-1.4708170">
        <ele>609.8</ele>
        <time>2019-05-12T07:23:40Z</time>
      </trkpt>
      <trkpt lat="39.1923530" lon="-1.4707400">
        <ele>609.4</ele>
        <time>2019-05-12T07:23:41Z</time>
      </trkpt>
      <trkpt lat="39.1923420" lon="-1.4706580">
        <ele>608.8</ele>
        <time>2019-05-12T07:23:42Z</time>
      </trkpt>
      <trkpt lat="39.1923340" lon="-1.4705700">
        <ele>608.4</ele>
        <time>2019-05-12T07:23:43Z</time>
      </trkpt>
      <trkpt lat="39.1923270" lon="-1.4704810">
        <ele>607.8</ele>
        <time>2019-05-12T07:23:44Z</time>
      </trkpt>
      <trkpt lat="39.1923190" lon="-1.4703900">
        <ele>607.4</ele>
        <time>2019-05-12T07:23:45Z</time>
      </trkpt>
      <trkpt lat="39.1923000" lon="-1.4702970">
        <ele>607.0</ele>
        <time>2019-05-12T07:23:46Z</time>
      </trkpt>
      <trkpt lat="39.1922670" lon="-1.4702050">
        <ele>606.6</ele>
        <time>2019-05-12T07:23:47Z</time>
      </trkpt>
      <trkpt lat="39.1922280" lon="-1.4701160">
        <ele>606.0</ele>
        <time>2019-05-12T07:23:48Z</time>
      </trkpt>
      <trkpt lat="39.1921900" lon="-1.4700420">
        <ele>604.8</ele>
        <time>2019-05-12T07:23:49Z</time>
      </trkpt>
      <trkpt lat="39.1921500" lon="-1.4699840">
        <ele>604.2</ele>
        <time>2019-05-12T07:23:50Z</time>
      </trkpt>
      <trkpt lat="39.1921000" lon="-1.4699420">
        <ele>603.8</ele>
        <time>2019-05-12T07:23:51Z</time>
      </trkpt>
      <trkpt lat="39.1920410" lon="-1.4699090">
        <ele>603.6</ele>
        <time>2019-05-12T07:23:52Z</time>
      </trkpt>
      <trkpt lat="39.1919800" lon="-1.4698900">
        <ele>602.8</ele>
        <time>2019-05-12T07:23:53Z</time>
      </trkpt>
      <trkpt lat="39.1919240" lon="-1.4698840">
        <ele>602.0</ele>
        <time>2019-05-12T07:23:54Z</time>
      </trkpt>
      <trkpt lat="39.1918700" lon="-1.4698840">
        <ele>601.4</ele>
        <time>2019-05-12T07:23:55Z</time>
      </trkpt>
      <trkpt lat="39.1918110" lon="-1.4698860">
        <ele>600.4</ele>
        <time>2019-05-12T07:23:56Z</time>
      </trkpt>
      <trkpt lat="39.1917480" lon="-1.4699010">
        <ele>599.8</ele>
        <time>2019-05-12T07:23:57Z</time>
      </trkpt>
      <trkpt lat="39.1916840" lon="-1.4699310">
        <ele>599.0</ele>
        <time>2019-05-12T07:23:58Z</time>
      </trkpt>
      <trkpt lat="39.1916210" lon="-1.4699680">
        <ele>598.6</ele>
        <time>2019-05-12T07:23:59Z</time>
      </trkpt>
      <trkpt lat="39.1915580" lon="-1.4700060">
        <ele>598.0</ele>
        <time>2019-05-12T07:24:00Z</time>
      </trkpt>
      <trkpt lat="39.1914970" lon="-1.4700560">
        <ele>597.4</ele>
        <time>2019-05-12T07:24:01Z</time>
      </trkpt>
      <trkpt lat="39.1914340" lon="-1.4701210">
        <ele>596.8</ele>
        <time>2019-05-12T07:24:02Z</time>
      </trkpt>
      <trkpt lat="39.1913740" lon="-1.4701890">
        <ele>596.2</ele>
        <time>2019-05-12T07:24:03Z</time>
      </trkpt>
      <trkpt lat="39.1913240" lon="-1.4702510">
        <ele>595.8</ele>
        <time>2019-05-12T07:24:04Z</time>
      </trkpt>
      <trkpt lat="39.1912800" lon="-1.4703040">
        <ele>595.2</ele>
        <time>2019-05-12T07:24:05Z</time>
      </trkpt>
      <trkpt lat="39.1912410" lon="-1.4703450">
        <ele>594.6</ele>
        <time>2019-05-12T07:24:06Z</time>
      </trkpt>
      <trkpt lat="39.1912030" lon="-1.4703680">
        <ele>593.8</ele>
        <time>2019-05-12T07:24:07Z</time>
      </trkpt>
      <trkpt lat="39.1911650" lon="-1.4703750">
        <ele>593.2</ele>
        <time>2019-05-12T07:24:08Z</time>
      </trkpt>
      <trkpt lat="39.1911280" lon="-1.4703670">
        <ele>592.6</ele>
        <time>2019-05-12T07:24:09Z</time>
      </trkpt>
      <trkpt lat="39.1911000" lon="-1.4703400">
        <ele>591.6</ele>
        <time>2019-05-12T07:24:10Z</time>
      </trkpt>
      <trkpt lat="39.1910800" lon="-1.4702920">
        <ele>590.6</ele>
        <time>2019-05-12T07:24:11Z</time>
      </trkpt>
      <trkpt lat="39.1910740" lon="-1.4702270">
        <ele>589.4</ele>
        <time>2019-05-12T07:24:12Z</time>
      </trkpt>
      <trkpt lat="39.1910810" lon="-1.4701530">
        <ele>588.2</ele>
        <time>2019-05-12T07:24:13Z</time>
      </trkpt>
      <trkpt lat="39.1910950" lon="-1.4700720">
        <ele>587.0</ele>
        <time>2019-05-12T07:24:14Z</time>
      </trkpt>
      <trkpt lat="39.1911130" lon="-1.4699830">
        <ele>586.0</ele>
        <time>2019-05-12T07:24:15Z</time>
      </trkpt>
      <trkpt lat="39.1911310" lon="-1.4698960">
        <ele>585.4</ele>
        <time>2019-05-12T07:24:16Z</time>
      </trkpt>
      <trkpt lat="39.1911530" lon="-1.4698170">
        <ele>584.4</ele>
        <time>2019-05-12T07:24:17Z</time>
      </trkpt>
      <trkpt lat="39.1911730" lon="-1.4697390">
        <ele>583.8</ele>
        <time>2019-05-12T07:24:18Z</time>
      </trkpt>
      <trkpt lat="39.1911910" lon="-1.4696530">
        <ele>583.2</ele>
        <time>2019-05-12T07:24:19Z</time>
      </trkpt>
      <trkpt lat="39.1912140" lon="-1.4695660">
        <ele>582.8</ele>
        <time>2019-05-12T07:24:20Z</time>
      </trkpt>
      <trkpt lat="39.1912420" lon="-1.4694820">
        <ele>582.2</ele>
        <time>2019-05-12T07:24:21Z</time>
      </trkpt>
      <trkpt lat="39.1912740" lon="-1.4694050">
        <ele>581.4</ele>
        <time>2019-05-12T07:24:22Z</time>
      </trkpt>
      <trkpt lat="39.1913100" lon="-1.4693390">
        <ele>580.8</ele>
        <time>2019-05-12T07:24:23Z</time>
      </trkpt>
      <trkpt lat="39.1913500" lon="-1.4692810">
        <ele>580.0</ele>
        <time>2019-05-12T07:24:24Z</time>
      </trkpt>
      <trkpt lat="39.1913920" lon="-1.4692320">
        <ele>579.0</ele>
        <time>2019-05-12T07:24:25Z</time>
      </trkpt>
      <trkpt lat="39.1914280" lon="-1.4691950">
        <ele>578.0</ele>
        <time>2019-05-12T07:24:26Z</time>
      </trkpt>
      <trkpt lat="39.1914540" lon="-1.4691620">
        <ele>577.4</ele>
        <time>2019-05-12T07:24:27Z</time>
      </trkpt>
      <trkpt lat="39.1914680" lon="-1.4691340">
        <ele>576.6</ele>
        <time>2019-05-12T07:24:28Z</time>
      </trkpt>
      <trkpt lat="39.1914730" lon="-1.4691040">
        <ele>575.8</ele>
        <time>2019-05-12T07:24:29Z</time>
      </trkpt>
      <trkpt lat="39.1914670" lon="-1.4690750">
        <ele>575.0</ele>
        <time>2019-05-12T07:24:30Z</time>
      </trkpt>
      <trkpt lat="39.1914510" lon="-1.4690510">
        <ele>574.0</ele>
        <time>2019-05-12T07:24:31Z</time>
      </trkpt>
      <trkpt lat="39.1914290" lon="-1.4690360">
        <ele>573.4</ele>
        <time>2019-05-12T07:24:32Z</time>
      </trkpt>
      <trkpt lat="39.1913970" lon="-1.4690310">
        <ele>573.0</ele>
        <time>2019-05-12T07:24:33Z</time>
      </trkpt>
      <trkpt lat="39.1913530" lon="-1.4690350">
        <ele>572.4</ele>
        <time>2019-05-12T07:24:34Z</time>
      </trkpt>
      <trkpt lat="39.1913000" lon="-1.4690460">
        <ele>571.6</ele>
        <time>2019-05-12T07:24:35Z</time>
      </trkpt>
      <trkpt lat="39.1912370" lon="-1.4690660">
        <ele>571.0</ele>
        <time>2019-05-12T07:24:36Z</time>
      </trkpt>
      <trkpt lat="39.1911660" lon="-1.4690950">
        <ele>570.6</ele>
        <time>2019-05-12T07:24:37Z</time>
      </trkpt>
      <trkpt lat="39.1910950" lon="-1.4691320">
        <ele>570.0</ele>
        <time>2019-05-12T07:24:38Z</time>
      </trkpt>
      <trkpt lat="39.1910250" lon="-1.4691740">
        <ele>569.4</ele>
        <time>2019-05-12T07:24:39Z</time>
      </trkpt>
      <trkpt lat="39.1909590" lon="-1.4692120">
        <ele>568.8</ele>
        <time>2019-05-12T07:24:40Z</time>
      </trkpt>
      <trkpt lat="39.1908990" lon="-1.4692380">
        <ele>568.2</ele>
        <time>2019-05-12T07:24:41Z</time>
      </trkpt>
      <trkpt lat="39.1908460" lon="-1.4692430">
        <ele>567.6</ele>
        <time>2019-05-12T07:24:42Z</time>
      </trkpt>
      <trkpt lat="39.1907990" lon="-1.4692180">
        <ele>567.2</ele>
        <time>2019-05-12T07:24:43Z</time>
      </trkpt>
      <trkpt lat="39.1907620" lon="-1.4691640">
        <ele>566.8</ele>
        <time>2019-05-12T07:24:44Z</time>
      </trkpt>
      <trkpt lat="39.1907410" lon="-1.4690900">
        <ele>566.4</ele>
        <time>2019-05-12T07:24:45Z</time>
      </trkpt>
      <trkpt lat="39.1907360" lon="-1.4690060">
        <ele>566.4</ele>
        <time>2019-05-12T07:24:46Z</time>
      </trkpt>
      <trkpt lat="39.1907440" lon="-1.4689200">
        <ele>566.0</ele>
        <time>2019-05-12T07:24:47Z</time>
      </trkpt>
      <trkpt lat="39.1907680" lon="-1.4688340">
        <ele>565.4</ele>
        <time>2019-05-12T07:24:48Z</time>
      </trkpt>
      <trkpt lat="39.1908080" lon="-1.4687470">
        <ele>564.8</ele>
        <time>2019-05-12T07:24:49Z</time>
      </trkpt>
      <trkpt lat="39.1908590" lon="-1.4686640">
        <ele>564.2</ele>
        <time>2019-05-12T07:24:50Z</time>
      </trkpt>
      <trkpt lat="39.1909050" lon="-1.4685760">
        <ele>563.6</ele>
        <time>2019-05-12T07:24:51Z</time>
      </trkpt>
      <trkpt lat="39.1909370" lon="-1.4684820">
        <ele>563.0</ele>
        <time>2019-05-12T07:24:52Z</time>
      </trkpt>
      <trkpt lat="39.1909640" lon="-1.4683870">
        <ele>562.2</ele>
        <time>2019-05-12T07:24:53Z</time>
      </trkpt>
      <trkpt lat="39.1909900" lon="-1.4682850">
        <ele>561.4</ele>
        <time>2019-05-12T07:24:54Z</time>
      </trkpt>
      <trkpt lat="39.1910190" lon="-1.4681770">
        <ele>561.0</ele>
        <time>2019-05-12T07:24:55Z</time>
      </trkpt>
      <trkpt lat="39.1910510" lon="-1.4680690">
        <ele>560.4</ele>
        <time>2019-05-12T07:24:56Z</time>
      </trkpt>
      <trkpt lat="39.1910920" lon="-1.4679670">
        <ele>559.8</ele>
        <time>2019-05-12T07:24:57Z</time>
      </trkpt>
      <trkpt lat="39.1911450" lon="-1.4678670">
        <ele>558.6</ele>
        <time>2019-05-12T07:24:58Z</time>
      </trkpt>
      <trkpt lat="39.1912140" lon="-1.4677740">
        <ele>558.2</ele>
        <time>2019-05-12T07:24:59Z</time>
      </trkpt>
      <trkpt lat="39.1912950" lon="-1.4676840">
        <ele>557.8</ele>
        <time>2019-05-12T07:25:00Z</time>
      </trkpt>
      <trkpt lat="39.1913780" lon="-1.4675960">
        <ele>557.6</ele>
        <time>2019-05-12T07:25:01Z</time>
      </trkpt>
      <trkpt lat="39.1914610" lon="-1.4675260">
        <ele>557.4</ele>
        <time>2019-05-12T07:25:02Z</time>
      </trkpt>
      <trkpt lat="39.1915400" lon="-1.4674760">
        <ele>556.6</ele>
        <time>2019-05-12T07:25:03Z</time>
      </trkpt>
      <trkpt lat="39.1916200" lon="-1.4674410">
        <ele>555.6</ele>
        <time>2019-05-12T07:25:04Z</time>
      </trkpt>
      <trkpt lat="39.1917010" lon="-1.4674200">
        <ele>554.6</ele>
        <time>2019-05-12T07:25:05Z</time>
      </trkpt>
      <trkpt lat="39.1917910" lon="-1.4674020">
        <ele>553.2</ele>
        <time>2019-05-12T07:25:06Z</time>
      </trkpt>
      <trkpt lat="39.1918860" lon="-1.4673830">
        <ele>552.0</ele>
        <time>2019-05-12T07:25:07Z</time>
      </trkpt>
      <trkpt lat="39.1919850" lon="-1.4673670">
        <ele>550.4</ele>
        <time>2019-05-12T07:25:08Z</time>
      </trkpt>
      <trkpt lat="39.1920840" lon="-1.4673490">
        <ele>549.0</ele>
        <time>2019-05-12T07:25:09Z</time>
      </trkpt>
      <trkpt lat="39.1921800" lon="-1.4673340">
        <ele>547.6</ele>
        <time>2019-05-12T07:25:10Z</time>
      </trkpt>
      <trkpt lat="39.1922770" lon="-1.4673340">
        <ele>546.6</ele>
        <time>2019-05-12T07:25:11Z</time>
      </trkpt>
      <trkpt lat="39.1923740" lon="-1.4673470">
        <ele>545.6</ele>
        <time>2019-05-12T07:25:12Z</time>
      </trkpt>
      <trkpt lat="39.1924710" lon="-1.4673630">
        <ele>544.8</ele>
        <time>2019-05-12T07:25:13Z</time>
      </trkpt>
      <trkpt lat="39.1925670" lon="-1.4673790">
        <ele>544.0</ele>
        <time>2019-05-12T07:25:14Z</time>
      </trkpt>
      <trkpt lat="39.1926620" lon="-1.4673990">
        <ele>543.2</ele>
        <time>2019-05-12T07:25:15Z</time>
      </trkpt>
      <trkpt lat="39.1927580" lon="-1.4674190">
        <ele>542.2</ele>
        <time>2019-05-12T07:25:16Z</time>
      </trkpt>
      <trkpt lat="39.1928540" lon="-1.4674350">
        <ele>541.4</ele>
        <time>2019-05-12T07:25:17Z</time>
      </trkpt>
      <trkpt lat="39.1929520" lon="-1.4674390">
        <ele>540.6</ele>
        <time>2019-05-12T07:25:18Z</time>
      </trkpt>
      <trkpt lat="39.1930490" lon="-1.4674280">
        <ele>540.2</ele>
        <time>2019-05-12T07:25:19Z</time>
      </trkpt>
      <trkpt lat="39.1931470" lon="-1.4674030">
        <ele>540.0</ele>
        <time>2019-05-12T07:25:20Z</time>
      </trkpt>
      <trkpt lat="39.1932440" lon="-1.4673740">
        <ele>539.8</ele>
        <time>2019-05-12T07:25:21Z</time>
      </trkpt>
      <trkpt lat="39.1933430" lon="-1.4673490">
        <ele>539.6</ele>
        <time>2019-05-12T07:25:22Z</time>
      </trkpt>
      <trkpt lat="39.1934400" lon="-1.4673410">
        <ele>539.6</ele>
        <time>2019-05-12T07:25:23Z</time>
      </trkpt>
      <trkpt lat="39.1935370" lon="-1.4673450">
        <ele>539.6</ele>
        <time>2019-05-12T07:25:24Z</time>
      </trkpt>
      <trkpt lat="39.1936310" lon="-1.4673480">
        <ele>539.4</ele>
        <time>2019-05-12T07:25:25Z</time>
      </trkpt>
      <trkpt lat="39.1937220" lon="-1.4673520">
        <ele>539.2</ele>
        <time>2019-05-12T07:25:26Z</time>
      </trkpt>
      <trkpt lat="39.1938080" lon="-1.4673550">
        <ele>539.0</ele>
        <time>2019-05-12T07:25:27Z</time>
      </trkpt>
      <trkpt lat="39.1938880" lon="-1.4673440">
        <ele>539.0</ele>
        <time>2019-05-12T07:25:28Z</time>
      </trkpt>
      <trkpt lat="39.1939600" lon="-1.4673200">
        <ele>538.8</ele>
        <time>2019-05-12T07:25:29Z</time>
      </trkpt>
      <trkpt lat="39.1940230" lon="-1.4672880">
        <ele>538.8</ele>
        <time>2019-05-12T07:25:30Z</time>
      </trkpt>
      <trkpt lat="39.1940790" lon="-1.4672530">
        <ele>538.8</ele>
        <time>2019-05-12T07:25:31Z</time>
      </trkpt>
      <trkpt lat="39.1941360" lon="-1.4672240">
        <ele>538.8</ele>
        <time>2019-05-12T07:25:32Z</time>
      </trkpt>
      <trkpt lat="39.1941960" lon="-1.4672000">
        <ele>538.8</ele>
        <time>2019-05-12T07:25:33Z</time>
      </trkpt>
      <trkpt lat="39.1942550" lon="-1.4671760">
        <ele>538.8</ele>
        <time>2019-05-12T07:25:34Z</time>
      </trkpt>
      <trkpt lat="39.1943120" lon="-1.4671470">
        <ele>538.8</ele>
        <time>2019-05-12T07:25:35Z</time>
      </trkpt>
      <trkpt lat="39.1943700" lon="-1.4671190">
        <ele>538.8</ele>
        <time>2019-05-12T07:25:36Z</time>
      </trkpt>
      <trkpt lat="39.1944270" lon="-1.4670870">
        <ele>539.0</ele>
        <time>2019-05-12T07:25:37Z</time>
      </trkpt>
      <trkpt lat="39.1944830" lon="-1.4670570">
        <ele>539.4</ele>
        <time>2019-05-12T07:25:38Z</time>
      </trkpt>
      <trkpt lat="39.1945390" lon="-1.4670240">
        <ele>539.6</ele>
        <time>2019-05-12T07:25:39Z</time>
      </trkpt>
      <trkpt lat="39.1945950" lon="-1.4669920">
        <ele>539.8</ele>
        <time>2019-05-12T07:25:40Z</time>
      </trkpt>
      <trkpt lat="39.1946550" lon="-1.4669580">
        <ele>540.0</ele>
        <time>2019-05-12T07:25:41Z</time>
      </trkpt>
      <trkpt lat="39.1947180" lon="-1.4669180">
        <ele>540.2</ele>
        <time>2019-05-12T07:25:42Z</time>
      </trkpt>
      <trkpt lat="39.1947790" lon="-1.4668760">
        <ele>540.2</ele>
        <time>2019-05-12T07:25:43Z</time>
      </trkpt>
      <trkpt lat="39.1948400" lon="-1.4668280">
        <ele>540.4</ele>
        <time>2019-05-12T07:25:44Z</time>
      </trkpt>
      <trkpt lat="39.1949040" lon="-1.4667770">
        <ele>540.6</ele>
        <time>2019-05-12T07:25:45Z</time>
      </trkpt>
      <trkpt lat="39.1949700" lon="-1.4667250">
        <ele>540.8</ele>
        <time>2019-05-12T07:25:46Z</time>
      </trkpt>
      <trkpt lat="39.1950400" lon="-1.4666640">
        <ele>541.0</ele>
        <time>2019-05-12T07:25:47Z</time>
      </trkpt>
      <trkpt lat="39.1951090" lon="-1.4665960">
        <ele>541.0</ele>
        <time>2019-05-12T07:25:48Z</time>
      </trkpt>
      <trkpt lat="39.1951760" lon="-1.4665220">
        <ele>541.0</ele>
        <time>2019-05-12T07:25:49Z</time>
      </trkpt>
      <trkpt lat="39.1952440" lon="-1.4664530">
        <ele>541.0</ele>
        <time>2019-05-12T07:25:50Z</time>
      </trkpt>
      <trkpt lat="39.1953090" lon="-1.4663770">
        <ele>541.2</ele>
        <time>2019-05-12T07:25:51Z</time>
      </trkpt>
      <trkpt lat="39.1953640" lon="-1.4663040">
        <ele>541.2</ele>
        <time>2019-05-12T07:25:52Z</time>
      </trkpt>
      <trkpt lat="39.1954100" lon="-1.4662220">
        <ele>541.2</ele>
        <time>2019-05-12T07:25:53Z</time>
      </trkpt>
      <trkpt lat="39.1954550" lon="-1.4661370">
        <ele>541.2</ele>
        <time>2019-05-12T07:25:54Z</time>
      </trkpt>
      <trkpt lat="39.1955010" lon="-1.4660500">
        <ele>541.2</ele>
        <time>2019-05-12T07:25:55Z</time>
      </trkpt>
      <trkpt lat="39.1955460" lon="-1.4659660">
        <ele>540.8</ele>
        <time>2019-05-12T07:25:56Z</time>
      </trkpt>
      <trkpt lat="39.1955910" lon="-1.4658820">
        <ele>540.6</ele>
        <time>2019-05-12T07:25:57Z</time>
      </trkpt>
      <trkpt lat="39.1956380" lon="-1.4657950">
        <ele>540.4</ele>
        <time>2019-05-12T07:25:58Z</time>
      </trkpt>
      <trkpt lat="39.1956830" lon="-1.4657060">
        <ele>540.4</ele>
        <time>2019-05-12T07:25:59Z</time>
      </trkpt>
      <trkpt lat="39.1957240" lon="-1.4656160">
        <ele>540.4</ele>
        <time>2019-05-12T07:26:00Z</time>
      </trkpt>
      <trkpt lat="39.1957640" lon="-1.4655170">
        <ele>540.2</ele>
        <time>2019-05-12T07:26:01Z</time>
      </trkpt>
      <trkpt lat="39.1958000" lon="-1.4654160">
        <ele>540.2</ele>
        <time>2019-05-12T07:26:02Z</time>
      </trkpt>
      <trkpt lat="39.1958340" lon="-1.4653130">
        <ele>540.2</ele>
        <time>2019-05-12T07:26:03Z</time>
      </trkpt>
      <trkpt lat="39.1958630" lon="-1.4652100">
        <ele>540.2</ele>
        <time>2019-05-12T07:26:04Z</time>
      </trkpt>
      <trkpt lat="39.1958910" lon="-1.4651060">
        <ele>540.0</ele>
        <time>2019-05-12T07:26:05Z</time>
      </trkpt>
      <trkpt lat="39.1959280" lon="-1.4650080">
        <ele>540.0</ele>
        <time>2019-05-12T07:26:06Z</time>
      </trkpt>
      <trkpt lat="39.1959720" lon="-1.4649180">
        <ele>539.8</ele>
        <time>2019-05-12T07:26:07Z</time>
      </trkpt>
      <trkpt lat="39.1960200" lon="-1.4648360">
        <ele>539.8</ele>
        <time>2019-05-12T07:26:08Z</time>
      </trkpt>
      <trkpt lat="39.1960720" lon="-1.4647670">
        <ele>539.8</ele>
        <time>2019-05-12T07:26:09Z</time>
      </trkpt>
      <trkpt lat="39.1961300" lon="-1.4647020">
        <ele>539.8</ele>
        <time>2019-05-12T07:26:10Z</time>
      </trkpt>
      <trkpt lat="39.1961840" lon="-1.4646230">
        <ele>539.8</ele>
        <time>2019-05-12T07:26:11Z</time>
      </trkpt>
      <trkpt lat="39.1962240" lon="-1.4645360">
        <ele>539.8</ele>
        <time>2019-05-12T07:26:12Z</time>
      </trkpt>
      <trkpt lat="39.1962550" lon="-1.4644420">
        <ele>539.6</ele>
        <time>2019-05-12T07:26:13Z</time>
      </trkpt>
      <trkpt lat="39.1962780" lon="-1.4643470">
        <ele>539.6</ele>
        <time>2019-05-12T07:26:14Z</time>
      </trkpt>
      <trkpt lat="39.1962900" lon="-1.4642490">
        <ele>539.6</ele>
        <time>2019-05-12T07:26:15Z</time>
      </trkpt>
      <trkpt lat="39.1963040" lon="-1.4641630">
        <ele>539.6</ele>
        <time>2019-05-12T07:26:16Z</time>
      </trkpt>
      <trkpt lat="39.1963120" lon="-1.4640840">
        <ele>539.6</ele>
        <time>2019-05-12T07:26:17Z</time>
      </trkpt>
      <trkpt lat="39.1963350" lon="-1.4640120">
        <ele>539.6</ele>
        <time>2019-05-12T07:26:18Z</time>
      </trkpt>
      <trkpt lat="39.1963550" lon="-1.4639390">
        <ele>539.6</ele>
        <time>2019-05-12T07:26:19Z</time>
      </trkpt>
      <trkpt lat="39.1963790" lon="-1.4638620">
        <ele>539.6</ele>
        <time>2019-05-12T07:26:20Z</time>
      </trkpt>
      <trkpt lat="39.1964080" lon="-1.4637810">
        <ele>539.6</ele>
        <time>2019-05-12T07:26:21Z</time>
      </trkpt>
      <trkpt lat="39.1964320" lon="-1.4636920">
        <ele>539.8</ele>
        <time>2019-05-12T07:26:22Z</time>
      </trkpt>
      <trkpt lat="39.1964490" lon="-1.4635980">
        <ele>539.8</ele>
        <time>2019-05-12T07:26:23Z</time>
      </trkpt>
      <trkpt lat="39.1964560" lon="-1.4635010">
        <ele>540.0</ele>
        <time>2019-05-12T07:26:24Z</time>
      </trkpt>
      <trkpt lat="39.1964620" lon="-1.4633990">
        <ele>540.2</ele>
        <time>2019-05-12T07:26:25Z</time>
      </trkpt>
      <trkpt lat="39.1964720" lon="-1.4632920">
        <ele>540.2</ele>
        <time>2019-05-12T07:26:26Z</time>
      </trkpt>
      <trkpt lat="39.1964740" lon="-1.4631870">
        <ele>540.2</ele>
        <time>2019-05-12T07:26:27Z</time>
      </trkpt>
      <trkpt lat="39.1964800" lon="-1.4630770">
        <ele>540.2</ele>
        <time>2019-05-12T07:26:28Z</time>
      </trkpt>
      <trkpt lat="39.1964770" lon="-1.4629670">
        <ele>540.2</ele>
        <time>2019-05-12T07:26:29Z</time>
      </trkpt>
      <trkpt lat="39.1964820" lon="-1.4628610">
        <ele>540.2</ele>
        <time>2019-05-12T07:26:30Z</time>
      </trkpt>
      <trkpt lat="39.1964990" lon="-1.4627580">
        <ele>540.2</ele>
        <time>2019-05-12T07:26:31Z</time>
      </trkpt>
      <trkpt lat="39.1965140" lon="-1.4626560">
        <ele>540.2</ele>
        <time>2019-05-12T07:26:32Z</time>
      </trkpt>
      <trkpt lat="39.1965140" lon="-1.4625540">
        <ele>540.2</ele>
        <time>2019-05-12T07:26:33Z</time>
      </trkpt>
      <trkpt lat="39.1964930" lon="-1.4624640">
        <ele>540.2</ele>
        <time>2019-05-12T07:26:34Z</time>
      </trkpt>
      <trkpt lat="39.1964630" lon="-1.4623750">
        <ele>540.2</ele>
        <time>2019-05-12T07:26:35Z</time>
      </trkpt>
      <trkpt lat="39.1964300" lon="-1.4622800">
        <ele>539.8</ele>
        <time>2019-05-12T07:26:36Z</time>
      </trkpt>
      <trkpt lat="39.1963950" lon="-1.4621860">
        <ele>539.6</ele>
        <time>2019-05-12T07:26:37Z</time>
      </trkpt>
      <trkpt lat="39.1963630" lon="-1.4620850">
        <ele>539.4</ele>
        <time>2019-05-12T07:26:38Z</time>
      </trkpt>
      <trkpt lat="39.1963290" lon="-1.4619780">
        <ele>539.4</ele>
        <time>2019-05-12T07:26:39Z</time>
      </trkpt>
      <trkpt lat="39.1963070" lon="-1.4618670">
        <ele>539.2</ele>
        <time>2019-05-12T07:26:40Z</time>
      </trkpt>
      <trkpt lat="39.1962840" lon="-1.4617550">
        <ele>539.2</ele>
        <time>2019-05-12T07:26:41Z</time>
      </trkpt>
      <trkpt lat="39.1962550" lon="-1.4616450">
        <ele>539.2</ele>
        <time>2019-05-12T07:26:42Z</time>
      </trkpt>
      <trkpt lat="39.1962180" lon="-1.4615410">
        <ele>539.0</ele>
        <time>2019-05-12T07:26:43Z</time>
      </trkpt>
      <trkpt lat="39.1961810" lon="-1.4614370">
        <ele>539.0</ele>
        <time>2019-05-12T07:26:44Z</time>
      </trkpt>
      <trkpt lat="39.1961490" lon="-1.4613360">
        <ele>538.8</ele>
        <time>2019-05-12T07:26:45Z</time>
      </trkpt>
      <trkpt lat="39.1961020" lon="-1.4612520">
        <ele>538.8</ele>
        <time>2019-05-12T07:26:46Z</time>
      </trkpt>
      <trkpt lat="39.1960570" lon="-1.4611770">
        <ele>538.6</ele>
        <time>2019-05-12T07:26:47Z</time>
      </trkpt>
      <trkpt lat="39.1960180" lon="-1.4611070">
        <ele>538.6</ele>
        <time>2019-05-12T07:26:48Z</time>
      </trkpt>
      <trkpt lat="39.1959840" lon="-1.4610400">
        <ele>538.6</ele>
        <time>2019-05-12T07:26:49Z</time>
      </trkpt>
      <trkpt lat="39.1959480" lon="-1.4609720">
        <ele>538.6</ele>
        <time>2019-05-12T07:26:50Z</time>
      </trkpt>
      <trkpt lat="39.1959110" lon="-1.4609010">
        <ele>538.6</ele>
        <time>2019-05-12T07:26:51Z</time>
      </trkpt>
      <trkpt lat="39.1958720" lon="-1.4608270">
        <ele>538.6</ele>
        <time>2019-05-12T07:26:52Z</time>
      </trkpt>
      <trkpt lat="39.1958270" lon="-1.4607550">
        <ele>538.6</ele>
        <time>2019-05-12T07:26:53Z</time>
      </trkpt>
      <trkpt lat="39.1957830" lon="-1.4606790">
        <ele>538.6</ele>
        <time>2019-05-12T07:26:54Z</time>
      </trkpt>
      <trkpt lat="39.1957410" lon="-1.4605980">
        <ele>538.6</ele>
        <time>2019-05-12T07:26:55Z</time>
      </trkpt>
      <trkpt lat="39.1956920" lon="-1.4605170">
        <ele>538.6</ele>
        <time>2019-05-12T07:26:56Z</time>
      </trkpt>
      <trkpt lat="39.1956430" lon="-1.4604360">
        <ele>538.8</ele>
        <time>2019-05-12T07:26:57Z</time>
      </trkpt>
      <trkpt lat="39.1955940" lon="-1.4603530">
        <ele>538.8</ele>
        <time>2019-05-12T07:26:58Z</time>
      </trkpt>
      <trkpt lat="39.1955430" lon="-1.4602710">
        <ele>538.8</ele>
        <time>2019-05-12T07:26:59Z</time>
      </trkpt>
      <trkpt lat="39.1954880" lon="-1.4602010">
        <ele>538.8</ele>
        <time>2019-05-12T07:27:00Z</time>
      </trkpt>
      <trkpt lat="39.1954320" lon="-1.4601290">
        <ele>538.8</ele>
        <time>2019-05-12T07:27:01Z</time>
      </trkpt>
      <trkpt lat="39.1953810" lon="-1.4600580">
        <ele>538.8</ele>
        <time>2019-05-12T07:27:02Z</time>
      </trkpt>
      <trkpt lat="39.1953350" lon="-1.4599820">
        <ele>538.8</ele>
        <time>2019-05-12T07:27:03Z</time>
      </trkpt>
      <trkpt lat="39.1952830" lon="-1.4599090">
        <ele>538.8</ele>
        <time>2019-05-12T07:27:04Z</time>
      </trkpt>
      <trkpt lat="39.1952340" lon="-1.4598360">
        <ele>538.8</ele>
        <time>2019-05-12T07:27:05Z</time>
      </trkpt>
      <trkpt lat="39.1951890" lon="-1.4597630">
        <ele>538.8</ele>
        <time>2019-05-12T07:27:06Z</time>
      </trkpt>
      <trkpt lat="39.1951410" lon="-1.4596910">
        <ele>538.8</ele>
        <time>2019-05-12T07:27:07Z</time>
      </trkpt>
      <trkpt lat="39.1950950" lon="-1.4596220">
        <ele>539.0</ele>
        <time>2019-05-12T07:27:08Z</time>
      </trkpt>
      <trkpt lat="39.1950430" lon="-1.4595540">
        <ele>539.0</ele>
        <time>2019-05-12T07:27:09Z</time>
      </trkpt>
      <trkpt lat="39.1949980" lon="-1.4594840">
        <ele>539.0</ele>
        <time>2019-05-12T07:27:10Z</time>
      </trkpt>
      <trkpt lat="39.1949470" lon="-1.4594170">
        <ele>539.0</ele>
        <time>2019-05-12T07:27:11Z</time>
      </trkpt>
      <trkpt lat="39.1948950" lon="-1.4593510">
        <ele>539.0</ele>
        <time>2019-05-12T07:27:12Z</time>
      </trkpt>
      <trkpt lat="39.1948410" lon="-1.4592860">
        <ele>539.0</ele>
        <time>2019-05-12T07:27:13Z</time>
      </trkpt>
      <trkpt lat="39.1947880" lon="-1.4592200">
        <ele>539.0</ele>
        <time>2019-05-12T07:27:14Z</time>
      </trkpt>
      <trkpt lat="39.1947320" lon="-1.4591580">
        <ele>539.0</ele>
        <time>2019-05-12T07:27:15Z</time>
      </trkpt>
      <trkpt lat="39.1946750" lon="-1.4591000">
        <ele>539.0</ele>
        <time>2019-05-12T07:27:16Z</time>
      </trkpt>
      <trkpt lat="39.1946210" lon="-1.4590370">
        <ele>539.0</ele>
        <time>2019-05-12T07:27:17Z</time>
      </trkpt>
      <trkpt lat="39.1945640" lon="-1.4589740">
        <ele>539.2</ele>
        <time>2019-05-12T07:27:18Z</time>
      </trkpt>
      <trkpt lat="39.1945060" lon="-1.4589120">
        <ele>539.2</ele>
        <time>2019-05-12T07:27:19Z</time>
      </trkpt>
      <trkpt lat="39.1944440" lon="-1.4588480">
        <ele>539.2</ele>
        <time>2019-05-12T07:27:20Z</time>
      </trkpt>
      <trkpt lat="39.1943800" lon="-1.4587870">
        <ele>539.2</ele>
        <time>2019-05-12T07:27:21Z</time>
      </trkpt>
      <trkpt lat="39.1943160" lon="-1.4587240">
        <ele>539.2</ele>
        <time>2019-05-12T07:27:22Z</time>
      </trkpt>
      <trkpt lat="39.1942570" lon="-1.4586570">
        <ele>539.2</ele>
        <time>2019-05-12T07:27:23Z</time>
      </trkpt>
      <trkpt lat="39.1942000" lon="-1.4585880">
        <ele>539.2</ele>
        <time>2019-05-12T07:27:24Z</time>
      </trkpt>
      <trkpt lat="39.1941470" lon="-1.4585190">
        <ele>539.2</ele>
        <time>2019-05-12T07:27:25Z</time>
      </trkpt>
      <trkpt lat="39.1940990" lon="-1.4584490">
        <ele>539.4</ele>
        <time>2019-05-12T07:27:26Z</time>
      </trkpt>
      <trkpt lat="39.1940470" lon="-1.4583840">
        <ele>539.4</ele>
        <time>2019-05-12T07:27:27Z</time>
      </trkpt>
      <trkpt lat="39.1939930" lon="-1.4583170">
        <ele>539.4</ele>
        <time>2019-05-12T07:27:28Z</time>
      </trkpt>
      <trkpt lat="39.1939330" lon="-1.4582530">
        <ele>539.4</ele>
        <time>2019-05-12T07:27:29Z</time>
      </trkpt>
      <trkpt lat="39.1938700" lon="-1.4581900">
        <ele>539.4</ele>
        <time>2019-05-12T07:27:30Z</time>
      </trkpt>
      <trkpt lat="39.1938040" lon="-1.4581280">
        <ele>539.4</ele>
        <time>2019-05-12T07:27:31Z</time>
      </trkpt>
      <trkpt lat="39.1937430" lon="-1.4580680">
        <ele>539.4</ele>
        <time>2019-05-12T07:27:32Z</time>
      </trkpt>
      <trkpt lat="39.1936840" lon="-1.4580030">
        <ele>539.4</ele>
        <time>2019-05-12T07:27:33Z</time>
      </trkpt>
      <trkpt lat="39.1936350" lon="-1.4579300">
        <ele>539.4</ele>
        <time>2019-05-12T07:27:34Z</time>
      </trkpt>
      <trkpt lat="39.1935840" lon="-1.4578610">
        <ele>539.4</ele>
        <time>2019-05-12T07:27:35Z</time>
      </trkpt>
      <trkpt lat="39.1935320" lon="-1.4577960">
        <ele>539.4</ele>
        <time>2019-05-12T07:27:36Z</time>
      </trkpt>
      <trkpt lat="39.1934790" lon="-1.4577350">
        <ele>539.4</ele>
        <time>2019-05-12T07:27:37Z</time>
      </trkpt>
      <trkpt lat="39.1934230" lon="-1.4576770">
        <ele>539.4</ele>
        <time>2019-05-12T07:27:38Z</time>
      </trkpt>
      <trkpt lat="39.1933660" lon="-1.4576210">
        <ele>539.4</ele>
        <time>2019-05-12T07:27:39Z</time>
      </trkpt>
      <trkpt lat="39.1933060" lon="-1.4575710">
        <ele>539.4</ele>
        <time>2019-05-12T07:27:40Z</time>
      </trkpt>
      <trkpt lat="39.1932440" lon="-1.4575230">
        <ele>539.4</ele>
        <time>2019-05-12T07:27:41Z</time>
      </trkpt>
      <trkpt lat="39.1931800" lon="-1.4574770">
        <ele>539.6</ele>
        <time>2019-05-12T07:27:42Z</time>
      </trkpt>
      <trkpt lat="39.1931140" lon="-1.4574340">
        <ele>539.6</ele>
        <time>2019-05-12T07:27:43Z</time>
      </trkpt>
      <trkpt lat="39.1930480" lon="-1.4573880">
        <ele>539.8</ele>
        <time>2019-05-12T07:27:44Z</time>
      </trkpt>
      <trkpt lat="39.1929810" lon="-1.4573430">
        <ele>539.8</ele>
        <time>2019-05-12T07:27:45Z</time>
      </trkpt>
      <trkpt lat="39.1929130" lon="-1.4572990">
        <ele>540.0</ele>
        <time>2019-05-12T07:27:46Z</time>
      </trkpt>
      <trkpt lat="39.1928430" lon="-1.4572570">
        <ele>540.2</ele>
        <time>2019-05-12T07:27:47Z</time>
      </trkpt>
      <trkpt lat="39.1927730" lon="-1.4572190">
        <ele>540.2</ele>
        <time>2019-05-12T07:27:48Z</time>
      </trkpt>
      <trkpt lat="39.1927020" lon="-1.4571810">
        <ele>540.4</ele>
        <time>2019-05-12T07:27:49Z</time>
      </trkpt>
      <trkpt lat="39.1926300" lon="-1.4571440">
        <ele>540.6</ele>
        <time>2019-05-12T07:27:50Z</time>
      </trkpt>
      <trkpt lat="39.1925590" lon="-1.4571020">
        <ele>540.6</ele>
        <time>2019-05-12T07:27:51Z</time>
      </trkpt>
      <trkpt lat="39.1924920" lon="-1.4570500">
        <ele>540.6</ele>
        <time>2019-05-12T07:27:52Z</time>
      </trkpt>
      <trkpt lat="39.1924270" lon="-1.4569860">
        <ele>540.6</ele>
        <time>2019-05-12T07:27:53Z</time>
      </trkpt>
      <trkpt lat="39.1923580" lon="-1.4569240">
        <ele>540.6</ele>
        <time>2019-05-12T07:27:54Z</time>
      </trkpt>
      <trkpt lat="39.1922840" lon="-1.4568700">
        <ele>540.6</ele>
        <time>2019-05-12T07:27:55Z</time>
      </trkpt>
      <trkpt lat="39.1922080" lon="-1.4568180">
        <ele>540.6</ele>
        <time>2019-05-12T07:27:56Z</time>
      </trkpt>
      <trkpt lat="39.1921310" lon="-1.4567620">
        <ele>540.6</ele>
        <time>2019-05-12T07:27:57Z</time>
      </trkpt>
      <trkpt lat="39.1920510" lon="-1.4567070">
        <ele>540.6</ele>
        <time>2019-05-12T07:27:58Z</time>
      </trkpt>
      <trkpt lat="39.1919700" lon="-1.4566500">
        <ele>540.6</ele>
        <time>2019-05-12T07:27:59Z</time>
      </trkpt>
      <trkpt lat="39.1918930" lon="-1.4565930">
        <ele>540.6</ele>
        <time>2019-05-12T07:28:00Z</time>
      </trkpt>
      <trkpt lat="39.1918210" lon="-1.4565300">
        <ele>540.6</ele>
        <time>2019-05-12T07:28:01Z</time>
      </trkpt>
      <trkpt lat="39.1917670" lon="-1.4564460">
        <ele>540.2</ele>
        <time>2019-05-12T07:28:02Z</time>
      </trkpt>
      <trkpt lat="39.1917200" lon="-1.4563640">
        <ele>539.8</ele>
        <time>2019-05-12T07:28:03Z</time>
      </trkpt>
      <trkpt lat="39.1916760" lon="-1.4562820">
        <ele>539.4</ele>
        <time>2019-05-12T07:28:04Z</time>
      </trkpt>
      <trkpt lat="39.1916330" lon="-1.4562000">
        <ele>539.0</ele>
        <time>2019-05-12T07:28:05Z</time>
      </trkpt>
      <trkpt lat="39.1915890" lon="-1.4561200">
        <ele>538.6</ele>
        <time>2019-05-12T07:28:06Z</time>
      </trkpt>
      <trkpt lat="39.1915420" lon="-1.4560440">
        <ele>538.6</ele>
        <time>2019-05-12T07:28:07Z</time>
      </trkpt>
      <trkpt lat="39.1914960" lon="-1.4559670">
        <ele>538.6</ele>
        <time>2019-05-12T07:28:08Z</time>
      </trkpt>
      <trkpt lat="39.1914520" lon="-1.4558890">
        <ele>538.4</ele>
        <time>2019-05-12T07:28:09Z</time>
      </trkpt>
      <trkpt lat="39.1914090" lon="-1.4558100">
        <ele>538.4</ele>
        <time>2019-05-12T07:28:10Z</time>
      </trkpt>
      <trkpt lat="39.1913700" lon="-1.4557290">
        <ele>538.4</ele>
        <time>2019-05-12T07:28:11Z</time>
      </trkpt>
      <trkpt lat="39.1913330" lon="-1.4556480">
        <ele>538.4</ele>
        <time>2019-05-12T07:28:12Z</time>
      </trkpt>
      <trkpt lat="39.1912980" lon="-1.4555690">
        <ele>538.4</ele>
        <time>2019-05-12T07:28:13Z</time>
      </trkpt>
      <trkpt lat="39.1912680" lon="-1.4554880">
        <ele>538.4</ele>
        <time>2019-05-12T07:28:14Z</time>
      </trkpt>
      <trkpt lat="39.1912420" lon="-1.4554040">
        <ele>538.6</ele>
        <time>2019-05-12T07:28:15Z</time>
      </trkpt>
      <trkpt lat="39.1912210" lon="-1.4553190">
        <ele>538.6</ele>
        <time>2019-05-12T07:28:16Z</time>
      </trkpt>
      <trkpt lat="39.1912040" lon="-1.4552270">
        <ele>538.6</ele>
        <time>2019-05-12T07:28:17Z</time>
      </trkpt>
      <trkpt lat="39.1911920" lon="-1.4551320">
        <ele>538.6</ele>
        <time>2019-05-12T07:28:18Z</time>
      </trkpt>
      <trkpt lat="39.1911860" lon="-1.4550350">
        <ele>538.6</ele>
        <time>2019-05-12T07:28:19Z</time>
      </trkpt>
      <trkpt lat="39.1911880" lon="-1.4549360">
        <ele>538.6</ele>
        <time>2019-05-12T07:28:20Z</time>
      </trkpt>
      <trkpt lat="39.1911980" lon="-1.4548340">
        <ele>538.8</ele>
        <time>2019-05-12T07:28:21Z</time>
      </trkpt>
      <trkpt lat="39.1912180" lon="-1.4547330">
        <ele>538.8</ele>
        <time>2019-05-12T07:28:22Z</time>
      </trkpt>
      <trkpt lat="39.1912490" lon="-1.4546320">
        <ele>538.8</ele>
        <time>2019-05-12T07:28:23Z</time>
      </trkpt>
      <trkpt lat="39.1912900" lon="-1.4545340">
        <ele>538.8</ele>
        <time>2019-05-12T07:28:24Z</time>
      </trkpt>
      <trkpt lat="39.1913440" lon="-1.4544460">
        <ele>538.8</ele>
        <time>2019-05-12T07:28:25Z</time>
      </trkpt>
      <trkpt lat="39.1914090" lon="-1.4543720">
        <ele>538.8</ele>
        <time>2019-05-12T07:28:26Z</time>
      </trkpt>
      <trkpt lat="39.1914850" lon="-1.4543160">
        <ele>538.8</ele>
        <time>2019-05-12T07:28:27Z</time>
      </trkpt>
      <trkpt lat="39.1915690" lon="-1.4542800">
        <ele>538.8</ele>
        <time>2019-05-12T07:28:28Z</time>
      </trkpt>
      <trkpt lat="39.1916540" lon="-1.4542660">
        <ele>538.8</ele>
        <time>2019-05-12T07:28:29Z</time>
      </trkpt>
      <trkpt lat="39.1917340" lon="-1.4542740">
        <ele>538.8</ele>
        <time>2019-05-12T07:28:30Z</time>
      </trkpt>
      <trkpt lat="39.1918080" lon="-1.4542990">
        <ele>538.8</ele>
        <time>2019-05-12T07:28:31Z</time>
      </trkpt>
      <trkpt lat="39.1918750" lon="-1.4543410">
        <ele>538.6</ele>
        <time>2019-05-12T07:28:32Z</time>
      </trkpt>
      <trkpt lat="39.1919360" lon="-1.4543910">
        <ele>538.6</ele>
        <time>2019-05-12T07:28:33Z</time>
      </trkpt>
      <trkpt lat="39.1919950" lon="-1.4544400">
        <ele>538.4</ele>
        <time>2019-05-12T07:28:34Z</time>
      </trkpt>
      <trkpt lat="39.1920570" lon="-1.4544730">
        <ele>538.6</ele>
        <time>2019-05-12T07:28:35Z</time>
      </trkpt>
      <trkpt lat="39.1921180" lon="-1.4544710">
        <ele>538.4</ele>
        <time>2019-05-12T07:28:36Z</time>
      </trkpt>
      <trkpt lat="39.1921720" lon="-1.4544360">
        <ele>538.4</ele>
        <time>2019-05-12T07:28:37Z</time>
      </trkpt>
      <trkpt lat="39.1922140" lon="-1.4543850">
        <ele>538.0</ele>
        <time>2019-05-12T07:28:38Z</time>
      </trkpt>
      <trkpt lat="39.1922500" lon="-1.4543300">
        <ele>538.0</ele>
        <time>2019-05-12T07:28:39Z</time>
      </trkpt>
      <trkpt lat="39.1922890" lon="-1.4542800">
        <ele>538.0</ele>
        <time>2019-05-12T07:28:40Z</time>
      </trkpt>
      <trkpt lat="39.1923270" lon="-1.4542400">
        <ele>538.0</ele>
        <time>2019-05-12T07:28:41Z</time>
      </trkpt>
      <trkpt lat="39.1923640" lon="-1.4542080">
        <ele>538.0</ele>
        <time>2019-05-12T07:28:42Z</time>
      </trkpt>
      <trkpt lat="39.1923980" lon="-1.4541830">
        <ele>538.0</ele>
        <time>2019-05-12T07:28:43Z</time>
      </trkpt>
      <trkpt lat="39.1924300" lon="-1.4541610">
        <ele>538.2</ele>
        <time>2019-05-12T07:28:44Z</time>
      </trkpt>
      <trkpt lat="39.1924620" lon="-1.4541430">
        <ele>538.2</ele>
        <time>2019-05-12T07:28:45Z</time>
      </trkpt>
      <trkpt lat="39.1924930" lon="-1.4541300">
        <ele>538.4</ele>
        <time>2019-05-12T07:28:46Z</time>
      </trkpt>
      <trkpt lat="39.1925260" lon="-1.4541160">
        <ele>538.4</ele>
        <time>2019-05-12T07:28:47Z</time>
      </trkpt>
      <trkpt lat="39.1925580" lon="-1.4541060">
        <ele>538.4</ele>
        <time>2019-05-12T07:28:48Z</time>
      </trkpt>
      <trkpt lat="39.1925930" lon="-1.4541000">
        <ele>538.6</ele>
        <time>2019-05-12T07:28:49Z</time>
      </trkpt>
      <trkpt lat="39.1926290" lon="-1.4540930">
        <ele>538.8</ele>
        <time>2019-05-12T07:28:50Z</time>
      </trkpt>
      <trkpt lat="39.1926650" lon="-1.4540840">
        <ele>539.2</ele>
        <time>2019-05-12T07:28:51Z</time>
      </trkpt>
      <trkpt lat="39.1927020" lon="-1.4540750">
        <ele>539.6</ele>
        <time>2019-05-12T07:28:52Z</time>
      </trkpt>
      <trkpt lat="39.1927390" lon="-1.4540630">
        <ele>540.0</ele>
        <time>2019-05-12T07:28:53Z</time>
      </trkpt>
      <trkpt lat="39.1927800" lon="-1.4540470">
        <ele>540.2</ele>
        <time>2019-05-12T07:28:54Z</time>
      </trkpt>
      <trkpt lat="39.1928240" lon="-1.4540250">
        <ele>540.6</ele>
        <time>2019-05-12T07:28:55Z</time>
      </trkpt>
      <trkpt lat="39.1928690" lon="-1.4539970">
        <ele>541.2</ele>
        <time>2019-05-12T07:28:56Z</time>
      </trkpt>
      <trkpt lat="39.1929140" lon="-1.4539670">
        <ele>541.6</ele>
        <time>2019-05-12T07:28:57Z</time>
      </trkpt>
      <trkpt lat="39.1929630" lon="-1.4539320">
        <ele>542.0</ele>
        <time>2019-05-12T07:28:58Z</time>
      </trkpt>
      <trkpt lat="39.1930150" lon="-1.4538940">
        <ele>542.2</ele>
        <time>2019-05-12T07:28:59Z</time>
      </trkpt>
      <trkpt lat="39.1930700" lon="-1.4538540">
        <ele>542.4</ele>
        <time>2019-05-12T07:29:00Z</time>
      </trkpt>
      <trkpt lat="39.1931260" lon="-1.4538090">
        <ele>542.6</ele>
        <time>2019-05-12T07:29:01Z</time>
      </trkpt>
      <trkpt lat="39.1931820" lon="-1.4537600">
        <ele>542.6</ele>
        <time>2019-05-12T07:29:02Z</time>
      </trkpt>
      <trkpt lat="39.1932370" lon="-1.4537080">
        <ele>542.6</ele>
        <time>2019-05-12T07:29:03Z</time>
      </trkpt>
      <trkpt lat="39.1932920" lon="-1.4536510">
        <ele>542.6</ele>
        <time>2019-05-12T07:29:04Z</time>
      </trkpt>
      <trkpt lat="39.1933470" lon="-1.4535900">
        <ele>542.6</ele>
        <time>2019-05-12T07:29:05Z</time>
      </trkpt>
      <trkpt lat="39.1934020" lon="-1.4535290">
        <ele>542.6</ele>
        <time>2019-05-12T07:29:06Z</time>
      </trkpt>
      <trkpt lat="39.1934580" lon="-1.4534660">
        <ele>542.6</ele>
        <time>2019-05-12T07:29:07Z</time>
      </trkpt>
      <trkpt lat="39.1935150" lon="-1.4534050">
        <ele>542.6</ele>
        <time>2019-05-12T07:29:08Z</time>
      </trkpt>
      <trkpt lat="39.1935750" lon="-1.4533430">
        <ele>542.6</ele>
        <time>2019-05-12T07:29:09Z</time>
      </trkpt>
      <trkpt lat="39.1936350" lon="-1.4532830">
        <ele>542.6</ele>
        <time>2019-05-12T07:29:10Z</time>
      </trkpt>
      <trkpt lat="39.1936950" lon="-1.4532210">
        <ele>542.4</ele>
        <time>2019-05-12T07:29:11Z</time>
      </trkpt>
      <trkpt lat="39.1937560" lon="-1.4531560">
        <ele>542.2</ele>
        <time>2019-05-12T07:29:12Z</time>
      </trkpt>
      <trkpt lat="39.1938170" lon="-1.4530930">
        <ele>542.0</ele>
        <time>2019-05-12T07:29:13Z</time>
      </trkpt>
      <trkpt lat="39.1938820" lon="-1.4530390">
        <ele>541.6</ele>
        <time>2019-05-12T07:29:14Z</time>
      </trkpt>
      <trkpt lat="39.1939530" lon="-1.4529990">
        <ele>541.4</ele>
        <time>2019-05-12T07:29:15Z</time>
      </trkpt>
      <trkpt lat="39.1940280" lon="-1.4529630">
        <ele>541.2</ele>
        <time>2019-05-12T07:29:16Z</time>
      </trkpt>
      <trkpt lat="39.1940990" lon="-1.4529140">
        <ele>541.2</ele>
        <time>2019-05-12T07:29:17Z</time>
      </trkpt>
      <trkpt lat="39.1941580" lon="-1.4528490">
        <ele>541.0</ele>
        <time>2019-05-12T07:29:18Z</time>
      </trkpt>
      <trkpt lat="39.1942070" lon="-1.4527770">
        <ele>541.0</ele>
        <time>2019-05-12T07:29:19Z</time>
      </trkpt>
      <trkpt lat="39.1942530" lon="-1.4527070">
        <ele>540.8</ele>
        <time>2019-05-12T07:29:20Z</time>
      </trkpt>
      <trkpt lat="39.1942930" lon="-1.4526360">
        <ele>540.6</ele>
        <time>2019-05-12T07:29:21Z</time>
      </trkpt>
      <trkpt lat="39.1943310" lon="-1.4525660">
        <ele>540.4</ele>
        <time>2019-05-12T07:29:22Z</time>
      </trkpt>
      <trkpt lat="39.1943700" lon="-1.4524970">
        <ele>540.4</ele>
        <time>2019-05-12T07:29:23Z</time>
      </trkpt>
      <trkpt lat="39.1944100" lon="-1.4524300">
        <ele>540.4</ele>
        <time>2019-05-12T07:29:24Z</time>
      </trkpt>
      <trkpt lat="39.1944520" lon="-1.4523630">
        <ele>540.4</ele>
        <time>2019-05-12T07:29:25Z</time>
      </trkpt>
      <trkpt lat="39.1944910" lon="-1.4522940">
        <ele>540.4</ele>
        <time>2019-05-12T07:29:26Z</time>
      </trkpt>
      <trkpt lat="39.1945260" lon="-1.4522260">
        <ele>540.4</ele>
        <time>2019-05-12T07:29:27Z</time>
      </trkpt>
      <trkpt lat="39.1945660" lon="-1.4521540">
        <ele>540.4</ele>
        <time>2019-05-12T07:29:28Z</time>
      </trkpt>
      <trkpt lat="39.1946080" lon="-1.4520780">
        <ele>540.4</ele>
        <time>2019-05-12T07:29:29Z</time>
      </trkpt>
      <trkpt lat="39.1946530" lon="-1.4519960">
        <ele>540.4</ele>
        <time>2019-05-12T07:29:30Z</time>
      </trkpt>
      <trkpt lat="39.1946970" lon="-1.4519080">
        <ele>540.4</ele>
        <time>2019-05-12T07:29:31Z</time>
      </trkpt>
      <trkpt lat="39.1947410" lon="-1.4518170">
        <ele>540.4</ele>
        <time>2019-05-12T07:29:32Z</time>
      </trkpt>
      <trkpt lat="39.1947870" lon="-1.4517320">
        <ele>540.4</ele>
        <time>2019-05-12T07:29:33Z</time>
      </trkpt>
      <trkpt lat="39.1948320" lon="-1.4516440">
        <ele>540.4</ele>
        <time>2019-05-12T07:29:34Z</time>
      </trkpt>
      <trkpt lat="39.1948760" lon="-1.4515560">
        <ele>540.4</ele>
        <time>2019-05-12T07:29:35Z</time>
      </trkpt>
      <trkpt lat="39.1949160" lon="-1.4514710">
        <ele>540.4</ele>
        <time>2019-05-12T07:29:36Z</time>
      </trkpt>
      <trkpt lat="39.1949490" lon="-1.4513860">
        <ele>540.4</ele>
        <time>2019-05-12T07:29:37Z</time>
      </trkpt>
      <trkpt lat="39.1949740" lon="-1.4512960">
        <ele>540.4</ele>
        <time>2019-05-12T07:29:38Z</time>
      </trkpt>
      <trkpt lat="39.1950010" lon="-1.4512000">
        <ele>540.0</ele>
        <time>2019-05-12T07:29:39Z</time>
      </trkpt>
      <trkpt lat="39.1950340" lon="-1.4511070">
        <ele>539.4</ele>
        <time>2019-05-12T07:29:40Z</time>
      </trkpt>
      <trkpt lat="39.1950720" lon="-1.4510160">
        <ele>539.0</ele>
        <time>2019-05-12T07:29:41Z</time>
      </trkpt>
      <trkpt lat="39.1951100" lon="-1.4509220">
        <ele>538.6</ele>
        <time>2019-05-12T07:29:42Z</time>
      </trkpt>
      <trkpt lat="39.1951440" lon="-1.4508240">
        <ele>538.4</ele>
        <time>2019-05-12T07:29:43Z</time>
      </trkpt>
      <trkpt lat="39.1951700" lon="-1.4507250">
        <ele>538.4</ele>
        <time>2019-05-12T07:29:44Z</time>
      </trkpt>
      <trkpt lat="39.1951810" lon="-1.4506250">
        <ele>538.2</ele>
        <time>2019-05-12T07:29:45Z</time>
      </trkpt>
      <trkpt lat="39.1951800" lon="-1.4505270">
        <ele>538.2</ele>
        <time>2019-05-12T07:29:46Z</time>
      </trkpt>
      <trkpt lat="39.1951700" lon="-1.4504240">
        <ele>538.2</ele>
        <time>2019-05-12T07:29:47Z</time>
      </trkpt>
      <trkpt lat="39.1951570" lon="-1.4503190">
        <ele>538.0</ele>
        <time>2019-05-12T07:29:48Z</time>
      </trkpt>
      <trkpt lat="39.1951470" lon="-1.4502150">
        <ele>538.0</ele>
        <time>2019-05-12T07:29:49Z</time>
      </trkpt>
      <trkpt lat="39.1951400" lon="-1.4501090">
        <ele>538.0</ele>
        <time>2019-05-12T07:29:50Z</time>
      </trkpt>
      <trkpt lat="39.1951380" lon="-1.4500060">
        <ele>538.0</ele>
        <time>2019-05-12T07:29:51Z</time>
      </trkpt>
      <trkpt lat="39.1951260" lon="-1.4499100">
        <ele>537.8</ele>
        <time>2019-05-12T07:29:52Z</time>
      </trkpt>
      <trkpt lat="39.1951150" lon="-1.4498180">
        <ele>537.8</ele>
        <time>2019-05-12T07:29:53Z</time>
      </trkpt>
      <trkpt lat="39.1950940" lon="-1.4497290">
        <ele>537.8</ele>
        <time>2019-05-12T07:29:54Z</time>
      </trkpt>
      <trkpt lat="39.1950650" lon="-1.4496380">
        <ele>537.6</ele>
        <time>2019-05-12T07:29:55Z</time>
      </trkpt>
      <trkpt lat="39.1950470" lon="-1.4495460">
        <ele>537.6</ele>
        <time>2019-05-12T07:29:56Z</time>
      </trkpt>
      <trkpt lat="39.1950420" lon="-1.4494570">
        <ele>537.6</ele>
        <time>2019-05-12T07:29:57Z</time>
      </trkpt>
      <trkpt lat="39.1950410" lon="-1.4493710">
        <ele>537.6</ele>
        <time>2019-05-12T07:29:58Z</time>
      </trkpt>
      <trkpt lat="39.1950320" lon="-1.4492850">
        <ele>537.6</ele>
        <time>2019-05-12T07:29:59Z</time>
      </trkpt>
      <trkpt lat="39.1950230" lon="-1.4491980">
        <ele>537.6</ele>
        <time>2019-05-12T07:30:00Z</time>
      </trkpt>
      <trkpt lat="39.1950100" lon="-1.4491090">
        <ele>537.6</ele>
        <time>2019-05-12T07:30:01Z</time>
      </trkpt>
      <trkpt lat="39.1949980" lon="-1.4490190">
        <ele>537.6</ele>
        <time>2019-05-12T07:30:02Z</time>
      </trkpt>
      <trkpt lat="39.1949820" lon="-1.4489330">
        <ele>537.8</ele>
        <time>2019-05-12T07:30:03Z</time>
      </trkpt>
      <trkpt lat="39.1949700" lon="-1.4488460">
        <ele>538.2</ele>
        <time>2019-05-12T07:30:04Z</time>
      </trkpt>
      <trkpt lat="39.1949770" lon="-1.4487530">
        <ele>538.2</ele>
        <time>2019-05-12T07:30:05Z</time>
      </trkpt>
      <trkpt lat="39.1949890" lon="-1.4486630">
        <ele>538.4</ele>
        <time>2019-05-12T07:30:06Z</time>
      </trkpt>
      <trkpt lat="39.1949970" lon="-1.4485730">
        <ele>538.4</ele>
        <time>2019-05-12T07:30:07Z</time>
      </trkpt>
      <trkpt lat="39.1949960" lon="-1.4484820">
        <ele>538.4</ele>
        <time>2019-05-12T07:30:08Z</time>
      </trkpt>
      <trkpt lat="39.1949950" lon="-1.4483840">
        <ele>538.4</ele>
        <time>2019-05-12T07:30:09Z</time>
      </trkpt>
      <trkpt lat="39.1949810" lon="-1.4483130">
        <ele>538.4</ele>
        <time>2019-05-12T07:30:10Z</time>
      </trkpt>
      <trkpt lat="39.1949480" lon="-1.4482560">
        <ele>538.6</ele>
        <time>2019-05-12T07:30:11Z</time>
      </trkpt>
      <trkpt lat="39.1949040" lon="-1.4482070">
        <ele>538.6</ele>
        <time>2019-05-12T07:30:12Z</time>
      </trkpt>
      <trkpt lat="39.1948790" lon="-1.4481470">
        <ele>538.6</ele>
        <time>2019-05-12T07:30:13Z</time>
      </trkpt>
      <trkpt lat="39.1948670" lon="-1.4480800">
        <ele>538.8</ele>
        <time>2019-05-12T07:30:14Z</time>
      </trkpt>
      <trkpt lat="39.1948510" lon="-1.4480120">
        <ele>538.8</ele>
        <time>2019-05-12T07:30:15Z</time>
      </trkpt>
      <trkpt lat="39.1948340" lon="-1.4479420">
        <ele>539.0</ele>
        <time>2019-05-12T07:30:16Z</time>
      </trkpt>
      <trkpt lat="39.1948150" lon="-1.4478660">
        <ele>539.0</ele>
        <time>2019-05-12T07:30:17Z</time>
      </trkpt>
      <trkpt lat="39.1947950" lon="-1.4477880">
        <ele>539.2</ele>
        <time>2019-05-12T07:30:18Z</time>
      </trkpt>
      <trkpt lat="39.1947650" lon="-1.4477090">
        <ele>539.6</ele>
        <time>2019-05-12T07:30:19Z</time>
      </trkpt>
      <trkpt lat="39.1947240" lon="-1.4476320">
        <ele>539.8</ele>
        <time>2019-05-12T07:30:20Z</time>
      </trkpt>
      <trkpt lat="39.1946750" lon="-1.4475600">
        <ele>540.0</ele>
        <time>2019-05-12T07:30:21Z</time>
      </trkpt>
      <trkpt lat="39.1946200" lon="-1.4474930">
        <ele>540.0</ele>
        <time>2019-05-12T07:30:22Z</time>
      </trkpt>
      <trkpt lat="39.1945670" lon="-1.4474230">
        <ele>540.0</ele>
        <time>2019-05-12T07:30:23Z</time>
      </trkpt>
      <trkpt lat="39.1945090" lon="-1.4473500">
        <ele>540.0</ele>
        <time>2019-05-12T07:30:24Z</time>
      </trkpt>
      <trkpt lat="39.1944520" lon="-1.4472680">
        <ele>540.0</ele>
        <time>2019-05-12T07:30:25Z</time>
      </trkpt>
      <trkpt lat="39.1943950" lon="-1.4471780">
        <ele>540.0</ele>
        <time>2019-05-12T07:30:26Z</time>
      </trkpt>
      <trkpt lat="39.1943380" lon="-1.4470870">
        <ele>540.0</ele>
        <time>2019-05-12T07:30:27Z</time>
      </trkpt>
      <trkpt lat="39.1942880" lon="-1.4469910">
        <ele>540.0</ele>
        <time>2019-05-12T07:30:28Z</time>
      </trkpt>
      <trkpt lat="39.1942450" lon="-1.4468900">
        <ele>540.0</ele>
        <time>2019-05-12T07:30:29Z</time>
      </trkpt>
      <trkpt lat="39.1942070" lon="-1.4467900">
        <ele>540.0</ele>
        <time>2019-05-12T07:30:30Z</time>
      </trkpt>
      <trkpt lat="39.1941700" lon="-1.4466930">
        <ele>539.8</ele>
        <time>2019-05-12T07:30:31Z</time>
      </trkpt>
      <trkpt lat="39.1941300" lon="-1.4466120">
        <ele>539.8</ele>
        <time>2019-05-12T07:30:32Z</time>
      </trkpt>
      <trkpt lat="39.1940760" lon="-1.4465470">
        <ele>539.2</ele>
        <time>2019-05-12T07:30:33Z</time>
      </trkpt>
      <trkpt lat="39.1940130" lon="-1.4464960">
        <ele>538.6</ele>
        <time>2019-05-12T07:30:34Z</time>
      </trkpt>
      <trkpt lat="39.1939430" lon="-1.4464500">
        <ele>538.2</ele>
        <time>2019-05-12T07:30:35Z</time>
      </trkpt>
      <trkpt lat="39.1938730" lon="-1.4464010">
        <ele>538.0</ele>
        <time>2019-05-12T07:30:36Z</time>
      </trkpt>
      <trkpt lat="39.1938050" lon="-1.4463420">
        <ele>537.6</ele>
        <time>2019-05-12T07:30:37Z</time>
      </trkpt>
      <trkpt lat="39.1937440" lon="-1.4462570">
        <ele>537.6</ele>
        <time>2019-05-12T07:30:38Z</time>
      </trkpt>
      <trkpt lat="39.1936840" lon="-1.4461590">
        <ele>537.4</ele>
        <time>2019-05-12T07:30:39Z</time>
      </trkpt>
      <trkpt lat="39.1936280" lon="-1.4460530">
        <ele>537.4</ele>
        <time>2019-05-12T07:30:40Z</time>
      </trkpt>
      <trkpt lat="39.1935690" lon="-1.4459490">
        <ele>537.2</ele>
        <time>2019-05-12T07:30:41Z</time>
      </trkpt>
      <trkpt lat="39.1935080" lon="-1.4458520">
        <ele>537.0</ele>
        <time>2019-05-12T07:30:42Z</time>
      </trkpt>
      <trkpt lat="39.1934450" lon="-1.4457600">
        <ele>537.0</ele>
        <time>2019-05-12T07:30:43Z</time>
      </trkpt>
      <trkpt lat="39.1933790" lon="-1.4456730">
        <ele>537.0</ele>
        <time>2019-05-12T07:30:44Z</time>
      </trkpt>
      <trkpt lat="39.1933140" lon="-1.4455890">
        <ele>537.0</ele>
        <time>2019-05-12T07:30:45Z</time>
      </trkpt>
      <trkpt lat="39.1932540" lon="-1.4455010">
        <ele>536.6</ele>
        <time>2019-05-12T07:30:46Z</time>
      </trkpt>
      <trkpt lat="39.1931950" lon="-1.4454140">
        <ele>535.6</ele>
        <time>2019-05-12T07:30:47Z</time>
      </trkpt>
      <trkpt lat="39.1931380" lon="-1.4453290">
        <ele>535.0</ele>
        <time>2019-05-12T07:30:48Z</time>
      </trkpt>
      <trkpt lat="39.1930820" lon="-1.4452450">
        <ele>534.6</ele>
        <time>2019-05-12T07:30:49Z</time>
      </trkpt>
      <trkpt lat="39.1930250" lon="-1.4451620">
        <ele>534.4</ele>
        <time>2019-05-12T07:30:50Z</time>
      </trkpt>
      <trkpt lat="39.1929700" lon="-1.4450780">
        <ele>534.2</ele>
        <time>2019-05-12T07:30:51Z</time>
      </trkpt>
      <trkpt lat="39.1929180" lon="-1.4449900">
        <ele>534.2</ele>
        <time>2019-05-12T07:30:52Z</time>
      </trkpt>
      <trkpt lat="39.1928700" lon="-1.4449020">
        <ele>534.0</ele>
        <time>2019-05-12T07:30:53Z</time>
      </trkpt>
      <trkpt lat="39.1928210" lon="-1.4448180">
        <ele>534.0</ele>
        <time>2019-05-12T07:30:54Z</time>
      </trkpt>
      <trkpt lat="39.1927630" lon="-1.4447330">
        <ele>534.0</ele>
        <time>2019-05-12T07:30:55Z</time>
      </trkpt>
      <trkpt lat="39.1927040" lon="-1.4446490">
        <ele>534.0</ele>
        <time>2019-05-12T07:30:56Z</time>
      </trkpt>
      <trkpt lat="39.1926430" lon="-1.4445680">
        <ele>534.0</ele>
        <time>2019-05-12T07:30:57Z</time>
      </trkpt>
      <trkpt lat="39.1925800" lon="-1.4444920">
        <ele>534.0</ele>
        <time>2019-05-12T07:30:58Z</time>
      </trkpt>
      <trkpt lat="39.1925160" lon="-1.4444250">
        <ele>533.8</ele>
        <time>2019-05-12T07:30:59Z</time>
      </trkpt>
      <trkpt lat="39.1924410" lon="-1.4443710">
        <ele>533.8</ele>
        <time>2019-05-12T07:31:00Z</time>
      </trkpt>
      <trkpt lat="39.1923620" lon="-1.4443270">
        <ele>533.8</ele>
        <time>2019-05-12T07:31:01Z</time>
      </trkpt>
      <trkpt lat="39.1922830" lon="-1.4442810">
        <ele>533.8</ele>
        <time>2019-05-12T07:31:02Z</time>
      </trkpt>
      <trkpt lat="39.1922170" lon="-1.4442240">
        <ele>533.8</ele>
        <time>2019-05-12T07:31:03Z</time>
      </trkpt>
      <trkpt lat="39.1921530" lon="-1.4441650">
        <ele>533.8</ele>
        <time>2019-05-12T07:31:04Z</time>
      </trkpt>
      <trkpt lat="39.1920940" lon="-1.4440950">
        <ele>533.8</ele>
        <time>2019-05-12T07:31:05Z</time>
      </trkpt>
      <trkpt lat="39.1920360" lon="-1.4440200">
        <ele>533.8</ele>
        <time>2019-05-12T07:31:06Z</time>
      </trkpt>
      <trkpt lat="39.1919720" lon="-1.4439490">
        <ele>533.8</ele>
        <time>2019-05-12T07:31:07Z</time>
      </trkpt>
      <trkpt lat="39.1919010" lon="-1.4438800">
        <ele>533.8</ele>
        <time>2019-05-12T07:31:08Z</time>
      </trkpt>
      <trkpt lat="39.1918300" lon="-1.4438110">
        <ele>533.6</ele>
        <time>2019-05-12T07:31:09Z</time>
      </trkpt>
      <trkpt lat="39.1917590" lon="-1.4437460">
        <ele>533.6</ele>
        <time>2019-05-12T07:31:10Z</time>
      </trkpt>
      <trkpt lat="39.1916880" lon="-1.4436830">
        <ele>533.6</ele>
        <time>2019-05-12T07:31:11Z</time>
      </trkpt>
      <trkpt lat="39.1916110" lon="-1.4436180">
        <ele>533.6</ele>
        <time>2019-05-12T07:31:12Z</time>
      </trkpt>
      <trkpt lat="39.1915320" lon="-1.4435560">
        <ele>533.6</ele>
        <time>2019-05-12T07:31:13Z</time>
      </trkpt>
      <trkpt lat="39.1914530" lon="-1.4435000">
        <ele>533.6</ele>
        <time>2019-05-12T07:31:14Z</time>
      </trkpt>
      <trkpt lat="39.1913750" lon="-1.4434490">
        <ele>533.6</ele>
        <time>2019-05-12T07:31:15Z</time>
      </trkpt>
      <trkpt lat="39.1913010" lon="-1.4433950">
        <ele>533.6</ele>
        <time>2019-05-12T07:31:16Z</time>
      </trkpt>
      <trkpt lat="39.1912240" lon="-1.4433390">
        <ele>533.6</ele>
        <time>2019-05-12T07:31:17Z</time>
      </trkpt>
      <trkpt lat="39.1911420" lon="-1.4432830">
        <ele>533.4</ele>
        <time>2019-05-12T07:31:18Z</time>
      </trkpt>
      <trkpt lat="39.1910580" lon="-1.4432240">
        <ele>533.4</ele>
        <time>2019-05-12T07:31:19Z</time>
      </trkpt>
      <trkpt lat="39.1909690" lon="-1.4431620">
        <ele>533.4</ele>
        <time>2019-05-12T07:31:20Z</time>
      </trkpt>
      <trkpt lat="39.1908830" lon="-1.4431090">
        <ele>533.4</ele>
        <time>2019-05-12T07:31:21Z</time>
      </trkpt>
      <trkpt lat="39.1907940" lon="-1.4430560">
        <ele>533.2</ele>
        <time>2019-05-12T07:31:22Z</time>
      </trkpt>
      <trkpt lat="39.1907020" lon="-1.4430060">
        <ele>533.2</ele>
        <time>2019-05-12T07:31:23Z</time>
      </trkpt>
      <trkpt lat="39.1906100" lon="-1.4429740">
        <ele>533.2</ele>
        <time>2019-05-12T07:31:24Z</time>
      </trkpt>
      <trkpt lat="39.1905180" lon="-1.4429230">
        <ele>533.2</ele>
        <time>2019-05-12T07:31:25Z</time>
      </trkpt>
      <trkpt lat="39.1904330" lon="-1.4428620">
        <ele>533.0</ele>
        <time>2019-05-12T07:31:26Z</time>
      </trkpt>
      <trkpt lat="39.1903560" lon="-1.4427900">
        <ele>533.0</ele>
        <time>2019-05-12T07:31:27Z</time>
      </trkpt>
      <trkpt lat="39.1902820" lon="-1.4427140">
        <ele>532.6</ele>
        <time>2019-05-12T07:31:28Z</time>
      </trkpt>
      <trkpt lat="39.1902100" lon="-1.4426360">
        <ele>532.4</ele>
        <time>2019-05-12T07:31:29Z</time>
      </trkpt>
      <trkpt lat="39.1901380" lon="-1.4425570">
        <ele>532.2</ele>
        <time>2019-05-12T07:31:30Z</time>
      </trkpt>
      <trkpt lat="39.1900770" lon="-1.4424650">
        <ele>532.0</ele>
        <time>2019-05-12T07:31:31Z</time>
      </trkpt>
      <trkpt lat="39.1900230" lon="-1.4423640">
        <ele>531.8</ele>
        <time>2019-05-12T07:31:32Z</time>
      </trkpt>
      <trkpt lat="39.1899600" lon="-1.4422780">
        <ele>531.8</ele>
        <time>2019-05-12T07:31:33Z</time>
      </trkpt>
      <trkpt lat="39.1899030" lon="-1.4421910">
        <ele>531.8</ele>
        <time>2019-05-12T07:31:34Z</time>
      </trkpt>
      <trkpt lat="39.1898460" lon="-1.4421020">
        <ele>531.6</ele>
        <time>2019-05-12T07:31:35Z</time>
      </trkpt>
      <trkpt lat="39.1898020" lon="-1.4420050">
        <ele>531.6</ele>
        <time>2019-05-12T07:31:36Z</time>
      </trkpt>
      <trkpt lat="39.1897700" lon="-1.4419030">
        <ele>531.6</ele>
        <time>2019-05-12T07:31:37Z</time>
      </trkpt>
      <trkpt lat="39.1897470" lon="-1.4418030">
        <ele>531.6</ele>
        <time>2019-05-12T07:31:38Z</time>
      </trkpt>
      <trkpt lat="39.1897340" lon="-1.4417050">
        <ele>531.6</ele>
        <time>2019-05-12T07:31:39Z</time>
      </trkpt>
      <trkpt lat="39.1897330" lon="-1.4416040">
        <ele>531.4</ele>
        <time>2019-05-12T07:31:40Z</time>
      </trkpt>
      <trkpt lat="39.1897460" lon="-1.4415020">
        <ele>531.4</ele>
        <time>2019-05-12T07:31:41Z</time>
      </trkpt>
      <trkpt lat="39.1897650" lon="-1.4414040">
        <ele>531.4</ele>
        <time>2019-05-12T07:31:42Z</time>
      </trkpt>
      <trkpt lat="39.1897920" lon="-1.4413070">
        <ele>531.6</ele>
        <time>2019-05-12T07:31:43Z</time>
      </trkpt>
      <trkpt lat="39.1898320" lon="-1.4412190">
        <ele>531.6</ele>
        <time>2019-05-12T07:31:44Z</time>
      </trkpt>
      <trkpt lat="39.1898740" lon="-1.4411460">
        <ele>531.6</ele>
        <time>2019-05-12T07:31:45Z</time>
      </trkpt>
      <trkpt lat="39.1899180" lon="-1.4410810">
        <ele>531.8</ele>
        <time>2019-05-12T07:31:46Z</time>
      </trkpt>
      <trkpt lat="39.1899600" lon="-1.4410160">
        <ele>531.8</ele>
        <time>2019-05-12T07:31:47Z</time>
      </trkpt>
      <trkpt lat="39.1900010" lon="-1.4409560">
        <ele>532.0</ele>
        <time>2019-05-12T07:31:48Z</time>
      </trkpt>
      <trkpt lat="39.1900410" lon="-1.4409040">
        <ele>532.0</ele>
        <time>2019-05-12T07:31:49Z</time>
      </trkpt>
      <trkpt lat="39.1900790" lon="-1.4408550">
        <ele>532.2</ele>
        <time>2019-05-12T07:31:50Z</time>
      </trkpt>
      <trkpt lat="39.1901190" lon="-1.4408070">
        <ele>532.4</ele>
        <time>2019-05-12T07:31:51Z</time>
      </trkpt>
      <trkpt lat="39.1901590" lon="-1.4407590">
        <ele>532.4</ele>
        <time>2019-05-12T07:31:52Z</time>
      </trkpt>
      <trkpt lat="39.1902000" lon="-1.4407140">
        <ele>532.8</ele>
        <time>2019-05-12T07:31:53Z</time>
      </trkpt>
      <trkpt lat="39.1902410" lon="-1.4406710">
        <ele>533.2</ele>
        <time>2019-05-12T07:31:54Z</time>
      </trkpt>
      <trkpt lat="39.1902820" lon="-1.4406270">
        <ele>533.8</ele>
        <time>2019-05-12T07:31:55Z</time>
      </trkpt>
      <trkpt lat="39.1903240" lon="-1.4405820">
        <ele>534.2</ele>
        <time>2019-05-12T07:31:56Z</time>
      </trkpt>
      <trkpt lat="39.1903680" lon="-1.4405350">
        <ele>534.8</ele>
        <time>2019-05-12T07:31:57Z</time>
      </trkpt>
      <trkpt lat="39.1904110" lon="-1.4404880">
        <ele>535.2</ele>
        <time>2019-05-12T07:31:58Z</time>
      </trkpt>
      <trkpt lat="39.1904550" lon="-1.4404400">
        <ele>535.8</ele>
        <time>2019-05-12T07:31:59Z</time>
      </trkpt>
      <trkpt lat="39.1905010" lon="-1.4403910">
        <ele>536.0</ele>
        <time>2019-05-12T07:32:00Z</time>
      </trkpt>
      <trkpt lat="39.1905490" lon="-1.4403420">
        <ele>536.4</ele>
        <time>2019-05-12T07:32:01Z</time>
      </trkpt>
      <trkpt lat="39.1905990" lon="-1.4402910">
        <ele>536.6</ele>
        <time>2019-05-12T07:32:02Z</time>
      </trkpt>
      <trkpt lat="39.1906510" lon="-1.4402390">
        <ele>536.8</ele>
        <time>2019-05-12T07:32:03Z</time>
      </trkpt>
      <trkpt lat="39.1907020" lon="-1.4401870">
        <ele>537.0</ele>
        <time>2019-05-12T07:32:04Z</time>
      </trkpt>
      <trkpt lat="39.1907540" lon="-1.4401370">
        <ele>537.2</ele>
        <time>2019-05-12T07:32:05Z</time>
      </trkpt>
      <trkpt lat="39.1908070" lon="-1.4400880">
        <ele>537.2</ele>
        <time>2019-05-12T07:32:06Z</time>
      </trkpt>
      <trkpt lat="39.1908620" lon="-1.4400390">
        <ele>537.2</ele>
        <time>2019-05-12T07:32:07Z</time>
      </trkpt>
      <trkpt lat="39.1909180" lon="-1.4399890">
        <ele>537.2</ele>
        <time>2019-05-12T07:32:08Z</time>
      </trkpt>
      <trkpt lat="39.1909720" lon="-1.4399360">
        <ele>537.2</ele>
        <time>2019-05-12T07:32:09Z</time>
      </trkpt>
      <trkpt lat="39.1910280" lon="-1.4398870">
        <ele>537.2</ele>
        <time>2019-05-12T07:32:10Z</time>
      </trkpt>
      <trkpt lat="39.1910860" lon="-1.4398400">
        <ele>537.2</ele>
        <time>2019-05-12T07:32:11Z</time>
      </trkpt>
      <trkpt lat="39.1911430" lon="-1.4397900">
        <ele>537.2</ele>
        <time>2019-05-12T07:32:12Z</time>
      </trkpt>
      <trkpt lat="39.1911990" lon="-1.4397380">
        <ele>537.2</ele>
        <time>2019-05-12T07:32:13Z</time>
      </trkpt>
      <trkpt lat="39.1912560" lon="-1.4396830">
        <ele>537.2</ele>
        <time>2019-05-12T07:32:14Z</time>
      </trkpt>
      <trkpt lat="39.1913150" lon="-1.4396280">
        <ele>537.2</ele>
        <time>2019-05-12T07:32:15Z</time>
      </trkpt>
      <trkpt lat="39.1913770" lon="-1.4395740">
        <ele>537.2</ele>
        <time>2019-05-12T07:32:16Z</time>
      </trkpt>
      <trkpt lat="39.1914410" lon="-1.4395230">
        <ele>537.2</ele>
        <time>2019-05-12T07:32:17Z</time>
      </trkpt>
      <trkpt lat="39.1915060" lon="-1.4394750">
        <ele>537.2</ele>
        <time>2019-05-12T07:32:18Z</time>
      </trkpt>
      <trkpt lat="39.1915720" lon="-1.4394280">
        <ele>537.2</ele>
        <time>2019-05-12T07:32:19Z</time>
      </trkpt>
      <trkpt lat="39.1916390" lon="-1.4393830">
        <ele>537.0</ele>
        <time>2019-05-12T07:32:20Z</time>
      </trkpt>
      <trkpt lat="39.1917090" lon="-1.4393420">
        <ele>536.8</ele>
        <time>2019-05-12T07:32:21Z</time>
      </trkpt>
      <trkpt lat="39.1917790" lon="-1.4392980">
        <ele>536.8</ele>
        <time>2019-05-12T07:32:22Z</time>
      </trkpt>
      <trkpt lat="39.1918490" lon="-1.4392510">
        <ele>536.8</ele>
        <time>2019-05-12T07:32:23Z</time>
      </trkpt>
      <trkpt lat="39.1919200" lon="-1.4392050">
        <ele>536.8</ele>
        <time>2019-05-12T07:32:24Z</time>
      </trkpt>
      <trkpt lat="39.1919900" lon="-1.4391590">
        <ele>536.8</ele>
        <time>2019-05-12T07:32:25Z</time>
      </trkpt>
      <trkpt lat="39.1920590" lon="-1.4391110">
        <ele>536.6</ele>
        <time>2019-05-12T07:32:26Z</time>
      </trkpt>
      <trkpt lat="39.1921290" lon="-1.4390580">
        <ele>536.6</ele>
        <time>2019-05-12T07:32:27Z</time>
      </trkpt>
      <trkpt lat="39.1921970" lon="-1.4390000">
        <ele>536.6</ele>
        <time>2019-05-12T07:32:28Z</time>
      </trkpt>
      <trkpt lat="39.1922660" lon="-1.4389400">
        <ele>536.6</ele>
        <time>2019-05-12T07:32:29Z</time>
      </trkpt>
      <trkpt lat="39.1923360" lon="-1.4388800">
        <ele>536.6</ele>
        <time>2019-05-12T07:32:30Z</time>
      </trkpt>
      <trkpt lat="39.1924050" lon="-1.4388210">
        <ele>536.6</ele>
        <time>2019-05-12T07:32:31Z</time>
      </trkpt>
      <trkpt lat="39.1924780" lon="-1.4387660">
        <ele>536.6</ele>
        <time>2019-05-12T07:32:32Z</time>
      </trkpt>
      <trkpt lat="39.1925510" lon="-1.4387130">
        <ele>536.6</ele>
        <time>2019-05-12T07:32:33Z</time>
      </trkpt>
      <trkpt lat="39.1926250" lon="-1.4386600">
        <ele>536.6</ele>
        <time>2019-05-12T07:32:34Z</time>
      </trkpt>
      <trkpt lat="39.1926980" lon="-1.4386090">
        <ele>536.6</ele>
        <time>2019-05-12T07:32:35Z</time>
      </trkpt>
      <trkpt lat="39.1927690" lon="-1.4385540">
        <ele>536.6</ele>
        <time>2019-05-12T07:32:36Z</time>
      </trkpt>
      <trkpt lat="39.1928410" lon="-1.4385010">
        <ele>536.6</ele>
        <time>2019-05-12T07:32:37Z</time>
      </trkpt>
      <trkpt lat="39.1929150" lon="-1.4384460">
        <ele>536.4</ele>
        <time>2019-05-12T07:32:38Z</time>
      </trkpt>
      <trkpt lat="39.1929900" lon="-1.4383910">
        <ele>536.4</ele>
        <time>2019-05-12T07:32:39Z</time>
      </trkpt>
      <trkpt lat="39.1930650" lon="-1.4383330">
        <ele>536.4</ele>
        <time>2019-05-12T07:32:40Z</time>
      </trkpt>
      <trkpt lat="39.1931400" lon="-1.4382740">
        <ele>536.4</ele>
        <time>2019-05-12T07:32:41Z</time>
      </trkpt>
      <trkpt lat="39.1932160" lon="-1.4382150">
        <ele>536.4</ele>
        <time>2019-05-12T07:32:42Z</time>
      </trkpt>
      <trkpt lat="39.1932930" lon="-1.4381600">
        <ele>536.6</ele>
        <time>2019-05-12T07:32:43Z</time>
      </trkpt>
      <trkpt lat="39.1933690" lon="-1.4381030">
        <ele>536.2</ele>
        <time>2019-05-12T07:32:44Z</time>
      </trkpt>
      <trkpt lat="39.1934440" lon="-1.4380410">
        <ele>536.2</ele>
        <time>2019-05-12T07:32:45Z</time>
      </trkpt>
      <trkpt lat="39.1935160" lon="-1.4379750">
        <ele>536.2</ele>
        <time>2019-05-12T07:32:46Z</time>
      </trkpt>
      <trkpt lat="39.1935830" lon="-1.4379000">
        <ele>536.4</ele>
        <time>2019-05-12T07:32:47Z</time>
      </trkpt>
      <trkpt lat="39.1936440" lon="-1.4378130">
        <ele>536.4</ele>
        <time>2019-05-12T07:32:48Z</time>
      </trkpt>
      <trkpt lat="39.1937080" lon="-1.4377330">
        <ele>536.4</ele>
        <time>2019-05-12T07:32:49Z</time>
      </trkpt>
      <trkpt lat="39.1937800" lon="-1.4376720">
        <ele>536.4</ele>
        <time>2019-05-12T07:32:50Z</time>
      </trkpt>
      <trkpt lat="39.1938630" lon="-1.4376350">
        <ele>536.0</ele>
        <time>2019-05-12T07:32:51Z</time>
      </trkpt>
      <trkpt lat="39.1939440" lon="-1.4375970">
        <ele>535.8</ele>
        <time>2019-05-12T07:32:52Z</time>
      </trkpt>
      <trkpt lat="39.1940120" lon="-1.4375530">
        <ele>535.6</ele>
        <time>2019-05-12T07:32:53Z</time>
      </trkpt>
      <trkpt lat="39.1940620" lon="-1.4374830">
        <ele>535.4</ele>
        <time>2019-05-12T07:32:54Z</time>
      </trkpt>
      <trkpt lat="39.1940770" lon="-1.4373950">
        <ele>535.2</ele>
        <time>2019-05-12T07:32:55Z</time>
      </trkpt>
      <trkpt lat="39.1940890" lon="-1.4373090">
        <ele>534.6</ele>
        <time>2019-05-12T07:32:56Z</time>
      </trkpt>
      <trkpt lat="39.1941030" lon="-1.4372220">
        <ele>534.2</ele>
        <time>2019-05-12T07:32:57Z</time>
      </trkpt>
      <trkpt lat="39.1941350" lon="-1.4371430">
        <ele>534.0</ele>
        <time>2019-05-12T07:32:58Z</time>
      </trkpt>
      <trkpt lat="39.1941880" lon="-1.4370740">
        <ele>533.8</ele>
        <time>2019-05-12T07:32:59Z</time>
      </trkpt>
      <trkpt lat="39.1942430" lon="-1.4370170">
        <ele>533.6</ele>
        <time>2019-05-12T07:33:00Z</time>
      </trkpt>
      <trkpt lat="39.1943020" lon="-1.4369670">
        <ele>533.4</ele>
        <time>2019-05-12T07:33:01Z</time>
      </trkpt>
      <trkpt lat="39.1943630" lon="-1.4369260">
        <ele>533.2</ele>
        <time>2019-05-12T07:33:02Z</time>
      </trkpt>
      <trkpt lat="39.1944210" lon="-1.4368870">
        <ele>533.0</ele>
        <time>2019-05-12T07:33:03Z</time>
      </trkpt>
      <trkpt lat="39.1944790" lon="-1.4368410">
        <ele>533.0</ele>
        <time>2019-05-12T07:33:04Z</time>
      </trkpt>
      <trkpt lat="39.1945390" lon="-1.4368000">
        <ele>533.0</ele>
        <time>2019-05-12T07:33:05Z</time>
      </trkpt>
      <trkpt lat="39.1946000" lon="-1.4367660">
        <ele>533.0</ele>
        <time>2019-05-12T07:33:06Z</time>
      </trkpt>
      <trkpt lat="39.1946540" lon="-1.4367270">
        <ele>533.0</ele>
        <time>2019-05-12T07:33:07Z</time>
      </trkpt>
      <trkpt lat="39.1946870" lon="-1.4366760">
        <ele>533.0</ele>
        <time>2019-05-12T07:33:08Z</time>
      </trkpt>
      <trkpt lat="39.1946920" lon="-1.4366170">
        <ele>533.0</ele>
        <time>2019-05-12T07:33:09Z</time>
      </trkpt>
      <trkpt lat="39.1946750" lon="-1.4365640">
        <ele>533.0</ele>
        <time>2019-05-12T07:33:10Z</time>
      </trkpt>
      <trkpt lat="39.1946420" lon="-1.4365250">
        <ele>533.0</ele>
        <time>2019-05-12T07:33:11Z</time>
      </trkpt>
      <trkpt lat="39.1946110" lon="-1.4364870">
        <ele>533.0</ele>
        <time>2019-05-12T07:33:12Z</time>
      </trkpt>
      <trkpt lat="39.1945890" lon="-1.4364470">
        <ele>533.0</ele>
        <time>2019-05-12T07:33:13Z</time>
      </trkpt>
      <trkpt lat="39.1945810" lon="-1.4364050">
        <ele>533.0</ele>
        <time>2019-05-12T07:33:14Z</time>
      </trkpt>
      <trkpt lat="39.1945880" lon="-1.4363560">
        <ele>533.2</ele>
        <time>2019-05-12T07:33:15Z</time>
      </trkpt>
      <trkpt lat="39.1946100" lon="-1.4363020">
        <ele>533.2</ele>
        <time>2019-05-12T07:33:16Z</time>
      </trkpt>
      <trkpt lat="39.1946450" lon="-1.4362460">
        <ele>533.2</ele>
        <time>2019-05-12T07:33:17Z</time>
      </trkpt>
      <trkpt lat="39.1946800" lon="-1.4361800">
        <ele>533.4</ele>
        <time>2019-05-12T07:33:18Z</time>
      </trkpt>
      <trkpt lat="39.1947060" lon="-1.4361030">
        <ele>533.6</ele>
        <time>2019-05-12T07:33:19Z</time>
      </trkpt>
      <trkpt lat="39.1947110" lon="-1.4360200">
        <ele>533.6</ele>
        <time>2019-05-12T07:33:20Z</time>
      </trkpt>
      <trkpt lat="39.1947010" lon="-1.4359390">
        <ele>533.6</ele>
        <time>2019-05-12T07:33:21Z</time>
      </trkpt>
      <trkpt lat="39.1946880" lon="-1.4358580">
        <ele>533.6</ele>
        <time>2019-05-12T07:33:22Z</time>
      </trkpt>
      <trkpt lat="39.1946850" lon="-1.4357770">
        <ele>533.6</ele>
        <time>2019-05-12T07:33:23Z</time>
      </trkpt>
      <trkpt lat="39.1946920" lon="-1.4356950">
        <ele>533.6</ele>
        <time>2019-05-12T07:33:24Z</time>
      </trkpt>
      <trkpt lat="39.1947010" lon="-1.4356110">
        <ele>533.6</ele>
        <time>2019-05-12T07:33:25Z</time>
      </trkpt>
      <trkpt lat="39.1947110" lon="-1.4355250">
        <ele>533.6</ele>
        <time>2019-05-12T07:33:26Z</time>
      </trkpt>
      <trkpt lat="39.1947230" lon="-1.4354430">
        <ele>533.6</ele>
        <time>2019-05-12T07:33:27Z</time>
      </trkpt>
      <trkpt lat="39.1947350" lon="-1.4353590">
        <ele>533.6</ele>
        <time>2019-05-12T07:33:28Z</time>
      </trkpt>
      <trkpt lat="39.1947470" lon="-1.4352750">
        <ele>533.8</ele>
        <time>2019-05-12T07:33:29Z</time>
      </trkpt>
      <trkpt lat="39.1947590" lon="-1.4351930">
        <ele>533.8</ele>
        <time>2019-05-12T07:33:30Z</time>
      </trkpt>
      <trkpt lat="39.1947730" lon="-1.4351120">
        <ele>533.8</ele>
        <time>2019-05-12T07:33:31Z</time>
      </trkpt>
      <trkpt lat="39.1947870" lon="-1.4350310">
        <ele>533.8</ele>
        <time>2019-05-12T07:33:32Z</time>
      </trkpt>
      <trkpt lat="39.1948030" lon="-1.4349540">
        <ele>533.8</ele>
        <time>2019-05-12T07:33:33Z</time>
      </trkpt>
      <trkpt lat="39.1948200" lon="-1.4348710">
        <ele>533.8</ele>
        <time>2019-05-12T07:33:34Z</time>
      </trkpt>
      <trkpt lat="39.1948390" lon="-1.4347880">
        <ele>533.8</ele>
        <time>2019-05-12T07:33:35Z</time>
      </trkpt>
      <trkpt lat="39.1948550" lon="-1.4347030">
        <ele>534.0</ele>
        <time>2019-05-12T07:33:36Z</time>
      </trkpt>
      <trkpt lat="39.1948640" lon="-1.4346160">
        <ele>534.0</ele>
        <time>2019-05-12T07:33:37Z</time>
      </trkpt>
      <trkpt lat="39.1948680" lon="-1.4345280">
        <ele>534.2</ele>
        <time>2019-05-12T07:33:38Z</time>
      </trkpt>
      <trkpt lat="39.1948670" lon="-1.4344390">
        <ele>534.6</ele>
        <time>2019-05-12T07:33:39Z</time>
      </trkpt>
      <trkpt lat="39.1948610" lon="-1.4343510">
        <ele>535.2</ele>
        <time>2019-05-12T07:33:40Z</time>
      </trkpt>
      <trkpt lat="39.1948460" lon="-1.4342650">
        <ele>535.4</ele>
        <time>2019-05-12T07:33:41Z</time>
      </trkpt>
      <trkpt lat="39.1948210" lon="-1.4341830">
        <ele>535.6</ele>
        <time>2019-05-12T07:33:42Z</time>
      </trkpt>
      <trkpt lat="39.1947910" lon="-1.4341060">
        <ele>535.8</ele>
        <time>2019-05-12T07:33:43Z</time>
      </trkpt>
      <trkpt lat="39.1947600" lon="-1.4340340">
        <ele>535.8</ele>
        <time>2019-05-12T07:33:44Z</time>
      </trkpt>
      <trkpt lat="39.1947250" lon="-1.4339650">
        <ele>536.0</ele>
        <time>2019-05-12T07:33:45Z</time>
      </trkpt>
      <trkpt lat="39.1946920" lon="-1.4338930">
        <ele>536.0</ele>
        <time>2019-05-12T07:33:46Z</time>
      </trkpt>
      <trkpt lat="39.1946580" lon="-1.4338190">
        <ele>536.2</ele>
        <time>2019-05-12T07:33:47Z</time>
      </trkpt>
      <trkpt lat="39.1946250" lon="-1.4337430">
        <ele>536.2</ele>
        <time>2019-05-12T07:33:48Z</time>
      </trkpt>
      <trkpt lat="39.1945880" lon="-1.4336680">
        <ele>536.4</ele>
        <time>2019-05-12T07:33:49Z</time>
      </trkpt>
      <trkpt lat="39.1945510" lon="-1.4335940">
        <ele>536.4</ele>
        <time>2019-05-12T07:33:50Z</time>
      </trkpt>
      <trkpt lat="39.1945170" lon="-1.4335220">
        <ele>536.6</ele>
        <time>2019-05-12T07:33:51Z</time>
      </trkpt>
      <trkpt lat="39.1944810" lon="-1.4334500">
        <ele>537.0</ele>
        <time>2019-05-12T07:33:52Z</time>
      </trkpt>
      <trkpt lat="39.1944460" lon="-1.4333760">
        <ele>537.2</ele>
        <time>2019-05-12T07:33:53Z</time>
      </trkpt>
      <trkpt lat="39.1944170" lon="-1.4332930">
        <ele>537.4</ele>
        <time>2019-05-12T07:33:54Z</time>
      </trkpt>
      <trkpt lat="39.1943840" lon="-1.4332100">
        <ele>537.4</ele>
        <time>2019-05-12T07:33:55Z</time>
      </trkpt>
      <trkpt lat="39.1943500" lon="-1.4331290">
        <ele>537.4</ele>
        <time>2019-05-12T07:33:56Z</time>
      </trkpt>
      <trkpt lat="39.1943110" lon="-1.4330520">
        <ele>537.4</ele>
        <time>2019-05-12T07:33:57Z</time>
      </trkpt>
      <trkpt lat="39.1942660" lon="-1.4329820">
        <ele>537.4</ele>
        <time>2019-05-12T07:33:58Z</time>
      </trkpt>
      <trkpt lat="39.1942150" lon="-1.4329190">
        <ele>537.6</ele>
        <time>2019-05-12T07:33:59Z</time>
      </trkpt>
      <trkpt lat="39.1941620" lon="-1.4328630">
        <ele>537.8</ele>
        <time>2019-05-12T07:34:00Z</time>
      </trkpt>
      <trkpt lat="39.1941100" lon="-1.4328100">
        <ele>537.8</ele>
        <time>2019-05-12T07:34:01Z</time>
      </trkpt>
      <trkpt lat="39.1940600" lon="-1.4327570">
        <ele>538.0</ele>
        <time>2019-05-12T07:34:02Z</time>
      </trkpt>
      <trkpt lat="39.1940140" lon="-1.4326980">
        <ele>538.0</ele>
        <time>2019-05-12T07:34:03Z</time>
      </trkpt>
      <trkpt lat="39.1939730" lon="-1.4326310">
        <ele>538.0</ele>
        <time>2019-05-12T07:34:04Z</time>
      </trkpt>
      <trkpt lat="39.1939290" lon="-1.4325630">
        <ele>538.0</ele>
        <time>2019-05-12T07:34:05Z</time>
      </trkpt>
      <trkpt lat="39.1938820" lon="-1.4324910">
        <ele>538.0</ele>
        <time>2019-05-12T07:34:06Z</time>
      </trkpt>
      <trkpt lat="39.1938330" lon="-1.4324170">
        <ele>537.8</ele>
        <time>2019-05-12T07:34:07Z</time>
      </trkpt>
      <trkpt lat="39.1937840" lon="-1.4323380">
        <ele>537.8</ele>
        <time>2019-05-12T07:34:08Z</time>
      </trkpt>
      <trkpt lat="39.1937310" lon="-1.4322560">
        <ele>537.8</ele>
        <time>2019-05-12T07:34:09Z</time>
      </trkpt>
      <trkpt lat="39.1936770" lon="-1.4321680">
        <ele>537.6</ele>
        <time>2019-05-12T07:34:10Z</time>
      </trkpt>
      <trkpt lat="39.1936200" lon="-1.4320790">
        <ele>537.6</ele>
        <time>2019-05-12T07:34:11Z</time>
      </trkpt>
      <trkpt lat="39.1935600" lon="-1.4319940">
        <ele>537.4</ele>
        <time>2019-05-12T07:34:12Z</time>
      </trkpt>
      <trkpt lat="39.1934990" lon="-1.4319080">
        <ele>537.4</ele>
        <time>2019-05-12T07:34:13Z</time>
      </trkpt>
      <trkpt lat="39.1934350" lon="-1.4318300">
        <ele>537.2</ele>
        <time>2019-05-12T07:34:14Z</time>
      </trkpt>
      <trkpt lat="39.1933690" lon="-1.4317580">
        <ele>537.2</ele>
        <time>2019-05-12T07:34:15Z</time>
      </trkpt>
      <trkpt lat="39.1932970" lon="-1.4316910">
        <ele>536.8</ele>
        <time>2019-05-12T07:34:16Z</time>
      </trkpt>
      <trkpt lat="39.1932280" lon="-1.4316220">
        <ele>536.0</ele>
        <time>2019-05-12T07:34:17Z</time>
      </trkpt>
      <trkpt lat="39.1931590" lon="-1.4315520">
        <ele>535.2</ele>
        <time>2019-05-12T07:34:18Z</time>
      </trkpt>
      <trkpt lat="39.1930890" lon="-1.4314810">
        <ele>534.6</ele>
        <time>2019-05-12T07:34:19Z</time>
      </trkpt>
      <trkpt lat="39.1930190" lon="-1.4314060">
        <ele>534.4</ele>
        <time>2019-05-12T07:34:20Z</time>
      </trkpt>
      <trkpt lat="39.1929490" lon="-1.4313330">
        <ele>534.2</ele>
        <time>2019-05-12T07:34:21Z</time>
      </trkpt>
      <trkpt lat="39.1928780" lon="-1.4312670">
        <ele>534.0</ele>
        <time>2019-05-12T07:34:22Z</time>
      </trkpt>
      <trkpt lat="39.1928020" lon="-1.4312100">
        <ele>534.0</ele>
        <time>2019-05-12T07:34:23Z</time>
      </trkpt>
      <trkpt lat="39.1927220" lon="-1.4311580">
        <ele>534.0</ele>
        <time>2019-05-12T07:34:24Z</time>
      </trkpt>
      <trkpt lat="39.1926340" lon="-1.4311250">
        <ele>534.0</ele>
        <time>2019-05-12T07:34:25Z</time>
      </trkpt>
      <trkpt lat="39.1925470" lon="-1.4311000">
        <ele>534.0</ele>
        <time>2019-05-12T07:34:26Z</time>
      </trkpt>
      <trkpt lat="39.1924640" lon="-1.4310800">
        <ele>534.0</ele>
        <time>2019-05-12T07:34:27Z</time>
      </trkpt>
      <trkpt lat="39.1923840" lon="-1.4310600">
        <ele>534.0</ele>
        <time>2019-05-12T07:34:28Z</time>
      </trkpt>
      <trkpt lat="39.1923110" lon="-1.4310360">
        <ele>534.0</ele>
        <time>2019-05-12T07:34:29Z</time>
      </trkpt>
      <trkpt lat="39.1922400" lon="-1.4310160">
        <ele>534.0</ele>
        <time>2019-05-12T07:34:30Z</time>
      </trkpt>
      <trkpt lat="39.1921760" lon="-1.4309960">
        <ele>534.0</ele>
        <time>2019-05-12T07:34:31Z</time>
      </trkpt>
      <trkpt lat="39.1921140" lon="-1.4309780">
        <ele>534.0</ele>
        <time>2019-05-12T07:34:32Z</time>
      </trkpt>
      <trkpt lat="39.1920550" lon="-1.4309560">
        <ele>534.4</ele>
        <time>2019-05-12T07:34:33Z</time>
      </trkpt>
      <trkpt lat="39.1919980" lon="-1.4309360">
        <ele>534.6</ele>
        <time>2019-05-12T07:34:34Z</time>
      </trkpt>
      <trkpt lat="39.1919410" lon="-1.4309120">
        <ele>534.8</ele>
        <time>2019-05-12T07:34:35Z</time>
      </trkpt>
      <trkpt lat="39.1918840" lon="-1.4308850">
        <ele>534.8</ele>
        <time>2019-05-12T07:34:36Z</time>
      </trkpt>
      <trkpt lat="39.1918280" lon="-1.4308640">
        <ele>535.0</ele>
        <time>2019-05-12T07:34:37Z</time>
      </trkpt>
      <trkpt lat="39.1917710" lon="-1.4308430">
        <ele>535.2</ele>
        <time>2019-05-12T07:34:38Z</time>
      </trkpt>
      <trkpt lat="39.1917140" lon="-1.4308150">
        <ele>535.4</ele>
        <time>2019-05-12T07:34:39Z</time>
      </trkpt>
      <trkpt lat="39.1916550" lon="-1.4307840">
        <ele>535.8</ele>
        <time>2019-05-12T07:34:40Z</time>
      </trkpt>
      <trkpt lat="39.1915940" lon="-1.4307550">
        <ele>536.0</ele>
        <time>2019-05-12T07:34:41Z</time>
      </trkpt>
      <trkpt lat="39.1915310" lon="-1.4307230">
        <ele>536.2</ele>
        <time>2019-05-12T07:34:42Z</time>
      </trkpt>
      <trkpt lat="39.1914640" lon="-1.4306920">
        <ele>536.4</ele>
        <time>2019-05-12T07:34:43Z</time>
      </trkpt>
      <trkpt lat="39.1913930" lon="-1.4306650">
        <ele>536.4</ele>
        <time>2019-05-12T07:34:44Z</time>
      </trkpt>
      <trkpt lat="39.1913190" lon="-1.4306400">
        <ele>536.4</ele>
        <time>2019-05-12T07:34:45Z</time>
      </trkpt>
      <trkpt lat="39.1912420" lon="-1.4306210">
        <ele>536.4</ele>
        <time>2019-05-12T07:34:46Z</time>
      </trkpt>
      <trkpt lat="39.1911640" lon="-1.4306030">
        <ele>536.6</ele>
        <time>2019-05-12T07:34:47Z</time>
      </trkpt>
      <trkpt lat="39.1910850" lon="-1.4305860">
        <ele>536.6</ele>
        <time>2019-05-12T07:34:48Z</time>
      </trkpt>
      <trkpt lat="39.1910030" lon="-1.4305720">
        <ele>536.6</ele>
        <time>2019-05-12T07:34:49Z</time>
      </trkpt>
      <trkpt lat="39.1909220" lon="-1.4305510">
        <ele>536.6</ele>
        <time>2019-05-12T07:34:50Z</time>
      </trkpt>
      <trkpt lat="39.1908390" lon="-1.4305290">
        <ele>536.6</ele>
        <time>2019-05-12T07:34:51Z</time>
      </trkpt>
      <trkpt lat="39.1907540" lon="-1.4305020">
        <ele>536.4</ele>
        <time>2019-05-12T07:34:52Z</time>
      </trkpt>
      <trkpt lat="39.1906690" lon="-1.4304750">
        <ele>536.2</ele>
        <time>2019-05-12T07:34:53Z</time>
      </trkpt>
      <trkpt lat="39.1905840" lon="-1.4304460">
        <ele>536.0</ele>
        <time>2019-05-12T07:34:54Z</time>
      </trkpt>
      <trkpt lat="39.1905010" lon="-1.4304170">
        <ele>535.8</ele>
        <time>2019-05-12T07:34:55Z</time>
      </trkpt>
      <trkpt lat="39.1904190" lon="-1.4303860">
        <ele>535.8</ele>
        <time>2019-05-12T07:34:56Z</time>
      </trkpt>
      <trkpt lat="39.1903400" lon="-1.4303560">
        <ele>535.6</ele>
        <time>2019-05-12T07:34:57Z</time>
      </trkpt>
      <trkpt lat="39.1902630" lon="-1.4303200">
        <ele>535.4</ele>
        <time>2019-05-12T07:34:58Z</time>
      </trkpt>
      <trkpt lat="39.1901910" lon="-1.4302700">
        <ele>535.2</ele>
        <time>2019-05-12T07:34:59Z</time>
      </trkpt>
      <trkpt lat="39.1901270" lon="-1.4302090">
        <ele>535.0</ele>
        <time>2019-05-12T07:35:00Z</time>
      </trkpt>
      <trkpt lat="39.1900740" lon="-1.4301310">
        <ele>535.0</ele>
        <time>2019-05-12T07:35:01Z</time>
      </trkpt>
      <trkpt lat="39.1900240" lon="-1.4300500">
        <ele>535.0</ele>
        <time>2019-05-12T07:35:02Z</time>
      </trkpt>
      <trkpt lat="39.1899800" lon="-1.4299680">
        <ele>534.8</ele>
        <time>2019-05-12T07:35:03Z</time>
      </trkpt>
      <trkpt lat="39.1899430" lon="-1.4298810">
        <ele>534.8</ele>
        <time>2019-05-12T07:35:04Z</time>
      </trkpt>
      <trkpt lat="39.1899150" lon="-1.4297880">
        <ele>534.6</ele>
        <time>2019-05-12T07:35:05Z</time>
      </trkpt>
      <trkpt lat="39.1899120" lon="-1.4296870">
        <ele>534.4</ele>
        <time>2019-05-12T07:35:06Z</time>
      </trkpt>
      <trkpt lat="39.1899270" lon="-1.4295940">
        <ele>534.4</ele>
        <time>2019-05-12T07:35:07Z</time>
      </trkpt>
      <trkpt lat="39.1899520" lon="-1.4295100">
        <ele>534.4</ele>
        <time>2019-05-12T07:35:08Z</time>
      </trkpt>
      <trkpt lat="39.1899820" lon="-1.4294360">
        <ele>534.4</ele>
        <time>2019-05-12T07:35:09Z</time>
      </trkpt>
      <trkpt lat="39.1900240" lon="-1.4293710">
        <ele>534.4</ele>
        <time>2019-05-12T07:35:10Z</time>
      </trkpt>
      <trkpt lat="39.1900730" lon="-1.4293140">
        <ele>534.4</ele>
        <time>2019-05-12T07:35:11Z</time>
      </trkpt>
      <trkpt lat="39.1901310" lon="-1.4292660">
        <ele>534.4</ele>
        <time>2019-05-12T07:35:12Z</time>
      </trkpt>
      <trkpt lat="39.1901960" lon="-1.4292290">
        <ele>534.4</ele>
        <time>2019-05-12T07:35:13Z</time>
      </trkpt>
      <trkpt lat="39.1902670" lon="-1.4291930">
        <ele>534.4</ele>
        <time>2019-05-12T07:35:14Z</time>
      </trkpt>
      <trkpt lat="39.1903430" lon="-1.4291650">
        <ele>534.4</ele>
        <time>2019-05-12T07:35:15Z</time>
      </trkpt>
      <trkpt lat="39.1904230" lon="-1.4291360">
        <ele>534.4</ele>
        <time>2019-05-12T07:35:16Z</time>
      </trkpt>
      <trkpt lat="39.1905080" lon="-1.4291050">
        <ele>534.4</ele>
        <time>2019-05-12T07:35:17Z</time>
      </trkpt>
      <trkpt lat="39.1905970" lon="-1.4290790">
        <ele>534.4</ele>
        <time>2019-05-12T07:35:18Z</time>
      </trkpt>
      <trkpt lat="39.1906700" lon="-1.4290710">
        <ele>534.4</ele>
        <time>2019-05-12T07:35:19Z</time>
      </trkpt>
      <trkpt lat="39.1907230" lon="-1.4290420">
        <ele>534.4</ele>
        <time>2019-05-12T07:35:20Z</time>
      </trkpt>
      <trkpt lat="39.1907750" lon="-1.4290160">
        <ele>534.4</ele>
        <time>2019-05-12T07:35:21Z</time>
      </trkpt>
      <trkpt lat="39.1908320" lon="-1.4290030">
        <ele>534.4</ele>
        <time>2019-05-12T07:35:22Z</time>
      </trkpt>
      <trkpt lat="39.1908790" lon="-1.4289970">
        <ele>534.4</ele>
        <time>2019-05-12T07:35:23Z</time>
      </trkpt>
      <trkpt lat="39.1909240" lon="-1.4289930">
        <ele>534.2</ele>
        <time>2019-05-12T07:35:24Z</time>
      </trkpt>
      <trkpt lat="39.1909590" lon="-1.4289930">
        <ele>533.4</ele>
        <time>2019-05-12T07:35:25Z</time>
      </trkpt>
      <trkpt lat="39.1909900" lon="-1.4289950">
        <ele>532.8</ele>
        <time>2019-05-12T07:35:26Z</time>
      </trkpt>
      <trkpt lat="39.1910140" lon="-1.4289920">
        <ele>532.4</ele>
        <time>2019-05-12T07:35:27Z</time>
      </trkpt>
      <trkpt lat="39.1910380" lon="-1.4289960">
        <ele>532.2</ele>
        <time>2019-05-12T07:35:28Z</time>
      </trkpt>
      <trkpt lat="39.1910600" lon="-1.4289980">
        <ele>532.2</ele>
        <time>2019-05-12T07:35:29Z</time>
      </trkpt>
      <trkpt lat="39.1910800" lon="-1.4289990">
        <ele>532.2</ele>
        <time>2019-05-12T07:35:30Z</time>
      </trkpt>
      <trkpt lat="39.1910980" lon="-1.4289980">
        <ele>532.0</ele>
        <time>2019-05-12T07:35:31Z</time>
      </trkpt>
      <trkpt lat="39.1911170" lon="-1.4289980">
        <ele>532.0</ele>
        <time>2019-05-12T07:35:32Z</time>
      </trkpt>
      <trkpt lat="39.1911390" lon="-1.4290000">
        <ele>532.0</ele>
        <time>2019-05-12T07:35:33Z</time>
      </trkpt>
      <trkpt lat="39.1911570" lon="-1.4289940">
        <ele>532.0</ele>
        <time>2019-05-12T07:35:34Z</time>
      </trkpt>
      <trkpt lat="39.1911740" lon="-1.4289830">
        <ele>532.0</ele>
        <time>2019-05-12T07:35:35Z</time>
      </trkpt>
      <trkpt lat="39.1911920" lon="-1.4289780">
        <ele>532.2</ele>
        <time>2019-05-12T07:35:36Z</time>
      </trkpt>
      <trkpt lat="39.1912100" lon="-1.4289750">
        <ele>532.6</ele>
        <time>2019-05-12T07:35:37Z</time>
      </trkpt>
      <trkpt lat="39.1912270" lon="-1.4289730">
        <ele>533.0</ele>
        <time>2019-05-12T07:35:38Z</time>
      </trkpt>
      <trkpt lat="39.1912480" lon="-1.4289740">
        <ele>533.4</ele>
        <time>2019-05-12T07:35:39Z</time>
      </trkpt>
      <trkpt lat="39.1912710" lon="-1.4289790">
        <ele>533.8</ele>
        <time>2019-05-12T07:35:40Z</time>
      </trkpt>
      <trkpt lat="39.1912910" lon="-1.4289820">
        <ele>534.0</ele>
        <time>2019-05-12T07:35:41Z</time>
      </trkpt>
      <trkpt lat="39.1913090" lon="-1.4289770">
        <ele>534.4</ele>
        <time>2019-05-12T07:35:42Z</time>
      </trkpt>
      <trkpt lat="39.1913240" lon="-1.4289730">
        <ele>534.8</ele>
        <time>2019-05-12T07:35:43Z</time>
      </trkpt>
      <trkpt lat="39.1913430" lon="-1.4289670">
        <ele>535.0</ele>
        <time>2019-05-12T07:35:44Z</time>
      </trkpt>
      <trkpt lat="39.1913600" lon="-1.4289640">
        <ele>535.4</ele>
        <time>2019-05-12T07:35:45Z</time>
      </trkpt>
      <trkpt lat="39.1913800" lon="-1.4289670">
        <ele>535.8</ele>
        <time>2019-05-12T07:35:46Z</time>
      </trkpt>
      <trkpt lat="39.1914000" lon="-1.4289650">
        <ele>536.2</ele>
        <time>2019-05-12T07:35:47Z</time>
      </trkpt>
      <trkpt lat="39.1914180" lon="-1.4289620">
        <ele>536.4</ele>
        <time>2019-05-12T07:35:48Z</time>
      </trkpt>
      <trkpt lat="39.1914400" lon="-1.4289550">
        <ele>536.8</ele>
        <time>2019-05-12T07:35:49Z</time>
      </trkpt>
      <trkpt lat="39.1914600" lon="-1.4289510">
        <ele>537.0</ele>
        <time>2019-05-12T07:35:50Z</time>
      </trkpt>
      <trkpt lat="39.1914780" lon="-1.4289460">
        <ele>537.4</ele>
        <time>2019-05-12T07:35:51Z</time>
      </trkpt>
      <trkpt lat="39.1914980" lon="-1.4289410">
        <ele>537.8</ele>
        <time>2019-05-12T07:35:52Z</time>
      </trkpt>
      <trkpt lat="39.1915180" lon="-1.4289360">
        <ele>538.2</ele>
        <time>2019-05-12T07:35:53Z</time>
      </trkpt>
      <trkpt lat="39.1915380" lon="-1.4289310">
        <ele>538.6</ele>
        <time>2019-05-12T07:35:54Z</time>
      </trkpt>
      <trkpt lat="39.1915610" lon="-1.4289260">
        <ele>539.0</ele>
        <time>2019-05-12T07:35:55Z</time>
      </trkpt>
      <trkpt lat="39.1915830" lon="-1.4289220">
        <ele>539.4</ele>
        <time>2019-05-12T07:35:56Z</time>
      </trkpt>
      <trkpt lat="39.1916040" lon="-1.4289240">
        <ele>539.6</ele>
        <time>2019-05-12T07:35:57Z</time>
      </trkpt>
      <trkpt lat="39.1916220" lon="-1.4289290">
        <ele>540.0</ele>
        <time>2019-05-12T07:35:58Z</time>
      </trkpt>
      <trkpt lat="39.1916380" lon="-1.4289390">
        <ele>540.2</ele>
        <time>2019-05-12T07:35:59Z</time>
      </trkpt>
      <trkpt lat="39.1916500" lon="-1.4289600">
        <ele>541.0</ele>
        <time>2019-05-12T07:36:00Z</time>
      </trkpt>
      <trkpt lat="39.1916600" lon="-1.4289810">
        <ele>541.2</ele>
        <time>2019-05-12T07:36:01Z</time>
      </trkpt>
      <trkpt lat="39.1916710" lon="-1.4290020">
        <ele>541.6</ele>
        <time>2019-05-12T07:36:02Z</time>
      </trkpt>
      <trkpt lat="39.1916870" lon="-1.4290190">
        <ele>541.8</ele>
        <time>2019-05-12T07:36:03Z</time>
      </trkpt>
      <trkpt lat="39.1917050" lon="-1.4290370">
        <ele>542.0</ele>
        <time>2019-05-12T07:36:04Z</time>
      </trkpt>
      <trkpt lat="39.1917250" lon="-1.4290570">
        <ele>542.2</ele>
        <time>2019-05-12T07:36:05Z</time>
      </trkpt>
      <trkpt lat="39.1917470" lon="-1.4290790">
        <ele>542.6</ele>
        <time>2019-05-12T07:36:06Z</time>
      </trkpt>
      <trkpt lat="39.1917680" lon="-1.4290970">
        <ele>543.0</ele>
        <time>2019-05-12T07:36:07Z</time>
      </trkpt>
      <trkpt lat="39.1917900" lon="-1.4291110">
        <ele>543.2</ele>
        <time>2019-05-12T07:36:08Z</time>
      </trkpt>
      <trkpt lat="39.1918110" lon="-1.4291260">
        <ele>543.6</ele>
        <time>2019-05-12T07:36:09Z</time>
      </trkpt>
      <trkpt lat="39.1918280" lon="-1.4291440">
        <ele>544.2</ele>
        <time>2019-05-12T07:36:10Z</time>
      </trkpt>
      <trkpt lat="39.1918450" lon="-1.4291600">
        <ele>544.4</ele>
        <time>2019-05-12T07:36:11Z</time>
      </trkpt>
      <trkpt lat="39.1918640" lon="-1.4291690">
        <ele>544.6</ele>
        <time>2019-05-12T07:36:12Z</time>
      </trkpt>
      <trkpt lat="39.1918800" lon="-1.4291820">
        <ele>544.8</ele>
        <time>2019-05-12T07:36:13Z</time>
      </trkpt>
      <trkpt lat="39.1918960" lon="-1.4291960">
        <ele>545.0</ele>
        <time>2019-05-12T07:36:14Z</time>
      </trkpt>
      <trkpt lat="39.1919150" lon="-1.4292050">
        <ele>545.0</ele>
        <time>2019-05-12T07:36:15Z</time>
      </trkpt>
      <trkpt lat="39.1919360" lon="-1.4292210">
        <ele>545.2</ele>
        <time>2019-05-12T07:36:16Z</time>
      </trkpt>
      <trkpt lat="39.1919590" lon="-1.4292240">
        <ele>545.6</ele>
        <time>2019-05-12T07:36:17Z</time>
      </trkpt>
      <trkpt lat="39.1919790" lon="-1.4292330">
        <ele>545.8</ele>
        <time>2019-05-12T07:36:18Z</time>
      </trkpt>
      <trkpt lat="39.1920010" lon="-1.4292420">
        <ele>546.0</ele>
        <time>2019-05-12T07:36:19Z</time>
      </trkpt>
      <trkpt lat="39.1920240" lon="-1.4292480">
        <ele>546.4</ele>
        <time>2019-05-12T07:36:20Z</time>
      </trkpt>
      <trkpt lat="39.1920470" lon="-1.4292560">
        <ele>546.6</ele>
        <time>2019-05-12T07:36:21Z</time>
      </trkpt>
      <trkpt lat="39.1920690" lon="-1.4292650">
        <ele>547.0</ele>
        <time>2019-05-12T07:36:22Z</time>
      </trkpt>
      <trkpt lat="39.1920870" lon="-1.4292760">
        <ele>547.2</ele>
        <time>2019-05-12T07:36:23Z</time>
      </trkpt>
      <trkpt lat="39.1920980" lon="-1.4292990">
        <ele>547.6</ele>
        <time>2019-05-12T07:36:24Z</time>
      </trkpt>
      <trkpt lat="39.1921150" lon="-1.4292930">
        <ele>547.8</ele>
        <time>2019-05-12T07:36:25Z</time>
      </trkpt>
      <trkpt lat="39.1921410" lon="-1.4292640">
        <ele>548.2</ele>
        <time>2019-05-12T07:36:26Z</time>
      </trkpt>
      <trkpt lat="39.1921700" lon="-1.4292220">
        <ele>548.4</ele>
        <time>2019-05-12T07:36:27Z</time>
      </trkpt>
      <trkpt lat="39.1922040" lon="-1.4291830">
        <ele>548.6</ele>
        <time>2019-05-12T07:36:28Z</time>
      </trkpt>
      <trkpt lat="39.1922510" lon="-1.4291550">
        <ele>548.4</ele>
        <time>2019-05-12T07:36:29Z</time>
      </trkpt>
      <trkpt lat="39.1923200" lon="-1.4291510">
        <ele>548.4</ele>
        <time>2019-05-12T07:36:30Z</time>
      </trkpt>
      <trkpt lat="39.1923980" lon="-1.4291510">
        <ele>548.4</ele>
        <time>2019-05-12T07:36:31Z</time>
      </trkpt>
      <trkpt lat="39.1924870" lon="-1.4291580">
        <ele>548.4</ele>
        <time>2019-05-12T07:36:32Z</time>
      </trkpt>
      <trkpt lat="39.1925800" lon="-1.4291660">
        <ele>548.4</ele>
        <time>2019-05-12T07:36:33Z</time>
      </trkpt>
      <trkpt lat="39.1926690" lon="-1.4291690">
        <ele>548.4</ele>
        <time>2019-05-12T07:36:34Z</time>
      </trkpt>
      <trkpt lat="39.1927570" lon="-1.4291690">
        <ele>548.4</ele>
        <time>2019-05-12T07:36:35Z</time>
      </trkpt>
      <trkpt lat="39.1928430" lon="-1.4291590">
        <ele>548.2</ele>
        <time>2019-05-12T07:36:36Z</time>
      </trkpt>
      <trkpt lat="39.1929270" lon="-1.4291450">
        <ele>548.0</ele>
        <time>2019-05-12T07:36:37Z</time>
      </trkpt>
      <trkpt lat="39.1930100" lon="-1.4291280">
        <ele>547.4</ele>
        <time>2019-05-12T07:36:38Z</time>
      </trkpt>
      <trkpt lat="39.1930920" lon="-1.4291150">
        <ele>546.8</ele>
        <time>2019-05-12T07:36:39Z</time>
      </trkpt>
      <trkpt lat="39.1931700" lon="-1.4291070">
        <ele>546.0</ele>
        <time>2019-05-12T07:36:40Z</time>
      </trkpt>
      <trkpt lat="39.1932450" lon="-1.4291010">
        <ele>545.6</ele>
        <time>2019-05-12T07:36:41Z</time>
      </trkpt>
      <trkpt lat="39.1933150" lon="-1.4291110">
        <ele>545.2</ele>
        <time>2019-05-12T07:36:42Z</time>
      </trkpt>
      <trkpt lat="39.1933770" lon="-1.4291270">
        <ele>545.0</ele>
        <time>2019-05-12T07:36:43Z</time>
      </trkpt>
      <trkpt lat="39.1934310" lon="-1.4291460">
        <ele>544.6</ele>
        <time>2019-05-12T07:36:44Z</time>
      </trkpt>
      <trkpt lat="39.1934770" lon="-1.4291690">
        <ele>544.4</ele>
        <time>2019-05-12T07:36:45Z</time>
      </trkpt>
      <trkpt lat="39.1935120" lon="-1.4291810">
        <ele>544.4</ele>
        <time>2019-05-12T07:36:46Z</time>
      </trkpt>
      <trkpt lat="39.1935420" lon="-1.4291960">
        <ele>544.4</ele>
        <time>2019-05-12T07:36:47Z</time>
      </trkpt>
      <trkpt lat="39.1935810" lon="-1.4292000">
        <ele>544.2</ele>
        <time>2019-05-12T07:36:48Z</time>
      </trkpt>
      <trkpt lat="39.1936300" lon="-1.4291940">
        <ele>544.2</ele>
        <time>2019-05-12T07:36:49Z</time>
      </trkpt>
      <trkpt lat="39.1936880" lon="-1.4291770">
        <ele>544.2</ele>
        <time>2019-05-12T07:36:50Z</time>
      </trkpt>
      <trkpt lat="39.1937460" lon="-1.4291530">
        <ele>544.0</ele>
        <time>2019-05-12T07:36:51Z</time>
      </trkpt>
      <trkpt lat="39.1938130" lon="-1.4291160">
        <ele>544.0</ele>
        <time>2019-05-12T07:36:52Z</time>
      </trkpt>
      <trkpt lat="39.1938810" lon="-1.4290770">
        <ele>543.8</ele>
        <time>2019-05-12T07:36:53Z</time>
      </trkpt>
      <trkpt lat="39.1939600" lon="-1.4290370">
        <ele>543.8</ele>
        <time>2019-05-12T07:36:54Z</time>
      </trkpt>
      <trkpt lat="39.1940420" lon="-1.4289990">
        <ele>543.6</ele>
        <time>2019-05-12T07:36:55Z</time>
      </trkpt>
      <trkpt lat="39.1941320" lon="-1.4289630">
        <ele>543.6</ele>
        <time>2019-05-12T07:36:56Z</time>
      </trkpt>
      <trkpt lat="39.1942170" lon="-1.4289390">
        <ele>543.4</ele>
        <time>2019-05-12T07:36:57Z</time>
      </trkpt>
      <trkpt lat="39.1943070" lon="-1.4289250">
        <ele>543.2</ele>
        <time>2019-05-12T07:36:58Z</time>
      </trkpt>
      <trkpt lat="39.1943810" lon="-1.4289050">
        <ele>542.6</ele>
        <time>2019-05-12T07:36:59Z</time>
      </trkpt>
      <trkpt lat="39.1944430" lon="-1.4288840">
        <ele>542.0</ele>
        <time>2019-05-12T07:37:00Z</time>
      </trkpt>
      <trkpt lat="39.1944850" lon="-1.4288660">
        <ele>541.4</ele>
        <time>2019-05-12T07:37:01Z</time>
      </trkpt>
      <trkpt lat="39.1945160" lon="-1.4288460">
        <ele>540.6</ele>
        <time>2019-05-12T07:37:02Z</time>
      </trkpt>
      <trkpt lat="39.1945340" lon="-1.4288200">
        <ele>540.2</ele>
        <time>2019-05-12T07:37:03Z</time>
      </trkpt>
      <trkpt lat="39.1945400" lon="-1.4287880">
        <ele>539.8</ele>
        <time>2019-05-12T07:37:04Z</time>
      </trkpt>
      <trkpt lat="39.1945430" lon="-1.4287500">
        <ele>539.4</ele>
        <time>2019-05-12T07:37:05Z</time>
      </trkpt>
      <trkpt lat="39.1945300" lon="-1.4287110">
        <ele>539.2</ele>
        <time>2019-05-12T07:37:06Z</time>
      </trkpt>
      <trkpt lat="39.1944940" lon="-1.4286870">
        <ele>539.0</ele>
        <time>2019-05-12T07:37:07Z</time>
      </trkpt>
      <trkpt lat="39.1944420" lon="-1.4286820">
        <ele>538.8</ele>
        <time>2019-05-12T07:37:08Z</time>
      </trkpt>
      <trkpt lat="39.1943870" lon="-1.4286890">
        <ele>538.4</ele>
        <time>2019-05-12T07:37:09Z</time>
      </trkpt>
      <trkpt lat="39.1943330" lon="-1.4286990">
        <ele>538.2</ele>
        <time>2019-05-12T07:37:10Z</time>
      </trkpt>
      <trkpt lat="39.1942840" lon="-1.4287100">
        <ele>538.2</ele>
        <time>2019-05-12T07:37:11Z</time>
      </trkpt>
      <trkpt lat="39.1942410" lon="-1.4286990">
        <ele>537.8</ele>
        <time>2019-05-12T07:37:12Z</time>
      </trkpt>
      <trkpt lat="39.1941960" lon="-1.4286780">
        <ele>537.4</ele>
        <time>2019-05-12T07:37:13Z</time>
      </trkpt>
      <trkpt lat="39.1941490" lon="-1.4286630">
        <ele>536.6</ele>
        <time>2019-05-12T07:37:14Z</time>
      </trkpt>
      <trkpt lat="39.1940990" lon="-1.4286530">
        <ele>536.2</ele>
        <time>2019-05-12T07:37:15Z</time>
      </trkpt>
      <trkpt lat="39.1940500" lon="-1.4286350">
        <ele>535.8</ele>
        <time>2019-05-12T07:37:16Z</time>
      </trkpt>
      <trkpt lat="39.1940050" lon="-1.4286100">
        <ele>535.4</ele>
        <time>2019-05-12T07:37:17Z</time>
      </trkpt>
      <trkpt lat="39.1939700" lon="-1.4285720">
        <ele>535.2</ele>
        <time>2019-05-12T07:37:18Z</time>
      </trkpt>
      <trkpt lat="39.1939590" lon="-1.4285150">
        <ele>534.8</ele>
        <time>2019-05-12T07:37:19Z</time>
      </trkpt>
      <trkpt lat="39.1939540" lon="-1.4284520">
        <ele>534.2</ele>
        <time>2019-05-12T07:37:20Z</time>
      </trkpt>
      <trkpt lat="39.1939500" lon="-1.4284020">
        <ele>533.6</ele>
        <time>2019-05-12T07:37:21Z</time>
      </trkpt>
      <trkpt lat="39.1939440" lon="-1.4283570">
        <ele>532.8</ele>
        <time>2019-05-12T07:37:22Z</time>
      </trkpt>
      <trkpt lat="39.1939330" lon="-1.4283260">
        <ele>531.8</ele>
        <time>2019-05-12T07:37:23Z</time>
      </trkpt>
      <trkpt lat="39.1939100" lon="-1.4283080">
        <ele>530.8</ele>
        <time>2019-05-12T07:37:24Z</time>
      </trkpt>
      <trkpt lat="39.1938800" lon="-1.4283100">
        <ele>529.6</ele>
        <time>2019-05-12T07:37:25Z</time>
      </trkpt>
      <trkpt lat="39.1938420" lon="-1.4283170">
        <ele>528.8</ele>
        <time>2019-05-12T07:37:26Z</time>
      </trkpt>
      <trkpt lat="39.1937970" lon="-1.4283200">
        <ele>528.4</ele>
        <time>2019-05-12T07:37:27Z</time>
      </trkpt>
      <trkpt lat="39.1937570" lon="-1.4283310">
        <ele>528.0</ele>
        <time>2019-05-12T07:37:28Z</time>
      </trkpt>
      <trkpt lat="39.1937090" lon="-1.4283390">
        <ele>527.8</ele>
        <time>2019-05-12T07:37:29Z</time>
      </trkpt>
      <trkpt lat="39.1936660" lon="-1.4283390">
        <ele>527.6</ele>
        <time>2019-05-12T07:37:30Z</time>
      </trkpt>
      <trkpt lat="39.1936340" lon="-1.4283480">
        <ele>527.4</ele>
        <time>2019-05-12T07:37:31Z</time>
      </trkpt>
      <trkpt lat="39.1935980" lon="-1.4283600">
        <ele>527.2</ele>
        <time>2019-05-12T07:37:32Z</time>
      </trkpt>
      <trkpt lat="39.1935630" lon="-1.4283680">
        <ele>527.2</ele>
        <time>2019-05-12T07:37:33Z</time>
      </trkpt>
      <trkpt lat="39.1935330" lon="-1.4283690">
        <ele>526.8</ele>
        <time>2019-05-12T07:37:34Z</time>
      </trkpt>
      <trkpt lat="39.1935040" lon="-1.4283720">
        <ele>526.8</ele>
        <time>2019-05-12T07:37:35Z</time>
      </trkpt>
      <trkpt lat="39.1934780" lon="-1.4283770">
        <ele>526.6</ele>
        <time>2019-05-12T07:37:36Z</time>
      </trkpt>
      <trkpt lat="39.1934500" lon="-1.4283840">
        <ele>526.4</ele>
        <time>2019-05-12T07:37:37Z</time>
      </trkpt>
      <trkpt lat="39.1934200" lon="-1.4283980">
        <ele>526.4</ele>
        <time>2019-05-12T07:37:38Z</time>
      </trkpt>
      <trkpt lat="39.1933900" lon="-1.4284180">
        <ele>526.2</ele>
        <time>2019-05-12T07:37:39Z</time>
      </trkpt>
      <trkpt lat="39.1933530" lon="-1.4284320">
        <ele>526.0</ele>
        <time>2019-05-12T07:37:40Z</time>
      </trkpt>
      <trkpt lat="39.1933120" lon="-1.4284500">
        <ele>525.8</ele>
        <time>2019-05-12T07:37:41Z</time>
      </trkpt>
      <trkpt lat="39.1932710" lon="-1.4284720">
        <ele>525.6</ele>
        <time>2019-05-12T07:37:42Z</time>
      </trkpt>
      <trkpt lat="39.1932290" lon="-1.4284960">
        <ele>525.4</ele>
        <time>2019-05-12T07:37:43Z</time>
      </trkpt>
      <trkpt lat="39.1931930" lon="-1.4285150">
        <ele>525.4</ele>
        <time>2019-05-12T07:37:44Z</time>
      </trkpt>
      <trkpt lat="39.1931650" lon="-1.4285290">
        <ele>525.4</ele>
        <time>2019-05-12T07:37:45Z</time>
      </trkpt>
      <trkpt lat="39.1931290" lon="-1.4285450">
        <ele>525.4</ele>
        <time>2019-05-12T07:37:46Z</time>
      </trkpt>
      <trkpt lat="39.1930860" lon="-1.4285640">
        <ele>525.4</ele>
        <time>2019-05-12T07:37:47Z</time>
      </trkpt>
      <trkpt lat="39.1930370" lon="-1.4285830">
        <ele>525.4</ele>
        <time>2019-05-12T07:37:48Z</time>
      </trkpt>
      <trkpt lat="39.1929900" lon="-1.4285940">
        <ele>525.4</ele>
        <time>2019-05-12T07:37:49Z</time>
      </trkpt>
      <trkpt lat="39.1929460" lon="-1.4285980">
        <ele>525.4</ele>
        <time>2019-05-12T07:37:50Z</time>
      </trkpt>
      <trkpt lat="39.1928990" lon="-1.4286060">
        <ele>525.4</ele>
        <time>2019-05-12T07:37:51Z</time>
      </trkpt>
      <trkpt lat="39.1928410" lon="-1.4286170">
        <ele>525.4</ele>
        <time>2019-05-12T07:37:52Z</time>
      </trkpt>
      <trkpt lat="39.1927790" lon="-1.4286230">
        <ele>525.4</ele>
        <time>2019-05-12T07:37:53Z</time>
      </trkpt>
      <trkpt lat="39.1927170" lon="-1.4286280">
        <ele>525.6</ele>
        <time>2019-05-12T07:37:54Z</time>
      </trkpt>
      <trkpt lat="39.1926570" lon="-1.4286360">
        <ele>525.6</ele>
        <time>2019-05-12T07:37:55Z</time>
      </trkpt>
      <trkpt lat="39.1926000" lon="-1.4286460">
        <ele>525.6</ele>
        <time>2019-05-12T07:37:56Z</time>
      </trkpt>
      <trkpt lat="39.1925430" lon="-1.4286590">
        <ele>525.6</ele>
        <time>2019-05-12T07:37:57Z</time>
      </trkpt>
      <trkpt lat="39.1924860" lon="-1.4286660">
        <ele>525.8</ele>
        <time>2019-05-12T07:37:58Z</time>
      </trkpt>
      <trkpt lat="39.1924300" lon="-1.4286720">
        <ele>525.8</ele>
        <time>2019-05-12T07:37:59Z</time>
      </trkpt>
      <trkpt lat="39.1923780" lon="-1.4286810">
        <ele>525.8</ele>
        <time>2019-05-12T07:38:00Z</time>
      </trkpt>
      <trkpt lat="39.1923250" lon="-1.4286910">
        <ele>525.8</ele>
        <time>2019-05-12T07:38:01Z</time>
      </trkpt>
      <trkpt lat="39.1922740" lon="-1.4287030">
        <ele>526.0</ele>
        <time>2019-05-12T07:38:02Z</time>
      </trkpt>
      <trkpt lat="39.1922250" lon="-1.4287150">
        <ele>526.2</ele>
        <time>2019-05-12T07:38:03Z</time>
      </trkpt>
      <trkpt lat="39.1921760" lon="-1.4287280">
        <ele>526.2</ele>
        <time>2019-05-12T07:38:04Z</time>
      </trkpt>
      <trkpt lat="39.1921280" lon="-1.4287410">
        <ele>526.2</ele>
        <time>2019-05-12T07:38:05Z</time>
      </trkpt>
      <trkpt lat="39.1920790" lon="-1.4287490">
        <ele>526.2</ele>
        <time>2019-05-12T07:38:06Z</time>
      </trkpt>
      <trkpt lat="39.1920310" lon="-1.4287580">
        <ele>526.2</ele>
        <time>2019-05-12T07:38:07Z</time>
      </trkpt>
      <trkpt lat="39.1919870" lon="-1.4287700">
        <ele>526.2</ele>
        <time>2019-05-12T07:38:08Z</time>
      </trkpt>
      <trkpt lat="39.1919480" lon="-1.4287830">
        <ele>526.2</ele>
        <time>2019-05-12T07:38:09Z</time>
      </trkpt>
      <trkpt lat="39.1919100" lon="-1.4287940">
        <ele>526.2</ele>
        <time>2019-05-12T07:38:10Z</time>
      </trkpt>
      <trkpt lat="39.1918720" lon="-1.4288070">
        <ele>526.2</ele>
        <time>2019-05-12T07:38:11Z</time>
      </trkpt>
      <trkpt lat="39.1918390" lon="-1.4288200">
        <ele>526.2</ele>
        <time>2019-05-12T07:38:12Z</time>
      </trkpt>
      <trkpt lat="39.1917960" lon="-1.4288300">
        <ele>526.2</ele>
        <time>2019-05-12T07:38:13Z</time>
      </trkpt>
      <trkpt lat="39.1917560" lon="-1.4288410">
        <ele>526.2</ele>
        <time>2019-05-12T07:38:14Z</time>
      </trkpt>
      <trkpt lat="39.1917120" lon="-1.4288470">
        <ele>526.2</ele>
        <time>2019-05-12T07:38:15Z</time>
      </trkpt>
      <trkpt lat="39.1916620" lon="-1.4288580">
        <ele>526.2</ele>
        <time>2019-05-12T07:38:16Z</time>
      </trkpt>
      <trkpt lat="39.1916070" lon="-1.4288650">
        <ele>526.4</ele>
        <time>2019-05-12T07:38:17Z</time>
      </trkpt>
      <trkpt lat="39.1915580" lon="-1.4288730">
        <ele>526.4</ele>
        <time>2019-05-12T07:38:18Z</time>
      </trkpt>
      <trkpt lat="39.1915080" lon="-1.4288810">
        <ele>526.4</ele>
        <time>2019-05-12T07:38:19Z</time>
      </trkpt>
      <trkpt lat="39.1914590" lon="-1.4288940">
        <ele>526.4</ele>
        <time>2019-05-12T07:38:20Z</time>
      </trkpt>
      <trkpt lat="39.1914140" lon="-1.4289070">
        <ele>526.4</ele>
        <time>2019-05-12T07:38:21Z</time>
      </trkpt>
      <trkpt lat="39.1913590" lon="-1.4289210">
        <ele>526.4</ele>
        <time>2019-05-12T07:38:22Z</time>
      </trkpt>
      <trkpt lat="39.1913030" lon="-1.4289350">
        <ele>526.4</ele>
        <time>2019-05-12T07:38:23Z</time>
      </trkpt>
      <trkpt lat="39.1912500" lon="-1.4289460">
        <ele>526.4</ele>
        <time>2019-05-12T07:38:24Z</time>
      </trkpt>
      <trkpt lat="39.1911960" lon="-1.4289560">
        <ele>526.6</ele>
        <time>2019-05-12T07:38:25Z</time>
      </trkpt>
      <trkpt lat="39.1911470" lon="-1.4289570">
        <ele>526.6</ele>
        <time>2019-05-12T07:38:26Z</time>
      </trkpt>
      <trkpt lat="39.1911120" lon="-1.4289480">
        <ele>526.6</ele>
        <time>2019-05-12T07:38:27Z</time>
      </trkpt>
      <trkpt lat="39.1910830" lon="-1.4289430">
        <ele>526.8</ele>
        <time>2019-05-12T07:38:28Z</time>
      </trkpt>
      <trkpt lat="39.1910430" lon="-1.4289440">
        <ele>526.8</ele>
        <time>2019-05-12T07:38:29Z</time>
      </trkpt>
      <trkpt lat="39.1910010" lon="-1.4289470">
        <ele>526.8</ele>
        <time>2019-05-12T07:38:30Z</time>
      </trkpt>
      <trkpt lat="39.1909630" lon="-1.4289430">
        <ele>526.8</ele>
        <time>2019-05-12T07:38:31Z</time>
      </trkpt>
      <trkpt lat="39.1909310" lon="-1.4289210">
        <ele>526.8</ele>
        <time>2019-05-12T07:38:32Z</time>
      </trkpt>
      <trkpt lat="39.1909160" lon="-1.4288840">
        <ele>527.0</ele>
        <time>2019-05-12T07:38:33Z</time>
      </trkpt>
      <trkpt lat="39.1909130" lon="-1.4288350">
        <ele>527.2</ele>
        <time>2019-05-12T07:38:34Z</time>
      </trkpt>
      <trkpt lat="39.1909220" lon="-1.4287800">
        <ele>527.4</ele>
        <time>2019-05-12T07:38:35Z</time>
      </trkpt>
      <trkpt lat="39.1909310" lon="-1.4287240">
        <ele>528.0</ele>
        <time>2019-05-12T07:38:36Z</time>
      </trkpt>
      <trkpt lat="39.1909400" lon="-1.4286690">
        <ele>528.4</ele>
        <time>2019-05-12T07:38:37Z</time>
      </trkpt>
      <trkpt lat="39.1909460" lon="-1.4286040">
        <ele>528.6</ele>
        <time>2019-05-12T07:38:38Z</time>
      </trkpt>
      <trkpt lat="39.1909470" lon="-1.4285350">
        <ele>528.8</ele>
        <time>2019-05-12T07:38:39Z</time>
      </trkpt>
      <trkpt lat="39.1909470" lon="-1.4284560">
        <ele>529.2</ele>
        <time>2019-05-12T07:38:40Z</time>
      </trkpt>
      <trkpt lat="39.1909470" lon="-1.4283740">
        <ele>529.6</ele>
        <time>2019-05-12T07:38:41Z</time>
      </trkpt>
      <trkpt lat="39.1909480" lon="-1.4282860">
        <ele>529.6</ele>
        <time>2019-05-12T07:38:42Z</time>
      </trkpt>
      <trkpt lat="39.1909420" lon="-1.4281880">
        <ele>529.8</ele>
        <time>2019-05-12T07:38:43Z</time>
      </trkpt>
      <trkpt lat="39.1909290" lon="-1.4280830">
        <ele>529.8</ele>
        <time>2019-05-12T07:38:44Z</time>
      </trkpt>
      <trkpt lat="39.1909110" lon="-1.4279790">
        <ele>529.8</ele>
        <time>2019-05-12T07:38:45Z</time>
      </trkpt>
      <trkpt lat="39.1908940" lon="-1.4278900">
        <ele>529.8</ele>
        <time>2019-05-12T07:38:46Z</time>
      </trkpt>
      <trkpt lat="39.1908690" lon="-1.4278240">
        <ele>529.8</ele>
        <time>2019-05-12T07:38:47Z</time>
      </trkpt>
      <trkpt lat="39.1908310" lon="-1.4277860">
        <ele>529.8</ele>
        <time>2019-05-12T07:38:48Z</time>
      </trkpt>
      <trkpt lat="39.1907960" lon="-1.4277820">
        <ele>529.8</ele>
        <time>2019-05-12T07:38:49Z</time>
      </trkpt>
      <trkpt lat="39.1907600" lon="-1.4277920">
        <ele>529.8</ele>
        <time>2019-05-12T07:38:50Z</time>
      </trkpt>
      <trkpt lat="39.1907200" lon="-1.4278180">
        <ele>529.8</ele>
        <time>2019-05-12T07:38:51Z</time>
      </trkpt>
      <trkpt lat="39.1906700" lon="-1.4278560">
        <ele>529.4</ele>
        <time>2019-05-12T07:38:52Z</time>
      </trkpt>
      <trkpt lat="39.1906210" lon="-1.4278880">
        <ele>529.0</ele>
        <time>2019-05-12T07:38:53Z</time>
      </trkpt>
      <trkpt lat="39.1905720" lon="-1.4279180">
        <ele>528.8</ele>
        <time>2019-05-12T07:38:54Z</time>
      </trkpt>
      <trkpt lat="39.1905160" lon="-1.4279390">
        <ele>528.6</ele>
        <time>2019-05-12T07:38:55Z</time>
      </trkpt>
      <trkpt lat="39.1904510" lon="-1.4279350">
        <ele>528.4</ele>
        <time>2019-05-12T07:38:56Z</time>
      </trkpt>
      <trkpt lat="39.1903840" lon="-1.4279080">
        <ele>528.4</ele>
        <time>2019-05-12T07:38:57Z</time>
      </trkpt>
      <trkpt lat="39.1903220" lon="-1.4278610">
        <ele>528.4</ele>
        <time>2019-05-12T07:38:58Z</time>
      </trkpt>
      <trkpt lat="39.1902590" lon="-1.4278110">
        <ele>528.2</ele>
        <time>2019-05-12T07:38:59Z</time>
      </trkpt>
      <trkpt lat="39.1901920" lon="-1.4277680">
        <ele>528.2</ele>
        <time>2019-05-12T07:39:00Z</time>
      </trkpt>
      <trkpt lat="39.1901220" lon="-1.4277390">
        <ele>528.2</ele>
        <time>2019-05-12T07:39:01Z</time>
      </trkpt>
      <trkpt lat="39.1900520" lon="-1.4277230">
        <ele>528.2</ele>
        <time>2019-05-12T07:39:02Z</time>
      </trkpt>
      <trkpt lat="39.1899860" lon="-1.4277140">
        <ele>528.0</ele>
        <time>2019-05-12T07:39:03Z</time>
      </trkpt>
      <trkpt lat="39.1899180" lon="-1.4277070">
        <ele>528.0</ele>
        <time>2019-05-12T07:39:04Z</time>
      </trkpt>
      <trkpt lat="39.1898570" lon="-1.4277060">
        <ele>528.0</ele>
        <time>2019-05-12T07:39:05Z</time>
      </trkpt>
      <trkpt lat="39.1898020" lon="-1.4277100">
        <ele>528.0</ele>
        <time>2019-05-12T07:39:06Z</time>
      </trkpt>
      <trkpt lat="39.1897500" lon="-1.4277170">
        <ele>528.2</ele>
        <time>2019-05-12T07:39:07Z</time>
      </trkpt>
      <trkpt lat="39.1897030" lon="-1.4277350">
        <ele>528.2</ele>
        <time>2019-05-12T07:39:08Z</time>
      </trkpt>
      <trkpt lat="39.1896540" lon="-1.4277630">
        <ele>528.2</ele>
        <time>2019-05-12T07:39:09Z</time>
      </trkpt>
      <trkpt lat="39.1896000" lon="-1.4277990">
        <ele>528.2</ele>
        <time>2019-05-12T07:39:10Z</time>
      </trkpt>
      <trkpt lat="39.1895490" lon="-1.4278370">
        <ele>528.2</ele>
        <time>2019-05-12T07:39:11Z</time>
      </trkpt>
      <trkpt lat="39.1895000" lon="-1.4278810">
        <ele>528.2</ele>
        <time>2019-05-12T07:39:12Z</time>
      </trkpt>
      <trkpt lat="39.1894520" lon="-1.4279280">
        <ele>528.2</ele>
        <time>2019-05-12T07:39:13Z</time>
      </trkpt>
      <trkpt lat="39.1894090" lon="-1.4279720">
        <ele>528.6</ele>
        <time>2019-05-12T07:39:14Z</time>
      </trkpt>
      <trkpt lat="39.1893600" lon="-1.4280140">
        <ele>528.8</ele>
        <time>2019-05-12T07:39:15Z</time>
      </trkpt>
      <trkpt lat="39.1893120" lon="-1.4280530">
        <ele>529.0</ele>
        <time>2019-05-12T07:39:16Z</time>
      </trkpt>
      <trkpt lat="39.1892770" lon="-1.4280940">
        <ele>529.0</ele>
        <time>2019-05-12T07:39:17Z</time>
      </trkpt>
      <trkpt lat="39.1892410" lon="-1.4281430">
        <ele>529.0</ele>
        <time>2019-05-12T07:39:18Z</time>
      </trkpt>
      <trkpt lat="39.1891990" lon="-1.4281930">
        <ele>529.2</ele>
        <time>2019-05-12T07:39:19Z</time>
      </trkpt>
      <trkpt lat="39.1891580" lon="-1.4282410">
        <ele>529.2</ele>
        <time>2019-05-12T07:39:20Z</time>
      </trkpt>
      <trkpt lat="39.1891220" lon="-1.4282830">
        <ele>529.2</ele>
        <time>2019-05-12T07:39:21Z</time>
      </trkpt>
      <trkpt lat="39.1890950" lon="-1.4283170">
        <ele>529.2</ele>
        <time>2019-05-12T07:39:22Z</time>
      </trkpt>
      <trkpt lat="39.1890750" lon="-1.4283450">
        <ele>529.2</ele>
        <time>2019-05-12T07:39:23Z</time>
      </trkpt>
      <trkpt lat="39.1890600" lon="-1.4283720">
        <ele>529.2</ele>
        <time>2019-05-12T07:39:24Z</time>
      </trkpt>
      <trkpt lat="39.1890470" lon="-1.4283970">
        <ele>529.2</ele>
        <time>2019-05-12T07:39:25Z</time>
      </trkpt>
      <trkpt lat="39.1890290" lon="-1.4284330">
        <ele>529.4</ele>
        <time>2019-05-12T07:39:26Z</time>
      </trkpt>
      <trkpt lat="39.1890100" lon="-1.4284720">
        <ele>529.4</ele>
        <time>2019-05-12T07:39:27Z</time>
      </trkpt>
      <trkpt lat="39.1890000" lon="-1.4285190">
        <ele>529.4</ele>
        <time>2019-05-12T07:39:28Z</time>
      </trkpt>
      <trkpt lat="39.1889870" lon="-1.4285660">
        <ele>529.4</ele>
        <time>2019-05-12T07:39:29Z</time>
      </trkpt>
      <trkpt lat="39.1889670" lon="-1.4286190">
        <ele>529.4</ele>
        <time>2019-05-12T07:39:30Z</time>
      </trkpt>
      <trkpt lat="39.1889420" lon="-1.4286770">
        <ele>529.4</ele>
        <time>2019-05-12T07:39:31Z</time>
      </trkpt>
      <trkpt lat="39.1889240" lon="-1.4287360">
        <ele>529.4</ele>
        <time>2019-05-12T07:39:32Z</time>
      </trkpt>
      <trkpt lat="39.1889090" lon="-1.4288030">
        <ele>529.4</ele>
        <time>2019-05-12T07:39:33Z</time>
      </trkpt>
      <trkpt lat="39.1888850" lon="-1.4288700">
        <ele>529.4</ele>
        <time>2019-05-12T07:39:34Z</time>
      </trkpt>
      <trkpt lat="39.1888640" lon="-1.4289360">
        <ele>529.4</ele>
        <time>2019-05-12T07:39:35Z</time>
      </trkpt>
      <trkpt lat="39.1888550" lon="-1.4289960">
        <ele>529.4</ele>
        <time>2019-05-12T07:39:36Z</time>
      </trkpt>
      <trkpt lat="39.1888520" lon="-1.4290490">
        <ele>529.4</ele>
        <time>2019-05-12T07:39:37Z</time>
      </trkpt>
      <trkpt lat="39.1888470" lon="-1.4290980">
        <ele>529.4</ele>
        <time>2019-05-12T07:39:38Z</time>
      </trkpt>
      <trkpt lat="39.1888460" lon="-1.4291360">
        <ele>529.4</ele>
        <time>2019-05-12T07:39:39Z</time>
      </trkpt>
      <trkpt lat="39.1888430" lon="-1.4291740">
        <ele>529.2</ele>
        <time>2019-05-12T07:39:40Z</time>
      </trkpt>
      <trkpt lat="39.1888420" lon="-1.4292140">
        <ele>529.2</ele>
        <time>2019-05-12T07:39:41Z</time>
      </trkpt>
      <trkpt lat="39.1888420" lon="-1.4292600">
        <ele>529.2</ele>
        <time>2019-05-12T07:39:42Z</time>
      </trkpt>
      <trkpt lat="39.1888350" lon="-1.4293070">
        <ele>529.0</ele>
        <time>2019-05-12T07:39:43Z</time>
      </trkpt>
      <trkpt lat="39.1888330" lon="-1.4293520">
        <ele>528.8</ele>
        <time>2019-05-12T07:39:44Z</time>
      </trkpt>
      <trkpt lat="39.1888290" lon="-1.4293950">
        <ele>528.8</ele>
        <time>2019-05-12T07:39:45Z</time>
      </trkpt>
      <trkpt lat="39.1888290" lon="-1.4294340">
        <ele>528.6</ele>
        <time>2019-05-12T07:39:46Z</time>
      </trkpt>
      <trkpt lat="39.1888270" lon="-1.4294720">
        <ele>528.4</ele>
        <time>2019-05-12T07:39:47Z</time>
      </trkpt>
      <trkpt lat="39.1888250" lon="-1.4295050">
        <ele>528.4</ele>
        <time>2019-05-12T07:39:48Z</time>
      </trkpt>
      <trkpt lat="39.1888230" lon="-1.4295330">
        <ele>528.4</ele>
        <time>2019-05-12T07:39:49Z</time>
      </trkpt>
      <trkpt lat="39.1888210" lon="-1.4295600">
        <ele>528.2</ele>
        <time>2019-05-12T07:39:50Z</time>
      </trkpt>
      <trkpt lat="39.1888200" lon="-1.4295840">
        <ele>528.2</ele>
        <time>2019-05-12T07:39:51Z</time>
      </trkpt>
      <trkpt lat="39.1888200" lon="-1.4296070">
        <ele>528.0</ele>
        <time>2019-05-12T07:39:52Z</time>
      </trkpt>
      <trkpt lat="39.1888200" lon="-1.4296320">
        <ele>528.0</ele>
        <time>2019-05-12T07:39:53Z</time>
      </trkpt>
      <trkpt lat="39.1888220" lon="-1.4296590">
        <ele>528.0</ele>
        <time>2019-05-12T07:39:54Z</time>
      </trkpt>
      <trkpt lat="39.1888240" lon="-1.4296850">
        <ele>528.0</ele>
        <time>2019-05-12T07:39:55Z</time>
      </trkpt>
      <trkpt lat="39.1888250" lon="-1.4297100">
        <ele>527.8</ele>
        <time>2019-05-12T07:39:56Z</time>
      </trkpt>
      <trkpt lat="39.1888270" lon="-1.4297330">
        <ele>527.8</ele>
        <time>2019-05-12T07:39:57Z</time>
      </trkpt>
      <trkpt lat="39.1888280" lon="-1.4297540">
        <ele>527.8</ele>
        <time>2019-05-12T07:39:58Z</time>
      </trkpt>
      <trkpt lat="39.1888300" lon="-1.4297710">
        <ele>527.8</ele>
        <time>2019-05-12T07:39:59Z</time>
      </trkpt>
      <trkpt lat="39.1888310" lon="-1.4297900">
        <ele>527.8</ele>
        <time>2019-05-12T07:40:00Z</time>
      </trkpt>
      <trkpt lat="39.1888330" lon="-1.4298120">
        <ele>527.8</ele>
        <time>2019-05-12T07:40:01Z</time>
      </trkpt>
      <trkpt lat="39.1888340" lon="-1.4298360">
        <ele>527.8</ele>
        <time>2019-05-12T07:40:02Z</time>
      </trkpt>
      <trkpt lat="39.1888350" lon="-1.4298650">
        <ele>527.8</ele>
        <time>2019-05-12T07:40:03Z</time>
      </trkpt>
      <trkpt lat="39.1888380" lon="-1.4298940">
        <ele>527.8</ele>
        <time>2019-05-12T07:40:04Z</time>
      </trkpt>
      <trkpt lat="39.1888410" lon="-1.4299250">
        <ele>527.8</ele>
        <time>2019-05-12T07:40:05Z</time>
      </trkpt>
      <trkpt lat="39.1888410" lon="-1.4299580">
        <ele>527.8</ele>
        <time>2019-05-12T07:40:06Z</time>
      </trkpt>
      <trkpt lat="39.1888320" lon="-1.4299820">
        <ele>527.8</ele>
        <time>2019-05-12T07:40:07Z</time>
      </trkpt>
      <trkpt lat="39.1888260" lon="-1.4300070">
        <ele>527.8</ele>
        <time>2019-05-12T07:40:08Z</time>
      </trkpt>
      <trkpt lat="39.1888220" lon="-1.4300400">
        <ele>527.8</ele>
        <time>2019-05-12T07:40:09Z</time>
      </trkpt>
      <trkpt lat="39.1888220" lon="-1.4300780">
        <ele>527.8</ele>
        <time>2019-05-12T07:40:10Z</time>
      </trkpt>
      <trkpt lat="39.1888210" lon="-1.4301230">
        <ele>527.8</ele>
        <time>2019-05-12T07:40:11Z</time>
      </trkpt>
      <trkpt lat="39.1888230" lon="-1.4301710">
        <ele>527.8</ele>
        <time>2019-05-12T07:40:12Z</time>
      </trkpt>
      <trkpt lat="39.1888290" lon="-1.4302220">
        <ele>527.8</ele>
        <time>2019-05-12T07:40:13Z</time>
      </trkpt>
      <trkpt lat="39.1888380" lon="-1.4302750">
        <ele>528.0</ele>
        <time>2019-05-12T07:40:14Z</time>
      </trkpt>
      <trkpt lat="39.1888470" lon="-1.4303320">
        <ele>528.4</ele>
        <time>2019-05-12T07:40:15Z</time>
      </trkpt>
      <trkpt lat="39.1888570" lon="-1.4303910">
        <ele>528.6</ele>
        <time>2019-05-12T07:40:16Z</time>
      </trkpt>
      <trkpt lat="39.1888730" lon="-1.4304500">
        <ele>528.6</ele>
        <time>2019-05-12T07:40:17Z</time>
      </trkpt>
      <trkpt lat="39.1888950" lon="-1.4305090">
        <ele>528.8</ele>
        <time>2019-05-12T07:40:18Z</time>
      </trkpt>
      <trkpt lat="39.1889210" lon="-1.4305680">
        <ele>528.8</ele>
        <time>2019-05-12T07:40:19Z</time>
      </trkpt>
      <trkpt lat="39.1889490" lon="-1.4306280">
        <ele>529.0</ele>
        <time>2019-05-12T07:40:20Z</time>
      </trkpt>
      <trkpt lat="39.1889790" lon="-1.4306900">
        <ele>529.0</ele>
        <time>2019-05-12T07:40:21Z</time>
      </trkpt>
      <trkpt lat="39.1890150" lon="-1.4307500">
        <ele>529.0</ele>
        <time>2019-05-12T07:40:22Z</time>
      </trkpt>
      <trkpt lat="39.1890530" lon="-1.4308090">
        <ele>529.0</ele>
        <time>2019-05-12T07:40:23Z</time>
      </trkpt>
      <trkpt lat="39.1890870" lon="-1.4308730">
        <ele>529.0</ele>
        <time>2019-05-12T07:40:24Z</time>
      </trkpt>
      <trkpt lat="39.1891250" lon="-1.4309290">
        <ele>529.0</ele>
        <time>2019-05-12T07:40:25Z</time>
      </trkpt>
      <trkpt lat="39.1891650" lon="-1.4309880">
        <ele>529.0</ele>
        <time>2019-05-12T07:40:26Z</time>
      </trkpt>
      <trkpt lat="39.1892060" lon="-1.4310440">
        <ele>529.2</ele>
        <time>2019-05-12T07:40:27Z</time>
      </trkpt>
      <trkpt lat="39.1892460" lon="-1.4310970">
        <ele>529.2</ele>
        <time>2019-05-12T07:40:28Z</time>
      </trkpt>
      <trkpt lat="39.1892910" lon="-1.4311430">
        <ele>529.2</ele>
        <time>2019-05-12T07:40:29Z</time>
      </trkpt>
      <trkpt lat="39.1893320" lon="-1.4311890">
        <ele>529.2</ele>
        <time>2019-05-12T07:40:30Z</time>
      </trkpt>
      <trkpt lat="39.1893590" lon="-1.4312420">
        <ele>529.2</ele>
        <time>2019-05-12T07:40:31Z</time>
      </trkpt>
      <trkpt lat="39.1893660" lon="-1.4313010">
        <ele>529.2</ele>
        <time>2019-05-12T07:40:32Z</time>
      </trkpt>
      <trkpt lat="39.1893580" lon="-1.4313590">
        <ele>529.2</ele>
        <time>2019-05-12T07:40:33Z</time>
      </trkpt>
      <trkpt lat="39.1893450" lon="-1.4314170">
        <ele>529.2</ele>
        <time>2019-05-12T07:40:34Z</time>
      </trkpt>
      <trkpt lat="39.1893330" lon="-1.4314760">
        <ele>529.2</ele>
        <time>2019-05-12T07:40:35Z</time>
      </trkpt>
      <trkpt lat="39.1893210" lon="-1.4315280">
        <ele>529.2</ele>
        <time>2019-05-12T07:40:36Z</time>
      </trkpt>
      <trkpt lat="39.1893100" lon="-1.4315730">
        <ele>529.2</ele>
        <time>2019-05-12T07:40:37Z</time>
      </trkpt>
      <trkpt lat="39.1892990" lon="-1.4316040">
        <ele>529.2</ele>
        <time>2019-05-12T07:40:38Z</time>
      </trkpt>
      <trkpt lat="39.1892840" lon="-1.4316200">
        <ele>529.2</ele>
        <time>2019-05-12T07:40:39Z</time>
      </trkpt>
      <trkpt lat="39.1892620" lon="-1.4316220">
        <ele>529.4</ele>
        <time>2019-05-12T07:40:40Z</time>
      </trkpt>
      <trkpt lat="39.1892380" lon="-1.4316110">
        <ele>529.4</ele>
        <time>2019-05-12T07:40:41Z</time>
      </trkpt>
      <trkpt lat="39.1892180" lon="-1.4315950">
        <ele>529.4</ele>
        <time>2019-05-12T07:40:42Z</time>
      </trkpt>
      <trkpt lat="39.1892050" lon="-1.4315790">
        <ele>529.4</ele>
        <time>2019-05-12T07:40:43Z</time>
      </trkpt>
      <trkpt lat="39.1891980" lon="-1.4315620">
        <ele>529.6</ele>
        <time>2019-05-12T07:40:44Z</time>
      </trkpt>
      <trkpt lat="39.1891940" lon="-1.4315440">
        <ele>530.0</ele>
        <time>2019-05-12T07:40:45Z</time>
      </trkpt>
      <trkpt lat="39.1891890" lon="-1.4315270">
        <ele>530.6</ele>
        <time>2019-05-12T07:40:46Z</time>
      </trkpt>
      <trkpt lat="39.1891850" lon="-1.4315100">
        <ele>531.2</ele>
        <time>2019-05-12T07:40:47Z</time>
      </trkpt>
      <trkpt lat="39.1891800" lon="-1.4314990">
        <ele>531.6</ele>
        <time>2019-05-12T07:40:48Z</time>
      </trkpt>
      <trkpt lat="39.1891770" lon="-1.4314960">
        <ele>532.0</ele>
        <time>2019-05-12T07:40:49Z</time>
      </trkpt>
      <trkpt lat="39.1891730" lon="-1.4314860">
        <ele>532.4</ele>
        <time>2019-05-12T07:40:50Z</time>
      </trkpt>
      <trkpt lat="39.1891710" lon="-1.4314720">
        <ele>532.8</ele>
        <time>2019-05-12T07:40:51Z</time>
      </trkpt>
      <trkpt lat="39.1891680" lon="-1.4314570">
        <ele>533.0</ele>
        <time>2019-05-12T07:40:52Z</time>
      </trkpt>
      <trkpt lat="39.1891630" lon="-1.4314420">
        <ele>533.2</ele>
        <time>2019-05-12T07:40:53Z</time>
      </trkpt>
      <trkpt lat="39.1891550" lon="-1.4314230">
        <ele>533.2</ele>
        <time>2019-05-12T07:40:54Z</time>
      </trkpt>
      <trkpt lat="39.1891440" lon="-1.4313980">
        <ele>533.4</ele>
        <time>2019-05-12T07:40:55Z</time>
      </trkpt>
      <trkpt lat="39.1891290" lon="-1.4313660">
        <ele>533.4</ele>
        <time>2019-05-12T07:40:56Z</time>
      </trkpt>
      <trkpt lat="39.1891120" lon="-1.4313350">
        <ele>533.4</ele>
        <time>2019-05-12T07:40:57Z</time>
      </trkpt>
      <trkpt lat="39.1890890" lon="-1.4313050">
        <ele>533.4</ele>
        <time>2019-05-12T07:40:58Z</time>
      </trkpt>
      <trkpt lat="39.1890640" lon="-1.4312790">
        <ele>533.4</ele>
        <time>2019-05-12T07:40:59Z</time>
      </trkpt>
      <trkpt lat="39.1890420" lon="-1.4312570">
        <ele>533.4</ele>
        <time>2019-05-12T07:41:00Z</time>
      </trkpt>
      <trkpt lat="39.1890250" lon="-1.4312340">
        <ele>533.4</ele>
        <time>2019-05-12T07:41:01Z</time>
      </trkpt>
      <trkpt lat="39.1890050" lon="-1.4312160">
        <ele>533.4</ele>
        <time>2019-05-12T07:41:02Z</time>
      </trkpt>
      <trkpt lat="39.1889870" lon="-1.4312010">
        <ele>533.6</ele>
        <time>2019-05-12T07:41:03Z</time>
      </trkpt>
      <trkpt lat="39.1889670" lon="-1.4311830">
        <ele>533.6</ele>
        <time>2019-05-12T07:41:04Z</time>
      </trkpt>
      <trkpt lat="39.1889440" lon="-1.4311600">
        <ele>533.6</ele>
        <time>2019-05-12T07:41:05Z</time>
      </trkpt>
      <trkpt lat="39.1889200" lon="-1.4311280">
        <ele>534.0</ele>
        <time>2019-05-12T07:41:06Z</time>
      </trkpt>
      <trkpt lat="39.1888970" lon="-1.4310890">
        <ele>534.4</ele>
        <time>2019-05-12T07:41:07Z</time>
      </trkpt>
      <trkpt lat="39.1888700" lon="-1.4310360">
        <ele>535.0</ele>
        <time>2019-05-12T07:41:08Z</time>
      </trkpt>
      <trkpt lat="39.1888450" lon="-1.4309760">
        <ele>535.6</ele>
        <time>2019-05-12T07:41:09Z</time>
      </trkpt>
      <trkpt lat="39.1888200" lon="-1.4309130">
        <ele>536.2</ele>
        <time>2019-05-12T07:41:10Z</time>
      </trkpt>
      <trkpt lat="39.1887940" lon="-1.4308460">
        <ele>537.0</ele>
        <time>2019-05-12T07:41:11Z</time>
      </trkpt>
      <trkpt lat="39.1887670" lon="-1.4307750">
        <ele>537.2</ele>
        <time>2019-05-12T07:41:12Z</time>
      </trkpt>
      <trkpt lat="39.1887380" lon="-1.4307020">
        <ele>537.6</ele>
        <time>2019-05-12T07:41:13Z</time>
      </trkpt>
      <trkpt lat="39.1887090" lon="-1.4306260">
        <ele>537.6</ele>
        <time>2019-05-12T07:41:14Z</time>
      </trkpt>
      <trkpt lat="39.1886770" lon="-1.4305480">
        <ele>537.6</ele>
        <time>2019-05-12T07:41:15Z</time>
      </trkpt>
      <trkpt lat="39.1886440" lon="-1.4304740">
        <ele>537.6</ele>
        <time>2019-05-12T07:41:16Z</time>
      </trkpt>
      <trkpt lat="39.1886090" lon="-1.4303940">
        <ele>537.6</ele>
        <time>2019-05-12T07:41:17Z</time>
      </trkpt>
      <trkpt lat="39.1885730" lon="-1.4303170">
        <ele>537.6</ele>
        <time>2019-05-12T07:41:18Z</time>
      </trkpt>
      <trkpt lat="39.1885350" lon="-1.4302440">
        <ele>537.6</ele>
        <time>2019-05-12T07:41:19Z</time>
      </trkpt>
      <trkpt lat="39.1885020" lon="-1.4301790">
        <ele>537.8</ele>
        <time>2019-05-12T07:41:20Z</time>
      </trkpt>
      <trkpt lat="39.1884790" lon="-1.4301160">
        <ele>537.8</ele>
        <time>2019-05-12T07:41:21Z</time>
      </trkpt>
      <trkpt lat="39.1884680" lon="-1.4300560">
        <ele>537.8</ele>
        <time>2019-05-12T07:41:22Z</time>
      </trkpt>
      <trkpt lat="39.1884650" lon="-1.4300000">
        <ele>537.8</ele>
        <time>2019-05-12T07:41:23Z</time>
      </trkpt>
      <trkpt lat="39.1884670" lon="-1.4299450">
        <ele>537.8</ele>
        <time>2019-05-12T07:41:24Z</time>
      </trkpt>
      <trkpt lat="39.1884700" lon="-1.4298910">
        <ele>537.8</ele>
        <time>2019-05-12T07:41:25Z</time>
      </trkpt>
      <trkpt lat="39.1884730" lon="-1.4298390">
        <ele>537.8</ele>
        <time>2019-05-12T07:41:26Z</time>
      </trkpt>
      <trkpt lat="39.1884730" lon="-1.4297880">
        <ele>537.8</ele>
        <time>2019-05-12T07:41:27Z</time>
      </trkpt>
      <trkpt lat="39.1884660" lon="-1.4297400">
        <ele>537.8</ele>
        <time>2019-05-12T07:41:28Z</time>
      </trkpt>
      <trkpt lat="39.1884560" lon="-1.4296940">
        <ele>538.0</ele>
        <time>2019-05-12T07:41:29Z</time>
      </trkpt>
      <trkpt lat="39.1884430" lon="-1.4296530">
        <ele>538.2</ele>
        <time>2019-05-12T07:41:30Z</time>
      </trkpt>
      <trkpt lat="39.1884290" lon="-1.4296160">
        <ele>538.6</ele>
        <time>2019-05-12T07:41:31Z</time>
      </trkpt>
      <trkpt lat="39.1884180" lon="-1.4295710">
        <ele>539.0</ele>
        <time>2019-05-12T07:41:32Z</time>
      </trkpt>
      <trkpt lat="39.1884060" lon="-1.4295360">
        <ele>539.2</ele>
        <time>2019-05-12T07:41:33Z</time>
      </trkpt>
      <trkpt lat="39.1883960" lon="-1.4295020">
        <ele>539.4</ele>
        <time>2019-05-12T07:41:34Z</time>
      </trkpt>
      <trkpt lat="39.1883890" lon="-1.4294630">
        <ele>539.8</ele>
        <time>2019-05-12T07:41:35Z</time>
      </trkpt>
      <trkpt lat="39.1883830" lon="-1.4294230">
        <ele>540.0</ele>
        <time>2019-05-12T07:41:36Z</time>
      </trkpt>
      <trkpt lat="39.1883760" lon="-1.4293810">
        <ele>540.4</ele>
        <time>2019-05-12T07:41:37Z</time>
      </trkpt>
      <trkpt lat="39.1883660" lon="-1.4293430">
        <ele>540.6</ele>
        <time>2019-05-12T07:41:38Z</time>
      </trkpt>
      <trkpt lat="39.1883530" lon="-1.4293110">
        <ele>541.0</ele>
        <time>2019-05-12T07:41:39Z</time>
      </trkpt>
      <trkpt lat="39.1883370" lon="-1.4292840">
        <ele>541.4</ele>
        <time>2019-05-12T07:41:40Z</time>
      </trkpt>
      <trkpt lat="39.1883210" lon="-1.4292570">
        <ele>541.8</ele>
        <time>2019-05-12T07:41:41Z</time>
      </trkpt>
      <trkpt lat="39.1883040" lon="-1.4292290">
        <ele>542.2</ele>
        <time>2019-05-12T07:41:42Z</time>
      </trkpt>
      <trkpt lat="39.1882850" lon="-1.4292020">
        <ele>542.8</ele>
        <time>2019-05-12T07:41:43Z</time>
      </trkpt>
      <trkpt lat="39.1882640" lon="-1.4291770">
        <ele>543.2</ele>
        <time>2019-05-12T07:41:44Z</time>
      </trkpt>
      <trkpt lat="39.1882420" lon="-1.4291560">
        <ele>543.4</ele>
        <time>2019-05-12T07:41:45Z</time>
      </trkpt>
      <trkpt lat="39.1882230" lon="-1.4291330">
        <ele>543.8</ele>
        <time>2019-05-12T07:41:46Z</time>
      </trkpt>
      <trkpt lat="39.1882070" lon="-1.4291050">
        <ele>544.2</ele>
        <time>2019-05-12T07:41:47Z</time>
      </trkpt>
      <trkpt lat="39.1881930" lon="-1.4290750">
        <ele>545.2</ele>
        <time>2019-05-12T07:41:48Z</time>
      </trkpt>
      <trkpt lat="39.1881780" lon="-1.4290460">
        <ele>545.6</ele>
        <time>2019-05-12T07:41:49Z</time>
      </trkpt>
      <trkpt lat="39.1881640" lon="-1.4290180">
        <ele>546.0</ele>
        <time>2019-05-12T07:41:50Z</time>
      </trkpt>
      <trkpt lat="39.1881510" lon="-1.4289900">
        <ele>546.4</ele>
        <time>2019-05-12T07:41:51Z</time>
      </trkpt>
      <trkpt lat="39.1881390" lon="-1.4289630">
        <ele>546.8</ele>
        <time>2019-05-12T07:41:52Z</time>
      </trkpt>
      <trkpt lat="39.1881300" lon="-1.4289360">
        <ele>547.2</ele>
        <time>2019-05-12T07:41:53Z</time>
      </trkpt>
      <trkpt lat="39.1881240" lon="-1.4289080">
        <ele>547.4</ele>
        <time>2019-05-12T07:41:54Z</time>
      </trkpt>
      <trkpt lat="39.1881240" lon="-1.4288780">
        <ele>547.8</ele>
        <time>2019-05-12T07:41:55Z</time>
      </trkpt>
      <trkpt lat="39.1881310" lon="-1.4288450">
        <ele>548.0</ele>
        <time>2019-05-12T07:41:56Z</time>
      </trkpt>
      <trkpt lat="39.1881420" lon="-1.4288150">
        <ele>548.2</ele>
        <time>2019-05-12T07:41:57Z</time>
      </trkpt>
      <trkpt lat="39.1881580" lon="-1.4287920">
        <ele>548.6</ele>
        <time>2019-05-12T07:41:58Z</time>
      </trkpt>
      <trkpt lat="39.1881750" lon="-1.4287670">
        <ele>549.0</ele>
        <time>2019-05-12T07:41:59Z</time>
      </trkpt>
      <trkpt lat="39.1881920" lon="-1.4287430">
        <ele>549.4</ele>
        <time>2019-05-12T07:42:00Z</time>
      </trkpt>
      <trkpt lat="39.1882130" lon="-1.4287200">
        <ele>549.8</ele>
        <time>2019-05-12T07:42:01Z</time>
      </trkpt>
      <trkpt lat="39.1882350" lon="-1.4286950">
        <ele>550.2</ele>
        <time>2019-05-12T07:42:02Z</time>
      </trkpt>
      <trkpt lat="39.1882570" lon="-1.4286730">
        <ele>550.4</ele>
        <time>2019-05-12T07:42:03Z</time>
      </trkpt>
      <trkpt lat="39.1882810" lon="-1.4286540">
        <ele>550.8</ele>
        <time>2019-05-12T07:42:04Z</time>
      </trkpt>
      <trkpt lat="39.1883070" lon="-1.4286400">
        <ele>551.0</ele>
        <time>2019-05-12T07:42:05Z</time>
      </trkpt>
      <trkpt lat="39.1883340" lon="-1.4286270">
        <ele>551.2</ele>
        <time>2019-05-12T07:42:06Z</time>
      </trkpt>
      <trkpt lat="39.1883610" lon="-1.4286130">
        <ele>551.4</ele>
        <time>2019-05-12T07:42:07Z</time>
      </trkpt>
      <trkpt lat="39.1883850" lon="-1.4285970">
        <ele>551.6</ele>
        <time>2019-05-12T07:42:08Z</time>
      </trkpt>
      <trkpt lat="39.1884070" lon="-1.4285760">
        <ele>552.0</ele>
        <time>2019-05-12T07:42:09Z</time>
      </trkpt>
      <trkpt lat="39.1884280" lon="-1.4285480">
        <ele>552.2</ele>
        <time>2019-05-12T07:42:10Z</time>
      </trkpt>
      <trkpt lat="39.1884430" lon="-1.4285150">
        <ele>552.4</ele>
        <time>2019-05-12T07:42:11Z</time>
      </trkpt>
      <trkpt lat="39.1884540" lon="-1.4284760">
        <ele>552.8</ele>
        <time>2019-05-12T07:42:12Z</time>
      </trkpt>
      <trkpt lat="39.1884610" lon="-1.4284370">
        <ele>553.0</ele>
        <time>2019-05-12T07:42:13Z</time>
      </trkpt>
      <trkpt lat="39.1884700" lon="-1.4283970">
        <ele>553.2</ele>
        <time>2019-05-12T07:42:14Z</time>
      </trkpt>
      <trkpt lat="39.1884790" lon="-1.4283600">
        <ele>553.6</ele>
        <time>2019-05-12T07:42:15Z</time>
      </trkpt>
      <trkpt lat="39.1884890" lon="-1.4283210">
        <ele>553.8</ele>
        <time>2019-05-12T07:42:16Z</time>
      </trkpt>
      <trkpt lat="39.1885000" lon="-1.4282820">
        <ele>554.2</ele>
        <time>2019-05-12T07:42:17Z</time>
      </trkpt>
      <trkpt lat="39.1885130" lon="-1.4282430">
        <ele>554.4</ele>
        <time>2019-05-12T07:42:18Z</time>
      </trkpt>
      <trkpt lat="39.1885270" lon="-1.4282040">
        <ele>554.8</ele>
        <time>2019-05-12T07:42:19Z</time>
      </trkpt>
      <trkpt lat="39.1885410" lon="-1.4281640">
        <ele>555.0</ele>
        <time>2019-05-12T07:42:20Z</time>
      </trkpt>
      <trkpt lat="39.1885550" lon="-1.4281230">
        <ele>555.4</ele>
        <time>2019-05-12T07:42:21Z</time>
      </trkpt>
      <trkpt lat="39.1885700" lon="-1.4280820">
        <ele>556.0</ele>
        <time>2019-05-12T07:42:22Z</time>
      </trkpt>
      <trkpt lat="39.1885870" lon="-1.4280390">
        <ele>556.4</ele>
        <time>2019-05-12T07:42:23Z</time>
      </trkpt>
      <trkpt lat="39.1886030" lon="-1.4280000">
        <ele>556.8</ele>
        <time>2019-05-12T07:42:24Z</time>
      </trkpt>
      <trkpt lat="39.1886180" lon="-1.4279620">
        <ele>557.0</ele>
        <time>2019-05-12T07:42:25Z</time>
      </trkpt>
      <trkpt lat="39.1886310" lon="-1.4279240">
        <ele>557.2</ele>
        <time>2019-05-12T07:42:26Z</time>
      </trkpt>
      <trkpt lat="39.1886440" lon="-1.4278850">
        <ele>557.2</ele>
        <time>2019-05-12T07:42:27Z</time>
      </trkpt>
      <trkpt lat="39.1886580" lon="-1.4278480">
        <ele>557.4</ele>
        <time>2019-05-12T07:42:28Z</time>
      </trkpt>
      <trkpt lat="39.1886700" lon="-1.4278100">
        <ele>557.4</ele>
        <time>2019-05-12T07:42:29Z</time>
      </trkpt>
      <trkpt lat="39.1886790" lon="-1.4277710">
        <ele>557.6</ele>
        <time>2019-05-12T07:42:30Z</time>
      </trkpt>
      <trkpt lat="39.1886770" lon="-1.4277350">
        <ele>557.6</ele>
        <time>2019-05-12T07:42:31Z</time>
      </trkpt>
      <trkpt lat="39.1886620" lon="-1.4277090">
        <ele>557.8</ele>
        <time>2019-05-12T07:42:32Z</time>
      </trkpt>
      <trkpt lat="39.1886400" lon="-1.4277000">
        <ele>558.0</ele>
        <time>2019-05-12T07:42:33Z</time>
      </trkpt>
      <trkpt lat="39.1886220" lon="-1.4277050">
        <ele>558.2</ele>
        <time>2019-05-12T07:42:34Z</time>
      </trkpt>
      <trkpt lat="39.1886110" lon="-1.4277220">
        <ele>558.2</ele>
        <time>2019-05-12T07:42:35Z</time>
      </trkpt>
      <trkpt lat="39.1886020" lon="-1.4277560">
        <ele>558.4</ele>
        <time>2019-05-12T07:42:36Z</time>
      </trkpt>
      <trkpt lat="39.1885910" lon="-1.4277940">
        <ele>558.6</ele>
        <time>2019-05-12T07:42:37Z</time>
      </trkpt>
      <trkpt lat="39.1885800" lon="-1.4278280">
        <ele>558.6</ele>
        <time>2019-05-12T07:42:38Z</time>
      </trkpt>
      <trkpt lat="39.1885690" lon="-1.4278600">
        <ele>558.8</ele>
        <time>2019-05-12T07:42:39Z</time>
      </trkpt>
      <trkpt lat="39.1885560" lon="-1.4278900">
        <ele>559.2</ele>
        <time>2019-05-12T07:42:40Z</time>
      </trkpt>
      <trkpt lat="39.1885440" lon="-1.4279200">
        <ele>559.4</ele>
        <time>2019-05-12T07:42:41Z</time>
      </trkpt>
      <trkpt lat="39.1885330" lon="-1.4279470">
        <ele>559.6</ele>
        <time>2019-05-12T07:42:42Z</time>
      </trkpt>
      <trkpt lat="39.1885250" lon="-1.4279710">
        <ele>560.0</ele>
        <time>2019-05-12T07:42:43Z</time>
      </trkpt>
      <trkpt lat="39.1885160" lon="-1.4279880">
        <ele>560.4</ele>
        <time>2019-05-12T07:42:44Z</time>
      </trkpt>
      <trkpt lat="39.1885060" lon="-1.4280050">
        <ele>560.8</ele>
        <time>2019-05-12T07:42:45Z</time>
      </trkpt>
      <trkpt lat="39.1884950" lon="-1.4280220">
        <ele>561.2</ele>
        <time>2019-05-12T07:42:46Z</time>
      </trkpt>
      <trkpt lat="39.1884870" lon="-1.4280390">
        <ele>561.4</ele>
        <time>2019-05-12T07:42:47Z</time>
      </trkpt>
      <trkpt lat="39.1884800" lon="-1.4280580">
        <ele>561.4</ele>
        <time>2019-05-12T07:42:48Z</time>
      </trkpt>
      <trkpt lat="39.1884740" lon="-1.4280780">
        <ele>561.6</ele>
        <time>2019-05-12T07:42:49Z</time>
      </trkpt>
      <trkpt lat="39.1884690" lon="-1.4280940">
        <ele>561.6</ele>
        <time>2019-05-12T07:42:50Z</time>
      </trkpt>
      <trkpt lat="39.1884640" lon="-1.4281150">
        <ele>561.6</ele>
        <time>2019-05-12T07:42:51Z</time>
      </trkpt>
      <trkpt lat="39.1884560" lon="-1.4281370">
        <ele>561.6</ele>
        <time>2019-05-12T07:42:52Z</time>
      </trkpt>
      <trkpt lat="39.1884460" lon="-1.4281570">
        <ele>561.6</ele>
        <time>2019-05-12T07:42:53Z</time>
      </trkpt>
      <trkpt lat="39.1884370" lon="-1.4281780">
        <ele>561.6</ele>
        <time>2019-05-12T07:42:54Z</time>
      </trkpt>
      <trkpt lat="39.1884290" lon="-1.4281980">
        <ele>561.6</ele>
        <time>2019-05-12T07:42:55Z</time>
      </trkpt>
      <trkpt lat="39.1884210" lon="-1.4282140">
        <ele>561.6</ele>
        <time>2019-05-12T07:42:56Z</time>
      </trkpt>
      <trkpt lat="39.1884150" lon="-1.4282300">
        <ele>561.8</ele>
        <time>2019-05-12T07:42:57Z</time>
      </trkpt>
      <trkpt lat="39.1884120" lon="-1.4282420">
        <ele>561.8</ele>
        <time>2019-05-12T07:42:58Z</time>
      </trkpt>
      <trkpt lat="39.1884080" lon="-1.4282540">
        <ele>561.8</ele>
        <time>2019-05-12T07:42:59Z</time>
      </trkpt>
      <trkpt lat="39.1884040" lon="-1.4282640">
        <ele>561.8</ele>
        <time>2019-05-12T07:43:00Z</time>
      </trkpt>
      <trkpt lat="39.1884000" lon="-1.4282720">
        <ele>561.8</ele>
        <time>2019-05-12T07:43:01Z</time>
      </trkpt>
      <trkpt lat="39.1883960" lon="-1.4282800">
        <ele>561.8</ele>
        <time>2019-05-12T07:43:02Z</time>
      </trkpt>
      <trkpt lat="39.1883920" lon="-1.4282900">
        <ele>562.0</ele>
        <time>2019-05-12T07:43:03Z</time>
      </trkpt>
      <trkpt lat="39.1883880" lon="-1.4283010">
        <ele>562.2</ele>
        <time>2019-05-12T07:43:04Z</time>
      </trkpt>
      <trkpt lat="39.1883860" lon="-1.4283030">
        <ele>562.4</ele>
        <time>2019-05-12T07:43:05Z</time>
      </trkpt>
      <trkpt lat="39.1883840" lon="-1.4283100">
        <ele>562.6</ele>
        <time>2019-05-12T07:43:06Z</time>
      </trkpt>
      <trkpt lat="39.1883760" lon="-1.4283210">
        <ele>562.6</ele>
        <time>2019-05-12T07:43:07Z</time>
      </trkpt>
      <trkpt lat="39.1883640" lon="-1.4283280">
        <ele>562.6</ele>
        <time>2019-05-12T07:43:08Z</time>
      </trkpt>
      <trkpt lat="39.1883550" lon="-1.4283330">
        <ele>562.8</ele>
        <time>2019-05-12T07:43:09Z</time>
      </trkpt>
      <trkpt lat="39.1883440" lon="-1.4283420">
        <ele>562.8</ele>
        <time>2019-05-12T07:43:10Z</time>
      </trkpt>
      <trkpt lat="39.1883310" lon="-1.4283510">
        <ele>562.8</ele>
        <time>2019-05-12T07:43:11Z</time>
      </trkpt>
      <trkpt lat="39.1883150" lon="-1.4283650">
        <ele>563.0</ele>
        <time>2019-05-12T07:43:12Z</time>
      </trkpt>
      <trkpt lat="39.1882970" lon="-1.4283810">
        <ele>563.0</ele>
        <time>2019-05-12T07:43:13Z</time>
      </trkpt>
      <trkpt lat="39.1882810" lon="-1.4283930">
        <ele>563.0</ele>
        <time>2019-05-12T07:43:14Z</time>
      </trkpt>
      <trkpt lat="39.1882660" lon="-1.4284010">
        <ele>563.0</ele>
        <time>2019-05-12T07:43:15Z</time>
      </trkpt>
      <trkpt lat="39.1882530" lon="-1.4284100">
        <ele>563.2</ele>
        <time>2019-05-12T07:43:16Z</time>
      </trkpt>
      <trkpt lat="39.1882390" lon="-1.4284180">
        <ele>563.2</ele>
        <time>2019-05-12T07:43:17Z</time>
      </trkpt>
      <trkpt lat="39.1882250" lon="-1.4284260">
        <ele>563.4</ele>
        <time>2019-05-12T07:43:18Z</time>
      </trkpt>
      <trkpt lat="39.1882070" lon="-1.4284320">
        <ele>563.6</ele>
        <time>2019-05-12T07:43:19Z</time>
      </trkpt>
      <trkpt lat="39.1881860" lon="-1.4284390">
        <ele>563.8</ele>
        <time>2019-05-12T07:43:20Z</time>
      </trkpt>
      <trkpt lat="39.1881720" lon="-1.4284460">
        <ele>564.0</ele>
        <time>2019-05-12T07:43:21Z</time>
      </trkpt>
      <trkpt lat="39.1881580" lon="-1.4284510">
        <ele>564.0</ele>
        <time>2019-05-12T07:43:22Z</time>
      </trkpt>
      <trkpt lat="39.1881440" lon="-1.4284600">
        <ele>564.4</ele>
        <time>2019-05-12T07:43:23Z</time>
      </trkpt>
      <trkpt lat="39.1881270" lon="-1.4284660">
        <ele>564.4</ele>
        <time>2019-05-12T07:43:24Z</time>
      </trkpt>
      <trkpt lat="39.1881130" lon="-1.4284640">
        <ele>564.6</ele>
        <time>2019-05-12T07:43:25Z</time>
      </trkpt>
      <trkpt lat="39.1881010" lon="-1.4284660">
        <ele>564.6</ele>
        <time>2019-05-12T07:43:26Z</time>
      </trkpt>
      <trkpt lat="39.1880910" lon="-1.4284750">
        <ele>564.8</ele>
        <time>2019-05-12T07:43:27Z</time>
      </trkpt>
      <trkpt lat="39.1880810" lon="-1.4284890">
        <ele>564.8</ele>
        <time>2019-05-12T07:43:28Z</time>
      </trkpt>
      <trkpt lat="39.1880710" lon="-1.4285050">
        <ele>565.2</ele>
        <time>2019-05-12T07:43:29Z</time>
      </trkpt>
      <trkpt lat="39.1880600" lon="-1.4285190">
        <ele>565.4</ele>
        <time>2019-05-12T07:43:30Z</time>
      </trkpt>
      <trkpt lat="39.1880470" lon="-1.4285330">
        <ele>565.6</ele>
        <time>2019-05-12T07:43:31Z</time>
      </trkpt>
      <trkpt lat="39.1880320" lon="-1.4285450">
        <ele>566.0</ele>
        <time>2019-05-12T07:43:32Z</time>
      </trkpt>
      <trkpt lat="39.1880160" lon="-1.4285560">
        <ele>566.2</ele>
        <time>2019-05-12T07:43:33Z</time>
      </trkpt>
      <trkpt lat="39.1880010" lon="-1.4285650">
        <ele>566.2</ele>
        <time>2019-05-12T07:43:34Z</time>
      </trkpt>
      <trkpt lat="39.1879860" lon="-1.4285780">
        <ele>566.4</ele>
        <time>2019-05-12T07:43:35Z</time>
      </trkpt>
      <trkpt lat="39.1879710" lon="-1.4285920">
        <ele>566.6</ele>
        <time>2019-05-12T07:43:36Z</time>
      </trkpt>
      <trkpt lat="39.1879590" lon="-1.4286050">
        <ele>566.8</ele>
        <time>2019-05-12T07:43:37Z</time>
      </trkpt>
      <trkpt lat="39.1879470" lon="-1.4286230">
        <ele>566.8</ele>
        <time>2019-05-12T07:43:38Z</time>
      </trkpt>
      <trkpt lat="39.1879340" lon="-1.4286420">
        <ele>567.0</ele>
        <time>2019-05-12T07:43:39Z</time>
      </trkpt>
      <trkpt lat="39.1879230" lon="-1.4286630">
        <ele>567.2</ele>
        <time>2019-05-12T07:43:40Z</time>
      </trkpt>
      <trkpt lat="39.1879140" lon="-1.4286880">
        <ele>567.6</ele>
        <time>2019-05-12T07:43:41Z</time>
      </trkpt>
      <trkpt lat="39.1878990" lon="-1.4287130">
        <ele>568.0</ele>
        <time>2019-05-12T07:43:42Z</time>
      </trkpt>
      <trkpt lat="39.1878830" lon="-1.4287400">
        <ele>568.2</ele>
        <time>2019-05-12T07:43:43Z</time>
      </trkpt>
      <trkpt lat="39.1878680" lon="-1.4287670">
        <ele>568.6</ele>
        <time>2019-05-12T07:43:44Z</time>
      </trkpt>
      <trkpt lat="39.1878590" lon="-1.4287960">
        <ele>569.0</ele>
        <time>2019-05-12T07:43:45Z</time>
      </trkpt>
      <trkpt lat="39.1878520" lon="-1.4288270">
        <ele>569.2</ele>
        <time>2019-05-12T07:43:46Z</time>
      </trkpt>
      <trkpt lat="39.1878450" lon="-1.4288560">
        <ele>569.4</ele>
        <time>2019-05-12T07:43:47Z</time>
      </trkpt>
      <trkpt lat="39.1878450" lon="-1.4288910">
        <ele>569.4</ele>
        <time>2019-05-12T07:43:48Z</time>
      </trkpt>
      <trkpt lat="39.1878520" lon="-1.4289210">
        <ele>569.6</ele>
        <time>2019-05-12T07:43:49Z</time>
      </trkpt>
      <trkpt lat="39.1878640" lon="-1.4289520">
        <ele>569.6</ele>
        <time>2019-05-12T07:43:50Z</time>
      </trkpt>
      <trkpt lat="39.1878770" lon="-1.4289830">
        <ele>569.6</ele>
        <time>2019-05-12T07:43:51Z</time>
      </trkpt>
      <trkpt lat="39.1878870" lon="-1.4290160">
        <ele>569.8</ele>
        <time>2019-05-12T07:43:52Z</time>
      </trkpt>
      <trkpt lat="39.1878920" lon="-1.4290510">
        <ele>569.8</ele>
        <time>2019-05-12T07:43:53Z</time>
      </trkpt>
      <trkpt lat="39.1878930" lon="-1.4290870">
        <ele>570.0</ele>
        <time>2019-05-12T07:43:54Z</time>
      </trkpt>
      <trkpt lat="39.1878900" lon="-1.4291230">
        <ele>570.0</ele>
        <time>2019-05-12T07:43:55Z</time>
      </trkpt>
      <trkpt lat="39.1878850" lon="-1.4291580">
        <ele>570.0</ele>
        <time>2019-05-12T07:43:56Z</time>
      </trkpt>
      <trkpt lat="39.1878850" lon="-1.4291940">
        <ele>570.0</ele>
        <time>2019-05-12T07:43:57Z</time>
      </trkpt>
      <trkpt lat="39.1878890" lon="-1.4292300">
        <ele>570.0</ele>
        <time>2019-05-12T07:43:58Z</time>
      </trkpt>
      <trkpt lat="39.1878880" lon="-1.4292680">
        <ele>570.2</ele>
        <time>2019-05-12T07:43:59Z</time>
      </trkpt>
      <trkpt lat="39.1878850" lon="-1.4293050">
        <ele>570.4</ele>
        <time>2019-05-12T07:44:00Z</time>
      </trkpt>
      <trkpt lat="39.1878790" lon="-1.4293420">
        <ele>570.4</ele>
        <time>2019-05-12T07:44:01Z</time>
      </trkpt>
      <trkpt lat="39.1878720" lon="-1.4293790">
        <ele>570.6</ele>
        <time>2019-05-12T07:44:02Z</time>
      </trkpt>
      <trkpt lat="39.1878660" lon="-1.4294140">
        <ele>570.8</ele>
        <time>2019-05-12T07:44:03Z</time>
      </trkpt>
      <trkpt lat="39.1878580" lon="-1.4294490">
        <ele>571.0</ele>
        <time>2019-05-12T07:44:04Z</time>
      </trkpt>
      <trkpt lat="39.1878520" lon="-1.4294830">
        <ele>571.0</ele>
        <time>2019-05-12T07:44:05Z</time>
      </trkpt>
      <trkpt lat="39.1878450" lon="-1.4295170">
        <ele>571.4</ele>
        <time>2019-05-12T07:44:06Z</time>
      </trkpt>
      <trkpt lat="39.1878390" lon="-1.4295480">
        <ele>571.6</ele>
        <time>2019-05-12T07:44:07Z</time>
      </trkpt>
      <trkpt lat="39.1878300" lon="-1.4295820">
        <ele>571.8</ele>
        <time>2019-05-12T07:44:08Z</time>
      </trkpt>
      <trkpt lat="39.1878230" lon="-1.4296160">
        <ele>572.2</ele>
        <time>2019-05-12T07:44:09Z</time>
      </trkpt>
      <trkpt lat="39.1878170" lon="-1.4296490">
        <ele>572.4</ele>
        <time>2019-05-12T07:44:10Z</time>
      </trkpt>
      <trkpt lat="39.1878100" lon="-1.4296810">
        <ele>572.6</ele>
        <time>2019-05-12T07:44:11Z</time>
      </trkpt>
      <trkpt lat="39.1878050" lon="-1.4297130">
        <ele>572.8</ele>
        <time>2019-05-12T07:44:12Z</time>
      </trkpt>
      <trkpt lat="39.1877990" lon="-1.4297440">
        <ele>572.8</ele>
        <time>2019-05-12T07:44:13Z</time>
      </trkpt>
      <trkpt lat="39.1877910" lon="-1.4297740">
        <ele>573.0</ele>
        <time>2019-05-12T07:44:14Z</time>
      </trkpt>
      <trkpt lat="39.1877840" lon="-1.4298020">
        <ele>573.2</ele>
        <time>2019-05-12T07:44:15Z</time>
      </trkpt>
      <trkpt lat="39.1877770" lon="-1.4298350">
        <ele>573.4</ele>
        <time>2019-05-12T07:44:16Z</time>
      </trkpt>
      <trkpt lat="39.1877680" lon="-1.4298680">
        <ele>573.6</ele>
        <time>2019-05-12T07:44:17Z</time>
      </trkpt>
      <trkpt lat="39.1877590" lon="-1.4299010">
        <ele>573.8</ele>
        <time>2019-05-12T07:44:18Z</time>
      </trkpt>
      <trkpt lat="39.1877510" lon="-1.4299310">
        <ele>574.0</ele>
        <time>2019-05-12T07:44:19Z</time>
      </trkpt>
      <trkpt lat="39.1877420" lon="-1.4299630">
        <ele>574.2</ele>
        <time>2019-05-12T07:44:20Z</time>
      </trkpt>
      <trkpt lat="39.1877330" lon="-1.4299970">
        <ele>574.6</ele>
        <time>2019-05-12T07:44:21Z</time>
      </trkpt>
      <trkpt lat="39.1877250" lon="-1.4300310">
        <ele>574.8</ele>
        <time>2019-05-12T07:44:22Z</time>
      </trkpt>
      <trkpt lat="39.1877150" lon="-1.4300630">
        <ele>575.0</ele>
        <time>2019-05-12T07:44:23Z</time>
      </trkpt>
      <trkpt lat="39.1877040" lon="-1.4300940">
        <ele>575.2</ele>
        <time>2019-05-12T07:44:24Z</time>
      </trkpt>
      <trkpt lat="39.1876930" lon="-1.4301240">
        <ele>575.6</ele>
        <time>2019-05-12T07:44:25Z</time>
      </trkpt>
      <trkpt lat="39.1876840" lon="-1.4301520">
        <ele>575.8</ele>
        <time>2019-05-12T07:44:26Z</time>
      </trkpt>
      <trkpt lat="39.1876780" lon="-1.4301830">
        <ele>575.8</ele>
        <time>2019-05-12T07:44:27Z</time>
      </trkpt>
      <trkpt lat="39.1876730" lon="-1.4302160">
        <ele>576.0</ele>
        <time>2019-05-12T07:44:28Z</time>
      </trkpt>
      <trkpt lat="39.1876680" lon="-1.4302460">
        <ele>576.2</ele>
        <time>2019-05-12T07:44:29Z</time>
      </trkpt>
      <trkpt lat="39.1876590" lon="-1.4302730">
        <ele>576.4</ele>
        <time>2019-05-12T07:44:30Z</time>
      </trkpt>
      <trkpt lat="39.1876490" lon="-1.4303000">
        <ele>576.6</ele>
        <time>2019-05-12T07:44:31Z</time>
      </trkpt>
      <trkpt lat="39.1876410" lon="-1.4303310">
        <ele>576.8</ele>
        <time>2019-05-12T07:44:32Z</time>
      </trkpt>
      <trkpt lat="39.1876330" lon="-1.4303590">
        <ele>577.0</ele>
        <time>2019-05-12T07:44:33Z</time>
      </trkpt>
      <trkpt lat="39.1876260" lon="-1.4303830">
        <ele>577.2</ele>
        <time>2019-05-12T07:44:34Z</time>
      </trkpt>
      <trkpt lat="39.1876200" lon="-1.4304060">
        <ele>577.4</ele>
        <time>2019-05-12T07:44:35Z</time>
      </trkpt>
      <trkpt lat="39.1876160" lon="-1.4304270">
        <ele>577.6</ele>
        <time>2019-05-12T07:44:36Z</time>
      </trkpt>
      <trkpt lat="39.1876120" lon="-1.4304440">
        <ele>578.0</ele>
        <time>2019-05-12T07:44:37Z</time>
      </trkpt>
      <trkpt lat="39.1876090" lon="-1.4304620">
        <ele>578.2</ele>
        <time>2019-05-12T07:44:38Z</time>
      </trkpt>
      <trkpt lat="39.1876070" lon="-1.4304790">
        <ele>578.2</ele>
        <time>2019-05-12T07:44:39Z</time>
      </trkpt>
      <trkpt lat="39.1876050" lon="-1.4304960">
        <ele>578.4</ele>
        <time>2019-05-12T07:44:40Z</time>
      </trkpt>
      <trkpt lat="39.1876040" lon="-1.4305130">
        <ele>578.8</ele>
        <time>2019-05-12T07:44:41Z</time>
      </trkpt>
      <trkpt lat="39.1876000" lon="-1.4305300">
        <ele>579.0</ele>
        <time>2019-05-12T07:44:42Z</time>
      </trkpt>
      <trkpt lat="39.1875950" lon="-1.4305480">
        <ele>579.0</ele>
        <time>2019-05-12T07:44:43Z</time>
      </trkpt>
      <trkpt lat="39.1875930" lon="-1.4305660">
        <ele>579.2</ele>
        <time>2019-05-12T07:44:44Z</time>
      </trkpt>
      <trkpt lat="39.1875940" lon="-1.4305880">
        <ele>579.4</ele>
        <time>2019-05-12T07:44:45Z</time>
      </trkpt>
      <trkpt lat="39.1875940" lon="-1.4306100">
        <ele>579.6</ele>
        <time>2019-05-12T07:44:46Z</time>
      </trkpt>
      <trkpt lat="39.1875950" lon="-1.4306310">
        <ele>579.6</ele>
        <time>2019-05-12T07:44:47Z</time>
      </trkpt>
      <trkpt lat="39.1875950" lon="-1.4306530">
        <ele>579.8</ele>
        <time>2019-05-12T07:44:48Z</time>
      </trkpt>
      <trkpt lat="39.1875950" lon="-1.4306760">
        <ele>580.0</ele>
        <time>2019-05-12T07:44:49Z</time>
      </trkpt>
      <trkpt lat="39.1875980" lon="-1.4306970">
        <ele>580.0</ele>
        <time>2019-05-12T07:44:50Z</time>
      </trkpt>
      <trkpt lat="39.1876060" lon="-1.4307160">
        <ele>580.2</ele>
        <time>2019-05-12T07:44:51Z</time>
      </trkpt>
      <trkpt lat="39.1876100" lon="-1.4307350">
        <ele>580.4</ele>
        <time>2019-05-12T07:44:52Z</time>
      </trkpt>
      <trkpt lat="39.1876060" lon="-1.4307550">
        <ele>580.6</ele>
        <time>2019-05-12T07:44:53Z</time>
      </trkpt>
      <trkpt lat="39.1875970" lon="-1.4307700">
        <ele>580.6</ele>
        <time>2019-05-12T07:44:54Z</time>
      </trkpt>
      <trkpt lat="39.1875840" lon="-1.4307730">
        <ele>580.8</ele>
        <time>2019-05-12T07:44:55Z</time>
      </trkpt>
      <trkpt lat="39.1875730" lon="-1.4307650">
        <ele>581.0</ele>
        <time>2019-05-12T07:44:56Z</time>
      </trkpt>
      <trkpt lat="39.1875600" lon="-1.4307470">
        <ele>581.2</ele>
        <time>2019-05-12T07:44:57Z</time>
      </trkpt>
      <trkpt lat="39.1875500" lon="-1.4307270">
        <ele>581.4</ele>
        <time>2019-05-12T07:44:58Z</time>
      </trkpt>
      <trkpt lat="39.1875470" lon="-1.4307040">
        <ele>581.6</ele>
        <time>2019-05-12T07:44:59Z</time>
      </trkpt>
      <trkpt lat="39.1875440" lon="-1.4306800">
        <ele>581.8</ele>
        <time>2019-05-12T07:45:00Z</time>
      </trkpt>
      <trkpt lat="39.1875390" lon="-1.4306530">
        <ele>581.8</ele>
        <time>2019-05-12T07:45:01Z</time>
      </trkpt>
      <trkpt lat="39.1875370" lon="-1.4306260">
        <ele>582.0</ele>
        <time>2019-05-12T07:45:02Z</time>
      </trkpt>
      <trkpt lat="39.1875330" lon="-1.4305980">
        <ele>582.4</ele>
        <time>2019-05-12T07:45:03Z</time>
      </trkpt>
      <trkpt lat="39.1875300" lon="-1.4305690">
        <ele>582.4</ele>
        <time>2019-05-12T07:45:04Z</time>
      </trkpt>
      <trkpt lat="39.1875260" lon="-1.4305410">
        <ele>582.6</ele>
        <time>2019-05-12T07:45:05Z</time>
      </trkpt>
      <trkpt lat="39.1875240" lon="-1.4305120">
        <ele>582.8</ele>
        <time>2019-05-12T07:45:06Z</time>
      </trkpt>
      <trkpt lat="39.1875240" lon="-1.4304810">
        <ele>583.2</ele>
        <time>2019-05-12T07:45:07Z</time>
      </trkpt>
      <trkpt lat="39.1875220" lon="-1.4304520">
        <ele>583.4</ele>
        <time>2019-05-12T07:45:08Z</time>
      </trkpt>
      <trkpt lat="39.1875230" lon="-1.4304260">
        <ele>583.6</ele>
        <time>2019-05-12T07:45:09Z</time>
      </trkpt>
      <trkpt lat="39.1875230" lon="-1.4304000">
        <ele>583.6</ele>
        <time>2019-05-12T07:45:10Z</time>
      </trkpt>
      <trkpt lat="39.1875240" lon="-1.4303750">
        <ele>583.8</ele>
        <time>2019-05-12T07:45:11Z</time>
      </trkpt>
      <trkpt lat="39.1875230" lon="-1.4303490">
        <ele>584.0</ele>
        <time>2019-05-12T07:45:12Z</time>
      </trkpt>
      <trkpt lat="39.1875250" lon="-1.4303240">
        <ele>584.0</ele>
        <time>2019-05-12T07:45:13Z</time>
      </trkpt>
      <trkpt lat="39.1875280" lon="-1.4302980">
        <ele>584.2</ele>
        <time>2019-05-12T07:45:14Z</time>
      </trkpt>
      <trkpt lat="39.1875270" lon="-1.4302730">
        <ele>584.6</ele>
        <time>2019-05-12T07:45:15Z</time>
      </trkpt>
      <trkpt lat="39.1875250" lon="-1.4302490">
        <ele>584.6</ele>
        <time>2019-05-12T07:45:16Z</time>
      </trkpt>
      <trkpt lat="39.1875240" lon="-1.4302240">
        <ele>584.8</ele>
        <time>2019-05-12T07:45:17Z</time>
      </trkpt>
      <trkpt lat="39.1875230" lon="-1.4302000">
        <ele>584.8</ele>
        <time>2019-05-12T07:45:18Z</time>
      </trkpt>
      <trkpt lat="39.1875220" lon="-1.4301740">
        <ele>585.0</ele>
        <time>2019-05-12T07:45:19Z</time>
      </trkpt>
      <trkpt lat="39.1875210" lon="-1.4301470">
        <ele>585.2</ele>
        <time>2019-05-12T07:45:20Z</time>
      </trkpt>
      <trkpt lat="39.1875200" lon="-1.4301190">
        <ele>585.2</ele>
        <time>2019-05-12T07:45:21Z</time>
      </trkpt>
      <trkpt lat="39.1875200" lon="-1.4300940">
        <ele>585.2</ele>
        <time>2019-05-12T07:45:22Z</time>
      </trkpt>
      <trkpt lat="39.1875210" lon="-1.4300690">
        <ele>585.4</ele>
        <time>2019-05-12T07:45:23Z</time>
      </trkpt>
      <trkpt lat="39.1875240" lon="-1.4300370">
        <ele>585.6</ele>
        <time>2019-05-12T07:45:24Z</time>
      </trkpt>
      <trkpt lat="39.1875260" lon="-1.4300030">
        <ele>585.8</ele>
        <time>2019-05-12T07:45:25Z</time>
      </trkpt>
      <trkpt lat="39.1875290" lon="-1.4299720">
        <ele>586.0</ele>
        <time>2019-05-12T07:45:26Z</time>
      </trkpt>
      <trkpt lat="39.1875290" lon="-1.4299410">
        <ele>586.2</ele>
        <time>2019-05-12T07:45:27Z</time>
      </trkpt>
      <trkpt lat="39.1875260" lon="-1.4299100">
        <ele>586.4</ele>
        <time>2019-05-12T07:45:28Z</time>
      </trkpt>
      <trkpt lat="39.1875230" lon="-1.4298800">
        <ele>586.6</ele>
        <time>2019-05-12T07:45:29Z</time>
      </trkpt>
      <trkpt lat="39.1875230" lon="-1.4298510">
        <ele>586.8</ele>
        <time>2019-05-12T07:45:30Z</time>
      </trkpt>
      <trkpt lat="39.1875230" lon="-1.4298240">
        <ele>587.0</ele>
        <time>2019-05-12T07:45:31Z</time>
      </trkpt>
      <trkpt lat="39.1875240" lon="-1.4297990">
        <ele>587.2</ele>
        <time>2019-05-12T07:45:32Z</time>
      </trkpt>
      <trkpt lat="39.1875260" lon="-1.4297750">
        <ele>587.4</ele>
        <time>2019-05-12T07:45:33Z</time>
      </trkpt>
      <trkpt lat="39.1875280" lon="-1.4297490">
        <ele>587.4</ele>
        <time>2019-05-12T07:45:34Z</time>
      </trkpt>
      <trkpt lat="39.1875280" lon="-1.4297220">
        <ele>587.6</ele>
        <time>2019-05-12T07:45:35Z</time>
      </trkpt>
      <trkpt lat="39.1875290" lon="-1.4296950">
        <ele>587.8</ele>
        <time>2019-05-12T07:45:36Z</time>
      </trkpt>
      <trkpt lat="39.1875320" lon="-1.4296680">
        <ele>588.0</ele>
        <time>2019-05-12T07:45:37Z</time>
      </trkpt>
      <trkpt lat="39.1875340" lon="-1.4296400">
        <ele>588.0</ele>
        <time>2019-05-12T07:45:38Z</time>
      </trkpt>
      <trkpt lat="39.1875310" lon="-1.4296130">
        <ele>588.2</ele>
        <time>2019-05-12T07:45:39Z</time>
      </trkpt>
      <trkpt lat="39.1875290" lon="-1.4295860">
        <ele>588.4</ele>
        <time>2019-05-12T07:45:40Z</time>
      </trkpt>
      <trkpt lat="39.1875290" lon="-1.4295590">
        <ele>588.8</ele>
        <time>2019-05-12T07:45:41Z</time>
      </trkpt>
      <trkpt lat="39.1875300" lon="-1.4295330">
        <ele>588.8</ele>
        <time>2019-05-12T07:45:42Z</time>
      </trkpt>
      <trkpt lat="39.1875310" lon="-1.4295080">
        <ele>589.0</ele>
        <time>2019-05-12T07:45:43Z</time>
      </trkpt>
      <trkpt lat="39.1875320" lon="-1.4294820">
        <ele>589.2</ele>
        <time>2019-05-12T07:45:44Z</time>
      </trkpt>
      <trkpt lat="39.1875330" lon="-1.4294560">
        <ele>589.2</ele>
        <time>2019-05-12T07:45:45Z</time>
      </trkpt>
      <trkpt lat="39.1875320" lon="-1.4294340">
        <ele>589.4</ele>
        <time>2019-05-12T07:45:46Z</time>
      </trkpt>
      <trkpt lat="39.1875300" lon="-1.4294150">
        <ele>589.6</ele>
        <time>2019-05-12T07:45:47Z</time>
      </trkpt>
      <trkpt lat="39.1875310" lon="-1.4293970">
        <ele>589.8</ele>
        <time>2019-05-12T07:45:48Z</time>
      </trkpt>
      <trkpt lat="39.1875320" lon="-1.4293770">
        <ele>589.8</ele>
        <time>2019-05-12T07:45:49Z</time>
      </trkpt>
      <trkpt lat="39.1875330" lon="-1.4293560">
        <ele>590.0</ele>
        <time>2019-05-12T07:45:50Z</time>
      </trkpt>
      <trkpt lat="39.1875330" lon="-1.4293340">
        <ele>590.0</ele>
        <time>2019-05-12T07:45:51Z</time>
      </trkpt>
      <trkpt lat="39.1875320" lon="-1.4293120">
        <ele>590.2</ele>
        <time>2019-05-12T07:45:52Z</time>
      </trkpt>
      <trkpt lat="39.1875310" lon="-1.4292880">
        <ele>590.4</ele>
        <time>2019-05-12T07:45:53Z</time>
      </trkpt>
      <trkpt lat="39.1875310" lon="-1.4292650">
        <ele>590.6</ele>
        <time>2019-05-12T07:45:54Z</time>
      </trkpt>
      <trkpt lat="39.1875310" lon="-1.4292390">
        <ele>590.6</ele>
        <time>2019-05-12T07:45:55Z</time>
      </trkpt>
      <trkpt lat="39.1875350" lon="-1.4292130">
        <ele>590.8</ele>
        <time>2019-05-12T07:45:56Z</time>
      </trkpt>
      <trkpt lat="39.1875410" lon="-1.4291860">
        <ele>591.0</ele>
        <time>2019-05-12T07:45:57Z</time>
      </trkpt>
      <trkpt lat="39.1875420" lon="-1.4291600">
        <ele>591.0</ele>
        <time>2019-05-12T07:45:58Z</time>
      </trkpt>
      <trkpt lat="39.1875410" lon="-1.4291350">
        <ele>591.0</ele>
        <time>2019-05-12T07:45:59Z</time>
      </trkpt>
      <trkpt lat="39.1875420" lon="-1.4291120">
        <ele>591.2</ele>
        <time>2019-05-12T07:46:00Z</time>
      </trkpt>
      <trkpt lat="39.1875420" lon="-1.4290910">
        <ele>591.4</ele>
        <time>2019-05-12T07:46:01Z</time>
      </trkpt>
      <trkpt lat="39.1875410" lon="-1.4290690">
        <ele>591.4</ele>
        <time>2019-05-12T07:46:02Z</time>
      </trkpt>
      <trkpt lat="39.1875380" lon="-1.4290510">
        <ele>591.6</ele>
        <time>2019-05-12T07:46:03Z</time>
      </trkpt>
      <trkpt lat="39.1875280" lon="-1.4290360">
        <ele>591.8</ele>
        <time>2019-05-12T07:46:04Z</time>
      </trkpt>
      <trkpt lat="39.1875140" lon="-1.4290260">
        <ele>592.0</ele>
        <time>2019-05-12T07:46:05Z</time>
      </trkpt>
      <trkpt lat="39.1875000" lon="-1.4290260">
        <ele>592.2</ele>
        <time>2019-05-12T07:46:06Z</time>
      </trkpt>
      <trkpt lat="39.1874870" lon="-1.4290340">
        <ele>592.4</ele>
        <time>2019-05-12T07:46:07Z</time>
      </trkpt>
      <trkpt lat="39.1874760" lon="-1.4290450">
        <ele>592.8</ele>
        <time>2019-05-12T07:46:08Z</time>
      </trkpt>
      <trkpt lat="39.1874700" lon="-1.4290600">
        <ele>592.8</ele>
        <time>2019-05-12T07:46:09Z</time>
      </trkpt>
      <trkpt lat="39.1874660" lon="-1.4290800">
        <ele>593.0</ele>
        <time>2019-05-12T07:46:10Z</time>
      </trkpt>
      <trkpt lat="39.1874630" lon="-1.4291030">
        <ele>593.2</ele>
        <time>2019-05-12T07:46:11Z</time>
      </trkpt>
      <trkpt lat="39.1874630" lon="-1.4291280">
        <ele>593.4</ele>
        <time>2019-05-12T07:46:12Z</time>
      </trkpt>
      <trkpt lat="39.1874640" lon="-1.4291530">
        <ele>593.6</ele>
        <time>2019-05-12T07:46:13Z</time>
      </trkpt>
      <trkpt lat="39.1874640" lon="-1.4291790">
        <ele>593.6</ele>
        <time>2019-05-12T07:46:14Z</time>
      </trkpt>
      <trkpt lat="39.1874600" lon="-1.4292060">
        <ele>593.8</ele>
        <time>2019-05-12T07:46:15Z</time>
      </trkpt>
      <trkpt lat="39.1874540" lon="-1.4292360">
        <ele>594.0</ele>
        <time>2019-05-12T07:46:16Z</time>
      </trkpt>
      <trkpt lat="39.1874500" lon="-1.4292600">
        <ele>594.0</ele>
        <time>2019-05-12T07:46:17Z</time>
      </trkpt>
      <trkpt lat="39.1874470" lon="-1.4292820">
        <ele>594.2</ele>
        <time>2019-05-12T07:46:18Z</time>
      </trkpt>
      <trkpt lat="39.1874420" lon="-1.4293070">
        <ele>594.4</ele>
        <time>2019-05-12T07:46:19Z</time>
      </trkpt>
      <trkpt lat="39.1874370" lon="-1.4293350">
        <ele>594.6</ele>
        <time>2019-05-12T07:46:20Z</time>
      </trkpt>
      <trkpt lat="39.1874320" lon="-1.4293650">
        <ele>594.8</ele>
        <time>2019-05-12T07:46:21Z</time>
      </trkpt>
      <trkpt lat="39.1874280" lon="-1.4293960">
        <ele>595.0</ele>
        <time>2019-05-12T07:46:22Z</time>
      </trkpt>
      <trkpt lat="39.1874250" lon="-1.4294260">
        <ele>595.2</ele>
        <time>2019-05-12T07:46:23Z</time>
      </trkpt>
      <trkpt lat="39.1874200" lon="-1.4294550">
        <ele>595.6</ele>
        <time>2019-05-12T07:46:24Z</time>
      </trkpt>
      <trkpt lat="39.1874130" lon="-1.4294850">
        <ele>595.8</ele>
        <time>2019-05-12T07:46:25Z</time>
      </trkpt>
      <trkpt lat="39.1874080" lon="-1.4295180">
        <ele>596.0</ele>
        <time>2019-05-12T07:46:26Z</time>
      </trkpt>
      <trkpt lat="39.1874040" lon="-1.4295510">
        <ele>596.2</ele>
        <time>2019-05-12T07:46:27Z</time>
      </trkpt>
      <trkpt lat="39.1873980" lon="-1.4295840">
        <ele>596.4</ele>
        <time>2019-05-12T07:46:28Z</time>
      </trkpt>
      <trkpt lat="39.1873930" lon="-1.4296170">
        <ele>596.6</ele>
        <time>2019-05-12T07:46:29Z</time>
      </trkpt>
      <trkpt lat="39.1873890" lon="-1.4296510">
        <ele>596.8</ele>
        <time>2019-05-12T07:46:30Z</time>
      </trkpt>
      <trkpt lat="39.1873840" lon="-1.4296850">
        <ele>596.8</ele>
        <time>2019-05-12T07:46:31Z</time>
      </trkpt>
      <trkpt lat="39.1873770" lon="-1.4297190">
        <ele>597.0</ele>
        <time>2019-05-12T07:46:32Z</time>
      </trkpt>
      <trkpt lat="39.1873720" lon="-1.4297550">
        <ele>597.2</ele>
        <time>2019-05-12T07:46:33Z</time>
      </trkpt>
      <trkpt lat="39.1873690" lon="-1.4297910">
        <ele>597.4</ele>
        <time>2019-05-12T07:46:34Z</time>
      </trkpt>
      <trkpt lat="39.1873620" lon="-1.4298240">
        <ele>597.4</ele>
        <time>2019-05-12T07:46:35Z</time>
      </trkpt>
      <trkpt lat="39.1873560" lon="-1.4298550">
        <ele>597.4</ele>
        <time>2019-05-12T07:46:36Z</time>
      </trkpt>
      <trkpt lat="39.1873520" lon="-1.4298860">
        <ele>597.6</ele>
        <time>2019-05-12T07:46:37Z</time>
      </trkpt>
      <trkpt lat="39.1873480" lon="-1.4299170">
        <ele>597.6</ele>
        <time>2019-05-12T07:46:38Z</time>
      </trkpt>
      <trkpt lat="39.1873430" lon="-1.4299460">
        <ele>597.8</ele>
        <time>2019-05-12T07:46:39Z</time>
      </trkpt>
      <trkpt lat="39.1873380" lon="-1.4299750">
        <ele>597.8</ele>
        <time>2019-05-12T07:46:40Z</time>
      </trkpt>
      <trkpt lat="39.1873330" lon="-1.4300030">
        <ele>597.8</ele>
        <time>2019-05-12T07:46:41Z</time>
      </trkpt>
      <trkpt lat="39.1873280" lon="-1.4300300">
        <ele>598.0</ele>
        <time>2019-05-12T07:46:42Z</time>
      </trkpt>
      <trkpt lat="39.1873230" lon="-1.4300560">
        <ele>598.2</ele>
        <time>2019-05-12T07:46:43Z</time>
      </trkpt>
      <trkpt lat="39.1873180" lon="-1.4300780">
        <ele>598.4</ele>
        <time>2019-05-12T07:46:44Z</time>
      </trkpt>
      <trkpt lat="39.1873090" lon="-1.4300970">
        <ele>598.4</ele>
        <time>2019-05-12T07:46:45Z</time>
      </trkpt>
      <trkpt lat="39.1872970" lon="-1.4301090">
        <ele>598.6</ele>
        <time>2019-05-12T07:46:46Z</time>
      </trkpt>
      <trkpt lat="39.1872820" lon="-1.4301130">
        <ele>598.8</ele>
        <time>2019-05-12T07:46:47Z</time>
      </trkpt>
      <trkpt lat="39.1872670" lon="-1.4301070">
        <ele>599.0</ele>
        <time>2019-05-12T07:46:48Z</time>
      </trkpt>
      <trkpt lat="39.1872580" lon="-1.4300900">
        <ele>599.2</ele>
        <time>2019-05-12T07:46:49Z</time>
      </trkpt>
      <trkpt lat="39.1872540" lon="-1.4300700">
        <ele>599.2</ele>
        <time>2019-05-12T07:46:50Z</time>
      </trkpt>
      <trkpt lat="39.1872570" lon="-1.4300490">
        <ele>599.4</ele>
        <time>2019-05-12T07:46:51Z</time>
      </trkpt>
      <trkpt lat="39.1872640" lon="-1.4300270">
        <ele>599.4</ele>
        <time>2019-05-12T07:46:52Z</time>
      </trkpt>
      <trkpt lat="39.1872670" lon="-1.4300070">
        <ele>599.6</ele>
        <time>2019-05-12T07:46:53Z</time>
      </trkpt>
      <trkpt lat="39.1872660" lon="-1.4299860">
        <ele>599.6</ele>
        <time>2019-05-12T07:46:54Z</time>
      </trkpt>
      <trkpt lat="39.1872670" lon="-1.4299630">
        <ele>599.8</ele>
        <time>2019-05-12T07:46:55Z</time>
      </trkpt>
      <trkpt lat="39.1872670" lon="-1.4299390">
        <ele>600.0</ele>
        <time>2019-05-12T07:46:56Z</time>
      </trkpt>
      <trkpt lat="39.1872670" lon="-1.4299140">
        <ele>600.2</ele>
        <time>2019-05-12T07:46:57Z</time>
      </trkpt>
      <trkpt lat="39.1872680" lon="-1.4298880">
        <ele>600.4</ele>
        <time>2019-05-12T07:46:58Z</time>
      </trkpt>
      <trkpt lat="39.1872710" lon="-1.4298620">
        <ele>600.8</ele>
        <time>2019-05-12T07:46:59Z</time>
      </trkpt>
      <trkpt lat="39.1872720" lon="-1.4298380">
        <ele>600.8</ele>
        <time>2019-05-12T07:47:00Z</time>
      </trkpt>
      <trkpt lat="39.1872730" lon="-1.4298130">
        <ele>601.0</ele>
        <time>2019-05-12T07:47:01Z</time>
      </trkpt>
      <trkpt lat="39.1872780" lon="-1.4297890">
        <ele>601.2</ele>
        <time>2019-05-12T07:47:02Z</time>
      </trkpt>
      <trkpt lat="39.1872820" lon="-1.4297690">
        <ele>601.4</ele>
        <time>2019-05-12T07:47:03Z</time>
      </trkpt>
      <trkpt lat="39.1872830" lon="-1.4297440">
        <ele>601.6</ele>
        <time>2019-05-12T07:47:04Z</time>
      </trkpt>
      <trkpt lat="39.1872850" lon="-1.4297150">
        <ele>601.6</ele>
        <time>2019-05-12T07:47:05Z</time>
      </trkpt>
      <trkpt lat="39.1872880" lon="-1.4296850">
        <ele>601.8</ele>
        <time>2019-05-12T07:47:06Z</time>
      </trkpt>
      <trkpt lat="39.1872920" lon="-1.4296550">
        <ele>602.0</ele>
        <time>2019-05-12T07:47:07Z</time>
      </trkpt>
      <trkpt lat="39.1872950" lon="-1.4296260">
        <ele>602.2</ele>
        <time>2019-05-12T07:47:08Z</time>
      </trkpt>
      <trkpt lat="39.1872960" lon="-1.4295990">
        <ele>602.4</ele>
        <time>2019-05-12T07:47:09Z</time>
      </trkpt>
      <trkpt lat="39.1872980" lon="-1.4295710">
        <ele>602.4</ele>
        <time>2019-05-12T07:47:10Z</time>
      </trkpt>
      <trkpt lat="39.1873000" lon="-1.4295420">
        <ele>602.6</ele>
        <time>2019-05-12T07:47:11Z</time>
      </trkpt>
      <trkpt lat="39.1873030" lon="-1.4295150">
        <ele>602.8</ele>
        <time>2019-05-12T07:47:12Z</time>
      </trkpt>
      <trkpt lat="39.1873050" lon="-1.4294890">
        <ele>603.0</ele>
        <time>2019-05-12T07:47:13Z</time>
      </trkpt>
      <trkpt lat="39.1873050" lon="-1.4294650">
        <ele>603.0</ele>
        <time>2019-05-12T07:47:14Z</time>
      </trkpt>
      <trkpt lat="39.1873080" lon="-1.4294390">
        <ele>603.2</ele>
        <time>2019-05-12T07:47:15Z</time>
      </trkpt>
      <trkpt lat="39.1873110" lon="-1.4294110">
        <ele>603.4</ele>
        <time>2019-05-12T07:47:16Z</time>
      </trkpt>
      <trkpt lat="39.1873120" lon="-1.4293830">
        <ele>603.6</ele>
        <time>2019-05-12T07:47:17Z</time>
      </trkpt>
      <trkpt lat="39.1873130" lon="-1.4293530">
        <ele>603.6</ele>
        <time>2019-05-12T07:47:18Z</time>
      </trkpt>
      <trkpt lat="39.1873140" lon="-1.4293260">
        <ele>603.8</ele>
        <time>2019-05-12T07:47:19Z</time>
      </trkpt>
      <trkpt lat="39.1873190" lon="-1.4293000">
        <ele>603.8</ele>
        <time>2019-05-12T07:47:20Z</time>
      </trkpt>
      <trkpt lat="39.1873250" lon="-1.4292730">
        <ele>604.2</ele>
        <time>2019-05-12T07:47:21Z</time>
      </trkpt>
      <trkpt lat="39.1873300" lon="-1.4292470">
        <ele>604.4</ele>
        <time>2019-05-12T07:47:22Z</time>
      </trkpt>
      <trkpt lat="39.1873320" lon="-1.4292220">
        <ele>604.4</ele>
        <time>2019-05-12T07:47:23Z</time>
      </trkpt>
      <trkpt lat="39.1873310" lon="-1.4291990">
        <ele>604.6</ele>
        <time>2019-05-12T07:47:24Z</time>
      </trkpt>
      <trkpt lat="39.1873240" lon="-1.4291790">
        <ele>604.6</ele>
        <time>2019-05-12T07:47:25Z</time>
      </trkpt>
      <trkpt lat="39.1873110" lon="-1.4291650">
        <ele>604.8</ele>
        <time>2019-05-12T07:47:26Z</time>
      </trkpt>
      <trkpt lat="39.1872950" lon="-1.4291620">
        <ele>604.8</ele>
        <time>2019-05-12T07:47:27Z</time>
      </trkpt>
      <trkpt lat="39.1872810" lon="-1.4291720">
        <ele>605.0</ele>
        <time>2019-05-12T07:47:28Z</time>
      </trkpt>
      <trkpt lat="39.1872700" lon="-1.4291920">
        <ele>605.0</ele>
        <time>2019-05-12T07:47:29Z</time>
      </trkpt>
      <trkpt lat="39.1872640" lon="-1.4292160">
        <ele>605.2</ele>
        <time>2019-05-12T07:47:30Z</time>
      </trkpt>
      <trkpt lat="39.1872620" lon="-1.4292410">
        <ele>605.4</ele>
        <time>2019-05-12T07:47:31Z</time>
      </trkpt>
      <trkpt lat="39.1872570" lon="-1.4292660">
        <ele>605.4</ele>
        <time>2019-05-12T07:47:32Z</time>
      </trkpt>
      <trkpt lat="39.1872510" lon="-1.4292910">
        <ele>605.6</ele>
        <time>2019-05-12T07:47:33Z</time>
      </trkpt>
      <trkpt lat="39.1872440" lon="-1.4293160">
        <ele>605.8</ele>
        <time>2019-05-12T07:47:34Z</time>
      </trkpt>
      <trkpt lat="39.1872380" lon="-1.4293420">
        <ele>606.0</ele>
        <time>2019-05-12T07:47:35Z</time>
      </trkpt>
      <trkpt lat="39.1872340" lon="-1.4293710">
        <ele>606.2</ele>
        <time>2019-05-12T07:47:36Z</time>
      </trkpt>
      <trkpt lat="39.1872280" lon="-1.4293960">
        <ele>606.4</ele>
        <time>2019-05-12T07:47:37Z</time>
      </trkpt>
      <trkpt lat="39.1872230" lon="-1.4294150">
        <ele>606.6</ele>
        <time>2019-05-12T07:47:38Z</time>
      </trkpt>
      <trkpt lat="39.1872190" lon="-1.4294350">
        <ele>606.8</ele>
        <time>2019-05-12T07:47:39Z</time>
      </trkpt>
      <trkpt lat="39.1872140" lon="-1.4294570">
        <ele>607.0</ele>
        <time>2019-05-12T07:47:40Z</time>
      </trkpt>
      <trkpt lat="39.1872100" lon="-1.4294780">
        <ele>607.2</ele>
        <time>2019-05-12T07:47:41Z</time>
      </trkpt>
      <trkpt lat="39.1872080" lon="-1.4295010">
        <ele>607.4</ele>
        <time>2019-05-12T07:47:42Z</time>
      </trkpt>
      <trkpt lat="39.1872040" lon="-1.4295260">
        <ele>607.6</ele>
        <time>2019-05-12T07:47:43Z</time>
      </trkpt>
      <trkpt lat="39.1872000" lon="-1.4295510">
        <ele>607.8</ele>
        <time>2019-05-12T07:47:44Z</time>
      </trkpt>
      <trkpt lat="39.1871920" lon="-1.4295730">
        <ele>608.2</ele>
        <time>2019-05-12T07:47:45Z</time>
      </trkpt>
      <trkpt lat="39.1871850" lon="-1.4295960">
        <ele>608.4</ele>
        <time>2019-05-12T07:47:46Z</time>
      </trkpt>
      <trkpt lat="39.1871800" lon="-1.4296180">
        <ele>608.6</ele>
        <time>2019-05-12T07:47:47Z</time>
      </trkpt>
      <trkpt lat="39.1871760" lon="-1.4296400">
        <ele>609.0</ele>
        <time>2019-05-12T07:47:48Z</time>
      </trkpt>
      <trkpt lat="39.1871720" lon="-1.4296630">
        <ele>609.2</ele>
        <time>2019-05-12T07:47:49Z</time>
      </trkpt>
      <trkpt lat="39.1871670" lon="-1.4296880">
        <ele>609.4</ele>
        <time>2019-05-12T07:47:50Z</time>
      </trkpt>
      <trkpt lat="39.1871640" lon="-1.4297130">
        <ele>609.6</ele>
        <time>2019-05-12T07:47:51Z</time>
      </trkpt>
      <trkpt lat="39.1871620" lon="-1.4297350">
        <ele>609.8</ele>
        <time>2019-05-12T07:47:52Z</time>
      </trkpt>
      <trkpt lat="39.1871590" lon="-1.4297570">
        <ele>610.0</ele>
        <time>2019-05-12T07:47:53Z</time>
      </trkpt>
      <trkpt lat="39.1871540" lon="-1.4297780">
        <ele>610.0</ele>
        <time>2019-05-12T07:47:54Z</time>
      </trkpt>
      <trkpt lat="39.1871490" lon="-1.4297990">
        <ele>610.2</ele>
        <time>2019-05-12T07:47:55Z</time>
      </trkpt>
      <trkpt lat="39.1871450" lon="-1.4298210">
        <ele>610.4</ele>
        <time>2019-05-12T07:47:56Z</time>
      </trkpt>
      <trkpt lat="39.1871390" lon="-1.4298460">
        <ele>610.6</ele>
        <time>2019-05-12T07:47:57Z</time>
      </trkpt>
      <trkpt lat="39.1871320" lon="-1.4298720">
        <ele>610.6</ele>
        <time>2019-05-12T07:47:58Z</time>
      </trkpt>
      <trkpt lat="39.1871260" lon="-1.4298990">
        <ele>610.8</ele>
        <time>2019-05-12T07:47:59Z</time>
      </trkpt>
      <trkpt lat="39.1871210" lon="-1.4299250">
        <ele>610.8</ele>
        <time>2019-05-12T07:48:00Z</time>
      </trkpt>
      <trkpt lat="39.1871170" lon="-1.4299470">
        <ele>611.0</ele>
        <time>2019-05-12T07:48:01Z</time>
      </trkpt>
      <trkpt lat="39.1871120" lon="-1.4299700">
        <ele>611.0</ele>
        <time>2019-05-12T07:48:02Z</time>
      </trkpt>
      <trkpt lat="39.1871070" lon="-1.4299960">
        <ele>611.2</ele>
        <time>2019-05-12T07:48:03Z</time>
      </trkpt>
      <trkpt lat="39.1871030" lon="-1.4300230">
        <ele>611.4</ele>
        <time>2019-05-12T07:48:04Z</time>
      </trkpt>
      <trkpt lat="39.1871010" lon="-1.4300510">
        <ele>611.6</ele>
        <time>2019-05-12T07:48:05Z</time>
      </trkpt>
      <trkpt lat="39.1870990" lon="-1.4300760">
        <ele>611.6</ele>
        <time>2019-05-12T07:48:06Z</time>
      </trkpt>
      <trkpt lat="39.1870970" lon="-1.4300990">
        <ele>611.8</ele>
        <time>2019-05-12T07:48:07Z</time>
      </trkpt>
      <trkpt lat="39.1870940" lon="-1.4301220">
        <ele>612.0</ele>
        <time>2019-05-12T07:48:08Z</time>
      </trkpt>
      <trkpt lat="39.1870900" lon="-1.4301470">
        <ele>612.4</ele>
        <time>2019-05-12T07:48:09Z</time>
      </trkpt>
      <trkpt lat="39.1870870" lon="-1.4301730">
        <ele>612.6</ele>
        <time>2019-05-12T07:48:10Z</time>
      </trkpt>
      <trkpt lat="39.1870840" lon="-1.4302000">
        <ele>612.8</ele>
        <time>2019-05-12T07:48:11Z</time>
      </trkpt>
      <trkpt lat="39.1870800" lon="-1.4302250">
        <ele>612.8</ele>
        <time>2019-05-12T07:48:12Z</time>
      </trkpt>
      <trkpt lat="39.1870750" lon="-1.4302490">
        <ele>613.0</ele>
        <time>2019-05-12T07:48:13Z</time>
      </trkpt>
      <trkpt lat="39.1870710" lon="-1.4302750">
        <ele>613.2</ele>
        <time>2019-05-12T07:48:14Z</time>
      </trkpt>
      <trkpt lat="39.1870670" lon="-1.4302980">
        <ele>613.2</ele>
        <time>2019-05-12T07:48:15Z</time>
      </trkpt>
      <trkpt lat="39.1870610" lon="-1.4303200">
        <ele>613.4</ele>
        <time>2019-05-12T07:48:16Z</time>
      </trkpt>
      <trkpt lat="39.1870540" lon="-1.4303410">
        <ele>613.4</ele>
        <time>2019-05-12T07:48:17Z</time>
      </trkpt>
      <trkpt lat="39.1870480" lon="-1.4303620">
        <ele>613.4</ele>
        <time>2019-05-12T07:48:18Z</time>
      </trkpt>
      <trkpt lat="39.1870420" lon="-1.4303810">
        <ele>613.6</ele>
        <time>2019-05-12T07:48:19Z</time>
      </trkpt>
      <trkpt lat="39.1870360" lon="-1.4304010">
        <ele>613.8</ele>
        <time>2019-05-12T07:48:20Z</time>
      </trkpt>
      <trkpt lat="39.1870290" lon="-1.4304170">
        <ele>614.0</ele>
        <time>2019-05-12T07:48:21Z</time>
      </trkpt>
      <trkpt lat="39.1870250" lon="-1.4304310">
        <ele>614.0</ele>
        <time>2019-05-12T07:48:22Z</time>
      </trkpt>
      <trkpt lat="39.1870220" lon="-1.4304460">
        <ele>614.2</ele>
        <time>2019-05-12T07:48:23Z</time>
      </trkpt>
      <trkpt lat="39.1870220" lon="-1.4304610">
        <ele>614.4</ele>
        <time>2019-05-12T07:48:24Z</time>
      </trkpt>
      <trkpt lat="39.1870230" lon="-1.4304760">
        <ele>614.6</ele>
        <time>2019-05-12T07:48:25Z</time>
      </trkpt>
      <trkpt lat="39.1870230" lon="-1.4304890">
        <ele>614.6</ele>
        <time>2019-05-12T07:48:26Z</time>
      </trkpt>
      <trkpt lat="39.1870210" lon="-1.4304980">
        <ele>614.8</ele>
        <time>2019-05-12T07:48:27Z</time>
      </trkpt>
      <trkpt lat="39.1870190" lon="-1.4305060">
        <ele>614.8</ele>
        <time>2019-05-12T07:48:28Z</time>
      </trkpt>
      <trkpt lat="39.1870180" lon="-1.4305170">
        <ele>615.0</ele>
        <time>2019-05-12T07:48:29Z</time>
      </trkpt>
      <trkpt lat="39.1870170" lon="-1.4305270">
        <ele>615.2</ele>
        <time>2019-05-12T07:48:30Z</time>
      </trkpt>
      <trkpt lat="39.1870150" lon="-1.4305360">
        <ele>615.4</ele>
        <time>2019-05-12T07:48:31Z</time>
      </trkpt>
      <trkpt lat="39.1870150" lon="-1.4305360">
        <ele>615.4</ele>
        <time>2019-05-12T07:48:32Z</time>
      </trkpt>
      <trkpt lat="39.1870110" lon="-1.4305490">
        <ele>615.6</ele>
        <time>2019-05-12T07:48:33Z</time>
      </trkpt>
      <trkpt lat="39.1870110" lon="-1.4305550">
        <ele>615.8</ele>
        <time>2019-05-12T07:48:34Z</time>
      </trkpt>
      <trkpt lat="39.1870090" lon="-1.4305680">
        <ele>615.8</ele>
        <time>2019-05-12T07:48:35Z</time>
      </trkpt>
      <trkpt lat="39.1870060" lon="-1.4305820">
        <ele>615.8</ele>
        <time>2019-05-12T07:48:36Z</time>
      </trkpt>
      <trkpt lat="39.1870020" lon="-1.4305960">
        <ele>616.0</ele>
        <time>2019-05-12T07:48:37Z</time>
      </trkpt>
      <trkpt lat="39.1869990" lon="-1.4306080">
        <ele>616.0</ele>
        <time>2019-05-12T07:48:38Z</time>
      </trkpt>
      <trkpt lat="39.1869980" lon="-1.4306180">
        <ele>616.0</ele>
        <time>2019-05-12T07:48:39Z</time>
      </trkpt>
      <trkpt lat="39.1869970" lon="-1.4306290">
        <ele>616.2</ele>
        <time>2019-05-12T07:48:40Z</time>
      </trkpt>
      <trkpt lat="39.1869960" lon="-1.4306410">
        <ele>616.4</ele>
        <time>2019-05-12T07:48:41Z</time>
      </trkpt>
      <trkpt lat="39.1869950" lon="-1.4306540">
        <ele>616.6</ele>
        <time>2019-05-12T07:48:42Z</time>
      </trkpt>
      <trkpt lat="39.1869930" lon="-1.4306670">
        <ele>616.8</ele>
        <time>2019-05-12T07:48:43Z</time>
      </trkpt>
      <trkpt lat="39.1869900" lon="-1.4306810">
        <ele>616.8</ele>
        <time>2019-05-12T07:48:44Z</time>
      </trkpt>
      <trkpt lat="39.1869880" lon="-1.4306970">
        <ele>617.0</ele>
        <time>2019-05-12T07:48:45Z</time>
      </trkpt>
      <trkpt lat="39.1869840" lon="-1.4307140">
        <ele>617.2</ele>
        <time>2019-05-12T07:48:46Z</time>
      </trkpt>
      <trkpt lat="39.1869800" lon="-1.4307300">
        <ele>617.2</ele>
        <time>2019-05-12T07:48:47Z</time>
      </trkpt>
      <trkpt lat="39.1869750" lon="-1.4307440">
        <ele>617.4</ele>
        <time>2019-05-12T07:48:48Z</time>
      </trkpt>
      <trkpt lat="39.1869730" lon="-1.4307570">
        <ele>617.4</ele>
        <time>2019-05-12T07:48:49Z</time>
      </trkpt>
      <trkpt lat="39.1869730" lon="-1.4307690">
        <ele>617.4</ele>
        <time>2019-05-12T07:48:50Z</time>
      </trkpt>
      <trkpt lat="39.1869710" lon="-1.4307790">
        <ele>617.4</ele>
        <time>2019-05-12T07:48:51Z</time>
      </trkpt>
      <trkpt lat="39.1869680" lon="-1.4307880">
        <ele>617.8</ele>
        <time>2019-05-12T07:48:52Z</time>
      </trkpt>
      <trkpt lat="39.1869670" lon="-1.4308000">
        <ele>617.8</ele>
        <time>2019-05-12T07:48:53Z</time>
      </trkpt>
      <trkpt lat="39.1869660" lon="-1.4308150">
        <ele>618.0</ele>
        <time>2019-05-12T07:48:54Z</time>
      </trkpt>
      <trkpt lat="39.1869670" lon="-1.4308310">
        <ele>618.2</ele>
        <time>2019-05-12T07:48:55Z</time>
      </trkpt>
      <trkpt lat="39.1869670" lon="-1.4308480">
        <ele>618.4</ele>
        <time>2019-05-12T07:48:56Z</time>
      </trkpt>
      <trkpt lat="39.1869650" lon="-1.4308650">
        <ele>618.8</ele>
        <time>2019-05-12T07:48:57Z</time>
      </trkpt>
      <trkpt lat="39.1869620" lon="-1.4308800">
        <ele>619.0</ele>
        <time>2019-05-12T07:48:58Z</time>
      </trkpt>
      <trkpt lat="39.1869620" lon="-1.4308930">
        <ele>619.4</ele>
        <time>2019-05-12T07:48:59Z</time>
      </trkpt>
      <trkpt lat="39.1869640" lon="-1.4309050">
        <ele>619.6</ele>
        <time>2019-05-12T07:49:00Z</time>
      </trkpt>
      <trkpt lat="39.1869640" lon="-1.4309210">
        <ele>619.6</ele>
        <time>2019-05-12T07:49:01Z</time>
      </trkpt>
      <trkpt lat="39.1869610" lon="-1.4309390">
        <ele>619.6</ele>
        <time>2019-05-12T07:49:02Z</time>
      </trkpt>
      <trkpt lat="39.1869530" lon="-1.4309530">
        <ele>619.8</ele>
        <time>2019-05-12T07:49:03Z</time>
      </trkpt>
      <trkpt lat="39.1869420" lon="-1.4309530">
        <ele>619.8</ele>
        <time>2019-05-12T07:49:04Z</time>
      </trkpt>
      <trkpt lat="39.1869330" lon="-1.4309410">
        <ele>620.0</ele>
        <time>2019-05-12T07:49:05Z</time>
      </trkpt>
      <trkpt lat="39.1869270" lon="-1.4309240">
        <ele>620.2</ele>
        <time>2019-05-12T07:49:06Z</time>
      </trkpt>
      <trkpt lat="39.1869220" lon="-1.4309060">
        <ele>620.2</ele>
        <time>2019-05-12T07:49:07Z</time>
      </trkpt>
      <trkpt lat="39.1869160" lon="-1.4308850">
        <ele>620.4</ele>
        <time>2019-05-12T07:49:08Z</time>
      </trkpt>
      <trkpt lat="39.1869100" lon="-1.4308640">
        <ele>620.6</ele>
        <time>2019-05-12T07:49:09Z</time>
      </trkpt>
      <trkpt lat="39.1869050" lon="-1.4308420">
        <ele>620.8</ele>
        <time>2019-05-12T07:49:10Z</time>
      </trkpt>
      <trkpt lat="39.1869030" lon="-1.4308170">
        <ele>621.0</ele>
        <time>2019-05-12T07:49:11Z</time>
      </trkpt>
      <trkpt lat="39.1868990" lon="-1.4307920">
        <ele>621.2</ele>
        <time>2019-05-12T07:49:12Z</time>
      </trkpt>
      <trkpt lat="39.1868940" lon="-1.4307680">
        <ele>621.6</ele>
        <time>2019-05-12T07:49:13Z</time>
      </trkpt>
      <trkpt lat="39.1868910" lon="-1.4307420">
        <ele>621.8</ele>
        <time>2019-05-12T07:49:14Z</time>
      </trkpt>
      <trkpt lat="39.1868890" lon="-1.4307170">
        <ele>622.0</ele>
        <time>2019-05-12T07:49:15Z</time>
      </trkpt>
      <trkpt lat="39.1868870" lon="-1.4306940">
        <ele>622.2</ele>
        <time>2019-05-12T07:49:16Z</time>
      </trkpt>
      <trkpt lat="39.1868860" lon="-1.4306690">
        <ele>622.4</ele>
        <time>2019-05-12T07:49:17Z</time>
      </trkpt>
      <trkpt lat="39.1868860" lon="-1.4306430">
        <ele>622.6</ele>
        <time>2019-05-12T07:49:18Z</time>
      </trkpt>
      <trkpt lat="39.1868840" lon="-1.4306180">
        <ele>623.0</ele>
        <time>2019-05-12T07:49:19Z</time>
      </trkpt>
      <trkpt lat="39.1868830" lon="-1.4305890">
        <ele>623.2</ele>
        <time>2019-05-12T07:49:20Z</time>
      </trkpt>
      <trkpt lat="39.1868830" lon="-1.4305610">
        <ele>623.4</ele>
        <time>2019-05-12T07:49:21Z</time>
      </trkpt>
      <trkpt lat="39.1868840" lon="-1.4305320">
        <ele>623.4</ele>
        <time>2019-05-12T07:49:22Z</time>
      </trkpt>
      <trkpt lat="39.1868840" lon="-1.4305040">
        <ele>623.6</ele>
        <time>2019-05-12T07:49:23Z</time>
      </trkpt>
      <trkpt lat="39.1868830" lon="-1.4304740">
        <ele>623.6</ele>
        <time>2019-05-12T07:49:24Z</time>
      </trkpt>
      <trkpt lat="39.1868830" lon="-1.4304450">
        <ele>623.8</ele>
        <time>2019-05-12T07:49:25Z</time>
      </trkpt>
      <trkpt lat="39.1868850" lon="-1.4304150">
        <ele>623.8</ele>
        <time>2019-05-12T07:49:26Z</time>
      </trkpt>
      <trkpt lat="39.1868860" lon="-1.4303870">
        <ele>624.0</ele>
        <time>2019-05-12T07:49:27Z</time>
      </trkpt>
      <trkpt lat="39.1868860" lon="-1.4303590">
        <ele>624.0</ele>
        <time>2019-05-12T07:49:28Z</time>
      </trkpt>
      <trkpt lat="39.1868860" lon="-1.4303310">
        <ele>624.2</ele>
        <time>2019-05-12T07:49:29Z</time>
      </trkpt>
      <trkpt lat="39.1868860" lon="-1.4303060">
        <ele>624.2</ele>
        <time>2019-05-12T07:49:30Z</time>
      </trkpt>
      <trkpt lat="39.1868840" lon="-1.4302800">
        <ele>624.2</ele>
        <time>2019-05-12T07:49:31Z</time>
      </trkpt>
      <trkpt lat="39.1868850" lon="-1.4302520">
        <ele>624.4</ele>
        <time>2019-05-12T07:49:32Z</time>
      </trkpt>
      <trkpt lat="39.1868880" lon="-1.4302250">
        <ele>624.6</ele>
        <time>2019-05-12T07:49:33Z</time>
      </trkpt>
      <trkpt lat="39.1868890" lon="-1.4302010">
        <ele>624.8</ele>
        <time>2019-05-12T07:49:34Z</time>
      </trkpt>
      <trkpt lat="39.1868880" lon="-1.4301750">
        <ele>625.0</ele>
        <time>2019-05-12T07:49:35Z</time>
      </trkpt>
      <trkpt lat="39.1868890" lon="-1.4301490">
        <ele>625.2</ele>
        <time>2019-05-12T07:49:36Z</time>
      </trkpt>
      <trkpt lat="39.1868930" lon="-1.4301230">
        <ele>625.4</ele>
        <time>2019-05-12T07:49:37Z</time>
      </trkpt>
      <trkpt lat="39.1868960" lon="-1.4300970">
        <ele>625.6</ele>
        <time>2019-05-12T07:49:38Z</time>
      </trkpt>
      <trkpt lat="39.1868970" lon="-1.4300710">
        <ele>625.8</ele>
        <time>2019-05-12T07:49:39Z</time>
      </trkpt>
      <trkpt lat="39.1868980" lon="-1.4300440">
        <ele>625.8</ele>
        <time>2019-05-12T07:49:40Z</time>
      </trkpt>
      <trkpt lat="39.1869000" lon="-1.4300160">
        <ele>626.0</ele>
        <time>2019-05-12T07:49:41Z</time>
      </trkpt>
      <trkpt lat="39.1869000" lon="-1.4299880">
        <ele>626.0</ele>
        <time>2019-05-12T07:49:42Z</time>
      </trkpt>
      <trkpt lat="39.1869000" lon="-1.4299600">
        <ele>626.2</ele>
        <time>2019-05-12T07:49:43Z</time>
      </trkpt>
      <trkpt lat="39.1869000" lon="-1.4299310">
        <ele>626.2</ele>
        <time>2019-05-12T07:49:44Z</time>
      </trkpt>
      <trkpt lat="39.1869000" lon="-1.4299020">
        <ele>626.4</ele>
        <time>2019-05-12T07:49:45Z</time>
      </trkpt>
      <trkpt lat="39.1868980" lon="-1.4298740">
        <ele>626.4</ele>
        <time>2019-05-12T07:49:46Z</time>
      </trkpt>
      <trkpt lat="39.1868980" lon="-1.4298440">
        <ele>626.6</ele>
        <time>2019-05-12T07:49:47Z</time>
      </trkpt>
      <trkpt lat="39.1868980" lon="-1.4298150">
        <ele>626.6</ele>
        <time>2019-05-12T07:49:48Z</time>
      </trkpt>
      <trkpt lat="39.1868980" lon="-1.4297850">
        <ele>626.6</ele>
        <time>2019-05-12T07:49:49Z</time>
      </trkpt>
      <trkpt lat="39.1868990" lon="-1.4297530">
        <ele>626.6</ele>
        <time>2019-05-12T07:49:50Z</time>
      </trkpt>
      <trkpt lat="39.1869000" lon="-1.4297210">
        <ele>626.8</ele>
        <time>2019-05-12T07:49:51Z</time>
      </trkpt>
      <trkpt lat="39.1869020" lon="-1.4296890">
        <ele>627.0</ele>
        <time>2019-05-12T07:49:52Z</time>
      </trkpt>
      <trkpt lat="39.1869070" lon="-1.4296590">
        <ele>627.4</ele>
        <time>2019-05-12T07:49:53Z</time>
      </trkpt>
      <trkpt lat="39.1869110" lon="-1.4296300">
        <ele>627.6</ele>
        <time>2019-05-12T07:49:54Z</time>
      </trkpt>
      <trkpt lat="39.1869110" lon="-1.4296000">
        <ele>627.6</ele>
        <time>2019-05-12T07:49:55Z</time>
      </trkpt>
      <trkpt lat="39.1869030" lon="-1.4295760">
        <ele>627.8</ele>
        <time>2019-05-12T07:49:56Z</time>
      </trkpt>
      <trkpt lat="39.1868850" lon="-1.4295630">
        <ele>627.8</ele>
        <time>2019-05-12T07:49:57Z</time>
      </trkpt>
      <trkpt lat="39.1868680" lon="-1.4295690">
        <ele>628.0</ele>
        <time>2019-05-12T07:49:58Z</time>
      </trkpt>
      <trkpt lat="39.1868550" lon="-1.4295880">
        <ele>628.2</ele>
        <time>2019-05-12T07:49:59Z</time>
      </trkpt>
      <trkpt lat="39.1868500" lon="-1.4296130">
        <ele>628.2</ele>
        <time>2019-05-12T07:50:00Z</time>
      </trkpt>
      <trkpt lat="39.1868480" lon="-1.4296430">
        <ele>628.4</ele>
        <time>2019-05-12T07:50:01Z</time>
      </trkpt>
      <trkpt lat="39.1868460" lon="-1.4296730">
        <ele>628.6</ele>
        <time>2019-05-12T07:50:02Z</time>
      </trkpt>
      <trkpt lat="39.1868420" lon="-1.4297020">
        <ele>628.6</ele>
        <time>2019-05-12T07:50:03Z</time>
      </trkpt>
      <trkpt lat="39.1868380" lon="-1.4297290">
        <ele>628.8</ele>
        <time>2019-05-12T07:50:04Z</time>
      </trkpt>
      <trkpt lat="39.1868340" lon="-1.4297560">
        <ele>629.0</ele>
        <time>2019-05-12T07:50:05Z</time>
      </trkpt>
      <trkpt lat="39.1868280" lon="-1.4297810">
        <ele>629.2</ele>
        <time>2019-05-12T07:50:06Z</time>
      </trkpt>
      <trkpt lat="39.1868220" lon="-1.4298080">
        <ele>629.2</ele>
        <time>2019-05-12T07:50:07Z</time>
      </trkpt>
      <trkpt lat="39.1868150" lon="-1.4298380">
        <ele>629.4</ele>
        <time>2019-05-12T07:50:08Z</time>
      </trkpt>
      <trkpt lat="39.1868090" lon="-1.4298680">
        <ele>629.6</ele>
        <time>2019-05-12T07:50:09Z</time>
      </trkpt>
      <trkpt lat="39.1868060" lon="-1.4299010">
        <ele>629.8</ele>
        <time>2019-05-12T07:50:10Z</time>
      </trkpt>
      <trkpt lat="39.1868030" lon="-1.4299340">
        <ele>630.0</ele>
        <time>2019-05-12T07:50:11Z</time>
      </trkpt>
      <trkpt lat="39.1868000" lon="-1.4299670">
        <ele>630.2</ele>
        <time>2019-05-12T07:50:12Z</time>
      </trkpt>
      <trkpt lat="39.1867950" lon="-1.4299970">
        <ele>630.4</ele>
        <time>2019-05-12T07:50:13Z</time>
      </trkpt>
      <trkpt lat="39.1867900" lon="-1.4300270">
        <ele>630.6</ele>
        <time>2019-05-12T07:50:14Z</time>
      </trkpt>
      <trkpt lat="39.1867840" lon="-1.4300580">
        <ele>630.8</ele>
        <time>2019-05-12T07:50:15Z</time>
      </trkpt>
      <trkpt lat="39.1867780" lon="-1.4300880">
        <ele>630.8</ele>
        <time>2019-05-12T07:50:16Z</time>
      </trkpt>
      <trkpt lat="39.1867730" lon="-1.4301190">
        <ele>631.0</ele>
        <time>2019-05-12T07:50:17Z</time>
      </trkpt>
      <trkpt lat="39.1867670" lon="-1.4301490">
        <ele>631.0</ele>
        <time>2019-05-12T07:50:18Z</time>
      </trkpt>
      <trkpt lat="39.1867610" lon="-1.4301810">
        <ele>631.2</ele>
        <time>2019-05-12T07:50:19Z</time>
      </trkpt>
      <trkpt lat="39.1867580" lon="-1.4302120">
        <ele>631.4</ele>
        <time>2019-05-12T07:50:20Z</time>
      </trkpt>
      <trkpt lat="39.1867550" lon="-1.4302420">
        <ele>631.6</ele>
        <time>2019-05-12T07:50:21Z</time>
      </trkpt>
      <trkpt lat="39.1867510" lon="-1.4302700">
        <ele>631.8</ele>
        <time>2019-05-12T07:50:22Z</time>
      </trkpt>
      <trkpt lat="39.1867470" lon="-1.4303000">
        <ele>632.0</ele>
        <time>2019-05-12T07:50:23Z</time>
      </trkpt>
      <trkpt lat="39.1867420" lon="-1.4303300">
        <ele>632.2</ele>
        <time>2019-05-12T07:50:24Z</time>
      </trkpt>
      <trkpt lat="39.1867370" lon="-1.4303610">
        <ele>632.4</ele>
        <time>2019-05-12T07:50:25Z</time>
      </trkpt>
      <trkpt lat="39.1867320" lon="-1.4303930">
        <ele>632.6</ele>
        <time>2019-05-12T07:50:26Z</time>
      </trkpt>
      <trkpt lat="39.1867280" lon="-1.4304240">
        <ele>632.8</ele>
        <time>2019-05-12T07:50:27Z</time>
      </trkpt>
      <trkpt lat="39.1867240" lon="-1.4304530">
        <ele>633.0</ele>
        <time>2019-05-12T07:50:28Z</time>
      </trkpt>
      <trkpt lat="39.1867190" lon="-1.4304840">
        <ele>633.2</ele>
        <time>2019-05-12T07:50:29Z</time>
      </trkpt>
      <trkpt lat="39.1867160" lon="-1.4305160">
        <ele>633.2</ele>
        <time>2019-05-12T07:50:30Z</time>
      </trkpt>
      <trkpt lat="39.1867120" lon="-1.4305470">
        <ele>633.4</ele>
        <time>2019-05-12T07:50:31Z</time>
      </trkpt>
      <trkpt lat="39.1867070" lon="-1.4305780">
        <ele>633.6</ele>
        <time>2019-05-12T07:50:32Z</time>
      </trkpt>
      <trkpt lat="39.1867020" lon="-1.4306100">
        <ele>633.6</ele>
        <time>2019-05-12T07:50:33Z</time>
      </trkpt>
      <trkpt lat="39.1866970" lon="-1.4306410">
        <ele>633.8</ele>
        <time>2019-05-12T07:50:34Z</time>
      </trkpt>
      <trkpt lat="39.1866940" lon="-1.4306730">
        <ele>634.2</ele>
        <time>2019-05-12T07:50:35Z</time>
      </trkpt>
      <trkpt lat="39.1866920" lon="-1.4307060">
        <ele>634.2</ele>
        <time>2019-05-12T07:50:36Z</time>
      </trkpt>
      <trkpt lat="39.1866900" lon="-1.4307390">
        <ele>634.4</ele>
        <time>2019-05-12T07:50:37Z</time>
      </trkpt>
      <trkpt lat="39.1866870" lon="-1.4307730">
        <ele>634.4</ele>
        <time>2019-05-12T07:50:38Z</time>
      </trkpt>
      <trkpt lat="39.1866870" lon="-1.4308060">
        <ele>634.6</ele>
        <time>2019-05-12T07:50:39Z</time>
      </trkpt>
      <trkpt lat="39.1866870" lon="-1.4308400">
        <ele>634.8</ele>
        <time>2019-05-12T07:50:40Z</time>
      </trkpt>
      <trkpt lat="39.1866870" lon="-1.4308740">
        <ele>635.0</ele>
        <time>2019-05-12T07:50:41Z</time>
      </trkpt>
      <trkpt lat="39.1866870" lon="-1.4309080">
        <ele>635.0</ele>
        <time>2019-05-12T07:50:42Z</time>
      </trkpt>
      <trkpt lat="39.1866880" lon="-1.4309420">
        <ele>635.2</ele>
        <time>2019-05-12T07:50:43Z</time>
      </trkpt>
      <trkpt lat="39.1866910" lon="-1.4309750">
        <ele>635.4</ele>
        <time>2019-05-12T07:50:44Z</time>
      </trkpt>
      <trkpt lat="39.1866930" lon="-1.4310090">
        <ele>635.4</ele>
        <time>2019-05-12T07:50:45Z</time>
      </trkpt>
      <trkpt lat="39.1866980" lon="-1.4310410">
        <ele>635.6</ele>
        <time>2019-05-12T07:50:46Z</time>
      </trkpt>
      <trkpt lat="39.1867050" lon="-1.4310740">
        <ele>635.6</ele>
        <time>2019-05-12T07:50:47Z</time>
      </trkpt>
      <trkpt lat="39.1867130" lon="-1.4311050">
        <ele>635.6</ele>
        <time>2019-05-12T07:50:48Z</time>
      </trkpt>
      <trkpt lat="39.1867210" lon="-1.4311320">
        <ele>635.8</ele>
        <time>2019-05-12T07:50:49Z</time>
      </trkpt>
      <trkpt lat="39.1867250" lon="-1.4311580">
        <ele>636.0</ele>
        <time>2019-05-12T07:50:50Z</time>
      </trkpt>
      <trkpt lat="39.1867250" lon="-1.4311820">
        <ele>636.0</ele>
        <time>2019-05-12T07:50:51Z</time>
      </trkpt>
      <trkpt lat="39.1867170" lon="-1.4311950">
        <ele>636.2</ele>
        <time>2019-05-12T07:50:52Z</time>
      </trkpt>
      <trkpt lat="39.1867040" lon="-1.4311920">
        <ele>636.2</ele>
        <time>2019-05-12T07:50:53Z</time>
      </trkpt>
      <trkpt lat="39.1866950" lon="-1.4311750">
        <ele>636.4</ele>
        <time>2019-05-12T07:50:54Z</time>
      </trkpt>
      <trkpt lat="39.1866870" lon="-1.4311460">
        <ele>636.6</ele>
        <time>2019-05-12T07:50:55Z</time>
      </trkpt>
      <trkpt lat="39.1866780" lon="-1.4311140">
        <ele>636.6</ele>
        <time>2019-05-12T07:50:56Z</time>
      </trkpt>
      <trkpt lat="39.1866710" lon="-1.4310820">
        <ele>636.8</ele>
        <time>2019-05-12T07:50:57Z</time>
      </trkpt>
      <trkpt lat="39.1866660" lon="-1.4310480">
        <ele>636.8</ele>
        <time>2019-05-12T07:50:58Z</time>
      </trkpt>
      <trkpt lat="39.1866600" lon="-1.4310120">
        <ele>637.0</ele>
        <time>2019-05-12T07:50:59Z</time>
      </trkpt>
      <trkpt lat="39.1866500" lon="-1.4309800">
        <ele>637.2</ele>
        <time>2019-05-12T07:51:00Z</time>
      </trkpt>
      <trkpt lat="39.1866420" lon="-1.4309470">
        <ele>637.4</ele>
        <time>2019-05-12T07:51:01Z</time>
      </trkpt>
      <trkpt lat="39.1866350" lon="-1.4309170">
        <ele>637.6</ele>
        <time>2019-05-12T07:51:02Z</time>
      </trkpt>
      <trkpt lat="39.1866290" lon="-1.4308860">
        <ele>638.0</ele>
        <time>2019-05-12T07:51:03Z</time>
      </trkpt>
      <trkpt lat="39.1866220" lon="-1.4308570">
        <ele>638.2</ele>
        <time>2019-05-12T07:51:04Z</time>
      </trkpt>
      <trkpt lat="39.1866150" lon="-1.4308270">
        <ele>638.4</ele>
        <time>2019-05-12T07:51:05Z</time>
      </trkpt>
      <trkpt lat="39.1866100" lon="-1.4307910">
        <ele>638.4</ele>
        <time>2019-05-12T07:51:06Z</time>
      </trkpt>
      <trkpt lat="39.1866050" lon="-1.4307570">
        <ele>638.6</ele>
        <time>2019-05-12T07:51:07Z</time>
      </trkpt>
      <trkpt lat="39.1866000" lon="-1.4307230">
        <ele>638.8</ele>
        <time>2019-05-12T07:51:08Z</time>
      </trkpt>
      <trkpt lat="39.1865960" lon="-1.4306890">
        <ele>639.0</ele>
        <time>2019-05-12T07:51:09Z</time>
      </trkpt>
      <trkpt lat="39.1865920" lon="-1.4306570">
        <ele>639.2</ele>
        <time>2019-05-12T07:51:10Z</time>
      </trkpt>
      <trkpt lat="39.1865880" lon="-1.4306230">
        <ele>639.4</ele>
        <time>2019-05-12T07:51:11Z</time>
      </trkpt>
      <trkpt lat="39.1865840" lon="-1.4305890">
        <ele>639.6</ele>
        <time>2019-05-12T07:51:12Z</time>
      </trkpt>
      <trkpt lat="39.1865790" lon="-1.4305590">
        <ele>639.6</ele>
        <time>2019-05-12T07:51:13Z</time>
      </trkpt>
      <trkpt lat="39.1865790" lon="-1.4305270">
        <ele>640.0</ele>
        <time>2019-05-12T07:51:14Z</time>
      </trkpt>
      <trkpt lat="39.1865820" lon="-1.4304930">
        <ele>640.2</ele>
        <time>2019-05-12T07:51:15Z</time>
      </trkpt>
      <trkpt lat="39.1865810" lon="-1.4304590">
        <ele>640.4</ele>
        <time>2019-05-12T07:51:16Z</time>
      </trkpt>
      <trkpt lat="39.1865780" lon="-1.4304260">
        <ele>640.8</ele>
        <time>2019-05-12T07:51:17Z</time>
      </trkpt>
      <trkpt lat="39.1865770" lon="-1.4303930">
        <ele>641.0</ele>
        <time>2019-05-12T07:51:18Z</time>
      </trkpt>
      <trkpt lat="39.1865750" lon="-1.4303600">
        <ele>641.4</ele>
        <time>2019-05-12T07:51:19Z</time>
      </trkpt>
      <trkpt lat="39.1865720" lon="-1.4303250">
        <ele>641.6</ele>
        <time>2019-05-12T07:51:20Z</time>
      </trkpt>
      <trkpt lat="39.1865700" lon="-1.4302910">
        <ele>642.0</ele>
        <time>2019-05-12T07:51:21Z</time>
      </trkpt>
      <trkpt lat="39.1865680" lon="-1.4302580">
        <ele>642.2</ele>
        <time>2019-05-12T07:51:22Z</time>
      </trkpt>
      <trkpt lat="39.1865660" lon="-1.4302250">
        <ele>642.2</ele>
        <time>2019-05-12T07:51:23Z</time>
      </trkpt>
      <trkpt lat="39.1865620" lon="-1.4301930">
        <ele>642.4</ele>
        <time>2019-05-12T07:51:24Z</time>
      </trkpt>
      <trkpt lat="39.1865610" lon="-1.4301590">
        <ele>642.6</ele>
        <time>2019-05-12T07:51:25Z</time>
      </trkpt>
      <trkpt lat="39.1865650" lon="-1.4301260">
        <ele>642.8</ele>
        <time>2019-05-12T07:51:26Z</time>
      </trkpt>
      <trkpt lat="39.1865670" lon="-1.4300930">
        <ele>643.0</ele>
        <time>2019-05-12T07:51:27Z</time>
      </trkpt>
      <trkpt lat="39.1865670" lon="-1.4300600">
        <ele>643.2</ele>
        <time>2019-05-12T07:51:28Z</time>
      </trkpt>
      <trkpt lat="39.1865670" lon="-1.4300290">
        <ele>643.4</ele>
        <time>2019-05-12T07:51:29Z</time>
      </trkpt>
      <trkpt lat="39.1865650" lon="-1.4300010">
        <ele>643.6</ele>
        <time>2019-05-12T07:51:30Z</time>
      </trkpt>
      <trkpt lat="39.1865640" lon="-1.4299730">
        <ele>643.8</ele>
        <time>2019-05-12T07:51:31Z</time>
      </trkpt>
      <trkpt lat="39.1865610" lon="-1.4299450">
        <ele>644.0</ele>
        <time>2019-05-12T07:51:32Z</time>
      </trkpt>
      <trkpt lat="39.1865610" lon="-1.4299170">
        <ele>644.0</ele>
        <time>2019-05-12T07:51:33Z</time>
      </trkpt>
      <trkpt lat="39.1865600" lon="-1.4298880">
        <ele>644.2</ele>
        <time>2019-05-12T07:51:34Z</time>
      </trkpt>
      <trkpt lat="39.1865600" lon="-1.4298570">
        <ele>644.2</ele>
        <time>2019-05-12T07:51:35Z</time>
      </trkpt>
      <trkpt lat="39.1865620" lon="-1.4298270">
        <ele>644.6</ele>
        <time>2019-05-12T07:51:36Z</time>
      </trkpt>
      <trkpt lat="39.1865640" lon="-1.4297960">
        <ele>645.2</ele>
        <time>2019-05-12T07:51:37Z</time>
      </trkpt>
      <trkpt lat="39.1865610" lon="-1.4297680">
        <ele>645.4</ele>
        <time>2019-05-12T07:51:38Z</time>
      </trkpt>
      <trkpt lat="39.1865510" lon="-1.4297450">
        <ele>645.6</ele>
        <time>2019-05-12T07:51:39Z</time>
      </trkpt>
      <trkpt lat="39.1865350" lon="-1.4297340">
        <ele>645.8</ele>
        <time>2019-05-12T07:51:40Z</time>
      </trkpt>
      <trkpt lat="39.1865170" lon="-1.4297410">
        <ele>646.0</ele>
        <time>2019-05-12T07:51:41Z</time>
      </trkpt>
      <trkpt lat="39.1865060" lon="-1.4297600">
        <ele>646.0</ele>
        <time>2019-05-12T07:51:42Z</time>
      </trkpt>
      <trkpt lat="39.1865020" lon="-1.4297870">
        <ele>646.2</ele>
        <time>2019-05-12T07:51:43Z</time>
      </trkpt>
      <trkpt lat="39.1865060" lon="-1.4298190">
        <ele>646.2</ele>
        <time>2019-05-12T07:51:44Z</time>
      </trkpt>
      <trkpt lat="39.1865100" lon="-1.4298530">
        <ele>646.4</ele>
        <time>2019-05-12T07:51:45Z</time>
      </trkpt>
      <trkpt lat="39.1865100" lon="-1.4298890">
        <ele>646.6</ele>
        <time>2019-05-12T07:51:46Z</time>
      </trkpt>
      <trkpt lat="39.1865070" lon="-1.4299270">
        <ele>646.8</ele>
        <time>2019-05-12T07:51:47Z</time>
      </trkpt>
      <trkpt lat="39.1865040" lon="-1.4299670">
        <ele>647.0</ele>
        <time>2019-05-12T07:51:48Z</time>
      </trkpt>
      <trkpt lat="39.1864990" lon="-1.4300090">
        <ele>647.2</ele>
        <time>2019-05-12T07:51:49Z</time>
      </trkpt>
      <trkpt lat="39.1864940" lon="-1.4300520">
        <ele>647.4</ele>
        <time>2019-05-12T07:51:50Z</time>
      </trkpt>
      <trkpt lat="39.1864900" lon="-1.4300960">
        <ele>647.6</ele>
        <time>2019-05-12T07:51:51Z</time>
      </trkpt>
      <trkpt lat="39.1864860" lon="-1.4301420">
        <ele>647.8</ele>
        <time>2019-05-12T07:51:52Z</time>
      </trkpt>
      <trkpt lat="39.1864810" lon="-1.4301880">
        <ele>648.0</ele>
        <time>2019-05-12T07:51:53Z</time>
      </trkpt>
      <trkpt lat="39.1864770" lon="-1.4302360">
        <ele>648.2</ele>
        <time>2019-05-12T07:51:54Z</time>
      </trkpt>
      <trkpt lat="39.1864750" lon="-1.4302870">
        <ele>648.4</ele>
        <time>2019-05-12T07:51:55Z</time>
      </trkpt>
      <trkpt lat="39.1864740" lon="-1.4303400">
        <ele>648.6</ele>
        <time>2019-05-12T07:51:56Z</time>
      </trkpt>
      <trkpt lat="39.1864700" lon="-1.4303920">
        <ele>648.8</ele>
        <time>2019-05-12T07:51:57Z</time>
      </trkpt>
      <trkpt lat="39.1864660" lon="-1.4304440">
        <ele>649.0</ele>
        <time>2019-05-12T07:51:58Z</time>
      </trkpt>
      <trkpt lat="39.1864620" lon="-1.4304980">
        <ele>649.2</ele>
        <time>2019-05-12T07:51:59Z</time>
      </trkpt>
      <trkpt lat="39.1864580" lon="-1.4305520">
        <ele>649.4</ele>
        <time>2019-05-12T07:52:00Z</time>
      </trkpt>
      <trkpt lat="39.1864560" lon="-1.4306090">
        <ele>649.4</ele>
        <time>2019-05-12T07:52:01Z</time>
      </trkpt>
      <trkpt lat="39.1864540" lon="-1.4306660">
        <ele>649.6</ele>
        <time>2019-05-12T07:52:02Z</time>
      </trkpt>
      <trkpt lat="39.1864530" lon="-1.4307240">
        <ele>649.6</ele>
        <time>2019-05-12T07:52:03Z</time>
      </trkpt>
      <trkpt lat="39.1864500" lon="-1.4307830">
        <ele>649.8</ele>
        <time>2019-05-12T07:52:04Z</time>
      </trkpt>
      <trkpt lat="39.1864470" lon="-1.4308430">
        <ele>650.0</ele>
        <time>2019-05-12T07:52:05Z</time>
      </trkpt>
      <trkpt lat="39.1864420" lon="-1.4309050">
        <ele>650.2</ele>
        <time>2019-05-12T07:52:06Z</time>
      </trkpt>
      <trkpt lat="39.1864380" lon="-1.4309650">
        <ele>650.4</ele>
        <time>2019-05-12T07:52:07Z</time>
      </trkpt>
      <trkpt lat="39.1864340" lon="-1.4310240">
        <ele>650.4</ele>
        <time>2019-05-12T07:52:08Z</time>
      </trkpt>
      <trkpt lat="39.1864310" lon="-1.4310820">
        <ele>650.6</ele>
        <time>2019-05-12T07:52:09Z</time>
      </trkpt>
      <trkpt lat="39.1864330" lon="-1.4311370">
        <ele>650.6</ele>
        <time>2019-05-12T07:52:10Z</time>
      </trkpt>
      <trkpt lat="39.1864400" lon="-1.4311890">
        <ele>650.8</ele>
        <time>2019-05-12T07:52:11Z</time>
      </trkpt>
      <trkpt lat="39.1864540" lon="-1.4312390">
        <ele>651.0</ele>
        <time>2019-05-12T07:52:12Z</time>
      </trkpt>
      <trkpt lat="39.1864740" lon="-1.4312850">
        <ele>651.0</ele>
        <time>2019-05-12T07:52:13Z</time>
      </trkpt>
      <trkpt lat="39.1864950" lon="-1.4313260">
        <ele>651.2</ele>
        <time>2019-05-12T07:52:14Z</time>
      </trkpt>
      <trkpt lat="39.1865100" lon="-1.4313650">
        <ele>651.4</ele>
        <time>2019-05-12T07:52:15Z</time>
      </trkpt>
      <trkpt lat="39.1865110" lon="-1.4313990">
        <ele>651.6</ele>
        <time>2019-05-12T07:52:16Z</time>
      </trkpt>
      <trkpt lat="39.1865000" lon="-1.4314180">
        <ele>651.8</ele>
        <time>2019-05-12T07:52:17Z</time>
      </trkpt>
      <trkpt lat="39.1864870" lon="-1.4314120">
        <ele>652.2</ele>
        <time>2019-05-12T07:52:18Z</time>
      </trkpt>
      <trkpt lat="39.1864740" lon="-1.4313930">
        <ele>652.6</ele>
        <time>2019-05-12T07:52:19Z</time>
      </trkpt>
      <trkpt lat="39.1864630" lon="-1.4313690">
        <ele>653.0</ele>
        <time>2019-05-12T07:52:20Z</time>
      </trkpt>
      <trkpt lat="39.1864460" lon="-1.4313470">
        <ele>653.2</ele>
        <time>2019-05-12T07:52:21Z</time>
      </trkpt>
      <trkpt lat="39.1864270" lon="-1.4313220">
        <ele>653.6</ele>
        <time>2019-05-12T07:52:22Z</time>
      </trkpt>
      <trkpt lat="39.1864090" lon="-1.4312990">
        <ele>654.0</ele>
        <time>2019-05-12T07:52:23Z</time>
      </trkpt>
      <trkpt lat="39.1863930" lon="-1.4312770">
        <ele>654.2</ele>
        <time>2019-05-12T07:52:24Z</time>
      </trkpt>
      <trkpt lat="39.1863780" lon="-1.4312560">
        <ele>654.6</ele>
        <time>2019-05-12T07:52:25Z</time>
      </trkpt>
      <trkpt lat="39.1863600" lon="-1.4312430">
        <ele>654.8</ele>
        <time>2019-05-12T07:52:26Z</time>
      </trkpt>
      <trkpt lat="39.1863400" lon="-1.4312400">
        <ele>655.2</ele>
        <time>2019-05-12T07:52:27Z</time>
      </trkpt>
      <trkpt lat="39.1863210" lon="-1.4312460">
        <ele>655.4</ele>
        <time>2019-05-12T07:52:28Z</time>
      </trkpt>
      <trkpt lat="39.1863030" lon="-1.4312620">
        <ele>655.8</ele>
        <time>2019-05-12T07:52:29Z</time>
      </trkpt>
      <trkpt lat="39.1862880" lon="-1.4312810">
        <ele>656.0</ele>
        <time>2019-05-12T07:52:30Z</time>
      </trkpt>
      <trkpt lat="39.1862870" lon="-1.4313050">
        <ele>656.2</ele>
        <time>2019-05-12T07:52:31Z</time>
      </trkpt>
      <trkpt lat="39.1862950" lon="-1.4313310">
        <ele>656.8</ele>
        <time>2019-05-12T07:52:32Z</time>
      </trkpt>
      <trkpt lat="39.1863070" lon="-1.4313560">
        <ele>657.2</ele>
        <time>2019-05-12T07:52:33Z</time>
      </trkpt>
      <trkpt lat="39.1863190" lon="-1.4313830">
        <ele>657.6</ele>
        <time>2019-05-12T07:52:34Z</time>
      </trkpt>
      <trkpt lat="39.1863330" lon="-1.4314090">
        <ele>658.0</ele>
        <time>2019-05-12T07:52:35Z</time>
      </trkpt>
      <trkpt lat="39.1863480" lon="-1.4314330">
        <ele>658.4</ele>
        <time>2019-05-12T07:52:36Z</time>
      </trkpt>
      <trkpt lat="39.1863670" lon="-1.4314580">
        <ele>658.8</ele>
        <time>2019-05-12T07:52:37Z</time>
      </trkpt>
      <trkpt lat="39.1863860" lon="-1.4314830">
        <ele>659.2</ele>
        <time>2019-05-12T07:52:38Z</time>
      </trkpt>
      <trkpt lat="39.1864060" lon="-1.4315060">
        <ele>659.6</ele>
        <time>2019-05-12T07:52:39Z</time>
      </trkpt>
      <trkpt lat="39.1864240" lon="-1.4315290">
        <ele>659.8</ele>
        <time>2019-05-12T07:52:40Z</time>
      </trkpt>
      <trkpt lat="39.1864430" lon="-1.4315510">
        <ele>660.2</ele>
        <time>2019-05-12T07:52:41Z</time>
      </trkpt>
      <trkpt lat="39.1864630" lon="-1.4315700">
        <ele>660.4</ele>
        <time>2019-05-12T07:52:42Z</time>
      </trkpt>
      <trkpt lat="39.1864870" lon="-1.4315940">
        <ele>660.6</ele>
        <time>2019-05-12T07:52:43Z</time>
      </trkpt>
      <trkpt lat="39.1865120" lon="-1.4316230">
        <ele>660.6</ele>
        <time>2019-05-12T07:52:44Z</time>
      </trkpt>
      <trkpt lat="39.1865390" lon="-1.4316570">
        <ele>660.6</ele>
        <time>2019-05-12T07:52:45Z</time>
      </trkpt>
      <trkpt lat="39.1865650" lon="-1.4316960">
        <ele>661.0</ele>
        <time>2019-05-12T07:52:46Z</time>
      </trkpt>
      <trkpt lat="39.1865920" lon="-1.4317370">
        <ele>661.4</ele>
        <time>2019-05-12T07:52:47Z</time>
      </trkpt>
      <trkpt lat="39.1866230" lon="-1.4317760">
        <ele>661.6</ele>
        <time>2019-05-12T07:52:48Z</time>
      </trkpt>
      <trkpt lat="39.1866530" lon="-1.4318160">
        <ele>661.8</ele>
        <time>2019-05-12T07:52:49Z</time>
      </trkpt>
      <trkpt lat="39.1866790" lon="-1.4318570">
        <ele>662.0</ele>
        <time>2019-05-12T07:52:50Z</time>
      </trkpt>
      <trkpt lat="39.1867040" lon="-1.4318980">
        <ele>662.4</ele>
        <time>2019-05-12T07:52:51Z</time>
      </trkpt>
      <trkpt lat="39.1867260" lon="-1.4319390">
        <ele>662.6</ele>
        <time>2019-05-12T07:52:52Z</time>
      </trkpt>
      <trkpt lat="39.1867440" lon="-1.4319790">
        <ele>662.8</ele>
        <time>2019-05-12T07:52:53Z</time>
      </trkpt>
      <trkpt lat="39.1867550" lon="-1.4320200">
        <ele>663.2</ele>
        <time>2019-05-12T07:52:54Z</time>
      </trkpt>
      <trkpt lat="39.1867520" lon="-1.4320570">
        <ele>663.4</ele>
        <time>2019-05-12T07:52:55Z</time>
      </trkpt>
      <trkpt lat="39.1867340" lon="-1.4320770">
        <ele>663.6</ele>
        <time>2019-05-12T07:52:56Z</time>
      </trkpt>
      <trkpt lat="39.1867120" lon="-1.4320760">
        <ele>663.8</ele>
        <time>2019-05-12T07:52:57Z</time>
      </trkpt>
      <trkpt lat="39.1866950" lon="-1.4320570">
        <ele>664.0</ele>
        <time>2019-05-12T07:52:58Z</time>
      </trkpt>
      <trkpt lat="39.1866780" lon="-1.4320250">
        <ele>664.2</ele>
        <time>2019-05-12T07:52:59Z</time>
      </trkpt>
      <trkpt lat="39.1866600" lon="-1.4319900">
        <ele>664.4</ele>
        <time>2019-05-12T07:53:00Z</time>
      </trkpt>
      <trkpt lat="39.1866400" lon="-1.4319560">
        <ele>664.6</ele>
        <time>2019-05-12T07:53:01Z</time>
      </trkpt>
      <trkpt lat="39.1866170" lon="-1.4319260">
        <ele>665.0</ele>
        <time>2019-05-12T07:53:02Z</time>
      </trkpt>
      <trkpt lat="39.1865930" lon="-1.4318990">
        <ele>665.2</ele>
        <time>2019-05-12T07:53:03Z</time>
      </trkpt>
      <trkpt lat="39.1865710" lon="-1.4318740">
        <ele>665.6</ele>
        <time>2019-05-12T07:53:04Z</time>
      </trkpt>
      <trkpt lat="39.1865490" lon="-1.4318560">
        <ele>666.0</ele>
        <time>2019-05-12T07:53:05Z</time>
      </trkpt>
      <trkpt lat="39.1865250" lon="-1.4318380">
        <ele>666.2</ele>
        <time>2019-05-12T07:53:06Z</time>
      </trkpt>
      <trkpt lat="39.1865000" lon="-1.4318190">
        <ele>666.4</ele>
        <time>2019-05-12T07:53:07Z</time>
      </trkpt>
      <trkpt lat="39.1864730" lon="-1.4318000">
        <ele>666.6</ele>
        <time>2019-05-12T07:53:08Z</time>
      </trkpt>
      <trkpt lat="39.1864440" lon="-1.4317800">
        <ele>667.0</ele>
        <time>2019-05-12T07:53:09Z</time>
      </trkpt>
      <trkpt lat="39.1864120" lon="-1.4317600">
        <ele>667.6</ele>
        <time>2019-05-12T07:53:10Z</time>
      </trkpt>
      <trkpt lat="39.1863800" lon="-1.4317400">
        <ele>668.2</ele>
        <time>2019-05-12T07:53:11Z</time>
      </trkpt>
      <trkpt lat="39.1863480" lon="-1.4317170">
        <ele>668.8</ele>
        <time>2019-05-12T07:53:12Z</time>
      </trkpt>
      <trkpt lat="39.1863150" lon="-1.4316910">
        <ele>669.2</ele>
        <time>2019-05-12T07:53:13Z</time>
      </trkpt>
      <trkpt lat="39.1862820" lon="-1.4316620">
        <ele>669.6</ele>
        <time>2019-05-12T07:53:14Z</time>
      </trkpt>
      <trkpt lat="39.1862490" lon="-1.4316320">
        <ele>669.8</ele>
        <time>2019-05-12T07:53:15Z</time>
      </trkpt>
      <trkpt lat="39.1862160" lon="-1.4316030">
        <ele>670.0</ele>
        <time>2019-05-12T07:53:16Z</time>
      </trkpt>
      <trkpt lat="39.1861830" lon="-1.4315730">
        <ele>670.4</ele>
        <time>2019-05-12T07:53:17Z</time>
      </trkpt>
      <trkpt lat="39.1861540" lon="-1.4315390">
        <ele>670.6</ele>
        <time>2019-05-12T07:53:18Z</time>
      </trkpt>
      <trkpt lat="39.1861290" lon="-1.4315030">
        <ele>670.8</ele>
        <time>2019-05-12T07:53:19Z</time>
      </trkpt>
      <trkpt lat="39.1861060" lon="-1.4314640">
        <ele>670.8</ele>
        <time>2019-05-12T07:53:20Z</time>
      </trkpt>
      <trkpt lat="39.1860870" lon="-1.4314220">
        <ele>671.2</ele>
        <time>2019-05-12T07:53:21Z</time>
      </trkpt>
      <trkpt lat="39.1860720" lon="-1.4313780">
        <ele>671.4</ele>
        <time>2019-05-12T07:53:22Z</time>
      </trkpt>
      <trkpt lat="39.1860590" lon="-1.4313350">
        <ele>671.4</ele>
        <time>2019-05-12T07:53:23Z</time>
      </trkpt>
      <trkpt lat="39.1860430" lon="-1.4312920">
        <ele>671.6</ele>
        <time>2019-05-12T07:53:24Z</time>
      </trkpt>
      <trkpt lat="39.1860270" lon="-1.4312510">
        <ele>671.8</ele>
        <time>2019-05-12T07:53:25Z</time>
      </trkpt>
      <trkpt lat="39.1860110" lon="-1.4312130">
        <ele>672.0</ele>
        <time>2019-05-12T07:53:26Z</time>
      </trkpt>
      <trkpt lat="39.1859950" lon="-1.4311760">
        <ele>672.4</ele>
        <time>2019-05-12T07:53:27Z</time>
      </trkpt>
      <trkpt lat="39.1859810" lon="-1.4311410">
        <ele>672.6</ele>
        <time>2019-05-12T07:53:28Z</time>
      </trkpt>
      <trkpt lat="39.1859680" lon="-1.4310990">
        <ele>672.8</ele>
        <time>2019-05-12T07:53:29Z</time>
      </trkpt>
      <trkpt lat="39.1859550" lon="-1.4310580">
        <ele>673.0</ele>
        <time>2019-05-12T07:53:30Z</time>
      </trkpt>
      <trkpt lat="39.1859430" lon="-1.4310160">
        <ele>673.2</ele>
        <time>2019-05-12T07:53:31Z</time>
      </trkpt>
      <trkpt lat="39.1859310" lon="-1.4309740">
        <ele>673.4</ele>
        <time>2019-05-12T07:53:32Z</time>
      </trkpt>
      <trkpt lat="39.1859230" lon="-1.4309300">
        <ele>673.6</ele>
        <time>2019-05-12T07:53:33Z</time>
      </trkpt>
      <trkpt lat="39.1859170" lon="-1.4308850">
        <ele>673.8</ele>
        <time>2019-05-12T07:53:34Z</time>
      </trkpt>
      <trkpt lat="39.1859140" lon="-1.4308390">
        <ele>674.2</ele>
        <time>2019-05-12T07:53:35Z</time>
      </trkpt>
      <trkpt lat="39.1859120" lon="-1.4307950">
        <ele>674.4</ele>
        <time>2019-05-12T07:53:36Z</time>
      </trkpt>
      <trkpt lat="39.1859080" lon="-1.4307540">
        <ele>674.8</ele>
        <time>2019-05-12T07:53:37Z</time>
      </trkpt>
      <trkpt lat="39.1858970" lon="-1.4307200">
        <ele>675.0</ele>
        <time>2019-05-12T07:53:38Z</time>
      </trkpt>
      <trkpt lat="39.1858780" lon="-1.4306960">
        <ele>675.2</ele>
        <time>2019-05-12T07:53:39Z</time>
      </trkpt>
      <trkpt lat="39.1858530" lon="-1.4306840">
        <ele>675.6</ele>
        <time>2019-05-12T07:53:40Z</time>
      </trkpt>
      <trkpt lat="39.1858260" lon="-1.4306740">
        <ele>675.8</ele>
        <time>2019-05-12T07:53:41Z</time>
      </trkpt>
      <trkpt lat="39.1857990" lon="-1.4306640">
        <ele>676.0</ele>
        <time>2019-05-12T07:53:42Z</time>
      </trkpt>
      <trkpt lat="39.1857730" lon="-1.4306560">
        <ele>676.2</ele>
        <time>2019-05-12T07:53:43Z</time>
      </trkpt>
      <trkpt lat="39.1857470" lon="-1.4306590">
        <ele>676.2</ele>
        <time>2019-05-12T07:53:44Z</time>
      </trkpt>
      <trkpt lat="39.1857220" lon="-1.4306650">
        <ele>676.4</ele>
        <time>2019-05-12T07:53:45Z</time>
      </trkpt>
      <trkpt lat="39.1856980" lon="-1.4306750">
        <ele>676.8</ele>
        <time>2019-05-12T07:53:46Z</time>
      </trkpt>
      <trkpt lat="39.1856760" lon="-1.4306910">
        <ele>677.0</ele>
        <time>2019-05-12T07:53:47Z</time>
      </trkpt>
      <trkpt lat="39.1856570" lon="-1.4307170">
        <ele>677.6</ele>
        <time>2019-05-12T07:53:48Z</time>
      </trkpt>
      <trkpt lat="39.1856400" lon="-1.4307490">
        <ele>678.0</ele>
        <time>2019-05-12T07:53:49Z</time>
      </trkpt>
      <trkpt lat="39.1856250" lon="-1.4307840">
        <ele>678.6</ele>
        <time>2019-05-12T07:53:50Z</time>
      </trkpt>
      <trkpt lat="39.1856090" lon="-1.4308210">
        <ele>679.2</ele>
        <time>2019-05-12T07:53:51Z</time>
      </trkpt>
      <trkpt lat="39.1855920" lon="-1.4308600">
        <ele>679.8</ele>
        <time>2019-05-12T07:53:52Z</time>
      </trkpt>
      <trkpt lat="39.1855750" lon="-1.4309000">
        <ele>680.2</ele>
        <time>2019-05-12T07:53:53Z</time>
      </trkpt>
      <trkpt lat="39.1855590" lon="-1.4309440">
        <ele>680.8</ele>
        <time>2019-05-12T07:53:54Z</time>
      </trkpt>
      <trkpt lat="39.1855420" lon="-1.4309880">
        <ele>681.0</ele>
        <time>2019-05-12T07:53:55Z</time>
      </trkpt>
      <trkpt lat="39.1855230" lon="-1.4310300">
        <ele>681.6</ele>
        <time>2019-05-12T07:53:56Z</time>
      </trkpt>
      <trkpt lat="39.1855030" lon="-1.4310700">
        <ele>681.6</ele>
        <time>2019-05-12T07:53:57Z</time>
      </trkpt>
      <trkpt lat="39.1854810" lon="-1.4311090">
        <ele>681.8</ele>
        <time>2019-05-12T07:53:58Z</time>
      </trkpt>
      <trkpt lat="39.1854570" lon="-1.4311440">
        <ele>681.8</ele>
        <time>2019-05-12T07:53:59Z</time>
      </trkpt>
      <trkpt lat="39.1854330" lon="-1.4311760">
        <ele>682.0</ele>
        <time>2019-05-12T07:54:00Z</time>
      </trkpt>
      <trkpt lat="39.1854140" lon="-1.4312100">
        <ele>682.0</ele>
        <time>2019-05-12T07:54:01Z</time>
      </trkpt>
      <trkpt lat="39.1853960" lon="-1.4312450">
        <ele>682.0</ele>
        <time>2019-05-12T07:54:02Z</time>
      </trkpt>
      <trkpt lat="39.1853780" lon="-1.4312840">
        <ele>682.2</ele>
        <time>2019-05-12T07:54:03Z</time>
      </trkpt>
      <trkpt lat="39.1853610" lon="-1.4313280">
        <ele>682.2</ele>
        <time>2019-05-12T07:54:04Z</time>
      </trkpt>
      <trkpt lat="39.1853460" lon="-1.4313740">
        <ele>682.2</ele>
        <time>2019-05-12T07:54:05Z</time>
      </trkpt>
      <trkpt lat="39.1853330" lon="-1.4314230">
        <ele>682.2</ele>
        <time>2019-05-12T07:54:06Z</time>
      </trkpt>
      <trkpt lat="39.1853220" lon="-1.4314770">
        <ele>682.2</ele>
        <time>2019-05-12T07:54:07Z</time>
      </trkpt>
      <trkpt lat="39.1853110" lon="-1.4315350">
        <ele>682.4</ele>
        <time>2019-05-12T07:54:08Z</time>
      </trkpt>
      <trkpt lat="39.1852970" lon="-1.4315940">
        <ele>682.4</ele>
        <time>2019-05-12T07:54:09Z</time>
      </trkpt>
      <trkpt lat="39.1852820" lon="-1.4316560">
        <ele>682.4</ele>
        <time>2019-05-12T07:54:10Z</time>
      </trkpt>
      <trkpt lat="39.1852670" lon="-1.4317200">
        <ele>682.4</ele>
        <time>2019-05-12T07:54:11Z</time>
      </trkpt>
      <trkpt lat="39.1852550" lon="-1.4317830">
        <ele>682.4</ele>
        <time>2019-05-12T07:54:12Z</time>
      </trkpt>
      <trkpt lat="39.1852430" lon="-1.4318460">
        <ele>682.4</ele>
        <time>2019-05-12T07:54:13Z</time>
      </trkpt>
      <trkpt lat="39.1852270" lon="-1.4319080">
        <ele>682.4</ele>
        <time>2019-05-12T07:54:14Z</time>
      </trkpt>
      <trkpt lat="39.1852100" lon="-1.4319700">
        <ele>682.4</ele>
        <time>2019-05-12T07:54:15Z</time>
      </trkpt>
      <trkpt lat="39.1851900" lon="-1.4320350">
        <ele>682.4</ele>
        <time>2019-05-12T07:54:16Z</time>
      </trkpt>
      <trkpt lat="39.1851680" lon="-1.4321010">
        <ele>682.4</ele>
        <time>2019-05-12T07:54:17Z</time>
      </trkpt>
      <trkpt lat="39.1851430" lon="-1.4321670">
        <ele>682.2</ele>
        <time>2019-05-12T07:54:18Z</time>
      </trkpt>
      <trkpt lat="39.1851180" lon="-1.4322350">
        <ele>682.2</ele>
        <time>2019-05-12T07:54:19Z</time>
      </trkpt>
      <trkpt lat="39.1850930" lon="-1.4323040">
        <ele>682.2</ele>
        <time>2019-05-12T07:54:20Z</time>
      </trkpt>
      <trkpt lat="39.1850700" lon="-1.4323770">
        <ele>682.2</ele>
        <time>2019-05-12T07:54:21Z</time>
      </trkpt>
      <trkpt lat="39.1850470" lon="-1.4324540">
        <ele>682.2</ele>
        <time>2019-05-12T07:54:22Z</time>
      </trkpt>
      <trkpt lat="39.1850270" lon="-1.4325330">
        <ele>682.2</ele>
        <time>2019-05-12T07:54:23Z</time>
      </trkpt>
      <trkpt lat="39.1850080" lon="-1.4326160">
        <ele>682.2</ele>
        <time>2019-05-12T07:54:24Z</time>
      </trkpt>
      <trkpt lat="39.1849880" lon="-1.4326980">
        <ele>682.0</ele>
        <time>2019-05-12T07:54:25Z</time>
      </trkpt>
      <trkpt lat="39.1849660" lon="-1.4327790">
        <ele>682.0</ele>
        <time>2019-05-12T07:54:26Z</time>
      </trkpt>
      <trkpt lat="39.1849380" lon="-1.4328560">
        <ele>681.8</ele>
        <time>2019-05-12T07:54:27Z</time>
      </trkpt>
      <trkpt lat="39.1849000" lon="-1.4329280">
        <ele>681.8</ele>
        <time>2019-05-12T07:54:28Z</time>
      </trkpt>
      <trkpt lat="39.1848550" lon="-1.4329950">
        <ele>681.8</ele>
        <time>2019-05-12T07:54:29Z</time>
      </trkpt>
      <trkpt lat="39.1848060" lon="-1.4330610">
        <ele>681.8</ele>
        <time>2019-05-12T07:54:30Z</time>
      </trkpt>
      <trkpt lat="39.1847550" lon="-1.4331260">
        <ele>682.0</ele>
        <time>2019-05-12T07:54:31Z</time>
      </trkpt>
      <trkpt lat="39.1847050" lon="-1.4331920">
        <ele>682.2</ele>
        <time>2019-05-12T07:54:32Z</time>
      </trkpt>
      <trkpt lat="39.1846550" lon="-1.4332590">
        <ele>682.2</ele>
        <time>2019-05-12T07:54:33Z</time>
      </trkpt>
      <trkpt lat="39.1846040" lon="-1.4333260">
        <ele>682.2</ele>
        <time>2019-05-12T07:54:34Z</time>
      </trkpt>
      <trkpt lat="39.1845550" lon="-1.4333970">
        <ele>682.2</ele>
        <time>2019-05-12T07:54:35Z</time>
      </trkpt>
      <trkpt lat="39.1845080" lon="-1.4334690">
        <ele>682.2</ele>
        <time>2019-05-12T07:54:36Z</time>
      </trkpt>
      <trkpt lat="39.1844610" lon="-1.4335420">
        <ele>682.2</ele>
        <time>2019-05-12T07:54:37Z</time>
      </trkpt>
      <trkpt lat="39.1844100" lon="-1.4336120">
        <ele>682.2</ele>
        <time>2019-05-12T07:54:38Z</time>
      </trkpt>
      <trkpt lat="39.1843530" lon="-1.4336770">
        <ele>682.0</ele>
        <time>2019-05-12T07:54:39Z</time>
      </trkpt>
      <trkpt lat="39.1842900" lon="-1.4337380">
        <ele>682.0</ele>
        <time>2019-05-12T07:54:40Z</time>
      </trkpt>
      <trkpt lat="39.1842250" lon="-1.4337980">
        <ele>682.0</ele>
        <time>2019-05-12T07:54:41Z</time>
      </trkpt>
      <trkpt lat="39.1841580" lon="-1.4338590">
        <ele>682.0</ele>
        <time>2019-05-12T07:54:42Z</time>
      </trkpt>
      <trkpt lat="39.1840910" lon="-1.4339210">
        <ele>681.8</ele>
        <time>2019-05-12T07:54:43Z</time>
      </trkpt>
      <trkpt lat="39.1840270" lon="-1.4339840">
        <ele>681.8</ele>
        <time>2019-05-12T07:54:44Z</time>
      </trkpt>
      <trkpt lat="39.1839750" lon="-1.4340570">
        <ele>681.6</ele>
        <time>2019-05-12T07:54:45Z</time>
      </trkpt>
      <trkpt lat="39.1839400" lon="-1.4341480">
        <ele>681.6</ele>
        <time>2019-05-12T07:54:46Z</time>
      </trkpt>
      <trkpt lat="39.1839120" lon="-1.4342510">
        <ele>681.4</ele>
        <time>2019-05-12T07:54:47Z</time>
      </trkpt>
      <trkpt lat="39.1838820" lon="-1.4343570">
        <ele>681.4</ele>
        <time>2019-05-12T07:54:48Z</time>
      </trkpt>
      <trkpt lat="39.1838450" lon="-1.4344670">
        <ele>681.2</ele>
        <time>2019-05-12T07:54:49Z</time>
      </trkpt>
      <trkpt lat="39.1838040" lon="-1.4345810">
        <ele>681.0</ele>
        <time>2019-05-12T07:54:50Z</time>
      </trkpt>
      <trkpt lat="39.1837600" lon="-1.4346980">
        <ele>680.6</ele>
        <time>2019-05-12T07:54:51Z</time>
      </trkpt>
      <trkpt lat="39.1837120" lon="-1.4348160">
        <ele>680.2</ele>
        <time>2019-05-12T07:54:52Z</time>
      </trkpt>
      <trkpt lat="39.1836590" lon="-1.4349330">
        <ele>679.6</ele>
        <time>2019-05-12T07:54:53Z</time>
      </trkpt>
      <trkpt lat="39.1835990" lon="-1.4350480">
        <ele>679.0</ele>
        <time>2019-05-12T07:54:54Z</time>
      </trkpt>
      <trkpt lat="39.1835340" lon="-1.4351610">
        <ele>678.2</ele>
        <time>2019-05-12T07:54:55Z</time>
      </trkpt>
      <trkpt lat="39.1834670" lon="-1.4352740">
        <ele>677.6</ele>
        <time>2019-05-12T07:54:56Z</time>
      </trkpt>
      <trkpt lat="39.1833990" lon="-1.4353880">
        <ele>676.8</ele>
        <time>2019-05-12T07:54:57Z</time>
      </trkpt>
      <trkpt lat="39.1833300" lon="-1.4355030">
        <ele>676.0</ele>
        <time>2019-05-12T07:54:58Z</time>
      </trkpt>
      <trkpt lat="39.1832600" lon="-1.4356210">
        <ele>675.2</ele>
        <time>2019-05-12T07:54:59Z</time>
      </trkpt>
      <trkpt lat="39.1831880" lon="-1.4357380">
        <ele>674.4</ele>
        <time>2019-05-12T07:55:00Z</time>
      </trkpt>
      <trkpt lat="39.1831160" lon="-1.4358550">
        <ele>673.6</ele>
        <time>2019-05-12T07:55:01Z</time>
      </trkpt>
      <trkpt lat="39.1830490" lon="-1.4359720">
        <ele>673.0</ele>
        <time>2019-05-12T07:55:02Z</time>
      </trkpt>
      <trkpt lat="39.1829940" lon="-1.4360950">
        <ele>672.4</ele>
        <time>2019-05-12T07:55:03Z</time>
      </trkpt>
      <trkpt lat="39.1829530" lon="-1.4362210">
        <ele>671.8</ele>
        <time>2019-05-12T07:55:04Z</time>
      </trkpt>
      <trkpt lat="39.1829250" lon="-1.4363470">
        <ele>671.2</ele>
        <time>2019-05-12T07:55:05Z</time>
      </trkpt>
      <trkpt lat="39.1828970" lon="-1.4364660">
        <ele>670.0</ele>
        <time>2019-05-12T07:55:06Z</time>
      </trkpt>
      <trkpt lat="39.1828570" lon="-1.4365700">
        <ele>669.0</ele>
        <time>2019-05-12T07:55:07Z</time>
      </trkpt>
      <trkpt lat="39.1828100" lon="-1.4366640">
        <ele>668.0</ele>
        <time>2019-05-12T07:55:08Z</time>
      </trkpt>
      <trkpt lat="39.1827650" lon="-1.4367610">
        <ele>667.4</ele>
        <time>2019-05-12T07:55:09Z</time>
      </trkpt>
      <trkpt lat="39.1827250" lon="-1.4368600">
        <ele>666.8</ele>
        <time>2019-05-12T07:55:10Z</time>
      </trkpt>
      <trkpt lat="39.1826840" lon="-1.4369510">
        <ele>666.2</ele>
        <time>2019-05-12T07:55:11Z</time>
      </trkpt>
      <trkpt lat="39.1826320" lon="-1.4370240">
        <ele>666.0</ele>
        <time>2019-05-12T07:55:12Z</time>
      </trkpt>
      <trkpt lat="39.1825670" lon="-1.4370790">
        <ele>665.8</ele>
        <time>2019-05-12T07:55:13Z</time>
      </trkpt>
      <trkpt lat="39.1824980" lon="-1.4371160">
        <ele>665.6</ele>
        <time>2019-05-12T07:55:14Z</time>
      </trkpt>
      <trkpt lat="39.1824240" lon="-1.4371360">
        <ele>665.6</ele>
        <time>2019-05-12T07:55:15Z</time>
      </trkpt>
      <trkpt lat="39.1823500" lon="-1.4371540">
        <ele>665.6</ele>
        <time>2019-05-12T07:55:16Z</time>
      </trkpt>
      <trkpt lat="39.1822790" lon="-1.4371770">
        <ele>665.6</ele>
        <time>2019-05-12T07:55:17Z</time>
      </trkpt>
      <trkpt lat="39.1822160" lon="-1.4372060">
        <ele>665.4</ele>
        <time>2019-05-12T07:55:18Z</time>
      </trkpt>
      <trkpt lat="39.1821740" lon="-1.4372460">
        <ele>665.2</ele>
        <time>2019-05-12T07:55:19Z</time>
      </trkpt>
      <trkpt lat="39.1821580" lon="-1.4372950">
        <ele>664.6</ele>
        <time>2019-05-12T07:55:20Z</time>
      </trkpt>
      <trkpt lat="39.1821630" lon="-1.4373480">
        <ele>664.2</ele>
        <time>2019-05-12T07:55:21Z</time>
      </trkpt>
      <trkpt lat="39.1821870" lon="-1.4373980">
        <ele>663.8</ele>
        <time>2019-05-12T07:55:22Z</time>
      </trkpt>
      <trkpt lat="39.1822200" lon="-1.4374370">
        <ele>663.4</ele>
        <time>2019-05-12T07:55:23Z</time>
      </trkpt>
      <trkpt lat="39.1822510" lon="-1.4374670">
        <ele>663.2</ele>
        <time>2019-05-12T07:55:24Z</time>
      </trkpt>
      <trkpt lat="39.1822740" lon="-1.4374900">
        <ele>662.6</ele>
        <time>2019-05-12T07:55:25Z</time>
      </trkpt>
      <trkpt lat="39.1822920" lon="-1.4375090">
        <ele>662.0</ele>
        <time>2019-05-12T07:55:26Z</time>
      </trkpt>
      <trkpt lat="39.1823130" lon="-1.4375230">
        <ele>661.6</ele>
        <time>2019-05-12T07:55:27Z</time>
      </trkpt>
      <trkpt lat="39.1823400" lon="-1.4375390">
        <ele>661.4</ele>
        <time>2019-05-12T07:55:28Z</time>
      </trkpt>
      <trkpt lat="39.1823690" lon="-1.4375610">
        <ele>661.4</ele>
        <time>2019-05-12T07:55:29Z</time>
      </trkpt>
      <trkpt lat="39.1823990" lon="-1.4375820">
        <ele>661.4</ele>
        <time>2019-05-12T07:55:30Z</time>
      </trkpt>
      <trkpt lat="39.1824340" lon="-1.4376030">
        <ele>661.4</ele>
        <time>2019-05-12T07:55:31Z</time>
      </trkpt>
      <trkpt lat="39.1824700" lon="-1.4376240">
        <ele>661.4</ele>
        <time>2019-05-12T07:55:32Z</time>
      </trkpt>
      <trkpt lat="39.1825060" lon="-1.4376480">
        <ele>661.4</ele>
        <time>2019-05-12T07:55:33Z</time>
      </trkpt>
      <trkpt lat="39.1825420" lon="-1.4376760">
        <ele>661.4</ele>
        <time>2019-05-12T07:55:34Z</time>
      </trkpt>
      <trkpt lat="39.1825770" lon="-1.4377090">
        <ele>661.4</ele>
        <time>2019-05-12T07:55:35Z</time>
      </trkpt>
      <trkpt lat="39.1826090" lon="-1.4377480">
        <ele>661.4</ele>
        <time>2019-05-12T07:55:36Z</time>
      </trkpt>
      <trkpt lat="39.1826350" lon="-1.4377980">
        <ele>661.4</ele>
        <time>2019-05-12T07:55:37Z</time>
      </trkpt>
      <trkpt lat="39.1826530" lon="-1.4378570">
        <ele>661.4</ele>
        <time>2019-05-12T07:55:38Z</time>
      </trkpt>
      <trkpt lat="39.1826620" lon="-1.4379240">
        <ele>661.6</ele>
        <time>2019-05-12T07:55:39Z</time>
      </trkpt>
      <trkpt lat="39.1826640" lon="-1.4379950">
        <ele>661.8</ele>
        <time>2019-05-12T07:55:40Z</time>
      </trkpt>
      <trkpt lat="39.1826660" lon="-1.4380690">
        <ele>662.0</ele>
        <time>2019-05-12T07:55:41Z</time>
      </trkpt>
      <trkpt lat="39.1826730" lon="-1.4381450">
        <ele>662.2</ele>
        <time>2019-05-12T07:55:42Z</time>
      </trkpt>
      <trkpt lat="39.1826860" lon="-1.4382180">
        <ele>662.2</ele>
        <time>2019-05-12T07:55:43Z</time>
      </trkpt>
      <trkpt lat="39.1827040" lon="-1.4382830">
        <ele>662.2</ele>
        <time>2019-05-12T07:55:44Z</time>
      </trkpt>
      <trkpt lat="39.1827300" lon="-1.4383380">
        <ele>662.2</ele>
        <time>2019-05-12T07:55:45Z</time>
      </trkpt>
      <trkpt lat="39.1827630" lon="-1.4383890">
        <ele>662.2</ele>
        <time>2019-05-12T07:55:46Z</time>
      </trkpt>
      <trkpt lat="39.1828020" lon="-1.4384350">
        <ele>662.2</ele>
        <time>2019-05-12T07:55:47Z</time>
      </trkpt>
      <trkpt lat="39.1828490" lon="-1.4384720">
        <ele>662.2</ele>
        <time>2019-05-12T07:55:48Z</time>
      </trkpt>
      <trkpt lat="39.1829020" lon="-1.4385040">
        <ele>662.2</ele>
        <time>2019-05-12T07:55:49Z</time>
      </trkpt>
      <trkpt lat="39.1829580" lon="-1.4385420">
        <ele>662.2</ele>
        <time>2019-05-12T07:55:50Z</time>
      </trkpt>
      <trkpt lat="39.1830090" lon="-1.4385860">
        <ele>662.2</ele>
        <time>2019-05-12T07:55:51Z</time>
      </trkpt>
      <trkpt lat="39.1830570" lon="-1.4386320">
        <ele>662.2</ele>
        <time>2019-05-12T07:55:52Z</time>
      </trkpt>
      <trkpt lat="39.1831080" lon="-1.4386790">
        <ele>662.2</ele>
        <time>2019-05-12T07:55:53Z</time>
      </trkpt>
      <trkpt lat="39.1831610" lon="-1.4387240">
        <ele>662.2</ele>
        <time>2019-05-12T07:55:54Z</time>
      </trkpt>
      <trkpt lat="39.1832140" lon="-1.4387760">
        <ele>662.2</ele>
        <time>2019-05-12T07:55:55Z</time>
      </trkpt>
      <trkpt lat="39.1832630" lon="-1.4388350">
        <ele>662.0</ele>
        <time>2019-05-12T07:55:56Z</time>
      </trkpt>
      <trkpt lat="39.1833050" lon="-1.4388990">
        <ele>662.0</ele>
        <time>2019-05-12T07:55:57Z</time>
      </trkpt>
      <trkpt lat="39.1833420" lon="-1.4389690">
        <ele>662.0</ele>
        <time>2019-05-12T07:55:58Z</time>
      </trkpt>
      <trkpt lat="39.1833810" lon="-1.4390390">
        <ele>662.0</ele>
        <time>2019-05-12T07:55:59Z</time>
      </trkpt>
      <trkpt lat="39.1834260" lon="-1.4391070">
        <ele>661.8</ele>
        <time>2019-05-12T07:56:00Z</time>
      </trkpt>
      <trkpt lat="39.1834720" lon="-1.4391770">
        <ele>661.8</ele>
        <time>2019-05-12T07:56:01Z</time>
      </trkpt>
      <trkpt lat="39.1835170" lon="-1.4392540">
        <ele>661.8</ele>
        <time>2019-05-12T07:56:02Z</time>
      </trkpt>
      <trkpt lat="39.1835600" lon="-1.4393340">
        <ele>661.8</ele>
        <time>2019-05-12T07:56:03Z</time>
      </trkpt>
      <trkpt lat="39.1836020" lon="-1.4394120">
        <ele>661.8</ele>
        <time>2019-05-12T07:56:04Z</time>
      </trkpt>
      <trkpt lat="39.1836390" lon="-1.4394870">
        <ele>661.8</ele>
        <time>2019-05-12T07:56:05Z</time>
      </trkpt>
      <trkpt lat="39.1836710" lon="-1.4395640">
        <ele>661.6</ele>
        <time>2019-05-12T07:56:06Z</time>
      </trkpt>
      <trkpt lat="39.1836980" lon="-1.4396430">
        <ele>661.6</ele>
        <time>2019-05-12T07:56:07Z</time>
      </trkpt>
      <trkpt lat="39.1837180" lon="-1.4397280">
        <ele>661.2</ele>
        <time>2019-05-12T07:56:08Z</time>
      </trkpt>
      <trkpt lat="39.1837330" lon="-1.4398170">
        <ele>661.0</ele>
        <time>2019-05-12T07:56:09Z</time>
      </trkpt>
      <trkpt lat="39.1837470" lon="-1.4399070">
        <ele>660.8</ele>
        <time>2019-05-12T07:56:10Z</time>
      </trkpt>
      <trkpt lat="39.1837620" lon="-1.4399960">
        <ele>660.6</ele>
        <time>2019-05-12T07:56:11Z</time>
      </trkpt>
      <trkpt lat="39.1837720" lon="-1.4400840">
        <ele>660.4</ele>
        <time>2019-05-12T07:56:12Z</time>
      </trkpt>
      <trkpt lat="39.1837750" lon="-1.4401690">
        <ele>660.4</ele>
        <time>2019-05-12T07:56:13Z</time>
      </trkpt>
      <trkpt lat="39.1837780" lon="-1.4402470">
        <ele>660.2</ele>
        <time>2019-05-12T07:56:14Z</time>
      </trkpt>
      <trkpt lat="39.1837860" lon="-1.4403210">
        <ele>660.0</ele>
        <time>2019-05-12T07:56:15Z</time>
      </trkpt>
      <trkpt lat="39.1837940" lon="-1.4403930">
        <ele>659.8</ele>
        <time>2019-05-12T07:56:16Z</time>
      </trkpt>
      <trkpt lat="39.1837970" lon="-1.4404670">
        <ele>659.4</ele>
        <time>2019-05-12T07:56:17Z</time>
      </trkpt>
      <trkpt lat="39.1837970" lon="-1.4405420">
        <ele>659.2</ele>
        <time>2019-05-12T07:56:18Z</time>
      </trkpt>
      <trkpt lat="39.1838000" lon="-1.4406180">
        <ele>659.2</ele>
        <time>2019-05-12T07:56:19Z</time>
      </trkpt>
      <trkpt lat="39.1838010" lon="-1.4407000">
        <ele>659.2</ele>
        <time>2019-05-12T07:56:20Z</time>
      </trkpt>
      <trkpt lat="39.1838070" lon="-1.4407830">
        <ele>659.0</ele>
        <time>2019-05-12T07:56:21Z</time>
      </trkpt>
      <trkpt lat="39.1838180" lon="-1.4408620">
        <ele>659.2</ele>
        <time>2019-05-12T07:56:22Z</time>
      </trkpt>
      <trkpt lat="39.1838300" lon="-1.4409390">
        <ele>659.0</ele>
        <time>2019-05-12T07:56:23Z</time>
      </trkpt>
      <trkpt lat="39.1838480" lon="-1.4410060">
        <ele>658.8</ele>
        <time>2019-05-12T07:56:24Z</time>
      </trkpt>
      <trkpt lat="39.1838720" lon="-1.4410670">
        <ele>658.8</ele>
        <time>2019-05-12T07:56:25Z</time>
      </trkpt>
      <trkpt lat="39.1838910" lon="-1.4411260">
        <ele>658.8</ele>
        <time>2019-05-12T07:56:26Z</time>
      </trkpt>
      <trkpt lat="39.1839050" lon="-1.4411840">
        <ele>658.4</ele>
        <time>2019-05-12T07:56:27Z</time>
      </trkpt>
      <trkpt lat="39.1839130" lon="-1.4412400">
        <ele>658.6</ele>
        <time>2019-05-12T07:56:28Z</time>
      </trkpt>
      <trkpt lat="39.1839160" lon="-1.4412960">
        <ele>658.4</ele>
        <time>2019-05-12T07:56:29Z</time>
      </trkpt>
      <trkpt lat="39.1839160" lon="-1.4413520">
        <ele>658.2</ele>
        <time>2019-05-12T07:56:30Z</time>
      </trkpt>
      <trkpt lat="39.1839150" lon="-1.4414040">
        <ele>658.0</ele>
        <time>2019-05-12T07:56:31Z</time>
      </trkpt>
      <trkpt lat="39.1839180" lon="-1.4414540">
        <ele>657.8</ele>
        <time>2019-05-12T07:56:32Z</time>
      </trkpt>
      <trkpt lat="39.1839190" lon="-1.4415020">
        <ele>657.6</ele>
        <time>2019-05-12T07:56:33Z</time>
      </trkpt>
      <trkpt lat="39.1839200" lon="-1.4415470">
        <ele>657.2</ele>
        <time>2019-05-12T07:56:34Z</time>
      </trkpt>
      <trkpt lat="39.1839260" lon="-1.4415920">
        <ele>657.0</ele>
        <time>2019-05-12T07:56:35Z</time>
      </trkpt>
      <trkpt lat="39.1839400" lon="-1.4416390">
        <ele>657.0</ele>
        <time>2019-05-12T07:56:36Z</time>
      </trkpt>
      <trkpt lat="39.1839570" lon="-1.4416880">
        <ele>657.0</ele>
        <time>2019-05-12T07:56:37Z</time>
      </trkpt>
      <trkpt lat="39.1839760" lon="-1.4417390">
        <ele>657.0</ele>
        <time>2019-05-12T07:56:38Z</time>
      </trkpt>
      <trkpt lat="39.1839920" lon="-1.4417880">
        <ele>657.0</ele>
        <time>2019-05-12T07:56:39Z</time>
      </trkpt>
      <trkpt lat="39.1840090" lon="-1.4418360">
        <ele>657.0</ele>
        <time>2019-05-12T07:56:40Z</time>
      </trkpt>
      <trkpt lat="39.1840250" lon="-1.4418880">
        <ele>657.0</ele>
        <time>2019-05-12T07:56:41Z</time>
      </trkpt>
      <trkpt lat="39.1840400" lon="-1.4419450">
        <ele>657.0</ele>
        <time>2019-05-12T07:56:42Z</time>
      </trkpt>
      <trkpt lat="39.1840550" lon="-1.4420090">
        <ele>657.0</ele>
        <time>2019-05-12T07:56:43Z</time>
      </trkpt>
      <trkpt lat="39.1840700" lon="-1.4420790">
        <ele>657.0</ele>
        <time>2019-05-12T07:56:44Z</time>
      </trkpt>
      <trkpt lat="39.1840770" lon="-1.4421530">
        <ele>657.0</ele>
        <time>2019-05-12T07:56:45Z</time>
      </trkpt>
      <trkpt lat="39.1840860" lon="-1.4422230">
        <ele>657.0</ele>
        <time>2019-05-12T07:56:46Z</time>
      </trkpt>
      <trkpt lat="39.1840980" lon="-1.4422920">
        <ele>657.0</ele>
        <time>2019-05-12T07:56:47Z</time>
      </trkpt>
      <trkpt lat="39.1841100" lon="-1.4423620">
        <ele>657.0</ele>
        <time>2019-05-12T07:56:48Z</time>
      </trkpt>
      <trkpt lat="39.1841240" lon="-1.4424310">
        <ele>657.0</ele>
        <time>2019-05-12T07:56:49Z</time>
      </trkpt>
      <trkpt lat="39.1841430" lon="-1.4424970">
        <ele>656.8</ele>
        <time>2019-05-12T07:56:50Z</time>
      </trkpt>
      <trkpt lat="39.1841620" lon="-1.4425630">
        <ele>656.8</ele>
        <time>2019-05-12T07:56:51Z</time>
      </trkpt>
      <trkpt lat="39.1841780" lon="-1.4426260">
        <ele>656.8</ele>
        <time>2019-05-12T07:56:52Z</time>
      </trkpt>
      <trkpt lat="39.1841930" lon="-1.4426850">
        <ele>656.8</ele>
        <time>2019-05-12T07:56:53Z</time>
      </trkpt>
      <trkpt lat="39.1842090" lon="-1.4427420">
        <ele>656.8</ele>
        <time>2019-05-12T07:56:54Z</time>
      </trkpt>
      <trkpt lat="39.1842260" lon="-1.4427990">
        <ele>656.8</ele>
        <time>2019-05-12T07:56:55Z</time>
      </trkpt>
      <trkpt lat="39.1842440" lon="-1.4428520">
        <ele>656.8</ele>
        <time>2019-05-12T07:56:56Z</time>
      </trkpt>
      <trkpt lat="39.1842610" lon="-1.4429050">
        <ele>656.8</ele>
        <time>2019-05-12T07:56:57Z</time>
      </trkpt>
      <trkpt lat="39.1842740" lon="-1.4429610">
        <ele>656.8</ele>
        <time>2019-05-12T07:56:58Z</time>
      </trkpt>
      <trkpt lat="39.1842810" lon="-1.4430150">
        <ele>656.6</ele>
        <time>2019-05-12T07:56:59Z</time>
      </trkpt>
      <trkpt lat="39.1842880" lon="-1.4430670">
        <ele>656.6</ele>
        <time>2019-05-12T07:57:00Z</time>
      </trkpt>
      <trkpt lat="39.1842960" lon="-1.4431170">
        <ele>656.6</ele>
        <time>2019-05-12T07:57:01Z</time>
      </trkpt>
      <trkpt lat="39.1843080" lon="-1.4431660">
        <ele>656.6</ele>
        <time>2019-05-12T07:57:02Z</time>
      </trkpt>
      <trkpt lat="39.1843220" lon="-1.4432150">
        <ele>656.4</ele>
        <time>2019-05-12T07:57:03Z</time>
      </trkpt>
      <trkpt lat="39.1843350" lon="-1.4432640">
        <ele>656.4</ele>
        <time>2019-05-12T07:57:04Z</time>
      </trkpt>
      <trkpt lat="39.1843450" lon="-1.4433200">
        <ele>656.4</ele>
        <time>2019-05-12T07:57:05Z</time>
      </trkpt>
      <trkpt lat="39.1843530" lon="-1.4433780">
        <ele>656.2</ele>
        <time>2019-05-12T07:57:06Z</time>
      </trkpt>
      <trkpt lat="39.1843630" lon="-1.4434370">
        <ele>656.2</ele>
        <time>2019-05-12T07:57:07Z</time>
      </trkpt>
      <trkpt lat="39.1843820" lon="-1.4434930">
        <ele>656.2</ele>
        <time>2019-05-12T07:57:08Z</time>
      </trkpt>
      <trkpt lat="39.1844030" lon="-1.4435540">
        <ele>656.2</ele>
        <time>2019-05-12T07:57:09Z</time>
      </trkpt>
      <trkpt lat="39.1844190" lon="-1.4436190">
        <ele>656.2</ele>
        <time>2019-05-12T07:57:10Z</time>
      </trkpt>
      <trkpt lat="39.1844350" lon="-1.4436800">
        <ele>656.2</ele>
        <time>2019-05-12T07:57:11Z</time>
      </trkpt>
      <trkpt lat="39.1844520" lon="-1.4437340">
        <ele>656.0</ele>
        <time>2019-05-12T07:57:12Z</time>
      </trkpt>
      <trkpt lat="39.1844690" lon="-1.4437870">
        <ele>656.0</ele>
        <time>2019-05-12T07:57:13Z</time>
      </trkpt>
      <trkpt lat="39.1844820" lon="-1.4438370">
        <ele>656.0</ele>
        <time>2019-05-12T07:57:14Z</time>
      </trkpt>
      <trkpt lat="39.1844930" lon="-1.4438870">
        <ele>656.0</ele>
        <time>2019-05-12T07:57:15Z</time>
      </trkpt>
      <trkpt lat="39.1845040" lon="-1.4439440">
        <ele>655.8</ele>
        <time>2019-05-12T07:57:16Z</time>
      </trkpt>
      <trkpt lat="39.1845150" lon="-1.4439950">
        <ele>655.8</ele>
        <time>2019-05-12T07:57:17Z</time>
      </trkpt>
      <trkpt lat="39.1845310" lon="-1.4440410">
        <ele>655.6</ele>
        <time>2019-05-12T07:57:18Z</time>
      </trkpt>
      <trkpt lat="39.1845500" lon="-1.4440850">
        <ele>655.4</ele>
        <time>2019-05-12T07:57:19Z</time>
      </trkpt>
      <trkpt lat="39.1845710" lon="-1.4441330">
        <ele>655.4</ele>
        <time>2019-05-12T07:57:20Z</time>
      </trkpt>
      <trkpt lat="39.1845910" lon="-1.4441770">
        <ele>655.2</ele>
        <time>2019-05-12T07:57:21Z</time>
      </trkpt>
      <trkpt lat="39.1846120" lon="-1.4442210">
        <ele>655.2</ele>
        <time>2019-05-12T07:57:22Z</time>
      </trkpt>
      <trkpt lat="39.1846320" lon="-1.4442650">
        <ele>655.0</ele>
        <time>2019-05-12T07:57:23Z</time>
      </trkpt>
      <trkpt lat="39.1846530" lon="-1.4443090">
        <ele>655.0</ele>
        <time>2019-05-12T07:57:24Z</time>
      </trkpt>
      <trkpt lat="39.1846700" lon="-1.4443510">
        <ele>655.0</ele>
        <time>2019-05-12T07:57:25Z</time>
      </trkpt>
      <trkpt lat="39.1846840" lon="-1.4443860">
        <ele>655.0</ele>
        <time>2019-05-12T07:57:26Z</time>
      </trkpt>
      <trkpt lat="39.1847000" lon="-1.4444170">
        <ele>655.0</ele>
        <time>2019-05-12T07:57:27Z</time>
      </trkpt>
      <trkpt lat="39.1847200" lon="-1.4444450">
        <ele>655.0</ele>
        <time>2019-05-12T07:57:28Z</time>
      </trkpt>
      <trkpt lat="39.1847430" lon="-1.4444730">
        <ele>655.0</ele>
        <time>2019-05-12T07:57:29Z</time>
      </trkpt>
      <trkpt lat="39.1847660" lon="-1.4445030">
        <ele>655.0</ele>
        <time>2019-05-12T07:57:30Z</time>
      </trkpt>
      <trkpt lat="39.1847850" lon="-1.4445350">
        <ele>655.0</ele>
        <time>2019-05-12T07:57:31Z</time>
      </trkpt>
      <trkpt lat="39.1848020" lon="-1.4445650">
        <ele>655.0</ele>
        <time>2019-05-12T07:57:32Z</time>
      </trkpt>
      <trkpt lat="39.1848160" lon="-1.4445920">
        <ele>655.2</ele>
        <time>2019-05-12T07:57:33Z</time>
      </trkpt>
      <trkpt lat="39.1848300" lon="-1.4446180">
        <ele>655.2</ele>
        <time>2019-05-12T07:57:34Z</time>
      </trkpt>
      <trkpt lat="39.1848350" lon="-1.4446460">
        <ele>655.4</ele>
        <time>2019-05-12T07:57:35Z</time>
      </trkpt>
      <trkpt lat="39.1848340" lon="-1.4446810">
        <ele>655.4</ele>
        <time>2019-05-12T07:57:36Z</time>
      </trkpt>
      <trkpt lat="39.1848330" lon="-1.4447200">
        <ele>655.6</ele>
        <time>2019-05-12T07:57:37Z</time>
      </trkpt>
      <trkpt lat="39.1848320" lon="-1.4447640">
        <ele>655.6</ele>
        <time>2019-05-12T07:57:38Z</time>
      </trkpt>
      <trkpt lat="39.1848220" lon="-1.4448130">
        <ele>655.8</ele>
        <time>2019-05-12T07:57:39Z</time>
      </trkpt>
      <trkpt lat="39.1848020" lon="-1.4448630">
        <ele>656.0</ele>
        <time>2019-05-12T07:57:40Z</time>
      </trkpt>
      <trkpt lat="39.1847740" lon="-1.4449120">
        <ele>656.2</ele>
        <time>2019-05-12T07:57:41Z</time>
      </trkpt>
      <trkpt lat="39.1847360" lon="-1.4449540">
        <ele>656.2</ele>
        <time>2019-05-12T07:57:42Z</time>
      </trkpt>
      <trkpt lat="39.1846890" lon="-1.4449840">
        <ele>656.4</ele>
        <time>2019-05-12T07:57:43Z</time>
      </trkpt>
      <trkpt lat="39.1846370" lon="-1.4450030">
        <ele>656.4</ele>
        <time>2019-05-12T07:57:44Z</time>
      </trkpt>
      <trkpt lat="39.1845830" lon="-1.4450120">
        <ele>656.6</ele>
        <time>2019-05-12T07:57:45Z</time>
      </trkpt>
      <trkpt lat="39.1845300" lon="-1.4450080">
        <ele>656.6</ele>
        <time>2019-05-12T07:57:46Z</time>
      </trkpt>
      <trkpt lat="39.1844780" lon="-1.4449960">
        <ele>656.6</ele>
        <time>2019-05-12T07:57:47Z</time>
      </trkpt>
      <trkpt lat="39.1844250" lon="-1.4449860">
        <ele>656.6</ele>
        <time>2019-05-12T07:57:48Z</time>
      </trkpt>
      <trkpt lat="39.1843700" lon="-1.4449760">
        <ele>656.6</ele>
        <time>2019-05-12T07:57:49Z</time>
      </trkpt>
      <trkpt lat="39.1843140" lon="-1.4449610">
        <ele>656.6</ele>
        <time>2019-05-12T07:57:50Z</time>
      </trkpt>
      <trkpt lat="39.1842580" lon="-1.4449440">
        <ele>656.6</ele>
        <time>2019-05-12T07:57:51Z</time>
      </trkpt>
      <trkpt lat="39.1842020" lon="-1.4449250">
        <ele>656.6</ele>
        <time>2019-05-12T07:57:52Z</time>
      </trkpt>
      <trkpt lat="39.1841450" lon="-1.4449100">
        <ele>656.8</ele>
        <time>2019-05-12T07:57:53Z</time>
      </trkpt>
      <trkpt lat="39.1840910" lon="-1.4449080">
        <ele>656.6</ele>
        <time>2019-05-12T07:57:54Z</time>
      </trkpt>
      <trkpt lat="39.1840320" lon="-1.4449200">
        <ele>656.6</ele>
        <time>2019-05-12T07:57:55Z</time>
      </trkpt>
      <trkpt lat="39.1839720" lon="-1.4449320">
        <ele>656.6</ele>
        <time>2019-05-12T07:57:56Z</time>
      </trkpt>
      <trkpt lat="39.1839130" lon="-1.4449340">
        <ele>656.6</ele>
        <time>2019-05-12T07:57:57Z</time>
      </trkpt>
      <trkpt lat="39.1838570" lon="-1.4449380">
        <ele>656.6</ele>
        <time>2019-05-12T07:57:58Z</time>
      </trkpt>
      <trkpt lat="39.1838030" lon="-1.4449360">
        <ele>656.6</ele>
        <time>2019-05-12T07:57:59Z</time>
      </trkpt>
      <trkpt lat="39.1837560" lon="-1.4449180">
        <ele>656.4</ele>
        <time>2019-05-12T07:58:00Z</time>
      </trkpt>
      <trkpt lat="39.1837180" lon="-1.4448890">
        <ele>656.4</ele>
        <time>2019-05-12T07:58:01Z</time>
      </trkpt>
      <trkpt lat="39.1836810" lon="-1.4448610">
        <ele>656.4</ele>
        <time>2019-05-12T07:58:02Z</time>
      </trkpt>
      <trkpt lat="39.1836420" lon="-1.4448490">
        <ele>656.2</ele>
        <time>2019-05-12T07:58:03Z</time>
      </trkpt>
      <trkpt lat="39.1835990" lon="-1.4448510">
        <ele>655.8</ele>
        <time>2019-05-12T07:58:04Z</time>
      </trkpt>
      <trkpt lat="39.1835550" lon="-1.4448700">
        <ele>655.6</ele>
        <time>2019-05-12T07:58:05Z</time>
      </trkpt>
      <trkpt lat="39.1835210" lon="-1.4449090">
        <ele>655.6</ele>
        <time>2019-05-12T07:58:06Z</time>
      </trkpt>
      <trkpt lat="39.1834950" lon="-1.4449600">
        <ele>655.6</ele>
        <time>2019-05-12T07:58:07Z</time>
      </trkpt>
      <trkpt lat="39.1834740" lon="-1.4450130">
        <ele>655.6</ele>
        <time>2019-05-12T07:58:08Z</time>
      </trkpt>
      <trkpt lat="39.1834520" lon="-1.4450660">
        <ele>655.4</ele>
        <time>2019-05-12T07:58:09Z</time>
      </trkpt>
      <trkpt lat="39.1834340" lon="-1.4451140">
        <ele>655.4</ele>
        <time>2019-05-12T07:58:10Z</time>
      </trkpt>
      <trkpt lat="39.1834260" lon="-1.4451620">
        <ele>655.4</ele>
        <time>2019-05-12T07:58:11Z</time>
      </trkpt>
      <trkpt lat="39.1834240" lon="-1.4452170">
        <ele>655.4</ele>
        <time>2019-05-12T07:58:12Z</time>
      </trkpt>
      <trkpt lat="39.1834270" lon="-1.4452780">
        <ele>655.4</ele>
        <time>2019-05-12T07:58:13Z</time>
      </trkpt>
      <trkpt lat="39.1834290" lon="-1.4453430">
        <ele>655.4</ele>
        <time>2019-05-12T07:58:14Z</time>
      </trkpt>
      <trkpt lat="39.1834330" lon="-1.4454090">
        <ele>655.4</ele>
        <time>2019-05-12T07:58:15Z</time>
      </trkpt>
      <trkpt lat="39.1834420" lon="-1.4454780">
        <ele>655.4</ele>
        <time>2019-05-12T07:58:16Z</time>
      </trkpt>
      <trkpt lat="39.1834580" lon="-1.4455500">
        <ele>655.6</ele>
        <time>2019-05-12T07:58:17Z</time>
      </trkpt>
      <trkpt lat="39.1834790" lon="-1.4456230">
        <ele>655.8</ele>
        <time>2019-05-12T07:58:18Z</time>
      </trkpt>
      <trkpt lat="39.1834990" lon="-1.4456980">
        <ele>656.0</ele>
        <time>2019-05-12T07:58:19Z</time>
      </trkpt>
      <trkpt lat="39.1835180" lon="-1.4457750">
        <ele>656.2</ele>
        <time>2019-05-12T07:58:20Z</time>
      </trkpt>
      <trkpt lat="39.1835400" lon="-1.4458540">
        <ele>656.4</ele>
        <time>2019-05-12T07:58:21Z</time>
      </trkpt>
      <trkpt lat="39.1835640" lon="-1.4459340">
        <ele>656.4</ele>
        <time>2019-05-12T07:58:22Z</time>
      </trkpt>
      <trkpt lat="39.1835900" lon="-1.4460160">
        <ele>656.4</ele>
        <time>2019-05-12T07:58:23Z</time>
      </trkpt>
      <trkpt lat="39.1836140" lon="-1.4461010">
        <ele>656.6</ele>
        <time>2019-05-12T07:58:24Z</time>
      </trkpt>
      <trkpt lat="39.1836330" lon="-1.4461910">
        <ele>656.6</ele>
        <time>2019-05-12T07:58:25Z</time>
      </trkpt>
      <trkpt lat="39.1836490" lon="-1.4462750">
        <ele>656.6</ele>
        <time>2019-05-12T07:58:26Z</time>
      </trkpt>
      <trkpt lat="39.1836730" lon="-1.4463410">
        <ele>656.6</ele>
        <time>2019-05-12T07:58:27Z</time>
      </trkpt>
      <trkpt lat="39.1837060" lon="-1.4463920">
        <ele>656.6</ele>
        <time>2019-05-12T07:58:28Z</time>
      </trkpt>
      <trkpt lat="39.1837400" lon="-1.4464380">
        <ele>656.6</ele>
        <time>2019-05-12T07:58:29Z</time>
      </trkpt>
      <trkpt lat="39.1837640" lon="-1.4464930">
        <ele>656.6</ele>
        <time>2019-05-12T07:58:30Z</time>
      </trkpt>
      <trkpt lat="39.1837740" lon="-1.4465520">
        <ele>656.4</ele>
        <time>2019-05-12T07:58:31Z</time>
      </trkpt>
      <trkpt lat="39.1837740" lon="-1.4466150">
        <ele>656.4</ele>
        <time>2019-05-12T07:58:32Z</time>
      </trkpt>
      <trkpt lat="39.1837690" lon="-1.4466760">
        <ele>656.2</ele>
        <time>2019-05-12T07:58:33Z</time>
      </trkpt>
      <trkpt lat="39.1837660" lon="-1.4467240">
        <ele>655.4</ele>
        <time>2019-05-12T07:58:34Z</time>
      </trkpt>
      <trkpt lat="39.1837720" lon="-1.4467560">
        <ele>654.8</ele>
        <time>2019-05-12T07:58:35Z</time>
      </trkpt>
      <trkpt lat="39.1837820" lon="-1.4467800">
        <ele>654.2</ele>
        <time>2019-05-12T07:58:36Z</time>
      </trkpt>
      <trkpt lat="39.1837860" lon="-1.4468080">
        <ele>653.4</ele>
        <time>2019-05-12T07:58:37Z</time>
      </trkpt>
      <trkpt lat="39.1837860" lon="-1.4468390">
        <ele>653.0</ele>
        <time>2019-05-12T07:58:38Z</time>
      </trkpt>
      <trkpt lat="39.1837860" lon="-1.4468760">
        <ele>652.6</ele>
        <time>2019-05-12T07:58:39Z</time>
      </trkpt>
      <trkpt lat="39.1837780" lon="-1.4469130">
        <ele>652.4</ele>
        <time>2019-05-12T07:58:40Z</time>
      </trkpt>
      <trkpt lat="39.1837640" lon="-1.4469430">
        <ele>652.2</ele>
        <time>2019-05-12T07:58:41Z</time>
      </trkpt>
      <trkpt lat="39.1837540" lon="-1.4469770">
        <ele>652.0</ele>
        <time>2019-05-12T07:58:42Z</time>
      </trkpt>
      <trkpt lat="39.1837620" lon="-1.4470140">
        <ele>652.0</ele>
        <time>2019-05-12T07:58:43Z</time>
      </trkpt>
      <trkpt lat="39.1837710" lon="-1.4470540">
        <ele>651.8</ele>
        <time>2019-05-12T07:58:44Z</time>
      </trkpt>
      <trkpt lat="39.1837870" lon="-1.4470890">
        <ele>651.4</ele>
        <time>2019-05-12T07:58:45Z</time>
      </trkpt>
      <trkpt lat="39.1838040" lon="-1.4471250">
        <ele>651.0</ele>
        <time>2019-05-12T07:58:46Z</time>
      </trkpt>
      <trkpt lat="39.1838130" lon="-1.4471660">
        <ele>650.6</ele>
        <time>2019-05-12T07:58:47Z</time>
      </trkpt>
      <trkpt lat="39.1838090" lon="-1.4472100">
        <ele>650.2</ele>
        <time>2019-05-12T07:58:48Z</time>
      </trkpt>
      <trkpt lat="39.1837970" lon="-1.4472490">
        <ele>650.2</ele>
        <time>2019-05-12T07:58:49Z</time>
      </trkpt>
      <trkpt lat="39.1837870" lon="-1.4472910">
        <ele>650.0</ele>
        <time>2019-05-12T07:58:50Z</time>
      </trkpt>
      <trkpt lat="39.1837820" lon="-1.4473360">
        <ele>650.0</ele>
        <time>2019-05-12T07:58:51Z</time>
      </trkpt>
      <trkpt lat="39.1837740" lon="-1.4473830">
        <ele>650.0</ele>
        <time>2019-05-12T07:58:52Z</time>
      </trkpt>
      <trkpt lat="39.1837640" lon="-1.4474270">
        <ele>650.0</ele>
        <time>2019-05-12T07:58:53Z</time>
      </trkpt>
      <trkpt lat="39.1837460" lon="-1.4474590">
        <ele>650.0</ele>
        <time>2019-05-12T07:58:54Z</time>
      </trkpt>
      <trkpt lat="39.1837260" lon="-1.4474760">
        <ele>650.0</ele>
        <time>2019-05-12T07:58:55Z</time>
      </trkpt>
      <trkpt lat="39.1837100" lon="-1.4474940">
        <ele>650.0</ele>
        <time>2019-05-12T07:58:56Z</time>
      </trkpt>
      <trkpt lat="39.1836970" lon="-1.4475220">
        <ele>650.0</ele>
        <time>2019-05-12T07:58:57Z</time>
      </trkpt>
      <trkpt lat="39.1836830" lon="-1.4475610">
        <ele>650.0</ele>
        <time>2019-05-12T07:58:58Z</time>
      </trkpt>
      <trkpt lat="39.1836670" lon="-1.4476120">
        <ele>650.0</ele>
        <time>2019-05-12T07:58:59Z</time>
      </trkpt>
      <trkpt lat="39.1836540" lon="-1.4476670">
        <ele>650.0</ele>
        <time>2019-05-12T07:59:00Z</time>
      </trkpt>
      <trkpt lat="39.1836420" lon="-1.4477200">
        <ele>650.0</ele>
        <time>2019-05-12T07:59:01Z</time>
      </trkpt>
      <trkpt lat="39.1836360" lon="-1.4477670">
        <ele>650.0</ele>
        <time>2019-05-12T07:59:02Z</time>
      </trkpt>
      <trkpt lat="39.1836350" lon="-1.4478060">
        <ele>650.0</ele>
        <time>2019-05-12T07:59:03Z</time>
      </trkpt>
      <trkpt lat="39.1836340" lon="-1.4478420">
        <ele>650.0</ele>
        <time>2019-05-12T07:59:04Z</time>
      </trkpt>
      <trkpt lat="39.1836290" lon="-1.4478730">
        <ele>650.0</ele>
        <time>2019-05-12T07:59:05Z</time>
      </trkpt>
      <trkpt lat="39.1836200" lon="-1.4479040">
        <ele>650.0</ele>
        <time>2019-05-12T07:59:06Z</time>
      </trkpt>
      <trkpt lat="39.1836180" lon="-1.4479330">
        <ele>649.8</ele>
        <time>2019-05-12T07:59:07Z</time>
      </trkpt>
      <trkpt lat="39.1836190" lon="-1.4479650">
        <ele>649.4</ele>
        <time>2019-05-12T07:59:08Z</time>
      </trkpt>
      <trkpt lat="39.1836190" lon="-1.4479970">
        <ele>648.2</ele>
        <time>2019-05-12T07:59:09Z</time>
      </trkpt>
      <trkpt lat="39.1836200" lon="-1.4480300">
        <ele>647.4</ele>
        <time>2019-05-12T07:59:10Z</time>
      </trkpt>
      <trkpt lat="39.1836180" lon="-1.4480650">
        <ele>646.6</ele>
        <time>2019-05-12T07:59:11Z</time>
      </trkpt>
      <trkpt lat="39.1836180" lon="-1.4480990">
        <ele>646.0</ele>
        <time>2019-05-12T07:59:12Z</time>
      </trkpt>
      <trkpt lat="39.1836180" lon="-1.4481270">
        <ele>645.2</ele>
        <time>2019-05-12T07:59:13Z</time>
      </trkpt>
      <trkpt lat="39.1836240" lon="-1.4481550">
        <ele>644.6</ele>
        <time>2019-05-12T07:59:14Z</time>
      </trkpt>
      <trkpt lat="39.1836370" lon="-1.4481850">
        <ele>644.2</ele>
        <time>2019-05-12T07:59:15Z</time>
      </trkpt>
      <trkpt lat="39.1836520" lon="-1.4482160">
        <ele>643.6</ele>
        <time>2019-05-12T07:59:16Z</time>
      </trkpt>
      <trkpt lat="39.1836600" lon="-1.4482490">
        <ele>643.0</ele>
        <time>2019-05-12T07:59:17Z</time>
      </trkpt>
      <trkpt lat="39.1836660" lon="-1.4482830">
        <ele>642.6</ele>
        <time>2019-05-12T07:59:18Z</time>
      </trkpt>
      <trkpt lat="39.1836810" lon="-1.4483180">
        <ele>642.0</ele>
        <time>2019-05-12T07:59:19Z</time>
      </trkpt>
      <trkpt lat="39.1837020" lon="-1.4483600">
        <ele>641.6</ele>
        <time>2019-05-12T07:59:20Z</time>
      </trkpt>
      <trkpt lat="39.1837160" lon="-1.4484090">
        <ele>641.0</ele>
        <time>2019-05-12T07:59:21Z</time>
      </trkpt>
      <trkpt lat="39.1837340" lon="-1.4484620">
        <ele>640.2</ele>
        <time>2019-05-12T07:59:22Z</time>
      </trkpt>
      <trkpt lat="39.1837580" lon="-1.4485180">
        <ele>639.6</ele>
        <time>2019-05-12T07:59:23Z</time>
      </trkpt>
      <trkpt lat="39.1837820" lon="-1.4485760">
        <ele>639.0</ele>
        <time>2019-05-12T07:59:24Z</time>
      </trkpt>
      <trkpt lat="39.1838000" lon="-1.4486250">
        <ele>638.4</ele>
        <time>2019-05-12T07:59:25Z</time>
      </trkpt>
      <trkpt lat="39.1838180" lon="-1.4486660">
        <ele>637.8</ele>
        <time>2019-05-12T07:59:26Z</time>
      </trkpt>
      <trkpt lat="39.1838320" lon="-1.4487070">
        <ele>637.2</ele>
        <time>2019-05-12T07:59:27Z</time>
      </trkpt>
      <trkpt lat="39.1838380" lon="-1.4487540">
        <ele>636.6</ele>
        <time>2019-05-12T07:59:28Z</time>
      </trkpt>
      <trkpt lat="39.1838460" lon="-1.4488020">
        <ele>636.0</ele>
        <time>2019-05-12T07:59:29Z</time>
      </trkpt>
      <trkpt lat="39.1838580" lon="-1.4488480">
        <ele>635.4</ele>
        <time>2019-05-12T07:59:30Z</time>
      </trkpt>
      <trkpt lat="39.1838700" lon="-1.4488880">
        <ele>634.8</ele>
        <time>2019-05-12T07:59:31Z</time>
      </trkpt>
      <trkpt lat="39.1838740" lon="-1.4489280">
        <ele>634.2</ele>
        <time>2019-05-12T07:59:32Z</time>
      </trkpt>
      <trkpt lat="39.1838740" lon="-1.4489700">
        <ele>633.6</ele>
        <time>2019-05-12T07:59:33Z</time>
      </trkpt>
      <trkpt lat="39.1838760" lon="-1.4490090">
        <ele>632.8</ele>
        <time>2019-05-12T07:59:34Z</time>
      </trkpt>
      <trkpt lat="39.1838780" lon="-1.4490470">
        <ele>632.2</ele>
        <time>2019-05-12T07:59:35Z</time>
      </trkpt>
      <trkpt lat="39.1838730" lon="-1.4490860">
        <ele>631.6</ele>
        <time>2019-05-12T07:59:36Z</time>
      </trkpt>
      <trkpt lat="39.1838740" lon="-1.4491260">
        <ele>631.0</ele>
        <time>2019-05-12T07:59:37Z</time>
      </trkpt>
      <trkpt lat="39.1838790" lon="-1.4491700">
        <ele>630.6</ele>
        <time>2019-05-12T07:59:38Z</time>
      </trkpt>
      <trkpt lat="39.1838820" lon="-1.4492150">
        <ele>630.0</ele>
        <time>2019-05-12T07:59:39Z</time>
      </trkpt>
      <trkpt lat="39.1838800" lon="-1.4492560">
        <ele>629.4</ele>
        <time>2019-05-12T07:59:40Z</time>
      </trkpt>
      <trkpt lat="39.1838790" lon="-1.4493000">
        <ele>628.8</ele>
        <time>2019-05-12T07:59:41Z</time>
      </trkpt>
      <trkpt lat="39.1838770" lon="-1.4493530">
        <ele>628.2</ele>
        <time>2019-05-12T07:59:42Z</time>
      </trkpt>
      <trkpt lat="39.1838820" lon="-1.4494130">
        <ele>627.8</ele>
        <time>2019-05-12T07:59:43Z</time>
      </trkpt>
      <trkpt lat="39.1838980" lon="-1.4494620">
        <ele>626.6</ele>
        <time>2019-05-12T07:59:44Z</time>
      </trkpt>
      <trkpt lat="39.1839270" lon="-1.4495000">
        <ele>626.0</ele>
        <time>2019-05-12T07:59:45Z</time>
      </trkpt>
      <trkpt lat="39.1839580" lon="-1.4495380">
        <ele>625.4</ele>
        <time>2019-05-12T07:59:46Z</time>
      </trkpt>
      <trkpt lat="39.1839920" lon="-1.4495840">
        <ele>625.2</ele>
        <time>2019-05-12T07:59:47Z</time>
      </trkpt>
      <trkpt lat="39.1840270" lon="-1.4496290">
        <ele>624.6</ele>
        <time>2019-05-12T07:59:48Z</time>
      </trkpt>
      <trkpt lat="39.1840610" lon="-1.4496720">
        <ele>624.2</ele>
        <time>2019-05-12T07:59:49Z</time>
      </trkpt>
      <trkpt lat="39.1840880" lon="-1.4497190">
        <ele>623.4</ele>
        <time>2019-05-12T07:59:50Z</time>
      </trkpt>
      <trkpt lat="39.1841150" lon="-1.4497620">
        <ele>622.8</ele>
        <time>2019-05-12T07:59:51Z</time>
      </trkpt>
      <trkpt lat="39.1841380" lon="-1.4498000">
        <ele>622.2</ele>
        <time>2019-05-12T07:59:52Z</time>
      </trkpt>
      <trkpt lat="39.1841590" lon="-1.4498330">
        <ele>621.6</ele>
        <time>2019-05-12T07:59:53Z</time>
      </trkpt>
      <trkpt lat="39.1841790" lon="-1.4498730">
        <ele>621.2</ele>
        <time>2019-05-12T07:59:54Z</time>
      </trkpt>
      <trkpt lat="39.1841930" lon="-1.4499270">
        <ele>620.6</ele>
        <time>2019-05-12T07:59:55Z</time>
      </trkpt>
      <trkpt lat="39.1842090" lon="-1.4499870">
        <ele>620.0</ele>
        <time>2019-05-12T07:59:56Z</time>
      </trkpt>
      <trkpt lat="39.1842270" lon="-1.4500490">
        <ele>619.4</ele>
        <time>2019-05-12T07:59:57Z</time>
      </trkpt>
      <trkpt lat="39.1842410" lon="-1.4501060">
        <ele>618.8</ele>
        <time>2019-05-12T07:59:58Z</time>
      </trkpt>
      <trkpt lat="39.1842480" lon="-1.4501580">
        <ele>618.2</ele>
        <time>2019-05-12T07:59:59Z</time>
      </trkpt>
      <trkpt lat="39.1842390" lon="-1.4502000">
        <ele>617.8</ele>
        <time>2019-05-12T08:00:00Z</time>
      </trkpt>
      <trkpt lat="39.1842260" lon="-1.4502320">
        <ele>617.2</ele>
        <time>2019-05-12T08:00:01Z</time>
      </trkpt>
      <trkpt lat="39.1842140" lon="-1.4502640">
        <ele>616.4</ele>
        <time>2019-05-12T08:00:02Z</time>
      </trkpt>
      <trkpt lat="39.1842010" lon="-1.4502950">
        <ele>615.8</ele>
        <time>2019-05-12T08:00:03Z</time>
      </trkpt>
      <trkpt lat="39.1841800" lon="-1.4503230">
        <ele>615.2</ele>
        <time>2019-05-12T08:00:04Z</time>
      </trkpt>
      <trkpt lat="39.1841580" lon="-1.4503520">
        <ele>614.6</ele>
        <time>2019-05-12T08:00:05Z</time>
      </trkpt>
      <trkpt lat="39.1841370" lon="-1.4503810">
        <ele>614.0</ele>
        <time>2019-05-12T08:00:06Z</time>
      </trkpt>
      <trkpt lat="39.1841100" lon="-1.4504140">
        <ele>613.4</ele>
        <time>2019-05-12T08:00:07Z</time>
      </trkpt>
      <trkpt lat="39.1840810" lon="-1.4504470">
        <ele>613.2</ele>
        <time>2019-05-12T08:00:08Z</time>
      </trkpt>
      <trkpt lat="39.1840450" lon="-1.4504780">
        <ele>613.0</ele>
        <time>2019-05-12T08:00:09Z</time>
      </trkpt>
      <trkpt lat="39.1840070" lon="-1.4505040">
        <ele>613.0</ele>
        <time>2019-05-12T08:00:10Z</time>
      </trkpt>
      <trkpt lat="39.1839680" lon="-1.4505280">
        <ele>613.0</ele>
        <time>2019-05-12T08:00:11Z</time>
      </trkpt>
      <trkpt lat="39.1839270" lon="-1.4505470">
        <ele>612.8</ele>
        <time>2019-05-12T08:00:12Z</time>
      </trkpt>
      <trkpt lat="39.1838840" lon="-1.4505670">
        <ele>612.8</ele>
        <time>2019-05-12T08:00:13Z</time>
      </trkpt>
      <trkpt lat="39.1838410" lon="-1.4505870">
        <ele>612.6</ele>
        <time>2019-05-12T08:00:14Z</time>
      </trkpt>
      <trkpt lat="39.1837970" lon="-1.4506060">
        <ele>612.6</ele>
        <time>2019-05-12T08:00:15Z</time>
      </trkpt>
      <trkpt lat="39.1837550" lon="-1.4506240">
        <ele>612.6</ele>
        <time>2019-05-12T08:00:16Z</time>
      </trkpt>
      <trkpt lat="39.1837160" lon="-1.4506440">
        <ele>612.2</ele>
        <time>2019-05-12T08:00:17Z</time>
      </trkpt>
      <trkpt lat="39.1836780" lon="-1.4506640">
        <ele>612.0</ele>
        <time>2019-05-12T08:00:18Z</time>
      </trkpt>
      <trkpt lat="39.1836410" lon="-1.4506830">
        <ele>611.8</ele>
        <time>2019-05-12T08:00:19Z</time>
      </trkpt>
      <trkpt lat="39.1836050" lon="-1.4507030">
        <ele>611.6</ele>
        <time>2019-05-12T08:00:20Z</time>
      </trkpt>
      <trkpt lat="39.1835690" lon="-1.4507230">
        <ele>611.6</ele>
        <time>2019-05-12T08:00:21Z</time>
      </trkpt>
      <trkpt lat="39.1835330" lon="-1.4507450">
        <ele>611.6</ele>
        <time>2019-05-12T08:00:22Z</time>
      </trkpt>
      <trkpt lat="39.1834990" lon="-1.4507680">
        <ele>611.6</ele>
        <time>2019-05-12T08:00:23Z</time>
      </trkpt>
      <trkpt lat="39.1834740" lon="-1.4507900">
        <ele>611.6</ele>
        <time>2019-05-12T08:00:24Z</time>
      </trkpt>
      <trkpt lat="39.1834510" lon="-1.4508080">
        <ele>611.4</ele>
        <time>2019-05-12T08:00:25Z</time>
      </trkpt>
      <trkpt lat="39.1834260" lon="-1.4508240">
        <ele>611.4</ele>
        <time>2019-05-12T08:00:26Z</time>
      </trkpt>
      <trkpt lat="39.1834030" lon="-1.4508390">
        <ele>611.4</ele>
        <time>2019-05-12T08:00:27Z</time>
      </trkpt>
      <trkpt lat="39.1833800" lon="-1.4508570">
        <ele>611.4</ele>
        <time>2019-05-12T08:00:28Z</time>
      </trkpt>
      <trkpt lat="39.1833550" lon="-1.4508750">
        <ele>611.4</ele>
        <time>2019-05-12T08:00:29Z</time>
      </trkpt>
      <trkpt lat="39.1833310" lon="-1.4508920">
        <ele>611.4</ele>
        <time>2019-05-12T08:00:30Z</time>
      </trkpt>
      <trkpt lat="39.1833080" lon="-1.4509180">
        <ele>611.4</ele>
        <time>2019-05-12T08:00:31Z</time>
      </trkpt>
      <trkpt lat="39.1832840" lon="-1.4509470">
        <ele>611.4</ele>
        <time>2019-05-12T08:00:32Z</time>
      </trkpt>
      <trkpt lat="39.1832610" lon="-1.4509790">
        <ele>611.4</ele>
        <time>2019-05-12T08:00:33Z</time>
      </trkpt>
      <trkpt lat="39.1832380" lon="-1.4510070">
        <ele>611.4</ele>
        <time>2019-05-12T08:00:34Z</time>
      </trkpt>
      <trkpt lat="39.1832130" lon="-1.4510330">
        <ele>611.4</ele>
        <time>2019-05-12T08:00:35Z</time>
      </trkpt>
      <trkpt lat="39.1831840" lon="-1.4510580">
        <ele>611.4</ele>
        <time>2019-05-12T08:00:36Z</time>
      </trkpt>
      <trkpt lat="39.1831550" lon="-1.4510860">
        <ele>611.4</ele>
        <time>2019-05-12T08:00:37Z</time>
      </trkpt>
      <trkpt lat="39.1831280" lon="-1.4511160">
        <ele>611.4</ele>
        <time>2019-05-12T08:00:38Z</time>
      </trkpt>
      <trkpt lat="39.1831070" lon="-1.4511530">
        <ele>611.4</ele>
        <time>2019-05-12T08:00:39Z</time>
      </trkpt>
      <trkpt lat="39.1830890" lon="-1.4511900">
        <ele>611.4</ele>
        <time>2019-05-12T08:00:40Z</time>
      </trkpt>
      <trkpt lat="39.1830780" lon="-1.4512310">
        <ele>611.4</ele>
        <time>2019-05-12T08:00:41Z</time>
      </trkpt>
      <trkpt lat="39.1830750" lon="-1.4512710">
        <ele>611.4</ele>
        <time>2019-05-12T08:00:42Z</time>
      </trkpt>
      <trkpt lat="39.1830740" lon="-1.4513170">
        <ele>611.4</ele>
        <time>2019-05-12T08:00:43Z</time>
      </trkpt>
      <trkpt lat="39.1830800" lon="-1.4513700">
        <ele>611.4</ele>
        <time>2019-05-12T08:00:44Z</time>
      </trkpt>
      <trkpt lat="39.1830830" lon="-1.4514280">
        <ele>611.4</ele>
        <time>2019-05-12T08:00:45Z</time>
      </trkpt>
      <trkpt lat="39.1830800" lon="-1.4514890">
        <ele>611.4</ele>
        <time>2019-05-12T08:00:46Z</time>
      </trkpt>
      <trkpt lat="39.1830680" lon="-1.4515500">
        <ele>611.4</ele>
        <time>2019-05-12T08:00:47Z</time>
      </trkpt>
      <trkpt lat="39.1830460" lon="-1.4516010">
        <ele>611.2</ele>
        <time>2019-05-12T08:00:48Z</time>
      </trkpt>
      <trkpt lat="39.1830280" lon="-1.4516320">
        <ele>611.4</ele>
        <time>2019-05-12T08:00:49Z</time>
      </trkpt>
      <trkpt lat="39.1830130" lon="-1.4516480">
        <ele>611.2</ele>
        <time>2019-05-12T08:00:50Z</time>
      </trkpt>
      <trkpt lat="39.1830040" lon="-1.4516620">
        <ele>611.2</ele>
        <time>2019-05-12T08:00:51Z</time>
      </trkpt>
      <trkpt lat="39.1829960" lon="-1.4516750">
        <ele>611.0</ele>
        <time>2019-05-12T08:00:52Z</time>
      </trkpt>
      <trkpt lat="39.1829890" lon="-1.4516930">
        <ele>610.4</ele>
        <time>2019-05-12T08:00:53Z</time>
      </trkpt>
      <trkpt lat="39.1829830" lon="-1.4517070">
        <ele>609.2</ele>
        <time>2019-05-12T08:00:54Z</time>
      </trkpt>
      <trkpt lat="39.1829760" lon="-1.4517260">
        <ele>608.6</ele>
        <time>2019-05-12T08:00:55Z</time>
      </trkpt>
      <trkpt lat="39.1829720" lon="-1.4517500">
        <ele>608.4</ele>
        <time>2019-05-12T08:00:56Z</time>
      </trkpt>
      <trkpt lat="39.1829730" lon="-1.4517770">
        <ele>608.0</ele>
        <time>2019-05-12T08:00:57Z</time>
      </trkpt>
      <trkpt lat="39.1829770" lon="-1.4518050">
        <ele>607.8</ele>
        <time>2019-05-12T08:00:58Z</time>
      </trkpt>
      <trkpt lat="39.1829850" lon="-1.4518360">
        <ele>607.8</ele>
        <time>2019-05-12T08:00:59Z</time>
      </trkpt>
      <trkpt lat="39.1829920" lon="-1.4518710">
        <ele>607.8</ele>
        <time>2019-05-12T08:01:00Z</time>
      </trkpt>
      <trkpt lat="39.1830000" lon="-1.4519040">
        <ele>607.6</ele>
        <time>2019-05-12T08:01:01Z</time>
      </trkpt>
      <trkpt lat="39.1830150" lon="-1.4519300">
        <ele>607.6</ele>
        <time>2019-05-12T08:01:02Z</time>
      </trkpt>
      <trkpt lat="39.1830390" lon="-1.4519480">
        <ele>607.6</ele>
        <time>2019-05-12T08:01:03Z</time>
      </trkpt>
      <trkpt lat="39.1830680" lon="-1.4519600">
        <ele>607.4</ele>
        <time>2019-05-12T08:01:04Z</time>
      </trkpt>
      <trkpt lat="39.1830950" lon="-1.4519670">
        <ele>607.0</ele>
        <time>2019-05-12T08:01:05Z</time>
      </trkpt>
      <trkpt lat="39.1831170" lon="-1.4519730">
        <ele>606.6</ele>
        <time>2019-05-12T08:01:06Z</time>
      </trkpt>
      <trkpt lat="39.1831370" lon="-1.4519700">
        <ele>606.2</ele>
        <time>2019-05-12T08:01:07Z</time>
      </trkpt>
      <trkpt lat="39.1831550" lon="-1.4519590">
        <ele>605.4</ele>
        <time>2019-05-12T08:01:08Z</time>
      </trkpt>
      <trkpt lat="39.1831740" lon="-1.4519380">
        <ele>604.8</ele>
        <time>2019-05-12T08:01:09Z</time>
      </trkpt>
      <trkpt lat="39.1831920" lon="-1.4519120">
        <ele>604.0</ele>
        <time>2019-05-12T08:01:10Z</time>
      </trkpt>
      <trkpt lat="39.1832070" lon="-1.4518970">
        <ele>603.4</ele>
        <time>2019-05-12T08:01:11Z</time>
      </trkpt>
      <trkpt lat="39.1832210" lon="-1.4518970">
        <ele>602.8</ele>
        <time>2019-05-12T08:01:12Z</time>
      </trkpt>
      <trkpt lat="39.1832350" lon="-1.4519070">
        <ele>602.4</ele>
        <time>2019-05-12T08:01:13Z</time>
      </trkpt>
      <trkpt lat="39.1832410" lon="-1.4519280">
        <ele>601.8</ele>
        <time>2019-05-12T08:01:14Z</time>
      </trkpt>
      <trkpt lat="39.1832500" lon="-1.4519650">
        <ele>601.4</ele>
        <time>2019-05-12T08:01:15Z</time>
      </trkpt>
      <trkpt lat="39.1832570" lon="-1.4520080">
        <ele>601.0</ele>
        <time>2019-05-12T08:01:16Z</time>
      </trkpt>
      <trkpt lat="39.1832580" lon="-1.4520560">
        <ele>600.8</ele>
        <time>2019-05-12T08:01:17Z</time>
      </trkpt>
      <trkpt lat="39.1832570" lon="-1.4521030">
        <ele>600.4</ele>
        <time>2019-05-12T08:01:18Z</time>
      </trkpt>
      <trkpt lat="39.1832560" lon="-1.4521510">
        <ele>600.0</ele>
        <time>2019-05-12T08:01:19Z</time>
      </trkpt>
      <trkpt lat="39.1832540" lon="-1.4522030">
        <ele>599.6</ele>
        <time>2019-05-12T08:01:20Z</time>
      </trkpt>
      <trkpt lat="39.1832510" lon="-1.4522440">
        <ele>599.2</ele>
        <time>2019-05-12T08:01:21Z</time>
      </trkpt>
      <trkpt lat="39.1832460" lon="-1.4522730">
        <ele>598.6</ele>
        <time>2019-05-12T08:01:22Z</time>
      </trkpt>
      <trkpt lat="39.1832420" lon="-1.4522970">
        <ele>598.0</ele>
        <time>2019-05-12T08:01:23Z</time>
      </trkpt>
      <trkpt lat="39.1832370" lon="-1.4523220">
        <ele>597.6</ele>
        <time>2019-05-12T08:01:24Z</time>
      </trkpt>
      <trkpt lat="39.1832330" lon="-1.4523500">
        <ele>597.0</ele>
        <time>2019-05-12T08:01:25Z</time>
      </trkpt>
      <trkpt lat="39.1832390" lon="-1.4523760">
        <ele>596.2</ele>
        <time>2019-05-12T08:01:26Z</time>
      </trkpt>
      <trkpt lat="39.1832480" lon="-1.4523920">
        <ele>595.8</ele>
        <time>2019-05-12T08:01:27Z</time>
      </trkpt>
      <trkpt lat="39.1832590" lon="-1.4524060">
        <ele>594.4</ele>
        <time>2019-05-12T08:01:28Z</time>
      </trkpt>
      <trkpt lat="39.1832710" lon="-1.4524220">
        <ele>593.8</ele>
        <time>2019-05-12T08:01:29Z</time>
      </trkpt>
      <trkpt lat="39.1832870" lon="-1.4524290">
        <ele>593.2</ele>
        <time>2019-05-12T08:01:30Z</time>
      </trkpt>
      <trkpt lat="39.1833080" lon="-1.4524200">
        <ele>592.8</ele>
        <time>2019-05-12T08:01:31Z</time>
      </trkpt>
      <trkpt lat="39.1833300" lon="-1.4524070">
        <ele>592.4</ele>
        <time>2019-05-12T08:01:32Z</time>
      </trkpt>
      <trkpt lat="39.1833530" lon="-1.4523920">
        <ele>591.8</ele>
        <time>2019-05-12T08:01:33Z</time>
      </trkpt>
      <trkpt lat="39.1833850" lon="-1.4523750">
        <ele>591.4</ele>
        <time>2019-05-12T08:01:34Z</time>
      </trkpt>
      <trkpt lat="39.1834140" lon="-1.4523600">
        <ele>590.8</ele>
        <time>2019-05-12T08:01:35Z</time>
      </trkpt>
      <trkpt lat="39.1834400" lon="-1.4523460">
        <ele>590.4</ele>
        <time>2019-05-12T08:01:36Z</time>
      </trkpt>
      <trkpt lat="39.1834690" lon="-1.4523350">
        <ele>589.8</ele>
        <time>2019-05-12T08:01:37Z</time>
      </trkpt>
      <trkpt lat="39.1835000" lon="-1.4523270">
        <ele>589.4</ele>
        <time>2019-05-12T08:01:38Z</time>
      </trkpt>
      <trkpt lat="39.1835280" lon="-1.4523180">
        <ele>589.0</ele>
        <time>2019-05-12T08:01:39Z</time>
      </trkpt>
      <trkpt lat="39.1835520" lon="-1.4522970">
        <ele>588.6</ele>
        <time>2019-05-12T08:01:40Z</time>
      </trkpt>
      <trkpt lat="39.1835780" lon="-1.4522650">
        <ele>588.4</ele>
        <time>2019-05-12T08:01:41Z</time>
      </trkpt>
      <trkpt lat="39.1836060" lon="-1.4522240">
        <ele>588.2</ele>
        <time>2019-05-12T08:01:42Z</time>
      </trkpt>
      <trkpt lat="39.1836360" lon="-1.4521850">
        <ele>587.8</ele>
        <time>2019-05-12T08:01:43Z</time>
      </trkpt>
      <trkpt lat="39.1836650" lon="-1.4521500">
        <ele>587.0</ele>
        <time>2019-05-12T08:01:44Z</time>
      </trkpt>
      <trkpt lat="39.1836860" lon="-1.4521180">
        <ele>586.4</ele>
        <time>2019-05-12T08:01:45Z</time>
      </trkpt>
      <trkpt lat="39.1837020" lon="-1.4520840">
        <ele>585.6</ele>
        <time>2019-05-12T08:01:46Z</time>
      </trkpt>
      <trkpt lat="39.1837210" lon="-1.4520520">
        <ele>584.8</ele>
        <time>2019-05-12T08:01:47Z</time>
      </trkpt>
      <trkpt lat="39.1837410" lon="-1.4520220">
        <ele>584.0</ele>
        <time>2019-05-12T08:01:48Z</time>
      </trkpt>
      <trkpt lat="39.1837580" lon="-1.4519890">
        <ele>583.4</ele>
        <time>2019-05-12T08:01:49Z</time>
      </trkpt>
      <trkpt lat="39.1837730" lon="-1.4519480">
        <ele>582.8</ele>
        <time>2019-05-12T08:01:50Z</time>
      </trkpt>
      <trkpt lat="39.1837850" lon="-1.4519040">
        <ele>582.2</ele>
        <time>2019-05-12T08:01:51Z</time>
      </trkpt>
      <trkpt lat="39.1838040" lon="-1.4518700">
        <ele>581.4</ele>
        <time>2019-05-12T08:01:52Z</time>
      </trkpt>
      <trkpt lat="39.1838260" lon="-1.4518510">
        <ele>580.8</ele>
        <time>2019-05-12T08:01:53Z</time>
      </trkpt>
      <trkpt lat="39.1838560" lon="-1.4518410">
        <ele>580.6</ele>
        <time>2019-05-12T08:01:54Z</time>
      </trkpt>
      <trkpt lat="39.1838960" lon="-1.4518400">
        <ele>580.2</ele>
        <time>2019-05-12T08:01:55Z</time>
      </trkpt>
      <trkpt lat="39.1839360" lon="-1.4518490">
        <ele>580.2</ele>
        <time>2019-05-12T08:01:56Z</time>
      </trkpt>
      <trkpt lat="39.1839790" lon="-1.4518530">
        <ele>579.8</ele>
        <time>2019-05-12T08:01:57Z</time>
      </trkpt>
      <trkpt lat="39.1840150" lon="-1.4518500">
        <ele>579.4</ele>
        <time>2019-05-12T08:01:58Z</time>
      </trkpt>
      <trkpt lat="39.1840450" lon="-1.4518470">
        <ele>579.0</ele>
        <time>2019-05-12T08:01:59Z</time>
      </trkpt>
      <trkpt lat="39.1840730" lon="-1.4518450">
        <ele>578.8</ele>
        <time>2019-05-12T08:02:00Z</time>
      </trkpt>
      <trkpt lat="39.1841080" lon="-1.4518420">
        <ele>578.4</ele>
        <time>2019-05-12T08:02:01Z</time>
      </trkpt>
      <trkpt lat="39.1841440" lon="-1.4518440">
        <ele>578.0</ele>
        <time>2019-05-12T08:02:02Z</time>
      </trkpt>
      <trkpt lat="39.1841800" lon="-1.4518490">
        <ele>576.2</ele>
        <time>2019-05-12T08:02:03Z</time>
      </trkpt>
      <trkpt lat="39.1842180" lon="-1.4518620">
        <ele>575.8</ele>
        <time>2019-05-12T08:02:04Z</time>
      </trkpt>
      <trkpt lat="39.1842540" lon="-1.4518720">
        <ele>575.4</ele>
        <time>2019-05-12T08:02:05Z</time>
      </trkpt>
      <trkpt lat="39.1842830" lon="-1.4518800">
        <ele>575.4</ele>
        <time>2019-05-12T08:02:06Z</time>
      </trkpt>
      <trkpt lat="39.1843100" lon="-1.4518890">
        <ele>575.2</ele>
        <time>2019-05-12T08:02:07Z</time>
      </trkpt>
      <trkpt lat="39.1843400" lon="-1.4518990">
        <ele>575.0</ele>
        <time>2019-05-12T08:02:08Z</time>
      </trkpt>
      <trkpt lat="39.1843710" lon="-1.4519180">
        <ele>574.6</ele>
        <time>2019-05-12T08:02:09Z</time>
      </trkpt>
      <trkpt lat="39.1844070" lon="-1.4519360">
        <ele>573.8</ele>
        <time>2019-05-12T08:02:10Z</time>
      </trkpt>
      <trkpt lat="39.1844430" lon="-1.4519560">
        <ele>573.4</ele>
        <time>2019-05-12T08:02:11Z</time>
      </trkpt>
      <trkpt lat="39.1844820" lon="-1.4519770">
        <ele>573.2</ele>
        <time>2019-05-12T08:02:12Z</time>
      </trkpt>
      <trkpt lat="39.1845210" lon="-1.4519950">
        <ele>573.0</ele>
        <time>2019-05-12T08:02:13Z</time>
      </trkpt>
      <trkpt lat="39.1845580" lon="-1.4520140">
        <ele>572.8</ele>
        <time>2019-05-12T08:02:14Z</time>
      </trkpt>
      <trkpt lat="39.1845990" lon="-1.4520310">
        <ele>572.8</ele>
        <time>2019-05-12T08:02:15Z</time>
      </trkpt>
      <trkpt lat="39.1846340" lon="-1.4520520">
        <ele>572.8</ele>
        <time>2019-05-12T08:02:16Z</time>
      </trkpt>
      <trkpt lat="39.1846660" lon="-1.4520740">
        <ele>572.6</ele>
        <time>2019-05-12T08:02:17Z</time>
      </trkpt>
      <trkpt lat="39.1847000" lon="-1.4520880">
        <ele>572.6</ele>
        <time>2019-05-12T08:02:18Z</time>
      </trkpt>
      <trkpt lat="39.1847320" lon="-1.4520940">
        <ele>572.4</ele>
        <time>2019-05-12T08:02:19Z</time>
      </trkpt>
      <trkpt lat="39.1847630" lon="-1.4520930">
        <ele>572.4</ele>
        <time>2019-05-12T08:02:20Z</time>
      </trkpt>
      <trkpt lat="39.1847970" lon="-1.4520920">
        <ele>572.2</ele>
        <time>2019-05-12T08:02:21Z</time>
      </trkpt>
      <trkpt lat="39.1848310" lon="-1.4520940">
        <ele>572.2</ele>
        <time>2019-05-12T08:02:22Z</time>
      </trkpt>
      <trkpt lat="39.1848650" lon="-1.4520980">
        <ele>572.2</ele>
        <time>2019-05-12T08:02:23Z</time>
      </trkpt>
      <trkpt lat="39.1848980" lon="-1.4521010">
        <ele>572.2</ele>
        <time>2019-05-12T08:02:24Z</time>
      </trkpt>
      <trkpt lat="39.1849310" lon="-1.4521050">
        <ele>572.2</ele>
        <time>2019-05-12T08:02:25Z</time>
      </trkpt>
      <trkpt lat="39.1849600" lon="-1.4521100">
        <ele>572.0</ele>
        <time>2019-05-12T08:02:26Z</time>
      </trkpt>
      <trkpt lat="39.1849900" lon="-1.4521170">
        <ele>571.6</ele>
        <time>2019-05-12T08:02:27Z</time>
      </trkpt>
      <trkpt lat="39.1850190" lon="-1.4521220">
        <ele>571.6</ele>
        <time>2019-05-12T08:02:28Z</time>
      </trkpt>
      <trkpt lat="39.1850490" lon="-1.4521240">
        <ele>571.4</ele>
        <time>2019-05-12T08:02:29Z</time>
      </trkpt>
      <trkpt lat="39.1850750" lon="-1.4521240">
        <ele>571.4</ele>
        <time>2019-05-12T08:02:30Z</time>
      </trkpt>
      <trkpt lat="39.1850970" lon="-1.4521260">
        <ele>571.2</ele>
        <time>2019-05-12T08:02:31Z</time>
      </trkpt>
      <trkpt lat="39.1851140" lon="-1.4521280">
        <ele>571.2</ele>
        <time>2019-05-12T08:02:32Z</time>
      </trkpt>
      <trkpt lat="39.1851270" lon="-1.4521330">
        <ele>571.0</ele>
        <time>2019-05-12T08:02:33Z</time>
      </trkpt>
      <trkpt lat="39.1851370" lon="-1.4521380">
        <ele>571.0</ele>
        <time>2019-05-12T08:02:34Z</time>
      </trkpt>
      <trkpt lat="39.1851500" lon="-1.4521500">
        <ele>570.8</ele>
        <time>2019-05-12T08:02:35Z</time>
      </trkpt>
      <trkpt lat="39.1851660" lon="-1.4521680">
        <ele>570.8</ele>
        <time>2019-05-12T08:02:36Z</time>
      </trkpt>
      <trkpt lat="39.1851990" lon="-1.4522000">
        <ele>570.6</ele>
        <time>2019-05-12T08:02:37Z</time>
      </trkpt>
      <trkpt lat="39.1852400" lon="-1.4522370">
        <ele>570.6</ele>
        <time>2019-05-12T08:02:38Z</time>
      </trkpt>
      <trkpt lat="39.1852710" lon="-1.4522660">
        <ele>570.4</ele>
        <time>2019-05-12T08:02:39Z</time>
      </trkpt>
      <trkpt lat="39.1852900" lon="-1.4522810">
        <ele>570.4</ele>
        <time>2019-05-12T08:02:40Z</time>
      </trkpt>
      <trkpt lat="39.1853020" lon="-1.4522890">
        <ele>570.2</ele>
        <time>2019-05-12T08:02:41Z</time>
      </trkpt>
      <trkpt lat="39.1853130" lon="-1.4523020">
        <ele>570.2</ele>
        <time>2019-05-12T08:02:42Z</time>
      </trkpt>
      <trkpt lat="39.1853250" lon="-1.4523210">
        <ele>570.2</ele>
        <time>2019-05-12T08:02:43Z</time>
      </trkpt>
      <trkpt lat="39.1853420" lon="-1.4523450">
        <ele>570.2</ele>
        <time>2019-05-12T08:02:44Z</time>
      </trkpt>
      <trkpt lat="39.1853610" lon="-1.4523700">
        <ele>570.2</ele>
        <time>2019-05-12T08:02:45Z</time>
      </trkpt>
      <trkpt lat="39.1853820" lon="-1.4523930">
        <ele>570.2</ele>
        <time>2019-05-12T08:02:46Z</time>
      </trkpt>
      <trkpt lat="39.1854100" lon="-1.4524130">
        <ele>570.2</ele>
        <time>2019-05-12T08:02:47Z</time>
      </trkpt>
      <trkpt lat="39.1854390" lon="-1.4524340">
        <ele>570.2</ele>
        <time>2019-05-12T08:02:48Z</time>
      </trkpt>
      <trkpt lat="39.1854650" lon="-1.4524580">
        <ele>570.2</ele>
        <time>2019-05-12T08:02:49Z</time>
      </trkpt>
      <trkpt lat="39.1854900" lon="-1.4524830">
        <ele>570.2</ele>
        <time>2019-05-12T08:02:50Z</time>
      </trkpt>
      <trkpt lat="39.1855140" lon="-1.4525060">
        <ele>570.4</ele>
        <time>2019-05-12T08:02:51Z</time>
      </trkpt>
      <trkpt lat="39.1855380" lon="-1.4525300">
        <ele>570.8</ele>
        <time>2019-05-12T08:02:52Z</time>
      </trkpt>
      <trkpt lat="39.1855580" lon="-1.4525540">
        <ele>571.2</ele>
        <time>2019-05-12T08:02:53Z</time>
      </trkpt>
      <trkpt lat="39.1855730" lon="-1.4525810">
        <ele>571.6</ele>
        <time>2019-05-12T08:02:54Z</time>
      </trkpt>
      <trkpt lat="39.1855830" lon="-1.4526060">
        <ele>572.0</ele>
        <time>2019-05-12T08:02:55Z</time>
      </trkpt>
      <trkpt lat="39.1855880" lon="-1.4526360">
        <ele>572.4</ele>
        <time>2019-05-12T08:02:56Z</time>
      </trkpt>
      <trkpt lat="39.1855900" lon="-1.4526670">
        <ele>572.6</ele>
        <time>2019-05-12T08:02:57Z</time>
      </trkpt>
      <trkpt lat="39.1855950" lon="-1.4527040">
        <ele>573.0</ele>
        <time>2019-05-12T08:02:58Z</time>
      </trkpt>
      <trkpt lat="39.1855960" lon="-1.4527460">
        <ele>573.2</ele>
        <time>2019-05-12T08:02:59Z</time>
      </trkpt>
      <trkpt lat="39.1855900" lon="-1.4527900">
        <ele>573.2</ele>
        <time>2019-05-12T08:03:00Z</time>
      </trkpt>
      <trkpt lat="39.1855830" lon="-1.4528290">
        <ele>573.4</ele>
        <time>2019-05-12T08:03:01Z</time>
      </trkpt>
      <trkpt lat="39.1855810" lon="-1.4528660">
        <ele>573.4</ele>
        <time>2019-05-12T08:03:02Z</time>
      </trkpt>
      <trkpt lat="39.1855750" lon="-1.4529070">
        <ele>573.4</ele>
        <time>2019-05-12T08:03:03Z</time>
      </trkpt>
      <trkpt lat="39.1855650" lon="-1.4529540">
        <ele>573.4</ele>
        <time>2019-05-12T08:03:04Z</time>
      </trkpt>
      <trkpt lat="39.1855500" lon="-1.4530070">
        <ele>573.4</ele>
        <time>2019-05-12T08:03:05Z</time>
      </trkpt>
      <trkpt lat="39.1855290" lon="-1.4530630">
        <ele>573.4</ele>
        <time>2019-05-12T08:03:06Z</time>
      </trkpt>
      <trkpt lat="39.1855060" lon="-1.4531130">
        <ele>573.4</ele>
        <time>2019-05-12T08:03:07Z</time>
      </trkpt>
      <trkpt lat="39.1854850" lon="-1.4531620">
        <ele>573.4</ele>
        <time>2019-05-12T08:03:08Z</time>
      </trkpt>
      <trkpt lat="39.1854690" lon="-1.4532120">
        <ele>573.2</ele>
        <time>2019-05-12T08:03:09Z</time>
      </trkpt>
      <trkpt lat="39.1854540" lon="-1.4532610">
        <ele>573.0</ele>
        <time>2019-05-12T08:03:10Z</time>
      </trkpt>
      <trkpt lat="39.1854370" lon="-1.4533110">
        <ele>572.8</ele>
        <time>2019-05-12T08:03:11Z</time>
      </trkpt>
      <trkpt lat="39.1854220" lon="-1.4533590">
        <ele>571.8</ele>
        <time>2019-05-12T08:03:12Z</time>
      </trkpt>
      <trkpt lat="39.1854120" lon="-1.4534020">
        <ele>571.4</ele>
        <time>2019-05-12T08:03:13Z</time>
      </trkpt>
      <trkpt lat="39.1854020" lon="-1.4534420">
        <ele>571.0</ele>
        <time>2019-05-12T08:03:14Z</time>
      </trkpt>
      <trkpt lat="39.1853880" lon="-1.4534820">
        <ele>570.8</ele>
        <time>2019-05-12T08:03:15Z</time>
      </trkpt>
      <trkpt lat="39.1853760" lon="-1.4535260">
        <ele>570.6</ele>
        <time>2019-05-12T08:03:16Z</time>
      </trkpt>
      <trkpt lat="39.1853640" lon="-1.4535760">
        <ele>570.4</ele>
        <time>2019-05-12T08:03:17Z</time>
      </trkpt>
      <trkpt lat="39.1853480" lon="-1.4536270">
        <ele>570.2</ele>
        <time>2019-05-12T08:03:18Z</time>
      </trkpt>
      <trkpt lat="39.1853310" lon="-1.4536710">
        <ele>570.0</ele>
        <time>2019-05-12T08:03:19Z</time>
      </trkpt>
      <trkpt lat="39.1853200" lon="-1.4537060">
        <ele>570.0</ele>
        <time>2019-05-12T08:03:20Z</time>
      </trkpt>
      <trkpt lat="39.1853100" lon="-1.4537450">
        <ele>569.8</ele>
        <time>2019-05-12T08:03:21Z</time>
      </trkpt>
      <trkpt lat="39.1853010" lon="-1.4537840">
        <ele>569.6</ele>
        <time>2019-05-12T08:03:22Z</time>
      </trkpt>
      <trkpt lat="39.1852900" lon="-1.4538250">
        <ele>569.6</ele>
        <time>2019-05-12T08:03:23Z</time>
      </trkpt>
      <trkpt lat="39.1852790" lon="-1.4538720">
        <ele>569.4</ele>
        <time>2019-05-12T08:03:24Z</time>
      </trkpt>
      <trkpt lat="39.1852660" lon="-1.4539170">
        <ele>569.4</ele>
        <time>2019-05-12T08:03:25Z</time>
      </trkpt>
      <trkpt lat="39.1852570" lon="-1.4539570">
        <ele>569.2</ele>
        <time>2019-05-12T08:03:26Z</time>
      </trkpt>
      <trkpt lat="39.1852490" lon="-1.4539910">
        <ele>569.2</ele>
        <time>2019-05-12T08:03:27Z</time>
      </trkpt>
      <trkpt lat="39.1852400" lon="-1.4540200">
        <ele>569.0</ele>
        <time>2019-05-12T08:03:28Z</time>
      </trkpt>
      <trkpt lat="39.1852320" lon="-1.4540490">
        <ele>569.0</ele>
        <time>2019-05-12T08:03:29Z</time>
      </trkpt>
      <trkpt lat="39.1852240" lon="-1.4540800">
        <ele>569.0</ele>
        <time>2019-05-12T08:03:30Z</time>
      </trkpt>
      <trkpt lat="39.1852150" lon="-1.4541130">
        <ele>569.0</ele>
        <time>2019-05-12T08:03:31Z</time>
      </trkpt>
      <trkpt lat="39.1852080" lon="-1.4541460">
        <ele>569.0</ele>
        <time>2019-05-12T08:03:32Z</time>
      </trkpt>
      <trkpt lat="39.1852010" lon="-1.4541800">
        <ele>568.8</ele>
        <time>2019-05-12T08:03:33Z</time>
      </trkpt>
      <trkpt lat="39.1851920" lon="-1.4542100">
        <ele>568.8</ele>
        <time>2019-05-12T08:03:34Z</time>
      </trkpt>
      <trkpt lat="39.1851860" lon="-1.4542390">
        <ele>568.8</ele>
        <time>2019-05-12T08:03:35Z</time>
      </trkpt>
      <trkpt lat="39.1851820" lon="-1.4542650">
        <ele>568.8</ele>
        <time>2019-05-12T08:03:36Z</time>
      </trkpt>
      <trkpt lat="39.1851760" lon="-1.4542950">
        <ele>568.8</ele>
        <time>2019-05-12T08:03:37Z</time>
      </trkpt>
      <trkpt lat="39.1851700" lon="-1.4543290">
        <ele>568.8</ele>
        <time>2019-05-12T08:03:38Z</time>
      </trkpt>
      <trkpt lat="39.1851640" lon="-1.4543640">
        <ele>568.8</ele>
        <time>2019-05-12T08:03:39Z</time>
      </trkpt>
      <trkpt lat="39.1851550" lon="-1.4543970">
        <ele>568.8</ele>
        <time>2019-05-12T08:03:40Z</time>
      </trkpt>
      <trkpt lat="39.1851470" lon="-1.4544310">
        <ele>568.8</ele>
        <time>2019-05-12T08:03:41Z</time>
      </trkpt>
      <trkpt lat="39.1851390" lon="-1.4544620">
        <ele>568.8</ele>
        <time>2019-05-12T08:03:42Z</time>
      </trkpt>
      <trkpt lat="39.1851300" lon="-1.4544920">
        <ele>568.8</ele>
        <time>2019-05-12T08:03:43Z</time>
      </trkpt>
      <trkpt lat="39.1851190" lon="-1.4545220">
        <ele>568.8</ele>
        <time>2019-05-12T08:03:44Z</time>
      </trkpt>
      <trkpt lat="39.1851050" lon="-1.4545540">
        <ele>568.8</ele>
        <time>2019-05-12T08:03:45Z</time>
      </trkpt>
      <trkpt lat="39.1850920" lon="-1.4545870">
        <ele>568.8</ele>
        <time>2019-05-12T08:03:46Z</time>
      </trkpt>
      <trkpt lat="39.1850800" lon="-1.4546210">
        <ele>568.8</ele>
        <time>2019-05-12T08:03:47Z</time>
      </trkpt>
      <trkpt lat="39.1850670" lon="-1.4546550">
        <ele>568.8</ele>
        <time>2019-05-12T08:03:48Z</time>
      </trkpt>
      <trkpt lat="39.1850480" lon="-1.4546850">
        <ele>568.8</ele>
        <time>2019-05-12T08:03:49Z</time>
      </trkpt>
      <trkpt lat="39.1850270" lon="-1.4547090">
        <ele>568.8</ele>
        <time>2019-05-12T08:03:50Z</time>
      </trkpt>
      <trkpt lat="39.1850060" lon="-1.4547340">
        <ele>568.8</ele>
        <time>2019-05-12T08:03:51Z</time>
      </trkpt>
      <trkpt lat="39.1849840" lon="-1.4547580">
        <ele>569.0</ele>
        <time>2019-05-12T08:03:52Z</time>
      </trkpt>
      <trkpt lat="39.1849640" lon="-1.4547840">
        <ele>569.0</ele>
        <time>2019-05-12T08:03:53Z</time>
      </trkpt>
      <trkpt lat="39.1849470" lon="-1.4548180">
        <ele>569.0</ele>
        <time>2019-05-12T08:03:54Z</time>
      </trkpt>
      <trkpt lat="39.1849340" lon="-1.4548540">
        <ele>569.2</ele>
        <time>2019-05-12T08:03:55Z</time>
      </trkpt>
      <trkpt lat="39.1849220" lon="-1.4548890">
        <ele>569.2</ele>
        <time>2019-05-12T08:03:56Z</time>
      </trkpt>
      <trkpt lat="39.1849110" lon="-1.4549200">
        <ele>569.4</ele>
        <time>2019-05-12T08:03:57Z</time>
      </trkpt>
      <trkpt lat="39.1849000" lon="-1.4549530">
        <ele>569.6</ele>
        <time>2019-05-12T08:03:58Z</time>
      </trkpt>
      <trkpt lat="39.1848880" lon="-1.4549880">
        <ele>570.0</ele>
        <time>2019-05-12T08:03:59Z</time>
      </trkpt>
      <trkpt lat="39.1848780" lon="-1.4550200">
        <ele>570.4</ele>
        <time>2019-05-12T08:04:00Z</time>
      </trkpt>
      <trkpt lat="39.1848680" lon="-1.4550560">
        <ele>570.6</ele>
        <time>2019-05-12T08:04:01Z</time>
      </trkpt>
      <trkpt lat="39.1848580" lon="-1.4550950">
        <ele>570.8</ele>
        <time>2019-05-12T08:04:02Z</time>
      </trkpt>
      <trkpt lat="39.1848450" lon="-1.4551350">
        <ele>571.0</ele>
        <time>2019-05-12T08:04:03Z</time>
      </trkpt>
      <trkpt lat="39.1848320" lon="-1.4551710">
        <ele>571.0</ele>
        <time>2019-05-12T08:04:04Z</time>
      </trkpt>
      <trkpt lat="39.1848160" lon="-1.4552040">
        <ele>571.2</ele>
        <time>2019-05-12T08:04:05Z</time>
      </trkpt>
      <trkpt lat="39.1847990" lon="-1.4552350">
        <ele>571.4</ele>
        <time>2019-05-12T08:04:06Z</time>
      </trkpt>
      <trkpt lat="39.1847820" lon="-1.4552770">
        <ele>571.4</ele>
        <time>2019-05-12T08:04:07Z</time>
      </trkpt>
      <trkpt lat="39.1847700" lon="-1.4553240">
        <ele>571.6</ele>
        <time>2019-05-12T08:04:08Z</time>
      </trkpt>
      <trkpt lat="39.1847560" lon="-1.4553710">
        <ele>571.6</ele>
        <time>2019-05-12T08:04:09Z</time>
      </trkpt>
      <trkpt lat="39.1847470" lon="-1.4554190">
        <ele>571.6</ele>
        <time>2019-05-12T08:04:10Z</time>
      </trkpt>
      <trkpt lat="39.1847510" lon="-1.4554660">
        <ele>571.6</ele>
        <time>2019-05-12T08:04:11Z</time>
      </trkpt>
      <trkpt lat="39.1847650" lon="-1.4555150">
        <ele>571.8</ele>
        <time>2019-05-12T08:04:12Z</time>
      </trkpt>
      <trkpt lat="39.1847820" lon="-1.4555710">
        <ele>571.8</ele>
        <time>2019-05-12T08:04:13Z</time>
      </trkpt>
      <trkpt lat="39.1847960" lon="-1.4556290">
        <ele>571.8</ele>
        <time>2019-05-12T08:04:14Z</time>
      </trkpt>
      <trkpt lat="39.1848070" lon="-1.4556770">
        <ele>571.8</ele>
        <time>2019-05-12T08:04:15Z</time>
      </trkpt>
      <trkpt lat="39.1848150" lon="-1.4557170">
        <ele>571.8</ele>
        <time>2019-05-12T08:04:16Z</time>
      </trkpt>
      <trkpt lat="39.1848200" lon="-1.4557530">
        <ele>571.8</ele>
        <time>2019-05-12T08:04:17Z</time>
      </trkpt>
      <trkpt lat="39.1848210" lon="-1.4557880">
        <ele>571.8</ele>
        <time>2019-05-12T08:04:18Z</time>
      </trkpt>
      <trkpt lat="39.1848190" lon="-1.4558190">
        <ele>571.8</ele>
        <time>2019-05-12T08:04:19Z</time>
      </trkpt>
      <trkpt lat="39.1848110" lon="-1.4558460">
        <ele>571.8</ele>
        <time>2019-05-12T08:04:20Z</time>
      </trkpt>
      <trkpt lat="39.1847970" lon="-1.4558740">
        <ele>571.8</ele>
        <time>2019-05-12T08:04:21Z</time>
      </trkpt>
      <trkpt lat="39.1847890" lon="-1.4559040">
        <ele>571.8</ele>
        <time>2019-05-12T08:04:22Z</time>
      </trkpt>
      <trkpt lat="39.1847920" lon="-1.4559350">
        <ele>571.4</ele>
        <time>2019-05-12T08:04:23Z</time>
      </trkpt>
      <trkpt lat="39.1848050" lon="-1.4559580">
        <ele>570.8</ele>
        <time>2019-05-12T08:04:24Z</time>
      </trkpt>
      <trkpt lat="39.1848250" lon="-1.4559770">
        <ele>570.0</ele>
        <time>2019-05-12T08:04:25Z</time>
      </trkpt>
      <trkpt lat="39.1848510" lon="-1.4560030">
        <ele>569.4</ele>
        <time>2019-05-12T08:04:26Z</time>
      </trkpt>
      <trkpt lat="39.1848770" lon="-1.4560320">
        <ele>568.8</ele>
        <time>2019-05-12T08:04:27Z</time>
      </trkpt>
      <trkpt lat="39.1849050" lon="-1.4560590">
        <ele>568.2</ele>
        <time>2019-05-12T08:04:28Z</time>
      </trkpt>
      <trkpt lat="39.1849330" lon="-1.4560860">
        <ele>567.6</ele>
        <time>2019-05-12T08:04:29Z</time>
      </trkpt>
      <trkpt lat="39.1849610" lon="-1.4561160">
        <ele>566.8</ele>
        <time>2019-05-12T08:04:30Z</time>
      </trkpt>
      <trkpt lat="39.1849840" lon="-1.4561450">
        <ele>566.2</ele>
        <time>2019-05-12T08:04:31Z</time>
      </trkpt>
      <trkpt lat="39.1849930" lon="-1.4561780">
        <ele>566.0</ele>
        <time>2019-05-12T08:04:32Z</time>
      </trkpt>
      <trkpt lat="39.1849830" lon="-1.4562120">
        <ele>565.6</ele>
        <time>2019-05-12T08:04:33Z</time>
      </trkpt>
      <trkpt lat="39.1849530" lon="-1.4562450">
        <ele>565.4</ele>
        <time>2019-05-12T08:04:34Z</time>
      </trkpt>
      <trkpt lat="39.1849200" lon="-1.4562860">
        <ele>564.8</ele>
        <time>2019-05-12T08:04:35Z</time>
      </trkpt>
      <trkpt lat="39.1848970" lon="-1.4563370">
        <ele>564.0</ele>
        <time>2019-05-12T08:04:36Z</time>
      </trkpt>
      <trkpt lat="39.1848810" lon="-1.4563980">
        <ele>563.2</ele>
        <time>2019-05-12T08:04:37Z</time>
      </trkpt>
      <trkpt lat="39.1848730" lon="-1.4564660">
        <ele>562.4</ele>
        <time>2019-05-12T08:04:38Z</time>
      </trkpt>
      <trkpt lat="39.1848650" lon="-1.4565400">
        <ele>561.6</ele>
        <time>2019-05-12T08:04:39Z</time>
      </trkpt>
      <trkpt lat="39.1848460" lon="-1.4566170">
        <ele>560.8</ele>
        <time>2019-05-12T08:04:40Z</time>
      </trkpt>
      <trkpt lat="39.1848150" lon="-1.4566880">
        <ele>560.2</ele>
        <time>2019-05-12T08:04:41Z</time>
      </trkpt>
      <trkpt lat="39.1847850" lon="-1.4567420">
        <ele>559.8</ele>
        <time>2019-05-12T08:04:42Z</time>
      </trkpt>
      <trkpt lat="39.1847640" lon="-1.4567860">
        <ele>559.4</ele>
        <time>2019-05-12T08:04:43Z</time>
      </trkpt>
      <trkpt lat="39.1847590" lon="-1.4568230">
        <ele>559.0</ele>
        <time>2019-05-12T08:04:44Z</time>
      </trkpt>
      <trkpt lat="39.1847730" lon="-1.4568520">
        <ele>558.8</ele>
        <time>2019-05-12T08:04:45Z</time>
      </trkpt>
      <trkpt lat="39.1848050" lon="-1.4568700">
        <ele>558.6</ele>
        <time>2019-05-12T08:04:46Z</time>
      </trkpt>
      <trkpt lat="39.1848480" lon="-1.4568780">
        <ele>558.2</ele>
        <time>2019-05-12T08:04:47Z</time>
      </trkpt>
      <trkpt lat="39.1848910" lon="-1.4568900">
        <ele>558.0</ele>
        <time>2019-05-12T08:04:48Z</time>
      </trkpt>
      <trkpt lat="39.1849270" lon="-1.4569210">
        <ele>557.4</ele>
        <time>2019-05-12T08:04:49Z</time>
      </trkpt>
      <trkpt lat="39.1849540" lon="-1.4569710">
        <ele>557.0</ele>
        <time>2019-05-12T08:04:50Z</time>
      </trkpt>
      <trkpt lat="39.1849650" lon="-1.4570230">
        <ele>556.2</ele>
        <time>2019-05-12T08:04:51Z</time>
      </trkpt>
      <trkpt lat="39.1849490" lon="-1.4570680">
        <ele>555.6</ele>
        <time>2019-05-12T08:04:52Z</time>
      </trkpt>
      <trkpt lat="39.1849160" lon="-1.4571100">
        <ele>555.0</ele>
        <time>2019-05-12T08:04:53Z</time>
      </trkpt>
      <trkpt lat="39.1848800" lon="-1.4571540">
        <ele>554.6</ele>
        <time>2019-05-12T08:04:54Z</time>
      </trkpt>
      <trkpt lat="39.1848500" lon="-1.4572040">
        <ele>554.0</ele>
        <time>2019-05-12T08:04:55Z</time>
      </trkpt>
      <trkpt lat="39.1848180" lon="-1.4572570">
        <ele>553.2</ele>
        <time>2019-05-12T08:04:56Z</time>
      </trkpt>
      <trkpt lat="39.1847840" lon="-1.4573110">
        <ele>552.6</ele>
        <time>2019-05-12T08:04:57Z</time>
      </trkpt>
      <trkpt lat="39.1847500" lon="-1.4573680">
        <ele>552.6</ele>
        <time>2019-05-12T08:04:58Z</time>
      </trkpt>
      <trkpt lat="39.1847180" lon="-1.4574280">
        <ele>552.4</ele>
        <time>2019-05-12T08:04:59Z</time>
      </trkpt>
      <trkpt lat="39.1846820" lon="-1.4574870">
        <ele>552.4</ele>
        <time>2019-05-12T08:05:00Z</time>
      </trkpt>
      <trkpt lat="39.1846440" lon="-1.4575440">
        <ele>552.4</ele>
        <time>2019-05-12T08:05:01Z</time>
      </trkpt>
      <trkpt lat="39.1846040" lon="-1.4576000">
        <ele>552.4</ele>
        <time>2019-05-12T08:05:02Z</time>
      </trkpt>
      <trkpt lat="39.1845600" lon="-1.4576560">
        <ele>552.4</ele>
        <time>2019-05-12T08:05:03Z</time>
      </trkpt>
      <trkpt lat="39.1845170" lon="-1.4577150">
        <ele>552.4</ele>
        <time>2019-05-12T08:05:04Z</time>
      </trkpt>
      <trkpt lat="39.1844790" lon="-1.4577800">
        <ele>552.4</ele>
        <time>2019-05-12T08:05:05Z</time>
      </trkpt>
      <trkpt lat="39.1844430" lon="-1.4578470">
        <ele>552.4</ele>
        <time>2019-05-12T08:05:06Z</time>
      </trkpt>
      <trkpt lat="39.1844080" lon="-1.4579150">
        <ele>552.4</ele>
        <time>2019-05-12T08:05:07Z</time>
      </trkpt>
      <trkpt lat="39.1843750" lon="-1.4579840">
        <ele>552.4</ele>
        <time>2019-05-12T08:05:08Z</time>
      </trkpt>
      <trkpt lat="39.1843440" lon="-1.4580530">
        <ele>552.6</ele>
        <time>2019-05-12T08:05:09Z</time>
      </trkpt>
      <trkpt lat="39.1843130" lon="-1.4581210">
        <ele>552.6</ele>
        <time>2019-05-12T08:05:10Z</time>
      </trkpt>
      <trkpt lat="39.1842800" lon="-1.4581900">
        <ele>552.8</ele>
        <time>2019-05-12T08:05:11Z</time>
      </trkpt>
      <trkpt lat="39.1842500" lon="-1.4582600">
        <ele>552.8</ele>
        <time>2019-05-12T08:05:12Z</time>
      </trkpt>
      <trkpt lat="39.1842200" lon="-1.4583310">
        <ele>552.8</ele>
        <time>2019-05-12T08:05:13Z</time>
      </trkpt>
      <trkpt lat="39.1841920" lon="-1.4584020">
        <ele>552.8</ele>
        <time>2019-05-12T08:05:14Z</time>
      </trkpt>
      <trkpt lat="39.1841670" lon="-1.4584760">
        <ele>553.0</ele>
        <time>2019-05-12T08:05:15Z</time>
      </trkpt>
      <trkpt lat="39.1841490" lon="-1.4585520">
        <ele>553.2</ele>
        <time>2019-05-12T08:05:16Z</time>
      </trkpt>
      <trkpt lat="39.1841380" lon="-1.4586300">
        <ele>553.2</ele>
        <time>2019-05-12T08:05:17Z</time>
      </trkpt>
      <trkpt lat="39.1841310" lon="-1.4587080">
        <ele>553.4</ele>
        <time>2019-05-12T08:05:18Z</time>
      </trkpt>
      <trkpt lat="39.1841220" lon="-1.4587860">
        <ele>553.4</ele>
        <time>2019-05-12T08:05:19Z</time>
      </trkpt>
      <trkpt lat="39.1841090" lon="-1.4588640">
        <ele>553.4</ele>
        <time>2019-05-12T08:05:20Z</time>
      </trkpt>
      <trkpt lat="39.1840890" lon="-1.4589400">
        <ele>553.6</ele>
        <time>2019-05-12T08:05:21Z</time>
      </trkpt>
      <trkpt lat="39.1840650" lon="-1.4590150">
        <ele>553.8</ele>
        <time>2019-05-12T08:05:22Z</time>
      </trkpt>
      <trkpt lat="39.1840400" lon="-1.4590900">
        <ele>553.8</ele>
        <time>2019-05-12T08:05:23Z</time>
      </trkpt>
      <trkpt lat="39.1840150" lon="-1.4591670">
        <ele>554.0</ele>
        <time>2019-05-12T08:05:24Z</time>
      </trkpt>
      <trkpt lat="39.1839930" lon="-1.4592450">
        <ele>554.0</ele>
        <time>2019-05-12T08:05:25Z</time>
      </trkpt>
      <trkpt lat="39.1839740" lon="-1.4593230">
        <ele>554.0</ele>
        <time>2019-05-12T08:05:26Z</time>
      </trkpt>
      <trkpt lat="39.1839580" lon="-1.4594040">
        <ele>554.4</ele>
        <time>2019-05-12T08:05:27Z</time>
      </trkpt>
      <trkpt lat="39.1839470" lon="-1.4594840">
        <ele>554.4</ele>
        <time>2019-05-12T08:05:28Z</time>
      </trkpt>
      <trkpt lat="39.1839440" lon="-1.4595660">
        <ele>554.4</ele>
        <time>2019-05-12T08:05:29Z</time>
      </trkpt>
      <trkpt lat="39.1839550" lon="-1.4596410">
        <ele>554.4</ele>
        <time>2019-05-12T08:05:30Z</time>
      </trkpt>
      <trkpt lat="39.1839810" lon="-1.4597020">
        <ele>554.4</ele>
        <time>2019-05-12T08:05:31Z</time>
      </trkpt>
      <trkpt lat="39.1840140" lon="-1.4597480">
        <ele>554.6</ele>
        <time>2019-05-12T08:05:32Z</time>
      </trkpt>
      <trkpt lat="39.1840510" lon="-1.4597860">
        <ele>554.6</ele>
        <time>2019-05-12T08:05:33Z</time>
      </trkpt>
      <trkpt lat="39.1840870" lon="-1.4598310">
        <ele>554.6</ele>
        <time>2019-05-12T08:05:34Z</time>
      </trkpt>
      <trkpt lat="39.1841180" lon="-1.4598860">
        <ele>554.6</ele>
        <time>2019-05-12T08:05:35Z</time>
      </trkpt>
      <trkpt lat="39.1841470" lon="-1.4599460">
        <ele>554.6</ele>
        <time>2019-05-12T08:05:36Z</time>
      </trkpt>
      <trkpt lat="39.1841770" lon="-1.4600030">
        <ele>554.6</ele>
        <time>2019-05-12T08:05:37Z</time>
      </trkpt>
      <trkpt lat="39.1842050" lon="-1.4600640">
        <ele>554.6</ele>
        <time>2019-05-12T08:05:38Z</time>
      </trkpt>
      <trkpt lat="39.1842360" lon="-1.4601230">
        <ele>554.8</ele>
        <time>2019-05-12T08:05:39Z</time>
      </trkpt>
      <trkpt lat="39.1842750" lon="-1.4601690">
        <ele>554.8</ele>
        <time>2019-05-12T08:05:40Z</time>
      </trkpt>
      <trkpt lat="39.1843190" lon="-1.4601940">
        <ele>555.0</ele>
        <time>2019-05-12T08:05:41Z</time>
      </trkpt>
      <trkpt lat="39.1843620" lon="-1.4601980">
        <ele>555.0</ele>
        <time>2019-05-12T08:05:42Z</time>
      </trkpt>
      <trkpt lat="39.1843990" lon="-1.4601910">
        <ele>555.2</ele>
        <time>2019-05-12T08:05:43Z</time>
      </trkpt>
      <trkpt lat="39.1844330" lon="-1.4601830">
        <ele>555.2</ele>
        <time>2019-05-12T08:05:44Z</time>
      </trkpt>
      <trkpt lat="39.1844670" lon="-1.4601780">
        <ele>555.2</ele>
        <time>2019-05-12T08:05:45Z</time>
      </trkpt>
      <trkpt lat="39.1845020" lon="-1.4601750">
        <ele>555.4</ele>
        <time>2019-05-12T08:05:46Z</time>
      </trkpt>
      <trkpt lat="39.1845340" lon="-1.4601720">
        <ele>555.4</ele>
        <time>2019-05-12T08:05:47Z</time>
      </trkpt>
      <trkpt lat="39.1845660" lon="-1.4601690">
        <ele>555.6</ele>
        <time>2019-05-12T08:05:48Z</time>
      </trkpt>
      <trkpt lat="39.1845960" lon="-1.4601760">
        <ele>555.6</ele>
        <time>2019-05-12T08:05:49Z</time>
      </trkpt>
      <trkpt lat="39.1846260" lon="-1.4601980">
        <ele>555.8</ele>
        <time>2019-05-12T08:05:50Z</time>
      </trkpt>
      <trkpt lat="39.1846490" lon="-1.4602350">
        <ele>555.8</ele>
        <time>2019-05-12T08:05:51Z</time>
      </trkpt>
      <trkpt lat="39.1846720" lon="-1.4602860">
        <ele>556.0</ele>
        <time>2019-05-12T08:05:52Z</time>
      </trkpt>
      <trkpt lat="39.1846960" lon="-1.4603390">
        <ele>556.0</ele>
        <time>2019-05-12T08:05:53Z</time>
      </trkpt>
      <trkpt lat="39.1847240" lon="-1.4603940">
        <ele>556.4</ele>
        <time>2019-05-12T08:05:54Z</time>
      </trkpt>
      <trkpt lat="39.1847540" lon="-1.4604510">
        <ele>556.6</ele>
        <time>2019-05-12T08:05:55Z</time>
      </trkpt>
      <trkpt lat="39.1847850" lon="-1.4605100">
        <ele>556.8</ele>
        <time>2019-05-12T08:05:56Z</time>
      </trkpt>
      <trkpt lat="39.1848150" lon="-1.4605700">
        <ele>557.0</ele>
        <time>2019-05-12T08:05:57Z</time>
      </trkpt>
      <trkpt lat="39.1848470" lon="-1.4606310">
        <ele>557.2</ele>
        <time>2019-05-12T08:05:58Z</time>
      </trkpt>
      <trkpt lat="39.1848780" lon="-1.4606910">
        <ele>557.4</ele>
        <time>2019-05-12T08:05:59Z</time>
      </trkpt>
      <trkpt lat="39.1849050" lon="-1.4607450">
        <ele>557.6</ele>
        <time>2019-05-12T08:06:00Z</time>
      </trkpt>
      <trkpt lat="39.1849180" lon="-1.4607940">
        <ele>557.6</ele>
        <time>2019-05-12T08:06:01Z</time>
      </trkpt>
      <trkpt lat="39.1849110" lon="-1.4608410">
        <ele>557.6</ele>
        <time>2019-05-12T08:06:02Z</time>
      </trkpt>
      <trkpt lat="39.1848970" lon="-1.4608870">
        <ele>557.6</ele>
        <time>2019-05-12T08:06:03Z</time>
      </trkpt>
      <trkpt lat="39.1848920" lon="-1.4609330">
        <ele>557.6</ele>
        <time>2019-05-12T08:06:04Z</time>
      </trkpt>
      <trkpt lat="39.1848980" lon="-1.4609790">
        <ele>557.6</ele>
        <time>2019-05-12T08:06:05Z</time>
      </trkpt>
      <trkpt lat="39.1849190" lon="-1.4610230">
        <ele>557.6</ele>
        <time>2019-05-12T08:06:06Z</time>
      </trkpt>
      <trkpt lat="39.1849400" lon="-1.4610650">
        <ele>557.6</ele>
        <time>2019-05-12T08:06:07Z</time>
      </trkpt>
      <trkpt lat="39.1849640" lon="-1.4611120">
        <ele>557.6</ele>
        <time>2019-05-12T08:06:08Z</time>
      </trkpt>
      <trkpt lat="39.1849950" lon="-1.4611580">
        <ele>557.6</ele>
        <time>2019-05-12T08:06:09Z</time>
      </trkpt>
      <trkpt lat="39.1850300" lon="-1.4612020">
        <ele>557.6</ele>
        <time>2019-05-12T08:06:10Z</time>
      </trkpt>
      <trkpt lat="39.1850630" lon="-1.4612500">
        <ele>557.8</ele>
        <time>2019-05-12T08:06:11Z</time>
      </trkpt>
      <trkpt lat="39.1850950" lon="-1.4613000">
        <ele>557.8</ele>
        <time>2019-05-12T08:06:12Z</time>
      </trkpt>
      <trkpt lat="39.1851320" lon="-1.4613470">
        <ele>557.8</ele>
        <time>2019-05-12T08:06:13Z</time>
      </trkpt>
      <trkpt lat="39.1851680" lon="-1.4613910">
        <ele>557.8</ele>
        <time>2019-05-12T08:06:14Z</time>
      </trkpt>
      <trkpt lat="39.1852030" lon="-1.4614380">
        <ele>557.8</ele>
        <time>2019-05-12T08:06:15Z</time>
      </trkpt>
      <trkpt lat="39.1852390" lon="-1.4614860">
        <ele>557.8</ele>
        <time>2019-05-12T08:06:16Z</time>
      </trkpt>
      <trkpt lat="39.1852760" lon="-1.4615270">
        <ele>557.8</ele>
        <time>2019-05-12T08:06:17Z</time>
      </trkpt>
      <trkpt lat="39.1853170" lon="-1.4615580">
        <ele>557.8</ele>
        <time>2019-05-12T08:06:18Z</time>
      </trkpt>
      <trkpt lat="39.1853620" lon="-1.4615810">
        <ele>557.8</ele>
        <time>2019-05-12T08:06:19Z</time>
      </trkpt>
      <trkpt lat="39.1854100" lon="-1.4616050">
        <ele>557.8</ele>
        <time>2019-05-12T08:06:20Z</time>
      </trkpt>
      <trkpt lat="39.1854580" lon="-1.4616340">
        <ele>557.8</ele>
        <time>2019-05-12T08:06:21Z</time>
      </trkpt>
      <trkpt lat="39.1855070" lon="-1.4616670">
        <ele>557.8</ele>
        <time>2019-05-12T08:06:22Z</time>
      </trkpt>
      <trkpt lat="39.1855560" lon="-1.4617020">
        <ele>558.0</ele>
        <time>2019-05-12T08:06:23Z</time>
      </trkpt>
      <trkpt lat="39.1856040" lon="-1.4617400">
        <ele>558.0</ele>
        <time>2019-05-12T08:06:24Z</time>
      </trkpt>
      <trkpt lat="39.1856500" lon="-1.4617790">
        <ele>558.0</ele>
        <time>2019-05-12T08:06:25Z</time>
      </trkpt>
      <trkpt lat="39.1856960" lon="-1.4618190">
        <ele>558.0</ele>
        <time>2019-05-12T08:06:26Z</time>
      </trkpt>
      <trkpt lat="39.1857400" lon="-1.4618610">
        <ele>558.0</ele>
        <time>2019-05-12T08:06:27Z</time>
      </trkpt>
      <trkpt lat="39.1857830" lon="-1.4619020">
        <ele>558.0</ele>
        <time>2019-05-12T08:06:28Z</time>
      </trkpt>
      <trkpt lat="39.1858250" lon="-1.4619400">
        <ele>558.2</ele>
        <time>2019-05-12T08:06:29Z</time>
      </trkpt>
      <trkpt lat="39.1858670" lon="-1.4619750">
        <ele>558.2</ele>
        <time>2019-05-12T08:06:30Z</time>
      </trkpt>
      <trkpt lat="39.1859080" lon="-1.4620150">
        <ele>558.2</ele>
        <time>2019-05-12T08:06:31Z</time>
      </trkpt>
      <trkpt lat="39.1859420" lon="-1.4620670">
        <ele>558.2</ele>
        <time>2019-05-12T08:06:32Z</time>
      </trkpt>
      <trkpt lat="39.1859600" lon="-1.4621300">
        <ele>558.4</ele>
        <time>2019-05-12T08:06:33Z</time>
      </trkpt>
      <trkpt lat="39.1859630" lon="-1.4621990">
        <ele>558.4</ele>
        <time>2019-05-12T08:06:34Z</time>
      </trkpt>
      <trkpt lat="39.1859610" lon="-1.4622690">
        <ele>558.4</ele>
        <time>2019-05-12T08:06:35Z</time>
      </trkpt>
      <trkpt lat="39.1859570" lon="-1.4623390">
        <ele>558.6</ele>
        <time>2019-05-12T08:06:36Z</time>
      </trkpt>
      <trkpt lat="39.1859470" lon="-1.4624060">
        <ele>558.6</ele>
        <time>2019-05-12T08:06:37Z</time>
      </trkpt>
      <trkpt lat="39.1859300" lon="-1.4624690">
        <ele>558.6</ele>
        <time>2019-05-12T08:06:38Z</time>
      </trkpt>
      <trkpt lat="39.1859080" lon="-1.4625290">
        <ele>558.6</ele>
        <time>2019-05-12T08:06:39Z</time>
      </trkpt>
      <trkpt lat="39.1858800" lon="-1.4625840">
        <ele>558.6</ele>
        <time>2019-05-12T08:06:40Z</time>
      </trkpt>
      <trkpt lat="39.1858500" lon="-1.4626360">
        <ele>558.8</ele>
        <time>2019-05-12T08:06:41Z</time>
      </trkpt>
      <trkpt lat="39.1858200" lon="-1.4626900">
        <ele>558.8</ele>
        <time>2019-05-12T08:06:42Z</time>
      </trkpt>
      <trkpt lat="39.1857930" lon="-1.4627460">
        <ele>558.8</ele>
        <time>2019-05-12T08:06:43Z</time>
      </trkpt>
      <trkpt lat="39.1857630" lon="-1.4627990">
        <ele>559.0</ele>
        <time>2019-05-12T08:06:44Z</time>
      </trkpt>
      <trkpt lat="39.1857240" lon="-1.4628470">
        <ele>559.2</ele>
        <time>2019-05-12T08:06:45Z</time>
      </trkpt>
      <trkpt lat="39.1856780" lon="-1.4628860">
        <ele>559.4</ele>
        <time>2019-05-12T08:06:46Z</time>
      </trkpt>
      <trkpt lat="39.1856250" lon="-1.4629120">
        <ele>559.4</ele>
        <time>2019-05-12T08:06:47Z</time>
      </trkpt>
      <trkpt lat="39.1855720" lon="-1.4629310">
        <ele>559.6</ele>
        <time>2019-05-12T08:06:48Z</time>
      </trkpt>
      <trkpt lat="39.1855190" lon="-1.4629450">
        <ele>559.8</ele>
        <time>2019-05-12T08:06:49Z</time>
      </trkpt>
      <trkpt lat="39.1854660" lon="-1.4629570">
        <ele>560.0</ele>
        <time>2019-05-12T08:06:50Z</time>
      </trkpt>
      <trkpt lat="39.1854160" lon="-1.4629690">
        <ele>560.0</ele>
        <time>2019-05-12T08:06:51Z</time>
      </trkpt>
      <trkpt lat="39.1853670" lon="-1.4629820">
        <ele>560.0</ele>
        <time>2019-05-12T08:06:52Z</time>
      </trkpt>
      <trkpt lat="39.1853200" lon="-1.4629970">
        <ele>560.2</ele>
        <time>2019-05-12T08:06:53Z</time>
      </trkpt>
      <trkpt lat="39.1852720" lon="-1.4630120">
        <ele>560.2</ele>
        <time>2019-05-12T08:06:54Z</time>
      </trkpt>
      <trkpt lat="39.1852230" lon="-1.4630300">
        <ele>560.2</ele>
        <time>2019-05-12T08:06:55Z</time>
      </trkpt>
      <trkpt lat="39.1851750" lon="-1.4630510">
        <ele>560.4</ele>
        <time>2019-05-12T08:06:56Z</time>
      </trkpt>
      <trkpt lat="39.1851270" lon="-1.4630730">
        <ele>560.4</ele>
        <time>2019-05-12T08:06:57Z</time>
      </trkpt>
      <trkpt lat="39.1850770" lon="-1.4630970">
        <ele>560.6</ele>
        <time>2019-05-12T08:06:58Z</time>
      </trkpt>
      <trkpt lat="39.1850270" lon="-1.4631230">
        <ele>560.8</ele>
        <time>2019-05-12T08:06:59Z</time>
      </trkpt>
      <trkpt lat="39.1849760" lon="-1.4631510">
        <ele>560.8</ele>
        <time>2019-05-12T08:07:00Z</time>
      </trkpt>
      <trkpt lat="39.1849240" lon="-1.4631770">
        <ele>561.0</ele>
        <time>2019-05-12T08:07:01Z</time>
      </trkpt>
      <trkpt lat="39.1848720" lon="-1.4632010">
        <ele>561.2</ele>
        <time>2019-05-12T08:07:02Z</time>
      </trkpt>
      <trkpt lat="39.1848220" lon="-1.4632300">
        <ele>561.4</ele>
        <time>2019-05-12T08:07:03Z</time>
      </trkpt>
      <trkpt lat="39.1847750" lon="-1.4632680">
        <ele>561.6</ele>
        <time>2019-05-12T08:07:04Z</time>
      </trkpt>
      <trkpt lat="39.1847290" lon="-1.4633140">
        <ele>561.8</ele>
        <time>2019-05-12T08:07:05Z</time>
      </trkpt>
      <trkpt lat="39.1846830" lon="-1.4633570">
        <ele>561.8</ele>
        <time>2019-05-12T08:07:06Z</time>
      </trkpt>
      <trkpt lat="39.1846360" lon="-1.4633990">
        <ele>562.0</ele>
        <time>2019-05-12T08:07:07Z</time>
      </trkpt>
      <trkpt lat="39.1845870" lon="-1.4634390">
        <ele>562.0</ele>
        <time>2019-05-12T08:07:08Z</time>
      </trkpt>
      <trkpt lat="39.1845380" lon="-1.4634800">
        <ele>562.0</ele>
        <time>2019-05-12T08:07:09Z</time>
      </trkpt>
      <trkpt lat="39.1844900" lon="-1.4635190">
        <ele>562.0</ele>
        <time>2019-05-12T08:07:10Z</time>
      </trkpt>
      <trkpt lat="39.1844420" lon="-1.4635550">
        <ele>562.0</ele>
        <time>2019-05-12T08:07:11Z</time>
      </trkpt>
      <trkpt lat="39.1843920" lon="-1.4635890">
        <ele>562.0</ele>
        <time>2019-05-12T08:07:12Z</time>
      </trkpt>
      <trkpt lat="39.1843410" lon="-1.4636210">
        <ele>562.2</ele>
        <time>2019-05-12T08:07:13Z</time>
      </trkpt>
      <trkpt lat="39.1842890" lon="-1.4636520">
        <ele>562.2</ele>
        <time>2019-05-12T08:07:14Z</time>
      </trkpt>
      <trkpt lat="39.1842390" lon="-1.4636820">
        <ele>562.2</ele>
        <time>2019-05-12T08:07:15Z</time>
      </trkpt>
      <trkpt lat="39.1841900" lon="-1.4637120">
        <ele>562.2</ele>
        <time>2019-05-12T08:07:16Z</time>
      </trkpt>
      <trkpt lat="39.1841410" lon="-1.4637460">
        <ele>562.4</ele>
        <time>2019-05-12T08:07:17Z</time>
      </trkpt>
      <trkpt lat="39.1840930" lon="-1.4637880">
        <ele>562.4</ele>
        <time>2019-05-12T08:07:18Z</time>
      </trkpt>
      <trkpt lat="39.1840470" lon="-1.4638330">
        <ele>562.4</ele>
        <time>2019-05-12T08:07:19Z</time>
      </trkpt>
      <trkpt lat="39.1840010" lon="-1.4638790">
        <ele>562.4</ele>
        <time>2019-05-12T08:07:20Z</time>
      </trkpt>
      <trkpt lat="39.1839540" lon="-1.4639220">
        <ele>562.4</ele>
        <time>2019-05-12T08:07:21Z</time>
      </trkpt>
      <trkpt lat="39.1839050" lon="-1.4639610">
        <ele>562.6</ele>
        <time>2019-05-12T08:07:22Z</time>
      </trkpt>
      <trkpt lat="39.1838540" lon="-1.4640010">
        <ele>562.6</ele>
        <time>2019-05-12T08:07:23Z</time>
      </trkpt>
      <trkpt lat="39.1838020" lon="-1.4640430">
        <ele>562.8</ele>
        <time>2019-05-12T08:07:24Z</time>
      </trkpt>
      <trkpt lat="39.1837500" lon="-1.4640860">
        <ele>562.8</ele>
        <time>2019-05-12T08:07:25Z</time>
      </trkpt>
      <trkpt lat="39.1836990" lon="-1.4641280">
        <ele>563.0</ele>
        <time>2019-05-12T08:07:26Z</time>
      </trkpt>
      <trkpt lat="39.1836510" lon="-1.4641700">
        <ele>563.0</ele>
        <time>2019-05-12T08:07:27Z</time>
      </trkpt>
      <trkpt lat="39.1836050" lon="-1.4642140">
        <ele>563.0</ele>
        <time>2019-05-12T08:07:28Z</time>
      </trkpt>
      <trkpt lat="39.1835570" lon="-1.4642580">
        <ele>563.0</ele>
        <time>2019-05-12T08:07:29Z</time>
      </trkpt>
      <trkpt lat="39.1835090" lon="-1.4643030">
        <ele>563.2</ele>
        <time>2019-05-12T08:07:30Z</time>
      </trkpt>
      <trkpt lat="39.1834600" lon="-1.4643510">
        <ele>563.2</ele>
        <time>2019-05-12T08:07:31Z</time>
      </trkpt>
      <trkpt lat="39.1834090" lon="-1.4644020">
        <ele>563.2</ele>
        <time>2019-05-12T08:07:32Z</time>
      </trkpt>
      <trkpt lat="39.1833560" lon="-1.4644520">
        <ele>563.4</ele>
        <time>2019-05-12T08:07:33Z</time>
      </trkpt>
      <trkpt lat="39.1833040" lon="-1.4644990">
        <ele>563.4</ele>
        <time>2019-05-12T08:07:34Z</time>
      </trkpt>
      <trkpt lat="39.1832520" lon="-1.4645450">
        <ele>563.6</ele>
        <time>2019-05-12T08:07:35Z</time>
      </trkpt>
      <trkpt lat="39.1832010" lon="-1.4645910">
        <ele>563.6</ele>
        <time>2019-05-12T08:07:36Z</time>
      </trkpt>
      <trkpt lat="39.1831520" lon="-1.4646420">
        <ele>563.8</ele>
        <time>2019-05-12T08:07:37Z</time>
      </trkpt>
      <trkpt lat="39.1831040" lon="-1.4646940">
        <ele>563.8</ele>
        <time>2019-05-12T08:07:38Z</time>
      </trkpt>
      <trkpt lat="39.1830550" lon="-1.4647430">
        <ele>563.8</ele>
        <time>2019-05-12T08:07:39Z</time>
      </trkpt>
      <trkpt lat="39.1830050" lon="-1.4647920">
        <ele>564.2</ele>
        <time>2019-05-12T08:07:40Z</time>
      </trkpt>
      <trkpt lat="39.1829560" lon="-1.4648400">
        <ele>564.4</ele>
        <time>2019-05-12T08:07:41Z</time>
      </trkpt>
      <trkpt lat="39.1829070" lon="-1.4648870">
        <ele>564.6</ele>
        <time>2019-05-12T08:07:42Z</time>
      </trkpt>
      <trkpt lat="39.1828600" lon="-1.4649350">
        <ele>564.8</ele>
        <time>2019-05-12T08:07:43Z</time>
      </trkpt>
      <trkpt lat="39.1828120" lon="-1.4649840">
        <ele>564.8</ele>
        <time>2019-05-12T08:07:44Z</time>
      </trkpt>
      <trkpt lat="39.1827650" lon="-1.4650330">
        <ele>565.0</ele>
        <time>2019-05-12T08:07:45Z</time>
      </trkpt>
      <trkpt lat="39.1827170" lon="-1.4650810">
        <ele>565.2</ele>
        <time>2019-05-12T08:07:46Z</time>
      </trkpt>
      <trkpt lat="39.1826690" lon="-1.4651290">
        <ele>565.2</ele>
        <time>2019-05-12T08:07:47Z</time>
      </trkpt>
      <trkpt lat="39.1826210" lon="-1.4651780">
        <ele>565.4</ele>
        <time>2019-05-12T08:07:48Z</time>
      </trkpt>
      <trkpt lat="39.1825730" lon="-1.4652270">
        <ele>565.6</ele>
        <time>2019-05-12T08:07:49Z</time>
      </trkpt>
      <trkpt lat="39.1825230" lon="-1.4652750">
        <ele>565.8</ele>
        <time>2019-05-12T08:07:50Z</time>
      </trkpt>
      <trkpt lat="39.1824720" lon="-1.4653200">
        <ele>566.0</ele>
        <time>2019-05-12T08:07:51Z</time>
      </trkpt>
      <trkpt lat="39.1824220" lon="-1.4653680">
        <ele>566.0</ele>
        <time>2019-05-12T08:07:52Z</time>
      </trkpt>
      <trkpt lat="39.1823740" lon="-1.4654190">
        <ele>566.0</ele>
        <time>2019-05-12T08:07:53Z</time>
      </trkpt>
      <trkpt lat="39.1823330" lon="-1.4654750">
        <ele>566.0</ele>
        <time>2019-05-12T08:07:54Z</time>
      </trkpt>
      <trkpt lat="39.1822980" lon="-1.4655390">
        <ele>566.2</ele>
        <time>2019-05-12T08:07:55Z</time>
      </trkpt>
      <trkpt lat="39.1822680" lon="-1.4656060">
        <ele>566.2</ele>
        <time>2019-05-12T08:07:56Z</time>
      </trkpt>
      <trkpt lat="39.1822430" lon="-1.4656760">
        <ele>566.2</ele>
        <time>2019-05-12T08:07:57Z</time>
      </trkpt>
      <trkpt lat="39.1822240" lon="-1.4657500">
        <ele>566.4</ele>
        <time>2019-05-12T08:07:58Z</time>
      </trkpt>
      <trkpt lat="39.1822060" lon="-1.4658250">
        <ele>566.4</ele>
        <time>2019-05-12T08:07:59Z</time>
      </trkpt>
      <trkpt lat="39.1821900" lon="-1.4659020">
        <ele>566.4</ele>
        <time>2019-05-12T08:08:00Z</time>
      </trkpt>
      <trkpt lat="39.1821720" lon="-1.4659810">
        <ele>566.4</ele>
        <time>2019-05-12T08:08:01Z</time>
      </trkpt>
      <trkpt lat="39.1821480" lon="-1.4660570">
        <ele>566.6</ele>
        <time>2019-05-12T08:08:02Z</time>
      </trkpt>
      <trkpt lat="39.1821210" lon="-1.4661290">
        <ele>566.6</ele>
        <time>2019-05-12T08:08:03Z</time>
      </trkpt>
      <trkpt lat="39.1821000" lon="-1.4662020">
        <ele>566.6</ele>
        <time>2019-05-12T08:08:04Z</time>
      </trkpt>
      <trkpt lat="39.1820820" lon="-1.4662750">
        <ele>566.6</ele>
        <time>2019-05-12T08:08:05Z</time>
      </trkpt>
      <trkpt lat="39.1820650" lon="-1.4663480">
        <ele>566.8</ele>
        <time>2019-05-12T08:08:06Z</time>
      </trkpt>
      <trkpt lat="39.1820460" lon="-1.4664190">
        <ele>566.8</ele>
        <time>2019-05-12T08:08:07Z</time>
      </trkpt>
      <trkpt lat="39.1820270" lon="-1.4664920">
        <ele>566.8</ele>
        <time>2019-05-12T08:08:08Z</time>
      </trkpt>
      <trkpt lat="39.1820120" lon="-1.4665680">
        <ele>566.8</ele>
        <time>2019-05-12T08:08:09Z</time>
      </trkpt>
      <trkpt lat="39.1820010" lon="-1.4666470">
        <ele>566.8</ele>
        <time>2019-05-12T08:08:10Z</time>
      </trkpt>
      <trkpt lat="39.1819950" lon="-1.4667260">
        <ele>566.8</ele>
        <time>2019-05-12T08:08:11Z</time>
      </trkpt>
      <trkpt lat="39.1819950" lon="-1.4668040">
        <ele>567.0</ele>
        <time>2019-05-12T08:08:12Z</time>
      </trkpt>
      <trkpt lat="39.1819980" lon="-1.4668800">
        <ele>567.0</ele>
        <time>2019-05-12T08:08:13Z</time>
      </trkpt>
      <trkpt lat="39.1820050" lon="-1.4669570">
        <ele>567.2</ele>
        <time>2019-05-12T08:08:14Z</time>
      </trkpt>
      <trkpt lat="39.1820160" lon="-1.4670340">
        <ele>567.2</ele>
        <time>2019-05-12T08:08:15Z</time>
      </trkpt>
      <trkpt lat="39.1820290" lon="-1.4671090">
        <ele>567.4</ele>
        <time>2019-05-12T08:08:16Z</time>
      </trkpt>
      <trkpt lat="39.1820420" lon="-1.4671850">
        <ele>567.6</ele>
        <time>2019-05-12T08:08:17Z</time>
      </trkpt>
      <trkpt lat="39.1820560" lon="-1.4672600">
        <ele>567.6</ele>
        <time>2019-05-12T08:08:18Z</time>
      </trkpt>
      <trkpt lat="39.1820730" lon="-1.4673330">
        <ele>567.6</ele>
        <time>2019-05-12T08:08:19Z</time>
      </trkpt>
      <trkpt lat="39.1820920" lon="-1.4674050">
        <ele>567.8</ele>
        <time>2019-05-12T08:08:20Z</time>
      </trkpt>
      <trkpt lat="39.1821130" lon="-1.4674780">
        <ele>567.8</ele>
        <time>2019-05-12T08:08:21Z</time>
      </trkpt>
      <trkpt lat="39.1821340" lon="-1.4675510">
        <ele>568.0</ele>
        <time>2019-05-12T08:08:22Z</time>
      </trkpt>
      <trkpt lat="39.1821550" lon="-1.4676250">
        <ele>568.0</ele>
        <time>2019-05-12T08:08:23Z</time>
      </trkpt>
      <trkpt lat="39.1821770" lon="-1.4676990">
        <ele>568.2</ele>
        <time>2019-05-12T08:08:24Z</time>
      </trkpt>
      <trkpt lat="39.1822010" lon="-1.4677710">
        <ele>568.2</ele>
        <time>2019-05-12T08:08:25Z</time>
      </trkpt>
      <trkpt lat="39.1822270" lon="-1.4678410">
        <ele>568.6</ele>
        <time>2019-05-12T08:08:26Z</time>
      </trkpt>
      <trkpt lat="39.1822530" lon="-1.4679120">
        <ele>568.6</ele>
        <time>2019-05-12T08:08:27Z</time>
      </trkpt>
      <trkpt lat="39.1822790" lon="-1.4679850">
        <ele>568.8</ele>
        <time>2019-05-12T08:08:28Z</time>
      </trkpt>
      <trkpt lat="39.1823030" lon="-1.4680600">
        <ele>568.8</ele>
        <time>2019-05-12T08:08:29Z</time>
      </trkpt>
      <trkpt lat="39.1823170" lon="-1.4681420">
        <ele>568.8</ele>
        <time>2019-05-12T08:08:30Z</time>
      </trkpt>
      <trkpt lat="39.1823240" lon="-1.4682250">
        <ele>569.0</ele>
        <time>2019-05-12T08:08:31Z</time>
      </trkpt>
      <trkpt lat="39.1823280" lon="-1.4683080">
        <ele>569.0</ele>
        <time>2019-05-12T08:08:32Z</time>
      </trkpt>
      <trkpt lat="39.1823270" lon="-1.4683900">
        <ele>569.2</ele>
        <time>2019-05-12T08:08:33Z</time>
      </trkpt>
      <trkpt lat="39.1823210" lon="-1.4684720">
        <ele>569.2</ele>
        <time>2019-05-12T08:08:34Z</time>
      </trkpt>
      <trkpt lat="39.1823100" lon="-1.4685530">
        <ele>569.4</ele>
        <time>2019-05-12T08:08:35Z</time>
      </trkpt>
      <trkpt lat="39.1822940" lon="-1.4686330">
        <ele>569.4</ele>
        <time>2019-05-12T08:08:36Z</time>
      </trkpt>
      <trkpt lat="39.1822720" lon="-1.4687100">
        <ele>569.4</ele>
        <time>2019-05-12T08:08:37Z</time>
      </trkpt>
      <trkpt lat="39.1822470" lon="-1.4687840">
        <ele>569.4</ele>
        <time>2019-05-12T08:08:38Z</time>
      </trkpt>
      <trkpt lat="39.1822210" lon="-1.4688570">
        <ele>569.6</ele>
        <time>2019-05-12T08:08:39Z</time>
      </trkpt>
      <trkpt lat="39.1821950" lon="-1.4689300">
        <ele>569.8</ele>
        <time>2019-05-12T08:08:40Z</time>
      </trkpt>
      <trkpt lat="39.1821680" lon="-1.4690020">
        <ele>569.8</ele>
        <time>2019-05-12T08:08:41Z</time>
      </trkpt>
      <trkpt lat="39.1821390" lon="-1.4690700">
        <ele>569.8</ele>
        <time>2019-05-12T08:08:42Z</time>
      </trkpt>
      <trkpt lat="39.1821100" lon="-1.4691370">
        <ele>569.8</ele>
        <time>2019-05-12T08:08:43Z</time>
      </trkpt>
      <trkpt lat="39.1820810" lon="-1.4692000">
        <ele>569.8</ele>
        <time>2019-05-12T08:08:44Z</time>
      </trkpt>
      <trkpt lat="39.1820500" lon="-1.4692580">
        <ele>569.8</ele>
        <time>2019-05-12T08:08:45Z</time>
      </trkpt>
      <trkpt lat="39.1820120" lon="-1.4693120">
        <ele>569.8</ele>
        <time>2019-05-12T08:08:46Z</time>
      </trkpt>
      <trkpt lat="39.1819730" lon="-1.4693640">
        <ele>570.0</ele>
        <time>2019-05-12T08:08:47Z</time>
      </trkpt>
      <trkpt lat="39.1819320" lon="-1.4694160">
        <ele>570.0</ele>
        <time>2019-05-12T08:08:48Z</time>
      </trkpt>
      <trkpt lat="39.1818900" lon="-1.4694680">
        <ele>570.0</ele>
        <time>2019-05-12T08:08:49Z</time>
      </trkpt>
      <trkpt lat="39.1818470" lon="-1.4695190">
        <ele>570.2</ele>
        <time>2019-05-12T08:08:50Z</time>
      </trkpt>
      <trkpt lat="39.1817990" lon="-1.4695630">
        <ele>570.2</ele>
        <time>2019-05-12T08:08:51Z</time>
      </trkpt>
      <trkpt lat="39.1817490" lon="-1.4696010">
        <ele>570.6</ele>
        <time>2019-05-12T08:08:52Z</time>
      </trkpt>
      <trkpt lat="39.1817000" lon="-1.4696390">
        <ele>570.8</ele>
        <time>2019-05-12T08:08:53Z</time>
      </trkpt>
      <trkpt lat="39.1816510" lon="-1.4696760">
        <ele>571.2</ele>
        <time>2019-05-12T08:08:54Z</time>
      </trkpt>
      <trkpt lat="39.1816040" lon="-1.4697140">
        <ele>571.2</ele>
        <time>2019-05-12T08:08:55Z</time>
      </trkpt>
      <trkpt lat="39.1815600" lon="-1.4697570">
        <ele>571.4</ele>
        <time>2019-05-12T08:08:56Z</time>
      </trkpt>
      <trkpt lat="39.1815150" lon="-1.4698030">
        <ele>571.4</ele>
        <time>2019-05-12T08:08:57Z</time>
      </trkpt>
      <trkpt lat="39.1814660" lon="-1.4698430">
        <ele>571.6</ele>
        <time>2019-05-12T08:08:58Z</time>
      </trkpt>
      <trkpt lat="39.1814150" lon="-1.4698760">
        <ele>571.6</ele>
        <time>2019-05-12T08:08:59Z</time>
      </trkpt>
      <trkpt lat="39.1813630" lon="-1.4699050">
        <ele>571.8</ele>
        <time>2019-05-12T08:09:00Z</time>
      </trkpt>
      <trkpt lat="39.1813090" lon="-1.4699330">
        <ele>572.0</ele>
        <time>2019-05-12T08:09:01Z</time>
      </trkpt>
      <trkpt lat="39.1812540" lon="-1.4699570">
        <ele>572.0</ele>
        <time>2019-05-12T08:09:02Z</time>
      </trkpt>
      <trkpt lat="39.1811970" lon="-1.4699760">
        <ele>572.2</ele>
        <time>2019-05-12T08:09:03Z</time>
      </trkpt>
      <trkpt lat="39.1811390" lon="-1.4699860">
        <ele>572.2</ele>
        <time>2019-05-12T08:09:04Z</time>
      </trkpt>
      <trkpt lat="39.1810810" lon="-1.4699870">
        <ele>572.2</ele>
        <time>2019-05-12T08:09:05Z</time>
      </trkpt>
      <trkpt lat="39.1810240" lon="-1.4699750">
        <ele>572.2</ele>
        <time>2019-05-12T08:09:06Z</time>
      </trkpt>
      <trkpt lat="39.1809740" lon="-1.4699430">
        <ele>572.4</ele>
        <time>2019-05-12T08:09:07Z</time>
      </trkpt>
      <trkpt lat="39.1809300" lon="-1.4698980">
        <ele>572.4</ele>
        <time>2019-05-12T08:09:08Z</time>
      </trkpt>
      <trkpt lat="39.1808870" lon="-1.4698520">
        <ele>572.4</ele>
        <time>2019-05-12T08:09:09Z</time>
      </trkpt>
      <trkpt lat="39.1808450" lon="-1.4698050">
        <ele>572.4</ele>
        <time>2019-05-12T08:09:10Z</time>
      </trkpt>
      <trkpt lat="39.1808030" lon="-1.4697570">
        <ele>572.6</ele>
        <time>2019-05-12T08:09:11Z</time>
      </trkpt>
      <trkpt lat="39.1807620" lon="-1.4697060">
        <ele>572.6</ele>
        <time>2019-05-12T08:09:12Z</time>
      </trkpt>
      <trkpt lat="39.1807240" lon="-1.4696510">
        <ele>572.8</ele>
        <time>2019-05-12T08:09:13Z</time>
      </trkpt>
      <trkpt lat="39.1806860" lon="-1.4695930">
        <ele>572.8</ele>
        <time>2019-05-12T08:09:14Z</time>
      </trkpt>
      <trkpt lat="39.1806510" lon="-1.4695300">
        <ele>572.8</ele>
        <time>2019-05-12T08:09:15Z</time>
      </trkpt>
      <trkpt lat="39.1806220" lon="-1.4694610">
        <ele>573.0</ele>
        <time>2019-05-12T08:09:16Z</time>
      </trkpt>
      <trkpt lat="39.1806050" lon="-1.4693860">
        <ele>573.2</ele>
        <time>2019-05-12T08:09:17Z</time>
      </trkpt>
      <trkpt lat="39.1805980" lon="-1.4693080">
        <ele>573.6</ele>
        <time>2019-05-12T08:09:18Z</time>
      </trkpt>
      <trkpt lat="39.1805940" lon="-1.4692300">
        <ele>573.6</ele>
        <time>2019-05-12T08:09:19Z</time>
      </trkpt>
      <trkpt lat="39.1805890" lon="-1.4691530">
        <ele>573.8</ele>
        <time>2019-05-12T08:09:20Z</time>
      </trkpt>
      <trkpt lat="39.1805810" lon="-1.4690780">
        <ele>573.8</ele>
        <time>2019-05-12T08:09:21Z</time>
      </trkpt>
      <trkpt lat="39.1805710" lon="-1.4690030">
        <ele>574.0</ele>
        <time>2019-05-12T08:09:22Z</time>
      </trkpt>
      <trkpt lat="39.1805600" lon="-1.4689290">
        <ele>574.0</ele>
        <time>2019-05-12T08:09:23Z</time>
      </trkpt>
      <trkpt lat="39.1805480" lon="-1.4688560">
        <ele>574.0</ele>
        <time>2019-05-12T08:09:24Z</time>
      </trkpt>
      <trkpt lat="39.1805350" lon="-1.4687840">
        <ele>574.0</ele>
        <time>2019-05-12T08:09:25Z</time>
      </trkpt>
      <trkpt lat="39.1805210" lon="-1.4687110">
        <ele>574.0</ele>
        <time>2019-05-12T08:09:26Z</time>
      </trkpt>
      <trkpt lat="39.1805060" lon="-1.4686390">
        <ele>574.0</ele>
        <time>2019-05-12T08:09:27Z</time>
      </trkpt>
      <trkpt lat="39.1804900" lon="-1.4685660">
        <ele>574.2</ele>
        <time>2019-05-12T08:09:28Z</time>
      </trkpt>
      <trkpt lat="39.1804760" lon="-1.4684930">
        <ele>574.2</ele>
        <time>2019-05-12T08:09:29Z</time>
      </trkpt>
      <trkpt lat="39.1804630" lon="-1.4684190">
        <ele>574.2</ele>
        <time>2019-05-12T08:09:30Z</time>
      </trkpt>
      <trkpt lat="39.1804520" lon="-1.4683440">
        <ele>574.2</ele>
        <time>2019-05-12T08:09:31Z</time>
      </trkpt>
      <trkpt lat="39.1804440" lon="-1.4682680">
        <ele>574.2</ele>
        <time>2019-05-12T08:09:32Z</time>
      </trkpt>
      <trkpt lat="39.1804380" lon="-1.4681910">
        <ele>574.2</ele>
        <time>2019-05-12T08:09:33Z</time>
      </trkpt>
      <trkpt lat="39.1804350" lon="-1.4681140">
        <ele>574.4</ele>
        <time>2019-05-12T08:09:34Z</time>
      </trkpt>
      <trkpt lat="39.1804330" lon="-1.4680380">
        <ele>574.4</ele>
        <time>2019-05-12T08:09:35Z</time>
      </trkpt>
      <trkpt lat="39.1804320" lon="-1.4679610">
        <ele>574.4</ele>
        <time>2019-05-12T08:09:36Z</time>
      </trkpt>
      <trkpt lat="39.1804310" lon="-1.4678850">
        <ele>574.6</ele>
        <time>2019-05-12T08:09:37Z</time>
      </trkpt>
      <trkpt lat="39.1804280" lon="-1.4678090">
        <ele>574.6</ele>
        <time>2019-05-12T08:09:38Z</time>
      </trkpt>
      <trkpt lat="39.1804210" lon="-1.4677310">
        <ele>574.8</ele>
        <time>2019-05-12T08:09:39Z</time>
      </trkpt>
      <trkpt lat="39.1804100" lon="-1.4676550">
        <ele>574.8</ele>
        <time>2019-05-12T08:09:40Z</time>
      </trkpt>
      <trkpt lat="39.1804000" lon="-1.4675810">
        <ele>575.0</ele>
        <time>2019-05-12T08:09:41Z</time>
      </trkpt>
      <trkpt lat="39.1803890" lon="-1.4675060">
        <ele>575.0</ele>
        <time>2019-05-12T08:09:42Z</time>
      </trkpt>
      <trkpt lat="39.1803770" lon="-1.4674320">
        <ele>575.2</ele>
        <time>2019-05-12T08:09:43Z</time>
      </trkpt>
      <trkpt lat="39.1803630" lon="-1.4673570">
        <ele>575.2</ele>
        <time>2019-05-12T08:09:44Z</time>
      </trkpt>
      <trkpt lat="39.1803480" lon="-1.4672840">
        <ele>575.4</ele>
        <time>2019-05-12T08:09:45Z</time>
      </trkpt>
      <trkpt lat="39.1803340" lon="-1.4672100">
        <ele>575.6</ele>
        <time>2019-05-12T08:09:46Z</time>
      </trkpt>
      <trkpt lat="39.1803210" lon="-1.4671370">
        <ele>575.6</ele>
        <time>2019-05-12T08:09:47Z</time>
      </trkpt>
      <trkpt lat="39.1803060" lon="-1.4670650">
        <ele>575.6</ele>
        <time>2019-05-12T08:09:48Z</time>
      </trkpt>
      <trkpt lat="39.1802920" lon="-1.4669910">
        <ele>576.0</ele>
        <time>2019-05-12T08:09:49Z</time>
      </trkpt>
      <trkpt lat="39.1802820" lon="-1.4669150">
        <ele>576.0</ele>
        <time>2019-05-12T08:09:50Z</time>
      </trkpt>
      <trkpt lat="39.1802770" lon="-1.4668380">
        <ele>576.0</ele>
        <time>2019-05-12T08:09:51Z</time>
      </trkpt>
      <trkpt lat="39.1802770" lon="-1.4667600">
        <ele>576.2</ele>
        <time>2019-05-12T08:09:52Z</time>
      </trkpt>
      <trkpt lat="39.1802810" lon="-1.4666820">
        <ele>576.2</ele>
        <time>2019-05-12T08:09:53Z</time>
      </trkpt>
      <trkpt lat="39.1802820" lon="-1.4666060">
        <ele>576.4</ele>
        <time>2019-05-12T08:09:54Z</time>
      </trkpt>
      <trkpt lat="39.1802800" lon="-1.4665290">
        <ele>576.4</ele>
        <time>2019-05-12T08:09:55Z</time>
      </trkpt>
      <trkpt lat="39.1802810" lon="-1.4664530">
        <ele>576.6</ele>
        <time>2019-05-12T08:09:56Z</time>
      </trkpt>
      <trkpt lat="39.1802830" lon="-1.4663760">
        <ele>576.6</ele>
        <time>2019-05-12T08:09:57Z</time>
      </trkpt>
      <trkpt lat="39.1802860" lon="-1.4662990">
        <ele>576.8</ele>
        <time>2019-05-12T08:09:58Z</time>
      </trkpt>
      <trkpt lat="39.1802880" lon="-1.4662220">
        <ele>576.8</ele>
        <time>2019-05-12T08:09:59Z</time>
      </trkpt>
      <trkpt lat="39.1802890" lon="-1.4661480">
        <ele>576.8</ele>
        <time>2019-05-12T08:10:00Z</time>
      </trkpt>
      <trkpt lat="39.1802890" lon="-1.4660730">
        <ele>576.8</ele>
        <time>2019-05-12T08:10:01Z</time>
      </trkpt>
      <trkpt lat="39.1802920" lon="-1.4659990">
        <ele>576.8</ele>
        <time>2019-05-12T08:10:02Z</time>
      </trkpt>
      <trkpt lat="39.1802980" lon="-1.4659260">
        <ele>577.0</ele>
        <time>2019-05-12T08:10:03Z</time>
      </trkpt>
      <trkpt lat="39.1803050" lon="-1.4658530">
        <ele>577.0</ele>
        <time>2019-05-12T08:10:04Z</time>
      </trkpt>
      <trkpt lat="39.1803120" lon="-1.4657800">
        <ele>577.0</ele>
        <time>2019-05-12T08:10:05Z</time>
      </trkpt>
      <trkpt lat="39.1803160" lon="-1.4657090">
        <ele>577.0</ele>
        <time>2019-05-12T08:10:06Z</time>
      </trkpt>
      <trkpt lat="39.1803170" lon="-1.4656380">
        <ele>577.2</ele>
        <time>2019-05-12T08:10:07Z</time>
      </trkpt>
      <trkpt lat="39.1803170" lon="-1.4655670">
        <ele>577.2</ele>
        <time>2019-05-12T08:10:08Z</time>
      </trkpt>
      <trkpt lat="39.1803160" lon="-1.4654990">
        <ele>577.2</ele>
        <time>2019-05-12T08:10:09Z</time>
      </trkpt>
      <trkpt lat="39.1803150" lon="-1.4654310">
        <ele>577.4</ele>
        <time>2019-05-12T08:10:10Z</time>
      </trkpt>
      <trkpt lat="39.1803100" lon="-1.4653630">
        <ele>577.4</ele>
        <time>2019-05-12T08:10:11Z</time>
      </trkpt>
      <trkpt lat="39.1803060" lon="-1.4652950">
        <ele>577.4</ele>
        <time>2019-05-12T08:10:12Z</time>
      </trkpt>
      <trkpt lat="39.1803010" lon="-1.4652280">
        <ele>577.4</ele>
        <time>2019-05-12T08:10:13Z</time>
      </trkpt>
      <trkpt lat="39.1802950" lon="-1.4651600">
        <ele>577.4</ele>
        <time>2019-05-12T08:10:14Z</time>
      </trkpt>
      <trkpt lat="39.1802890" lon="-1.4650900">
        <ele>577.4</ele>
        <time>2019-05-12T08:10:15Z</time>
      </trkpt>
      <trkpt lat="39.1802860" lon="-1.4650190">
        <ele>577.6</ele>
        <time>2019-05-12T08:10:16Z</time>
      </trkpt>
      <trkpt lat="39.1802850" lon="-1.4649480">
        <ele>577.8</ele>
        <time>2019-05-12T08:10:17Z</time>
      </trkpt>
      <trkpt lat="39.1802880" lon="-1.4648770">
        <ele>577.8</ele>
        <time>2019-05-12T08:10:18Z</time>
      </trkpt>
      <trkpt lat="39.1802970" lon="-1.4648080">
        <ele>577.8</ele>
        <time>2019-05-12T08:10:19Z</time>
      </trkpt>
      <trkpt lat="39.1803120" lon="-1.4647400">
        <ele>578.0</ele>
        <time>2019-05-12T08:10:20Z</time>
      </trkpt>
      <trkpt lat="39.1803290" lon="-1.4646730">
        <ele>578.0</ele>
        <time>2019-05-12T08:10:21Z</time>
      </trkpt>
      <trkpt lat="39.1803480" lon="-1.4646050">
        <ele>578.0</ele>
        <time>2019-05-12T08:10:22Z</time>
      </trkpt>
      <trkpt lat="39.1803650" lon="-1.4645390">
        <ele>578.0</ele>
        <time>2019-05-12T08:10:23Z</time>
      </trkpt>
      <trkpt lat="39.1803840" lon="-1.4644740">
        <ele>578.0</ele>
        <time>2019-05-12T08:10:24Z</time>
      </trkpt>
      <trkpt lat="39.1804010" lon="-1.4644080">
        <ele>578.0</ele>
        <time>2019-05-12T08:10:25Z</time>
      </trkpt>
      <trkpt lat="39.1804190" lon="-1.4643410">
        <ele>578.2</ele>
        <time>2019-05-12T08:10:26Z</time>
      </trkpt>
      <trkpt lat="39.1804390" lon="-1.4642760">
        <ele>578.2</ele>
        <time>2019-05-12T08:10:27Z</time>
      </trkpt>
      <trkpt lat="39.1804600" lon="-1.4642100">
        <ele>578.2</ele>
        <time>2019-05-12T08:10:28Z</time>
      </trkpt>
      <trkpt lat="39.1804740" lon="-1.4641390">
        <ele>578.4</ele>
        <time>2019-05-12T08:10:29Z</time>
      </trkpt>
      <trkpt lat="39.1804820" lon="-1.4640710">
        <ele>578.4</ele>
        <time>2019-05-12T08:10:30Z</time>
      </trkpt>
      <trkpt lat="39.1804920" lon="-1.4640100">
        <ele>578.4</ele>
        <time>2019-05-12T08:10:31Z</time>
      </trkpt>
      <trkpt lat="39.1805020" lon="-1.4639550">
        <ele>578.4</ele>
        <time>2019-05-12T08:10:32Z</time>
      </trkpt>
      <trkpt lat="39.1805040" lon="-1.4639020">
        <ele>578.4</ele>
        <time>2019-05-12T08:10:33Z</time>
      </trkpt>
      <trkpt lat="39.1804930" lon="-1.4638560">
        <ele>578.4</ele>
        <time>2019-05-12T08:10:34Z</time>
      </trkpt>
      <trkpt lat="39.1804760" lon="-1.4638120">
        <ele>578.4</ele>
        <time>2019-05-12T08:10:35Z</time>
      </trkpt>
      <trkpt lat="39.1804590" lon="-1.4637670">
        <ele>578.6</ele>
        <time>2019-05-12T08:10:36Z</time>
      </trkpt>
      <trkpt lat="39.1804440" lon="-1.4637170">
        <ele>578.6</ele>
        <time>2019-05-12T08:10:37Z</time>
      </trkpt>
      <trkpt lat="39.1804290" lon="-1.4636700">
        <ele>578.6</ele>
        <time>2019-05-12T08:10:38Z</time>
      </trkpt>
      <trkpt lat="39.1804130" lon="-1.4636240">
        <ele>578.8</ele>
        <time>2019-05-12T08:10:39Z</time>
      </trkpt>
      <trkpt lat="39.1803930" lon="-1.4635800">
        <ele>579.0</ele>
        <time>2019-05-12T08:10:40Z</time>
      </trkpt>
      <trkpt lat="39.1803710" lon="-1.4635390">
        <ele>579.2</ele>
        <time>2019-05-12T08:10:41Z</time>
      </trkpt>
      <trkpt lat="39.1803520" lon="-1.4634950">
        <ele>579.4</ele>
        <time>2019-05-12T08:10:42Z</time>
      </trkpt>
      <trkpt lat="39.1803380" lon="-1.4634460">
        <ele>579.6</ele>
        <time>2019-05-12T08:10:43Z</time>
      </trkpt>
      <trkpt lat="39.1803260" lon="-1.4633930">
        <ele>579.6</ele>
        <time>2019-05-12T08:10:44Z</time>
      </trkpt>
      <trkpt lat="39.1803150" lon="-1.4633350">
        <ele>579.8</ele>
        <time>2019-05-12T08:10:45Z</time>
      </trkpt>
      <trkpt lat="39.1803030" lon="-1.4632730">
        <ele>580.0</ele>
        <time>2019-05-12T08:10:46Z</time>
      </trkpt>
      <trkpt lat="39.1802890" lon="-1.4632090">
        <ele>580.2</ele>
        <time>2019-05-12T08:10:47Z</time>
      </trkpt>
      <trkpt lat="39.1802720" lon="-1.4631450">
        <ele>580.2</ele>
        <time>2019-05-12T08:10:48Z</time>
      </trkpt>
      <trkpt lat="39.1802480" lon="-1.4630850">
        <ele>580.4</ele>
        <time>2019-05-12T08:10:49Z</time>
      </trkpt>
      <trkpt lat="39.1802200" lon="-1.4630260">
        <ele>580.6</ele>
        <time>2019-05-12T08:10:50Z</time>
      </trkpt>
      <trkpt lat="39.1801910" lon="-1.4629670">
        <ele>580.6</ele>
        <time>2019-05-12T08:10:51Z</time>
      </trkpt>
      <trkpt lat="39.1801550" lon="-1.4629170">
        <ele>580.6</ele>
        <time>2019-05-12T08:10:52Z</time>
      </trkpt>
      <trkpt lat="39.1801170" lon="-1.4628820">
        <ele>580.8</ele>
        <time>2019-05-12T08:10:53Z</time>
      </trkpt>
      <trkpt lat="39.1800780" lon="-1.4628620">
        <ele>580.8</ele>
        <time>2019-05-12T08:10:54Z</time>
      </trkpt>
      <trkpt lat="39.1800410" lon="-1.4628460">
        <ele>580.8</ele>
        <time>2019-05-12T08:10:55Z</time>
      </trkpt>
      <trkpt lat="39.1800020" lon="-1.4628320">
        <ele>580.8</ele>
        <time>2019-05-12T08:10:56Z</time>
      </trkpt>
      <trkpt lat="39.1799640" lon="-1.4628240">
        <ele>581.0</ele>
        <time>2019-05-12T08:10:57Z</time>
      </trkpt>
      <trkpt lat="39.1799250" lon="-1.4628270">
        <ele>581.0</ele>
        <time>2019-05-12T08:10:58Z</time>
      </trkpt>
      <trkpt lat="39.1798900" lon="-1.4628470">
        <ele>581.0</ele>
        <time>2019-05-12T08:10:59Z</time>
      </trkpt>
      <trkpt lat="39.1798600" lon="-1.4628800">
        <ele>581.0</ele>
        <time>2019-05-12T08:11:00Z</time>
      </trkpt>
      <trkpt lat="39.1798300" lon="-1.4629160">
        <ele>581.0</ele>
        <time>2019-05-12T08:11:01Z</time>
      </trkpt>
      <trkpt lat="39.1797980" lon="-1.4629540">
        <ele>581.0</ele>
        <time>2019-05-12T08:11:02Z</time>
      </trkpt>
      <trkpt lat="39.1797640" lon="-1.4629930">
        <ele>581.0</ele>
        <time>2019-05-12T08:11:03Z</time>
      </trkpt>
      <trkpt lat="39.1797300" lon="-1.4630180">
        <ele>581.0</ele>
        <time>2019-05-12T08:11:04Z</time>
      </trkpt>
      <trkpt lat="39.1796940" lon="-1.4630230">
        <ele>581.4</ele>
        <time>2019-05-12T08:11:05Z</time>
      </trkpt>
      <trkpt lat="39.1796560" lon="-1.4630180">
        <ele>581.6</ele>
        <time>2019-05-12T08:11:06Z</time>
      </trkpt>
      <trkpt lat="39.1796180" lon="-1.4630210">
        <ele>582.0</ele>
        <time>2019-05-12T08:11:07Z</time>
      </trkpt>
      <trkpt lat="39.1795810" lon="-1.4630370">
        <ele>582.4</ele>
        <time>2019-05-12T08:11:08Z</time>
      </trkpt>
      <trkpt lat="39.1795450" lon="-1.4630610">
        <ele>582.8</ele>
        <time>2019-05-12T08:11:09Z</time>
      </trkpt>
      <trkpt lat="39.1795140" lon="-1.4630900">
        <ele>583.0</ele>
        <time>2019-05-12T08:11:10Z</time>
      </trkpt>
      <trkpt lat="39.1794860" lon="-1.4631210">
        <ele>583.2</ele>
        <time>2019-05-12T08:11:11Z</time>
      </trkpt>
      <trkpt lat="39.1794610" lon="-1.4631560">
        <ele>583.4</ele>
        <time>2019-05-12T08:11:12Z</time>
      </trkpt>
      <trkpt lat="39.1794390" lon="-1.4631970">
        <ele>583.4</ele>
        <time>2019-05-12T08:11:13Z</time>
      </trkpt>
      <trkpt lat="39.1794220" lon="-1.4632430">
        <ele>583.6</ele>
        <time>2019-05-12T08:11:14Z</time>
      </trkpt>
      <trkpt lat="39.1794080" lon="-1.4632920">
        <ele>583.8</ele>
        <time>2019-05-12T08:11:15Z</time>
      </trkpt>
      <trkpt lat="39.1793990" lon="-1.4633440">
        <ele>584.0</ele>
        <time>2019-05-12T08:11:16Z</time>
      </trkpt>
      <trkpt lat="39.1793940" lon="-1.4633990">
        <ele>584.2</ele>
        <time>2019-05-12T08:11:17Z</time>
      </trkpt>
      <trkpt lat="39.1793880" lon="-1.4634500">
        <ele>584.4</ele>
        <time>2019-05-12T08:11:18Z</time>
      </trkpt>
      <trkpt lat="39.1793760" lon="-1.4635000">
        <ele>584.6</ele>
        <time>2019-05-12T08:11:19Z</time>
      </trkpt>
      <trkpt lat="39.1793560" lon="-1.4635500">
        <ele>584.8</ele>
        <time>2019-05-12T08:11:20Z</time>
      </trkpt>
      <trkpt lat="39.1793290" lon="-1.4635970">
        <ele>585.0</ele>
        <time>2019-05-12T08:11:21Z</time>
      </trkpt>
      <trkpt lat="39.1792990" lon="-1.4636440">
        <ele>585.0</ele>
        <time>2019-05-12T08:11:22Z</time>
      </trkpt>
      <trkpt lat="39.1792690" lon="-1.4636880">
        <ele>585.2</ele>
        <time>2019-05-12T08:11:23Z</time>
      </trkpt>
      <trkpt lat="39.1792450" lon="-1.4637260">
        <ele>585.2</ele>
        <time>2019-05-12T08:11:24Z</time>
      </trkpt>
      <trkpt lat="39.1792250" lon="-1.4637640">
        <ele>585.2</ele>
        <time>2019-05-12T08:11:25Z</time>
      </trkpt>
      <trkpt lat="39.1792120" lon="-1.4638050">
        <ele>585.4</ele>
        <time>2019-05-12T08:11:26Z</time>
      </trkpt>
      <trkpt lat="39.1792020" lon="-1.4638440">
        <ele>585.4</ele>
        <time>2019-05-12T08:11:27Z</time>
      </trkpt>
      <trkpt lat="39.1791850" lon="-1.4638800">
        <ele>585.4</ele>
        <time>2019-05-12T08:11:28Z</time>
      </trkpt>
      <trkpt lat="39.1791680" lon="-1.4639190">
        <ele>585.4</ele>
        <time>2019-05-12T08:11:29Z</time>
      </trkpt>
      <trkpt lat="39.1791500" lon="-1.4639630">
        <ele>585.4</ele>
        <time>2019-05-12T08:11:30Z</time>
      </trkpt>
      <trkpt lat="39.1791330" lon="-1.4640140">
        <ele>585.4</ele>
        <time>2019-05-12T08:11:31Z</time>
      </trkpt>
      <trkpt lat="39.1791220" lon="-1.4640670">
        <ele>585.6</ele>
        <time>2019-05-12T08:11:32Z</time>
      </trkpt>
      <trkpt lat="39.1791180" lon="-1.4641280">
        <ele>585.6</ele>
        <time>2019-05-12T08:11:33Z</time>
      </trkpt>
      <trkpt lat="39.1791230" lon="-1.4641920">
        <ele>585.6</ele>
        <time>2019-05-12T08:11:34Z</time>
      </trkpt>
      <trkpt lat="39.1791390" lon="-1.4642520">
        <ele>585.6</ele>
        <time>2019-05-12T08:11:35Z</time>
      </trkpt>
      <trkpt lat="39.1791590" lon="-1.4643060">
        <ele>585.6</ele>
        <time>2019-05-12T08:11:36Z</time>
      </trkpt>
      <trkpt lat="39.1791780" lon="-1.4643530">
        <ele>585.6</ele>
        <time>2019-05-12T08:11:37Z</time>
      </trkpt>
      <trkpt lat="39.1791990" lon="-1.4643960">
        <ele>585.6</ele>
        <time>2019-05-12T08:11:38Z</time>
      </trkpt>
      <trkpt lat="39.1792210" lon="-1.4644430">
        <ele>585.6</ele>
        <time>2019-05-12T08:11:39Z</time>
      </trkpt>
      <trkpt lat="39.1792420" lon="-1.4644890">
        <ele>585.6</ele>
        <time>2019-05-12T08:11:40Z</time>
      </trkpt>
      <trkpt lat="39.1792630" lon="-1.4645360">
        <ele>585.8</ele>
        <time>2019-05-12T08:11:41Z</time>
      </trkpt>
      <trkpt lat="39.1792820" lon="-1.4645810">
        <ele>585.8</ele>
        <time>2019-05-12T08:11:42Z</time>
      </trkpt>
      <trkpt lat="39.1793000" lon="-1.4646250">
        <ele>585.8</ele>
        <time>2019-05-12T08:11:43Z</time>
      </trkpt>
      <trkpt lat="39.1793190" lon="-1.4646710">
        <ele>586.0</ele>
        <time>2019-05-12T08:11:44Z</time>
      </trkpt>
      <trkpt lat="39.1793370" lon="-1.4647210">
        <ele>586.0</ele>
        <time>2019-05-12T08:11:45Z</time>
      </trkpt>
      <trkpt lat="39.1793540" lon="-1.4647740">
        <ele>586.0</ele>
        <time>2019-05-12T08:11:46Z</time>
      </trkpt>
      <trkpt lat="39.1793680" lon="-1.4648270">
        <ele>586.0</ele>
        <time>2019-05-12T08:11:47Z</time>
      </trkpt>
      <trkpt lat="39.1793840" lon="-1.4648830">
        <ele>586.0</ele>
        <time>2019-05-12T08:11:48Z</time>
      </trkpt>
      <trkpt lat="39.1793920" lon="-1.4649450">
        <ele>586.0</ele>
        <time>2019-05-12T08:11:49Z</time>
      </trkpt>
      <trkpt lat="39.1793910" lon="-1.4650100">
        <ele>586.0</ele>
        <time>2019-05-12T08:11:50Z</time>
      </trkpt>
      <trkpt lat="39.1793830" lon="-1.4650690">
        <ele>586.2</ele>
        <time>2019-05-12T08:11:51Z</time>
      </trkpt>
      <trkpt lat="39.1793740" lon="-1.4651250">
        <ele>586.4</ele>
        <time>2019-05-12T08:11:52Z</time>
      </trkpt>
      <trkpt lat="39.1793600" lon="-1.4651790">
        <ele>586.4</ele>
        <time>2019-05-12T08:11:53Z</time>
      </trkpt>
      <trkpt lat="39.1793380" lon="-1.4652300">
        <ele>586.6</ele>
        <time>2019-05-12T08:11:54Z</time>
      </trkpt>
      <trkpt lat="39.1793120" lon="-1.4652760">
        <ele>586.8</ele>
        <time>2019-05-12T08:11:55Z</time>
      </trkpt>
      <trkpt lat="39.1792810" lon="-1.4653220">
        <ele>586.8</ele>
        <time>2019-05-12T08:11:56Z</time>
      </trkpt>
      <trkpt lat="39.1792480" lon="-1.4653580">
        <ele>586.8</ele>
        <time>2019-05-12T08:11:57Z</time>
      </trkpt>
      <trkpt lat="39.1792050" lon="-1.4653870">
        <ele>586.8</ele>
        <time>2019-05-12T08:11:58Z</time>
      </trkpt>
      <trkpt lat="39.1791620" lon="-1.4654130">
        <ele>587.0</ele>
        <time>2019-05-12T08:11:59Z</time>
      </trkpt>
      <trkpt lat="39.1791190" lon="-1.4654380">
        <ele>587.2</ele>
        <time>2019-05-12T08:12:00Z</time>
      </trkpt>
      <trkpt lat="39.1790740" lon="-1.4654580">
        <ele>587.2</ele>
        <time>2019-05-12T08:12:01Z</time>
      </trkpt>
      <trkpt lat="39.1790270" lon="-1.4654720">
        <ele>587.4</ele>
        <time>2019-05-12T08:12:02Z</time>
      </trkpt>
      <trkpt lat="39.1789770" lon="-1.4654880">
        <ele>587.6</ele>
        <time>2019-05-12T08:12:03Z</time>
      </trkpt>
      <trkpt lat="39.1789270" lon="-1.4655040">
        <ele>587.8</ele>
        <time>2019-05-12T08:12:04Z</time>
      </trkpt>
      <trkpt lat="39.1788770" lon="-1.4655130">
        <ele>588.0</ele>
        <time>2019-05-12T08:12:05Z</time>
      </trkpt>
      <trkpt lat="39.1788260" lon="-1.4655190">
        <ele>588.0</ele>
        <time>2019-05-12T08:12:06Z</time>
      </trkpt>
      <trkpt lat="39.1787740" lon="-1.4655270">
        <ele>588.0</ele>
        <time>2019-05-12T08:12:07Z</time>
      </trkpt>
      <trkpt lat="39.1787220" lon="-1.4655380">
        <ele>588.0</ele>
        <time>2019-05-12T08:12:08Z</time>
      </trkpt>
      <trkpt lat="39.1786700" lon="-1.4655470">
        <ele>588.2</ele>
        <time>2019-05-12T08:12:09Z</time>
      </trkpt>
      <trkpt lat="39.1786170" lon="-1.4655500">
        <ele>588.2</ele>
        <time>2019-05-12T08:12:10Z</time>
      </trkpt>
      <trkpt lat="39.1785640" lon="-1.4655510">
        <ele>588.2</ele>
        <time>2019-05-12T08:12:11Z</time>
      </trkpt>
      <trkpt lat="39.1785110" lon="-1.4655540">
        <ele>588.2</ele>
        <time>2019-05-12T08:12:12Z</time>
      </trkpt>
      <trkpt lat="39.1784560" lon="-1.4655580">
        <ele>588.2</ele>
        <time>2019-05-12T08:12:13Z</time>
      </trkpt>
      <trkpt lat="39.1784020" lon="-1.4655600">
        <ele>588.2</ele>
        <time>2019-05-12T08:12:14Z</time>
      </trkpt>
      <trkpt lat="39.1783460" lon="-1.4655590">
        <ele>588.4</ele>
        <time>2019-05-12T08:12:15Z</time>
      </trkpt>
      <trkpt lat="39.1782890" lon="-1.4655550">
        <ele>588.4</ele>
        <time>2019-05-12T08:12:16Z</time>
      </trkpt>
      <trkpt lat="39.1782310" lon="-1.4655470">
        <ele>588.6</ele>
        <time>2019-05-12T08:12:17Z</time>
      </trkpt>
      <trkpt lat="39.1781720" lon="-1.4655360">
        <ele>588.6</ele>
        <time>2019-05-12T08:12:18Z</time>
      </trkpt>
      <trkpt lat="39.1781130" lon="-1.4655260">
        <ele>588.8</ele>
        <time>2019-05-12T08:12:19Z</time>
      </trkpt>
      <trkpt lat="39.1780550" lon="-1.4655230">
        <ele>588.8</ele>
        <time>2019-05-12T08:12:20Z</time>
      </trkpt>
      <trkpt lat="39.1779970" lon="-1.4655220">
        <ele>588.8</ele>
        <time>2019-05-12T08:12:21Z</time>
      </trkpt>
      <trkpt lat="39.1779390" lon="-1.4655220">
        <ele>588.8</ele>
        <time>2019-05-12T08:12:22Z</time>
      </trkpt>
      <trkpt lat="39.1778810" lon="-1.4655200">
        <ele>588.8</ele>
        <time>2019-05-12T08:12:23Z</time>
      </trkpt>
      <trkpt lat="39.1778230" lon="-1.4655160">
        <ele>589.0</ele>
        <time>2019-05-12T08:12:24Z</time>
      </trkpt>
      <trkpt lat="39.1777660" lon="-1.4655070">
        <ele>589.0</ele>
        <time>2019-05-12T08:12:25Z</time>
      </trkpt>
      <trkpt lat="39.1777080" lon="-1.4654960">
        <ele>589.0</ele>
        <time>2019-05-12T08:12:26Z</time>
      </trkpt>
      <trkpt lat="39.1776500" lon="-1.4654870">
        <ele>589.0</ele>
        <time>2019-05-12T08:12:27Z</time>
      </trkpt>
      <trkpt lat="39.1775940" lon="-1.4654830">
        <ele>589.2</ele>
        <time>2019-05-12T08:12:28Z</time>
      </trkpt>
      <trkpt lat="39.1775420" lon="-1.4654730">
        <ele>589.2</ele>
        <time>2019-05-12T08:12:29Z</time>
      </trkpt>
      <trkpt lat="39.1774950" lon="-1.4654470">
        <ele>589.4</ele>
        <time>2019-05-12T08:12:30Z</time>
      </trkpt>
      <trkpt lat="39.1774490" lon="-1.4654150">
        <ele>589.4</ele>
        <time>2019-05-12T08:12:31Z</time>
      </trkpt>
      <trkpt lat="39.1774040" lon="-1.4653790">
        <ele>589.4</ele>
        <time>2019-05-12T08:12:32Z</time>
      </trkpt>
      <trkpt lat="39.1773600" lon="-1.4653390">
        <ele>589.4</ele>
        <time>2019-05-12T08:12:33Z</time>
      </trkpt>
      <trkpt lat="39.1773180" lon="-1.4652960">
        <ele>589.6</ele>
        <time>2019-05-12T08:12:34Z</time>
      </trkpt>
      <trkpt lat="39.1772770" lon="-1.4652490">
        <ele>589.6</ele>
        <time>2019-05-12T08:12:35Z</time>
      </trkpt>
      <trkpt lat="39.1772380" lon="-1.4651960">
        <ele>589.6</ele>
        <time>2019-05-12T08:12:36Z</time>
      </trkpt>
      <trkpt lat="39.1772050" lon="-1.4651380">
        <ele>589.8</ele>
        <time>2019-05-12T08:12:37Z</time>
      </trkpt>
      <trkpt lat="39.1771750" lon="-1.4650770">
        <ele>589.8</ele>
        <time>2019-05-12T08:12:38Z</time>
      </trkpt>
      <trkpt lat="39.1771470" lon="-1.4650140">
        <ele>590.0</ele>
        <time>2019-05-12T08:12:39Z</time>
      </trkpt>
      <trkpt lat="39.1771180" lon="-1.4649500">
        <ele>590.0</ele>
        <time>2019-05-12T08:12:40Z</time>
      </trkpt>
      <trkpt lat="39.1770890" lon="-1.4648850">
        <ele>590.0</ele>
        <time>2019-05-12T08:12:41Z</time>
      </trkpt>
      <trkpt lat="39.1770620" lon="-1.4648190">
        <ele>590.0</ele>
        <time>2019-05-12T08:12:42Z</time>
      </trkpt>
      <trkpt lat="39.1770340" lon="-1.4647530">
        <ele>590.0</ele>
        <time>2019-05-12T08:12:43Z</time>
      </trkpt>
      <trkpt lat="39.1770040" lon="-1.4646880">
        <ele>590.0</ele>
        <time>2019-05-12T08:12:44Z</time>
      </trkpt>
      <trkpt lat="39.1769730" lon="-1.4646240">
        <ele>590.0</ele>
        <time>2019-05-12T08:12:45Z</time>
      </trkpt>
      <trkpt lat="39.1769420" lon="-1.4645580">
        <ele>590.2</ele>
        <time>2019-05-12T08:12:46Z</time>
      </trkpt>
      <trkpt lat="39.1769140" lon="-1.4644900">
        <ele>590.2</ele>
        <time>2019-05-12T08:12:47Z</time>
      </trkpt>
      <trkpt lat="39.1768860" lon="-1.4644230">
        <ele>590.2</ele>
        <time>2019-05-12T08:12:48Z</time>
      </trkpt>
      <trkpt lat="39.1768560" lon="-1.4643550">
        <ele>590.2</ele>
        <time>2019-05-12T08:12:49Z</time>
      </trkpt>
      <trkpt lat="39.1768250" lon="-1.4642900">
        <ele>590.2</ele>
        <time>2019-05-12T08:12:50Z</time>
      </trkpt>
      <trkpt lat="39.1767930" lon="-1.4642350">
        <ele>590.2</ele>
        <time>2019-05-12T08:12:51Z</time>
      </trkpt>
      <trkpt lat="39.1767670" lon="-1.4641870">
        <ele>590.2</ele>
        <time>2019-05-12T08:12:52Z</time>
      </trkpt>
      <trkpt lat="39.1767490" lon="-1.4641330">
        <ele>590.2</ele>
        <time>2019-05-12T08:12:53Z</time>
      </trkpt>
      <trkpt lat="39.1767340" lon="-1.4640720">
        <ele>590.2</ele>
        <time>2019-05-12T08:12:54Z</time>
      </trkpt>
      <trkpt lat="39.1767140" lon="-1.4640080">
        <ele>590.4</ele>
        <time>2019-05-12T08:12:55Z</time>
      </trkpt>
      <trkpt lat="39.1766870" lon="-1.4639450">
        <ele>590.4</ele>
        <time>2019-05-12T08:12:56Z</time>
      </trkpt>
      <trkpt lat="39.1766610" lon="-1.4638830">
        <ele>590.4</ele>
        <time>2019-05-12T08:12:57Z</time>
      </trkpt>
      <trkpt lat="39.1766320" lon="-1.4638200">
        <ele>590.6</ele>
        <time>2019-05-12T08:12:58Z</time>
      </trkpt>
      <trkpt lat="39.1765980" lon="-1.4637640">
        <ele>590.6</ele>
        <time>2019-05-12T08:12:59Z</time>
      </trkpt>
      <trkpt lat="39.1765580" lon="-1.4637130">
        <ele>590.8</ele>
        <time>2019-05-12T08:13:00Z</time>
      </trkpt>
      <trkpt lat="39.1765190" lon="-1.4636660">
        <ele>591.0</ele>
        <time>2019-05-12T08:13:01Z</time>
      </trkpt>
      <trkpt lat="39.1764810" lon="-1.4636210">
        <ele>591.2</ele>
        <time>2019-05-12T08:13:02Z</time>
      </trkpt>
      <trkpt lat="39.1764420" lon="-1.4635790">
        <ele>591.2</ele>
        <time>2019-05-12T08:13:03Z</time>
      </trkpt>
      <trkpt lat="39.1764070" lon="-1.4635340">
        <ele>591.4</ele>
        <time>2019-05-12T08:13:04Z</time>
      </trkpt>
      <trkpt lat="39.1763770" lon="-1.4634860">
        <ele>591.4</ele>
        <time>2019-05-12T08:13:05Z</time>
      </trkpt>
      <trkpt lat="39.1763480" lon="-1.4634380">
        <ele>591.4</ele>
        <time>2019-05-12T08:13:06Z</time>
      </trkpt>
      <trkpt lat="39.1763140" lon="-1.4634040">
        <ele>591.4</ele>
        <time>2019-05-12T08:13:07Z</time>
      </trkpt>
      <trkpt lat="39.1762790" lon="-1.4633800">
        <ele>591.6</ele>
        <time>2019-05-12T08:13:08Z</time>
      </trkpt>
      <trkpt lat="39.1762520" lon="-1.4633490">
        <ele>591.8</ele>
        <time>2019-05-12T08:13:09Z</time>
      </trkpt>
      <trkpt lat="39.1762260" lon="-1.4633140">
        <ele>592.0</ele>
        <time>2019-05-12T08:13:10Z</time>
      </trkpt>
      <trkpt lat="39.1761960" lon="-1.4632810">
        <ele>592.2</ele>
        <time>2019-05-12T08:13:11Z</time>
      </trkpt>
      <trkpt lat="39.1761640" lon="-1.4632480">
        <ele>592.4</ele>
        <time>2019-05-12T08:13:12Z</time>
      </trkpt>
      <trkpt lat="39.1761280" lon="-1.4632160">
        <ele>592.4</ele>
        <time>2019-05-12T08:13:13Z</time>
      </trkpt>
      <trkpt lat="39.1760890" lon="-1.4631880">
        <ele>592.6</ele>
        <time>2019-05-12T08:13:14Z</time>
      </trkpt>
      <trkpt lat="39.1760470" lon="-1.4631660">
        <ele>592.6</ele>
        <time>2019-05-12T08:13:15Z</time>
      </trkpt>
      <trkpt lat="39.1760070" lon="-1.4631640">
        <ele>592.6</ele>
        <time>2019-05-12T08:13:16Z</time>
      </trkpt>
      <trkpt lat="39.1759680" lon="-1.4631750">
        <ele>592.8</ele>
        <time>2019-05-12T08:13:17Z</time>
      </trkpt>
      <trkpt lat="39.1759270" lon="-1.4631910">
        <ele>592.8</ele>
        <time>2019-05-12T08:13:18Z</time>
      </trkpt>
      <trkpt lat="39.1758830" lon="-1.4632080">
        <ele>592.8</ele>
        <time>2019-05-12T08:13:19Z</time>
      </trkpt>
      <trkpt lat="39.1758370" lon="-1.4632260">
        <ele>592.8</ele>
        <time>2019-05-12T08:13:20Z</time>
      </trkpt>
      <trkpt lat="39.1757900" lon="-1.4632530">
        <ele>593.0</ele>
        <time>2019-05-12T08:13:21Z</time>
      </trkpt>
      <trkpt lat="39.1757450" lon="-1.4632880">
        <ele>593.0</ele>
        <time>2019-05-12T08:13:22Z</time>
      </trkpt>
      <trkpt lat="39.1757030" lon="-1.4633280">
        <ele>593.0</ele>
        <time>2019-05-12T08:13:23Z</time>
      </trkpt>
      <trkpt lat="39.1756660" lon="-1.4633740">
        <ele>593.0</ele>
        <time>2019-05-12T08:13:24Z</time>
      </trkpt>
      <trkpt lat="39.1756310" lon="-1.4634240">
        <ele>593.2</ele>
        <time>2019-05-12T08:13:25Z</time>
      </trkpt>
      <trkpt lat="39.1755990" lon="-1.4634780">
        <ele>593.2</ele>
        <time>2019-05-12T08:13:26Z</time>
      </trkpt>
      <trkpt lat="39.1755700" lon="-1.4635350">
        <ele>593.2</ele>
        <time>2019-05-12T08:13:27Z</time>
      </trkpt>
      <trkpt lat="39.1755420" lon="-1.4635950">
        <ele>593.2</ele>
        <time>2019-05-12T08:13:28Z</time>
      </trkpt>
      <trkpt lat="39.1755090" lon="-1.4636510">
        <ele>593.4</ele>
        <time>2019-05-12T08:13:29Z</time>
      </trkpt>
      <trkpt lat="39.1754720" lon="-1.4637060">
        <ele>593.4</ele>
        <time>2019-05-12T08:13:30Z</time>
      </trkpt>
      <trkpt lat="39.1754360" lon="-1.4637580">
        <ele>593.4</ele>
        <time>2019-05-12T08:13:31Z</time>
      </trkpt>
      <trkpt lat="39.1753980" lon="-1.4638110">
        <ele>593.4</ele>
        <time>2019-05-12T08:13:32Z</time>
      </trkpt>
      <trkpt lat="39.1753580" lon="-1.4638640">
        <ele>593.4</ele>
        <time>2019-05-12T08:13:33Z</time>
      </trkpt>
      <trkpt lat="39.1753190" lon="-1.4639180">
        <ele>593.4</ele>
        <time>2019-05-12T08:13:34Z</time>
      </trkpt>
      <trkpt lat="39.1752810" lon="-1.4639700">
        <ele>593.6</ele>
        <time>2019-05-12T08:13:35Z</time>
      </trkpt>
      <trkpt lat="39.1752470" lon="-1.4640190">
        <ele>593.6</ele>
        <time>2019-05-12T08:13:36Z</time>
      </trkpt>
      <trkpt lat="39.1752160" lon="-1.4640700">
        <ele>593.6</ele>
        <time>2019-05-12T08:13:37Z</time>
      </trkpt>
      <trkpt lat="39.1751950" lon="-1.4641280">
        <ele>593.6</ele>
        <time>2019-05-12T08:13:38Z</time>
      </trkpt>
      <trkpt lat="39.1751820" lon="-1.4641940">
        <ele>593.8</ele>
        <time>2019-05-12T08:13:39Z</time>
      </trkpt>
      <trkpt lat="39.1751770" lon="-1.4642590">
        <ele>593.8</ele>
        <time>2019-05-12T08:13:40Z</time>
      </trkpt>
      <trkpt lat="39.1751700" lon="-1.4643230">
        <ele>593.8</ele>
        <time>2019-05-12T08:13:41Z</time>
      </trkpt>
      <trkpt lat="39.1751550" lon="-1.4643820">
        <ele>593.8</ele>
        <time>2019-05-12T08:13:42Z</time>
      </trkpt>
      <trkpt lat="39.1751350" lon="-1.4644410">
        <ele>593.8</ele>
        <time>2019-05-12T08:13:43Z</time>
      </trkpt>
      <trkpt lat="39.1751080" lon="-1.4644930">
        <ele>594.0</ele>
        <time>2019-05-12T08:13:44Z</time>
      </trkpt>
      <trkpt lat="39.1750770" lon="-1.4645360">
        <ele>594.2</ele>
        <time>2019-05-12T08:13:45Z</time>
      </trkpt>
      <trkpt lat="39.1750440" lon="-1.4645750">
        <ele>594.4</ele>
        <time>2019-05-12T08:13:46Z</time>
      </trkpt>
      <trkpt lat="39.1750180" lon="-1.4646090">
        <ele>594.6</ele>
        <time>2019-05-12T08:13:47Z</time>
      </trkpt>
      <trkpt lat="39.1749940" lon="-1.4646460">
        <ele>594.6</ele>
        <time>2019-05-12T08:13:48Z</time>
      </trkpt>
      <trkpt lat="39.1749680" lon="-1.4646820">
        <ele>594.8</ele>
        <time>2019-05-12T08:13:49Z</time>
      </trkpt>
      <trkpt lat="39.1749390" lon="-1.4647200">
        <ele>594.8</ele>
        <time>2019-05-12T08:13:50Z</time>
      </trkpt>
      <trkpt lat="39.1749080" lon="-1.4647600">
        <ele>594.8</ele>
        <time>2019-05-12T08:13:51Z</time>
      </trkpt>
      <trkpt lat="39.1748760" lon="-1.4648020">
        <ele>594.8</ele>
        <time>2019-05-12T08:13:52Z</time>
      </trkpt>
      <trkpt lat="39.1748450" lon="-1.4648480">
        <ele>594.8</ele>
        <time>2019-05-12T08:13:53Z</time>
      </trkpt>
      <trkpt lat="39.1748140" lon="-1.4648940">
        <ele>595.0</ele>
        <time>2019-05-12T08:13:54Z</time>
      </trkpt>
      <trkpt lat="39.1747790" lon="-1.4649370">
        <ele>595.0</ele>
        <time>2019-05-12T08:13:55Z</time>
      </trkpt>
      <trkpt lat="39.1747440" lon="-1.4649750">
        <ele>595.0</ele>
        <time>2019-05-12T08:13:56Z</time>
      </trkpt>
      <trkpt lat="39.1747080" lon="-1.4650130">
        <ele>595.0</ele>
        <time>2019-05-12T08:13:57Z</time>
      </trkpt>
      <trkpt lat="39.1746740" lon="-1.4650490">
        <ele>595.2</ele>
        <time>2019-05-12T08:13:58Z</time>
      </trkpt>
      <trkpt lat="39.1746430" lon="-1.4650860">
        <ele>595.2</ele>
        <time>2019-05-12T08:13:59Z</time>
      </trkpt>
      <trkpt lat="39.1746080" lon="-1.4651170">
        <ele>595.2</ele>
        <time>2019-05-12T08:14:00Z</time>
      </trkpt>
      <trkpt lat="39.1745660" lon="-1.4651340">
        <ele>595.2</ele>
        <time>2019-05-12T08:14:01Z</time>
      </trkpt>
      <trkpt lat="39.1745220" lon="-1.4651390">
        <ele>595.2</ele>
        <time>2019-05-12T08:14:02Z</time>
      </trkpt>
      <trkpt lat="39.1744780" lon="-1.4651440">
        <ele>595.2</ele>
        <time>2019-05-12T08:14:03Z</time>
      </trkpt>
      <trkpt lat="39.1744370" lon="-1.4651480">
        <ele>595.2</ele>
        <time>2019-05-12T08:14:04Z</time>
      </trkpt>
      <trkpt lat="39.1743970" lon="-1.4651460">
        <ele>595.4</ele>
        <time>2019-05-12T08:14:05Z</time>
      </trkpt>
      <trkpt lat="39.1743580" lon="-1.4651460">
        <ele>595.4</ele>
        <time>2019-05-12T08:14:06Z</time>
      </trkpt>
      <trkpt lat="39.1743200" lon="-1.4651570">
        <ele>595.6</ele>
        <time>2019-05-12T08:14:07Z</time>
      </trkpt>
      <trkpt lat="39.1742820" lon="-1.4651680">
        <ele>595.6</ele>
        <time>2019-05-12T08:14:08Z</time>
      </trkpt>
      <trkpt lat="39.1742430" lon="-1.4651720">
        <ele>595.6</ele>
        <time>2019-05-12T08:14:09Z</time>
      </trkpt>
      <trkpt lat="39.1742120" lon="-1.4651740">
        <ele>595.8</ele>
        <time>2019-05-12T08:14:10Z</time>
      </trkpt>
      <trkpt lat="39.1741920" lon="-1.4651910">
        <ele>595.8</ele>
        <time>2019-05-12T08:14:11Z</time>
      </trkpt>
      <trkpt lat="39.1741760" lon="-1.4652160">
        <ele>595.8</ele>
        <time>2019-05-12T08:14:12Z</time>
      </trkpt>
      <trkpt lat="39.1741560" lon="-1.4652340">
        <ele>596.0</ele>
        <time>2019-05-12T08:14:13Z</time>
      </trkpt>
      <trkpt lat="39.1741290" lon="-1.4652320">
        <ele>596.2</ele>
        <time>2019-05-12T08:14:14Z</time>
      </trkpt>
      <trkpt lat="39.1740980" lon="-1.4652300">
        <ele>596.4</ele>
        <time>2019-05-12T08:14:15Z</time>
      </trkpt>
      <trkpt lat="39.1740670" lon="-1.4652330">
        <ele>596.4</ele>
        <time>2019-05-12T08:14:16Z</time>
      </trkpt>
      <trkpt lat="39.1740370" lon="-1.4652370">
        <ele>596.4</ele>
        <time>2019-05-12T08:14:17Z</time>
      </trkpt>
      <trkpt lat="39.1740030" lon="-1.4652410">
        <ele>596.4</ele>
        <time>2019-05-12T08:14:18Z</time>
      </trkpt>
      <trkpt lat="39.1739660" lon="-1.4652470">
        <ele>596.4</ele>
        <time>2019-05-12T08:14:19Z</time>
      </trkpt>
      <trkpt lat="39.1739280" lon="-1.4652540">
        <ele>596.4</ele>
        <time>2019-05-12T08:14:20Z</time>
      </trkpt>
      <trkpt lat="39.1738880" lon="-1.4652610">
        <ele>596.4</ele>
        <time>2019-05-12T08:14:21Z</time>
      </trkpt>
      <trkpt lat="39.1738500" lon="-1.4652650">
        <ele>596.4</ele>
        <time>2019-05-12T08:14:22Z</time>
      </trkpt>
      <trkpt lat="39.1738140" lon="-1.4652670">
        <ele>596.4</ele>
        <time>2019-05-12T08:14:23Z</time>
      </trkpt>
      <trkpt lat="39.1737840" lon="-1.4652630">
        <ele>596.6</ele>
        <time>2019-05-12T08:14:24Z</time>
      </trkpt>
      <trkpt lat="39.1737570" lon="-1.4652460">
        <ele>596.6</ele>
        <time>2019-05-12T08:14:25Z</time>
      </trkpt>
      <trkpt lat="39.1737280" lon="-1.4652330">
        <ele>596.6</ele>
        <time>2019-05-12T08:14:26Z</time>
      </trkpt>
      <trkpt lat="39.1737030" lon="-1.4652390">
        <ele>596.6</ele>
        <time>2019-05-12T08:14:27Z</time>
      </trkpt>
      <trkpt lat="39.1736810" lon="-1.4652610">
        <ele>596.6</ele>
        <time>2019-05-12T08:14:28Z</time>
      </trkpt>
      <trkpt lat="39.1736550" lon="-1.4652800">
        <ele>596.6</ele>
        <time>2019-05-12T08:14:29Z</time>
      </trkpt>
      <trkpt lat="39.1736250" lon="-1.4652840">
        <ele>596.6</ele>
        <time>2019-05-12T08:14:30Z</time>
      </trkpt>
      <trkpt lat="39.1735950" lon="-1.4652840">
        <ele>596.6</ele>
        <time>2019-05-12T08:14:31Z</time>
      </trkpt>
      <trkpt lat="39.1735650" lon="-1.4652910">
        <ele>596.6</ele>
        <time>2019-05-12T08:14:32Z</time>
      </trkpt>
      <trkpt lat="39.1735320" lon="-1.4652940">
        <ele>596.8</ele>
        <time>2019-05-12T08:14:33Z</time>
      </trkpt>
      <trkpt lat="39.1734970" lon="-1.4652950">
        <ele>597.0</ele>
        <time>2019-05-12T08:14:34Z</time>
      </trkpt>
      <trkpt lat="39.1734610" lon="-1.4652980">
        <ele>597.0</ele>
        <time>2019-05-12T08:14:35Z</time>
      </trkpt>
      <trkpt lat="39.1734230" lon="-1.4653030">
        <ele>597.2</ele>
        <time>2019-05-12T08:14:36Z</time>
      </trkpt>
      <trkpt lat="39.1733820" lon="-1.4653030">
        <ele>597.2</ele>
        <time>2019-05-12T08:14:37Z</time>
      </trkpt>
      <trkpt lat="39.1733400" lon="-1.4652930">
        <ele>597.2</ele>
        <time>2019-05-12T08:14:38Z</time>
      </trkpt>
      <trkpt lat="39.1733020" lon="-1.4652820">
        <ele>597.4</ele>
        <time>2019-05-12T08:14:39Z</time>
      </trkpt>
      <trkpt lat="39.1732720" lon="-1.4652690">
        <ele>597.4</ele>
        <time>2019-05-12T08:14:40Z</time>
      </trkpt>
      <trkpt lat="39.1732410" lon="-1.4652620">
        <ele>597.4</ele>
        <time>2019-05-12T08:14:41Z</time>
      </trkpt>
      <trkpt lat="39.1732090" lon="-1.4652680">
        <ele>597.4</ele>
        <time>2019-05-12T08:14:42Z</time>
      </trkpt>
      <trkpt lat="39.1731730" lon="-1.4652760">
        <ele>597.4</ele>
        <time>2019-05-12T08:14:43Z</time>
      </trkpt>
      <trkpt lat="39.1731330" lon="-1.4652740">
        <ele>597.4</ele>
        <time>2019-05-12T08:14:44Z</time>
      </trkpt>
      <trkpt lat="39.1730940" lon="-1.4652660">
        <ele>597.6</ele>
        <time>2019-05-12T08:14:45Z</time>
      </trkpt>
      <trkpt lat="39.1730560" lon="-1.4652660">
        <ele>597.6</ele>
        <time>2019-05-12T08:14:46Z</time>
      </trkpt>
      <trkpt lat="39.1730210" lon="-1.4652590">
        <ele>597.6</ele>
        <time>2019-05-12T08:14:47Z</time>
      </trkpt>
      <trkpt lat="39.1729900" lon="-1.4652370">
        <ele>597.8</ele>
        <time>2019-05-12T08:14:48Z</time>
      </trkpt>
      <trkpt lat="39.1729620" lon="-1.4652070">
        <ele>598.6</ele>
        <time>2019-05-12T08:14:49Z</time>
      </trkpt>
      <trkpt lat="39.1729350" lon="-1.4651750">
        <ele>598.8</ele>
        <time>2019-05-12T08:14:50Z</time>
      </trkpt>
      <trkpt lat="39.1729160" lon="-1.4651420">
        <ele>598.8</ele>
        <time>2019-05-12T08:14:51Z</time>
      </trkpt>
      <trkpt lat="39.1729060" lon="-1.4651100">
        <ele>599.0</ele>
        <time>2019-05-12T08:14:52Z</time>
      </trkpt>
      <trkpt lat="39.1729010" lon="-1.4650790">
        <ele>599.0</ele>
        <time>2019-05-12T08:14:53Z</time>
      </trkpt>
      <trkpt lat="39.1729020" lon="-1.4650550">
        <ele>599.0</ele>
        <time>2019-05-12T08:14:54Z</time>
      </trkpt>
      <trkpt lat="39.1729110" lon="-1.4650390">
        <ele>599.2</ele>
        <time>2019-05-12T08:14:55Z</time>
      </trkpt>
      <trkpt lat="39.1729280" lon="-1.4650230">
        <ele>599.2</ele>
        <time>2019-05-12T08:14:56Z</time>
      </trkpt>
      <trkpt lat="39.1729440" lon="-1.4650090">
        <ele>599.2</ele>
        <time>2019-05-12T08:14:57Z</time>
      </trkpt>
      <trkpt lat="39.1729600" lon="-1.4649880">
        <ele>599.2</ele>
        <time>2019-05-12T08:14:58Z</time>
      </trkpt>
      <trkpt lat="39.1729690" lon="-1.4649630">
        <ele>599.4</ele>
        <time>2019-05-12T08:14:59Z</time>
      </trkpt>
      <trkpt lat="39.1729680" lon="-1.4649330">
        <ele>599.4</ele>
        <time>2019-05-12T08:15:00Z</time>
      </trkpt>
      <trkpt lat="39.1729660" lon="-1.4648980">
        <ele>599.4</ele>
        <time>2019-05-12T08:15:01Z</time>
      </trkpt>
      <trkpt lat="39.1729660" lon="-1.4648560">
        <ele>599.4</ele>
        <time>2019-05-12T08:15:02Z</time>
      </trkpt>
      <trkpt lat="39.1729640" lon="-1.4648080">
        <ele>599.6</ele>
        <time>2019-05-12T08:15:03Z</time>
      </trkpt>
      <trkpt lat="39.1729600" lon="-1.4647570">
        <ele>599.6</ele>
        <time>2019-05-12T08:15:04Z</time>
      </trkpt>
      <trkpt lat="39.1729580" lon="-1.4647030">
        <ele>599.8</ele>
        <time>2019-05-12T08:15:05Z</time>
      </trkpt>
      <trkpt lat="39.1729570" lon="-1.4646460">
        <ele>599.8</ele>
        <time>2019-05-12T08:15:06Z</time>
      </trkpt>
      <trkpt lat="39.1729610" lon="-1.4645890">
        <ele>600.0</ele>
        <time>2019-05-12T08:15:07Z</time>
      </trkpt>
      <trkpt lat="39.1729660" lon="-1.4645340">
        <ele>600.2</ele>
        <time>2019-05-12T08:15:08Z</time>
      </trkpt>
      <trkpt lat="39.1729720" lon="-1.4644780">
        <ele>600.2</ele>
        <time>2019-05-12T08:15:09Z</time>
      </trkpt>
      <trkpt lat="39.1729770" lon="-1.4644220">
        <ele>600.4</ele>
        <time>2019-05-12T08:15:10Z</time>
      </trkpt>
      <trkpt lat="39.1729830" lon="-1.4643690">
        <ele>600.4</ele>
        <time>2019-05-12T08:15:11Z</time>
      </trkpt>
      <trkpt lat="39.1729890" lon="-1.4643140">
        <ele>600.4</ele>
        <time>2019-05-12T08:15:12Z</time>
      </trkpt>
      <trkpt lat="39.1729950" lon="-1.4642560">
        <ele>600.6</ele>
        <time>2019-05-12T08:15:13Z</time>
      </trkpt>
      <trkpt lat="39.1730040" lon="-1.4641980">
        <ele>600.6</ele>
        <time>2019-05-12T08:15:14Z</time>
      </trkpt>
      <trkpt lat="39.1730120" lon="-1.4641370">
        <ele>600.6</ele>
        <time>2019-05-12T08:15:15Z</time>
      </trkpt>
      <trkpt lat="39.1730210" lon="-1.4640740">
        <ele>600.6</ele>
        <time>2019-05-12T08:15:16Z</time>
      </trkpt>
      <trkpt lat="39.1730270" lon="-1.4640110">
        <ele>600.6</ele>
        <time>2019-05-12T08:15:17Z</time>
      </trkpt>
      <trkpt lat="39.1730300" lon="-1.4639480">
        <ele>600.8</ele>
        <time>2019-05-12T08:15:18Z</time>
      </trkpt>
      <trkpt lat="39.1730320" lon="-1.4638840">
        <ele>600.8</ele>
        <time>2019-05-12T08:15:19Z</time>
      </trkpt>
      <trkpt lat="39.1730370" lon="-1.4638210">
        <ele>600.8</ele>
        <time>2019-05-12T08:15:20Z</time>
      </trkpt>
      <trkpt lat="39.1730470" lon="-1.4637590">
        <ele>600.8</ele>
        <time>2019-05-12T08:15:21Z</time>
      </trkpt>
      <trkpt lat="39.1730570" lon="-1.4636980">
        <ele>601.2</ele>
        <time>2019-05-12T08:15:22Z</time>
      </trkpt>
      <trkpt lat="39.1730660" lon="-1.4636360">
        <ele>601.0</ele>
        <time>2019-05-12T08:15:23Z</time>
      </trkpt>
      <trkpt lat="39.1730700" lon="-1.4635740">
        <ele>601.4</ele>
        <time>2019-05-12T08:15:24Z</time>
      </trkpt>
      <trkpt lat="39.1730720" lon="-1.4635110">
        <ele>601.6</ele>
        <time>2019-05-12T08:15:25Z</time>
      </trkpt>
      <trkpt lat="39.1730750" lon="-1.4634470">
        <ele>601.6</ele>
        <time>2019-05-12T08:15:26Z</time>
      </trkpt>
      <trkpt lat="39.1730780" lon="-1.4633810">
        <ele>601.8</ele>
        <time>2019-05-12T08:15:27Z</time>
      </trkpt>
      <trkpt lat="39.1730780" lon="-1.4633140">
        <ele>602.0</ele>
        <time>2019-05-12T08:15:28Z</time>
      </trkpt>
      <trkpt lat="39.1730750" lon="-1.4632460">
        <ele>602.0</ele>
        <time>2019-05-12T08:15:29Z</time>
      </trkpt>
      <trkpt lat="39.1730690" lon="-1.4631800">
        <ele>602.2</ele>
        <time>2019-05-12T08:15:30Z</time>
      </trkpt>
      <trkpt lat="39.1730640" lon="-1.4631150">
        <ele>602.2</ele>
        <time>2019-05-12T08:15:31Z</time>
      </trkpt>
      <trkpt lat="39.1730590" lon="-1.4630510">
        <ele>602.2</ele>
        <time>2019-05-12T08:15:32Z</time>
      </trkpt>
      <trkpt lat="39.1730560" lon="-1.4629880">
        <ele>602.4</ele>
        <time>2019-05-12T08:15:33Z</time>
      </trkpt>
      <trkpt lat="39.1730530" lon="-1.4629240">
        <ele>602.4</ele>
        <time>2019-05-12T08:15:34Z</time>
      </trkpt>
      <trkpt lat="39.1730500" lon="-1.4628600">
        <ele>602.4</ele>
        <time>2019-05-12T08:15:35Z</time>
      </trkpt>
      <trkpt lat="39.1730460" lon="-1.4627940">
        <ele>602.6</ele>
        <time>2019-05-12T08:15:36Z</time>
      </trkpt>
      <trkpt lat="39.1730410" lon="-1.4627300">
        <ele>602.6</ele>
        <time>2019-05-12T08:15:37Z</time>
      </trkpt>
      <trkpt lat="39.1730390" lon="-1.4626640">
        <ele>602.8</ele>
        <time>2019-05-12T08:15:38Z</time>
      </trkpt>
      <trkpt lat="39.1730340" lon="-1.4625990">
        <ele>602.8</ele>
        <time>2019-05-12T08:15:39Z</time>
      </trkpt>
      <trkpt lat="39.1730250" lon="-1.4625340">
        <ele>603.0</ele>
        <time>2019-05-12T08:15:40Z</time>
      </trkpt>
      <trkpt lat="39.1730110" lon="-1.4624710">
        <ele>603.0</ele>
        <time>2019-05-12T08:15:41Z</time>
      </trkpt>
      <trkpt lat="39.1729930" lon="-1.4624100">
        <ele>603.2</ele>
        <time>2019-05-12T08:15:42Z</time>
      </trkpt>
      <trkpt lat="39.1729720" lon="-1.4623470">
        <ele>603.2</ele>
        <time>2019-05-12T08:15:43Z</time>
      </trkpt>
      <trkpt lat="39.1729500" lon="-1.4622840">
        <ele>603.2</ele>
        <time>2019-05-12T08:15:44Z</time>
      </trkpt>
      <trkpt lat="39.1729270" lon="-1.4622190">
        <ele>603.4</ele>
        <time>2019-05-12T08:15:45Z</time>
      </trkpt>
      <trkpt lat="39.1729040" lon="-1.4621530">
        <ele>603.4</ele>
        <time>2019-05-12T08:15:46Z</time>
      </trkpt>
      <trkpt lat="39.1728810" lon="-1.4620870">
        <ele>603.4</ele>
        <time>2019-05-12T08:15:47Z</time>
      </trkpt>
      <trkpt lat="39.1728600" lon="-1.4620190">
        <ele>603.4</ele>
        <time>2019-05-12T08:15:48Z</time>
      </trkpt>
      <trkpt lat="39.1728370" lon="-1.4619550">
        <ele>603.4</ele>
        <time>2019-05-12T08:15:49Z</time>
      </trkpt>
      <trkpt lat="39.1728060" lon="-1.4618930">
        <ele>603.6</ele>
        <time>2019-05-12T08:15:50Z</time>
      </trkpt>
      <trkpt lat="39.1727740" lon="-1.4618380">
        <ele>603.6</ele>
        <time>2019-05-12T08:15:51Z</time>
      </trkpt>
      <trkpt lat="39.1727400" lon="-1.4617880">
        <ele>603.6</ele>
        <time>2019-05-12T08:15:52Z</time>
      </trkpt>
      <trkpt lat="39.1727030" lon="-1.4617450">
        <ele>603.6</ele>
        <time>2019-05-12T08:15:53Z</time>
      </trkpt>
      <trkpt lat="39.1726640" lon="-1.4617110">
        <ele>603.6</ele>
        <time>2019-05-12T08:15:54Z</time>
      </trkpt>
      <trkpt lat="39.1726260" lon="-1.4616780">
        <ele>603.6</ele>
        <time>2019-05-12T08:15:55Z</time>
      </trkpt>
      <trkpt lat="39.1725870" lon="-1.4616430">
        <ele>603.6</ele>
        <time>2019-05-12T08:15:56Z</time>
      </trkpt>
      <trkpt lat="39.1725460" lon="-1.4616100">
        <ele>603.6</ele>
        <time>2019-05-12T08:15:57Z</time>
      </trkpt>
      <trkpt lat="39.1725020" lon="-1.4615780">
        <ele>603.6</ele>
        <time>2019-05-12T08:15:58Z</time>
      </trkpt>
      <trkpt lat="39.1724570" lon="-1.4615460">
        <ele>603.8</ele>
        <time>2019-05-12T08:15:59Z</time>
      </trkpt>
      <trkpt lat="39.1724130" lon="-1.4615240">
        <ele>604.0</ele>
        <time>2019-05-12T08:16:00Z</time>
      </trkpt>
      <trkpt lat="39.1723690" lon="-1.4615180">
        <ele>604.0</ele>
        <time>2019-05-12T08:16:01Z</time>
      </trkpt>
      <trkpt lat="39.1723240" lon="-1.4615210">
        <ele>604.2</ele>
        <time>2019-05-12T08:16:02Z</time>
      </trkpt>
      <trkpt lat="39.1722780" lon="-1.4615300">
        <ele>604.2</ele>
        <time>2019-05-12T08:16:03Z</time>
      </trkpt>
      <trkpt lat="39.1722320" lon="-1.4615470">
        <ele>604.4</ele>
        <time>2019-05-12T08:16:04Z</time>
      </trkpt>
      <trkpt lat="39.1721850" lon="-1.4615630">
        <ele>604.4</ele>
        <time>2019-05-12T08:16:05Z</time>
      </trkpt>
      <trkpt lat="39.1721370" lon="-1.4615790">
        <ele>604.4</ele>
        <time>2019-05-12T08:16:06Z</time>
      </trkpt>
      <trkpt lat="39.1720880" lon="-1.4615950">
        <ele>604.4</ele>
        <time>2019-05-12T08:16:07Z</time>
      </trkpt>
      <trkpt lat="39.1720380" lon="-1.4616100">
        <ele>604.6</ele>
        <time>2019-05-12T08:16:08Z</time>
      </trkpt>
      <trkpt lat="39.1719880" lon="-1.4616260">
        <ele>604.8</ele>
        <time>2019-05-12T08:16:09Z</time>
      </trkpt>
      <trkpt lat="39.1719390" lon="-1.4616410">
        <ele>604.8</ele>
        <time>2019-05-12T08:16:10Z</time>
      </trkpt>
      <trkpt lat="39.1718900" lon="-1.4616560">
        <ele>604.8</ele>
        <time>2019-05-12T08:16:11Z</time>
      </trkpt>
      <trkpt lat="39.1718410" lon="-1.4616710">
        <ele>604.8</ele>
        <time>2019-05-12T08:16:12Z</time>
      </trkpt>
      <trkpt lat="39.1717920" lon="-1.4616890">
        <ele>605.0</ele>
        <time>2019-05-12T08:16:13Z</time>
      </trkpt>
      <trkpt lat="39.1717450" lon="-1.4617070">
        <ele>605.0</ele>
        <time>2019-05-12T08:16:14Z</time>
      </trkpt>
      <trkpt lat="39.1716980" lon="-1.4617230">
        <ele>605.0</ele>
        <time>2019-05-12T08:16:15Z</time>
      </trkpt>
      <trkpt lat="39.1716500" lon="-1.4617390">
        <ele>605.0</ele>
        <time>2019-05-12T08:16:16Z</time>
      </trkpt>
      <trkpt lat="39.1716030" lon="-1.4617560">
        <ele>605.2</ele>
        <time>2019-05-12T08:16:17Z</time>
      </trkpt>
      <trkpt lat="39.1715530" lon="-1.4617730">
        <ele>605.2</ele>
        <time>2019-05-12T08:16:18Z</time>
      </trkpt>
      <trkpt lat="39.1715030" lon="-1.4617890">
        <ele>605.2</ele>
        <time>2019-05-12T08:16:19Z</time>
      </trkpt>
      <trkpt lat="39.1714520" lon="-1.4618060">
        <ele>605.2</ele>
        <time>2019-05-12T08:16:20Z</time>
      </trkpt>
      <trkpt lat="39.1714010" lon="-1.4618250">
        <ele>605.2</ele>
        <time>2019-05-12T08:16:21Z</time>
      </trkpt>
      <trkpt lat="39.1713490" lon="-1.4618470">
        <ele>605.4</ele>
        <time>2019-05-12T08:16:22Z</time>
      </trkpt>
      <trkpt lat="39.1712980" lon="-1.4618720">
        <ele>605.4</ele>
        <time>2019-05-12T08:16:23Z</time>
      </trkpt>
      <trkpt lat="39.1712480" lon="-1.4618940">
        <ele>605.6</ele>
        <time>2019-05-12T08:16:24Z</time>
      </trkpt>
      <trkpt lat="39.1711970" lon="-1.4619130">
        <ele>605.8</ele>
        <time>2019-05-12T08:16:25Z</time>
      </trkpt>
      <trkpt lat="39.1711450" lon="-1.4619290">
        <ele>606.0</ele>
        <time>2019-05-12T08:16:26Z</time>
      </trkpt>
      <trkpt lat="39.1710940" lon="-1.4619450">
        <ele>606.0</ele>
        <time>2019-05-12T08:16:27Z</time>
      </trkpt>
      <trkpt lat="39.1710420" lon="-1.4619620">
        <ele>606.0</ele>
        <time>2019-05-12T08:16:28Z</time>
      </trkpt>
      <trkpt lat="39.1709910" lon="-1.4619810">
        <ele>606.2</ele>
        <time>2019-05-12T08:16:29Z</time>
      </trkpt>
      <trkpt lat="39.1709410" lon="-1.4620010">
        <ele>606.2</ele>
        <time>2019-05-12T08:16:30Z</time>
      </trkpt>
      <trkpt lat="39.1708910" lon="-1.4620220">
        <ele>606.2</ele>
        <time>2019-05-12T08:16:31Z</time>
      </trkpt>
      <trkpt lat="39.1708410" lon="-1.4620450">
        <ele>606.2</ele>
        <time>2019-05-12T08:16:32Z</time>
      </trkpt>
      <trkpt lat="39.1707890" lon="-1.4620680">
        <ele>606.2</ele>
        <time>2019-05-12T08:16:33Z</time>
      </trkpt>
      <trkpt lat="39.1707370" lon="-1.4620900">
        <ele>606.4</ele>
        <time>2019-05-12T08:16:34Z</time>
      </trkpt>
      <trkpt lat="39.1706840" lon="-1.4621100">
        <ele>606.4</ele>
        <time>2019-05-12T08:16:35Z</time>
      </trkpt>
      <trkpt lat="39.1706280" lon="-1.4621250">
        <ele>606.4</ele>
        <time>2019-05-12T08:16:36Z</time>
      </trkpt>
      <trkpt lat="39.1705720" lon="-1.4621360">
        <ele>606.4</ele>
        <time>2019-05-12T08:16:37Z</time>
      </trkpt>
      <trkpt lat="39.1705170" lon="-1.4621470">
        <ele>606.6</ele>
        <time>2019-05-12T08:16:38Z</time>
      </trkpt>
      <trkpt lat="39.1704620" lon="-1.4621570">
        <ele>606.6</ele>
        <time>2019-05-12T08:16:39Z</time>
      </trkpt>
      <trkpt lat="39.1704090" lon="-1.4621660">
        <ele>606.8</ele>
        <time>2019-05-12T08:16:40Z</time>
      </trkpt>
      <trkpt lat="39.1703550" lon="-1.4621740">
        <ele>606.8</ele>
        <time>2019-05-12T08:16:41Z</time>
      </trkpt>
      <trkpt lat="39.1703030" lon="-1.4621670">
        <ele>607.0</ele>
        <time>2019-05-12T08:16:42Z</time>
      </trkpt>
      <trkpt lat="39.1702530" lon="-1.4621490">
        <ele>607.0</ele>
        <time>2019-05-12T08:16:43Z</time>
      </trkpt>
      <trkpt lat="39.1702040" lon="-1.4621290">
        <ele>607.0</ele>
        <time>2019-05-12T08:16:44Z</time>
      </trkpt>
      <trkpt lat="39.1701560" lon="-1.4621110">
        <ele>607.0</ele>
        <time>2019-05-12T08:16:45Z</time>
      </trkpt>
      <trkpt lat="39.1701090" lon="-1.4620850">
        <ele>607.2</ele>
        <time>2019-05-12T08:16:46Z</time>
      </trkpt>
      <trkpt lat="39.1700670" lon="-1.4620450">
        <ele>607.2</ele>
        <time>2019-05-12T08:16:47Z</time>
      </trkpt>
      <trkpt lat="39.1700300" lon="-1.4620020">
        <ele>607.2</ele>
        <time>2019-05-12T08:16:48Z</time>
      </trkpt>
      <trkpt lat="39.1699940" lon="-1.4619630">
        <ele>607.4</ele>
        <time>2019-05-12T08:16:49Z</time>
      </trkpt>
      <trkpt lat="39.1699610" lon="-1.4619260">
        <ele>607.4</ele>
        <time>2019-05-12T08:16:50Z</time>
      </trkpt>
      <trkpt lat="39.1699290" lon="-1.4618870">
        <ele>607.6</ele>
        <time>2019-05-12T08:16:51Z</time>
      </trkpt>
      <trkpt lat="39.1698970" lon="-1.4618510">
        <ele>607.6</ele>
        <time>2019-05-12T08:16:52Z</time>
      </trkpt>
      <trkpt lat="39.1698680" lon="-1.4618140">
        <ele>607.6</ele>
        <time>2019-05-12T08:16:53Z</time>
      </trkpt>
      <trkpt lat="39.1698450" lon="-1.4617730">
        <ele>607.6</ele>
        <time>2019-05-12T08:16:54Z</time>
      </trkpt>
      <trkpt lat="39.1698270" lon="-1.4617330">
        <ele>607.6</ele>
        <time>2019-05-12T08:16:55Z</time>
      </trkpt>
      <trkpt lat="39.1698140" lon="-1.4616990">
        <ele>607.6</ele>
        <time>2019-05-12T08:16:56Z</time>
      </trkpt>
      <trkpt lat="39.1698040" lon="-1.4616650">
        <ele>607.8</ele>
        <time>2019-05-12T08:16:57Z</time>
      </trkpt>
      <trkpt lat="39.1697950" lon="-1.4616350">
        <ele>607.8</ele>
        <time>2019-05-12T08:16:58Z</time>
      </trkpt>
      <trkpt lat="39.1697850" lon="-1.4616090">
        <ele>608.0</ele>
        <time>2019-05-12T08:16:59Z</time>
      </trkpt>
      <trkpt lat="39.1697720" lon="-1.4615840">
        <ele>608.0</ele>
        <time>2019-05-12T08:17:00Z</time>
      </trkpt>
      <trkpt lat="39.1697560" lon="-1.4615580">
        <ele>608.0</ele>
        <time>2019-05-12T08:17:01Z</time>
      </trkpt>
      <trkpt lat="39.1697360" lon="-1.4615340">
        <ele>608.2</ele>
        <time>2019-05-12T08:17:02Z</time>
      </trkpt>
      <trkpt lat="39.1697130" lon="-1.4615080">
        <ele>608.2</ele>
        <time>2019-05-12T08:17:03Z</time>
      </trkpt>
      <trkpt lat="39.1696900" lon="-1.4614780">
        <ele>608.2</ele>
        <time>2019-05-12T08:17:04Z</time>
      </trkpt>
      <trkpt lat="39.1696650" lon="-1.4614450">
        <ele>608.4</ele>
        <time>2019-05-12T08:17:05Z</time>
      </trkpt>
      <trkpt lat="39.1696420" lon="-1.4614070">
        <ele>608.4</ele>
        <time>2019-05-12T08:17:06Z</time>
      </trkpt>
      <trkpt lat="39.1696180" lon="-1.4613690">
        <ele>608.6</ele>
        <time>2019-05-12T08:17:07Z</time>
      </trkpt>
      <trkpt lat="39.1695920" lon="-1.4613290">
        <ele>608.6</ele>
        <time>2019-05-12T08:17:08Z</time>
      </trkpt>
      <trkpt lat="39.1695650" lon="-1.4612860">
        <ele>608.8</ele>
        <time>2019-05-12T08:17:09Z</time>
      </trkpt>
      <trkpt lat="39.1695400" lon="-1.4612390">
        <ele>608.8</ele>
        <time>2019-05-12T08:17:10Z</time>
      </trkpt>
      <trkpt lat="39.1695120" lon="-1.4611920">
        <ele>609.0</ele>
        <time>2019-05-12T08:17:11Z</time>
      </trkpt>
      <trkpt lat="39.1694770" lon="-1.4611540">
        <ele>609.0</ele>
        <time>2019-05-12T08:17:12Z</time>
      </trkpt>
      <trkpt lat="39.1694420" lon="-1.4611180">
        <ele>609.0</ele>
        <time>2019-05-12T08:17:13Z</time>
      </trkpt>
      <trkpt lat="39.1694150" lon="-1.4610730">
        <ele>609.2</ele>
        <time>2019-05-12T08:17:14Z</time>
      </trkpt>
      <trkpt lat="39.1693890" lon="-1.4610260">
        <ele>609.2</ele>
        <time>2019-05-12T08:17:15Z</time>
      </trkpt>
      <trkpt lat="39.1693580" lon="-1.4609850">
        <ele>609.2</ele>
        <time>2019-05-12T08:17:16Z</time>
      </trkpt>
      <trkpt lat="39.1693270" lon="-1.4609450">
        <ele>609.2</ele>
        <time>2019-05-12T08:17:17Z</time>
      </trkpt>
      <trkpt lat="39.1693020" lon="-1.4609000">
        <ele>609.4</ele>
        <time>2019-05-12T08:17:18Z</time>
      </trkpt>
      <trkpt lat="39.1692820" lon="-1.4608510">
        <ele>609.4</ele>
        <time>2019-05-12T08:17:19Z</time>
      </trkpt>
      <trkpt lat="39.1692660" lon="-1.4607980">
        <ele>609.6</ele>
        <time>2019-05-12T08:17:20Z</time>
      </trkpt>
      <trkpt lat="39.1692480" lon="-1.4607430">
        <ele>609.6</ele>
        <time>2019-05-12T08:17:21Z</time>
      </trkpt>
      <trkpt lat="39.1692300" lon="-1.4606870">
        <ele>609.8</ele>
        <time>2019-05-12T08:17:22Z</time>
      </trkpt>
      <trkpt lat="39.1692080" lon="-1.4606330">
        <ele>610.0</ele>
        <time>2019-05-12T08:17:23Z</time>
      </trkpt>
      <trkpt lat="39.1691770" lon="-1.4605870">
        <ele>610.0</ele>
        <time>2019-05-12T08:17:24Z</time>
      </trkpt>
      <trkpt lat="39.1691380" lon="-1.4605530">
        <ele>610.2</ele>
        <time>2019-05-12T08:17:25Z</time>
      </trkpt>
      <trkpt lat="39.1690980" lon="-1.4605200">
        <ele>610.2</ele>
        <time>2019-05-12T08:17:26Z</time>
      </trkpt>
      <trkpt lat="39.1690600" lon="-1.4604890">
        <ele>610.4</ele>
        <time>2019-05-12T08:17:27Z</time>
      </trkpt>
      <trkpt lat="39.1690210" lon="-1.4604590">
        <ele>610.6</ele>
        <time>2019-05-12T08:17:28Z</time>
      </trkpt>
      <trkpt lat="39.1689830" lon="-1.4604320">
        <ele>610.6</ele>
        <time>2019-05-12T08:17:29Z</time>
      </trkpt>
      <trkpt lat="39.1689450" lon="-1.4604080">
        <ele>610.6</ele>
        <time>2019-05-12T08:17:30Z</time>
      </trkpt>
      <trkpt lat="39.1689060" lon="-1.4603820">
        <ele>610.6</ele>
        <time>2019-05-12T08:17:31Z</time>
      </trkpt>
      <trkpt lat="39.1688660" lon="-1.4603530">
        <ele>610.6</ele>
        <time>2019-05-12T08:17:32Z</time>
      </trkpt>
      <trkpt lat="39.1688230" lon="-1.4603280">
        <ele>610.8</ele>
        <time>2019-05-12T08:17:33Z</time>
      </trkpt>
      <trkpt lat="39.1687760" lon="-1.4603130">
        <ele>610.8</ele>
        <time>2019-05-12T08:17:34Z</time>
      </trkpt>
      <trkpt lat="39.1687290" lon="-1.4603020">
        <ele>610.8</ele>
        <time>2019-05-12T08:17:35Z</time>
      </trkpt>
      <trkpt lat="39.1686830" lon="-1.4602980">
        <ele>611.0</ele>
        <time>2019-05-12T08:17:36Z</time>
      </trkpt>
      <trkpt lat="39.1686410" lon="-1.4602980">
        <ele>611.0</ele>
        <time>2019-05-12T08:17:37Z</time>
      </trkpt>
      <trkpt lat="39.1686030" lon="-1.4602940">
        <ele>611.2</ele>
        <time>2019-05-12T08:17:38Z</time>
      </trkpt>
      <trkpt lat="39.1685700" lon="-1.4602840">
        <ele>611.2</ele>
        <time>2019-05-12T08:17:39Z</time>
      </trkpt>
      <trkpt lat="39.1685400" lon="-1.4602690">
        <ele>611.2</ele>
        <time>2019-05-12T08:17:40Z</time>
      </trkpt>
      <trkpt lat="39.1685060" lon="-1.4602570">
        <ele>611.2</ele>
        <time>2019-05-12T08:17:41Z</time>
      </trkpt>
      <trkpt lat="39.1684710" lon="-1.4602490">
        <ele>611.4</ele>
        <time>2019-05-12T08:17:42Z</time>
      </trkpt>
      <trkpt lat="39.1684390" lon="-1.4602430">
        <ele>611.4</ele>
        <time>2019-05-12T08:17:43Z</time>
      </trkpt>
      <trkpt lat="39.1684070" lon="-1.4602420">
        <ele>611.4</ele>
        <time>2019-05-12T08:17:44Z</time>
      </trkpt>
      <trkpt lat="39.1683750" lon="-1.4602420">
        <ele>611.4</ele>
        <time>2019-05-12T08:17:45Z</time>
      </trkpt>
      <trkpt lat="39.1683460" lon="-1.4602410">
        <ele>611.4</ele>
        <time>2019-05-12T08:17:46Z</time>
      </trkpt>
      <trkpt lat="39.1683120" lon="-1.4602480">
        <ele>611.4</ele>
        <time>2019-05-12T08:17:47Z</time>
      </trkpt>
      <trkpt lat="39.1682750" lon="-1.4602580">
        <ele>611.4</ele>
        <time>2019-05-12T08:17:48Z</time>
      </trkpt>
      <trkpt lat="39.1682360" lon="-1.4602730">
        <ele>611.6</ele>
        <time>2019-05-12T08:17:49Z</time>
      </trkpt>
      <trkpt lat="39.1681970" lon="-1.4602910">
        <ele>611.6</ele>
        <time>2019-05-12T08:17:50Z</time>
      </trkpt>
      <trkpt lat="39.1681600" lon="-1.4603130">
        <ele>611.6</ele>
        <time>2019-05-12T08:17:51Z</time>
      </trkpt>
      <trkpt lat="39.1681270" lon="-1.4603390">
        <ele>611.6</ele>
        <time>2019-05-12T08:17:52Z</time>
      </trkpt>
      <trkpt lat="39.1680980" lon="-1.4603630">
        <ele>611.8</ele>
        <time>2019-05-12T08:17:53Z</time>
      </trkpt>
      <trkpt lat="39.1680660" lon="-1.4603880">
        <ele>611.8</ele>
        <time>2019-05-12T08:17:54Z</time>
      </trkpt>
      <trkpt lat="39.1680340" lon="-1.4604100">
        <ele>611.8</ele>
        <time>2019-05-12T08:17:55Z</time>
      </trkpt>
      <trkpt lat="39.1679990" lon="-1.4604260">
        <ele>612.0</ele>
        <time>2019-05-12T08:17:56Z</time>
      </trkpt>
      <trkpt lat="39.1679620" lon="-1.4604450">
        <ele>612.0</ele>
        <time>2019-05-12T08:17:57Z</time>
      </trkpt>
      <trkpt lat="39.1679270" lon="-1.4604660">
        <ele>612.0</ele>
        <time>2019-05-12T08:17:58Z</time>
      </trkpt>
      <trkpt lat="39.1678900" lon="-1.4604880">
        <ele>612.2</ele>
        <time>2019-05-12T08:17:59Z</time>
      </trkpt>
      <trkpt lat="39.1678530" lon="-1.4605100">
        <ele>612.4</ele>
        <time>2019-05-12T08:18:00Z</time>
      </trkpt>
      <trkpt lat="39.1678140" lon="-1.4605330">
        <ele>612.6</ele>
        <time>2019-05-12T08:18:01Z</time>
      </trkpt>
      <trkpt lat="39.1677740" lon="-1.4605580">
        <ele>612.6</ele>
        <time>2019-05-12T08:18:02Z</time>
      </trkpt>
      <trkpt lat="39.1677350" lon="-1.4605820">
        <ele>612.8</ele>
        <time>2019-05-12T08:18:03Z</time>
      </trkpt>
      <trkpt lat="39.1676920" lon="-1.4606070">
        <ele>612.8</ele>
        <time>2019-05-12T08:18:04Z</time>
      </trkpt>
      <trkpt lat="39.1676480" lon="-1.4606340">
        <ele>613.0</ele>
        <time>2019-05-12T08:18:05Z</time>
      </trkpt>
      <trkpt lat="39.1676020" lon="-1.4606570">
        <ele>613.0</ele>
        <time>2019-05-12T08:18:06Z</time>
      </trkpt>
      <trkpt lat="39.1675530" lon="-1.4606700">
        <ele>613.2</ele>
        <time>2019-05-12T08:18:07Z</time>
      </trkpt>
      <trkpt lat="39.1675030" lon="-1.4606720">
        <ele>613.2</ele>
        <time>2019-05-12T08:18:08Z</time>
      </trkpt>
      <trkpt lat="39.1674540" lon="-1.4606630">
        <ele>613.2</ele>
        <time>2019-05-12T08:18:09Z</time>
      </trkpt>
      <trkpt lat="39.1674080" lon="-1.4606450">
        <ele>613.2</ele>
        <time>2019-05-12T08:18:10Z</time>
      </trkpt>
      <trkpt lat="39.1673690" lon="-1.4606210">
        <ele>613.4</ele>
        <time>2019-05-12T08:18:11Z</time>
      </trkpt>
      <trkpt lat="39.1673400" lon="-1.4605950">
        <ele>613.4</ele>
        <time>2019-05-12T08:18:12Z</time>
      </trkpt>
      <trkpt lat="39.1673180" lon="-1.4605680">
        <ele>613.4</ele>
        <time>2019-05-12T08:18:13Z</time>
      </trkpt>
      <trkpt lat="39.1672970" lon="-1.4605400">
        <ele>613.4</ele>
        <time>2019-05-12T08:18:14Z</time>
      </trkpt>
      <trkpt lat="39.1672840" lon="-1.4605090">
        <ele>613.4</ele>
        <time>2019-05-12T08:18:15Z</time>
      </trkpt>
      <trkpt lat="39.1672780" lon="-1.4604760">
        <ele>613.4</ele>
        <time>2019-05-12T08:18:16Z</time>
      </trkpt>
      <trkpt lat="39.1672770" lon="-1.4604450">
        <ele>613.6</ele>
        <time>2019-05-12T08:18:17Z</time>
      </trkpt>
      <trkpt lat="39.1672690" lon="-1.4604270">
        <ele>613.6</ele>
        <time>2019-05-12T08:18:18Z</time>
      </trkpt>
      <trkpt lat="39.1672590" lon="-1.4604200">
        <ele>613.8</ele>
        <time>2019-05-12T08:18:19Z</time>
      </trkpt>
      <trkpt lat="39.1672450" lon="-1.4604100">
        <ele>614.2</ele>
        <time>2019-05-12T08:18:20Z</time>
      </trkpt>
      <trkpt lat="39.1672290" lon="-1.4603910">
        <ele>614.2</ele>
        <time>2019-05-12T08:18:21Z</time>
      </trkpt>
      <trkpt lat="39.1672130" lon="-1.4603600">
        <ele>614.2</ele>
        <time>2019-05-12T08:18:22Z</time>
      </trkpt>
      <trkpt lat="39.1671960" lon="-1.4603240">
        <ele>614.2</ele>
        <time>2019-05-12T08:18:23Z</time>
      </trkpt>
      <trkpt lat="39.1671810" lon="-1.4602860">
        <ele>614.4</ele>
        <time>2019-05-12T08:18:24Z</time>
      </trkpt>
      <trkpt lat="39.1671720" lon="-1.4602470">
        <ele>614.6</ele>
        <time>2019-05-12T08:18:25Z</time>
      </trkpt>
      <trkpt lat="39.1671660" lon="-1.4602130">
        <ele>615.0</ele>
        <time>2019-05-12T08:18:26Z</time>
      </trkpt>
      <trkpt lat="39.1671580" lon="-1.4601800">
        <ele>615.0</ele>
        <time>2019-05-12T08:18:27Z</time>
      </trkpt>
      <trkpt lat="39.1671460" lon="-1.4601480">
        <ele>615.2</ele>
        <time>2019-05-12T08:18:28Z</time>
      </trkpt>
      <trkpt lat="39.1671300" lon="-1.4601210">
        <ele>615.4</ele>
        <time>2019-05-12T08:18:29Z</time>
      </trkpt>
      <trkpt lat="39.1671140" lon="-1.4600880">
        <ele>615.4</ele>
        <time>2019-05-12T08:18:30Z</time>
      </trkpt>
      <trkpt lat="39.1671000" lon="-1.4600540">
        <ele>615.4</ele>
        <time>2019-05-12T08:18:31Z</time>
      </trkpt>
      <trkpt lat="39.1670840" lon="-1.4600190">
        <ele>615.6</ele>
        <time>2019-05-12T08:18:32Z</time>
      </trkpt>
      <trkpt lat="39.1670630" lon="-1.4599900">
        <ele>615.6</ele>
        <time>2019-05-12T08:18:33Z</time>
      </trkpt>
      <trkpt lat="39.1670360" lon="-1.4599670">
        <ele>615.6</ele>
        <time>2019-05-12T08:18:34Z</time>
      </trkpt>
      <trkpt lat="39.1670010" lon="-1.4599440">
        <ele>615.8</ele>
        <time>2019-05-12T08:18:35Z</time>
      </trkpt>
      <trkpt lat="39.1669700" lon="-1.4599190">
        <ele>615.8</ele>
        <time>2019-05-12T08:18:36Z</time>
      </trkpt>
      <trkpt lat="39.1669460" lon="-1.4598790">
        <ele>615.8</ele>
        <time>2019-05-12T08:18:37Z</time>
      </trkpt>
      <trkpt lat="39.1669360" lon="-1.4598280">
        <ele>616.0</ele>
        <time>2019-05-12T08:18:38Z</time>
      </trkpt>
      <trkpt lat="39.1669350" lon="-1.4597750">
        <ele>616.0</ele>
        <time>2019-05-12T08:18:39Z</time>
      </trkpt>
      <trkpt lat="39.1669390" lon="-1.4597200">
        <ele>616.0</ele>
        <time>2019-05-12T08:18:40Z</time>
      </trkpt>
      <trkpt lat="39.1669420" lon="-1.4596650">
        <ele>616.0</ele>
        <time>2019-05-12T08:18:41Z</time>
      </trkpt>
      <trkpt lat="39.1669440" lon="-1.4596080">
        <ele>616.0</ele>
        <time>2019-05-12T08:18:42Z</time>
      </trkpt>
      <trkpt lat="39.1669470" lon="-1.4595490">
        <ele>616.2</ele>
        <time>2019-05-12T08:18:43Z</time>
      </trkpt>
      <trkpt lat="39.1669500" lon="-1.4594910">
        <ele>616.2</ele>
        <time>2019-05-12T08:18:44Z</time>
      </trkpt>
      <trkpt lat="39.1669550" lon="-1.4594300">
        <ele>616.2</ele>
        <time>2019-05-12T08:18:45Z</time>
      </trkpt>
      <trkpt lat="39.1669590" lon="-1.4593670">
        <ele>616.2</ele>
        <time>2019-05-12T08:18:46Z</time>
      </trkpt>
      <trkpt lat="39.1669640" lon="-1.4593020">
        <ele>616.2</ele>
        <time>2019-05-12T08:18:47Z</time>
      </trkpt>
      <trkpt lat="39.1669700" lon="-1.4592360">
        <ele>616.2</ele>
        <time>2019-05-12T08:18:48Z</time>
      </trkpt>
      <trkpt lat="39.1669760" lon="-1.4591710">
        <ele>616.2</ele>
        <time>2019-05-12T08:18:49Z</time>
      </trkpt>
      <trkpt lat="39.1669800" lon="-1.4591070">
        <ele>616.2</ele>
        <time>2019-05-12T08:18:50Z</time>
      </trkpt>
      <trkpt lat="39.1669850" lon="-1.4590470">
        <ele>616.2</ele>
        <time>2019-05-12T08:18:51Z</time>
      </trkpt>
      <trkpt lat="39.1669960" lon="-1.4589900">
        <ele>616.2</ele>
        <time>2019-05-12T08:18:52Z</time>
      </trkpt>
      <trkpt lat="39.1670060" lon="-1.4589380">
        <ele>616.2</ele>
        <time>2019-05-12T08:18:53Z</time>
      </trkpt>
      <trkpt lat="39.1670110" lon="-1.4588850">
        <ele>616.4</ele>
        <time>2019-05-12T08:18:54Z</time>
      </trkpt>
      <trkpt lat="39.1670090" lon="-1.4588320">
        <ele>616.2</ele>
        <time>2019-05-12T08:18:55Z</time>
      </trkpt>
      <trkpt lat="39.1670030" lon="-1.4587770">
        <ele>616.2</ele>
        <time>2019-05-12T08:18:56Z</time>
      </trkpt>
      <trkpt lat="39.1669990" lon="-1.4587220">
        <ele>616.4</ele>
        <time>2019-05-12T08:18:57Z</time>
      </trkpt>
      <trkpt lat="39.1669980" lon="-1.4586670">
        <ele>616.2</ele>
        <time>2019-05-12T08:18:58Z</time>
      </trkpt>
      <trkpt lat="39.1669980" lon="-1.4586120">
        <ele>616.4</ele>
        <time>2019-05-12T08:18:59Z</time>
      </trkpt>
      <trkpt lat="39.1669990" lon="-1.4585570">
        <ele>616.4</ele>
        <time>2019-05-12T08:19:00Z</time>
      </trkpt>
      <trkpt lat="39.1670020" lon="-1.4585010">
        <ele>616.4</ele>
        <time>2019-05-12T08:19:01Z</time>
      </trkpt>
      <trkpt lat="39.1670040" lon="-1.4584460">
        <ele>616.4</ele>
        <time>2019-05-12T08:19:02Z</time>
      </trkpt>
      <trkpt lat="39.1670030" lon="-1.4583880">
        <ele>616.4</ele>
        <time>2019-05-12T08:19:03Z</time>
      </trkpt>
      <trkpt lat="39.1670020" lon="-1.4583290">
        <ele>616.4</ele>
        <time>2019-05-12T08:19:04Z</time>
      </trkpt>
      <trkpt lat="39.1669990" lon="-1.4582700">
        <ele>616.6</ele>
        <time>2019-05-12T08:19:05Z</time>
      </trkpt>
      <trkpt lat="39.1669960" lon="-1.4582130">
        <ele>616.6</ele>
        <time>2019-05-12T08:19:06Z</time>
      </trkpt>
      <trkpt lat="39.1669920" lon="-1.4581560">
        <ele>616.8</ele>
        <time>2019-05-12T08:19:07Z</time>
      </trkpt>
      <trkpt lat="39.1669860" lon="-1.4581020">
        <ele>616.8</ele>
        <time>2019-05-12T08:19:08Z</time>
      </trkpt>
      <trkpt lat="39.1669870" lon="-1.4580500">
        <ele>616.8</ele>
        <time>2019-05-12T08:19:09Z</time>
      </trkpt>
      <trkpt lat="39.1669940" lon="-1.4580010">
        <ele>616.8</ele>
        <time>2019-05-12T08:19:10Z</time>
      </trkpt>
      <trkpt lat="39.1669960" lon="-1.4579550">
        <ele>617.0</ele>
        <time>2019-05-12T08:19:11Z</time>
      </trkpt>
      <trkpt lat="39.1669840" lon="-1.4579140">
        <ele>617.0</ele>
        <time>2019-05-12T08:19:12Z</time>
      </trkpt>
      <trkpt lat="39.1669720" lon="-1.4578770">
        <ele>617.2</ele>
        <time>2019-05-12T08:19:13Z</time>
      </trkpt>
      <trkpt lat="39.1669620" lon="-1.4578400">
        <ele>617.2</ele>
        <time>2019-05-12T08:19:14Z</time>
      </trkpt>
      <trkpt lat="39.1669550" lon="-1.4578090">
        <ele>617.2</ele>
        <time>2019-05-12T08:19:15Z</time>
      </trkpt>
      <trkpt lat="39.1669490" lon="-1.4577790">
        <ele>617.2</ele>
        <time>2019-05-12T08:19:16Z</time>
      </trkpt>
      <trkpt lat="39.1669420" lon="-1.4577460">
        <ele>617.4</ele>
        <time>2019-05-12T08:19:17Z</time>
      </trkpt>
      <trkpt lat="39.1669330" lon="-1.4577110">
        <ele>617.4</ele>
        <time>2019-05-12T08:19:18Z</time>
      </trkpt>
      <trkpt lat="39.1669220" lon="-1.4576720">
        <ele>617.4</ele>
        <time>2019-05-12T08:19:19Z</time>
      </trkpt>
      <trkpt lat="39.1669100" lon="-1.4576290">
        <ele>617.6</ele>
        <time>2019-05-12T08:19:20Z</time>
      </trkpt>
      <trkpt lat="39.1668950" lon="-1.4575850">
        <ele>617.6</ele>
        <time>2019-05-12T08:19:21Z</time>
      </trkpt>
      <trkpt lat="39.1668850" lon="-1.4575390">
        <ele>617.8</ele>
        <time>2019-05-12T08:19:22Z</time>
      </trkpt>
      <trkpt lat="39.1668790" lon="-1.4574890">
        <ele>617.8</ele>
        <time>2019-05-12T08:19:23Z</time>
      </trkpt>
      <trkpt lat="39.1668700" lon="-1.4574390">
        <ele>617.8</ele>
        <time>2019-05-12T08:19:24Z</time>
      </trkpt>
      <trkpt lat="39.1668590" lon="-1.4573900">
        <ele>618.0</ele>
        <time>2019-05-12T08:19:25Z</time>
      </trkpt>
      <trkpt lat="39.1668500" lon="-1.4573380">
        <ele>618.2</ele>
        <time>2019-05-12T08:19:26Z</time>
      </trkpt>
      <trkpt lat="39.1668410" lon="-1.4572830">
        <ele>618.4</ele>
        <time>2019-05-12T08:19:27Z</time>
      </trkpt>
      <trkpt lat="39.1668330" lon="-1.4572280">
        <ele>618.4</ele>
        <time>2019-05-12T08:19:28Z</time>
      </trkpt>
      <trkpt lat="39.1668240" lon="-1.4571710">
        <ele>618.4</ele>
        <time>2019-05-12T08:19:29Z</time>
      </trkpt>
      <trkpt lat="39.1668130" lon="-1.4571150">
        <ele>618.6</ele>
        <time>2019-05-12T08:19:30Z</time>
      </trkpt>
      <trkpt lat="39.1668020" lon="-1.4570580">
        <ele>618.6</ele>
        <time>2019-05-12T08:19:31Z</time>
      </trkpt>
      <trkpt lat="39.1667940" lon="-1.4570010">
        <ele>618.6</ele>
        <time>2019-05-12T08:19:32Z</time>
      </trkpt>
      <trkpt lat="39.1667870" lon="-1.4569450">
        <ele>618.6</ele>
        <time>2019-05-12T08:19:33Z</time>
      </trkpt>
      <trkpt lat="39.1667800" lon="-1.4568880">
        <ele>618.8</ele>
        <time>2019-05-12T08:19:34Z</time>
      </trkpt>
      <trkpt lat="39.1667700" lon="-1.4568330">
        <ele>618.8</ele>
        <time>2019-05-12T08:19:35Z</time>
      </trkpt>
      <trkpt lat="39.1667620" lon="-1.4567760">
        <ele>618.8</ele>
        <time>2019-05-12T08:19:36Z</time>
      </trkpt>
      <trkpt lat="39.1667550" lon="-1.4567180">
        <ele>618.8</ele>
        <time>2019-05-12T08:19:37Z</time>
      </trkpt>
      <trkpt lat="39.1667460" lon="-1.4566620">
        <ele>618.8</ele>
        <time>2019-05-12T08:19:38Z</time>
      </trkpt>
      <trkpt lat="39.1667310" lon="-1.4566090">
        <ele>618.8</ele>
        <time>2019-05-12T08:19:39Z</time>
      </trkpt>
      <trkpt lat="39.1667120" lon="-1.4565570">
        <ele>619.0</ele>
        <time>2019-05-12T08:19:40Z</time>
      </trkpt>
      <trkpt lat="39.1666950" lon="-1.4565060">
        <ele>619.0</ele>
        <time>2019-05-12T08:19:41Z</time>
      </trkpt>
      <trkpt lat="39.1666810" lon="-1.4564530">
        <ele>619.0</ele>
        <time>2019-05-12T08:19:42Z</time>
      </trkpt>
      <trkpt lat="39.1666700" lon="-1.4564000">
        <ele>619.2</ele>
        <time>2019-05-12T08:19:43Z</time>
      </trkpt>
      <trkpt lat="39.1666590" lon="-1.4563470">
        <ele>619.2</ele>
        <time>2019-05-12T08:19:44Z</time>
      </trkpt>
      <trkpt lat="39.1666460" lon="-1.4562940">
        <ele>619.2</ele>
        <time>2019-05-12T08:19:45Z</time>
      </trkpt>
      <trkpt lat="39.1666320" lon="-1.4562420">
        <ele>619.2</ele>
        <time>2019-05-12T08:19:46Z</time>
      </trkpt>
      <trkpt lat="39.1666150" lon="-1.4561900">
        <ele>619.2</ele>
        <time>2019-05-12T08:19:47Z</time>
      </trkpt>
      <trkpt lat="39.1666040" lon="-1.4561370">
        <ele>619.2</ele>
        <time>2019-05-12T08:19:48Z</time>
      </trkpt>
      <trkpt lat="39.1665920" lon="-1.4560830">
        <ele>619.4</ele>
        <time>2019-05-12T08:19:49Z</time>
      </trkpt>
      <trkpt lat="39.1665740" lon="-1.4560320">
        <ele>619.4</ele>
        <time>2019-05-12T08:19:50Z</time>
      </trkpt>
      <trkpt lat="39.1665560" lon="-1.4559820">
        <ele>619.6</ele>
        <time>2019-05-12T08:19:51Z</time>
      </trkpt>
      <trkpt lat="39.1665370" lon="-1.4559320">
        <ele>619.6</ele>
        <time>2019-05-12T08:19:52Z</time>
      </trkpt>
      <trkpt lat="39.1665180" lon="-1.4558810">
        <ele>619.8</ele>
        <time>2019-05-12T08:19:53Z</time>
      </trkpt>
      <trkpt lat="39.1665000" lon="-1.4558290">
        <ele>619.8</ele>
        <time>2019-05-12T08:19:54Z</time>
      </trkpt>
      <trkpt lat="39.1664820" lon="-1.4557760">
        <ele>619.8</ele>
        <time>2019-05-12T08:19:55Z</time>
      </trkpt>
      <trkpt lat="39.1664670" lon="-1.4557220">
        <ele>619.8</ele>
        <time>2019-05-12T08:19:56Z</time>
      </trkpt>
      <trkpt lat="39.1664560" lon="-1.4556650">
        <ele>620.0</ele>
        <time>2019-05-12T08:19:57Z</time>
      </trkpt>
      <trkpt lat="39.1664450" lon="-1.4556080">
        <ele>620.0</ele>
        <time>2019-05-12T08:19:58Z</time>
      </trkpt>
      <trkpt lat="39.1664380" lon="-1.4555510">
        <ele>620.0</ele>
        <time>2019-05-12T08:19:59Z</time>
      </trkpt>
      <trkpt lat="39.1664290" lon="-1.4554960">
        <ele>620.0</ele>
        <time>2019-05-12T08:20:00Z</time>
      </trkpt>
      <trkpt lat="39.1664150" lon="-1.4554390">
        <ele>620.0</ele>
        <time>2019-05-12T08:20:01Z</time>
      </trkpt>
      <trkpt lat="39.1664010" lon="-1.4553830">
        <ele>620.0</ele>
        <time>2019-05-12T08:20:02Z</time>
      </trkpt>
      <trkpt lat="39.1663880" lon="-1.4553270">
        <ele>620.0</ele>
        <time>2019-05-12T08:20:03Z</time>
      </trkpt>
      <trkpt lat="39.1663690" lon="-1.4552730">
        <ele>620.2</ele>
        <time>2019-05-12T08:20:04Z</time>
      </trkpt>
      <trkpt lat="39.1663460" lon="-1.4552210">
        <ele>620.2</ele>
        <time>2019-05-12T08:20:05Z</time>
      </trkpt>
      <trkpt lat="39.1663210" lon="-1.4551720">
        <ele>620.2</ele>
        <time>2019-05-12T08:20:06Z</time>
      </trkpt>
      <trkpt lat="39.1662940" lon="-1.4551190">
        <ele>620.2</ele>
        <time>2019-05-12T08:20:07Z</time>
      </trkpt>
      <trkpt lat="39.1662730" lon="-1.4550700">
        <ele>620.2</ele>
        <time>2019-05-12T08:20:08Z</time>
      </trkpt>
      <trkpt lat="39.1662540" lon="-1.4550170">
        <ele>620.4</ele>
        <time>2019-05-12T08:20:09Z</time>
      </trkpt>
      <trkpt lat="39.1662370" lon="-1.4549620">
        <ele>620.4</ele>
        <time>2019-05-12T08:20:10Z</time>
      </trkpt>
      <trkpt lat="39.1662210" lon="-1.4549070">
        <ele>620.4</ele>
        <time>2019-05-12T08:20:11Z</time>
      </trkpt>
      <trkpt lat="39.1662060" lon="-1.4548560">
        <ele>620.4</ele>
        <time>2019-05-12T08:20:12Z</time>
      </trkpt>
      <trkpt lat="39.1661860" lon="-1.4548190">
        <ele>620.4</ele>
        <time>2019-05-12T08:20:13Z</time>
      </trkpt>
      <trkpt lat="39.1661640" lon="-1.4547980">
        <ele>620.6</ele>
        <time>2019-05-12T08:20:14Z</time>
      </trkpt>
      <trkpt lat="39.1661450" lon="-1.4547790">
        <ele>620.8</ele>
        <time>2019-05-12T08:20:15Z</time>
      </trkpt>
      <trkpt lat="39.1661290" lon="-1.4547530">
        <ele>621.0</ele>
        <time>2019-05-12T08:20:16Z</time>
      </trkpt>
      <trkpt lat="39.1661100" lon="-1.4547260">
        <ele>621.0</ele>
        <time>2019-05-12T08:20:17Z</time>
      </trkpt>
      <trkpt lat="39.1660910" lon="-1.4546990">
        <ele>621.0</ele>
        <time>2019-05-12T08:20:18Z</time>
      </trkpt>
      <trkpt lat="39.1660700" lon="-1.4546750">
        <ele>621.0</ele>
        <time>2019-05-12T08:20:19Z</time>
      </trkpt>
      <trkpt lat="39.1660480" lon="-1.4546550">
        <ele>621.2</ele>
        <time>2019-05-12T08:20:20Z</time>
      </trkpt>
      <trkpt lat="39.1660270" lon="-1.4546380">
        <ele>621.4</ele>
        <time>2019-05-12T08:20:21Z</time>
      </trkpt>
      <trkpt lat="39.1660120" lon="-1.4546260">
        <ele>621.2</ele>
        <time>2019-05-12T08:20:22Z</time>
      </trkpt>
      <trkpt lat="39.1659990" lon="-1.4546140">
        <ele>621.4</ele>
        <time>2019-05-12T08:20:23Z</time>
      </trkpt>
      <trkpt lat="39.1659850" lon="-1.4545970">
        <ele>621.4</ele>
        <time>2019-05-12T08:20:24Z</time>
      </trkpt>
      <trkpt lat="39.1659670" lon="-1.4545740">
        <ele>621.4</ele>
        <time>2019-05-12T08:20:25Z</time>
      </trkpt>
      <trkpt lat="39.1659460" lon="-1.4545450">
        <ele>621.4</ele>
        <time>2019-05-12T08:20:26Z</time>
      </trkpt>
      <trkpt lat="39.1659210" lon="-1.4545160">
        <ele>621.4</ele>
        <time>2019-05-12T08:20:27Z</time>
      </trkpt>
      <trkpt lat="39.1658930" lon="-1.4544880">
        <ele>621.4</ele>
        <time>2019-05-12T08:20:28Z</time>
      </trkpt>
      <trkpt lat="39.1658640" lon="-1.4544560">
        <ele>621.6</ele>
        <time>2019-05-12T08:20:29Z</time>
      </trkpt>
      <trkpt lat="39.1658350" lon="-1.4544210">
        <ele>621.8</ele>
        <time>2019-05-12T08:20:30Z</time>
      </trkpt>
      <trkpt lat="39.1658040" lon="-1.4543850">
        <ele>621.8</ele>
        <time>2019-05-12T08:20:31Z</time>
      </trkpt>
      <trkpt lat="39.1657690" lon="-1.4543510">
        <ele>622.0</ele>
        <time>2019-05-12T08:20:32Z</time>
      </trkpt>
      <trkpt lat="39.1657340" lon="-1.4543180">
        <ele>622.0</ele>
        <time>2019-05-12T08:20:33Z</time>
      </trkpt>
      <trkpt lat="39.1656950" lon="-1.4542880">
        <ele>622.2</ele>
        <time>2019-05-12T08:20:34Z</time>
      </trkpt>
      <trkpt lat="39.1656530" lon="-1.4542650">
        <ele>622.4</ele>
        <time>2019-05-12T08:20:35Z</time>
      </trkpt>
      <trkpt lat="39.1656070" lon="-1.4542570">
        <ele>622.4</ele>
        <time>2019-05-12T08:20:36Z</time>
      </trkpt>
      <trkpt lat="39.1655580" lon="-1.4542540">
        <ele>622.4</ele>
        <time>2019-05-12T08:20:37Z</time>
      </trkpt>
      <trkpt lat="39.1655090" lon="-1.4542490">
        <ele>622.6</ele>
        <time>2019-05-12T08:20:38Z</time>
      </trkpt>
      <trkpt lat="39.1654590" lon="-1.4542430">
        <ele>622.6</ele>
        <time>2019-05-12T08:20:39Z</time>
      </trkpt>
      <trkpt lat="39.1654070" lon="-1.4542390">
        <ele>622.8</ele>
        <time>2019-05-12T08:20:40Z</time>
      </trkpt>
      <trkpt lat="39.1653550" lon="-1.4542440">
        <ele>622.8</ele>
        <time>2019-05-12T08:20:41Z</time>
      </trkpt>
      <trkpt lat="39.1653050" lon="-1.4542590">
        <ele>622.8</ele>
        <time>2019-05-12T08:20:42Z</time>
      </trkpt>
      <trkpt lat="39.1652550" lon="-1.4542770">
        <ele>622.8</ele>
        <time>2019-05-12T08:20:43Z</time>
      </trkpt>
      <trkpt lat="39.1652100" lon="-1.4542980">
        <ele>623.0</ele>
        <time>2019-05-12T08:20:44Z</time>
      </trkpt>
      <trkpt lat="39.1651710" lon="-1.4543280">
        <ele>623.0</ele>
        <time>2019-05-12T08:20:45Z</time>
      </trkpt>
      <trkpt lat="39.1651360" lon="-1.4543610">
        <ele>623.0</ele>
        <time>2019-05-12T08:20:46Z</time>
      </trkpt>
      <trkpt lat="39.1651000" lon="-1.4543920">
        <ele>623.0</ele>
        <time>2019-05-12T08:20:47Z</time>
      </trkpt>
      <trkpt lat="39.1650650" lon="-1.4544230">
        <ele>623.0</ele>
        <time>2019-05-12T08:20:48Z</time>
      </trkpt>
      <trkpt lat="39.1650310" lon="-1.4544540">
        <ele>623.0</ele>
        <time>2019-05-12T08:20:49Z</time>
      </trkpt>
      <trkpt lat="39.1649990" lon="-1.4544880">
        <ele>623.0</ele>
        <time>2019-05-12T08:20:50Z</time>
      </trkpt>
      <trkpt lat="39.1649670" lon="-1.4545230">
        <ele>623.0</ele>
        <time>2019-05-12T08:20:51Z</time>
      </trkpt>
      <trkpt lat="39.1649310" lon="-1.4545580">
        <ele>623.2</ele>
        <time>2019-05-12T08:20:52Z</time>
      </trkpt>
      <trkpt lat="39.1648930" lon="-1.4545880">
        <ele>623.2</ele>
        <time>2019-05-12T08:20:53Z</time>
      </trkpt>
      <trkpt lat="39.1648550" lon="-1.4546140">
        <ele>623.2</ele>
        <time>2019-05-12T08:20:54Z</time>
      </trkpt>
      <trkpt lat="39.1648150" lon="-1.4546410">
        <ele>623.4</ele>
        <time>2019-05-12T08:20:55Z</time>
      </trkpt>
      <trkpt lat="39.1647760" lon="-1.4546710">
        <ele>623.4</ele>
        <time>2019-05-12T08:20:56Z</time>
      </trkpt>
      <trkpt lat="39.1647380" lon="-1.4547030">
        <ele>623.6</ele>
        <time>2019-05-12T08:20:57Z</time>
      </trkpt>
      <trkpt lat="39.1647010" lon="-1.4547380">
        <ele>623.8</ele>
        <time>2019-05-12T08:20:58Z</time>
      </trkpt>
      <trkpt lat="39.1646640" lon="-1.4547730">
        <ele>623.8</ele>
        <time>2019-05-12T08:20:59Z</time>
      </trkpt>
      <trkpt lat="39.1646290" lon="-1.4548060">
        <ele>624.0</ele>
        <time>2019-05-12T08:21:00Z</time>
      </trkpt>
      <trkpt lat="39.1645940" lon="-1.4548390">
        <ele>624.0</ele>
        <time>2019-05-12T08:21:01Z</time>
      </trkpt>
      <trkpt lat="39.1645610" lon="-1.4548760">
        <ele>624.0</ele>
        <time>2019-05-12T08:21:02Z</time>
      </trkpt>
      <trkpt lat="39.1645290" lon="-1.4549120">
        <ele>624.2</ele>
        <time>2019-05-12T08:21:03Z</time>
      </trkpt>
      <trkpt lat="39.1644940" lon="-1.4549420">
        <ele>624.2</ele>
        <time>2019-05-12T08:21:04Z</time>
      </trkpt>
      <trkpt lat="39.1644580" lon="-1.4549710">
        <ele>624.2</ele>
        <time>2019-05-12T08:21:05Z</time>
      </trkpt>
      <trkpt lat="39.1644320" lon="-1.4550030">
        <ele>624.2</ele>
        <time>2019-05-12T08:21:06Z</time>
      </trkpt>
      <trkpt lat="39.1644110" lon="-1.4550350">
        <ele>624.4</ele>
        <time>2019-05-12T08:21:07Z</time>
      </trkpt>
      <trkpt lat="39.1643860" lon="-1.4550650">
        <ele>624.4</ele>
        <time>2019-05-12T08:21:08Z</time>
      </trkpt>
      <trkpt lat="39.1643640" lon="-1.4550970">
        <ele>624.4</ele>
        <time>2019-05-12T08:21:09Z</time>
      </trkpt>
      <trkpt lat="39.1643460" lon="-1.4551270">
        <ele>624.4</ele>
        <time>2019-05-12T08:21:10Z</time>
      </trkpt>
      <trkpt lat="39.1643360" lon="-1.4551510">
        <ele>624.4</ele>
        <time>2019-05-12T08:21:11Z</time>
      </trkpt>
      <trkpt lat="39.1643280" lon="-1.4551680">
        <ele>624.6</ele>
        <time>2019-05-12T08:21:12Z</time>
      </trkpt>
      <trkpt lat="39.1643190" lon="-1.4551800">
        <ele>624.6</ele>
        <time>2019-05-12T08:21:13Z</time>
      </trkpt>
      <trkpt lat="39.1643060" lon="-1.4551860">
        <ele>624.6</ele>
        <time>2019-05-12T08:21:14Z</time>
      </trkpt>
      <trkpt lat="39.1642910" lon="-1.4551900">
        <ele>624.8</ele>
        <time>2019-05-12T08:21:15Z</time>
      </trkpt>
      <trkpt lat="39.1642760" lon="-1.4551940">
        <ele>625.0</ele>
        <time>2019-05-12T08:21:16Z</time>
      </trkpt>
      <trkpt lat="39.1642600" lon="-1.4551990">
        <ele>625.2</ele>
        <time>2019-05-12T08:21:17Z</time>
      </trkpt>
      <trkpt lat="39.1642450" lon="-1.4552030">
        <ele>625.2</ele>
        <time>2019-05-12T08:21:18Z</time>
      </trkpt>
      <trkpt lat="39.1642320" lon="-1.4552120">
        <ele>625.2</ele>
        <time>2019-05-12T08:21:19Z</time>
      </trkpt>
      <trkpt lat="39.1642190" lon="-1.4552280">
        <ele>625.2</ele>
        <time>2019-05-12T08:21:20Z</time>
      </trkpt>
      <trkpt lat="39.1641990" lon="-1.4552410">
        <ele>625.4</ele>
        <time>2019-05-12T08:21:21Z</time>
      </trkpt>
      <trkpt lat="39.1641760" lon="-1.4552540">
        <ele>625.4</ele>
        <time>2019-05-12T08:21:22Z</time>
      </trkpt>
      <trkpt lat="39.1641530" lon="-1.4552700">
        <ele>625.4</ele>
        <time>2019-05-12T08:21:23Z</time>
      </trkpt>
      <trkpt lat="39.1641340" lon="-1.4552900">
        <ele>625.4</ele>
        <time>2019-05-12T08:21:24Z</time>
      </trkpt>
      <trkpt lat="39.1641170" lon="-1.4553070">
        <ele>625.6</ele>
        <time>2019-05-12T08:21:25Z</time>
      </trkpt>
      <trkpt lat="39.1641030" lon="-1.4553230">
        <ele>625.8</ele>
        <time>2019-05-12T08:21:26Z</time>
      </trkpt>
      <trkpt lat="39.1640950" lon="-1.4553460">
        <ele>626.0</ele>
        <time>2019-05-12T08:21:27Z</time>
      </trkpt>
      <trkpt lat="39.1640980" lon="-1.4553750">
        <ele>626.0</ele>
        <time>2019-05-12T08:21:28Z</time>
      </trkpt>
      <trkpt lat="39.1641080" lon="-1.4554030">
        <ele>626.0</ele>
        <time>2019-05-12T08:21:29Z</time>
      </trkpt>
      <trkpt lat="39.1641200" lon="-1.4554220">
        <ele>626.0</ele>
        <time>2019-05-12T08:21:30Z</time>
      </trkpt>
      <trkpt lat="39.1641270" lon="-1.4554300">
        <ele>626.2</ele>
        <time>2019-05-12T08:21:31Z</time>
      </trkpt>
      <trkpt lat="39.1641310" lon="-1.4554360">
        <ele>626.2</ele>
        <time>2019-05-12T08:21:32Z</time>
      </trkpt>
      <trkpt lat="39.1641390" lon="-1.4554480">
        <ele>626.2</ele>
        <time>2019-05-12T08:21:33Z</time>
      </trkpt>
      <trkpt lat="39.1641470" lon="-1.4554650">
        <ele>626.2</ele>
        <time>2019-05-12T08:21:34Z</time>
      </trkpt>
      <trkpt lat="39.1641510" lon="-1.4554800">
        <ele>626.2</ele>
        <time>2019-05-12T08:21:35Z</time>
      </trkpt>
      <trkpt lat="39.1641500" lon="-1.4554920">
        <ele>626.2</ele>
        <time>2019-05-12T08:21:36Z</time>
      </trkpt>
      <trkpt lat="39.1641430" lon="-1.4555090">
        <ele>626.2</ele>
        <time>2019-05-12T08:21:37Z</time>
      </trkpt>
      <trkpt lat="39.1641350" lon="-1.4555190">
        <ele>626.2</ele>
        <time>2019-05-12T08:21:38Z</time>
      </trkpt>
      <trkpt lat="39.1641250" lon="-1.4555290">
        <ele>626.2</ele>
        <time>2019-05-12T08:21:39Z</time>
      </trkpt>
      <trkpt lat="39.1641070" lon="-1.4555370">
        <ele>626.4</ele>
        <time>2019-05-12T08:21:40Z</time>
      </trkpt>
      <trkpt lat="39.1640820" lon="-1.4555420">
        <ele>626.4</ele>
        <time>2019-05-12T08:21:41Z</time>
      </trkpt>
      <trkpt lat="39.1640520" lon="-1.4555490">
        <ele>626.4</ele>
        <time>2019-05-12T08:21:42Z</time>
      </trkpt>
      <trkpt lat="39.1640190" lon="-1.4555550">
        <ele>626.4</ele>
        <time>2019-05-12T08:21:43Z</time>
      </trkpt>
      <trkpt lat="39.1639820" lon="-1.4555600">
        <ele>626.6</ele>
        <time>2019-05-12T08:21:44Z</time>
      </trkpt>
      <trkpt lat="39.1639450" lon="-1.4555690">
        <ele>626.8</ele>
        <time>2019-05-12T08:21:45Z</time>
      </trkpt>
      <trkpt lat="39.1639050" lon="-1.4555770">
        <ele>627.0</ele>
        <time>2019-05-12T08:21:46Z</time>
      </trkpt>
      <trkpt lat="39.1638630" lon="-1.4555850">
        <ele>627.0</ele>
        <time>2019-05-12T08:21:47Z</time>
      </trkpt>
      <trkpt lat="39.1638200" lon="-1.4555940">
        <ele>627.2</ele>
        <time>2019-05-12T08:21:48Z</time>
      </trkpt>
      <trkpt lat="39.1637770" lon="-1.4556010">
        <ele>627.2</ele>
        <time>2019-05-12T08:21:49Z</time>
      </trkpt>
      <trkpt lat="39.1637330" lon="-1.4556070">
        <ele>627.4</ele>
        <time>2019-05-12T08:21:50Z</time>
      </trkpt>
      <trkpt lat="39.1636880" lon="-1.4556100">
        <ele>627.4</ele>
        <time>2019-05-12T08:21:51Z</time>
      </trkpt>
      <trkpt lat="39.1636430" lon="-1.4556120">
        <ele>627.4</ele>
        <time>2019-05-12T08:21:52Z</time>
      </trkpt>
      <trkpt lat="39.1635960" lon="-1.4556150">
        <ele>627.4</ele>
        <time>2019-05-12T08:21:53Z</time>
      </trkpt>
      <trkpt lat="39.1635510" lon="-1.4556190">
        <ele>627.4</ele>
        <time>2019-05-12T08:21:54Z</time>
      </trkpt>
      <trkpt lat="39.1635040" lon="-1.4556250">
        <ele>627.4</ele>
        <time>2019-05-12T08:21:55Z</time>
      </trkpt>
      <trkpt lat="39.1634580" lon="-1.4556180">
        <ele>627.4</ele>
        <time>2019-05-12T08:21:56Z</time>
      </trkpt>
      <trkpt lat="39.1634140" lon="-1.4555930">
        <ele>627.6</ele>
        <time>2019-05-12T08:21:57Z</time>
      </trkpt>
      <trkpt lat="39.1633760" lon="-1.4555600">
        <ele>627.6</ele>
        <time>2019-05-12T08:21:58Z</time>
      </trkpt>
      <trkpt lat="39.1633390" lon="-1.4555290">
        <ele>627.6</ele>
        <time>2019-05-12T08:21:59Z</time>
      </trkpt>
      <trkpt lat="39.1633010" lon="-1.4555010">
        <ele>627.6</ele>
        <time>2019-05-12T08:22:00Z</time>
      </trkpt>
      <trkpt lat="39.1632640" lon="-1.4554710">
        <ele>627.6</ele>
        <time>2019-05-12T08:22:01Z</time>
      </trkpt>
      <trkpt lat="39.1632310" lon="-1.4554380">
        <ele>627.6</ele>
        <time>2019-05-12T08:22:02Z</time>
      </trkpt>
      <trkpt lat="39.1632010" lon="-1.4554010">
        <ele>627.8</ele>
        <time>2019-05-12T08:22:03Z</time>
      </trkpt>
      <trkpt lat="39.1631720" lon="-1.4553650">
        <ele>627.8</ele>
        <time>2019-05-12T08:22:04Z</time>
      </trkpt>
      <trkpt lat="39.1631480" lon="-1.4553260">
        <ele>627.8</ele>
        <time>2019-05-12T08:22:05Z</time>
      </trkpt>
      <trkpt lat="39.1631280" lon="-1.4552840">
        <ele>627.8</ele>
        <time>2019-05-12T08:22:06Z</time>
      </trkpt>
      <trkpt lat="39.1631100" lon="-1.4552470">
        <ele>627.8</ele>
        <time>2019-05-12T08:22:07Z</time>
      </trkpt>
      <trkpt lat="39.1630910" lon="-1.4552200">
        <ele>628.0</ele>
        <time>2019-05-12T08:22:08Z</time>
      </trkpt>
      <trkpt lat="39.1630680" lon="-1.4552050">
        <ele>628.0</ele>
        <time>2019-05-12T08:22:09Z</time>
      </trkpt>
      <trkpt lat="39.1630430" lon="-1.4551950">
        <ele>628.0</ele>
        <time>2019-05-12T08:22:10Z</time>
      </trkpt>
      <trkpt lat="39.1630140" lon="-1.4551850">
        <ele>628.2</ele>
        <time>2019-05-12T08:22:11Z</time>
      </trkpt>
      <trkpt lat="39.1629840" lon="-1.4551770">
        <ele>628.2</ele>
        <time>2019-05-12T08:22:12Z</time>
      </trkpt>
      <trkpt lat="39.1629580" lon="-1.4551700">
        <ele>628.2</ele>
        <time>2019-05-12T08:22:13Z</time>
      </trkpt>
      <trkpt lat="39.1629370" lon="-1.4551610">
        <ele>628.2</ele>
        <time>2019-05-12T08:22:14Z</time>
      </trkpt>
      <trkpt lat="39.1629210" lon="-1.4551470">
        <ele>628.4</ele>
        <time>2019-05-12T08:22:15Z</time>
      </trkpt>
      <trkpt lat="39.1629050" lon="-1.4551320">
        <ele>628.4</ele>
        <time>2019-05-12T08:22:16Z</time>
      </trkpt>
      <trkpt lat="39.1628880" lon="-1.4551200">
        <ele>628.4</ele>
        <time>2019-05-12T08:22:17Z</time>
      </trkpt>
      <trkpt lat="39.1628790" lon="-1.4551120">
        <ele>628.4</ele>
        <time>2019-05-12T08:22:18Z</time>
      </trkpt>
      <trkpt lat="39.1628740" lon="-1.4551100">
        <ele>628.6</ele>
        <time>2019-05-12T08:22:19Z</time>
      </trkpt>
      <trkpt lat="39.1628690" lon="-1.4551080">
        <ele>628.6</ele>
        <time>2019-05-12T08:22:20Z</time>
      </trkpt>
      <trkpt lat="39.1628630" lon="-1.4551090">
        <ele>628.8</ele>
        <time>2019-05-12T08:22:21Z</time>
      </trkpt>
      <trkpt lat="39.1628590" lon="-1.4551180">
        <ele>629.2</ele>
        <time>2019-05-12T08:22:22Z</time>
      </trkpt>
      <trkpt lat="39.1628530" lon="-1.4551230">
        <ele>629.6</ele>
        <time>2019-05-12T08:22:23Z</time>
      </trkpt>
      <trkpt lat="39.1628510" lon="-1.4551320">
        <ele>630.4</ele>
        <time>2019-05-12T08:22:24Z</time>
      </trkpt>
      <trkpt lat="39.1628510" lon="-1.4551320">
        <ele>631.0</ele>
        <time>2019-05-12T08:22:25Z</time>
      </trkpt>
      <trkpt lat="39.1628510" lon="-1.4551380">
        <ele>631.4</ele>
        <time>2019-05-12T08:22:26Z</time>
      </trkpt>
      <trkpt lat="39.1628510" lon="-1.4551380">
        <ele>631.8</ele>
        <time>2019-05-12T08:22:27Z</time>
      </trkpt>
      <trkpt lat="39.1628500" lon="-1.4551480">
        <ele>632.0</ele>
        <time>2019-05-12T08:22:28Z</time>
      </trkpt>
      <trkpt lat="39.1628500" lon="-1.4551480">
        <ele>632.4</ele>
        <time>2019-05-12T08:22:29Z</time>
      </trkpt>
      <trkpt lat="39.1628500" lon="-1.4551480">
        <ele>632.8</ele>
        <time>2019-05-12T08:22:30Z</time>
      </trkpt>
      <trkpt lat="39.1628500" lon="-1.4551480">
        <ele>633.0</ele>
        <time>2019-05-12T08:22:31Z</time>
      </trkpt>
      <trkpt lat="39.1628500" lon="-1.4551480">
        <ele>633.2</ele>
        <time>2019-05-12T08:22:32Z</time>
      </trkpt>
      <trkpt lat="39.1628520" lon="-1.4551550">
        <ele>633.4</ele>
        <time>2019-05-12T08:22:33Z</time>
      </trkpt>
      <trkpt lat="39.1628520" lon="-1.4551550">
        <ele>633.6</ele>
        <time>2019-05-12T08:22:34Z</time>
      </trkpt>
      <trkpt lat="39.1628500" lon="-1.4551780">
        <ele>633.8</ele>
        <time>2019-05-12T08:22:35Z</time>
      </trkpt>
      <trkpt lat="39.1628510" lon="-1.4551970">
        <ele>634.0</ele>
        <time>2019-05-12T08:22:36Z</time>
      </trkpt>
      <trkpt lat="39.1628510" lon="-1.4552240">
        <ele>634.2</ele>
        <time>2019-05-12T08:22:37Z</time>
      </trkpt>
      <trkpt lat="39.1628500" lon="-1.4552460">
        <ele>634.4</ele>
        <time>2019-05-12T08:22:38Z</time>
      </trkpt>
      <trkpt lat="39.1628470" lon="-1.4552740">
        <ele>634.6</ele>
        <time>2019-05-12T08:22:39Z</time>
      </trkpt>
      <trkpt lat="39.1628420" lon="-1.4553000">
        <ele>634.6</ele>
        <time>2019-05-12T08:22:40Z</time>
      </trkpt>
      <trkpt lat="39.1628370" lon="-1.4553260">
        <ele>634.6</ele>
        <time>2019-05-12T08:22:41Z</time>
      </trkpt>
      <trkpt lat="39.1628320" lon="-1.4553550">
        <ele>634.8</ele>
        <time>2019-05-12T08:22:42Z</time>
      </trkpt>
      <trkpt lat="39.1628270" lon="-1.4553880">
        <ele>635.0</ele>
        <time>2019-05-12T08:22:43Z</time>
      </trkpt>
      <trkpt lat="39.1628230" lon="-1.4554180">
        <ele>635.0</ele>
        <time>2019-05-12T08:22:44Z</time>
      </trkpt>
      <trkpt lat="39.1628180" lon="-1.4554440">
        <ele>635.2</ele>
        <time>2019-05-12T08:22:45Z</time>
      </trkpt>
      <trkpt lat="39.1628090" lon="-1.4554660">
        <ele>635.4</ele>
        <time>2019-05-12T08:22:46Z</time>
      </trkpt>
      <trkpt lat="39.1627970" lon="-1.4554810">
        <ele>635.8</ele>
        <time>2019-05-12T08:22:47Z</time>
      </trkpt>
      <trkpt lat="39.1627840" lon="-1.4554940">
        <ele>636.0</ele>
        <time>2019-05-12T08:22:48Z</time>
      </trkpt>
      <trkpt lat="39.1627730" lon="-1.4555070">
        <ele>636.4</ele>
        <time>2019-05-12T08:22:49Z</time>
      </trkpt>
      <trkpt lat="39.1627620" lon="-1.4555190">
        <ele>636.6</ele>
        <time>2019-05-12T08:22:50Z</time>
      </trkpt>
      <trkpt lat="39.1627490" lon="-1.4555300">
        <ele>637.0</ele>
        <time>2019-05-12T08:22:51Z</time>
      </trkpt>
      <trkpt lat="39.1627380" lon="-1.4555400">
        <ele>637.2</ele>
        <time>2019-05-12T08:22:52Z</time>
      </trkpt>
      <trkpt lat="39.1627270" lon="-1.4555490">
        <ele>637.6</ele>
        <time>2019-05-12T08:22:53Z</time>
      </trkpt>
      <trkpt lat="39.1627160" lon="-1.4555580">
        <ele>638.0</ele>
        <time>2019-05-12T08:22:54Z</time>
      </trkpt>
      <trkpt lat="39.1627080" lon="-1.4555690">
        <ele>638.4</ele>
        <time>2019-05-12T08:22:55Z</time>
      </trkpt>
      <trkpt lat="39.1627020" lon="-1.4555840">
        <ele>638.6</ele>
        <time>2019-05-12T08:22:56Z</time>
      </trkpt>
      <trkpt lat="39.1626970" lon="-1.4556000">
        <ele>639.0</ele>
        <time>2019-05-12T08:22:57Z</time>
      </trkpt>
      <trkpt lat="39.1626920" lon="-1.4556170">
        <ele>639.2</ele>
        <time>2019-05-12T08:22:58Z</time>
      </trkpt>
      <trkpt lat="39.1626830" lon="-1.4556330">
        <ele>639.6</ele>
        <time>2019-05-12T08:22:59Z</time>
      </trkpt>
      <trkpt lat="39.1626730" lon="-1.4556480">
        <ele>640.0</ele>
        <time>2019-05-12T08:23:00Z</time>
      </trkpt>
      <trkpt lat="39.1626600" lon="-1.4556660">
        <ele>640.4</ele>
        <time>2019-05-12T08:23:01Z</time>
      </trkpt>
      <trkpt lat="39.1626470" lon="-1.4556820">
        <ele>640.8</ele>
        <time>2019-05-12T08:23:02Z</time>
      </trkpt>
      <trkpt lat="39.1626350" lon="-1.4556970">
        <ele>641.2</ele>
        <time>2019-05-12T08:23:03Z</time>
      </trkpt>
      <trkpt lat="39.1626210" lon="-1.4557080">
        <ele>641.6</ele>
        <time>2019-05-12T08:23:04Z</time>
      </trkpt>
      <trkpt lat="39.1626050" lon="-1.4557230">
        <ele>641.8</ele>
        <time>2019-05-12T08:23:05Z</time>
      </trkpt>
      <trkpt lat="39.1625910" lon="-1.4557440">
        <ele>642.2</ele>
        <time>2019-05-12T08:23:06Z</time>
      </trkpt>
      <trkpt lat="39.1625810" lon="-1.4557660">
        <ele>642.4</ele>
        <time>2019-05-12T08:23:07Z</time>
      </trkpt>
      <trkpt lat="39.1625710" lon="-1.4557870">
        <ele>642.8</ele>
        <time>2019-05-12T08:23:08Z</time>
      </trkpt>
      <trkpt lat="39.1625620" lon="-1.4558050">
        <ele>643.0</ele>
        <time>2019-05-12T08:23:09Z</time>
      </trkpt>
      <trkpt lat="39.1625490" lon="-1.4558220">
        <ele>643.2</ele>
        <time>2019-05-12T08:23:10Z</time>
      </trkpt>
      <trkpt lat="39.1625340" lon="-1.4558420">
        <ele>643.6</ele>
        <time>2019-05-12T08:23:11Z</time>
      </trkpt>
      <trkpt lat="39.1625200" lon="-1.4558630">
        <ele>644.0</ele>
        <time>2019-05-12T08:23:12Z</time>
      </trkpt>
      <trkpt lat="39.1625050" lon="-1.4558900">
        <ele>644.2</ele>
        <time>2019-05-12T08:23:13Z</time>
      </trkpt>
      <trkpt lat="39.1624880" lon="-1.4559160">
        <ele>644.6</ele>
        <time>2019-05-12T08:23:14Z</time>
      </trkpt>
      <trkpt lat="39.1624720" lon="-1.4559420">
        <ele>644.8</ele>
        <time>2019-05-12T08:23:15Z</time>
      </trkpt>
      <trkpt lat="39.1624550" lon="-1.4559680">
        <ele>645.2</ele>
        <time>2019-05-12T08:23:16Z</time>
      </trkpt>
      <trkpt lat="39.1624410" lon="-1.4559940">
        <ele>645.4</ele>
        <time>2019-05-12T08:23:17Z</time>
      </trkpt>
      <trkpt lat="39.1624290" lon="-1.4560200">
        <ele>645.6</ele>
        <time>2019-05-12T08:23:18Z</time>
      </trkpt>
      <trkpt lat="39.1624180" lon="-1.4560460">
        <ele>645.8</ele>
        <time>2019-05-12T08:23:19Z</time>
      </trkpt>
      <trkpt lat="39.1624060" lon="-1.4560690">
        <ele>646.0</ele>
        <time>2019-05-12T08:23:20Z</time>
      </trkpt>
      <trkpt lat="39.1623940" lon="-1.4560890">
        <ele>646.2</ele>
        <time>2019-05-12T08:23:21Z</time>
      </trkpt>
      <trkpt lat="39.1623810" lon="-1.4561080">
        <ele>646.2</ele>
        <time>2019-05-12T08:23:22Z</time>
      </trkpt>
      <trkpt lat="39.1623640" lon="-1.4561290">
        <ele>646.4</ele>
        <time>2019-05-12T08:23:23Z</time>
      </trkpt>
      <trkpt lat="39.1623470" lon="-1.4561480">
        <ele>646.6</ele>
        <time>2019-05-12T08:23:24Z</time>
      </trkpt>
      <trkpt lat="39.1623280" lon="-1.4561630">
        <ele>646.6</ele>
        <time>2019-05-12T08:23:25Z</time>
      </trkpt>
      <trkpt lat="39.1623030" lon="-1.4561750">
        <ele>647.0</ele>
        <time>2019-05-12T08:23:26Z</time>
      </trkpt>
      <trkpt lat="39.1622800" lon="-1.4561840">
        <ele>647.2</ele>
        <time>2019-05-12T08:23:27Z</time>
      </trkpt>
      <trkpt lat="39.1622580" lon="-1.4561940">
        <ele>647.6</ele>
        <time>2019-05-12T08:23:28Z</time>
      </trkpt>
      <trkpt lat="39.1622410" lon="-1.4562060">
        <ele>647.8</ele>
        <time>2019-05-12T08:23:29Z</time>
      </trkpt>
      <trkpt lat="39.1622280" lon="-1.4562250">
        <ele>648.0</ele>
        <time>2019-05-12T08:23:30Z</time>
      </trkpt>
      <trkpt lat="39.1622140" lon="-1.4562500">
        <ele>648.2</ele>
        <time>2019-05-12T08:23:31Z</time>
      </trkpt>
      <trkpt lat="39.1622040" lon="-1.4562840">
        <ele>648.4</ele>
        <time>2019-05-12T08:23:32Z</time>
      </trkpt>
      <trkpt lat="39.1621960" lon="-1.4563230">
        <ele>648.6</ele>
        <time>2019-05-12T08:23:33Z</time>
      </trkpt>
      <trkpt lat="39.1621930" lon="-1.4563650">
        <ele>649.2</ele>
        <time>2019-05-12T08:23:34Z</time>
      </trkpt>
      <trkpt lat="39.1621900" lon="-1.4564110">
        <ele>649.6</ele>
        <time>2019-05-12T08:23:35Z</time>
      </trkpt>
      <trkpt lat="39.1621870" lon="-1.4564570">
        <ele>649.8</ele>
        <time>2019-05-12T08:23:36Z</time>
      </trkpt>
      <trkpt lat="39.1621830" lon="-1.4565030">
        <ele>650.0</ele>
        <time>2019-05-12T08:23:37Z</time>
      </trkpt>
      <trkpt lat="39.1621770" lon="-1.4565460">
        <ele>650.2</ele>
        <time>2019-05-12T08:23:38Z</time>
      </trkpt>
      <trkpt lat="39.1621680" lon="-1.4565850">
        <ele>650.2</ele>
        <time>2019-05-12T08:23:39Z</time>
      </trkpt>
      <trkpt lat="39.1621610" lon="-1.4566250">
        <ele>650.4</ele>
        <time>2019-05-12T08:23:40Z</time>
      </trkpt>
      <trkpt lat="39.1621530" lon="-1.4566650">
        <ele>650.4</ele>
        <time>2019-05-12T08:23:41Z</time>
      </trkpt>
      <trkpt lat="39.1621430" lon="-1.4567020">
        <ele>650.4</ele>
        <time>2019-05-12T08:23:42Z</time>
      </trkpt>
      <trkpt lat="39.1621310" lon="-1.4567360">
        <ele>650.4</ele>
        <time>2019-05-12T08:23:43Z</time>
      </trkpt>
      <trkpt lat="39.1621150" lon="-1.4567680">
        <ele>650.4</ele>
        <time>2019-05-12T08:23:44Z</time>
      </trkpt>
      <trkpt lat="39.1620920" lon="-1.4567930">
        <ele>650.4</ele>
        <time>2019-05-12T08:23:45Z</time>
      </trkpt>
      <trkpt lat="39.1620680" lon="-1.4568110">
        <ele>650.6</ele>
        <time>2019-05-12T08:23:46Z</time>
      </trkpt>
      <trkpt lat="39.1620470" lon="-1.4568290">
        <ele>650.8</ele>
        <time>2019-05-12T08:23:47Z</time>
      </trkpt>
      <trkpt lat="39.1620260" lon="-1.4568500">
        <ele>651.2</ele>
        <time>2019-05-12T08:23:48Z</time>
      </trkpt>
      <trkpt lat="39.1620060" lon="-1.4568730">
        <ele>651.2</ele>
        <time>2019-05-12T08:23:49Z</time>
      </trkpt>
      <trkpt lat="39.1619860" lon="-1.4568940">
        <ele>651.4</ele>
        <time>2019-05-12T08:23:50Z</time>
      </trkpt>
      <trkpt lat="39.1619680" lon="-1.4569080">
        <ele>651.6</ele>
        <time>2019-05-12T08:23:51Z</time>
      </trkpt>
      <trkpt lat="39.1619480" lon="-1.4569160">
        <ele>651.6</ele>
        <time>2019-05-12T08:23:52Z</time>
      </trkpt>
      <trkpt lat="39.1619270" lon="-1.4569230">
        <ele>651.8</ele>
        <time>2019-05-12T08:23:53Z</time>
      </trkpt>
      <trkpt lat="39.1619100" lon="-1.4569350">
        <ele>652.0</ele>
        <time>2019-05-12T08:23:54Z</time>
      </trkpt>
      <trkpt lat="39.1618930" lon="-1.4569480">
        <ele>652.2</ele>
        <time>2019-05-12T08:23:55Z</time>
      </trkpt>
      <trkpt lat="39.1618790" lon="-1.4569630">
        <ele>652.4</ele>
        <time>2019-05-12T08:23:56Z</time>
      </trkpt>
      <trkpt lat="39.1618660" lon="-1.4569800">
        <ele>652.6</ele>
        <time>2019-05-12T08:23:57Z</time>
      </trkpt>
      <trkpt lat="39.1618560" lon="-1.4569980">
        <ele>652.8</ele>
        <time>2019-05-12T08:23:58Z</time>
      </trkpt>
      <trkpt lat="39.1618460" lon="-1.4570140">
        <ele>653.0</ele>
        <time>2019-05-12T08:23:59Z</time>
      </trkpt>
      <trkpt lat="39.1618350" lon="-1.4570310">
        <ele>653.2</ele>
        <time>2019-05-12T08:24:00Z</time>
      </trkpt>
      <trkpt lat="39.1618260" lon="-1.4570450">
        <ele>653.6</ele>
        <time>2019-05-12T08:24:01Z</time>
      </trkpt>
      <trkpt lat="39.1618150" lon="-1.4570590">
        <ele>654.0</ele>
        <time>2019-05-12T08:24:02Z</time>
      </trkpt>
      <trkpt lat="39.1618060" lon="-1.4570720">
        <ele>654.4</ele>
        <time>2019-05-12T08:24:03Z</time>
      </trkpt>
      <trkpt lat="39.1617980" lon="-1.4570860">
        <ele>654.8</ele>
        <time>2019-05-12T08:24:04Z</time>
      </trkpt>
      <trkpt lat="39.1617890" lon="-1.4570980">
        <ele>655.2</ele>
        <time>2019-05-12T08:24:05Z</time>
      </trkpt>
      <trkpt lat="39.1617800" lon="-1.4571110">
        <ele>655.6</ele>
        <time>2019-05-12T08:24:06Z</time>
      </trkpt>
      <trkpt lat="39.1617700" lon="-1.4571230">
        <ele>656.0</ele>
        <time>2019-05-12T08:24:07Z</time>
      </trkpt>
      <trkpt lat="39.1617600" lon="-1.4571370">
        <ele>656.4</ele>
        <time>2019-05-12T08:24:08Z</time>
      </trkpt>
      <trkpt lat="39.1617490" lon="-1.4571510">
        <ele>657.0</ele>
        <time>2019-05-12T08:24:09Z</time>
      </trkpt>
      <trkpt lat="39.1617380" lon="-1.4571640">
        <ele>657.2</ele>
        <time>2019-05-12T08:24:10Z</time>
      </trkpt>
      <trkpt lat="39.1617260" lon="-1.4571780">
        <ele>657.6</ele>
        <time>2019-05-12T08:24:11Z</time>
      </trkpt>
      <trkpt lat="39.1617140" lon="-1.4571930">
        <ele>657.8</ele>
        <time>2019-05-12T08:24:12Z</time>
      </trkpt>
      <trkpt lat="39.1617030" lon="-1.4572070">
        <ele>658.2</ele>
        <time>2019-05-12T08:24:13Z</time>
      </trkpt>
      <trkpt lat="39.1616960" lon="-1.4572120">
        <ele>658.6</ele>
        <time>2019-05-12T08:24:14Z</time>
      </trkpt>
      <trkpt lat="39.1616970" lon="-1.4572130">
        <ele>658.8</ele>
        <time>2019-05-12T08:24:15Z</time>
      </trkpt>
      <trkpt lat="39.1616960" lon="-1.4572150">
        <ele>659.2</ele>
        <time>2019-05-12T08:24:16Z</time>
      </trkpt>
      <trkpt lat="39.1616910" lon="-1.4572200">
        <ele>659.4</ele>
        <time>2019-05-12T08:24:17Z</time>
      </trkpt>
      <trkpt lat="39.1616840" lon="-1.4572270">
        <ele>659.8</ele>
        <time>2019-05-12T08:24:18Z</time>
      </trkpt>
      <trkpt lat="39.1616750" lon="-1.4572360">
        <ele>660.0</ele>
        <time>2019-05-12T08:24:19Z</time>
      </trkpt>
      <trkpt lat="39.1616710" lon="-1.4572370">
        <ele>660.2</ele>
        <time>2019-05-12T08:24:20Z</time>
      </trkpt>
      <trkpt lat="39.1616650" lon="-1.4572370">
        <ele>660.6</ele>
        <time>2019-05-12T08:24:21Z</time>
      </trkpt>
      <trkpt lat="39.1616580" lon="-1.4572370">
        <ele>660.8</ele>
        <time>2019-05-12T08:24:22Z</time>
      </trkpt>
      <trkpt lat="39.1616520" lon="-1.4572370">
        <ele>661.0</ele>
        <time>2019-05-12T08:24:23Z</time>
      </trkpt>
      <trkpt lat="39.1616460" lon="-1.4572360">
        <ele>661.0</ele>
        <time>2019-05-12T08:24:24Z</time>
      </trkpt>
      <trkpt lat="39.1616380" lon="-1.4572360">
        <ele>661.2</ele>
        <time>2019-05-12T08:24:25Z</time>
      </trkpt>
      <trkpt lat="39.1616310" lon="-1.4572360">
        <ele>661.4</ele>
        <time>2019-05-12T08:24:26Z</time>
      </trkpt>
      <trkpt lat="39.1616220" lon="-1.4572350">
        <ele>661.4</ele>
        <time>2019-05-12T08:24:27Z</time>
      </trkpt>
      <trkpt lat="39.1616160" lon="-1.4572380">
        <ele>661.8</ele>
        <time>2019-05-12T08:24:28Z</time>
      </trkpt>
      <trkpt lat="39.1616080" lon="-1.4572390">
        <ele>661.8</ele>
        <time>2019-05-12T08:24:29Z</time>
      </trkpt>
      <trkpt lat="39.1616000" lon="-1.4572400">
        <ele>662.0</ele>
        <time>2019-05-12T08:24:30Z</time>
      </trkpt>
      <trkpt lat="39.1615910" lon="-1.4572380">
        <ele>662.2</ele>
        <time>2019-05-12T08:24:31Z</time>
      </trkpt>
      <trkpt lat="39.1615820" lon="-1.4572350">
        <ele>662.6</ele>
        <time>2019-05-12T08:24:32Z</time>
      </trkpt>
      <trkpt lat="39.1615740" lon="-1.4572340">
        <ele>662.6</ele>
        <time>2019-05-12T08:24:33Z</time>
      </trkpt>
      <trkpt lat="39.1615670" lon="-1.4572380">
        <ele>662.8</ele>
        <time>2019-05-12T08:24:34Z</time>
      </trkpt>
      <trkpt lat="39.1615610" lon="-1.4572370">
        <ele>663.0</ele>
        <time>2019-05-12T08:24:35Z</time>
      </trkpt>
      <trkpt lat="39.1615510" lon="-1.4572370">
        <ele>663.2</ele>
        <time>2019-05-12T08:24:36Z</time>
      </trkpt>
      <trkpt lat="39.1615410" lon="-1.4572360">
        <ele>663.4</ele>
        <time>2019-05-12T08:24:37Z</time>
      </trkpt>
      <trkpt lat="39.1615320" lon="-1.4572380">
        <ele>663.8</ele>
        <time>2019-05-12T08:24:38Z</time>
      </trkpt>
      <trkpt lat="39.1615250" lon="-1.4572410">
        <ele>664.0</ele>
        <time>2019-05-12T08:24:39Z</time>
      </trkpt>
      <trkpt lat="39.1615160" lon="-1.4572450">
        <ele>664.2</ele>
        <time>2019-05-12T08:24:40Z</time>
      </trkpt>
      <trkpt lat="39.1615080" lon="-1.4572510">
        <ele>664.6</ele>
        <time>2019-05-12T08:24:41Z</time>
      </trkpt>
      <trkpt lat="39.1615010" lon="-1.4572600">
        <ele>664.8</ele>
        <time>2019-05-12T08:24:42Z</time>
      </trkpt>
      <trkpt lat="39.1614950" lon="-1.4572700">
        <ele>665.0</ele>
        <time>2019-05-12T08:24:43Z</time>
      </trkpt>
      <trkpt lat="39.1614880" lon="-1.4572790">
        <ele>665.4</ele>
        <time>2019-05-12T08:24:44Z</time>
      </trkpt>
      <trkpt lat="39.1614810" lon="-1.4572860">
        <ele>665.6</ele>
        <time>2019-05-12T08:24:45Z</time>
      </trkpt>
      <trkpt lat="39.1614740" lon="-1.4572940">
        <ele>665.8</ele>
        <time>2019-05-12T08:24:46Z</time>
      </trkpt>
      <trkpt lat="39.1614670" lon="-1.4573040">
        <ele>666.0</ele>
        <time>2019-05-12T08:24:47Z</time>
      </trkpt>
      <trkpt lat="39.1614600" lon="-1.4573120">
        <ele>666.0</ele>
        <time>2019-05-12T08:24:48Z</time>
      </trkpt>
      <trkpt lat="39.1614540" lon="-1.4573170">
        <ele>666.4</ele>
        <time>2019-05-12T08:24:49Z</time>
      </trkpt>
      <trkpt lat="39.1614480" lon="-1.4573230">
        <ele>666.6</ele>
        <time>2019-05-12T08:24:50Z</time>
      </trkpt>
      <trkpt lat="39.1614410" lon="-1.4573270">
        <ele>666.6</ele>
        <time>2019-05-12T08:24:51Z</time>
      </trkpt>
      <trkpt lat="39.1614350" lon="-1.4573350">
        <ele>666.8</ele>
        <time>2019-05-12T08:24:52Z</time>
      </trkpt>
      <trkpt lat="39.1614310" lon="-1.4573430">
        <ele>666.8</ele>
        <time>2019-05-12T08:24:53Z</time>
      </trkpt>
      <trkpt lat="39.1614260" lon="-1.4573510">
        <ele>667.0</ele>
        <time>2019-05-12T08:24:54Z</time>
      </trkpt>
      <trkpt lat="39.1614190" lon="-1.4573580">
        <ele>667.0</ele>
        <time>2019-05-12T08:24:55Z</time>
      </trkpt>
      <trkpt lat="39.1614120" lon="-1.4573630">
        <ele>667.2</ele>
        <time>2019-05-12T08:24:56Z</time>
      </trkpt>
      <trkpt lat="39.1614070" lon="-1.4573680">
        <ele>667.4</ele>
        <time>2019-05-12T08:24:57Z</time>
      </trkpt>
      <trkpt lat="39.1614020" lon="-1.4573710">
        <ele>667.4</ele>
        <time>2019-05-12T08:24:58Z</time>
      </trkpt>
      <trkpt lat="39.1613960" lon="-1.4573740">
        <ele>667.4</ele>
        <time>2019-05-12T08:24:59Z</time>
      </trkpt>
      <trkpt lat="39.1613890" lon="-1.4573750">
        <ele>667.8</ele>
        <time>2019-05-12T08:25:00Z</time>
      </trkpt>
      <trkpt lat="39.1613840" lon="-1.4573780">
        <ele>668.0</ele>
        <time>2019-05-12T08:25:01Z</time>
      </trkpt>
      <trkpt lat="39.1613780" lon="-1.4573800">
        <ele>668.2</ele>
        <time>2019-05-12T08:25:02Z</time>
      </trkpt>
      <trkpt lat="39.1613700" lon="-1.4573850">
        <ele>668.6</ele>
        <time>2019-05-12T08:25:03Z</time>
      </trkpt>
      <trkpt lat="39.1613610" lon="-1.4573870">
        <ele>668.8</ele>
        <time>2019-05-12T08:25:04Z</time>
      </trkpt>
      <trkpt lat="39.1613530" lon="-1.4573930">
        <ele>669.0</ele>
        <time>2019-05-12T08:25:05Z</time>
      </trkpt>
      <trkpt lat="39.1613460" lon="-1.4573990">
        <ele>669.0</ele>
        <time>2019-05-12T08:25:06Z</time>
      </trkpt>
      <trkpt lat="39.1613380" lon="-1.4574020">
        <ele>669.4</ele>
        <time>2019-05-12T08:25:07Z</time>
      </trkpt>
      <trkpt lat="39.1613320" lon="-1.4574060">
        <ele>669.6</ele>
        <time>2019-05-12T08:25:08Z</time>
      </trkpt>
      <trkpt lat="39.1613280" lon="-1.4574080">
        <ele>669.8</ele>
        <time>2019-05-12T08:25:09Z</time>
      </trkpt>
      <trkpt lat="39.1613230" lon="-1.4574110">
        <ele>670.0</ele>
        <time>2019-05-12T08:25:10Z</time>
      </trkpt>
      <trkpt lat="39.1613180" lon="-1.4574150">
        <ele>670.2</ele>
        <time>2019-05-12T08:25:11Z</time>
      </trkpt>
      <trkpt lat="39.1613120" lon="-1.4574200">
        <ele>670.4</ele>
        <time>2019-05-12T08:25:12Z</time>
      </trkpt>
      <trkpt lat="39.1613060" lon="-1.4574230">
        <ele>670.4</ele>
        <time>2019-05-12T08:25:13Z</time>
      </trkpt>
      <trkpt lat="39.1613010" lon="-1.4574250">
        <ele>670.6</ele>
        <time>2019-05-12T08:25:14Z</time>
      </trkpt>
      <trkpt lat="39.1612950" lon="-1.4574280">
        <ele>670.6</ele>
        <time>2019-05-12T08:25:15Z</time>
      </trkpt>
      <trkpt lat="39.1612890" lon="-1.4574310">
        <ele>670.8</ele>
        <time>2019-05-12T08:25:16Z</time>
      </trkpt>
      <trkpt lat="39.1612830" lon="-1.4574360">
        <ele>670.8</ele>
        <time>2019-05-12T08:25:17Z</time>
      </trkpt>
      <trkpt lat="39.1612760" lon="-1.4574400">
        <ele>671.2</ele>
        <time>2019-05-12T08:25:18Z</time>
      </trkpt>
      <trkpt lat="39.1612700" lon="-1.4574420">
        <ele>671.6</ele>
        <time>2019-05-12T08:25:19Z</time>
      </trkpt>
      <trkpt lat="39.1612650" lon="-1.4574450">
        <ele>671.8</ele>
        <time>2019-05-12T08:25:20Z</time>
      </trkpt>
      <trkpt lat="39.1612600" lon="-1.4574490">
        <ele>672.0</ele>
        <time>2019-05-12T08:25:21Z</time>
      </trkpt>
      <trkpt lat="39.1612550" lon="-1.4574530">
        <ele>672.2</ele>
        <time>2019-05-12T08:25:22Z</time>
      </trkpt>
      <trkpt lat="39.1612500" lon="-1.4574570">
        <ele>672.2</ele>
        <time>2019-05-12T08:25:23Z</time>
      </trkpt>
      <trkpt lat="39.1612420" lon="-1.4574580">
        <ele>672.6</ele>
        <time>2019-05-12T08:25:24Z</time>
      </trkpt>
      <trkpt lat="39.1612350" lon="-1.4574600">
        <ele>672.8</ele>
        <time>2019-05-12T08:25:25Z</time>
      </trkpt>
      <trkpt lat="39.1612290" lon="-1.4574630">
        <ele>673.0</ele>
        <time>2019-05-12T08:25:26Z</time>
      </trkpt>
      <trkpt lat="39.1612230" lon="-1.4574650">
        <ele>673.2</ele>
        <time>2019-05-12T08:25:27Z</time>
      </trkpt>
      <trkpt lat="39.1612180" lon="-1.4574670">
        <ele>673.4</ele>
        <time>2019-05-12T08:25:28Z</time>
      </trkpt>
      <trkpt lat="39.1612130" lon="-1.4574670">
        <ele>673.6</ele>
        <time>2019-05-12T08:25:29Z</time>
      </trkpt>
      <trkpt lat="39.1612060" lon="-1.4574650">
        <ele>673.8</ele>
        <time>2019-05-12T08:25:30Z</time>
      </trkpt>
      <trkpt lat="39.1611990" lon="-1.4574640">
        <ele>674.0</ele>
        <time>2019-05-12T08:25:31Z</time>
      </trkpt>
      <trkpt lat="39.1611930" lon="-1.4574640">
        <ele>674.2</ele>
        <time>2019-05-12T08:25:32Z</time>
      </trkpt>
      <trkpt lat="39.1611870" lon="-1.4574620">
        <ele>674.4</ele>
        <time>2019-05-12T08:25:33Z</time>
      </trkpt>
      <trkpt lat="39.1611810" lon="-1.4574580">
        <ele>674.6</ele>
        <time>2019-05-12T08:25:34Z</time>
      </trkpt>
      <trkpt lat="39.1611750" lon="-1.4574550">
        <ele>674.8</ele>
        <time>2019-05-12T08:25:35Z</time>
      </trkpt>
      <trkpt lat="39.1611680" lon="-1.4574480">
        <ele>675.0</ele>
        <time>2019-05-12T08:25:36Z</time>
      </trkpt>
      <trkpt lat="39.1611650" lon="-1.4574400">
        <ele>675.4</ele>
        <time>2019-05-12T08:25:37Z</time>
      </trkpt>
      <trkpt lat="39.1611590" lon="-1.4574320">
        <ele>675.6</ele>
        <time>2019-05-12T08:25:38Z</time>
      </trkpt>
      <trkpt lat="39.1611560" lon="-1.4574220">
        <ele>675.8</ele>
        <time>2019-05-12T08:25:39Z</time>
      </trkpt>
      <trkpt lat="39.1611550" lon="-1.4574160">
        <ele>676.2</ele>
        <time>2019-05-12T08:25:40Z</time>
      </trkpt>
      <trkpt lat="39.1611540" lon="-1.4574080">
        <ele>676.4</ele>
        <time>2019-05-12T08:25:41Z</time>
      </trkpt>
      <trkpt lat="39.1611510" lon="-1.4573990">
        <ele>676.6</ele>
        <time>2019-05-12T08:25:42Z</time>
      </trkpt>
      <trkpt lat="39.1611480" lon="-1.4573910">
        <ele>676.8</ele>
        <time>2019-05-12T08:25:43Z</time>
      </trkpt>
      <trkpt lat="39.1611440" lon="-1.4573820">
        <ele>677.0</ele>
        <time>2019-05-12T08:25:44Z</time>
      </trkpt>
      <trkpt lat="39.1611410" lon="-1.4573740">
        <ele>677.2</ele>
        <time>2019-05-12T08:25:45Z</time>
      </trkpt>
      <trkpt lat="39.1611380" lon="-1.4573630">
        <ele>677.4</ele>
        <time>2019-05-12T08:25:46Z</time>
      </trkpt>
      <trkpt lat="39.1611330" lon="-1.4573510">
        <ele>677.6</ele>
        <time>2019-05-12T08:25:47Z</time>
      </trkpt>
      <trkpt lat="39.1611300" lon="-1.4573400">
        <ele>677.6</ele>
        <time>2019-05-12T08:25:48Z</time>
      </trkpt>
      <trkpt lat="39.1611270" lon="-1.4573320">
        <ele>677.8</ele>
        <time>2019-05-12T08:25:49Z</time>
      </trkpt>
      <trkpt lat="39.1611230" lon="-1.4573230">
        <ele>678.0</ele>
        <time>2019-05-12T08:25:50Z</time>
      </trkpt>
      <trkpt lat="39.1611190" lon="-1.4573150">
        <ele>678.0</ele>
        <time>2019-05-12T08:25:51Z</time>
      </trkpt>
      <trkpt lat="39.1611160" lon="-1.4573070">
        <ele>678.2</ele>
        <time>2019-05-12T08:25:52Z</time>
      </trkpt>
      <trkpt lat="39.1611130" lon="-1.4573000">
        <ele>678.6</ele>
        <time>2019-05-12T08:25:53Z</time>
      </trkpt>
      <trkpt lat="39.1611090" lon="-1.4572920">
        <ele>679.0</ele>
        <time>2019-05-12T08:25:54Z</time>
      </trkpt>
      <trkpt lat="39.1611040" lon="-1.4572850">
        <ele>679.0</ele>
        <time>2019-05-12T08:25:55Z</time>
      </trkpt>
      <trkpt lat="39.1611000" lon="-1.4572780">
        <ele>679.2</ele>
        <time>2019-05-12T08:25:56Z</time>
      </trkpt>
      <trkpt lat="39.1610950" lon="-1.4572710">
        <ele>679.4</ele>
        <time>2019-05-12T08:25:57Z</time>
      </trkpt>
      <trkpt lat="39.1610910" lon="-1.4572620">
        <ele>679.6</ele>
        <time>2019-05-12T08:25:58Z</time>
      </trkpt>
      <trkpt lat="39.1610870" lon="-1.4572530">
        <ele>679.8</ele>
        <time>2019-05-12T08:25:59Z</time>
      </trkpt>
      <trkpt lat="39.1610840" lon="-1.4572450">
        <ele>680.0</ele>
        <time>2019-05-12T08:26:00Z</time>
      </trkpt>
      <trkpt lat="39.1610790" lon="-1.4572370">
        <ele>680.2</ele>
        <time>2019-05-12T08:26:01Z</time>
      </trkpt>
      <trkpt lat="39.1610750" lon="-1.4572300">
        <ele>680.2</ele>
        <time>2019-05-12T08:26:02Z</time>
      </trkpt>
      <trkpt lat="39.1610690" lon="-1.4572260">
        <ele>680.4</ele>
        <time>2019-05-12T08:26:03Z</time>
      </trkpt>
      <trkpt lat="39.1610630" lon="-1.4572230">
        <ele>680.4</ele>
        <time>2019-05-12T08:26:04Z</time>
      </trkpt>
      <trkpt lat="39.1610560" lon="-1.4572220">
        <ele>680.8</ele>
        <time>2019-05-12T08:26:05Z</time>
      </trkpt>
      <trkpt lat="39.1610490" lon="-1.4572270">
        <ele>681.0</ele>
        <time>2019-05-12T08:26:06Z</time>
      </trkpt>
      <trkpt lat="39.1610420" lon="-1.4572340">
        <ele>681.2</ele>
        <time>2019-05-12T08:26:07Z</time>
      </trkpt>
      <trkpt lat="39.1610360" lon="-1.4572410">
        <ele>681.6</ele>
        <time>2019-05-12T08:26:08Z</time>
      </trkpt>
      <trkpt lat="39.1610330" lon="-1.4572490">
        <ele>682.0</ele>
        <time>2019-05-12T08:26:09Z</time>
      </trkpt>
      <trkpt lat="39.1610340" lon="-1.4572590">
        <ele>682.2</ele>
        <time>2019-05-12T08:26:10Z</time>
      </trkpt>
      <trkpt lat="39.1610390" lon="-1.4572750">
        <ele>682.4</ele>
        <time>2019-05-12T08:26:11Z</time>
      </trkpt>
      <trkpt lat="39.1610400" lon="-1.4572920">
        <ele>682.6</ele>
        <time>2019-05-12T08:26:12Z</time>
      </trkpt>
      <trkpt lat="39.1610400" lon="-1.4573120">
        <ele>682.8</ele>
        <time>2019-05-12T08:26:13Z</time>
      </trkpt>
      <trkpt lat="39.1610390" lon="-1.4573380">
        <ele>683.0</ele>
        <time>2019-05-12T08:26:14Z</time>
      </trkpt>
      <trkpt lat="39.1610380" lon="-1.4573670">
        <ele>683.4</ele>
        <time>2019-05-12T08:26:15Z</time>
      </trkpt>
      <trkpt lat="39.1610340" lon="-1.4573990">
        <ele>683.4</ele>
        <time>2019-05-12T08:26:16Z</time>
      </trkpt>
      <trkpt lat="39.1610260" lon="-1.4574310">
        <ele>683.6</ele>
        <time>2019-05-12T08:26:17Z</time>
      </trkpt>
      <trkpt lat="39.1610160" lon="-1.4574550">
        <ele>683.6</ele>
        <time>2019-05-12T08:26:18Z</time>
      </trkpt>
      <trkpt lat="39.1610070" lon="-1.4574740">
        <ele>683.8</ele>
        <time>2019-05-12T08:26:19Z</time>
      </trkpt>
      <trkpt lat="39.1610050" lon="-1.4574970">
        <ele>683.8</ele>
        <time>2019-05-12T08:26:20Z</time>
      </trkpt>
      <trkpt lat="39.1610090" lon="-1.4575270">
        <ele>683.8</ele>
        <time>2019-05-12T08:26:21Z</time>
      </trkpt>
      <trkpt lat="39.1610140" lon="-1.4575610">
        <ele>683.8</ele>
        <time>2019-05-12T08:26:22Z</time>
      </trkpt>
      <trkpt lat="39.1610200" lon="-1.4575960">
        <ele>683.8</ele>
        <time>2019-05-12T08:26:23Z</time>
      </trkpt>
      <trkpt lat="39.1610280" lon="-1.4576300">
        <ele>683.8</ele>
        <time>2019-05-12T08:26:24Z</time>
      </trkpt>
      <trkpt lat="39.1610370" lon="-1.4576620">
        <ele>684.0</ele>
        <time>2019-05-12T08:26:25Z</time>
      </trkpt>
      <trkpt lat="39.1610480" lon="-1.4576930">
        <ele>684.2</ele>
        <time>2019-05-12T08:26:26Z</time>
      </trkpt>
      <trkpt lat="39.1610620" lon="-1.4577240">
        <ele>684.4</ele>
        <time>2019-05-12T08:26:27Z</time>
      </trkpt>
      <trkpt lat="39.1610800" lon="-1.4577550">
        <ele>684.8</ele>
        <time>2019-05-12T08:26:28Z</time>
      </trkpt>
      <trkpt lat="39.1610940" lon="-1.4577840">
        <ele>684.8</ele>
        <time>2019-05-12T08:26:29Z</time>
      </trkpt>
      <trkpt lat="39.1611030" lon="-1.4578220">
        <ele>684.8</ele>
        <time>2019-05-12T08:26:30Z</time>
      </trkpt>
      <trkpt lat="39.1611210" lon="-1.4578630">
        <ele>684.8</ele>
        <time>2019-05-12T08:26:31Z</time>
      </trkpt>
      <trkpt lat="39.1611470" lon="-1.4579090">
        <ele>684.8</ele>
        <time>2019-05-12T08:26:32Z</time>
      </trkpt>
      <trkpt lat="39.1611820" lon="-1.4579590">
        <ele>685.0</ele>
        <time>2019-05-12T08:26:33Z</time>
      </trkpt>
      <trkpt lat="39.1612120" lon="-1.4580070">
        <ele>685.0</ele>
        <time>2019-05-12T08:26:34Z</time>
      </trkpt>
      <trkpt lat="39.1612420" lon="-1.4580540">
        <ele>685.0</ele>
        <time>2019-05-12T08:26:35Z</time>
      </trkpt>
      <trkpt lat="39.1612600" lon="-1.4581000">
        <ele>685.0</ele>
        <time>2019-05-12T08:26:36Z</time>
      </trkpt>
      <trkpt lat="39.1612730" lon="-1.4581480">
        <ele>685.0</ele>
        <time>2019-05-12T08:26:37Z</time>
      </trkpt>
      <trkpt lat="39.1612780" lon="-1.4581920">
        <ele>684.8</ele>
        <time>2019-05-12T08:26:38Z</time>
      </trkpt>
      <trkpt lat="39.1612920" lon="-1.4582310">
        <ele>684.6</ele>
        <time>2019-05-12T08:26:39Z</time>
      </trkpt>
      <trkpt lat="39.1613120" lon="-1.4582510">
        <ele>684.4</ele>
        <time>2019-05-12T08:26:40Z</time>
      </trkpt>
      <trkpt lat="39.1613390" lon="-1.4582560">
        <ele>684.0</ele>
        <time>2019-05-12T08:26:41Z</time>
      </trkpt>
      <trkpt lat="39.1613650" lon="-1.4582700">
        <ele>684.0</ele>
        <time>2019-05-12T08:26:42Z</time>
      </trkpt>
      <trkpt lat="39.1613860" lon="-1.4582920">
        <ele>683.8</ele>
        <time>2019-05-12T08:26:43Z</time>
      </trkpt>
      <trkpt lat="39.1614040" lon="-1.4583210">
        <ele>683.6</ele>
        <time>2019-05-12T08:26:44Z</time>
      </trkpt>
      <trkpt lat="39.1614260" lon="-1.4583500">
        <ele>683.2</ele>
        <time>2019-05-12T08:26:45Z</time>
      </trkpt>
      <trkpt lat="39.1614470" lon="-1.4583770">
        <ele>683.0</ele>
        <time>2019-05-12T08:26:46Z</time>
      </trkpt>
      <trkpt lat="39.1614680" lon="-1.4584060">
        <ele>682.6</ele>
        <time>2019-05-12T08:26:47Z</time>
      </trkpt>
      <trkpt lat="39.1614870" lon="-1.4584360">
        <ele>682.4</ele>
        <time>2019-05-12T08:26:48Z</time>
      </trkpt>
      <trkpt lat="39.1615040" lon="-1.4584680">
        <ele>682.2</ele>
        <time>2019-05-12T08:26:49Z</time>
      </trkpt>
      <trkpt lat="39.1615220" lon="-1.4584950">
        <ele>682.2</ele>
        <time>2019-05-12T08:26:50Z</time>
      </trkpt>
      <trkpt lat="39.1615470" lon="-1.4585150">
        <ele>682.2</ele>
        <time>2019-05-12T08:26:51Z</time>
      </trkpt>
      <trkpt lat="39.1615740" lon="-1.4585240">
        <ele>682.2</ele>
        <time>2019-05-12T08:26:52Z</time>
      </trkpt>
      <trkpt lat="39.1616020" lon="-1.4585250">
        <ele>682.2</ele>
        <time>2019-05-12T08:26:53Z</time>
      </trkpt>
      <trkpt lat="39.1616310" lon="-1.4585260">
        <ele>682.2</ele>
        <time>2019-05-12T08:26:54Z</time>
      </trkpt>
      <trkpt lat="39.1616580" lon="-1.4585370">
        <ele>682.2</ele>
        <time>2019-05-12T08:26:55Z</time>
      </trkpt>
      <trkpt lat="39.1616800" lon="-1.4585490">
        <ele>682.2</ele>
        <time>2019-05-12T08:26:56Z</time>
      </trkpt>
      <trkpt lat="39.1617020" lon="-1.4585590">
        <ele>682.2</ele>
        <time>2019-05-12T08:26:57Z</time>
      </trkpt>
      <trkpt lat="39.1617260" lon="-1.4585700">
        <ele>682.2</ele>
        <time>2019-05-12T08:26:58Z</time>
      </trkpt>
      <trkpt lat="39.1617530" lon="-1.4585810">
        <ele>682.2</ele>
        <time>2019-05-12T08:26:59Z</time>
      </trkpt>
      <trkpt lat="39.1617810" lon="-1.4585900">
        <ele>682.4</ele>
        <time>2019-05-12T08:27:00Z</time>
      </trkpt>
      <trkpt lat="39.1618040" lon="-1.4585940">
        <ele>682.6</ele>
        <time>2019-05-12T08:27:01Z</time>
      </trkpt>
      <trkpt lat="39.1618290" lon="-1.4585990">
        <ele>683.0</ele>
        <time>2019-05-12T08:27:02Z</time>
      </trkpt>
      <trkpt lat="39.1618510" lon="-1.4586020">
        <ele>684.0</ele>
        <time>2019-05-12T08:27:03Z</time>
      </trkpt>
      <trkpt lat="39.1618720" lon="-1.4585970">
        <ele>684.4</ele>
        <time>2019-05-12T08:27:04Z</time>
      </trkpt>
      <trkpt lat="39.1618940" lon="-1.4585840">
        <ele>685.0</ele>
        <time>2019-05-12T08:27:05Z</time>
      </trkpt>
      <trkpt lat="39.1619190" lon="-1.4585680">
        <ele>685.4</ele>
        <time>2019-05-12T08:27:06Z</time>
      </trkpt>
      <trkpt lat="39.1619480" lon="-1.4585520">
        <ele>686.0</ele>
        <time>2019-05-12T08:27:07Z</time>
      </trkpt>
      <trkpt lat="39.1619830" lon="-1.4585370">
        <ele>686.4</ele>
        <time>2019-05-12T08:27:08Z</time>
      </trkpt>
      <trkpt lat="39.1620220" lon="-1.4585230">
        <ele>687.0</ele>
        <time>2019-05-12T08:27:09Z</time>
      </trkpt>
      <trkpt lat="39.1620630" lon="-1.4585120">
        <ele>687.8</ele>
        <time>2019-05-12T08:27:10Z</time>
      </trkpt>
      <trkpt lat="39.1621060" lon="-1.4585010">
        <ele>688.2</ele>
        <time>2019-05-12T08:27:11Z</time>
      </trkpt>
      <trkpt lat="39.1621500" lon="-1.4584920">
        <ele>688.2</ele>
        <time>2019-05-12T08:27:12Z</time>
      </trkpt>
      <trkpt lat="39.1621940" lon="-1.4584820">
        <ele>688.4</ele>
        <time>2019-05-12T08:27:13Z</time>
      </trkpt>
      <trkpt lat="39.1622370" lon="-1.4584670">
        <ele>688.6</ele>
        <time>2019-05-12T08:27:14Z</time>
      </trkpt>
      <trkpt lat="39.1622800" lon="-1.4584490">
        <ele>688.8</ele>
        <time>2019-05-12T08:27:15Z</time>
      </trkpt>
      <trkpt lat="39.1623200" lon="-1.4584260">
        <ele>688.8</ele>
        <time>2019-05-12T08:27:16Z</time>
      </trkpt>
      <trkpt lat="39.1623610" lon="-1.4584000">
        <ele>688.8</ele>
        <time>2019-05-12T08:27:17Z</time>
      </trkpt>
      <trkpt lat="39.1624020" lon="-1.4583730">
        <ele>688.8</ele>
        <time>2019-05-12T08:27:18Z</time>
      </trkpt>
      <trkpt lat="39.1624440" lon="-1.4583490">
        <ele>688.8</ele>
        <time>2019-05-12T08:27:19Z</time>
      </trkpt>
      <trkpt lat="39.1624870" lon="-1.4583310">
        <ele>688.8</ele>
        <time>2019-05-12T08:27:20Z</time>
      </trkpt>
      <trkpt lat="39.1625310" lon="-1.4583220">
        <ele>688.8</ele>
        <time>2019-05-12T08:27:21Z</time>
      </trkpt>
      <trkpt lat="39.1625760" lon="-1.4583160">
        <ele>688.8</ele>
        <time>2019-05-12T08:27:22Z</time>
      </trkpt>
      <trkpt lat="39.1626230" lon="-1.4583130">
        <ele>688.8</ele>
        <time>2019-05-12T08:27:23Z</time>
      </trkpt>
      <trkpt lat="39.1626700" lon="-1.4583090">
        <ele>688.8</ele>
        <time>2019-05-12T08:27:24Z</time>
      </trkpt>
      <trkpt lat="39.1627190" lon="-1.4583060">
        <ele>688.6</ele>
        <time>2019-05-12T08:27:25Z</time>
      </trkpt>
      <trkpt lat="39.1627690" lon="-1.4583060">
        <ele>688.6</ele>
        <time>2019-05-12T08:27:26Z</time>
      </trkpt>
      <trkpt lat="39.1628200" lon="-1.4583120">
        <ele>688.6</ele>
        <time>2019-05-12T08:27:27Z</time>
      </trkpt>
      <trkpt lat="39.1628700" lon="-1.4583230">
        <ele>688.6</ele>
        <time>2019-05-12T08:27:28Z</time>
      </trkpt>
      <trkpt lat="39.1629190" lon="-1.4583330">
        <ele>688.6</ele>
        <time>2019-05-12T08:27:29Z</time>
      </trkpt>
      <trkpt lat="39.1629680" lon="-1.4583410">
        <ele>688.6</ele>
        <time>2019-05-12T08:27:30Z</time>
      </trkpt>
      <trkpt lat="39.1630160" lon="-1.4583430">
        <ele>688.6</ele>
        <time>2019-05-12T08:27:31Z</time>
      </trkpt>
      <trkpt lat="39.1630620" lon="-1.4583440">
        <ele>688.6</ele>
        <time>2019-05-12T08:27:32Z</time>
      </trkpt>
      <trkpt lat="39.1631080" lon="-1.4583450">
        <ele>688.6</ele>
        <time>2019-05-12T08:27:33Z</time>
      </trkpt>
      <trkpt lat="39.1631540" lon="-1.4583440">
        <ele>688.6</ele>
        <time>2019-05-12T08:27:34Z</time>
      </trkpt>
      <trkpt lat="39.1632000" lon="-1.4583380">
        <ele>688.6</ele>
        <time>2019-05-12T08:27:35Z</time>
      </trkpt>
      <trkpt lat="39.1632450" lon="-1.4583300">
        <ele>688.6</ele>
        <time>2019-05-12T08:27:36Z</time>
      </trkpt>
      <trkpt lat="39.1632910" lon="-1.4583230">
        <ele>688.4</ele>
        <time>2019-05-12T08:27:37Z</time>
      </trkpt>
      <trkpt lat="39.1633370" lon="-1.4583110">
        <ele>688.6</ele>
        <time>2019-05-12T08:27:38Z</time>
      </trkpt>
      <trkpt lat="39.1633820" lon="-1.4582960">
        <ele>688.6</ele>
        <time>2019-05-12T08:27:39Z</time>
      </trkpt>
      <trkpt lat="39.1634270" lon="-1.4582800">
        <ele>688.6</ele>
        <time>2019-05-12T08:27:40Z</time>
      </trkpt>
      <trkpt lat="39.1634730" lon="-1.4582700">
        <ele>688.6</ele>
        <time>2019-05-12T08:27:41Z</time>
      </trkpt>
      <trkpt lat="39.1635190" lon="-1.4582650">
        <ele>688.6</ele>
        <time>2019-05-12T08:27:42Z</time>
      </trkpt>
      <trkpt lat="39.1635640" lon="-1.4582640">
        <ele>688.6</ele>
        <time>2019-05-12T08:27:43Z</time>
      </trkpt>
      <trkpt lat="39.1636060" lon="-1.4582620">
        <ele>688.6</ele>
        <time>2019-05-12T08:27:44Z</time>
      </trkpt>
      <trkpt lat="39.1636470" lon="-1.4582600">
        <ele>688.6</ele>
        <time>2019-05-12T08:27:45Z</time>
      </trkpt>
      <trkpt lat="39.1636870" lon="-1.4582590">
        <ele>688.6</ele>
        <time>2019-05-12T08:27:46Z</time>
      </trkpt>
      <trkpt lat="39.1637260" lon="-1.4582620">
        <ele>688.6</ele>
        <time>2019-05-12T08:27:47Z</time>
      </trkpt>
      <trkpt lat="39.1637650" lon="-1.4582710">
        <ele>688.6</ele>
        <time>2019-05-12T08:27:48Z</time>
      </trkpt>
      <trkpt lat="39.1638040" lon="-1.4582820">
        <ele>688.8</ele>
        <time>2019-05-12T08:27:49Z</time>
      </trkpt>
      <trkpt lat="39.1638430" lon="-1.4582950">
        <ele>688.8</ele>
        <time>2019-05-12T08:27:50Z</time>
      </trkpt>
      <trkpt lat="39.1638820" lon="-1.4583090">
        <ele>689.0</ele>
        <time>2019-05-12T08:27:51Z</time>
      </trkpt>
      <trkpt lat="39.1639200" lon="-1.4583260">
        <ele>689.0</ele>
        <time>2019-05-12T08:27:52Z</time>
      </trkpt>
      <trkpt lat="39.1639580" lon="-1.4583460">
        <ele>689.2</ele>
        <time>2019-05-12T08:27:53Z</time>
      </trkpt>
      <trkpt lat="39.1639910" lon="-1.4583750">
        <ele>689.4</ele>
        <time>2019-05-12T08:27:54Z</time>
      </trkpt>
      <trkpt lat="39.1640170" lon="-1.4584150">
        <ele>689.4</ele>
        <time>2019-05-12T08:27:55Z</time>
      </trkpt>
      <trkpt lat="39.1640380" lon="-1.4584620">
        <ele>689.6</ele>
        <time>2019-05-12T08:27:56Z</time>
      </trkpt>
      <trkpt lat="39.1640580" lon="-1.4585120">
        <ele>689.6</ele>
        <time>2019-05-12T08:27:57Z</time>
      </trkpt>
      <trkpt lat="39.1640760" lon="-1.4585600">
        <ele>689.8</ele>
        <time>2019-05-12T08:27:58Z</time>
      </trkpt>
      <trkpt lat="39.1640910" lon="-1.4586070">
        <ele>690.0</ele>
        <time>2019-05-12T08:27:59Z</time>
      </trkpt>
      <trkpt lat="39.1641050" lon="-1.4586490">
        <ele>690.2</ele>
        <time>2019-05-12T08:28:00Z</time>
      </trkpt>
      <trkpt lat="39.1641200" lon="-1.4586860">
        <ele>690.4</ele>
        <time>2019-05-12T08:28:01Z</time>
      </trkpt>
      <trkpt lat="39.1641360" lon="-1.4587230">
        <ele>690.6</ele>
        <time>2019-05-12T08:28:02Z</time>
      </trkpt>
      <trkpt lat="39.1641500" lon="-1.4587610">
        <ele>690.6</ele>
        <time>2019-05-12T08:28:03Z</time>
      </trkpt>
      <trkpt lat="39.1641590" lon="-1.4587990">
        <ele>690.8</ele>
        <time>2019-05-12T08:28:04Z</time>
      </trkpt>
      <trkpt lat="39.1641620" lon="-1.4588330">
        <ele>690.8</ele>
        <time>2019-05-12T08:28:05Z</time>
      </trkpt>
      <trkpt lat="39.1641650" lon="-1.4588630">
        <ele>690.8</ele>
        <time>2019-05-12T08:28:06Z</time>
      </trkpt>
      <trkpt lat="39.1641720" lon="-1.4588910">
        <ele>691.0</ele>
        <time>2019-05-12T08:28:07Z</time>
      </trkpt>
      <trkpt lat="39.1641800" lon="-1.4589170">
        <ele>691.2</ele>
        <time>2019-05-12T08:28:08Z</time>
      </trkpt>
      <trkpt lat="39.1641930" lon="-1.4589430">
        <ele>691.6</ele>
        <time>2019-05-12T08:28:09Z</time>
      </trkpt>
      <trkpt lat="39.1642080" lon="-1.4589680">
        <ele>691.8</ele>
        <time>2019-05-12T08:28:10Z</time>
      </trkpt>
      <trkpt lat="39.1642240" lon="-1.4589930">
        <ele>692.0</ele>
        <time>2019-05-12T08:28:11Z</time>
      </trkpt>
      <trkpt lat="39.1642380" lon="-1.4590180">
        <ele>692.6</ele>
        <time>2019-05-12T08:28:12Z</time>
      </trkpt>
      <trkpt lat="39.1642500" lon="-1.4590440">
        <ele>693.2</ele>
        <time>2019-05-12T08:28:13Z</time>
      </trkpt>
      <trkpt lat="39.1642590" lon="-1.4590720">
        <ele>693.8</ele>
        <time>2019-05-12T08:28:14Z</time>
      </trkpt>
      <trkpt lat="39.1642660" lon="-1.4591020">
        <ele>694.2</ele>
        <time>2019-05-12T08:28:15Z</time>
      </trkpt>
      <trkpt lat="39.1642730" lon="-1.4591330">
        <ele>694.6</ele>
        <time>2019-05-12T08:28:16Z</time>
      </trkpt>
      <trkpt lat="39.1642790" lon="-1.4591640">
        <ele>695.2</ele>
        <time>2019-05-12T08:28:17Z</time>
      </trkpt>
      <trkpt lat="39.1642830" lon="-1.4591960">
        <ele>695.6</ele>
        <time>2019-05-12T08:28:18Z</time>
      </trkpt>
      <trkpt lat="39.1642870" lon="-1.4592310">
        <ele>695.8</ele>
        <time>2019-05-12T08:28:19Z</time>
      </trkpt>
      <trkpt lat="39.1642920" lon="-1.4592680">
        <ele>696.2</ele>
        <time>2019-05-12T08:28:20Z</time>
      </trkpt>
      <trkpt lat="39.1642970" lon="-1.4593060">
        <ele>696.4</ele>
        <time>2019-05-12T08:28:21Z</time>
      </trkpt>
      <trkpt lat="39.1643000" lon="-1.4593440">
        <ele>696.8</ele>
        <time>2019-05-12T08:28:22Z</time>
      </trkpt>
      <trkpt lat="39.1643040" lon="-1.4593810">
        <ele>697.2</ele>
        <time>2019-05-12T08:28:23Z</time>
      </trkpt>
      <trkpt lat="39.1643080" lon="-1.4594180">
        <ele>697.6</ele>
        <time>2019-05-12T08:28:24Z</time>
      </trkpt>
      <trkpt lat="39.1643150" lon="-1.4594560">
        <ele>697.8</ele>
        <time>2019-05-12T08:28:25Z</time>
      </trkpt>
      <trkpt lat="39.1643280" lon="-1.4594960">
        <ele>698.0</ele>
        <time>2019-05-12T08:28:26Z</time>
      </trkpt>
      <trkpt lat="39.1643440" lon="-1.4595360">
        <ele>698.4</ele>
        <time>2019-05-12T08:28:27Z</time>
      </trkpt>
      <trkpt lat="39.1643630" lon="-1.4595770">
        <ele>698.6</ele>
        <time>2019-05-12T08:28:28Z</time>
      </trkpt>
      <trkpt lat="39.1643840" lon="-1.4596190">
        <ele>698.8</ele>
        <time>2019-05-12T08:28:29Z</time>
      </trkpt>
      <trkpt lat="39.1644060" lon="-1.4596620">
        <ele>699.2</ele>
        <time>2019-05-12T08:28:30Z</time>
      </trkpt>
      <trkpt lat="39.1644310" lon="-1.4597040">
        <ele>699.2</ele>
        <time>2019-05-12T08:28:31Z</time>
      </trkpt>
      <trkpt lat="39.1644570" lon="-1.4597440">
        <ele>699.4</ele>
        <time>2019-05-12T08:28:32Z</time>
      </trkpt>
      <trkpt lat="39.1644850" lon="-1.4597860">
        <ele>699.4</ele>
        <time>2019-05-12T08:28:33Z</time>
      </trkpt>
      <trkpt lat="39.1645120" lon="-1.4598300">
        <ele>699.4</ele>
        <time>2019-05-12T08:28:34Z</time>
      </trkpt>
      <trkpt lat="39.1645410" lon="-1.4598750">
        <ele>699.4</ele>
        <time>2019-05-12T08:28:35Z</time>
      </trkpt>
      <trkpt lat="39.1645680" lon="-1.4599210">
        <ele>699.6</ele>
        <time>2019-05-12T08:28:36Z</time>
      </trkpt>
      <trkpt lat="39.1645950" lon="-1.4599690">
        <ele>699.6</ele>
        <time>2019-05-12T08:28:37Z</time>
      </trkpt>
      <trkpt lat="39.1646220" lon="-1.4600180">
        <ele>699.6</ele>
        <time>2019-05-12T08:28:38Z</time>
      </trkpt>
      <trkpt lat="39.1646490" lon="-1.4600670">
        <ele>699.6</ele>
        <time>2019-05-12T08:28:39Z</time>
      </trkpt>
      <trkpt lat="39.1646800" lon="-1.4601140">
        <ele>699.6</ele>
        <time>2019-05-12T08:28:40Z</time>
      </trkpt>
      <trkpt lat="39.1647120" lon="-1.4601610">
        <ele>699.6</ele>
        <time>2019-05-12T08:28:41Z</time>
      </trkpt>
      <trkpt lat="39.1647470" lon="-1.4602040">
        <ele>699.6</ele>
        <time>2019-05-12T08:28:42Z</time>
      </trkpt>
      <trkpt lat="39.1647850" lon="-1.4602450">
        <ele>699.6</ele>
        <time>2019-05-12T08:28:43Z</time>
      </trkpt>
      <trkpt lat="39.1648240" lon="-1.4602850">
        <ele>699.6</ele>
        <time>2019-05-12T08:28:44Z</time>
      </trkpt>
      <trkpt lat="39.1648660" lon="-1.4603240">
        <ele>699.6</ele>
        <time>2019-05-12T08:28:45Z</time>
      </trkpt>
      <trkpt lat="39.1649090" lon="-1.4603620">
        <ele>699.6</ele>
        <time>2019-05-12T08:28:46Z</time>
      </trkpt>
      <trkpt lat="39.1649500" lon="-1.4604010">
        <ele>699.6</ele>
        <time>2019-05-12T08:28:47Z</time>
      </trkpt>
      <trkpt lat="39.1649920" lon="-1.4604430">
        <ele>699.6</ele>
        <time>2019-05-12T08:28:48Z</time>
      </trkpt>
      <trkpt lat="39.1650330" lon="-1.4604880">
        <ele>699.6</ele>
        <time>2019-05-12T08:28:49Z</time>
      </trkpt>
      <trkpt lat="39.1650620" lon="-1.4605280">
        <ele>699.6</ele>
        <time>2019-05-12T08:28:50Z</time>
      </trkpt>
      <trkpt lat="39.1650910" lon="-1.4605690">
        <ele>699.6</ele>
        <time>2019-05-12T08:28:51Z</time>
      </trkpt>
      <trkpt lat="39.1651490" lon="-1.4606510">
        <ele>699.6</ele>
        <time>2019-05-12T08:28:52Z</time>
      </trkpt>
      <trkpt lat="39.1651890" lon="-1.4607090">
        <ele>699.6</ele>
        <time>2019-05-12T08:28:53Z</time>
      </trkpt>
      <trkpt lat="39.1652280" lon="-1.4607660">
        <ele>699.6</ele>
        <time>2019-05-12T08:28:54Z</time>
      </trkpt>
      <trkpt lat="39.1652670" lon="-1.4608220">
        <ele>699.6</ele>
        <time>2019-05-12T08:28:55Z</time>
      </trkpt>
      <trkpt lat="39.1653070" lon="-1.4608790">
        <ele>699.6</ele>
        <time>2019-05-12T08:28:56Z</time>
      </trkpt>
      <trkpt lat="39.1653470" lon="-1.4609380">
        <ele>699.6</ele>
        <time>2019-05-12T08:28:57Z</time>
      </trkpt>
      <trkpt lat="39.1653890" lon="-1.4609970">
        <ele>699.6</ele>
        <time>2019-05-12T08:28:58Z</time>
      </trkpt>
      <trkpt lat="39.1654310" lon="-1.4610560">
        <ele>699.6</ele>
        <time>2019-05-12T08:28:59Z</time>
      </trkpt>
      <trkpt lat="39.1654740" lon="-1.4611150">
        <ele>699.6</ele>
        <time>2019-05-12T08:29:00Z</time>
      </trkpt>
      <trkpt lat="39.1655150" lon="-1.4611750">
        <ele>699.6</ele>
        <time>2019-05-12T08:29:01Z</time>
      </trkpt>
      <trkpt lat="39.1655520" lon="-1.4612390">
        <ele>699.6</ele>
        <time>2019-05-12T08:29:02Z</time>
      </trkpt>
      <trkpt lat="39.1655850" lon="-1.4613050">
        <ele>699.6</ele>
        <time>2019-05-12T08:29:03Z</time>
      </trkpt>
      <trkpt lat="39.1656160" lon="-1.4613740">
        <ele>699.6</ele>
        <time>2019-05-12T08:29:04Z</time>
      </trkpt>
      <trkpt lat="39.1656450" lon="-1.4614440">
        <ele>699.6</ele>
        <time>2019-05-12T08:29:05Z</time>
      </trkpt>
      <trkpt lat="39.1656730" lon="-1.4615160">
        <ele>699.6</ele>
        <time>2019-05-12T08:29:06Z</time>
      </trkpt>
      <trkpt lat="39.1657010" lon="-1.4615900">
        <ele>699.6</ele>
        <time>2019-05-12T08:29:07Z</time>
      </trkpt>
      <trkpt lat="39.1657300" lon="-1.4616650">
        <ele>699.4</ele>
        <time>2019-05-12T08:29:08Z</time>
      </trkpt>
      <trkpt lat="39.1657580" lon="-1.4617400">
        <ele>699.4</ele>
        <time>2019-05-12T08:29:09Z</time>
      </trkpt>
      <trkpt lat="39.1657870" lon="-1.4618150">
        <ele>699.4</ele>
        <time>2019-05-12T08:29:10Z</time>
      </trkpt>
      <trkpt lat="39.1658160" lon="-1.4618920">
        <ele>699.4</ele>
        <time>2019-05-12T08:29:11Z</time>
      </trkpt>
      <trkpt lat="39.1658440" lon="-1.4619700">
        <ele>699.4</ele>
        <time>2019-05-12T08:29:12Z</time>
      </trkpt>
      <trkpt lat="39.1658730" lon="-1.4620470">
        <ele>699.4</ele>
        <time>2019-05-12T08:29:13Z</time>
      </trkpt>
      <trkpt lat="39.1659040" lon="-1.4621240">
        <ele>699.4</ele>
        <time>2019-05-12T08:29:14Z</time>
      </trkpt>
      <trkpt lat="39.1659350" lon="-1.4622000">
        <ele>699.4</ele>
        <time>2019-05-12T08:29:15Z</time>
      </trkpt>
      <trkpt lat="39.1659680" lon="-1.4622760">
        <ele>699.4</ele>
        <time>2019-05-12T08:29:16Z</time>
      </trkpt>
      <trkpt lat="39.1660020" lon="-1.4623520">
        <ele>699.4</ele>
        <time>2019-05-12T08:29:17Z</time>
      </trkpt>
      <trkpt lat="39.1660360" lon="-1.4624300">
        <ele>699.4</ele>
        <time>2019-05-12T08:29:18Z</time>
      </trkpt>
      <trkpt lat="39.1660730" lon="-1.4625080">
        <ele>699.4</ele>
        <time>2019-05-12T08:29:19Z</time>
      </trkpt>
      <trkpt lat="39.1661120" lon="-1.4625870">
        <ele>699.4</ele>
        <time>2019-05-12T08:29:20Z</time>
      </trkpt>
      <trkpt lat="39.1661510" lon="-1.4626690">
        <ele>699.2</ele>
        <time>2019-05-12T08:29:21Z</time>
      </trkpt>
      <trkpt lat="39.1661920" lon="-1.4627510">
        <ele>699.2</ele>
        <time>2019-05-12T08:29:22Z</time>
      </trkpt>
      <trkpt lat="39.1662330" lon="-1.4628350">
        <ele>699.2</ele>
        <time>2019-05-12T08:29:23Z</time>
      </trkpt>
      <trkpt lat="39.1662750" lon="-1.4629200">
        <ele>699.2</ele>
        <time>2019-05-12T08:29:24Z</time>
      </trkpt>
      <trkpt lat="39.1663180" lon="-1.4630060">
        <ele>699.0</ele>
        <time>2019-05-12T08:29:25Z</time>
      </trkpt>
      <trkpt lat="39.1663630" lon="-1.4630940">
        <ele>699.0</ele>
        <time>2019-05-12T08:29:26Z</time>
      </trkpt>
      <trkpt lat="39.1664100" lon="-1.4631830">
        <ele>698.6</ele>
        <time>2019-05-12T08:29:27Z</time>
      </trkpt>
      <trkpt lat="39.1664550" lon="-1.4632740">
        <ele>698.4</ele>
        <time>2019-05-12T08:29:28Z</time>
      </trkpt>
      <trkpt lat="39.1664980" lon="-1.4633660">
        <ele>698.2</ele>
        <time>2019-05-12T08:29:29Z</time>
      </trkpt>
      <trkpt lat="39.1665420" lon="-1.4634590">
        <ele>698.0</ele>
        <time>2019-05-12T08:29:30Z</time>
      </trkpt>
      <trkpt lat="39.1665780" lon="-1.4635250">
        <ele>697.6</ele>
        <time>2019-05-12T08:29:31Z</time>
      </trkpt>
      <trkpt lat="39.1666130" lon="-1.4635910">
        <ele>697.4</ele>
        <time>2019-05-12T08:29:32Z</time>
      </trkpt>
      <trkpt lat="39.1666830" lon="-1.4637240">
        <ele>697.4</ele>
        <time>2019-05-12T08:29:33Z</time>
      </trkpt>
      <trkpt lat="39.1667400" lon="-1.4638000">
        <ele>697.0</ele>
        <time>2019-05-12T08:29:34Z</time>
      </trkpt>
      <trkpt lat="39.1667970" lon="-1.4638740">
        <ele>697.0</ele>
        <time>2019-05-12T08:29:35Z</time>
      </trkpt>
      <trkpt lat="39.1668440" lon="-1.4639480">
        <ele>696.8</ele>
        <time>2019-05-12T08:29:36Z</time>
      </trkpt>
      <trkpt lat="39.1668700" lon="-1.4640220">
        <ele>696.6</ele>
        <time>2019-05-12T08:29:37Z</time>
      </trkpt>
      <trkpt lat="39.1668730" lon="-1.4640990">
        <ele>696.4</ele>
        <time>2019-05-12T08:29:38Z</time>
      </trkpt>
      <trkpt lat="39.1668530" lon="-1.4641780">
        <ele>696.4</ele>
        <time>2019-05-12T08:29:39Z</time>
      </trkpt>
      <trkpt lat="39.1668120" lon="-1.4642520">
        <ele>696.2</ele>
        <time>2019-05-12T08:29:40Z</time>
      </trkpt>
      <trkpt lat="39.1667710" lon="-1.4643310">
        <ele>695.8</ele>
        <time>2019-05-12T08:29:41Z</time>
      </trkpt>
      <trkpt lat="39.1667470" lon="-1.4644230">
        <ele>695.6</ele>
        <time>2019-05-12T08:29:42Z</time>
      </trkpt>
      <trkpt lat="39.1667380" lon="-1.4645150">
        <ele>695.2</ele>
        <time>2019-05-12T08:29:43Z</time>
      </trkpt>
      <trkpt lat="39.1667420" lon="-1.4645840">
        <ele>695.0</ele>
        <time>2019-05-12T08:29:44Z</time>
      </trkpt>
      <trkpt lat="39.1667460" lon="-1.4646530">
        <ele>694.6</ele>
        <time>2019-05-12T08:29:45Z</time>
      </trkpt>
      <trkpt lat="39.1667540" lon="-1.4647910">
        <ele>694.4</ele>
        <time>2019-05-12T08:29:46Z</time>
      </trkpt>
      <trkpt lat="39.1667680" lon="-1.4648840">
        <ele>694.2</ele>
        <time>2019-05-12T08:29:47Z</time>
      </trkpt>
      <trkpt lat="39.1667860" lon="-1.4649770">
        <ele>694.2</ele>
        <time>2019-05-12T08:29:48Z</time>
      </trkpt>
      <trkpt lat="39.1668080" lon="-1.4650710">
        <ele>694.2</ele>
        <time>2019-05-12T08:29:49Z</time>
      </trkpt>
      <trkpt lat="39.1668280" lon="-1.4651660">
        <ele>694.2</ele>
        <time>2019-05-12T08:29:50Z</time>
      </trkpt>
      <trkpt lat="39.1668400" lon="-1.4652640">
        <ele>694.2</ele>
        <time>2019-05-12T08:29:51Z</time>
      </trkpt>
      <trkpt lat="39.1668480" lon="-1.4653650">
        <ele>694.0</ele>
        <time>2019-05-12T08:29:52Z</time>
      </trkpt>
      <trkpt lat="39.1668600" lon="-1.4654660">
        <ele>694.0</ele>
        <time>2019-05-12T08:29:53Z</time>
      </trkpt>
      <trkpt lat="39.1668800" lon="-1.4655650">
        <ele>694.0</ele>
        <time>2019-05-12T08:29:54Z</time>
      </trkpt>
      <trkpt lat="39.1669080" lon="-1.4656610">
        <ele>694.0</ele>
        <time>2019-05-12T08:29:55Z</time>
      </trkpt>
      <trkpt lat="39.1669360" lon="-1.4657550">
        <ele>694.0</ele>
        <time>2019-05-12T08:29:56Z</time>
      </trkpt>
      <trkpt lat="39.1669640" lon="-1.4658520">
        <ele>694.0</ele>
        <time>2019-05-12T08:29:57Z</time>
      </trkpt>
      <trkpt lat="39.1669960" lon="-1.4659560">
        <ele>694.0</ele>
        <time>2019-05-12T08:29:58Z</time>
      </trkpt>
      <trkpt lat="39.1670330" lon="-1.4660650">
        <ele>694.0</ele>
        <time>2019-05-12T08:29:59Z</time>
      </trkpt>
      <trkpt lat="39.1670760" lon="-1.4661720">
        <ele>694.0</ele>
        <time>2019-05-12T08:30:00Z</time>
      </trkpt>
      <trkpt lat="39.1671280" lon="-1.4662750">
        <ele>694.0</ele>
        <time>2019-05-12T08:30:01Z</time>
      </trkpt>
      <trkpt lat="39.1671870" lon="-1.4663720">
        <ele>694.0</ele>
        <time>2019-05-12T08:30:02Z</time>
      </trkpt>
      <trkpt lat="39.1672500" lon="-1.4664650">
        <ele>694.0</ele>
        <time>2019-05-12T08:30:03Z</time>
      </trkpt>
      <trkpt lat="39.1673120" lon="-1.4665560">
        <ele>693.8</ele>
        <time>2019-05-12T08:30:04Z</time>
      </trkpt>
      <trkpt lat="39.1673540" lon="-1.4666250">
        <ele>693.8</ele>
        <time>2019-05-12T08:30:05Z</time>
      </trkpt>
      <trkpt lat="39.1673960" lon="-1.4666950">
        <ele>693.2</ele>
        <time>2019-05-12T08:30:06Z</time>
      </trkpt>
      <trkpt lat="39.1674800" lon="-1.4668350">
        <ele>692.4</ele>
        <time>2019-05-12T08:30:07Z</time>
      </trkpt>
      <trkpt lat="39.1675260" lon="-1.4669360">
        <ele>691.6</ele>
        <time>2019-05-12T08:30:08Z</time>
      </trkpt>
      <trkpt lat="39.1675730" lon="-1.4670430">
        <ele>691.2</ele>
        <time>2019-05-12T08:30:09Z</time>
      </trkpt>
      <trkpt lat="39.1676290" lon="-1.4671510">
        <ele>690.4</ele>
        <time>2019-05-12T08:30:10Z</time>
      </trkpt>
      <trkpt lat="39.1676970" lon="-1.4672540">
        <ele>689.8</ele>
        <time>2019-05-12T08:30:11Z</time>
      </trkpt>
      <trkpt lat="39.1677600" lon="-1.4673180">
        <ele>689.4</ele>
        <time>2019-05-12T08:30:12Z</time>
      </trkpt>
      <trkpt lat="39.1678220" lon="-1.4673820">
        <ele>689.0</ele>
        <time>2019-05-12T08:30:13Z</time>
      </trkpt>
      <trkpt lat="39.1679470" lon="-1.4675100">
        <ele>688.6</ele>
        <time>2019-05-12T08:30:14Z</time>
      </trkpt>
      <trkpt lat="39.1680370" lon="-1.4675860">
        <ele>688.2</ele>
        <time>2019-05-12T08:30:15Z</time>
      </trkpt>
      <trkpt lat="39.1681270" lon="-1.4676610">
        <ele>688.0</ele>
        <time>2019-05-12T08:30:16Z</time>
      </trkpt>
      <trkpt lat="39.1682170" lon="-1.4677310">
        <ele>687.2</ele>
        <time>2019-05-12T08:30:17Z</time>
      </trkpt>
      <trkpt lat="39.1682620" lon="-1.4677670">
        <ele>686.6</ele>
        <time>2019-05-12T08:30:18Z</time>
      </trkpt>
      <trkpt lat="39.1683060" lon="-1.4678030">
        <ele>685.8</ele>
        <time>2019-05-12T08:30:19Z</time>
      </trkpt>
      <trkpt lat="39.1684510" lon="-1.4679380">
        <ele>685.0</ele>
        <time>2019-05-12T08:30:20Z</time>
      </trkpt>
      <trkpt lat="39.1685080" lon="-1.4680020">
        <ele>684.2</ele>
        <time>2019-05-12T08:30:21Z</time>
      </trkpt>
      <trkpt lat="39.1686210" lon="-1.4681290">
        <ele>683.6</ele>
        <time>2019-05-12T08:30:22Z</time>
      </trkpt>
      <trkpt lat="39.1686870" lon="-1.4682200">
        <ele>683.2</ele>
        <time>2019-05-12T08:30:23Z</time>
      </trkpt>
      <trkpt lat="39.1687490" lon="-1.4683150">
        <ele>682.8</ele>
        <time>2019-05-12T08:30:24Z</time>
      </trkpt>
      <trkpt lat="39.1688080" lon="-1.4684110">
        <ele>682.6</ele>
        <time>2019-05-12T08:30:25Z</time>
      </trkpt>
      <trkpt lat="39.1688640" lon="-1.4685110">
        <ele>682.2</ele>
        <time>2019-05-12T08:30:26Z</time>
      </trkpt>
      <trkpt lat="39.1689230" lon="-1.4686120">
        <ele>682.2</ele>
        <time>2019-05-12T08:30:27Z</time>
      </trkpt>
      <trkpt lat="39.1689850" lon="-1.4687140">
        <ele>682.0</ele>
        <time>2019-05-12T08:30:28Z</time>
      </trkpt>
      <trkpt lat="39.1690500" lon="-1.4688190">
        <ele>681.8</ele>
        <time>2019-05-12T08:30:29Z</time>
      </trkpt>
      <trkpt lat="39.1691150" lon="-1.4689250">
        <ele>681.8</ele>
        <time>2019-05-12T08:30:30Z</time>
      </trkpt>
      <trkpt lat="39.1691810" lon="-1.4690310">
        <ele>681.4</ele>
        <time>2019-05-12T08:30:31Z</time>
      </trkpt>
      <trkpt lat="39.1692470" lon="-1.4691360">
        <ele>681.0</ele>
        <time>2019-05-12T08:30:32Z</time>
      </trkpt>
      <trkpt lat="39.1693140" lon="-1.4692390">
        <ele>681.0</ele>
        <time>2019-05-12T08:30:33Z</time>
      </trkpt>
      <trkpt lat="39.1693800" lon="-1.4693410">
        <ele>680.8</ele>
        <time>2019-05-12T08:30:34Z</time>
      </trkpt>
      <trkpt lat="39.1694480" lon="-1.4694410">
        <ele>680.2</ele>
        <time>2019-05-12T08:30:35Z</time>
      </trkpt>
      <trkpt lat="39.1694850" lon="-1.4694860">
        <ele>679.4</ele>
        <time>2019-05-12T08:30:36Z</time>
      </trkpt>
      <trkpt lat="39.1695210" lon="-1.4695320">
        <ele>679.2</ele>
        <time>2019-05-12T08:30:37Z</time>
      </trkpt>
      <trkpt lat="39.1696570" lon="-1.4696770">
        <ele>678.8</ele>
        <time>2019-05-12T08:30:38Z</time>
      </trkpt>
      <trkpt lat="39.1697200" lon="-1.4697300">
        <ele>678.2</ele>
        <time>2019-05-12T08:30:39Z</time>
      </trkpt>
      <trkpt lat="39.1698450" lon="-1.4698370">
        <ele>677.8</ele>
        <time>2019-05-12T08:30:40Z</time>
      </trkpt>
      <trkpt lat="39.1699360" lon="-1.4698890">
        <ele>677.2</ele>
        <time>2019-05-12T08:30:41Z</time>
      </trkpt>
      <trkpt lat="39.1700310" lon="-1.4699280">
        <ele>677.0</ele>
        <time>2019-05-12T08:30:42Z</time>
      </trkpt>
      <trkpt lat="39.1701280" lon="-1.4699560">
        <ele>676.6</ele>
        <time>2019-05-12T08:30:43Z</time>
      </trkpt>
      <trkpt lat="39.1702230" lon="-1.4699820">
        <ele>676.4</ele>
        <time>2019-05-12T08:30:44Z</time>
      </trkpt>
      <trkpt lat="39.1703170" lon="-1.4700090">
        <ele>676.0</ele>
        <time>2019-05-12T08:30:45Z</time>
      </trkpt>
      <trkpt lat="39.1704090" lon="-1.4700380">
        <ele>675.6</ele>
        <time>2019-05-12T08:30:46Z</time>
      </trkpt>
      <trkpt lat="39.1705000" lon="-1.4700680">
        <ele>675.0</ele>
        <time>2019-05-12T08:30:47Z</time>
      </trkpt>
      <trkpt lat="39.1705860" lon="-1.4701020">
        <ele>674.2</ele>
        <time>2019-05-12T08:30:48Z</time>
      </trkpt>
      <trkpt lat="39.1706710" lon="-1.4701380">
        <ele>673.8</ele>
        <time>2019-05-12T08:30:49Z</time>
      </trkpt>
      <trkpt lat="39.1707530" lon="-1.4701770">
        <ele>673.6</ele>
        <time>2019-05-12T08:30:50Z</time>
      </trkpt>
      <trkpt lat="39.1708330" lon="-1.4702200">
        <ele>673.2</ele>
        <time>2019-05-12T08:30:51Z</time>
      </trkpt>
      <trkpt lat="39.1709110" lon="-1.4702660">
        <ele>673.0</ele>
        <time>2019-05-12T08:30:52Z</time>
      </trkpt>
      <trkpt lat="39.1709870" lon="-1.4703160">
        <ele>672.8</ele>
        <time>2019-05-12T08:30:53Z</time>
      </trkpt>
      <trkpt lat="39.1710640" lon="-1.4703660">
        <ele>672.8</ele>
        <time>2019-05-12T08:30:54Z</time>
      </trkpt>
      <trkpt lat="39.1711400" lon="-1.4704180">
        <ele>672.6</ele>
        <time>2019-05-12T08:30:55Z</time>
      </trkpt>
      <trkpt lat="39.1712150" lon="-1.4704760">
        <ele>672.4</ele>
        <time>2019-05-12T08:30:56Z</time>
      </trkpt>
      <trkpt lat="39.1712890" lon="-1.4705320">
        <ele>672.2</ele>
        <time>2019-05-12T08:30:57Z</time>
      </trkpt>
      <trkpt lat="39.1713640" lon="-1.4705870">
        <ele>672.0</ele>
        <time>2019-05-12T08:30:58Z</time>
      </trkpt>
      <trkpt lat="39.1714360" lon="-1.4706480">
        <ele>671.8</ele>
        <time>2019-05-12T08:30:59Z</time>
      </trkpt>
      <trkpt lat="39.1715060" lon="-1.4707140">
        <ele>671.6</ele>
        <time>2019-05-12T08:31:00Z</time>
      </trkpt>
      <trkpt lat="39.1715730" lon="-1.4707860">
        <ele>671.4</ele>
        <time>2019-05-12T08:31:01Z</time>
      </trkpt>
      <trkpt lat="39.1716380" lon="-1.4708630">
        <ele>671.4</ele>
        <time>2019-05-12T08:31:02Z</time>
      </trkpt>
      <trkpt lat="39.1717000" lon="-1.4709430">
        <ele>671.2</ele>
        <time>2019-05-12T08:31:03Z</time>
      </trkpt>
      <trkpt lat="39.1717600" lon="-1.4710260">
        <ele>671.2</ele>
        <time>2019-05-12T08:31:04Z</time>
      </trkpt>
      <trkpt lat="39.1718160" lon="-1.4711100">
        <ele>671.0</ele>
        <time>2019-05-12T08:31:05Z</time>
      </trkpt>
      <trkpt lat="39.1718690" lon="-1.4711980">
        <ele>670.8</ele>
        <time>2019-05-12T08:31:06Z</time>
      </trkpt>
      <trkpt lat="39.1719180" lon="-1.4712890">
        <ele>670.6</ele>
        <time>2019-05-12T08:31:07Z</time>
      </trkpt>
      <trkpt lat="39.1719660" lon="-1.4713810">
        <ele>670.4</ele>
        <time>2019-05-12T08:31:08Z</time>
      </trkpt>
      <trkpt lat="39.1720120" lon="-1.4714720">
        <ele>670.0</ele>
        <time>2019-05-12T08:31:09Z</time>
      </trkpt>
      <trkpt lat="39.1720590" lon="-1.4715600">
        <ele>669.6</ele>
        <time>2019-05-12T08:31:10Z</time>
      </trkpt>
      <trkpt lat="39.1720830" lon="-1.4716020">
        <ele>669.4</ele>
        <time>2019-05-12T08:31:11Z</time>
      </trkpt>
      <trkpt lat="39.1721070" lon="-1.4716450">
        <ele>669.2</ele>
        <time>2019-05-12T08:31:12Z</time>
      </trkpt>
      <trkpt lat="39.1721590" lon="-1.4717230">
        <ele>669.0</ele>
        <time>2019-05-12T08:31:13Z</time>
      </trkpt>
      <trkpt lat="39.1722830" lon="-1.4718390">
        <ele>669.0</ele>
        <time>2019-05-12T08:31:14Z</time>
      </trkpt>
      <trkpt lat="39.1723540" lon="-1.4718760">
        <ele>669.0</ele>
        <time>2019-05-12T08:31:15Z</time>
      </trkpt>
      <trkpt lat="39.1724290" lon="-1.4719020">
        <ele>669.0</ele>
        <time>2019-05-12T08:31:16Z</time>
      </trkpt>
      <trkpt lat="39.1725070" lon="-1.4719250">
        <ele>669.0</ele>
        <time>2019-05-12T08:31:17Z</time>
      </trkpt>
      <trkpt lat="39.1725880" lon="-1.4719470">
        <ele>669.0</ele>
        <time>2019-05-12T08:31:18Z</time>
      </trkpt>
      <trkpt lat="39.1726720" lon="-1.4719640">
        <ele>669.0</ele>
        <time>2019-05-12T08:31:19Z</time>
      </trkpt>
      <trkpt lat="39.1727560" lon="-1.4719740">
        <ele>669.0</ele>
        <time>2019-05-12T08:31:20Z</time>
      </trkpt>
      <trkpt lat="39.1728390" lon="-1.4719820">
        <ele>669.0</ele>
        <time>2019-05-12T08:31:21Z</time>
      </trkpt>
      <trkpt lat="39.1729210" lon="-1.4719910">
        <ele>669.0</ele>
        <time>2019-05-12T08:31:22Z</time>
      </trkpt>
      <trkpt lat="39.1730010" lon="-1.4720010">
        <ele>669.0</ele>
        <time>2019-05-12T08:31:23Z</time>
      </trkpt>
      <trkpt lat="39.1730810" lon="-1.4720110">
        <ele>669.0</ele>
        <time>2019-05-12T08:31:24Z</time>
      </trkpt>
      <trkpt lat="39.1731600" lon="-1.4720230">
        <ele>669.2</ele>
        <time>2019-05-12T08:31:25Z</time>
      </trkpt>
      <trkpt lat="39.1732380" lon="-1.4720390">
        <ele>669.2</ele>
        <time>2019-05-12T08:31:26Z</time>
      </trkpt>
      <trkpt lat="39.1733170" lon="-1.4720550">
        <ele>669.2</ele>
        <time>2019-05-12T08:31:27Z</time>
      </trkpt>
      <trkpt lat="39.1734010" lon="-1.4720670">
        <ele>669.4</ele>
        <time>2019-05-12T08:31:28Z</time>
      </trkpt>
      <trkpt lat="39.1734870" lon="-1.4720770">
        <ele>669.4</ele>
        <time>2019-05-12T08:31:29Z</time>
      </trkpt>
      <trkpt lat="39.1735760" lon="-1.4720880">
        <ele>669.4</ele>
        <time>2019-05-12T08:31:30Z</time>
      </trkpt>
      <trkpt lat="39.1736650" lon="-1.4720980">
        <ele>669.4</ele>
        <time>2019-05-12T08:31:31Z</time>
      </trkpt>
      <trkpt lat="39.1737510" lon="-1.4721080">
        <ele>669.4</ele>
        <time>2019-05-12T08:31:32Z</time>
      </trkpt>
      <trkpt lat="39.1738380" lon="-1.4721200">
        <ele>669.4</ele>
        <time>2019-05-12T08:31:33Z</time>
      </trkpt>
      <trkpt lat="39.1739230" lon="-1.4721310">
        <ele>669.4</ele>
        <time>2019-05-12T08:31:34Z</time>
      </trkpt>
      <trkpt lat="39.1740090" lon="-1.4721420">
        <ele>669.2</ele>
        <time>2019-05-12T08:31:35Z</time>
      </trkpt>
      <trkpt lat="39.1740940" lon="-1.4721510">
        <ele>669.0</ele>
        <time>2019-05-12T08:31:36Z</time>
      </trkpt>
      <trkpt lat="39.1741790" lon="-1.4721600">
        <ele>669.0</ele>
        <time>2019-05-12T08:31:37Z</time>
      </trkpt>
      <trkpt lat="39.1742640" lon="-1.4721690">
        <ele>668.8</ele>
        <time>2019-05-12T08:31:38Z</time>
      </trkpt>
      <trkpt lat="39.1743490" lon="-1.4721810">
        <ele>668.8</ele>
        <time>2019-05-12T08:31:39Z</time>
      </trkpt>
      <trkpt lat="39.1744330" lon="-1.4721930">
        <ele>668.6</ele>
        <time>2019-05-12T08:31:40Z</time>
      </trkpt>
      <trkpt lat="39.1745180" lon="-1.4722060">
        <ele>668.4</ele>
        <time>2019-05-12T08:31:41Z</time>
      </trkpt>
      <trkpt lat="39.1746010" lon="-1.4722190">
        <ele>668.4</ele>
        <time>2019-05-12T08:31:42Z</time>
      </trkpt>
      <trkpt lat="39.1746860" lon="-1.4722280">
        <ele>668.2</ele>
        <time>2019-05-12T08:31:43Z</time>
      </trkpt>
      <trkpt lat="39.1747690" lon="-1.4722320">
        <ele>668.2</ele>
        <time>2019-05-12T08:31:44Z</time>
      </trkpt>
      <trkpt lat="39.1748530" lon="-1.4722350">
        <ele>668.0</ele>
        <time>2019-05-12T08:31:45Z</time>
      </trkpt>
      <trkpt lat="39.1749380" lon="-1.4722370">
        <ele>668.0</ele>
        <time>2019-05-12T08:31:46Z</time>
      </trkpt>
      <trkpt lat="39.1750220" lon="-1.4722340">
        <ele>667.8</ele>
        <time>2019-05-12T08:31:47Z</time>
      </trkpt>
      <trkpt lat="39.1751050" lon="-1.4722230">
        <ele>667.8</ele>
        <time>2019-05-12T08:31:48Z</time>
      </trkpt>
      <trkpt lat="39.1751850" lon="-1.4722060">
        <ele>667.8</ele>
        <time>2019-05-12T08:31:49Z</time>
      </trkpt>
      <trkpt lat="39.1752620" lon="-1.4721870">
        <ele>667.8</ele>
        <time>2019-05-12T08:31:50Z</time>
      </trkpt>
      <trkpt lat="39.1753360" lon="-1.4721670">
        <ele>667.8</ele>
        <time>2019-05-12T08:31:51Z</time>
      </trkpt>
      <trkpt lat="39.1754100" lon="-1.4721480">
        <ele>667.8</ele>
        <time>2019-05-12T08:31:52Z</time>
      </trkpt>
      <trkpt lat="39.1754810" lon="-1.4721300">
        <ele>667.8</ele>
        <time>2019-05-12T08:31:53Z</time>
      </trkpt>
      <trkpt lat="39.1755160" lon="-1.4721240">
        <ele>667.8</ele>
        <time>2019-05-12T08:31:54Z</time>
      </trkpt>
      <trkpt lat="39.1755510" lon="-1.4721180">
        <ele>667.6</ele>
        <time>2019-05-12T08:31:55Z</time>
      </trkpt>
      <trkpt lat="39.1756780" lon="-1.4721160">
        <ele>667.6</ele>
        <time>2019-05-12T08:31:56Z</time>
      </trkpt>
      <trkpt lat="39.1757330" lon="-1.4721280">
        <ele>667.8</ele>
        <time>2019-05-12T08:31:57Z</time>
      </trkpt>
      <trkpt lat="39.1757820" lon="-1.4721410">
        <ele>667.8</ele>
        <time>2019-05-12T08:31:58Z</time>
      </trkpt>
      <trkpt lat="39.1758260" lon="-1.4721540">
        <ele>667.8</ele>
        <time>2019-05-12T08:31:59Z</time>
      </trkpt>
      <trkpt lat="39.1758640" lon="-1.4721640">
        <ele>667.8</ele>
        <time>2019-05-12T08:32:00Z</time>
      </trkpt>
      <trkpt lat="39.1759000" lon="-1.4721750">
        <ele>667.8</ele>
        <time>2019-05-12T08:32:01Z</time>
      </trkpt>
      <trkpt lat="39.1759330" lon="-1.4721840">
        <ele>668.0</ele>
        <time>2019-05-12T08:32:02Z</time>
      </trkpt>
      <trkpt lat="39.1759720" lon="-1.4721920">
        <ele>668.0</ele>
        <time>2019-05-12T08:32:03Z</time>
      </trkpt>
      <trkpt lat="39.1760130" lon="-1.4721940">
        <ele>668.4</ele>
        <time>2019-05-12T08:32:04Z</time>
      </trkpt>
      <trkpt lat="39.1760560" lon="-1.4722000">
        <ele>668.8</ele>
        <time>2019-05-12T08:32:05Z</time>
      </trkpt>
      <trkpt lat="39.1761010" lon="-1.4722170">
        <ele>669.2</ele>
        <time>2019-05-12T08:32:06Z</time>
      </trkpt>
      <trkpt lat="39.1761490" lon="-1.4722320">
        <ele>669.8</ele>
        <time>2019-05-12T08:32:07Z</time>
      </trkpt>
      <trkpt lat="39.1762020" lon="-1.4722450">
        <ele>670.2</ele>
        <time>2019-05-12T08:32:08Z</time>
      </trkpt>
      <trkpt lat="39.1762570" lon="-1.4722580">
        <ele>670.6</ele>
        <time>2019-05-12T08:32:09Z</time>
      </trkpt>
      <trkpt lat="39.1763140" lon="-1.4722700">
        <ele>671.2</ele>
        <time>2019-05-12T08:32:10Z</time>
      </trkpt>
      <trkpt lat="39.1763720" lon="-1.4722830">
        <ele>671.6</ele>
        <time>2019-05-12T08:32:11Z</time>
      </trkpt>
      <trkpt lat="39.1764310" lon="-1.4722980">
        <ele>672.0</ele>
        <time>2019-05-12T08:32:12Z</time>
      </trkpt>
      <trkpt lat="39.1764890" lon="-1.4723130">
        <ele>672.4</ele>
        <time>2019-05-12T08:32:13Z</time>
      </trkpt>
      <trkpt lat="39.1765480" lon="-1.4723290">
        <ele>672.8</ele>
        <time>2019-05-12T08:32:14Z</time>
      </trkpt>
      <trkpt lat="39.1766060" lon="-1.4723490">
        <ele>672.8</ele>
        <time>2019-05-12T08:32:15Z</time>
      </trkpt>
      <trkpt lat="39.1766640" lon="-1.4723710">
        <ele>672.8</ele>
        <time>2019-05-12T08:32:16Z</time>
      </trkpt>
      <trkpt lat="39.1767220" lon="-1.4723900">
        <ele>672.8</ele>
        <time>2019-05-12T08:32:17Z</time>
      </trkpt>
      <trkpt lat="39.1767830" lon="-1.4724070">
        <ele>672.8</ele>
        <time>2019-05-12T08:32:18Z</time>
      </trkpt>
      <trkpt lat="39.1768440" lon="-1.4724220">
        <ele>672.8</ele>
        <time>2019-05-12T08:32:19Z</time>
      </trkpt>
      <trkpt lat="39.1769060" lon="-1.4724360">
        <ele>672.8</ele>
        <time>2019-05-12T08:32:20Z</time>
      </trkpt>
      <trkpt lat="39.1769680" lon="-1.4724510">
        <ele>672.8</ele>
        <time>2019-05-12T08:32:21Z</time>
      </trkpt>
      <trkpt lat="39.1770310" lon="-1.4724670">
        <ele>672.8</ele>
        <time>2019-05-12T08:32:22Z</time>
      </trkpt>
      <trkpt lat="39.1770940" lon="-1.4724830">
        <ele>672.8</ele>
        <time>2019-05-12T08:32:23Z</time>
      </trkpt>
      <trkpt lat="39.1771570" lon="-1.4724990">
        <ele>672.8</ele>
        <time>2019-05-12T08:32:24Z</time>
      </trkpt>
      <trkpt lat="39.1772190" lon="-1.4725160">
        <ele>672.8</ele>
        <time>2019-05-12T08:32:25Z</time>
      </trkpt>
      <trkpt lat="39.1772810" lon="-1.4725330">
        <ele>672.8</ele>
        <time>2019-05-12T08:32:26Z</time>
      </trkpt>
      <trkpt lat="39.1773420" lon="-1.4725510">
        <ele>672.8</ele>
        <time>2019-05-12T08:32:27Z</time>
      </trkpt>
      <trkpt lat="39.1774030" lon="-1.4725700">
        <ele>673.0</ele>
        <time>2019-05-12T08:32:28Z</time>
      </trkpt>
      <trkpt lat="39.1774620" lon="-1.4725940">
        <ele>673.0</ele>
        <time>2019-05-12T08:32:29Z</time>
      </trkpt>
      <trkpt lat="39.1775200" lon="-1.4726220">
        <ele>673.0</ele>
        <time>2019-05-12T08:32:30Z</time>
      </trkpt>
      <trkpt lat="39.1775750" lon="-1.4726560">
        <ele>673.0</ele>
        <time>2019-05-12T08:32:31Z</time>
      </trkpt>
      <trkpt lat="39.1776260" lon="-1.4726950">
        <ele>673.0</ele>
        <time>2019-05-12T08:32:32Z</time>
      </trkpt>
      <trkpt lat="39.1776740" lon="-1.4727370">
        <ele>673.0</ele>
        <time>2019-05-12T08:32:33Z</time>
      </trkpt>
      <trkpt lat="39.1777180" lon="-1.4727820">
        <ele>673.0</ele>
        <time>2019-05-12T08:32:34Z</time>
      </trkpt>
      <trkpt lat="39.1777590" lon="-1.4728280">
        <ele>673.0</ele>
        <time>2019-05-12T08:32:35Z</time>
      </trkpt>
      <trkpt lat="39.1777980" lon="-1.4728760">
        <ele>673.0</ele>
        <time>2019-05-12T08:32:36Z</time>
      </trkpt>
      <trkpt lat="39.1778360" lon="-1.4729260">
        <ele>673.0</ele>
        <time>2019-05-12T08:32:37Z</time>
      </trkpt>
      <trkpt lat="39.1778740" lon="-1.4729780">
        <ele>672.8</ele>
        <time>2019-05-12T08:32:38Z</time>
      </trkpt>
      <trkpt lat="39.1779130" lon="-1.4730320">
        <ele>672.8</ele>
        <time>2019-05-12T08:32:39Z</time>
      </trkpt>
      <trkpt lat="39.1779530" lon="-1.4730860">
        <ele>672.8</ele>
        <time>2019-05-12T08:32:40Z</time>
      </trkpt>
      <trkpt lat="39.1779950" lon="-1.4731410">
        <ele>672.8</ele>
        <time>2019-05-12T08:32:41Z</time>
      </trkpt>
      <trkpt lat="39.1780370" lon="-1.4731950">
        <ele>672.8</ele>
        <time>2019-05-12T08:32:42Z</time>
      </trkpt>
      <trkpt lat="39.1780800" lon="-1.4732490">
        <ele>672.8</ele>
        <time>2019-05-12T08:32:43Z</time>
      </trkpt>
      <trkpt lat="39.1781220" lon="-1.4733040">
        <ele>672.8</ele>
        <time>2019-05-12T08:32:44Z</time>
      </trkpt>
      <trkpt lat="39.1781660" lon="-1.4733590">
        <ele>672.8</ele>
        <time>2019-05-12T08:32:45Z</time>
      </trkpt>
      <trkpt lat="39.1782130" lon="-1.4734130">
        <ele>672.6</ele>
        <time>2019-05-12T08:32:46Z</time>
      </trkpt>
      <trkpt lat="39.1782660" lon="-1.4734670">
        <ele>672.6</ele>
        <time>2019-05-12T08:32:47Z</time>
      </trkpt>
      <trkpt lat="39.1783250" lon="-1.4735210">
        <ele>672.6</ele>
        <time>2019-05-12T08:32:48Z</time>
      </trkpt>
      <trkpt lat="39.1783890" lon="-1.4735750">
        <ele>672.6</ele>
        <time>2019-05-12T08:32:49Z</time>
      </trkpt>
      <trkpt lat="39.1784550" lon="-1.4736290">
        <ele>672.6</ele>
        <time>2019-05-12T08:32:50Z</time>
      </trkpt>
      <trkpt lat="39.1785200" lon="-1.4736800">
        <ele>672.6</ele>
        <time>2019-05-12T08:32:51Z</time>
      </trkpt>
      <trkpt lat="39.1785830" lon="-1.4737300">
        <ele>672.6</ele>
        <time>2019-05-12T08:32:52Z</time>
      </trkpt>
      <trkpt lat="39.1786450" lon="-1.4737790">
        <ele>672.4</ele>
        <time>2019-05-12T08:32:53Z</time>
      </trkpt>
      <trkpt lat="39.1787050" lon="-1.4738290">
        <ele>672.2</ele>
        <time>2019-05-12T08:32:54Z</time>
      </trkpt>
      <trkpt lat="39.1787640" lon="-1.4738770">
        <ele>671.8</ele>
        <time>2019-05-12T08:32:55Z</time>
      </trkpt>
      <trkpt lat="39.1788040" lon="-1.4739020">
        <ele>671.4</ele>
        <time>2019-05-12T08:32:56Z</time>
      </trkpt>
      <trkpt lat="39.1788440" lon="-1.4739270">
        <ele>670.8</ele>
        <time>2019-05-12T08:32:57Z</time>
      </trkpt>
      <trkpt lat="39.1789230" lon="-1.4739770">
        <ele>670.0</ele>
        <time>2019-05-12T08:32:58Z</time>
      </trkpt>
      <trkpt lat="39.1789660" lon="-1.4739970">
        <ele>669.2</ele>
        <time>2019-05-12T08:32:59Z</time>
      </trkpt>
      <trkpt lat="39.1789850" lon="-1.4740070">
        <ele>668.6</ele>
        <time>2019-05-12T08:33:00Z</time>
      </trkpt>
      <trkpt lat="39.1790040" lon="-1.4740180">
        <ele>667.8</ele>
        <time>2019-05-12T08:33:01Z</time>
      </trkpt>
      <trkpt lat="39.1790350" lon="-1.4740490">
        <ele>667.2</ele>
        <time>2019-05-12T08:33:02Z</time>
      </trkpt>
      <trkpt lat="39.1790580" lon="-1.4741330">
        <ele>666.6</ele>
        <time>2019-05-12T08:33:03Z</time>
      </trkpt>
      <trkpt lat="39.1790570" lon="-1.4741590">
        <ele>666.2</ele>
        <time>2019-05-12T08:33:04Z</time>
      </trkpt>
      <trkpt lat="39.1790550" lon="-1.4741820">
        <ele>665.4</ele>
        <time>2019-05-12T08:33:05Z</time>
      </trkpt>
      <trkpt lat="39.1790550" lon="-1.4742050">
        <ele>664.8</ele>
        <time>2019-05-12T08:33:06Z</time>
      </trkpt>
      <trkpt lat="39.1790670" lon="-1.4742430">
        <ele>664.2</ele>
        <time>2019-05-12T08:33:07Z</time>
      </trkpt>
      <trkpt lat="39.1790750" lon="-1.4742620">
        <ele>663.8</ele>
        <time>2019-05-12T08:33:08Z</time>
      </trkpt>
      <trkpt lat="39.1790820" lon="-1.4742800">
        <ele>663.4</ele>
        <time>2019-05-12T08:33:09Z</time>
      </trkpt>
      <trkpt lat="39.1790900" lon="-1.4742990">
        <ele>662.8</ele>
        <time>2019-05-12T08:33:10Z</time>
      </trkpt>
      <trkpt lat="39.1791010" lon="-1.4743380">
        <ele>662.2</ele>
        <time>2019-05-12T08:33:11Z</time>
      </trkpt>
      <trkpt lat="39.1791170" lon="-1.4743790">
        <ele>661.8</ele>
        <time>2019-05-12T08:33:12Z</time>
      </trkpt>
      <trkpt lat="39.1791360" lon="-1.4744190">
        <ele>661.6</ele>
        <time>2019-05-12T08:33:13Z</time>
      </trkpt>
      <trkpt lat="39.1791550" lon="-1.4744560">
        <ele>661.4</ele>
        <time>2019-05-12T08:33:14Z</time>
      </trkpt>
      <trkpt lat="39.1791770" lon="-1.4744840">
        <ele>661.4</ele>
        <time>2019-05-12T08:33:15Z</time>
      </trkpt>
      <trkpt lat="39.1792000" lon="-1.4745060">
        <ele>661.2</ele>
        <time>2019-05-12T08:33:16Z</time>
      </trkpt>
      <trkpt lat="39.1792230" lon="-1.4745280">
        <ele>661.0</ele>
        <time>2019-05-12T08:33:17Z</time>
      </trkpt>
      <trkpt lat="39.1792460" lon="-1.4745620">
        <ele>660.8</ele>
        <time>2019-05-12T08:33:18Z</time>
      </trkpt>
      <trkpt lat="39.1792700" lon="-1.4745910">
        <ele>660.6</ele>
        <time>2019-05-12T08:33:19Z</time>
      </trkpt>
      <trkpt lat="39.1792940" lon="-1.4746110">
        <ele>660.4</ele>
        <time>2019-05-12T08:33:20Z</time>
      </trkpt>
      <trkpt lat="39.1793170" lon="-1.4746300">
        <ele>660.0</ele>
        <time>2019-05-12T08:33:21Z</time>
      </trkpt>
      <trkpt lat="39.1793420" lon="-1.4746330">
        <ele>659.6</ele>
        <time>2019-05-12T08:33:22Z</time>
      </trkpt>
      <trkpt lat="39.1793690" lon="-1.4746280">
        <ele>658.8</ele>
        <time>2019-05-12T08:33:23Z</time>
      </trkpt>
      <trkpt lat="39.1793920" lon="-1.4746370">
        <ele>657.8</ele>
        <time>2019-05-12T08:33:24Z</time>
      </trkpt>
      <trkpt lat="39.1794080" lon="-1.4746650">
        <ele>657.2</ele>
        <time>2019-05-12T08:33:25Z</time>
      </trkpt>
      <trkpt lat="39.1794140" lon="-1.4747050">
        <ele>656.6</ele>
        <time>2019-05-12T08:33:26Z</time>
      </trkpt>
      <trkpt lat="39.1794160" lon="-1.4747420">
        <ele>656.0</ele>
        <time>2019-05-12T08:33:27Z</time>
      </trkpt>
      <trkpt lat="39.1794190" lon="-1.4747760">
        <ele>655.6</ele>
        <time>2019-05-12T08:33:28Z</time>
      </trkpt>
      <trkpt lat="39.1794260" lon="-1.4748000">
        <ele>655.0</ele>
        <time>2019-05-12T08:33:29Z</time>
      </trkpt>
      <trkpt lat="39.1794330" lon="-1.4748210">
        <ele>654.2</ele>
        <time>2019-05-12T08:33:30Z</time>
      </trkpt>
      <trkpt lat="39.1794390" lon="-1.4748410">
        <ele>654.0</ele>
        <time>2019-05-12T08:33:31Z</time>
      </trkpt>
      <trkpt lat="39.1794460" lon="-1.4748620">
        <ele>653.6</ele>
        <time>2019-05-12T08:33:32Z</time>
      </trkpt>
      <trkpt lat="39.1794580" lon="-1.4748830">
        <ele>653.2</ele>
        <time>2019-05-12T08:33:33Z</time>
      </trkpt>
      <trkpt lat="39.1794710" lon="-1.4749090">
        <ele>652.8</ele>
        <time>2019-05-12T08:33:34Z</time>
      </trkpt>
      <trkpt lat="39.1794880" lon="-1.4749380">
        <ele>652.4</ele>
        <time>2019-05-12T08:33:35Z</time>
      </trkpt>
      <trkpt lat="39.1795110" lon="-1.4749650">
        <ele>652.2</ele>
        <time>2019-05-12T08:33:36Z</time>
      </trkpt>
      <trkpt lat="39.1795320" lon="-1.4749970">
        <ele>651.8</ele>
        <time>2019-05-12T08:33:37Z</time>
      </trkpt>
      <trkpt lat="39.1795520" lon="-1.4750290">
        <ele>651.6</ele>
        <time>2019-05-12T08:33:38Z</time>
      </trkpt>
      <trkpt lat="39.1795640" lon="-1.4750670">
        <ele>651.4</ele>
        <time>2019-05-12T08:33:39Z</time>
      </trkpt>
      <trkpt lat="39.1795710" lon="-1.4751150">
        <ele>651.2</ele>
        <time>2019-05-12T08:33:40Z</time>
      </trkpt>
      <trkpt lat="39.1795790" lon="-1.4751700">
        <ele>651.0</ele>
        <time>2019-05-12T08:33:41Z</time>
      </trkpt>
      <trkpt lat="39.1795940" lon="-1.4752330">
        <ele>650.8</ele>
        <time>2019-05-12T08:33:42Z</time>
      </trkpt>
      <trkpt lat="39.1796140" lon="-1.4752920">
        <ele>650.4</ele>
        <time>2019-05-12T08:33:43Z</time>
      </trkpt>
      <trkpt lat="39.1796350" lon="-1.4753450">
        <ele>650.0</ele>
        <time>2019-05-12T08:33:44Z</time>
      </trkpt>
      <trkpt lat="39.1796580" lon="-1.4753870">
        <ele>649.6</ele>
        <time>2019-05-12T08:33:45Z</time>
      </trkpt>
      <trkpt lat="39.1796800" lon="-1.4754290">
        <ele>649.0</ele>
        <time>2019-05-12T08:33:46Z</time>
      </trkpt>
      <trkpt lat="39.1797240" lon="-1.4755140">
        <ele>648.8</ele>
        <time>2019-05-12T08:33:47Z</time>
      </trkpt>
      <trkpt lat="39.1797370" lon="-1.4755560">
        <ele>648.4</ele>
        <time>2019-05-12T08:33:48Z</time>
      </trkpt>
      <trkpt lat="39.1797470" lon="-1.4755900">
        <ele>648.0</ele>
        <time>2019-05-12T08:33:49Z</time>
      </trkpt>
      <trkpt lat="39.1797510" lon="-1.4756150">
        <ele>647.6</ele>
        <time>2019-05-12T08:33:50Z</time>
      </trkpt>
      <trkpt lat="39.1797600" lon="-1.4756400">
        <ele>647.0</ele>
        <time>2019-05-12T08:33:51Z</time>
      </trkpt>
      <trkpt lat="39.1797770" lon="-1.4756710">
        <ele>646.6</ele>
        <time>2019-05-12T08:33:52Z</time>
      </trkpt>
      <trkpt lat="39.1797940" lon="-1.4757030">
        <ele>646.2</ele>
        <time>2019-05-12T08:33:53Z</time>
      </trkpt>
      <trkpt lat="39.1798140" lon="-1.4757300">
        <ele>645.4</ele>
        <time>2019-05-12T08:33:54Z</time>
      </trkpt>
      <trkpt lat="39.1798360" lon="-1.4757540">
        <ele>644.4</ele>
        <time>2019-05-12T08:33:55Z</time>
      </trkpt>
      <trkpt lat="39.1798630" lon="-1.4757730">
        <ele>643.4</ele>
        <time>2019-05-12T08:33:56Z</time>
      </trkpt>
      <trkpt lat="39.1798920" lon="-1.4757920">
        <ele>642.8</ele>
        <time>2019-05-12T08:33:57Z</time>
      </trkpt>
      <trkpt lat="39.1799200" lon="-1.4758140">
        <ele>642.2</ele>
        <time>2019-05-12T08:33:58Z</time>
      </trkpt>
      <trkpt lat="39.1799470" lon="-1.4758320">
        <ele>641.0</ele>
        <time>2019-05-12T08:33:59Z</time>
      </trkpt>
      <trkpt lat="39.1799720" lon="-1.4758440">
        <ele>640.4</ele>
        <time>2019-05-12T08:34:00Z</time>
      </trkpt>
      <trkpt lat="39.1800030" lon="-1.4758570">
        <ele>639.8</ele>
        <time>2019-05-12T08:34:01Z</time>
      </trkpt>
      <trkpt lat="39.1800320" lon="-1.4758720">
        <ele>639.2</ele>
        <time>2019-05-12T08:34:02Z</time>
      </trkpt>
      <trkpt lat="39.1800590" lon="-1.4758870">
        <ele>638.4</ele>
        <time>2019-05-12T08:34:03Z</time>
      </trkpt>
      <trkpt lat="39.1800880" lon="-1.4758970">
        <ele>637.8</ele>
        <time>2019-05-12T08:34:04Z</time>
      </trkpt>
      <trkpt lat="39.1801170" lon="-1.4759090">
        <ele>637.2</ele>
        <time>2019-05-12T08:34:05Z</time>
      </trkpt>
      <trkpt lat="39.1801440" lon="-1.4759250">
        <ele>636.6</ele>
        <time>2019-05-12T08:34:06Z</time>
      </trkpt>
      <trkpt lat="39.1801700" lon="-1.4759470">
        <ele>635.8</ele>
        <time>2019-05-12T08:34:07Z</time>
      </trkpt>
      <trkpt lat="39.1801960" lon="-1.4759780">
        <ele>635.0</ele>
        <time>2019-05-12T08:34:08Z</time>
      </trkpt>
      <trkpt lat="39.1802200" lon="-1.4760150">
        <ele>634.6</ele>
        <time>2019-05-12T08:34:09Z</time>
      </trkpt>
      <trkpt lat="39.1802380" lon="-1.4760470">
        <ele>634.0</ele>
        <time>2019-05-12T08:34:10Z</time>
      </trkpt>
      <trkpt lat="39.1802580" lon="-1.4760690">
        <ele>633.4</ele>
        <time>2019-05-12T08:34:11Z</time>
      </trkpt>
      <trkpt lat="39.1802850" lon="-1.4760800">
        <ele>632.6</ele>
        <time>2019-05-12T08:34:12Z</time>
      </trkpt>
      <trkpt lat="39.1803090" lon="-1.4760890">
        <ele>631.8</ele>
        <time>2019-05-12T08:34:13Z</time>
      </trkpt>
      <trkpt lat="39.1803320" lon="-1.4761100">
        <ele>631.0</ele>
        <time>2019-05-12T08:34:14Z</time>
      </trkpt>
      <trkpt lat="39.1803530" lon="-1.4761420">
        <ele>630.4</ele>
        <time>2019-05-12T08:34:15Z</time>
      </trkpt>
      <trkpt lat="39.1803710" lon="-1.4761760">
        <ele>629.8</ele>
        <time>2019-05-12T08:34:16Z</time>
      </trkpt>
      <trkpt lat="39.1803860" lon="-1.4762090">
        <ele>629.2</ele>
        <time>2019-05-12T08:34:17Z</time>
      </trkpt>
      <trkpt lat="39.1804060" lon="-1.4762400">
        <ele>628.4</ele>
        <time>2019-05-12T08:34:18Z</time>
      </trkpt>
      <trkpt lat="39.1804270" lon="-1.4762710">
        <ele>627.8</ele>
        <time>2019-05-12T08:34:19Z</time>
      </trkpt>
      <trkpt lat="39.1804510" lon="-1.4762960">
        <ele>627.2</ele>
        <time>2019-05-12T08:34:20Z</time>
      </trkpt>
      <trkpt lat="39.1804750" lon="-1.4763200">
        <ele>626.6</ele>
        <time>2019-05-12T08:34:21Z</time>
      </trkpt>
      <trkpt lat="39.1804960" lon="-1.4763530">
        <ele>626.0</ele>
        <time>2019-05-12T08:34:22Z</time>
      </trkpt>
      <trkpt lat="39.1805170" lon="-1.4763930">
        <ele>625.6</ele>
        <time>2019-05-12T08:34:23Z</time>
      </trkpt>
      <trkpt lat="39.1805410" lon="-1.4764340">
        <ele>624.8</ele>
        <time>2019-05-12T08:34:24Z</time>
      </trkpt>
      <trkpt lat="39.1805660" lon="-1.4764680">
        <ele>624.2</ele>
        <time>2019-05-12T08:34:25Z</time>
      </trkpt>
      <trkpt lat="39.1805850" lon="-1.4764980">
        <ele>623.6</ele>
        <time>2019-05-12T08:34:26Z</time>
      </trkpt>
      <trkpt lat="39.1806040" lon="-1.4765200">
        <ele>622.8</ele>
        <time>2019-05-12T08:34:27Z</time>
      </trkpt>
      <trkpt lat="39.1806300" lon="-1.4765370">
        <ele>622.2</ele>
        <time>2019-05-12T08:34:28Z</time>
      </trkpt>
      <trkpt lat="39.1806610" lon="-1.4765620">
        <ele>621.4</ele>
        <time>2019-05-12T08:34:29Z</time>
      </trkpt>
      <trkpt lat="39.1806910" lon="-1.4765970">
        <ele>620.8</ele>
        <time>2019-05-12T08:34:30Z</time>
      </trkpt>
      <trkpt lat="39.1807130" lon="-1.4766470">
        <ele>620.4</ele>
        <time>2019-05-12T08:34:31Z</time>
      </trkpt>
      <trkpt lat="39.1807310" lon="-1.4767120">
        <ele>619.8</ele>
        <time>2019-05-12T08:34:32Z</time>
      </trkpt>
      <trkpt lat="39.1807450" lon="-1.4767760">
        <ele>618.8</ele>
        <time>2019-05-12T08:34:33Z</time>
      </trkpt>
      <trkpt lat="39.1807570" lon="-1.4768280">
        <ele>618.2</ele>
        <time>2019-05-12T08:34:34Z</time>
      </trkpt>
      <trkpt lat="39.1807670" lon="-1.4768720">
        <ele>617.4</ele>
        <time>2019-05-12T08:34:35Z</time>
      </trkpt>
      <trkpt lat="39.1807760" lon="-1.4769150">
        <ele>617.0</ele>
        <time>2019-05-12T08:34:36Z</time>
      </trkpt>
      <trkpt lat="39.1807890" lon="-1.4769490">
        <ele>616.2</ele>
        <time>2019-05-12T08:34:37Z</time>
      </trkpt>
      <trkpt lat="39.1808100" lon="-1.4769760">
        <ele>615.4</ele>
        <time>2019-05-12T08:34:38Z</time>
      </trkpt>
      <trkpt lat="39.1808320" lon="-1.4770030">
        <ele>614.8</ele>
        <time>2019-05-12T08:34:39Z</time>
      </trkpt>
      <trkpt lat="39.1808560" lon="-1.4770340">
        <ele>614.2</ele>
        <time>2019-05-12T08:34:40Z</time>
      </trkpt>
      <trkpt lat="39.1808740" lon="-1.4770650">
        <ele>613.4</ele>
        <time>2019-05-12T08:34:41Z</time>
      </trkpt>
      <trkpt lat="39.1808860" lon="-1.4770960">
        <ele>612.6</ele>
        <time>2019-05-12T08:34:42Z</time>
      </trkpt>
      <trkpt lat="39.1808960" lon="-1.4771280">
        <ele>611.6</ele>
        <time>2019-05-12T08:34:43Z</time>
      </trkpt>
      <trkpt lat="39.1809080" lon="-1.4771580">
        <ele>610.6</ele>
        <time>2019-05-12T08:34:44Z</time>
      </trkpt>
      <trkpt lat="39.1809190" lon="-1.4771850">
        <ele>609.8</ele>
        <time>2019-05-12T08:34:45Z</time>
      </trkpt>
      <trkpt lat="39.1809280" lon="-1.4772060">
        <ele>609.2</ele>
        <time>2019-05-12T08:34:46Z</time>
      </trkpt>
      <trkpt lat="39.1809390" lon="-1.4772140">
        <ele>608.4</ele>
        <time>2019-05-12T08:34:47Z</time>
      </trkpt>
      <trkpt lat="39.1809490" lon="-1.4772060">
        <ele>607.8</ele>
        <time>2019-05-12T08:34:48Z</time>
      </trkpt>
      <trkpt lat="39.1809540" lon="-1.4771880">
        <ele>607.0</ele>
        <time>2019-05-12T08:34:49Z</time>
      </trkpt>
      <trkpt lat="39.1809530" lon="-1.4771630">
        <ele>606.2</ele>
        <time>2019-05-12T08:34:50Z</time>
      </trkpt>
      <trkpt lat="39.1809500" lon="-1.4771330">
        <ele>605.6</ele>
        <time>2019-05-12T08:34:51Z</time>
      </trkpt>
      <trkpt lat="39.1809490" lon="-1.4771000">
        <ele>604.8</ele>
        <time>2019-05-12T08:34:52Z</time>
      </trkpt>
      <trkpt lat="39.1809500" lon="-1.4770660">
        <ele>604.2</ele>
        <time>2019-05-12T08:34:53Z</time>
      </trkpt>
      <trkpt lat="39.1809550" lon="-1.4770370">
        <ele>603.8</ele>
        <time>2019-05-12T08:34:54Z</time>
      </trkpt>
      <trkpt lat="39.1809640" lon="-1.4770210">
        <ele>603.4</ele>
        <time>2019-05-12T08:34:55Z</time>
      </trkpt>
      <trkpt lat="39.1809740" lon="-1.4770210">
        <ele>603.0</ele>
        <time>2019-05-12T08:34:56Z</time>
      </trkpt>
      <trkpt lat="39.1809870" lon="-1.4770390">
        <ele>602.6</ele>
        <time>2019-05-12T08:34:57Z</time>
      </trkpt>
      <trkpt lat="39.1809990" lon="-1.4770710">
        <ele>602.2</ele>
        <time>2019-05-12T08:34:58Z</time>
      </trkpt>
      <trkpt lat="39.1810170" lon="-1.4771100">
        <ele>601.8</ele>
        <time>2019-05-12T08:34:59Z</time>
      </trkpt>
      <trkpt lat="39.1810380" lon="-1.4771500">
        <ele>601.6</ele>
        <time>2019-05-12T08:35:00Z</time>
      </trkpt>
      <trkpt lat="39.1810580" lon="-1.4771840">
        <ele>601.4</ele>
        <time>2019-05-12T08:35:01Z</time>
      </trkpt>
      <trkpt lat="39.1810780" lon="-1.4772230">
        <ele>601.0</ele>
        <time>2019-05-12T08:35:02Z</time>
      </trkpt>
      <trkpt lat="39.1810970" lon="-1.4772560">
        <ele>600.6</ele>
        <time>2019-05-12T08:35:03Z</time>
      </trkpt>
      <trkpt lat="39.1811140" lon="-1.4772860">
        <ele>600.4</ele>
        <time>2019-05-12T08:35:04Z</time>
      </trkpt>
      <trkpt lat="39.1811270" lon="-1.4773150">
        <ele>600.2</ele>
        <time>2019-05-12T08:35:05Z</time>
      </trkpt>
      <trkpt lat="39.1811360" lon="-1.4773420">
        <ele>600.0</ele>
        <time>2019-05-12T08:35:06Z</time>
      </trkpt>
      <trkpt lat="39.1811460" lon="-1.4773680">
        <ele>599.6</ele>
        <time>2019-05-12T08:35:07Z</time>
      </trkpt>
      <trkpt lat="39.1811520" lon="-1.4773970">
        <ele>598.2</ele>
        <time>2019-05-12T08:35:08Z</time>
      </trkpt>
      <trkpt lat="39.1811550" lon="-1.4774230">
        <ele>597.6</ele>
        <time>2019-05-12T08:35:09Z</time>
      </trkpt>
      <trkpt lat="39.1811590" lon="-1.4774460">
        <ele>596.6</ele>
        <time>2019-05-12T08:35:10Z</time>
      </trkpt>
      <trkpt lat="39.1811700" lon="-1.4774640">
        <ele>595.8</ele>
        <time>2019-05-12T08:35:11Z</time>
      </trkpt>
      <trkpt lat="39.1811840" lon="-1.4774690">
        <ele>595.0</ele>
        <time>2019-05-12T08:35:12Z</time>
      </trkpt>
      <trkpt lat="39.1812000" lon="-1.4774610">
        <ele>594.4</ele>
        <time>2019-05-12T08:35:13Z</time>
      </trkpt>
      <trkpt lat="39.1812170" lon="-1.4774470">
        <ele>594.0</ele>
        <time>2019-05-12T08:35:14Z</time>
      </trkpt>
      <trkpt lat="39.1812350" lon="-1.4774280">
        <ele>593.4</ele>
        <time>2019-05-12T08:35:15Z</time>
      </trkpt>
      <trkpt lat="39.1812470" lon="-1.4774050">
        <ele>592.8</ele>
        <time>2019-05-12T08:35:16Z</time>
      </trkpt>
      <trkpt lat="39.1812530" lon="-1.4773810">
        <ele>592.2</ele>
        <time>2019-05-12T08:35:17Z</time>
      </trkpt>
      <trkpt lat="39.1812560" lon="-1.4773610">
        <ele>591.8</ele>
        <time>2019-05-12T08:35:18Z</time>
      </trkpt>
      <trkpt lat="39.1812560" lon="-1.4773430">
        <ele>591.2</ele>
        <time>2019-05-12T08:35:19Z</time>
      </trkpt>
      <trkpt lat="39.1812570" lon="-1.4773250">
        <ele>590.6</ele>
        <time>2019-05-12T08:35:20Z</time>
      </trkpt>
      <trkpt lat="39.1812580" lon="-1.4773040">
        <ele>590.2</ele>
        <time>2019-05-12T08:35:21Z</time>
      </trkpt>
      <trkpt lat="39.1812620" lon="-1.4772850">
        <ele>589.8</ele>
        <time>2019-05-12T08:35:22Z</time>
      </trkpt>
      <trkpt lat="39.1812730" lon="-1.4772780">
        <ele>589.6</ele>
        <time>2019-05-12T08:35:23Z</time>
      </trkpt>
      <trkpt lat="39.1812890" lon="-1.4772920">
        <ele>589.2</ele>
        <time>2019-05-12T08:35:24Z</time>
      </trkpt>
      <trkpt lat="39.1813060" lon="-1.4773160">
        <ele>588.8</ele>
        <time>2019-05-12T08:35:25Z</time>
      </trkpt>
      <trkpt lat="39.1813270" lon="-1.4773430">
        <ele>588.4</ele>
        <time>2019-05-12T08:35:26Z</time>
      </trkpt>
      <trkpt lat="39.1813440" lon="-1.4773730">
        <ele>588.2</ele>
        <time>2019-05-12T08:35:27Z</time>
      </trkpt>
      <trkpt lat="39.1813670" lon="-1.4774030">
        <ele>587.8</ele>
        <time>2019-05-12T08:35:28Z</time>
      </trkpt>
      <trkpt lat="39.1813940" lon="-1.4774300">
        <ele>587.6</ele>
        <time>2019-05-12T08:35:29Z</time>
      </trkpt>
      <trkpt lat="39.1814130" lon="-1.4774610">
        <ele>587.6</ele>
        <time>2019-05-12T08:35:30Z</time>
      </trkpt>
      <trkpt lat="39.1814250" lon="-1.4774980">
        <ele>587.2</ele>
        <time>2019-05-12T08:35:31Z</time>
      </trkpt>
      <trkpt lat="39.1814260" lon="-1.4775410">
        <ele>587.0</ele>
        <time>2019-05-12T08:35:32Z</time>
      </trkpt>
      <trkpt lat="39.1814240" lon="-1.4775880">
        <ele>586.6</ele>
        <time>2019-05-12T08:35:33Z</time>
      </trkpt>
      <trkpt lat="39.1814210" lon="-1.4776300">
        <ele>586.0</ele>
        <time>2019-05-12T08:35:34Z</time>
      </trkpt>
      <trkpt lat="39.1814250" lon="-1.4776630">
        <ele>585.2</ele>
        <time>2019-05-12T08:35:35Z</time>
      </trkpt>
      <trkpt lat="39.1814400" lon="-1.4776860">
        <ele>584.8</ele>
        <time>2019-05-12T08:35:36Z</time>
      </trkpt>
      <trkpt lat="39.1814680" lon="-1.4777020">
        <ele>584.2</ele>
        <time>2019-05-12T08:35:37Z</time>
      </trkpt>
      <trkpt lat="39.1815060" lon="-1.4777120">
        <ele>583.6</ele>
        <time>2019-05-12T08:35:38Z</time>
      </trkpt>
      <trkpt lat="39.1815460" lon="-1.4777250">
        <ele>582.8</ele>
        <time>2019-05-12T08:35:39Z</time>
      </trkpt>
      <trkpt lat="39.1815850" lon="-1.4777390">
        <ele>582.4</ele>
        <time>2019-05-12T08:35:40Z</time>
      </trkpt>
      <trkpt lat="39.1816310" lon="-1.4777560">
        <ele>581.8</ele>
        <time>2019-05-12T08:35:41Z</time>
      </trkpt>
      <trkpt lat="39.1816860" lon="-1.4777820">
        <ele>581.2</ele>
        <time>2019-05-12T08:35:42Z</time>
      </trkpt>
      <trkpt lat="39.1817420" lon="-1.4778270">
        <ele>580.0</ele>
        <time>2019-05-12T08:35:43Z</time>
      </trkpt>
      <trkpt lat="39.1817980" lon="-1.4778920">
        <ele>579.4</ele>
        <time>2019-05-12T08:35:44Z</time>
      </trkpt>
      <trkpt lat="39.1818520" lon="-1.4779700">
        <ele>578.6</ele>
        <time>2019-05-12T08:35:45Z</time>
      </trkpt>
      <trkpt lat="39.1819010" lon="-1.4780560">
        <ele>577.8</ele>
        <time>2019-05-12T08:35:46Z</time>
      </trkpt>
      <trkpt lat="39.1819500" lon="-1.4781390">
        <ele>577.0</ele>
        <time>2019-05-12T08:35:47Z</time>
      </trkpt>
      <trkpt lat="39.1819960" lon="-1.4782160">
        <ele>576.2</ele>
        <time>2019-05-12T08:35:48Z</time>
      </trkpt>
      <trkpt lat="39.1820400" lon="-1.4782900">
        <ele>575.4</ele>
        <time>2019-05-12T08:35:49Z</time>
      </trkpt>
      <trkpt lat="39.1820880" lon="-1.4783640">
        <ele>574.4</ele>
        <time>2019-05-12T08:35:50Z</time>
      </trkpt>
      <trkpt lat="39.1821390" lon="-1.4784340">
        <ele>573.2</ele>
        <time>2019-05-12T08:35:51Z</time>
      </trkpt>
      <trkpt lat="39.1821880" lon="-1.4785220">
        <ele>572.2</ele>
        <time>2019-05-12T08:35:52Z</time>
      </trkpt>
      <trkpt lat="39.1822400" lon="-1.4786260">
        <ele>571.4</ele>
        <time>2019-05-12T08:35:53Z</time>
      </trkpt>
      <trkpt lat="39.1823010" lon="-1.4787450">
        <ele>570.4</ele>
        <time>2019-05-12T08:35:54Z</time>
      </trkpt>
      <trkpt lat="39.1823650" lon="-1.4788670">
        <ele>569.4</ele>
        <time>2019-05-12T08:35:55Z</time>
      </trkpt>
      <trkpt lat="39.1824170" lon="-1.4789830">
        <ele>568.6</ele>
        <time>2019-05-12T08:35:56Z</time>
      </trkpt>
      <trkpt lat="39.1824470" lon="-1.4790810">
        <ele>568.0</ele>
        <time>2019-05-12T08:35:57Z</time>
      </trkpt>
      <trkpt lat="39.1824650" lon="-1.4791650">
        <ele>567.0</ele>
        <time>2019-05-12T08:35:58Z</time>
      </trkpt>
      <trkpt lat="39.1824750" lon="-1.4792330">
        <ele>566.2</ele>
        <time>2019-05-12T08:35:59Z</time>
      </trkpt>
      <trkpt lat="39.1824860" lon="-1.4792910">
        <ele>565.0</ele>
        <time>2019-05-12T08:36:00Z</time>
      </trkpt>
      <trkpt lat="39.1825000" lon="-1.4793370">
        <ele>563.6</ele>
        <time>2019-05-12T08:36:01Z</time>
      </trkpt>
      <trkpt lat="39.1825290" lon="-1.4793770">
        <ele>562.2</ele>
        <time>2019-05-12T08:36:02Z</time>
      </trkpt>
      <trkpt lat="39.1825690" lon="-1.4794030">
        <ele>560.2</ele>
        <time>2019-05-12T08:36:03Z</time>
      </trkpt>
      <trkpt lat="39.1826140" lon="-1.4794050">
        <ele>558.4</ele>
        <time>2019-05-12T08:36:04Z</time>
      </trkpt>
      <trkpt lat="39.1826550" lon="-1.4793850">
        <ele>556.6</ele>
        <time>2019-05-12T08:36:05Z</time>
      </trkpt>
      <trkpt lat="39.1826890" lon="-1.4793510">
        <ele>555.0</ele>
        <time>2019-05-12T08:36:06Z</time>
      </trkpt>
      <trkpt lat="39.1827200" lon="-1.4793330">
        <ele>553.8</ele>
        <time>2019-05-12T08:36:07Z</time>
      </trkpt>
      <trkpt lat="39.1827360" lon="-1.4793460">
        <ele>552.6</ele>
        <time>2019-05-12T08:36:08Z</time>
      </trkpt>
      <trkpt lat="39.1827320" lon="-1.4793750">
        <ele>551.4</ele>
        <time>2019-05-12T08:36:09Z</time>
      </trkpt>
      <trkpt lat="39.1827100" lon="-1.4794040">
        <ele>550.4</ele>
        <time>2019-05-12T08:36:10Z</time>
      </trkpt>
      <trkpt lat="39.1826720" lon="-1.4794280">
        <ele>549.6</ele>
        <time>2019-05-12T08:36:11Z</time>
      </trkpt>
      <trkpt lat="39.1826310" lon="-1.4794590">
        <ele>549.0</ele>
        <time>2019-05-12T08:36:12Z</time>
      </trkpt>
      <trkpt lat="39.1825840" lon="-1.4794900">
        <ele>548.6</ele>
        <time>2019-05-12T08:36:13Z</time>
      </trkpt>
      <trkpt lat="39.1825330" lon="-1.4795170">
        <ele>548.4</ele>
        <time>2019-05-12T08:36:14Z</time>
      </trkpt>
      <trkpt lat="39.1824860" lon="-1.4795450">
        <ele>548.2</ele>
        <time>2019-05-12T08:36:15Z</time>
      </trkpt>
      <trkpt lat="39.1824480" lon="-1.4795810">
        <ele>548.0</ele>
        <time>2019-05-12T08:36:16Z</time>
      </trkpt>
      <trkpt lat="39.1824280" lon="-1.4796270">
        <ele>547.8</ele>
        <time>2019-05-12T08:36:17Z</time>
      </trkpt>
      <trkpt lat="39.1824340" lon="-1.4796790">
        <ele>547.8</ele>
        <time>2019-05-12T08:36:18Z</time>
      </trkpt>
      <trkpt lat="39.1824610" lon="-1.4797240">
        <ele>547.6</ele>
        <time>2019-05-12T08:36:19Z</time>
      </trkpt>
      <trkpt lat="39.1824970" lon="-1.4797570">
        <ele>547.4</ele>
        <time>2019-05-12T08:36:20Z</time>
      </trkpt>
      <trkpt lat="39.1825280" lon="-1.4797890">
        <ele>547.4</ele>
        <time>2019-05-12T08:36:21Z</time>
      </trkpt>
      <trkpt lat="39.1825470" lon="-1.4798330">
        <ele>547.2</ele>
        <time>2019-05-12T08:36:22Z</time>
      </trkpt>
      <trkpt lat="39.1825490" lon="-1.4798830">
        <ele>547.0</ele>
        <time>2019-05-12T08:36:23Z</time>
      </trkpt>
      <trkpt lat="39.1825420" lon="-1.4799320">
        <ele>546.8</ele>
        <time>2019-05-12T08:36:24Z</time>
      </trkpt>
      <trkpt lat="39.1825380" lon="-1.4799740">
        <ele>546.6</ele>
        <time>2019-05-12T08:36:25Z</time>
      </trkpt>
      <trkpt lat="39.1825470" lon="-1.4800100">
        <ele>546.4</ele>
        <time>2019-05-12T08:36:26Z</time>
      </trkpt>
      <trkpt lat="39.1825590" lon="-1.4800440">
        <ele>546.4</ele>
        <time>2019-05-12T08:36:27Z</time>
      </trkpt>
      <trkpt lat="39.1825750" lon="-1.4800780">
        <ele>546.4</ele>
        <time>2019-05-12T08:36:28Z</time>
      </trkpt>
      <trkpt lat="39.1825930" lon="-1.4801140">
        <ele>546.4</ele>
        <time>2019-05-12T08:36:29Z</time>
      </trkpt>
      <trkpt lat="39.1826100" lon="-1.4801560">
        <ele>546.4</ele>
        <time>2019-05-12T08:36:30Z</time>
      </trkpt>
      <trkpt lat="39.1826280" lon="-1.4802010">
        <ele>546.4</ele>
        <time>2019-05-12T08:36:31Z</time>
      </trkpt>
      <trkpt lat="39.1826460" lon="-1.4802500">
        <ele>546.4</ele>
        <time>2019-05-12T08:36:32Z</time>
      </trkpt>
      <trkpt lat="39.1826600" lon="-1.4803030">
        <ele>546.4</ele>
        <time>2019-05-12T08:36:33Z</time>
      </trkpt>
      <trkpt lat="39.1826680" lon="-1.4803690">
        <ele>546.4</ele>
        <time>2019-05-12T08:36:34Z</time>
      </trkpt>
      <trkpt lat="39.1826740" lon="-1.4804480">
        <ele>546.6</ele>
        <time>2019-05-12T08:36:35Z</time>
      </trkpt>
      <trkpt lat="39.1826830" lon="-1.4805340">
        <ele>546.6</ele>
        <time>2019-05-12T08:36:36Z</time>
      </trkpt>
      <trkpt lat="39.1826890" lon="-1.4806200">
        <ele>546.6</ele>
        <time>2019-05-12T08:36:37Z</time>
      </trkpt>
      <trkpt lat="39.1826830" lon="-1.4807010">
        <ele>546.6</ele>
        <time>2019-05-12T08:36:38Z</time>
      </trkpt>
      <trkpt lat="39.1826640" lon="-1.4807770">
        <ele>546.6</ele>
        <time>2019-05-12T08:36:39Z</time>
      </trkpt>
      <trkpt lat="39.1826400" lon="-1.4808490">
        <ele>546.6</ele>
        <time>2019-05-12T08:36:40Z</time>
      </trkpt>
      <trkpt lat="39.1826230" lon="-1.4809010">
        <ele>546.6</ele>
        <time>2019-05-12T08:36:41Z</time>
      </trkpt>
      <trkpt lat="39.1826060" lon="-1.4809530">
        <ele>546.6</ele>
        <time>2019-05-12T08:36:42Z</time>
      </trkpt>
      <trkpt lat="39.1825710" lon="-1.4810570">
        <ele>546.6</ele>
        <time>2019-05-12T08:36:43Z</time>
      </trkpt>
      <trkpt lat="39.1825490" lon="-1.4811210">
        <ele>546.6</ele>
        <time>2019-05-12T08:36:44Z</time>
      </trkpt>
      <trkpt lat="39.1825270" lon="-1.4811850">
        <ele>546.4</ele>
        <time>2019-05-12T08:36:45Z</time>
      </trkpt>
      <trkpt lat="39.1825100" lon="-1.4812510">
        <ele>546.4</ele>
        <time>2019-05-12T08:36:46Z</time>
      </trkpt>
      <trkpt lat="39.1824930" lon="-1.4813160">
        <ele>546.2</ele>
        <time>2019-05-12T08:36:47Z</time>
      </trkpt>
      <trkpt lat="39.1824770" lon="-1.4813720">
        <ele>546.2</ele>
        <time>2019-05-12T08:36:48Z</time>
      </trkpt>
      <trkpt lat="39.1824620" lon="-1.4814180">
        <ele>546.0</ele>
        <time>2019-05-12T08:36:49Z</time>
      </trkpt>
      <trkpt lat="39.1824520" lon="-1.4814650">
        <ele>545.8</ele>
        <time>2019-05-12T08:36:50Z</time>
      </trkpt>
      <trkpt lat="39.1824430" lon="-1.4815160">
        <ele>545.6</ele>
        <time>2019-05-12T08:36:51Z</time>
      </trkpt>
      <trkpt lat="39.1824330" lon="-1.4815690">
        <ele>545.4</ele>
        <time>2019-05-12T08:36:52Z</time>
      </trkpt>
      <trkpt lat="39.1824180" lon="-1.4816170">
        <ele>545.4</ele>
        <time>2019-05-12T08:36:53Z</time>
      </trkpt>
      <trkpt lat="39.1824010" lon="-1.4816610">
        <ele>545.4</ele>
        <time>2019-05-12T08:36:54Z</time>
      </trkpt>
      <trkpt lat="39.1823840" lon="-1.4817010">
        <ele>545.2</ele>
        <time>2019-05-12T08:36:55Z</time>
      </trkpt>
      <trkpt lat="39.1823670" lon="-1.4817400">
        <ele>545.2</ele>
        <time>2019-05-12T08:36:56Z</time>
      </trkpt>
      <trkpt lat="39.1823520" lon="-1.4817770">
        <ele>545.2</ele>
        <time>2019-05-12T08:36:57Z</time>
      </trkpt>
      <trkpt lat="39.1823340" lon="-1.4818160">
        <ele>545.2</ele>
        <time>2019-05-12T08:36:58Z</time>
      </trkpt>
      <trkpt lat="39.1823150" lon="-1.4818570">
        <ele>545.2</ele>
        <time>2019-05-12T08:36:59Z</time>
      </trkpt>
      <trkpt lat="39.1822970" lon="-1.4819020">
        <ele>545.2</ele>
        <time>2019-05-12T08:37:00Z</time>
      </trkpt>
      <trkpt lat="39.1822800" lon="-1.4819500">
        <ele>545.2</ele>
        <time>2019-05-12T08:37:01Z</time>
      </trkpt>
      <trkpt lat="39.1822620" lon="-1.4819960">
        <ele>545.2</ele>
        <time>2019-05-12T08:37:02Z</time>
      </trkpt>
      <trkpt lat="39.1822430" lon="-1.4820430">
        <ele>545.2</ele>
        <time>2019-05-12T08:37:03Z</time>
      </trkpt>
      <trkpt lat="39.1822230" lon="-1.4820940">
        <ele>545.4</ele>
        <time>2019-05-12T08:37:04Z</time>
      </trkpt>
      <trkpt lat="39.1822020" lon="-1.4821480">
        <ele>545.4</ele>
        <time>2019-05-12T08:37:05Z</time>
      </trkpt>
      <trkpt lat="39.1821770" lon="-1.4822000">
        <ele>545.4</ele>
        <time>2019-05-12T08:37:06Z</time>
      </trkpt>
      <trkpt lat="39.1821500" lon="-1.4822490">
        <ele>545.2</ele>
        <time>2019-05-12T08:37:07Z</time>
      </trkpt>
      <trkpt lat="39.1821320" lon="-1.4822990">
        <ele>545.2</ele>
        <time>2019-05-12T08:37:08Z</time>
      </trkpt>
      <trkpt lat="39.1821210" lon="-1.4823470">
        <ele>545.4</ele>
        <time>2019-05-12T08:37:09Z</time>
      </trkpt>
      <trkpt lat="39.1821080" lon="-1.4823910">
        <ele>545.4</ele>
        <time>2019-05-12T08:37:10Z</time>
      </trkpt>
      <trkpt lat="39.1820910" lon="-1.4824340">
        <ele>545.6</ele>
        <time>2019-05-12T08:37:11Z</time>
      </trkpt>
      <trkpt lat="39.1820710" lon="-1.4824810">
        <ele>545.6</ele>
        <time>2019-05-12T08:37:12Z</time>
      </trkpt>
      <trkpt lat="39.1820500" lon="-1.4825320">
        <ele>545.6</ele>
        <time>2019-05-12T08:37:13Z</time>
      </trkpt>
      <trkpt lat="39.1820280" lon="-1.4825910">
        <ele>545.8</ele>
        <time>2019-05-12T08:37:14Z</time>
      </trkpt>
      <trkpt lat="39.1820080" lon="-1.4826560">
        <ele>545.8</ele>
        <time>2019-05-12T08:37:15Z</time>
      </trkpt>
      <trkpt lat="39.1819920" lon="-1.4827260">
        <ele>545.8</ele>
        <time>2019-05-12T08:37:16Z</time>
      </trkpt>
      <trkpt lat="39.1819760" lon="-1.4827970">
        <ele>545.8</ele>
        <time>2019-05-12T08:37:17Z</time>
      </trkpt>
      <trkpt lat="39.1819630" lon="-1.4828660">
        <ele>545.8</ele>
        <time>2019-05-12T08:37:18Z</time>
      </trkpt>
      <trkpt lat="39.1819560" lon="-1.4829320">
        <ele>545.6</ele>
        <time>2019-05-12T08:37:19Z</time>
      </trkpt>
      <trkpt lat="39.1819510" lon="-1.4829980">
        <ele>545.6</ele>
        <time>2019-05-12T08:37:20Z</time>
      </trkpt>
      <trkpt lat="39.1819440" lon="-1.4830610">
        <ele>545.6</ele>
        <time>2019-05-12T08:37:21Z</time>
      </trkpt>
      <trkpt lat="39.1819360" lon="-1.4831200">
        <ele>545.6</ele>
        <time>2019-05-12T08:37:22Z</time>
      </trkpt>
      <trkpt lat="39.1819230" lon="-1.4831760">
        <ele>545.6</ele>
        <time>2019-05-12T08:37:23Z</time>
      </trkpt>
      <trkpt lat="39.1819040" lon="-1.4832310">
        <ele>545.6</ele>
        <time>2019-05-12T08:37:24Z</time>
      </trkpt>
      <trkpt lat="39.1818830" lon="-1.4832850">
        <ele>545.6</ele>
        <time>2019-05-12T08:37:25Z</time>
      </trkpt>
      <trkpt lat="39.1818590" lon="-1.4833350">
        <ele>545.8</ele>
        <time>2019-05-12T08:37:26Z</time>
      </trkpt>
      <trkpt lat="39.1818350" lon="-1.4833850">
        <ele>545.8</ele>
        <time>2019-05-12T08:37:27Z</time>
      </trkpt>
      <trkpt lat="39.1818140" lon="-1.4834350">
        <ele>545.8</ele>
        <time>2019-05-12T08:37:28Z</time>
      </trkpt>
      <trkpt lat="39.1817940" lon="-1.4834860">
        <ele>545.8</ele>
        <time>2019-05-12T08:37:29Z</time>
      </trkpt>
      <trkpt lat="39.1817750" lon="-1.4835360">
        <ele>545.8</ele>
        <time>2019-05-12T08:37:30Z</time>
      </trkpt>
      <trkpt lat="39.1817560" lon="-1.4835850">
        <ele>545.8</ele>
        <time>2019-05-12T08:37:31Z</time>
      </trkpt>
      <trkpt lat="39.1817340" lon="-1.4836320">
        <ele>545.8</ele>
        <time>2019-05-12T08:37:32Z</time>
      </trkpt>
      <trkpt lat="39.1817090" lon="-1.4836770">
        <ele>545.8</ele>
        <time>2019-05-12T08:37:33Z</time>
      </trkpt>
      <trkpt lat="39.1816820" lon="-1.4837220">
        <ele>545.8</ele>
        <time>2019-05-12T08:37:34Z</time>
      </trkpt>
      <trkpt lat="39.1816600" lon="-1.4837630">
        <ele>545.8</ele>
        <time>2019-05-12T08:37:35Z</time>
      </trkpt>
      <trkpt lat="39.1816410" lon="-1.4838050">
        <ele>545.8</ele>
        <time>2019-05-12T08:37:36Z</time>
      </trkpt>
      <trkpt lat="39.1816200" lon="-1.4838420">
        <ele>546.2</ele>
        <time>2019-05-12T08:37:37Z</time>
      </trkpt>
      <trkpt lat="39.1815920" lon="-1.4838740">
        <ele>546.2</ele>
        <time>2019-05-12T08:37:38Z</time>
      </trkpt>
      <trkpt lat="39.1815610" lon="-1.4839080">
        <ele>546.4</ele>
        <time>2019-05-12T08:37:39Z</time>
      </trkpt>
      <trkpt lat="39.1815340" lon="-1.4839450">
        <ele>546.6</ele>
        <time>2019-05-12T08:37:40Z</time>
      </trkpt>
      <trkpt lat="39.1815080" lon="-1.4839870">
        <ele>546.6</ele>
        <time>2019-05-12T08:37:41Z</time>
      </trkpt>
      <trkpt lat="39.1814850" lon="-1.4840260">
        <ele>546.8</ele>
        <time>2019-05-12T08:37:42Z</time>
      </trkpt>
      <trkpt lat="39.1814650" lon="-1.4840710">
        <ele>546.8</ele>
        <time>2019-05-12T08:37:43Z</time>
      </trkpt>
      <trkpt lat="39.1814440" lon="-1.4841160">
        <ele>547.0</ele>
        <time>2019-05-12T08:37:44Z</time>
      </trkpt>
      <trkpt lat="39.1814160" lon="-1.4841530">
        <ele>547.0</ele>
        <time>2019-05-12T08:37:45Z</time>
      </trkpt>
      <trkpt lat="39.1813830" lon="-1.4841880">
        <ele>547.0</ele>
        <time>2019-05-12T08:37:46Z</time>
      </trkpt>
      <trkpt lat="39.1813470" lon="-1.4842290">
        <ele>547.0</ele>
        <time>2019-05-12T08:37:47Z</time>
      </trkpt>
      <trkpt lat="39.1813160" lon="-1.4842770">
        <ele>547.0</ele>
        <time>2019-05-12T08:37:48Z</time>
      </trkpt>
      <trkpt lat="39.1812910" lon="-1.4843280">
        <ele>547.0</ele>
        <time>2019-05-12T08:37:49Z</time>
      </trkpt>
      <trkpt lat="39.1812690" lon="-1.4843790">
        <ele>547.0</ele>
        <time>2019-05-12T08:37:50Z</time>
      </trkpt>
      <trkpt lat="39.1812460" lon="-1.4844260">
        <ele>547.0</ele>
        <time>2019-05-12T08:37:51Z</time>
      </trkpt>
      <trkpt lat="39.1812200" lon="-1.4844750">
        <ele>547.0</ele>
        <time>2019-05-12T08:37:52Z</time>
      </trkpt>
      <trkpt lat="39.1811940" lon="-1.4845250">
        <ele>547.0</ele>
        <time>2019-05-12T08:37:53Z</time>
      </trkpt>
      <trkpt lat="39.1811710" lon="-1.4845760">
        <ele>547.0</ele>
        <time>2019-05-12T08:37:54Z</time>
      </trkpt>
      <trkpt lat="39.1811530" lon="-1.4846260">
        <ele>547.2</ele>
        <time>2019-05-12T08:37:55Z</time>
      </trkpt>
      <trkpt lat="39.1811370" lon="-1.4846780">
        <ele>547.2</ele>
        <time>2019-05-12T08:37:56Z</time>
      </trkpt>
      <trkpt lat="39.1811180" lon="-1.4847310">
        <ele>547.2</ele>
        <time>2019-05-12T08:37:57Z</time>
      </trkpt>
      <trkpt lat="39.1810960" lon="-1.4847840">
        <ele>547.2</ele>
        <time>2019-05-12T08:37:58Z</time>
      </trkpt>
      <trkpt lat="39.1810710" lon="-1.4848350">
        <ele>547.2</ele>
        <time>2019-05-12T08:37:59Z</time>
      </trkpt>
      <trkpt lat="39.1810450" lon="-1.4848860">
        <ele>547.4</ele>
        <time>2019-05-12T08:38:00Z</time>
      </trkpt>
      <trkpt lat="39.1810200" lon="-1.4849360">
        <ele>547.6</ele>
        <time>2019-05-12T08:38:01Z</time>
      </trkpt>
      <trkpt lat="39.1809930" lon="-1.4849850">
        <ele>547.6</ele>
        <time>2019-05-12T08:38:02Z</time>
      </trkpt>
      <trkpt lat="39.1809630" lon="-1.4850320">
        <ele>547.8</ele>
        <time>2019-05-12T08:38:03Z</time>
      </trkpt>
      <trkpt lat="39.1809380" lon="-1.4850810">
        <ele>547.8</ele>
        <time>2019-05-12T08:38:04Z</time>
      </trkpt>
      <trkpt lat="39.1809120" lon="-1.4851300">
        <ele>547.8</ele>
        <time>2019-05-12T08:38:05Z</time>
      </trkpt>
      <trkpt lat="39.1808790" lon="-1.4851800">
        <ele>548.0</ele>
        <time>2019-05-12T08:38:06Z</time>
      </trkpt>
      <trkpt lat="39.1808390" lon="-1.4852350">
        <ele>548.0</ele>
        <time>2019-05-12T08:38:07Z</time>
      </trkpt>
      <trkpt lat="39.1808030" lon="-1.4853000">
        <ele>548.0</ele>
        <time>2019-05-12T08:38:08Z</time>
      </trkpt>
      <trkpt lat="39.1807710" lon="-1.4853700">
        <ele>548.0</ele>
        <time>2019-05-12T08:38:09Z</time>
      </trkpt>
      <trkpt lat="39.1807390" lon="-1.4854370">
        <ele>548.0</ele>
        <time>2019-05-12T08:38:10Z</time>
      </trkpt>
      <trkpt lat="39.1807060" lon="-1.4854970">
        <ele>548.0</ele>
        <time>2019-05-12T08:38:11Z</time>
      </trkpt>
      <trkpt lat="39.1806750" lon="-1.4855450">
        <ele>548.0</ele>
        <time>2019-05-12T08:38:12Z</time>
      </trkpt>
      <trkpt lat="39.1806510" lon="-1.4855870">
        <ele>548.0</ele>
        <time>2019-05-12T08:38:13Z</time>
      </trkpt>
      <trkpt lat="39.1806460" lon="-1.4856270">
        <ele>548.0</ele>
        <time>2019-05-12T08:38:14Z</time>
      </trkpt>
      <trkpt lat="39.1806380" lon="-1.4856710">
        <ele>548.0</ele>
        <time>2019-05-12T08:38:15Z</time>
      </trkpt>
      <trkpt lat="39.1806190" lon="-1.4857170">
        <ele>548.0</ele>
        <time>2019-05-12T08:38:16Z</time>
      </trkpt>
      <trkpt lat="39.1805940" lon="-1.4857680">
        <ele>548.0</ele>
        <time>2019-05-12T08:38:17Z</time>
      </trkpt>
      <trkpt lat="39.1805640" lon="-1.4858230">
        <ele>547.8</ele>
        <time>2019-05-12T08:38:18Z</time>
      </trkpt>
      <trkpt lat="39.1805360" lon="-1.4858770">
        <ele>547.8</ele>
        <time>2019-05-12T08:38:19Z</time>
      </trkpt>
      <trkpt lat="39.1805080" lon="-1.4859300">
        <ele>547.4</ele>
        <time>2019-05-12T08:38:20Z</time>
      </trkpt>
      <trkpt lat="39.1804800" lon="-1.4859710">
        <ele>547.0</ele>
        <time>2019-05-12T08:38:21Z</time>
      </trkpt>
      <trkpt lat="39.1804540" lon="-1.4859960">
        <ele>546.4</ele>
        <time>2019-05-12T08:38:22Z</time>
      </trkpt>
      <trkpt lat="39.1804330" lon="-1.4860260">
        <ele>546.2</ele>
        <time>2019-05-12T08:38:23Z</time>
      </trkpt>
      <trkpt lat="39.1804130" lon="-1.4860670">
        <ele>546.0</ele>
        <time>2019-05-12T08:38:24Z</time>
      </trkpt>
      <trkpt lat="39.1803930" lon="-1.4861140">
        <ele>546.0</ele>
        <time>2019-05-12T08:38:25Z</time>
      </trkpt>
      <trkpt lat="39.1803690" lon="-1.4861610">
        <ele>545.8</ele>
        <time>2019-05-12T08:38:26Z</time>
      </trkpt>
      <trkpt lat="39.1803410" lon="-1.4862070">
        <ele>545.6</ele>
        <time>2019-05-12T08:38:27Z</time>
      </trkpt>
      <trkpt lat="39.1803120" lon="-1.4862530">
        <ele>545.6</ele>
        <time>2019-05-12T08:38:28Z</time>
      </trkpt>
      <trkpt lat="39.1802820" lon="-1.4862970">
        <ele>545.6</ele>
        <time>2019-05-12T08:38:29Z</time>
      </trkpt>
      <trkpt lat="39.1802470" lon="-1.4863390">
        <ele>545.6</ele>
        <time>2019-05-12T08:38:30Z</time>
      </trkpt>
      <trkpt lat="39.1802100" lon="-1.4863820">
        <ele>545.4</ele>
        <time>2019-05-12T08:38:31Z</time>
      </trkpt>
      <trkpt lat="39.1801690" lon="-1.4864230">
        <ele>545.4</ele>
        <time>2019-05-12T08:38:32Z</time>
      </trkpt>
      <trkpt lat="39.1801250" lon="-1.4864620">
        <ele>545.4</ele>
        <time>2019-05-12T08:38:33Z</time>
      </trkpt>
      <trkpt lat="39.1800800" lon="-1.4865000">
        <ele>545.4</ele>
        <time>2019-05-12T08:38:34Z</time>
      </trkpt>
      <trkpt lat="39.1800360" lon="-1.4865370">
        <ele>545.4</ele>
        <time>2019-05-12T08:38:35Z</time>
      </trkpt>
      <trkpt lat="39.1799930" lon="-1.4865710">
        <ele>545.4</ele>
        <time>2019-05-12T08:38:36Z</time>
      </trkpt>
      <trkpt lat="39.1799500" lon="-1.4866060">
        <ele>545.4</ele>
        <time>2019-05-12T08:38:37Z</time>
      </trkpt>
      <trkpt lat="39.1799070" lon="-1.4866390">
        <ele>545.4</ele>
        <time>2019-05-12T08:38:38Z</time>
      </trkpt>
      <trkpt lat="39.1798590" lon="-1.4866680">
        <ele>545.4</ele>
        <time>2019-05-12T08:38:39Z</time>
      </trkpt>
      <trkpt lat="39.1798100" lon="-1.4866970">
        <ele>545.4</ele>
        <time>2019-05-12T08:38:40Z</time>
      </trkpt>
      <trkpt lat="39.1797600" lon="-1.4867240">
        <ele>545.4</ele>
        <time>2019-05-12T08:38:41Z</time>
      </trkpt>
      <trkpt lat="39.1797120" lon="-1.4867470">
        <ele>545.4</ele>
        <time>2019-05-12T08:38:42Z</time>
      </trkpt>
      <trkpt lat="39.1796600" lon="-1.4867740">
        <ele>545.4</ele>
        <time>2019-05-12T08:38:43Z</time>
      </trkpt>
      <trkpt lat="39.1796070" lon="-1.4868030">
        <ele>545.4</ele>
        <time>2019-05-12T08:38:44Z</time>
      </trkpt>
      <trkpt lat="39.1795580" lon="-1.4868330">
        <ele>545.4</ele>
        <time>2019-05-12T08:38:45Z</time>
      </trkpt>
      <trkpt lat="39.1795100" lon="-1.4868650">
        <ele>545.4</ele>
        <time>2019-05-12T08:38:46Z</time>
      </trkpt>
      <trkpt lat="39.1794650" lon="-1.4869020">
        <ele>545.4</ele>
        <time>2019-05-12T08:38:47Z</time>
      </trkpt>
      <trkpt lat="39.1794220" lon="-1.4869420">
        <ele>545.4</ele>
        <time>2019-05-12T08:38:48Z</time>
      </trkpt>
      <trkpt lat="39.1793860" lon="-1.4869790">
        <ele>545.4</ele>
        <time>2019-05-12T08:38:49Z</time>
      </trkpt>
      <trkpt lat="39.1793570" lon="-1.4870080">
        <ele>545.4</ele>
        <time>2019-05-12T08:38:50Z</time>
      </trkpt>
      <trkpt lat="39.1793350" lon="-1.4870330">
        <ele>545.6</ele>
        <time>2019-05-12T08:38:51Z</time>
      </trkpt>
      <trkpt lat="39.1793200" lon="-1.4870570">
        <ele>545.6</ele>
        <time>2019-05-12T08:38:52Z</time>
      </trkpt>
      <trkpt lat="39.1793160" lon="-1.4870880">
        <ele>545.6</ele>
        <time>2019-05-12T08:38:53Z</time>
      </trkpt>
      <trkpt lat="39.1793160" lon="-1.4871270">
        <ele>545.6</ele>
        <time>2019-05-12T08:38:54Z</time>
      </trkpt>
      <trkpt lat="39.1793190" lon="-1.4871720">
        <ele>545.6</ele>
        <time>2019-05-12T08:38:55Z</time>
      </trkpt>
      <trkpt lat="39.1793270" lon="-1.4872220">
        <ele>545.8</ele>
        <time>2019-05-12T08:38:56Z</time>
      </trkpt>
      <trkpt lat="39.1793420" lon="-1.4872720">
        <ele>545.8</ele>
        <time>2019-05-12T08:38:57Z</time>
      </trkpt>
      <trkpt lat="39.1793610" lon="-1.4873250">
        <ele>546.4</ele>
        <time>2019-05-12T08:38:58Z</time>
      </trkpt>
      <trkpt lat="39.1793770" lon="-1.4873770">
        <ele>547.0</ele>
        <time>2019-05-12T08:38:59Z</time>
      </trkpt>
      <trkpt lat="39.1793950" lon="-1.4874300">
        <ele>547.8</ele>
        <time>2019-05-12T08:39:00Z</time>
      </trkpt>
      <trkpt lat="39.1794180" lon="-1.4874790">
        <ele>548.4</ele>
        <time>2019-05-12T08:39:01Z</time>
      </trkpt>
      <trkpt lat="39.1794430" lon="-1.4875280">
        <ele>548.8</ele>
        <time>2019-05-12T08:39:02Z</time>
      </trkpt>
      <trkpt lat="39.1794650" lon="-1.4875800">
        <ele>549.2</ele>
        <time>2019-05-12T08:39:03Z</time>
      </trkpt>
      <trkpt lat="39.1794840" lon="-1.4876340">
        <ele>549.2</ele>
        <time>2019-05-12T08:39:04Z</time>
      </trkpt>
      <trkpt lat="39.1795020" lon="-1.4876880">
        <ele>549.4</ele>
        <time>2019-05-12T08:39:05Z</time>
      </trkpt>
      <trkpt lat="39.1795220" lon="-1.4877430">
        <ele>549.4</ele>
        <time>2019-05-12T08:39:06Z</time>
      </trkpt>
      <trkpt lat="39.1795420" lon="-1.4877980">
        <ele>549.4</ele>
        <time>2019-05-12T08:39:07Z</time>
      </trkpt>
      <trkpt lat="39.1795620" lon="-1.4878530">
        <ele>549.4</ele>
        <time>2019-05-12T08:39:08Z</time>
      </trkpt>
      <trkpt lat="39.1795830" lon="-1.4879080">
        <ele>549.4</ele>
        <time>2019-05-12T08:39:09Z</time>
      </trkpt>
      <trkpt lat="39.1796040" lon="-1.4879620">
        <ele>549.6</ele>
        <time>2019-05-12T08:39:10Z</time>
      </trkpt>
      <trkpt lat="39.1796240" lon="-1.4880180">
        <ele>549.6</ele>
        <time>2019-05-12T08:39:11Z</time>
      </trkpt>
      <trkpt lat="39.1796430" lon="-1.4880730">
        <ele>549.6</ele>
        <time>2019-05-12T08:39:12Z</time>
      </trkpt>
      <trkpt lat="39.1796630" lon="-1.4881300">
        <ele>549.6</ele>
        <time>2019-05-12T08:39:13Z</time>
      </trkpt>
      <trkpt lat="39.1796830" lon="-1.4881880">
        <ele>549.6</ele>
        <time>2019-05-12T08:39:14Z</time>
      </trkpt>
      <trkpt lat="39.1797010" lon="-1.4882450">
        <ele>549.6</ele>
        <time>2019-05-12T08:39:15Z</time>
      </trkpt>
      <trkpt lat="39.1797180" lon="-1.4883000">
        <ele>549.6</ele>
        <time>2019-05-12T08:39:16Z</time>
      </trkpt>
      <trkpt lat="39.1797350" lon="-1.4883560">
        <ele>549.6</ele>
        <time>2019-05-12T08:39:17Z</time>
      </trkpt>
      <trkpt lat="39.1797530" lon="-1.4884120">
        <ele>549.6</ele>
        <time>2019-05-12T08:39:18Z</time>
      </trkpt>
      <trkpt lat="39.1797670" lon="-1.4884710">
        <ele>549.6</ele>
        <time>2019-05-12T08:39:19Z</time>
      </trkpt>
      <trkpt lat="39.1797710" lon="-1.4885310">
        <ele>549.6</ele>
        <time>2019-05-12T08:39:20Z</time>
      </trkpt>
      <trkpt lat="39.1797560" lon="-1.4885870">
        <ele>549.8</ele>
        <time>2019-05-12T08:39:21Z</time>
      </trkpt>
      <trkpt lat="39.1797230" lon="-1.4886240">
        <ele>549.8</ele>
        <time>2019-05-12T08:39:22Z</time>
      </trkpt>
      <trkpt lat="39.1796770" lon="-1.4886460">
        <ele>550.0</ele>
        <time>2019-05-12T08:39:23Z</time>
      </trkpt>
      <trkpt lat="39.1796250" lon="-1.4886610">
        <ele>550.0</ele>
        <time>2019-05-12T08:39:24Z</time>
      </trkpt>
      <trkpt lat="39.1795690" lon="-1.4886790">
        <ele>550.2</ele>
        <time>2019-05-12T08:39:25Z</time>
      </trkpt>
      <trkpt lat="39.1795130" lon="-1.4887100">
        <ele>550.4</ele>
        <time>2019-05-12T08:39:26Z</time>
      </trkpt>
      <trkpt lat="39.1794570" lon="-1.4887480">
        <ele>550.4</ele>
        <time>2019-05-12T08:39:27Z</time>
      </trkpt>
      <trkpt lat="39.1794020" lon="-1.4887920">
        <ele>550.6</ele>
        <time>2019-05-12T08:39:28Z</time>
      </trkpt>
      <trkpt lat="39.1793450" lon="-1.4888370">
        <ele>550.8</ele>
        <time>2019-05-12T08:39:29Z</time>
      </trkpt>
      <trkpt lat="39.1792860" lon="-1.4888820">
        <ele>550.8</ele>
        <time>2019-05-12T08:39:30Z</time>
      </trkpt>
      <trkpt lat="39.1792260" lon="-1.4889270">
        <ele>550.8</ele>
        <time>2019-05-12T08:39:31Z</time>
      </trkpt>
      <trkpt lat="39.1791640" lon="-1.4889690">
        <ele>550.8</ele>
        <time>2019-05-12T08:39:32Z</time>
      </trkpt>
      <trkpt lat="39.1790990" lon="-1.4890100">
        <ele>550.8</ele>
        <time>2019-05-12T08:39:33Z</time>
      </trkpt>
      <trkpt lat="39.1790340" lon="-1.4890500">
        <ele>550.8</ele>
        <time>2019-05-12T08:39:34Z</time>
      </trkpt>
      <trkpt lat="39.1789670" lon="-1.4890880">
        <ele>550.8</ele>
        <time>2019-05-12T08:39:35Z</time>
      </trkpt>
      <trkpt lat="39.1789010" lon="-1.4891230">
        <ele>550.8</ele>
        <time>2019-05-12T08:39:36Z</time>
      </trkpt>
      <trkpt lat="39.1788330" lon="-1.4891560">
        <ele>550.8</ele>
        <time>2019-05-12T08:39:37Z</time>
      </trkpt>
      <trkpt lat="39.1787640" lon="-1.4891870">
        <ele>550.8</ele>
        <time>2019-05-12T08:39:38Z</time>
      </trkpt>
      <trkpt lat="39.1786960" lon="-1.4892170">
        <ele>550.8</ele>
        <time>2019-05-12T08:39:39Z</time>
      </trkpt>
      <trkpt lat="39.1786290" lon="-1.4892490">
        <ele>550.6</ele>
        <time>2019-05-12T08:39:40Z</time>
      </trkpt>
      <trkpt lat="39.1785620" lon="-1.4892800">
        <ele>550.6</ele>
        <time>2019-05-12T08:39:41Z</time>
      </trkpt>
      <trkpt lat="39.1784930" lon="-1.4893100">
        <ele>550.4</ele>
        <time>2019-05-12T08:39:42Z</time>
      </trkpt>
      <trkpt lat="39.1784250" lon="-1.4893420">
        <ele>550.4</ele>
        <time>2019-05-12T08:39:43Z</time>
      </trkpt>
      <trkpt lat="39.1783560" lon="-1.4893730">
        <ele>550.4</ele>
        <time>2019-05-12T08:39:44Z</time>
      </trkpt>
      <trkpt lat="39.1782880" lon="-1.4894050">
        <ele>550.4</ele>
        <time>2019-05-12T08:39:45Z</time>
      </trkpt>
      <trkpt lat="39.1782180" lon="-1.4894360">
        <ele>550.2</ele>
        <time>2019-05-12T08:39:46Z</time>
      </trkpt>
      <trkpt lat="39.1781490" lon="-1.4894660">
        <ele>550.2</ele>
        <time>2019-05-12T08:39:47Z</time>
      </trkpt>
      <trkpt lat="39.1780790" lon="-1.4894960">
        <ele>550.2</ele>
        <time>2019-05-12T08:39:48Z</time>
      </trkpt>
      <trkpt lat="39.1780080" lon="-1.4895250">
        <ele>550.2</ele>
        <time>2019-05-12T08:39:49Z</time>
      </trkpt>
      <trkpt lat="39.1779370" lon="-1.4895540">
        <ele>550.2</ele>
        <time>2019-05-12T08:39:50Z</time>
      </trkpt>
      <trkpt lat="39.1778650" lon="-1.4895820">
        <ele>550.2</ele>
        <time>2019-05-12T08:39:51Z</time>
      </trkpt>
      <trkpt lat="39.1777930" lon="-1.4896090">
        <ele>550.2</ele>
        <time>2019-05-12T08:39:52Z</time>
      </trkpt>
      <trkpt lat="39.1777210" lon="-1.4896350">
        <ele>550.2</ele>
        <time>2019-05-12T08:39:53Z</time>
      </trkpt>
      <trkpt lat="39.1776480" lon="-1.4896600">
        <ele>550.2</ele>
        <time>2019-05-12T08:39:54Z</time>
      </trkpt>
      <trkpt lat="39.1775760" lon="-1.4896850">
        <ele>550.2</ele>
        <time>2019-05-12T08:39:55Z</time>
      </trkpt>
      <trkpt lat="39.1775030" lon="-1.4897080">
        <ele>550.2</ele>
        <time>2019-05-12T08:39:56Z</time>
      </trkpt>
      <trkpt lat="39.1774290" lon="-1.4897320">
        <ele>550.2</ele>
        <time>2019-05-12T08:39:57Z</time>
      </trkpt>
      <trkpt lat="39.1773550" lon="-1.4897550">
        <ele>550.2</ele>
        <time>2019-05-12T08:39:58Z</time>
      </trkpt>
      <trkpt lat="39.1772800" lon="-1.4897790">
        <ele>550.2</ele>
        <time>2019-05-12T08:39:59Z</time>
      </trkpt>
      <trkpt lat="39.1772060" lon="-1.4898040">
        <ele>550.2</ele>
        <time>2019-05-12T08:40:00Z</time>
      </trkpt>
      <trkpt lat="39.1771310" lon="-1.4898280">
        <ele>550.2</ele>
        <time>2019-05-12T08:40:01Z</time>
      </trkpt>
      <trkpt lat="39.1770560" lon="-1.4898500">
        <ele>549.8</ele>
        <time>2019-05-12T08:40:02Z</time>
      </trkpt>
      <trkpt lat="39.1769810" lon="-1.4898690">
        <ele>549.8</ele>
        <time>2019-05-12T08:40:03Z</time>
      </trkpt>
      <trkpt lat="39.1769050" lon="-1.4898850">
        <ele>549.8</ele>
        <time>2019-05-12T08:40:04Z</time>
      </trkpt>
      <trkpt lat="39.1768290" lon="-1.4898930">
        <ele>549.8</ele>
        <time>2019-05-12T08:40:05Z</time>
      </trkpt>
      <trkpt lat="39.1767500" lon="-1.4898940">
        <ele>549.6</ele>
        <time>2019-05-12T08:40:06Z</time>
      </trkpt>
      <trkpt lat="39.1766710" lon="-1.4898890">
        <ele>549.6</ele>
        <time>2019-05-12T08:40:07Z</time>
      </trkpt>
      <trkpt lat="39.1765900" lon="-1.4898800">
        <ele>549.4</ele>
        <time>2019-05-12T08:40:08Z</time>
      </trkpt>
      <trkpt lat="39.1765080" lon="-1.4898700">
        <ele>549.4</ele>
        <time>2019-05-12T08:40:09Z</time>
      </trkpt>
      <trkpt lat="39.1764230" lon="-1.4898630">
        <ele>549.4</ele>
        <time>2019-05-12T08:40:10Z</time>
      </trkpt>
      <trkpt lat="39.1763380" lon="-1.4898580">
        <ele>549.4</ele>
        <time>2019-05-12T08:40:11Z</time>
      </trkpt>
      <trkpt lat="39.1762520" lon="-1.4898590">
        <ele>549.2</ele>
        <time>2019-05-12T08:40:12Z</time>
      </trkpt>
      <trkpt lat="39.1761660" lon="-1.4898640">
        <ele>549.0</ele>
        <time>2019-05-12T08:40:13Z</time>
      </trkpt>
      <trkpt lat="39.1760810" lon="-1.4898760">
        <ele>549.0</ele>
        <time>2019-05-12T08:40:14Z</time>
      </trkpt>
      <trkpt lat="39.1759980" lon="-1.4898940">
        <ele>548.8</ele>
        <time>2019-05-12T08:40:15Z</time>
      </trkpt>
      <trkpt lat="39.1759170" lon="-1.4899220">
        <ele>548.8</ele>
        <time>2019-05-12T08:40:16Z</time>
      </trkpt>
      <trkpt lat="39.1758400" lon="-1.4899600">
        <ele>548.8</ele>
        <time>2019-05-12T08:40:17Z</time>
      </trkpt>
      <trkpt lat="39.1757640" lon="-1.4900040">
        <ele>548.4</ele>
        <time>2019-05-12T08:40:18Z</time>
      </trkpt>
      <trkpt lat="39.1756890" lon="-1.4900530">
        <ele>547.8</ele>
        <time>2019-05-12T08:40:19Z</time>
      </trkpt>
      <trkpt lat="39.1756180" lon="-1.4901090">
        <ele>547.6</ele>
        <time>2019-05-12T08:40:20Z</time>
      </trkpt>
      <trkpt lat="39.1755470" lon="-1.4901660">
        <ele>547.4</ele>
        <time>2019-05-12T08:40:21Z</time>
      </trkpt>
      <trkpt lat="39.1754770" lon="-1.4902260">
        <ele>547.4</ele>
        <time>2019-05-12T08:40:22Z</time>
      </trkpt>
      <trkpt lat="39.1754080" lon="-1.4902840">
        <ele>547.2</ele>
        <time>2019-05-12T08:40:23Z</time>
      </trkpt>
      <trkpt lat="39.1753410" lon="-1.4903410">
        <ele>547.0</ele>
        <time>2019-05-12T08:40:24Z</time>
      </trkpt>
      <trkpt lat="39.1752720" lon="-1.4903950">
        <ele>547.0</ele>
        <time>2019-05-12T08:40:25Z</time>
      </trkpt>
      <trkpt lat="39.1752030" lon="-1.4904480">
        <ele>547.0</ele>
        <time>2019-05-12T08:40:26Z</time>
      </trkpt>
      <trkpt lat="39.1751370" lon="-1.4905060">
        <ele>546.8</ele>
        <time>2019-05-12T08:40:27Z</time>
      </trkpt>
      <trkpt lat="39.1750800" lon="-1.4905730">
        <ele>546.8</ele>
        <time>2019-05-12T08:40:28Z</time>
      </trkpt>
      <trkpt lat="39.1750290" lon="-1.4906450">
        <ele>546.8</ele>
        <time>2019-05-12T08:40:29Z</time>
      </trkpt>
      <trkpt lat="39.1749800" lon="-1.4907190">
        <ele>546.6</ele>
        <time>2019-05-12T08:40:30Z</time>
      </trkpt>
      <trkpt lat="39.1749330" lon="-1.4907930">
        <ele>546.6</ele>
        <time>2019-05-12T08:40:31Z</time>
      </trkpt>
      <trkpt lat="39.1748900" lon="-1.4908710">
        <ele>546.6</ele>
        <time>2019-05-12T08:40:32Z</time>
      </trkpt>
      <trkpt lat="39.1748520" lon="-1.4909520">
        <ele>546.6</ele>
        <time>2019-05-12T08:40:33Z</time>
      </trkpt>
      <trkpt lat="39.1748210" lon="-1.4910370">
        <ele>546.6</ele>
        <time>2019-05-12T08:40:34Z</time>
      </trkpt>
      <trkpt lat="39.1747920" lon="-1.4911250">
        <ele>546.6</ele>
        <time>2019-05-12T08:40:35Z</time>
      </trkpt>
      <trkpt lat="39.1747690" lon="-1.4912170">
        <ele>546.6</ele>
        <time>2019-05-12T08:40:36Z</time>
      </trkpt>
      <trkpt lat="39.1747510" lon="-1.4913100">
        <ele>546.6</ele>
        <time>2019-05-12T08:40:37Z</time>
      </trkpt>
      <trkpt lat="39.1747400" lon="-1.4914030">
        <ele>546.8</ele>
        <time>2019-05-12T08:40:38Z</time>
      </trkpt>
      <trkpt lat="39.1747430" lon="-1.4914950">
        <ele>546.8</ele>
        <time>2019-05-12T08:40:39Z</time>
      </trkpt>
      <trkpt lat="39.1747530" lon="-1.4915810">
        <ele>547.0</ele>
        <time>2019-05-12T08:40:40Z</time>
      </trkpt>
      <trkpt lat="39.1747620" lon="-1.4916610">
        <ele>547.0</ele>
        <time>2019-05-12T08:40:41Z</time>
      </trkpt>
      <trkpt lat="39.1747690" lon="-1.4917390">
        <ele>547.2</ele>
        <time>2019-05-12T08:40:42Z</time>
      </trkpt>
      <trkpt lat="39.1747740" lon="-1.4918110">
        <ele>547.2</ele>
        <time>2019-05-12T08:40:43Z</time>
      </trkpt>
      <trkpt lat="39.1747770" lon="-1.4918800">
        <ele>547.4</ele>
        <time>2019-05-12T08:40:44Z</time>
      </trkpt>
      <trkpt lat="39.1747790" lon="-1.4919460">
        <ele>547.4</ele>
        <time>2019-05-12T08:40:45Z</time>
      </trkpt>
      <trkpt lat="39.1747790" lon="-1.4920100">
        <ele>547.4</ele>
        <time>2019-05-12T08:40:46Z</time>
      </trkpt>
      <trkpt lat="39.1747780" lon="-1.4920710">
        <ele>547.4</ele>
        <time>2019-05-12T08:40:47Z</time>
      </trkpt>
      <trkpt lat="39.1747770" lon="-1.4921290">
        <ele>547.6</ele>
        <time>2019-05-12T08:40:48Z</time>
      </trkpt>
      <trkpt lat="39.1747730" lon="-1.4921850">
        <ele>548.0</ele>
        <time>2019-05-12T08:40:49Z</time>
      </trkpt>
      <trkpt lat="39.1747680" lon="-1.4922390">
        <ele>548.4</ele>
        <time>2019-05-12T08:40:50Z</time>
      </trkpt>
      <trkpt lat="39.1747620" lon="-1.4922920">
        <ele>548.8</ele>
        <time>2019-05-12T08:40:51Z</time>
      </trkpt>
      <trkpt lat="39.1747560" lon="-1.4923440">
        <ele>549.2</ele>
        <time>2019-05-12T08:40:52Z</time>
      </trkpt>
      <trkpt lat="39.1747500" lon="-1.4923960">
        <ele>549.6</ele>
        <time>2019-05-12T08:40:53Z</time>
      </trkpt>
      <trkpt lat="39.1747460" lon="-1.4924500">
        <ele>550.6</ele>
        <time>2019-05-12T08:40:54Z</time>
      </trkpt>
      <trkpt lat="39.1747430" lon="-1.4925020">
        <ele>550.8</ele>
        <time>2019-05-12T08:40:55Z</time>
      </trkpt>
      <trkpt lat="39.1747390" lon="-1.4925510">
        <ele>551.0</ele>
        <time>2019-05-12T08:40:56Z</time>
      </trkpt>
      <trkpt lat="39.1747350" lon="-1.4925980">
        <ele>551.4</ele>
        <time>2019-05-12T08:40:57Z</time>
      </trkpt>
      <trkpt lat="39.1747330" lon="-1.4926440">
        <ele>551.8</ele>
        <time>2019-05-12T08:40:58Z</time>
      </trkpt>
      <trkpt lat="39.1747320" lon="-1.4926920">
        <ele>552.0</ele>
        <time>2019-05-12T08:40:59Z</time>
      </trkpt>
      <trkpt lat="39.1747310" lon="-1.4927410">
        <ele>552.4</ele>
        <time>2019-05-12T08:41:00Z</time>
      </trkpt>
      <trkpt lat="39.1747310" lon="-1.4927900">
        <ele>552.8</ele>
        <time>2019-05-12T08:41:01Z</time>
      </trkpt>
      <trkpt lat="39.1747350" lon="-1.4928410">
        <ele>553.0</ele>
        <time>2019-05-12T08:41:02Z</time>
      </trkpt>
      <trkpt lat="39.1747470" lon="-1.4928930">
        <ele>553.6</ele>
        <time>2019-05-12T08:41:03Z</time>
      </trkpt>
      <trkpt lat="39.1747740" lon="-1.4929430">
        <ele>554.0</ele>
        <time>2019-05-12T08:41:04Z</time>
      </trkpt>
      <trkpt lat="39.1748140" lon="-1.4929900">
        <ele>554.6</ele>
        <time>2019-05-12T08:41:05Z</time>
      </trkpt>
      <trkpt lat="39.1748630" lon="-1.4930360">
        <ele>555.0</ele>
        <time>2019-05-12T08:41:06Z</time>
      </trkpt>
      <trkpt lat="39.1749140" lon="-1.4930840">
        <ele>555.4</ele>
        <time>2019-05-12T08:41:07Z</time>
      </trkpt>
      <trkpt lat="39.1749640" lon="-1.4931350">
        <ele>555.6</ele>
        <time>2019-05-12T08:41:08Z</time>
      </trkpt>
      <trkpt lat="39.1750120" lon="-1.4931890">
        <ele>556.0</ele>
        <time>2019-05-12T08:41:09Z</time>
      </trkpt>
      <trkpt lat="39.1750640" lon="-1.4932420">
        <ele>556.0</ele>
        <time>2019-05-12T08:41:10Z</time>
      </trkpt>
      <trkpt lat="39.1751180" lon="-1.4932900">
        <ele>556.0</ele>
        <time>2019-05-12T08:41:11Z</time>
      </trkpt>
      <trkpt lat="39.1751810" lon="-1.4933330">
        <ele>556.0</ele>
        <time>2019-05-12T08:41:12Z</time>
      </trkpt>
      <trkpt lat="39.1752440" lon="-1.4933780">
        <ele>556.0</ele>
        <time>2019-05-12T08:41:13Z</time>
      </trkpt>
      <trkpt lat="39.1753100" lon="-1.4934290">
        <ele>556.0</ele>
        <time>2019-05-12T08:41:14Z</time>
      </trkpt>
      <trkpt lat="39.1753720" lon="-1.4934890">
        <ele>556.0</ele>
        <time>2019-05-12T08:41:15Z</time>
      </trkpt>
      <trkpt lat="39.1754310" lon="-1.4935660">
        <ele>556.0</ele>
        <time>2019-05-12T08:41:16Z</time>
      </trkpt>
      <trkpt lat="39.1754860" lon="-1.4936520">
        <ele>556.0</ele>
        <time>2019-05-12T08:41:17Z</time>
      </trkpt>
      <trkpt lat="39.1755420" lon="-1.4937400">
        <ele>556.0</ele>
        <time>2019-05-12T08:41:18Z</time>
      </trkpt>
      <trkpt lat="39.1756010" lon="-1.4938260">
        <ele>556.0</ele>
        <time>2019-05-12T08:41:19Z</time>
      </trkpt>
      <trkpt lat="39.1756600" lon="-1.4939100">
        <ele>556.0</ele>
        <time>2019-05-12T08:41:20Z</time>
      </trkpt>
      <trkpt lat="39.1757190" lon="-1.4939930">
        <ele>555.8</ele>
        <time>2019-05-12T08:41:21Z</time>
      </trkpt>
      <trkpt lat="39.1757770" lon="-1.4940770">
        <ele>555.6</ele>
        <time>2019-05-12T08:41:22Z</time>
      </trkpt>
      <trkpt lat="39.1758320" lon="-1.4941640">
        <ele>555.2</ele>
        <time>2019-05-12T08:41:23Z</time>
      </trkpt>
      <trkpt lat="39.1758890" lon="-1.4942460">
        <ele>554.8</ele>
        <time>2019-05-12T08:41:24Z</time>
      </trkpt>
      <trkpt lat="39.1759530" lon="-1.4943170">
        <ele>554.2</ele>
        <time>2019-05-12T08:41:25Z</time>
      </trkpt>
      <trkpt lat="39.1760200" lon="-1.4943770">
        <ele>553.4</ele>
        <time>2019-05-12T08:41:26Z</time>
      </trkpt>
      <trkpt lat="39.1760880" lon="-1.4944250">
        <ele>552.8</ele>
        <time>2019-05-12T08:41:27Z</time>
      </trkpt>
      <trkpt lat="39.1761580" lon="-1.4944670">
        <ele>552.2</ele>
        <time>2019-05-12T08:41:28Z</time>
      </trkpt>
      <trkpt lat="39.1762280" lon="-1.4945100">
        <ele>551.4</ele>
        <time>2019-05-12T08:41:29Z</time>
      </trkpt>
      <trkpt lat="39.1762960" lon="-1.4945520">
        <ele>551.2</ele>
        <time>2019-05-12T08:41:30Z</time>
      </trkpt>
      <trkpt lat="39.1763630" lon="-1.4945940">
        <ele>551.2</ele>
        <time>2019-05-12T08:41:31Z</time>
      </trkpt>
      <trkpt lat="39.1764310" lon="-1.4946370">
        <ele>551.0</ele>
        <time>2019-05-12T08:41:32Z</time>
      </trkpt>
      <trkpt lat="39.1764980" lon="-1.4946810">
        <ele>551.0</ele>
        <time>2019-05-12T08:41:33Z</time>
      </trkpt>
      <trkpt lat="39.1765640" lon="-1.4947260">
        <ele>551.0</ele>
        <time>2019-05-12T08:41:34Z</time>
      </trkpt>
      <trkpt lat="39.1766290" lon="-1.4947740">
        <ele>551.0</ele>
        <time>2019-05-12T08:41:35Z</time>
      </trkpt>
      <trkpt lat="39.1766930" lon="-1.4948240">
        <ele>551.0</ele>
        <time>2019-05-12T08:41:36Z</time>
      </trkpt>
      <trkpt lat="39.1767570" lon="-1.4948730">
        <ele>551.0</ele>
        <time>2019-05-12T08:41:37Z</time>
      </trkpt>
      <trkpt lat="39.1768230" lon="-1.4949210">
        <ele>551.0</ele>
        <time>2019-05-12T08:41:38Z</time>
      </trkpt>
      <trkpt lat="39.1768920" lon="-1.4949690">
        <ele>551.0</ele>
        <time>2019-05-12T08:41:39Z</time>
      </trkpt>
      <trkpt lat="39.1769620" lon="-1.4950180">
        <ele>551.0</ele>
        <time>2019-05-12T08:41:40Z</time>
      </trkpt>
      <trkpt lat="39.1770320" lon="-1.4950690">
        <ele>550.8</ele>
        <time>2019-05-12T08:41:41Z</time>
      </trkpt>
      <trkpt lat="39.1771010" lon="-1.4951210">
        <ele>550.8</ele>
        <time>2019-05-12T08:41:42Z</time>
      </trkpt>
      <trkpt lat="39.1771700" lon="-1.4951720">
        <ele>551.0</ele>
        <time>2019-05-12T08:41:43Z</time>
      </trkpt>
      <trkpt lat="39.1772380" lon="-1.4952170">
        <ele>551.0</ele>
        <time>2019-05-12T08:41:44Z</time>
      </trkpt>
      <trkpt lat="39.1773050" lon="-1.4952560">
        <ele>551.0</ele>
        <time>2019-05-12T08:41:45Z</time>
      </trkpt>
      <trkpt lat="39.1773710" lon="-1.4952920">
        <ele>551.0</ele>
        <time>2019-05-12T08:41:46Z</time>
      </trkpt>
      <trkpt lat="39.1774400" lon="-1.4953210">
        <ele>551.0</ele>
        <time>2019-05-12T08:41:47Z</time>
      </trkpt>
      <trkpt lat="39.1775110" lon="-1.4953420">
        <ele>551.2</ele>
        <time>2019-05-12T08:41:48Z</time>
      </trkpt>
      <trkpt lat="39.1775840" lon="-1.4953640">
        <ele>551.2</ele>
        <time>2019-05-12T08:41:49Z</time>
      </trkpt>
      <trkpt lat="39.1776580" lon="-1.4953940">
        <ele>551.2</ele>
        <time>2019-05-12T08:41:50Z</time>
      </trkpt>
      <trkpt lat="39.1777310" lon="-1.4954330">
        <ele>551.2</ele>
        <time>2019-05-12T08:41:51Z</time>
      </trkpt>
      <trkpt lat="39.1778030" lon="-1.4954870">
        <ele>551.4</ele>
        <time>2019-05-12T08:41:52Z</time>
      </trkpt>
      <trkpt lat="39.1778660" lon="-1.4955480">
        <ele>551.4</ele>
        <time>2019-05-12T08:41:53Z</time>
      </trkpt>
      <trkpt lat="39.1779230" lon="-1.4956110">
        <ele>551.6</ele>
        <time>2019-05-12T08:41:54Z</time>
      </trkpt>
      <trkpt lat="39.1779780" lon="-1.4956720">
        <ele>551.8</ele>
        <time>2019-05-12T08:41:55Z</time>
      </trkpt>
      <trkpt lat="39.1780300" lon="-1.4957350">
        <ele>552.0</ele>
        <time>2019-05-12T08:41:56Z</time>
      </trkpt>
      <trkpt lat="39.1780810" lon="-1.4958020">
        <ele>552.2</ele>
        <time>2019-05-12T08:41:57Z</time>
      </trkpt>
      <trkpt lat="39.1781370" lon="-1.4958690">
        <ele>552.2</ele>
        <time>2019-05-12T08:41:58Z</time>
      </trkpt>
      <trkpt lat="39.1781940" lon="-1.4959270">
        <ele>552.2</ele>
        <time>2019-05-12T08:41:59Z</time>
      </trkpt>
      <trkpt lat="39.1782620" lon="-1.4959830">
        <ele>552.2</ele>
        <time>2019-05-12T08:42:00Z</time>
      </trkpt>
      <trkpt lat="39.1783340" lon="-1.4960360">
        <ele>552.2</ele>
        <time>2019-05-12T08:42:01Z</time>
      </trkpt>
      <trkpt lat="39.1784060" lon="-1.4960900">
        <ele>552.4</ele>
        <time>2019-05-12T08:42:02Z</time>
      </trkpt>
      <trkpt lat="39.1784710" lon="-1.4961530">
        <ele>552.4</ele>
        <time>2019-05-12T08:42:03Z</time>
      </trkpt>
      <trkpt lat="39.1785290" lon="-1.4962280">
        <ele>552.4</ele>
        <time>2019-05-12T08:42:04Z</time>
      </trkpt>
      <trkpt lat="39.1785790" lon="-1.4963090">
        <ele>552.6</ele>
        <time>2019-05-12T08:42:05Z</time>
      </trkpt>
      <trkpt lat="39.1786250" lon="-1.4963910">
        <ele>552.8</ele>
        <time>2019-05-12T08:42:06Z</time>
      </trkpt>
      <trkpt lat="39.1786750" lon="-1.4964640">
        <ele>552.8</ele>
        <time>2019-05-12T08:42:07Z</time>
      </trkpt>
      <trkpt lat="39.1787260" lon="-1.4965300">
        <ele>553.0</ele>
        <time>2019-05-12T08:42:08Z</time>
      </trkpt>
      <trkpt lat="39.1787790" lon="-1.4965900">
        <ele>553.0</ele>
        <time>2019-05-12T08:42:09Z</time>
      </trkpt>
      <trkpt lat="39.1788360" lon="-1.4966480">
        <ele>553.2</ele>
        <time>2019-05-12T08:42:10Z</time>
      </trkpt>
      <trkpt lat="39.1788940" lon="-1.4967070">
        <ele>553.4</ele>
        <time>2019-05-12T08:42:11Z</time>
      </trkpt>
      <trkpt lat="39.1789550" lon="-1.4967670">
        <ele>553.4</ele>
        <time>2019-05-12T08:42:12Z</time>
      </trkpt>
      <trkpt lat="39.1790160" lon="-1.4968300">
        <ele>553.4</ele>
        <time>2019-05-12T08:42:13Z</time>
      </trkpt>
      <trkpt lat="39.1790810" lon="-1.4968900">
        <ele>553.4</ele>
        <time>2019-05-12T08:42:14Z</time>
      </trkpt>
      <trkpt lat="39.1791480" lon="-1.4969450">
        <ele>553.4</ele>
        <time>2019-05-12T08:42:15Z</time>
      </trkpt>
      <trkpt lat="39.1792170" lon="-1.4969990">
        <ele>553.4</ele>
        <time>2019-05-12T08:42:16Z</time>
      </trkpt>
      <trkpt lat="39.1792760" lon="-1.4970630">
        <ele>553.2</ele>
        <time>2019-05-12T08:42:17Z</time>
      </trkpt>
      <trkpt lat="39.1793210" lon="-1.4971460">
        <ele>553.2</ele>
        <time>2019-05-12T08:42:18Z</time>
      </trkpt>
      <trkpt lat="39.1793580" lon="-1.4972360">
        <ele>553.2</ele>
        <time>2019-05-12T08:42:19Z</time>
      </trkpt>
      <trkpt lat="39.1793960" lon="-1.4973290">
        <ele>553.2</ele>
        <time>2019-05-12T08:42:20Z</time>
      </trkpt>
      <trkpt lat="39.1794330" lon="-1.4974220">
        <ele>553.2</ele>
        <time>2019-05-12T08:42:21Z</time>
      </trkpt>
      <trkpt lat="39.1794710" lon="-1.4975140">
        <ele>553.2</ele>
        <time>2019-05-12T08:42:22Z</time>
      </trkpt>
      <trkpt lat="39.1795110" lon="-1.4976070">
        <ele>553.2</ele>
        <time>2019-05-12T08:42:23Z</time>
      </trkpt>
      <trkpt lat="39.1795520" lon="-1.4976990">
        <ele>553.2</ele>
        <time>2019-05-12T08:42:24Z</time>
      </trkpt>
      <trkpt lat="39.1795930" lon="-1.4977870">
        <ele>553.2</ele>
        <time>2019-05-12T08:42:25Z</time>
      </trkpt>
      <trkpt lat="39.1796340" lon="-1.4978680">
        <ele>553.0</ele>
        <time>2019-05-12T08:42:26Z</time>
      </trkpt>
      <trkpt lat="39.1796760" lon="-1.4979480">
        <ele>553.0</ele>
        <time>2019-05-12T08:42:27Z</time>
      </trkpt>
      <trkpt lat="39.1797180" lon="-1.4980280">
        <ele>553.0</ele>
        <time>2019-05-12T08:42:28Z</time>
      </trkpt>
      <trkpt lat="39.1797560" lon="-1.4981110">
        <ele>553.0</ele>
        <time>2019-05-12T08:42:29Z</time>
      </trkpt>
      <trkpt lat="39.1797890" lon="-1.4981960">
        <ele>553.0</ele>
        <time>2019-05-12T08:42:30Z</time>
      </trkpt>
      <trkpt lat="39.1798170" lon="-1.4982850">
        <ele>553.0</ele>
        <time>2019-05-12T08:42:31Z</time>
      </trkpt>
      <trkpt lat="39.1798420" lon="-1.4983770">
        <ele>553.0</ele>
        <time>2019-05-12T08:42:32Z</time>
      </trkpt>
      <trkpt lat="39.1798650" lon="-1.4984720">
        <ele>553.0</ele>
        <time>2019-05-12T08:42:33Z</time>
      </trkpt>
      <trkpt lat="39.1798860" lon="-1.4985660">
        <ele>553.0</ele>
        <time>2019-05-12T08:42:34Z</time>
      </trkpt>
      <trkpt lat="39.1799070" lon="-1.4986600">
        <ele>552.8</ele>
        <time>2019-05-12T08:42:35Z</time>
      </trkpt>
      <trkpt lat="39.1799300" lon="-1.4987560">
        <ele>552.8</ele>
        <time>2019-05-12T08:42:36Z</time>
      </trkpt>
      <trkpt lat="39.1799540" lon="-1.4988520">
        <ele>552.8</ele>
        <time>2019-05-12T08:42:37Z</time>
      </trkpt>
      <trkpt lat="39.1799820" lon="-1.4989470">
        <ele>552.8</ele>
        <time>2019-05-12T08:42:38Z</time>
      </trkpt>
      <trkpt lat="39.1800100" lon="-1.4990420">
        <ele>552.8</ele>
        <time>2019-05-12T08:42:39Z</time>
      </trkpt>
      <trkpt lat="39.1800360" lon="-1.4991390">
        <ele>552.8</ele>
        <time>2019-05-12T08:42:40Z</time>
      </trkpt>
      <trkpt lat="39.1800540" lon="-1.4992360">
        <ele>552.8</ele>
        <time>2019-05-12T08:42:41Z</time>
      </trkpt>
      <trkpt lat="39.1800640" lon="-1.4993320">
        <ele>552.8</ele>
        <time>2019-05-12T08:42:42Z</time>
      </trkpt>
      <trkpt lat="39.1800720" lon="-1.4994290">
        <ele>552.8</ele>
        <time>2019-05-12T08:42:43Z</time>
      </trkpt>
      <trkpt lat="39.1800750" lon="-1.4995220">
        <ele>552.8</ele>
        <time>2019-05-12T08:42:44Z</time>
      </trkpt>
      <trkpt lat="39.1800770" lon="-1.4996150">
        <ele>552.8</ele>
        <time>2019-05-12T08:42:45Z</time>
      </trkpt>
      <trkpt lat="39.1800780" lon="-1.4997070">
        <ele>552.6</ele>
        <time>2019-05-12T08:42:46Z</time>
      </trkpt>
      <trkpt lat="39.1800800" lon="-1.4997950">
        <ele>552.6</ele>
        <time>2019-05-12T08:42:47Z</time>
      </trkpt>
      <trkpt lat="39.1800790" lon="-1.4998820">
        <ele>552.6</ele>
        <time>2019-05-12T08:42:48Z</time>
      </trkpt>
      <trkpt lat="39.1800760" lon="-1.4999680">
        <ele>552.6</ele>
        <time>2019-05-12T08:42:49Z</time>
      </trkpt>
      <trkpt lat="39.1800680" lon="-1.5000550">
        <ele>552.6</ele>
        <time>2019-05-12T08:42:50Z</time>
      </trkpt>
      <trkpt lat="39.1800550" lon="-1.5001440">
        <ele>552.6</ele>
        <time>2019-05-12T08:42:51Z</time>
      </trkpt>
      <trkpt lat="39.1800400" lon="-1.5002340">
        <ele>552.6</ele>
        <time>2019-05-12T08:42:52Z</time>
      </trkpt>
      <trkpt lat="39.1800250" lon="-1.5003250">
        <ele>552.6</ele>
        <time>2019-05-12T08:42:53Z</time>
      </trkpt>
      <trkpt lat="39.1800130" lon="-1.5004160">
        <ele>552.4</ele>
        <time>2019-05-12T08:42:54Z</time>
      </trkpt>
      <trkpt lat="39.1800020" lon="-1.5005060">
        <ele>552.6</ele>
        <time>2019-05-12T08:42:55Z</time>
      </trkpt>
      <trkpt lat="39.1799890" lon="-1.5005940">
        <ele>552.6</ele>
        <time>2019-05-12T08:42:56Z</time>
      </trkpt>
      <trkpt lat="39.1799720" lon="-1.5006800">
        <ele>552.6</ele>
        <time>2019-05-12T08:42:57Z</time>
      </trkpt>
      <trkpt lat="39.1799470" lon="-1.5007640">
        <ele>552.6</ele>
        <time>2019-05-12T08:42:58Z</time>
      </trkpt>
      <trkpt lat="39.1799170" lon="-1.5008450">
        <ele>552.6</ele>
        <time>2019-05-12T08:42:59Z</time>
      </trkpt>
      <trkpt lat="39.1798870" lon="-1.5009250">
        <ele>552.8</ele>
        <time>2019-05-12T08:43:00Z</time>
      </trkpt>
      <trkpt lat="39.1798600" lon="-1.5010050">
        <ele>552.8</ele>
        <time>2019-05-12T08:43:01Z</time>
      </trkpt>
      <trkpt lat="39.1798380" lon="-1.5010890">
        <ele>552.8</ele>
        <time>2019-05-12T08:43:02Z</time>
      </trkpt>
      <trkpt lat="39.1798170" lon="-1.5011770">
        <ele>552.8</ele>
        <time>2019-05-12T08:43:03Z</time>
      </trkpt>
      <trkpt lat="39.1797950" lon="-1.5012690">
        <ele>552.8</ele>
        <time>2019-05-12T08:43:04Z</time>
      </trkpt>
      <trkpt lat="39.1797650" lon="-1.5013620">
        <ele>552.8</ele>
        <time>2019-05-12T08:43:05Z</time>
      </trkpt>
      <trkpt lat="39.1797240" lon="-1.5014510">
        <ele>552.8</ele>
        <time>2019-05-12T08:43:06Z</time>
      </trkpt>
      <trkpt lat="39.1796750" lon="-1.5015370">
        <ele>552.8</ele>
        <time>2019-05-12T08:43:07Z</time>
      </trkpt>
      <trkpt lat="39.1796240" lon="-1.5016220">
        <ele>552.8</ele>
        <time>2019-05-12T08:43:08Z</time>
      </trkpt>
      <trkpt lat="39.1795720" lon="-1.5017080">
        <ele>552.8</ele>
        <time>2019-05-12T08:43:09Z</time>
      </trkpt>
      <trkpt lat="39.1795220" lon="-1.5017980">
        <ele>553.0</ele>
        <time>2019-05-12T08:43:10Z</time>
      </trkpt>
      <trkpt lat="39.1794730" lon="-1.5018890">
        <ele>553.2</ele>
        <time>2019-05-12T08:43:11Z</time>
      </trkpt>
      <trkpt lat="39.1794260" lon="-1.5019810">
        <ele>553.2</ele>
        <time>2019-05-12T08:43:12Z</time>
      </trkpt>
      <trkpt lat="39.1793760" lon="-1.5020700">
        <ele>553.2</ele>
        <time>2019-05-12T08:43:13Z</time>
      </trkpt>
      <trkpt lat="39.1793280" lon="-1.5021580">
        <ele>553.2</ele>
        <time>2019-05-12T08:43:14Z</time>
      </trkpt>
      <trkpt lat="39.1792830" lon="-1.5022460">
        <ele>553.2</ele>
        <time>2019-05-12T08:43:15Z</time>
      </trkpt>
      <trkpt lat="39.1792380" lon="-1.5023330">
        <ele>553.2</ele>
        <time>2019-05-12T08:43:16Z</time>
      </trkpt>
      <trkpt lat="39.1791920" lon="-1.5024160">
        <ele>553.2</ele>
        <time>2019-05-12T08:43:17Z</time>
      </trkpt>
      <trkpt lat="39.1791440" lon="-1.5024970">
        <ele>553.2</ele>
        <time>2019-05-12T08:43:18Z</time>
      </trkpt>
      <trkpt lat="39.1790950" lon="-1.5025750">
        <ele>553.2</ele>
        <time>2019-05-12T08:43:19Z</time>
      </trkpt>
      <trkpt lat="39.1790390" lon="-1.5026450">
        <ele>553.2</ele>
        <time>2019-05-12T08:43:20Z</time>
      </trkpt>
      <trkpt lat="39.1789790" lon="-1.5027090">
        <ele>553.0</ele>
        <time>2019-05-12T08:43:21Z</time>
      </trkpt>
      <trkpt lat="39.1789180" lon="-1.5027720">
        <ele>553.0</ele>
        <time>2019-05-12T08:43:22Z</time>
      </trkpt>
      <trkpt lat="39.1788550" lon="-1.5028330">
        <ele>553.0</ele>
        <time>2019-05-12T08:43:23Z</time>
      </trkpt>
      <trkpt lat="39.1787910" lon="-1.5028930">
        <ele>553.0</ele>
        <time>2019-05-12T08:43:24Z</time>
      </trkpt>
      <trkpt lat="39.1787260" lon="-1.5029500">
        <ele>553.0</ele>
        <time>2019-05-12T08:43:25Z</time>
      </trkpt>
      <trkpt lat="39.1786590" lon="-1.5030050">
        <ele>553.0</ele>
        <time>2019-05-12T08:43:26Z</time>
      </trkpt>
      <trkpt lat="39.1785940" lon="-1.5030600">
        <ele>552.8</ele>
        <time>2019-05-12T08:43:27Z</time>
      </trkpt>
      <trkpt lat="39.1785300" lon="-1.5031170">
        <ele>552.8</ele>
        <time>2019-05-12T08:43:28Z</time>
      </trkpt>
      <trkpt lat="39.1784680" lon="-1.5031760">
        <ele>552.8</ele>
        <time>2019-05-12T08:43:29Z</time>
      </trkpt>
      <trkpt lat="39.1784080" lon="-1.5032340">
        <ele>552.8</ele>
        <time>2019-05-12T08:43:30Z</time>
      </trkpt>
      <trkpt lat="39.1783480" lon="-1.5032900">
        <ele>552.8</ele>
        <time>2019-05-12T08:43:31Z</time>
      </trkpt>
      <trkpt lat="39.1782890" lon="-1.5033420">
        <ele>552.6</ele>
        <time>2019-05-12T08:43:32Z</time>
      </trkpt>
      <trkpt lat="39.1782280" lon="-1.5033890">
        <ele>552.6</ele>
        <time>2019-05-12T08:43:33Z</time>
      </trkpt>
      <trkpt lat="39.1781650" lon="-1.5034360">
        <ele>552.6</ele>
        <time>2019-05-12T08:43:34Z</time>
      </trkpt>
      <trkpt lat="39.1781000" lon="-1.5034860">
        <ele>552.4</ele>
        <time>2019-05-12T08:43:35Z</time>
      </trkpt>
      <trkpt lat="39.1780340" lon="-1.5035400">
        <ele>552.4</ele>
        <time>2019-05-12T08:43:36Z</time>
      </trkpt>
      <trkpt lat="39.1779660" lon="-1.5035960">
        <ele>552.4</ele>
        <time>2019-05-12T08:43:37Z</time>
      </trkpt>
      <trkpt lat="39.1778970" lon="-1.5036500">
        <ele>552.4</ele>
        <time>2019-05-12T08:43:38Z</time>
      </trkpt>
      <trkpt lat="39.1778260" lon="-1.5037010">
        <ele>552.4</ele>
        <time>2019-05-12T08:43:39Z</time>
      </trkpt>
      <trkpt lat="39.1777580" lon="-1.5037490">
        <ele>552.2</ele>
        <time>2019-05-12T08:43:40Z</time>
      </trkpt>
      <trkpt lat="39.1776890" lon="-1.5037930">
        <ele>552.2</ele>
        <time>2019-05-12T08:43:41Z</time>
      </trkpt>
      <trkpt lat="39.1776200" lon="-1.5038320">
        <ele>552.2</ele>
        <time>2019-05-12T08:43:42Z</time>
      </trkpt>
      <trkpt lat="39.1775510" lon="-1.5038710">
        <ele>552.2</ele>
        <time>2019-05-12T08:43:43Z</time>
      </trkpt>
      <trkpt lat="39.1774830" lon="-1.5039090">
        <ele>552.2</ele>
        <time>2019-05-12T08:43:44Z</time>
      </trkpt>
      <trkpt lat="39.1774170" lon="-1.5039510">
        <ele>552.4</ele>
        <time>2019-05-12T08:43:45Z</time>
      </trkpt>
      <trkpt lat="39.1773550" lon="-1.5039970">
        <ele>552.4</ele>
        <time>2019-05-12T08:43:46Z</time>
      </trkpt>
      <trkpt lat="39.1772950" lon="-1.5040430">
        <ele>552.6</ele>
        <time>2019-05-12T08:43:47Z</time>
      </trkpt>
      <trkpt lat="39.1772350" lon="-1.5040870">
        <ele>552.6</ele>
        <time>2019-05-12T08:43:48Z</time>
      </trkpt>
      <trkpt lat="39.1771730" lon="-1.5041260">
        <ele>552.8</ele>
        <time>2019-05-12T08:43:49Z</time>
      </trkpt>
      <trkpt lat="39.1771090" lon="-1.5041630">
        <ele>553.0</ele>
        <time>2019-05-12T08:43:50Z</time>
      </trkpt>
      <trkpt lat="39.1770430" lon="-1.5041970">
        <ele>553.2</ele>
        <time>2019-05-12T08:43:51Z</time>
      </trkpt>
      <trkpt lat="39.1769740" lon="-1.5042290">
        <ele>553.2</ele>
        <time>2019-05-12T08:43:52Z</time>
      </trkpt>
      <trkpt lat="39.1769010" lon="-1.5042560">
        <ele>553.4</ele>
        <time>2019-05-12T08:43:53Z</time>
      </trkpt>
      <trkpt lat="39.1768260" lon="-1.5042820">
        <ele>553.4</ele>
        <time>2019-05-12T08:43:54Z</time>
      </trkpt>
      <trkpt lat="39.1767490" lon="-1.5043090">
        <ele>553.4</ele>
        <time>2019-05-12T08:43:55Z</time>
      </trkpt>
      <trkpt lat="39.1766710" lon="-1.5043380">
        <ele>553.6</ele>
        <time>2019-05-12T08:43:56Z</time>
      </trkpt>
      <trkpt lat="39.1765920" lon="-1.5043700">
        <ele>553.8</ele>
        <time>2019-05-12T08:43:57Z</time>
      </trkpt>
      <trkpt lat="39.1765120" lon="-1.5044020">
        <ele>553.8</ele>
        <time>2019-05-12T08:43:58Z</time>
      </trkpt>
      <trkpt lat="39.1764310" lon="-1.5044360">
        <ele>553.8</ele>
        <time>2019-05-12T08:43:59Z</time>
      </trkpt>
      <trkpt lat="39.1763510" lon="-1.5044690">
        <ele>553.8</ele>
        <time>2019-05-12T08:44:00Z</time>
      </trkpt>
      <trkpt lat="39.1762700" lon="-1.5045020">
        <ele>553.8</ele>
        <time>2019-05-12T08:44:01Z</time>
      </trkpt>
      <trkpt lat="39.1761890" lon="-1.5045360">
        <ele>553.8</ele>
        <time>2019-05-12T08:44:02Z</time>
      </trkpt>
      <trkpt lat="39.1761100" lon="-1.5045690">
        <ele>553.8</ele>
        <time>2019-05-12T08:44:03Z</time>
      </trkpt>
      <trkpt lat="39.1760320" lon="-1.5046060">
        <ele>553.8</ele>
        <time>2019-05-12T08:44:04Z</time>
      </trkpt>
      <trkpt lat="39.1759560" lon="-1.5046460">
        <ele>553.8</ele>
        <time>2019-05-12T08:44:05Z</time>
      </trkpt>
      <trkpt lat="39.1758800" lon="-1.5046890">
        <ele>553.8</ele>
        <time>2019-05-12T08:44:06Z</time>
      </trkpt>
      <trkpt lat="39.1758030" lon="-1.5047340">
        <ele>553.6</ele>
        <time>2019-05-12T08:44:07Z</time>
      </trkpt>
      <trkpt lat="39.1757260" lon="-1.5047820">
        <ele>553.4</ele>
        <time>2019-05-12T08:44:08Z</time>
      </trkpt>
      <trkpt lat="39.1756510" lon="-1.5048350">
        <ele>553.4</ele>
        <time>2019-05-12T08:44:09Z</time>
      </trkpt>
      <trkpt lat="39.1755780" lon="-1.5048900">
        <ele>553.4</ele>
        <time>2019-05-12T08:44:10Z</time>
      </trkpt>
      <trkpt lat="39.1755070" lon="-1.5049440">
        <ele>553.4</ele>
        <time>2019-05-12T08:44:11Z</time>
      </trkpt>
      <trkpt lat="39.1754350" lon="-1.5049950">
        <ele>553.2</ele>
        <time>2019-05-12T08:44:12Z</time>
      </trkpt>
      <trkpt lat="39.1753650" lon="-1.5050460">
        <ele>553.2</ele>
        <time>2019-05-12T08:44:13Z</time>
      </trkpt>
      <trkpt lat="39.1752950" lon="-1.5050970">
        <ele>553.2</ele>
        <time>2019-05-12T08:44:14Z</time>
      </trkpt>
      <trkpt lat="39.1752250" lon="-1.5051490">
        <ele>553.2</ele>
        <time>2019-05-12T08:44:15Z</time>
      </trkpt>
      <trkpt lat="39.1751560" lon="-1.5052050">
        <ele>553.2</ele>
        <time>2019-05-12T08:44:16Z</time>
      </trkpt>
      <trkpt lat="39.1750880" lon="-1.5052640">
        <ele>553.4</ele>
        <time>2019-05-12T08:44:17Z</time>
      </trkpt>
      <trkpt lat="39.1750210" lon="-1.5053260">
        <ele>553.2</ele>
        <time>2019-05-12T08:44:18Z</time>
      </trkpt>
      <trkpt lat="39.1749560" lon="-1.5053900">
        <ele>553.2</ele>
        <time>2019-05-12T08:44:19Z</time>
      </trkpt>
      <trkpt lat="39.1748920" lon="-1.5054580">
        <ele>553.2</ele>
        <time>2019-05-12T08:44:20Z</time>
      </trkpt>
      <trkpt lat="39.1748280" lon="-1.5055300">
        <ele>553.2</ele>
        <time>2019-05-12T08:44:21Z</time>
      </trkpt>
      <trkpt lat="39.1747700" lon="-1.5056070">
        <ele>553.4</ele>
        <time>2019-05-12T08:44:22Z</time>
      </trkpt>
      <trkpt lat="39.1747200" lon="-1.5056870">
        <ele>553.4</ele>
        <time>2019-05-12T08:44:23Z</time>
      </trkpt>
      <trkpt lat="39.1746770" lon="-1.5057700">
        <ele>553.2</ele>
        <time>2019-05-12T08:44:24Z</time>
      </trkpt>
      <trkpt lat="39.1746390" lon="-1.5058560">
        <ele>553.2</ele>
        <time>2019-05-12T08:44:25Z</time>
      </trkpt>
      <trkpt lat="39.1746010" lon="-1.5059400">
        <ele>553.2</ele>
        <time>2019-05-12T08:44:26Z</time>
      </trkpt>
      <trkpt lat="39.1745600" lon="-1.5060240">
        <ele>553.2</ele>
        <time>2019-05-12T08:44:27Z</time>
      </trkpt>
      <trkpt lat="39.1745170" lon="-1.5061070">
        <ele>553.2</ele>
        <time>2019-05-12T08:44:28Z</time>
      </trkpt>
      <trkpt lat="39.1744720" lon="-1.5061910">
        <ele>553.2</ele>
        <time>2019-05-12T08:44:29Z</time>
      </trkpt>
      <trkpt lat="39.1744290" lon="-1.5062720">
        <ele>553.2</ele>
        <time>2019-05-12T08:44:30Z</time>
      </trkpt>
      <trkpt lat="39.1743860" lon="-1.5063510">
        <ele>553.2</ele>
        <time>2019-05-12T08:44:31Z</time>
      </trkpt>
      <trkpt lat="39.1743440" lon="-1.5064290">
        <ele>553.2</ele>
        <time>2019-05-12T08:44:32Z</time>
      </trkpt>
      <trkpt lat="39.1743030" lon="-1.5065100">
        <ele>553.2</ele>
        <time>2019-05-12T08:44:33Z</time>
      </trkpt>
      <trkpt lat="39.1742630" lon="-1.5065920">
        <ele>553.2</ele>
        <time>2019-05-12T08:44:34Z</time>
      </trkpt>
      <trkpt lat="39.1742270" lon="-1.5066760">
        <ele>553.2</ele>
        <time>2019-05-12T08:44:35Z</time>
      </trkpt>
      <trkpt lat="39.1741950" lon="-1.5067610">
        <ele>553.2</ele>
        <time>2019-05-12T08:44:36Z</time>
      </trkpt>
      <trkpt lat="39.1741670" lon="-1.5068460">
        <ele>553.2</ele>
        <time>2019-05-12T08:44:37Z</time>
      </trkpt>
      <trkpt lat="39.1741400" lon="-1.5069300">
        <ele>553.2</ele>
        <time>2019-05-12T08:44:38Z</time>
      </trkpt>
      <trkpt lat="39.1741160" lon="-1.5070120">
        <ele>553.4</ele>
        <time>2019-05-12T08:44:39Z</time>
      </trkpt>
      <trkpt lat="39.1740960" lon="-1.5070860">
        <ele>553.4</ele>
        <time>2019-05-12T08:44:40Z</time>
      </trkpt>
      <trkpt lat="39.1740830" lon="-1.5071520">
        <ele>553.4</ele>
        <time>2019-05-12T08:44:41Z</time>
      </trkpt>
      <trkpt lat="39.1740740" lon="-1.5072200">
        <ele>553.4</ele>
        <time>2019-05-12T08:44:42Z</time>
      </trkpt>
      <trkpt lat="39.1740680" lon="-1.5072950">
        <ele>553.6</ele>
        <time>2019-05-12T08:44:43Z</time>
      </trkpt>
      <trkpt lat="39.1740610" lon="-1.5073730">
        <ele>553.6</ele>
        <time>2019-05-12T08:44:44Z</time>
      </trkpt>
      <trkpt lat="39.1740530" lon="-1.5074500">
        <ele>553.8</ele>
        <time>2019-05-12T08:44:45Z</time>
      </trkpt>
      <trkpt lat="39.1740420" lon="-1.5075230">
        <ele>553.8</ele>
        <time>2019-05-12T08:44:46Z</time>
      </trkpt>
      <trkpt lat="39.1740350" lon="-1.5075950">
        <ele>553.8</ele>
        <time>2019-05-12T08:44:47Z</time>
      </trkpt>
      <trkpt lat="39.1740240" lon="-1.5076630">
        <ele>553.8</ele>
        <time>2019-05-12T08:44:48Z</time>
      </trkpt>
      <trkpt lat="39.1740070" lon="-1.5077310">
        <ele>553.8</ele>
        <time>2019-05-12T08:44:49Z</time>
      </trkpt>
      <trkpt lat="39.1739980" lon="-1.5078110">
        <ele>553.8</ele>
        <time>2019-05-12T08:44:50Z</time>
      </trkpt>
      <trkpt lat="39.1739920" lon="-1.5078890">
        <ele>553.8</ele>
        <time>2019-05-12T08:44:51Z</time>
      </trkpt>
      <trkpt lat="39.1739840" lon="-1.5079710">
        <ele>553.8</ele>
        <time>2019-05-12T08:44:52Z</time>
      </trkpt>
      <trkpt lat="39.1739760" lon="-1.5080550">
        <ele>553.8</ele>
        <time>2019-05-12T08:44:53Z</time>
      </trkpt>
      <trkpt lat="39.1739650" lon="-1.5081380">
        <ele>553.8</ele>
        <time>2019-05-12T08:44:54Z</time>
      </trkpt>
      <trkpt lat="39.1739490" lon="-1.5082240">
        <ele>553.6</ele>
        <time>2019-05-12T08:44:55Z</time>
      </trkpt>
      <trkpt lat="39.1739350" lon="-1.5083120">
        <ele>553.6</ele>
        <time>2019-05-12T08:44:56Z</time>
      </trkpt>
      <trkpt lat="39.1739320" lon="-1.5083970">
        <ele>553.6</ele>
        <time>2019-05-12T08:44:57Z</time>
      </trkpt>
      <trkpt lat="39.1739200" lon="-1.5084800">
        <ele>553.6</ele>
        <time>2019-05-12T08:44:58Z</time>
      </trkpt>
      <trkpt lat="39.1738970" lon="-1.5085500">
        <ele>553.6</ele>
        <time>2019-05-12T08:44:59Z</time>
      </trkpt>
      <trkpt lat="39.1738520" lon="-1.5086330">
        <ele>553.6</ele>
        <time>2019-05-12T08:45:00Z</time>
      </trkpt>
      <trkpt lat="39.1738280" lon="-1.5087070">
        <ele>553.6</ele>
        <time>2019-05-12T08:45:01Z</time>
      </trkpt>
      <trkpt lat="39.1738150" lon="-1.5087810">
        <ele>553.6</ele>
        <time>2019-05-12T08:45:02Z</time>
      </trkpt>
      <trkpt lat="39.1737980" lon="-1.5088610">
        <ele>553.6</ele>
        <time>2019-05-12T08:45:03Z</time>
      </trkpt>
      <trkpt lat="39.1737810" lon="-1.5089400">
        <ele>553.6</ele>
        <time>2019-05-12T08:45:04Z</time>
      </trkpt>
      <trkpt lat="39.1737740" lon="-1.5090210">
        <ele>553.6</ele>
        <time>2019-05-12T08:45:05Z</time>
      </trkpt>
      <trkpt lat="39.1737740" lon="-1.5091020">
        <ele>553.6</ele>
        <time>2019-05-12T08:45:06Z</time>
      </trkpt>
      <trkpt lat="39.1737680" lon="-1.5091850">
        <ele>553.6</ele>
        <time>2019-05-12T08:45:07Z</time>
      </trkpt>
      <trkpt lat="39.1737590" lon="-1.5092670">
        <ele>553.6</ele>
        <time>2019-05-12T08:45:08Z</time>
      </trkpt>
      <trkpt lat="39.1737470" lon="-1.5093450">
        <ele>553.6</ele>
        <time>2019-05-12T08:45:09Z</time>
      </trkpt>
      <trkpt lat="39.1737340" lon="-1.5094180">
        <ele>553.8</ele>
        <time>2019-05-12T08:45:10Z</time>
      </trkpt>
      <trkpt lat="39.1737110" lon="-1.5094850">
        <ele>553.8</ele>
        <time>2019-05-12T08:45:11Z</time>
      </trkpt>
      <trkpt lat="39.1736870" lon="-1.5095530">
        <ele>553.8</ele>
        <time>2019-05-12T08:45:12Z</time>
      </trkpt>
      <trkpt lat="39.1736710" lon="-1.5096150">
        <ele>554.0</ele>
        <time>2019-05-12T08:45:13Z</time>
      </trkpt>
      <trkpt lat="39.1736600" lon="-1.5096650">
        <ele>554.0</ele>
        <time>2019-05-12T08:45:14Z</time>
      </trkpt>
      <trkpt lat="39.1736470" lon="-1.5097030">
        <ele>554.2</ele>
        <time>2019-05-12T08:45:15Z</time>
      </trkpt>
      <trkpt lat="39.1736250" lon="-1.5097360">
        <ele>554.2</ele>
        <time>2019-05-12T08:45:16Z</time>
      </trkpt>
      <trkpt lat="39.1736130" lon="-1.5097520">
        <ele>554.4</ele>
        <time>2019-05-12T08:45:17Z</time>
      </trkpt>
      <trkpt lat="39.1736050" lon="-1.5097630">
        <ele>554.4</ele>
        <time>2019-05-12T08:45:18Z</time>
      </trkpt>
      <trkpt lat="39.1736060" lon="-1.5097660">
        <ele>554.4</ele>
        <time>2019-05-12T08:45:19Z</time>
      </trkpt>
      <trkpt lat="39.1736090" lon="-1.5097700">
        <ele>554.4</ele>
        <time>2019-05-12T08:45:20Z</time>
      </trkpt>
      <trkpt lat="39.1736110" lon="-1.5097770">
        <ele>554.4</ele>
        <time>2019-05-12T08:45:21Z</time>
      </trkpt>
      <trkpt lat="39.1736020" lon="-1.5097860">
        <ele>554.6</ele>
        <time>2019-05-12T08:45:22Z</time>
      </trkpt>
      <trkpt lat="39.1735980" lon="-1.5097960">
        <ele>555.0</ele>
        <time>2019-05-12T08:45:23Z</time>
      </trkpt>
      <trkpt lat="39.1735980" lon="-1.5097960">
        <ele>555.4</ele>
        <time>2019-05-12T08:45:24Z</time>
      </trkpt>
      <trkpt lat="39.1735930" lon="-1.5098050">
        <ele>555.8</ele>
        <time>2019-05-12T08:45:25Z</time>
      </trkpt>
      <trkpt lat="39.1735650" lon="-1.5098240">
        <ele>556.2</ele>
        <time>2019-05-12T08:45:26Z</time>
      </trkpt>
      <trkpt lat="39.1735510" lon="-1.5098380">
        <ele>556.2</ele>
        <time>2019-05-12T08:45:27Z</time>
      </trkpt>
      <trkpt lat="39.1735510" lon="-1.5098450">
        <ele>556.4</ele>
        <time>2019-05-12T08:45:28Z</time>
      </trkpt>
      <trkpt lat="39.1735380" lon="-1.5098530">
        <ele>556.4</ele>
        <time>2019-05-12T08:45:29Z</time>
      </trkpt>
      <trkpt lat="39.1735320" lon="-1.5098680">
        <ele>556.4</ele>
        <time>2019-05-12T08:45:30Z</time>
      </trkpt>
      <trkpt lat="39.1735270" lon="-1.5098790">
        <ele>556.6</ele>
        <time>2019-05-12T08:45:31Z</time>
      </trkpt>
      <trkpt lat="39.1735200" lon="-1.5098910">
        <ele>557.0</ele>
        <time>2019-05-12T08:45:32Z</time>
      </trkpt>
      <trkpt lat="39.1735040" lon="-1.5099010">
        <ele>557.2</ele>
        <time>2019-05-12T08:45:33Z</time>
      </trkpt>
      <trkpt lat="39.1734890" lon="-1.5099100">
        <ele>557.4</ele>
        <time>2019-05-12T08:45:34Z</time>
      </trkpt>
      <trkpt lat="39.1734810" lon="-1.5099140">
        <ele>557.6</ele>
        <time>2019-05-12T08:45:35Z</time>
      </trkpt>
      <trkpt lat="39.1734750" lon="-1.5099200">
        <ele>557.8</ele>
        <time>2019-05-12T08:45:36Z</time>
      </trkpt>
      <trkpt lat="39.1734620" lon="-1.5099340">
        <ele>558.0</ele>
        <time>2019-05-12T08:45:37Z</time>
      </trkpt>
      <trkpt lat="39.1734460" lon="-1.5099520">
        <ele>558.2</ele>
        <time>2019-05-12T08:45:38Z</time>
      </trkpt>
      <trkpt lat="39.1734270" lon="-1.5099780">
        <ele>558.4</ele>
        <time>2019-05-12T08:45:39Z</time>
      </trkpt>
      <trkpt lat="39.1734100" lon="-1.5100040">
        <ele>558.6</ele>
        <time>2019-05-12T08:45:40Z</time>
      </trkpt>
      <trkpt lat="39.1733910" lon="-1.5100390">
        <ele>558.6</ele>
        <time>2019-05-12T08:45:41Z</time>
      </trkpt>
      <trkpt lat="39.1733690" lon="-1.5100740">
        <ele>558.6</ele>
        <time>2019-05-12T08:45:42Z</time>
      </trkpt>
      <trkpt lat="39.1733410" lon="-1.5101050">
        <ele>558.8</ele>
        <time>2019-05-12T08:45:43Z</time>
      </trkpt>
      <trkpt lat="39.1733170" lon="-1.5101370">
        <ele>558.8</ele>
        <time>2019-05-12T08:45:44Z</time>
      </trkpt>
      <trkpt lat="39.1732960" lon="-1.5101650">
        <ele>558.8</ele>
        <time>2019-05-12T08:45:45Z</time>
      </trkpt>
      <trkpt lat="39.1732750" lon="-1.5101960">
        <ele>558.8</ele>
        <time>2019-05-12T08:45:46Z</time>
      </trkpt>
      <trkpt lat="39.1732550" lon="-1.5102270">
        <ele>559.2</ele>
        <time>2019-05-12T08:45:47Z</time>
      </trkpt>
      <trkpt lat="39.1732350" lon="-1.5102570">
        <ele>559.2</ele>
        <time>2019-05-12T08:45:48Z</time>
      </trkpt>
      <trkpt lat="39.1732140" lon="-1.5102870">
        <ele>559.2</ele>
        <time>2019-05-12T08:45:49Z</time>
      </trkpt>
      <trkpt lat="39.1731880" lon="-1.5103200">
        <ele>559.4</ele>
        <time>2019-05-12T08:45:50Z</time>
      </trkpt>
      <trkpt lat="39.1731530" lon="-1.5103600">
        <ele>559.4</ele>
        <time>2019-05-12T08:45:51Z</time>
      </trkpt>
      <trkpt lat="39.1731180" lon="-1.5104010">
        <ele>559.4</ele>
        <time>2019-05-12T08:45:52Z</time>
      </trkpt>
      <trkpt lat="39.1730910" lon="-1.5104410">
        <ele>559.6</ele>
        <time>2019-05-12T08:45:53Z</time>
      </trkpt>
      <trkpt lat="39.1730700" lon="-1.5104830">
        <ele>559.6</ele>
        <time>2019-05-12T08:45:54Z</time>
      </trkpt>
      <trkpt lat="39.1730540" lon="-1.5105270">
        <ele>559.6</ele>
        <time>2019-05-12T08:45:55Z</time>
      </trkpt>
      <trkpt lat="39.1730410" lon="-1.5105710">
        <ele>559.8</ele>
        <time>2019-05-12T08:45:56Z</time>
      </trkpt>
      <trkpt lat="39.1730300" lon="-1.5106180">
        <ele>559.8</ele>
        <time>2019-05-12T08:45:57Z</time>
      </trkpt>
      <trkpt lat="39.1730160" lon="-1.5106650">
        <ele>559.8</ele>
        <time>2019-05-12T08:45:58Z</time>
      </trkpt>
      <trkpt lat="39.1729980" lon="-1.5107100">
        <ele>559.8</ele>
        <time>2019-05-12T08:45:59Z</time>
      </trkpt>
      <trkpt lat="39.1729760" lon="-1.5107350">
        <ele>559.8</ele>
        <time>2019-05-12T08:46:00Z</time>
      </trkpt>
      <trkpt lat="39.1729520" lon="-1.5107550">
        <ele>559.8</ele>
        <time>2019-05-12T08:46:01Z</time>
      </trkpt>
      <trkpt lat="39.1729360" lon="-1.5107790">
        <ele>560.0</ele>
        <time>2019-05-12T08:46:02Z</time>
      </trkpt>
      <trkpt lat="39.1729300" lon="-1.5108080">
        <ele>560.0</ele>
        <time>2019-05-12T08:46:03Z</time>
      </trkpt>
      <trkpt lat="39.1729250" lon="-1.5108440">
        <ele>560.2</ele>
        <time>2019-05-12T08:46:04Z</time>
      </trkpt>
      <trkpt lat="39.1729180" lon="-1.5108810">
        <ele>560.2</ele>
        <time>2019-05-12T08:46:05Z</time>
      </trkpt>
      <trkpt lat="39.1729140" lon="-1.5109070">
        <ele>560.0</ele>
        <time>2019-05-12T08:46:06Z</time>
      </trkpt>
      <trkpt lat="39.1729100" lon="-1.5109240">
        <ele>559.8</ele>
        <time>2019-05-12T08:46:07Z</time>
      </trkpt>
      <trkpt lat="39.1729070" lon="-1.5109390">
        <ele>559.8</ele>
        <time>2019-05-12T08:46:08Z</time>
      </trkpt>
      <trkpt lat="39.1729020" lon="-1.5109530">
        <ele>559.8</ele>
        <time>2019-05-12T08:46:09Z</time>
      </trkpt>
      <trkpt lat="39.1728960" lon="-1.5109640">
        <ele>559.8</ele>
        <time>2019-05-12T08:46:10Z</time>
      </trkpt>
      <trkpt lat="39.1728910" lon="-1.5109730">
        <ele>559.8</ele>
        <time>2019-05-12T08:46:11Z</time>
      </trkpt>
      <trkpt lat="39.1728890" lon="-1.5109800">
        <ele>559.6</ele>
        <time>2019-05-12T08:46:12Z</time>
      </trkpt>
      <trkpt lat="39.1728890" lon="-1.5109780">
        <ele>559.6</ele>
        <time>2019-05-12T08:46:13Z</time>
      </trkpt>
      <trkpt lat="39.1728870" lon="-1.5109790">
        <ele>559.4</ele>
        <time>2019-05-12T08:46:14Z</time>
      </trkpt>
      <trkpt lat="39.1728830" lon="-1.5109900">
        <ele>559.0</ele>
        <time>2019-05-12T08:46:15Z</time>
      </trkpt>
      <trkpt lat="39.1728750" lon="-1.5110040">
        <ele>559.0</ele>
        <time>2019-05-12T08:46:16Z</time>
      </trkpt>
      <trkpt lat="39.1728690" lon="-1.5110140">
        <ele>558.8</ele>
        <time>2019-05-12T08:46:17Z</time>
      </trkpt>
      <trkpt lat="39.1728640" lon="-1.5110240">
        <ele>558.6</ele>
        <time>2019-05-12T08:46:18Z</time>
      </trkpt>
      <trkpt lat="39.1728610" lon="-1.5110360">
        <ele>558.4</ele>
        <time>2019-05-12T08:46:19Z</time>
      </trkpt>
      <trkpt lat="39.1728570" lon="-1.5110500">
        <ele>558.2</ele>
        <time>2019-05-12T08:46:20Z</time>
      </trkpt>
      <trkpt lat="39.1728470" lon="-1.5110580">
        <ele>558.0</ele>
        <time>2019-05-12T08:46:21Z</time>
      </trkpt>
      <trkpt lat="39.1728390" lon="-1.5110590">
        <ele>557.8</ele>
        <time>2019-05-12T08:46:22Z</time>
      </trkpt>
      <trkpt lat="39.1728360" lon="-1.5110580">
        <ele>557.8</ele>
        <time>2019-05-12T08:46:23Z</time>
      </trkpt>
      <trkpt lat="39.1728330" lon="-1.5110570">
        <ele>557.6</ele>
        <time>2019-05-12T08:46:24Z</time>
      </trkpt>
      <trkpt lat="39.1728190" lon="-1.5110530">
        <ele>557.4</ele>
        <time>2019-05-12T08:46:25Z</time>
      </trkpt>
      <trkpt lat="39.1728060" lon="-1.5110570">
        <ele>557.0</ele>
        <time>2019-05-12T08:46:26Z</time>
      </trkpt>
      <trkpt lat="39.1727860" lon="-1.5110620">
        <ele>556.8</ele>
        <time>2019-05-12T08:46:27Z</time>
      </trkpt>
      <trkpt lat="39.1727640" lon="-1.5110780">
        <ele>556.2</ele>
        <time>2019-05-12T08:46:28Z</time>
      </trkpt>
      <trkpt lat="39.1727350" lon="-1.5110970">
        <ele>556.0</ele>
        <time>2019-05-12T08:46:29Z</time>
      </trkpt>
      <trkpt lat="39.1726990" lon="-1.5111210">
        <ele>555.6</ele>
        <time>2019-05-12T08:46:30Z</time>
      </trkpt>
      <trkpt lat="39.1726640" lon="-1.5111590">
        <ele>555.2</ele>
        <time>2019-05-12T08:46:31Z</time>
      </trkpt>
      <trkpt lat="39.1726340" lon="-1.5112040">
        <ele>555.0</ele>
        <time>2019-05-12T08:46:32Z</time>
      </trkpt>
      <trkpt lat="39.1726110" lon="-1.5112520">
        <ele>555.0</ele>
        <time>2019-05-12T08:46:33Z</time>
      </trkpt>
      <trkpt lat="39.1725890" lon="-1.5112990">
        <ele>554.8</ele>
        <time>2019-05-12T08:46:34Z</time>
      </trkpt>
      <trkpt lat="39.1725600" lon="-1.5113450">
        <ele>554.6</ele>
        <time>2019-05-12T08:46:35Z</time>
      </trkpt>
      <trkpt lat="39.1725330" lon="-1.5113900">
        <ele>554.4</ele>
        <time>2019-05-12T08:46:36Z</time>
      </trkpt>
      <trkpt lat="39.1725240" lon="-1.5114450">
        <ele>554.2</ele>
        <time>2019-05-12T08:46:37Z</time>
      </trkpt>
      <trkpt lat="39.1725330" lon="-1.5115020">
        <ele>553.6</ele>
        <time>2019-05-12T08:46:38Z</time>
      </trkpt>
      <trkpt lat="39.1725390" lon="-1.5115630">
        <ele>553.4</ele>
        <time>2019-05-12T08:46:39Z</time>
      </trkpt>
      <trkpt lat="39.1725550" lon="-1.5116230">
        <ele>553.0</ele>
        <time>2019-05-12T08:46:40Z</time>
      </trkpt>
      <trkpt lat="39.1725730" lon="-1.5116750">
        <ele>552.8</ele>
        <time>2019-05-12T08:46:41Z</time>
      </trkpt>
      <trkpt lat="39.1725900" lon="-1.5117200">
        <ele>552.8</ele>
        <time>2019-05-12T08:46:42Z</time>
      </trkpt>
      <trkpt lat="39.1726010" lon="-1.5117630">
        <ele>552.8</ele>
        <time>2019-05-12T08:46:43Z</time>
      </trkpt>
      <trkpt lat="39.1726140" lon="-1.5118040">
        <ele>552.8</ele>
        <time>2019-05-12T08:46:44Z</time>
      </trkpt>
      <trkpt lat="39.1726240" lon="-1.5118430">
        <ele>552.8</ele>
        <time>2019-05-12T08:46:45Z</time>
      </trkpt>
      <trkpt lat="39.1726300" lon="-1.5118730">
        <ele>552.8</ele>
        <time>2019-05-12T08:46:46Z</time>
      </trkpt>
      <trkpt lat="39.1726340" lon="-1.5118820">
        <ele>552.8</ele>
        <time>2019-05-12T08:46:47Z</time>
      </trkpt>
      <trkpt lat="39.1726380" lon="-1.5118890">
        <ele>552.8</ele>
        <time>2019-05-12T08:46:48Z</time>
      </trkpt>
      <trkpt lat="39.1726470" lon="-1.5118960">
        <ele>553.0</ele>
        <time>2019-05-12T08:46:49Z</time>
      </trkpt>
      <trkpt lat="39.1726520" lon="-1.5119060">
        <ele>553.2</ele>
        <time>2019-05-12T08:46:50Z</time>
      </trkpt>
      <trkpt lat="39.1726570" lon="-1.5119140">
        <ele>553.2</ele>
        <time>2019-05-12T08:46:51Z</time>
      </trkpt>
      <trkpt lat="39.1726670" lon="-1.5119220">
        <ele>553.4</ele>
        <time>2019-05-12T08:46:52Z</time>
      </trkpt>
      <trkpt lat="39.1726740" lon="-1.5119310">
        <ele>553.8</ele>
        <time>2019-05-12T08:46:53Z</time>
      </trkpt>
      <trkpt lat="39.1726770" lon="-1.5119610">
        <ele>554.2</ele>
        <time>2019-05-12T08:46:54Z</time>
      </trkpt>
      <trkpt lat="39.1726930" lon="-1.5119760">
        <ele>554.4</ele>
        <time>2019-05-12T08:46:55Z</time>
      </trkpt>
      <trkpt lat="39.1727030" lon="-1.5119890">
        <ele>554.4</ele>
        <time>2019-05-12T08:46:56Z</time>
      </trkpt>
      <trkpt lat="39.1727090" lon="-1.5119960">
        <ele>554.6</ele>
        <time>2019-05-12T08:46:57Z</time>
      </trkpt>
      <trkpt lat="39.1727110" lon="-1.5120010">
        <ele>554.8</ele>
        <time>2019-05-12T08:46:58Z</time>
      </trkpt>
      <trkpt lat="39.1727200" lon="-1.5120060">
        <ele>555.0</ele>
        <time>2019-05-12T08:46:59Z</time>
      </trkpt>
      <trkpt lat="39.1727250" lon="-1.5120120">
        <ele>555.2</ele>
        <time>2019-05-12T08:47:00Z</time>
      </trkpt>
      <trkpt lat="39.1727320" lon="-1.5120190">
        <ele>555.4</ele>
        <time>2019-05-12T08:47:01Z</time>
      </trkpt>
      <trkpt lat="39.1727400" lon="-1.5120250">
        <ele>555.6</ele>
        <time>2019-05-12T08:47:02Z</time>
      </trkpt>
      <trkpt lat="39.1727470" lon="-1.5120290">
        <ele>556.0</ele>
        <time>2019-05-12T08:47:03Z</time>
      </trkpt>
      <trkpt lat="39.1727610" lon="-1.5120390">
        <ele>556.2</ele>
        <time>2019-05-12T08:47:04Z</time>
      </trkpt>
      <trkpt lat="39.1727710" lon="-1.5120480">
        <ele>556.4</ele>
        <time>2019-05-12T08:47:05Z</time>
      </trkpt>
      <trkpt lat="39.1727840" lon="-1.5120570">
        <ele>556.4</ele>
        <time>2019-05-12T08:47:06Z</time>
      </trkpt>
      <trkpt lat="39.1727980" lon="-1.5120660">
        <ele>556.6</ele>
        <time>2019-05-12T08:47:07Z</time>
      </trkpt>
      <trkpt lat="39.1728140" lon="-1.5120780">
        <ele>556.6</ele>
        <time>2019-05-12T08:47:08Z</time>
      </trkpt>
      <trkpt lat="39.1728320" lon="-1.5120890">
        <ele>556.6</ele>
        <time>2019-05-12T08:47:09Z</time>
      </trkpt>
      <trkpt lat="39.1728540" lon="-1.5120980">
        <ele>556.6</ele>
        <time>2019-05-12T08:47:10Z</time>
      </trkpt>
      <trkpt lat="39.1728790" lon="-1.5121070">
        <ele>556.8</ele>
        <time>2019-05-12T08:47:11Z</time>
      </trkpt>
      <trkpt lat="39.1729060" lon="-1.5121160">
        <ele>557.0</ele>
        <time>2019-05-12T08:47:12Z</time>
      </trkpt>
      <trkpt lat="39.1729350" lon="-1.5121310">
        <ele>557.2</ele>
        <time>2019-05-12T08:47:13Z</time>
      </trkpt>
      <trkpt lat="39.1729650" lon="-1.5121550">
        <ele>557.4</ele>
        <time>2019-05-12T08:47:14Z</time>
      </trkpt>
      <trkpt lat="39.1729940" lon="-1.5121800">
        <ele>557.6</ele>
        <time>2019-05-12T08:47:15Z</time>
      </trkpt>
      <trkpt lat="39.1730220" lon="-1.5121990">
        <ele>557.8</ele>
        <time>2019-05-12T08:47:16Z</time>
      </trkpt>
      <trkpt lat="39.1730510" lon="-1.5122130">
        <ele>557.8</ele>
        <time>2019-05-12T08:47:17Z</time>
      </trkpt>
      <trkpt lat="39.1730770" lon="-1.5122230">
        <ele>557.8</ele>
        <time>2019-05-12T08:47:18Z</time>
      </trkpt>
      <trkpt lat="39.1731010" lon="-1.5122410">
        <ele>557.8</ele>
        <time>2019-05-12T08:47:19Z</time>
      </trkpt>
      <trkpt lat="39.1731260" lon="-1.5122610">
        <ele>558.0</ele>
        <time>2019-05-12T08:47:20Z</time>
      </trkpt>
      <trkpt lat="39.1731490" lon="-1.5122800">
        <ele>558.0</ele>
        <time>2019-05-12T08:47:21Z</time>
      </trkpt>
      <trkpt lat="39.1731730" lon="-1.5123000">
        <ele>558.0</ele>
        <time>2019-05-12T08:47:22Z</time>
      </trkpt>
      <trkpt lat="39.1731970" lon="-1.5123200">
        <ele>558.0</ele>
        <time>2019-05-12T08:47:23Z</time>
      </trkpt>
      <trkpt lat="39.1732220" lon="-1.5123380">
        <ele>558.0</ele>
        <time>2019-05-12T08:47:24Z</time>
      </trkpt>
      <trkpt lat="39.1732460" lon="-1.5123550">
        <ele>558.2</ele>
        <time>2019-05-12T08:47:25Z</time>
      </trkpt>
      <trkpt lat="39.1732700" lon="-1.5123640">
        <ele>558.2</ele>
        <time>2019-05-12T08:47:26Z</time>
      </trkpt>
      <trkpt lat="39.1732970" lon="-1.5123590">
        <ele>558.2</ele>
        <time>2019-05-12T08:47:27Z</time>
      </trkpt>
      <trkpt lat="39.1733240" lon="-1.5123530">
        <ele>558.2</ele>
        <time>2019-05-12T08:47:28Z</time>
      </trkpt>
      <trkpt lat="39.1733490" lon="-1.5123520">
        <ele>558.2</ele>
        <time>2019-05-12T08:47:29Z</time>
      </trkpt>
      <trkpt lat="39.1733720" lon="-1.5123560">
        <ele>558.2</ele>
        <time>2019-05-12T08:47:30Z</time>
      </trkpt>
      <trkpt lat="39.1733990" lon="-1.5123610">
        <ele>558.2</ele>
        <time>2019-05-12T08:47:31Z</time>
      </trkpt>
      <trkpt lat="39.1734270" lon="-1.5123640">
        <ele>558.2</ele>
        <time>2019-05-12T08:47:32Z</time>
      </trkpt>
      <trkpt lat="39.1734570" lon="-1.5123600">
        <ele>558.2</ele>
        <time>2019-05-12T08:47:33Z</time>
      </trkpt>
      <trkpt lat="39.1734870" lon="-1.5123470">
        <ele>558.2</ele>
        <time>2019-05-12T08:47:34Z</time>
      </trkpt>
      <trkpt lat="39.1735120" lon="-1.5123330">
        <ele>558.4</ele>
        <time>2019-05-12T08:47:35Z</time>
      </trkpt>
      <trkpt lat="39.1735390" lon="-1.5123190">
        <ele>558.6</ele>
        <time>2019-05-12T08:47:36Z</time>
      </trkpt>
      <trkpt lat="39.1735690" lon="-1.5123070">
        <ele>559.0</ele>
        <time>2019-05-12T08:47:37Z</time>
      </trkpt>
      <trkpt lat="39.1735990" lon="-1.5122890">
        <ele>559.4</ele>
        <time>2019-05-12T08:47:38Z</time>
      </trkpt>
      <trkpt lat="39.1736280" lon="-1.5122650">
        <ele>559.6</ele>
        <time>2019-05-12T08:47:39Z</time>
      </trkpt>
      <trkpt lat="39.1736560" lon="-1.5122340">
        <ele>560.0</ele>
        <time>2019-05-12T08:47:40Z</time>
      </trkpt>
      <trkpt lat="39.1736870" lon="-1.5122020">
        <ele>560.2</ele>
        <time>2019-05-12T08:47:41Z</time>
      </trkpt>
      <trkpt lat="39.1737180" lon="-1.5121660">
        <ele>560.4</ele>
        <time>2019-05-12T08:47:42Z</time>
      </trkpt>
      <trkpt lat="39.1737520" lon="-1.5121300">
        <ele>560.8</ele>
        <time>2019-05-12T08:47:43Z</time>
      </trkpt>
      <trkpt lat="39.1737900" lon="-1.5120930">
        <ele>561.2</ele>
        <time>2019-05-12T08:47:44Z</time>
      </trkpt>
      <trkpt lat="39.1738260" lon="-1.5120540">
        <ele>561.4</ele>
        <time>2019-05-12T08:47:45Z</time>
      </trkpt>
      <trkpt lat="39.1738570" lon="-1.5120110">
        <ele>561.6</ele>
        <time>2019-05-12T08:47:46Z</time>
      </trkpt>
      <trkpt lat="39.1738860" lon="-1.5119660">
        <ele>561.8</ele>
        <time>2019-05-12T08:47:47Z</time>
      </trkpt>
      <trkpt lat="39.1739120" lon="-1.5119200">
        <ele>562.0</ele>
        <time>2019-05-12T08:47:48Z</time>
      </trkpt>
      <trkpt lat="39.1739390" lon="-1.5118750">
        <ele>562.0</ele>
        <time>2019-05-12T08:47:49Z</time>
      </trkpt>
      <trkpt lat="39.1739660" lon="-1.5118260">
        <ele>562.2</ele>
        <time>2019-05-12T08:47:50Z</time>
      </trkpt>
      <trkpt lat="39.1739930" lon="-1.5117730">
        <ele>562.2</ele>
        <time>2019-05-12T08:47:51Z</time>
      </trkpt>
      <trkpt lat="39.1740210" lon="-1.5117190">
        <ele>562.2</ele>
        <time>2019-05-12T08:47:52Z</time>
      </trkpt>
      <trkpt lat="39.1740520" lon="-1.5116630">
        <ele>562.2</ele>
        <time>2019-05-12T08:47:53Z</time>
      </trkpt>
      <trkpt lat="39.1740810" lon="-1.5116010">
        <ele>562.4</ele>
        <time>2019-05-12T08:47:54Z</time>
      </trkpt>
      <trkpt lat="39.1741090" lon="-1.5115360">
        <ele>562.4</ele>
        <time>2019-05-12T08:47:55Z</time>
      </trkpt>
      <trkpt lat="39.1741330" lon="-1.5114660">
        <ele>562.4</ele>
        <time>2019-05-12T08:47:56Z</time>
      </trkpt>
      <trkpt lat="39.1741550" lon="-1.5113960">
        <ele>562.4</ele>
        <time>2019-05-12T08:47:57Z</time>
      </trkpt>
      <trkpt lat="39.1741700" lon="-1.5113300">
        <ele>562.6</ele>
        <time>2019-05-12T08:47:58Z</time>
      </trkpt>
      <trkpt lat="39.1741850" lon="-1.5112750">
        <ele>562.6</ele>
        <time>2019-05-12T08:47:59Z</time>
      </trkpt>
      <trkpt lat="39.1741940" lon="-1.5112190">
        <ele>562.6</ele>
        <time>2019-05-12T08:48:00Z</time>
      </trkpt>
      <trkpt lat="39.1742070" lon="-1.5111630">
        <ele>562.8</ele>
        <time>2019-05-12T08:48:01Z</time>
      </trkpt>
      <trkpt lat="39.1742200" lon="-1.5111040">
        <ele>562.8</ele>
        <time>2019-05-12T08:48:02Z</time>
      </trkpt>
      <trkpt lat="39.1742370" lon="-1.5110470">
        <ele>563.0</ele>
        <time>2019-05-12T08:48:03Z</time>
      </trkpt>
      <trkpt lat="39.1742560" lon="-1.5109900">
        <ele>563.0</ele>
        <time>2019-05-12T08:48:04Z</time>
      </trkpt>
      <trkpt lat="39.1742720" lon="-1.5109300">
        <ele>563.0</ele>
        <time>2019-05-12T08:48:05Z</time>
      </trkpt>
      <trkpt lat="39.1742860" lon="-1.5108650">
        <ele>563.2</ele>
        <time>2019-05-12T08:48:06Z</time>
      </trkpt>
      <trkpt lat="39.1743010" lon="-1.5107990">
        <ele>563.2</ele>
        <time>2019-05-12T08:48:07Z</time>
      </trkpt>
      <trkpt lat="39.1743170" lon="-1.5107330">
        <ele>563.2</ele>
        <time>2019-05-12T08:48:08Z</time>
      </trkpt>
      <trkpt lat="39.1743340" lon="-1.5106650">
        <ele>563.2</ele>
        <time>2019-05-12T08:48:09Z</time>
      </trkpt>
      <trkpt lat="39.1743550" lon="-1.5105960">
        <ele>563.4</ele>
        <time>2019-05-12T08:48:10Z</time>
      </trkpt>
      <trkpt lat="39.1743860" lon="-1.5105260">
        <ele>563.4</ele>
        <time>2019-05-12T08:48:11Z</time>
      </trkpt>
      <trkpt lat="39.1744220" lon="-1.5104570">
        <ele>563.4</ele>
        <time>2019-05-12T08:48:12Z</time>
      </trkpt>
      <trkpt lat="39.1744590" lon="-1.5103880">
        <ele>563.4</ele>
        <time>2019-05-12T08:48:13Z</time>
      </trkpt>
      <trkpt lat="39.1744950" lon="-1.5103170">
        <ele>563.4</ele>
        <time>2019-05-12T08:48:14Z</time>
      </trkpt>
      <trkpt lat="39.1745340" lon="-1.5102480">
        <ele>563.4</ele>
        <time>2019-05-12T08:48:15Z</time>
      </trkpt>
      <trkpt lat="39.1745720" lon="-1.5101820">
        <ele>563.4</ele>
        <time>2019-05-12T08:48:16Z</time>
      </trkpt>
      <trkpt lat="39.1746100" lon="-1.5101130">
        <ele>563.4</ele>
        <time>2019-05-12T08:48:17Z</time>
      </trkpt>
      <trkpt lat="39.1746500" lon="-1.5100440">
        <ele>563.4</ele>
        <time>2019-05-12T08:48:18Z</time>
      </trkpt>
      <trkpt lat="39.1746900" lon="-1.5099770">
        <ele>563.4</ele>
        <time>2019-05-12T08:48:19Z</time>
      </trkpt>
      <trkpt lat="39.1747380" lon="-1.5099140">
        <ele>563.4</ele>
        <time>2019-05-12T08:48:20Z</time>
      </trkpt>
      <trkpt lat="39.1747830" lon="-1.5098490">
        <ele>563.4</ele>
        <time>2019-05-12T08:48:21Z</time>
      </trkpt>
      <trkpt lat="39.1748330" lon="-1.5097870">
        <ele>563.4</ele>
        <time>2019-05-12T08:48:22Z</time>
      </trkpt>
      <trkpt lat="39.1748840" lon="-1.5097240">
        <ele>563.4</ele>
        <time>2019-05-12T08:48:23Z</time>
      </trkpt>
      <trkpt lat="39.1749410" lon="-1.5096600">
        <ele>563.4</ele>
        <time>2019-05-12T08:48:24Z</time>
      </trkpt>
      <trkpt lat="39.1749930" lon="-1.5096030">
        <ele>563.2</ele>
        <time>2019-05-12T08:48:25Z</time>
      </trkpt>
      <trkpt lat="39.1750430" lon="-1.5095590">
        <ele>563.2</ele>
        <time>2019-05-12T08:48:26Z</time>
      </trkpt>
      <trkpt lat="39.1750990" lon="-1.5095190">
        <ele>563.2</ele>
        <time>2019-05-12T08:48:27Z</time>
      </trkpt>
      <trkpt lat="39.1751610" lon="-1.5094790">
        <ele>563.2</ele>
        <time>2019-05-12T08:48:28Z</time>
      </trkpt>
      <trkpt lat="39.1752150" lon="-1.5094400">
        <ele>563.2</ele>
        <time>2019-05-12T08:48:29Z</time>
      </trkpt>
      <trkpt lat="39.1752680" lon="-1.5094070">
        <ele>563.2</ele>
        <time>2019-05-12T08:48:30Z</time>
      </trkpt>
      <trkpt lat="39.1753210" lon="-1.5093790">
        <ele>563.2</ele>
        <time>2019-05-12T08:48:31Z</time>
      </trkpt>
      <trkpt lat="39.1753760" lon="-1.5093550">
        <ele>563.2</ele>
        <time>2019-05-12T08:48:32Z</time>
      </trkpt>
      <trkpt lat="39.1754320" lon="-1.5093330">
        <ele>563.2</ele>
        <time>2019-05-12T08:48:33Z</time>
      </trkpt>
      <trkpt lat="39.1754950" lon="-1.5093120">
        <ele>563.2</ele>
        <time>2019-05-12T08:48:34Z</time>
      </trkpt>
      <trkpt lat="39.1755610" lon="-1.5092920">
        <ele>563.2</ele>
        <time>2019-05-12T08:48:35Z</time>
      </trkpt>
      <trkpt lat="39.1756320" lon="-1.5092750">
        <ele>563.2</ele>
        <time>2019-05-12T08:48:36Z</time>
      </trkpt>
      <trkpt lat="39.1757060" lon="-1.5092640">
        <ele>562.8</ele>
        <time>2019-05-12T08:48:37Z</time>
      </trkpt>
      <trkpt lat="39.1757830" lon="-1.5092610">
        <ele>562.8</ele>
        <time>2019-05-12T08:48:38Z</time>
      </trkpt>
      <trkpt lat="39.1758650" lon="-1.5092530">
        <ele>562.6</ele>
        <time>2019-05-12T08:48:39Z</time>
      </trkpt>
      <trkpt lat="39.1759460" lon="-1.5092550">
        <ele>562.6</ele>
        <time>2019-05-12T08:48:40Z</time>
      </trkpt>
      <trkpt lat="39.1760270" lon="-1.5092610">
        <ele>562.6</ele>
        <time>2019-05-12T08:48:41Z</time>
      </trkpt>
      <trkpt lat="39.1761060" lon="-1.5092790">
        <ele>562.6</ele>
        <time>2019-05-12T08:48:42Z</time>
      </trkpt>
      <trkpt lat="39.1761860" lon="-1.5093000">
        <ele>562.6</ele>
        <time>2019-05-12T08:48:43Z</time>
      </trkpt>
      <trkpt lat="39.1762590" lon="-1.5093270">
        <ele>562.6</ele>
        <time>2019-05-12T08:48:44Z</time>
      </trkpt>
      <trkpt lat="39.1763290" lon="-1.5093440">
        <ele>562.2</ele>
        <time>2019-05-12T08:48:45Z</time>
      </trkpt>
      <trkpt lat="39.1764060" lon="-1.5093540">
        <ele>561.8</ele>
        <time>2019-05-12T08:48:46Z</time>
      </trkpt>
      <trkpt lat="39.1764830" lon="-1.5093680">
        <ele>561.4</ele>
        <time>2019-05-12T08:48:47Z</time>
      </trkpt>
      <trkpt lat="39.1765560" lon="-1.5093870">
        <ele>561.0</ele>
        <time>2019-05-12T08:48:48Z</time>
      </trkpt>
      <trkpt lat="39.1766230" lon="-1.5094070">
        <ele>560.8</ele>
        <time>2019-05-12T08:48:49Z</time>
      </trkpt>
      <trkpt lat="39.1766890" lon="-1.5094330">
        <ele>560.8</ele>
        <time>2019-05-12T08:48:50Z</time>
      </trkpt>
      <trkpt lat="39.1767540" lon="-1.5094640">
        <ele>560.6</ele>
        <time>2019-05-12T08:48:51Z</time>
      </trkpt>
      <trkpt lat="39.1768230" lon="-1.5095010">
        <ele>560.6</ele>
        <time>2019-05-12T08:48:52Z</time>
      </trkpt>
      <trkpt lat="39.1768940" lon="-1.5095260">
        <ele>560.6</ele>
        <time>2019-05-12T08:48:53Z</time>
      </trkpt>
      <trkpt lat="39.1769650" lon="-1.5095470">
        <ele>560.6</ele>
        <time>2019-05-12T08:48:54Z</time>
      </trkpt>
      <trkpt lat="39.1770320" lon="-1.5095670">
        <ele>560.6</ele>
        <time>2019-05-12T08:48:55Z</time>
      </trkpt>
      <trkpt lat="39.1770990" lon="-1.5095930">
        <ele>560.6</ele>
        <time>2019-05-12T08:48:56Z</time>
      </trkpt>
      <trkpt lat="39.1771610" lon="-1.5096210">
        <ele>560.6</ele>
        <time>2019-05-12T08:48:57Z</time>
      </trkpt>
      <trkpt lat="39.1772220" lon="-1.5096450">
        <ele>560.6</ele>
        <time>2019-05-12T08:48:58Z</time>
      </trkpt>
      <trkpt lat="39.1772780" lon="-1.5096680">
        <ele>560.6</ele>
        <time>2019-05-12T08:48:59Z</time>
      </trkpt>
      <trkpt lat="39.1773360" lon="-1.5096910">
        <ele>560.8</ele>
        <time>2019-05-12T08:49:00Z</time>
      </trkpt>
      <trkpt lat="39.1773950" lon="-1.5097130">
        <ele>560.8</ele>
        <time>2019-05-12T08:49:01Z</time>
      </trkpt>
      <trkpt lat="39.1774510" lon="-1.5097310">
        <ele>560.8</ele>
        <time>2019-05-12T08:49:02Z</time>
      </trkpt>
      <trkpt lat="39.1775040" lon="-1.5097470">
        <ele>561.0</ele>
        <time>2019-05-12T08:49:03Z</time>
      </trkpt>
      <trkpt lat="39.1775570" lon="-1.5097640">
        <ele>561.0</ele>
        <time>2019-05-12T08:49:04Z</time>
      </trkpt>
      <trkpt lat="39.1776070" lon="-1.5097850">
        <ele>561.2</ele>
        <time>2019-05-12T08:49:05Z</time>
      </trkpt>
      <trkpt lat="39.1776550" lon="-1.5098070">
        <ele>561.2</ele>
        <time>2019-05-12T08:49:06Z</time>
      </trkpt>
      <trkpt lat="39.1777020" lon="-1.5098300">
        <ele>561.4</ele>
        <time>2019-05-12T08:49:07Z</time>
      </trkpt>
      <trkpt lat="39.1777460" lon="-1.5098540">
        <ele>561.4</ele>
        <time>2019-05-12T08:49:08Z</time>
      </trkpt>
      <trkpt lat="39.1777900" lon="-1.5098780">
        <ele>561.6</ele>
        <time>2019-05-12T08:49:09Z</time>
      </trkpt>
      <trkpt lat="39.1778360" lon="-1.5098930">
        <ele>561.8</ele>
        <time>2019-05-12T08:49:10Z</time>
      </trkpt>
      <trkpt lat="39.1778850" lon="-1.5099170">
        <ele>562.0</ele>
        <time>2019-05-12T08:49:11Z</time>
      </trkpt>
      <trkpt lat="39.1779370" lon="-1.5099510">
        <ele>562.4</ele>
        <time>2019-05-12T08:49:12Z</time>
      </trkpt>
      <trkpt lat="39.1779890" lon="-1.5099980">
        <ele>562.6</ele>
        <time>2019-05-12T08:49:13Z</time>
      </trkpt>
      <trkpt lat="39.1780450" lon="-1.5100520">
        <ele>563.0</ele>
        <time>2019-05-12T08:49:14Z</time>
      </trkpt>
      <trkpt lat="39.1781080" lon="-1.5101030">
        <ele>563.2</ele>
        <time>2019-05-12T08:49:15Z</time>
      </trkpt>
      <trkpt lat="39.1781760" lon="-1.5101470">
        <ele>563.4</ele>
        <time>2019-05-12T08:49:16Z</time>
      </trkpt>
      <trkpt lat="39.1782430" lon="-1.5101870">
        <ele>563.4</ele>
        <time>2019-05-12T08:49:17Z</time>
      </trkpt>
      <trkpt lat="39.1783070" lon="-1.5102280">
        <ele>563.4</ele>
        <time>2019-05-12T08:49:18Z</time>
      </trkpt>
      <trkpt lat="39.1783660" lon="-1.5102710">
        <ele>563.6</ele>
        <time>2019-05-12T08:49:19Z</time>
      </trkpt>
      <trkpt lat="39.1784240" lon="-1.5103110">
        <ele>563.6</ele>
        <time>2019-05-12T08:49:20Z</time>
      </trkpt>
      <trkpt lat="39.1784770" lon="-1.5103460">
        <ele>563.6</ele>
        <time>2019-05-12T08:49:21Z</time>
      </trkpt>
      <trkpt lat="39.1785340" lon="-1.5103830">
        <ele>563.8</ele>
        <time>2019-05-12T08:49:22Z</time>
      </trkpt>
      <trkpt lat="39.1785890" lon="-1.5104210">
        <ele>563.8</ele>
        <time>2019-05-12T08:49:23Z</time>
      </trkpt>
      <trkpt lat="39.1786410" lon="-1.5104640">
        <ele>564.0</ele>
        <time>2019-05-12T08:49:24Z</time>
      </trkpt>
      <trkpt lat="39.1786950" lon="-1.5105140">
        <ele>564.0</ele>
        <time>2019-05-12T08:49:25Z</time>
      </trkpt>
      <trkpt lat="39.1787540" lon="-1.5105650">
        <ele>564.0</ele>
        <time>2019-05-12T08:49:26Z</time>
      </trkpt>
      <trkpt lat="39.1788140" lon="-1.5106200">
        <ele>564.0</ele>
        <time>2019-05-12T08:49:27Z</time>
      </trkpt>
      <trkpt lat="39.1788710" lon="-1.5106840">
        <ele>564.0</ele>
        <time>2019-05-12T08:49:28Z</time>
      </trkpt>
      <trkpt lat="39.1789270" lon="-1.5107590">
        <ele>563.8</ele>
        <time>2019-05-12T08:49:29Z</time>
      </trkpt>
      <trkpt lat="39.1789850" lon="-1.5108310">
        <ele>563.8</ele>
        <time>2019-05-12T08:49:30Z</time>
      </trkpt>
      <trkpt lat="39.1790470" lon="-1.5108960">
        <ele>563.6</ele>
        <time>2019-05-12T08:49:31Z</time>
      </trkpt>
      <trkpt lat="39.1791080" lon="-1.5109620">
        <ele>563.6</ele>
        <time>2019-05-12T08:49:32Z</time>
      </trkpt>
      <trkpt lat="39.1791710" lon="-1.5110250">
        <ele>563.6</ele>
        <time>2019-05-12T08:49:33Z</time>
      </trkpt>
      <trkpt lat="39.1792320" lon="-1.5110840">
        <ele>563.6</ele>
        <time>2019-05-12T08:49:34Z</time>
      </trkpt>
      <trkpt lat="39.1792940" lon="-1.5111490">
        <ele>563.6</ele>
        <time>2019-05-12T08:49:35Z</time>
      </trkpt>
      <trkpt lat="39.1793580" lon="-1.5112150">
        <ele>563.2</ele>
        <time>2019-05-12T08:49:36Z</time>
      </trkpt>
      <trkpt lat="39.1794260" lon="-1.5112740">
        <ele>562.6</ele>
        <time>2019-05-12T08:49:37Z</time>
      </trkpt>
      <trkpt lat="39.1794960" lon="-1.5113270">
        <ele>562.2</ele>
        <time>2019-05-12T08:49:38Z</time>
      </trkpt>
      <trkpt lat="39.1795640" lon="-1.5113750">
        <ele>561.8</ele>
        <time>2019-05-12T08:49:39Z</time>
      </trkpt>
      <trkpt lat="39.1796300" lon="-1.5114120">
        <ele>561.6</ele>
        <time>2019-05-12T08:49:40Z</time>
      </trkpt>
      <trkpt lat="39.1796930" lon="-1.5114530">
        <ele>561.6</ele>
        <time>2019-05-12T08:49:41Z</time>
      </trkpt>
      <trkpt lat="39.1797450" lon="-1.5114990">
        <ele>561.4</ele>
        <time>2019-05-12T08:49:42Z</time>
      </trkpt>
      <trkpt lat="39.1797860" lon="-1.5115510">
        <ele>561.4</ele>
        <time>2019-05-12T08:49:43Z</time>
      </trkpt>
      <trkpt lat="39.1798220" lon="-1.5116080">
        <ele>561.4</ele>
        <time>2019-05-12T08:49:44Z</time>
      </trkpt>
      <trkpt lat="39.1798560" lon="-1.5116670">
        <ele>561.4</ele>
        <time>2019-05-12T08:49:45Z</time>
      </trkpt>
      <trkpt lat="39.1798900" lon="-1.5117260">
        <ele>561.4</ele>
        <time>2019-05-12T08:49:46Z</time>
      </trkpt>
      <trkpt lat="39.1799240" lon="-1.5117870">
        <ele>561.4</ele>
        <time>2019-05-12T08:49:47Z</time>
      </trkpt>
      <trkpt lat="39.1799590" lon="-1.5118480">
        <ele>561.4</ele>
        <time>2019-05-12T08:49:48Z</time>
      </trkpt>
      <trkpt lat="39.1799960" lon="-1.5119110">
        <ele>561.4</ele>
        <time>2019-05-12T08:49:49Z</time>
      </trkpt>
      <trkpt lat="39.1800360" lon="-1.5119720">
        <ele>561.4</ele>
        <time>2019-05-12T08:49:50Z</time>
      </trkpt>
      <trkpt lat="39.1800820" lon="-1.5120290">
        <ele>561.6</ele>
        <time>2019-05-12T08:49:51Z</time>
      </trkpt>
      <trkpt lat="39.1801270" lon="-1.5120900">
        <ele>562.0</ele>
        <time>2019-05-12T08:49:52Z</time>
      </trkpt>
      <trkpt lat="39.1801700" lon="-1.5121530">
        <ele>562.4</ele>
        <time>2019-05-12T08:49:53Z</time>
      </trkpt>
      <trkpt lat="39.1802080" lon="-1.5122220">
        <ele>562.6</ele>
        <time>2019-05-12T08:49:54Z</time>
      </trkpt>
      <trkpt lat="39.1802490" lon="-1.5122870">
        <ele>562.8</ele>
        <time>2019-05-12T08:49:55Z</time>
      </trkpt>
      <trkpt lat="39.1803000" lon="-1.5123380">
        <ele>563.0</ele>
        <time>2019-05-12T08:49:56Z</time>
      </trkpt>
      <trkpt lat="39.1803500" lon="-1.5123870">
        <ele>563.0</ele>
        <time>2019-05-12T08:49:57Z</time>
      </trkpt>
      <trkpt lat="39.1803920" lon="-1.5124430">
        <ele>563.0</ele>
        <time>2019-05-12T08:49:58Z</time>
      </trkpt>
      <trkpt lat="39.1804300" lon="-1.5125000">
        <ele>563.0</ele>
        <time>2019-05-12T08:49:59Z</time>
      </trkpt>
      <trkpt lat="39.1804710" lon="-1.5125570">
        <ele>563.2</ele>
        <time>2019-05-12T08:50:00Z</time>
      </trkpt>
      <trkpt lat="39.1805180" lon="-1.5126060">
        <ele>563.2</ele>
        <time>2019-05-12T08:50:01Z</time>
      </trkpt>
      <trkpt lat="39.1805620" lon="-1.5126530">
        <ele>563.2</ele>
        <time>2019-05-12T08:50:02Z</time>
      </trkpt>
      <trkpt lat="39.1805980" lon="-1.5126980">
        <ele>563.2</ele>
        <time>2019-05-12T08:50:03Z</time>
      </trkpt>
      <trkpt lat="39.1806280" lon="-1.5127460">
        <ele>563.2</ele>
        <time>2019-05-12T08:50:04Z</time>
      </trkpt>
      <trkpt lat="39.1806520" lon="-1.5128000">
        <ele>563.4</ele>
        <time>2019-05-12T08:50:05Z</time>
      </trkpt>
      <trkpt lat="39.1806660" lon="-1.5128550">
        <ele>563.4</ele>
        <time>2019-05-12T08:50:06Z</time>
      </trkpt>
      <trkpt lat="39.1806740" lon="-1.5129110">
        <ele>563.6</ele>
        <time>2019-05-12T08:50:07Z</time>
      </trkpt>
      <trkpt lat="39.1806810" lon="-1.5129640">
        <ele>563.6</ele>
        <time>2019-05-12T08:50:08Z</time>
      </trkpt>
      <trkpt lat="39.1806910" lon="-1.5130150">
        <ele>563.8</ele>
        <time>2019-05-12T08:50:09Z</time>
      </trkpt>
      <trkpt lat="39.1806990" lon="-1.5130660">
        <ele>564.4</ele>
        <time>2019-05-12T08:50:10Z</time>
      </trkpt>
      <trkpt lat="39.1807070" lon="-1.5131200">
        <ele>564.6</ele>
        <time>2019-05-12T08:50:11Z</time>
      </trkpt>
      <trkpt lat="39.1807140" lon="-1.5131780">
        <ele>565.0</ele>
        <time>2019-05-12T08:50:12Z</time>
      </trkpt>
      <trkpt lat="39.1807230" lon="-1.5132320">
        <ele>565.4</ele>
        <time>2019-05-12T08:50:13Z</time>
      </trkpt>
      <trkpt lat="39.1807260" lon="-1.5132910">
        <ele>565.8</ele>
        <time>2019-05-12T08:50:14Z</time>
      </trkpt>
      <trkpt lat="39.1807330" lon="-1.5133550">
        <ele>566.2</ele>
        <time>2019-05-12T08:50:15Z</time>
      </trkpt>
      <trkpt lat="39.1807380" lon="-1.5134180">
        <ele>566.6</ele>
        <time>2019-05-12T08:50:16Z</time>
      </trkpt>
      <trkpt lat="39.1807460" lon="-1.5134850">
        <ele>567.2</ele>
        <time>2019-05-12T08:50:17Z</time>
      </trkpt>
      <trkpt lat="39.1807580" lon="-1.5135530">
        <ele>567.6</ele>
        <time>2019-05-12T08:50:18Z</time>
      </trkpt>
      <trkpt lat="39.1807750" lon="-1.5136210">
        <ele>567.8</ele>
        <time>2019-05-12T08:50:19Z</time>
      </trkpt>
      <trkpt lat="39.1807940" lon="-1.5136880">
        <ele>568.2</ele>
        <time>2019-05-12T08:50:20Z</time>
      </trkpt>
      <trkpt lat="39.1808080" lon="-1.5137570">
        <ele>568.4</ele>
        <time>2019-05-12T08:50:21Z</time>
      </trkpt>
      <trkpt lat="39.1808180" lon="-1.5138310">
        <ele>568.6</ele>
        <time>2019-05-12T08:50:22Z</time>
      </trkpt>
      <trkpt lat="39.1808260" lon="-1.5139160">
        <ele>568.6</ele>
        <time>2019-05-12T08:50:23Z</time>
      </trkpt>
      <trkpt lat="39.1808300" lon="-1.5140090">
        <ele>568.8</ele>
        <time>2019-05-12T08:50:24Z</time>
      </trkpt>
      <trkpt lat="39.1808260" lon="-1.5141090">
        <ele>568.8</ele>
        <time>2019-05-12T08:50:25Z</time>
      </trkpt>
      <trkpt lat="39.1808090" lon="-1.5142120">
        <ele>568.8</ele>
        <time>2019-05-12T08:50:26Z</time>
      </trkpt>
      <trkpt lat="39.1807780" lon="-1.5143190">
        <ele>568.8</ele>
        <time>2019-05-12T08:50:27Z</time>
      </trkpt>
      <trkpt lat="39.1807500" lon="-1.5144300">
        <ele>568.8</ele>
        <time>2019-05-12T08:50:28Z</time>
      </trkpt>
      <trkpt lat="39.1807280" lon="-1.5145400">
        <ele>568.8</ele>
        <time>2019-05-12T08:50:29Z</time>
      </trkpt>
      <trkpt lat="39.1807000" lon="-1.5146490">
        <ele>568.8</ele>
        <time>2019-05-12T08:50:30Z</time>
      </trkpt>
      <trkpt lat="39.1806840" lon="-1.5147490">
        <ele>568.6</ele>
        <time>2019-05-12T08:50:31Z</time>
      </trkpt>
      <trkpt lat="39.1806710" lon="-1.5148520">
        <ele>568.4</ele>
        <time>2019-05-12T08:50:32Z</time>
      </trkpt>
      <trkpt lat="39.1806670" lon="-1.5149550">
        <ele>568.0</ele>
        <time>2019-05-12T08:50:33Z</time>
      </trkpt>
      <trkpt lat="39.1806600" lon="-1.5150560">
        <ele>567.4</ele>
        <time>2019-05-12T08:50:34Z</time>
      </trkpt>
      <trkpt lat="39.1806500" lon="-1.5151570">
        <ele>566.6</ele>
        <time>2019-05-12T08:50:35Z</time>
      </trkpt>
      <trkpt lat="39.1806340" lon="-1.5152590">
        <ele>566.0</ele>
        <time>2019-05-12T08:50:36Z</time>
      </trkpt>
      <trkpt lat="39.1806120" lon="-1.5153580">
        <ele>565.6</ele>
        <time>2019-05-12T08:50:37Z</time>
      </trkpt>
      <trkpt lat="39.1805810" lon="-1.5154530">
        <ele>565.2</ele>
        <time>2019-05-12T08:50:38Z</time>
      </trkpt>
      <trkpt lat="39.1805390" lon="-1.5155480">
        <ele>564.8</ele>
        <time>2019-05-12T08:50:39Z</time>
      </trkpt>
      <trkpt lat="39.1804970" lon="-1.5156420">
        <ele>564.6</ele>
        <time>2019-05-12T08:50:40Z</time>
      </trkpt>
      <trkpt lat="39.1804550" lon="-1.5157270">
        <ele>564.6</ele>
        <time>2019-05-12T08:50:41Z</time>
      </trkpt>
      <trkpt lat="39.1804160" lon="-1.5158080">
        <ele>564.2</ele>
        <time>2019-05-12T08:50:42Z</time>
      </trkpt>
      <trkpt lat="39.1803770" lon="-1.5158810">
        <ele>564.0</ele>
        <time>2019-05-12T08:50:43Z</time>
      </trkpt>
      <trkpt lat="39.1803460" lon="-1.5159490">
        <ele>563.8</ele>
        <time>2019-05-12T08:50:44Z</time>
      </trkpt>
      <trkpt lat="39.1803190" lon="-1.5160200">
        <ele>563.8</ele>
        <time>2019-05-12T08:50:45Z</time>
      </trkpt>
      <trkpt lat="39.1803060" lon="-1.5160910">
        <ele>563.6</ele>
        <time>2019-05-12T08:50:46Z</time>
      </trkpt>
      <trkpt lat="39.1802950" lon="-1.5161630">
        <ele>563.8</ele>
        <time>2019-05-12T08:50:47Z</time>
      </trkpt>
      <trkpt lat="39.1802760" lon="-1.5162340">
        <ele>563.6</ele>
        <time>2019-05-12T08:50:48Z</time>
      </trkpt>
      <trkpt lat="39.1802450" lon="-1.5163020">
        <ele>563.6</ele>
        <time>2019-05-12T08:50:49Z</time>
      </trkpt>
      <trkpt lat="39.1802040" lon="-1.5163660">
        <ele>563.6</ele>
        <time>2019-05-12T08:50:50Z</time>
      </trkpt>
      <trkpt lat="39.1801520" lon="-1.5164290">
        <ele>563.4</ele>
        <time>2019-05-12T08:50:51Z</time>
      </trkpt>
      <trkpt lat="39.1801040" lon="-1.5164930">
        <ele>563.6</ele>
        <time>2019-05-12T08:50:52Z</time>
      </trkpt>
      <trkpt lat="39.1800550" lon="-1.5165570">
        <ele>563.4</ele>
        <time>2019-05-12T08:50:53Z</time>
      </trkpt>
      <trkpt lat="39.1800030" lon="-1.5166200">
        <ele>563.4</ele>
        <time>2019-05-12T08:50:54Z</time>
      </trkpt>
      <trkpt lat="39.1799490" lon="-1.5166840">
        <ele>563.4</ele>
        <time>2019-05-12T08:50:55Z</time>
      </trkpt>
      <trkpt lat="39.1798920" lon="-1.5167430">
        <ele>563.4</ele>
        <time>2019-05-12T08:50:56Z</time>
      </trkpt>
      <trkpt lat="39.1798320" lon="-1.5167940">
        <ele>563.4</ele>
        <time>2019-05-12T08:50:57Z</time>
      </trkpt>
      <trkpt lat="39.1797760" lon="-1.5168480">
        <ele>563.4</ele>
        <time>2019-05-12T08:50:58Z</time>
      </trkpt>
      <trkpt lat="39.1797240" lon="-1.5169110">
        <ele>563.4</ele>
        <time>2019-05-12T08:50:59Z</time>
      </trkpt>
      <trkpt lat="39.1796800" lon="-1.5169850">
        <ele>563.4</ele>
        <time>2019-05-12T08:51:00Z</time>
      </trkpt>
      <trkpt lat="39.1796380" lon="-1.5170620">
        <ele>563.2</ele>
        <time>2019-05-12T08:51:01Z</time>
      </trkpt>
      <trkpt lat="39.1795980" lon="-1.5171440">
        <ele>563.2</ele>
        <time>2019-05-12T08:51:02Z</time>
      </trkpt>
      <trkpt lat="39.1795620" lon="-1.5172350">
        <ele>563.2</ele>
        <time>2019-05-12T08:51:03Z</time>
      </trkpt>
      <trkpt lat="39.1795350" lon="-1.5173200">
        <ele>563.0</ele>
        <time>2019-05-12T08:51:04Z</time>
      </trkpt>
      <trkpt lat="39.1795400" lon="-1.5174010">
        <ele>563.0</ele>
        <time>2019-05-12T08:51:05Z</time>
      </trkpt>
      <trkpt lat="39.1795480" lon="-1.5174820">
        <ele>563.0</ele>
        <time>2019-05-12T08:51:06Z</time>
      </trkpt>
      <trkpt lat="39.1795500" lon="-1.5175570">
        <ele>562.8</ele>
        <time>2019-05-12T08:51:07Z</time>
      </trkpt>
      <trkpt lat="39.1795380" lon="-1.5176190">
        <ele>562.8</ele>
        <time>2019-05-12T08:51:08Z</time>
      </trkpt>
      <trkpt lat="39.1795080" lon="-1.5176560">
        <ele>562.8</ele>
        <time>2019-05-12T08:51:09Z</time>
      </trkpt>
      <trkpt lat="39.1794710" lon="-1.5176660">
        <ele>562.6</ele>
        <time>2019-05-12T08:51:10Z</time>
      </trkpt>
      <trkpt lat="39.1794350" lon="-1.5176560">
        <ele>562.0</ele>
        <time>2019-05-12T08:51:11Z</time>
      </trkpt>
      <trkpt lat="39.1793960" lon="-1.5176400">
        <ele>561.6</ele>
        <time>2019-05-12T08:51:12Z</time>
      </trkpt>
      <trkpt lat="39.1793550" lon="-1.5176180">
        <ele>561.4</ele>
        <time>2019-05-12T08:51:13Z</time>
      </trkpt>
      <trkpt lat="39.1793070" lon="-1.5175980">
        <ele>561.2</ele>
        <time>2019-05-12T08:51:14Z</time>
      </trkpt>
      <trkpt lat="39.1792580" lon="-1.5175920">
        <ele>561.0</ele>
        <time>2019-05-12T08:51:15Z</time>
      </trkpt>
      <trkpt lat="39.1792070" lon="-1.5176010">
        <ele>561.0</ele>
        <time>2019-05-12T08:51:16Z</time>
      </trkpt>
      <trkpt lat="39.1791590" lon="-1.5176230">
        <ele>561.0</ele>
        <time>2019-05-12T08:51:17Z</time>
      </trkpt>
      <trkpt lat="39.1791140" lon="-1.5176600">
        <ele>560.8</ele>
        <time>2019-05-12T08:51:18Z</time>
      </trkpt>
      <trkpt lat="39.1790730" lon="-1.5177040">
        <ele>560.6</ele>
        <time>2019-05-12T08:51:19Z</time>
      </trkpt>
      <trkpt lat="39.1790330" lon="-1.5177470">
        <ele>560.6</ele>
        <time>2019-05-12T08:51:20Z</time>
      </trkpt>
      <trkpt lat="39.1789940" lon="-1.5177890">
        <ele>560.6</ele>
        <time>2019-05-12T08:51:21Z</time>
      </trkpt>
      <trkpt lat="39.1789580" lon="-1.5178350">
        <ele>560.6</ele>
        <time>2019-05-12T08:51:22Z</time>
      </trkpt>
      <trkpt lat="39.1789230" lon="-1.5178800">
        <ele>560.6</ele>
        <time>2019-05-12T08:51:23Z</time>
      </trkpt>
      <trkpt lat="39.1788840" lon="-1.5179210">
        <ele>560.6</ele>
        <time>2019-05-12T08:51:24Z</time>
      </trkpt>
      <trkpt lat="39.1788400" lon="-1.5179480">
        <ele>560.6</ele>
        <time>2019-05-12T08:51:25Z</time>
      </trkpt>
      <trkpt lat="39.1787870" lon="-1.5179640">
        <ele>560.6</ele>
        <time>2019-05-12T08:51:26Z</time>
      </trkpt>
      <trkpt lat="39.1787290" lon="-1.5179860">
        <ele>560.8</ele>
        <time>2019-05-12T08:51:27Z</time>
      </trkpt>
      <trkpt lat="39.1786700" lon="-1.5180150">
        <ele>561.0</ele>
        <time>2019-05-12T08:51:28Z</time>
      </trkpt>
      <trkpt lat="39.1786100" lon="-1.5180490">
        <ele>561.0</ele>
        <time>2019-05-12T08:51:29Z</time>
      </trkpt>
      <trkpt lat="39.1785490" lon="-1.5180890">
        <ele>561.2</ele>
        <time>2019-05-12T08:51:30Z</time>
      </trkpt>
      <trkpt lat="39.1784870" lon="-1.5181350">
        <ele>561.2</ele>
        <time>2019-05-12T08:51:31Z</time>
      </trkpt>
      <trkpt lat="39.1784260" lon="-1.5181860">
        <ele>561.2</ele>
        <time>2019-05-12T08:51:32Z</time>
      </trkpt>
      <trkpt lat="39.1783690" lon="-1.5182450">
        <ele>561.2</ele>
        <time>2019-05-12T08:51:33Z</time>
      </trkpt>
      <trkpt lat="39.1783290" lon="-1.5183160">
        <ele>561.2</ele>
        <time>2019-05-12T08:51:34Z</time>
      </trkpt>
      <trkpt lat="39.1783010" lon="-1.5184000">
        <ele>561.2</ele>
        <time>2019-05-12T08:51:35Z</time>
      </trkpt>
      <trkpt lat="39.1782730" lon="-1.5184770">
        <ele>561.2</ele>
        <time>2019-05-12T08:51:36Z</time>
      </trkpt>
      <trkpt lat="39.1782390" lon="-1.5185480">
        <ele>561.2</ele>
        <time>2019-05-12T08:51:37Z</time>
      </trkpt>
      <trkpt lat="39.1781910" lon="-1.5186010">
        <ele>561.2</ele>
        <time>2019-05-12T08:51:38Z</time>
      </trkpt>
      <trkpt lat="39.1781360" lon="-1.5186340">
        <ele>561.2</ele>
        <time>2019-05-12T08:51:39Z</time>
      </trkpt>
      <trkpt lat="39.1780850" lon="-1.5186660">
        <ele>561.0</ele>
        <time>2019-05-12T08:51:40Z</time>
      </trkpt>
      <trkpt lat="39.1780440" lon="-1.5187140">
        <ele>560.6</ele>
        <time>2019-05-12T08:51:41Z</time>
      </trkpt>
      <trkpt lat="39.1780130" lon="-1.5187800">
        <ele>560.2</ele>
        <time>2019-05-12T08:51:42Z</time>
      </trkpt>
      <trkpt lat="39.1780010" lon="-1.5188660">
        <ele>560.0</ele>
        <time>2019-05-12T08:51:43Z</time>
      </trkpt>
      <trkpt lat="39.1780090" lon="-1.5189680">
        <ele>559.8</ele>
        <time>2019-05-12T08:51:44Z</time>
      </trkpt>
      <trkpt lat="39.1780210" lon="-1.5190700">
        <ele>559.0</ele>
        <time>2019-05-12T08:51:45Z</time>
      </trkpt>
      <trkpt lat="39.1780360" lon="-1.5191710">
        <ele>558.4</ele>
        <time>2019-05-12T08:51:46Z</time>
      </trkpt>
      <trkpt lat="39.1780540" lon="-1.5192700">
        <ele>557.8</ele>
        <time>2019-05-12T08:51:47Z</time>
      </trkpt>
      <trkpt lat="39.1780820" lon="-1.5193730">
        <ele>557.2</ele>
        <time>2019-05-12T08:51:48Z</time>
      </trkpt>
      <trkpt lat="39.1781150" lon="-1.5194750">
        <ele>556.6</ele>
        <time>2019-05-12T08:51:49Z</time>
      </trkpt>
      <trkpt lat="39.1781600" lon="-1.5195740">
        <ele>556.0</ele>
        <time>2019-05-12T08:51:50Z</time>
      </trkpt>
      <trkpt lat="39.1782050" lon="-1.5196650">
        <ele>555.6</ele>
        <time>2019-05-12T08:51:51Z</time>
      </trkpt>
      <trkpt lat="39.1782540" lon="-1.5197560">
        <ele>555.2</ele>
        <time>2019-05-12T08:51:52Z</time>
      </trkpt>
      <trkpt lat="39.1783020" lon="-1.5198440">
        <ele>555.0</ele>
        <time>2019-05-12T08:51:53Z</time>
      </trkpt>
      <trkpt lat="39.1783530" lon="-1.5199260">
        <ele>554.4</ele>
        <time>2019-05-12T08:51:54Z</time>
      </trkpt>
      <trkpt lat="39.1784040" lon="-1.5200000">
        <ele>554.4</ele>
        <time>2019-05-12T08:51:55Z</time>
      </trkpt>
      <trkpt lat="39.1784510" lon="-1.5200730">
        <ele>554.4</ele>
        <time>2019-05-12T08:51:56Z</time>
      </trkpt>
      <trkpt lat="39.1784970" lon="-1.5201460">
        <ele>554.2</ele>
        <time>2019-05-12T08:51:57Z</time>
      </trkpt>
      <trkpt lat="39.1785380" lon="-1.5202170">
        <ele>554.2</ele>
        <time>2019-05-12T08:51:58Z</time>
      </trkpt>
      <trkpt lat="39.1785790" lon="-1.5202840">
        <ele>554.2</ele>
        <time>2019-05-12T08:51:59Z</time>
      </trkpt>
      <trkpt lat="39.1786220" lon="-1.5203490">
        <ele>554.2</ele>
        <time>2019-05-12T08:52:00Z</time>
      </trkpt>
      <trkpt lat="39.1786630" lon="-1.5204110">
        <ele>554.2</ele>
        <time>2019-05-12T08:52:01Z</time>
      </trkpt>
      <trkpt lat="39.1787060" lon="-1.5204710">
        <ele>554.2</ele>
        <time>2019-05-12T08:52:02Z</time>
      </trkpt>
      <trkpt lat="39.1787480" lon="-1.5205380">
        <ele>554.2</ele>
        <time>2019-05-12T08:52:03Z</time>
      </trkpt>
      <trkpt lat="39.1787870" lon="-1.5206070">
        <ele>554.2</ele>
        <time>2019-05-12T08:52:04Z</time>
      </trkpt>
      <trkpt lat="39.1788200" lon="-1.5206800">
        <ele>554.2</ele>
        <time>2019-05-12T08:52:05Z</time>
      </trkpt>
      <trkpt lat="39.1788460" lon="-1.5207580">
        <ele>554.4</ele>
        <time>2019-05-12T08:52:06Z</time>
      </trkpt>
      <trkpt lat="39.1788660" lon="-1.5208410">
        <ele>554.4</ele>
        <time>2019-05-12T08:52:07Z</time>
      </trkpt>
      <trkpt lat="39.1788770" lon="-1.5209280">
        <ele>554.4</ele>
        <time>2019-05-12T08:52:08Z</time>
      </trkpt>
      <trkpt lat="39.1788770" lon="-1.5210160">
        <ele>554.4</ele>
        <time>2019-05-12T08:52:09Z</time>
      </trkpt>
      <trkpt lat="39.1788670" lon="-1.5211020">
        <ele>554.6</ele>
        <time>2019-05-12T08:52:10Z</time>
      </trkpt>
      <trkpt lat="39.1788540" lon="-1.5211880">
        <ele>554.6</ele>
        <time>2019-05-12T08:52:11Z</time>
      </trkpt>
      <trkpt lat="39.1788360" lon="-1.5212750">
        <ele>554.8</ele>
        <time>2019-05-12T08:52:12Z</time>
      </trkpt>
      <trkpt lat="39.1788150" lon="-1.5213600">
        <ele>554.8</ele>
        <time>2019-05-12T08:52:13Z</time>
      </trkpt>
      <trkpt lat="39.1787920" lon="-1.5214430">
        <ele>554.8</ele>
        <time>2019-05-12T08:52:14Z</time>
      </trkpt>
      <trkpt lat="39.1787620" lon="-1.5215220">
        <ele>555.0</ele>
        <time>2019-05-12T08:52:15Z</time>
      </trkpt>
      <trkpt lat="39.1787260" lon="-1.5215960">
        <ele>555.2</ele>
        <time>2019-05-12T08:52:16Z</time>
      </trkpt>
      <trkpt lat="39.1786880" lon="-1.5216690">
        <ele>555.2</ele>
        <time>2019-05-12T08:52:17Z</time>
      </trkpt>
      <trkpt lat="39.1786530" lon="-1.5217430">
        <ele>555.2</ele>
        <time>2019-05-12T08:52:18Z</time>
      </trkpt>
      <trkpt lat="39.1786230" lon="-1.5218200">
        <ele>555.2</ele>
        <time>2019-05-12T08:52:19Z</time>
      </trkpt>
      <trkpt lat="39.1785960" lon="-1.5218990">
        <ele>555.4</ele>
        <time>2019-05-12T08:52:20Z</time>
      </trkpt>
      <trkpt lat="39.1785680" lon="-1.5219770">
        <ele>555.4</ele>
        <time>2019-05-12T08:52:21Z</time>
      </trkpt>
      <trkpt lat="39.1785380" lon="-1.5220520">
        <ele>555.4</ele>
        <time>2019-05-12T08:52:22Z</time>
      </trkpt>
      <trkpt lat="39.1785050" lon="-1.5221250">
        <ele>555.4</ele>
        <time>2019-05-12T08:52:23Z</time>
      </trkpt>
      <trkpt lat="39.1784700" lon="-1.5221980">
        <ele>555.4</ele>
        <time>2019-05-12T08:52:24Z</time>
      </trkpt>
      <trkpt lat="39.1784320" lon="-1.5222690">
        <ele>555.4</ele>
        <time>2019-05-12T08:52:25Z</time>
      </trkpt>
      <trkpt lat="39.1783900" lon="-1.5223390">
        <ele>555.6</ele>
        <time>2019-05-12T08:52:26Z</time>
      </trkpt>
      <trkpt lat="39.1783460" lon="-1.5224070">
        <ele>555.6</ele>
        <time>2019-05-12T08:52:27Z</time>
      </trkpt>
      <trkpt lat="39.1782980" lon="-1.5224720">
        <ele>555.6</ele>
        <time>2019-05-12T08:52:28Z</time>
      </trkpt>
      <trkpt lat="39.1782540" lon="-1.5225390">
        <ele>555.6</ele>
        <time>2019-05-12T08:52:29Z</time>
      </trkpt>
      <trkpt lat="39.1782080" lon="-1.5226030">
        <ele>555.6</ele>
        <time>2019-05-12T08:52:30Z</time>
      </trkpt>
      <trkpt lat="39.1781590" lon="-1.5226650">
        <ele>555.6</ele>
        <time>2019-05-12T08:52:31Z</time>
      </trkpt>
      <trkpt lat="39.1781080" lon="-1.5227230">
        <ele>555.6</ele>
        <time>2019-05-12T08:52:32Z</time>
      </trkpt>
      <trkpt lat="39.1780550" lon="-1.5227760">
        <ele>555.6</ele>
        <time>2019-05-12T08:52:33Z</time>
      </trkpt>
      <trkpt lat="39.1780020" lon="-1.5228280">
        <ele>555.6</ele>
        <time>2019-05-12T08:52:34Z</time>
      </trkpt>
      <trkpt lat="39.1779470" lon="-1.5228780">
        <ele>555.6</ele>
        <time>2019-05-12T08:52:35Z</time>
      </trkpt>
      <trkpt lat="39.1778950" lon="-1.5229290">
        <ele>555.8</ele>
        <time>2019-05-12T08:52:36Z</time>
      </trkpt>
      <trkpt lat="39.1778410" lon="-1.5229790">
        <ele>555.8</ele>
        <time>2019-05-12T08:52:37Z</time>
      </trkpt>
      <trkpt lat="39.1777890" lon="-1.5230310">
        <ele>555.8</ele>
        <time>2019-05-12T08:52:38Z</time>
      </trkpt>
      <trkpt lat="39.1777370" lon="-1.5230830">
        <ele>556.0</ele>
        <time>2019-05-12T08:52:39Z</time>
      </trkpt>
      <trkpt lat="39.1776850" lon="-1.5231340">
        <ele>556.0</ele>
        <time>2019-05-12T08:52:40Z</time>
      </trkpt>
      <trkpt lat="39.1776310" lon="-1.5231820">
        <ele>556.0</ele>
        <time>2019-05-12T08:52:41Z</time>
      </trkpt>
      <trkpt lat="39.1775760" lon="-1.5232260">
        <ele>556.0</ele>
        <time>2019-05-12T08:52:42Z</time>
      </trkpt>
      <trkpt lat="39.1775220" lon="-1.5232690">
        <ele>556.0</ele>
        <time>2019-05-12T08:52:43Z</time>
      </trkpt>
      <trkpt lat="39.1774660" lon="-1.5233070">
        <ele>556.0</ele>
        <time>2019-05-12T08:52:44Z</time>
      </trkpt>
      <trkpt lat="39.1774060" lon="-1.5233380">
        <ele>556.2</ele>
        <time>2019-05-12T08:52:45Z</time>
      </trkpt>
      <trkpt lat="39.1773450" lon="-1.5233640">
        <ele>556.2</ele>
        <time>2019-05-12T08:52:46Z</time>
      </trkpt>
      <trkpt lat="39.1772840" lon="-1.5233920">
        <ele>556.4</ele>
        <time>2019-05-12T08:52:47Z</time>
      </trkpt>
      <trkpt lat="39.1772220" lon="-1.5234200">
        <ele>556.6</ele>
        <time>2019-05-12T08:52:48Z</time>
      </trkpt>
      <trkpt lat="39.1771590" lon="-1.5234480">
        <ele>556.6</ele>
        <time>2019-05-12T08:52:49Z</time>
      </trkpt>
      <trkpt lat="39.1770980" lon="-1.5234790">
        <ele>556.6</ele>
        <time>2019-05-12T08:52:50Z</time>
      </trkpt>
      <trkpt lat="39.1770350" lon="-1.5235100">
        <ele>556.8</ele>
        <time>2019-05-12T08:52:51Z</time>
      </trkpt>
      <trkpt lat="39.1769720" lon="-1.5235380">
        <ele>556.8</ele>
        <time>2019-05-12T08:52:52Z</time>
      </trkpt>
      <trkpt lat="39.1769120" lon="-1.5235690">
        <ele>556.8</ele>
        <time>2019-05-12T08:52:53Z</time>
      </trkpt>
      <trkpt lat="39.1768530" lon="-1.5235990">
        <ele>556.8</ele>
        <time>2019-05-12T08:52:54Z</time>
      </trkpt>
      <trkpt lat="39.1767940" lon="-1.5236300">
        <ele>556.8</ele>
        <time>2019-05-12T08:52:55Z</time>
      </trkpt>
      <trkpt lat="39.1767350" lon="-1.5236570">
        <ele>557.0</ele>
        <time>2019-05-12T08:52:56Z</time>
      </trkpt>
      <trkpt lat="39.1766770" lon="-1.5236830">
        <ele>557.0</ele>
        <time>2019-05-12T08:52:57Z</time>
      </trkpt>
      <trkpt lat="39.1766200" lon="-1.5237090">
        <ele>557.0</ele>
        <time>2019-05-12T08:52:58Z</time>
      </trkpt>
      <trkpt lat="39.1765660" lon="-1.5237360">
        <ele>557.0</ele>
        <time>2019-05-12T08:52:59Z</time>
      </trkpt>
      <trkpt lat="39.1765070" lon="-1.5237610">
        <ele>557.0</ele>
        <time>2019-05-12T08:53:00Z</time>
      </trkpt>
      <trkpt lat="39.1764490" lon="-1.5237870">
        <ele>557.0</ele>
        <time>2019-05-12T08:53:01Z</time>
      </trkpt>
      <trkpt lat="39.1763960" lon="-1.5238260">
        <ele>557.0</ele>
        <time>2019-05-12T08:53:02Z</time>
      </trkpt>
      <trkpt lat="39.1763420" lon="-1.5238670">
        <ele>557.0</ele>
        <time>2019-05-12T08:53:03Z</time>
      </trkpt>
      <trkpt lat="39.1762920" lon="-1.5239090">
        <ele>557.2</ele>
        <time>2019-05-12T08:53:04Z</time>
      </trkpt>
      <trkpt lat="39.1762480" lon="-1.5239600">
        <ele>557.2</ele>
        <time>2019-05-12T08:53:05Z</time>
      </trkpt>
      <trkpt lat="39.1762100" lon="-1.5240170">
        <ele>557.4</ele>
        <time>2019-05-12T08:53:06Z</time>
      </trkpt>
      <trkpt lat="39.1761830" lon="-1.5240870">
        <ele>557.4</ele>
        <time>2019-05-12T08:53:07Z</time>
      </trkpt>
      <trkpt lat="39.1761600" lon="-1.5241590">
        <ele>557.6</ele>
        <time>2019-05-12T08:53:08Z</time>
      </trkpt>
      <trkpt lat="39.1761530" lon="-1.5242420">
        <ele>557.6</ele>
        <time>2019-05-12T08:53:09Z</time>
      </trkpt>
      <trkpt lat="39.1761450" lon="-1.5243260">
        <ele>557.8</ele>
        <time>2019-05-12T08:53:10Z</time>
      </trkpt>
      <trkpt lat="39.1761380" lon="-1.5244050">
        <ele>557.8</ele>
        <time>2019-05-12T08:53:11Z</time>
      </trkpt>
      <trkpt lat="39.1761350" lon="-1.5244850">
        <ele>557.8</ele>
        <time>2019-05-12T08:53:12Z</time>
      </trkpt>
      <trkpt lat="39.1761370" lon="-1.5245650">
        <ele>557.8</ele>
        <time>2019-05-12T08:53:13Z</time>
      </trkpt>
      <trkpt lat="39.1761470" lon="-1.5246460">
        <ele>557.8</ele>
        <time>2019-05-12T08:53:14Z</time>
      </trkpt>
      <trkpt lat="39.1761700" lon="-1.5247240">
        <ele>557.8</ele>
        <time>2019-05-12T08:53:15Z</time>
      </trkpt>
      <trkpt lat="39.1762050" lon="-1.5247960">
        <ele>558.0</ele>
        <time>2019-05-12T08:53:16Z</time>
      </trkpt>
      <trkpt lat="39.1762500" lon="-1.5248600">
        <ele>558.0</ele>
        <time>2019-05-12T08:53:17Z</time>
      </trkpt>
      <trkpt lat="39.1763010" lon="-1.5249130">
        <ele>558.2</ele>
        <time>2019-05-12T08:53:18Z</time>
      </trkpt>
      <trkpt lat="39.1763580" lon="-1.5249570">
        <ele>558.4</ele>
        <time>2019-05-12T08:53:19Z</time>
      </trkpt>
      <trkpt lat="39.1764150" lon="-1.5249940">
        <ele>558.4</ele>
        <time>2019-05-12T08:53:20Z</time>
      </trkpt>
      <trkpt lat="39.1764740" lon="-1.5250230">
        <ele>558.4</ele>
        <time>2019-05-12T08:53:21Z</time>
      </trkpt>
      <trkpt lat="39.1765340" lon="-1.5250450">
        <ele>558.6</ele>
        <time>2019-05-12T08:53:22Z</time>
      </trkpt>
      <trkpt lat="39.1765950" lon="-1.5250620">
        <ele>558.6</ele>
        <time>2019-05-12T08:53:23Z</time>
      </trkpt>
      <trkpt lat="39.1766570" lon="-1.5250780">
        <ele>558.6</ele>
        <time>2019-05-12T08:53:24Z</time>
      </trkpt>
      <trkpt lat="39.1767170" lon="-1.5250910">
        <ele>558.6</ele>
        <time>2019-05-12T08:53:25Z</time>
      </trkpt>
      <trkpt lat="39.1767770" lon="-1.5251000">
        <ele>558.6</ele>
        <time>2019-05-12T08:53:26Z</time>
      </trkpt>
      <trkpt lat="39.1768360" lon="-1.5251080">
        <ele>558.8</ele>
        <time>2019-05-12T08:53:27Z</time>
      </trkpt>
      <trkpt lat="39.1768960" lon="-1.5251190">
        <ele>558.8</ele>
        <time>2019-05-12T08:53:28Z</time>
      </trkpt>
      <trkpt lat="39.1769580" lon="-1.5251340">
        <ele>558.8</ele>
        <time>2019-05-12T08:53:29Z</time>
      </trkpt>
      <trkpt lat="39.1770200" lon="-1.5251490">
        <ele>558.8</ele>
        <time>2019-05-12T08:53:30Z</time>
      </trkpt>
      <trkpt lat="39.1770810" lon="-1.5251590">
        <ele>559.0</ele>
        <time>2019-05-12T08:53:31Z</time>
      </trkpt>
      <trkpt lat="39.1771450" lon="-1.5251610">
        <ele>559.0</ele>
        <time>2019-05-12T08:53:32Z</time>
      </trkpt>
      <trkpt lat="39.1772070" lon="-1.5251610">
        <ele>559.0</ele>
        <time>2019-05-12T08:53:33Z</time>
      </trkpt>
      <trkpt lat="39.1772710" lon="-1.5251530">
        <ele>559.2</ele>
        <time>2019-05-12T08:53:34Z</time>
      </trkpt>
      <trkpt lat="39.1773330" lon="-1.5251450">
        <ele>559.2</ele>
        <time>2019-05-12T08:53:35Z</time>
      </trkpt>
      <trkpt lat="39.1773980" lon="-1.5251370">
        <ele>559.2</ele>
        <time>2019-05-12T08:53:36Z</time>
      </trkpt>
      <trkpt lat="39.1774630" lon="-1.5251280">
        <ele>559.2</ele>
        <time>2019-05-12T08:53:37Z</time>
      </trkpt>
      <trkpt lat="39.1775270" lon="-1.5251190">
        <ele>559.2</ele>
        <time>2019-05-12T08:53:38Z</time>
      </trkpt>
      <trkpt lat="39.1775900" lon="-1.5251090">
        <ele>559.2</ele>
        <time>2019-05-12T08:53:39Z</time>
      </trkpt>
      <trkpt lat="39.1776560" lon="-1.5251020">
        <ele>559.2</ele>
        <time>2019-05-12T08:53:40Z</time>
      </trkpt>
      <trkpt lat="39.1777210" lon="-1.5250970">
        <ele>559.2</ele>
        <time>2019-05-12T08:53:41Z</time>
      </trkpt>
      <trkpt lat="39.1777860" lon="-1.5250940">
        <ele>559.2</ele>
        <time>2019-05-12T08:53:42Z</time>
      </trkpt>
      <trkpt lat="39.1778540" lon="-1.5250910">
        <ele>559.2</ele>
        <time>2019-05-12T08:53:43Z</time>
      </trkpt>
      <trkpt lat="39.1779200" lon="-1.5250880">
        <ele>559.2</ele>
        <time>2019-05-12T08:53:44Z</time>
      </trkpt>
      <trkpt lat="39.1779870" lon="-1.5250770">
        <ele>559.2</ele>
        <time>2019-05-12T08:53:45Z</time>
      </trkpt>
      <trkpt lat="39.1780520" lon="-1.5250580">
        <ele>559.2</ele>
        <time>2019-05-12T08:53:46Z</time>
      </trkpt>
      <trkpt lat="39.1781140" lon="-1.5250340">
        <ele>559.2</ele>
        <time>2019-05-12T08:53:47Z</time>
      </trkpt>
      <trkpt lat="39.1781740" lon="-1.5250090">
        <ele>559.2</ele>
        <time>2019-05-12T08:53:48Z</time>
      </trkpt>
      <trkpt lat="39.1782320" lon="-1.5249840">
        <ele>559.2</ele>
        <time>2019-05-12T08:53:49Z</time>
      </trkpt>
      <trkpt lat="39.1782900" lon="-1.5249600">
        <ele>559.2</ele>
        <time>2019-05-12T08:53:50Z</time>
      </trkpt>
      <trkpt lat="39.1783490" lon="-1.5249350">
        <ele>559.4</ele>
        <time>2019-05-12T08:53:51Z</time>
      </trkpt>
      <trkpt lat="39.1784070" lon="-1.5249130">
        <ele>559.4</ele>
        <time>2019-05-12T08:53:52Z</time>
      </trkpt>
      <trkpt lat="39.1784660" lon="-1.5248960">
        <ele>559.4</ele>
        <time>2019-05-12T08:53:53Z</time>
      </trkpt>
      <trkpt lat="39.1785250" lon="-1.5248800">
        <ele>559.4</ele>
        <time>2019-05-12T08:53:54Z</time>
      </trkpt>
      <trkpt lat="39.1785840" lon="-1.5248660">
        <ele>559.4</ele>
        <time>2019-05-12T08:53:55Z</time>
      </trkpt>
      <trkpt lat="39.1786430" lon="-1.5248540">
        <ele>559.4</ele>
        <time>2019-05-12T08:53:56Z</time>
      </trkpt>
      <trkpt lat="39.1787010" lon="-1.5248430">
        <ele>559.4</ele>
        <time>2019-05-12T08:53:57Z</time>
      </trkpt>
      <trkpt lat="39.1787590" lon="-1.5248340">
        <ele>559.4</ele>
        <time>2019-05-12T08:53:58Z</time>
      </trkpt>
      <trkpt lat="39.1788180" lon="-1.5248300">
        <ele>559.6</ele>
        <time>2019-05-12T08:53:59Z</time>
      </trkpt>
      <trkpt lat="39.1788770" lon="-1.5248270">
        <ele>559.6</ele>
        <time>2019-05-12T08:54:00Z</time>
      </trkpt>
      <trkpt lat="39.1789350" lon="-1.5248250">
        <ele>559.6</ele>
        <time>2019-05-12T08:54:01Z</time>
      </trkpt>
      <trkpt lat="39.1789960" lon="-1.5248220">
        <ele>559.8</ele>
        <time>2019-05-12T08:54:02Z</time>
      </trkpt>
      <trkpt lat="39.1790560" lon="-1.5248260">
        <ele>559.8</ele>
        <time>2019-05-12T08:54:03Z</time>
      </trkpt>
      <trkpt lat="39.1791080" lon="-1.5248450">
        <ele>560.0</ele>
        <time>2019-05-12T08:54:04Z</time>
      </trkpt>
      <trkpt lat="39.1791480" lon="-1.5248750">
        <ele>560.4</ele>
        <time>2019-05-12T08:54:05Z</time>
      </trkpt>
      <trkpt lat="39.1791760" lon="-1.5249060">
        <ele>560.6</ele>
        <time>2019-05-12T08:54:06Z</time>
      </trkpt>
      <trkpt lat="39.1791830" lon="-1.5249370">
        <ele>560.8</ele>
        <time>2019-05-12T08:54:07Z</time>
      </trkpt>
      <trkpt lat="39.1791670" lon="-1.5249620">
        <ele>560.8</ele>
        <time>2019-05-12T08:54:08Z</time>
      </trkpt>
      <trkpt lat="39.1791420" lon="-1.5249830">
        <ele>560.8</ele>
        <time>2019-05-12T08:54:09Z</time>
      </trkpt>
      <trkpt lat="39.1791090" lon="-1.5249930">
        <ele>560.8</ele>
        <time>2019-05-12T08:54:10Z</time>
      </trkpt>
      <trkpt lat="39.1790710" lon="-1.5249970">
        <ele>561.0</ele>
        <time>2019-05-12T08:54:11Z</time>
      </trkpt>
      <trkpt lat="39.1790320" lon="-1.5250030">
        <ele>561.2</ele>
        <time>2019-05-12T08:54:12Z</time>
      </trkpt>
      <trkpt lat="39.1789860" lon="-1.5250130">
        <ele>562.0</ele>
        <time>2019-05-12T08:54:13Z</time>
      </trkpt>
      <trkpt lat="39.1789380" lon="-1.5250270">
        <ele>562.4</ele>
        <time>2019-05-12T08:54:14Z</time>
      </trkpt>
      <trkpt lat="39.1788890" lon="-1.5250450">
        <ele>562.8</ele>
        <time>2019-05-12T08:54:15Z</time>
      </trkpt>
      <trkpt lat="39.1788400" lon="-1.5250710">
        <ele>563.2</ele>
        <time>2019-05-12T08:54:16Z</time>
      </trkpt>
      <trkpt lat="39.1787930" lon="-1.5251020">
        <ele>563.4</ele>
        <time>2019-05-12T08:54:17Z</time>
      </trkpt>
      <trkpt lat="39.1787430" lon="-1.5251320">
        <ele>563.6</ele>
        <time>2019-05-12T08:54:18Z</time>
      </trkpt>
      <trkpt lat="39.1786910" lon="-1.5251600">
        <ele>563.8</ele>
        <time>2019-05-12T08:54:19Z</time>
      </trkpt>
      <trkpt lat="39.1786410" lon="-1.5251900">
        <ele>563.8</ele>
        <time>2019-05-12T08:54:20Z</time>
      </trkpt>
      <trkpt lat="39.1785980" lon="-1.5252310">
        <ele>564.0</ele>
        <time>2019-05-12T08:54:21Z</time>
      </trkpt>
      <trkpt lat="39.1785650" lon="-1.5252840">
        <ele>564.0</ele>
        <time>2019-05-12T08:54:22Z</time>
      </trkpt>
      <trkpt lat="39.1785450" lon="-1.5253420">
        <ele>564.0</ele>
        <time>2019-05-12T08:54:23Z</time>
      </trkpt>
      <trkpt lat="39.1785380" lon="-1.5254010">
        <ele>564.0</ele>
        <time>2019-05-12T08:54:24Z</time>
      </trkpt>
      <trkpt lat="39.1785390" lon="-1.5254530">
        <ele>564.0</ele>
        <time>2019-05-12T08:54:25Z</time>
      </trkpt>
      <trkpt lat="39.1785410" lon="-1.5254990">
        <ele>564.2</ele>
        <time>2019-05-12T08:54:26Z</time>
      </trkpt>
      <trkpt lat="39.1785400" lon="-1.5255390">
        <ele>564.2</ele>
        <time>2019-05-12T08:54:27Z</time>
      </trkpt>
      <trkpt lat="39.1785490" lon="-1.5255740">
        <ele>564.2</ele>
        <time>2019-05-12T08:54:28Z</time>
      </trkpt>
      <trkpt lat="39.1785710" lon="-1.5255990">
        <ele>564.2</ele>
        <time>2019-05-12T08:54:29Z</time>
      </trkpt>
      <trkpt lat="39.1785990" lon="-1.5256110">
        <ele>564.2</ele>
        <time>2019-05-12T08:54:30Z</time>
      </trkpt>
      <trkpt lat="39.1786340" lon="-1.5256100">
        <ele>564.4</ele>
        <time>2019-05-12T08:54:31Z</time>
      </trkpt>
      <trkpt lat="39.1786720" lon="-1.5255990">
        <ele>564.6</ele>
        <time>2019-05-12T08:54:32Z</time>
      </trkpt>
      <trkpt lat="39.1787150" lon="-1.5255860">
        <ele>564.8</ele>
        <time>2019-05-12T08:54:33Z</time>
      </trkpt>
      <trkpt lat="39.1787600" lon="-1.5255710">
        <ele>565.2</ele>
        <time>2019-05-12T08:54:34Z</time>
      </trkpt>
      <trkpt lat="39.1788080" lon="-1.5255550">
        <ele>565.4</ele>
        <time>2019-05-12T08:54:35Z</time>
      </trkpt>
      <trkpt lat="39.1788570" lon="-1.5255360">
        <ele>565.8</ele>
        <time>2019-05-12T08:54:36Z</time>
      </trkpt>
      <trkpt lat="39.1789070" lon="-1.5255150">
        <ele>566.2</ele>
        <time>2019-05-12T08:54:37Z</time>
      </trkpt>
      <trkpt lat="39.1789590" lon="-1.5254940">
        <ele>566.6</ele>
        <time>2019-05-12T08:54:38Z</time>
      </trkpt>
      <trkpt lat="39.1790120" lon="-1.5254730">
        <ele>566.6</ele>
        <time>2019-05-12T08:54:39Z</time>
      </trkpt>
      <trkpt lat="39.1790660" lon="-1.5254510">
        <ele>566.8</ele>
        <time>2019-05-12T08:54:40Z</time>
      </trkpt>
      <trkpt lat="39.1791220" lon="-1.5254300">
        <ele>566.8</ele>
        <time>2019-05-12T08:54:41Z</time>
      </trkpt>
      <trkpt lat="39.1791790" lon="-1.5254100">
        <ele>566.8</ele>
        <time>2019-05-12T08:54:42Z</time>
      </trkpt>
      <trkpt lat="39.1792360" lon="-1.5253930">
        <ele>566.8</ele>
        <time>2019-05-12T08:54:43Z</time>
      </trkpt>
      <trkpt lat="39.1792940" lon="-1.5253780">
        <ele>567.0</ele>
        <time>2019-05-12T08:54:44Z</time>
      </trkpt>
      <trkpt lat="39.1793530" lon="-1.5253630">
        <ele>567.0</ele>
        <time>2019-05-12T08:54:45Z</time>
      </trkpt>
      <trkpt lat="39.1794120" lon="-1.5253510">
        <ele>567.2</ele>
        <time>2019-05-12T08:54:46Z</time>
      </trkpt>
      <trkpt lat="39.1794710" lon="-1.5253400">
        <ele>567.2</ele>
        <time>2019-05-12T08:54:47Z</time>
      </trkpt>
      <trkpt lat="39.1795310" lon="-1.5253320">
        <ele>567.4</ele>
        <time>2019-05-12T08:54:48Z</time>
      </trkpt>
      <trkpt lat="39.1795900" lon="-1.5253250">
        <ele>567.4</ele>
        <time>2019-05-12T08:54:49Z</time>
      </trkpt>
      <trkpt lat="39.1796500" lon="-1.5253180">
        <ele>567.6</ele>
        <time>2019-05-12T08:54:50Z</time>
      </trkpt>
      <trkpt lat="39.1797100" lon="-1.5253120">
        <ele>567.6</ele>
        <time>2019-05-12T08:54:51Z</time>
      </trkpt>
      <trkpt lat="39.1797700" lon="-1.5253050">
        <ele>567.6</ele>
        <time>2019-05-12T08:54:52Z</time>
      </trkpt>
      <trkpt lat="39.1798270" lon="-1.5252980">
        <ele>567.6</ele>
        <time>2019-05-12T08:54:53Z</time>
      </trkpt>
      <trkpt lat="39.1798840" lon="-1.5252930">
        <ele>567.8</ele>
        <time>2019-05-12T08:54:54Z</time>
      </trkpt>
      <trkpt lat="39.1799380" lon="-1.5252880">
        <ele>567.8</ele>
        <time>2019-05-12T08:54:55Z</time>
      </trkpt>
      <trkpt lat="39.1799900" lon="-1.5252830">
        <ele>567.8</ele>
        <time>2019-05-12T08:54:56Z</time>
      </trkpt>
      <trkpt lat="39.1800400" lon="-1.5252780">
        <ele>567.8</ele>
        <time>2019-05-12T08:54:57Z</time>
      </trkpt>
      <trkpt lat="39.1800870" lon="-1.5252730">
        <ele>567.8</ele>
        <time>2019-05-12T08:54:58Z</time>
      </trkpt>
      <trkpt lat="39.1801310" lon="-1.5252700">
        <ele>567.8</ele>
        <time>2019-05-12T08:54:59Z</time>
      </trkpt>
      <trkpt lat="39.1801640" lon="-1.5252770">
        <ele>567.8</ele>
        <time>2019-05-12T08:55:00Z</time>
      </trkpt>
      <trkpt lat="39.1801800" lon="-1.5253000">
        <ele>567.8</ele>
        <time>2019-05-12T08:55:01Z</time>
      </trkpt>
      <trkpt lat="39.1801810" lon="-1.5253270">
        <ele>567.8</ele>
        <time>2019-05-12T08:55:02Z</time>
      </trkpt>
      <trkpt lat="39.1801750" lon="-1.5253550">
        <ele>567.8</ele>
        <time>2019-05-12T08:55:03Z</time>
      </trkpt>
      <trkpt lat="39.1801750" lon="-1.5253550">
        <ele>567.8</ele>
        <time>2019-05-12T08:55:04Z</time>
      </trkpt>
      <trkpt lat="39.1801630" lon="-1.5253810">
        <ele>567.8</ele>
        <time>2019-05-12T08:55:05Z</time>
      </trkpt>
      <trkpt lat="39.1801480" lon="-1.5254010">
        <ele>567.8</ele>
        <time>2019-05-12T08:55:06Z</time>
      </trkpt>
      <trkpt lat="39.1801350" lon="-1.5254140">
        <ele>568.0</ele>
        <time>2019-05-12T08:55:07Z</time>
      </trkpt>
      <trkpt lat="39.1801240" lon="-1.5254250">
        <ele>568.0</ele>
        <time>2019-05-12T08:55:08Z</time>
      </trkpt>
      <trkpt lat="39.1801100" lon="-1.5254340">
        <ele>568.0</ele>
        <time>2019-05-12T08:55:09Z</time>
      </trkpt>
      <trkpt lat="39.1800940" lon="-1.5254430">
        <ele>568.0</ele>
        <time>2019-05-12T08:55:10Z</time>
      </trkpt>
      <trkpt lat="39.1800550" lon="-1.5254640">
        <ele>568.0</ele>
        <time>2019-05-12T08:55:11Z</time>
      </trkpt>
      <trkpt lat="39.1800360" lon="-1.5254700">
        <ele>568.0</ele>
        <time>2019-05-12T08:55:12Z</time>
      </trkpt>
      <trkpt lat="39.1800140" lon="-1.5254810">
        <ele>568.0</ele>
        <time>2019-05-12T08:55:13Z</time>
      </trkpt>
      <trkpt lat="39.1799920" lon="-1.5254920">
        <ele>568.4</ele>
        <time>2019-05-12T08:55:14Z</time>
      </trkpt>
      <trkpt lat="39.1799660" lon="-1.5255010">
        <ele>568.6</ele>
        <time>2019-05-12T08:55:15Z</time>
      </trkpt>
      <trkpt lat="39.1799390" lon="-1.5255100">
        <ele>569.0</ele>
        <time>2019-05-12T08:55:16Z</time>
      </trkpt>
      <trkpt lat="39.1799110" lon="-1.5255200">
        <ele>569.4</ele>
        <time>2019-05-12T08:55:17Z</time>
      </trkpt>
      <trkpt lat="39.1798840" lon="-1.5255300">
        <ele>569.8</ele>
        <time>2019-05-12T08:55:18Z</time>
      </trkpt>
      <trkpt lat="39.1798580" lon="-1.5255400">
        <ele>570.0</ele>
        <time>2019-05-12T08:55:19Z</time>
      </trkpt>
      <trkpt lat="39.1798320" lon="-1.5255520">
        <ele>570.2</ele>
        <time>2019-05-12T08:55:20Z</time>
      </trkpt>
      <trkpt lat="39.1798320" lon="-1.5255520">
        <ele>570.4</ele>
        <time>2019-05-12T08:55:21Z</time>
      </trkpt>
      <trkpt lat="39.1798070" lon="-1.5255660">
        <ele>570.6</ele>
        <time>2019-05-12T08:55:22Z</time>
      </trkpt>
      <trkpt lat="39.1797830" lon="-1.5255770">
        <ele>570.8</ele>
        <time>2019-05-12T08:55:23Z</time>
      </trkpt>
      <trkpt lat="39.1797610" lon="-1.5255850">
        <ele>571.0</ele>
        <time>2019-05-12T08:55:24Z</time>
      </trkpt>
      <trkpt lat="39.1797420" lon="-1.5255940">
        <ele>571.2</ele>
        <time>2019-05-12T08:55:25Z</time>
      </trkpt>
      <trkpt lat="39.1797230" lon="-1.5256100">
        <ele>571.2</ele>
        <time>2019-05-12T08:55:26Z</time>
      </trkpt>
      <trkpt lat="39.1797170" lon="-1.5256140">
        <ele>571.4</ele>
        <time>2019-05-12T08:55:27Z</time>
      </trkpt>
      <trkpt lat="39.1797100" lon="-1.5256230">
        <ele>571.8</ele>
        <time>2019-05-12T08:55:28Z</time>
      </trkpt>
      <trkpt lat="39.1796940" lon="-1.5256250">
        <ele>572.0</ele>
        <time>2019-05-12T08:55:29Z</time>
      </trkpt>
      <trkpt lat="39.1796940" lon="-1.5256250">
        <ele>572.2</ele>
        <time>2019-05-12T08:55:30Z</time>
      </trkpt>
      <trkpt lat="39.1796670" lon="-1.5256310">
        <ele>572.4</ele>
        <time>2019-05-12T08:55:31Z</time>
      </trkpt>
      <trkpt lat="39.1796550" lon="-1.5256380">
        <ele>572.8</ele>
        <time>2019-05-12T08:55:32Z</time>
      </trkpt>
      <trkpt lat="39.1796400" lon="-1.5256430">
        <ele>573.4</ele>
        <time>2019-05-12T08:55:33Z</time>
      </trkpt>
      <trkpt lat="39.1796240" lon="-1.5256450">
        <ele>573.6</ele>
        <time>2019-05-12T08:55:34Z</time>
      </trkpt>
      <trkpt lat="39.1796110" lon="-1.5256400">
        <ele>573.8</ele>
        <time>2019-05-12T08:55:35Z</time>
      </trkpt>
      <trkpt lat="39.1796000" lon="-1.5256390">
        <ele>574.0</ele>
        <time>2019-05-12T08:55:36Z</time>
      </trkpt>
      <trkpt lat="39.1795870" lon="-1.5256370">
        <ele>574.0</ele>
        <time>2019-05-12T08:55:37Z</time>
      </trkpt>
      <trkpt lat="39.1795750" lon="-1.5256360">
        <ele>574.4</ele>
        <time>2019-05-12T08:55:38Z</time>
      </trkpt>
      <trkpt lat="39.1795640" lon="-1.5256380">
        <ele>574.4</ele>
        <time>2019-05-12T08:55:39Z</time>
      </trkpt>
      <trkpt lat="39.1795550" lon="-1.5256410">
        <ele>574.6</ele>
        <time>2019-05-12T08:55:40Z</time>
      </trkpt>
      <trkpt lat="39.1795480" lon="-1.5256480">
        <ele>574.8</ele>
        <time>2019-05-12T08:55:41Z</time>
      </trkpt>
      <trkpt lat="39.1795420" lon="-1.5256520">
        <ele>575.0</ele>
        <time>2019-05-12T08:55:42Z</time>
      </trkpt>
      <trkpt lat="39.1795350" lon="-1.5256570">
        <ele>575.2</ele>
        <time>2019-05-12T08:55:43Z</time>
      </trkpt>
      <trkpt lat="39.1795270" lon="-1.5256620">
        <ele>575.4</ele>
        <time>2019-05-12T08:55:44Z</time>
      </trkpt>
      <trkpt lat="39.1795190" lon="-1.5256650">
        <ele>575.6</ele>
        <time>2019-05-12T08:55:45Z</time>
      </trkpt>
      <trkpt lat="39.1795190" lon="-1.5256650">
        <ele>575.8</ele>
        <time>2019-05-12T08:55:46Z</time>
      </trkpt>
      <trkpt lat="39.1795110" lon="-1.5256670">
        <ele>576.0</ele>
        <time>2019-05-12T08:55:47Z</time>
      </trkpt>
      <trkpt lat="39.1795110" lon="-1.5256670">
        <ele>576.2</ele>
        <time>2019-05-12T08:55:48Z</time>
      </trkpt>
      <trkpt lat="39.1794960" lon="-1.5256730">
        <ele>576.4</ele>
        <time>2019-05-12T08:55:49Z</time>
      </trkpt>
      <trkpt lat="39.1794880" lon="-1.5256770">
        <ele>576.6</ele>
        <time>2019-05-12T08:55:50Z</time>
      </trkpt>
      <trkpt lat="39.1794800" lon="-1.5256820">
        <ele>576.8</ele>
        <time>2019-05-12T08:55:51Z</time>
      </trkpt>
      <trkpt lat="39.1794730" lon="-1.5256870">
        <ele>577.2</ele>
        <time>2019-05-12T08:55:52Z</time>
      </trkpt>
      <trkpt lat="39.1794660" lon="-1.5256920">
        <ele>577.4</ele>
        <time>2019-05-12T08:55:53Z</time>
      </trkpt>
      <trkpt lat="39.1794590" lon="-1.5256950">
        <ele>577.4</ele>
        <time>2019-05-12T08:55:54Z</time>
      </trkpt>
      <trkpt lat="39.1794590" lon="-1.5256950">
        <ele>577.6</ele>
        <time>2019-05-12T08:55:55Z</time>
      </trkpt>
      <trkpt lat="39.1794450" lon="-1.5257010">
        <ele>577.6</ele>
        <time>2019-05-12T08:55:56Z</time>
      </trkpt>
      <trkpt lat="39.1794400" lon="-1.5257030">
        <ele>577.8</ele>
        <time>2019-05-12T08:55:57Z</time>
      </trkpt>
      <trkpt lat="39.1794360" lon="-1.5257050">
        <ele>578.2</ele>
        <time>2019-05-12T08:55:58Z</time>
      </trkpt>
      <trkpt lat="39.1794300" lon="-1.5257090">
        <ele>578.4</ele>
        <time>2019-05-12T08:55:59Z</time>
      </trkpt>
      <trkpt lat="39.1794230" lon="-1.5257140">
        <ele>578.6</ele>
        <time>2019-05-12T08:56:00Z</time>
      </trkpt>
      <trkpt lat="39.1794130" lon="-1.5257190">
        <ele>578.8</ele>
        <time>2019-05-12T08:56:01Z</time>
      </trkpt>
      <trkpt lat="39.1794030" lon="-1.5257240">
        <ele>578.8</ele>
        <time>2019-05-12T08:56:02Z</time>
      </trkpt>
      <trkpt lat="39.1793920" lon="-1.5257300">
        <ele>579.0</ele>
        <time>2019-05-12T08:56:03Z</time>
      </trkpt>
      <trkpt lat="39.1793810" lon="-1.5257380">
        <ele>579.2</ele>
        <time>2019-05-12T08:56:04Z</time>
      </trkpt>
      <trkpt lat="39.1793710" lon="-1.5257450">
        <ele>579.4</ele>
        <time>2019-05-12T08:56:05Z</time>
      </trkpt>
      <trkpt lat="39.1793620" lon="-1.5257510">
        <ele>579.6</ele>
        <time>2019-05-12T08:56:06Z</time>
      </trkpt>
      <trkpt lat="39.1793550" lon="-1.5257560">
        <ele>579.8</ele>
        <time>2019-05-12T08:56:07Z</time>
      </trkpt>
      <trkpt lat="39.1793470" lon="-1.5257630">
        <ele>580.0</ele>
        <time>2019-05-12T08:56:08Z</time>
      </trkpt>
      <trkpt lat="39.1793390" lon="-1.5257690">
        <ele>580.2</ele>
        <time>2019-05-12T08:56:09Z</time>
      </trkpt>
      <trkpt lat="39.1793280" lon="-1.5257790">
        <ele>580.2</ele>
        <time>2019-05-12T08:56:10Z</time>
      </trkpt>
      <trkpt lat="39.1793230" lon="-1.5257850">
        <ele>580.4</ele>
        <time>2019-05-12T08:56:11Z</time>
      </trkpt>
      <trkpt lat="39.1793180" lon="-1.5257910">
        <ele>580.4</ele>
        <time>2019-05-12T08:56:12Z</time>
      </trkpt>
      <trkpt lat="39.1793100" lon="-1.5258010">
        <ele>580.4</ele>
        <time>2019-05-12T08:56:13Z</time>
      </trkpt>
      <trkpt lat="39.1793030" lon="-1.5258100">
        <ele>580.6</ele>
        <time>2019-05-12T08:56:14Z</time>
      </trkpt>
      <trkpt lat="39.1792960" lon="-1.5258170">
        <ele>580.8</ele>
        <time>2019-05-12T08:56:15Z</time>
      </trkpt>
      <trkpt lat="39.1792880" lon="-1.5258240">
        <ele>580.8</ele>
        <time>2019-05-12T08:56:16Z</time>
      </trkpt>
      <trkpt lat="39.1792790" lon="-1.5258320">
        <ele>580.8</ele>
        <time>2019-05-12T08:56:17Z</time>
      </trkpt>
      <trkpt lat="39.1792720" lon="-1.5258390">
        <ele>581.0</ele>
        <time>2019-05-12T08:56:18Z</time>
      </trkpt>
      <trkpt lat="39.1792650" lon="-1.5258500">
        <ele>581.2</ele>
        <time>2019-05-12T08:56:19Z</time>
      </trkpt>
      <trkpt lat="39.1792560" lon="-1.5258590">
        <ele>581.4</ele>
        <time>2019-05-12T08:56:20Z</time>
      </trkpt>
      <trkpt lat="39.1792460" lon="-1.5258620">
        <ele>581.6</ele>
        <time>2019-05-12T08:56:21Z</time>
      </trkpt>
      <trkpt lat="39.1792360" lon="-1.5258710">
        <ele>581.6</ele>
        <time>2019-05-12T08:56:22Z</time>
      </trkpt>
      <trkpt lat="39.1792270" lon="-1.5258790">
        <ele>581.8</ele>
        <time>2019-05-12T08:56:23Z</time>
      </trkpt>
      <trkpt lat="39.1792190" lon="-1.5258830">
        <ele>582.0</ele>
        <time>2019-05-12T08:56:24Z</time>
      </trkpt>
      <trkpt lat="39.1792120" lon="-1.5258910">
        <ele>582.4</ele>
        <time>2019-05-12T08:56:25Z</time>
      </trkpt>
      <trkpt lat="39.1792040" lon="-1.5258940">
        <ele>582.6</ele>
        <time>2019-05-12T08:56:26Z</time>
      </trkpt>
      <trkpt lat="39.1791950" lon="-1.5258990">
        <ele>582.8</ele>
        <time>2019-05-12T08:56:27Z</time>
      </trkpt>
      <trkpt lat="39.1791870" lon="-1.5259040">
        <ele>582.8</ele>
        <time>2019-05-12T08:56:28Z</time>
      </trkpt>
      <trkpt lat="39.1791800" lon="-1.5259090">
        <ele>583.0</ele>
        <time>2019-05-12T08:56:29Z</time>
      </trkpt>
      <trkpt lat="39.1791730" lon="-1.5259140">
        <ele>583.0</ele>
        <time>2019-05-12T08:56:30Z</time>
      </trkpt>
      <trkpt lat="39.1791650" lon="-1.5259210">
        <ele>583.2</ele>
        <time>2019-05-12T08:56:31Z</time>
      </trkpt>
      <trkpt lat="39.1791580" lon="-1.5259310">
        <ele>583.4</ele>
        <time>2019-05-12T08:56:32Z</time>
      </trkpt>
      <trkpt lat="39.1791490" lon="-1.5259370">
        <ele>583.6</ele>
        <time>2019-05-12T08:56:33Z</time>
      </trkpt>
      <trkpt lat="39.1791370" lon="-1.5259400">
        <ele>583.8</ele>
        <time>2019-05-12T08:56:34Z</time>
      </trkpt>
      <trkpt lat="39.1791270" lon="-1.5259460">
        <ele>584.2</ele>
        <time>2019-05-12T08:56:35Z</time>
      </trkpt>
      <trkpt lat="39.1791210" lon="-1.5259540">
        <ele>584.4</ele>
        <time>2019-05-12T08:56:36Z</time>
      </trkpt>
      <trkpt lat="39.1791140" lon="-1.5259630">
        <ele>584.4</ele>
        <time>2019-05-12T08:56:37Z</time>
      </trkpt>
      <trkpt lat="39.1791070" lon="-1.5259700">
        <ele>584.6</ele>
        <time>2019-05-12T08:56:38Z</time>
      </trkpt>
      <trkpt lat="39.1791070" lon="-1.5259700">
        <ele>585.0</ele>
        <time>2019-05-12T08:56:39Z</time>
      </trkpt>
      <trkpt lat="39.1790960" lon="-1.5259840">
        <ele>585.2</ele>
        <time>2019-05-12T08:56:40Z</time>
      </trkpt>
      <trkpt lat="39.1790870" lon="-1.5259890">
        <ele>585.4</ele>
        <time>2019-05-12T08:56:41Z</time>
      </trkpt>
      <trkpt lat="39.1790790" lon="-1.5259930">
        <ele>585.6</ele>
        <time>2019-05-12T08:56:42Z</time>
      </trkpt>
      <trkpt lat="39.1790700" lon="-1.5259970">
        <ele>585.8</ele>
        <time>2019-05-12T08:56:43Z</time>
      </trkpt>
      <trkpt lat="39.1790590" lon="-1.5260060">
        <ele>585.8</ele>
        <time>2019-05-12T08:56:44Z</time>
      </trkpt>
      <trkpt lat="39.1790490" lon="-1.5260140">
        <ele>586.0</ele>
        <time>2019-05-12T08:56:45Z</time>
      </trkpt>
      <trkpt lat="39.1790390" lon="-1.5260200">
        <ele>586.2</ele>
        <time>2019-05-12T08:56:46Z</time>
      </trkpt>
      <trkpt lat="39.1790290" lon="-1.5260240">
        <ele>586.2</ele>
        <time>2019-05-12T08:56:47Z</time>
      </trkpt>
      <trkpt lat="39.1790190" lon="-1.5260310">
        <ele>586.6</ele>
        <time>2019-05-12T08:56:48Z</time>
      </trkpt>
      <trkpt lat="39.1790190" lon="-1.5260310">
        <ele>586.8</ele>
        <time>2019-05-12T08:56:49Z</time>
      </trkpt>
      <trkpt lat="39.1789990" lon="-1.5260420">
        <ele>587.0</ele>
        <time>2019-05-12T08:56:50Z</time>
      </trkpt>
      <trkpt lat="39.1789990" lon="-1.5260420">
        <ele>587.2</ele>
        <time>2019-05-12T08:56:51Z</time>
      </trkpt>
      <trkpt lat="39.1789920" lon="-1.5260440">
        <ele>587.4</ele>
        <time>2019-05-12T08:56:52Z</time>
      </trkpt>
      <trkpt lat="39.1789900" lon="-1.5260440">
        <ele>587.6</ele>
        <time>2019-05-12T08:56:53Z</time>
      </trkpt>
      <trkpt lat="39.1789870" lon="-1.5260510">
        <ele>587.6</ele>
        <time>2019-05-12T08:56:54Z</time>
      </trkpt>
      <trkpt lat="39.1789870" lon="-1.5260510">
        <ele>587.6</ele>
        <time>2019-05-12T08:56:55Z</time>
      </trkpt>
      <trkpt lat="39.1789820" lon="-1.5260570">
        <ele>587.8</ele>
        <time>2019-05-12T08:56:56Z</time>
      </trkpt>
      <trkpt lat="39.1789750" lon="-1.5260610">
        <ele>588.0</ele>
        <time>2019-05-12T08:56:57Z</time>
      </trkpt>
      <trkpt lat="39.1789700" lon="-1.5260640">
        <ele>588.2</ele>
        <time>2019-05-12T08:56:58Z</time>
      </trkpt>
      <trkpt lat="39.1789630" lon="-1.5260690">
        <ele>588.4</ele>
        <time>2019-05-12T08:56:59Z</time>
      </trkpt>
      <trkpt lat="39.1789550" lon="-1.5260770">
        <ele>588.4</ele>
        <time>2019-05-12T08:57:00Z</time>
      </trkpt>
      <trkpt lat="39.1789450" lon="-1.5261030">
        <ele>588.6</ele>
        <time>2019-05-12T08:57:01Z</time>
      </trkpt>
      <trkpt lat="39.1789340" lon="-1.5261200">
        <ele>588.6</ele>
        <time>2019-05-12T08:57:02Z</time>
      </trkpt>
      <trkpt lat="39.1789220" lon="-1.5261330">
        <ele>588.6</ele>
        <time>2019-05-12T08:57:03Z</time>
      </trkpt>
      <trkpt lat="39.1789090" lon="-1.5261420">
        <ele>588.6</ele>
        <time>2019-05-12T08:57:04Z</time>
      </trkpt>
      <trkpt lat="39.1788940" lon="-1.5261470">
        <ele>588.8</ele>
        <time>2019-05-12T08:57:05Z</time>
      </trkpt>
      <trkpt lat="39.1788660" lon="-1.5261630">
        <ele>588.8</ele>
        <time>2019-05-12T08:57:06Z</time>
      </trkpt>
      <trkpt lat="39.1788370" lon="-1.5261650">
        <ele>589.0</ele>
        <time>2019-05-12T08:57:07Z</time>
      </trkpt>
      <trkpt lat="39.1788230" lon="-1.5261640">
        <ele>589.0</ele>
        <time>2019-05-12T08:57:08Z</time>
      </trkpt>
      <trkpt lat="39.1788080" lon="-1.5261630">
        <ele>589.2</ele>
        <time>2019-05-12T08:57:09Z</time>
      </trkpt>
      <trkpt lat="39.1787940" lon="-1.5261620">
        <ele>589.4</ele>
        <time>2019-05-12T08:57:10Z</time>
      </trkpt>
      <trkpt lat="39.1787730" lon="-1.5261600">
        <ele>589.8</ele>
        <time>2019-05-12T08:57:11Z</time>
      </trkpt>
      <trkpt lat="39.1787730" lon="-1.5261600">
        <ele>590.2</ele>
        <time>2019-05-12T08:57:12Z</time>
      </trkpt>
      <trkpt lat="39.1787510" lon="-1.5261590">
        <ele>590.6</ele>
        <time>2019-05-12T08:57:13Z</time>
      </trkpt>
      <trkpt lat="39.1787270" lon="-1.5261630">
        <ele>591.0</ele>
        <time>2019-05-12T08:57:14Z</time>
      </trkpt>
      <trkpt lat="39.1787030" lon="-1.5261770">
        <ele>591.2</ele>
        <time>2019-05-12T08:57:15Z</time>
      </trkpt>
      <trkpt lat="39.1786810" lon="-1.5261990">
        <ele>591.8</ele>
        <time>2019-05-12T08:57:16Z</time>
      </trkpt>
      <trkpt lat="39.1786580" lon="-1.5262250">
        <ele>592.0</ele>
        <time>2019-05-12T08:57:17Z</time>
      </trkpt>
      <trkpt lat="39.1786330" lon="-1.5262520">
        <ele>592.2</ele>
        <time>2019-05-12T08:57:18Z</time>
      </trkpt>
      <trkpt lat="39.1786070" lon="-1.5262780">
        <ele>592.2</ele>
        <time>2019-05-12T08:57:19Z</time>
      </trkpt>
      <trkpt lat="39.1785800" lon="-1.5263010">
        <ele>592.4</ele>
        <time>2019-05-12T08:57:20Z</time>
      </trkpt>
      <trkpt lat="39.1785510" lon="-1.5263180">
        <ele>592.4</ele>
        <time>2019-05-12T08:57:21Z</time>
      </trkpt>
      <trkpt lat="39.1784930" lon="-1.5263160">
        <ele>592.4</ele>
        <time>2019-05-12T08:57:22Z</time>
      </trkpt>
      <trkpt lat="39.1784930" lon="-1.5263160">
        <ele>592.6</ele>
        <time>2019-05-12T08:57:23Z</time>
      </trkpt>
      <trkpt lat="39.1784610" lon="-1.5263000">
        <ele>592.6</ele>
        <time>2019-05-12T08:57:24Z</time>
      </trkpt>
      <trkpt lat="39.1784250" lon="-1.5262860">
        <ele>592.6</ele>
        <time>2019-05-12T08:57:25Z</time>
      </trkpt>
      <trkpt lat="39.1783430" lon="-1.5262830">
        <ele>592.8</ele>
        <time>2019-05-12T08:57:26Z</time>
      </trkpt>
      <trkpt lat="39.1783000" lon="-1.5262940">
        <ele>592.8</ele>
        <time>2019-05-12T08:57:27Z</time>
      </trkpt>
      <trkpt lat="39.1782540" lon="-1.5262980">
        <ele>593.0</ele>
        <time>2019-05-12T08:57:28Z</time>
      </trkpt>
      <trkpt lat="39.1782070" lon="-1.5262960">
        <ele>593.0</ele>
        <time>2019-05-12T08:57:29Z</time>
      </trkpt>
      <trkpt lat="39.1781600" lon="-1.5262990">
        <ele>593.0</ele>
        <time>2019-05-12T08:57:30Z</time>
      </trkpt>
      <trkpt lat="39.1781120" lon="-1.5263040">
        <ele>593.0</ele>
        <time>2019-05-12T08:57:31Z</time>
      </trkpt>
      <trkpt lat="39.1780640" lon="-1.5263080">
        <ele>593.2</ele>
        <time>2019-05-12T08:57:32Z</time>
      </trkpt>
      <trkpt lat="39.1780160" lon="-1.5263060">
        <ele>593.2</ele>
        <time>2019-05-12T08:57:33Z</time>
      </trkpt>
      <trkpt lat="39.1779690" lon="-1.5263000">
        <ele>593.2</ele>
        <time>2019-05-12T08:57:34Z</time>
      </trkpt>
      <trkpt lat="39.1779230" lon="-1.5262910">
        <ele>593.2</ele>
        <time>2019-05-12T08:57:35Z</time>
      </trkpt>
      <trkpt lat="39.1778760" lon="-1.5262890">
        <ele>593.2</ele>
        <time>2019-05-12T08:57:36Z</time>
      </trkpt>
      <trkpt lat="39.1778280" lon="-1.5262940">
        <ele>593.2</ele>
        <time>2019-05-12T08:57:37Z</time>
      </trkpt>
      <trkpt lat="39.1777810" lon="-1.5262940">
        <ele>593.2</ele>
        <time>2019-05-12T08:57:38Z</time>
      </trkpt>
      <trkpt lat="39.1777340" lon="-1.5262880">
        <ele>593.4</ele>
        <time>2019-05-12T08:57:39Z</time>
      </trkpt>
      <trkpt lat="39.1776880" lon="-1.5262860">
        <ele>593.4</ele>
        <time>2019-05-12T08:57:40Z</time>
      </trkpt>
      <trkpt lat="39.1776430" lon="-1.5262960">
        <ele>593.4</ele>
        <time>2019-05-12T08:57:41Z</time>
      </trkpt>
      <trkpt lat="39.1776000" lon="-1.5263150">
        <ele>593.4</ele>
        <time>2019-05-12T08:57:42Z</time>
      </trkpt>
      <trkpt lat="39.1775580" lon="-1.5263340">
        <ele>593.4</ele>
        <time>2019-05-12T08:57:43Z</time>
      </trkpt>
      <trkpt lat="39.1775150" lon="-1.5263430">
        <ele>593.4</ele>
        <time>2019-05-12T08:57:44Z</time>
      </trkpt>
      <trkpt lat="39.1774690" lon="-1.5263400">
        <ele>593.6</ele>
        <time>2019-05-12T08:57:45Z</time>
      </trkpt>
      <trkpt lat="39.1774230" lon="-1.5263380">
        <ele>593.6</ele>
        <time>2019-05-12T08:57:46Z</time>
      </trkpt>
      <trkpt lat="39.1773740" lon="-1.5263280">
        <ele>593.6</ele>
        <time>2019-05-12T08:57:47Z</time>
      </trkpt>
      <trkpt lat="39.1773250" lon="-1.5263220">
        <ele>593.6</ele>
        <time>2019-05-12T08:57:48Z</time>
      </trkpt>
      <trkpt lat="39.1772760" lon="-1.5263270">
        <ele>593.6</ele>
        <time>2019-05-12T08:57:49Z</time>
      </trkpt>
      <trkpt lat="39.1772270" lon="-1.5263390">
        <ele>593.6</ele>
        <time>2019-05-12T08:57:50Z</time>
      </trkpt>
      <trkpt lat="39.1771780" lon="-1.5263480">
        <ele>593.8</ele>
        <time>2019-05-12T08:57:51Z</time>
      </trkpt>
      <trkpt lat="39.1771300" lon="-1.5263530">
        <ele>593.8</ele>
        <time>2019-05-12T08:57:52Z</time>
      </trkpt>
      <trkpt lat="39.1770820" lon="-1.5263570">
        <ele>594.0</ele>
        <time>2019-05-12T08:57:53Z</time>
      </trkpt>
      <trkpt lat="39.1770360" lon="-1.5263600">
        <ele>594.0</ele>
        <time>2019-05-12T08:57:54Z</time>
      </trkpt>
      <trkpt lat="39.1769900" lon="-1.5263570">
        <ele>594.0</ele>
        <time>2019-05-12T08:57:55Z</time>
      </trkpt>
      <trkpt lat="39.1769430" lon="-1.5263510">
        <ele>594.0</ele>
        <time>2019-05-12T08:57:56Z</time>
      </trkpt>
      <trkpt lat="39.1768980" lon="-1.5263400">
        <ele>594.0</ele>
        <time>2019-05-12T08:57:57Z</time>
      </trkpt>
      <trkpt lat="39.1768520" lon="-1.5263240">
        <ele>594.2</ele>
        <time>2019-05-12T08:57:58Z</time>
      </trkpt>
      <trkpt lat="39.1768050" lon="-1.5263110">
        <ele>594.2</ele>
        <time>2019-05-12T08:57:59Z</time>
      </trkpt>
      <trkpt lat="39.1767550" lon="-1.5262970">
        <ele>594.2</ele>
        <time>2019-05-12T08:58:00Z</time>
      </trkpt>
      <trkpt lat="39.1767050" lon="-1.5262820">
        <ele>594.2</ele>
        <time>2019-05-12T08:58:01Z</time>
      </trkpt>
      <trkpt lat="39.1766530" lon="-1.5262700">
        <ele>594.4</ele>
        <time>2019-05-12T08:58:02Z</time>
      </trkpt>
      <trkpt lat="39.1766010" lon="-1.5262600">
        <ele>594.4</ele>
        <time>2019-05-12T08:58:03Z</time>
      </trkpt>
      <trkpt lat="39.1765480" lon="-1.5262510">
        <ele>594.4</ele>
        <time>2019-05-12T08:58:04Z</time>
      </trkpt>
      <trkpt lat="39.1764960" lon="-1.5262390">
        <ele>594.4</ele>
        <time>2019-05-12T08:58:05Z</time>
      </trkpt>
      <trkpt lat="39.1764450" lon="-1.5262270">
        <ele>594.4</ele>
        <time>2019-05-12T08:58:06Z</time>
      </trkpt>
      <trkpt lat="39.1763950" lon="-1.5262150">
        <ele>594.6</ele>
        <time>2019-05-12T08:58:07Z</time>
      </trkpt>
      <trkpt lat="39.1763470" lon="-1.5262010">
        <ele>594.6</ele>
        <time>2019-05-12T08:58:08Z</time>
      </trkpt>
      <trkpt lat="39.1763010" lon="-1.5261850">
        <ele>594.6</ele>
        <time>2019-05-12T08:58:09Z</time>
      </trkpt>
      <trkpt lat="39.1762590" lon="-1.5261620">
        <ele>594.8</ele>
        <time>2019-05-12T08:58:10Z</time>
      </trkpt>
      <trkpt lat="39.1762190" lon="-1.5261320">
        <ele>595.0</ele>
        <time>2019-05-12T08:58:11Z</time>
      </trkpt>
      <trkpt lat="39.1761810" lon="-1.5261050">
        <ele>595.2</ele>
        <time>2019-05-12T08:58:12Z</time>
      </trkpt>
      <trkpt lat="39.1761440" lon="-1.5260930">
        <ele>595.2</ele>
        <time>2019-05-12T08:58:13Z</time>
      </trkpt>
      <trkpt lat="39.1761070" lon="-1.5260810">
        <ele>595.2</ele>
        <time>2019-05-12T08:58:14Z</time>
      </trkpt>
      <trkpt lat="39.1760750" lon="-1.5260780">
        <ele>595.4</ele>
        <time>2019-05-12T08:58:15Z</time>
      </trkpt>
      <trkpt lat="39.1760450" lon="-1.5260710">
        <ele>595.6</ele>
        <time>2019-05-12T08:58:16Z</time>
      </trkpt>
      <trkpt lat="39.1760170" lon="-1.5260620">
        <ele>595.8</ele>
        <time>2019-05-12T08:58:17Z</time>
      </trkpt>
      <trkpt lat="39.1759890" lon="-1.5260530">
        <ele>596.2</ele>
        <time>2019-05-12T08:58:18Z</time>
      </trkpt>
      <trkpt lat="39.1759640" lon="-1.5260430">
        <ele>596.4</ele>
        <time>2019-05-12T08:58:19Z</time>
      </trkpt>
      <trkpt lat="39.1759390" lon="-1.5260340">
        <ele>596.6</ele>
        <time>2019-05-12T08:58:20Z</time>
      </trkpt>
      <trkpt lat="39.1759170" lon="-1.5260220">
        <ele>596.8</ele>
        <time>2019-05-12T08:58:21Z</time>
      </trkpt>
      <trkpt lat="39.1758990" lon="-1.5260110">
        <ele>597.0</ele>
        <time>2019-05-12T08:58:22Z</time>
      </trkpt>
      <trkpt lat="39.1758830" lon="-1.5259970">
        <ele>597.2</ele>
        <time>2019-05-12T08:58:23Z</time>
      </trkpt>
      <trkpt lat="39.1758650" lon="-1.5259810">
        <ele>597.4</ele>
        <time>2019-05-12T08:58:24Z</time>
      </trkpt>
      <trkpt lat="39.1758480" lon="-1.5259660">
        <ele>597.8</ele>
        <time>2019-05-12T08:58:25Z</time>
      </trkpt>
      <trkpt lat="39.1758340" lon="-1.5259520">
        <ele>598.0</ele>
        <time>2019-05-12T08:58:26Z</time>
      </trkpt>
      <trkpt lat="39.1758190" lon="-1.5259430">
        <ele>598.2</ele>
        <time>2019-05-12T08:58:27Z</time>
      </trkpt>
      <trkpt lat="39.1757990" lon="-1.5259370">
        <ele>598.4</ele>
        <time>2019-05-12T08:58:28Z</time>
      </trkpt>
      <trkpt lat="39.1757800" lon="-1.5259320">
        <ele>598.8</ele>
        <time>2019-05-12T08:58:29Z</time>
      </trkpt>
      <trkpt lat="39.1757600" lon="-1.5259270">
        <ele>599.2</ele>
        <time>2019-05-12T08:58:30Z</time>
      </trkpt>
      <trkpt lat="39.1757400" lon="-1.5259230">
        <ele>599.6</ele>
        <time>2019-05-12T08:58:31Z</time>
      </trkpt>
      <trkpt lat="39.1757400" lon="-1.5259230">
        <ele>599.8</ele>
        <time>2019-05-12T08:58:32Z</time>
      </trkpt>
      <trkpt lat="39.1757060" lon="-1.5259240">
        <ele>600.0</ele>
        <time>2019-05-12T08:58:33Z</time>
      </trkpt>
      <trkpt lat="39.1756980" lon="-1.5259120">
        <ele>600.2</ele>
        <time>2019-05-12T08:58:34Z</time>
      </trkpt>
      <trkpt lat="39.1756920" lon="-1.5258920">
        <ele>600.4</ele>
        <time>2019-05-12T08:58:35Z</time>
      </trkpt>
      <trkpt lat="39.1756900" lon="-1.5258650">
        <ele>600.6</ele>
        <time>2019-05-12T08:58:36Z</time>
      </trkpt>
      <trkpt lat="39.1756880" lon="-1.5258350">
        <ele>601.0</ele>
        <time>2019-05-12T08:58:37Z</time>
      </trkpt>
      <trkpt lat="39.1756910" lon="-1.5258010">
        <ele>601.2</ele>
        <time>2019-05-12T08:58:38Z</time>
      </trkpt>
      <trkpt lat="39.1756880" lon="-1.5257670">
        <ele>601.8</ele>
        <time>2019-05-12T08:58:39Z</time>
      </trkpt>
      <trkpt lat="39.1756850" lon="-1.5257350">
        <ele>602.4</ele>
        <time>2019-05-12T08:58:40Z</time>
      </trkpt>
      <trkpt lat="39.1756780" lon="-1.5257050">
        <ele>603.0</ele>
        <time>2019-05-12T08:58:41Z</time>
      </trkpt>
      <trkpt lat="39.1756700" lon="-1.5256760">
        <ele>603.6</ele>
        <time>2019-05-12T08:58:42Z</time>
      </trkpt>
      <trkpt lat="39.1756450" lon="-1.5256610">
        <ele>604.2</ele>
        <time>2019-05-12T08:58:43Z</time>
      </trkpt>
      <trkpt lat="39.1756140" lon="-1.5256580">
        <ele>604.6</ele>
        <time>2019-05-12T08:58:44Z</time>
      </trkpt>
      <trkpt lat="39.1755860" lon="-1.5256580">
        <ele>604.8</ele>
        <time>2019-05-12T08:58:45Z</time>
      </trkpt>
      <trkpt lat="39.1755640" lon="-1.5256430">
        <ele>604.8</ele>
        <time>2019-05-12T08:58:46Z</time>
      </trkpt>
      <trkpt lat="39.1755420" lon="-1.5256290">
        <ele>605.0</ele>
        <time>2019-05-12T08:58:47Z</time>
      </trkpt>
      <trkpt lat="39.1755280" lon="-1.5255960">
        <ele>605.0</ele>
        <time>2019-05-12T08:58:48Z</time>
      </trkpt>
      <trkpt lat="39.1755280" lon="-1.5255960">
        <ele>605.0</ele>
        <time>2019-05-12T08:58:49Z</time>
      </trkpt>
      <trkpt lat="39.1755160" lon="-1.5255580">
        <ele>605.0</ele>
        <time>2019-05-12T08:58:50Z</time>
      </trkpt>
      <trkpt lat="39.1755010" lon="-1.5255210">
        <ele>605.2</ele>
        <time>2019-05-12T08:58:51Z</time>
      </trkpt>
      <trkpt lat="39.1754590" lon="-1.5254480">
        <ele>605.4</ele>
        <time>2019-05-12T08:58:52Z</time>
      </trkpt>
      <trkpt lat="39.1754290" lon="-1.5254120">
        <ele>605.6</ele>
        <time>2019-05-12T08:58:53Z</time>
      </trkpt>
      <trkpt lat="39.1754000" lon="-1.5253760">
        <ele>605.8</ele>
        <time>2019-05-12T08:58:54Z</time>
      </trkpt>
      <trkpt lat="39.1753710" lon="-1.5253410">
        <ele>605.8</ele>
        <time>2019-05-12T08:58:55Z</time>
      </trkpt>
      <trkpt lat="39.1753450" lon="-1.5253040">
        <ele>606.0</ele>
        <time>2019-05-12T08:58:56Z</time>
      </trkpt>
      <trkpt lat="39.1753140" lon="-1.5252650">
        <ele>606.0</ele>
        <time>2019-05-12T08:58:57Z</time>
      </trkpt>
      <trkpt lat="39.1752800" lon="-1.5252300">
        <ele>606.0</ele>
        <time>2019-05-12T08:58:58Z</time>
      </trkpt>
      <trkpt lat="39.1752480" lon="-1.5251940">
        <ele>606.0</ele>
        <time>2019-05-12T08:58:59Z</time>
      </trkpt>
      <trkpt lat="39.1752210" lon="-1.5251590">
        <ele>606.2</ele>
        <time>2019-05-12T08:59:00Z</time>
      </trkpt>
      <trkpt lat="39.1751980" lon="-1.5251230">
        <ele>606.2</ele>
        <time>2019-05-12T08:59:01Z</time>
      </trkpt>
      <trkpt lat="39.1751770" lon="-1.5250890">
        <ele>606.2</ele>
        <time>2019-05-12T08:59:02Z</time>
      </trkpt>
      <trkpt lat="39.1751530" lon="-1.5250560">
        <ele>606.4</ele>
        <time>2019-05-12T08:59:03Z</time>
      </trkpt>
      <trkpt lat="39.1751370" lon="-1.5250240">
        <ele>606.4</ele>
        <time>2019-05-12T08:59:04Z</time>
      </trkpt>
      <trkpt lat="39.1751220" lon="-1.5249900">
        <ele>606.6</ele>
        <time>2019-05-12T08:59:05Z</time>
      </trkpt>
      <trkpt lat="39.1751050" lon="-1.5249560">
        <ele>606.8</ele>
        <time>2019-05-12T08:59:06Z</time>
      </trkpt>
      <trkpt lat="39.1750850" lon="-1.5249250">
        <ele>607.0</ele>
        <time>2019-05-12T08:59:07Z</time>
      </trkpt>
      <trkpt lat="39.1750660" lon="-1.5248930">
        <ele>607.2</ele>
        <time>2019-05-12T08:59:08Z</time>
      </trkpt>
      <trkpt lat="39.1750480" lon="-1.5248620">
        <ele>607.6</ele>
        <time>2019-05-12T08:59:09Z</time>
      </trkpt>
      <trkpt lat="39.1750300" lon="-1.5248310">
        <ele>608.0</ele>
        <time>2019-05-12T08:59:10Z</time>
      </trkpt>
      <trkpt lat="39.1750140" lon="-1.5247990">
        <ele>608.2</ele>
        <time>2019-05-12T08:59:11Z</time>
      </trkpt>
      <trkpt lat="39.1749960" lon="-1.5247660">
        <ele>608.6</ele>
        <time>2019-05-12T08:59:12Z</time>
      </trkpt>
      <trkpt lat="39.1749800" lon="-1.5247340">
        <ele>609.0</ele>
        <time>2019-05-12T08:59:13Z</time>
      </trkpt>
      <trkpt lat="39.1749620" lon="-1.5247020">
        <ele>609.4</ele>
        <time>2019-05-12T08:59:14Z</time>
      </trkpt>
      <trkpt lat="39.1749450" lon="-1.5246700">
        <ele>609.6</ele>
        <time>2019-05-12T08:59:15Z</time>
      </trkpt>
      <trkpt lat="39.1749310" lon="-1.5246390">
        <ele>610.0</ele>
        <time>2019-05-12T08:59:16Z</time>
      </trkpt>
      <trkpt lat="39.1749250" lon="-1.5246040">
        <ele>610.2</ele>
        <time>2019-05-12T08:59:17Z</time>
      </trkpt>
      <trkpt lat="39.1749350" lon="-1.5245740">
        <ele>610.2</ele>
        <time>2019-05-12T08:59:18Z</time>
      </trkpt>
      <trkpt lat="39.1749560" lon="-1.5245560">
        <ele>610.6</ele>
        <time>2019-05-12T08:59:19Z</time>
      </trkpt>
      <trkpt lat="39.1749790" lon="-1.5245600">
        <ele>611.0</ele>
        <time>2019-05-12T08:59:20Z</time>
      </trkpt>
      <trkpt lat="39.1749990" lon="-1.5245830">
        <ele>611.0</ele>
        <time>2019-05-12T08:59:21Z</time>
      </trkpt>
      <trkpt lat="39.1750150" lon="-1.5246130">
        <ele>611.2</ele>
        <time>2019-05-12T08:59:22Z</time>
      </trkpt>
      <trkpt lat="39.1750310" lon="-1.5246450">
        <ele>611.4</ele>
        <time>2019-05-12T08:59:23Z</time>
      </trkpt>
      <trkpt lat="39.1750480" lon="-1.5246780">
        <ele>611.8</ele>
        <time>2019-05-12T08:59:24Z</time>
      </trkpt>
      <trkpt lat="39.1750650" lon="-1.5247130">
        <ele>612.6</ele>
        <time>2019-05-12T08:59:25Z</time>
      </trkpt>
      <trkpt lat="39.1750800" lon="-1.5247470">
        <ele>612.8</ele>
        <time>2019-05-12T08:59:26Z</time>
      </trkpt>
      <trkpt lat="39.1750970" lon="-1.5247810">
        <ele>613.2</ele>
        <time>2019-05-12T08:59:27Z</time>
      </trkpt>
      <trkpt lat="39.1751140" lon="-1.5248140">
        <ele>613.4</ele>
        <time>2019-05-12T08:59:28Z</time>
      </trkpt>
      <trkpt lat="39.1751300" lon="-1.5248480">
        <ele>613.6</ele>
        <time>2019-05-12T08:59:29Z</time>
      </trkpt>
      <trkpt lat="39.1751520" lon="-1.5248750">
        <ele>613.8</ele>
        <time>2019-05-12T08:59:30Z</time>
      </trkpt>
      <trkpt lat="39.1751730" lon="-1.5249020">
        <ele>614.2</ele>
        <time>2019-05-12T08:59:31Z</time>
      </trkpt>
      <trkpt lat="39.1752000" lon="-1.5249030">
        <ele>614.4</ele>
        <time>2019-05-12T08:59:32Z</time>
      </trkpt>
      <trkpt lat="39.1752100" lon="-1.5248790">
        <ele>614.8</ele>
        <time>2019-05-12T08:59:33Z</time>
      </trkpt>
      <trkpt lat="39.1752060" lon="-1.5248470">
        <ele>615.0</ele>
        <time>2019-05-12T08:59:34Z</time>
      </trkpt>
      <trkpt lat="39.1751960" lon="-1.5248140">
        <ele>615.2</ele>
        <time>2019-05-12T08:59:35Z</time>
      </trkpt>
      <trkpt lat="39.1751850" lon="-1.5247810">
        <ele>615.6</ele>
        <time>2019-05-12T08:59:36Z</time>
      </trkpt>
      <trkpt lat="39.1751750" lon="-1.5247460">
        <ele>616.0</ele>
        <time>2019-05-12T08:59:37Z</time>
      </trkpt>
      <trkpt lat="39.1751620" lon="-1.5247110">
        <ele>616.4</ele>
        <time>2019-05-12T08:59:38Z</time>
      </trkpt>
      <trkpt lat="39.1751490" lon="-1.5246760">
        <ele>616.6</ele>
        <time>2019-05-12T08:59:39Z</time>
      </trkpt>
      <trkpt lat="39.1751380" lon="-1.5246400">
        <ele>616.8</ele>
        <time>2019-05-12T08:59:40Z</time>
      </trkpt>
      <trkpt lat="39.1751290" lon="-1.5246040">
        <ele>617.0</ele>
        <time>2019-05-12T08:59:41Z</time>
      </trkpt>
      <trkpt lat="39.1751200" lon="-1.5245660">
        <ele>617.2</ele>
        <time>2019-05-12T08:59:42Z</time>
      </trkpt>
      <trkpt lat="39.1751200" lon="-1.5245660">
        <ele>617.4</ele>
        <time>2019-05-12T08:59:43Z</time>
      </trkpt>
      <trkpt lat="39.1751110" lon="-1.5245290">
        <ele>617.6</ele>
        <time>2019-05-12T08:59:44Z</time>
      </trkpt>
      <trkpt lat="39.1750940" lon="-1.5244560">
        <ele>617.8</ele>
        <time>2019-05-12T08:59:45Z</time>
      </trkpt>
      <trkpt lat="39.1750840" lon="-1.5244180">
        <ele>618.0</ele>
        <time>2019-05-12T08:59:46Z</time>
      </trkpt>
      <trkpt lat="39.1750750" lon="-1.5243820">
        <ele>618.2</ele>
        <time>2019-05-12T08:59:47Z</time>
      </trkpt>
      <trkpt lat="39.1750640" lon="-1.5243440">
        <ele>618.4</ele>
        <time>2019-05-12T08:59:48Z</time>
      </trkpt>
      <trkpt lat="39.1750540" lon="-1.5243050">
        <ele>618.6</ele>
        <time>2019-05-12T08:59:49Z</time>
      </trkpt>
      <trkpt lat="39.1750480" lon="-1.5242660">
        <ele>618.8</ele>
        <time>2019-05-12T08:59:50Z</time>
      </trkpt>
      <trkpt lat="39.1750410" lon="-1.5242280">
        <ele>619.0</ele>
        <time>2019-05-12T08:59:51Z</time>
      </trkpt>
      <trkpt lat="39.1750340" lon="-1.5241940">
        <ele>619.2</ele>
        <time>2019-05-12T08:59:52Z</time>
      </trkpt>
      <trkpt lat="39.1750340" lon="-1.5241940">
        <ele>619.2</ele>
        <time>2019-05-12T08:59:53Z</time>
      </trkpt>
      <trkpt lat="39.1750370" lon="-1.5241570">
        <ele>619.4</ele>
        <time>2019-05-12T08:59:54Z</time>
      </trkpt>
      <trkpt lat="39.1750380" lon="-1.5241550">
        <ele>619.4</ele>
        <time>2019-05-12T08:59:55Z</time>
      </trkpt>
      <trkpt lat="39.1750390" lon="-1.5241550">
        <ele>619.6</ele>
        <time>2019-05-12T08:59:56Z</time>
      </trkpt>
      <trkpt lat="39.1750390" lon="-1.5241560">
        <ele>619.8</ele>
        <time>2019-05-12T08:59:57Z</time>
      </trkpt>
      <trkpt lat="39.1750370" lon="-1.5241550">
        <ele>619.8</ele>
        <time>2019-05-12T08:59:58Z</time>
      </trkpt>
      <trkpt lat="39.1750370" lon="-1.5241550">
        <ele>620.0</ele>
        <time>2019-05-12T08:59:59Z</time>
      </trkpt>
      <trkpt lat="39.1750370" lon="-1.5241550">
        <ele>620.0</ele>
        <time>2019-05-12T09:00:00Z</time>
      </trkpt>
      <trkpt lat="39.1750370" lon="-1.5241550">
        <ele>620.0</ele>
        <time>2019-05-12T09:00:01Z</time>
      </trkpt>
      <trkpt lat="39.1750370" lon="-1.5241550">
        <ele>620.2</ele>
        <time>2019-05-12T09:00:02Z</time>
      </trkpt>
      <trkpt lat="39.1750370" lon="-1.5241550">
        <ele>620.2</ele>
        <time>2019-05-12T09:00:03Z</time>
      </trkpt>
      <trkpt lat="39.1750370" lon="-1.5241550">
        <ele>620.2</ele>
        <time>2019-05-12T09:00:04Z</time>
      </trkpt>
      <trkpt lat="39.1750370" lon="-1.5241550">
        <ele>620.2</ele>
        <time>2019-05-12T09:00:05Z</time>
      </trkpt>
      <trkpt lat="39.1750370" lon="-1.5241550">
        <ele>620.2</ele>
        <time>2019-05-12T09:00:06Z</time>
      </trkpt>
      <trkpt lat="39.1750370" lon="-1.5241550">
        <ele>620.2</ele>
        <time>2019-05-12T09:00:07Z</time>
      </trkpt>
      <trkpt lat="39.1750360" lon="-1.5241500">
        <ele>620.2</ele>
        <time>2019-05-12T09:00:08Z</time>
      </trkpt>
      <trkpt lat="39.1750360" lon="-1.5241500">
        <ele>620.2</ele>
        <time>2019-05-12T09:00:09Z</time>
      </trkpt>
      <trkpt lat="39.1750360" lon="-1.5241500">
        <ele>620.2</ele>
        <time>2019-05-12T09:00:10Z</time>
      </trkpt>
      <trkpt lat="39.1750360" lon="-1.5241500">
        <ele>620.2</ele>
        <time>2019-05-12T09:00:11Z</time>
      </trkpt>
      <trkpt lat="39.1750360" lon="-1.5241500">
        <ele>620.2</ele>
        <time>2019-05-12T09:00:12Z</time>
      </trkpt>
      <trkpt lat="39.1750360" lon="-1.5241500">
        <ele>620.2</ele>
        <time>2019-05-12T09:00:13Z</time>
      </trkpt>
      <trkpt lat="39.1750360" lon="-1.5241500">
        <ele>620.2</ele>
        <time>2019-05-12T09:00:14Z</time>
      </trkpt>
      <trkpt lat="39.1750360" lon="-1.5241500">
        <ele>620.2</ele>
        <time>2019-05-12T09:00:15Z</time>
      </trkpt>
      <trkpt lat="39.1750360" lon="-1.5241500">
        <ele>620.2</ele>
        <time>2019-05-12T09:00:16Z</time>
      </trkpt>
      <trkpt lat="39.1750360" lon="-1.5241500">
        <ele>620.2</ele>
        <time>2019-05-12T09:00:17Z</time>
      </trkpt>
      <trkpt lat="39.1750360" lon="-1.5241500">
        <ele>620.2</ele>
        <time>2019-05-12T09:00:18Z</time>
      </trkpt>
      <trkpt lat="39.1750290" lon="-1.5241430">
        <ele>620.2</ele>
        <time>2019-05-12T09:00:19Z</time>
      </trkpt>
      <trkpt lat="39.1750250" lon="-1.5241270">
        <ele>620.2</ele>
        <time>2019-05-12T09:00:20Z</time>
      </trkpt>
      <trkpt lat="39.1750170" lon="-1.5241070">
        <ele>620.2</ele>
        <time>2019-05-12T09:00:21Z</time>
      </trkpt>
      <trkpt lat="39.1749810" lon="-1.5240600">
        <ele>620.2</ele>
        <time>2019-05-12T09:00:22Z</time>
      </trkpt>
      <trkpt lat="39.1749620" lon="-1.5240340">
        <ele>620.2</ele>
        <time>2019-05-12T09:00:23Z</time>
      </trkpt>
      <trkpt lat="39.1749430" lon="-1.5240080">
        <ele>620.2</ele>
        <time>2019-05-12T09:00:24Z</time>
      </trkpt>
      <trkpt lat="39.1749290" lon="-1.5239830">
        <ele>620.2</ele>
        <time>2019-05-12T09:00:25Z</time>
      </trkpt>
      <trkpt lat="39.1749170" lon="-1.5239570">
        <ele>620.2</ele>
        <time>2019-05-12T09:00:26Z</time>
      </trkpt>
      <trkpt lat="39.1749040" lon="-1.5239320">
        <ele>620.4</ele>
        <time>2019-05-12T09:00:27Z</time>
      </trkpt>
      <trkpt lat="39.1748910" lon="-1.5238990">
        <ele>620.4</ele>
        <time>2019-05-12T09:00:28Z</time>
      </trkpt>
      <trkpt lat="39.1748770" lon="-1.5238580">
        <ele>620.4</ele>
        <time>2019-05-12T09:00:29Z</time>
      </trkpt>
      <trkpt lat="39.1748670" lon="-1.5238100">
        <ele>620.6</ele>
        <time>2019-05-12T09:00:30Z</time>
      </trkpt>
      <trkpt lat="39.1748590" lon="-1.5237560">
        <ele>620.8</ele>
        <time>2019-05-12T09:00:31Z</time>
      </trkpt>
      <trkpt lat="39.1748440" lon="-1.5236960">
        <ele>621.0</ele>
        <time>2019-05-12T09:00:32Z</time>
      </trkpt>
      <trkpt lat="39.1748220" lon="-1.5236370">
        <ele>621.0</ele>
        <time>2019-05-12T09:00:33Z</time>
      </trkpt>
      <trkpt lat="39.1747940" lon="-1.5235860">
        <ele>621.0</ele>
        <time>2019-05-12T09:00:34Z</time>
      </trkpt>
      <trkpt lat="39.1747700" lon="-1.5235400">
        <ele>621.0</ele>
        <time>2019-05-12T09:00:35Z</time>
      </trkpt>
      <trkpt lat="39.1747470" lon="-1.5234940">
        <ele>621.0</ele>
        <time>2019-05-12T09:00:36Z</time>
      </trkpt>
      <trkpt lat="39.1747230" lon="-1.5234490">
        <ele>621.0</ele>
        <time>2019-05-12T09:00:37Z</time>
      </trkpt>
      <trkpt lat="39.1747030" lon="-1.5233950">
        <ele>621.0</ele>
        <time>2019-05-12T09:00:38Z</time>
      </trkpt>
      <trkpt lat="39.1746930" lon="-1.5233380">
        <ele>621.0</ele>
        <time>2019-05-12T09:00:39Z</time>
      </trkpt>
      <trkpt lat="39.1746830" lon="-1.5232820">
        <ele>621.0</ele>
        <time>2019-05-12T09:00:40Z</time>
      </trkpt>
      <trkpt lat="39.1746630" lon="-1.5231700">
        <ele>620.8</ele>
        <time>2019-05-12T09:00:41Z</time>
      </trkpt>
      <trkpt lat="39.1746540" lon="-1.5230890">
        <ele>620.8</ele>
        <time>2019-05-12T09:00:42Z</time>
      </trkpt>
      <trkpt lat="39.1746290" lon="-1.5230050">
        <ele>620.6</ele>
        <time>2019-05-12T09:00:43Z</time>
      </trkpt>
      <trkpt lat="39.1746110" lon="-1.5229190">
        <ele>620.6</ele>
        <time>2019-05-12T09:00:44Z</time>
      </trkpt>
      <trkpt lat="39.1746040" lon="-1.5228330">
        <ele>620.6</ele>
        <time>2019-05-12T09:00:45Z</time>
      </trkpt>
      <trkpt lat="39.1746040" lon="-1.5227580">
        <ele>620.6</ele>
        <time>2019-05-12T09:00:46Z</time>
      </trkpt>
      <trkpt lat="39.1746140" lon="-1.5226890">
        <ele>620.6</ele>
        <time>2019-05-12T09:00:47Z</time>
      </trkpt>
      <trkpt lat="39.1746300" lon="-1.5226220">
        <ele>620.6</ele>
        <time>2019-05-12T09:00:48Z</time>
      </trkpt>
      <trkpt lat="39.1746450" lon="-1.5225570">
        <ele>620.6</ele>
        <time>2019-05-12T09:00:49Z</time>
      </trkpt>
      <trkpt lat="39.1746570" lon="-1.5224920">
        <ele>620.6</ele>
        <time>2019-05-12T09:00:50Z</time>
      </trkpt>
      <trkpt lat="39.1746630" lon="-1.5224290">
        <ele>620.6</ele>
        <time>2019-05-12T09:00:51Z</time>
      </trkpt>
      <trkpt lat="39.1746620" lon="-1.5223670">
        <ele>620.6</ele>
        <time>2019-05-12T09:00:52Z</time>
      </trkpt>
      <trkpt lat="39.1746640" lon="-1.5223020">
        <ele>620.8</ele>
        <time>2019-05-12T09:00:53Z</time>
      </trkpt>
      <trkpt lat="39.1746630" lon="-1.5222460">
        <ele>621.0</ele>
        <time>2019-05-12T09:00:54Z</time>
      </trkpt>
      <trkpt lat="39.1746590" lon="-1.5221980">
        <ele>621.2</ele>
        <time>2019-05-12T09:00:55Z</time>
      </trkpt>
      <trkpt lat="39.1746570" lon="-1.5221520">
        <ele>621.4</ele>
        <time>2019-05-12T09:00:56Z</time>
      </trkpt>
      <trkpt lat="39.1746520" lon="-1.5221100">
        <ele>621.6</ele>
        <time>2019-05-12T09:00:57Z</time>
      </trkpt>
      <trkpt lat="39.1746450" lon="-1.5220710">
        <ele>621.8</ele>
        <time>2019-05-12T09:00:58Z</time>
      </trkpt>
      <trkpt lat="39.1746370" lon="-1.5220380">
        <ele>622.2</ele>
        <time>2019-05-12T09:00:59Z</time>
      </trkpt>
      <trkpt lat="39.1746160" lon="-1.5219960">
        <ele>622.6</ele>
        <time>2019-05-12T09:01:00Z</time>
      </trkpt>
      <trkpt lat="39.1745970" lon="-1.5219550">
        <ele>623.2</ele>
        <time>2019-05-12T09:01:01Z</time>
      </trkpt>
      <trkpt lat="39.1745770" lon="-1.5219130">
        <ele>623.8</ele>
        <time>2019-05-12T09:01:02Z</time>
      </trkpt>
      <trkpt lat="39.1745590" lon="-1.5218740">
        <ele>624.4</ele>
        <time>2019-05-12T09:01:03Z</time>
      </trkpt>
      <trkpt lat="39.1745430" lon="-1.5218250">
        <ele>625.2</ele>
        <time>2019-05-12T09:01:04Z</time>
      </trkpt>
      <trkpt lat="39.1745210" lon="-1.5217740">
        <ele>625.6</ele>
        <time>2019-05-12T09:01:05Z</time>
      </trkpt>
      <trkpt lat="39.1744990" lon="-1.5217180">
        <ele>625.8</ele>
        <time>2019-05-12T09:01:06Z</time>
      </trkpt>
      <trkpt lat="39.1744740" lon="-1.5216590">
        <ele>626.0</ele>
        <time>2019-05-12T09:01:07Z</time>
      </trkpt>
      <trkpt lat="39.1744500" lon="-1.5215900">
        <ele>626.2</ele>
        <time>2019-05-12T09:01:08Z</time>
      </trkpt>
      <trkpt lat="39.1744330" lon="-1.5214980">
        <ele>626.2</ele>
        <time>2019-05-12T09:01:09Z</time>
      </trkpt>
      <trkpt lat="39.1744190" lon="-1.5213970">
        <ele>626.2</ele>
        <time>2019-05-12T09:01:10Z</time>
      </trkpt>
      <trkpt lat="39.1744090" lon="-1.5213000">
        <ele>626.2</ele>
        <time>2019-05-12T09:01:11Z</time>
      </trkpt>
      <trkpt lat="39.1744010" lon="-1.5212040">
        <ele>626.2</ele>
        <time>2019-05-12T09:01:12Z</time>
      </trkpt>
      <trkpt lat="39.1744050" lon="-1.5211030">
        <ele>626.2</ele>
        <time>2019-05-12T09:01:13Z</time>
      </trkpt>
      <trkpt lat="39.1743960" lon="-1.5209890">
        <ele>626.0</ele>
        <time>2019-05-12T09:01:14Z</time>
      </trkpt>
      <trkpt lat="39.1743810" lon="-1.5208810">
        <ele>625.6</ele>
        <time>2019-05-12T09:01:15Z</time>
      </trkpt>
      <trkpt lat="39.1743650" lon="-1.5207800">
        <ele>625.2</ele>
        <time>2019-05-12T09:01:16Z</time>
      </trkpt>
      <trkpt lat="39.1743340" lon="-1.5206730">
        <ele>625.0</ele>
        <time>2019-05-12T09:01:17Z</time>
      </trkpt>
      <trkpt lat="39.1742950" lon="-1.5205600">
        <ele>624.8</ele>
        <time>2019-05-12T09:01:18Z</time>
      </trkpt>
      <trkpt lat="39.1742660" lon="-1.5204410">
        <ele>624.6</ele>
        <time>2019-05-12T09:01:19Z</time>
      </trkpt>
      <trkpt lat="39.1742500" lon="-1.5203270">
        <ele>624.4</ele>
        <time>2019-05-12T09:01:20Z</time>
      </trkpt>
      <trkpt lat="39.1742440" lon="-1.5202280">
        <ele>624.0</ele>
        <time>2019-05-12T09:01:21Z</time>
      </trkpt>
      <trkpt lat="39.1742500" lon="-1.5201270">
        <ele>623.4</ele>
        <time>2019-05-12T09:01:22Z</time>
      </trkpt>
      <trkpt lat="39.1742610" lon="-1.5200230">
        <ele>623.0</ele>
        <time>2019-05-12T09:01:23Z</time>
      </trkpt>
      <trkpt lat="39.1742780" lon="-1.5199220">
        <ele>622.8</ele>
        <time>2019-05-12T09:01:24Z</time>
      </trkpt>
      <trkpt lat="39.1743020" lon="-1.5198260">
        <ele>622.6</ele>
        <time>2019-05-12T09:01:25Z</time>
      </trkpt>
      <trkpt lat="39.1743320" lon="-1.5197400">
        <ele>622.6</ele>
        <time>2019-05-12T09:01:26Z</time>
      </trkpt>
      <trkpt lat="39.1743700" lon="-1.5196610">
        <ele>622.4</ele>
        <time>2019-05-12T09:01:27Z</time>
      </trkpt>
      <trkpt lat="39.1744080" lon="-1.5195850">
        <ele>622.4</ele>
        <time>2019-05-12T09:01:28Z</time>
      </trkpt>
      <trkpt lat="39.1744510" lon="-1.5195160">
        <ele>622.2</ele>
        <time>2019-05-12T09:01:29Z</time>
      </trkpt>
      <trkpt lat="39.1744860" lon="-1.5194780">
        <ele>622.2</ele>
        <time>2019-05-12T09:01:30Z</time>
      </trkpt>
      <trkpt lat="39.1745200" lon="-1.5194400">
        <ele>622.2</ele>
        <time>2019-05-12T09:01:31Z</time>
      </trkpt>
      <trkpt lat="39.1745330" lon="-1.5194210">
        <ele>622.0</ele>
        <time>2019-05-12T09:01:32Z</time>
      </trkpt>
      <trkpt lat="39.1745360" lon="-1.5194090">
        <ele>622.0</ele>
        <time>2019-05-12T09:01:33Z</time>
      </trkpt>
      <trkpt lat="39.1745250" lon="-1.5194010">
        <ele>621.8</ele>
        <time>2019-05-12T09:01:34Z</time>
      </trkpt>
      <trkpt lat="39.1745140" lon="-1.5194020">
        <ele>621.8</ele>
        <time>2019-05-12T09:01:35Z</time>
      </trkpt>
      <trkpt lat="39.1744980" lon="-1.5193960">
        <ele>621.6</ele>
        <time>2019-05-12T09:01:36Z</time>
      </trkpt>
      <trkpt lat="39.1744770" lon="-1.5193820">
        <ele>621.6</ele>
        <time>2019-05-12T09:01:37Z</time>
      </trkpt>
      <trkpt lat="39.1744510" lon="-1.5193570">
        <ele>621.2</ele>
        <time>2019-05-12T09:01:38Z</time>
      </trkpt>
      <trkpt lat="39.1744300" lon="-1.5193200">
        <ele>620.6</ele>
        <time>2019-05-12T09:01:39Z</time>
      </trkpt>
      <trkpt lat="39.1744230" lon="-1.5192780">
        <ele>620.0</ele>
        <time>2019-05-12T09:01:40Z</time>
      </trkpt>
      <trkpt lat="39.1744410" lon="-1.5192180">
        <ele>619.6</ele>
        <time>2019-05-12T09:01:41Z</time>
      </trkpt>
      <trkpt lat="39.1744840" lon="-1.5191470">
        <ele>619.2</ele>
        <time>2019-05-12T09:01:42Z</time>
      </trkpt>
      <trkpt lat="39.1745170" lon="-1.5190800">
        <ele>618.6</ele>
        <time>2019-05-12T09:01:43Z</time>
      </trkpt>
      <trkpt lat="39.1745500" lon="-1.5190180">
        <ele>618.2</ele>
        <time>2019-05-12T09:01:44Z</time>
      </trkpt>
      <trkpt lat="39.1745840" lon="-1.5189560">
        <ele>617.8</ele>
        <time>2019-05-12T09:01:45Z</time>
      </trkpt>
      <trkpt lat="39.1746380" lon="-1.5189000">
        <ele>617.2</ele>
        <time>2019-05-12T09:01:46Z</time>
      </trkpt>
      <trkpt lat="39.1746970" lon="-1.5188470">
        <ele>616.6</ele>
        <time>2019-05-12T09:01:47Z</time>
      </trkpt>
      <trkpt lat="39.1747610" lon="-1.5187850">
        <ele>615.8</ele>
        <time>2019-05-12T09:01:48Z</time>
      </trkpt>
      <trkpt lat="39.1748270" lon="-1.5187180">
        <ele>614.8</ele>
        <time>2019-05-12T09:01:49Z</time>
      </trkpt>
      <trkpt lat="39.1748980" lon="-1.5186430">
        <ele>614.0</ele>
        <time>2019-05-12T09:01:50Z</time>
      </trkpt>
      <trkpt lat="39.1749750" lon="-1.5185670">
        <ele>612.6</ele>
        <time>2019-05-12T09:01:51Z</time>
      </trkpt>
      <trkpt lat="39.1750600" lon="-1.5185080">
        <ele>611.4</ele>
        <time>2019-05-12T09:01:52Z</time>
      </trkpt>
      <trkpt lat="39.1751480" lon="-1.5184600">
        <ele>610.2</ele>
        <time>2019-05-12T09:01:53Z</time>
      </trkpt>
      <trkpt lat="39.1752390" lon="-1.5184240">
        <ele>609.4</ele>
        <time>2019-05-12T09:01:54Z</time>
      </trkpt>
      <trkpt lat="39.1753340" lon="-1.5184060">
        <ele>609.0</ele>
        <time>2019-05-12T09:01:55Z</time>
      </trkpt>
      <trkpt lat="39.1754270" lon="-1.5183940">
        <ele>608.4</ele>
        <time>2019-05-12T09:01:56Z</time>
      </trkpt>
      <trkpt lat="39.1755180" lon="-1.5183760">
        <ele>608.2</ele>
        <time>2019-05-12T09:01:57Z</time>
      </trkpt>
      <trkpt lat="39.1756000" lon="-1.5183600">
        <ele>607.4</ele>
        <time>2019-05-12T09:01:58Z</time>
      </trkpt>
      <trkpt lat="39.1756710" lon="-1.5183690">
        <ele>606.6</ele>
        <time>2019-05-12T09:01:59Z</time>
      </trkpt>
      <trkpt lat="39.1757280" lon="-1.5184050">
        <ele>605.8</ele>
        <time>2019-05-12T09:02:00Z</time>
      </trkpt>
      <trkpt lat="39.1757740" lon="-1.5184550">
        <ele>605.4</ele>
        <time>2019-05-12T09:02:01Z</time>
      </trkpt>
      <trkpt lat="39.1758100" lon="-1.5184890">
        <ele>605.2</ele>
        <time>2019-05-12T09:02:02Z</time>
      </trkpt>
      <trkpt lat="39.1758480" lon="-1.5185170">
        <ele>605.0</ele>
        <time>2019-05-12T09:02:03Z</time>
      </trkpt>
      <trkpt lat="39.1758920" lon="-1.5185300">
        <ele>605.0</ele>
        <time>2019-05-12T09:02:04Z</time>
      </trkpt>
      <trkpt lat="39.1759460" lon="-1.5185420">
        <ele>605.2</ele>
        <time>2019-05-12T09:02:05Z</time>
      </trkpt>
      <trkpt lat="39.1760100" lon="-1.5185530">
        <ele>604.8</ele>
        <time>2019-05-12T09:02:06Z</time>
      </trkpt>
      <trkpt lat="39.1760700" lon="-1.5185930">
        <ele>605.0</ele>
        <time>2019-05-12T09:02:07Z</time>
      </trkpt>
      <trkpt lat="39.1761220" lon="-1.5186530">
        <ele>604.8</ele>
        <time>2019-05-12T09:02:08Z</time>
      </trkpt>
      <trkpt lat="39.1761550" lon="-1.5187280">
        <ele>604.6</ele>
        <time>2019-05-12T09:02:09Z</time>
      </trkpt>
      <trkpt lat="39.1761880" lon="-1.5187890">
        <ele>604.6</ele>
        <time>2019-05-12T09:02:10Z</time>
      </trkpt>
      <trkpt lat="39.1762200" lon="-1.5188350">
        <ele>604.4</ele>
        <time>2019-05-12T09:02:11Z</time>
      </trkpt>
      <trkpt lat="39.1762200" lon="-1.5188350">
        <ele>604.4</ele>
        <time>2019-05-12T09:02:12Z</time>
      </trkpt>
      <trkpt lat="39.1762460" lon="-1.5188370">
        <ele>604.2</ele>
        <time>2019-05-12T09:02:13Z</time>
      </trkpt>
      <trkpt lat="39.1762680" lon="-1.5188190">
        <ele>604.2</ele>
        <time>2019-05-12T09:02:14Z</time>
      </trkpt>
      <trkpt lat="39.1762780" lon="-1.5187850">
        <ele>604.0</ele>
        <time>2019-05-12T09:02:15Z</time>
      </trkpt>
      <trkpt lat="39.1762750" lon="-1.5186950">
        <ele>604.0</ele>
        <time>2019-05-12T09:02:16Z</time>
      </trkpt>
      <trkpt lat="39.1762840" lon="-1.5186520">
        <ele>604.0</ele>
        <time>2019-05-12T09:02:17Z</time>
      </trkpt>
      <trkpt lat="39.1762950" lon="-1.5186050">
        <ele>603.6</ele>
        <time>2019-05-12T09:02:18Z</time>
      </trkpt>
      <trkpt lat="39.1762980" lon="-1.5185510">
        <ele>602.8</ele>
        <time>2019-05-12T09:02:19Z</time>
      </trkpt>
      <trkpt lat="39.1763010" lon="-1.5184960">
        <ele>602.2</ele>
        <time>2019-05-12T09:02:20Z</time>
      </trkpt>
      <trkpt lat="39.1762940" lon="-1.5184350">
        <ele>602.0</ele>
        <time>2019-05-12T09:02:21Z</time>
      </trkpt>
      <trkpt lat="39.1762880" lon="-1.5183760">
        <ele>601.2</ele>
        <time>2019-05-12T09:02:22Z</time>
      </trkpt>
      <trkpt lat="39.1762770" lon="-1.5183260">
        <ele>600.8</ele>
        <time>2019-05-12T09:02:23Z</time>
      </trkpt>
      <trkpt lat="39.1762700" lon="-1.5182910">
        <ele>600.0</ele>
        <time>2019-05-12T09:02:24Z</time>
      </trkpt>
      <trkpt lat="39.1762630" lon="-1.5182630">
        <ele>599.0</ele>
        <time>2019-05-12T09:02:25Z</time>
      </trkpt>
      <trkpt lat="39.1762500" lon="-1.5182370">
        <ele>598.2</ele>
        <time>2019-05-12T09:02:26Z</time>
      </trkpt>
      <trkpt lat="39.1762290" lon="-1.5182120">
        <ele>597.2</ele>
        <time>2019-05-12T09:02:27Z</time>
      </trkpt>
      <trkpt lat="39.1762110" lon="-1.5181820">
        <ele>595.8</ele>
        <time>2019-05-12T09:02:28Z</time>
      </trkpt>
      <trkpt lat="39.1761880" lon="-1.5181640">
        <ele>594.4</ele>
        <time>2019-05-12T09:02:29Z</time>
      </trkpt>
      <trkpt lat="39.1761690" lon="-1.5181500">
        <ele>593.2</ele>
        <time>2019-05-12T09:02:30Z</time>
      </trkpt>
      <trkpt lat="39.1761620" lon="-1.5181310">
        <ele>592.0</ele>
        <time>2019-05-12T09:02:31Z</time>
      </trkpt>
      <trkpt lat="39.1761740" lon="-1.5181180">
        <ele>590.8</ele>
        <time>2019-05-12T09:02:32Z</time>
      </trkpt>
      <trkpt lat="39.1761970" lon="-1.5181190">
        <ele>590.2</ele>
        <time>2019-05-12T09:02:33Z</time>
      </trkpt>
      <trkpt lat="39.1762240" lon="-1.5181290">
        <ele>589.4</ele>
        <time>2019-05-12T09:02:34Z</time>
      </trkpt>
      <trkpt lat="39.1762530" lon="-1.5181430">
        <ele>589.0</ele>
        <time>2019-05-12T09:02:35Z</time>
      </trkpt>
      <trkpt lat="39.1762760" lon="-1.5181580">
        <ele>588.4</ele>
        <time>2019-05-12T09:02:36Z</time>
      </trkpt>
      <trkpt lat="39.1762960" lon="-1.5181560">
        <ele>587.6</ele>
        <time>2019-05-12T09:02:37Z</time>
      </trkpt>
      <trkpt lat="39.1763060" lon="-1.5181450">
        <ele>587.0</ele>
        <time>2019-05-12T09:02:38Z</time>
      </trkpt>
      <trkpt lat="39.1763040" lon="-1.5181270">
        <ele>586.6</ele>
        <time>2019-05-12T09:02:39Z</time>
      </trkpt>
      <trkpt lat="39.1762890" lon="-1.5181090">
        <ele>586.4</ele>
        <time>2019-05-12T09:02:40Z</time>
      </trkpt>
      <trkpt lat="39.1762700" lon="-1.5180880">
        <ele>585.8</ele>
        <time>2019-05-12T09:02:41Z</time>
      </trkpt>
      <trkpt lat="39.1762500" lon="-1.5180630">
        <ele>585.4</ele>
        <time>2019-05-12T09:02:42Z</time>
      </trkpt>
      <trkpt lat="39.1762290" lon="-1.5180360">
        <ele>585.0</ele>
        <time>2019-05-12T09:02:43Z</time>
      </trkpt>
      <trkpt lat="39.1762010" lon="-1.5180160">
        <ele>584.4</ele>
        <time>2019-05-12T09:02:44Z</time>
      </trkpt>
      <trkpt lat="39.1761680" lon="-1.5179970">
        <ele>584.0</ele>
        <time>2019-05-12T09:02:45Z</time>
      </trkpt>
      <trkpt lat="39.1761300" lon="-1.5179780">
        <ele>583.4</ele>
        <time>2019-05-12T09:02:46Z</time>
      </trkpt>
      <trkpt lat="39.1760940" lon="-1.5179570">
        <ele>583.0</ele>
        <time>2019-05-12T09:02:47Z</time>
      </trkpt>
      <trkpt lat="39.1760540" lon="-1.5179390">
        <ele>582.4</ele>
        <time>2019-05-12T09:02:48Z</time>
      </trkpt>
      <trkpt lat="39.1760140" lon="-1.5179220">
        <ele>582.2</ele>
        <time>2019-05-12T09:02:49Z</time>
      </trkpt>
      <trkpt lat="39.1759740" lon="-1.5179040">
        <ele>581.8</ele>
        <time>2019-05-12T09:02:50Z</time>
      </trkpt>
      <trkpt lat="39.1759310" lon="-1.5178890">
        <ele>581.4</ele>
        <time>2019-05-12T09:02:51Z</time>
      </trkpt>
      <trkpt lat="39.1758850" lon="-1.5178750">
        <ele>580.6</ele>
        <time>2019-05-12T09:02:52Z</time>
      </trkpt>
      <trkpt lat="39.1758370" lon="-1.5178630">
        <ele>580.2</ele>
        <time>2019-05-12T09:02:53Z</time>
      </trkpt>
      <trkpt lat="39.1757820" lon="-1.5178530">
        <ele>579.4</ele>
        <time>2019-05-12T09:02:54Z</time>
      </trkpt>
      <trkpt lat="39.1757240" lon="-1.5178450">
        <ele>578.6</ele>
        <time>2019-05-12T09:02:55Z</time>
      </trkpt>
      <trkpt lat="39.1756690" lon="-1.5178390">
        <ele>577.8</ele>
        <time>2019-05-12T09:02:56Z</time>
      </trkpt>
      <trkpt lat="39.1756210" lon="-1.5178300">
        <ele>577.0</ele>
        <time>2019-05-12T09:02:57Z</time>
      </trkpt>
      <trkpt lat="39.1755830" lon="-1.5178290">
        <ele>576.4</ele>
        <time>2019-05-12T09:02:58Z</time>
      </trkpt>
      <trkpt lat="39.1755510" lon="-1.5178210">
        <ele>575.6</ele>
        <time>2019-05-12T09:02:59Z</time>
      </trkpt>
      <trkpt lat="39.1755300" lon="-1.5178100">
        <ele>575.2</ele>
        <time>2019-05-12T09:03:00Z</time>
      </trkpt>
      <trkpt lat="39.1755230" lon="-1.5177840">
        <ele>574.4</ele>
        <time>2019-05-12T09:03:01Z</time>
      </trkpt>
      <trkpt lat="39.1755340" lon="-1.5177540">
        <ele>573.2</ele>
        <time>2019-05-12T09:03:02Z</time>
      </trkpt>
      <trkpt lat="39.1755630" lon="-1.5177330">
        <ele>572.4</ele>
        <time>2019-05-12T09:03:03Z</time>
      </trkpt>
      <trkpt lat="39.1756110" lon="-1.5177260">
        <ele>571.8</ele>
        <time>2019-05-12T09:03:04Z</time>
      </trkpt>
      <trkpt lat="39.1756680" lon="-1.5177260">
        <ele>571.0</ele>
        <time>2019-05-12T09:03:05Z</time>
      </trkpt>
      <trkpt lat="39.1757300" lon="-1.5177260">
        <ele>570.4</ele>
        <time>2019-05-12T09:03:06Z</time>
      </trkpt>
      <trkpt lat="39.1757980" lon="-1.5177230">
        <ele>569.6</ele>
        <time>2019-05-12T09:03:07Z</time>
      </trkpt>
      <trkpt lat="39.1758710" lon="-1.5177200">
        <ele>568.8</ele>
        <time>2019-05-12T09:03:08Z</time>
      </trkpt>
      <trkpt lat="39.1759480" lon="-1.5177200">
        <ele>568.6</ele>
        <time>2019-05-12T09:03:09Z</time>
      </trkpt>
      <trkpt lat="39.1760280" lon="-1.5177250">
        <ele>568.2</ele>
        <time>2019-05-12T09:03:10Z</time>
      </trkpt>
      <trkpt lat="39.1761100" lon="-1.5177320">
        <ele>568.0</ele>
        <time>2019-05-12T09:03:11Z</time>
      </trkpt>
      <trkpt lat="39.1761930" lon="-1.5177410">
        <ele>567.8</ele>
        <time>2019-05-12T09:03:12Z</time>
      </trkpt>
      <trkpt lat="39.1762770" lon="-1.5177570">
        <ele>567.6</ele>
        <time>2019-05-12T09:03:13Z</time>
      </trkpt>
      <trkpt lat="39.1763610" lon="-1.5177820">
        <ele>567.4</ele>
        <time>2019-05-12T09:03:14Z</time>
      </trkpt>
      <trkpt lat="39.1764420" lon="-1.5178120">
        <ele>567.6</ele>
        <time>2019-05-12T09:03:15Z</time>
      </trkpt>
      <trkpt lat="39.1765180" lon="-1.5178260">
        <ele>567.4</ele>
        <time>2019-05-12T09:03:16Z</time>
      </trkpt>
      <trkpt lat="39.1765850" lon="-1.5177980">
        <ele>567.2</ele>
        <time>2019-05-12T09:03:17Z</time>
      </trkpt>
      <trkpt lat="39.1766480" lon="-1.5177430">
        <ele>567.0</ele>
        <time>2019-05-12T09:03:18Z</time>
      </trkpt>
      <trkpt lat="39.1767000" lon="-1.5176740">
        <ele>567.0</ele>
        <time>2019-05-12T09:03:19Z</time>
      </trkpt>
      <trkpt lat="39.1767360" lon="-1.5175880">
        <ele>566.6</ele>
        <time>2019-05-12T09:03:20Z</time>
      </trkpt>
      <trkpt lat="39.1767670" lon="-1.5174960">
        <ele>566.4</ele>
        <time>2019-05-12T09:03:21Z</time>
      </trkpt>
      <trkpt lat="39.1767960" lon="-1.5174020">
        <ele>566.0</ele>
        <time>2019-05-12T09:03:22Z</time>
      </trkpt>
      <trkpt lat="39.1768300" lon="-1.5173080">
        <ele>565.4</ele>
        <time>2019-05-12T09:03:23Z</time>
      </trkpt>
      <trkpt lat="39.1768630" lon="-1.5172140">
        <ele>564.8</ele>
        <time>2019-05-12T09:03:24Z</time>
      </trkpt>
      <trkpt lat="39.1769010" lon="-1.5171200">
        <ele>564.0</ele>
        <time>2019-05-12T09:03:25Z</time>
      </trkpt>
      <trkpt lat="39.1769360" lon="-1.5170300">
        <ele>563.4</ele>
        <time>2019-05-12T09:03:26Z</time>
      </trkpt>
      <trkpt lat="39.1769680" lon="-1.5169400">
        <ele>562.4</ele>
        <time>2019-05-12T09:03:27Z</time>
      </trkpt>
      <trkpt lat="39.1770000" lon="-1.5168500">
        <ele>562.2</ele>
        <time>2019-05-12T09:03:28Z</time>
      </trkpt>
      <trkpt lat="39.1770310" lon="-1.5167630">
        <ele>562.0</ele>
        <time>2019-05-12T09:03:29Z</time>
      </trkpt>
      <trkpt lat="39.1770630" lon="-1.5166770">
        <ele>562.0</ele>
        <time>2019-05-12T09:03:30Z</time>
      </trkpt>
      <trkpt lat="39.1770940" lon="-1.5165920">
        <ele>562.0</ele>
        <time>2019-05-12T09:03:31Z</time>
      </trkpt>
      <trkpt lat="39.1771250" lon="-1.5165080">
        <ele>562.0</ele>
        <time>2019-05-12T09:03:32Z</time>
      </trkpt>
      <trkpt lat="39.1771580" lon="-1.5164270">
        <ele>562.0</ele>
        <time>2019-05-12T09:03:33Z</time>
      </trkpt>
      <trkpt lat="39.1771920" lon="-1.5163500">
        <ele>561.8</ele>
        <time>2019-05-12T09:03:34Z</time>
      </trkpt>
      <trkpt lat="39.1772260" lon="-1.5162780">
        <ele>561.8</ele>
        <time>2019-05-12T09:03:35Z</time>
      </trkpt>
      <trkpt lat="39.1772460" lon="-1.5162060">
        <ele>561.8</ele>
        <time>2019-05-12T09:03:36Z</time>
      </trkpt>
      <trkpt lat="39.1772450" lon="-1.5161460">
        <ele>561.8</ele>
        <time>2019-05-12T09:03:37Z</time>
      </trkpt>
      <trkpt lat="39.1772290" lon="-1.5160970">
        <ele>561.8</ele>
        <time>2019-05-12T09:03:38Z</time>
      </trkpt>
      <trkpt lat="39.1772050" lon="-1.5160660">
        <ele>561.8</ele>
        <time>2019-05-12T09:03:39Z</time>
      </trkpt>
      <trkpt lat="39.1771790" lon="-1.5160410">
        <ele>561.8</ele>
        <time>2019-05-12T09:03:40Z</time>
      </trkpt>
      <trkpt lat="39.1771450" lon="-1.5160200">
        <ele>561.8</ele>
        <time>2019-05-12T09:03:41Z</time>
      </trkpt>
      <trkpt lat="39.1771090" lon="-1.5160060">
        <ele>561.8</ele>
        <time>2019-05-12T09:03:42Z</time>
      </trkpt>
      <trkpt lat="39.1770690" lon="-1.5159960">
        <ele>562.0</ele>
        <time>2019-05-12T09:03:43Z</time>
      </trkpt>
      <trkpt lat="39.1770290" lon="-1.5159920">
        <ele>562.0</ele>
        <time>2019-05-12T09:03:44Z</time>
      </trkpt>
      <trkpt lat="39.1769820" lon="-1.5159890">
        <ele>562.0</ele>
        <time>2019-05-12T09:03:45Z</time>
      </trkpt>
      <trkpt lat="39.1769330" lon="-1.5159940">
        <ele>562.2</ele>
        <time>2019-05-12T09:03:46Z</time>
      </trkpt>
      <trkpt lat="39.1768810" lon="-1.5159970">
        <ele>562.2</ele>
        <time>2019-05-12T09:03:47Z</time>
      </trkpt>
      <trkpt lat="39.1768280" lon="-1.5159870">
        <ele>562.4</ele>
        <time>2019-05-12T09:03:48Z</time>
      </trkpt>
      <trkpt lat="39.1767710" lon="-1.5159750">
        <ele>562.6</ele>
        <time>2019-05-12T09:03:49Z</time>
      </trkpt>
      <trkpt lat="39.1767130" lon="-1.5159600">
        <ele>563.0</ele>
        <time>2019-05-12T09:03:50Z</time>
      </trkpt>
      <trkpt lat="39.1766550" lon="-1.5159460">
        <ele>563.2</ele>
        <time>2019-05-12T09:03:51Z</time>
      </trkpt>
      <trkpt lat="39.1765980" lon="-1.5159340">
        <ele>563.4</ele>
        <time>2019-05-12T09:03:52Z</time>
      </trkpt>
      <trkpt lat="39.1765420" lon="-1.5159220">
        <ele>563.6</ele>
        <time>2019-05-12T09:03:53Z</time>
      </trkpt>
      <trkpt lat="39.1764880" lon="-1.5159120">
        <ele>563.8</ele>
        <time>2019-05-12T09:03:54Z</time>
      </trkpt>
      <trkpt lat="39.1764370" lon="-1.5159020">
        <ele>564.0</ele>
        <time>2019-05-12T09:03:55Z</time>
      </trkpt>
      <trkpt lat="39.1763840" lon="-1.5159020">
        <ele>564.2</ele>
        <time>2019-05-12T09:03:56Z</time>
      </trkpt>
      <trkpt lat="39.1763290" lon="-1.5159020">
        <ele>564.4</ele>
        <time>2019-05-12T09:03:57Z</time>
      </trkpt>
      <trkpt lat="39.1762700" lon="-1.5159000">
        <ele>564.4</ele>
        <time>2019-05-12T09:03:58Z</time>
      </trkpt>
      <trkpt lat="39.1762040" lon="-1.5159080">
        <ele>564.6</ele>
        <time>2019-05-12T09:03:59Z</time>
      </trkpt>
      <trkpt lat="39.1761330" lon="-1.5159160">
        <ele>564.6</ele>
        <time>2019-05-12T09:04:00Z</time>
      </trkpt>
      <trkpt lat="39.1760600" lon="-1.5159240">
        <ele>564.8</ele>
        <time>2019-05-12T09:04:01Z</time>
      </trkpt>
      <trkpt lat="39.1759850" lon="-1.5159380">
        <ele>564.8</ele>
        <time>2019-05-12T09:04:02Z</time>
      </trkpt>
      <trkpt lat="39.1759110" lon="-1.5159560">
        <ele>564.8</ele>
        <time>2019-05-12T09:04:03Z</time>
      </trkpt>
      <trkpt lat="39.1758370" lon="-1.5159710">
        <ele>564.8</ele>
        <time>2019-05-12T09:04:04Z</time>
      </trkpt>
      <trkpt lat="39.1757660" lon="-1.5159810">
        <ele>565.0</ele>
        <time>2019-05-12T09:04:05Z</time>
      </trkpt>
      <trkpt lat="39.1756960" lon="-1.5159840">
        <ele>565.0</ele>
        <time>2019-05-12T09:04:06Z</time>
      </trkpt>
      <trkpt lat="39.1756250" lon="-1.5159870">
        <ele>565.0</ele>
        <time>2019-05-12T09:04:07Z</time>
      </trkpt>
      <trkpt lat="39.1755590" lon="-1.5159830">
        <ele>565.2</ele>
        <time>2019-05-12T09:04:08Z</time>
      </trkpt>
      <trkpt lat="39.1754920" lon="-1.5159820">
        <ele>565.2</ele>
        <time>2019-05-12T09:04:09Z</time>
      </trkpt>
      <trkpt lat="39.1754340" lon="-1.5159580">
        <ele>565.2</ele>
        <time>2019-05-12T09:04:10Z</time>
      </trkpt>
      <trkpt lat="39.1753770" lon="-1.5159560">
        <ele>565.4</ele>
        <time>2019-05-12T09:04:11Z</time>
      </trkpt>
      <trkpt lat="39.1753240" lon="-1.5159590">
        <ele>565.4</ele>
        <time>2019-05-12T09:04:12Z</time>
      </trkpt>
      <trkpt lat="39.1752740" lon="-1.5159690">
        <ele>565.4</ele>
        <time>2019-05-12T09:04:13Z</time>
      </trkpt>
      <trkpt lat="39.1752230" lon="-1.5159800">
        <ele>565.6</ele>
        <time>2019-05-12T09:04:14Z</time>
      </trkpt>
      <trkpt lat="39.1751720" lon="-1.5159960">
        <ele>565.6</ele>
        <time>2019-05-12T09:04:15Z</time>
      </trkpt>
      <trkpt lat="39.1751200" lon="-1.5160060">
        <ele>565.6</ele>
        <time>2019-05-12T09:04:16Z</time>
      </trkpt>
      <trkpt lat="39.1750660" lon="-1.5160200">
        <ele>565.6</ele>
        <time>2019-05-12T09:04:17Z</time>
      </trkpt>
      <trkpt lat="39.1750120" lon="-1.5160350">
        <ele>565.6</ele>
        <time>2019-05-12T09:04:18Z</time>
      </trkpt>
      <trkpt lat="39.1749560" lon="-1.5160500">
        <ele>566.0</ele>
        <time>2019-05-12T09:04:19Z</time>
      </trkpt>
      <trkpt lat="39.1749020" lon="-1.5160660">
        <ele>566.6</ele>
        <time>2019-05-12T09:04:20Z</time>
      </trkpt>
      <trkpt lat="39.1748470" lon="-1.5160860">
        <ele>567.0</ele>
        <time>2019-05-12T09:04:21Z</time>
      </trkpt>
      <trkpt lat="39.1747930" lon="-1.5161090">
        <ele>567.2</ele>
        <time>2019-05-12T09:04:22Z</time>
      </trkpt>
      <trkpt lat="39.1747430" lon="-1.5161320">
        <ele>567.6</ele>
        <time>2019-05-12T09:04:23Z</time>
      </trkpt>
      <trkpt lat="39.1746900" lon="-1.5161560">
        <ele>567.8</ele>
        <time>2019-05-12T09:04:24Z</time>
      </trkpt>
      <trkpt lat="39.1746370" lon="-1.5161770">
        <ele>567.8</ele>
        <time>2019-05-12T09:04:25Z</time>
      </trkpt>
      <trkpt lat="39.1745860" lon="-1.5161960">
        <ele>568.0</ele>
        <time>2019-05-12T09:04:26Z</time>
      </trkpt>
      <trkpt lat="39.1745390" lon="-1.5162160">
        <ele>568.2</ele>
        <time>2019-05-12T09:04:27Z</time>
      </trkpt>
      <trkpt lat="39.1744910" lon="-1.5162380">
        <ele>568.0</ele>
        <time>2019-05-12T09:04:28Z</time>
      </trkpt>
      <trkpt lat="39.1744420" lon="-1.5162650">
        <ele>568.2</ele>
        <time>2019-05-12T09:04:29Z</time>
      </trkpt>
      <trkpt lat="39.1743950" lon="-1.5162980">
        <ele>568.2</ele>
        <time>2019-05-12T09:04:30Z</time>
      </trkpt>
      <trkpt lat="39.1743490" lon="-1.5163310">
        <ele>568.6</ele>
        <time>2019-05-12T09:04:31Z</time>
      </trkpt>
      <trkpt lat="39.1743030" lon="-1.5163650">
        <ele>568.6</ele>
        <time>2019-05-12T09:04:32Z</time>
      </trkpt>
      <trkpt lat="39.1742540" lon="-1.5163970">
        <ele>568.8</ele>
        <time>2019-05-12T09:04:33Z</time>
      </trkpt>
      <trkpt lat="39.1742060" lon="-1.5164270">
        <ele>569.0</ele>
        <time>2019-05-12T09:04:34Z</time>
      </trkpt>
      <trkpt lat="39.1741600" lon="-1.5164580">
        <ele>569.4</ele>
        <time>2019-05-12T09:04:35Z</time>
      </trkpt>
      <trkpt lat="39.1741100" lon="-1.5164870">
        <ele>569.4</ele>
        <time>2019-05-12T09:04:36Z</time>
      </trkpt>
      <trkpt lat="39.1740620" lon="-1.5165160">
        <ele>569.8</ele>
        <time>2019-05-12T09:04:37Z</time>
      </trkpt>
      <trkpt lat="39.1740170" lon="-1.5165470">
        <ele>570.0</ele>
        <time>2019-05-12T09:04:38Z</time>
      </trkpt>
      <trkpt lat="39.1739760" lon="-1.5165760">
        <ele>570.2</ele>
        <time>2019-05-12T09:04:39Z</time>
      </trkpt>
      <trkpt lat="39.1739360" lon="-1.5166070">
        <ele>570.4</ele>
        <time>2019-05-12T09:04:40Z</time>
      </trkpt>
      <trkpt lat="39.1738970" lon="-1.5166380">
        <ele>570.6</ele>
        <time>2019-05-12T09:04:41Z</time>
      </trkpt>
      <trkpt lat="39.1738570" lon="-1.5166670">
        <ele>570.6</ele>
        <time>2019-05-12T09:04:42Z</time>
      </trkpt>
      <trkpt lat="39.1738200" lon="-1.5167000">
        <ele>570.8</ele>
        <time>2019-05-12T09:04:43Z</time>
      </trkpt>
      <trkpt lat="39.1737810" lon="-1.5167340">
        <ele>570.8</ele>
        <time>2019-05-12T09:04:44Z</time>
      </trkpt>
      <trkpt lat="39.1737430" lon="-1.5167680">
        <ele>571.0</ele>
        <time>2019-05-12T09:04:45Z</time>
      </trkpt>
      <trkpt lat="39.1737090" lon="-1.5168030">
        <ele>571.2</ele>
        <time>2019-05-12T09:04:46Z</time>
      </trkpt>
      <trkpt lat="39.1736770" lon="-1.5168410">
        <ele>571.6</ele>
        <time>2019-05-12T09:04:47Z</time>
      </trkpt>
      <trkpt lat="39.1736470" lon="-1.5168820">
        <ele>571.8</ele>
        <time>2019-05-12T09:04:48Z</time>
      </trkpt>
      <trkpt lat="39.1736110" lon="-1.5169250">
        <ele>572.2</ele>
        <time>2019-05-12T09:04:49Z</time>
      </trkpt>
      <trkpt lat="39.1735770" lon="-1.5169730">
        <ele>572.4</ele>
        <time>2019-05-12T09:04:50Z</time>
      </trkpt>
      <trkpt lat="39.1735430" lon="-1.5170230">
        <ele>572.4</ele>
        <time>2019-05-12T09:04:51Z</time>
      </trkpt>
      <trkpt lat="39.1735090" lon="-1.5170750">
        <ele>572.6</ele>
        <time>2019-05-12T09:04:52Z</time>
      </trkpt>
      <trkpt lat="39.1734710" lon="-1.5171230">
        <ele>572.8</ele>
        <time>2019-05-12T09:04:53Z</time>
      </trkpt>
      <trkpt lat="39.1734350" lon="-1.5171790">
        <ele>573.2</ele>
        <time>2019-05-12T09:04:54Z</time>
      </trkpt>
      <trkpt lat="39.1734010" lon="-1.5172380">
        <ele>573.4</ele>
        <time>2019-05-12T09:04:55Z</time>
      </trkpt>
      <trkpt lat="39.1733630" lon="-1.5173020">
        <ele>573.6</ele>
        <time>2019-05-12T09:04:56Z</time>
      </trkpt>
      <trkpt lat="39.1733240" lon="-1.5173670">
        <ele>573.6</ele>
        <time>2019-05-12T09:04:57Z</time>
      </trkpt>
      <trkpt lat="39.1732840" lon="-1.5174340">
        <ele>573.6</ele>
        <time>2019-05-12T09:04:58Z</time>
      </trkpt>
      <trkpt lat="39.1732420" lon="-1.5175000">
        <ele>573.6</ele>
        <time>2019-05-12T09:04:59Z</time>
      </trkpt>
      <trkpt lat="39.1732020" lon="-1.5175690">
        <ele>573.6</ele>
        <time>2019-05-12T09:05:00Z</time>
      </trkpt>
      <trkpt lat="39.1731660" lon="-1.5176400">
        <ele>573.6</ele>
        <time>2019-05-12T09:05:01Z</time>
      </trkpt>
      <trkpt lat="39.1731320" lon="-1.5177150">
        <ele>573.6</ele>
        <time>2019-05-12T09:05:02Z</time>
      </trkpt>
      <trkpt lat="39.1731070" lon="-1.5178000">
        <ele>573.6</ele>
        <time>2019-05-12T09:05:03Z</time>
      </trkpt>
      <trkpt lat="39.1730750" lon="-1.5178880">
        <ele>573.6</ele>
        <time>2019-05-12T09:05:04Z</time>
      </trkpt>
      <trkpt lat="39.1730400" lon="-1.5179800">
        <ele>573.6</ele>
        <time>2019-05-12T09:05:05Z</time>
      </trkpt>
      <trkpt lat="39.1729930" lon="-1.5180700">
        <ele>573.6</ele>
        <time>2019-05-12T09:05:06Z</time>
      </trkpt>
      <trkpt lat="39.1729470" lon="-1.5181660">
        <ele>573.6</ele>
        <time>2019-05-12T09:05:07Z</time>
      </trkpt>
      <trkpt lat="39.1729140" lon="-1.5182710">
        <ele>573.6</ele>
        <time>2019-05-12T09:05:08Z</time>
      </trkpt>
      <trkpt lat="39.1728920" lon="-1.5183770">
        <ele>573.6</ele>
        <time>2019-05-12T09:05:09Z</time>
      </trkpt>
      <trkpt lat="39.1728730" lon="-1.5184830">
        <ele>573.6</ele>
        <time>2019-05-12T09:05:10Z</time>
      </trkpt>
      <trkpt lat="39.1728470" lon="-1.5185930">
        <ele>573.2</ele>
        <time>2019-05-12T09:05:11Z</time>
      </trkpt>
      <trkpt lat="39.1728210" lon="-1.5187070">
        <ele>573.0</ele>
        <time>2019-05-12T09:05:12Z</time>
      </trkpt>
      <trkpt lat="39.1727990" lon="-1.5188250">
        <ele>572.6</ele>
        <time>2019-05-12T09:05:13Z</time>
      </trkpt>
      <trkpt lat="39.1727800" lon="-1.5189360">
        <ele>571.8</ele>
        <time>2019-05-12T09:05:14Z</time>
      </trkpt>
      <trkpt lat="39.1727690" lon="-1.5190480">
        <ele>571.2</ele>
        <time>2019-05-12T09:05:15Z</time>
      </trkpt>
      <trkpt lat="39.1727540" lon="-1.5191630">
        <ele>570.6</ele>
        <time>2019-05-12T09:05:16Z</time>
      </trkpt>
      <trkpt lat="39.1727370" lon="-1.5192630">
        <ele>569.8</ele>
        <time>2019-05-12T09:05:17Z</time>
      </trkpt>
      <trkpt lat="39.1727210" lon="-1.5193570">
        <ele>569.4</ele>
        <time>2019-05-12T09:05:18Z</time>
      </trkpt>
      <trkpt lat="39.1727100" lon="-1.5194400">
        <ele>569.0</ele>
        <time>2019-05-12T09:05:19Z</time>
      </trkpt>
      <trkpt lat="39.1727020" lon="-1.5195190">
        <ele>569.0</ele>
        <time>2019-05-12T09:05:20Z</time>
      </trkpt>
      <trkpt lat="39.1726900" lon="-1.5195930">
        <ele>569.0</ele>
        <time>2019-05-12T09:05:21Z</time>
      </trkpt>
      <trkpt lat="39.1726780" lon="-1.5196660">
        <ele>568.6</ele>
        <time>2019-05-12T09:05:22Z</time>
      </trkpt>
      <trkpt lat="39.1726860" lon="-1.5197540">
        <ele>568.6</ele>
        <time>2019-05-12T09:05:23Z</time>
      </trkpt>
      <trkpt lat="39.1726900" lon="-1.5198410">
        <ele>568.4</ele>
        <time>2019-05-12T09:05:24Z</time>
      </trkpt>
      <trkpt lat="39.1726860" lon="-1.5199250">
        <ele>568.2</ele>
        <time>2019-05-12T09:05:25Z</time>
      </trkpt>
      <trkpt lat="39.1726740" lon="-1.5200040">
        <ele>568.0</ele>
        <time>2019-05-12T09:05:26Z</time>
      </trkpt>
      <trkpt lat="39.1726580" lon="-1.5200800">
        <ele>567.8</ele>
        <time>2019-05-12T09:05:27Z</time>
      </trkpt>
      <trkpt lat="39.1726470" lon="-1.5201530">
        <ele>567.6</ele>
        <time>2019-05-12T09:05:28Z</time>
      </trkpt>
      <trkpt lat="39.1726640" lon="-1.5202110">
        <ele>567.4</ele>
        <time>2019-05-12T09:05:29Z</time>
      </trkpt>
      <trkpt lat="39.1726940" lon="-1.5202690">
        <ele>567.4</ele>
        <time>2019-05-12T09:05:30Z</time>
      </trkpt>
      <trkpt lat="39.1727330" lon="-1.5203200">
        <ele>567.2</ele>
        <time>2019-05-12T09:05:31Z</time>
      </trkpt>
      <trkpt lat="39.1727680" lon="-1.5203640">
        <ele>567.2</ele>
        <time>2019-05-12T09:05:32Z</time>
      </trkpt>
      <trkpt lat="39.1727980" lon="-1.5204020">
        <ele>567.2</ele>
        <time>2019-05-12T09:05:33Z</time>
      </trkpt>
      <trkpt lat="39.1728220" lon="-1.5204530">
        <ele>567.0</ele>
        <time>2019-05-12T09:05:34Z</time>
      </trkpt>
      <trkpt lat="39.1728410" lon="-1.5205150">
        <ele>566.6</ele>
        <time>2019-05-12T09:05:35Z</time>
      </trkpt>
      <trkpt lat="39.1728540" lon="-1.5205750">
        <ele>565.6</ele>
        <time>2019-05-12T09:05:36Z</time>
      </trkpt>
      <trkpt lat="39.1728650" lon="-1.5206370">
        <ele>564.6</ele>
        <time>2019-05-12T09:05:37Z</time>
      </trkpt>
      <trkpt lat="39.1728750" lon="-1.5206990">
        <ele>564.0</ele>
        <time>2019-05-12T09:05:38Z</time>
      </trkpt>
      <trkpt lat="39.1728840" lon="-1.5207620">
        <ele>563.8</ele>
        <time>2019-05-12T09:05:39Z</time>
      </trkpt>
      <trkpt lat="39.1728920" lon="-1.5208280">
        <ele>563.6</ele>
        <time>2019-05-12T09:05:40Z</time>
      </trkpt>
      <trkpt lat="39.1728960" lon="-1.5208990">
        <ele>563.6</ele>
        <time>2019-05-12T09:05:41Z</time>
      </trkpt>
      <trkpt lat="39.1729080" lon="-1.5209750">
        <ele>563.6</ele>
        <time>2019-05-12T09:05:42Z</time>
      </trkpt>
      <trkpt lat="39.1729230" lon="-1.5210520">
        <ele>563.6</ele>
        <time>2019-05-12T09:05:43Z</time>
      </trkpt>
      <trkpt lat="39.1729340" lon="-1.5211260">
        <ele>563.6</ele>
        <time>2019-05-12T09:05:44Z</time>
      </trkpt>
      <trkpt lat="39.1729450" lon="-1.5212010">
        <ele>563.6</ele>
        <time>2019-05-12T09:05:45Z</time>
      </trkpt>
      <trkpt lat="39.1729530" lon="-1.5212790">
        <ele>563.6</ele>
        <time>2019-05-12T09:05:46Z</time>
      </trkpt>
      <trkpt lat="39.1729570" lon="-1.5213560">
        <ele>563.8</ele>
        <time>2019-05-12T09:05:47Z</time>
      </trkpt>
      <trkpt lat="39.1729560" lon="-1.5214320">
        <ele>564.0</ele>
        <time>2019-05-12T09:05:48Z</time>
      </trkpt>
      <trkpt lat="39.1729530" lon="-1.5215060">
        <ele>564.0</ele>
        <time>2019-05-12T09:05:49Z</time>
      </trkpt>
      <trkpt lat="39.1729520" lon="-1.5215800">
        <ele>564.0</ele>
        <time>2019-05-12T09:05:50Z</time>
      </trkpt>
      <trkpt lat="39.1729580" lon="-1.5216570">
        <ele>564.2</ele>
        <time>2019-05-12T09:05:51Z</time>
      </trkpt>
      <trkpt lat="39.1729680" lon="-1.5217140">
        <ele>564.2</ele>
        <time>2019-05-12T09:05:52Z</time>
      </trkpt>
      <trkpt lat="39.1729780" lon="-1.5217720">
        <ele>564.2</ele>
        <time>2019-05-12T09:05:53Z</time>
      </trkpt>
      <trkpt lat="39.1729980" lon="-1.5218880">
        <ele>564.2</ele>
        <time>2019-05-12T09:05:54Z</time>
      </trkpt>
      <trkpt lat="39.1730130" lon="-1.5219680">
        <ele>564.2</ele>
        <time>2019-05-12T09:05:55Z</time>
      </trkpt>
      <trkpt lat="39.1730250" lon="-1.5220470">
        <ele>564.2</ele>
        <time>2019-05-12T09:05:56Z</time>
      </trkpt>
      <trkpt lat="39.1730300" lon="-1.5221080">
        <ele>564.2</ele>
        <time>2019-05-12T09:05:57Z</time>
      </trkpt>
      <trkpt lat="39.1730340" lon="-1.5221700">
        <ele>564.2</ele>
        <time>2019-05-12T09:05:58Z</time>
      </trkpt>
      <trkpt lat="39.1730420" lon="-1.5222930">
        <ele>564.4</ele>
        <time>2019-05-12T09:05:59Z</time>
      </trkpt>
      <trkpt lat="39.1730480" lon="-1.5223690">
        <ele>564.4</ele>
        <time>2019-05-12T09:06:00Z</time>
      </trkpt>
      <trkpt lat="39.1730520" lon="-1.5224370">
        <ele>564.4</ele>
        <time>2019-05-12T09:06:01Z</time>
      </trkpt>
      <trkpt lat="39.1730650" lon="-1.5225060">
        <ele>564.4</ele>
        <time>2019-05-12T09:06:02Z</time>
      </trkpt>
      <trkpt lat="39.1730800" lon="-1.5225770">
        <ele>564.4</ele>
        <time>2019-05-12T09:06:03Z</time>
      </trkpt>
      <trkpt lat="39.1730970" lon="-1.5226480">
        <ele>564.4</ele>
        <time>2019-05-12T09:06:04Z</time>
      </trkpt>
      <trkpt lat="39.1731130" lon="-1.5227240">
        <ele>564.6</ele>
        <time>2019-05-12T09:06:05Z</time>
      </trkpt>
      <trkpt lat="39.1731280" lon="-1.5228000">
        <ele>564.6</ele>
        <time>2019-05-12T09:06:06Z</time>
      </trkpt>
      <trkpt lat="39.1731410" lon="-1.5228780">
        <ele>564.6</ele>
        <time>2019-05-12T09:06:07Z</time>
      </trkpt>
      <trkpt lat="39.1731610" lon="-1.5229590">
        <ele>564.8</ele>
        <time>2019-05-12T09:06:08Z</time>
      </trkpt>
      <trkpt lat="39.1731780" lon="-1.5230380">
        <ele>564.8</ele>
        <time>2019-05-12T09:06:09Z</time>
      </trkpt>
      <trkpt lat="39.1731960" lon="-1.5231190">
        <ele>564.8</ele>
        <time>2019-05-12T09:06:10Z</time>
      </trkpt>
      <trkpt lat="39.1732100" lon="-1.5232020">
        <ele>565.0</ele>
        <time>2019-05-12T09:06:11Z</time>
      </trkpt>
      <trkpt lat="39.1732230" lon="-1.5232910">
        <ele>565.0</ele>
        <time>2019-05-12T09:06:12Z</time>
      </trkpt>
      <trkpt lat="39.1732400" lon="-1.5233800">
        <ele>565.0</ele>
        <time>2019-05-12T09:06:13Z</time>
      </trkpt>
      <trkpt lat="39.1732660" lon="-1.5234690">
        <ele>565.0</ele>
        <time>2019-05-12T09:06:14Z</time>
      </trkpt>
      <trkpt lat="39.1733070" lon="-1.5235480">
        <ele>565.0</ele>
        <time>2019-05-12T09:06:15Z</time>
      </trkpt>
      <trkpt lat="39.1733510" lon="-1.5236270">
        <ele>565.0</ele>
        <time>2019-05-12T09:06:16Z</time>
      </trkpt>
      <trkpt lat="39.1733860" lon="-1.5237110">
        <ele>565.0</ele>
        <time>2019-05-12T09:06:17Z</time>
      </trkpt>
      <trkpt lat="39.1734070" lon="-1.5237990">
        <ele>565.0</ele>
        <time>2019-05-12T09:06:18Z</time>
      </trkpt>
      <trkpt lat="39.1734230" lon="-1.5238900">
        <ele>565.0</ele>
        <time>2019-05-12T09:06:19Z</time>
      </trkpt>
      <trkpt lat="39.1734280" lon="-1.5239820">
        <ele>565.0</ele>
        <time>2019-05-12T09:06:20Z</time>
      </trkpt>
      <trkpt lat="39.1734350" lon="-1.5240710">
        <ele>565.0</ele>
        <time>2019-05-12T09:06:21Z</time>
      </trkpt>
      <trkpt lat="39.1734490" lon="-1.5241540">
        <ele>565.0</ele>
        <time>2019-05-12T09:06:22Z</time>
      </trkpt>
      <trkpt lat="39.1734770" lon="-1.5242330">
        <ele>565.0</ele>
        <time>2019-05-12T09:06:23Z</time>
      </trkpt>
      <trkpt lat="39.1735060" lon="-1.5243080">
        <ele>565.0</ele>
        <time>2019-05-12T09:06:24Z</time>
      </trkpt>
      <trkpt lat="39.1735400" lon="-1.5243780">
        <ele>565.0</ele>
        <time>2019-05-12T09:06:25Z</time>
      </trkpt>
      <trkpt lat="39.1735780" lon="-1.5244480">
        <ele>564.8</ele>
        <time>2019-05-12T09:06:26Z</time>
      </trkpt>
      <trkpt lat="39.1736200" lon="-1.5245160">
        <ele>564.8</ele>
        <time>2019-05-12T09:06:27Z</time>
      </trkpt>
      <trkpt lat="39.1736620" lon="-1.5245960">
        <ele>564.8</ele>
        <time>2019-05-12T09:06:28Z</time>
      </trkpt>
      <trkpt lat="39.1736980" lon="-1.5246800">
        <ele>564.8</ele>
        <time>2019-05-12T09:06:29Z</time>
      </trkpt>
      <trkpt lat="39.1737290" lon="-1.5247690">
        <ele>564.8</ele>
        <time>2019-05-12T09:06:30Z</time>
      </trkpt>
      <trkpt lat="39.1737580" lon="-1.5248570">
        <ele>564.8</ele>
        <time>2019-05-12T09:06:31Z</time>
      </trkpt>
      <trkpt lat="39.1737870" lon="-1.5249420">
        <ele>564.8</ele>
        <time>2019-05-12T09:06:32Z</time>
      </trkpt>
      <trkpt lat="39.1738150" lon="-1.5250290">
        <ele>564.6</ele>
        <time>2019-05-12T09:06:33Z</time>
      </trkpt>
      <trkpt lat="39.1738430" lon="-1.5251170">
        <ele>564.6</ele>
        <time>2019-05-12T09:06:34Z</time>
      </trkpt>
      <trkpt lat="39.1738730" lon="-1.5252000">
        <ele>564.2</ele>
        <time>2019-05-12T09:06:35Z</time>
      </trkpt>
      <trkpt lat="39.1739010" lon="-1.5252780">
        <ele>563.8</ele>
        <time>2019-05-12T09:06:36Z</time>
      </trkpt>
      <trkpt lat="39.1739250" lon="-1.5253520">
        <ele>563.6</ele>
        <time>2019-05-12T09:06:37Z</time>
      </trkpt>
      <trkpt lat="39.1739430" lon="-1.5254240">
        <ele>563.4</ele>
        <time>2019-05-12T09:06:38Z</time>
      </trkpt>
      <trkpt lat="39.1739650" lon="-1.5254930">
        <ele>563.4</ele>
        <time>2019-05-12T09:06:39Z</time>
      </trkpt>
      <trkpt lat="39.1739940" lon="-1.5255650">
        <ele>563.4</ele>
        <time>2019-05-12T09:06:40Z</time>
      </trkpt>
      <trkpt lat="39.1740220" lon="-1.5256430">
        <ele>563.4</ele>
        <time>2019-05-12T09:06:41Z</time>
      </trkpt>
      <trkpt lat="39.1740480" lon="-1.5257210">
        <ele>563.2</ele>
        <time>2019-05-12T09:06:42Z</time>
      </trkpt>
      <trkpt lat="39.1740710" lon="-1.5258030">
        <ele>563.2</ele>
        <time>2019-05-12T09:06:43Z</time>
      </trkpt>
      <trkpt lat="39.1740940" lon="-1.5258830">
        <ele>563.2</ele>
        <time>2019-05-12T09:06:44Z</time>
      </trkpt>
      <trkpt lat="39.1741170" lon="-1.5259680">
        <ele>563.2</ele>
        <time>2019-05-12T09:06:45Z</time>
      </trkpt>
      <trkpt lat="39.1741370" lon="-1.5260530">
        <ele>563.4</ele>
        <time>2019-05-12T09:06:46Z</time>
      </trkpt>
      <trkpt lat="39.1741520" lon="-1.5261370">
        <ele>563.4</ele>
        <time>2019-05-12T09:06:47Z</time>
      </trkpt>
      <trkpt lat="39.1741610" lon="-1.5262150">
        <ele>563.4</ele>
        <time>2019-05-12T09:06:48Z</time>
      </trkpt>
      <trkpt lat="39.1741650" lon="-1.5263020">
        <ele>563.4</ele>
        <time>2019-05-12T09:06:49Z</time>
      </trkpt>
      <trkpt lat="39.1741640" lon="-1.5263860">
        <ele>563.4</ele>
        <time>2019-05-12T09:06:50Z</time>
      </trkpt>
      <trkpt lat="39.1741550" lon="-1.5264740">
        <ele>563.4</ele>
        <time>2019-05-12T09:06:51Z</time>
      </trkpt>
      <trkpt lat="39.1741500" lon="-1.5265570">
        <ele>563.4</ele>
        <time>2019-05-12T09:06:52Z</time>
      </trkpt>
      <trkpt lat="39.1741540" lon="-1.5266360">
        <ele>563.4</ele>
        <time>2019-05-12T09:06:53Z</time>
      </trkpt>
      <trkpt lat="39.1741760" lon="-1.5267080">
        <ele>563.4</ele>
        <time>2019-05-12T09:06:54Z</time>
      </trkpt>
      <trkpt lat="39.1742040" lon="-1.5267740">
        <ele>563.4</ele>
        <time>2019-05-12T09:06:55Z</time>
      </trkpt>
      <trkpt lat="39.1742310" lon="-1.5268360">
        <ele>563.4</ele>
        <time>2019-05-12T09:06:56Z</time>
      </trkpt>
      <trkpt lat="39.1742620" lon="-1.5268940">
        <ele>563.4</ele>
        <time>2019-05-12T09:06:57Z</time>
      </trkpt>
      <trkpt lat="39.1743030" lon="-1.5269560">
        <ele>563.4</ele>
        <time>2019-05-12T09:06:58Z</time>
      </trkpt>
      <trkpt lat="39.1743440" lon="-1.5270270">
        <ele>563.4</ele>
        <time>2019-05-12T09:06:59Z</time>
      </trkpt>
      <trkpt lat="39.1743850" lon="-1.5270910">
        <ele>563.4</ele>
        <time>2019-05-12T09:07:00Z</time>
      </trkpt>
      <trkpt lat="39.1744280" lon="-1.5271620">
        <ele>563.4</ele>
        <time>2019-05-12T09:07:01Z</time>
      </trkpt>
      <trkpt lat="39.1744700" lon="-1.5272360">
        <ele>563.2</ele>
        <time>2019-05-12T09:07:02Z</time>
      </trkpt>
      <trkpt lat="39.1745120" lon="-1.5273120">
        <ele>563.2</ele>
        <time>2019-05-12T09:07:03Z</time>
      </trkpt>
      <trkpt lat="39.1745600" lon="-1.5273910">
        <ele>563.2</ele>
        <time>2019-05-12T09:07:04Z</time>
      </trkpt>
      <trkpt lat="39.1746090" lon="-1.5274720">
        <ele>563.2</ele>
        <time>2019-05-12T09:07:05Z</time>
      </trkpt>
      <trkpt lat="39.1746510" lon="-1.5275520">
        <ele>563.0</ele>
        <time>2019-05-12T09:07:06Z</time>
      </trkpt>
      <trkpt lat="39.1746960" lon="-1.5276320">
        <ele>563.0</ele>
        <time>2019-05-12T09:07:07Z</time>
      </trkpt>
      <trkpt lat="39.1747340" lon="-1.5277040">
        <ele>563.0</ele>
        <time>2019-05-12T09:07:08Z</time>
      </trkpt>
      <trkpt lat="39.1747720" lon="-1.5277780">
        <ele>563.0</ele>
        <time>2019-05-12T09:07:09Z</time>
      </trkpt>
      <trkpt lat="39.1748130" lon="-1.5278500">
        <ele>563.0</ele>
        <time>2019-05-12T09:07:10Z</time>
      </trkpt>
      <trkpt lat="39.1748590" lon="-1.5279190">
        <ele>563.0</ele>
        <time>2019-05-12T09:07:11Z</time>
      </trkpt>
      <trkpt lat="39.1749090" lon="-1.5279820">
        <ele>563.0</ele>
        <time>2019-05-12T09:07:12Z</time>
      </trkpt>
      <trkpt lat="39.1749560" lon="-1.5280440">
        <ele>563.0</ele>
        <time>2019-05-12T09:07:13Z</time>
      </trkpt>
      <trkpt lat="39.1750030" lon="-1.5281030">
        <ele>563.0</ele>
        <time>2019-05-12T09:07:14Z</time>
      </trkpt>
      <trkpt lat="39.1750430" lon="-1.5281590">
        <ele>563.0</ele>
        <time>2019-05-12T09:07:15Z</time>
      </trkpt>
      <trkpt lat="39.1750810" lon="-1.5282120">
        <ele>563.0</ele>
        <time>2019-05-12T09:07:16Z</time>
      </trkpt>
      <trkpt lat="39.1751190" lon="-1.5282620">
        <ele>563.0</ele>
        <time>2019-05-12T09:07:17Z</time>
      </trkpt>
      <trkpt lat="39.1751610" lon="-1.5283090">
        <ele>563.0</ele>
        <time>2019-05-12T09:07:18Z</time>
      </trkpt>
      <trkpt lat="39.1752080" lon="-1.5283590">
        <ele>563.0</ele>
        <time>2019-05-12T09:07:19Z</time>
      </trkpt>
      <trkpt lat="39.1752600" lon="-1.5284130">
        <ele>563.0</ele>
        <time>2019-05-12T09:07:20Z</time>
      </trkpt>
      <trkpt lat="39.1753120" lon="-1.5284690">
        <ele>563.0</ele>
        <time>2019-05-12T09:07:21Z</time>
      </trkpt>
      <trkpt lat="39.1753620" lon="-1.5285200">
        <ele>563.2</ele>
        <time>2019-05-12T09:07:22Z</time>
      </trkpt>
      <trkpt lat="39.1754210" lon="-1.5285570">
        <ele>563.4</ele>
        <time>2019-05-12T09:07:23Z</time>
      </trkpt>
      <trkpt lat="39.1754790" lon="-1.5285940">
        <ele>563.4</ele>
        <time>2019-05-12T09:07:24Z</time>
      </trkpt>
      <trkpt lat="39.1755310" lon="-1.5286310">
        <ele>563.6</ele>
        <time>2019-05-12T09:07:25Z</time>
      </trkpt>
      <trkpt lat="39.1755840" lon="-1.5286740">
        <ele>563.8</ele>
        <time>2019-05-12T09:07:26Z</time>
      </trkpt>
      <trkpt lat="39.1756370" lon="-1.5287200">
        <ele>563.8</ele>
        <time>2019-05-12T09:07:27Z</time>
      </trkpt>
      <trkpt lat="39.1756900" lon="-1.5287770">
        <ele>564.0</ele>
        <time>2019-05-12T09:07:28Z</time>
      </trkpt>
      <trkpt lat="39.1757460" lon="-1.5288430">
        <ele>564.0</ele>
        <time>2019-05-12T09:07:29Z</time>
      </trkpt>
      <trkpt lat="39.1757910" lon="-1.5289120">
        <ele>564.0</ele>
        <time>2019-05-12T09:07:30Z</time>
      </trkpt>
      <trkpt lat="39.1758300" lon="-1.5289740">
        <ele>564.2</ele>
        <time>2019-05-12T09:07:31Z</time>
      </trkpt>
      <trkpt lat="39.1758710" lon="-1.5290280">
        <ele>564.2</ele>
        <time>2019-05-12T09:07:32Z</time>
      </trkpt>
      <trkpt lat="39.1759150" lon="-1.5290730">
        <ele>564.2</ele>
        <time>2019-05-12T09:07:33Z</time>
      </trkpt>
      <trkpt lat="39.1759610" lon="-1.5291140">
        <ele>564.2</ele>
        <time>2019-05-12T09:07:34Z</time>
      </trkpt>
      <trkpt lat="39.1760170" lon="-1.5291470">
        <ele>564.2</ele>
        <time>2019-05-12T09:07:35Z</time>
      </trkpt>
      <trkpt lat="39.1760730" lon="-1.5291770">
        <ele>564.2</ele>
        <time>2019-05-12T09:07:36Z</time>
      </trkpt>
      <trkpt lat="39.1761320" lon="-1.5292050">
        <ele>564.4</ele>
        <time>2019-05-12T09:07:37Z</time>
      </trkpt>
      <trkpt lat="39.1761950" lon="-1.5292340">
        <ele>564.4</ele>
        <time>2019-05-12T09:07:38Z</time>
      </trkpt>
      <trkpt lat="39.1762560" lon="-1.5292670">
        <ele>564.4</ele>
        <time>2019-05-12T09:07:39Z</time>
      </trkpt>
      <trkpt lat="39.1763180" lon="-1.5293020">
        <ele>564.8</ele>
        <time>2019-05-12T09:07:40Z</time>
      </trkpt>
      <trkpt lat="39.1763840" lon="-1.5293400">
        <ele>565.2</ele>
        <time>2019-05-12T09:07:41Z</time>
      </trkpt>
      <trkpt lat="39.1764470" lon="-1.5293790">
        <ele>565.6</ele>
        <time>2019-05-12T09:07:42Z</time>
      </trkpt>
      <trkpt lat="39.1765060" lon="-1.5294140">
        <ele>565.6</ele>
        <time>2019-05-12T09:07:43Z</time>
      </trkpt>
      <trkpt lat="39.1765730" lon="-1.5294400">
        <ele>565.8</ele>
        <time>2019-05-12T09:07:44Z</time>
      </trkpt>
      <trkpt lat="39.1766410" lon="-1.5294590">
        <ele>565.8</ele>
        <time>2019-05-12T09:07:45Z</time>
      </trkpt>
      <trkpt lat="39.1767090" lon="-1.5294820">
        <ele>565.8</ele>
        <time>2019-05-12T09:07:46Z</time>
      </trkpt>
      <trkpt lat="39.1767790" lon="-1.5295110">
        <ele>565.8</ele>
        <time>2019-05-12T09:07:47Z</time>
      </trkpt>
      <trkpt lat="39.1768480" lon="-1.5295460">
        <ele>565.8</ele>
        <time>2019-05-12T09:07:48Z</time>
      </trkpt>
      <trkpt lat="39.1769120" lon="-1.5295870">
        <ele>565.8</ele>
        <time>2019-05-12T09:07:49Z</time>
      </trkpt>
      <trkpt lat="39.1769750" lon="-1.5296280">
        <ele>565.8</ele>
        <time>2019-05-12T09:07:50Z</time>
      </trkpt>
      <trkpt lat="39.1770370" lon="-1.5296660">
        <ele>565.8</ele>
        <time>2019-05-12T09:07:51Z</time>
      </trkpt>
      <trkpt lat="39.1771010" lon="-1.5297060">
        <ele>565.8</ele>
        <time>2019-05-12T09:07:52Z</time>
      </trkpt>
      <trkpt lat="39.1771650" lon="-1.5297420">
        <ele>565.6</ele>
        <time>2019-05-12T09:07:53Z</time>
      </trkpt>
      <trkpt lat="39.1772280" lon="-1.5297760">
        <ele>565.2</ele>
        <time>2019-05-12T09:07:54Z</time>
      </trkpt>
      <trkpt lat="39.1772900" lon="-1.5298110">
        <ele>565.0</ele>
        <time>2019-05-12T09:07:55Z</time>
      </trkpt>
      <trkpt lat="39.1773500" lon="-1.5298460">
        <ele>564.8</ele>
        <time>2019-05-12T09:07:56Z</time>
      </trkpt>
      <trkpt lat="39.1774100" lon="-1.5298880">
        <ele>564.6</ele>
        <time>2019-05-12T09:07:57Z</time>
      </trkpt>
      <trkpt lat="39.1774680" lon="-1.5299380">
        <ele>564.6</ele>
        <time>2019-05-12T09:07:58Z</time>
      </trkpt>
      <trkpt lat="39.1775210" lon="-1.5299920">
        <ele>564.6</ele>
        <time>2019-05-12T09:07:59Z</time>
      </trkpt>
      <trkpt lat="39.1775700" lon="-1.5300480">
        <ele>564.6</ele>
        <time>2019-05-12T09:08:00Z</time>
      </trkpt>
      <trkpt lat="39.1776250" lon="-1.5300990">
        <ele>564.4</ele>
        <time>2019-05-12T09:08:01Z</time>
      </trkpt>
      <trkpt lat="39.1776840" lon="-1.5301450">
        <ele>564.4</ele>
        <time>2019-05-12T09:08:02Z</time>
      </trkpt>
      <trkpt lat="39.1777430" lon="-1.5301900">
        <ele>564.4</ele>
        <time>2019-05-12T09:08:03Z</time>
      </trkpt>
      <trkpt lat="39.1777990" lon="-1.5302380">
        <ele>564.4</ele>
        <time>2019-05-12T09:08:04Z</time>
      </trkpt>
      <trkpt lat="39.1778500" lon="-1.5302940">
        <ele>564.4</ele>
        <time>2019-05-12T09:08:05Z</time>
      </trkpt>
      <trkpt lat="39.1778980" lon="-1.5303530">
        <ele>564.4</ele>
        <time>2019-05-12T09:08:06Z</time>
      </trkpt>
      <trkpt lat="39.1779470" lon="-1.5304140">
        <ele>564.4</ele>
        <time>2019-05-12T09:08:07Z</time>
      </trkpt>
      <trkpt lat="39.1779960" lon="-1.5304780">
        <ele>564.4</ele>
        <time>2019-05-12T09:08:08Z</time>
      </trkpt>
      <trkpt lat="39.1780440" lon="-1.5305440">
        <ele>564.4</ele>
        <time>2019-05-12T09:08:09Z</time>
      </trkpt>
      <trkpt lat="39.1780870" lon="-1.5306140">
        <ele>564.4</ele>
        <time>2019-05-12T09:08:10Z</time>
      </trkpt>
      <trkpt lat="39.1781260" lon="-1.5306880">
        <ele>564.4</ele>
        <time>2019-05-12T09:08:11Z</time>
      </trkpt>
      <trkpt lat="39.1781610" lon="-1.5307660">
        <ele>564.2</ele>
        <time>2019-05-12T09:08:12Z</time>
      </trkpt>
      <trkpt lat="39.1781920" lon="-1.5308490">
        <ele>564.2</ele>
        <time>2019-05-12T09:08:13Z</time>
      </trkpt>
      <trkpt lat="39.1782200" lon="-1.5309310">
        <ele>564.2</ele>
        <time>2019-05-12T09:08:14Z</time>
      </trkpt>
      <trkpt lat="39.1782440" lon="-1.5310160">
        <ele>564.2</ele>
        <time>2019-05-12T09:08:15Z</time>
      </trkpt>
      <trkpt lat="39.1782630" lon="-1.5311010">
        <ele>564.2</ele>
        <time>2019-05-12T09:08:16Z</time>
      </trkpt>
      <trkpt lat="39.1782780" lon="-1.5311880">
        <ele>564.0</ele>
        <time>2019-05-12T09:08:17Z</time>
      </trkpt>
      <trkpt lat="39.1782850" lon="-1.5312740">
        <ele>564.0</ele>
        <time>2019-05-12T09:08:18Z</time>
      </trkpt>
      <trkpt lat="39.1782920" lon="-1.5313630">
        <ele>564.0</ele>
        <time>2019-05-12T09:08:19Z</time>
      </trkpt>
      <trkpt lat="39.1782930" lon="-1.5314550">
        <ele>564.0</ele>
        <time>2019-05-12T09:08:20Z</time>
      </trkpt>
      <trkpt lat="39.1782860" lon="-1.5315460">
        <ele>564.0</ele>
        <time>2019-05-12T09:08:21Z</time>
      </trkpt>
      <trkpt lat="39.1782740" lon="-1.5316370">
        <ele>563.8</ele>
        <time>2019-05-12T09:08:22Z</time>
      </trkpt>
      <trkpt lat="39.1782550" lon="-1.5317230">
        <ele>563.8</ele>
        <time>2019-05-12T09:08:23Z</time>
      </trkpt>
      <trkpt lat="39.1782370" lon="-1.5318090">
        <ele>563.8</ele>
        <time>2019-05-12T09:08:24Z</time>
      </trkpt>
      <trkpt lat="39.1782170" lon="-1.5318920">
        <ele>563.8</ele>
        <time>2019-05-12T09:08:25Z</time>
      </trkpt>
      <trkpt lat="39.1781920" lon="-1.5319730">
        <ele>563.8</ele>
        <time>2019-05-12T09:08:26Z</time>
      </trkpt>
      <trkpt lat="39.1781660" lon="-1.5320500">
        <ele>563.8</ele>
        <time>2019-05-12T09:08:27Z</time>
      </trkpt>
      <trkpt lat="39.1781410" lon="-1.5321260">
        <ele>563.8</ele>
        <time>2019-05-12T09:08:28Z</time>
      </trkpt>
      <trkpt lat="39.1781110" lon="-1.5322000">
        <ele>563.8</ele>
        <time>2019-05-12T09:08:29Z</time>
      </trkpt>
      <trkpt lat="39.1780800" lon="-1.5322680">
        <ele>563.8</ele>
        <time>2019-05-12T09:08:30Z</time>
      </trkpt>
      <trkpt lat="39.1780420" lon="-1.5323260">
        <ele>563.8</ele>
        <time>2019-05-12T09:08:31Z</time>
      </trkpt>
      <trkpt lat="39.1779990" lon="-1.5323800">
        <ele>563.8</ele>
        <time>2019-05-12T09:08:32Z</time>
      </trkpt>
      <trkpt lat="39.1779540" lon="-1.5324360">
        <ele>563.8</ele>
        <time>2019-05-12T09:08:33Z</time>
      </trkpt>
      <trkpt lat="39.1779100" lon="-1.5324910">
        <ele>563.8</ele>
        <time>2019-05-12T09:08:34Z</time>
      </trkpt>
      <trkpt lat="39.1778700" lon="-1.5325480">
        <ele>563.8</ele>
        <time>2019-05-12T09:08:35Z</time>
      </trkpt>
      <trkpt lat="39.1778210" lon="-1.5325980">
        <ele>563.8</ele>
        <time>2019-05-12T09:08:36Z</time>
      </trkpt>
      <trkpt lat="39.1777670" lon="-1.5326350">
        <ele>563.8</ele>
        <time>2019-05-12T09:08:37Z</time>
      </trkpt>
      <trkpt lat="39.1777120" lon="-1.5326600">
        <ele>564.0</ele>
        <time>2019-05-12T09:08:38Z</time>
      </trkpt>
      <trkpt lat="39.1776570" lon="-1.5326810">
        <ele>564.0</ele>
        <time>2019-05-12T09:08:39Z</time>
      </trkpt>
      <trkpt lat="39.1775990" lon="-1.5326990">
        <ele>564.0</ele>
        <time>2019-05-12T09:08:40Z</time>
      </trkpt>
      <trkpt lat="39.1775420" lon="-1.5327250">
        <ele>564.4</ele>
        <time>2019-05-12T09:08:41Z</time>
      </trkpt>
      <trkpt lat="39.1774840" lon="-1.5327510">
        <ele>564.6</ele>
        <time>2019-05-12T09:08:42Z</time>
      </trkpt>
      <trkpt lat="39.1774300" lon="-1.5327790">
        <ele>564.6</ele>
        <time>2019-05-12T09:08:43Z</time>
      </trkpt>
      <trkpt lat="39.1773800" lon="-1.5328120">
        <ele>564.6</ele>
        <time>2019-05-12T09:08:44Z</time>
      </trkpt>
      <trkpt lat="39.1773290" lon="-1.5328480">
        <ele>564.8</ele>
        <time>2019-05-12T09:08:45Z</time>
      </trkpt>
      <trkpt lat="39.1772720" lon="-1.5328750">
        <ele>565.0</ele>
        <time>2019-05-12T09:08:46Z</time>
      </trkpt>
      <trkpt lat="39.1772140" lon="-1.5329000">
        <ele>565.2</ele>
        <time>2019-05-12T09:08:47Z</time>
      </trkpt>
      <trkpt lat="39.1771550" lon="-1.5329200">
        <ele>565.2</ele>
        <time>2019-05-12T09:08:48Z</time>
      </trkpt>
      <trkpt lat="39.1770940" lon="-1.5329300">
        <ele>565.4</ele>
        <time>2019-05-12T09:08:49Z</time>
      </trkpt>
      <trkpt lat="39.1770330" lon="-1.5329420">
        <ele>565.4</ele>
        <time>2019-05-12T09:08:50Z</time>
      </trkpt>
      <trkpt lat="39.1769740" lon="-1.5329550">
        <ele>565.4</ele>
        <time>2019-05-12T09:08:51Z</time>
      </trkpt>
      <trkpt lat="39.1769160" lon="-1.5329730">
        <ele>565.4</ele>
        <time>2019-05-12T09:08:52Z</time>
      </trkpt>
      <trkpt lat="39.1768540" lon="-1.5329860">
        <ele>565.4</ele>
        <time>2019-05-12T09:08:53Z</time>
      </trkpt>
      <trkpt lat="39.1767940" lon="-1.5330100">
        <ele>565.4</ele>
        <time>2019-05-12T09:08:54Z</time>
      </trkpt>
      <trkpt lat="39.1767340" lon="-1.5330400">
        <ele>565.6</ele>
        <time>2019-05-12T09:08:55Z</time>
      </trkpt>
      <trkpt lat="39.1766730" lon="-1.5330750">
        <ele>565.6</ele>
        <time>2019-05-12T09:08:56Z</time>
      </trkpt>
      <trkpt lat="39.1766130" lon="-1.5331080">
        <ele>565.6</ele>
        <time>2019-05-12T09:08:57Z</time>
      </trkpt>
      <trkpt lat="39.1765520" lon="-1.5331390">
        <ele>565.6</ele>
        <time>2019-05-12T09:08:58Z</time>
      </trkpt>
      <trkpt lat="39.1764930" lon="-1.5331600">
        <ele>565.6</ele>
        <time>2019-05-12T09:08:59Z</time>
      </trkpt>
      <trkpt lat="39.1764320" lon="-1.5331680">
        <ele>565.6</ele>
        <time>2019-05-12T09:09:00Z</time>
      </trkpt>
      <trkpt lat="39.1763760" lon="-1.5331710">
        <ele>565.6</ele>
        <time>2019-05-12T09:09:01Z</time>
      </trkpt>
      <trkpt lat="39.1763260" lon="-1.5331770">
        <ele>565.6</ele>
        <time>2019-05-12T09:09:02Z</time>
      </trkpt>
      <trkpt lat="39.1762730" lon="-1.5331840">
        <ele>565.6</ele>
        <time>2019-05-12T09:09:03Z</time>
      </trkpt>
      <trkpt lat="39.1762170" lon="-1.5331890">
        <ele>565.6</ele>
        <time>2019-05-12T09:09:04Z</time>
      </trkpt>
      <trkpt lat="39.1761600" lon="-1.5331880">
        <ele>565.6</ele>
        <time>2019-05-12T09:09:05Z</time>
      </trkpt>
      <trkpt lat="39.1761010" lon="-1.5331780">
        <ele>565.6</ele>
        <time>2019-05-12T09:09:06Z</time>
      </trkpt>
      <trkpt lat="39.1760420" lon="-1.5331630">
        <ele>565.6</ele>
        <time>2019-05-12T09:09:07Z</time>
      </trkpt>
      <trkpt lat="39.1759900" lon="-1.5331380">
        <ele>565.4</ele>
        <time>2019-05-12T09:09:08Z</time>
      </trkpt>
      <trkpt lat="39.1759380" lon="-1.5331170">
        <ele>565.4</ele>
        <time>2019-05-12T09:09:09Z</time>
      </trkpt>
      <trkpt lat="39.1758880" lon="-1.5331030">
        <ele>565.6</ele>
        <time>2019-05-12T09:09:10Z</time>
      </trkpt>
      <trkpt lat="39.1758380" lon="-1.5330960">
        <ele>565.6</ele>
        <time>2019-05-12T09:09:11Z</time>
      </trkpt>
      <trkpt lat="39.1757850" lon="-1.5330920">
        <ele>565.4</ele>
        <time>2019-05-12T09:09:12Z</time>
      </trkpt>
      <trkpt lat="39.1757320" lon="-1.5330860">
        <ele>565.4</ele>
        <time>2019-05-12T09:09:13Z</time>
      </trkpt>
      <trkpt lat="39.1756750" lon="-1.5330790">
        <ele>565.4</ele>
        <time>2019-05-12T09:09:14Z</time>
      </trkpt>
      <trkpt lat="39.1756180" lon="-1.5330730">
        <ele>565.4</ele>
        <time>2019-05-12T09:09:15Z</time>
      </trkpt>
      <trkpt lat="39.1755600" lon="-1.5330730">
        <ele>565.6</ele>
        <time>2019-05-12T09:09:16Z</time>
      </trkpt>
      <trkpt lat="39.1754960" lon="-1.5330740">
        <ele>565.8</ele>
        <time>2019-05-12T09:09:17Z</time>
      </trkpt>
      <trkpt lat="39.1754320" lon="-1.5330670">
        <ele>566.0</ele>
        <time>2019-05-12T09:09:18Z</time>
      </trkpt>
      <trkpt lat="39.1753700" lon="-1.5330470">
        <ele>566.0</ele>
        <time>2019-05-12T09:09:19Z</time>
      </trkpt>
      <trkpt lat="39.1753080" lon="-1.5330230">
        <ele>566.0</ele>
        <time>2019-05-12T09:09:20Z</time>
      </trkpt>
      <trkpt lat="39.1752470" lon="-1.5329970">
        <ele>566.0</ele>
        <time>2019-05-12T09:09:21Z</time>
      </trkpt>
      <trkpt lat="39.1751870" lon="-1.5329680">
        <ele>566.0</ele>
        <time>2019-05-12T09:09:22Z</time>
      </trkpt>
      <trkpt lat="39.1751290" lon="-1.5329350">
        <ele>566.2</ele>
        <time>2019-05-12T09:09:23Z</time>
      </trkpt>
      <trkpt lat="39.1750730" lon="-1.5328970">
        <ele>566.2</ele>
        <time>2019-05-12T09:09:24Z</time>
      </trkpt>
      <trkpt lat="39.1750190" lon="-1.5328550">
        <ele>566.2</ele>
        <time>2019-05-12T09:09:25Z</time>
      </trkpt>
      <trkpt lat="39.1749620" lon="-1.5328270">
        <ele>566.2</ele>
        <time>2019-05-12T09:09:26Z</time>
      </trkpt>
      <trkpt lat="39.1749030" lon="-1.5328110">
        <ele>566.2</ele>
        <time>2019-05-12T09:09:27Z</time>
      </trkpt>
      <trkpt lat="39.1748420" lon="-1.5327980">
        <ele>566.2</ele>
        <time>2019-05-12T09:09:28Z</time>
      </trkpt>
      <trkpt lat="39.1747820" lon="-1.5327820">
        <ele>566.4</ele>
        <time>2019-05-12T09:09:29Z</time>
      </trkpt>
      <trkpt lat="39.1747200" lon="-1.5327690">
        <ele>566.4</ele>
        <time>2019-05-12T09:09:30Z</time>
      </trkpt>
      <trkpt lat="39.1746600" lon="-1.5327540">
        <ele>566.4</ele>
        <time>2019-05-12T09:09:31Z</time>
      </trkpt>
      <trkpt lat="39.1746020" lon="-1.5327360">
        <ele>566.4</ele>
        <time>2019-05-12T09:09:32Z</time>
      </trkpt>
      <trkpt lat="39.1745400" lon="-1.5327230">
        <ele>566.2</ele>
        <time>2019-05-12T09:09:33Z</time>
      </trkpt>
      <trkpt lat="39.1744800" lon="-1.5327130">
        <ele>566.2</ele>
        <time>2019-05-12T09:09:34Z</time>
      </trkpt>
      <trkpt lat="39.1744200" lon="-1.5327010">
        <ele>566.2</ele>
        <time>2019-05-12T09:09:35Z</time>
      </trkpt>
      <trkpt lat="39.1743650" lon="-1.5326800">
        <ele>566.2</ele>
        <time>2019-05-12T09:09:36Z</time>
      </trkpt>
      <trkpt lat="39.1743140" lon="-1.5326590">
        <ele>566.2</ele>
        <time>2019-05-12T09:09:37Z</time>
      </trkpt>
      <trkpt lat="39.1742600" lon="-1.5326420">
        <ele>566.4</ele>
        <time>2019-05-12T09:09:38Z</time>
      </trkpt>
      <trkpt lat="39.1742040" lon="-1.5326380">
        <ele>566.4</ele>
        <time>2019-05-12T09:09:39Z</time>
      </trkpt>
      <trkpt lat="39.1741440" lon="-1.5326350">
        <ele>566.4</ele>
        <time>2019-05-12T09:09:40Z</time>
      </trkpt>
      <trkpt lat="39.1740830" lon="-1.5326210">
        <ele>566.4</ele>
        <time>2019-05-12T09:09:41Z</time>
      </trkpt>
      <trkpt lat="39.1740240" lon="-1.5325910">
        <ele>566.4</ele>
        <time>2019-05-12T09:09:42Z</time>
      </trkpt>
      <trkpt lat="39.1739660" lon="-1.5325560">
        <ele>566.4</ele>
        <time>2019-05-12T09:09:43Z</time>
      </trkpt>
      <trkpt lat="39.1739100" lon="-1.5325210">
        <ele>566.4</ele>
        <time>2019-05-12T09:09:44Z</time>
      </trkpt>
      <trkpt lat="39.1738560" lon="-1.5324820">
        <ele>566.6</ele>
        <time>2019-05-12T09:09:45Z</time>
      </trkpt>
      <trkpt lat="39.1738030" lon="-1.5324460">
        <ele>566.6</ele>
        <time>2019-05-12T09:09:46Z</time>
      </trkpt>
      <trkpt lat="39.1737510" lon="-1.5324170">
        <ele>566.6</ele>
        <time>2019-05-12T09:09:47Z</time>
      </trkpt>
      <trkpt lat="39.1736970" lon="-1.5323910">
        <ele>566.6</ele>
        <time>2019-05-12T09:09:48Z</time>
      </trkpt>
      <trkpt lat="39.1736410" lon="-1.5323660">
        <ele>566.6</ele>
        <time>2019-05-12T09:09:49Z</time>
      </trkpt>
      <trkpt lat="39.1735850" lon="-1.5323400">
        <ele>566.8</ele>
        <time>2019-05-12T09:09:50Z</time>
      </trkpt>
      <trkpt lat="39.1735290" lon="-1.5323120">
        <ele>566.8</ele>
        <time>2019-05-12T09:09:51Z</time>
      </trkpt>
      <trkpt lat="39.1734750" lon="-1.5322800">
        <ele>566.8</ele>
        <time>2019-05-12T09:09:52Z</time>
      </trkpt>
      <trkpt lat="39.1734240" lon="-1.5322420">
        <ele>567.0</ele>
        <time>2019-05-12T09:09:53Z</time>
      </trkpt>
      <trkpt lat="39.1733750" lon="-1.5322080">
        <ele>567.0</ele>
        <time>2019-05-12T09:09:54Z</time>
      </trkpt>
      <trkpt lat="39.1733240" lon="-1.5321850">
        <ele>567.0</ele>
        <time>2019-05-12T09:09:55Z</time>
      </trkpt>
      <trkpt lat="39.1732700" lon="-1.5321680">
        <ele>567.0</ele>
        <time>2019-05-12T09:09:56Z</time>
      </trkpt>
      <trkpt lat="39.1732130" lon="-1.5321480">
        <ele>567.0</ele>
        <time>2019-05-12T09:09:57Z</time>
      </trkpt>
      <trkpt lat="39.1731550" lon="-1.5321290">
        <ele>567.0</ele>
        <time>2019-05-12T09:09:58Z</time>
      </trkpt>
      <trkpt lat="39.1730940" lon="-1.5321070">
        <ele>567.0</ele>
        <time>2019-05-12T09:09:59Z</time>
      </trkpt>
      <trkpt lat="39.1730320" lon="-1.5320870">
        <ele>567.0</ele>
        <time>2019-05-12T09:10:00Z</time>
      </trkpt>
      <trkpt lat="39.1729700" lon="-1.5320670">
        <ele>567.0</ele>
        <time>2019-05-12T09:10:01Z</time>
      </trkpt>
      <trkpt lat="39.1729090" lon="-1.5320470">
        <ele>567.0</ele>
        <time>2019-05-12T09:10:02Z</time>
      </trkpt>
      <trkpt lat="39.1728500" lon="-1.5320260">
        <ele>567.0</ele>
        <time>2019-05-12T09:10:03Z</time>
      </trkpt>
      <trkpt lat="39.1727960" lon="-1.5320090">
        <ele>567.2</ele>
        <time>2019-05-12T09:10:04Z</time>
      </trkpt>
      <trkpt lat="39.1727410" lon="-1.5319960">
        <ele>567.2</ele>
        <time>2019-05-12T09:10:05Z</time>
      </trkpt>
      <trkpt lat="39.1726860" lon="-1.5319860">
        <ele>567.2</ele>
        <time>2019-05-12T09:10:06Z</time>
      </trkpt>
      <trkpt lat="39.1726280" lon="-1.5319760">
        <ele>567.2</ele>
        <time>2019-05-12T09:10:07Z</time>
      </trkpt>
      <trkpt lat="39.1725660" lon="-1.5319720">
        <ele>567.2</ele>
        <time>2019-05-12T09:10:08Z</time>
      </trkpt>
      <trkpt lat="39.1725020" lon="-1.5319680">
        <ele>567.4</ele>
        <time>2019-05-12T09:10:09Z</time>
      </trkpt>
      <trkpt lat="39.1724370" lon="-1.5319690">
        <ele>567.4</ele>
        <time>2019-05-12T09:10:10Z</time>
      </trkpt>
      <trkpt lat="39.1723710" lon="-1.5319710">
        <ele>567.4</ele>
        <time>2019-05-12T09:10:11Z</time>
      </trkpt>
      <trkpt lat="39.1723070" lon="-1.5319690">
        <ele>567.4</ele>
        <time>2019-05-12T09:10:12Z</time>
      </trkpt>
      <trkpt lat="39.1722470" lon="-1.5319570">
        <ele>567.4</ele>
        <time>2019-05-12T09:10:13Z</time>
      </trkpt>
      <trkpt lat="39.1721950" lon="-1.5319500">
        <ele>567.4</ele>
        <time>2019-05-12T09:10:14Z</time>
      </trkpt>
      <trkpt lat="39.1721380" lon="-1.5319480">
        <ele>567.6</ele>
        <time>2019-05-12T09:10:15Z</time>
      </trkpt>
      <trkpt lat="39.1720740" lon="-1.5319480">
        <ele>567.6</ele>
        <time>2019-05-12T09:10:16Z</time>
      </trkpt>
      <trkpt lat="39.1720010" lon="-1.5319640">
        <ele>567.6</ele>
        <time>2019-05-12T09:10:17Z</time>
      </trkpt>
      <trkpt lat="39.1719180" lon="-1.5319940">
        <ele>567.6</ele>
        <time>2019-05-12T09:10:18Z</time>
      </trkpt>
      <trkpt lat="39.1718360" lon="-1.5320180">
        <ele>567.6</ele>
        <time>2019-05-12T09:10:19Z</time>
      </trkpt>
      <trkpt lat="39.1717510" lon="-1.5320410">
        <ele>567.6</ele>
        <time>2019-05-12T09:10:20Z</time>
      </trkpt>
      <trkpt lat="39.1716640" lon="-1.5320530">
        <ele>567.6</ele>
        <time>2019-05-12T09:10:21Z</time>
      </trkpt>
      <trkpt lat="39.1715790" lon="-1.5320600">
        <ele>567.6</ele>
        <time>2019-05-12T09:10:22Z</time>
      </trkpt>
      <trkpt lat="39.1714930" lon="-1.5320580">
        <ele>567.6</ele>
        <time>2019-05-12T09:10:23Z</time>
      </trkpt>
      <trkpt lat="39.1714100" lon="-1.5320550">
        <ele>567.4</ele>
        <time>2019-05-12T09:10:24Z</time>
      </trkpt>
      <trkpt lat="39.1713290" lon="-1.5320550">
        <ele>567.2</ele>
        <time>2019-05-12T09:10:25Z</time>
      </trkpt>
      <trkpt lat="39.1712500" lon="-1.5320580">
        <ele>566.6</ele>
        <time>2019-05-12T09:10:26Z</time>
      </trkpt>
      <trkpt lat="39.1711730" lon="-1.5320680">
        <ele>565.8</ele>
        <time>2019-05-12T09:10:27Z</time>
      </trkpt>
      <trkpt lat="39.1710990" lon="-1.5320870">
        <ele>565.4</ele>
        <time>2019-05-12T09:10:28Z</time>
      </trkpt>
      <trkpt lat="39.1710250" lon="-1.5321080">
        <ele>565.0</ele>
        <time>2019-05-12T09:10:29Z</time>
      </trkpt>
      <trkpt lat="39.1709520" lon="-1.5321290">
        <ele>564.8</ele>
        <time>2019-05-12T09:10:30Z</time>
      </trkpt>
      <trkpt lat="39.1708760" lon="-1.5321420">
        <ele>564.6</ele>
        <time>2019-05-12T09:10:31Z</time>
      </trkpt>
      <trkpt lat="39.1708040" lon="-1.5321410">
        <ele>564.6</ele>
        <time>2019-05-12T09:10:32Z</time>
      </trkpt>
      <trkpt lat="39.1707340" lon="-1.5321390">
        <ele>564.6</ele>
        <time>2019-05-12T09:10:33Z</time>
      </trkpt>
      <trkpt lat="39.1706680" lon="-1.5321450">
        <ele>564.4</ele>
        <time>2019-05-12T09:10:34Z</time>
      </trkpt>
      <trkpt lat="39.1706060" lon="-1.5321580">
        <ele>564.4</ele>
        <time>2019-05-12T09:10:35Z</time>
      </trkpt>
      <trkpt lat="39.1705460" lon="-1.5321770">
        <ele>564.4</ele>
        <time>2019-05-12T09:10:36Z</time>
      </trkpt>
      <trkpt lat="39.1704870" lon="-1.5321910">
        <ele>564.4</ele>
        <time>2019-05-12T09:10:37Z</time>
      </trkpt>
      <trkpt lat="39.1704280" lon="-1.5322050">
        <ele>564.4</ele>
        <time>2019-05-12T09:10:38Z</time>
      </trkpt>
      <trkpt lat="39.1703690" lon="-1.5322180">
        <ele>564.4</ele>
        <time>2019-05-12T09:10:39Z</time>
      </trkpt>
      <trkpt lat="39.1703100" lon="-1.5322330">
        <ele>564.4</ele>
        <time>2019-05-12T09:10:40Z</time>
      </trkpt>
      <trkpt lat="39.1702520" lon="-1.5322540">
        <ele>564.4</ele>
        <time>2019-05-12T09:10:41Z</time>
      </trkpt>
      <trkpt lat="39.1701950" lon="-1.5322750">
        <ele>564.4</ele>
        <time>2019-05-12T09:10:42Z</time>
      </trkpt>
      <trkpt lat="39.1701370" lon="-1.5322940">
        <ele>564.4</ele>
        <time>2019-05-12T09:10:43Z</time>
      </trkpt>
      <trkpt lat="39.1700880" lon="-1.5323050">
        <ele>564.6</ele>
        <time>2019-05-12T09:10:44Z</time>
      </trkpt>
      <trkpt lat="39.1700360" lon="-1.5323270">
        <ele>564.6</ele>
        <time>2019-05-12T09:10:45Z</time>
      </trkpt>
      <trkpt lat="39.1699860" lon="-1.5323570">
        <ele>564.8</ele>
        <time>2019-05-12T09:10:46Z</time>
      </trkpt>
      <trkpt lat="39.1699350" lon="-1.5323930">
        <ele>564.8</ele>
        <time>2019-05-12T09:10:47Z</time>
      </trkpt>
      <trkpt lat="39.1698840" lon="-1.5324360">
        <ele>564.8</ele>
        <time>2019-05-12T09:10:48Z</time>
      </trkpt>
      <trkpt lat="39.1698410" lon="-1.5324790">
        <ele>564.8</ele>
        <time>2019-05-12T09:10:49Z</time>
      </trkpt>
      <trkpt lat="39.1697880" lon="-1.5325160">
        <ele>565.0</ele>
        <time>2019-05-12T09:10:50Z</time>
      </trkpt>
      <trkpt lat="39.1697350" lon="-1.5325540">
        <ele>565.0</ele>
        <time>2019-05-12T09:10:51Z</time>
      </trkpt>
      <trkpt lat="39.1696900" lon="-1.5325920">
        <ele>565.0</ele>
        <time>2019-05-12T09:10:52Z</time>
      </trkpt>
      <trkpt lat="39.1696440" lon="-1.5326300">
        <ele>565.0</ele>
        <time>2019-05-12T09:10:53Z</time>
      </trkpt>
      <trkpt lat="39.1695980" lon="-1.5326640">
        <ele>565.2</ele>
        <time>2019-05-12T09:10:54Z</time>
      </trkpt>
      <trkpt lat="39.1695570" lon="-1.5327020">
        <ele>565.2</ele>
        <time>2019-05-12T09:10:55Z</time>
      </trkpt>
      <trkpt lat="39.1695170" lon="-1.5327430">
        <ele>565.2</ele>
        <time>2019-05-12T09:10:56Z</time>
      </trkpt>
      <trkpt lat="39.1694770" lon="-1.5327830">
        <ele>565.0</ele>
        <time>2019-05-12T09:10:57Z</time>
      </trkpt>
      <trkpt lat="39.1694350" lon="-1.5328210">
        <ele>565.4</ele>
        <time>2019-05-12T09:10:58Z</time>
      </trkpt>
      <trkpt lat="39.1693910" lon="-1.5328590">
        <ele>565.2</ele>
        <time>2019-05-12T09:10:59Z</time>
      </trkpt>
      <trkpt lat="39.1693500" lon="-1.5328990">
        <ele>565.4</ele>
        <time>2019-05-12T09:11:00Z</time>
      </trkpt>
      <trkpt lat="39.1693130" lon="-1.5329460">
        <ele>565.6</ele>
        <time>2019-05-12T09:11:01Z</time>
      </trkpt>
      <trkpt lat="39.1692860" lon="-1.5329990">
        <ele>565.8</ele>
        <time>2019-05-12T09:11:02Z</time>
      </trkpt>
      <trkpt lat="39.1692610" lon="-1.5330550">
        <ele>566.4</ele>
        <time>2019-05-12T09:11:03Z</time>
      </trkpt>
      <trkpt lat="39.1692310" lon="-1.5331090">
        <ele>566.8</ele>
        <time>2019-05-12T09:11:04Z</time>
      </trkpt>
      <trkpt lat="39.1691950" lon="-1.5331600">
        <ele>567.0</ele>
        <time>2019-05-12T09:11:05Z</time>
      </trkpt>
      <trkpt lat="39.1691590" lon="-1.5332160">
        <ele>567.2</ele>
        <time>2019-05-12T09:11:06Z</time>
      </trkpt>
      <trkpt lat="39.1691210" lon="-1.5332730">
        <ele>567.2</ele>
        <time>2019-05-12T09:11:07Z</time>
      </trkpt>
      <trkpt lat="39.1690830" lon="-1.5333320">
        <ele>567.4</ele>
        <time>2019-05-12T09:11:08Z</time>
      </trkpt>
      <trkpt lat="39.1690450" lon="-1.5333910">
        <ele>567.6</ele>
        <time>2019-05-12T09:11:09Z</time>
      </trkpt>
      <trkpt lat="39.1690090" lon="-1.5334510">
        <ele>567.6</ele>
        <time>2019-05-12T09:11:10Z</time>
      </trkpt>
      <trkpt lat="39.1689780" lon="-1.5335130">
        <ele>567.8</ele>
        <time>2019-05-12T09:11:11Z</time>
      </trkpt>
      <trkpt lat="39.1689490" lon="-1.5335780">
        <ele>567.8</ele>
        <time>2019-05-12T09:11:12Z</time>
      </trkpt>
      <trkpt lat="39.1689230" lon="-1.5336480">
        <ele>568.0</ele>
        <time>2019-05-12T09:11:13Z</time>
      </trkpt>
      <trkpt lat="39.1689020" lon="-1.5337240">
        <ele>568.0</ele>
        <time>2019-05-12T09:11:14Z</time>
      </trkpt>
      <trkpt lat="39.1688780" lon="-1.5338000">
        <ele>568.0</ele>
        <time>2019-05-12T09:11:15Z</time>
      </trkpt>
      <trkpt lat="39.1688560" lon="-1.5338780">
        <ele>568.0</ele>
        <time>2019-05-12T09:11:16Z</time>
      </trkpt>
      <trkpt lat="39.1688360" lon="-1.5339600">
        <ele>568.0</ele>
        <time>2019-05-12T09:11:17Z</time>
      </trkpt>
      <trkpt lat="39.1688180" lon="-1.5340430">
        <ele>568.0</ele>
        <time>2019-05-12T09:11:18Z</time>
      </trkpt>
      <trkpt lat="39.1688000" lon="-1.5341260">
        <ele>568.0</ele>
        <time>2019-05-12T09:11:19Z</time>
      </trkpt>
      <trkpt lat="39.1687790" lon="-1.5342080">
        <ele>568.0</ele>
        <time>2019-05-12T09:11:20Z</time>
      </trkpt>
      <trkpt lat="39.1687610" lon="-1.5342900">
        <ele>568.0</ele>
        <time>2019-05-12T09:11:21Z</time>
      </trkpt>
      <trkpt lat="39.1687500" lon="-1.5343740">
        <ele>568.0</ele>
        <time>2019-05-12T09:11:22Z</time>
      </trkpt>
      <trkpt lat="39.1687440" lon="-1.5344590">
        <ele>568.0</ele>
        <time>2019-05-12T09:11:23Z</time>
      </trkpt>
      <trkpt lat="39.1687360" lon="-1.5345430">
        <ele>568.0</ele>
        <time>2019-05-12T09:11:24Z</time>
      </trkpt>
      <trkpt lat="39.1687220" lon="-1.5346240">
        <ele>568.0</ele>
        <time>2019-05-12T09:11:25Z</time>
      </trkpt>
      <trkpt lat="39.1687000" lon="-1.5347040">
        <ele>568.0</ele>
        <time>2019-05-12T09:11:26Z</time>
      </trkpt>
      <trkpt lat="39.1686760" lon="-1.5347840">
        <ele>568.0</ele>
        <time>2019-05-12T09:11:27Z</time>
      </trkpt>
      <trkpt lat="39.1686540" lon="-1.5348660">
        <ele>568.0</ele>
        <time>2019-05-12T09:11:28Z</time>
      </trkpt>
      <trkpt lat="39.1686360" lon="-1.5349460">
        <ele>568.0</ele>
        <time>2019-05-12T09:11:29Z</time>
      </trkpt>
      <trkpt lat="39.1686150" lon="-1.5350250">
        <ele>568.0</ele>
        <time>2019-05-12T09:11:30Z</time>
      </trkpt>
      <trkpt lat="39.1685940" lon="-1.5351020">
        <ele>567.8</ele>
        <time>2019-05-12T09:11:31Z</time>
      </trkpt>
      <trkpt lat="39.1685720" lon="-1.5351770">
        <ele>567.8</ele>
        <time>2019-05-12T09:11:32Z</time>
      </trkpt>
      <trkpt lat="39.1685530" lon="-1.5352430">
        <ele>567.8</ele>
        <time>2019-05-12T09:11:33Z</time>
      </trkpt>
      <trkpt lat="39.1685620" lon="-1.5353110">
        <ele>567.8</ele>
        <time>2019-05-12T09:11:34Z</time>
      </trkpt>
      <trkpt lat="39.1685810" lon="-1.5353810">
        <ele>568.0</ele>
        <time>2019-05-12T09:11:35Z</time>
      </trkpt>
      <trkpt lat="39.1686050" lon="-1.5354570">
        <ele>568.0</ele>
        <time>2019-05-12T09:11:36Z</time>
      </trkpt>
      <trkpt lat="39.1686290" lon="-1.5355320">
        <ele>568.0</ele>
        <time>2019-05-12T09:11:37Z</time>
      </trkpt>
      <trkpt lat="39.1686550" lon="-1.5356120">
        <ele>568.0</ele>
        <time>2019-05-12T09:11:38Z</time>
      </trkpt>
      <trkpt lat="39.1686830" lon="-1.5356900">
        <ele>568.0</ele>
        <time>2019-05-12T09:11:39Z</time>
      </trkpt>
      <trkpt lat="39.1687120" lon="-1.5357710">
        <ele>568.0</ele>
        <time>2019-05-12T09:11:40Z</time>
      </trkpt>
      <trkpt lat="39.1687360" lon="-1.5358500">
        <ele>568.0</ele>
        <time>2019-05-12T09:11:41Z</time>
      </trkpt>
      <trkpt lat="39.1687650" lon="-1.5359260">
        <ele>568.0</ele>
        <time>2019-05-12T09:11:42Z</time>
      </trkpt>
      <trkpt lat="39.1687890" lon="-1.5360050">
        <ele>568.0</ele>
        <time>2019-05-12T09:11:43Z</time>
      </trkpt>
      <trkpt lat="39.1688060" lon="-1.5360820">
        <ele>568.0</ele>
        <time>2019-05-12T09:11:44Z</time>
      </trkpt>
      <trkpt lat="39.1688300" lon="-1.5361620">
        <ele>568.0</ele>
        <time>2019-05-12T09:11:45Z</time>
      </trkpt>
      <trkpt lat="39.1688500" lon="-1.5362400">
        <ele>568.0</ele>
        <time>2019-05-12T09:11:46Z</time>
      </trkpt>
      <trkpt lat="39.1688690" lon="-1.5363180">
        <ele>568.0</ele>
        <time>2019-05-12T09:11:47Z</time>
      </trkpt>
      <trkpt lat="39.1688870" lon="-1.5364010">
        <ele>568.0</ele>
        <time>2019-05-12T09:11:48Z</time>
      </trkpt>
      <trkpt lat="39.1689040" lon="-1.5364870">
        <ele>567.8</ele>
        <time>2019-05-12T09:11:49Z</time>
      </trkpt>
      <trkpt lat="39.1689180" lon="-1.5365720">
        <ele>567.8</ele>
        <time>2019-05-12T09:11:50Z</time>
      </trkpt>
      <trkpt lat="39.1689390" lon="-1.5366560">
        <ele>567.8</ele>
        <time>2019-05-12T09:11:51Z</time>
      </trkpt>
      <trkpt lat="39.1689650" lon="-1.5367340">
        <ele>567.8</ele>
        <time>2019-05-12T09:11:52Z</time>
      </trkpt>
      <trkpt lat="39.1689940" lon="-1.5368110">
        <ele>567.8</ele>
        <time>2019-05-12T09:11:53Z</time>
      </trkpt>
      <trkpt lat="39.1690260" lon="-1.5368930">
        <ele>567.8</ele>
        <time>2019-05-12T09:11:54Z</time>
      </trkpt>
      <trkpt lat="39.1690630" lon="-1.5369780">
        <ele>567.8</ele>
        <time>2019-05-12T09:11:55Z</time>
      </trkpt>
      <trkpt lat="39.1690980" lon="-1.5370580">
        <ele>567.6</ele>
        <time>2019-05-12T09:11:56Z</time>
      </trkpt>
      <trkpt lat="39.1691300" lon="-1.5371390">
        <ele>567.6</ele>
        <time>2019-05-12T09:11:57Z</time>
      </trkpt>
      <trkpt lat="39.1691600" lon="-1.5372150">
        <ele>567.6</ele>
        <time>2019-05-12T09:11:58Z</time>
      </trkpt>
      <trkpt lat="39.1691890" lon="-1.5372870">
        <ele>567.6</ele>
        <time>2019-05-12T09:11:59Z</time>
      </trkpt>
      <trkpt lat="39.1692170" lon="-1.5373500">
        <ele>567.6</ele>
        <time>2019-05-12T09:12:00Z</time>
      </trkpt>
      <trkpt lat="39.1692420" lon="-1.5374070">
        <ele>567.6</ele>
        <time>2019-05-12T09:12:01Z</time>
      </trkpt>
      <trkpt lat="39.1692740" lon="-1.5374650">
        <ele>567.6</ele>
        <time>2019-05-12T09:12:02Z</time>
      </trkpt>
      <trkpt lat="39.1693180" lon="-1.5375250">
        <ele>567.6</ele>
        <time>2019-05-12T09:12:03Z</time>
      </trkpt>
      <trkpt lat="39.1693600" lon="-1.5375890">
        <ele>567.6</ele>
        <time>2019-05-12T09:12:04Z</time>
      </trkpt>
      <trkpt lat="39.1694030" lon="-1.5376570">
        <ele>567.6</ele>
        <time>2019-05-12T09:12:05Z</time>
      </trkpt>
      <trkpt lat="39.1694510" lon="-1.5377260">
        <ele>567.8</ele>
        <time>2019-05-12T09:12:06Z</time>
      </trkpt>
      <trkpt lat="39.1695000" lon="-1.5377900">
        <ele>567.8</ele>
        <time>2019-05-12T09:12:07Z</time>
      </trkpt>
      <trkpt lat="39.1695550" lon="-1.5378460">
        <ele>567.8</ele>
        <time>2019-05-12T09:12:08Z</time>
      </trkpt>
      <trkpt lat="39.1696160" lon="-1.5379010">
        <ele>567.8</ele>
        <time>2019-05-12T09:12:09Z</time>
      </trkpt>
      <trkpt lat="39.1696820" lon="-1.5379550">
        <ele>567.8</ele>
        <time>2019-05-12T09:12:10Z</time>
      </trkpt>
      <trkpt lat="39.1697470" lon="-1.5380120">
        <ele>568.0</ele>
        <time>2019-05-12T09:12:11Z</time>
      </trkpt>
      <trkpt lat="39.1698130" lon="-1.5380750">
        <ele>568.0</ele>
        <time>2019-05-12T09:12:12Z</time>
      </trkpt>
      <trkpt lat="39.1698720" lon="-1.5381370">
        <ele>568.0</ele>
        <time>2019-05-12T09:12:13Z</time>
      </trkpt>
      <trkpt lat="39.1699270" lon="-1.5382020">
        <ele>568.0</ele>
        <time>2019-05-12T09:12:14Z</time>
      </trkpt>
      <trkpt lat="39.1699850" lon="-1.5382650">
        <ele>568.0</ele>
        <time>2019-05-12T09:12:15Z</time>
      </trkpt>
      <trkpt lat="39.1700360" lon="-1.5383220">
        <ele>568.0</ele>
        <time>2019-05-12T09:12:16Z</time>
      </trkpt>
      <trkpt lat="39.1700820" lon="-1.5383710">
        <ele>567.8</ele>
        <time>2019-05-12T09:12:17Z</time>
      </trkpt>
      <trkpt lat="39.1701270" lon="-1.5384170">
        <ele>567.6</ele>
        <time>2019-05-12T09:12:18Z</time>
      </trkpt>
      <trkpt lat="39.1701730" lon="-1.5384590">
        <ele>567.6</ele>
        <time>2019-05-12T09:12:19Z</time>
      </trkpt>
      <trkpt lat="39.1702210" lon="-1.5385000">
        <ele>567.4</ele>
        <time>2019-05-12T09:12:20Z</time>
      </trkpt>
      <trkpt lat="39.1702690" lon="-1.5385400">
        <ele>567.4</ele>
        <time>2019-05-12T09:12:21Z</time>
      </trkpt>
      <trkpt lat="39.1703170" lon="-1.5385800">
        <ele>567.4</ele>
        <time>2019-05-12T09:12:22Z</time>
      </trkpt>
      <trkpt lat="39.1703680" lon="-1.5386220">
        <ele>567.4</ele>
        <time>2019-05-12T09:12:23Z</time>
      </trkpt>
      <trkpt lat="39.1704240" lon="-1.5386590">
        <ele>567.4</ele>
        <time>2019-05-12T09:12:24Z</time>
      </trkpt>
      <trkpt lat="39.1704810" lon="-1.5386950">
        <ele>567.4</ele>
        <time>2019-05-12T09:12:25Z</time>
      </trkpt>
      <trkpt lat="39.1705360" lon="-1.5387300">
        <ele>567.2</ele>
        <time>2019-05-12T09:12:26Z</time>
      </trkpt>
      <trkpt lat="39.1705960" lon="-1.5387610">
        <ele>567.2</ele>
        <time>2019-05-12T09:12:27Z</time>
      </trkpt>
      <trkpt lat="39.1706570" lon="-1.5387930">
        <ele>567.2</ele>
        <time>2019-05-12T09:12:28Z</time>
      </trkpt>
      <trkpt lat="39.1707170" lon="-1.5388290">
        <ele>567.2</ele>
        <time>2019-05-12T09:12:29Z</time>
      </trkpt>
      <trkpt lat="39.1707760" lon="-1.5388710">
        <ele>567.2</ele>
        <time>2019-05-12T09:12:30Z</time>
      </trkpt>
      <trkpt lat="39.1708290" lon="-1.5389200">
        <ele>567.2</ele>
        <time>2019-05-12T09:12:31Z</time>
      </trkpt>
      <trkpt lat="39.1708780" lon="-1.5389760">
        <ele>567.4</ele>
        <time>2019-05-12T09:12:32Z</time>
      </trkpt>
      <trkpt lat="39.1709270" lon="-1.5390370">
        <ele>567.4</ele>
        <time>2019-05-12T09:12:33Z</time>
      </trkpt>
      <trkpt lat="39.1709760" lon="-1.5390980">
        <ele>567.4</ele>
        <time>2019-05-12T09:12:34Z</time>
      </trkpt>
      <trkpt lat="39.1710260" lon="-1.5391600">
        <ele>567.4</ele>
        <time>2019-05-12T09:12:35Z</time>
      </trkpt>
      <trkpt lat="39.1710700" lon="-1.5392260">
        <ele>567.4</ele>
        <time>2019-05-12T09:12:36Z</time>
      </trkpt>
      <trkpt lat="39.1711100" lon="-1.5392960">
        <ele>567.4</ele>
        <time>2019-05-12T09:12:37Z</time>
      </trkpt>
      <trkpt lat="39.1711550" lon="-1.5393620">
        <ele>567.4</ele>
        <time>2019-05-12T09:12:38Z</time>
      </trkpt>
      <trkpt lat="39.1712000" lon="-1.5394270">
        <ele>567.4</ele>
        <time>2019-05-12T09:12:39Z</time>
      </trkpt>
      <trkpt lat="39.1712380" lon="-1.5394980">
        <ele>567.4</ele>
        <time>2019-05-12T09:12:40Z</time>
      </trkpt>
      <trkpt lat="39.1712720" lon="-1.5395770">
        <ele>567.4</ele>
        <time>2019-05-12T09:12:41Z</time>
      </trkpt>
      <trkpt lat="39.1712990" lon="-1.5396650">
        <ele>567.2</ele>
        <time>2019-05-12T09:12:42Z</time>
      </trkpt>
      <trkpt lat="39.1713220" lon="-1.5397560">
        <ele>567.2</ele>
        <time>2019-05-12T09:12:43Z</time>
      </trkpt>
      <trkpt lat="39.1713390" lon="-1.5398480">
        <ele>567.2</ele>
        <time>2019-05-12T09:12:44Z</time>
      </trkpt>
      <trkpt lat="39.1713500" lon="-1.5399390">
        <ele>567.0</ele>
        <time>2019-05-12T09:12:45Z</time>
      </trkpt>
      <trkpt lat="39.1713580" lon="-1.5400250">
        <ele>566.8</ele>
        <time>2019-05-12T09:12:46Z</time>
      </trkpt>
      <trkpt lat="39.1713550" lon="-1.5401160">
        <ele>566.8</ele>
        <time>2019-05-12T09:12:47Z</time>
      </trkpt>
      <trkpt lat="39.1713540" lon="-1.5402110">
        <ele>566.6</ele>
        <time>2019-05-12T09:12:48Z</time>
      </trkpt>
      <trkpt lat="39.1713510" lon="-1.5403020">
        <ele>566.4</ele>
        <time>2019-05-12T09:12:49Z</time>
      </trkpt>
      <trkpt lat="39.1713450" lon="-1.5403900">
        <ele>566.2</ele>
        <time>2019-05-12T09:12:50Z</time>
      </trkpt>
      <trkpt lat="39.1713370" lon="-1.5404770">
        <ele>566.2</ele>
        <time>2019-05-12T09:12:51Z</time>
      </trkpt>
      <trkpt lat="39.1713240" lon="-1.5405620">
        <ele>566.2</ele>
        <time>2019-05-12T09:12:52Z</time>
      </trkpt>
      <trkpt lat="39.1713050" lon="-1.5406410">
        <ele>566.0</ele>
        <time>2019-05-12T09:12:53Z</time>
      </trkpt>
      <trkpt lat="39.1712820" lon="-1.5407120">
        <ele>566.0</ele>
        <time>2019-05-12T09:12:54Z</time>
      </trkpt>
      <trkpt lat="39.1712600" lon="-1.5407810">
        <ele>566.0</ele>
        <time>2019-05-12T09:12:55Z</time>
      </trkpt>
      <trkpt lat="39.1712340" lon="-1.5408400">
        <ele>566.0</ele>
        <time>2019-05-12T09:12:56Z</time>
      </trkpt>
      <trkpt lat="39.1712070" lon="-1.5408960">
        <ele>565.8</ele>
        <time>2019-05-12T09:12:57Z</time>
      </trkpt>
      <trkpt lat="39.1711780" lon="-1.5409550">
        <ele>565.8</ele>
        <time>2019-05-12T09:12:58Z</time>
      </trkpt>
      <trkpt lat="39.1711430" lon="-1.5410100">
        <ele>565.6</ele>
        <time>2019-05-12T09:12:59Z</time>
      </trkpt>
      <trkpt lat="39.1711120" lon="-1.5410630">
        <ele>565.6</ele>
        <time>2019-05-12T09:13:00Z</time>
      </trkpt>
      <trkpt lat="39.1710920" lon="-1.5411200">
        <ele>565.4</ele>
        <time>2019-05-12T09:13:01Z</time>
      </trkpt>
      <trkpt lat="39.1710760" lon="-1.5411790">
        <ele>565.2</ele>
        <time>2019-05-12T09:13:02Z</time>
      </trkpt>
      <trkpt lat="39.1710610" lon="-1.5412390">
        <ele>565.0</ele>
        <time>2019-05-12T09:13:03Z</time>
      </trkpt>
      <trkpt lat="39.1710400" lon="-1.5412960">
        <ele>565.0</ele>
        <time>2019-05-12T09:13:04Z</time>
      </trkpt>
      <trkpt lat="39.1710100" lon="-1.5413490">
        <ele>564.8</ele>
        <time>2019-05-12T09:13:05Z</time>
      </trkpt>
      <trkpt lat="39.1709710" lon="-1.5413960">
        <ele>564.8</ele>
        <time>2019-05-12T09:13:06Z</time>
      </trkpt>
      <trkpt lat="39.1709330" lon="-1.5414470">
        <ele>564.8</ele>
        <time>2019-05-12T09:13:07Z</time>
      </trkpt>
      <trkpt lat="39.1708970" lon="-1.5415000">
        <ele>564.8</ele>
        <time>2019-05-12T09:13:08Z</time>
      </trkpt>
      <trkpt lat="39.1708590" lon="-1.5415550">
        <ele>564.8</ele>
        <time>2019-05-12T09:13:09Z</time>
      </trkpt>
      <trkpt lat="39.1708200" lon="-1.5416110">
        <ele>564.8</ele>
        <time>2019-05-12T09:13:10Z</time>
      </trkpt>
      <trkpt lat="39.1707700" lon="-1.5416640">
        <ele>564.8</ele>
        <time>2019-05-12T09:13:11Z</time>
      </trkpt>
      <trkpt lat="39.1707190" lon="-1.5417140">
        <ele>564.8</ele>
        <time>2019-05-12T09:13:12Z</time>
      </trkpt>
      <trkpt lat="39.1706620" lon="-1.5417570">
        <ele>564.8</ele>
        <time>2019-05-12T09:13:13Z</time>
      </trkpt>
      <trkpt lat="39.1706080" lon="-1.5417960">
        <ele>564.8</ele>
        <time>2019-05-12T09:13:14Z</time>
      </trkpt>
      <trkpt lat="39.1705560" lon="-1.5418310">
        <ele>564.8</ele>
        <time>2019-05-12T09:13:15Z</time>
      </trkpt>
      <trkpt lat="39.1705020" lon="-1.5418550">
        <ele>564.8</ele>
        <time>2019-05-12T09:13:16Z</time>
      </trkpt>
      <trkpt lat="39.1704450" lon="-1.5418790">
        <ele>564.8</ele>
        <time>2019-05-12T09:13:17Z</time>
      </trkpt>
      <trkpt lat="39.1703860" lon="-1.5418990">
        <ele>564.8</ele>
        <time>2019-05-12T09:13:18Z</time>
      </trkpt>
      <trkpt lat="39.1703260" lon="-1.5419160">
        <ele>564.8</ele>
        <time>2019-05-12T09:13:19Z</time>
      </trkpt>
      <trkpt lat="39.1702670" lon="-1.5419350">
        <ele>564.8</ele>
        <time>2019-05-12T09:13:20Z</time>
      </trkpt>
      <trkpt lat="39.1702060" lon="-1.5419560">
        <ele>564.8</ele>
        <time>2019-05-12T09:13:21Z</time>
      </trkpt>
      <trkpt lat="39.1701460" lon="-1.5419790">
        <ele>564.8</ele>
        <time>2019-05-12T09:13:22Z</time>
      </trkpt>
      <trkpt lat="39.1700820" lon="-1.5419960">
        <ele>564.8</ele>
        <time>2019-05-12T09:13:23Z</time>
      </trkpt>
      <trkpt lat="39.1700150" lon="-1.5420080">
        <ele>564.8</ele>
        <time>2019-05-12T09:13:24Z</time>
      </trkpt>
      <trkpt lat="39.1699500" lon="-1.5420220">
        <ele>564.8</ele>
        <time>2019-05-12T09:13:25Z</time>
      </trkpt>
      <trkpt lat="39.1698860" lon="-1.5420360">
        <ele>564.8</ele>
        <time>2019-05-12T09:13:26Z</time>
      </trkpt>
      <trkpt lat="39.1698220" lon="-1.5420500">
        <ele>564.8</ele>
        <time>2019-05-12T09:13:27Z</time>
      </trkpt>
      <trkpt lat="39.1697550" lon="-1.5420620">
        <ele>564.8</ele>
        <time>2019-05-12T09:13:28Z</time>
      </trkpt>
      <trkpt lat="39.1696890" lon="-1.5420750">
        <ele>564.8</ele>
        <time>2019-05-12T09:13:29Z</time>
      </trkpt>
      <trkpt lat="39.1696250" lon="-1.5420860">
        <ele>564.8</ele>
        <time>2019-05-12T09:13:30Z</time>
      </trkpt>
      <trkpt lat="39.1695590" lon="-1.5420970">
        <ele>564.8</ele>
        <time>2019-05-12T09:13:31Z</time>
      </trkpt>
      <trkpt lat="39.1694950" lon="-1.5421070">
        <ele>564.8</ele>
        <time>2019-05-12T09:13:32Z</time>
      </trkpt>
      <trkpt lat="39.1694330" lon="-1.5421150">
        <ele>564.8</ele>
        <time>2019-05-12T09:13:33Z</time>
      </trkpt>
      <trkpt lat="39.1693700" lon="-1.5421290">
        <ele>564.8</ele>
        <time>2019-05-12T09:13:34Z</time>
      </trkpt>
      <trkpt lat="39.1693070" lon="-1.5421440">
        <ele>564.8</ele>
        <time>2019-05-12T09:13:35Z</time>
      </trkpt>
      <trkpt lat="39.1692440" lon="-1.5421540">
        <ele>564.8</ele>
        <time>2019-05-12T09:13:36Z</time>
      </trkpt>
      <trkpt lat="39.1691810" lon="-1.5421660">
        <ele>564.8</ele>
        <time>2019-05-12T09:13:37Z</time>
      </trkpt>
      <trkpt lat="39.1691180" lon="-1.5421780">
        <ele>565.0</ele>
        <time>2019-05-12T09:13:38Z</time>
      </trkpt>
      <trkpt lat="39.1690510" lon="-1.5421870">
        <ele>565.0</ele>
        <time>2019-05-12T09:13:39Z</time>
      </trkpt>
      <trkpt lat="39.1689870" lon="-1.5421980">
        <ele>565.0</ele>
        <time>2019-05-12T09:13:40Z</time>
      </trkpt>
      <trkpt lat="39.1689240" lon="-1.5422130">
        <ele>565.2</ele>
        <time>2019-05-12T09:13:41Z</time>
      </trkpt>
      <trkpt lat="39.1688670" lon="-1.5422310">
        <ele>565.2</ele>
        <time>2019-05-12T09:13:42Z</time>
      </trkpt>
      <trkpt lat="39.1688100" lon="-1.5422500">
        <ele>565.2</ele>
        <time>2019-05-12T09:13:43Z</time>
      </trkpt>
      <trkpt lat="39.1687520" lon="-1.5422680">
        <ele>565.2</ele>
        <time>2019-05-12T09:13:44Z</time>
      </trkpt>
      <trkpt lat="39.1686920" lon="-1.5422830">
        <ele>565.2</ele>
        <time>2019-05-12T09:13:45Z</time>
      </trkpt>
      <trkpt lat="39.1686280" lon="-1.5422910">
        <ele>565.2</ele>
        <time>2019-05-12T09:13:46Z</time>
      </trkpt>
      <trkpt lat="39.1685640" lon="-1.5422960">
        <ele>565.2</ele>
        <time>2019-05-12T09:13:47Z</time>
      </trkpt>
      <trkpt lat="39.1685000" lon="-1.5423020">
        <ele>565.2</ele>
        <time>2019-05-12T09:13:48Z</time>
      </trkpt>
      <trkpt lat="39.1684370" lon="-1.5423130">
        <ele>565.4</ele>
        <time>2019-05-12T09:13:49Z</time>
      </trkpt>
      <trkpt lat="39.1683790" lon="-1.5423360">
        <ele>565.4</ele>
        <time>2019-05-12T09:13:50Z</time>
      </trkpt>
      <trkpt lat="39.1683230" lon="-1.5423670">
        <ele>565.4</ele>
        <time>2019-05-12T09:13:51Z</time>
      </trkpt>
      <trkpt lat="39.1682680" lon="-1.5424060">
        <ele>565.4</ele>
        <time>2019-05-12T09:13:52Z</time>
      </trkpt>
      <trkpt lat="39.1682130" lon="-1.5424520">
        <ele>565.4</ele>
        <time>2019-05-12T09:13:53Z</time>
      </trkpt>
      <trkpt lat="39.1681580" lon="-1.5425010">
        <ele>565.6</ele>
        <time>2019-05-12T09:13:54Z</time>
      </trkpt>
      <trkpt lat="39.1681000" lon="-1.5425480">
        <ele>565.6</ele>
        <time>2019-05-12T09:13:55Z</time>
      </trkpt>
      <trkpt lat="39.1680360" lon="-1.5425850">
        <ele>565.6</ele>
        <time>2019-05-12T09:13:56Z</time>
      </trkpt>
      <trkpt lat="39.1679690" lon="-1.5426200">
        <ele>565.6</ele>
        <time>2019-05-12T09:13:57Z</time>
      </trkpt>
      <trkpt lat="39.1679030" lon="-1.5426540">
        <ele>565.6</ele>
        <time>2019-05-12T09:13:58Z</time>
      </trkpt>
      <trkpt lat="39.1678340" lon="-1.5426850">
        <ele>565.6</ele>
        <time>2019-05-12T09:13:59Z</time>
      </trkpt>
      <trkpt lat="39.1677660" lon="-1.5427160">
        <ele>565.8</ele>
        <time>2019-05-12T09:14:00Z</time>
      </trkpt>
      <trkpt lat="39.1676970" lon="-1.5427470">
        <ele>565.8</ele>
        <time>2019-05-12T09:14:01Z</time>
      </trkpt>
      <trkpt lat="39.1676310" lon="-1.5427800">
        <ele>565.8</ele>
        <time>2019-05-12T09:14:02Z</time>
      </trkpt>
      <trkpt lat="39.1675650" lon="-1.5428140">
        <ele>565.8</ele>
        <time>2019-05-12T09:14:03Z</time>
      </trkpt>
      <trkpt lat="39.1675020" lon="-1.5428550">
        <ele>565.8</ele>
        <time>2019-05-12T09:14:04Z</time>
      </trkpt>
      <trkpt lat="39.1674410" lon="-1.5429010">
        <ele>565.8</ele>
        <time>2019-05-12T09:14:05Z</time>
      </trkpt>
      <trkpt lat="39.1673760" lon="-1.5429410">
        <ele>565.8</ele>
        <time>2019-05-12T09:14:06Z</time>
      </trkpt>
      <trkpt lat="39.1673110" lon="-1.5429700">
        <ele>565.8</ele>
        <time>2019-05-12T09:14:07Z</time>
      </trkpt>
      <trkpt lat="39.1672420" lon="-1.5429930">
        <ele>565.8</ele>
        <time>2019-05-12T09:14:08Z</time>
      </trkpt>
      <trkpt lat="39.1671750" lon="-1.5430180">
        <ele>565.8</ele>
        <time>2019-05-12T09:14:09Z</time>
      </trkpt>
      <trkpt lat="39.1671080" lon="-1.5430420">
        <ele>565.8</ele>
        <time>2019-05-12T09:14:10Z</time>
      </trkpt>
      <trkpt lat="39.1670410" lon="-1.5430680">
        <ele>565.8</ele>
        <time>2019-05-12T09:14:11Z</time>
      </trkpt>
      <trkpt lat="39.1669750" lon="-1.5430920">
        <ele>565.8</ele>
        <time>2019-05-12T09:14:12Z</time>
      </trkpt>
      <trkpt lat="39.1669070" lon="-1.5431140">
        <ele>565.8</ele>
        <time>2019-05-12T09:14:13Z</time>
      </trkpt>
      <trkpt lat="39.1668400" lon="-1.5431330">
        <ele>566.0</ele>
        <time>2019-05-12T09:14:14Z</time>
      </trkpt>
      <trkpt lat="39.1667720" lon="-1.5431560">
        <ele>566.0</ele>
        <time>2019-05-12T09:14:15Z</time>
      </trkpt>
      <trkpt lat="39.1667090" lon="-1.5431900">
        <ele>566.0</ele>
        <time>2019-05-12T09:14:16Z</time>
      </trkpt>
      <trkpt lat="39.1666520" lon="-1.5432370">
        <ele>566.0</ele>
        <time>2019-05-12T09:14:17Z</time>
      </trkpt>
      <trkpt lat="39.1665990" lon="-1.5432840">
        <ele>566.0</ele>
        <time>2019-05-12T09:14:18Z</time>
      </trkpt>
      <trkpt lat="39.1665470" lon="-1.5433080">
        <ele>566.0</ele>
        <time>2019-05-12T09:14:19Z</time>
      </trkpt>
      <trkpt lat="39.1665010" lon="-1.5433020">
        <ele>566.0</ele>
        <time>2019-05-12T09:14:20Z</time>
      </trkpt>
      <trkpt lat="39.1664600" lon="-1.5432740">
        <ele>566.0</ele>
        <time>2019-05-12T09:14:21Z</time>
      </trkpt>
      <trkpt lat="39.1664230" lon="-1.5432450">
        <ele>566.0</ele>
        <time>2019-05-12T09:14:22Z</time>
      </trkpt>
      <trkpt lat="39.1663890" lon="-1.5432290">
        <ele>566.0</ele>
        <time>2019-05-12T09:14:23Z</time>
      </trkpt>
      <trkpt lat="39.1663560" lon="-1.5432230">
        <ele>566.0</ele>
        <time>2019-05-12T09:14:24Z</time>
      </trkpt>
      <trkpt lat="39.1663240" lon="-1.5432230">
        <ele>566.0</ele>
        <time>2019-05-12T09:14:25Z</time>
      </trkpt>
      <trkpt lat="39.1662930" lon="-1.5432260">
        <ele>566.0</ele>
        <time>2019-05-12T09:14:26Z</time>
      </trkpt>
      <trkpt lat="39.1662640" lon="-1.5432320">
        <ele>566.2</ele>
        <time>2019-05-12T09:14:27Z</time>
      </trkpt>
      <trkpt lat="39.1662330" lon="-1.5432460">
        <ele>566.2</ele>
        <time>2019-05-12T09:14:28Z</time>
      </trkpt>
      <trkpt lat="39.1662010" lon="-1.5432640">
        <ele>566.2</ele>
        <time>2019-05-12T09:14:29Z</time>
      </trkpt>
      <trkpt lat="39.1661680" lon="-1.5432810">
        <ele>566.2</ele>
        <time>2019-05-12T09:14:30Z</time>
      </trkpt>
      <trkpt lat="39.1661340" lon="-1.5433000">
        <ele>566.4</ele>
        <time>2019-05-12T09:14:31Z</time>
      </trkpt>
      <trkpt lat="39.1661010" lon="-1.5433160">
        <ele>566.6</ele>
        <time>2019-05-12T09:14:32Z</time>
      </trkpt>
      <trkpt lat="39.1660620" lon="-1.5433180">
        <ele>566.8</ele>
        <time>2019-05-12T09:14:33Z</time>
      </trkpt>
      <trkpt lat="39.1660300" lon="-1.5433100">
        <ele>567.2</ele>
        <time>2019-05-12T09:14:34Z</time>
      </trkpt>
      <trkpt lat="39.1660010" lon="-1.5432970">
        <ele>567.6</ele>
        <time>2019-05-12T09:14:35Z</time>
      </trkpt>
      <trkpt lat="39.1659730" lon="-1.5432870">
        <ele>568.0</ele>
        <time>2019-05-12T09:14:36Z</time>
      </trkpt>
      <trkpt lat="39.1659510" lon="-1.5432870">
        <ele>568.4</ele>
        <time>2019-05-12T09:14:37Z</time>
      </trkpt>
      <trkpt lat="39.1659270" lon="-1.5432930">
        <ele>568.6</ele>
        <time>2019-05-12T09:14:38Z</time>
      </trkpt>
      <trkpt lat="39.1659000" lon="-1.5433000">
        <ele>568.8</ele>
        <time>2019-05-12T09:14:39Z</time>
      </trkpt>
      <trkpt lat="39.1658730" lon="-1.5433100">
        <ele>569.0</ele>
        <time>2019-05-12T09:14:40Z</time>
      </trkpt>
      <trkpt lat="39.1658490" lon="-1.5433200">
        <ele>569.2</ele>
        <time>2019-05-12T09:14:41Z</time>
      </trkpt>
      <trkpt lat="39.1658200" lon="-1.5433240">
        <ele>569.6</ele>
        <time>2019-05-12T09:14:42Z</time>
      </trkpt>
      <trkpt lat="39.1657920" lon="-1.5433330">
        <ele>570.0</ele>
        <time>2019-05-12T09:14:43Z</time>
      </trkpt>
      <trkpt lat="39.1657630" lon="-1.5433440">
        <ele>570.2</ele>
        <time>2019-05-12T09:14:44Z</time>
      </trkpt>
      <trkpt lat="39.1657320" lon="-1.5433590">
        <ele>571.0</ele>
        <time>2019-05-12T09:14:45Z</time>
      </trkpt>
      <trkpt lat="39.1657020" lon="-1.5433820">
        <ele>571.6</ele>
        <time>2019-05-12T09:14:46Z</time>
      </trkpt>
      <trkpt lat="39.1656720" lon="-1.5434110">
        <ele>572.0</ele>
        <time>2019-05-12T09:14:47Z</time>
      </trkpt>
      <trkpt lat="39.1656420" lon="-1.5434450">
        <ele>572.4</ele>
        <time>2019-05-12T09:14:48Z</time>
      </trkpt>
      <trkpt lat="39.1656110" lon="-1.5434770">
        <ele>573.0</ele>
        <time>2019-05-12T09:14:49Z</time>
      </trkpt>
      <trkpt lat="39.1655730" lon="-1.5435080">
        <ele>573.4</ele>
        <time>2019-05-12T09:14:50Z</time>
      </trkpt>
      <trkpt lat="39.1655320" lon="-1.5435380">
        <ele>573.8</ele>
        <time>2019-05-12T09:14:51Z</time>
      </trkpt>
      <trkpt lat="39.1654880" lon="-1.5435660">
        <ele>574.0</ele>
        <time>2019-05-12T09:14:52Z</time>
      </trkpt>
      <trkpt lat="39.1654480" lon="-1.5435920">
        <ele>574.2</ele>
        <time>2019-05-12T09:14:53Z</time>
      </trkpt>
      <trkpt lat="39.1654090" lon="-1.5436160">
        <ele>574.2</ele>
        <time>2019-05-12T09:14:54Z</time>
      </trkpt>
      <trkpt lat="39.1653680" lon="-1.5436400">
        <ele>574.4</ele>
        <time>2019-05-12T09:14:55Z</time>
      </trkpt>
      <trkpt lat="39.1653320" lon="-1.5436590">
        <ele>574.4</ele>
        <time>2019-05-12T09:14:56Z</time>
      </trkpt>
      <trkpt lat="39.1652940" lon="-1.5436770">
        <ele>574.4</ele>
        <time>2019-05-12T09:14:57Z</time>
      </trkpt>
      <trkpt lat="39.1652600" lon="-1.5436930">
        <ele>574.4</ele>
        <time>2019-05-12T09:14:58Z</time>
      </trkpt>
      <trkpt lat="39.1652280" lon="-1.5437070">
        <ele>574.4</ele>
        <time>2019-05-12T09:14:59Z</time>
      </trkpt>
      <trkpt lat="39.1651970" lon="-1.5437230">
        <ele>574.6</ele>
        <time>2019-05-12T09:15:00Z</time>
      </trkpt>
      <trkpt lat="39.1651660" lon="-1.5437380">
        <ele>574.6</ele>
        <time>2019-05-12T09:15:01Z</time>
      </trkpt>
      <trkpt lat="39.1651360" lon="-1.5437520">
        <ele>574.8</ele>
        <time>2019-05-12T09:15:02Z</time>
      </trkpt>
      <trkpt lat="39.1651060" lon="-1.5437650">
        <ele>574.8</ele>
        <time>2019-05-12T09:15:03Z</time>
      </trkpt>
      <trkpt lat="39.1650780" lon="-1.5437750">
        <ele>575.0</ele>
        <time>2019-05-12T09:15:04Z</time>
      </trkpt>
      <trkpt lat="39.1650510" lon="-1.5437830">
        <ele>575.2</ele>
        <time>2019-05-12T09:15:05Z</time>
      </trkpt>
      <trkpt lat="39.1650260" lon="-1.5437910">
        <ele>575.4</ele>
        <time>2019-05-12T09:15:06Z</time>
      </trkpt>
      <trkpt lat="39.1650000" lon="-1.5438000">
        <ele>575.6</ele>
        <time>2019-05-12T09:15:07Z</time>
      </trkpt>
      <trkpt lat="39.1649750" lon="-1.5438100">
        <ele>576.0</ele>
        <time>2019-05-12T09:15:08Z</time>
      </trkpt>
      <trkpt lat="39.1649500" lon="-1.5438200">
        <ele>576.2</ele>
        <time>2019-05-12T09:15:09Z</time>
      </trkpt>
      <trkpt lat="39.1649270" lon="-1.5438300">
        <ele>576.4</ele>
        <time>2019-05-12T09:15:10Z</time>
      </trkpt>
      <trkpt lat="39.1649020" lon="-1.5438440">
        <ele>576.8</ele>
        <time>2019-05-12T09:15:11Z</time>
      </trkpt>
      <trkpt lat="39.1648750" lon="-1.5438610">
        <ele>577.2</ele>
        <time>2019-05-12T09:15:12Z</time>
      </trkpt>
      <trkpt lat="39.1648490" lon="-1.5438870">
        <ele>577.6</ele>
        <time>2019-05-12T09:15:13Z</time>
      </trkpt>
      <trkpt lat="39.1648280" lon="-1.5439220">
        <ele>577.8</ele>
        <time>2019-05-12T09:15:14Z</time>
      </trkpt>
      <trkpt lat="39.1648050" lon="-1.5439630">
        <ele>578.2</ele>
        <time>2019-05-12T09:15:15Z</time>
      </trkpt>
      <trkpt lat="39.1647760" lon="-1.5440050">
        <ele>578.6</ele>
        <time>2019-05-12T09:15:16Z</time>
      </trkpt>
      <trkpt lat="39.1647480" lon="-1.5440520">
        <ele>578.8</ele>
        <time>2019-05-12T09:15:17Z</time>
      </trkpt>
      <trkpt lat="39.1647260" lon="-1.5441110">
        <ele>579.0</ele>
        <time>2019-05-12T09:15:18Z</time>
      </trkpt>
      <trkpt lat="39.1647020" lon="-1.5441770">
        <ele>579.0</ele>
        <time>2019-05-12T09:15:19Z</time>
      </trkpt>
      <trkpt lat="39.1646680" lon="-1.5442430">
        <ele>579.2</ele>
        <time>2019-05-12T09:15:20Z</time>
      </trkpt>
      <trkpt lat="39.1646400" lon="-1.5443150">
        <ele>579.2</ele>
        <time>2019-05-12T09:15:21Z</time>
      </trkpt>
      <trkpt lat="39.1645920" lon="-1.5443510">
        <ele>579.2</ele>
        <time>2019-05-12T09:15:22Z</time>
      </trkpt>
      <trkpt lat="39.1645580" lon="-1.5443810">
        <ele>579.2</ele>
        <time>2019-05-12T09:15:23Z</time>
      </trkpt>
      <trkpt lat="39.1645260" lon="-1.5444070">
        <ele>579.2</ele>
        <time>2019-05-12T09:15:24Z</time>
      </trkpt>
      <trkpt lat="39.1644970" lon="-1.5444360">
        <ele>579.2</ele>
        <time>2019-05-12T09:15:25Z</time>
      </trkpt>
      <trkpt lat="39.1644750" lon="-1.5444750">
        <ele>579.2</ele>
        <time>2019-05-12T09:15:26Z</time>
      </trkpt>
      <trkpt lat="39.1644460" lon="-1.5445190">
        <ele>579.0</ele>
        <time>2019-05-12T09:15:27Z</time>
      </trkpt>
      <trkpt lat="39.1644150" lon="-1.5445620">
        <ele>578.8</ele>
        <time>2019-05-12T09:15:28Z</time>
      </trkpt>
      <trkpt lat="39.1643860" lon="-1.5446020">
        <ele>578.4</ele>
        <time>2019-05-12T09:15:29Z</time>
      </trkpt>
      <trkpt lat="39.1643610" lon="-1.5446470">
        <ele>578.4</ele>
        <time>2019-05-12T09:15:30Z</time>
      </trkpt>
      <trkpt lat="39.1643370" lon="-1.5446890">
        <ele>578.2</ele>
        <time>2019-05-12T09:15:31Z</time>
      </trkpt>
      <trkpt lat="39.1643110" lon="-1.5447280">
        <ele>578.2</ele>
        <time>2019-05-12T09:15:32Z</time>
      </trkpt>
      <trkpt lat="39.1642880" lon="-1.5447690">
        <ele>578.2</ele>
        <time>2019-05-12T09:15:33Z</time>
      </trkpt>
      <trkpt lat="39.1642600" lon="-1.5448080">
        <ele>578.2</ele>
        <time>2019-05-12T09:15:34Z</time>
      </trkpt>
      <trkpt lat="39.1642470" lon="-1.5448560">
        <ele>578.2</ele>
        <time>2019-05-12T09:15:35Z</time>
      </trkpt>
      <trkpt lat="39.1642450" lon="-1.5449090">
        <ele>578.2</ele>
        <time>2019-05-12T09:15:36Z</time>
      </trkpt>
      <trkpt lat="39.1642480" lon="-1.5449710">
        <ele>578.0</ele>
        <time>2019-05-12T09:15:37Z</time>
      </trkpt>
      <trkpt lat="39.1642390" lon="-1.5450410">
        <ele>578.0</ele>
        <time>2019-05-12T09:15:38Z</time>
      </trkpt>
      <trkpt lat="39.1642200" lon="-1.5451100">
        <ele>578.0</ele>
        <time>2019-05-12T09:15:39Z</time>
      </trkpt>
      <trkpt lat="39.1641970" lon="-1.5451760">
        <ele>578.0</ele>
        <time>2019-05-12T09:15:40Z</time>
      </trkpt>
      <trkpt lat="39.1641670" lon="-1.5452310">
        <ele>578.0</ele>
        <time>2019-05-12T09:15:41Z</time>
      </trkpt>
      <trkpt lat="39.1641340" lon="-1.5452800">
        <ele>578.0</ele>
        <time>2019-05-12T09:15:42Z</time>
      </trkpt>
      <trkpt lat="39.1641160" lon="-1.5453360">
        <ele>578.0</ele>
        <time>2019-05-12T09:15:43Z</time>
      </trkpt>
      <trkpt lat="39.1641080" lon="-1.5454020">
        <ele>577.8</ele>
        <time>2019-05-12T09:15:44Z</time>
      </trkpt>
      <trkpt lat="39.1640820" lon="-1.5454680">
        <ele>577.4</ele>
        <time>2019-05-12T09:15:45Z</time>
      </trkpt>
      <trkpt lat="39.1640590" lon="-1.5455400">
        <ele>576.8</ele>
        <time>2019-05-12T09:15:46Z</time>
      </trkpt>
      <trkpt lat="39.1640420" lon="-1.5456090">
        <ele>576.4</ele>
        <time>2019-05-12T09:15:47Z</time>
      </trkpt>
      <trkpt lat="39.1640230" lon="-1.5456710">
        <ele>576.2</ele>
        <time>2019-05-12T09:15:48Z</time>
      </trkpt>
      <trkpt lat="39.1639910" lon="-1.5457250">
        <ele>576.0</ele>
        <time>2019-05-12T09:15:49Z</time>
      </trkpt>
      <trkpt lat="39.1639680" lon="-1.5457800">
        <ele>576.0</ele>
        <time>2019-05-12T09:15:50Z</time>
      </trkpt>
      <trkpt lat="39.1639490" lon="-1.5458300">
        <ele>575.8</ele>
        <time>2019-05-12T09:15:51Z</time>
      </trkpt>
      <trkpt lat="39.1639330" lon="-1.5458790">
        <ele>575.8</ele>
        <time>2019-05-12T09:15:52Z</time>
      </trkpt>
      <trkpt lat="39.1639150" lon="-1.5459170">
        <ele>575.8</ele>
        <time>2019-05-12T09:15:53Z</time>
      </trkpt>
      <trkpt lat="39.1638990" lon="-1.5459480">
        <ele>575.8</ele>
        <time>2019-05-12T09:15:54Z</time>
      </trkpt>
      <trkpt lat="39.1638860" lon="-1.5459750">
        <ele>575.8</ele>
        <time>2019-05-12T09:15:55Z</time>
      </trkpt>
      <trkpt lat="39.1638640" lon="-1.5460030">
        <ele>575.8</ele>
        <time>2019-05-12T09:15:56Z</time>
      </trkpt>
      <trkpt lat="39.1638420" lon="-1.5460350">
        <ele>576.0</ele>
        <time>2019-05-12T09:15:57Z</time>
      </trkpt>
      <trkpt lat="39.1638190" lon="-1.5460710">
        <ele>576.0</ele>
        <time>2019-05-12T09:15:58Z</time>
      </trkpt>
      <trkpt lat="39.1637930" lon="-1.5461060">
        <ele>576.0</ele>
        <time>2019-05-12T09:15:59Z</time>
      </trkpt>
      <trkpt lat="39.1637660" lon="-1.5461400">
        <ele>576.2</ele>
        <time>2019-05-12T09:16:00Z</time>
      </trkpt>
      <trkpt lat="39.1637470" lon="-1.5461780">
        <ele>576.6</ele>
        <time>2019-05-12T09:16:01Z</time>
      </trkpt>
      <trkpt lat="39.1637300" lon="-1.5462220">
        <ele>577.2</ele>
        <time>2019-05-12T09:16:02Z</time>
      </trkpt>
      <trkpt lat="39.1637190" lon="-1.5462730">
        <ele>578.0</ele>
        <time>2019-05-12T09:16:03Z</time>
      </trkpt>
      <trkpt lat="39.1637070" lon="-1.5463280">
        <ele>578.4</ele>
        <time>2019-05-12T09:16:04Z</time>
      </trkpt>
      <trkpt lat="39.1636930" lon="-1.5463810">
        <ele>578.8</ele>
        <time>2019-05-12T09:16:05Z</time>
      </trkpt>
      <trkpt lat="39.1636830" lon="-1.5464370">
        <ele>579.0</ele>
        <time>2019-05-12T09:16:06Z</time>
      </trkpt>
      <trkpt lat="39.1636680" lon="-1.5464920">
        <ele>579.2</ele>
        <time>2019-05-12T09:16:07Z</time>
      </trkpt>
      <trkpt lat="39.1636530" lon="-1.5465580">
        <ele>579.2</ele>
        <time>2019-05-12T09:16:08Z</time>
      </trkpt>
      <trkpt lat="39.1636360" lon="-1.5466270">
        <ele>579.2</ele>
        <time>2019-05-12T09:16:09Z</time>
      </trkpt>
      <trkpt lat="39.1636220" lon="-1.5466950">
        <ele>579.2</ele>
        <time>2019-05-12T09:16:10Z</time>
      </trkpt>
      <trkpt lat="39.1636060" lon="-1.5467580">
        <ele>579.2</ele>
        <time>2019-05-12T09:16:11Z</time>
      </trkpt>
      <trkpt lat="39.1635900" lon="-1.5468180">
        <ele>579.2</ele>
        <time>2019-05-12T09:16:12Z</time>
      </trkpt>
      <trkpt lat="39.1635740" lon="-1.5468750">
        <ele>579.2</ele>
        <time>2019-05-12T09:16:13Z</time>
      </trkpt>
      <trkpt lat="39.1635550" lon="-1.5469300">
        <ele>579.2</ele>
        <time>2019-05-12T09:16:14Z</time>
      </trkpt>
      <trkpt lat="39.1635420" lon="-1.5469980">
        <ele>579.2</ele>
        <time>2019-05-12T09:16:15Z</time>
      </trkpt>
      <trkpt lat="39.1635180" lon="-1.5470640">
        <ele>579.2</ele>
        <time>2019-05-12T09:16:16Z</time>
      </trkpt>
      <trkpt lat="39.1635120" lon="-1.5471290">
        <ele>579.2</ele>
        <time>2019-05-12T09:16:17Z</time>
      </trkpt>
      <trkpt lat="39.1635260" lon="-1.5471790">
        <ele>579.0</ele>
        <time>2019-05-12T09:16:18Z</time>
      </trkpt>
      <trkpt lat="39.1635520" lon="-1.5472280">
        <ele>579.0</ele>
        <time>2019-05-12T09:16:19Z</time>
      </trkpt>
      <trkpt lat="39.1635750" lon="-1.5472860">
        <ele>579.0</ele>
        <time>2019-05-12T09:16:20Z</time>
      </trkpt>
      <trkpt lat="39.1635900" lon="-1.5473520">
        <ele>578.8</ele>
        <time>2019-05-12T09:16:21Z</time>
      </trkpt>
      <trkpt lat="39.1636110" lon="-1.5474280">
        <ele>578.8</ele>
        <time>2019-05-12T09:16:22Z</time>
      </trkpt>
      <trkpt lat="39.1636340" lon="-1.5475100">
        <ele>578.8</ele>
        <time>2019-05-12T09:16:23Z</time>
      </trkpt>
      <trkpt lat="39.1636440" lon="-1.5475900">
        <ele>578.4</ele>
        <time>2019-05-12T09:16:24Z</time>
      </trkpt>
      <trkpt lat="39.1636520" lon="-1.5476770">
        <ele>578.0</ele>
        <time>2019-05-12T09:16:25Z</time>
      </trkpt>
      <trkpt lat="39.1636540" lon="-1.5477580">
        <ele>577.6</ele>
        <time>2019-05-12T09:16:26Z</time>
      </trkpt>
      <trkpt lat="39.1636580" lon="-1.5478410">
        <ele>577.4</ele>
        <time>2019-05-12T09:16:27Z</time>
      </trkpt>
      <trkpt lat="39.1636570" lon="-1.5479220">
        <ele>577.0</ele>
        <time>2019-05-12T09:16:28Z</time>
      </trkpt>
      <trkpt lat="39.1636570" lon="-1.5480000">
        <ele>576.8</ele>
        <time>2019-05-12T09:16:29Z</time>
      </trkpt>
      <trkpt lat="39.1636540" lon="-1.5480720">
        <ele>576.6</ele>
        <time>2019-05-12T09:16:30Z</time>
      </trkpt>
      <trkpt lat="39.1636580" lon="-1.5481460">
        <ele>576.4</ele>
        <time>2019-05-12T09:16:31Z</time>
      </trkpt>
      <trkpt lat="39.1636580" lon="-1.5482080">
        <ele>576.2</ele>
        <time>2019-05-12T09:16:32Z</time>
      </trkpt>
      <trkpt lat="39.1636650" lon="-1.5482650">
        <ele>575.8</ele>
        <time>2019-05-12T09:16:33Z</time>
      </trkpt>
      <trkpt lat="39.1636950" lon="-1.5483210">
        <ele>575.6</ele>
        <time>2019-05-12T09:16:34Z</time>
      </trkpt>
      <trkpt lat="39.1637350" lon="-1.5483680">
        <ele>575.6</ele>
        <time>2019-05-12T09:16:35Z</time>
      </trkpt>
      <trkpt lat="39.1637770" lon="-1.5484140">
        <ele>575.6</ele>
        <time>2019-05-12T09:16:36Z</time>
      </trkpt>
      <trkpt lat="39.1638070" lon="-1.5484720">
        <ele>575.4</ele>
        <time>2019-05-12T09:16:37Z</time>
      </trkpt>
      <trkpt lat="39.1638250" lon="-1.5485410">
        <ele>575.4</ele>
        <time>2019-05-12T09:16:38Z</time>
      </trkpt>
      <trkpt lat="39.1638390" lon="-1.5486080">
        <ele>575.2</ele>
        <time>2019-05-12T09:16:39Z</time>
      </trkpt>
      <trkpt lat="39.1638610" lon="-1.5486720">
        <ele>575.2</ele>
        <time>2019-05-12T09:16:40Z</time>
      </trkpt>
      <trkpt lat="39.1638760" lon="-1.5487380">
        <ele>575.2</ele>
        <time>2019-05-12T09:16:41Z</time>
      </trkpt>
      <trkpt lat="39.1638860" lon="-1.5488080">
        <ele>575.0</ele>
        <time>2019-05-12T09:16:42Z</time>
      </trkpt>
      <trkpt lat="39.1639000" lon="-1.5488810">
        <ele>574.6</ele>
        <time>2019-05-12T09:16:43Z</time>
      </trkpt>
      <trkpt lat="39.1639150" lon="-1.5489490">
        <ele>574.0</ele>
        <time>2019-05-12T09:16:44Z</time>
      </trkpt>
      <trkpt lat="39.1639240" lon="-1.5490160">
        <ele>573.2</ele>
        <time>2019-05-12T09:16:45Z</time>
      </trkpt>
      <trkpt lat="39.1639290" lon="-1.5490870">
        <ele>572.4</ele>
        <time>2019-05-12T09:16:46Z</time>
      </trkpt>
      <trkpt lat="39.1639370" lon="-1.5491550">
        <ele>571.4</ele>
        <time>2019-05-12T09:16:47Z</time>
      </trkpt>
      <trkpt lat="39.1639470" lon="-1.5492210">
        <ele>571.0</ele>
        <time>2019-05-12T09:16:48Z</time>
      </trkpt>
      <trkpt lat="39.1639590" lon="-1.5492900">
        <ele>570.8</ele>
        <time>2019-05-12T09:16:49Z</time>
      </trkpt>
      <trkpt lat="39.1639760" lon="-1.5493650">
        <ele>570.6</ele>
        <time>2019-05-12T09:16:50Z</time>
      </trkpt>
      <trkpt lat="39.1639920" lon="-1.5494400">
        <ele>570.4</ele>
        <time>2019-05-12T09:16:51Z</time>
      </trkpt>
      <trkpt lat="39.1640120" lon="-1.5495120">
        <ele>570.4</ele>
        <time>2019-05-12T09:16:52Z</time>
      </trkpt>
      <trkpt lat="39.1640310" lon="-1.5495830">
        <ele>570.4</ele>
        <time>2019-05-12T09:16:53Z</time>
      </trkpt>
      <trkpt lat="39.1640490" lon="-1.5496570">
        <ele>570.4</ele>
        <time>2019-05-12T09:16:54Z</time>
      </trkpt>
      <trkpt lat="39.1640640" lon="-1.5497290">
        <ele>570.4</ele>
        <time>2019-05-12T09:16:55Z</time>
      </trkpt>
      <trkpt lat="39.1640810" lon="-1.5498020">
        <ele>570.4</ele>
        <time>2019-05-12T09:16:56Z</time>
      </trkpt>
      <trkpt lat="39.1641000" lon="-1.5498770">
        <ele>570.4</ele>
        <time>2019-05-12T09:16:57Z</time>
      </trkpt>
      <trkpt lat="39.1641220" lon="-1.5499530">
        <ele>570.4</ele>
        <time>2019-05-12T09:16:58Z</time>
      </trkpt>
      <trkpt lat="39.1641430" lon="-1.5500230">
        <ele>570.4</ele>
        <time>2019-05-12T09:16:59Z</time>
      </trkpt>
      <trkpt lat="39.1641610" lon="-1.5500870">
        <ele>570.4</ele>
        <time>2019-05-12T09:17:00Z</time>
      </trkpt>
      <trkpt lat="39.1641770" lon="-1.5501500">
        <ele>570.4</ele>
        <time>2019-05-12T09:17:01Z</time>
      </trkpt>
      <trkpt lat="39.1641940" lon="-1.5502100">
        <ele>570.6</ele>
        <time>2019-05-12T09:17:02Z</time>
      </trkpt>
      <trkpt lat="39.1642170" lon="-1.5502680">
        <ele>570.6</ele>
        <time>2019-05-12T09:17:03Z</time>
      </trkpt>
      <trkpt lat="39.1642520" lon="-1.5503280">
        <ele>570.8</ele>
        <time>2019-05-12T09:17:04Z</time>
      </trkpt>
      <trkpt lat="39.1642850" lon="-1.5503790">
        <ele>570.8</ele>
        <time>2019-05-12T09:17:05Z</time>
      </trkpt>
      <trkpt lat="39.1643230" lon="-1.5504260">
        <ele>570.8</ele>
        <time>2019-05-12T09:17:06Z</time>
      </trkpt>
      <trkpt lat="39.1643570" lon="-1.5504740">
        <ele>570.8</ele>
        <time>2019-05-12T09:17:07Z</time>
      </trkpt>
      <trkpt lat="39.1643810" lon="-1.5505280">
        <ele>570.8</ele>
        <time>2019-05-12T09:17:08Z</time>
      </trkpt>
      <trkpt lat="39.1644070" lon="-1.5505840">
        <ele>570.8</ele>
        <time>2019-05-12T09:17:09Z</time>
      </trkpt>
      <trkpt lat="39.1644330" lon="-1.5506400">
        <ele>570.8</ele>
        <time>2019-05-12T09:17:10Z</time>
      </trkpt>
      <trkpt lat="39.1644640" lon="-1.5506920">
        <ele>570.8</ele>
        <time>2019-05-12T09:17:11Z</time>
      </trkpt>
      <trkpt lat="39.1644970" lon="-1.5507510">
        <ele>570.8</ele>
        <time>2019-05-12T09:17:12Z</time>
      </trkpt>
      <trkpt lat="39.1645350" lon="-1.5508100">
        <ele>570.8</ele>
        <time>2019-05-12T09:17:13Z</time>
      </trkpt>
      <trkpt lat="39.1645830" lon="-1.5508550">
        <ele>570.8</ele>
        <time>2019-05-12T09:17:14Z</time>
      </trkpt>
      <trkpt lat="39.1646410" lon="-1.5508990">
        <ele>570.8</ele>
        <time>2019-05-12T09:17:15Z</time>
      </trkpt>
      <trkpt lat="39.1646990" lon="-1.5509410">
        <ele>570.8</ele>
        <time>2019-05-12T09:17:16Z</time>
      </trkpt>
      <trkpt lat="39.1647570" lon="-1.5509940">
        <ele>570.8</ele>
        <time>2019-05-12T09:17:17Z</time>
      </trkpt>
      <trkpt lat="39.1648260" lon="-1.5510440">
        <ele>570.8</ele>
        <time>2019-05-12T09:17:18Z</time>
      </trkpt>
      <trkpt lat="39.1648940" lon="-1.5510990">
        <ele>570.8</ele>
        <time>2019-05-12T09:17:19Z</time>
      </trkpt>
      <trkpt lat="39.1649550" lon="-1.5511630">
        <ele>570.8</ele>
        <time>2019-05-12T09:17:20Z</time>
      </trkpt>
      <trkpt lat="39.1650070" lon="-1.5512270">
        <ele>570.8</ele>
        <time>2019-05-12T09:17:21Z</time>
      </trkpt>
      <trkpt lat="39.1650560" lon="-1.5512950">
        <ele>570.8</ele>
        <time>2019-05-12T09:17:22Z</time>
      </trkpt>
      <trkpt lat="39.1651010" lon="-1.5513590">
        <ele>570.8</ele>
        <time>2019-05-12T09:17:23Z</time>
      </trkpt>
      <trkpt lat="39.1651470" lon="-1.5514220">
        <ele>570.6</ele>
        <time>2019-05-12T09:17:24Z</time>
      </trkpt>
      <trkpt lat="39.1651880" lon="-1.5514910">
        <ele>570.6</ele>
        <time>2019-05-12T09:17:25Z</time>
      </trkpt>
      <trkpt lat="39.1652230" lon="-1.5515520">
        <ele>570.4</ele>
        <time>2019-05-12T09:17:26Z</time>
      </trkpt>
      <trkpt lat="39.1652640" lon="-1.5515990">
        <ele>570.2</ele>
        <time>2019-05-12T09:17:27Z</time>
      </trkpt>
      <trkpt lat="39.1653140" lon="-1.5516360">
        <ele>570.0</ele>
        <time>2019-05-12T09:17:28Z</time>
      </trkpt>
      <trkpt lat="39.1653670" lon="-1.5516730">
        <ele>569.8</ele>
        <time>2019-05-12T09:17:29Z</time>
      </trkpt>
      <trkpt lat="39.1654120" lon="-1.5517190">
        <ele>569.6</ele>
        <time>2019-05-12T09:17:30Z</time>
      </trkpt>
      <trkpt lat="39.1654620" lon="-1.5517650">
        <ele>569.6</ele>
        <time>2019-05-12T09:17:31Z</time>
      </trkpt>
      <trkpt lat="39.1655160" lon="-1.5518070">
        <ele>569.4</ele>
        <time>2019-05-12T09:17:32Z</time>
      </trkpt>
      <trkpt lat="39.1655700" lon="-1.5518440">
        <ele>569.2</ele>
        <time>2019-05-12T09:17:33Z</time>
      </trkpt>
      <trkpt lat="39.1656240" lon="-1.5518790">
        <ele>569.2</ele>
        <time>2019-05-12T09:17:34Z</time>
      </trkpt>
      <trkpt lat="39.1656680" lon="-1.5519080">
        <ele>569.2</ele>
        <time>2019-05-12T09:17:35Z</time>
      </trkpt>
      <trkpt lat="39.1656860" lon="-1.5519420">
        <ele>569.2</ele>
        <time>2019-05-12T09:17:36Z</time>
      </trkpt>
      <trkpt lat="39.1656870" lon="-1.5519820">
        <ele>569.0</ele>
        <time>2019-05-12T09:17:37Z</time>
      </trkpt>
      <trkpt lat="39.1656830" lon="-1.5520110">
        <ele>569.0</ele>
        <time>2019-05-12T09:17:38Z</time>
      </trkpt>
      <trkpt lat="39.1656810" lon="-1.5520300">
        <ele>569.0</ele>
        <time>2019-05-12T09:17:39Z</time>
      </trkpt>
      <trkpt lat="39.1656780" lon="-1.5520380">
        <ele>569.0</ele>
        <time>2019-05-12T09:17:40Z</time>
      </trkpt>
      <trkpt lat="39.1656770" lon="-1.5520440">
        <ele>569.0</ele>
        <time>2019-05-12T09:17:41Z</time>
      </trkpt>
      <trkpt lat="39.1656710" lon="-1.5520560">
        <ele>569.2</ele>
        <time>2019-05-12T09:17:42Z</time>
      </trkpt>
      <trkpt lat="39.1656690" lon="-1.5520710">
        <ele>569.2</ele>
        <time>2019-05-12T09:17:43Z</time>
      </trkpt>
      <trkpt lat="39.1656650" lon="-1.5520850">
        <ele>569.2</ele>
        <time>2019-05-12T09:17:44Z</time>
      </trkpt>
      <trkpt lat="39.1656640" lon="-1.5520840">
        <ele>569.2</ele>
        <time>2019-05-12T09:17:45Z</time>
      </trkpt>
      <trkpt lat="39.1656630" lon="-1.5520870">
        <ele>569.2</ele>
        <time>2019-05-12T09:17:46Z</time>
      </trkpt>
      <trkpt lat="39.1656610" lon="-1.5520930">
        <ele>569.2</ele>
        <time>2019-05-12T09:17:47Z</time>
      </trkpt>
      <trkpt lat="39.1656600" lon="-1.5520990">
        <ele>569.2</ele>
        <time>2019-05-12T09:17:48Z</time>
      </trkpt>
      <trkpt lat="39.1656560" lon="-1.5521050">
        <ele>569.2</ele>
        <time>2019-05-12T09:17:49Z</time>
      </trkpt>
      <trkpt lat="39.1656510" lon="-1.5521110">
        <ele>569.4</ele>
        <time>2019-05-12T09:17:50Z</time>
      </trkpt>
      <trkpt lat="39.1656430" lon="-1.5521190">
        <ele>569.8</ele>
        <time>2019-05-12T09:17:51Z</time>
      </trkpt>
      <trkpt lat="39.1656330" lon="-1.5521300">
        <ele>570.0</ele>
        <time>2019-05-12T09:17:52Z</time>
      </trkpt>
      <trkpt lat="39.1656280" lon="-1.5521440">
        <ele>570.4</ele>
        <time>2019-05-12T09:17:53Z</time>
      </trkpt>
      <trkpt lat="39.1656270" lon="-1.5521570">
        <ele>570.6</ele>
        <time>2019-05-12T09:17:54Z</time>
      </trkpt>
      <trkpt lat="39.1656260" lon="-1.5521730">
        <ele>571.0</ele>
        <time>2019-05-12T09:17:55Z</time>
      </trkpt>
      <trkpt lat="39.1656250" lon="-1.5521910">
        <ele>571.6</ele>
        <time>2019-05-12T09:17:56Z</time>
      </trkpt>
      <trkpt lat="39.1656270" lon="-1.5522060">
        <ele>572.0</ele>
        <time>2019-05-12T09:17:57Z</time>
      </trkpt>
      <trkpt lat="39.1656310" lon="-1.5522220">
        <ele>572.2</ele>
        <time>2019-05-12T09:17:58Z</time>
      </trkpt>
      <trkpt lat="39.1656330" lon="-1.5522340">
        <ele>572.4</ele>
        <time>2019-05-12T09:17:59Z</time>
      </trkpt>
      <trkpt lat="39.1656330" lon="-1.5522470">
        <ele>572.6</ele>
        <time>2019-05-12T09:18:00Z</time>
      </trkpt>
      <trkpt lat="39.1656340" lon="-1.5522620">
        <ele>573.0</ele>
        <time>2019-05-12T09:18:01Z</time>
      </trkpt>
      <trkpt lat="39.1656370" lon="-1.5522780">
        <ele>573.2</ele>
        <time>2019-05-12T09:18:02Z</time>
      </trkpt>
      <trkpt lat="39.1656400" lon="-1.5522900">
        <ele>573.6</ele>
        <time>2019-05-12T09:18:03Z</time>
      </trkpt>
      <trkpt lat="39.1656430" lon="-1.5523000">
        <ele>574.0</ele>
        <time>2019-05-12T09:18:04Z</time>
      </trkpt>
      <trkpt lat="39.1656470" lon="-1.5523150">
        <ele>574.2</ele>
        <time>2019-05-12T09:18:05Z</time>
      </trkpt>
      <trkpt lat="39.1656550" lon="-1.5523320">
        <ele>574.6</ele>
        <time>2019-05-12T09:18:06Z</time>
      </trkpt>
      <trkpt lat="39.1656630" lon="-1.5523490">
        <ele>574.8</ele>
        <time>2019-05-12T09:18:07Z</time>
      </trkpt>
      <trkpt lat="39.1656680" lon="-1.5523650">
        <ele>575.2</ele>
        <time>2019-05-12T09:18:08Z</time>
      </trkpt>
      <trkpt lat="39.1656760" lon="-1.5523770">
        <ele>575.6</ele>
        <time>2019-05-12T09:18:09Z</time>
      </trkpt>
      <trkpt lat="39.1656920" lon="-1.5523920">
        <ele>575.8</ele>
        <time>2019-05-12T09:18:10Z</time>
      </trkpt>
      <trkpt lat="39.1657110" lon="-1.5524130">
        <ele>576.2</ele>
        <time>2019-05-12T09:18:11Z</time>
      </trkpt>
      <trkpt lat="39.1657420" lon="-1.5524470">
        <ele>576.4</ele>
        <time>2019-05-12T09:18:12Z</time>
      </trkpt>
      <trkpt lat="39.1657770" lon="-1.5524850">
        <ele>576.8</ele>
        <time>2019-05-12T09:18:13Z</time>
      </trkpt>
      <trkpt lat="39.1658140" lon="-1.5525280">
        <ele>576.8</ele>
        <time>2019-05-12T09:18:14Z</time>
      </trkpt>
      <trkpt lat="39.1658470" lon="-1.5525700">
        <ele>577.0</ele>
        <time>2019-05-12T09:18:15Z</time>
      </trkpt>
      <trkpt lat="39.1658680" lon="-1.5526070">
        <ele>577.0</ele>
        <time>2019-05-12T09:18:16Z</time>
      </trkpt>
      <trkpt lat="39.1658790" lon="-1.5526380">
        <ele>577.0</ele>
        <time>2019-05-12T09:18:17Z</time>
      </trkpt>
      <trkpt lat="39.1658920" lon="-1.5526710">
        <ele>577.0</ele>
        <time>2019-05-12T09:18:18Z</time>
      </trkpt>
      <trkpt lat="39.1659090" lon="-1.5527030">
        <ele>577.0</ele>
        <time>2019-05-12T09:18:19Z</time>
      </trkpt>
      <trkpt lat="39.1659260" lon="-1.5527330">
        <ele>577.0</ele>
        <time>2019-05-12T09:18:20Z</time>
      </trkpt>
      <trkpt lat="39.1659510" lon="-1.5527500">
        <ele>577.0</ele>
        <time>2019-05-12T09:18:21Z</time>
      </trkpt>
      <trkpt lat="39.1659780" lon="-1.5527460">
        <ele>577.0</ele>
        <time>2019-05-12T09:18:22Z</time>
      </trkpt>
      <trkpt lat="39.1660140" lon="-1.5527360">
        <ele>577.0</ele>
        <time>2019-05-12T09:18:23Z</time>
      </trkpt>
      <trkpt lat="39.1660540" lon="-1.5527310">
        <ele>577.0</ele>
        <time>2019-05-12T09:18:24Z</time>
      </trkpt>
      <trkpt lat="39.1660970" lon="-1.5527350">
        <ele>577.0</ele>
        <time>2019-05-12T09:18:25Z</time>
      </trkpt>
      <trkpt lat="39.1661410" lon="-1.5527420">
        <ele>577.0</ele>
        <time>2019-05-12T09:18:26Z</time>
      </trkpt>
      <trkpt lat="39.1661840" lon="-1.5527560">
        <ele>576.8</ele>
        <time>2019-05-12T09:18:27Z</time>
      </trkpt>
      <trkpt lat="39.1662160" lon="-1.5527770">
        <ele>576.6</ele>
        <time>2019-05-12T09:18:28Z</time>
      </trkpt>
      <trkpt lat="39.1662440" lon="-1.5528010">
        <ele>576.4</ele>
        <time>2019-05-12T09:18:29Z</time>
      </trkpt>
      <trkpt lat="39.1662690" lon="-1.5528230">
        <ele>576.2</ele>
        <time>2019-05-12T09:18:30Z</time>
      </trkpt>
      <trkpt lat="39.1662910" lon="-1.5528480">
        <ele>576.0</ele>
        <time>2019-05-12T09:18:31Z</time>
      </trkpt>
      <trkpt lat="39.1663130" lon="-1.5528750">
        <ele>576.0</ele>
        <time>2019-05-12T09:18:32Z</time>
      </trkpt>
      <trkpt lat="39.1663330" lon="-1.5529020">
        <ele>576.0</ele>
        <time>2019-05-12T09:18:33Z</time>
      </trkpt>
      <trkpt lat="39.1663580" lon="-1.5529230">
        <ele>576.0</ele>
        <time>2019-05-12T09:18:34Z</time>
      </trkpt>
      <trkpt lat="39.1663870" lon="-1.5529380">
        <ele>576.0</ele>
        <time>2019-05-12T09:18:35Z</time>
      </trkpt>
      <trkpt lat="39.1664180" lon="-1.5529560">
        <ele>576.0</ele>
        <time>2019-05-12T09:18:36Z</time>
      </trkpt>
      <trkpt lat="39.1664480" lon="-1.5529800">
        <ele>576.0</ele>
        <time>2019-05-12T09:18:37Z</time>
      </trkpt>
      <trkpt lat="39.1664800" lon="-1.5530100">
        <ele>576.0</ele>
        <time>2019-05-12T09:18:38Z</time>
      </trkpt>
      <trkpt lat="39.1665160" lon="-1.5530370">
        <ele>576.0</ele>
        <time>2019-05-12T09:18:39Z</time>
      </trkpt>
      <trkpt lat="39.1665580" lon="-1.5530630">
        <ele>576.0</ele>
        <time>2019-05-12T09:18:40Z</time>
      </trkpt>
      <trkpt lat="39.1666000" lon="-1.5530870">
        <ele>576.0</ele>
        <time>2019-05-12T09:18:41Z</time>
      </trkpt>
      <trkpt lat="39.1666430" lon="-1.5531120">
        <ele>576.0</ele>
        <time>2019-05-12T09:18:42Z</time>
      </trkpt>
      <trkpt lat="39.1666860" lon="-1.5531380">
        <ele>576.0</ele>
        <time>2019-05-12T09:18:43Z</time>
      </trkpt>
      <trkpt lat="39.1667270" lon="-1.5531650">
        <ele>576.0</ele>
        <time>2019-05-12T09:18:44Z</time>
      </trkpt>
      <trkpt lat="39.1667660" lon="-1.5531970">
        <ele>576.0</ele>
        <time>2019-05-12T09:18:45Z</time>
      </trkpt>
      <trkpt lat="39.1668060" lon="-1.5532270">
        <ele>576.0</ele>
        <time>2019-05-12T09:18:46Z</time>
      </trkpt>
      <trkpt lat="39.1668450" lon="-1.5532520">
        <ele>576.0</ele>
        <time>2019-05-12T09:18:47Z</time>
      </trkpt>
      <trkpt lat="39.1668860" lon="-1.5532830">
        <ele>576.0</ele>
        <time>2019-05-12T09:18:48Z</time>
      </trkpt>
      <trkpt lat="39.1669200" lon="-1.5533150">
        <ele>576.0</ele>
        <time>2019-05-12T09:18:49Z</time>
      </trkpt>
      <trkpt lat="39.1669530" lon="-1.5533480">
        <ele>576.0</ele>
        <time>2019-05-12T09:18:50Z</time>
      </trkpt>
      <trkpt lat="39.1669850" lon="-1.5533780">
        <ele>575.8</ele>
        <time>2019-05-12T09:18:51Z</time>
      </trkpt>
      <trkpt lat="39.1670190" lon="-1.5534150">
        <ele>575.8</ele>
        <time>2019-05-12T09:18:52Z</time>
      </trkpt>
      <trkpt lat="39.1670540" lon="-1.5534540">
        <ele>575.8</ele>
        <time>2019-05-12T09:18:53Z</time>
      </trkpt>
      <trkpt lat="39.1670830" lon="-1.5534930">
        <ele>575.6</ele>
        <time>2019-05-12T09:18:54Z</time>
      </trkpt>
      <trkpt lat="39.1671090" lon="-1.5535350">
        <ele>575.6</ele>
        <time>2019-05-12T09:18:55Z</time>
      </trkpt>
      <trkpt lat="39.1671290" lon="-1.5535840">
        <ele>575.8</ele>
        <time>2019-05-12T09:18:56Z</time>
      </trkpt>
      <trkpt lat="39.1671460" lon="-1.5536290">
        <ele>575.6</ele>
        <time>2019-05-12T09:18:57Z</time>
      </trkpt>
      <trkpt lat="39.1671710" lon="-1.5536680">
        <ele>575.6</ele>
        <time>2019-05-12T09:18:58Z</time>
      </trkpt>
      <trkpt lat="39.1671990" lon="-1.5537020">
        <ele>575.6</ele>
        <time>2019-05-12T09:18:59Z</time>
      </trkpt>
      <trkpt lat="39.1672270" lon="-1.5537400">
        <ele>575.4</ele>
        <time>2019-05-12T09:19:00Z</time>
      </trkpt>
      <trkpt lat="39.1672520" lon="-1.5537830">
        <ele>575.4</ele>
        <time>2019-05-12T09:19:01Z</time>
      </trkpt>
      <trkpt lat="39.1672730" lon="-1.5538280">
        <ele>575.4</ele>
        <time>2019-05-12T09:19:02Z</time>
      </trkpt>
      <trkpt lat="39.1672990" lon="-1.5538670">
        <ele>575.6</ele>
        <time>2019-05-12T09:19:03Z</time>
      </trkpt>
      <trkpt lat="39.1673260" lon="-1.5539080">
        <ele>575.6</ele>
        <time>2019-05-12T09:19:04Z</time>
      </trkpt>
      <trkpt lat="39.1673490" lon="-1.5539540">
        <ele>575.6</ele>
        <time>2019-05-12T09:19:05Z</time>
      </trkpt>
      <trkpt lat="39.1673740" lon="-1.5539960">
        <ele>575.6</ele>
        <time>2019-05-12T09:19:06Z</time>
      </trkpt>
      <trkpt lat="39.1674000" lon="-1.5540370">
        <ele>575.6</ele>
        <time>2019-05-12T09:19:07Z</time>
      </trkpt>
      <trkpt lat="39.1674300" lon="-1.5540780">
        <ele>575.6</ele>
        <time>2019-05-12T09:19:08Z</time>
      </trkpt>
      <trkpt lat="39.1674600" lon="-1.5541200">
        <ele>575.6</ele>
        <time>2019-05-12T09:19:09Z</time>
      </trkpt>
      <trkpt lat="39.1674860" lon="-1.5541690">
        <ele>575.4</ele>
        <time>2019-05-12T09:19:10Z</time>
      </trkpt>
      <trkpt lat="39.1675080" lon="-1.5542210">
        <ele>575.4</ele>
        <time>2019-05-12T09:19:11Z</time>
      </trkpt>
      <trkpt lat="39.1675240" lon="-1.5542790">
        <ele>575.4</ele>
        <time>2019-05-12T09:19:12Z</time>
      </trkpt>
      <trkpt lat="39.1675370" lon="-1.5543300">
        <ele>575.4</ele>
        <time>2019-05-12T09:19:13Z</time>
      </trkpt>
      <trkpt lat="39.1675520" lon="-1.5543760">
        <ele>575.4</ele>
        <time>2019-05-12T09:19:14Z</time>
      </trkpt>
      <trkpt lat="39.1675630" lon="-1.5544280">
        <ele>575.4</ele>
        <time>2019-05-12T09:19:15Z</time>
      </trkpt>
      <trkpt lat="39.1675680" lon="-1.5544790">
        <ele>575.4</ele>
        <time>2019-05-12T09:19:16Z</time>
      </trkpt>
      <trkpt lat="39.1675670" lon="-1.5545100">
        <ele>575.4</ele>
        <time>2019-05-12T09:19:17Z</time>
      </trkpt>
      <trkpt lat="39.1675670" lon="-1.5545360">
        <ele>575.4</ele>
        <time>2019-05-12T09:19:18Z</time>
      </trkpt>
      <trkpt lat="39.1675730" lon="-1.5545600">
        <ele>575.4</ele>
        <time>2019-05-12T09:19:19Z</time>
      </trkpt>
      <trkpt lat="39.1675810" lon="-1.5545850">
        <ele>575.4</ele>
        <time>2019-05-12T09:19:20Z</time>
      </trkpt>
      <trkpt lat="39.1675890" lon="-1.5546110">
        <ele>575.4</ele>
        <time>2019-05-12T09:19:21Z</time>
      </trkpt>
      <trkpt lat="39.1676000" lon="-1.5546460">
        <ele>575.4</ele>
        <time>2019-05-12T09:19:22Z</time>
      </trkpt>
      <trkpt lat="39.1676150" lon="-1.5546840">
        <ele>575.4</ele>
        <time>2019-05-12T09:19:23Z</time>
      </trkpt>
      <trkpt lat="39.1676380" lon="-1.5547220">
        <ele>575.6</ele>
        <time>2019-05-12T09:19:24Z</time>
      </trkpt>
      <trkpt lat="39.1676560" lon="-1.5547670">
        <ele>575.6</ele>
        <time>2019-05-12T09:19:25Z</time>
      </trkpt>
      <trkpt lat="39.1676710" lon="-1.5548260">
        <ele>575.6</ele>
        <time>2019-05-12T09:19:26Z</time>
      </trkpt>
      <trkpt lat="39.1676860" lon="-1.5548810">
        <ele>575.6</ele>
        <time>2019-05-12T09:19:27Z</time>
      </trkpt>
      <trkpt lat="39.1676970" lon="-1.5549350">
        <ele>575.6</ele>
        <time>2019-05-12T09:19:28Z</time>
      </trkpt>
      <trkpt lat="39.1677130" lon="-1.5549960">
        <ele>575.6</ele>
        <time>2019-05-12T09:19:29Z</time>
      </trkpt>
      <trkpt lat="39.1677320" lon="-1.5550560">
        <ele>575.6</ele>
        <time>2019-05-12T09:19:30Z</time>
      </trkpt>
      <trkpt lat="39.1677520" lon="-1.5551150">
        <ele>575.4</ele>
        <time>2019-05-12T09:19:31Z</time>
      </trkpt>
      <trkpt lat="39.1677660" lon="-1.5551760">
        <ele>575.4</ele>
        <time>2019-05-12T09:19:32Z</time>
      </trkpt>
      <trkpt lat="39.1677760" lon="-1.5552370">
        <ele>575.4</ele>
        <time>2019-05-12T09:19:33Z</time>
      </trkpt>
      <trkpt lat="39.1677820" lon="-1.5552930">
        <ele>575.4</ele>
        <time>2019-05-12T09:19:34Z</time>
      </trkpt>
      <trkpt lat="39.1677810" lon="-1.5553500">
        <ele>575.2</ele>
        <time>2019-05-12T09:19:35Z</time>
      </trkpt>
      <trkpt lat="39.1677760" lon="-1.5553940">
        <ele>575.0</ele>
        <time>2019-05-12T09:19:36Z</time>
      </trkpt>
      <trkpt lat="39.1677700" lon="-1.5554290">
        <ele>575.0</ele>
        <time>2019-05-12T09:19:37Z</time>
      </trkpt>
      <trkpt lat="39.1677590" lon="-1.5554590">
        <ele>574.8</ele>
        <time>2019-05-12T09:19:38Z</time>
      </trkpt>
      <trkpt lat="39.1677460" lon="-1.5554810">
        <ele>574.8</ele>
        <time>2019-05-12T09:19:39Z</time>
      </trkpt>
      <trkpt lat="39.1677320" lon="-1.5555100">
        <ele>574.8</ele>
        <time>2019-05-12T09:19:40Z</time>
      </trkpt>
      <trkpt lat="39.1677160" lon="-1.5555350">
        <ele>574.8</ele>
        <time>2019-05-12T09:19:41Z</time>
      </trkpt>
      <trkpt lat="39.1677050" lon="-1.5555610">
        <ele>574.8</ele>
        <time>2019-05-12T09:19:42Z</time>
      </trkpt>
      <trkpt lat="39.1676910" lon="-1.5555920">
        <ele>574.8</ele>
        <time>2019-05-12T09:19:43Z</time>
      </trkpt>
      <trkpt lat="39.1676850" lon="-1.5556400">
        <ele>574.8</ele>
        <time>2019-05-12T09:19:44Z</time>
      </trkpt>
      <trkpt lat="39.1676760" lon="-1.5556890">
        <ele>574.8</ele>
        <time>2019-05-12T09:19:45Z</time>
      </trkpt>
      <trkpt lat="39.1676730" lon="-1.5557380">
        <ele>575.0</ele>
        <time>2019-05-12T09:19:46Z</time>
      </trkpt>
      <trkpt lat="39.1676730" lon="-1.5557780">
        <ele>575.2</ele>
        <time>2019-05-12T09:19:47Z</time>
      </trkpt>
      <trkpt lat="39.1676720" lon="-1.5558180">
        <ele>575.2</ele>
        <time>2019-05-12T09:19:48Z</time>
      </trkpt>
      <trkpt lat="39.1676690" lon="-1.5558530">
        <ele>575.4</ele>
        <time>2019-05-12T09:19:49Z</time>
      </trkpt>
      <trkpt lat="39.1676630" lon="-1.5558850">
        <ele>575.6</ele>
        <time>2019-05-12T09:19:50Z</time>
      </trkpt>
      <trkpt lat="39.1676560" lon="-1.5559210">
        <ele>575.6</ele>
        <time>2019-05-12T09:19:51Z</time>
      </trkpt>
      <trkpt lat="39.1676470" lon="-1.5559600">
        <ele>575.6</ele>
        <time>2019-05-12T09:19:52Z</time>
      </trkpt>
      <trkpt lat="39.1676450" lon="-1.5560030">
        <ele>575.8</ele>
        <time>2019-05-12T09:19:53Z</time>
      </trkpt>
      <trkpt lat="39.1676500" lon="-1.5560550">
        <ele>575.8</ele>
        <time>2019-05-12T09:19:54Z</time>
      </trkpt>
      <trkpt lat="39.1676630" lon="-1.5561190">
        <ele>575.8</ele>
        <time>2019-05-12T09:19:55Z</time>
      </trkpt>
      <trkpt lat="39.1676740" lon="-1.5561800">
        <ele>575.8</ele>
        <time>2019-05-12T09:19:56Z</time>
      </trkpt>
      <trkpt lat="39.1676820" lon="-1.5562400">
        <ele>575.8</ele>
        <time>2019-05-12T09:19:57Z</time>
      </trkpt>
      <trkpt lat="39.1676840" lon="-1.5563000">
        <ele>575.8</ele>
        <time>2019-05-12T09:19:58Z</time>
      </trkpt>
      <trkpt lat="39.1676770" lon="-1.5563520">
        <ele>575.8</ele>
        <time>2019-05-12T09:19:59Z</time>
      </trkpt>
      <trkpt lat="39.1676730" lon="-1.5564050">
        <ele>575.6</ele>
        <time>2019-05-12T09:20:00Z</time>
      </trkpt>
      <trkpt lat="39.1676650" lon="-1.5564550">
        <ele>575.6</ele>
        <time>2019-05-12T09:20:01Z</time>
      </trkpt>
      <trkpt lat="39.1676580" lon="-1.5565010">
        <ele>575.6</ele>
        <time>2019-05-12T09:20:02Z</time>
      </trkpt>
      <trkpt lat="39.1676460" lon="-1.5565460">
        <ele>575.6</ele>
        <time>2019-05-12T09:20:03Z</time>
      </trkpt>
      <trkpt lat="39.1676320" lon="-1.5565910">
        <ele>575.6</ele>
        <time>2019-05-12T09:20:04Z</time>
      </trkpt>
      <trkpt lat="39.1676240" lon="-1.5566400">
        <ele>575.6</ele>
        <time>2019-05-12T09:20:05Z</time>
      </trkpt>
      <trkpt lat="39.1676090" lon="-1.5566910">
        <ele>575.6</ele>
        <time>2019-05-12T09:20:06Z</time>
      </trkpt>
      <trkpt lat="39.1675950" lon="-1.5567480">
        <ele>575.8</ele>
        <time>2019-05-12T09:20:07Z</time>
      </trkpt>
      <trkpt lat="39.1675840" lon="-1.5568030">
        <ele>575.8</ele>
        <time>2019-05-12T09:20:08Z</time>
      </trkpt>
      <trkpt lat="39.1675750" lon="-1.5568560">
        <ele>575.8</ele>
        <time>2019-05-12T09:20:09Z</time>
      </trkpt>
      <trkpt lat="39.1675680" lon="-1.5569050">
        <ele>576.0</ele>
        <time>2019-05-12T09:20:10Z</time>
      </trkpt>
      <trkpt lat="39.1675570" lon="-1.5569550">
        <ele>576.0</ele>
        <time>2019-05-12T09:20:11Z</time>
      </trkpt>
      <trkpt lat="39.1675490" lon="-1.5570030">
        <ele>576.0</ele>
        <time>2019-05-12T09:20:12Z</time>
      </trkpt>
      <trkpt lat="39.1675410" lon="-1.5570540">
        <ele>576.0</ele>
        <time>2019-05-12T09:20:13Z</time>
      </trkpt>
      <trkpt lat="39.1675470" lon="-1.5571120">
        <ele>576.0</ele>
        <time>2019-05-12T09:20:14Z</time>
      </trkpt>
      <trkpt lat="39.1675420" lon="-1.5571610">
        <ele>576.0</ele>
        <time>2019-05-12T09:20:15Z</time>
      </trkpt>
      <trkpt lat="39.1675350" lon="-1.5572170">
        <ele>576.2</ele>
        <time>2019-05-12T09:20:16Z</time>
      </trkpt>
      <trkpt lat="39.1675280" lon="-1.5572730">
        <ele>576.4</ele>
        <time>2019-05-12T09:20:17Z</time>
      </trkpt>
      <trkpt lat="39.1675170" lon="-1.5573270">
        <ele>576.4</ele>
        <time>2019-05-12T09:20:18Z</time>
      </trkpt>
      <trkpt lat="39.1675060" lon="-1.5573800">
        <ele>576.4</ele>
        <time>2019-05-12T09:20:19Z</time>
      </trkpt>
      <trkpt lat="39.1674940" lon="-1.5574310">
        <ele>576.6</ele>
        <time>2019-05-12T09:20:20Z</time>
      </trkpt>
      <trkpt lat="39.1674800" lon="-1.5574850">
        <ele>576.6</ele>
        <time>2019-05-12T09:20:21Z</time>
      </trkpt>
      <trkpt lat="39.1674610" lon="-1.5575430">
        <ele>576.6</ele>
        <time>2019-05-12T09:20:22Z</time>
      </trkpt>
      <trkpt lat="39.1674420" lon="-1.5576020">
        <ele>576.6</ele>
        <time>2019-05-12T09:20:23Z</time>
      </trkpt>
      <trkpt lat="39.1674310" lon="-1.5576570">
        <ele>576.6</ele>
        <time>2019-05-12T09:20:24Z</time>
      </trkpt>
      <trkpt lat="39.1674280" lon="-1.5576970">
        <ele>576.6</ele>
        <time>2019-05-12T09:20:25Z</time>
      </trkpt>
      <trkpt lat="39.1674330" lon="-1.5577370">
        <ele>576.6</ele>
        <time>2019-05-12T09:20:26Z</time>
      </trkpt>
      <trkpt lat="39.1674370" lon="-1.5577860">
        <ele>576.4</ele>
        <time>2019-05-12T09:20:27Z</time>
      </trkpt>
      <trkpt lat="39.1674410" lon="-1.5578380">
        <ele>576.4</ele>
        <time>2019-05-12T09:20:28Z</time>
      </trkpt>
      <trkpt lat="39.1674350" lon="-1.5578860">
        <ele>576.2</ele>
        <time>2019-05-12T09:20:29Z</time>
      </trkpt>
      <trkpt lat="39.1674230" lon="-1.5579310">
        <ele>576.2</ele>
        <time>2019-05-12T09:20:30Z</time>
      </trkpt>
      <trkpt lat="39.1674170" lon="-1.5579710">
        <ele>576.0</ele>
        <time>2019-05-12T09:20:31Z</time>
      </trkpt>
      <trkpt lat="39.1674110" lon="-1.5580110">
        <ele>576.0</ele>
        <time>2019-05-12T09:20:32Z</time>
      </trkpt>
      <trkpt lat="39.1674060" lon="-1.5580540">
        <ele>576.0</ele>
        <time>2019-05-12T09:20:33Z</time>
      </trkpt>
      <trkpt lat="39.1674020" lon="-1.5580980">
        <ele>576.0</ele>
        <time>2019-05-12T09:20:34Z</time>
      </trkpt>
      <trkpt lat="39.1674030" lon="-1.5581470">
        <ele>576.0</ele>
        <time>2019-05-12T09:20:35Z</time>
      </trkpt>
      <trkpt lat="39.1673980" lon="-1.5581990">
        <ele>576.0</ele>
        <time>2019-05-12T09:20:36Z</time>
      </trkpt>
      <trkpt lat="39.1673880" lon="-1.5582530">
        <ele>576.0</ele>
        <time>2019-05-12T09:20:37Z</time>
      </trkpt>
      <trkpt lat="39.1673770" lon="-1.5583030">
        <ele>576.0</ele>
        <time>2019-05-12T09:20:38Z</time>
      </trkpt>
      <trkpt lat="39.1673650" lon="-1.5583490">
        <ele>576.0</ele>
        <time>2019-05-12T09:20:39Z</time>
      </trkpt>
      <trkpt lat="39.1673540" lon="-1.5583940">
        <ele>576.0</ele>
        <time>2019-05-12T09:20:40Z</time>
      </trkpt>
      <trkpt lat="39.1673470" lon="-1.5584420">
        <ele>576.2</ele>
        <time>2019-05-12T09:20:41Z</time>
      </trkpt>
      <trkpt lat="39.1673470" lon="-1.5585000">
        <ele>576.4</ele>
        <time>2019-05-12T09:20:42Z</time>
      </trkpt>
      <trkpt lat="39.1673460" lon="-1.5585640">
        <ele>576.4</ele>
        <time>2019-05-12T09:20:43Z</time>
      </trkpt>
      <trkpt lat="39.1673390" lon="-1.5586370">
        <ele>576.4</ele>
        <time>2019-05-12T09:20:44Z</time>
      </trkpt>
      <trkpt lat="39.1673250" lon="-1.5587120">
        <ele>576.4</ele>
        <time>2019-05-12T09:20:45Z</time>
      </trkpt>
      <trkpt lat="39.1673190" lon="-1.5587970">
        <ele>576.6</ele>
        <time>2019-05-12T09:20:46Z</time>
      </trkpt>
      <trkpt lat="39.1673100" lon="-1.5588840">
        <ele>576.6</ele>
        <time>2019-05-12T09:20:47Z</time>
      </trkpt>
      <trkpt lat="39.1672980" lon="-1.5589720">
        <ele>576.6</ele>
        <time>2019-05-12T09:20:48Z</time>
      </trkpt>
      <trkpt lat="39.1672860" lon="-1.5590620">
        <ele>576.6</ele>
        <time>2019-05-12T09:20:49Z</time>
      </trkpt>
      <trkpt lat="39.1672660" lon="-1.5591520">
        <ele>576.6</ele>
        <time>2019-05-12T09:20:50Z</time>
      </trkpt>
      <trkpt lat="39.1672450" lon="-1.5592420">
        <ele>576.4</ele>
        <time>2019-05-12T09:20:51Z</time>
      </trkpt>
      <trkpt lat="39.1672200" lon="-1.5593260">
        <ele>576.4</ele>
        <time>2019-05-12T09:20:52Z</time>
      </trkpt>
      <trkpt lat="39.1671980" lon="-1.5594100">
        <ele>576.4</ele>
        <time>2019-05-12T09:20:53Z</time>
      </trkpt>
      <trkpt lat="39.1671760" lon="-1.5594900">
        <ele>576.2</ele>
        <time>2019-05-12T09:20:54Z</time>
      </trkpt>
      <trkpt lat="39.1671560" lon="-1.5595670">
        <ele>576.0</ele>
        <time>2019-05-12T09:20:55Z</time>
      </trkpt>
      <trkpt lat="39.1671380" lon="-1.5596420">
        <ele>576.0</ele>
        <time>2019-05-12T09:20:56Z</time>
      </trkpt>
      <trkpt lat="39.1671250" lon="-1.5597150">
        <ele>576.0</ele>
        <time>2019-05-12T09:20:57Z</time>
      </trkpt>
      <trkpt lat="39.1671020" lon="-1.5597900">
        <ele>576.0</ele>
        <time>2019-05-12T09:20:58Z</time>
      </trkpt>
      <trkpt lat="39.1670750" lon="-1.5598680">
        <ele>576.0</ele>
        <time>2019-05-12T09:20:59Z</time>
      </trkpt>
      <trkpt lat="39.1670470" lon="-1.5599430">
        <ele>576.0</ele>
        <time>2019-05-12T09:21:00Z</time>
      </trkpt>
      <trkpt lat="39.1670200" lon="-1.5600190">
        <ele>575.8</ele>
        <time>2019-05-12T09:21:01Z</time>
      </trkpt>
      <trkpt lat="39.1669920" lon="-1.5600980">
        <ele>575.8</ele>
        <time>2019-05-12T09:21:02Z</time>
      </trkpt>
      <trkpt lat="39.1669610" lon="-1.5601770">
        <ele>575.8</ele>
        <time>2019-05-12T09:21:03Z</time>
      </trkpt>
      <trkpt lat="39.1669210" lon="-1.5602520">
        <ele>575.8</ele>
        <time>2019-05-12T09:21:04Z</time>
      </trkpt>
      <trkpt lat="39.1668760" lon="-1.5603180">
        <ele>575.8</ele>
        <time>2019-05-12T09:21:05Z</time>
      </trkpt>
      <trkpt lat="39.1668310" lon="-1.5603830">
        <ele>575.6</ele>
        <time>2019-05-12T09:21:06Z</time>
      </trkpt>
      <trkpt lat="39.1667840" lon="-1.5604430">
        <ele>575.6</ele>
        <time>2019-05-12T09:21:07Z</time>
      </trkpt>
      <trkpt lat="39.1667310" lon="-1.5604970">
        <ele>575.6</ele>
        <time>2019-05-12T09:21:08Z</time>
      </trkpt>
      <trkpt lat="39.1666750" lon="-1.5605440">
        <ele>575.6</ele>
        <time>2019-05-12T09:21:09Z</time>
      </trkpt>
      <trkpt lat="39.1666200" lon="-1.5605870">
        <ele>575.6</ele>
        <time>2019-05-12T09:21:10Z</time>
      </trkpt>
      <trkpt lat="39.1665630" lon="-1.5606320">
        <ele>575.4</ele>
        <time>2019-05-12T09:21:11Z</time>
      </trkpt>
      <trkpt lat="39.1664980" lon="-1.5606740">
        <ele>575.4</ele>
        <time>2019-05-12T09:21:12Z</time>
      </trkpt>
      <trkpt lat="39.1664370" lon="-1.5607120">
        <ele>575.2</ele>
        <time>2019-05-12T09:21:13Z</time>
      </trkpt>
      <trkpt lat="39.1663750" lon="-1.5607420">
        <ele>575.2</ele>
        <time>2019-05-12T09:21:14Z</time>
      </trkpt>
      <trkpt lat="39.1663170" lon="-1.5607700">
        <ele>575.2</ele>
        <time>2019-05-12T09:21:15Z</time>
      </trkpt>
      <trkpt lat="39.1662590" lon="-1.5608010">
        <ele>575.2</ele>
        <time>2019-05-12T09:21:16Z</time>
      </trkpt>
      <trkpt lat="39.1661990" lon="-1.5608400">
        <ele>575.2</ele>
        <time>2019-05-12T09:21:17Z</time>
      </trkpt>
      <trkpt lat="39.1661380" lon="-1.5608820">
        <ele>575.2</ele>
        <time>2019-05-12T09:21:18Z</time>
      </trkpt>
      <trkpt lat="39.1660750" lon="-1.5609200">
        <ele>575.2</ele>
        <time>2019-05-12T09:21:19Z</time>
      </trkpt>
      <trkpt lat="39.1660090" lon="-1.5609530">
        <ele>575.2</ele>
        <time>2019-05-12T09:21:20Z</time>
      </trkpt>
      <trkpt lat="39.1659480" lon="-1.5609790">
        <ele>575.0</ele>
        <time>2019-05-12T09:21:21Z</time>
      </trkpt>
      <trkpt lat="39.1658910" lon="-1.5609860">
        <ele>575.0</ele>
        <time>2019-05-12T09:21:22Z</time>
      </trkpt>
      <trkpt lat="39.1658340" lon="-1.5609740">
        <ele>575.0</ele>
        <time>2019-05-12T09:21:23Z</time>
      </trkpt>
      <trkpt lat="39.1657740" lon="-1.5609550">
        <ele>575.0</ele>
        <time>2019-05-12T09:21:24Z</time>
      </trkpt>
      <trkpt lat="39.1657170" lon="-1.5609340">
        <ele>575.0</ele>
        <time>2019-05-12T09:21:25Z</time>
      </trkpt>
      <trkpt lat="39.1656680" lon="-1.5609080">
        <ele>575.0</ele>
        <time>2019-05-12T09:21:26Z</time>
      </trkpt>
      <trkpt lat="39.1656260" lon="-1.5608800">
        <ele>575.2</ele>
        <time>2019-05-12T09:21:27Z</time>
      </trkpt>
      <trkpt lat="39.1655890" lon="-1.5608510">
        <ele>575.2</ele>
        <time>2019-05-12T09:21:28Z</time>
      </trkpt>
      <trkpt lat="39.1655520" lon="-1.5608260">
        <ele>575.2</ele>
        <time>2019-05-12T09:21:29Z</time>
      </trkpt>
      <trkpt lat="39.1655190" lon="-1.5608020">
        <ele>575.4</ele>
        <time>2019-05-12T09:21:30Z</time>
      </trkpt>
      <trkpt lat="39.1654890" lon="-1.5607820">
        <ele>575.4</ele>
        <time>2019-05-12T09:21:31Z</time>
      </trkpt>
      <trkpt lat="39.1654650" lon="-1.5607650">
        <ele>575.4</ele>
        <time>2019-05-12T09:21:32Z</time>
      </trkpt>
      <trkpt lat="39.1654450" lon="-1.5607490">
        <ele>575.4</ele>
        <time>2019-05-12T09:21:33Z</time>
      </trkpt>
      <trkpt lat="39.1654270" lon="-1.5607320">
        <ele>575.8</ele>
        <time>2019-05-12T09:21:34Z</time>
      </trkpt>
      <trkpt lat="39.1654050" lon="-1.5607160">
        <ele>576.4</ele>
        <time>2019-05-12T09:21:35Z</time>
      </trkpt>
      <trkpt lat="39.1653750" lon="-1.5606970">
        <ele>577.0</ele>
        <time>2019-05-12T09:21:36Z</time>
      </trkpt>
      <trkpt lat="39.1653410" lon="-1.5606770">
        <ele>577.8</ele>
        <time>2019-05-12T09:21:37Z</time>
      </trkpt>
      <trkpt lat="39.1653050" lon="-1.5606550">
        <ele>578.6</ele>
        <time>2019-05-12T09:21:38Z</time>
      </trkpt>
      <trkpt lat="39.1652670" lon="-1.5606320">
        <ele>579.4</ele>
        <time>2019-05-12T09:21:39Z</time>
      </trkpt>
      <trkpt lat="39.1652270" lon="-1.5606040">
        <ele>580.2</ele>
        <time>2019-05-12T09:21:40Z</time>
      </trkpt>
      <trkpt lat="39.1651880" lon="-1.5605710">
        <ele>580.4</ele>
        <time>2019-05-12T09:21:41Z</time>
      </trkpt>
      <trkpt lat="39.1651490" lon="-1.5605350">
        <ele>580.6</ele>
        <time>2019-05-12T09:21:42Z</time>
      </trkpt>
      <trkpt lat="39.1651130" lon="-1.5604940">
        <ele>580.8</ele>
        <time>2019-05-12T09:21:43Z</time>
      </trkpt>
      <trkpt lat="39.1650820" lon="-1.5604460">
        <ele>580.8</ele>
        <time>2019-05-12T09:21:44Z</time>
      </trkpt>
      <trkpt lat="39.1650550" lon="-1.5603950">
        <ele>580.8</ele>
        <time>2019-05-12T09:21:45Z</time>
      </trkpt>
      <trkpt lat="39.1650300" lon="-1.5603430">
        <ele>580.8</ele>
        <time>2019-05-12T09:21:46Z</time>
      </trkpt>
      <trkpt lat="39.1650060" lon="-1.5602890">
        <ele>580.8</ele>
        <time>2019-05-12T09:21:47Z</time>
      </trkpt>
      <trkpt lat="39.1649840" lon="-1.5602330">
        <ele>580.8</ele>
        <time>2019-05-12T09:21:48Z</time>
      </trkpt>
      <trkpt lat="39.1649660" lon="-1.5601840">
        <ele>580.8</ele>
        <time>2019-05-12T09:21:49Z</time>
      </trkpt>
      <trkpt lat="39.1649520" lon="-1.5601400">
        <ele>580.8</ele>
        <time>2019-05-12T09:21:50Z</time>
      </trkpt>
      <trkpt lat="39.1649420" lon="-1.5601000">
        <ele>580.8</ele>
        <time>2019-05-12T09:21:51Z</time>
      </trkpt>
      <trkpt lat="39.1649320" lon="-1.5600620">
        <ele>580.8</ele>
        <time>2019-05-12T09:21:52Z</time>
      </trkpt>
      <trkpt lat="39.1649260" lon="-1.5600210">
        <ele>580.8</ele>
        <time>2019-05-12T09:21:53Z</time>
      </trkpt>
      <trkpt lat="39.1649230" lon="-1.5599770">
        <ele>580.8</ele>
        <time>2019-05-12T09:21:54Z</time>
      </trkpt>
      <trkpt lat="39.1649180" lon="-1.5599360">
        <ele>580.8</ele>
        <time>2019-05-12T09:21:55Z</time>
      </trkpt>
      <trkpt lat="39.1649080" lon="-1.5598960">
        <ele>580.8</ele>
        <time>2019-05-12T09:21:56Z</time>
      </trkpt>
      <trkpt lat="39.1648950" lon="-1.5598560">
        <ele>580.8</ele>
        <time>2019-05-12T09:21:57Z</time>
      </trkpt>
      <trkpt lat="39.1648790" lon="-1.5598150">
        <ele>580.8</ele>
        <time>2019-05-12T09:21:58Z</time>
      </trkpt>
      <trkpt lat="39.1648640" lon="-1.5597750">
        <ele>580.8</ele>
        <time>2019-05-12T09:21:59Z</time>
      </trkpt>
      <trkpt lat="39.1648520" lon="-1.5597290">
        <ele>581.4</ele>
        <time>2019-05-12T09:22:00Z</time>
      </trkpt>
      <trkpt lat="39.1648430" lon="-1.5596820">
        <ele>581.8</ele>
        <time>2019-05-12T09:22:01Z</time>
      </trkpt>
      <trkpt lat="39.1648310" lon="-1.5596400">
        <ele>582.0</ele>
        <time>2019-05-12T09:22:02Z</time>
      </trkpt>
      <trkpt lat="39.1648150" lon="-1.5595940">
        <ele>582.2</ele>
        <time>2019-05-12T09:22:03Z</time>
      </trkpt>
      <trkpt lat="39.1647990" lon="-1.5595470">
        <ele>582.6</ele>
        <time>2019-05-12T09:22:04Z</time>
      </trkpt>
      <trkpt lat="39.1647800" lon="-1.5594950">
        <ele>582.8</ele>
        <time>2019-05-12T09:22:05Z</time>
      </trkpt>
      <trkpt lat="39.1647600" lon="-1.5594430">
        <ele>583.2</ele>
        <time>2019-05-12T09:22:06Z</time>
      </trkpt>
      <trkpt lat="39.1647360" lon="-1.5593900">
        <ele>583.4</ele>
        <time>2019-05-12T09:22:07Z</time>
      </trkpt>
      <trkpt lat="39.1647110" lon="-1.5593350">
        <ele>583.8</ele>
        <time>2019-05-12T09:22:08Z</time>
      </trkpt>
      <trkpt lat="39.1646840" lon="-1.5592780">
        <ele>584.4</ele>
        <time>2019-05-12T09:22:09Z</time>
      </trkpt>
      <trkpt lat="39.1646550" lon="-1.5592220">
        <ele>584.6</ele>
        <time>2019-05-12T09:22:10Z</time>
      </trkpt>
      <trkpt lat="39.1646290" lon="-1.5591650">
        <ele>585.0</ele>
        <time>2019-05-12T09:22:11Z</time>
      </trkpt>
      <trkpt lat="39.1646000" lon="-1.5591060">
        <ele>585.0</ele>
        <time>2019-05-12T09:22:12Z</time>
      </trkpt>
      <trkpt lat="39.1645730" lon="-1.5590400">
        <ele>585.2</ele>
        <time>2019-05-12T09:22:13Z</time>
      </trkpt>
      <trkpt lat="39.1645450" lon="-1.5589700">
        <ele>585.2</ele>
        <time>2019-05-12T09:22:14Z</time>
      </trkpt>
      <trkpt lat="39.1645150" lon="-1.5589000">
        <ele>585.2</ele>
        <time>2019-05-12T09:22:15Z</time>
      </trkpt>
      <trkpt lat="39.1644840" lon="-1.5588290">
        <ele>585.2</ele>
        <time>2019-05-12T09:22:16Z</time>
      </trkpt>
      <trkpt lat="39.1644530" lon="-1.5587570">
        <ele>585.2</ele>
        <time>2019-05-12T09:22:17Z</time>
      </trkpt>
      <trkpt lat="39.1644150" lon="-1.5586850">
        <ele>585.2</ele>
        <time>2019-05-12T09:22:18Z</time>
      </trkpt>
      <trkpt lat="39.1643800" lon="-1.5586090">
        <ele>585.2</ele>
        <time>2019-05-12T09:22:19Z</time>
      </trkpt>
      <trkpt lat="39.1643410" lon="-1.5585330">
        <ele>585.2</ele>
        <time>2019-05-12T09:22:20Z</time>
      </trkpt>
      <trkpt lat="39.1643000" lon="-1.5584520">
        <ele>585.2</ele>
        <time>2019-05-12T09:22:21Z</time>
      </trkpt>
      <trkpt lat="39.1642530" lon="-1.5583680">
        <ele>585.2</ele>
        <time>2019-05-12T09:22:22Z</time>
      </trkpt>
      <trkpt lat="39.1641980" lon="-1.5582830">
        <ele>585.0</ele>
        <time>2019-05-12T09:22:23Z</time>
      </trkpt>
      <trkpt lat="39.1641370" lon="-1.5582000">
        <ele>585.0</ele>
        <time>2019-05-12T09:22:24Z</time>
      </trkpt>
      <trkpt lat="39.1640660" lon="-1.5581160">
        <ele>584.8</ele>
        <time>2019-05-12T09:22:25Z</time>
      </trkpt>
      <trkpt lat="39.1639890" lon="-1.5580290">
        <ele>584.8</ele>
        <time>2019-05-12T09:22:26Z</time>
      </trkpt>
      <trkpt lat="39.1639120" lon="-1.5579420">
        <ele>584.6</ele>
        <time>2019-05-12T09:22:27Z</time>
      </trkpt>
      <trkpt lat="39.1638350" lon="-1.5578530">
        <ele>584.4</ele>
        <time>2019-05-12T09:22:28Z</time>
      </trkpt>
      <trkpt lat="39.1637580" lon="-1.5577760">
        <ele>584.0</ele>
        <time>2019-05-12T09:22:29Z</time>
      </trkpt>
      <trkpt lat="39.1636810" lon="-1.5577100">
        <ele>583.8</ele>
        <time>2019-05-12T09:22:30Z</time>
      </trkpt>
      <trkpt lat="39.1636020" lon="-1.5576450">
        <ele>583.2</ele>
        <time>2019-05-12T09:22:31Z</time>
      </trkpt>
      <trkpt lat="39.1635210" lon="-1.5575830">
        <ele>582.8</ele>
        <time>2019-05-12T09:22:32Z</time>
      </trkpt>
      <trkpt lat="39.1634330" lon="-1.5575260">
        <ele>582.2</ele>
        <time>2019-05-12T09:22:33Z</time>
      </trkpt>
      <trkpt lat="39.1633480" lon="-1.5574730">
        <ele>581.8</ele>
        <time>2019-05-12T09:22:34Z</time>
      </trkpt>
      <trkpt lat="39.1632640" lon="-1.5574230">
        <ele>580.4</ele>
        <time>2019-05-12T09:22:35Z</time>
      </trkpt>
      <trkpt lat="39.1631810" lon="-1.5573720">
        <ele>580.0</ele>
        <time>2019-05-12T09:22:36Z</time>
      </trkpt>
      <trkpt lat="39.1631000" lon="-1.5573220">
        <ele>579.8</ele>
        <time>2019-05-12T09:22:37Z</time>
      </trkpt>
      <trkpt lat="39.1630160" lon="-1.5572760">
        <ele>579.6</ele>
        <time>2019-05-12T09:22:38Z</time>
      </trkpt>
      <trkpt lat="39.1629320" lon="-1.5572320">
        <ele>579.2</ele>
        <time>2019-05-12T09:22:39Z</time>
      </trkpt>
      <trkpt lat="39.1628460" lon="-1.5571920">
        <ele>578.8</ele>
        <time>2019-05-12T09:22:40Z</time>
      </trkpt>
      <trkpt lat="39.1627660" lon="-1.5571500">
        <ele>578.8</ele>
        <time>2019-05-12T09:22:41Z</time>
      </trkpt>
      <trkpt lat="39.1626910" lon="-1.5571060">
        <ele>578.6</ele>
        <time>2019-05-12T09:22:42Z</time>
      </trkpt>
      <trkpt lat="39.1626180" lon="-1.5570590">
        <ele>578.4</ele>
        <time>2019-05-12T09:22:43Z</time>
      </trkpt>
      <trkpt lat="39.1625450" lon="-1.5570160">
        <ele>578.4</ele>
        <time>2019-05-12T09:22:44Z</time>
      </trkpt>
      <trkpt lat="39.1624710" lon="-1.5569770">
        <ele>578.4</ele>
        <time>2019-05-12T09:22:45Z</time>
      </trkpt>
      <trkpt lat="39.1623940" lon="-1.5569430">
        <ele>578.2</ele>
        <time>2019-05-12T09:22:46Z</time>
      </trkpt>
      <trkpt lat="39.1623140" lon="-1.5569080">
        <ele>578.2</ele>
        <time>2019-05-12T09:22:47Z</time>
      </trkpt>
      <trkpt lat="39.1622360" lon="-1.5568700">
        <ele>578.2</ele>
        <time>2019-05-12T09:22:48Z</time>
      </trkpt>
      <trkpt lat="39.1621590" lon="-1.5568330">
        <ele>578.2</ele>
        <time>2019-05-12T09:22:49Z</time>
      </trkpt>
      <trkpt lat="39.1620800" lon="-1.5568010">
        <ele>578.2</ele>
        <time>2019-05-12T09:22:50Z</time>
      </trkpt>
      <trkpt lat="39.1620000" lon="-1.5567770">
        <ele>578.0</ele>
        <time>2019-05-12T09:22:51Z</time>
      </trkpt>
      <trkpt lat="39.1619170" lon="-1.5567610">
        <ele>578.0</ele>
        <time>2019-05-12T09:22:52Z</time>
      </trkpt>
      <trkpt lat="39.1618270" lon="-1.5567510">
        <ele>578.0</ele>
        <time>2019-05-12T09:22:53Z</time>
      </trkpt>
      <trkpt lat="39.1617360" lon="-1.5567440">
        <ele>578.0</ele>
        <time>2019-05-12T09:22:54Z</time>
      </trkpt>
      <trkpt lat="39.1616410" lon="-1.5567600">
        <ele>578.0</ele>
        <time>2019-05-12T09:22:55Z</time>
      </trkpt>
      <trkpt lat="39.1615460" lon="-1.5567990">
        <ele>578.0</ele>
        <time>2019-05-12T09:22:56Z</time>
      </trkpt>
      <trkpt lat="39.1614610" lon="-1.5568460">
        <ele>577.6</ele>
        <time>2019-05-12T09:22:57Z</time>
      </trkpt>
      <trkpt lat="39.1613890" lon="-1.5568850">
        <ele>577.4</ele>
        <time>2019-05-12T09:22:58Z</time>
      </trkpt>
      <trkpt lat="39.1613320" lon="-1.5569010">
        <ele>577.2</ele>
        <time>2019-05-12T09:22:59Z</time>
      </trkpt>
      <trkpt lat="39.1612940" lon="-1.5568940">
        <ele>577.2</ele>
        <time>2019-05-12T09:23:00Z</time>
      </trkpt>
      <trkpt lat="39.1612850" lon="-1.5568670">
        <ele>577.0</ele>
        <time>2019-05-12T09:23:01Z</time>
      </trkpt>
      <trkpt lat="39.1612760" lon="-1.5568380">
        <ele>576.4</ele>
        <time>2019-05-12T09:23:02Z</time>
      </trkpt>
      <trkpt lat="39.1612690" lon="-1.5568080">
        <ele>575.6</ele>
        <time>2019-05-12T09:23:03Z</time>
      </trkpt>
      <trkpt lat="39.1612690" lon="-1.5567850">
        <ele>575.0</ele>
        <time>2019-05-12T09:23:04Z</time>
      </trkpt>
      <trkpt lat="39.1612690" lon="-1.5567700">
        <ele>574.2</ele>
        <time>2019-05-12T09:23:05Z</time>
      </trkpt>
      <trkpt lat="39.1612620" lon="-1.5567620">
        <ele>573.6</ele>
        <time>2019-05-12T09:23:06Z</time>
      </trkpt>
      <trkpt lat="39.1612550" lon="-1.5567570">
        <ele>573.2</ele>
        <time>2019-05-12T09:23:07Z</time>
      </trkpt>
      <trkpt lat="39.1612460" lon="-1.5567590">
        <ele>573.0</ele>
        <time>2019-05-12T09:23:08Z</time>
      </trkpt>
      <trkpt lat="39.1612330" lon="-1.5567670">
        <ele>572.8</ele>
        <time>2019-05-12T09:23:09Z</time>
      </trkpt>
      <trkpt lat="39.1612210" lon="-1.5567750">
        <ele>572.8</ele>
        <time>2019-05-12T09:23:10Z</time>
      </trkpt>
      <trkpt lat="39.1612140" lon="-1.5567830">
        <ele>572.8</ele>
        <time>2019-05-12T09:23:11Z</time>
      </trkpt>
      <trkpt lat="39.1611980" lon="-1.5567960">
        <ele>572.8</ele>
        <time>2019-05-12T09:23:12Z</time>
      </trkpt>
      <trkpt lat="39.1611770" lon="-1.5568190">
        <ele>572.8</ele>
        <time>2019-05-12T09:23:13Z</time>
      </trkpt>
      <trkpt lat="39.1611530" lon="-1.5568450">
        <ele>572.8</ele>
        <time>2019-05-12T09:23:14Z</time>
      </trkpt>
      <trkpt lat="39.1611140" lon="-1.5568590">
        <ele>572.8</ele>
        <time>2019-05-12T09:23:15Z</time>
      </trkpt>
      <trkpt lat="39.1610830" lon="-1.5568730">
        <ele>573.0</ele>
        <time>2019-05-12T09:23:16Z</time>
      </trkpt>
      <trkpt lat="39.1610520" lon="-1.5568850">
        <ele>573.2</ele>
        <time>2019-05-12T09:23:17Z</time>
      </trkpt>
      <trkpt lat="39.1610220" lon="-1.5569010">
        <ele>573.6</ele>
        <time>2019-05-12T09:23:18Z</time>
      </trkpt>
      <trkpt lat="39.1609940" lon="-1.5569160">
        <ele>573.8</ele>
        <time>2019-05-12T09:23:19Z</time>
      </trkpt>
      <trkpt lat="39.1609650" lon="-1.5569290">
        <ele>574.0</ele>
        <time>2019-05-12T09:23:20Z</time>
      </trkpt>
      <trkpt lat="39.1609370" lon="-1.5569340">
        <ele>574.2</ele>
        <time>2019-05-12T09:23:21Z</time>
      </trkpt>
      <trkpt lat="39.1609090" lon="-1.5569370">
        <ele>574.4</ele>
        <time>2019-05-12T09:23:22Z</time>
      </trkpt>
      <trkpt lat="39.1608820" lon="-1.5569410">
        <ele>574.4</ele>
        <time>2019-05-12T09:23:23Z</time>
      </trkpt>
      <trkpt lat="39.1608560" lon="-1.5569520">
        <ele>574.6</ele>
        <time>2019-05-12T09:23:24Z</time>
      </trkpt>
      <trkpt lat="39.1608280" lon="-1.5569580">
        <ele>574.8</ele>
        <time>2019-05-12T09:23:25Z</time>
      </trkpt>
      <trkpt lat="39.1608020" lon="-1.5569640">
        <ele>575.0</ele>
        <time>2019-05-12T09:23:26Z</time>
      </trkpt>
      <trkpt lat="39.1607760" lon="-1.5569700">
        <ele>575.2</ele>
        <time>2019-05-12T09:23:27Z</time>
      </trkpt>
      <trkpt lat="39.1607500" lon="-1.5569770">
        <ele>575.4</ele>
        <time>2019-05-12T09:23:28Z</time>
      </trkpt>
      <trkpt lat="39.1607170" lon="-1.5569800">
        <ele>575.8</ele>
        <time>2019-05-12T09:23:29Z</time>
      </trkpt>
      <trkpt lat="39.1606830" lon="-1.5569880">
        <ele>575.8</ele>
        <time>2019-05-12T09:23:30Z</time>
      </trkpt>
      <trkpt lat="39.1606510" lon="-1.5570030">
        <ele>576.0</ele>
        <time>2019-05-12T09:23:31Z</time>
      </trkpt>
      <trkpt lat="39.1606190" lon="-1.5570190">
        <ele>576.0</ele>
        <time>2019-05-12T09:23:32Z</time>
      </trkpt>
      <trkpt lat="39.1605890" lon="-1.5570380">
        <ele>576.2</ele>
        <time>2019-05-12T09:23:33Z</time>
      </trkpt>
      <trkpt lat="39.1605630" lon="-1.5570590">
        <ele>576.4</ele>
        <time>2019-05-12T09:23:34Z</time>
      </trkpt>
      <trkpt lat="39.1605360" lon="-1.5570800">
        <ele>576.6</ele>
        <time>2019-05-12T09:23:35Z</time>
      </trkpt>
      <trkpt lat="39.1605040" lon="-1.5571040">
        <ele>576.8</ele>
        <time>2019-05-12T09:23:36Z</time>
      </trkpt>
      <trkpt lat="39.1604730" lon="-1.5571340">
        <ele>576.8</ele>
        <time>2019-05-12T09:23:37Z</time>
      </trkpt>
      <trkpt lat="39.1604420" lon="-1.5571690">
        <ele>577.2</ele>
        <time>2019-05-12T09:23:38Z</time>
      </trkpt>
      <trkpt lat="39.1604100" lon="-1.5572080">
        <ele>577.2</ele>
        <time>2019-05-12T09:23:39Z</time>
      </trkpt>
      <trkpt lat="39.1603760" lon="-1.5572470">
        <ele>577.2</ele>
        <time>2019-05-12T09:23:40Z</time>
      </trkpt>
      <trkpt lat="39.1603400" lon="-1.5572880">
        <ele>577.4</ele>
        <time>2019-05-12T09:23:41Z</time>
      </trkpt>
      <trkpt lat="39.1603070" lon="-1.5573260">
        <ele>577.4</ele>
        <time>2019-05-12T09:23:42Z</time>
      </trkpt>
      <trkpt lat="39.1602800" lon="-1.5573630">
        <ele>577.4</ele>
        <time>2019-05-12T09:23:43Z</time>
      </trkpt>
      <trkpt lat="39.1602440" lon="-1.5573860">
        <ele>577.4</ele>
        <time>2019-05-12T09:23:44Z</time>
      </trkpt>
      <trkpt lat="39.1602140" lon="-1.5574140">
        <ele>577.4</ele>
        <time>2019-05-12T09:23:45Z</time>
      </trkpt>
      <trkpt lat="39.1601920" lon="-1.5574380">
        <ele>577.4</ele>
        <time>2019-05-12T09:23:46Z</time>
      </trkpt>
      <trkpt lat="39.1601450" lon="-1.5574550">
        <ele>577.4</ele>
        <time>2019-05-12T09:23:47Z</time>
      </trkpt>
      <trkpt lat="39.1601170" lon="-1.5574850">
        <ele>577.6</ele>
        <time>2019-05-12T09:23:48Z</time>
      </trkpt>
      <trkpt lat="39.1600980" lon="-1.5575190">
        <ele>577.6</ele>
        <time>2019-05-12T09:23:49Z</time>
      </trkpt>
      <trkpt lat="39.1600780" lon="-1.5575560">
        <ele>577.6</ele>
        <time>2019-05-12T09:23:50Z</time>
      </trkpt>
      <trkpt lat="39.1600460" lon="-1.5575940">
        <ele>577.6</ele>
        <time>2019-05-12T09:23:51Z</time>
      </trkpt>
      <trkpt lat="39.1600200" lon="-1.5576390">
        <ele>577.6</ele>
        <time>2019-05-12T09:23:52Z</time>
      </trkpt>
      <trkpt lat="39.1599890" lon="-1.5576810">
        <ele>577.6</ele>
        <time>2019-05-12T09:23:53Z</time>
      </trkpt>
      <trkpt lat="39.1599600" lon="-1.5577220">
        <ele>577.6</ele>
        <time>2019-05-12T09:23:54Z</time>
      </trkpt>
      <trkpt lat="39.1599250" lon="-1.5577590">
        <ele>577.6</ele>
        <time>2019-05-12T09:23:55Z</time>
      </trkpt>
      <trkpt lat="39.1598920" lon="-1.5577980">
        <ele>577.6</ele>
        <time>2019-05-12T09:23:56Z</time>
      </trkpt>
      <trkpt lat="39.1598720" lon="-1.5578460">
        <ele>577.6</ele>
        <time>2019-05-12T09:23:57Z</time>
      </trkpt>
      <trkpt lat="39.1598630" lon="-1.5578950">
        <ele>577.6</ele>
        <time>2019-05-12T09:23:58Z</time>
      </trkpt>
      <trkpt lat="39.1598520" lon="-1.5579390">
        <ele>577.8</ele>
        <time>2019-05-12T09:23:59Z</time>
      </trkpt>
      <trkpt lat="39.1598410" lon="-1.5579810">
        <ele>577.8</ele>
        <time>2019-05-12T09:24:00Z</time>
      </trkpt>
      <trkpt lat="39.1598270" lon="-1.5580230">
        <ele>578.0</ele>
        <time>2019-05-12T09:24:01Z</time>
      </trkpt>
      <trkpt lat="39.1598070" lon="-1.5580540">
        <ele>578.2</ele>
        <time>2019-05-12T09:24:02Z</time>
      </trkpt>
      <trkpt lat="39.1597900" lon="-1.5580840">
        <ele>578.4</ele>
        <time>2019-05-12T09:24:03Z</time>
      </trkpt>
      <trkpt lat="39.1597780" lon="-1.5581080">
        <ele>578.6</ele>
        <time>2019-05-12T09:24:04Z</time>
      </trkpt>
      <trkpt lat="39.1597680" lon="-1.5581290">
        <ele>578.6</ele>
        <time>2019-05-12T09:24:05Z</time>
      </trkpt>
      <trkpt lat="39.1597540" lon="-1.5581490">
        <ele>578.8</ele>
        <time>2019-05-12T09:24:06Z</time>
      </trkpt>
      <trkpt lat="39.1597380" lon="-1.5581710">
        <ele>579.2</ele>
        <time>2019-05-12T09:24:07Z</time>
      </trkpt>
      <trkpt lat="39.1597280" lon="-1.5581930">
        <ele>579.4</ele>
        <time>2019-05-12T09:24:08Z</time>
      </trkpt>
      <trkpt lat="39.1597230" lon="-1.5582180">
        <ele>579.6</ele>
        <time>2019-05-12T09:24:09Z</time>
      </trkpt>
      <trkpt lat="39.1597150" lon="-1.5582440">
        <ele>580.2</ele>
        <time>2019-05-12T09:24:10Z</time>
      </trkpt>
      <trkpt lat="39.1597050" lon="-1.5582730">
        <ele>580.8</ele>
        <time>2019-05-12T09:24:11Z</time>
      </trkpt>
      <trkpt lat="39.1596910" lon="-1.5583010">
        <ele>581.2</ele>
        <time>2019-05-12T09:24:12Z</time>
      </trkpt>
      <trkpt lat="39.1596790" lon="-1.5583280">
        <ele>581.8</ele>
        <time>2019-05-12T09:24:13Z</time>
      </trkpt>
      <trkpt lat="39.1596700" lon="-1.5583540">
        <ele>582.2</ele>
        <time>2019-05-12T09:24:14Z</time>
      </trkpt>
      <trkpt lat="39.1596630" lon="-1.5583790">
        <ele>582.4</ele>
        <time>2019-05-12T09:24:15Z</time>
      </trkpt>
      <trkpt lat="39.1596640" lon="-1.5584140">
        <ele>582.8</ele>
        <time>2019-05-12T09:24:16Z</time>
      </trkpt>
      <trkpt lat="39.1596610" lon="-1.5584500">
        <ele>583.2</ele>
        <time>2019-05-12T09:24:17Z</time>
      </trkpt>
      <trkpt lat="39.1596490" lon="-1.5584780">
        <ele>583.4</ele>
        <time>2019-05-12T09:24:18Z</time>
      </trkpt>
      <trkpt lat="39.1596370" lon="-1.5585020">
        <ele>584.0</ele>
        <time>2019-05-12T09:24:19Z</time>
      </trkpt>
      <trkpt lat="39.1596260" lon="-1.5585270">
        <ele>584.4</ele>
        <time>2019-05-12T09:24:20Z</time>
      </trkpt>
      <trkpt lat="39.1596150" lon="-1.5585520">
        <ele>584.4</ele>
        <time>2019-05-12T09:24:21Z</time>
      </trkpt>
      <trkpt lat="39.1596050" lon="-1.5585770">
        <ele>584.6</ele>
        <time>2019-05-12T09:24:22Z</time>
      </trkpt>
      <trkpt lat="39.1595930" lon="-1.5586120">
        <ele>584.8</ele>
        <time>2019-05-12T09:24:23Z</time>
      </trkpt>
      <trkpt lat="39.1595790" lon="-1.5586540">
        <ele>585.0</ele>
        <time>2019-05-12T09:24:24Z</time>
      </trkpt>
      <trkpt lat="39.1595670" lon="-1.5586920">
        <ele>585.2</ele>
        <time>2019-05-12T09:24:25Z</time>
      </trkpt>
      <trkpt lat="39.1595550" lon="-1.5587260">
        <ele>585.2</ele>
        <time>2019-05-12T09:24:26Z</time>
      </trkpt>
      <trkpt lat="39.1595440" lon="-1.5587590">
        <ele>585.4</ele>
        <time>2019-05-12T09:24:27Z</time>
      </trkpt>
      <trkpt lat="39.1595300" lon="-1.5587960">
        <ele>585.6</ele>
        <time>2019-05-12T09:24:28Z</time>
      </trkpt>
      <trkpt lat="39.1595180" lon="-1.5588390">
        <ele>585.8</ele>
        <time>2019-05-12T09:24:29Z</time>
      </trkpt>
      <trkpt lat="39.1595040" lon="-1.5588880">
        <ele>585.8</ele>
        <time>2019-05-12T09:24:30Z</time>
      </trkpt>
      <trkpt lat="39.1594940" lon="-1.5589460">
        <ele>586.0</ele>
        <time>2019-05-12T09:24:31Z</time>
      </trkpt>
      <trkpt lat="39.1594850" lon="-1.5590070">
        <ele>586.2</ele>
        <time>2019-05-12T09:24:32Z</time>
      </trkpt>
      <trkpt lat="39.1594870" lon="-1.5590680">
        <ele>586.2</ele>
        <time>2019-05-12T09:24:33Z</time>
      </trkpt>
      <trkpt lat="39.1594890" lon="-1.5591260">
        <ele>586.2</ele>
        <time>2019-05-12T09:24:34Z</time>
      </trkpt>
      <trkpt lat="39.1594950" lon="-1.5591850">
        <ele>586.2</ele>
        <time>2019-05-12T09:24:35Z</time>
      </trkpt>
      <trkpt lat="39.1595010" lon="-1.5592460">
        <ele>586.2</ele>
        <time>2019-05-12T09:24:36Z</time>
      </trkpt>
      <trkpt lat="39.1595070" lon="-1.5593140">
        <ele>586.2</ele>
        <time>2019-05-12T09:24:37Z</time>
      </trkpt>
      <trkpt lat="39.1595120" lon="-1.5593810">
        <ele>586.2</ele>
        <time>2019-05-12T09:24:38Z</time>
      </trkpt>
      <trkpt lat="39.1595230" lon="-1.5594510">
        <ele>586.2</ele>
        <time>2019-05-12T09:24:39Z</time>
      </trkpt>
      <trkpt lat="39.1595310" lon="-1.5595190">
        <ele>586.2</ele>
        <time>2019-05-12T09:24:40Z</time>
      </trkpt>
      <trkpt lat="39.1595460" lon="-1.5595870">
        <ele>586.2</ele>
        <time>2019-05-12T09:24:41Z</time>
      </trkpt>
      <trkpt lat="39.1595630" lon="-1.5596440">
        <ele>586.2</ele>
        <time>2019-05-12T09:24:42Z</time>
      </trkpt>
      <trkpt lat="39.1595910" lon="-1.5596840">
        <ele>586.2</ele>
        <time>2019-05-12T09:24:43Z</time>
      </trkpt>
      <trkpt lat="39.1596060" lon="-1.5597060">
        <ele>586.2</ele>
        <time>2019-05-12T09:24:44Z</time>
      </trkpt>
      <trkpt lat="39.1596070" lon="-1.5597080">
        <ele>586.2</ele>
        <time>2019-05-12T09:24:45Z</time>
      </trkpt>
      <trkpt lat="39.1596030" lon="-1.5597090">
        <ele>586.2</ele>
        <time>2019-05-12T09:24:46Z</time>
      </trkpt>
      <trkpt lat="39.1596010" lon="-1.5597240">
        <ele>586.2</ele>
        <time>2019-05-12T09:24:47Z</time>
      </trkpt>
      <trkpt lat="39.1595990" lon="-1.5597420">
        <ele>586.0</ele>
        <time>2019-05-12T09:24:48Z</time>
      </trkpt>
      <trkpt lat="39.1596020" lon="-1.5597660">
        <ele>586.0</ele>
        <time>2019-05-12T09:24:49Z</time>
      </trkpt>
      <trkpt lat="39.1595980" lon="-1.5597900">
        <ele>585.8</ele>
        <time>2019-05-12T09:24:50Z</time>
      </trkpt>
      <trkpt lat="39.1596040" lon="-1.5598200">
        <ele>585.4</ele>
        <time>2019-05-12T09:24:51Z</time>
      </trkpt>
      <trkpt lat="39.1596170" lon="-1.5598730">
        <ele>585.0</ele>
        <time>2019-05-12T09:24:52Z</time>
      </trkpt>
      <trkpt lat="39.1596230" lon="-1.5599290">
        <ele>584.6</ele>
        <time>2019-05-12T09:24:53Z</time>
      </trkpt>
      <trkpt lat="39.1596400" lon="-1.5599880">
        <ele>584.4</ele>
        <time>2019-05-12T09:24:54Z</time>
      </trkpt>
      <trkpt lat="39.1596630" lon="-1.5600430">
        <ele>584.4</ele>
        <time>2019-05-12T09:24:55Z</time>
      </trkpt>
      <trkpt lat="39.1596860" lon="-1.5600950">
        <ele>584.2</ele>
        <time>2019-05-12T09:24:56Z</time>
      </trkpt>
      <trkpt lat="39.1597190" lon="-1.5601510">
        <ele>584.2</ele>
        <time>2019-05-12T09:24:57Z</time>
      </trkpt>
      <trkpt lat="39.1597420" lon="-1.5602070">
        <ele>584.0</ele>
        <time>2019-05-12T09:24:58Z</time>
      </trkpt>
      <trkpt lat="39.1597620" lon="-1.5602610">
        <ele>584.0</ele>
        <time>2019-05-12T09:24:59Z</time>
      </trkpt>
      <trkpt lat="39.1597730" lon="-1.5603070">
        <ele>584.0</ele>
        <time>2019-05-12T09:25:00Z</time>
      </trkpt>
      <trkpt lat="39.1597840" lon="-1.5603460">
        <ele>583.8</ele>
        <time>2019-05-12T09:25:01Z</time>
      </trkpt>
      <trkpt lat="39.1597920" lon="-1.5603920">
        <ele>583.6</ele>
        <time>2019-05-12T09:25:02Z</time>
      </trkpt>
      <trkpt lat="39.1597950" lon="-1.5604450">
        <ele>583.4</ele>
        <time>2019-05-12T09:25:03Z</time>
      </trkpt>
      <trkpt lat="39.1597990" lon="-1.5604960">
        <ele>583.2</ele>
        <time>2019-05-12T09:25:04Z</time>
      </trkpt>
      <trkpt lat="39.1598080" lon="-1.5605480">
        <ele>583.2</ele>
        <time>2019-05-12T09:25:05Z</time>
      </trkpt>
      <trkpt lat="39.1598200" lon="-1.5606010">
        <ele>583.0</ele>
        <time>2019-05-12T09:25:06Z</time>
      </trkpt>
      <trkpt lat="39.1598300" lon="-1.5606490">
        <ele>583.0</ele>
        <time>2019-05-12T09:25:07Z</time>
      </trkpt>
      <trkpt lat="39.1598380" lon="-1.5606950">
        <ele>583.0</ele>
        <time>2019-05-12T09:25:08Z</time>
      </trkpt>
      <trkpt lat="39.1598520" lon="-1.5607470">
        <ele>583.0</ele>
        <time>2019-05-12T09:25:09Z</time>
      </trkpt>
      <trkpt lat="39.1598830" lon="-1.5608010">
        <ele>583.0</ele>
        <time>2019-05-12T09:25:10Z</time>
      </trkpt>
      <trkpt lat="39.1599120" lon="-1.5608560">
        <ele>583.0</ele>
        <time>2019-05-12T09:25:11Z</time>
      </trkpt>
      <trkpt lat="39.1599330" lon="-1.5609010">
        <ele>582.8</ele>
        <time>2019-05-12T09:25:12Z</time>
      </trkpt>
      <trkpt lat="39.1599600" lon="-1.5609300">
        <ele>582.6</ele>
        <time>2019-05-12T09:25:13Z</time>
      </trkpt>
      <trkpt lat="39.1599900" lon="-1.5609670">
        <ele>582.4</ele>
        <time>2019-05-12T09:25:14Z</time>
      </trkpt>
      <trkpt lat="39.1600190" lon="-1.5610180">
        <ele>582.2</ele>
        <time>2019-05-12T09:25:15Z</time>
      </trkpt>
      <trkpt lat="39.1600410" lon="-1.5610710">
        <ele>582.0</ele>
        <time>2019-05-12T09:25:16Z</time>
      </trkpt>
      <trkpt lat="39.1600680" lon="-1.5611120">
        <ele>582.0</ele>
        <time>2019-05-12T09:25:17Z</time>
      </trkpt>
      <trkpt lat="39.1600980" lon="-1.5611480">
        <ele>581.8</ele>
        <time>2019-05-12T09:25:18Z</time>
      </trkpt>
      <trkpt lat="39.1601260" lon="-1.5611850">
        <ele>581.8</ele>
        <time>2019-05-12T09:25:19Z</time>
      </trkpt>
      <trkpt lat="39.1601620" lon="-1.5612160">
        <ele>581.8</ele>
        <time>2019-05-12T09:25:20Z</time>
      </trkpt>
      <trkpt lat="39.1601920" lon="-1.5612580">
        <ele>581.8</ele>
        <time>2019-05-12T09:25:21Z</time>
      </trkpt>
      <trkpt lat="39.1602170" lon="-1.5613060">
        <ele>581.2</ele>
        <time>2019-05-12T09:25:22Z</time>
      </trkpt>
      <trkpt lat="39.1602440" lon="-1.5613580">
        <ele>581.2</ele>
        <time>2019-05-12T09:25:23Z</time>
      </trkpt>
      <trkpt lat="39.1602680" lon="-1.5614090">
        <ele>581.0</ele>
        <time>2019-05-12T09:25:24Z</time>
      </trkpt>
      <trkpt lat="39.1602940" lon="-1.5614500">
        <ele>581.0</ele>
        <time>2019-05-12T09:25:25Z</time>
      </trkpt>
      <trkpt lat="39.1603290" lon="-1.5614810">
        <ele>581.0</ele>
        <time>2019-05-12T09:25:26Z</time>
      </trkpt>
      <trkpt lat="39.1603650" lon="-1.5615040">
        <ele>580.8</ele>
        <time>2019-05-12T09:25:27Z</time>
      </trkpt>
      <trkpt lat="39.1603950" lon="-1.5615360">
        <ele>580.8</ele>
        <time>2019-05-12T09:25:28Z</time>
      </trkpt>
      <trkpt lat="39.1604300" lon="-1.5615590">
        <ele>580.6</ele>
        <time>2019-05-12T09:25:29Z</time>
      </trkpt>
      <trkpt lat="39.1604710" lon="-1.5615700">
        <ele>580.6</ele>
        <time>2019-05-12T09:25:30Z</time>
      </trkpt>
      <trkpt lat="39.1605030" lon="-1.5615890">
        <ele>580.6</ele>
        <time>2019-05-12T09:25:31Z</time>
      </trkpt>
      <trkpt lat="39.1605230" lon="-1.5616190">
        <ele>580.4</ele>
        <time>2019-05-12T09:25:32Z</time>
      </trkpt>
      <trkpt lat="39.1605450" lon="-1.5616540">
        <ele>580.2</ele>
        <time>2019-05-12T09:25:33Z</time>
      </trkpt>
      <trkpt lat="39.1605750" lon="-1.5616900">
        <ele>579.6</ele>
        <time>2019-05-12T09:25:34Z</time>
      </trkpt>
      <trkpt lat="39.1606080" lon="-1.5617230">
        <ele>579.2</ele>
        <time>2019-05-12T09:25:35Z</time>
      </trkpt>
      <trkpt lat="39.1606400" lon="-1.5617580">
        <ele>578.6</ele>
        <time>2019-05-12T09:25:36Z</time>
      </trkpt>
      <trkpt lat="39.1606740" lon="-1.5618000">
        <ele>578.0</ele>
        <time>2019-05-12T09:25:37Z</time>
      </trkpt>
      <trkpt lat="39.1607080" lon="-1.5618440">
        <ele>577.4</ele>
        <time>2019-05-12T09:25:38Z</time>
      </trkpt>
      <trkpt lat="39.1607370" lon="-1.5618920">
        <ele>577.0</ele>
        <time>2019-05-12T09:25:39Z</time>
      </trkpt>
      <trkpt lat="39.1607580" lon="-1.5619410">
        <ele>576.8</ele>
        <time>2019-05-12T09:25:40Z</time>
      </trkpt>
      <trkpt lat="39.1607730" lon="-1.5619820">
        <ele>576.8</ele>
        <time>2019-05-12T09:25:41Z</time>
      </trkpt>
      <trkpt lat="39.1607870" lon="-1.5620320">
        <ele>576.8</ele>
        <time>2019-05-12T09:25:42Z</time>
      </trkpt>
      <trkpt lat="39.1607940" lon="-1.5620860">
        <ele>576.6</ele>
        <time>2019-05-12T09:25:43Z</time>
      </trkpt>
      <trkpt lat="39.1608050" lon="-1.5621410">
        <ele>576.6</ele>
        <time>2019-05-12T09:25:44Z</time>
      </trkpt>
      <trkpt lat="39.1608230" lon="-1.5621930">
        <ele>576.6</ele>
        <time>2019-05-12T09:25:45Z</time>
      </trkpt>
      <trkpt lat="39.1608400" lon="-1.5622510">
        <ele>576.6</ele>
        <time>2019-05-12T09:25:46Z</time>
      </trkpt>
      <trkpt lat="39.1608600" lon="-1.5623100">
        <ele>576.4</ele>
        <time>2019-05-12T09:25:47Z</time>
      </trkpt>
      <trkpt lat="39.1608700" lon="-1.5623690">
        <ele>576.4</ele>
        <time>2019-05-12T09:25:48Z</time>
      </trkpt>
      <trkpt lat="39.1608880" lon="-1.5624200">
        <ele>576.4</ele>
        <time>2019-05-12T09:25:49Z</time>
      </trkpt>
      <trkpt lat="39.1609090" lon="-1.5624610">
        <ele>576.4</ele>
        <time>2019-05-12T09:25:50Z</time>
      </trkpt>
      <trkpt lat="39.1609270" lon="-1.5625050">
        <ele>576.4</ele>
        <time>2019-05-12T09:25:51Z</time>
      </trkpt>
      <trkpt lat="39.1609370" lon="-1.5625550">
        <ele>576.4</ele>
        <time>2019-05-12T09:25:52Z</time>
      </trkpt>
      <trkpt lat="39.1609410" lon="-1.5625980">
        <ele>576.4</ele>
        <time>2019-05-12T09:25:53Z</time>
      </trkpt>
      <trkpt lat="39.1609450" lon="-1.5626350">
        <ele>576.4</ele>
        <time>2019-05-12T09:25:54Z</time>
      </trkpt>
      <trkpt lat="39.1609510" lon="-1.5626620">
        <ele>576.4</ele>
        <time>2019-05-12T09:25:55Z</time>
      </trkpt>
      <trkpt lat="39.1609640" lon="-1.5626980">
        <ele>576.6</ele>
        <time>2019-05-12T09:25:56Z</time>
      </trkpt>
      <trkpt lat="39.1609850" lon="-1.5627360">
        <ele>577.0</ele>
        <time>2019-05-12T09:25:57Z</time>
      </trkpt>
      <trkpt lat="39.1610100" lon="-1.5627690">
        <ele>577.2</ele>
        <time>2019-05-12T09:25:58Z</time>
      </trkpt>
      <trkpt lat="39.1610350" lon="-1.5628070">
        <ele>577.4</ele>
        <time>2019-05-12T09:25:59Z</time>
      </trkpt>
      <trkpt lat="39.1610520" lon="-1.5628500">
        <ele>577.4</ele>
        <time>2019-05-12T09:26:00Z</time>
      </trkpt>
      <trkpt lat="39.1610600" lon="-1.5629000">
        <ele>577.4</ele>
        <time>2019-05-12T09:26:01Z</time>
      </trkpt>
      <trkpt lat="39.1610500" lon="-1.5629440">
        <ele>577.4</ele>
        <time>2019-05-12T09:26:02Z</time>
      </trkpt>
      <trkpt lat="39.1610490" lon="-1.5629820">
        <ele>577.4</ele>
        <time>2019-05-12T09:26:03Z</time>
      </trkpt>
      <trkpt lat="39.1610520" lon="-1.5630140">
        <ele>577.4</ele>
        <time>2019-05-12T09:26:04Z</time>
      </trkpt>
      <trkpt lat="39.1610540" lon="-1.5630440">
        <ele>577.4</ele>
        <time>2019-05-12T09:26:05Z</time>
      </trkpt>
      <trkpt lat="39.1610590" lon="-1.5630800">
        <ele>577.4</ele>
        <time>2019-05-12T09:26:06Z</time>
      </trkpt>
      <trkpt lat="39.1610660" lon="-1.5631160">
        <ele>577.6</ele>
        <time>2019-05-12T09:26:07Z</time>
      </trkpt>
      <trkpt lat="39.1610770" lon="-1.5631530">
        <ele>577.6</ele>
        <time>2019-05-12T09:26:08Z</time>
      </trkpt>
      <trkpt lat="39.1610870" lon="-1.5631970">
        <ele>577.8</ele>
        <time>2019-05-12T09:26:09Z</time>
      </trkpt>
      <trkpt lat="39.1610980" lon="-1.5632440">
        <ele>578.0</ele>
        <time>2019-05-12T09:26:10Z</time>
      </trkpt>
      <trkpt lat="39.1611140" lon="-1.5632970">
        <ele>578.0</ele>
        <time>2019-05-12T09:26:11Z</time>
      </trkpt>
      <trkpt lat="39.1611240" lon="-1.5633530">
        <ele>578.0</ele>
        <time>2019-05-12T09:26:12Z</time>
      </trkpt>
      <trkpt lat="39.1611320" lon="-1.5634130">
        <ele>578.0</ele>
        <time>2019-05-12T09:26:13Z</time>
      </trkpt>
      <trkpt lat="39.1611310" lon="-1.5634650">
        <ele>578.2</ele>
        <time>2019-05-12T09:26:14Z</time>
      </trkpt>
      <trkpt lat="39.1611280" lon="-1.5635090">
        <ele>578.2</ele>
        <time>2019-05-12T09:26:15Z</time>
      </trkpt>
      <trkpt lat="39.1611240" lon="-1.5635490">
        <ele>578.2</ele>
        <time>2019-05-12T09:26:16Z</time>
      </trkpt>
      <trkpt lat="39.1611210" lon="-1.5635840">
        <ele>578.2</ele>
        <time>2019-05-12T09:26:17Z</time>
      </trkpt>
      <trkpt lat="39.1611160" lon="-1.5636190">
        <ele>578.2</ele>
        <time>2019-05-12T09:26:18Z</time>
      </trkpt>
      <trkpt lat="39.1611110" lon="-1.5636520">
        <ele>578.2</ele>
        <time>2019-05-12T09:26:19Z</time>
      </trkpt>
      <trkpt lat="39.1611130" lon="-1.5636940">
        <ele>578.2</ele>
        <time>2019-05-12T09:26:20Z</time>
      </trkpt>
      <trkpt lat="39.1611160" lon="-1.5637400">
        <ele>578.4</ele>
        <time>2019-05-12T09:26:21Z</time>
      </trkpt>
      <trkpt lat="39.1611120" lon="-1.5637920">
        <ele>578.4</ele>
        <time>2019-05-12T09:26:22Z</time>
      </trkpt>
      <trkpt lat="39.1611070" lon="-1.5638450">
        <ele>578.4</ele>
        <time>2019-05-12T09:26:23Z</time>
      </trkpt>
      <trkpt lat="39.1611030" lon="-1.5638950">
        <ele>578.6</ele>
        <time>2019-05-12T09:26:24Z</time>
      </trkpt>
      <trkpt lat="39.1610980" lon="-1.5639410">
        <ele>578.8</ele>
        <time>2019-05-12T09:26:25Z</time>
      </trkpt>
      <trkpt lat="39.1610940" lon="-1.5639880">
        <ele>578.8</ele>
        <time>2019-05-12T09:26:26Z</time>
      </trkpt>
      <trkpt lat="39.1610890" lon="-1.5640320">
        <ele>578.8</ele>
        <time>2019-05-12T09:26:27Z</time>
      </trkpt>
      <trkpt lat="39.1610780" lon="-1.5640710">
        <ele>579.0</ele>
        <time>2019-05-12T09:26:28Z</time>
      </trkpt>
      <trkpt lat="39.1610670" lon="-1.5641030">
        <ele>579.0</ele>
        <time>2019-05-12T09:26:29Z</time>
      </trkpt>
      <trkpt lat="39.1610560" lon="-1.5641310">
        <ele>579.2</ele>
        <time>2019-05-12T09:26:30Z</time>
      </trkpt>
      <trkpt lat="39.1610490" lon="-1.5641570">
        <ele>579.2</ele>
        <time>2019-05-12T09:26:31Z</time>
      </trkpt>
      <trkpt lat="39.1610480" lon="-1.5641900">
        <ele>579.2</ele>
        <time>2019-05-12T09:26:32Z</time>
      </trkpt>
      <trkpt lat="39.1610410" lon="-1.5642290">
        <ele>579.4</ele>
        <time>2019-05-12T09:26:33Z</time>
      </trkpt>
      <trkpt lat="39.1610340" lon="-1.5642710">
        <ele>579.4</ele>
        <time>2019-05-12T09:26:34Z</time>
      </trkpt>
      <trkpt lat="39.1610240" lon="-1.5643170">
        <ele>579.4</ele>
        <time>2019-05-12T09:26:35Z</time>
      </trkpt>
      <trkpt lat="39.1610100" lon="-1.5643590">
        <ele>579.4</ele>
        <time>2019-05-12T09:26:36Z</time>
      </trkpt>
      <trkpt lat="39.1610030" lon="-1.5643880">
        <ele>579.4</ele>
        <time>2019-05-12T09:26:37Z</time>
      </trkpt>
      <trkpt lat="39.1610030" lon="-1.5644110">
        <ele>579.2</ele>
        <time>2019-05-12T09:26:38Z</time>
      </trkpt>
      <trkpt lat="39.1610030" lon="-1.5644320">
        <ele>579.2</ele>
        <time>2019-05-12T09:26:39Z</time>
      </trkpt>
      <trkpt lat="39.1609960" lon="-1.5644430">
        <ele>579.0</ele>
        <time>2019-05-12T09:26:40Z</time>
      </trkpt>
      <trkpt lat="39.1609860" lon="-1.5644520">
        <ele>579.0</ele>
        <time>2019-05-12T09:26:41Z</time>
      </trkpt>
      <trkpt lat="39.1609750" lon="-1.5644580">
        <ele>579.0</ele>
        <time>2019-05-12T09:26:42Z</time>
      </trkpt>
      <trkpt lat="39.1609610" lon="-1.5644590">
        <ele>579.0</ele>
        <time>2019-05-12T09:26:43Z</time>
      </trkpt>
      <trkpt lat="39.1609550" lon="-1.5644590">
        <ele>578.6</ele>
        <time>2019-05-12T09:26:44Z</time>
      </trkpt>
      <trkpt lat="39.1609520" lon="-1.5644610">
        <ele>578.2</ele>
        <time>2019-05-12T09:26:45Z</time>
      </trkpt>
      <trkpt lat="39.1609530" lon="-1.5644620">
        <ele>577.8</ele>
        <time>2019-05-12T09:26:46Z</time>
      </trkpt>
      <trkpt lat="39.1609530" lon="-1.5644620">
        <ele>577.4</ele>
        <time>2019-05-12T09:26:47Z</time>
      </trkpt>
      <trkpt lat="39.1609530" lon="-1.5644620">
        <ele>577.2</ele>
        <time>2019-05-12T09:26:48Z</time>
      </trkpt>
      <trkpt lat="39.1609530" lon="-1.5644620">
        <ele>577.0</ele>
        <time>2019-05-12T09:26:49Z</time>
      </trkpt>
      <trkpt lat="39.1609530" lon="-1.5644620">
        <ele>576.8</ele>
        <time>2019-05-12T09:26:50Z</time>
      </trkpt>
      <trkpt lat="39.1609520" lon="-1.5644800">
        <ele>576.8</ele>
        <time>2019-05-12T09:26:51Z</time>
      </trkpt>
      <trkpt lat="39.1609490" lon="-1.5645100">
        <ele>576.6</ele>
        <time>2019-05-12T09:26:52Z</time>
      </trkpt>
      <trkpt lat="39.1609410" lon="-1.5645380">
        <ele>576.6</ele>
        <time>2019-05-12T09:26:53Z</time>
      </trkpt>
      <trkpt lat="39.1609350" lon="-1.5645580">
        <ele>576.6</ele>
        <time>2019-05-12T09:26:54Z</time>
      </trkpt>
      <trkpt lat="39.1609290" lon="-1.5645720">
        <ele>576.6</ele>
        <time>2019-05-12T09:26:55Z</time>
      </trkpt>
      <trkpt lat="39.1609210" lon="-1.5645840">
        <ele>576.6</ele>
        <time>2019-05-12T09:26:56Z</time>
      </trkpt>
      <trkpt lat="39.1609120" lon="-1.5645970">
        <ele>576.6</ele>
        <time>2019-05-12T09:26:57Z</time>
      </trkpt>
      <trkpt lat="39.1609030" lon="-1.5646120">
        <ele>576.6</ele>
        <time>2019-05-12T09:26:58Z</time>
      </trkpt>
      <trkpt lat="39.1608950" lon="-1.5646270">
        <ele>576.6</ele>
        <time>2019-05-12T09:26:59Z</time>
      </trkpt>
      <trkpt lat="39.1608850" lon="-1.5646450">
        <ele>576.6</ele>
        <time>2019-05-12T09:27:00Z</time>
      </trkpt>
      <trkpt lat="39.1608740" lon="-1.5646640">
        <ele>576.6</ele>
        <time>2019-05-12T09:27:01Z</time>
      </trkpt>
      <trkpt lat="39.1608660" lon="-1.5646810">
        <ele>576.6</ele>
        <time>2019-05-12T09:27:02Z</time>
      </trkpt>
      <trkpt lat="39.1608640" lon="-1.5647040">
        <ele>576.6</ele>
        <time>2019-05-12T09:27:03Z</time>
      </trkpt>
      <trkpt lat="39.1608620" lon="-1.5647360">
        <ele>576.6</ele>
        <time>2019-05-12T09:27:04Z</time>
      </trkpt>
      <trkpt lat="39.1608470" lon="-1.5647750">
        <ele>576.8</ele>
        <time>2019-05-12T09:27:05Z</time>
      </trkpt>
      <trkpt lat="39.1608330" lon="-1.5648080">
        <ele>577.0</ele>
        <time>2019-05-12T09:27:06Z</time>
      </trkpt>
      <trkpt lat="39.1608120" lon="-1.5648240">
        <ele>577.2</ele>
        <time>2019-05-12T09:27:07Z</time>
      </trkpt>
      <trkpt lat="39.1607960" lon="-1.5648390">
        <ele>577.8</ele>
        <time>2019-05-12T09:27:08Z</time>
      </trkpt>
      <trkpt lat="39.1607860" lon="-1.5648580">
        <ele>578.0</ele>
        <time>2019-05-12T09:27:09Z</time>
      </trkpt>
      <trkpt lat="39.1607840" lon="-1.5648970">
        <ele>578.4</ele>
        <time>2019-05-12T09:27:10Z</time>
      </trkpt>
      <trkpt lat="39.1607810" lon="-1.5649520">
        <ele>578.4</ele>
        <time>2019-05-12T09:27:11Z</time>
      </trkpt>
      <trkpt lat="39.1607730" lon="-1.5650120">
        <ele>578.6</ele>
        <time>2019-05-12T09:27:12Z</time>
      </trkpt>
      <trkpt lat="39.1607490" lon="-1.5650600">
        <ele>578.6</ele>
        <time>2019-05-12T09:27:13Z</time>
      </trkpt>
      <trkpt lat="39.1607200" lon="-1.5650940">
        <ele>578.6</ele>
        <time>2019-05-12T09:27:14Z</time>
      </trkpt>
      <trkpt lat="39.1606940" lon="-1.5651210">
        <ele>578.6</ele>
        <time>2019-05-12T09:27:15Z</time>
      </trkpt>
      <trkpt lat="39.1606690" lon="-1.5651490">
        <ele>578.6</ele>
        <time>2019-05-12T09:27:16Z</time>
      </trkpt>
      <trkpt lat="39.1606460" lon="-1.5651810">
        <ele>578.6</ele>
        <time>2019-05-12T09:27:17Z</time>
      </trkpt>
      <trkpt lat="39.1606260" lon="-1.5652140">
        <ele>578.6</ele>
        <time>2019-05-12T09:27:18Z</time>
      </trkpt>
      <trkpt lat="39.1606080" lon="-1.5652450">
        <ele>578.6</ele>
        <time>2019-05-12T09:27:19Z</time>
      </trkpt>
      <trkpt lat="39.1606000" lon="-1.5652810">
        <ele>578.4</ele>
        <time>2019-05-12T09:27:20Z</time>
      </trkpt>
      <trkpt lat="39.1605900" lon="-1.5653150">
        <ele>578.2</ele>
        <time>2019-05-12T09:27:21Z</time>
      </trkpt>
      <trkpt lat="39.1605770" lon="-1.5653440">
        <ele>578.2</ele>
        <time>2019-05-12T09:27:22Z</time>
      </trkpt>
      <trkpt lat="39.1605690" lon="-1.5653760">
        <ele>578.2</ele>
        <time>2019-05-12T09:27:23Z</time>
      </trkpt>
      <trkpt lat="39.1605490" lon="-1.5654020">
        <ele>578.0</ele>
        <time>2019-05-12T09:27:24Z</time>
      </trkpt>
      <trkpt lat="39.1605240" lon="-1.5654270">
        <ele>578.0</ele>
        <time>2019-05-12T09:27:25Z</time>
      </trkpt>
      <trkpt lat="39.1605000" lon="-1.5654530">
        <ele>577.8</ele>
        <time>2019-05-12T09:27:26Z</time>
      </trkpt>
      <trkpt lat="39.1604680" lon="-1.5654670">
        <ele>577.8</ele>
        <time>2019-05-12T09:27:27Z</time>
      </trkpt>
      <trkpt lat="39.1604410" lon="-1.5654820">
        <ele>577.6</ele>
        <time>2019-05-12T09:27:28Z</time>
      </trkpt>
      <trkpt lat="39.1604150" lon="-1.5654950">
        <ele>577.6</ele>
        <time>2019-05-12T09:27:29Z</time>
      </trkpt>
      <trkpt lat="39.1603920" lon="-1.5655150">
        <ele>577.6</ele>
        <time>2019-05-12T09:27:30Z</time>
      </trkpt>
      <trkpt lat="39.1603660" lon="-1.5655380">
        <ele>577.6</ele>
        <time>2019-05-12T09:27:31Z</time>
      </trkpt>
      <trkpt lat="39.1603440" lon="-1.5655590">
        <ele>577.6</ele>
        <time>2019-05-12T09:27:32Z</time>
      </trkpt>
      <trkpt lat="39.1603070" lon="-1.5655820">
        <ele>577.8</ele>
        <time>2019-05-12T09:27:33Z</time>
      </trkpt>
      <trkpt lat="39.1602760" lon="-1.5656120">
        <ele>577.8</ele>
        <time>2019-05-12T09:27:34Z</time>
      </trkpt>
      <trkpt lat="39.1602340" lon="-1.5656330">
        <ele>577.8</ele>
        <time>2019-05-12T09:27:35Z</time>
      </trkpt>
      <trkpt lat="39.1601820" lon="-1.5656450">
        <ele>577.8</ele>
        <time>2019-05-12T09:27:36Z</time>
      </trkpt>
      <trkpt lat="39.1601340" lon="-1.5656550">
        <ele>577.8</ele>
        <time>2019-05-12T09:27:37Z</time>
      </trkpt>
      <trkpt lat="39.1600830" lon="-1.5656680">
        <ele>577.8</ele>
        <time>2019-05-12T09:27:38Z</time>
      </trkpt>
      <trkpt lat="39.1600340" lon="-1.5656920">
        <ele>578.0</ele>
        <time>2019-05-12T09:27:39Z</time>
      </trkpt>
      <trkpt lat="39.1599980" lon="-1.5657210">
        <ele>578.0</ele>
        <time>2019-05-12T09:27:40Z</time>
      </trkpt>
      <trkpt lat="39.1599560" lon="-1.5657450">
        <ele>577.8</ele>
        <time>2019-05-12T09:27:41Z</time>
      </trkpt>
      <trkpt lat="39.1599180" lon="-1.5657720">
        <ele>578.0</ele>
        <time>2019-05-12T09:27:42Z</time>
      </trkpt>
      <trkpt lat="39.1598780" lon="-1.5658010">
        <ele>578.0</ele>
        <time>2019-05-12T09:27:43Z</time>
      </trkpt>
      <trkpt lat="39.1598310" lon="-1.5658360">
        <ele>578.0</ele>
        <time>2019-05-12T09:27:44Z</time>
      </trkpt>
      <trkpt lat="39.1597850" lon="-1.5658720">
        <ele>578.0</ele>
        <time>2019-05-12T09:27:45Z</time>
      </trkpt>
      <trkpt lat="39.1597400" lon="-1.5659110">
        <ele>578.0</ele>
        <time>2019-05-12T09:27:46Z</time>
      </trkpt>
      <trkpt lat="39.1596950" lon="-1.5659420">
        <ele>578.0</ele>
        <time>2019-05-12T09:27:47Z</time>
      </trkpt>
      <trkpt lat="39.1596550" lon="-1.5659670">
        <ele>578.0</ele>
        <time>2019-05-12T09:27:48Z</time>
      </trkpt>
      <trkpt lat="39.1596060" lon="-1.5659750">
        <ele>578.0</ele>
        <time>2019-05-12T09:27:49Z</time>
      </trkpt>
      <trkpt lat="39.1595590" lon="-1.5659790">
        <ele>578.0</ele>
        <time>2019-05-12T09:27:50Z</time>
      </trkpt>
      <trkpt lat="39.1595140" lon="-1.5659830">
        <ele>578.2</ele>
        <time>2019-05-12T09:27:51Z</time>
      </trkpt>
      <trkpt lat="39.1594720" lon="-1.5659880">
        <ele>578.2</ele>
        <time>2019-05-12T09:27:52Z</time>
      </trkpt>
      <trkpt lat="39.1594350" lon="-1.5659970">
        <ele>578.2</ele>
        <time>2019-05-12T09:27:53Z</time>
      </trkpt>
      <trkpt lat="39.1594000" lon="-1.5660090">
        <ele>578.2</ele>
        <time>2019-05-12T09:27:54Z</time>
      </trkpt>
      <trkpt lat="39.1593680" lon="-1.5660220">
        <ele>578.2</ele>
        <time>2019-05-12T09:27:55Z</time>
      </trkpt>
      <trkpt lat="39.1593360" lon="-1.5660360">
        <ele>578.2</ele>
        <time>2019-05-12T09:27:56Z</time>
      </trkpt>
      <trkpt lat="39.1593070" lon="-1.5660500">
        <ele>578.2</ele>
        <time>2019-05-12T09:27:57Z</time>
      </trkpt>
      <trkpt lat="39.1592790" lon="-1.5660650">
        <ele>578.4</ele>
        <time>2019-05-12T09:27:58Z</time>
      </trkpt>
      <trkpt lat="39.1592500" lon="-1.5660800">
        <ele>578.4</ele>
        <time>2019-05-12T09:27:59Z</time>
      </trkpt>
      <trkpt lat="39.1592230" lon="-1.5660940">
        <ele>578.8</ele>
        <time>2019-05-12T09:28:00Z</time>
      </trkpt>
      <trkpt lat="39.1591970" lon="-1.5661050">
        <ele>579.2</ele>
        <time>2019-05-12T09:28:01Z</time>
      </trkpt>
      <trkpt lat="39.1591720" lon="-1.5661090">
        <ele>579.6</ele>
        <time>2019-05-12T09:28:02Z</time>
      </trkpt>
      <trkpt lat="39.1591440" lon="-1.5661170">
        <ele>579.8</ele>
        <time>2019-05-12T09:28:03Z</time>
      </trkpt>
      <trkpt lat="39.1591190" lon="-1.5661280">
        <ele>580.2</ele>
        <time>2019-05-12T09:28:04Z</time>
      </trkpt>
      <trkpt lat="39.1590880" lon="-1.5661420">
        <ele>580.8</ele>
        <time>2019-05-12T09:28:05Z</time>
      </trkpt>
      <trkpt lat="39.1590520" lon="-1.5661560">
        <ele>581.2</ele>
        <time>2019-05-12T09:28:06Z</time>
      </trkpt>
      <trkpt lat="39.1590110" lon="-1.5661630">
        <ele>581.4</ele>
        <time>2019-05-12T09:28:07Z</time>
      </trkpt>
      <trkpt lat="39.1589730" lon="-1.5661520">
        <ele>581.6</ele>
        <time>2019-05-12T09:28:08Z</time>
      </trkpt>
      <trkpt lat="39.1589310" lon="-1.5661260">
        <ele>581.6</ele>
        <time>2019-05-12T09:28:09Z</time>
      </trkpt>
      <trkpt lat="39.1588840" lon="-1.5661020">
        <ele>581.6</ele>
        <time>2019-05-12T09:28:10Z</time>
      </trkpt>
      <trkpt lat="39.1588410" lon="-1.5660910">
        <ele>581.6</ele>
        <time>2019-05-12T09:28:11Z</time>
      </trkpt>
      <trkpt lat="39.1588070" lon="-1.5661150">
        <ele>581.6</ele>
        <time>2019-05-12T09:28:12Z</time>
      </trkpt>
      <trkpt lat="39.1587850" lon="-1.5661500">
        <ele>581.6</ele>
        <time>2019-05-12T09:28:13Z</time>
      </trkpt>
      <trkpt lat="39.1587600" lon="-1.5661860">
        <ele>581.6</ele>
        <time>2019-05-12T09:28:14Z</time>
      </trkpt>
      <trkpt lat="39.1587420" lon="-1.5662320">
        <ele>581.6</ele>
        <time>2019-05-12T09:28:15Z</time>
      </trkpt>
      <trkpt lat="39.1587320" lon="-1.5662790">
        <ele>581.6</ele>
        <time>2019-05-12T09:28:16Z</time>
      </trkpt>
      <trkpt lat="39.1587280" lon="-1.5663280">
        <ele>581.8</ele>
        <time>2019-05-12T09:28:17Z</time>
      </trkpt>
      <trkpt lat="39.1587200" lon="-1.5663710">
        <ele>581.8</ele>
        <time>2019-05-12T09:28:18Z</time>
      </trkpt>
      <trkpt lat="39.1587030" lon="-1.5664220">
        <ele>582.0</ele>
        <time>2019-05-12T09:28:19Z</time>
      </trkpt>
      <trkpt lat="39.1586750" lon="-1.5664680">
        <ele>582.0</ele>
        <time>2019-05-12T09:28:20Z</time>
      </trkpt>
      <trkpt lat="39.1586420" lon="-1.5665120">
        <ele>582.0</ele>
        <time>2019-05-12T09:28:21Z</time>
      </trkpt>
      <trkpt lat="39.1586060" lon="-1.5665540">
        <ele>582.0</ele>
        <time>2019-05-12T09:28:22Z</time>
      </trkpt>
      <trkpt lat="39.1585720" lon="-1.5665980">
        <ele>582.0</ele>
        <time>2019-05-12T09:28:23Z</time>
      </trkpt>
      <trkpt lat="39.1585340" lon="-1.5666380">
        <ele>582.0</ele>
        <time>2019-05-12T09:28:24Z</time>
      </trkpt>
      <trkpt lat="39.1584940" lon="-1.5666790">
        <ele>582.0</ele>
        <time>2019-05-12T09:28:25Z</time>
      </trkpt>
      <trkpt lat="39.1584580" lon="-1.5667260">
        <ele>582.0</ele>
        <time>2019-05-12T09:28:26Z</time>
      </trkpt>
      <trkpt lat="39.1584200" lon="-1.5667740">
        <ele>582.2</ele>
        <time>2019-05-12T09:28:27Z</time>
      </trkpt>
      <trkpt lat="39.1583870" lon="-1.5668250">
        <ele>582.2</ele>
        <time>2019-05-12T09:28:28Z</time>
      </trkpt>
      <trkpt lat="39.1583550" lon="-1.5668840">
        <ele>582.2</ele>
        <time>2019-05-12T09:28:29Z</time>
      </trkpt>
      <trkpt lat="39.1583240" lon="-1.5669470">
        <ele>582.2</ele>
        <time>2019-05-12T09:28:30Z</time>
      </trkpt>
      <trkpt lat="39.1582940" lon="-1.5670120">
        <ele>582.2</ele>
        <time>2019-05-12T09:28:31Z</time>
      </trkpt>
      <trkpt lat="39.1582670" lon="-1.5670800">
        <ele>582.2</ele>
        <time>2019-05-12T09:28:32Z</time>
      </trkpt>
      <trkpt lat="39.1582420" lon="-1.5671500">
        <ele>582.2</ele>
        <time>2019-05-12T09:28:33Z</time>
      </trkpt>
      <trkpt lat="39.1582250" lon="-1.5672240">
        <ele>582.2</ele>
        <time>2019-05-12T09:28:34Z</time>
      </trkpt>
      <trkpt lat="39.1582150" lon="-1.5673000">
        <ele>582.2</ele>
        <time>2019-05-12T09:28:35Z</time>
      </trkpt>
      <trkpt lat="39.1582110" lon="-1.5673790">
        <ele>582.2</ele>
        <time>2019-05-12T09:28:36Z</time>
      </trkpt>
      <trkpt lat="39.1582080" lon="-1.5674640">
        <ele>582.0</ele>
        <time>2019-05-12T09:28:37Z</time>
      </trkpt>
      <trkpt lat="39.1582050" lon="-1.5675580">
        <ele>582.0</ele>
        <time>2019-05-12T09:28:38Z</time>
      </trkpt>
      <trkpt lat="39.1582060" lon="-1.5676590">
        <ele>582.0</ele>
        <time>2019-05-12T09:28:39Z</time>
      </trkpt>
      <trkpt lat="39.1582080" lon="-1.5677600">
        <ele>582.0</ele>
        <time>2019-05-12T09:28:40Z</time>
      </trkpt>
      <trkpt lat="39.1581980" lon="-1.5678560">
        <ele>582.0</ele>
        <time>2019-05-12T09:28:41Z</time>
      </trkpt>
      <trkpt lat="39.1581760" lon="-1.5679350">
        <ele>581.6</ele>
        <time>2019-05-12T09:28:42Z</time>
      </trkpt>
      <trkpt lat="39.1581520" lon="-1.5680060">
        <ele>581.6</ele>
        <time>2019-05-12T09:28:43Z</time>
      </trkpt>
      <trkpt lat="39.1581340" lon="-1.5680810">
        <ele>581.2</ele>
        <time>2019-05-12T09:28:44Z</time>
      </trkpt>
      <trkpt lat="39.1581190" lon="-1.5681590">
        <ele>581.0</ele>
        <time>2019-05-12T09:28:45Z</time>
      </trkpt>
      <trkpt lat="39.1581020" lon="-1.5682360">
        <ele>580.4</ele>
        <time>2019-05-12T09:28:46Z</time>
      </trkpt>
      <trkpt lat="39.1580760" lon="-1.5683060">
        <ele>580.2</ele>
        <time>2019-05-12T09:28:47Z</time>
      </trkpt>
      <trkpt lat="39.1580570" lon="-1.5683780">
        <ele>579.8</ele>
        <time>2019-05-12T09:28:48Z</time>
      </trkpt>
      <trkpt lat="39.1580440" lon="-1.5684490">
        <ele>579.4</ele>
        <time>2019-05-12T09:28:49Z</time>
      </trkpt>
      <trkpt lat="39.1580290" lon="-1.5685220">
        <ele>579.2</ele>
        <time>2019-05-12T09:28:50Z</time>
      </trkpt>
      <trkpt lat="39.1580140" lon="-1.5686000">
        <ele>579.0</ele>
        <time>2019-05-12T09:28:51Z</time>
      </trkpt>
      <trkpt lat="39.1580020" lon="-1.5686840">
        <ele>579.0</ele>
        <time>2019-05-12T09:28:52Z</time>
      </trkpt>
      <trkpt lat="39.1579880" lon="-1.5687680">
        <ele>579.0</ele>
        <time>2019-05-12T09:28:53Z</time>
      </trkpt>
      <trkpt lat="39.1579620" lon="-1.5688460">
        <ele>578.8</ele>
        <time>2019-05-12T09:28:54Z</time>
      </trkpt>
      <trkpt lat="39.1579380" lon="-1.5689250">
        <ele>578.8</ele>
        <time>2019-05-12T09:28:55Z</time>
      </trkpt>
      <trkpt lat="39.1579260" lon="-1.5690050">
        <ele>578.8</ele>
        <time>2019-05-12T09:28:56Z</time>
      </trkpt>
      <trkpt lat="39.1579150" lon="-1.5690870">
        <ele>578.8</ele>
        <time>2019-05-12T09:28:57Z</time>
      </trkpt>
      <trkpt lat="39.1578970" lon="-1.5691660">
        <ele>578.8</ele>
        <time>2019-05-12T09:28:58Z</time>
      </trkpt>
      <trkpt lat="39.1578780" lon="-1.5692440">
        <ele>578.8</ele>
        <time>2019-05-12T09:28:59Z</time>
      </trkpt>
      <trkpt lat="39.1578540" lon="-1.5693190">
        <ele>578.8</ele>
        <time>2019-05-12T09:29:00Z</time>
      </trkpt>
      <trkpt lat="39.1578340" lon="-1.5693930">
        <ele>579.0</ele>
        <time>2019-05-12T09:29:01Z</time>
      </trkpt>
      <trkpt lat="39.1578120" lon="-1.5694630">
        <ele>579.0</ele>
        <time>2019-05-12T09:29:02Z</time>
      </trkpt>
      <trkpt lat="39.1577870" lon="-1.5695280">
        <ele>579.0</ele>
        <time>2019-05-12T09:29:03Z</time>
      </trkpt>
      <trkpt lat="39.1577640" lon="-1.5695920">
        <ele>579.0</ele>
        <time>2019-05-12T09:29:04Z</time>
      </trkpt>
      <trkpt lat="39.1577410" lon="-1.5696570">
        <ele>579.4</ele>
        <time>2019-05-12T09:29:05Z</time>
      </trkpt>
      <trkpt lat="39.1577120" lon="-1.5697210">
        <ele>579.6</ele>
        <time>2019-05-12T09:29:06Z</time>
      </trkpt>
      <trkpt lat="39.1576870" lon="-1.5697880">
        <ele>579.6</ele>
        <time>2019-05-12T09:29:07Z</time>
      </trkpt>
      <trkpt lat="39.1576650" lon="-1.5698540">
        <ele>579.8</ele>
        <time>2019-05-12T09:29:08Z</time>
      </trkpt>
      <trkpt lat="39.1576400" lon="-1.5699190">
        <ele>579.8</ele>
        <time>2019-05-12T09:29:09Z</time>
      </trkpt>
      <trkpt lat="39.1576110" lon="-1.5699800">
        <ele>580.0</ele>
        <time>2019-05-12T09:29:10Z</time>
      </trkpt>
      <trkpt lat="39.1575710" lon="-1.5700330">
        <ele>580.4</ele>
        <time>2019-05-12T09:29:11Z</time>
      </trkpt>
      <trkpt lat="39.1575350" lon="-1.5700870">
        <ele>580.6</ele>
        <time>2019-05-12T09:29:12Z</time>
      </trkpt>
      <trkpt lat="39.1575000" lon="-1.5701430">
        <ele>580.6</ele>
        <time>2019-05-12T09:29:13Z</time>
      </trkpt>
      <trkpt lat="39.1574650" lon="-1.5701950">
        <ele>580.8</ele>
        <time>2019-05-12T09:29:14Z</time>
      </trkpt>
      <trkpt lat="39.1574350" lon="-1.5702460">
        <ele>580.8</ele>
        <time>2019-05-12T09:29:15Z</time>
      </trkpt>
      <trkpt lat="39.1574050" lon="-1.5702940">
        <ele>581.0</ele>
        <time>2019-05-12T09:29:16Z</time>
      </trkpt>
      <trkpt lat="39.1573820" lon="-1.5703480">
        <ele>581.0</ele>
        <time>2019-05-12T09:29:17Z</time>
      </trkpt>
      <trkpt lat="39.1573590" lon="-1.5704050">
        <ele>581.2</ele>
        <time>2019-05-12T09:29:18Z</time>
      </trkpt>
      <trkpt lat="39.1573360" lon="-1.5704650">
        <ele>581.4</ele>
        <time>2019-05-12T09:29:19Z</time>
      </trkpt>
      <trkpt lat="39.1573100" lon="-1.5705240">
        <ele>581.6</ele>
        <time>2019-05-12T09:29:20Z</time>
      </trkpt>
      <trkpt lat="39.1572830" lon="-1.5705820">
        <ele>581.8</ele>
        <time>2019-05-12T09:29:21Z</time>
      </trkpt>
      <trkpt lat="39.1572610" lon="-1.5706410">
        <ele>582.0</ele>
        <time>2019-05-12T09:29:22Z</time>
      </trkpt>
      <trkpt lat="39.1572430" lon="-1.5707030">
        <ele>582.4</ele>
        <time>2019-05-12T09:29:23Z</time>
      </trkpt>
      <trkpt lat="39.1572200" lon="-1.5707660">
        <ele>582.8</ele>
        <time>2019-05-12T09:29:24Z</time>
      </trkpt>
      <trkpt lat="39.1571950" lon="-1.5708340">
        <ele>583.0</ele>
        <time>2019-05-12T09:29:25Z</time>
      </trkpt>
      <trkpt lat="39.1571720" lon="-1.5709040">
        <ele>583.0</ele>
        <time>2019-05-12T09:29:26Z</time>
      </trkpt>
      <trkpt lat="39.1571420" lon="-1.5709830">
        <ele>583.0</ele>
        <time>2019-05-12T09:29:27Z</time>
      </trkpt>
      <trkpt lat="39.1571060" lon="-1.5710620">
        <ele>583.2</ele>
        <time>2019-05-12T09:29:28Z</time>
      </trkpt>
      <trkpt lat="39.1570760" lon="-1.5711400">
        <ele>583.2</ele>
        <time>2019-05-12T09:29:29Z</time>
      </trkpt>
      <trkpt lat="39.1570460" lon="-1.5712100">
        <ele>583.2</ele>
        <time>2019-05-12T09:29:30Z</time>
      </trkpt>
      <trkpt lat="39.1570160" lon="-1.5712780">
        <ele>583.2</ele>
        <time>2019-05-12T09:29:31Z</time>
      </trkpt>
      <trkpt lat="39.1569820" lon="-1.5713500">
        <ele>583.2</ele>
        <time>2019-05-12T09:29:32Z</time>
      </trkpt>
      <trkpt lat="39.1569470" lon="-1.5714280">
        <ele>583.2</ele>
        <time>2019-05-12T09:29:33Z</time>
      </trkpt>
      <trkpt lat="39.1569020" lon="-1.5715040">
        <ele>582.8</ele>
        <time>2019-05-12T09:29:34Z</time>
      </trkpt>
      <trkpt lat="39.1568500" lon="-1.5715760">
        <ele>582.4</ele>
        <time>2019-05-12T09:29:35Z</time>
      </trkpt>
      <trkpt lat="39.1567970" lon="-1.5716460">
        <ele>582.2</ele>
        <time>2019-05-12T09:29:36Z</time>
      </trkpt>
      <trkpt lat="39.1567470" lon="-1.5717200">
        <ele>582.0</ele>
        <time>2019-05-12T09:29:37Z</time>
      </trkpt>
      <trkpt lat="39.1567100" lon="-1.5717950">
        <ele>581.8</ele>
        <time>2019-05-12T09:29:38Z</time>
      </trkpt>
      <trkpt lat="39.1566780" lon="-1.5718680">
        <ele>581.6</ele>
        <time>2019-05-12T09:29:39Z</time>
      </trkpt>
      <trkpt lat="39.1566540" lon="-1.5719460">
        <ele>581.2</ele>
        <time>2019-05-12T09:29:40Z</time>
      </trkpt>
      <trkpt lat="39.1566260" lon="-1.5720180">
        <ele>581.0</ele>
        <time>2019-05-12T09:29:41Z</time>
      </trkpt>
      <trkpt lat="39.1566000" lon="-1.5720870">
        <ele>580.4</ele>
        <time>2019-05-12T09:29:42Z</time>
      </trkpt>
      <trkpt lat="39.1565700" lon="-1.5721510">
        <ele>580.2</ele>
        <time>2019-05-12T09:29:43Z</time>
      </trkpt>
      <trkpt lat="39.1565410" lon="-1.5722120">
        <ele>580.0</ele>
        <time>2019-05-12T09:29:44Z</time>
      </trkpt>
      <trkpt lat="39.1565160" lon="-1.5722780">
        <ele>580.0</ele>
        <time>2019-05-12T09:29:45Z</time>
      </trkpt>
      <trkpt lat="39.1564940" lon="-1.5723500">
        <ele>580.0</ele>
        <time>2019-05-12T09:29:46Z</time>
      </trkpt>
      <trkpt lat="39.1564710" lon="-1.5724230">
        <ele>579.8</ele>
        <time>2019-05-12T09:29:47Z</time>
      </trkpt>
      <trkpt lat="39.1564480" lon="-1.5725080">
        <ele>579.8</ele>
        <time>2019-05-12T09:29:48Z</time>
      </trkpt>
      <trkpt lat="39.1564260" lon="-1.5726020">
        <ele>579.8</ele>
        <time>2019-05-12T09:29:49Z</time>
      </trkpt>
      <trkpt lat="39.1564070" lon="-1.5726990">
        <ele>579.8</ele>
        <time>2019-05-12T09:29:50Z</time>
      </trkpt>
      <trkpt lat="39.1563930" lon="-1.5727960">
        <ele>579.6</ele>
        <time>2019-05-12T09:29:51Z</time>
      </trkpt>
      <trkpt lat="39.1563940" lon="-1.5728980">
        <ele>579.6</ele>
        <time>2019-05-12T09:29:52Z</time>
      </trkpt>
      <trkpt lat="39.1563940" lon="-1.5730030">
        <ele>579.6</ele>
        <time>2019-05-12T09:29:53Z</time>
      </trkpt>
      <trkpt lat="39.1563850" lon="-1.5730990">
        <ele>579.4</ele>
        <time>2019-05-12T09:29:54Z</time>
      </trkpt>
      <trkpt lat="39.1563790" lon="-1.5731960">
        <ele>579.4</ele>
        <time>2019-05-12T09:29:55Z</time>
      </trkpt>
      <trkpt lat="39.1563660" lon="-1.5732810">
        <ele>579.4</ele>
        <time>2019-05-12T09:29:56Z</time>
      </trkpt>
      <trkpt lat="39.1563510" lon="-1.5733590">
        <ele>579.4</ele>
        <time>2019-05-12T09:29:57Z</time>
      </trkpt>
      <trkpt lat="39.1563290" lon="-1.5734310">
        <ele>579.2</ele>
        <time>2019-05-12T09:29:58Z</time>
      </trkpt>
      <trkpt lat="39.1563020" lon="-1.5735050">
        <ele>579.2</ele>
        <time>2019-05-12T09:29:59Z</time>
      </trkpt>
      <trkpt lat="39.1562730" lon="-1.5735730">
        <ele>579.2</ele>
        <time>2019-05-12T09:30:00Z</time>
      </trkpt>
      <trkpt lat="39.1562460" lon="-1.5736390">
        <ele>579.0</ele>
        <time>2019-05-12T09:30:01Z</time>
      </trkpt>
      <trkpt lat="39.1562200" lon="-1.5737070">
        <ele>579.0</ele>
        <time>2019-05-12T09:30:02Z</time>
      </trkpt>
      <trkpt lat="39.1561900" lon="-1.5737640">
        <ele>579.0</ele>
        <time>2019-05-12T09:30:03Z</time>
      </trkpt>
      <trkpt lat="39.1561960" lon="-1.5738180">
        <ele>579.0</ele>
        <time>2019-05-12T09:30:04Z</time>
      </trkpt>
      <trkpt lat="39.1562240" lon="-1.5738690">
        <ele>579.2</ele>
        <time>2019-05-12T09:30:05Z</time>
      </trkpt>
      <trkpt lat="39.1562460" lon="-1.5739260">
        <ele>579.0</ele>
        <time>2019-05-12T09:30:06Z</time>
      </trkpt>
      <trkpt lat="39.1562560" lon="-1.5739910">
        <ele>579.0</ele>
        <time>2019-05-12T09:30:07Z</time>
      </trkpt>
      <trkpt lat="39.1562580" lon="-1.5740610">
        <ele>579.0</ele>
        <time>2019-05-12T09:30:08Z</time>
      </trkpt>
      <trkpt lat="39.1562560" lon="-1.5741220">
        <ele>579.0</ele>
        <time>2019-05-12T09:30:09Z</time>
      </trkpt>
      <trkpt lat="39.1562560" lon="-1.5741820">
        <ele>579.0</ele>
        <time>2019-05-12T09:30:10Z</time>
      </trkpt>
      <trkpt lat="39.1562570" lon="-1.5742390">
        <ele>579.0</ele>
        <time>2019-05-12T09:30:11Z</time>
      </trkpt>
      <trkpt lat="39.1562570" lon="-1.5742920">
        <ele>579.2</ele>
        <time>2019-05-12T09:30:12Z</time>
      </trkpt>
      <trkpt lat="39.1562570" lon="-1.5743390">
        <ele>579.2</ele>
        <time>2019-05-12T09:30:13Z</time>
      </trkpt>
      <trkpt lat="39.1562520" lon="-1.5743840">
        <ele>579.4</ele>
        <time>2019-05-12T09:30:14Z</time>
      </trkpt>
      <trkpt lat="39.1562480" lon="-1.5744300">
        <ele>579.4</ele>
        <time>2019-05-12T09:30:15Z</time>
      </trkpt>
      <trkpt lat="39.1562470" lon="-1.5744780">
        <ele>579.4</ele>
        <time>2019-05-12T09:30:16Z</time>
      </trkpt>
      <trkpt lat="39.1562440" lon="-1.5745260">
        <ele>579.6</ele>
        <time>2019-05-12T09:30:17Z</time>
      </trkpt>
      <trkpt lat="39.1562440" lon="-1.5745750">
        <ele>579.8</ele>
        <time>2019-05-12T09:30:18Z</time>
      </trkpt>
      <trkpt lat="39.1562460" lon="-1.5746210">
        <ele>580.0</ele>
        <time>2019-05-12T09:30:19Z</time>
      </trkpt>
      <trkpt lat="39.1562440" lon="-1.5746660">
        <ele>580.4</ele>
        <time>2019-05-12T09:30:20Z</time>
      </trkpt>
      <trkpt lat="39.1562390" lon="-1.5747140">
        <ele>580.6</ele>
        <time>2019-05-12T09:30:21Z</time>
      </trkpt>
      <trkpt lat="39.1562330" lon="-1.5747630">
        <ele>581.0</ele>
        <time>2019-05-12T09:30:22Z</time>
      </trkpt>
      <trkpt lat="39.1562290" lon="-1.5748140">
        <ele>581.2</ele>
        <time>2019-05-12T09:30:23Z</time>
      </trkpt>
      <trkpt lat="39.1562270" lon="-1.5748680">
        <ele>581.4</ele>
        <time>2019-05-12T09:30:24Z</time>
      </trkpt>
      <trkpt lat="39.1562250" lon="-1.5749210">
        <ele>581.6</ele>
        <time>2019-05-12T09:30:25Z</time>
      </trkpt>
      <trkpt lat="39.1562270" lon="-1.5749710">
        <ele>581.6</ele>
        <time>2019-05-12T09:30:26Z</time>
      </trkpt>
      <trkpt lat="39.1562240" lon="-1.5750180">
        <ele>581.8</ele>
        <time>2019-05-12T09:30:27Z</time>
      </trkpt>
      <trkpt lat="39.1562230" lon="-1.5750650">
        <ele>582.2</ele>
        <time>2019-05-12T09:30:28Z</time>
      </trkpt>
      <trkpt lat="39.1562220" lon="-1.5751130">
        <ele>582.4</ele>
        <time>2019-05-12T09:30:29Z</time>
      </trkpt>
      <trkpt lat="39.1562240" lon="-1.5751630">
        <ele>582.6</ele>
        <time>2019-05-12T09:30:30Z</time>
      </trkpt>
      <trkpt lat="39.1562270" lon="-1.5752130">
        <ele>582.8</ele>
        <time>2019-05-12T09:30:31Z</time>
      </trkpt>
      <trkpt lat="39.1562310" lon="-1.5752640">
        <ele>583.0</ele>
        <time>2019-05-12T09:30:32Z</time>
      </trkpt>
      <trkpt lat="39.1562370" lon="-1.5753150">
        <ele>583.2</ele>
        <time>2019-05-12T09:30:33Z</time>
      </trkpt>
      <trkpt lat="39.1562430" lon="-1.5753660">
        <ele>583.4</ele>
        <time>2019-05-12T09:30:34Z</time>
      </trkpt>
      <trkpt lat="39.1562490" lon="-1.5754160">
        <ele>583.8</ele>
        <time>2019-05-12T09:30:35Z</time>
      </trkpt>
      <trkpt lat="39.1562500" lon="-1.5754630">
        <ele>584.2</ele>
        <time>2019-05-12T09:30:36Z</time>
      </trkpt>
      <trkpt lat="39.1562480" lon="-1.5755080">
        <ele>584.4</ele>
        <time>2019-05-12T09:30:37Z</time>
      </trkpt>
      <trkpt lat="39.1562420" lon="-1.5755470">
        <ele>584.6</ele>
        <time>2019-05-12T09:30:38Z</time>
      </trkpt>
      <trkpt lat="39.1562380" lon="-1.5755920">
        <ele>585.0</ele>
        <time>2019-05-12T09:30:39Z</time>
      </trkpt>
      <trkpt lat="39.1562300" lon="-1.5756360">
        <ele>585.8</ele>
        <time>2019-05-12T09:30:40Z</time>
      </trkpt>
      <trkpt lat="39.1562190" lon="-1.5756780">
        <ele>586.2</ele>
        <time>2019-05-12T09:30:41Z</time>
      </trkpt>
      <trkpt lat="39.1562050" lon="-1.5757190">
        <ele>586.6</ele>
        <time>2019-05-12T09:30:42Z</time>
      </trkpt>
      <trkpt lat="39.1561910" lon="-1.5757590">
        <ele>587.2</ele>
        <time>2019-05-12T09:30:43Z</time>
      </trkpt>
      <trkpt lat="39.1561790" lon="-1.5758000">
        <ele>587.6</ele>
        <time>2019-05-12T09:30:44Z</time>
      </trkpt>
      <trkpt lat="39.1561700" lon="-1.5758430">
        <ele>588.0</ele>
        <time>2019-05-12T09:30:45Z</time>
      </trkpt>
      <trkpt lat="39.1561640" lon="-1.5758890">
        <ele>588.2</ele>
        <time>2019-05-12T09:30:46Z</time>
      </trkpt>
      <trkpt lat="39.1561670" lon="-1.5759360">
        <ele>588.6</ele>
        <time>2019-05-12T09:30:47Z</time>
      </trkpt>
      <trkpt lat="39.1561730" lon="-1.5759830">
        <ele>588.8</ele>
        <time>2019-05-12T09:30:48Z</time>
      </trkpt>
      <trkpt lat="39.1561840" lon="-1.5760270">
        <ele>589.0</ele>
        <time>2019-05-12T09:30:49Z</time>
      </trkpt>
      <trkpt lat="39.1561980" lon="-1.5760710">
        <ele>589.2</ele>
        <time>2019-05-12T09:30:50Z</time>
      </trkpt>
      <trkpt lat="39.1562100" lon="-1.5761110">
        <ele>589.2</ele>
        <time>2019-05-12T09:30:51Z</time>
      </trkpt>
      <trkpt lat="39.1562200" lon="-1.5761440">
        <ele>589.6</ele>
        <time>2019-05-12T09:30:52Z</time>
      </trkpt>
      <trkpt lat="39.1562290" lon="-1.5761730">
        <ele>589.6</ele>
        <time>2019-05-12T09:30:53Z</time>
      </trkpt>
      <trkpt lat="39.1562370" lon="-1.5762010">
        <ele>589.8</ele>
        <time>2019-05-12T09:30:54Z</time>
      </trkpt>
      <trkpt lat="39.1562450" lon="-1.5762290">
        <ele>590.0</ele>
        <time>2019-05-12T09:30:55Z</time>
      </trkpt>
      <trkpt lat="39.1562540" lon="-1.5762580">
        <ele>590.2</ele>
        <time>2019-05-12T09:30:56Z</time>
      </trkpt>
      <trkpt lat="39.1562630" lon="-1.5762870">
        <ele>590.4</ele>
        <time>2019-05-12T09:30:57Z</time>
      </trkpt>
      <trkpt lat="39.1562710" lon="-1.5763180">
        <ele>590.6</ele>
        <time>2019-05-12T09:30:58Z</time>
      </trkpt>
      <trkpt lat="39.1562790" lon="-1.5763480">
        <ele>590.8</ele>
        <time>2019-05-12T09:30:59Z</time>
      </trkpt>
      <trkpt lat="39.1562870" lon="-1.5763810">
        <ele>591.0</ele>
        <time>2019-05-12T09:31:00Z</time>
      </trkpt>
      <trkpt lat="39.1562940" lon="-1.5764130">
        <ele>591.4</ele>
        <time>2019-05-12T09:31:01Z</time>
      </trkpt>
      <trkpt lat="39.1563000" lon="-1.5764450">
        <ele>591.6</ele>
        <time>2019-05-12T09:31:02Z</time>
      </trkpt>
      <trkpt lat="39.1563070" lon="-1.5764760">
        <ele>592.0</ele>
        <time>2019-05-12T09:31:03Z</time>
      </trkpt>
      <trkpt lat="39.1563160" lon="-1.5765060">
        <ele>592.2</ele>
        <time>2019-05-12T09:31:04Z</time>
      </trkpt>
      <trkpt lat="39.1563230" lon="-1.5765370">
        <ele>592.8</ele>
        <time>2019-05-12T09:31:05Z</time>
      </trkpt>
      <trkpt lat="39.1563230" lon="-1.5765690">
        <ele>593.0</ele>
        <time>2019-05-12T09:31:06Z</time>
      </trkpt>
      <trkpt lat="39.1563050" lon="-1.5765770">
        <ele>593.4</ele>
        <time>2019-05-12T09:31:07Z</time>
      </trkpt>
      <trkpt lat="39.1562930" lon="-1.5765600">
        <ele>593.6</ele>
        <time>2019-05-12T09:31:08Z</time>
      </trkpt>
      <trkpt lat="39.1562850" lon="-1.5765290">
        <ele>593.8</ele>
        <time>2019-05-12T09:31:09Z</time>
      </trkpt>
      <trkpt lat="39.1562800" lon="-1.5764930">
        <ele>594.2</ele>
        <time>2019-05-12T09:31:10Z</time>
      </trkpt>
      <trkpt lat="39.1562760" lon="-1.5764550">
        <ele>594.4</ele>
        <time>2019-05-12T09:31:11Z</time>
      </trkpt>
      <trkpt lat="39.1562730" lon="-1.5764170">
        <ele>594.6</ele>
        <time>2019-05-12T09:31:12Z</time>
      </trkpt>
      <trkpt lat="39.1562700" lon="-1.5763790">
        <ele>594.8</ele>
        <time>2019-05-12T09:31:13Z</time>
      </trkpt>
      <trkpt lat="39.1562640" lon="-1.5763410">
        <ele>595.2</ele>
        <time>2019-05-12T09:31:14Z</time>
      </trkpt>
      <trkpt lat="39.1562570" lon="-1.5763070">
        <ele>595.2</ele>
        <time>2019-05-12T09:31:15Z</time>
      </trkpt>
      <trkpt lat="39.1562430" lon="-1.5762780">
        <ele>595.4</ele>
        <time>2019-05-12T09:31:16Z</time>
      </trkpt>
      <trkpt lat="39.1562210" lon="-1.5762680">
        <ele>595.6</ele>
        <time>2019-05-12T09:31:17Z</time>
      </trkpt>
      <trkpt lat="39.1562080" lon="-1.5762770">
        <ele>595.8</ele>
        <time>2019-05-12T09:31:18Z</time>
      </trkpt>
      <trkpt lat="39.1562030" lon="-1.5762990">
        <ele>596.0</ele>
        <time>2019-05-12T09:31:19Z</time>
      </trkpt>
      <trkpt lat="39.1562040" lon="-1.5763250">
        <ele>596.2</ele>
        <time>2019-05-12T09:31:20Z</time>
      </trkpt>
      <trkpt lat="39.1562110" lon="-1.5763510">
        <ele>596.6</ele>
        <time>2019-05-12T09:31:21Z</time>
      </trkpt>
      <trkpt lat="39.1562180" lon="-1.5763790">
        <ele>596.8</ele>
        <time>2019-05-12T09:31:22Z</time>
      </trkpt>
      <trkpt lat="39.1562260" lon="-1.5764100">
        <ele>597.2</ele>
        <time>2019-05-12T09:31:23Z</time>
      </trkpt>
      <trkpt lat="39.1562350" lon="-1.5764410">
        <ele>597.4</ele>
        <time>2019-05-12T09:31:24Z</time>
      </trkpt>
      <trkpt lat="39.1562450" lon="-1.5764710">
        <ele>597.8</ele>
        <time>2019-05-12T09:31:25Z</time>
      </trkpt>
      <trkpt lat="39.1562550" lon="-1.5765010">
        <ele>598.2</ele>
        <time>2019-05-12T09:31:26Z</time>
      </trkpt>
      <trkpt lat="39.1562620" lon="-1.5765320">
        <ele>598.4</ele>
        <time>2019-05-12T09:31:27Z</time>
      </trkpt>
      <trkpt lat="39.1562720" lon="-1.5765610">
        <ele>598.6</ele>
        <time>2019-05-12T09:31:28Z</time>
      </trkpt>
      <trkpt lat="39.1562800" lon="-1.5765910">
        <ele>598.8</ele>
        <time>2019-05-12T09:31:29Z</time>
      </trkpt>
      <trkpt lat="39.1562870" lon="-1.5766210">
        <ele>599.0</ele>
        <time>2019-05-12T09:31:30Z</time>
      </trkpt>
      <trkpt lat="39.1562950" lon="-1.5766500">
        <ele>599.2</ele>
        <time>2019-05-12T09:31:31Z</time>
      </trkpt>
      <trkpt lat="39.1563060" lon="-1.5766790">
        <ele>599.2</ele>
        <time>2019-05-12T09:31:32Z</time>
      </trkpt>
      <trkpt lat="39.1563150" lon="-1.5767080">
        <ele>599.4</ele>
        <time>2019-05-12T09:31:33Z</time>
      </trkpt>
      <trkpt lat="39.1563260" lon="-1.5767400">
        <ele>599.6</ele>
        <time>2019-05-12T09:31:34Z</time>
      </trkpt>
      <trkpt lat="39.1563390" lon="-1.5767730">
        <ele>599.6</ele>
        <time>2019-05-12T09:31:35Z</time>
      </trkpt>
      <trkpt lat="39.1563470" lon="-1.5768040">
        <ele>599.8</ele>
        <time>2019-05-12T09:31:36Z</time>
      </trkpt>
      <trkpt lat="39.1563560" lon="-1.5768340">
        <ele>600.0</ele>
        <time>2019-05-12T09:31:37Z</time>
      </trkpt>
      <trkpt lat="39.1563650" lon="-1.5768640">
        <ele>600.2</ele>
        <time>2019-05-12T09:31:38Z</time>
      </trkpt>
      <trkpt lat="39.1563730" lon="-1.5768940">
        <ele>600.4</ele>
        <time>2019-05-12T09:31:39Z</time>
      </trkpt>
      <trkpt lat="39.1563810" lon="-1.5769250">
        <ele>600.6</ele>
        <time>2019-05-12T09:31:40Z</time>
      </trkpt>
      <trkpt lat="39.1563900" lon="-1.5769540">
        <ele>600.8</ele>
        <time>2019-05-12T09:31:41Z</time>
      </trkpt>
      <trkpt lat="39.1563970" lon="-1.5769850">
        <ele>601.2</ele>
        <time>2019-05-12T09:31:42Z</time>
      </trkpt>
      <trkpt lat="39.1564030" lon="-1.5770140">
        <ele>601.2</ele>
        <time>2019-05-12T09:31:43Z</time>
      </trkpt>
      <trkpt lat="39.1564110" lon="-1.5770450">
        <ele>601.4</ele>
        <time>2019-05-12T09:31:44Z</time>
      </trkpt>
      <trkpt lat="39.1564190" lon="-1.5770760">
        <ele>601.6</ele>
        <time>2019-05-12T09:31:45Z</time>
      </trkpt>
      <trkpt lat="39.1564250" lon="-1.5771090">
        <ele>601.8</ele>
        <time>2019-05-12T09:31:46Z</time>
      </trkpt>
      <trkpt lat="39.1564310" lon="-1.5771410">
        <ele>602.2</ele>
        <time>2019-05-12T09:31:47Z</time>
      </trkpt>
      <trkpt lat="39.1564370" lon="-1.5771740">
        <ele>602.4</ele>
        <time>2019-05-12T09:31:48Z</time>
      </trkpt>
      <trkpt lat="39.1564420" lon="-1.5772070">
        <ele>603.0</ele>
        <time>2019-05-12T09:31:49Z</time>
      </trkpt>
      <trkpt lat="39.1564440" lon="-1.5772390">
        <ele>603.4</ele>
        <time>2019-05-12T09:31:50Z</time>
      </trkpt>
      <trkpt lat="39.1564480" lon="-1.5772720">
        <ele>603.8</ele>
        <time>2019-05-12T09:31:51Z</time>
      </trkpt>
      <trkpt lat="39.1564500" lon="-1.5773050">
        <ele>604.0</ele>
        <time>2019-05-12T09:31:52Z</time>
      </trkpt>
      <trkpt lat="39.1564570" lon="-1.5773340">
        <ele>604.4</ele>
        <time>2019-05-12T09:31:53Z</time>
      </trkpt>
      <trkpt lat="39.1564530" lon="-1.5773640">
        <ele>604.8</ele>
        <time>2019-05-12T09:31:54Z</time>
      </trkpt>
      <trkpt lat="39.1564370" lon="-1.5773790">
        <ele>605.2</ele>
        <time>2019-05-12T09:31:55Z</time>
      </trkpt>
      <trkpt lat="39.1564220" lon="-1.5773700">
        <ele>605.6</ele>
        <time>2019-05-12T09:31:56Z</time>
      </trkpt>
      <trkpt lat="39.1564140" lon="-1.5773460">
        <ele>605.8</ele>
        <time>2019-05-12T09:31:57Z</time>
      </trkpt>
      <trkpt lat="39.1564060" lon="-1.5773170">
        <ele>606.0</ele>
        <time>2019-05-12T09:31:58Z</time>
      </trkpt>
      <trkpt lat="39.1564020" lon="-1.5772870">
        <ele>606.4</ele>
        <time>2019-05-12T09:31:59Z</time>
      </trkpt>
      <trkpt lat="39.1563980" lon="-1.5772550">
        <ele>606.6</ele>
        <time>2019-05-12T09:32:00Z</time>
      </trkpt>
      <trkpt lat="39.1563930" lon="-1.5772250">
        <ele>606.8</ele>
        <time>2019-05-12T09:32:01Z</time>
      </trkpt>
      <trkpt lat="39.1563880" lon="-1.5771960">
        <ele>607.2</ele>
        <time>2019-05-12T09:32:02Z</time>
      </trkpt>
      <trkpt lat="39.1563810" lon="-1.5771680">
        <ele>607.2</ele>
        <time>2019-05-12T09:32:03Z</time>
      </trkpt>
      <trkpt lat="39.1563740" lon="-1.5771400">
        <ele>607.6</ele>
        <time>2019-05-12T09:32:04Z</time>
      </trkpt>
      <trkpt lat="39.1563660" lon="-1.5771150">
        <ele>607.8</ele>
        <time>2019-05-12T09:32:05Z</time>
      </trkpt>
      <trkpt lat="39.1563520" lon="-1.5770960">
        <ele>608.0</ele>
        <time>2019-05-12T09:32:06Z</time>
      </trkpt>
      <trkpt lat="39.1563300" lon="-1.5770920">
        <ele>608.2</ele>
        <time>2019-05-12T09:32:07Z</time>
      </trkpt>
      <trkpt lat="39.1563140" lon="-1.5771020">
        <ele>608.4</ele>
        <time>2019-05-12T09:32:08Z</time>
      </trkpt>
      <trkpt lat="39.1563060" lon="-1.5771200">
        <ele>608.4</ele>
        <time>2019-05-12T09:32:09Z</time>
      </trkpt>
      <trkpt lat="39.1563060" lon="-1.5771440">
        <ele>608.6</ele>
        <time>2019-05-12T09:32:10Z</time>
      </trkpt>
      <trkpt lat="39.1563110" lon="-1.5771720">
        <ele>608.8</ele>
        <time>2019-05-12T09:32:11Z</time>
      </trkpt>
      <trkpt lat="39.1563170" lon="-1.5772040">
        <ele>609.0</ele>
        <time>2019-05-12T09:32:12Z</time>
      </trkpt>
      <trkpt lat="39.1563220" lon="-1.5772390">
        <ele>609.4</ele>
        <time>2019-05-12T09:32:13Z</time>
      </trkpt>
      <trkpt lat="39.1563280" lon="-1.5772720">
        <ele>609.8</ele>
        <time>2019-05-12T09:32:14Z</time>
      </trkpt>
      <trkpt lat="39.1563330" lon="-1.5773040">
        <ele>610.2</ele>
        <time>2019-05-12T09:32:15Z</time>
      </trkpt>
      <trkpt lat="39.1563380" lon="-1.5773370">
        <ele>610.4</ele>
        <time>2019-05-12T09:32:16Z</time>
      </trkpt>
      <trkpt lat="39.1563450" lon="-1.5773690">
        <ele>610.6</ele>
        <time>2019-05-12T09:32:17Z</time>
      </trkpt>
      <trkpt lat="39.1563550" lon="-1.5774000">
        <ele>610.8</ele>
        <time>2019-05-12T09:32:18Z</time>
      </trkpt>
      <trkpt lat="39.1563650" lon="-1.5774290">
        <ele>610.8</ele>
        <time>2019-05-12T09:32:19Z</time>
      </trkpt>
      <trkpt lat="39.1563780" lon="-1.5774570">
        <ele>611.0</ele>
        <time>2019-05-12T09:32:20Z</time>
      </trkpt>
      <trkpt lat="39.1563900" lon="-1.5774860">
        <ele>611.2</ele>
        <time>2019-05-12T09:32:21Z</time>
      </trkpt>
      <trkpt lat="39.1564010" lon="-1.5775150">
        <ele>611.2</ele>
        <time>2019-05-12T09:32:22Z</time>
      </trkpt>
      <trkpt lat="39.1564130" lon="-1.5775440">
        <ele>611.4</ele>
        <time>2019-05-12T09:32:23Z</time>
      </trkpt>
      <trkpt lat="39.1564240" lon="-1.5775760">
        <ele>612.0</ele>
        <time>2019-05-12T09:32:24Z</time>
      </trkpt>
      <trkpt lat="39.1564320" lon="-1.5776110">
        <ele>612.2</ele>
        <time>2019-05-12T09:32:25Z</time>
      </trkpt>
      <trkpt lat="39.1564370" lon="-1.5776510">
        <ele>612.6</ele>
        <time>2019-05-12T09:32:26Z</time>
      </trkpt>
      <trkpt lat="39.1564430" lon="-1.5776950">
        <ele>612.8</ele>
        <time>2019-05-12T09:32:27Z</time>
      </trkpt>
      <trkpt lat="39.1564480" lon="-1.5777440">
        <ele>613.0</ele>
        <time>2019-05-12T09:32:28Z</time>
      </trkpt>
      <trkpt lat="39.1564460" lon="-1.5777910">
        <ele>613.4</ele>
        <time>2019-05-12T09:32:29Z</time>
      </trkpt>
      <trkpt lat="39.1564400" lon="-1.5778350">
        <ele>613.6</ele>
        <time>2019-05-12T09:32:30Z</time>
      </trkpt>
      <trkpt lat="39.1564320" lon="-1.5778730">
        <ele>614.0</ele>
        <time>2019-05-12T09:32:31Z</time>
      </trkpt>
      <trkpt lat="39.1564220" lon="-1.5779090">
        <ele>614.4</ele>
        <time>2019-05-12T09:32:32Z</time>
      </trkpt>
      <trkpt lat="39.1564070" lon="-1.5779410">
        <ele>614.6</ele>
        <time>2019-05-12T09:32:33Z</time>
      </trkpt>
      <trkpt lat="39.1563950" lon="-1.5779720">
        <ele>614.8</ele>
        <time>2019-05-12T09:32:34Z</time>
      </trkpt>
      <trkpt lat="39.1563840" lon="-1.5780030">
        <ele>615.2</ele>
        <time>2019-05-12T09:32:35Z</time>
      </trkpt>
      <trkpt lat="39.1563740" lon="-1.5780340">
        <ele>615.4</ele>
        <time>2019-05-12T09:32:36Z</time>
      </trkpt>
      <trkpt lat="39.1563620" lon="-1.5780630">
        <ele>615.6</ele>
        <time>2019-05-12T09:32:37Z</time>
      </trkpt>
      <trkpt lat="39.1563450" lon="-1.5780860">
        <ele>616.0</ele>
        <time>2019-05-12T09:32:38Z</time>
      </trkpt>
      <trkpt lat="39.1563240" lon="-1.5781020">
        <ele>616.6</ele>
        <time>2019-05-12T09:32:39Z</time>
      </trkpt>
      <trkpt lat="39.1563020" lon="-1.5781110">
        <ele>617.0</ele>
        <time>2019-05-12T09:32:40Z</time>
      </trkpt>
      <trkpt lat="39.1562800" lon="-1.5781110">
        <ele>617.4</ele>
        <time>2019-05-12T09:32:41Z</time>
      </trkpt>
      <trkpt lat="39.1562630" lon="-1.5781000">
        <ele>617.8</ele>
        <time>2019-05-12T09:32:42Z</time>
      </trkpt>
      <trkpt lat="39.1562500" lon="-1.5780790">
        <ele>618.0</ele>
        <time>2019-05-12T09:32:43Z</time>
      </trkpt>
      <trkpt lat="39.1562390" lon="-1.5780550">
        <ele>618.4</ele>
        <time>2019-05-12T09:32:44Z</time>
      </trkpt>
      <trkpt lat="39.1562310" lon="-1.5780300">
        <ele>618.6</ele>
        <time>2019-05-12T09:32:45Z</time>
      </trkpt>
      <trkpt lat="39.1562220" lon="-1.5780070">
        <ele>619.0</ele>
        <time>2019-05-12T09:32:46Z</time>
      </trkpt>
      <trkpt lat="39.1562140" lon="-1.5779810">
        <ele>619.2</ele>
        <time>2019-05-12T09:32:47Z</time>
      </trkpt>
      <trkpt lat="39.1562060" lon="-1.5779550">
        <ele>619.6</ele>
        <time>2019-05-12T09:32:48Z</time>
      </trkpt>
      <trkpt lat="39.1561970" lon="-1.5779290">
        <ele>619.8</ele>
        <time>2019-05-12T09:32:49Z</time>
      </trkpt>
      <trkpt lat="39.1561890" lon="-1.5779020">
        <ele>620.2</ele>
        <time>2019-05-12T09:32:50Z</time>
      </trkpt>
      <trkpt lat="39.1561800" lon="-1.5778750">
        <ele>620.4</ele>
        <time>2019-05-12T09:32:51Z</time>
      </trkpt>
      <trkpt lat="39.1561690" lon="-1.5778480">
        <ele>620.6</ele>
        <time>2019-05-12T09:32:52Z</time>
      </trkpt>
      <trkpt lat="39.1561570" lon="-1.5778220">
        <ele>620.8</ele>
        <time>2019-05-12T09:32:53Z</time>
      </trkpt>
      <trkpt lat="39.1561460" lon="-1.5777940">
        <ele>621.2</ele>
        <time>2019-05-12T09:32:54Z</time>
      </trkpt>
      <trkpt lat="39.1561360" lon="-1.5777670">
        <ele>621.4</ele>
        <time>2019-05-12T09:32:55Z</time>
      </trkpt>
      <trkpt lat="39.1561260" lon="-1.5777390">
        <ele>621.6</ele>
        <time>2019-05-12T09:32:56Z</time>
      </trkpt>
      <trkpt lat="39.1561160" lon="-1.5777100">
        <ele>622.0</ele>
        <time>2019-05-12T09:32:57Z</time>
      </trkpt>
      <trkpt lat="39.1561060" lon="-1.5776810">
        <ele>622.4</ele>
        <time>2019-05-12T09:32:58Z</time>
      </trkpt>
      <trkpt lat="39.1560970" lon="-1.5776510">
        <ele>622.6</ele>
        <time>2019-05-12T09:32:59Z</time>
      </trkpt>
      <trkpt lat="39.1560870" lon="-1.5776230">
        <ele>622.8</ele>
        <time>2019-05-12T09:33:00Z</time>
      </trkpt>
      <trkpt lat="39.1560770" lon="-1.5775950">
        <ele>623.0</ele>
        <time>2019-05-12T09:33:01Z</time>
      </trkpt>
      <trkpt lat="39.1560650" lon="-1.5775680">
        <ele>623.2</ele>
        <time>2019-05-12T09:33:02Z</time>
      </trkpt>
      <trkpt lat="39.1560530" lon="-1.5775400">
        <ele>623.4</ele>
        <time>2019-05-12T09:33:03Z</time>
      </trkpt>
      <trkpt lat="39.1560410" lon="-1.5775110">
        <ele>623.6</ele>
        <time>2019-05-12T09:33:04Z</time>
      </trkpt>
      <trkpt lat="39.1560290" lon="-1.5774820">
        <ele>623.8</ele>
        <time>2019-05-12T09:33:05Z</time>
      </trkpt>
      <trkpt lat="39.1560180" lon="-1.5774510">
        <ele>624.0</ele>
        <time>2019-05-12T09:33:06Z</time>
      </trkpt>
      <trkpt lat="39.1560070" lon="-1.5774210">
        <ele>624.2</ele>
        <time>2019-05-12T09:33:07Z</time>
      </trkpt>
      <trkpt lat="39.1559960" lon="-1.5773920">
        <ele>624.4</ele>
        <time>2019-05-12T09:33:08Z</time>
      </trkpt>
      <trkpt lat="39.1559860" lon="-1.5773630">
        <ele>624.6</ele>
        <time>2019-05-12T09:33:09Z</time>
      </trkpt>
      <trkpt lat="39.1559760" lon="-1.5773340">
        <ele>624.8</ele>
        <time>2019-05-12T09:33:10Z</time>
      </trkpt>
      <trkpt lat="39.1559660" lon="-1.5773040">
        <ele>625.0</ele>
        <time>2019-05-12T09:33:11Z</time>
      </trkpt>
      <trkpt lat="39.1559580" lon="-1.5772740">
        <ele>625.2</ele>
        <time>2019-05-12T09:33:12Z</time>
      </trkpt>
      <trkpt lat="39.1559490" lon="-1.5772440">
        <ele>625.6</ele>
        <time>2019-05-12T09:33:13Z</time>
      </trkpt>
      <trkpt lat="39.1559400" lon="-1.5772150">
        <ele>625.8</ele>
        <time>2019-05-12T09:33:14Z</time>
      </trkpt>
      <trkpt lat="39.1559320" lon="-1.5771850">
        <ele>626.0</ele>
        <time>2019-05-12T09:33:15Z</time>
      </trkpt>
      <trkpt lat="39.1559270" lon="-1.5771550">
        <ele>626.4</ele>
        <time>2019-05-12T09:33:16Z</time>
      </trkpt>
      <trkpt lat="39.1559220" lon="-1.5771250">
        <ele>626.6</ele>
        <time>2019-05-12T09:33:17Z</time>
      </trkpt>
      <trkpt lat="39.1559160" lon="-1.5770960">
        <ele>627.0</ele>
        <time>2019-05-12T09:33:18Z</time>
      </trkpt>
      <trkpt lat="39.1559090" lon="-1.5770680">
        <ele>627.2</ele>
        <time>2019-05-12T09:33:19Z</time>
      </trkpt>
      <trkpt lat="39.1559020" lon="-1.5770410">
        <ele>627.4</ele>
        <time>2019-05-12T09:33:20Z</time>
      </trkpt>
      <trkpt lat="39.1558920" lon="-1.5770150">
        <ele>627.6</ele>
        <time>2019-05-12T09:33:21Z</time>
      </trkpt>
      <trkpt lat="39.1558820" lon="-1.5769890">
        <ele>627.8</ele>
        <time>2019-05-12T09:33:22Z</time>
      </trkpt>
      <trkpt lat="39.1558720" lon="-1.5769640">
        <ele>628.0</ele>
        <time>2019-05-12T09:33:23Z</time>
      </trkpt>
      <trkpt lat="39.1558580" lon="-1.5769430">
        <ele>628.2</ele>
        <time>2019-05-12T09:33:24Z</time>
      </trkpt>
      <trkpt lat="39.1558410" lon="-1.5769270">
        <ele>628.4</ele>
        <time>2019-05-12T09:33:25Z</time>
      </trkpt>
      <trkpt lat="39.1558210" lon="-1.5769180">
        <ele>628.6</ele>
        <time>2019-05-12T09:33:26Z</time>
      </trkpt>
      <trkpt lat="39.1557980" lon="-1.5769130">
        <ele>628.8</ele>
        <time>2019-05-12T09:33:27Z</time>
      </trkpt>
      <trkpt lat="39.1557730" lon="-1.5769120">
        <ele>629.0</ele>
        <time>2019-05-12T09:33:28Z</time>
      </trkpt>
      <trkpt lat="39.1557500" lon="-1.5769160">
        <ele>629.2</ele>
        <time>2019-05-12T09:33:29Z</time>
      </trkpt>
      <trkpt lat="39.1557250" lon="-1.5769230">
        <ele>629.6</ele>
        <time>2019-05-12T09:33:30Z</time>
      </trkpt>
      <trkpt lat="39.1557000" lon="-1.5769320">
        <ele>629.8</ele>
        <time>2019-05-12T09:33:31Z</time>
      </trkpt>
      <trkpt lat="39.1556760" lon="-1.5769420">
        <ele>630.2</ele>
        <time>2019-05-12T09:33:32Z</time>
      </trkpt>
      <trkpt lat="39.1556530" lon="-1.5769550">
        <ele>630.6</ele>
        <time>2019-05-12T09:33:33Z</time>
      </trkpt>
      <trkpt lat="39.1556310" lon="-1.5769690">
        <ele>630.8</ele>
        <time>2019-05-12T09:33:34Z</time>
      </trkpt>
      <trkpt lat="39.1556090" lon="-1.5769820">
        <ele>631.0</ele>
        <time>2019-05-12T09:33:35Z</time>
      </trkpt>
      <trkpt lat="39.1555880" lon="-1.5769960">
        <ele>631.2</ele>
        <time>2019-05-12T09:33:36Z</time>
      </trkpt>
      <trkpt lat="39.1555680" lon="-1.5770110">
        <ele>631.4</ele>
        <time>2019-05-12T09:33:37Z</time>
      </trkpt>
      <trkpt lat="39.1555490" lon="-1.5770280">
        <ele>631.6</ele>
        <time>2019-05-12T09:33:38Z</time>
      </trkpt>
      <trkpt lat="39.1555300" lon="-1.5770450">
        <ele>631.8</ele>
        <time>2019-05-12T09:33:39Z</time>
      </trkpt>
      <trkpt lat="39.1555120" lon="-1.5770620">
        <ele>632.0</ele>
        <time>2019-05-12T09:33:40Z</time>
      </trkpt>
      <trkpt lat="39.1554940" lon="-1.5770790">
        <ele>632.2</ele>
        <time>2019-05-12T09:33:41Z</time>
      </trkpt>
      <trkpt lat="39.1554770" lon="-1.5770960">
        <ele>632.4</ele>
        <time>2019-05-12T09:33:42Z</time>
      </trkpt>
      <trkpt lat="39.1554580" lon="-1.5771140">
        <ele>632.6</ele>
        <time>2019-05-12T09:33:43Z</time>
      </trkpt>
      <trkpt lat="39.1554380" lon="-1.5771340">
        <ele>632.8</ele>
        <time>2019-05-12T09:33:44Z</time>
      </trkpt>
      <trkpt lat="39.1554200" lon="-1.5771570">
        <ele>633.0</ele>
        <time>2019-05-12T09:33:45Z</time>
      </trkpt>
      <trkpt lat="39.1554020" lon="-1.5771810">
        <ele>633.2</ele>
        <time>2019-05-12T09:33:46Z</time>
      </trkpt>
      <trkpt lat="39.1553840" lon="-1.5772060">
        <ele>633.6</ele>
        <time>2019-05-12T09:33:47Z</time>
      </trkpt>
      <trkpt lat="39.1553650" lon="-1.5772310">
        <ele>634.0</ele>
        <time>2019-05-12T09:33:48Z</time>
      </trkpt>
      <trkpt lat="39.1553490" lon="-1.5772580">
        <ele>634.4</ele>
        <time>2019-05-12T09:33:49Z</time>
      </trkpt>
      <trkpt lat="39.1553390" lon="-1.5772870">
        <ele>634.8</ele>
        <time>2019-05-12T09:33:50Z</time>
      </trkpt>
      <trkpt lat="39.1553360" lon="-1.5773150">
        <ele>635.0</ele>
        <time>2019-05-12T09:33:51Z</time>
      </trkpt>
      <trkpt lat="39.1553360" lon="-1.5773430">
        <ele>635.4</ele>
        <time>2019-05-12T09:33:52Z</time>
      </trkpt>
      <trkpt lat="39.1553370" lon="-1.5773720">
        <ele>635.6</ele>
        <time>2019-05-12T09:33:53Z</time>
      </trkpt>
      <trkpt lat="39.1553400" lon="-1.5774030">
        <ele>636.0</ele>
        <time>2019-05-12T09:33:54Z</time>
      </trkpt>
      <trkpt lat="39.1553410" lon="-1.5774350">
        <ele>636.2</ele>
        <time>2019-05-12T09:33:55Z</time>
      </trkpt>
      <trkpt lat="39.1553420" lon="-1.5774700">
        <ele>636.6</ele>
        <time>2019-05-12T09:33:56Z</time>
      </trkpt>
      <trkpt lat="39.1553440" lon="-1.5775070">
        <ele>636.8</ele>
        <time>2019-05-12T09:33:57Z</time>
      </trkpt>
      <trkpt lat="39.1553460" lon="-1.5775470">
        <ele>637.2</ele>
        <time>2019-05-12T09:33:58Z</time>
      </trkpt>
      <trkpt lat="39.1553480" lon="-1.5775910">
        <ele>637.8</ele>
        <time>2019-05-12T09:33:59Z</time>
      </trkpt>
      <trkpt lat="39.1553490" lon="-1.5776350">
        <ele>638.2</ele>
        <time>2019-05-12T09:34:00Z</time>
      </trkpt>
      <trkpt lat="39.1553510" lon="-1.5776790">
        <ele>638.4</ele>
        <time>2019-05-12T09:34:01Z</time>
      </trkpt>
      <trkpt lat="39.1553530" lon="-1.5777210">
        <ele>638.6</ele>
        <time>2019-05-12T09:34:02Z</time>
      </trkpt>
      <trkpt lat="39.1553560" lon="-1.5777600">
        <ele>638.8</ele>
        <time>2019-05-12T09:34:03Z</time>
      </trkpt>
      <trkpt lat="39.1553580" lon="-1.5777990">
        <ele>638.8</ele>
        <time>2019-05-12T09:34:04Z</time>
      </trkpt>
      <trkpt lat="39.1553630" lon="-1.5778370">
        <ele>638.8</ele>
        <time>2019-05-12T09:34:05Z</time>
      </trkpt>
      <trkpt lat="39.1553710" lon="-1.5778790">
        <ele>638.8</ele>
        <time>2019-05-12T09:34:06Z</time>
      </trkpt>
      <trkpt lat="39.1553820" lon="-1.5779240">
        <ele>638.8</ele>
        <time>2019-05-12T09:34:07Z</time>
      </trkpt>
      <trkpt lat="39.1553960" lon="-1.5779730">
        <ele>639.0</ele>
        <time>2019-05-12T09:34:08Z</time>
      </trkpt>
      <trkpt lat="39.1554140" lon="-1.5780250">
        <ele>639.0</ele>
        <time>2019-05-12T09:34:09Z</time>
      </trkpt>
      <trkpt lat="39.1554320" lon="-1.5780840">
        <ele>639.0</ele>
        <time>2019-05-12T09:34:10Z</time>
      </trkpt>
      <trkpt lat="39.1554470" lon="-1.5781520">
        <ele>639.0</ele>
        <time>2019-05-12T09:34:11Z</time>
      </trkpt>
      <trkpt lat="39.1554510" lon="-1.5782230">
        <ele>639.0</ele>
        <time>2019-05-12T09:34:12Z</time>
      </trkpt>
      <trkpt lat="39.1554440" lon="-1.5782910">
        <ele>639.0</ele>
        <time>2019-05-12T09:34:13Z</time>
      </trkpt>
      <trkpt lat="39.1554200" lon="-1.5783530">
        <ele>639.0</ele>
        <time>2019-05-12T09:34:14Z</time>
      </trkpt>
      <trkpt lat="39.1553880" lon="-1.5784070">
        <ele>639.0</ele>
        <time>2019-05-12T09:34:15Z</time>
      </trkpt>
      <trkpt lat="39.1553510" lon="-1.5784520">
        <ele>639.0</ele>
        <time>2019-05-12T09:34:16Z</time>
      </trkpt>
      <trkpt lat="39.1553140" lon="-1.5784910">
        <ele>638.8</ele>
        <time>2019-05-12T09:34:17Z</time>
      </trkpt>
      <trkpt lat="39.1552780" lon="-1.5785250">
        <ele>638.6</ele>
        <time>2019-05-12T09:34:18Z</time>
      </trkpt>
      <trkpt lat="39.1552400" lon="-1.5785540">
        <ele>638.4</ele>
        <time>2019-05-12T09:34:19Z</time>
      </trkpt>
      <trkpt lat="39.1551990" lon="-1.5785810">
        <ele>638.4</ele>
        <time>2019-05-12T09:34:20Z</time>
      </trkpt>
      <trkpt lat="39.1551550" lon="-1.5786050">
        <ele>638.4</ele>
        <time>2019-05-12T09:34:21Z</time>
      </trkpt>
      <trkpt lat="39.1551100" lon="-1.5786290">
        <ele>638.2</ele>
        <time>2019-05-12T09:34:22Z</time>
      </trkpt>
      <trkpt lat="39.1550640" lon="-1.5786490">
        <ele>638.2</ele>
        <time>2019-05-12T09:34:23Z</time>
      </trkpt>
      <trkpt lat="39.1550160" lon="-1.5786700">
        <ele>638.2</ele>
        <time>2019-05-12T09:34:24Z</time>
      </trkpt>
      <trkpt lat="39.1549680" lon="-1.5786930">
        <ele>638.2</ele>
        <time>2019-05-12T09:34:25Z</time>
      </trkpt>
      <trkpt lat="39.1549220" lon="-1.5787160">
        <ele>638.2</ele>
        <time>2019-05-12T09:34:26Z</time>
      </trkpt>
      <trkpt lat="39.1548760" lon="-1.5787400">
        <ele>638.2</ele>
        <time>2019-05-12T09:34:27Z</time>
      </trkpt>
      <trkpt lat="39.1548300" lon="-1.5787650">
        <ele>638.2</ele>
        <time>2019-05-12T09:34:28Z</time>
      </trkpt>
      <trkpt lat="39.1547840" lon="-1.5787940">
        <ele>638.4</ele>
        <time>2019-05-12T09:34:29Z</time>
      </trkpt>
      <trkpt lat="39.1547370" lon="-1.5788280">
        <ele>638.4</ele>
        <time>2019-05-12T09:34:30Z</time>
      </trkpt>
      <trkpt lat="39.1546920" lon="-1.5788620">
        <ele>638.6</ele>
        <time>2019-05-12T09:34:31Z</time>
      </trkpt>
      <trkpt lat="39.1546460" lon="-1.5788970">
        <ele>638.6</ele>
        <time>2019-05-12T09:34:32Z</time>
      </trkpt>
      <trkpt lat="39.1545950" lon="-1.5789340">
        <ele>638.8</ele>
        <time>2019-05-12T09:34:33Z</time>
      </trkpt>
      <trkpt lat="39.1545380" lon="-1.5789690">
        <ele>638.8</ele>
        <time>2019-05-12T09:34:34Z</time>
      </trkpt>
      <trkpt lat="39.1544780" lon="-1.5790000">
        <ele>638.8</ele>
        <time>2019-05-12T09:34:35Z</time>
      </trkpt>
      <trkpt lat="39.1544210" lon="-1.5790270">
        <ele>638.8</ele>
        <time>2019-05-12T09:34:36Z</time>
      </trkpt>
      <trkpt lat="39.1543690" lon="-1.5790540">
        <ele>638.8</ele>
        <time>2019-05-12T09:34:37Z</time>
      </trkpt>
      <trkpt lat="39.1543200" lon="-1.5790840">
        <ele>638.8</ele>
        <time>2019-05-12T09:34:38Z</time>
      </trkpt>
      <trkpt lat="39.1542720" lon="-1.5791150">
        <ele>638.8</ele>
        <time>2019-05-12T09:34:39Z</time>
      </trkpt>
      <trkpt lat="39.1542250" lon="-1.5791450">
        <ele>638.8</ele>
        <time>2019-05-12T09:34:40Z</time>
      </trkpt>
      <trkpt lat="39.1541800" lon="-1.5791670">
        <ele>638.8</ele>
        <time>2019-05-12T09:34:41Z</time>
      </trkpt>
      <trkpt lat="39.1541410" lon="-1.5791830">
        <ele>638.2</ele>
        <time>2019-05-12T09:34:42Z</time>
      </trkpt>
      <trkpt lat="39.1541150" lon="-1.5791990">
        <ele>638.0</ele>
        <time>2019-05-12T09:34:43Z</time>
      </trkpt>
      <trkpt lat="39.1540990" lon="-1.5792150">
        <ele>638.0</ele>
        <time>2019-05-12T09:34:44Z</time>
      </trkpt>
      <trkpt lat="39.1540850" lon="-1.5792360">
        <ele>637.8</ele>
        <time>2019-05-12T09:34:45Z</time>
      </trkpt>
      <trkpt lat="39.1540660" lon="-1.5792660">
        <ele>637.8</ele>
        <time>2019-05-12T09:34:46Z</time>
      </trkpt>
      <trkpt lat="39.1540400" lon="-1.5792950">
        <ele>637.8</ele>
        <time>2019-05-12T09:34:47Z</time>
      </trkpt>
      <trkpt lat="39.1540050" lon="-1.5793230">
        <ele>637.6</ele>
        <time>2019-05-12T09:34:48Z</time>
      </trkpt>
      <trkpt lat="39.1539650" lon="-1.5793550">
        <ele>637.6</ele>
        <time>2019-05-12T09:34:49Z</time>
      </trkpt>
      <trkpt lat="39.1539180" lon="-1.5793820">
        <ele>637.6</ele>
        <time>2019-05-12T09:34:50Z</time>
      </trkpt>
      <trkpt lat="39.1538630" lon="-1.5794060">
        <ele>637.4</ele>
        <time>2019-05-12T09:34:51Z</time>
      </trkpt>
      <trkpt lat="39.1538160" lon="-1.5794150">
        <ele>637.4</ele>
        <time>2019-05-12T09:34:52Z</time>
      </trkpt>
      <trkpt lat="39.1537780" lon="-1.5794170">
        <ele>637.0</ele>
        <time>2019-05-12T09:34:53Z</time>
      </trkpt>
      <trkpt lat="39.1537440" lon="-1.5794240">
        <ele>636.6</ele>
        <time>2019-05-12T09:34:54Z</time>
      </trkpt>
      <trkpt lat="39.1537190" lon="-1.5794480">
        <ele>635.8</ele>
        <time>2019-05-12T09:34:55Z</time>
      </trkpt>
      <trkpt lat="39.1537150" lon="-1.5794880">
        <ele>635.4</ele>
        <time>2019-05-12T09:34:56Z</time>
      </trkpt>
      <trkpt lat="39.1537260" lon="-1.5795240">
        <ele>634.8</ele>
        <time>2019-05-12T09:34:57Z</time>
      </trkpt>
      <trkpt lat="39.1537450" lon="-1.5795530">
        <ele>634.0</ele>
        <time>2019-05-12T09:34:58Z</time>
      </trkpt>
      <trkpt lat="39.1537700" lon="-1.5795730">
        <ele>633.4</ele>
        <time>2019-05-12T09:34:59Z</time>
      </trkpt>
      <trkpt lat="39.1537980" lon="-1.5795890">
        <ele>633.0</ele>
        <time>2019-05-12T09:35:00Z</time>
      </trkpt>
      <trkpt lat="39.1538230" lon="-1.5796070">
        <ele>632.8</ele>
        <time>2019-05-12T09:35:01Z</time>
      </trkpt>
      <trkpt lat="39.1538470" lon="-1.5796230">
        <ele>632.8</ele>
        <time>2019-05-12T09:35:02Z</time>
      </trkpt>
      <trkpt lat="39.1538670" lon="-1.5796360">
        <ele>632.6</ele>
        <time>2019-05-12T09:35:03Z</time>
      </trkpt>
      <trkpt lat="39.1538880" lon="-1.5796510">
        <ele>632.6</ele>
        <time>2019-05-12T09:35:04Z</time>
      </trkpt>
      <trkpt lat="39.1539080" lon="-1.5796710">
        <ele>632.6</ele>
        <time>2019-05-12T09:35:05Z</time>
      </trkpt>
      <trkpt lat="39.1539270" lon="-1.5796950">
        <ele>632.6</ele>
        <time>2019-05-12T09:35:06Z</time>
      </trkpt>
      <trkpt lat="39.1539460" lon="-1.5797200">
        <ele>632.6</ele>
        <time>2019-05-12T09:35:07Z</time>
      </trkpt>
      <trkpt lat="39.1539660" lon="-1.5797440">
        <ele>632.6</ele>
        <time>2019-05-12T09:35:08Z</time>
      </trkpt>
      <trkpt lat="39.1539890" lon="-1.5797730">
        <ele>632.8</ele>
        <time>2019-05-12T09:35:09Z</time>
      </trkpt>
      <trkpt lat="39.1540090" lon="-1.5798120">
        <ele>632.8</ele>
        <time>2019-05-12T09:35:10Z</time>
      </trkpt>
      <trkpt lat="39.1540250" lon="-1.5798580">
        <ele>633.0</ele>
        <time>2019-05-12T09:35:11Z</time>
      </trkpt>
      <trkpt lat="39.1540390" lon="-1.5799080">
        <ele>633.0</ele>
        <time>2019-05-12T09:35:12Z</time>
      </trkpt>
      <trkpt lat="39.1540470" lon="-1.5799630">
        <ele>633.2</ele>
        <time>2019-05-12T09:35:13Z</time>
      </trkpt>
      <trkpt lat="39.1540500" lon="-1.5800170">
        <ele>633.4</ele>
        <time>2019-05-12T09:35:14Z</time>
      </trkpt>
      <trkpt lat="39.1540460" lon="-1.5800720">
        <ele>633.6</ele>
        <time>2019-05-12T09:35:15Z</time>
      </trkpt>
      <trkpt lat="39.1540340" lon="-1.5801210">
        <ele>633.8</ele>
        <time>2019-05-12T09:35:16Z</time>
      </trkpt>
      <trkpt lat="39.1540190" lon="-1.5801650">
        <ele>634.0</ele>
        <time>2019-05-12T09:35:17Z</time>
      </trkpt>
      <trkpt lat="39.1540020" lon="-1.5802090">
        <ele>634.2</ele>
        <time>2019-05-12T09:35:18Z</time>
      </trkpt>
      <trkpt lat="39.1539780" lon="-1.5802510">
        <ele>634.2</ele>
        <time>2019-05-12T09:35:19Z</time>
      </trkpt>
      <trkpt lat="39.1539480" lon="-1.5802880">
        <ele>634.2</ele>
        <time>2019-05-12T09:35:20Z</time>
      </trkpt>
      <trkpt lat="39.1539180" lon="-1.5803250">
        <ele>634.4</ele>
        <time>2019-05-12T09:35:21Z</time>
      </trkpt>
      <trkpt lat="39.1538820" lon="-1.5803510">
        <ele>634.4</ele>
        <time>2019-05-12T09:35:22Z</time>
      </trkpt>
      <trkpt lat="39.1538450" lon="-1.5803740">
        <ele>634.4</ele>
        <time>2019-05-12T09:35:23Z</time>
      </trkpt>
      <trkpt lat="39.1538140" lon="-1.5804040">
        <ele>634.4</ele>
        <time>2019-05-12T09:35:24Z</time>
      </trkpt>
      <trkpt lat="39.1537890" lon="-1.5804430">
        <ele>634.6</ele>
        <time>2019-05-12T09:35:25Z</time>
      </trkpt>
      <trkpt lat="39.1537650" lon="-1.5804800">
        <ele>634.6</ele>
        <time>2019-05-12T09:35:26Z</time>
      </trkpt>
      <trkpt lat="39.1537390" lon="-1.5805230">
        <ele>634.8</ele>
        <time>2019-05-12T09:35:27Z</time>
      </trkpt>
      <trkpt lat="39.1537270" lon="-1.5805690">
        <ele>634.8</ele>
        <time>2019-05-12T09:35:28Z</time>
      </trkpt>
      <trkpt lat="39.1537300" lon="-1.5806150">
        <ele>635.0</ele>
        <time>2019-05-12T09:35:29Z</time>
      </trkpt>
      <trkpt lat="39.1537350" lon="-1.5806650">
        <ele>635.2</ele>
        <time>2019-05-12T09:35:30Z</time>
      </trkpt>
      <trkpt lat="39.1537370" lon="-1.5807190">
        <ele>635.2</ele>
        <time>2019-05-12T09:35:31Z</time>
      </trkpt>
      <trkpt lat="39.1537310" lon="-1.5807740">
        <ele>635.2</ele>
        <time>2019-05-12T09:35:32Z</time>
      </trkpt>
      <trkpt lat="39.1537100" lon="-1.5808240">
        <ele>635.2</ele>
        <time>2019-05-12T09:35:33Z</time>
      </trkpt>
      <trkpt lat="39.1536760" lon="-1.5808660">
        <ele>635.2</ele>
        <time>2019-05-12T09:35:34Z</time>
      </trkpt>
      <trkpt lat="39.1536380" lon="-1.5809010">
        <ele>635.2</ele>
        <time>2019-05-12T09:35:35Z</time>
      </trkpt>
      <trkpt lat="39.1535970" lon="-1.5809300">
        <ele>635.2</ele>
        <time>2019-05-12T09:35:36Z</time>
      </trkpt>
      <trkpt lat="39.1535600" lon="-1.5809600">
        <ele>635.2</ele>
        <time>2019-05-12T09:35:37Z</time>
      </trkpt>
      <trkpt lat="39.1535270" lon="-1.5809960">
        <ele>635.0</ele>
        <time>2019-05-12T09:35:38Z</time>
      </trkpt>
      <trkpt lat="39.1534980" lon="-1.5810250">
        <ele>635.2</ele>
        <time>2019-05-12T09:35:39Z</time>
      </trkpt>
      <trkpt lat="39.1534770" lon="-1.5810510">
        <ele>635.0</ele>
        <time>2019-05-12T09:35:40Z</time>
      </trkpt>
      <trkpt lat="39.1534570" lon="-1.5810760">
        <ele>635.0</ele>
        <time>2019-05-12T09:35:41Z</time>
      </trkpt>
      <trkpt lat="39.1534470" lon="-1.5811060">
        <ele>635.0</ele>
        <time>2019-05-12T09:35:42Z</time>
      </trkpt>
      <trkpt lat="39.1534470" lon="-1.5811340">
        <ele>635.0</ele>
        <time>2019-05-12T09:35:43Z</time>
      </trkpt>
      <trkpt lat="39.1534500" lon="-1.5811600">
        <ele>635.0</ele>
        <time>2019-05-12T09:35:44Z</time>
      </trkpt>
      <trkpt lat="39.1534560" lon="-1.5811890">
        <ele>635.0</ele>
        <time>2019-05-12T09:35:45Z</time>
      </trkpt>
      <trkpt lat="39.1534680" lon="-1.5812220">
        <ele>635.0</ele>
        <time>2019-05-12T09:35:46Z</time>
      </trkpt>
      <trkpt lat="39.1534850" lon="-1.5812610">
        <ele>635.0</ele>
        <time>2019-05-12T09:35:47Z</time>
      </trkpt>
      <trkpt lat="39.1535030" lon="-1.5813050">
        <ele>635.0</ele>
        <time>2019-05-12T09:35:48Z</time>
      </trkpt>
      <trkpt lat="39.1535190" lon="-1.5813530">
        <ele>635.0</ele>
        <time>2019-05-12T09:35:49Z</time>
      </trkpt>
      <trkpt lat="39.1535280" lon="-1.5814030">
        <ele>635.2</ele>
        <time>2019-05-12T09:35:50Z</time>
      </trkpt>
      <trkpt lat="39.1535290" lon="-1.5814520">
        <ele>635.4</ele>
        <time>2019-05-12T09:35:51Z</time>
      </trkpt>
      <trkpt lat="39.1535290" lon="-1.5814990">
        <ele>635.4</ele>
        <time>2019-05-12T09:35:52Z</time>
      </trkpt>
      <trkpt lat="39.1535320" lon="-1.5815440">
        <ele>635.6</ele>
        <time>2019-05-12T09:35:53Z</time>
      </trkpt>
      <trkpt lat="39.1535380" lon="-1.5815880">
        <ele>635.8</ele>
        <time>2019-05-12T09:35:54Z</time>
      </trkpt>
      <trkpt lat="39.1535390" lon="-1.5816330">
        <ele>635.8</ele>
        <time>2019-05-12T09:35:55Z</time>
      </trkpt>
      <trkpt lat="39.1535290" lon="-1.5816800">
        <ele>636.0</ele>
        <time>2019-05-12T09:35:56Z</time>
      </trkpt>
      <trkpt lat="39.1535120" lon="-1.5817250">
        <ele>636.0</ele>
        <time>2019-05-12T09:35:57Z</time>
      </trkpt>
      <trkpt lat="39.1534850" lon="-1.5817660">
        <ele>636.2</ele>
        <time>2019-05-12T09:35:58Z</time>
      </trkpt>
      <trkpt lat="39.1534690" lon="-1.5818040">
        <ele>636.2</ele>
        <time>2019-05-12T09:35:59Z</time>
      </trkpt>
      <trkpt lat="39.1534640" lon="-1.5818420">
        <ele>636.2</ele>
        <time>2019-05-12T09:36:00Z</time>
      </trkpt>
      <trkpt lat="39.1534610" lon="-1.5818810">
        <ele>636.4</ele>
        <time>2019-05-12T09:36:01Z</time>
      </trkpt>
      <trkpt lat="39.1534620" lon="-1.5819240">
        <ele>636.4</ele>
        <time>2019-05-12T09:36:02Z</time>
      </trkpt>
      <trkpt lat="39.1534660" lon="-1.5819710">
        <ele>636.4</ele>
        <time>2019-05-12T09:36:03Z</time>
      </trkpt>
      <trkpt lat="39.1534750" lon="-1.5820180">
        <ele>636.4</ele>
        <time>2019-05-12T09:36:04Z</time>
      </trkpt>
      <trkpt lat="39.1534910" lon="-1.5820680">
        <ele>636.6</ele>
        <time>2019-05-12T09:36:05Z</time>
      </trkpt>
      <trkpt lat="39.1534980" lon="-1.5821270">
        <ele>636.6</ele>
        <time>2019-05-12T09:36:06Z</time>
      </trkpt>
      <trkpt lat="39.1535000" lon="-1.5821850">
        <ele>636.6</ele>
        <time>2019-05-12T09:36:07Z</time>
      </trkpt>
      <trkpt lat="39.1535140" lon="-1.5822380">
        <ele>636.6</ele>
        <time>2019-05-12T09:36:08Z</time>
      </trkpt>
      <trkpt lat="39.1535320" lon="-1.5822880">
        <ele>636.6</ele>
        <time>2019-05-12T09:36:09Z</time>
      </trkpt>
      <trkpt lat="39.1535510" lon="-1.5823440">
        <ele>636.6</ele>
        <time>2019-05-12T09:36:10Z</time>
      </trkpt>
      <trkpt lat="39.1535670" lon="-1.5824060">
        <ele>636.6</ele>
        <time>2019-05-12T09:36:11Z</time>
      </trkpt>
      <trkpt lat="39.1535780" lon="-1.5824660">
        <ele>636.6</ele>
        <time>2019-05-12T09:36:12Z</time>
      </trkpt>
      <trkpt lat="39.1535800" lon="-1.5825250">
        <ele>636.6</ele>
        <time>2019-05-12T09:36:13Z</time>
      </trkpt>
      <trkpt lat="39.1535660" lon="-1.5825800">
        <ele>636.6</ele>
        <time>2019-05-12T09:36:14Z</time>
      </trkpt>
      <trkpt lat="39.1535440" lon="-1.5826330">
        <ele>636.6</ele>
        <time>2019-05-12T09:36:15Z</time>
      </trkpt>
      <trkpt lat="39.1535200" lon="-1.5826860">
        <ele>636.6</ele>
        <time>2019-05-12T09:36:16Z</time>
      </trkpt>
      <trkpt lat="39.1534990" lon="-1.5827400">
        <ele>636.6</ele>
        <time>2019-05-12T09:36:17Z</time>
      </trkpt>
      <trkpt lat="39.1534890" lon="-1.5827940">
        <ele>636.6</ele>
        <time>2019-05-12T09:36:18Z</time>
      </trkpt>
      <trkpt lat="39.1534800" lon="-1.5828450">
        <ele>636.6</ele>
        <time>2019-05-12T09:36:19Z</time>
      </trkpt>
      <trkpt lat="39.1534730" lon="-1.5828960">
        <ele>636.6</ele>
        <time>2019-05-12T09:36:20Z</time>
      </trkpt>
      <trkpt lat="39.1534700" lon="-1.5829480">
        <ele>636.6</ele>
        <time>2019-05-12T09:36:21Z</time>
      </trkpt>
      <trkpt lat="39.1534710" lon="-1.5830040">
        <ele>636.6</ele>
        <time>2019-05-12T09:36:22Z</time>
      </trkpt>
      <trkpt lat="39.1534700" lon="-1.5830610">
        <ele>636.6</ele>
        <time>2019-05-12T09:36:23Z</time>
      </trkpt>
      <trkpt lat="39.1534710" lon="-1.5831190">
        <ele>636.6</ele>
        <time>2019-05-12T09:36:24Z</time>
      </trkpt>
      <trkpt lat="39.1534700" lon="-1.5831760">
        <ele>636.6</ele>
        <time>2019-05-12T09:36:25Z</time>
      </trkpt>
      <trkpt lat="39.1534680" lon="-1.5832290">
        <ele>636.6</ele>
        <time>2019-05-12T09:36:26Z</time>
      </trkpt>
      <trkpt lat="39.1534690" lon="-1.5832680">
        <ele>636.8</ele>
        <time>2019-05-12T09:36:27Z</time>
      </trkpt>
      <trkpt lat="39.1534770" lon="-1.5832960">
        <ele>637.0</ele>
        <time>2019-05-12T09:36:28Z</time>
      </trkpt>
      <trkpt lat="39.1534920" lon="-1.5833320">
        <ele>637.0</ele>
        <time>2019-05-12T09:36:29Z</time>
      </trkpt>
      <trkpt lat="39.1535060" lon="-1.5833690">
        <ele>637.0</ele>
        <time>2019-05-12T09:36:30Z</time>
      </trkpt>
      <trkpt lat="39.1535240" lon="-1.5834130">
        <ele>637.0</ele>
        <time>2019-05-12T09:36:31Z</time>
      </trkpt>
      <trkpt lat="39.1535450" lon="-1.5834540">
        <ele>637.0</ele>
        <time>2019-05-12T09:36:32Z</time>
      </trkpt>
      <trkpt lat="39.1535730" lon="-1.5834810">
        <ele>637.0</ele>
        <time>2019-05-12T09:36:33Z</time>
      </trkpt>
      <trkpt lat="39.1536050" lon="-1.5835030">
        <ele>637.0</ele>
        <time>2019-05-12T09:36:34Z</time>
      </trkpt>
      <trkpt lat="39.1536330" lon="-1.5835300">
        <ele>637.0</ele>
        <time>2019-05-12T09:36:35Z</time>
      </trkpt>
      <trkpt lat="39.1536590" lon="-1.5835590">
        <ele>637.0</ele>
        <time>2019-05-12T09:36:36Z</time>
      </trkpt>
      <trkpt lat="39.1536890" lon="-1.5835810">
        <ele>637.0</ele>
        <time>2019-05-12T09:36:37Z</time>
      </trkpt>
      <trkpt lat="39.1537260" lon="-1.5835980">
        <ele>636.8</ele>
        <time>2019-05-12T09:36:38Z</time>
      </trkpt>
      <trkpt lat="39.1537620" lon="-1.5836130">
        <ele>636.6</ele>
        <time>2019-05-12T09:36:39Z</time>
      </trkpt>
      <trkpt lat="39.1537880" lon="-1.5836310">
        <ele>636.4</ele>
        <time>2019-05-12T09:36:40Z</time>
      </trkpt>
      <trkpt lat="39.1538100" lon="-1.5836500">
        <ele>635.8</ele>
        <time>2019-05-12T09:36:41Z</time>
      </trkpt>
      <trkpt lat="39.1538310" lon="-1.5836640">
        <ele>635.0</ele>
        <time>2019-05-12T09:36:42Z</time>
      </trkpt>
      <trkpt lat="39.1538530" lon="-1.5836750">
        <ele>634.2</ele>
        <time>2019-05-12T09:36:43Z</time>
      </trkpt>
      <trkpt lat="39.1538770" lon="-1.5836790">
        <ele>633.4</ele>
        <time>2019-05-12T09:36:44Z</time>
      </trkpt>
      <trkpt lat="39.1539040" lon="-1.5836850">
        <ele>632.4</ele>
        <time>2019-05-12T09:36:45Z</time>
      </trkpt>
      <trkpt lat="39.1539250" lon="-1.5837050">
        <ele>631.6</ele>
        <time>2019-05-12T09:36:46Z</time>
      </trkpt>
      <trkpt lat="39.1539430" lon="-1.5837420">
        <ele>630.8</ele>
        <time>2019-05-12T09:36:47Z</time>
      </trkpt>
      <trkpt lat="39.1539670" lon="-1.5837870">
        <ele>629.8</ele>
        <time>2019-05-12T09:36:48Z</time>
      </trkpt>
      <trkpt lat="39.1539860" lon="-1.5838390">
        <ele>629.0</ele>
        <time>2019-05-12T09:36:49Z</time>
      </trkpt>
      <trkpt lat="39.1540050" lon="-1.5838910">
        <ele>628.2</ele>
        <time>2019-05-12T09:36:50Z</time>
      </trkpt>
      <trkpt lat="39.1540140" lon="-1.5839420">
        <ele>627.6</ele>
        <time>2019-05-12T09:36:51Z</time>
      </trkpt>
      <trkpt lat="39.1540270" lon="-1.5839860">
        <ele>626.8</ele>
        <time>2019-05-12T09:36:52Z</time>
      </trkpt>
      <trkpt lat="39.1540410" lon="-1.5840430">
        <ele>626.0</ele>
        <time>2019-05-12T09:36:53Z</time>
      </trkpt>
      <trkpt lat="39.1540590" lon="-1.5841200">
        <ele>625.4</ele>
        <time>2019-05-12T09:36:54Z</time>
      </trkpt>
      <trkpt lat="39.1540840" lon="-1.5841990">
        <ele>624.8</ele>
        <time>2019-05-12T09:36:55Z</time>
      </trkpt>
      <trkpt lat="39.1541090" lon="-1.5842690">
        <ele>624.2</ele>
        <time>2019-05-12T09:36:56Z</time>
      </trkpt>
      <trkpt lat="39.1541280" lon="-1.5843320">
        <ele>623.6</ele>
        <time>2019-05-12T09:36:57Z</time>
      </trkpt>
      <trkpt lat="39.1541420" lon="-1.5843930">
        <ele>623.0</ele>
        <time>2019-05-12T09:36:58Z</time>
      </trkpt>
      <trkpt lat="39.1541520" lon="-1.5844390">
        <ele>622.4</ele>
        <time>2019-05-12T09:36:59Z</time>
      </trkpt>
      <trkpt lat="39.1541640" lon="-1.5844830">
        <ele>621.8</ele>
        <time>2019-05-12T09:37:00Z</time>
      </trkpt>
      <trkpt lat="39.1541760" lon="-1.5845270">
        <ele>621.2</ele>
        <time>2019-05-12T09:37:01Z</time>
      </trkpt>
      <trkpt lat="39.1541880" lon="-1.5845710">
        <ele>620.6</ele>
        <time>2019-05-12T09:37:02Z</time>
      </trkpt>
      <trkpt lat="39.1542010" lon="-1.5846130">
        <ele>620.4</ele>
        <time>2019-05-12T09:37:03Z</time>
      </trkpt>
      <trkpt lat="39.1542140" lon="-1.5846520">
        <ele>620.4</ele>
        <time>2019-05-12T09:37:04Z</time>
      </trkpt>
      <trkpt lat="39.1542240" lon="-1.5846910">
        <ele>620.4</ele>
        <time>2019-05-12T09:37:05Z</time>
      </trkpt>
      <trkpt lat="39.1542330" lon="-1.5847280">
        <ele>620.4</ele>
        <time>2019-05-12T09:37:06Z</time>
      </trkpt>
      <trkpt lat="39.1542400" lon="-1.5847660">
        <ele>620.4</ele>
        <time>2019-05-12T09:37:07Z</time>
      </trkpt>
      <trkpt lat="39.1542460" lon="-1.5848020">
        <ele>620.4</ele>
        <time>2019-05-12T09:37:08Z</time>
      </trkpt>
      <trkpt lat="39.1542460" lon="-1.5848020">
        <ele>620.4</ele>
        <time>2019-05-12T09:37:09Z</time>
      </trkpt>
      <trkpt lat="39.1542510" lon="-1.5848370">
        <ele>620.6</ele>
        <time>2019-05-12T09:37:10Z</time>
      </trkpt>
      <trkpt lat="39.1542360" lon="-1.5848980">
        <ele>620.6</ele>
        <time>2019-05-12T09:37:11Z</time>
      </trkpt>
      <trkpt lat="39.1542120" lon="-1.5849150">
        <ele>620.8</ele>
        <time>2019-05-12T09:37:12Z</time>
      </trkpt>
      <trkpt lat="39.1541810" lon="-1.5849200">
        <ele>621.2</ele>
        <time>2019-05-12T09:37:13Z</time>
      </trkpt>
      <trkpt lat="39.1541470" lon="-1.5849220">
        <ele>621.4</ele>
        <time>2019-05-12T09:37:14Z</time>
      </trkpt>
      <trkpt lat="39.1541100" lon="-1.5849220">
        <ele>621.8</ele>
        <time>2019-05-12T09:37:15Z</time>
      </trkpt>
      <trkpt lat="39.1540710" lon="-1.5849240">
        <ele>622.2</ele>
        <time>2019-05-12T09:37:16Z</time>
      </trkpt>
      <trkpt lat="39.1540320" lon="-1.5849240">
        <ele>622.4</ele>
        <time>2019-05-12T09:37:17Z</time>
      </trkpt>
      <trkpt lat="39.1539930" lon="-1.5849260">
        <ele>622.8</ele>
        <time>2019-05-12T09:37:18Z</time>
      </trkpt>
      <trkpt lat="39.1539540" lon="-1.5849280">
        <ele>623.2</ele>
        <time>2019-05-12T09:37:19Z</time>
      </trkpt>
      <trkpt lat="39.1539160" lon="-1.5849310">
        <ele>623.4</ele>
        <time>2019-05-12T09:37:20Z</time>
      </trkpt>
      <trkpt lat="39.1538800" lon="-1.5849340">
        <ele>623.6</ele>
        <time>2019-05-12T09:37:21Z</time>
      </trkpt>
      <trkpt lat="39.1538480" lon="-1.5849390">
        <ele>623.8</ele>
        <time>2019-05-12T09:37:22Z</time>
      </trkpt>
      <trkpt lat="39.1538140" lon="-1.5849440">
        <ele>624.0</ele>
        <time>2019-05-12T09:37:23Z</time>
      </trkpt>
      <trkpt lat="39.1537780" lon="-1.5849550">
        <ele>624.2</ele>
        <time>2019-05-12T09:37:24Z</time>
      </trkpt>
      <trkpt lat="39.1537420" lon="-1.5849700">
        <ele>624.2</ele>
        <time>2019-05-12T09:37:25Z</time>
      </trkpt>
      <trkpt lat="39.1537060" lon="-1.5849900">
        <ele>624.2</ele>
        <time>2019-05-12T09:37:26Z</time>
      </trkpt>
      <trkpt lat="39.1536740" lon="-1.5850150">
        <ele>624.2</ele>
        <time>2019-05-12T09:37:27Z</time>
      </trkpt>
      <trkpt lat="39.1536440" lon="-1.5850430">
        <ele>624.2</ele>
        <time>2019-05-12T09:37:28Z</time>
      </trkpt>
      <trkpt lat="39.1536130" lon="-1.5850710">
        <ele>624.4</ele>
        <time>2019-05-12T09:37:29Z</time>
      </trkpt>
      <trkpt lat="39.1535820" lon="-1.5850990">
        <ele>624.4</ele>
        <time>2019-05-12T09:37:30Z</time>
      </trkpt>
      <trkpt lat="39.1535500" lon="-1.5851260">
        <ele>624.6</ele>
        <time>2019-05-12T09:37:31Z</time>
      </trkpt>
      <trkpt lat="39.1535150" lon="-1.5851510">
        <ele>624.8</ele>
        <time>2019-05-12T09:37:32Z</time>
      </trkpt>
      <trkpt lat="39.1534780" lon="-1.5851740">
        <ele>625.0</ele>
        <time>2019-05-12T09:37:33Z</time>
      </trkpt>
      <trkpt lat="39.1534390" lon="-1.5851960">
        <ele>625.0</ele>
        <time>2019-05-12T09:37:34Z</time>
      </trkpt>
      <trkpt lat="39.1533980" lon="-1.5852180">
        <ele>625.0</ele>
        <time>2019-05-12T09:37:35Z</time>
      </trkpt>
      <trkpt lat="39.1533560" lon="-1.5852410">
        <ele>625.2</ele>
        <time>2019-05-12T09:37:36Z</time>
      </trkpt>
      <trkpt lat="39.1533150" lon="-1.5852590">
        <ele>625.4</ele>
        <time>2019-05-12T09:37:37Z</time>
      </trkpt>
      <trkpt lat="39.1532730" lon="-1.5852760">
        <ele>625.6</ele>
        <time>2019-05-12T09:37:38Z</time>
      </trkpt>
      <trkpt lat="39.1532310" lon="-1.5852930">
        <ele>625.8</ele>
        <time>2019-05-12T09:37:39Z</time>
      </trkpt>
      <trkpt lat="39.1531920" lon="-1.5853090">
        <ele>626.0</ele>
        <time>2019-05-12T09:37:40Z</time>
      </trkpt>
      <trkpt lat="39.1531510" lon="-1.5853240">
        <ele>626.0</ele>
        <time>2019-05-12T09:37:41Z</time>
      </trkpt>
      <trkpt lat="39.1531090" lon="-1.5853360">
        <ele>626.2</ele>
        <time>2019-05-12T09:37:42Z</time>
      </trkpt>
      <trkpt lat="39.1530670" lon="-1.5853440">
        <ele>626.2</ele>
        <time>2019-05-12T09:37:43Z</time>
      </trkpt>
      <trkpt lat="39.1530230" lon="-1.5853490">
        <ele>626.2</ele>
        <time>2019-05-12T09:37:44Z</time>
      </trkpt>
      <trkpt lat="39.1529780" lon="-1.5853530">
        <ele>626.4</ele>
        <time>2019-05-12T09:37:45Z</time>
      </trkpt>
      <trkpt lat="39.1529330" lon="-1.5853570">
        <ele>626.4</ele>
        <time>2019-05-12T09:37:46Z</time>
      </trkpt>
      <trkpt lat="39.1528870" lon="-1.5853650">
        <ele>626.4</ele>
        <time>2019-05-12T09:37:47Z</time>
      </trkpt>
      <trkpt lat="39.1528410" lon="-1.5853790">
        <ele>626.6</ele>
        <time>2019-05-12T09:37:48Z</time>
      </trkpt>
      <trkpt lat="39.1527980" lon="-1.5853980">
        <ele>626.8</ele>
        <time>2019-05-12T09:37:49Z</time>
      </trkpt>
      <trkpt lat="39.1527600" lon="-1.5854210">
        <ele>627.0</ele>
        <time>2019-05-12T09:37:50Z</time>
      </trkpt>
      <trkpt lat="39.1527240" lon="-1.5854450">
        <ele>627.2</ele>
        <time>2019-05-12T09:37:51Z</time>
      </trkpt>
      <trkpt lat="39.1526910" lon="-1.5854730">
        <ele>627.4</ele>
        <time>2019-05-12T09:37:52Z</time>
      </trkpt>
      <trkpt lat="39.1526620" lon="-1.5855040">
        <ele>627.6</ele>
        <time>2019-05-12T09:37:53Z</time>
      </trkpt>
      <trkpt lat="39.1526350" lon="-1.5855360">
        <ele>627.6</ele>
        <time>2019-05-12T09:37:54Z</time>
      </trkpt>
      <trkpt lat="39.1526120" lon="-1.5855700">
        <ele>627.6</ele>
        <time>2019-05-12T09:37:55Z</time>
      </trkpt>
      <trkpt lat="39.1525940" lon="-1.5856030">
        <ele>627.6</ele>
        <time>2019-05-12T09:37:56Z</time>
      </trkpt>
      <trkpt lat="39.1525770" lon="-1.5856370">
        <ele>627.8</ele>
        <time>2019-05-12T09:37:57Z</time>
      </trkpt>
      <trkpt lat="39.1525580" lon="-1.5856710">
        <ele>627.8</ele>
        <time>2019-05-12T09:37:58Z</time>
      </trkpt>
      <trkpt lat="39.1525380" lon="-1.5857050">
        <ele>627.8</ele>
        <time>2019-05-12T09:37:59Z</time>
      </trkpt>
      <trkpt lat="39.1525190" lon="-1.5857390">
        <ele>628.0</ele>
        <time>2019-05-12T09:38:00Z</time>
      </trkpt>
      <trkpt lat="39.1524990" lon="-1.5857740">
        <ele>628.2</ele>
        <time>2019-05-12T09:38:01Z</time>
      </trkpt>
      <trkpt lat="39.1524790" lon="-1.5858090">
        <ele>628.4</ele>
        <time>2019-05-12T09:38:02Z</time>
      </trkpt>
      <trkpt lat="39.1524620" lon="-1.5858440">
        <ele>628.4</ele>
        <time>2019-05-12T09:38:03Z</time>
      </trkpt>
      <trkpt lat="39.1524450" lon="-1.5858780">
        <ele>628.6</ele>
        <time>2019-05-12T09:38:04Z</time>
      </trkpt>
      <trkpt lat="39.1524270" lon="-1.5859130">
        <ele>628.8</ele>
        <time>2019-05-12T09:38:05Z</time>
      </trkpt>
      <trkpt lat="39.1524090" lon="-1.5859490">
        <ele>629.0</ele>
        <time>2019-05-12T09:38:06Z</time>
      </trkpt>
      <trkpt lat="39.1523900" lon="-1.5859810">
        <ele>629.2</ele>
        <time>2019-05-12T09:38:07Z</time>
      </trkpt>
      <trkpt lat="39.1523730" lon="-1.5860140">
        <ele>629.4</ele>
        <time>2019-05-12T09:38:08Z</time>
      </trkpt>
      <trkpt lat="39.1523570" lon="-1.5860470">
        <ele>629.6</ele>
        <time>2019-05-12T09:38:09Z</time>
      </trkpt>
      <trkpt lat="39.1523390" lon="-1.5860800">
        <ele>629.8</ele>
        <time>2019-05-12T09:38:10Z</time>
      </trkpt>
      <trkpt lat="39.1523190" lon="-1.5861150">
        <ele>630.0</ele>
        <time>2019-05-12T09:38:11Z</time>
      </trkpt>
      <trkpt lat="39.1523000" lon="-1.5861500">
        <ele>630.4</ele>
        <time>2019-05-12T09:38:12Z</time>
      </trkpt>
      <trkpt lat="39.1522820" lon="-1.5861840">
        <ele>630.6</ele>
        <time>2019-05-12T09:38:13Z</time>
      </trkpt>
      <trkpt lat="39.1522640" lon="-1.5862180">
        <ele>630.8</ele>
        <time>2019-05-12T09:38:14Z</time>
      </trkpt>
      <trkpt lat="39.1522480" lon="-1.5862500">
        <ele>631.0</ele>
        <time>2019-05-12T09:38:15Z</time>
      </trkpt>
      <trkpt lat="39.1522320" lon="-1.5862800">
        <ele>631.2</ele>
        <time>2019-05-12T09:38:16Z</time>
      </trkpt>
      <trkpt lat="39.1522180" lon="-1.5863090">
        <ele>631.4</ele>
        <time>2019-05-12T09:38:17Z</time>
      </trkpt>
      <trkpt lat="39.1522040" lon="-1.5863400">
        <ele>631.4</ele>
        <time>2019-05-12T09:38:18Z</time>
      </trkpt>
      <trkpt lat="39.1521910" lon="-1.5863730">
        <ele>631.8</ele>
        <time>2019-05-12T09:38:19Z</time>
      </trkpt>
      <trkpt lat="39.1521760" lon="-1.5864080">
        <ele>632.0</ele>
        <time>2019-05-12T09:38:20Z</time>
      </trkpt>
      <trkpt lat="39.1521600" lon="-1.5864430">
        <ele>632.2</ele>
        <time>2019-05-12T09:38:21Z</time>
      </trkpt>
      <trkpt lat="39.1521440" lon="-1.5864770">
        <ele>632.4</ele>
        <time>2019-05-12T09:38:22Z</time>
      </trkpt>
      <trkpt lat="39.1521300" lon="-1.5865120">
        <ele>632.8</ele>
        <time>2019-05-12T09:38:23Z</time>
      </trkpt>
      <trkpt lat="39.1521150" lon="-1.5865470">
        <ele>633.0</ele>
        <time>2019-05-12T09:38:24Z</time>
      </trkpt>
      <trkpt lat="39.1521010" lon="-1.5865840">
        <ele>633.2</ele>
        <time>2019-05-12T09:38:25Z</time>
      </trkpt>
      <trkpt lat="39.1520870" lon="-1.5866220">
        <ele>633.6</ele>
        <time>2019-05-12T09:38:26Z</time>
      </trkpt>
      <trkpt lat="39.1520730" lon="-1.5866610">
        <ele>633.8</ele>
        <time>2019-05-12T09:38:27Z</time>
      </trkpt>
      <trkpt lat="39.1520660" lon="-1.5867040">
        <ele>634.2</ele>
        <time>2019-05-12T09:38:28Z</time>
      </trkpt>
      <trkpt lat="39.1520710" lon="-1.5867470">
        <ele>634.4</ele>
        <time>2019-05-12T09:38:29Z</time>
      </trkpt>
      <trkpt lat="39.1520850" lon="-1.5867950">
        <ele>634.6</ele>
        <time>2019-05-12T09:38:30Z</time>
      </trkpt>
      <trkpt lat="39.1520940" lon="-1.5868480">
        <ele>634.8</ele>
        <time>2019-05-12T09:38:31Z</time>
      </trkpt>
      <trkpt lat="39.1521040" lon="-1.5869080">
        <ele>635.0</ele>
        <time>2019-05-12T09:38:32Z</time>
      </trkpt>
      <trkpt lat="39.1521140" lon="-1.5869750">
        <ele>635.2</ele>
        <time>2019-05-12T09:38:33Z</time>
      </trkpt>
      <trkpt lat="39.1521220" lon="-1.5870470">
        <ele>635.2</ele>
        <time>2019-05-12T09:38:34Z</time>
      </trkpt>
      <trkpt lat="39.1521300" lon="-1.5871240">
        <ele>635.2</ele>
        <time>2019-05-12T09:38:35Z</time>
      </trkpt>
      <trkpt lat="39.1521340" lon="-1.5872000">
        <ele>635.2</ele>
        <time>2019-05-12T09:38:36Z</time>
      </trkpt>
      <trkpt lat="39.1521390" lon="-1.5872830">
        <ele>635.2</ele>
        <time>2019-05-12T09:38:37Z</time>
      </trkpt>
      <trkpt lat="39.1521510" lon="-1.5873690">
        <ele>635.4</ele>
        <time>2019-05-12T09:38:38Z</time>
      </trkpt>
      <trkpt lat="39.1521660" lon="-1.5874550">
        <ele>635.4</ele>
        <time>2019-05-12T09:38:39Z</time>
      </trkpt>
      <trkpt lat="39.1521760" lon="-1.5875440">
        <ele>635.4</ele>
        <time>2019-05-12T09:38:40Z</time>
      </trkpt>
      <trkpt lat="39.1521800" lon="-1.5876360">
        <ele>635.4</ele>
        <time>2019-05-12T09:38:41Z</time>
      </trkpt>
      <trkpt lat="39.1521860" lon="-1.5877290">
        <ele>635.4</ele>
        <time>2019-05-12T09:38:42Z</time>
      </trkpt>
      <trkpt lat="39.1521920" lon="-1.5878070">
        <ele>635.2</ele>
        <time>2019-05-12T09:38:43Z</time>
      </trkpt>
      <trkpt lat="39.1521850" lon="-1.5878780">
        <ele>635.2</ele>
        <time>2019-05-12T09:38:44Z</time>
      </trkpt>
      <trkpt lat="39.1521720" lon="-1.5879540">
        <ele>634.8</ele>
        <time>2019-05-12T09:38:45Z</time>
      </trkpt>
      <trkpt lat="39.1521540" lon="-1.5880320">
        <ele>634.0</ele>
        <time>2019-05-12T09:38:46Z</time>
      </trkpt>
      <trkpt lat="39.1521250" lon="-1.5881080">
        <ele>633.6</ele>
        <time>2019-05-12T09:38:47Z</time>
      </trkpt>
      <trkpt lat="39.1520870" lon="-1.5881780">
        <ele>633.4</ele>
        <time>2019-05-12T09:38:48Z</time>
      </trkpt>
      <trkpt lat="39.1520450" lon="-1.5882450">
        <ele>632.8</ele>
        <time>2019-05-12T09:38:49Z</time>
      </trkpt>
      <trkpt lat="39.1520110" lon="-1.5883110">
        <ele>632.6</ele>
        <time>2019-05-12T09:38:50Z</time>
      </trkpt>
      <trkpt lat="39.1519980" lon="-1.5883770">
        <ele>632.4</ele>
        <time>2019-05-12T09:38:51Z</time>
      </trkpt>
      <trkpt lat="39.1520000" lon="-1.5884470">
        <ele>632.2</ele>
        <time>2019-05-12T09:38:52Z</time>
      </trkpt>
      <trkpt lat="39.1520030" lon="-1.5885150">
        <ele>631.6</ele>
        <time>2019-05-12T09:38:53Z</time>
      </trkpt>
      <trkpt lat="39.1520220" lon="-1.5885770">
        <ele>631.2</ele>
        <time>2019-05-12T09:38:54Z</time>
      </trkpt>
      <trkpt lat="39.1520520" lon="-1.5886360">
        <ele>630.8</ele>
        <time>2019-05-12T09:38:55Z</time>
      </trkpt>
      <trkpt lat="39.1520890" lon="-1.5886970">
        <ele>630.6</ele>
        <time>2019-05-12T09:38:56Z</time>
      </trkpt>
      <trkpt lat="39.1521230" lon="-1.5887680">
        <ele>630.4</ele>
        <time>2019-05-12T09:38:57Z</time>
      </trkpt>
      <trkpt lat="39.1521520" lon="-1.5888430">
        <ele>630.4</ele>
        <time>2019-05-12T09:38:58Z</time>
      </trkpt>
      <trkpt lat="39.1521790" lon="-1.5889180">
        <ele>629.8</ele>
        <time>2019-05-12T09:38:59Z</time>
      </trkpt>
      <trkpt lat="39.1522050" lon="-1.5889930">
        <ele>629.4</ele>
        <time>2019-05-12T09:39:00Z</time>
      </trkpt>
      <trkpt lat="39.1522300" lon="-1.5890690">
        <ele>629.0</ele>
        <time>2019-05-12T09:39:01Z</time>
      </trkpt>
      <trkpt lat="39.1522510" lon="-1.5891470">
        <ele>628.8</ele>
        <time>2019-05-12T09:39:02Z</time>
      </trkpt>
      <trkpt lat="39.1522600" lon="-1.5892260">
        <ele>628.4</ele>
        <time>2019-05-12T09:39:03Z</time>
      </trkpt>
      <trkpt lat="39.1522600" lon="-1.5893060">
        <ele>628.2</ele>
        <time>2019-05-12T09:39:04Z</time>
      </trkpt>
      <trkpt lat="39.1522650" lon="-1.5893870">
        <ele>628.0</ele>
        <time>2019-05-12T09:39:05Z</time>
      </trkpt>
      <trkpt lat="39.1522860" lon="-1.5894670">
        <ele>627.8</ele>
        <time>2019-05-12T09:39:06Z</time>
      </trkpt>
      <trkpt lat="39.1523130" lon="-1.5895450">
        <ele>627.6</ele>
        <time>2019-05-12T09:39:07Z</time>
      </trkpt>
      <trkpt lat="39.1523400" lon="-1.5896160">
        <ele>627.4</ele>
        <time>2019-05-12T09:39:08Z</time>
      </trkpt>
      <trkpt lat="39.1523680" lon="-1.5896750">
        <ele>627.4</ele>
        <time>2019-05-12T09:39:09Z</time>
      </trkpt>
      <trkpt lat="39.1523950" lon="-1.5897280">
        <ele>627.4</ele>
        <time>2019-05-12T09:39:10Z</time>
      </trkpt>
      <trkpt lat="39.1524250" lon="-1.5897760">
        <ele>627.2</ele>
        <time>2019-05-12T09:39:11Z</time>
      </trkpt>
      <trkpt lat="39.1524540" lon="-1.5898220">
        <ele>627.2</ele>
        <time>2019-05-12T09:39:12Z</time>
      </trkpt>
      <trkpt lat="39.1524610" lon="-1.5898790">
        <ele>626.8</ele>
        <time>2019-05-12T09:39:13Z</time>
      </trkpt>
      <trkpt lat="39.1524680" lon="-1.5899370">
        <ele>626.6</ele>
        <time>2019-05-12T09:39:14Z</time>
      </trkpt>
      <trkpt lat="39.1524570" lon="-1.5899880">
        <ele>626.4</ele>
        <time>2019-05-12T09:39:15Z</time>
      </trkpt>
      <trkpt lat="39.1524450" lon="-1.5900300">
        <ele>626.4</ele>
        <time>2019-05-12T09:39:16Z</time>
      </trkpt>
      <trkpt lat="39.1524390" lon="-1.5900660">
        <ele>626.2</ele>
        <time>2019-05-12T09:39:17Z</time>
      </trkpt>
      <trkpt lat="39.1524400" lon="-1.5901000">
        <ele>625.4</ele>
        <time>2019-05-12T09:39:18Z</time>
      </trkpt>
      <trkpt lat="39.1524470" lon="-1.5901310">
        <ele>624.2</ele>
        <time>2019-05-12T09:39:19Z</time>
      </trkpt>
      <trkpt lat="39.1524560" lon="-1.5901640">
        <ele>623.4</ele>
        <time>2019-05-12T09:39:20Z</time>
      </trkpt>
      <trkpt lat="39.1524620" lon="-1.5902010">
        <ele>622.6</ele>
        <time>2019-05-12T09:39:21Z</time>
      </trkpt>
      <trkpt lat="39.1524620" lon="-1.5902390">
        <ele>622.4</ele>
        <time>2019-05-12T09:39:22Z</time>
      </trkpt>
      <trkpt lat="39.1524550" lon="-1.5902700">
        <ele>622.0</ele>
        <time>2019-05-12T09:39:23Z</time>
      </trkpt>
      <trkpt lat="39.1524450" lon="-1.5902950">
        <ele>622.0</ele>
        <time>2019-05-12T09:39:24Z</time>
      </trkpt>
      <trkpt lat="39.1524400" lon="-1.5903120">
        <ele>622.2</ele>
        <time>2019-05-12T09:39:25Z</time>
      </trkpt>
      <trkpt lat="39.1524380" lon="-1.5903260">
        <ele>622.0</ele>
        <time>2019-05-12T09:39:26Z</time>
      </trkpt>
      <trkpt lat="39.1524360" lon="-1.5903440">
        <ele>622.2</ele>
        <time>2019-05-12T09:39:27Z</time>
      </trkpt>
      <trkpt lat="39.1524350" lon="-1.5903650">
        <ele>622.2</ele>
        <time>2019-05-12T09:39:28Z</time>
      </trkpt>
      <trkpt lat="39.1524300" lon="-1.5903870">
        <ele>622.0</ele>
        <time>2019-05-12T09:39:29Z</time>
      </trkpt>
      <trkpt lat="39.1524190" lon="-1.5904120">
        <ele>622.2</ele>
        <time>2019-05-12T09:39:30Z</time>
      </trkpt>
      <trkpt lat="39.1524050" lon="-1.5904340">
        <ele>622.4</ele>
        <time>2019-05-12T09:39:31Z</time>
      </trkpt>
      <trkpt lat="39.1523860" lon="-1.5904470">
        <ele>622.6</ele>
        <time>2019-05-12T09:39:32Z</time>
      </trkpt>
      <trkpt lat="39.1523680" lon="-1.5904550">
        <ele>623.0</ele>
        <time>2019-05-12T09:39:33Z</time>
      </trkpt>
      <trkpt lat="39.1523510" lon="-1.5904670">
        <ele>623.2</ele>
        <time>2019-05-12T09:39:34Z</time>
      </trkpt>
      <trkpt lat="39.1523350" lon="-1.5904820">
        <ele>623.4</ele>
        <time>2019-05-12T09:39:35Z</time>
      </trkpt>
      <trkpt lat="39.1523130" lon="-1.5904940">
        <ele>623.4</ele>
        <time>2019-05-12T09:39:36Z</time>
      </trkpt>
      <trkpt lat="39.1522890" lon="-1.5904970">
        <ele>623.6</ele>
        <time>2019-05-12T09:39:37Z</time>
      </trkpt>
      <trkpt lat="39.1522670" lon="-1.5904970">
        <ele>623.8</ele>
        <time>2019-05-12T09:39:38Z</time>
      </trkpt>
      <trkpt lat="39.1522450" lon="-1.5904990">
        <ele>624.2</ele>
        <time>2019-05-12T09:39:39Z</time>
      </trkpt>
      <trkpt lat="39.1522220" lon="-1.5905000">
        <ele>624.4</ele>
        <time>2019-05-12T09:39:40Z</time>
      </trkpt>
      <trkpt lat="39.1521990" lon="-1.5905010">
        <ele>624.6</ele>
        <time>2019-05-12T09:39:41Z</time>
      </trkpt>
      <trkpt lat="39.1521780" lon="-1.5905020">
        <ele>624.6</ele>
        <time>2019-05-12T09:39:42Z</time>
      </trkpt>
      <trkpt lat="39.1521580" lon="-1.5905040">
        <ele>624.8</ele>
        <time>2019-05-12T09:39:43Z</time>
      </trkpt>
      <trkpt lat="39.1521350" lon="-1.5905060">
        <ele>624.8</ele>
        <time>2019-05-12T09:39:44Z</time>
      </trkpt>
      <trkpt lat="39.1521110" lon="-1.5905110">
        <ele>624.8</ele>
        <time>2019-05-12T09:39:45Z</time>
      </trkpt>
      <trkpt lat="39.1520840" lon="-1.5905230">
        <ele>625.0</ele>
        <time>2019-05-12T09:39:46Z</time>
      </trkpt>
      <trkpt lat="39.1520560" lon="-1.5905440">
        <ele>625.0</ele>
        <time>2019-05-12T09:39:47Z</time>
      </trkpt>
      <trkpt lat="39.1520260" lon="-1.5905700">
        <ele>625.0</ele>
        <time>2019-05-12T09:39:48Z</time>
      </trkpt>
      <trkpt lat="39.1519950" lon="-1.5905800">
        <ele>625.0</ele>
        <time>2019-05-12T09:39:49Z</time>
      </trkpt>
      <trkpt lat="39.1519690" lon="-1.5905770">
        <ele>625.0</ele>
        <time>2019-05-12T09:39:50Z</time>
      </trkpt>
      <trkpt lat="39.1519440" lon="-1.5905730">
        <ele>625.0</ele>
        <time>2019-05-12T09:39:51Z</time>
      </trkpt>
      <trkpt lat="39.1519180" lon="-1.5905730">
        <ele>625.2</ele>
        <time>2019-05-12T09:39:52Z</time>
      </trkpt>
      <trkpt lat="39.1518920" lon="-1.5905720">
        <ele>625.2</ele>
        <time>2019-05-12T09:39:53Z</time>
      </trkpt>
      <trkpt lat="39.1518630" lon="-1.5905790">
        <ele>625.2</ele>
        <time>2019-05-12T09:39:54Z</time>
      </trkpt>
      <trkpt lat="39.1518340" lon="-1.5905880">
        <ele>625.2</ele>
        <time>2019-05-12T09:39:55Z</time>
      </trkpt>
      <trkpt lat="39.1518060" lon="-1.5905960">
        <ele>625.4</ele>
        <time>2019-05-12T09:39:56Z</time>
      </trkpt>
      <trkpt lat="39.1517770" lon="-1.5906050">
        <ele>625.4</ele>
        <time>2019-05-12T09:39:57Z</time>
      </trkpt>
      <trkpt lat="39.1517450" lon="-1.5906150">
        <ele>625.4</ele>
        <time>2019-05-12T09:39:58Z</time>
      </trkpt>
      <trkpt lat="39.1517130" lon="-1.5906260">
        <ele>625.4</ele>
        <time>2019-05-12T09:39:59Z</time>
      </trkpt>
      <trkpt lat="39.1516780" lon="-1.5906360">
        <ele>625.6</ele>
        <time>2019-05-12T09:40:00Z</time>
      </trkpt>
      <trkpt lat="39.1516430" lon="-1.5906470">
        <ele>625.8</ele>
        <time>2019-05-12T09:40:01Z</time>
      </trkpt>
      <trkpt lat="39.1516070" lon="-1.5906570">
        <ele>626.0</ele>
        <time>2019-05-12T09:40:02Z</time>
      </trkpt>
      <trkpt lat="39.1515710" lon="-1.5906630">
        <ele>626.0</ele>
        <time>2019-05-12T09:40:03Z</time>
      </trkpt>
      <trkpt lat="39.1515330" lon="-1.5906650">
        <ele>626.2</ele>
        <time>2019-05-12T09:40:04Z</time>
      </trkpt>
      <trkpt lat="39.1514940" lon="-1.5906670">
        <ele>626.4</ele>
        <time>2019-05-12T09:40:05Z</time>
      </trkpt>
      <trkpt lat="39.1514550" lon="-1.5906710">
        <ele>626.4</ele>
        <time>2019-05-12T09:40:06Z</time>
      </trkpt>
      <trkpt lat="39.1514160" lon="-1.5906760">
        <ele>626.6</ele>
        <time>2019-05-12T09:40:07Z</time>
      </trkpt>
      <trkpt lat="39.1513770" lon="-1.5906790">
        <ele>626.6</ele>
        <time>2019-05-12T09:40:08Z</time>
      </trkpt>
      <trkpt lat="39.1513380" lon="-1.5906820">
        <ele>626.8</ele>
        <time>2019-05-12T09:40:09Z</time>
      </trkpt>
      <trkpt lat="39.1512980" lon="-1.5906900">
        <ele>626.8</ele>
        <time>2019-05-12T09:40:10Z</time>
      </trkpt>
      <trkpt lat="39.1512580" lon="-1.5907050">
        <ele>627.0</ele>
        <time>2019-05-12T09:40:11Z</time>
      </trkpt>
      <trkpt lat="39.1512180" lon="-1.5907230">
        <ele>627.0</ele>
        <time>2019-05-12T09:40:12Z</time>
      </trkpt>
      <trkpt lat="39.1511770" lon="-1.5907370">
        <ele>627.2</ele>
        <time>2019-05-12T09:40:13Z</time>
      </trkpt>
      <trkpt lat="39.1511350" lon="-1.5907410">
        <ele>627.2</ele>
        <time>2019-05-12T09:40:14Z</time>
      </trkpt>
      <trkpt lat="39.1510970" lon="-1.5907430">
        <ele>627.4</ele>
        <time>2019-05-12T09:40:15Z</time>
      </trkpt>
      <trkpt lat="39.1510610" lon="-1.5907520">
        <ele>627.4</ele>
        <time>2019-05-12T09:40:16Z</time>
      </trkpt>
      <trkpt lat="39.1510260" lon="-1.5907680">
        <ele>627.6</ele>
        <time>2019-05-12T09:40:17Z</time>
      </trkpt>
      <trkpt lat="39.1509950" lon="-1.5907870">
        <ele>627.6</ele>
        <time>2019-05-12T09:40:18Z</time>
      </trkpt>
      <trkpt lat="39.1509650" lon="-1.5908090">
        <ele>627.6</ele>
        <time>2019-05-12T09:40:19Z</time>
      </trkpt>
      <trkpt lat="39.1509360" lon="-1.5908330">
        <ele>627.6</ele>
        <time>2019-05-12T09:40:20Z</time>
      </trkpt>
      <trkpt lat="39.1509040" lon="-1.5908550">
        <ele>627.6</ele>
        <time>2019-05-12T09:40:21Z</time>
      </trkpt>
      <trkpt lat="39.1508710" lon="-1.5908740">
        <ele>627.8</ele>
        <time>2019-05-12T09:40:22Z</time>
      </trkpt>
      <trkpt lat="39.1508390" lon="-1.5908940">
        <ele>627.8</ele>
        <time>2019-05-12T09:40:23Z</time>
      </trkpt>
      <trkpt lat="39.1508100" lon="-1.5909170">
        <ele>628.0</ele>
        <time>2019-05-12T09:40:24Z</time>
      </trkpt>
      <trkpt lat="39.1507860" lon="-1.5909410">
        <ele>628.2</ele>
        <time>2019-05-12T09:40:25Z</time>
      </trkpt>
      <trkpt lat="39.1507640" lon="-1.5909640">
        <ele>628.4</ele>
        <time>2019-05-12T09:40:26Z</time>
      </trkpt>
      <trkpt lat="39.1507410" lon="-1.5909850">
        <ele>628.6</ele>
        <time>2019-05-12T09:40:27Z</time>
      </trkpt>
      <trkpt lat="39.1507210" lon="-1.5910030">
        <ele>628.8</ele>
        <time>2019-05-12T09:40:28Z</time>
      </trkpt>
      <trkpt lat="39.1507030" lon="-1.5910180">
        <ele>628.8</ele>
        <time>2019-05-12T09:40:29Z</time>
      </trkpt>
      <trkpt lat="39.1506850" lon="-1.5910340">
        <ele>629.0</ele>
        <time>2019-05-12T09:40:30Z</time>
      </trkpt>
      <trkpt lat="39.1506640" lon="-1.5910500">
        <ele>629.6</ele>
        <time>2019-05-12T09:40:31Z</time>
      </trkpt>
      <trkpt lat="39.1506380" lon="-1.5910700">
        <ele>630.0</ele>
        <time>2019-05-12T09:40:32Z</time>
      </trkpt>
      <trkpt lat="39.1506110" lon="-1.5910880">
        <ele>630.2</ele>
        <time>2019-05-12T09:40:33Z</time>
      </trkpt>
      <trkpt lat="39.1505850" lon="-1.5911080">
        <ele>630.8</ele>
        <time>2019-05-12T09:40:34Z</time>
      </trkpt>
      <trkpt lat="39.1505590" lon="-1.5911290">
        <ele>631.2</ele>
        <time>2019-05-12T09:40:35Z</time>
      </trkpt>
      <trkpt lat="39.1505280" lon="-1.5911470">
        <ele>631.8</ele>
        <time>2019-05-12T09:40:36Z</time>
      </trkpt>
      <trkpt lat="39.1504930" lon="-1.5911540">
        <ele>632.2</ele>
        <time>2019-05-12T09:40:37Z</time>
      </trkpt>
      <trkpt lat="39.1504620" lon="-1.5911480">
        <ele>632.6</ele>
        <time>2019-05-12T09:40:38Z</time>
      </trkpt>
      <trkpt lat="39.1504350" lon="-1.5911370">
        <ele>632.8</ele>
        <time>2019-05-12T09:40:39Z</time>
      </trkpt>
      <trkpt lat="39.1504110" lon="-1.5911250">
        <ele>632.8</ele>
        <time>2019-05-12T09:40:40Z</time>
      </trkpt>
      <trkpt lat="39.1503900" lon="-1.5911110">
        <ele>633.0</ele>
        <time>2019-05-12T09:40:41Z</time>
      </trkpt>
      <trkpt lat="39.1503750" lon="-1.5910960">
        <ele>633.0</ele>
        <time>2019-05-12T09:40:42Z</time>
      </trkpt>
      <trkpt lat="39.1503590" lon="-1.5910790">
        <ele>633.0</ele>
        <time>2019-05-12T09:40:43Z</time>
      </trkpt>
      <trkpt lat="39.1503420" lon="-1.5910600">
        <ele>633.2</ele>
        <time>2019-05-12T09:40:44Z</time>
      </trkpt>
      <trkpt lat="39.1503240" lon="-1.5910420">
        <ele>633.2</ele>
        <time>2019-05-12T09:40:45Z</time>
      </trkpt>
      <trkpt lat="39.1503060" lon="-1.5910250">
        <ele>633.2</ele>
        <time>2019-05-12T09:40:46Z</time>
      </trkpt>
      <trkpt lat="39.1502880" lon="-1.5910080">
        <ele>633.4</ele>
        <time>2019-05-12T09:40:47Z</time>
      </trkpt>
      <trkpt lat="39.1502690" lon="-1.5909930">
        <ele>633.8</ele>
        <time>2019-05-12T09:40:48Z</time>
      </trkpt>
      <trkpt lat="39.1502510" lon="-1.5909810">
        <ele>634.2</ele>
        <time>2019-05-12T09:40:49Z</time>
      </trkpt>
      <trkpt lat="39.1502280" lon="-1.5909790">
        <ele>634.6</ele>
        <time>2019-05-12T09:40:50Z</time>
      </trkpt>
      <trkpt lat="39.1502070" lon="-1.5909860">
        <ele>635.0</ele>
        <time>2019-05-12T09:40:51Z</time>
      </trkpt>
      <trkpt lat="39.1501900" lon="-1.5909980">
        <ele>635.2</ele>
        <time>2019-05-12T09:40:52Z</time>
      </trkpt>
      <trkpt lat="39.1501700" lon="-1.5910140">
        <ele>635.2</ele>
        <time>2019-05-12T09:40:53Z</time>
      </trkpt>
      <trkpt lat="39.1501490" lon="-1.5910300">
        <ele>635.4</ele>
        <time>2019-05-12T09:40:54Z</time>
      </trkpt>
      <trkpt lat="39.1501280" lon="-1.5910490">
        <ele>635.6</ele>
        <time>2019-05-12T09:40:55Z</time>
      </trkpt>
      <trkpt lat="39.1501050" lon="-1.5910680">
        <ele>635.8</ele>
        <time>2019-05-12T09:40:56Z</time>
      </trkpt>
      <trkpt lat="39.1500810" lon="-1.5910860">
        <ele>636.0</ele>
        <time>2019-05-12T09:40:57Z</time>
      </trkpt>
      <trkpt lat="39.1500570" lon="-1.5911050">
        <ele>636.4</ele>
        <time>2019-05-12T09:40:58Z</time>
      </trkpt>
      <trkpt lat="39.1500310" lon="-1.5911210">
        <ele>636.6</ele>
        <time>2019-05-12T09:40:59Z</time>
      </trkpt>
      <trkpt lat="39.1500080" lon="-1.5911370">
        <ele>636.8</ele>
        <time>2019-05-12T09:41:00Z</time>
      </trkpt>
      <trkpt lat="39.1499870" lon="-1.5911510">
        <ele>637.0</ele>
        <time>2019-05-12T09:41:01Z</time>
      </trkpt>
      <trkpt lat="39.1499680" lon="-1.5911640">
        <ele>637.0</ele>
        <time>2019-05-12T09:41:02Z</time>
      </trkpt>
      <trkpt lat="39.1499520" lon="-1.5911790">
        <ele>637.2</ele>
        <time>2019-05-12T09:41:03Z</time>
      </trkpt>
      <trkpt lat="39.1499340" lon="-1.5911930">
        <ele>637.2</ele>
        <time>2019-05-12T09:41:04Z</time>
      </trkpt>
      <trkpt lat="39.1499140" lon="-1.5912070">
        <ele>637.4</ele>
        <time>2019-05-12T09:41:05Z</time>
      </trkpt>
      <trkpt lat="39.1498930" lon="-1.5912200">
        <ele>637.6</ele>
        <time>2019-05-12T09:41:06Z</time>
      </trkpt>
      <trkpt lat="39.1498710" lon="-1.5912320">
        <ele>637.8</ele>
        <time>2019-05-12T09:41:07Z</time>
      </trkpt>
      <trkpt lat="39.1498500" lon="-1.5912440">
        <ele>638.0</ele>
        <time>2019-05-12T09:41:08Z</time>
      </trkpt>
      <trkpt lat="39.1498290" lon="-1.5912540">
        <ele>638.4</ele>
        <time>2019-05-12T09:41:09Z</time>
      </trkpt>
      <trkpt lat="39.1498050" lon="-1.5912600">
        <ele>638.6</ele>
        <time>2019-05-12T09:41:10Z</time>
      </trkpt>
      <trkpt lat="39.1497780" lon="-1.5912630">
        <ele>639.0</ele>
        <time>2019-05-12T09:41:11Z</time>
      </trkpt>
      <trkpt lat="39.1497430" lon="-1.5912630">
        <ele>639.4</ele>
        <time>2019-05-12T09:41:12Z</time>
      </trkpt>
      <trkpt lat="39.1497010" lon="-1.5912500">
        <ele>639.6</ele>
        <time>2019-05-12T09:41:13Z</time>
      </trkpt>
      <trkpt lat="39.1496550" lon="-1.5912280">
        <ele>639.8</ele>
        <time>2019-05-12T09:41:14Z</time>
      </trkpt>
      <trkpt lat="39.1496100" lon="-1.5912260">
        <ele>639.8</ele>
        <time>2019-05-12T09:41:15Z</time>
      </trkpt>
      <trkpt lat="39.1495710" lon="-1.5912530">
        <ele>639.8</ele>
        <time>2019-05-12T09:41:16Z</time>
      </trkpt>
      <trkpt lat="39.1495420" lon="-1.5912940">
        <ele>639.8</ele>
        <time>2019-05-12T09:41:17Z</time>
      </trkpt>
      <trkpt lat="39.1495230" lon="-1.5913420">
        <ele>639.8</ele>
        <time>2019-05-12T09:41:18Z</time>
      </trkpt>
      <trkpt lat="39.1495100" lon="-1.5913890">
        <ele>640.2</ele>
        <time>2019-05-12T09:41:19Z</time>
      </trkpt>
      <trkpt lat="39.1494980" lon="-1.5914280">
        <ele>640.2</ele>
        <time>2019-05-12T09:41:20Z</time>
      </trkpt>
      <trkpt lat="39.1494900" lon="-1.5914620">
        <ele>640.4</ele>
        <time>2019-05-12T09:41:21Z</time>
      </trkpt>
      <trkpt lat="39.1494890" lon="-1.5914940">
        <ele>640.4</ele>
        <time>2019-05-12T09:41:22Z</time>
      </trkpt>
      <trkpt lat="39.1494960" lon="-1.5915250">
        <ele>640.6</ele>
        <time>2019-05-12T09:41:23Z</time>
      </trkpt>
      <trkpt lat="39.1495040" lon="-1.5915580">
        <ele>640.6</ele>
        <time>2019-05-12T09:41:24Z</time>
      </trkpt>
      <trkpt lat="39.1495090" lon="-1.5915970">
        <ele>640.6</ele>
        <time>2019-05-12T09:41:25Z</time>
      </trkpt>
      <trkpt lat="39.1495110" lon="-1.5916390">
        <ele>640.6</ele>
        <time>2019-05-12T09:41:26Z</time>
      </trkpt>
      <trkpt lat="39.1495160" lon="-1.5916830">
        <ele>640.6</ele>
        <time>2019-05-12T09:41:27Z</time>
      </trkpt>
      <trkpt lat="39.1495250" lon="-1.5917290">
        <ele>640.6</ele>
        <time>2019-05-12T09:41:28Z</time>
      </trkpt>
      <trkpt lat="39.1495350" lon="-1.5917770">
        <ele>640.6</ele>
        <time>2019-05-12T09:41:29Z</time>
      </trkpt>
      <trkpt lat="39.1495490" lon="-1.5918250">
        <ele>640.8</ele>
        <time>2019-05-12T09:41:30Z</time>
      </trkpt>
      <trkpt lat="39.1495660" lon="-1.5918730">
        <ele>641.0</ele>
        <time>2019-05-12T09:41:31Z</time>
      </trkpt>
      <trkpt lat="39.1495840" lon="-1.5919230">
        <ele>641.0</ele>
        <time>2019-05-12T09:41:32Z</time>
      </trkpt>
      <trkpt lat="39.1496000" lon="-1.5919750">
        <ele>641.0</ele>
        <time>2019-05-12T09:41:33Z</time>
      </trkpt>
      <trkpt lat="39.1496120" lon="-1.5920290">
        <ele>641.2</ele>
        <time>2019-05-12T09:41:34Z</time>
      </trkpt>
      <trkpt lat="39.1496180" lon="-1.5920860">
        <ele>641.2</ele>
        <time>2019-05-12T09:41:35Z</time>
      </trkpt>
      <trkpt lat="39.1496180" lon="-1.5921440">
        <ele>641.2</ele>
        <time>2019-05-12T09:41:36Z</time>
      </trkpt>
      <trkpt lat="39.1496150" lon="-1.5922050">
        <ele>641.2</ele>
        <time>2019-05-12T09:41:37Z</time>
      </trkpt>
      <trkpt lat="39.1496110" lon="-1.5922680">
        <ele>641.2</ele>
        <time>2019-05-12T09:41:38Z</time>
      </trkpt>
      <trkpt lat="39.1496070" lon="-1.5923330">
        <ele>641.2</ele>
        <time>2019-05-12T09:41:39Z</time>
      </trkpt>
      <trkpt lat="39.1496030" lon="-1.5923980">
        <ele>641.2</ele>
        <time>2019-05-12T09:41:40Z</time>
      </trkpt>
      <trkpt lat="39.1495970" lon="-1.5924650">
        <ele>641.2</ele>
        <time>2019-05-12T09:41:41Z</time>
      </trkpt>
      <trkpt lat="39.1495900" lon="-1.5925310">
        <ele>641.2</ele>
        <time>2019-05-12T09:41:42Z</time>
      </trkpt>
      <trkpt lat="39.1495840" lon="-1.5925960">
        <ele>641.2</ele>
        <time>2019-05-12T09:41:43Z</time>
      </trkpt>
      <trkpt lat="39.1495780" lon="-1.5926570">
        <ele>641.2</ele>
        <time>2019-05-12T09:41:44Z</time>
      </trkpt>
      <trkpt lat="39.1495730" lon="-1.5927200">
        <ele>641.0</ele>
        <time>2019-05-12T09:41:45Z</time>
      </trkpt>
      <trkpt lat="39.1495690" lon="-1.5927850">
        <ele>641.0</ele>
        <time>2019-05-12T09:41:46Z</time>
      </trkpt>
      <trkpt lat="39.1495600" lon="-1.5928520">
        <ele>640.8</ele>
        <time>2019-05-12T09:41:47Z</time>
      </trkpt>
      <trkpt lat="39.1495480" lon="-1.5929250">
        <ele>640.8</ele>
        <time>2019-05-12T09:41:48Z</time>
      </trkpt>
      <trkpt lat="39.1495320" lon="-1.5930020">
        <ele>640.8</ele>
        <time>2019-05-12T09:41:49Z</time>
      </trkpt>
      <trkpt lat="39.1495070" lon="-1.5930790">
        <ele>640.6</ele>
        <time>2019-05-12T09:41:50Z</time>
      </trkpt>
      <trkpt lat="39.1494750" lon="-1.5931550">
        <ele>640.6</ele>
        <time>2019-05-12T09:41:51Z</time>
      </trkpt>
      <trkpt lat="39.1494400" lon="-1.5932290">
        <ele>640.6</ele>
        <time>2019-05-12T09:41:52Z</time>
      </trkpt>
      <trkpt lat="39.1494040" lon="-1.5933020">
        <ele>640.6</ele>
        <time>2019-05-12T09:41:53Z</time>
      </trkpt>
      <trkpt lat="39.1493670" lon="-1.5933700">
        <ele>640.6</ele>
        <time>2019-05-12T09:41:54Z</time>
      </trkpt>
      <trkpt lat="39.1493290" lon="-1.5934260">
        <ele>640.6</ele>
        <time>2019-05-12T09:41:55Z</time>
      </trkpt>
      <trkpt lat="39.1492920" lon="-1.5934650">
        <ele>640.4</ele>
        <time>2019-05-12T09:41:56Z</time>
      </trkpt>
      <trkpt lat="39.1492580" lon="-1.5934930">
        <ele>640.2</ele>
        <time>2019-05-12T09:41:57Z</time>
      </trkpt>
      <trkpt lat="39.1492260" lon="-1.5935160">
        <ele>640.0</ele>
        <time>2019-05-12T09:41:58Z</time>
      </trkpt>
      <trkpt lat="39.1491990" lon="-1.5935390">
        <ele>640.0</ele>
        <time>2019-05-12T09:41:59Z</time>
      </trkpt>
      <trkpt lat="39.1491780" lon="-1.5935620">
        <ele>640.0</ele>
        <time>2019-05-12T09:42:00Z</time>
      </trkpt>
      <trkpt lat="39.1491600" lon="-1.5935840">
        <ele>640.0</ele>
        <time>2019-05-12T09:42:01Z</time>
      </trkpt>
      <trkpt lat="39.1491400" lon="-1.5936030">
        <ele>640.0</ele>
        <time>2019-05-12T09:42:02Z</time>
      </trkpt>
      <trkpt lat="39.1491210" lon="-1.5936220">
        <ele>640.0</ele>
        <time>2019-05-12T09:42:03Z</time>
      </trkpt>
      <trkpt lat="39.1491040" lon="-1.5936430">
        <ele>640.0</ele>
        <time>2019-05-12T09:42:04Z</time>
      </trkpt>
      <trkpt lat="39.1490890" lon="-1.5936640">
        <ele>640.0</ele>
        <time>2019-05-12T09:42:05Z</time>
      </trkpt>
      <trkpt lat="39.1490750" lon="-1.5936860">
        <ele>640.0</ele>
        <time>2019-05-12T09:42:06Z</time>
      </trkpt>
      <trkpt lat="39.1490620" lon="-1.5937070">
        <ele>640.0</ele>
        <time>2019-05-12T09:42:07Z</time>
      </trkpt>
      <trkpt lat="39.1490500" lon="-1.5937300">
        <ele>640.0</ele>
        <time>2019-05-12T09:42:08Z</time>
      </trkpt>
      <trkpt lat="39.1490390" lon="-1.5937540">
        <ele>640.4</ele>
        <time>2019-05-12T09:42:09Z</time>
      </trkpt>
      <trkpt lat="39.1490300" lon="-1.5937790">
        <ele>640.6</ele>
        <time>2019-05-12T09:42:10Z</time>
      </trkpt>
      <trkpt lat="39.1490230" lon="-1.5938050">
        <ele>641.0</ele>
        <time>2019-05-12T09:42:11Z</time>
      </trkpt>
      <trkpt lat="39.1490180" lon="-1.5938310">
        <ele>641.2</ele>
        <time>2019-05-12T09:42:12Z</time>
      </trkpt>
      <trkpt lat="39.1490100" lon="-1.5938550">
        <ele>641.4</ele>
        <time>2019-05-12T09:42:13Z</time>
      </trkpt>
      <trkpt lat="39.1490020" lon="-1.5938790">
        <ele>641.8</ele>
        <time>2019-05-12T09:42:14Z</time>
      </trkpt>
      <trkpt lat="39.1489940" lon="-1.5939040">
        <ele>642.2</ele>
        <time>2019-05-12T09:42:15Z</time>
      </trkpt>
      <trkpt lat="39.1489860" lon="-1.5939310">
        <ele>642.4</ele>
        <time>2019-05-12T09:42:16Z</time>
      </trkpt>
      <trkpt lat="39.1489770" lon="-1.5939580">
        <ele>642.4</ele>
        <time>2019-05-12T09:42:17Z</time>
      </trkpt>
      <trkpt lat="39.1489680" lon="-1.5939840">
        <ele>642.8</ele>
        <time>2019-05-12T09:42:18Z</time>
      </trkpt>
      <trkpt lat="39.1489590" lon="-1.5940100">
        <ele>643.2</ele>
        <time>2019-05-12T09:42:19Z</time>
      </trkpt>
      <trkpt lat="39.1489510" lon="-1.5940350">
        <ele>643.4</ele>
        <time>2019-05-12T09:42:20Z</time>
      </trkpt>
      <trkpt lat="39.1489430" lon="-1.5940600">
        <ele>643.8</ele>
        <time>2019-05-12T09:42:21Z</time>
      </trkpt>
      <trkpt lat="39.1489350" lon="-1.5940840">
        <ele>644.0</ele>
        <time>2019-05-12T09:42:22Z</time>
      </trkpt>
      <trkpt lat="39.1489280" lon="-1.5941080">
        <ele>644.2</ele>
        <time>2019-05-12T09:42:23Z</time>
      </trkpt>
      <trkpt lat="39.1489210" lon="-1.5941320">
        <ele>644.6</ele>
        <time>2019-05-12T09:42:24Z</time>
      </trkpt>
      <trkpt lat="39.1489130" lon="-1.5941540">
        <ele>645.0</ele>
        <time>2019-05-12T09:42:25Z</time>
      </trkpt>
      <trkpt lat="39.1489060" lon="-1.5941760">
        <ele>645.4</ele>
        <time>2019-05-12T09:42:26Z</time>
      </trkpt>
      <trkpt lat="39.1488980" lon="-1.5941970">
        <ele>645.6</ele>
        <time>2019-05-12T09:42:27Z</time>
      </trkpt>
      <trkpt lat="39.1488920" lon="-1.5942180">
        <ele>646.0</ele>
        <time>2019-05-12T09:42:28Z</time>
      </trkpt>
      <trkpt lat="39.1488860" lon="-1.5942390">
        <ele>646.2</ele>
        <time>2019-05-12T09:42:29Z</time>
      </trkpt>
      <trkpt lat="39.1488790" lon="-1.5942590">
        <ele>646.6</ele>
        <time>2019-05-12T09:42:30Z</time>
      </trkpt>
      <trkpt lat="39.1488720" lon="-1.5942790">
        <ele>646.8</ele>
        <time>2019-05-12T09:42:31Z</time>
      </trkpt>
      <trkpt lat="39.1488660" lon="-1.5942990">
        <ele>647.0</ele>
        <time>2019-05-12T09:42:32Z</time>
      </trkpt>
      <trkpt lat="39.1488590" lon="-1.5943180">
        <ele>647.4</ele>
        <time>2019-05-12T09:42:33Z</time>
      </trkpt>
      <trkpt lat="39.1488520" lon="-1.5943360">
        <ele>647.6</ele>
        <time>2019-05-12T09:42:34Z</time>
      </trkpt>
      <trkpt lat="39.1488440" lon="-1.5943560">
        <ele>647.8</ele>
        <time>2019-05-12T09:42:35Z</time>
      </trkpt>
      <trkpt lat="39.1488370" lon="-1.5943760">
        <ele>648.0</ele>
        <time>2019-05-12T09:42:36Z</time>
      </trkpt>
      <trkpt lat="39.1488290" lon="-1.5943960">
        <ele>648.4</ele>
        <time>2019-05-12T09:42:37Z</time>
      </trkpt>
      <trkpt lat="39.1488220" lon="-1.5944160">
        <ele>648.6</ele>
        <time>2019-05-12T09:42:38Z</time>
      </trkpt>
      <trkpt lat="39.1488160" lon="-1.5944370">
        <ele>648.8</ele>
        <time>2019-05-12T09:42:39Z</time>
      </trkpt>
      <trkpt lat="39.1488100" lon="-1.5944590">
        <ele>649.2</ele>
        <time>2019-05-12T09:42:40Z</time>
      </trkpt>
      <trkpt lat="39.1488040" lon="-1.5944800">
        <ele>649.4</ele>
        <time>2019-05-12T09:42:41Z</time>
      </trkpt>
      <trkpt lat="39.1487990" lon="-1.5945010">
        <ele>649.8</ele>
        <time>2019-05-12T09:42:42Z</time>
      </trkpt>
      <trkpt lat="39.1487950" lon="-1.5945220">
        <ele>650.0</ele>
        <time>2019-05-12T09:42:43Z</time>
      </trkpt>
      <trkpt lat="39.1487910" lon="-1.5945430">
        <ele>650.2</ele>
        <time>2019-05-12T09:42:44Z</time>
      </trkpt>
      <trkpt lat="39.1487850" lon="-1.5945620">
        <ele>650.4</ele>
        <time>2019-05-12T09:42:45Z</time>
      </trkpt>
      <trkpt lat="39.1487810" lon="-1.5945810">
        <ele>650.6</ele>
        <time>2019-05-12T09:42:46Z</time>
      </trkpt>
      <trkpt lat="39.1487760" lon="-1.5946020">
        <ele>651.0</ele>
        <time>2019-05-12T09:42:47Z</time>
      </trkpt>
      <trkpt lat="39.1487710" lon="-1.5946230">
        <ele>651.0</ele>
        <time>2019-05-12T09:42:48Z</time>
      </trkpt>
      <trkpt lat="39.1487670" lon="-1.5946450">
        <ele>651.6</ele>
        <time>2019-05-12T09:42:49Z</time>
      </trkpt>
      <trkpt lat="39.1487630" lon="-1.5946670">
        <ele>652.0</ele>
        <time>2019-05-12T09:42:50Z</time>
      </trkpt>
      <trkpt lat="39.1487580" lon="-1.5946890">
        <ele>652.4</ele>
        <time>2019-05-12T09:42:51Z</time>
      </trkpt>
      <trkpt lat="39.1487530" lon="-1.5947090">
        <ele>652.6</ele>
        <time>2019-05-12T09:42:52Z</time>
      </trkpt>
      <trkpt lat="39.1487490" lon="-1.5947290">
        <ele>652.8</ele>
        <time>2019-05-12T09:42:53Z</time>
      </trkpt>
      <trkpt lat="39.1487460" lon="-1.5947500">
        <ele>653.0</ele>
        <time>2019-05-12T09:42:54Z</time>
      </trkpt>
      <trkpt lat="39.1487440" lon="-1.5947700">
        <ele>653.2</ele>
        <time>2019-05-12T09:42:55Z</time>
      </trkpt>
      <trkpt lat="39.1487400" lon="-1.5947910">
        <ele>653.2</ele>
        <time>2019-05-12T09:42:56Z</time>
      </trkpt>
      <trkpt lat="39.1487360" lon="-1.5948130">
        <ele>653.4</ele>
        <time>2019-05-12T09:42:57Z</time>
      </trkpt>
      <trkpt lat="39.1487320" lon="-1.5948360">
        <ele>653.8</ele>
        <time>2019-05-12T09:42:58Z</time>
      </trkpt>
      <trkpt lat="39.1487270" lon="-1.5948580">
        <ele>654.0</ele>
        <time>2019-05-12T09:42:59Z</time>
      </trkpt>
      <trkpt lat="39.1487210" lon="-1.5948770">
        <ele>654.2</ele>
        <time>2019-05-12T09:43:00Z</time>
      </trkpt>
      <trkpt lat="39.1487110" lon="-1.5948930">
        <ele>654.4</ele>
        <time>2019-05-12T09:43:01Z</time>
      </trkpt>
      <trkpt lat="39.1486990" lon="-1.5949100">
        <ele>654.8</ele>
        <time>2019-05-12T09:43:02Z</time>
      </trkpt>
      <trkpt lat="39.1486860" lon="-1.5949260">
        <ele>655.0</ele>
        <time>2019-05-12T09:43:03Z</time>
      </trkpt>
      <trkpt lat="39.1486740" lon="-1.5949430">
        <ele>655.4</ele>
        <time>2019-05-12T09:43:04Z</time>
      </trkpt>
      <trkpt lat="39.1486630" lon="-1.5949630">
        <ele>655.6</ele>
        <time>2019-05-12T09:43:05Z</time>
      </trkpt>
      <trkpt lat="39.1486520" lon="-1.5949820">
        <ele>656.0</ele>
        <time>2019-05-12T09:43:06Z</time>
      </trkpt>
      <trkpt lat="39.1486400" lon="-1.5950030">
        <ele>656.4</ele>
        <time>2019-05-12T09:43:07Z</time>
      </trkpt>
      <trkpt lat="39.1486290" lon="-1.5950240">
        <ele>656.6</ele>
        <time>2019-05-12T09:43:08Z</time>
      </trkpt>
      <trkpt lat="39.1486190" lon="-1.5950460">
        <ele>656.8</ele>
        <time>2019-05-12T09:43:09Z</time>
      </trkpt>
      <trkpt lat="39.1486080" lon="-1.5950680">
        <ele>657.0</ele>
        <time>2019-05-12T09:43:10Z</time>
      </trkpt>
      <trkpt lat="39.1485990" lon="-1.5950910">
        <ele>657.2</ele>
        <time>2019-05-12T09:43:11Z</time>
      </trkpt>
      <trkpt lat="39.1485900" lon="-1.5951130">
        <ele>657.4</ele>
        <time>2019-05-12T09:43:12Z</time>
      </trkpt>
      <trkpt lat="39.1485830" lon="-1.5951350">
        <ele>657.6</ele>
        <time>2019-05-12T09:43:13Z</time>
      </trkpt>
      <trkpt lat="39.1485760" lon="-1.5951560">
        <ele>657.8</ele>
        <time>2019-05-12T09:43:14Z</time>
      </trkpt>
      <trkpt lat="39.1485680" lon="-1.5951750">
        <ele>658.0</ele>
        <time>2019-05-12T09:43:15Z</time>
      </trkpt>
      <trkpt lat="39.1485580" lon="-1.5951930">
        <ele>658.2</ele>
        <time>2019-05-12T09:43:16Z</time>
      </trkpt>
      <trkpt lat="39.1485470" lon="-1.5952100">
        <ele>658.2</ele>
        <time>2019-05-12T09:43:17Z</time>
      </trkpt>
      <trkpt lat="39.1485360" lon="-1.5952270">
        <ele>658.6</ele>
        <time>2019-05-12T09:43:18Z</time>
      </trkpt>
      <trkpt lat="39.1485250" lon="-1.5952430">
        <ele>658.4</ele>
        <time>2019-05-12T09:43:19Z</time>
      </trkpt>
      <trkpt lat="39.1485110" lon="-1.5952580">
        <ele>658.6</ele>
        <time>2019-05-12T09:43:20Z</time>
      </trkpt>
      <trkpt lat="39.1485000" lon="-1.5952730">
        <ele>659.0</ele>
        <time>2019-05-12T09:43:21Z</time>
      </trkpt>
      <trkpt lat="39.1484890" lon="-1.5952910">
        <ele>659.2</ele>
        <time>2019-05-12T09:43:22Z</time>
      </trkpt>
      <trkpt lat="39.1484770" lon="-1.5953090">
        <ele>659.6</ele>
        <time>2019-05-12T09:43:23Z</time>
      </trkpt>
      <trkpt lat="39.1484650" lon="-1.5953280">
        <ele>660.2</ele>
        <time>2019-05-12T09:43:24Z</time>
      </trkpt>
      <trkpt lat="39.1484520" lon="-1.5953480">
        <ele>660.4</ele>
        <time>2019-05-12T09:43:25Z</time>
      </trkpt>
      <trkpt lat="39.1484410" lon="-1.5953680">
        <ele>660.8</ele>
        <time>2019-05-12T09:43:26Z</time>
      </trkpt>
      <trkpt lat="39.1484290" lon="-1.5953900">
        <ele>661.0</ele>
        <time>2019-05-12T09:43:27Z</time>
      </trkpt>
      <trkpt lat="39.1484160" lon="-1.5954120">
        <ele>661.4</ele>
        <time>2019-05-12T09:43:28Z</time>
      </trkpt>
      <trkpt lat="39.1484030" lon="-1.5954320">
        <ele>661.6</ele>
        <time>2019-05-12T09:43:29Z</time>
      </trkpt>
      <trkpt lat="39.1483880" lon="-1.5954500">
        <ele>661.8</ele>
        <time>2019-05-12T09:43:30Z</time>
      </trkpt>
      <trkpt lat="39.1483720" lon="-1.5954680">
        <ele>662.0</ele>
        <time>2019-05-12T09:43:31Z</time>
      </trkpt>
      <trkpt lat="39.1483550" lon="-1.5954870">
        <ele>662.2</ele>
        <time>2019-05-12T09:43:32Z</time>
      </trkpt>
      <trkpt lat="39.1483370" lon="-1.5955060">
        <ele>662.4</ele>
        <time>2019-05-12T09:43:33Z</time>
      </trkpt>
      <trkpt lat="39.1483170" lon="-1.5955240">
        <ele>662.4</ele>
        <time>2019-05-12T09:43:34Z</time>
      </trkpt>
      <trkpt lat="39.1482960" lon="-1.5955430">
        <ele>662.6</ele>
        <time>2019-05-12T09:43:35Z</time>
      </trkpt>
      <trkpt lat="39.1482740" lon="-1.5955600">
        <ele>662.6</ele>
        <time>2019-05-12T09:43:36Z</time>
      </trkpt>
      <trkpt lat="39.1482530" lon="-1.5955750">
        <ele>663.0</ele>
        <time>2019-05-12T09:43:37Z</time>
      </trkpt>
      <trkpt lat="39.1482320" lon="-1.5955880">
        <ele>663.0</ele>
        <time>2019-05-12T09:43:38Z</time>
      </trkpt>
      <trkpt lat="39.1482100" lon="-1.5956000">
        <ele>663.4</ele>
        <time>2019-05-12T09:43:39Z</time>
      </trkpt>
      <trkpt lat="39.1481880" lon="-1.5956100">
        <ele>663.6</ele>
        <time>2019-05-12T09:43:40Z</time>
      </trkpt>
      <trkpt lat="39.1481680" lon="-1.5956220">
        <ele>663.6</ele>
        <time>2019-05-12T09:43:41Z</time>
      </trkpt>
      <trkpt lat="39.1481490" lon="-1.5956340">
        <ele>663.8</ele>
        <time>2019-05-12T09:43:42Z</time>
      </trkpt>
      <trkpt lat="39.1481280" lon="-1.5956460">
        <ele>663.8</ele>
        <time>2019-05-12T09:43:43Z</time>
      </trkpt>
      <trkpt lat="39.1481080" lon="-1.5956570">
        <ele>664.0</ele>
        <time>2019-05-12T09:43:44Z</time>
      </trkpt>
      <trkpt lat="39.1480860" lon="-1.5956680">
        <ele>664.0</ele>
        <time>2019-05-12T09:43:45Z</time>
      </trkpt>
      <trkpt lat="39.1480650" lon="-1.5956790">
        <ele>664.0</ele>
        <time>2019-05-12T09:43:46Z</time>
      </trkpt>
      <trkpt lat="39.1480440" lon="-1.5956920">
        <ele>664.2</ele>
        <time>2019-05-12T09:43:47Z</time>
      </trkpt>
      <trkpt lat="39.1480260" lon="-1.5957070">
        <ele>664.4</ele>
        <time>2019-05-12T09:43:48Z</time>
      </trkpt>
      <trkpt lat="39.1480100" lon="-1.5957240">
        <ele>664.6</ele>
        <time>2019-05-12T09:43:49Z</time>
      </trkpt>
      <trkpt lat="39.1479950" lon="-1.5957430">
        <ele>664.8</ele>
        <time>2019-05-12T09:43:50Z</time>
      </trkpt>
      <trkpt lat="39.1479800" lon="-1.5957610">
        <ele>665.0</ele>
        <time>2019-05-12T09:43:51Z</time>
      </trkpt>
      <trkpt lat="39.1479670" lon="-1.5957770">
        <ele>665.2</ele>
        <time>2019-05-12T09:43:52Z</time>
      </trkpt>
      <trkpt lat="39.1479560" lon="-1.5957930">
        <ele>665.6</ele>
        <time>2019-05-12T09:43:53Z</time>
      </trkpt>
      <trkpt lat="39.1479460" lon="-1.5958090">
        <ele>665.8</ele>
        <time>2019-05-12T09:43:54Z</time>
      </trkpt>
      <trkpt lat="39.1479340" lon="-1.5958270">
        <ele>666.0</ele>
        <time>2019-05-12T09:43:55Z</time>
      </trkpt>
      <trkpt lat="39.1479240" lon="-1.5958460">
        <ele>666.2</ele>
        <time>2019-05-12T09:43:56Z</time>
      </trkpt>
      <trkpt lat="39.1479140" lon="-1.5958660">
        <ele>666.4</ele>
        <time>2019-05-12T09:43:57Z</time>
      </trkpt>
      <trkpt lat="39.1479050" lon="-1.5958870">
        <ele>666.8</ele>
        <time>2019-05-12T09:43:58Z</time>
      </trkpt>
      <trkpt lat="39.1478970" lon="-1.5959090">
        <ele>667.0</ele>
        <time>2019-05-12T09:43:59Z</time>
      </trkpt>
      <trkpt lat="39.1478900" lon="-1.5959320">
        <ele>667.2</ele>
        <time>2019-05-12T09:44:00Z</time>
      </trkpt>
      <trkpt lat="39.1478840" lon="-1.5959550">
        <ele>667.4</ele>
        <time>2019-05-12T09:44:01Z</time>
      </trkpt>
      <trkpt lat="39.1478790" lon="-1.5959790">
        <ele>667.6</ele>
        <time>2019-05-12T09:44:02Z</time>
      </trkpt>
      <trkpt lat="39.1478720" lon="-1.5960020">
        <ele>667.6</ele>
        <time>2019-05-12T09:44:03Z</time>
      </trkpt>
      <trkpt lat="39.1478660" lon="-1.5960260">
        <ele>667.8</ele>
        <time>2019-05-12T09:44:04Z</time>
      </trkpt>
      <trkpt lat="39.1478630" lon="-1.5960480">
        <ele>668.0</ele>
        <time>2019-05-12T09:44:05Z</time>
      </trkpt>
      <trkpt lat="39.1478600" lon="-1.5960670">
        <ele>668.0</ele>
        <time>2019-05-12T09:44:06Z</time>
      </trkpt>
      <trkpt lat="39.1478580" lon="-1.5960870">
        <ele>668.2</ele>
        <time>2019-05-12T09:44:07Z</time>
      </trkpt>
      <trkpt lat="39.1478580" lon="-1.5961090">
        <ele>668.4</ele>
        <time>2019-05-12T09:44:08Z</time>
      </trkpt>
      <trkpt lat="39.1478600" lon="-1.5961310">
        <ele>668.6</ele>
        <time>2019-05-12T09:44:09Z</time>
      </trkpt>
      <trkpt lat="39.1478680" lon="-1.5961510">
        <ele>668.8</ele>
        <time>2019-05-12T09:44:10Z</time>
      </trkpt>
      <trkpt lat="39.1478780" lon="-1.5961710">
        <ele>669.0</ele>
        <time>2019-05-12T09:44:11Z</time>
      </trkpt>
      <trkpt lat="39.1478910" lon="-1.5961910">
        <ele>669.4</ele>
        <time>2019-05-12T09:44:12Z</time>
      </trkpt>
      <trkpt lat="39.1479070" lon="-1.5962110">
        <ele>669.8</ele>
        <time>2019-05-12T09:44:13Z</time>
      </trkpt>
      <trkpt lat="39.1479240" lon="-1.5962340">
        <ele>670.0</ele>
        <time>2019-05-12T09:44:14Z</time>
      </trkpt>
      <trkpt lat="39.1479410" lon="-1.5962570">
        <ele>670.4</ele>
        <time>2019-05-12T09:44:15Z</time>
      </trkpt>
      <trkpt lat="39.1479590" lon="-1.5962800">
        <ele>670.6</ele>
        <time>2019-05-12T09:44:16Z</time>
      </trkpt>
      <trkpt lat="39.1479760" lon="-1.5963050">
        <ele>670.8</ele>
        <time>2019-05-12T09:44:17Z</time>
      </trkpt>
      <trkpt lat="39.1479930" lon="-1.5963290">
        <ele>671.0</ele>
        <time>2019-05-12T09:44:18Z</time>
      </trkpt>
      <trkpt lat="39.1480090" lon="-1.5963550">
        <ele>671.2</ele>
        <time>2019-05-12T09:44:19Z</time>
      </trkpt>
      <trkpt lat="39.1480220" lon="-1.5963830">
        <ele>671.4</ele>
        <time>2019-05-12T09:44:20Z</time>
      </trkpt>
      <trkpt lat="39.1480320" lon="-1.5964150">
        <ele>671.6</ele>
        <time>2019-05-12T09:44:21Z</time>
      </trkpt>
      <trkpt lat="39.1480400" lon="-1.5964510">
        <ele>671.6</ele>
        <time>2019-05-12T09:44:22Z</time>
      </trkpt>
      <trkpt lat="39.1480470" lon="-1.5964900">
        <ele>671.6</ele>
        <time>2019-05-12T09:44:23Z</time>
      </trkpt>
      <trkpt lat="39.1480510" lon="-1.5965300">
        <ele>671.8</ele>
        <time>2019-05-12T09:44:24Z</time>
      </trkpt>
      <trkpt lat="39.1480540" lon="-1.5965700">
        <ele>671.8</ele>
        <time>2019-05-12T09:44:25Z</time>
      </trkpt>
      <trkpt lat="39.1480540" lon="-1.5966100">
        <ele>672.2</ele>
        <time>2019-05-12T09:44:26Z</time>
      </trkpt>
      <trkpt lat="39.1480480" lon="-1.5966500">
        <ele>672.4</ele>
        <time>2019-05-12T09:44:27Z</time>
      </trkpt>
      <trkpt lat="39.1480340" lon="-1.5966930">
        <ele>672.4</ele>
        <time>2019-05-12T09:44:28Z</time>
      </trkpt>
      <trkpt lat="39.1480120" lon="-1.5967320">
        <ele>672.6</ele>
        <time>2019-05-12T09:44:29Z</time>
      </trkpt>
      <trkpt lat="39.1479810" lon="-1.5967620">
        <ele>672.6</ele>
        <time>2019-05-12T09:44:30Z</time>
      </trkpt>
      <trkpt lat="39.1479450" lon="-1.5967850">
        <ele>672.6</ele>
        <time>2019-05-12T09:44:31Z</time>
      </trkpt>
      <trkpt lat="39.1479060" lon="-1.5968040">
        <ele>672.6</ele>
        <time>2019-05-12T09:44:32Z</time>
      </trkpt>
      <trkpt lat="39.1478660" lon="-1.5968190">
        <ele>672.6</ele>
        <time>2019-05-12T09:44:33Z</time>
      </trkpt>
      <trkpt lat="39.1478250" lon="-1.5968310">
        <ele>672.6</ele>
        <time>2019-05-12T09:44:34Z</time>
      </trkpt>
      <trkpt lat="39.1477840" lon="-1.5968260">
        <ele>672.6</ele>
        <time>2019-05-12T09:44:35Z</time>
      </trkpt>
      <trkpt lat="39.1477490" lon="-1.5967950">
        <ele>672.6</ele>
        <time>2019-05-12T09:44:36Z</time>
      </trkpt>
      <trkpt lat="39.1477190" lon="-1.5967480">
        <ele>672.6</ele>
        <time>2019-05-12T09:44:37Z</time>
      </trkpt>
      <trkpt lat="39.1476890" lon="-1.5966980">
        <ele>672.6</ele>
        <time>2019-05-12T09:44:38Z</time>
      </trkpt>
      <trkpt lat="39.1476530" lon="-1.5966530">
        <ele>672.6</ele>
        <time>2019-05-12T09:44:39Z</time>
      </trkpt>
      <trkpt lat="39.1476090" lon="-1.5966250">
        <ele>672.4</ele>
        <time>2019-05-12T09:44:40Z</time>
      </trkpt>
      <trkpt lat="39.1475640" lon="-1.5966080">
        <ele>672.4</ele>
        <time>2019-05-12T09:44:41Z</time>
      </trkpt>
      <trkpt lat="39.1475220" lon="-1.5965930">
        <ele>672.2</ele>
        <time>2019-05-12T09:44:42Z</time>
      </trkpt>
      <trkpt lat="39.1474840" lon="-1.5965770">
        <ele>672.0</ele>
        <time>2019-05-12T09:44:43Z</time>
      </trkpt>
      <trkpt lat="39.1474550" lon="-1.5965550">
        <ele>671.8</ele>
        <time>2019-05-12T09:44:44Z</time>
      </trkpt>
      <trkpt lat="39.1474330" lon="-1.5965360">
        <ele>671.8</ele>
        <time>2019-05-12T09:44:45Z</time>
      </trkpt>
      <trkpt lat="39.1474060" lon="-1.5965290">
        <ele>671.8</ele>
        <time>2019-05-12T09:44:46Z</time>
      </trkpt>
      <trkpt lat="39.1473720" lon="-1.5965310">
        <ele>671.8</ele>
        <time>2019-05-12T09:44:47Z</time>
      </trkpt>
      <trkpt lat="39.1473340" lon="-1.5965380">
        <ele>671.8</ele>
        <time>2019-05-12T09:44:48Z</time>
      </trkpt>
      <trkpt lat="39.1472950" lon="-1.5965510">
        <ele>671.8</ele>
        <time>2019-05-12T09:44:49Z</time>
      </trkpt>
      <trkpt lat="39.1472510" lon="-1.5965610">
        <ele>671.8</ele>
        <time>2019-05-12T09:44:50Z</time>
      </trkpt>
      <trkpt lat="39.1472030" lon="-1.5965630">
        <ele>671.8</ele>
        <time>2019-05-12T09:44:51Z</time>
      </trkpt>
      <trkpt lat="39.1471520" lon="-1.5965690">
        <ele>671.8</ele>
        <time>2019-05-12T09:44:52Z</time>
      </trkpt>
      <trkpt lat="39.1471000" lon="-1.5965680">
        <ele>671.8</ele>
        <time>2019-05-12T09:44:53Z</time>
      </trkpt>
      <trkpt lat="39.1470460" lon="-1.5965540">
        <ele>671.8</ele>
        <time>2019-05-12T09:44:54Z</time>
      </trkpt>
      <trkpt lat="39.1469940" lon="-1.5965450">
        <ele>671.8</ele>
        <time>2019-05-12T09:44:55Z</time>
      </trkpt>
      <trkpt lat="39.1469440" lon="-1.5965370">
        <ele>671.8</ele>
        <time>2019-05-12T09:44:56Z</time>
      </trkpt>
      <trkpt lat="39.1468980" lon="-1.5965210">
        <ele>671.8</ele>
        <time>2019-05-12T09:44:57Z</time>
      </trkpt>
      <trkpt lat="39.1468550" lon="-1.5965160">
        <ele>671.8</ele>
        <time>2019-05-12T09:44:58Z</time>
      </trkpt>
      <trkpt lat="39.1468130" lon="-1.5965260">
        <ele>671.8</ele>
        <time>2019-05-12T09:44:59Z</time>
      </trkpt>
      <trkpt lat="39.1467690" lon="-1.5965440">
        <ele>671.8</ele>
        <time>2019-05-12T09:45:00Z</time>
      </trkpt>
      <trkpt lat="39.1467240" lon="-1.5965560">
        <ele>671.8</ele>
        <time>2019-05-12T09:45:01Z</time>
      </trkpt>
      <trkpt lat="39.1466830" lon="-1.5965660">
        <ele>671.8</ele>
        <time>2019-05-12T09:45:02Z</time>
      </trkpt>
      <trkpt lat="39.1466450" lon="-1.5965850">
        <ele>671.8</ele>
        <time>2019-05-12T09:45:03Z</time>
      </trkpt>
      <trkpt lat="39.1466070" lon="-1.5966140">
        <ele>671.8</ele>
        <time>2019-05-12T09:45:04Z</time>
      </trkpt>
      <trkpt lat="39.1465610" lon="-1.5966460">
        <ele>671.6</ele>
        <time>2019-05-12T09:45:05Z</time>
      </trkpt>
      <trkpt lat="39.1465110" lon="-1.5966810">
        <ele>671.6</ele>
        <time>2019-05-12T09:45:06Z</time>
      </trkpt>
      <trkpt lat="39.1464620" lon="-1.5967120">
        <ele>671.4</ele>
        <time>2019-05-12T09:45:07Z</time>
      </trkpt>
      <trkpt lat="39.1464130" lon="-1.5967410">
        <ele>671.4</ele>
        <time>2019-05-12T09:45:08Z</time>
      </trkpt>
      <trkpt lat="39.1463690" lon="-1.5967640">
        <ele>671.4</ele>
        <time>2019-05-12T09:45:09Z</time>
      </trkpt>
      <trkpt lat="39.1463310" lon="-1.5967750">
        <ele>671.2</ele>
        <time>2019-05-12T09:45:10Z</time>
      </trkpt>
      <trkpt lat="39.1462960" lon="-1.5967880">
        <ele>671.2</ele>
        <time>2019-05-12T09:45:11Z</time>
      </trkpt>
      <trkpt lat="39.1462590" lon="-1.5968070">
        <ele>671.0</ele>
        <time>2019-05-12T09:45:12Z</time>
      </trkpt>
      <trkpt lat="39.1462210" lon="-1.5968240">
        <ele>670.8</ele>
        <time>2019-05-12T09:45:13Z</time>
      </trkpt>
      <trkpt lat="39.1461840" lon="-1.5968350">
        <ele>670.4</ele>
        <time>2019-05-12T09:45:14Z</time>
      </trkpt>
      <trkpt lat="39.1461490" lon="-1.5968380">
        <ele>670.2</ele>
        <time>2019-05-12T09:45:15Z</time>
      </trkpt>
      <trkpt lat="39.1461100" lon="-1.5968320">
        <ele>670.0</ele>
        <time>2019-05-12T09:45:16Z</time>
      </trkpt>
      <trkpt lat="39.1460680" lon="-1.5968200">
        <ele>669.8</ele>
        <time>2019-05-12T09:45:17Z</time>
      </trkpt>
      <trkpt lat="39.1460240" lon="-1.5968090">
        <ele>669.8</ele>
        <time>2019-05-12T09:45:18Z</time>
      </trkpt>
      <trkpt lat="39.1459770" lon="-1.5968050">
        <ele>669.6</ele>
        <time>2019-05-12T09:45:19Z</time>
      </trkpt>
      <trkpt lat="39.1459350" lon="-1.5968010">
        <ele>669.6</ele>
        <time>2019-05-12T09:45:20Z</time>
      </trkpt>
      <trkpt lat="39.1458990" lon="-1.5967940">
        <ele>669.4</ele>
        <time>2019-05-12T09:45:21Z</time>
      </trkpt>
      <trkpt lat="39.1458660" lon="-1.5967980">
        <ele>669.2</ele>
        <time>2019-05-12T09:45:22Z</time>
      </trkpt>
      <trkpt lat="39.1458320" lon="-1.5968080">
        <ele>669.0</ele>
        <time>2019-05-12T09:45:23Z</time>
      </trkpt>
      <trkpt lat="39.1457970" lon="-1.5968120">
        <ele>668.8</ele>
        <time>2019-05-12T09:45:24Z</time>
      </trkpt>
      <trkpt lat="39.1457600" lon="-1.5968090">
        <ele>668.4</ele>
        <time>2019-05-12T09:45:25Z</time>
      </trkpt>
      <trkpt lat="39.1457200" lon="-1.5968070">
        <ele>668.2</ele>
        <time>2019-05-12T09:45:26Z</time>
      </trkpt>
      <trkpt lat="39.1456810" lon="-1.5968010">
        <ele>668.0</ele>
        <time>2019-05-12T09:45:27Z</time>
      </trkpt>
      <trkpt lat="39.1456450" lon="-1.5967900">
        <ele>668.0</ele>
        <time>2019-05-12T09:45:28Z</time>
      </trkpt>
      <trkpt lat="39.1456130" lon="-1.5967630">
        <ele>668.0</ele>
        <time>2019-05-12T09:45:29Z</time>
      </trkpt>
      <trkpt lat="39.1455890" lon="-1.5967260">
        <ele>668.0</ele>
        <time>2019-05-12T09:45:30Z</time>
      </trkpt>
      <trkpt lat="39.1455650" lon="-1.5966870">
        <ele>668.0</ele>
        <time>2019-05-12T09:45:31Z</time>
      </trkpt>
      <trkpt lat="39.1455380" lon="-1.5966430">
        <ele>668.0</ele>
        <time>2019-05-12T09:45:32Z</time>
      </trkpt>
      <trkpt lat="39.1455110" lon="-1.5965940">
        <ele>668.0</ele>
        <time>2019-05-12T09:45:33Z</time>
      </trkpt>
      <trkpt lat="39.1454870" lon="-1.5965400">
        <ele>668.0</ele>
        <time>2019-05-12T09:45:34Z</time>
      </trkpt>
      <trkpt lat="39.1454590" lon="-1.5964890">
        <ele>668.0</ele>
        <time>2019-05-12T09:45:35Z</time>
      </trkpt>
      <trkpt lat="39.1454240" lon="-1.5964390">
        <ele>668.0</ele>
        <time>2019-05-12T09:45:36Z</time>
      </trkpt>
      <trkpt lat="39.1453860" lon="-1.5963910">
        <ele>668.0</ele>
        <time>2019-05-12T09:45:37Z</time>
      </trkpt>
      <trkpt lat="39.1453480" lon="-1.5963550">
        <ele>668.0</ele>
        <time>2019-05-12T09:45:38Z</time>
      </trkpt>
      <trkpt lat="39.1453150" lon="-1.5963320">
        <ele>668.0</ele>
        <time>2019-05-12T09:45:39Z</time>
      </trkpt>
      <trkpt lat="39.1452940" lon="-1.5963110">
        <ele>668.0</ele>
        <time>2019-05-12T09:45:40Z</time>
      </trkpt>
      <trkpt lat="39.1452870" lon="-1.5962880">
        <ele>668.0</ele>
        <time>2019-05-12T09:45:41Z</time>
      </trkpt>
      <trkpt lat="39.1452850" lon="-1.5962730">
        <ele>668.0</ele>
        <time>2019-05-12T09:45:42Z</time>
      </trkpt>
      <trkpt lat="39.1452840" lon="-1.5962720">
        <ele>668.2</ele>
        <time>2019-05-12T09:45:43Z</time>
      </trkpt>
      <trkpt lat="39.1452850" lon="-1.5962650">
        <ele>668.2</ele>
        <time>2019-05-12T09:45:44Z</time>
      </trkpt>
      <trkpt lat="39.1452830" lon="-1.5962540">
        <ele>668.2</ele>
        <time>2019-05-12T09:45:45Z</time>
      </trkpt>
      <trkpt lat="39.1452820" lon="-1.5962420">
        <ele>668.2</ele>
        <time>2019-05-12T09:45:46Z</time>
      </trkpt>
      <trkpt lat="39.1452800" lon="-1.5962270">
        <ele>668.2</ele>
        <time>2019-05-12T09:45:47Z</time>
      </trkpt>
      <trkpt lat="39.1452770" lon="-1.5962060">
        <ele>668.2</ele>
        <time>2019-05-12T09:45:48Z</time>
      </trkpt>
      <trkpt lat="39.1452730" lon="-1.5961860">
        <ele>668.2</ele>
        <time>2019-05-12T09:45:49Z</time>
      </trkpt>
      <trkpt lat="39.1452710" lon="-1.5961670">
        <ele>668.2</ele>
        <time>2019-05-12T09:45:50Z</time>
      </trkpt>
      <trkpt lat="39.1452670" lon="-1.5961520">
        <ele>668.2</ele>
        <time>2019-05-12T09:45:51Z</time>
      </trkpt>
      <trkpt lat="39.1452620" lon="-1.5961400">
        <ele>668.2</ele>
        <time>2019-05-12T09:45:52Z</time>
      </trkpt>
      <trkpt lat="39.1452580" lon="-1.5961300">
        <ele>668.2</ele>
        <time>2019-05-12T09:45:53Z</time>
      </trkpt>
      <trkpt lat="39.1452480" lon="-1.5961190">
        <ele>668.4</ele>
        <time>2019-05-12T09:45:54Z</time>
      </trkpt>
      <trkpt lat="39.1452310" lon="-1.5961070">
        <ele>668.6</ele>
        <time>2019-05-12T09:45:55Z</time>
      </trkpt>
      <trkpt lat="39.1452090" lon="-1.5960940">
        <ele>668.6</ele>
        <time>2019-05-12T09:45:56Z</time>
      </trkpt>
      <trkpt lat="39.1451820" lon="-1.5960790">
        <ele>668.8</ele>
        <time>2019-05-12T09:45:57Z</time>
      </trkpt>
      <trkpt lat="39.1451560" lon="-1.5960550">
        <ele>669.0</ele>
        <time>2019-05-12T09:45:58Z</time>
      </trkpt>
      <trkpt lat="39.1451380" lon="-1.5960200">
        <ele>669.2</ele>
        <time>2019-05-12T09:45:59Z</time>
      </trkpt>
      <trkpt lat="39.1451260" lon="-1.5959770">
        <ele>669.4</ele>
        <time>2019-05-12T09:46:00Z</time>
      </trkpt>
      <trkpt lat="39.1451210" lon="-1.5959310">
        <ele>669.6</ele>
        <time>2019-05-12T09:46:01Z</time>
      </trkpt>
      <trkpt lat="39.1451210" lon="-1.5958890">
        <ele>669.6</ele>
        <time>2019-05-12T09:46:02Z</time>
      </trkpt>
      <trkpt lat="39.1451280" lon="-1.5958510">
        <ele>669.6</ele>
        <time>2019-05-12T09:46:03Z</time>
      </trkpt>
      <trkpt lat="39.1451380" lon="-1.5958160">
        <ele>669.8</ele>
        <time>2019-05-12T09:46:04Z</time>
      </trkpt>
      <trkpt lat="39.1451410" lon="-1.5957850">
        <ele>669.8</ele>
        <time>2019-05-12T09:46:05Z</time>
      </trkpt>
      <trkpt lat="39.1451370" lon="-1.5957550">
        <ele>670.0</ele>
        <time>2019-05-12T09:46:06Z</time>
      </trkpt>
      <trkpt lat="39.1451320" lon="-1.5957230">
        <ele>670.0</ele>
        <time>2019-05-12T09:46:07Z</time>
      </trkpt>
      <trkpt lat="39.1451290" lon="-1.5956880">
        <ele>670.2</ele>
        <time>2019-05-12T09:46:08Z</time>
      </trkpt>
      <trkpt lat="39.1451270" lon="-1.5956530">
        <ele>670.4</ele>
        <time>2019-05-12T09:46:09Z</time>
      </trkpt>
      <trkpt lat="39.1451250" lon="-1.5956170">
        <ele>670.4</ele>
        <time>2019-05-12T09:46:10Z</time>
      </trkpt>
      <trkpt lat="39.1451250" lon="-1.5955820">
        <ele>670.8</ele>
        <time>2019-05-12T09:46:11Z</time>
      </trkpt>
      <trkpt lat="39.1451240" lon="-1.5955460">
        <ele>671.0</ele>
        <time>2019-05-12T09:46:12Z</time>
      </trkpt>
      <trkpt lat="39.1451230" lon="-1.5955090">
        <ele>671.4</ele>
        <time>2019-05-12T09:46:13Z</time>
      </trkpt>
      <trkpt lat="39.1451180" lon="-1.5954730">
        <ele>671.6</ele>
        <time>2019-05-12T09:46:14Z</time>
      </trkpt>
      <trkpt lat="39.1451070" lon="-1.5954370">
        <ele>672.0</ele>
        <time>2019-05-12T09:46:15Z</time>
      </trkpt>
      <trkpt lat="39.1450950" lon="-1.5954000">
        <ele>672.0</ele>
        <time>2019-05-12T09:46:16Z</time>
      </trkpt>
      <trkpt lat="39.1450800" lon="-1.5953660">
        <ele>672.6</ele>
        <time>2019-05-12T09:46:17Z</time>
      </trkpt>
      <trkpt lat="39.1450630" lon="-1.5953350">
        <ele>672.8</ele>
        <time>2019-05-12T09:46:18Z</time>
      </trkpt>
      <trkpt lat="39.1450430" lon="-1.5953060">
        <ele>673.2</ele>
        <time>2019-05-12T09:46:19Z</time>
      </trkpt>
      <trkpt lat="39.1450190" lon="-1.5952800">
        <ele>673.6</ele>
        <time>2019-05-12T09:46:20Z</time>
      </trkpt>
      <trkpt lat="39.1449920" lon="-1.5952590">
        <ele>674.0</ele>
        <time>2019-05-12T09:46:21Z</time>
      </trkpt>
      <trkpt lat="39.1449600" lon="-1.5952430">
        <ele>674.2</ele>
        <time>2019-05-12T09:46:22Z</time>
      </trkpt>
      <trkpt lat="39.1449240" lon="-1.5952370">
        <ele>674.4</ele>
        <time>2019-05-12T09:46:23Z</time>
      </trkpt>
      <trkpt lat="39.1448890" lon="-1.5952360">
        <ele>674.6</ele>
        <time>2019-05-12T09:46:24Z</time>
      </trkpt>
      <trkpt lat="39.1448540" lon="-1.5952420">
        <ele>674.8</ele>
        <time>2019-05-12T09:46:25Z</time>
      </trkpt>
      <trkpt lat="39.1448190" lon="-1.5952540">
        <ele>674.8</ele>
        <time>2019-05-12T09:46:26Z</time>
      </trkpt>
      <trkpt lat="39.1447840" lon="-1.5952670">
        <ele>674.8</ele>
        <time>2019-05-12T09:46:27Z</time>
      </trkpt>
      <trkpt lat="39.1447480" lon="-1.5952760">
        <ele>675.0</ele>
        <time>2019-05-12T09:46:28Z</time>
      </trkpt>
      <trkpt lat="39.1447100" lon="-1.5952880">
        <ele>675.0</ele>
        <time>2019-05-12T09:46:29Z</time>
      </trkpt>
      <trkpt lat="39.1446690" lon="-1.5953010">
        <ele>675.0</ele>
        <time>2019-05-12T09:46:30Z</time>
      </trkpt>
      <trkpt lat="39.1446250" lon="-1.5953120">
        <ele>675.0</ele>
        <time>2019-05-12T09:46:31Z</time>
      </trkpt>
      <trkpt lat="39.1445790" lon="-1.5953230">
        <ele>675.2</ele>
        <time>2019-05-12T09:46:32Z</time>
      </trkpt>
      <trkpt lat="39.1445330" lon="-1.5953310">
        <ele>675.2</ele>
        <time>2019-05-12T09:46:33Z</time>
      </trkpt>
      <trkpt lat="39.1444850" lon="-1.5953350">
        <ele>675.4</ele>
        <time>2019-05-12T09:46:34Z</time>
      </trkpt>
      <trkpt lat="39.1444360" lon="-1.5953350">
        <ele>675.4</ele>
        <time>2019-05-12T09:46:35Z</time>
      </trkpt>
      <trkpt lat="39.1443870" lon="-1.5953250">
        <ele>675.2</ele>
        <time>2019-05-12T09:46:36Z</time>
      </trkpt>
      <trkpt lat="39.1443390" lon="-1.5953030">
        <ele>675.4</ele>
        <time>2019-05-12T09:46:37Z</time>
      </trkpt>
      <trkpt lat="39.1442930" lon="-1.5952690">
        <ele>675.4</ele>
        <time>2019-05-12T09:46:38Z</time>
      </trkpt>
      <trkpt lat="39.1442490" lon="-1.5952290">
        <ele>675.6</ele>
        <time>2019-05-12T09:46:39Z</time>
      </trkpt>
      <trkpt lat="39.1442070" lon="-1.5951870">
        <ele>675.6</ele>
        <time>2019-05-12T09:46:40Z</time>
      </trkpt>
      <trkpt lat="39.1441670" lon="-1.5951420">
        <ele>675.6</ele>
        <time>2019-05-12T09:46:41Z</time>
      </trkpt>
      <trkpt lat="39.1441300" lon="-1.5950970">
        <ele>675.6</ele>
        <time>2019-05-12T09:46:42Z</time>
      </trkpt>
      <trkpt lat="39.1440950" lon="-1.5950510">
        <ele>675.6</ele>
        <time>2019-05-12T09:46:43Z</time>
      </trkpt>
      <trkpt lat="39.1440620" lon="-1.5950040">
        <ele>675.8</ele>
        <time>2019-05-12T09:46:44Z</time>
      </trkpt>
      <trkpt lat="39.1440290" lon="-1.5949580">
        <ele>675.8</ele>
        <time>2019-05-12T09:46:45Z</time>
      </trkpt>
      <trkpt lat="39.1439980" lon="-1.5949140">
        <ele>675.8</ele>
        <time>2019-05-12T09:46:46Z</time>
      </trkpt>
      <trkpt lat="39.1439680" lon="-1.5948700">
        <ele>675.8</ele>
        <time>2019-05-12T09:46:47Z</time>
      </trkpt>
      <trkpt lat="39.1439420" lon="-1.5948230">
        <ele>675.8</ele>
        <time>2019-05-12T09:46:48Z</time>
      </trkpt>
      <trkpt lat="39.1439240" lon="-1.5947720">
        <ele>676.0</ele>
        <time>2019-05-12T09:46:49Z</time>
      </trkpt>
      <trkpt lat="39.1439140" lon="-1.5947180">
        <ele>676.0</ele>
        <time>2019-05-12T09:46:50Z</time>
      </trkpt>
      <trkpt lat="39.1439080" lon="-1.5946630">
        <ele>676.0</ele>
        <time>2019-05-12T09:46:51Z</time>
      </trkpt>
      <trkpt lat="39.1439020" lon="-1.5946080">
        <ele>676.2</ele>
        <time>2019-05-12T09:46:52Z</time>
      </trkpt>
      <trkpt lat="39.1438940" lon="-1.5945540">
        <ele>676.4</ele>
        <time>2019-05-12T09:46:53Z</time>
      </trkpt>
      <trkpt lat="39.1438800" lon="-1.5945020">
        <ele>676.6</ele>
        <time>2019-05-12T09:46:54Z</time>
      </trkpt>
      <trkpt lat="39.1438580" lon="-1.5944550">
        <ele>676.8</ele>
        <time>2019-05-12T09:46:55Z</time>
      </trkpt>
      <trkpt lat="39.1438270" lon="-1.5944250">
        <ele>677.0</ele>
        <time>2019-05-12T09:46:56Z</time>
      </trkpt>
      <trkpt lat="39.1437890" lon="-1.5944110">
        <ele>677.2</ele>
        <time>2019-05-12T09:46:57Z</time>
      </trkpt>
      <trkpt lat="39.1437520" lon="-1.5944100">
        <ele>677.4</ele>
        <time>2019-05-12T09:46:58Z</time>
      </trkpt>
      <trkpt lat="39.1437150" lon="-1.5944150">
        <ele>677.6</ele>
        <time>2019-05-12T09:46:59Z</time>
      </trkpt>
      <trkpt lat="39.1436790" lon="-1.5944180">
        <ele>677.8</ele>
        <time>2019-05-12T09:47:00Z</time>
      </trkpt>
      <trkpt lat="39.1436430" lon="-1.5944210">
        <ele>677.8</ele>
        <time>2019-05-12T09:47:01Z</time>
      </trkpt>
      <trkpt lat="39.1436070" lon="-1.5944250">
        <ele>678.0</ele>
        <time>2019-05-12T09:47:02Z</time>
      </trkpt>
      <trkpt lat="39.1435700" lon="-1.5944300">
        <ele>678.2</ele>
        <time>2019-05-12T09:47:03Z</time>
      </trkpt>
      <trkpt lat="39.1435330" lon="-1.5944350">
        <ele>678.4</ele>
        <time>2019-05-12T09:47:04Z</time>
      </trkpt>
      <trkpt lat="39.1434960" lon="-1.5944400">
        <ele>678.6</ele>
        <time>2019-05-12T09:47:05Z</time>
      </trkpt>
      <trkpt lat="39.1434600" lon="-1.5944440">
        <ele>678.8</ele>
        <time>2019-05-12T09:47:06Z</time>
      </trkpt>
      <trkpt lat="39.1434230" lon="-1.5944420">
        <ele>679.2</ele>
        <time>2019-05-12T09:47:07Z</time>
      </trkpt>
      <trkpt lat="39.1433860" lon="-1.5944380">
        <ele>679.4</ele>
        <time>2019-05-12T09:47:08Z</time>
      </trkpt>
      <trkpt lat="39.1433480" lon="-1.5944330">
        <ele>679.8</ele>
        <time>2019-05-12T09:47:09Z</time>
      </trkpt>
      <trkpt lat="39.1433100" lon="-1.5944280">
        <ele>680.0</ele>
        <time>2019-05-12T09:47:10Z</time>
      </trkpt>
      <trkpt lat="39.1432700" lon="-1.5944220">
        <ele>680.0</ele>
        <time>2019-05-12T09:47:11Z</time>
      </trkpt>
      <trkpt lat="39.1432270" lon="-1.5944160">
        <ele>680.2</ele>
        <time>2019-05-12T09:47:12Z</time>
      </trkpt>
      <trkpt lat="39.1431820" lon="-1.5944100">
        <ele>680.4</ele>
        <time>2019-05-12T09:47:13Z</time>
      </trkpt>
      <trkpt lat="39.1431310" lon="-1.5944040">
        <ele>680.6</ele>
        <time>2019-05-12T09:47:14Z</time>
      </trkpt>
      <trkpt lat="39.1430760" lon="-1.5944020">
        <ele>680.6</ele>
        <time>2019-05-12T09:47:15Z</time>
      </trkpt>
      <trkpt lat="39.1430160" lon="-1.5944100">
        <ele>680.6</ele>
        <time>2019-05-12T09:47:16Z</time>
      </trkpt>
      <trkpt lat="39.1429520" lon="-1.5944310">
        <ele>680.8</ele>
        <time>2019-05-12T09:47:17Z</time>
      </trkpt>
      <trkpt lat="39.1429070" lon="-1.5944460">
        <ele>680.8</ele>
        <time>2019-05-12T09:47:18Z</time>
      </trkpt>
      <trkpt lat="39.1428620" lon="-1.5944610">
        <ele>680.8</ele>
        <time>2019-05-12T09:47:19Z</time>
      </trkpt>
      <trkpt lat="39.1427720" lon="-1.5944900">
        <ele>680.8</ele>
        <time>2019-05-12T09:47:20Z</time>
      </trkpt>
      <trkpt lat="39.1427120" lon="-1.5944910">
        <ele>680.8</ele>
        <time>2019-05-12T09:47:21Z</time>
      </trkpt>
      <trkpt lat="39.1426610" lon="-1.5944870">
        <ele>680.8</ele>
        <time>2019-05-12T09:47:22Z</time>
      </trkpt>
      <trkpt lat="39.1426210" lon="-1.5944660">
        <ele>680.8</ele>
        <time>2019-05-12T09:47:23Z</time>
      </trkpt>
      <trkpt lat="39.1425870" lon="-1.5944450">
        <ele>680.6</ele>
        <time>2019-05-12T09:47:24Z</time>
      </trkpt>
      <trkpt lat="39.1425600" lon="-1.5944530">
        <ele>680.0</ele>
        <time>2019-05-12T09:47:25Z</time>
      </trkpt>
      <trkpt lat="39.1425320" lon="-1.5944610">
        <ele>678.4</ele>
        <time>2019-05-12T09:47:26Z</time>
      </trkpt>
      <trkpt lat="39.1424970" lon="-1.5944750">
        <ele>677.4</ele>
        <time>2019-05-12T09:47:27Z</time>
      </trkpt>
      <trkpt lat="39.1424680" lon="-1.5944650">
        <ele>676.6</ele>
        <time>2019-05-12T09:47:28Z</time>
      </trkpt>
      <trkpt lat="39.1424470" lon="-1.5944300">
        <ele>675.8</ele>
        <time>2019-05-12T09:47:29Z</time>
      </trkpt>
      <trkpt lat="39.1424190" lon="-1.5943910">
        <ele>674.8</ele>
        <time>2019-05-12T09:47:30Z</time>
      </trkpt>
      <trkpt lat="39.1423850" lon="-1.5943520">
        <ele>674.2</ele>
        <time>2019-05-12T09:47:31Z</time>
      </trkpt>
      <trkpt lat="39.1423460" lon="-1.5943140">
        <ele>673.4</ele>
        <time>2019-05-12T09:47:32Z</time>
      </trkpt>
      <trkpt lat="39.1423060" lon="-1.5942760">
        <ele>673.0</ele>
        <time>2019-05-12T09:47:33Z</time>
      </trkpt>
      <trkpt lat="39.1422640" lon="-1.5942520">
        <ele>672.8</ele>
        <time>2019-05-12T09:47:34Z</time>
      </trkpt>
      <trkpt lat="39.1422260" lon="-1.5942390">
        <ele>672.2</ele>
        <time>2019-05-12T09:47:35Z</time>
      </trkpt>
      <trkpt lat="39.1421900" lon="-1.5942420">
        <ele>671.6</ele>
        <time>2019-05-12T09:47:36Z</time>
      </trkpt>
      <trkpt lat="39.1421550" lon="-1.5942500">
        <ele>671.0</ele>
        <time>2019-05-12T09:47:37Z</time>
      </trkpt>
      <trkpt lat="39.1421230" lon="-1.5942690">
        <ele>670.6</ele>
        <time>2019-05-12T09:47:38Z</time>
      </trkpt>
      <trkpt lat="39.1420860" lon="-1.5942840">
        <ele>670.4</ele>
        <time>2019-05-12T09:47:39Z</time>
      </trkpt>
      <trkpt lat="39.1420530" lon="-1.5942880">
        <ele>670.2</ele>
        <time>2019-05-12T09:47:40Z</time>
      </trkpt>
      <trkpt lat="39.1420220" lon="-1.5942980">
        <ele>669.8</ele>
        <time>2019-05-12T09:47:41Z</time>
      </trkpt>
      <trkpt lat="39.1419930" lon="-1.5943190">
        <ele>669.2</ele>
        <time>2019-05-12T09:47:42Z</time>
      </trkpt>
      <trkpt lat="39.1419620" lon="-1.5943400">
        <ele>668.6</ele>
        <time>2019-05-12T09:47:43Z</time>
      </trkpt>
      <trkpt lat="39.1419300" lon="-1.5943540">
        <ele>668.2</ele>
        <time>2019-05-12T09:47:44Z</time>
      </trkpt>
      <trkpt lat="39.1418970" lon="-1.5943640">
        <ele>668.0</ele>
        <time>2019-05-12T09:47:45Z</time>
      </trkpt>
      <trkpt lat="39.1418620" lon="-1.5943720">
        <ele>667.8</ele>
        <time>2019-05-12T09:47:46Z</time>
      </trkpt>
      <trkpt lat="39.1418260" lon="-1.5943750">
        <ele>667.6</ele>
        <time>2019-05-12T09:47:47Z</time>
      </trkpt>
      <trkpt lat="39.1417930" lon="-1.5943830">
        <ele>667.6</ele>
        <time>2019-05-12T09:47:48Z</time>
      </trkpt>
      <trkpt lat="39.1417630" lon="-1.5944050">
        <ele>667.6</ele>
        <time>2019-05-12T09:47:49Z</time>
      </trkpt>
      <trkpt lat="39.1417330" lon="-1.5944260">
        <ele>667.4</ele>
        <time>2019-05-12T09:47:50Z</time>
      </trkpt>
      <trkpt lat="39.1416990" lon="-1.5944410">
        <ele>667.2</ele>
        <time>2019-05-12T09:47:51Z</time>
      </trkpt>
      <trkpt lat="39.1416610" lon="-1.5944470">
        <ele>666.8</ele>
        <time>2019-05-12T09:47:52Z</time>
      </trkpt>
      <trkpt lat="39.1416170" lon="-1.5944430">
        <ele>666.2</ele>
        <time>2019-05-12T09:47:53Z</time>
      </trkpt>
      <trkpt lat="39.1415710" lon="-1.5944310">
        <ele>665.6</ele>
        <time>2019-05-12T09:47:54Z</time>
      </trkpt>
      <trkpt lat="39.1415280" lon="-1.5944280">
        <ele>664.8</ele>
        <time>2019-05-12T09:47:55Z</time>
      </trkpt>
      <trkpt lat="39.1414880" lon="-1.5944330">
        <ele>664.2</ele>
        <time>2019-05-12T09:47:56Z</time>
      </trkpt>
      <trkpt lat="39.1414490" lon="-1.5944360">
        <ele>663.6</ele>
        <time>2019-05-12T09:47:57Z</time>
      </trkpt>
      <trkpt lat="39.1414110" lon="-1.5944480">
        <ele>663.0</ele>
        <time>2019-05-12T09:47:58Z</time>
      </trkpt>
      <trkpt lat="39.1413770" lon="-1.5944770">
        <ele>662.2</ele>
        <time>2019-05-12T09:47:59Z</time>
      </trkpt>
      <trkpt lat="39.1413440" lon="-1.5945170">
        <ele>661.4</ele>
        <time>2019-05-12T09:48:00Z</time>
      </trkpt>
      <trkpt lat="39.1413150" lon="-1.5945670">
        <ele>660.0</ele>
        <time>2019-05-12T09:48:01Z</time>
      </trkpt>
      <trkpt lat="39.1412860" lon="-1.5946130">
        <ele>659.4</ele>
        <time>2019-05-12T09:48:02Z</time>
      </trkpt>
      <trkpt lat="39.1412570" lon="-1.5946460">
        <ele>658.8</ele>
        <time>2019-05-12T09:48:03Z</time>
      </trkpt>
      <trkpt lat="39.1412320" lon="-1.5946760">
        <ele>658.4</ele>
        <time>2019-05-12T09:48:04Z</time>
      </trkpt>
      <trkpt lat="39.1412170" lon="-1.5947110">
        <ele>657.8</ele>
        <time>2019-05-12T09:48:05Z</time>
      </trkpt>
      <trkpt lat="39.1412150" lon="-1.5947560">
        <ele>657.4</ele>
        <time>2019-05-12T09:48:06Z</time>
      </trkpt>
      <trkpt lat="39.1412160" lon="-1.5948050">
        <ele>656.8</ele>
        <time>2019-05-12T09:48:07Z</time>
      </trkpt>
      <trkpt lat="39.1412160" lon="-1.5948640">
        <ele>656.2</ele>
        <time>2019-05-12T09:48:08Z</time>
      </trkpt>
      <trkpt lat="39.1412140" lon="-1.5949250">
        <ele>655.4</ele>
        <time>2019-05-12T09:48:09Z</time>
      </trkpt>
      <trkpt lat="39.1412170" lon="-1.5949880">
        <ele>654.4</ele>
        <time>2019-05-12T09:48:10Z</time>
      </trkpt>
      <trkpt lat="39.1412320" lon="-1.5950480">
        <ele>653.6</ele>
        <time>2019-05-12T09:48:11Z</time>
      </trkpt>
      <trkpt lat="39.1412520" lon="-1.5951090">
        <ele>652.6</ele>
        <time>2019-05-12T09:48:12Z</time>
      </trkpt>
      <trkpt lat="39.1412700" lon="-1.5951730">
        <ele>652.0</ele>
        <time>2019-05-12T09:48:13Z</time>
      </trkpt>
      <trkpt lat="39.1412830" lon="-1.5952390">
        <ele>651.4</ele>
        <time>2019-05-12T09:48:14Z</time>
      </trkpt>
      <trkpt lat="39.1412930" lon="-1.5953100">
        <ele>651.0</ele>
        <time>2019-05-12T09:48:15Z</time>
      </trkpt>
      <trkpt lat="39.1413010" lon="-1.5953850">
        <ele>650.6</ele>
        <time>2019-05-12T09:48:16Z</time>
      </trkpt>
      <trkpt lat="39.1413110" lon="-1.5954650">
        <ele>650.4</ele>
        <time>2019-05-12T09:48:17Z</time>
      </trkpt>
      <trkpt lat="39.1413280" lon="-1.5955470">
        <ele>650.4</ele>
        <time>2019-05-12T09:48:18Z</time>
      </trkpt>
      <trkpt lat="39.1413450" lon="-1.5956300">
        <ele>650.2</ele>
        <time>2019-05-12T09:48:19Z</time>
      </trkpt>
      <trkpt lat="39.1413510" lon="-1.5957130">
        <ele>650.2</ele>
        <time>2019-05-12T09:48:20Z</time>
      </trkpt>
      <trkpt lat="39.1413440" lon="-1.5957900">
        <ele>650.0</ele>
        <time>2019-05-12T09:48:21Z</time>
      </trkpt>
      <trkpt lat="39.1413380" lon="-1.5958650">
        <ele>650.0</ele>
        <time>2019-05-12T09:48:22Z</time>
      </trkpt>
      <trkpt lat="39.1413460" lon="-1.5959360">
        <ele>650.0</ele>
        <time>2019-05-12T09:48:23Z</time>
      </trkpt>
      <trkpt lat="39.1413600" lon="-1.5959990">
        <ele>649.8</ele>
        <time>2019-05-12T09:48:24Z</time>
      </trkpt>
      <trkpt lat="39.1413730" lon="-1.5960640">
        <ele>649.8</ele>
        <time>2019-05-12T09:48:25Z</time>
      </trkpt>
      <trkpt lat="39.1413860" lon="-1.5961310">
        <ele>649.8</ele>
        <time>2019-05-12T09:48:26Z</time>
      </trkpt>
      <trkpt lat="39.1413990" lon="-1.5962020">
        <ele>649.6</ele>
        <time>2019-05-12T09:48:27Z</time>
      </trkpt>
      <trkpt lat="39.1414100" lon="-1.5962790">
        <ele>649.6</ele>
        <time>2019-05-12T09:48:28Z</time>
      </trkpt>
      <trkpt lat="39.1414140" lon="-1.5963600">
        <ele>649.4</ele>
        <time>2019-05-12T09:48:29Z</time>
      </trkpt>
      <trkpt lat="39.1414180" lon="-1.5964380">
        <ele>649.4</ele>
        <time>2019-05-12T09:48:30Z</time>
      </trkpt>
      <trkpt lat="39.1414230" lon="-1.5965130">
        <ele>649.4</ele>
        <time>2019-05-12T09:48:31Z</time>
      </trkpt>
      <trkpt lat="39.1414300" lon="-1.5965850">
        <ele>649.4</ele>
        <time>2019-05-12T09:48:32Z</time>
      </trkpt>
      <trkpt lat="39.1414440" lon="-1.5966570">
        <ele>649.4</ele>
        <time>2019-05-12T09:48:33Z</time>
      </trkpt>
      <trkpt lat="39.1414630" lon="-1.5967310">
        <ele>649.2</ele>
        <time>2019-05-12T09:48:34Z</time>
      </trkpt>
      <trkpt lat="39.1414810" lon="-1.5968120">
        <ele>649.2</ele>
        <time>2019-05-12T09:48:35Z</time>
      </trkpt>
      <trkpt lat="39.1415000" lon="-1.5968970">
        <ele>649.2</ele>
        <time>2019-05-12T09:48:36Z</time>
      </trkpt>
      <trkpt lat="39.1415210" lon="-1.5969860">
        <ele>649.2</ele>
        <time>2019-05-12T09:48:37Z</time>
      </trkpt>
      <trkpt lat="39.1415420" lon="-1.5970820">
        <ele>649.0</ele>
        <time>2019-05-12T09:48:38Z</time>
      </trkpt>
      <trkpt lat="39.1415600" lon="-1.5971840">
        <ele>649.0</ele>
        <time>2019-05-12T09:48:39Z</time>
      </trkpt>
      <trkpt lat="39.1415730" lon="-1.5972870">
        <ele>649.0</ele>
        <time>2019-05-12T09:48:40Z</time>
      </trkpt>
      <trkpt lat="39.1415770" lon="-1.5973820">
        <ele>649.0</ele>
        <time>2019-05-12T09:48:41Z</time>
      </trkpt>
      <trkpt lat="39.1415780" lon="-1.5974670">
        <ele>649.0</ele>
        <time>2019-05-12T09:48:42Z</time>
      </trkpt>
      <trkpt lat="39.1415750" lon="-1.5975410">
        <ele>648.8</ele>
        <time>2019-05-12T09:48:43Z</time>
      </trkpt>
      <trkpt lat="39.1415660" lon="-1.5976110">
        <ele>648.8</ele>
        <time>2019-05-12T09:48:44Z</time>
      </trkpt>
      <trkpt lat="39.1415530" lon="-1.5976780">
        <ele>648.8</ele>
        <time>2019-05-12T09:48:45Z</time>
      </trkpt>
      <trkpt lat="39.1415420" lon="-1.5977380">
        <ele>648.8</ele>
        <time>2019-05-12T09:48:46Z</time>
      </trkpt>
      <trkpt lat="39.1415370" lon="-1.5977960">
        <ele>648.8</ele>
        <time>2019-05-12T09:48:47Z</time>
      </trkpt>
      <trkpt lat="39.1415400" lon="-1.5978500">
        <ele>648.6</ele>
        <time>2019-05-12T09:48:48Z</time>
      </trkpt>
      <trkpt lat="39.1415430" lon="-1.5979030">
        <ele>648.6</ele>
        <time>2019-05-12T09:48:49Z</time>
      </trkpt>
      <trkpt lat="39.1415420" lon="-1.5979570">
        <ele>648.6</ele>
        <time>2019-05-12T09:48:50Z</time>
      </trkpt>
      <trkpt lat="39.1415360" lon="-1.5980080">
        <ele>648.6</ele>
        <time>2019-05-12T09:48:51Z</time>
      </trkpt>
      <trkpt lat="39.1415270" lon="-1.5980570">
        <ele>648.8</ele>
        <time>2019-05-12T09:48:52Z</time>
      </trkpt>
      <trkpt lat="39.1415200" lon="-1.5981060">
        <ele>648.8</ele>
        <time>2019-05-12T09:48:53Z</time>
      </trkpt>
      <trkpt lat="39.1415220" lon="-1.5981480">
        <ele>648.8</ele>
        <time>2019-05-12T09:48:54Z</time>
      </trkpt>
      <trkpt lat="39.1415360" lon="-1.5981780">
        <ele>648.8</ele>
        <time>2019-05-12T09:48:55Z</time>
      </trkpt>
      <trkpt lat="39.1415580" lon="-1.5982050">
        <ele>648.8</ele>
        <time>2019-05-12T09:48:56Z</time>
      </trkpt>
      <trkpt lat="39.1415840" lon="-1.5982360">
        <ele>648.8</ele>
        <time>2019-05-12T09:48:57Z</time>
      </trkpt>
      <trkpt lat="39.1416130" lon="-1.5982730">
        <ele>648.8</ele>
        <time>2019-05-12T09:48:58Z</time>
      </trkpt>
      <trkpt lat="39.1416430" lon="-1.5983170">
        <ele>648.8</ele>
        <time>2019-05-12T09:48:59Z</time>
      </trkpt>
      <trkpt lat="39.1416750" lon="-1.5983640">
        <ele>648.8</ele>
        <time>2019-05-12T09:49:00Z</time>
      </trkpt>
      <trkpt lat="39.1417080" lon="-1.5984090">
        <ele>648.8</ele>
        <time>2019-05-12T09:49:01Z</time>
      </trkpt>
      <trkpt lat="39.1417390" lon="-1.5984530">
        <ele>648.8</ele>
        <time>2019-05-12T09:49:02Z</time>
      </trkpt>
      <trkpt lat="39.1417680" lon="-1.5985000">
        <ele>648.8</ele>
        <time>2019-05-12T09:49:03Z</time>
      </trkpt>
      <trkpt lat="39.1417920" lon="-1.5985520">
        <ele>648.8</ele>
        <time>2019-05-12T09:49:04Z</time>
      </trkpt>
      <trkpt lat="39.1418130" lon="-1.5986000">
        <ele>648.6</ele>
        <time>2019-05-12T09:49:05Z</time>
      </trkpt>
      <trkpt lat="39.1418230" lon="-1.5986480">
        <ele>648.6</ele>
        <time>2019-05-12T09:49:06Z</time>
      </trkpt>
      <trkpt lat="39.1418270" lon="-1.5986930">
        <ele>648.4</ele>
        <time>2019-05-12T09:49:07Z</time>
      </trkpt>
      <trkpt lat="39.1418290" lon="-1.5987300">
        <ele>648.2</ele>
        <time>2019-05-12T09:49:08Z</time>
      </trkpt>
      <trkpt lat="39.1418250" lon="-1.5987690">
        <ele>648.2</ele>
        <time>2019-05-12T09:49:09Z</time>
      </trkpt>
      <trkpt lat="39.1418160" lon="-1.5988210">
        <ele>647.8</ele>
        <time>2019-05-12T09:49:10Z</time>
      </trkpt>
      <trkpt lat="39.1418110" lon="-1.5988810">
        <ele>647.6</ele>
        <time>2019-05-12T09:49:11Z</time>
      </trkpt>
      <trkpt lat="39.1418080" lon="-1.5989290">
        <ele>647.4</ele>
        <time>2019-05-12T09:49:12Z</time>
      </trkpt>
      <trkpt lat="39.1418060" lon="-1.5989690">
        <ele>647.4</ele>
        <time>2019-05-12T09:49:13Z</time>
      </trkpt>
      <trkpt lat="39.1418080" lon="-1.5990080">
        <ele>647.2</ele>
        <time>2019-05-12T09:49:14Z</time>
      </trkpt>
      <trkpt lat="39.1418090" lon="-1.5990460">
        <ele>646.8</ele>
        <time>2019-05-12T09:49:15Z</time>
      </trkpt>
      <trkpt lat="39.1418080" lon="-1.5990860">
        <ele>646.6</ele>
        <time>2019-05-12T09:49:16Z</time>
      </trkpt>
      <trkpt lat="39.1418070" lon="-1.5991250">
        <ele>646.4</ele>
        <time>2019-05-12T09:49:17Z</time>
      </trkpt>
      <trkpt lat="39.1418070" lon="-1.5991620">
        <ele>646.4</ele>
        <time>2019-05-12T09:49:18Z</time>
      </trkpt>
      <trkpt lat="39.1417990" lon="-1.5992010">
        <ele>646.4</ele>
        <time>2019-05-12T09:49:19Z</time>
      </trkpt>
      <trkpt lat="39.1417850" lon="-1.5992410">
        <ele>646.2</ele>
        <time>2019-05-12T09:49:20Z</time>
      </trkpt>
      <trkpt lat="39.1417670" lon="-1.5992800">
        <ele>646.2</ele>
        <time>2019-05-12T09:49:21Z</time>
      </trkpt>
      <trkpt lat="39.1417490" lon="-1.5993220">
        <ele>646.2</ele>
        <time>2019-05-12T09:49:22Z</time>
      </trkpt>
      <trkpt lat="39.1417370" lon="-1.5993650">
        <ele>646.2</ele>
        <time>2019-05-12T09:49:23Z</time>
      </trkpt>
      <trkpt lat="39.1417220" lon="-1.5994030">
        <ele>646.2</ele>
        <time>2019-05-12T09:49:24Z</time>
      </trkpt>
      <trkpt lat="39.1417070" lon="-1.5994360">
        <ele>646.4</ele>
        <time>2019-05-12T09:49:25Z</time>
      </trkpt>
      <trkpt lat="39.1416980" lon="-1.5994710">
        <ele>646.4</ele>
        <time>2019-05-12T09:49:26Z</time>
      </trkpt>
      <trkpt lat="39.1416980" lon="-1.5995070">
        <ele>646.4</ele>
        <time>2019-05-12T09:49:27Z</time>
      </trkpt>
      <trkpt lat="39.1417010" lon="-1.5995450">
        <ele>646.4</ele>
        <time>2019-05-12T09:49:28Z</time>
      </trkpt>
      <trkpt lat="39.1417010" lon="-1.5995910">
        <ele>646.6</ele>
        <time>2019-05-12T09:49:29Z</time>
      </trkpt>
      <trkpt lat="39.1416980" lon="-1.5996440">
        <ele>646.6</ele>
        <time>2019-05-12T09:49:30Z</time>
      </trkpt>
      <trkpt lat="39.1416950" lon="-1.5996960">
        <ele>646.6</ele>
        <time>2019-05-12T09:49:31Z</time>
      </trkpt>
      <trkpt lat="39.1416910" lon="-1.5997400">
        <ele>646.6</ele>
        <time>2019-05-12T09:49:32Z</time>
      </trkpt>
      <trkpt lat="39.1416920" lon="-1.5997810">
        <ele>646.6</ele>
        <time>2019-05-12T09:49:33Z</time>
      </trkpt>
      <trkpt lat="39.1416930" lon="-1.5998200">
        <ele>646.6</ele>
        <time>2019-05-12T09:49:34Z</time>
      </trkpt>
      <trkpt lat="39.1416840" lon="-1.5998660">
        <ele>646.6</ele>
        <time>2019-05-12T09:49:35Z</time>
      </trkpt>
      <trkpt lat="39.1416660" lon="-1.5999190">
        <ele>646.4</ele>
        <time>2019-05-12T09:49:36Z</time>
      </trkpt>
      <trkpt lat="39.1416370" lon="-1.5999680">
        <ele>646.4</ele>
        <time>2019-05-12T09:49:37Z</time>
      </trkpt>
      <trkpt lat="39.1416070" lon="-1.6000160">
        <ele>646.2</ele>
        <time>2019-05-12T09:49:38Z</time>
      </trkpt>
      <trkpt lat="39.1415840" lon="-1.6000680">
        <ele>646.0</ele>
        <time>2019-05-12T09:49:39Z</time>
      </trkpt>
      <trkpt lat="39.1415650" lon="-1.6001220">
        <ele>645.4</ele>
        <time>2019-05-12T09:49:40Z</time>
      </trkpt>
      <trkpt lat="39.1415550" lon="-1.6001760">
        <ele>644.8</ele>
        <time>2019-05-12T09:49:41Z</time>
      </trkpt>
      <trkpt lat="39.1415500" lon="-1.6002300">
        <ele>644.0</ele>
        <time>2019-05-12T09:49:42Z</time>
      </trkpt>
      <trkpt lat="39.1415460" lon="-1.6002810">
        <ele>643.4</ele>
        <time>2019-05-12T09:49:43Z</time>
      </trkpt>
      <trkpt lat="39.1415450" lon="-1.6003310">
        <ele>641.8</ele>
        <time>2019-05-12T09:49:44Z</time>
      </trkpt>
      <trkpt lat="39.1415430" lon="-1.6003770">
        <ele>641.2</ele>
        <time>2019-05-12T09:49:45Z</time>
      </trkpt>
      <trkpt lat="39.1415420" lon="-1.6004250">
        <ele>641.0</ele>
        <time>2019-05-12T09:49:46Z</time>
      </trkpt>
      <trkpt lat="39.1415400" lon="-1.6004750">
        <ele>640.8</ele>
        <time>2019-05-12T09:49:47Z</time>
      </trkpt>
      <trkpt lat="39.1415410" lon="-1.6005330">
        <ele>640.6</ele>
        <time>2019-05-12T09:49:48Z</time>
      </trkpt>
      <trkpt lat="39.1415380" lon="-1.6005950">
        <ele>640.6</ele>
        <time>2019-05-12T09:49:49Z</time>
      </trkpt>
      <trkpt lat="39.1415230" lon="-1.6006540">
        <ele>640.6</ele>
        <time>2019-05-12T09:49:50Z</time>
      </trkpt>
      <trkpt lat="39.1415040" lon="-1.6007080">
        <ele>640.4</ele>
        <time>2019-05-12T09:49:51Z</time>
      </trkpt>
      <trkpt lat="39.1414880" lon="-1.6007630">
        <ele>640.4</ele>
        <time>2019-05-12T09:49:52Z</time>
      </trkpt>
      <trkpt lat="39.1414790" lon="-1.6008200">
        <ele>640.2</ele>
        <time>2019-05-12T09:49:53Z</time>
      </trkpt>
      <trkpt lat="39.1414840" lon="-1.6008760">
        <ele>640.2</ele>
        <time>2019-05-12T09:49:54Z</time>
      </trkpt>
      <trkpt lat="39.1414900" lon="-1.6009380">
        <ele>640.0</ele>
        <time>2019-05-12T09:49:55Z</time>
      </trkpt>
      <trkpt lat="39.1414900" lon="-1.6009930">
        <ele>640.0</ele>
        <time>2019-05-12T09:49:56Z</time>
      </trkpt>
      <trkpt lat="39.1414790" lon="-1.6010320">
        <ele>639.6</ele>
        <time>2019-05-12T09:49:57Z</time>
      </trkpt>
      <trkpt lat="39.1414640" lon="-1.6010650">
        <ele>639.2</ele>
        <time>2019-05-12T09:49:58Z</time>
      </trkpt>
      <trkpt lat="39.1414580" lon="-1.6010940">
        <ele>639.0</ele>
        <time>2019-05-12T09:49:59Z</time>
      </trkpt>
      <trkpt lat="39.1414660" lon="-1.6011180">
        <ele>639.0</ele>
        <time>2019-05-12T09:50:00Z</time>
      </trkpt>
      <trkpt lat="39.1414830" lon="-1.6011440">
        <ele>638.8</ele>
        <time>2019-05-12T09:50:01Z</time>
      </trkpt>
      <trkpt lat="39.1415030" lon="-1.6011660">
        <ele>638.6</ele>
        <time>2019-05-12T09:50:02Z</time>
      </trkpt>
      <trkpt lat="39.1415270" lon="-1.6011860">
        <ele>638.2</ele>
        <time>2019-05-12T09:50:03Z</time>
      </trkpt>
      <trkpt lat="39.1415520" lon="-1.6012090">
        <ele>637.8</ele>
        <time>2019-05-12T09:50:04Z</time>
      </trkpt>
      <trkpt lat="39.1415710" lon="-1.6012360">
        <ele>637.0</ele>
        <time>2019-05-12T09:50:05Z</time>
      </trkpt>
      <trkpt lat="39.1415770" lon="-1.6012680">
        <ele>636.4</ele>
        <time>2019-05-12T09:50:06Z</time>
      </trkpt>
      <trkpt lat="39.1415710" lon="-1.6012940">
        <ele>636.0</ele>
        <time>2019-05-12T09:50:07Z</time>
      </trkpt>
      <trkpt lat="39.1415560" lon="-1.6013180">
        <ele>635.6</ele>
        <time>2019-05-12T09:50:08Z</time>
      </trkpt>
      <trkpt lat="39.1415430" lon="-1.6013440">
        <ele>635.0</ele>
        <time>2019-05-12T09:50:09Z</time>
      </trkpt>
      <trkpt lat="39.1415380" lon="-1.6013760">
        <ele>634.6</ele>
        <time>2019-05-12T09:50:10Z</time>
      </trkpt>
      <trkpt lat="39.1415420" lon="-1.6014100">
        <ele>634.2</ele>
        <time>2019-05-12T09:50:11Z</time>
      </trkpt>
      <trkpt lat="39.1415560" lon="-1.6014520">
        <ele>633.8</ele>
        <time>2019-05-12T09:50:12Z</time>
      </trkpt>
      <trkpt lat="39.1415780" lon="-1.6015010">
        <ele>633.2</ele>
        <time>2019-05-12T09:50:13Z</time>
      </trkpt>
      <trkpt lat="39.1416020" lon="-1.6015500">
        <ele>632.8</ele>
        <time>2019-05-12T09:50:14Z</time>
      </trkpt>
      <trkpt lat="39.1416270" lon="-1.6015970">
        <ele>632.4</ele>
        <time>2019-05-12T09:50:15Z</time>
      </trkpt>
      <trkpt lat="39.1416500" lon="-1.6016450">
        <ele>632.0</ele>
        <time>2019-05-12T09:50:16Z</time>
      </trkpt>
      <trkpt lat="39.1416660" lon="-1.6017010">
        <ele>631.4</ele>
        <time>2019-05-12T09:50:17Z</time>
      </trkpt>
      <trkpt lat="39.1416730" lon="-1.6017640">
        <ele>631.0</ele>
        <time>2019-05-12T09:50:18Z</time>
      </trkpt>
      <trkpt lat="39.1416750" lon="-1.6018310">
        <ele>629.8</ele>
        <time>2019-05-12T09:50:19Z</time>
      </trkpt>
      <trkpt lat="39.1416850" lon="-1.6019030">
        <ele>629.2</ele>
        <time>2019-05-12T09:50:20Z</time>
      </trkpt>
      <trkpt lat="39.1416990" lon="-1.6019760">
        <ele>628.8</ele>
        <time>2019-05-12T09:50:21Z</time>
      </trkpt>
      <trkpt lat="39.1417160" lon="-1.6020500">
        <ele>628.2</ele>
        <time>2019-05-12T09:50:22Z</time>
      </trkpt>
      <trkpt lat="39.1417370" lon="-1.6021250">
        <ele>628.0</ele>
        <time>2019-05-12T09:50:23Z</time>
      </trkpt>
      <trkpt lat="39.1417520" lon="-1.6021990">
        <ele>627.4</ele>
        <time>2019-05-12T09:50:24Z</time>
      </trkpt>
      <trkpt lat="39.1417640" lon="-1.6022800">
        <ele>627.2</ele>
        <time>2019-05-12T09:50:25Z</time>
      </trkpt>
      <trkpt lat="39.1417710" lon="-1.6023580">
        <ele>626.6</ele>
        <time>2019-05-12T09:50:26Z</time>
      </trkpt>
      <trkpt lat="39.1417750" lon="-1.6024270">
        <ele>626.2</ele>
        <time>2019-05-12T09:50:27Z</time>
      </trkpt>
      <trkpt lat="39.1417850" lon="-1.6024810">
        <ele>625.2</ele>
        <time>2019-05-12T09:50:28Z</time>
      </trkpt>
      <trkpt lat="39.1417970" lon="-1.6025370">
        <ele>624.4</ele>
        <time>2019-05-12T09:50:29Z</time>
      </trkpt>
      <trkpt lat="39.1418040" lon="-1.6025890">
        <ele>623.4</ele>
        <time>2019-05-12T09:50:30Z</time>
      </trkpt>
      <trkpt lat="39.1418140" lon="-1.6026410">
        <ele>622.6</ele>
        <time>2019-05-12T09:50:31Z</time>
      </trkpt>
      <trkpt lat="39.1418280" lon="-1.6027010">
        <ele>621.8</ele>
        <time>2019-05-12T09:50:32Z</time>
      </trkpt>
      <trkpt lat="39.1418470" lon="-1.6027670">
        <ele>621.0</ele>
        <time>2019-05-12T09:50:33Z</time>
      </trkpt>
      <trkpt lat="39.1418660" lon="-1.6028340">
        <ele>620.4</ele>
        <time>2019-05-12T09:50:34Z</time>
      </trkpt>
      <trkpt lat="39.1418840" lon="-1.6029060">
        <ele>619.6</ele>
        <time>2019-05-12T09:50:35Z</time>
      </trkpt>
      <trkpt lat="39.1418970" lon="-1.6029800">
        <ele>618.6</ele>
        <time>2019-05-12T09:50:36Z</time>
      </trkpt>
      <trkpt lat="39.1419060" lon="-1.6030520">
        <ele>618.0</ele>
        <time>2019-05-12T09:50:37Z</time>
      </trkpt>
      <trkpt lat="39.1419090" lon="-1.6031300">
        <ele>617.4</ele>
        <time>2019-05-12T09:50:38Z</time>
      </trkpt>
      <trkpt lat="39.1419110" lon="-1.6032090">
        <ele>616.8</ele>
        <time>2019-05-12T09:50:39Z</time>
      </trkpt>
      <trkpt lat="39.1419180" lon="-1.6032870">
        <ele>616.2</ele>
        <time>2019-05-12T09:50:40Z</time>
      </trkpt>
      <trkpt lat="39.1419320" lon="-1.6033600">
        <ele>615.6</ele>
        <time>2019-05-12T09:50:41Z</time>
      </trkpt>
      <trkpt lat="39.1419470" lon="-1.6034290">
        <ele>615.0</ele>
        <time>2019-05-12T09:50:42Z</time>
      </trkpt>
      <trkpt lat="39.1419610" lon="-1.6034900">
        <ele>614.8</ele>
        <time>2019-05-12T09:50:43Z</time>
      </trkpt>
      <trkpt lat="39.1419730" lon="-1.6035400">
        <ele>614.6</ele>
        <time>2019-05-12T09:50:44Z</time>
      </trkpt>
      <trkpt lat="39.1419760" lon="-1.6035820">
        <ele>614.2</ele>
        <time>2019-05-12T09:50:45Z</time>
      </trkpt>
      <trkpt lat="39.1419660" lon="-1.6036180">
        <ele>614.0</ele>
        <time>2019-05-12T09:50:46Z</time>
      </trkpt>
      <trkpt lat="39.1419450" lon="-1.6036440">
        <ele>613.8</ele>
        <time>2019-05-12T09:50:47Z</time>
      </trkpt>
      <trkpt lat="39.1419180" lon="-1.6036560">
        <ele>613.6</ele>
        <time>2019-05-12T09:50:48Z</time>
      </trkpt>
      <trkpt lat="39.1418890" lon="-1.6036560">
        <ele>613.6</ele>
        <time>2019-05-12T09:50:49Z</time>
      </trkpt>
      <trkpt lat="39.1418590" lon="-1.6036430">
        <ele>613.4</ele>
        <time>2019-05-12T09:50:50Z</time>
      </trkpt>
      <trkpt lat="39.1418290" lon="-1.6036240">
        <ele>613.4</ele>
        <time>2019-05-12T09:50:51Z</time>
      </trkpt>
      <trkpt lat="39.1418030" lon="-1.6036110">
        <ele>613.2</ele>
        <time>2019-05-12T09:50:52Z</time>
      </trkpt>
      <trkpt lat="39.1417810" lon="-1.6036050">
        <ele>613.0</ele>
        <time>2019-05-12T09:50:53Z</time>
      </trkpt>
      <trkpt lat="39.1417640" lon="-1.6036060">
        <ele>612.4</ele>
        <time>2019-05-12T09:50:54Z</time>
      </trkpt>
      <trkpt lat="39.1417520" lon="-1.6036140">
        <ele>611.8</ele>
        <time>2019-05-12T09:50:55Z</time>
      </trkpt>
      <trkpt lat="39.1417450" lon="-1.6036380">
        <ele>611.2</ele>
        <time>2019-05-12T09:50:56Z</time>
      </trkpt>
      <trkpt lat="39.1417400" lon="-1.6036740">
        <ele>610.4</ele>
        <time>2019-05-12T09:50:57Z</time>
      </trkpt>
      <trkpt lat="39.1417320" lon="-1.6037210">
        <ele>609.8</ele>
        <time>2019-05-12T09:50:58Z</time>
      </trkpt>
      <trkpt lat="39.1417200" lon="-1.6037780">
        <ele>609.2</ele>
        <time>2019-05-12T09:50:59Z</time>
      </trkpt>
      <trkpt lat="39.1417090" lon="-1.6038470">
        <ele>608.4</ele>
        <time>2019-05-12T09:51:00Z</time>
      </trkpt>
      <trkpt lat="39.1417020" lon="-1.6039230">
        <ele>607.6</ele>
        <time>2019-05-12T09:51:01Z</time>
      </trkpt>
      <trkpt lat="39.1417010" lon="-1.6040040">
        <ele>607.0</ele>
        <time>2019-05-12T09:51:02Z</time>
      </trkpt>
      <trkpt lat="39.1417020" lon="-1.6040810">
        <ele>606.4</ele>
        <time>2019-05-12T09:51:03Z</time>
      </trkpt>
      <trkpt lat="39.1417030" lon="-1.6041600">
        <ele>606.0</ele>
        <time>2019-05-12T09:51:04Z</time>
      </trkpt>
      <trkpt lat="39.1417030" lon="-1.6042380">
        <ele>605.8</ele>
        <time>2019-05-12T09:51:05Z</time>
      </trkpt>
      <trkpt lat="39.1417010" lon="-1.6043170">
        <ele>605.6</ele>
        <time>2019-05-12T09:51:06Z</time>
      </trkpt>
      <trkpt lat="39.1416980" lon="-1.6043970">
        <ele>605.4</ele>
        <time>2019-05-12T09:51:07Z</time>
      </trkpt>
      <trkpt lat="39.1416950" lon="-1.6044780">
        <ele>605.0</ele>
        <time>2019-05-12T09:51:08Z</time>
      </trkpt>
      <trkpt lat="39.1416900" lon="-1.6045530">
        <ele>604.8</ele>
        <time>2019-05-12T09:51:09Z</time>
      </trkpt>
      <trkpt lat="39.1416760" lon="-1.6046170">
        <ele>604.6</ele>
        <time>2019-05-12T09:51:10Z</time>
      </trkpt>
      <trkpt lat="39.1416460" lon="-1.6046670">
        <ele>604.4</ele>
        <time>2019-05-12T09:51:11Z</time>
      </trkpt>
      <trkpt lat="39.1416020" lon="-1.6046990">
        <ele>604.2</ele>
        <time>2019-05-12T09:51:12Z</time>
      </trkpt>
      <trkpt lat="39.1415500" lon="-1.6047280">
        <ele>604.2</ele>
        <time>2019-05-12T09:51:13Z</time>
      </trkpt>
      <trkpt lat="39.1414980" lon="-1.6047600">
        <ele>604.2</ele>
        <time>2019-05-12T09:51:14Z</time>
      </trkpt>
      <trkpt lat="39.1414470" lon="-1.6047930">
        <ele>604.0</ele>
        <time>2019-05-12T09:51:15Z</time>
      </trkpt>
      <trkpt lat="39.1413960" lon="-1.6048260">
        <ele>603.8</ele>
        <time>2019-05-12T09:51:16Z</time>
      </trkpt>
      <trkpt lat="39.1413440" lon="-1.6048550">
        <ele>603.6</ele>
        <time>2019-05-12T09:51:17Z</time>
      </trkpt>
      <trkpt lat="39.1412910" lon="-1.6048840">
        <ele>603.2</ele>
        <time>2019-05-12T09:51:18Z</time>
      </trkpt>
      <trkpt lat="39.1412410" lon="-1.6049170">
        <ele>602.8</ele>
        <time>2019-05-12T09:51:19Z</time>
      </trkpt>
      <trkpt lat="39.1411950" lon="-1.6049580">
        <ele>602.4</ele>
        <time>2019-05-12T09:51:20Z</time>
      </trkpt>
      <trkpt lat="39.1411570" lon="-1.6050050">
        <ele>602.0</ele>
        <time>2019-05-12T09:51:21Z</time>
      </trkpt>
      <trkpt lat="39.1411240" lon="-1.6050560">
        <ele>601.6</ele>
        <time>2019-05-12T09:51:22Z</time>
      </trkpt>
      <trkpt lat="39.1410950" lon="-1.6051120">
        <ele>601.4</ele>
        <time>2019-05-12T09:51:23Z</time>
      </trkpt>
      <trkpt lat="39.1410670" lon="-1.6051670">
        <ele>601.4</ele>
        <time>2019-05-12T09:51:24Z</time>
      </trkpt>
      <trkpt lat="39.1410440" lon="-1.6052170">
        <ele>601.4</ele>
        <time>2019-05-12T09:51:25Z</time>
      </trkpt>
      <trkpt lat="39.1410310" lon="-1.6052640">
        <ele>601.2</ele>
        <time>2019-05-12T09:51:26Z</time>
      </trkpt>
      <trkpt lat="39.1410310" lon="-1.6053050">
        <ele>601.2</ele>
        <time>2019-05-12T09:51:27Z</time>
      </trkpt>
      <trkpt lat="39.1410430" lon="-1.6053390">
        <ele>601.2</ele>
        <time>2019-05-12T09:51:28Z</time>
      </trkpt>
      <trkpt lat="39.1410650" lon="-1.6053680">
        <ele>601.2</ele>
        <time>2019-05-12T09:51:29Z</time>
      </trkpt>
      <trkpt lat="39.1410940" lon="-1.6053970">
        <ele>601.2</ele>
        <time>2019-05-12T09:51:30Z</time>
      </trkpt>
      <trkpt lat="39.1411250" lon="-1.6054300">
        <ele>601.2</ele>
        <time>2019-05-12T09:51:31Z</time>
      </trkpt>
      <trkpt lat="39.1411570" lon="-1.6054650">
        <ele>601.2</ele>
        <time>2019-05-12T09:51:32Z</time>
      </trkpt>
      <trkpt lat="39.1411880" lon="-1.6055050">
        <ele>601.6</ele>
        <time>2019-05-12T09:51:33Z</time>
      </trkpt>
      <trkpt lat="39.1412170" lon="-1.6055510">
        <ele>602.0</ele>
        <time>2019-05-12T09:51:34Z</time>
      </trkpt>
      <trkpt lat="39.1412440" lon="-1.6056010">
        <ele>602.4</ele>
        <time>2019-05-12T09:51:35Z</time>
      </trkpt>
      <trkpt lat="39.1412710" lon="-1.6056530">
        <ele>602.8</ele>
        <time>2019-05-12T09:51:36Z</time>
      </trkpt>
      <trkpt lat="39.1412970" lon="-1.6057080">
        <ele>603.0</ele>
        <time>2019-05-12T09:51:37Z</time>
      </trkpt>
      <trkpt lat="39.1413200" lon="-1.6057640">
        <ele>603.2</ele>
        <time>2019-05-12T09:51:38Z</time>
      </trkpt>
      <trkpt lat="39.1413390" lon="-1.6058220">
        <ele>603.2</ele>
        <time>2019-05-12T09:51:39Z</time>
      </trkpt>
      <trkpt lat="39.1413560" lon="-1.6058800">
        <ele>603.2</ele>
        <time>2019-05-12T09:51:40Z</time>
      </trkpt>
      <trkpt lat="39.1413760" lon="-1.6059380">
        <ele>603.2</ele>
        <time>2019-05-12T09:51:41Z</time>
      </trkpt>
      <trkpt lat="39.1413980" lon="-1.6059980">
        <ele>603.4</ele>
        <time>2019-05-12T09:51:42Z</time>
      </trkpt>
      <trkpt lat="39.1414210" lon="-1.6060570">
        <ele>603.4</ele>
        <time>2019-05-12T09:51:43Z</time>
      </trkpt>
      <trkpt lat="39.1414470" lon="-1.6061190">
        <ele>603.4</ele>
        <time>2019-05-12T09:51:44Z</time>
      </trkpt>
      <trkpt lat="39.1414700" lon="-1.6061840">
        <ele>603.4</ele>
        <time>2019-05-12T09:51:45Z</time>
      </trkpt>
      <trkpt lat="39.1414910" lon="-1.6062500">
        <ele>603.4</ele>
        <time>2019-05-12T09:51:46Z</time>
      </trkpt>
      <trkpt lat="39.1415090" lon="-1.6063200">
        <ele>603.4</ele>
        <time>2019-05-12T09:51:47Z</time>
      </trkpt>
      <trkpt lat="39.1415240" lon="-1.6063920">
        <ele>603.4</ele>
        <time>2019-05-12T09:51:48Z</time>
      </trkpt>
      <trkpt lat="39.1415390" lon="-1.6064630">
        <ele>603.4</ele>
        <time>2019-05-12T09:51:49Z</time>
      </trkpt>
      <trkpt lat="39.1415500" lon="-1.6065340">
        <ele>603.4</ele>
        <time>2019-05-12T09:51:50Z</time>
      </trkpt>
      <trkpt lat="39.1415590" lon="-1.6066040">
        <ele>603.6</ele>
        <time>2019-05-12T09:51:51Z</time>
      </trkpt>
      <trkpt lat="39.1415660" lon="-1.6066720">
        <ele>603.6</ele>
        <time>2019-05-12T09:51:52Z</time>
      </trkpt>
      <trkpt lat="39.1415710" lon="-1.6067400">
        <ele>603.6</ele>
        <time>2019-05-12T09:51:53Z</time>
      </trkpt>
      <trkpt lat="39.1415740" lon="-1.6068070">
        <ele>603.6</ele>
        <time>2019-05-12T09:51:54Z</time>
      </trkpt>
      <trkpt lat="39.1415760" lon="-1.6068740">
        <ele>603.6</ele>
        <time>2019-05-12T09:51:55Z</time>
      </trkpt>
      <trkpt lat="39.1415780" lon="-1.6069390">
        <ele>603.6</ele>
        <time>2019-05-12T09:51:56Z</time>
      </trkpt>
      <trkpt lat="39.1415810" lon="-1.6069970">
        <ele>603.6</ele>
        <time>2019-05-12T09:51:57Z</time>
      </trkpt>
      <trkpt lat="39.1415820" lon="-1.6070490">
        <ele>603.6</ele>
        <time>2019-05-12T09:51:58Z</time>
      </trkpt>
      <trkpt lat="39.1415850" lon="-1.6070960">
        <ele>603.6</ele>
        <time>2019-05-12T09:51:59Z</time>
      </trkpt>
      <trkpt lat="39.1415880" lon="-1.6071420">
        <ele>603.6</ele>
        <time>2019-05-12T09:52:00Z</time>
      </trkpt>
      <trkpt lat="39.1415890" lon="-1.6071860">
        <ele>603.6</ele>
        <time>2019-05-12T09:52:01Z</time>
      </trkpt>
      <trkpt lat="39.1415910" lon="-1.6072280">
        <ele>603.6</ele>
        <time>2019-05-12T09:52:02Z</time>
      </trkpt>
      <trkpt lat="39.1415930" lon="-1.6072700">
        <ele>603.8</ele>
        <time>2019-05-12T09:52:03Z</time>
      </trkpt>
      <trkpt lat="39.1415950" lon="-1.6073120">
        <ele>604.0</ele>
        <time>2019-05-12T09:52:04Z</time>
      </trkpt>
      <trkpt lat="39.1416000" lon="-1.6073550">
        <ele>604.0</ele>
        <time>2019-05-12T09:52:05Z</time>
      </trkpt>
      <trkpt lat="39.1416100" lon="-1.6073980">
        <ele>604.2</ele>
        <time>2019-05-12T09:52:06Z</time>
      </trkpt>
      <trkpt lat="39.1416250" lon="-1.6074400">
        <ele>604.6</ele>
        <time>2019-05-12T09:52:07Z</time>
      </trkpt>
      <trkpt lat="39.1416410" lon="-1.6074810">
        <ele>605.0</ele>
        <time>2019-05-12T09:52:08Z</time>
      </trkpt>
      <trkpt lat="39.1416600" lon="-1.6075220">
        <ele>605.4</ele>
        <time>2019-05-12T09:52:09Z</time>
      </trkpt>
      <trkpt lat="39.1416810" lon="-1.6075610">
        <ele>605.8</ele>
        <time>2019-05-12T09:52:10Z</time>
      </trkpt>
      <trkpt lat="39.1417030" lon="-1.6076000">
        <ele>606.0</ele>
        <time>2019-05-12T09:52:11Z</time>
      </trkpt>
      <trkpt lat="39.1417260" lon="-1.6076360">
        <ele>606.4</ele>
        <time>2019-05-12T09:52:12Z</time>
      </trkpt>
      <trkpt lat="39.1417510" lon="-1.6076700">
        <ele>606.6</ele>
        <time>2019-05-12T09:52:13Z</time>
      </trkpt>
      <trkpt lat="39.1417750" lon="-1.6077060">
        <ele>607.0</ele>
        <time>2019-05-12T09:52:14Z</time>
      </trkpt>
      <trkpt lat="39.1417980" lon="-1.6077410">
        <ele>607.2</ele>
        <time>2019-05-12T09:52:15Z</time>
      </trkpt>
      <trkpt lat="39.1418180" lon="-1.6077750">
        <ele>607.2</ele>
        <time>2019-05-12T09:52:16Z</time>
      </trkpt>
      <trkpt lat="39.1418350" lon="-1.6078080">
        <ele>607.6</ele>
        <time>2019-05-12T09:52:17Z</time>
      </trkpt>
      <trkpt lat="39.1418490" lon="-1.6078400">
        <ele>607.8</ele>
        <time>2019-05-12T09:52:18Z</time>
      </trkpt>
      <trkpt lat="39.1418570" lon="-1.6078730">
        <ele>608.0</ele>
        <time>2019-05-12T09:52:19Z</time>
      </trkpt>
      <trkpt lat="39.1418510" lon="-1.6079010">
        <ele>608.2</ele>
        <time>2019-05-12T09:52:20Z</time>
      </trkpt>
      <trkpt lat="39.1418340" lon="-1.6079230">
        <ele>608.4</ele>
        <time>2019-05-12T09:52:21Z</time>
      </trkpt>
      <trkpt lat="39.1418100" lon="-1.6079260">
        <ele>608.6</ele>
        <time>2019-05-12T09:52:22Z</time>
      </trkpt>
      <trkpt lat="39.1417860" lon="-1.6079130">
        <ele>608.6</ele>
        <time>2019-05-12T09:52:23Z</time>
      </trkpt>
      <trkpt lat="39.1417640" lon="-1.6078900">
        <ele>608.8</ele>
        <time>2019-05-12T09:52:24Z</time>
      </trkpt>
      <trkpt lat="39.1417410" lon="-1.6078630">
        <ele>609.0</ele>
        <time>2019-05-12T09:52:25Z</time>
      </trkpt>
      <trkpt lat="39.1417220" lon="-1.6078310">
        <ele>609.2</ele>
        <time>2019-05-12T09:52:26Z</time>
      </trkpt>
      <trkpt lat="39.1417040" lon="-1.6077960">
        <ele>609.4</ele>
        <time>2019-05-12T09:52:27Z</time>
      </trkpt>
      <trkpt lat="39.1416860" lon="-1.6077610">
        <ele>609.8</ele>
        <time>2019-05-12T09:52:28Z</time>
      </trkpt>
      <trkpt lat="39.1416660" lon="-1.6077260">
        <ele>610.2</ele>
        <time>2019-05-12T09:52:29Z</time>
      </trkpt>
      <trkpt lat="39.1416440" lon="-1.6076900">
        <ele>610.2</ele>
        <time>2019-05-12T09:52:30Z</time>
      </trkpt>
      <trkpt lat="39.1416230" lon="-1.6076540">
        <ele>610.4</ele>
        <time>2019-05-12T09:52:31Z</time>
      </trkpt>
      <trkpt lat="39.1416000" lon="-1.6076170">
        <ele>610.6</ele>
        <time>2019-05-12T09:52:32Z</time>
      </trkpt>
      <trkpt lat="39.1415770" lon="-1.6075820">
        <ele>610.8</ele>
        <time>2019-05-12T09:52:33Z</time>
      </trkpt>
      <trkpt lat="39.1415530" lon="-1.6075460">
        <ele>611.0</ele>
        <time>2019-05-12T09:52:34Z</time>
      </trkpt>
      <trkpt lat="39.1415310" lon="-1.6075090">
        <ele>611.2</ele>
        <time>2019-05-12T09:52:35Z</time>
      </trkpt>
      <trkpt lat="39.1415080" lon="-1.6074760">
        <ele>611.2</ele>
        <time>2019-05-12T09:52:36Z</time>
      </trkpt>
      <trkpt lat="39.1414850" lon="-1.6074450">
        <ele>611.4</ele>
        <time>2019-05-12T09:52:37Z</time>
      </trkpt>
      <trkpt lat="39.1414640" lon="-1.6074150">
        <ele>611.6</ele>
        <time>2019-05-12T09:52:38Z</time>
      </trkpt>
      <trkpt lat="39.1414450" lon="-1.6073830">
        <ele>611.8</ele>
        <time>2019-05-12T09:52:39Z</time>
      </trkpt>
      <trkpt lat="39.1414270" lon="-1.6073510">
        <ele>611.8</ele>
        <time>2019-05-12T09:52:40Z</time>
      </trkpt>
      <trkpt lat="39.1414080" lon="-1.6073180">
        <ele>611.8</ele>
        <time>2019-05-12T09:52:41Z</time>
      </trkpt>
      <trkpt lat="39.1413880" lon="-1.6072860">
        <ele>612.0</ele>
        <time>2019-05-12T09:52:42Z</time>
      </trkpt>
      <trkpt lat="39.1413680" lon="-1.6072530">
        <ele>612.4</ele>
        <time>2019-05-12T09:52:43Z</time>
      </trkpt>
      <trkpt lat="39.1413490" lon="-1.6072200">
        <ele>612.6</ele>
        <time>2019-05-12T09:52:44Z</time>
      </trkpt>
      <trkpt lat="39.1413280" lon="-1.6071870">
        <ele>612.8</ele>
        <time>2019-05-12T09:52:45Z</time>
      </trkpt>
      <trkpt lat="39.1413080" lon="-1.6071520">
        <ele>613.0</ele>
        <time>2019-05-12T09:52:46Z</time>
      </trkpt>
      <trkpt lat="39.1412890" lon="-1.6071140">
        <ele>613.2</ele>
        <time>2019-05-12T09:52:47Z</time>
      </trkpt>
      <trkpt lat="39.1412730" lon="-1.6070730">
        <ele>613.6</ele>
        <time>2019-05-12T09:52:48Z</time>
      </trkpt>
      <trkpt lat="39.1412580" lon="-1.6070330">
        <ele>614.0</ele>
        <time>2019-05-12T09:52:49Z</time>
      </trkpt>
      <trkpt lat="39.1412420" lon="-1.6069940">
        <ele>614.2</ele>
        <time>2019-05-12T09:52:50Z</time>
      </trkpt>
      <trkpt lat="39.1412260" lon="-1.6069530">
        <ele>614.4</ele>
        <time>2019-05-12T09:52:51Z</time>
      </trkpt>
      <trkpt lat="39.1412100" lon="-1.6069120">
        <ele>614.4</ele>
        <time>2019-05-12T09:52:52Z</time>
      </trkpt>
      <trkpt lat="39.1411910" lon="-1.6068700">
        <ele>614.6</ele>
        <time>2019-05-12T09:52:53Z</time>
      </trkpt>
      <trkpt lat="39.1411720" lon="-1.6068240">
        <ele>615.0</ele>
        <time>2019-05-12T09:52:54Z</time>
      </trkpt>
      <trkpt lat="39.1411540" lon="-1.6067760">
        <ele>615.2</ele>
        <time>2019-05-12T09:52:55Z</time>
      </trkpt>
      <trkpt lat="39.1411350" lon="-1.6067280">
        <ele>615.4</ele>
        <time>2019-05-12T09:52:56Z</time>
      </trkpt>
      <trkpt lat="39.1411150" lon="-1.6066800">
        <ele>615.6</ele>
        <time>2019-05-12T09:52:57Z</time>
      </trkpt>
      <trkpt lat="39.1410940" lon="-1.6066340">
        <ele>615.8</ele>
        <time>2019-05-12T09:52:58Z</time>
      </trkpt>
      <trkpt lat="39.1410750" lon="-1.6065840">
        <ele>615.8</ele>
        <time>2019-05-12T09:52:59Z</time>
      </trkpt>
      <trkpt lat="39.1410580" lon="-1.6065330">
        <ele>616.0</ele>
        <time>2019-05-12T09:53:00Z</time>
      </trkpt>
      <trkpt lat="39.1410430" lon="-1.6064820">
        <ele>616.0</ele>
        <time>2019-05-12T09:53:01Z</time>
      </trkpt>
      <trkpt lat="39.1410280" lon="-1.6064310">
        <ele>616.0</ele>
        <time>2019-05-12T09:53:02Z</time>
      </trkpt>
      <trkpt lat="39.1410140" lon="-1.6063830">
        <ele>616.0</ele>
        <time>2019-05-12T09:53:03Z</time>
      </trkpt>
      <trkpt lat="39.1410000" lon="-1.6063370">
        <ele>616.2</ele>
        <time>2019-05-12T09:53:04Z</time>
      </trkpt>
      <trkpt lat="39.1409890" lon="-1.6062920">
        <ele>616.2</ele>
        <time>2019-05-12T09:53:05Z</time>
      </trkpt>
      <trkpt lat="39.1409780" lon="-1.6062510">
        <ele>616.2</ele>
        <time>2019-05-12T09:53:06Z</time>
      </trkpt>
      <trkpt lat="39.1409690" lon="-1.6062090">
        <ele>616.2</ele>
        <time>2019-05-12T09:53:07Z</time>
      </trkpt>
      <trkpt lat="39.1409590" lon="-1.6061700">
        <ele>616.2</ele>
        <time>2019-05-12T09:53:08Z</time>
      </trkpt>
      <trkpt lat="39.1409490" lon="-1.6061310">
        <ele>616.2</ele>
        <time>2019-05-12T09:53:09Z</time>
      </trkpt>
      <trkpt lat="39.1409390" lon="-1.6060910">
        <ele>616.2</ele>
        <time>2019-05-12T09:53:10Z</time>
      </trkpt>
      <trkpt lat="39.1409270" lon="-1.6060510">
        <ele>616.4</ele>
        <time>2019-05-12T09:53:11Z</time>
      </trkpt>
      <trkpt lat="39.1409160" lon="-1.6060100">
        <ele>616.8</ele>
        <time>2019-05-12T09:53:12Z</time>
      </trkpt>
      <trkpt lat="39.1409040" lon="-1.6059700">
        <ele>617.4</ele>
        <time>2019-05-12T09:53:13Z</time>
      </trkpt>
      <trkpt lat="39.1408880" lon="-1.6059330">
        <ele>617.8</ele>
        <time>2019-05-12T09:53:14Z</time>
      </trkpt>
      <trkpt lat="39.1408730" lon="-1.6058980">
        <ele>618.0</ele>
        <time>2019-05-12T09:53:15Z</time>
      </trkpt>
      <trkpt lat="39.1408570" lon="-1.6058640">
        <ele>618.4</ele>
        <time>2019-05-12T09:53:16Z</time>
      </trkpt>
      <trkpt lat="39.1408420" lon="-1.6058320">
        <ele>618.6</ele>
        <time>2019-05-12T09:53:17Z</time>
      </trkpt>
      <trkpt lat="39.1408250" lon="-1.6058020">
        <ele>618.8</ele>
        <time>2019-05-12T09:53:18Z</time>
      </trkpt>
      <trkpt lat="39.1408050" lon="-1.6057780">
        <ele>619.0</ele>
        <time>2019-05-12T09:53:19Z</time>
      </trkpt>
      <trkpt lat="39.1407830" lon="-1.6057580">
        <ele>619.0</ele>
        <time>2019-05-12T09:53:20Z</time>
      </trkpt>
      <trkpt lat="39.1407590" lon="-1.6057440">
        <ele>619.2</ele>
        <time>2019-05-12T09:53:21Z</time>
      </trkpt>
      <trkpt lat="39.1407340" lon="-1.6057370">
        <ele>619.4</ele>
        <time>2019-05-12T09:53:22Z</time>
      </trkpt>
      <trkpt lat="39.1407100" lon="-1.6057350">
        <ele>619.6</ele>
        <time>2019-05-12T09:53:23Z</time>
      </trkpt>
      <trkpt lat="39.1406860" lon="-1.6057390">
        <ele>619.8</ele>
        <time>2019-05-12T09:53:24Z</time>
      </trkpt>
      <trkpt lat="39.1406640" lon="-1.6057480">
        <ele>620.0</ele>
        <time>2019-05-12T09:53:25Z</time>
      </trkpt>
      <trkpt lat="39.1406430" lon="-1.6057610">
        <ele>620.2</ele>
        <time>2019-05-12T09:53:26Z</time>
      </trkpt>
      <trkpt lat="39.1406260" lon="-1.6057790">
        <ele>620.6</ele>
        <time>2019-05-12T09:53:27Z</time>
      </trkpt>
      <trkpt lat="39.1406100" lon="-1.6058010">
        <ele>620.8</ele>
        <time>2019-05-12T09:53:28Z</time>
      </trkpt>
      <trkpt lat="39.1405970" lon="-1.6058260">
        <ele>621.4</ele>
        <time>2019-05-12T09:53:29Z</time>
      </trkpt>
      <trkpt lat="39.1405850" lon="-1.6058540">
        <ele>621.4</ele>
        <time>2019-05-12T09:53:30Z</time>
      </trkpt>
      <trkpt lat="39.1405750" lon="-1.6058840">
        <ele>621.8</ele>
        <time>2019-05-12T09:53:31Z</time>
      </trkpt>
      <trkpt lat="39.1405690" lon="-1.6059150">
        <ele>622.0</ele>
        <time>2019-05-12T09:53:32Z</time>
      </trkpt>
      <trkpt lat="39.1405650" lon="-1.6059470">
        <ele>622.4</ele>
        <time>2019-05-12T09:53:33Z</time>
      </trkpt>
      <trkpt lat="39.1405610" lon="-1.6059790">
        <ele>622.8</ele>
        <time>2019-05-12T09:53:34Z</time>
      </trkpt>
      <trkpt lat="39.1405590" lon="-1.6060100">
        <ele>623.2</ele>
        <time>2019-05-12T09:53:35Z</time>
      </trkpt>
      <trkpt lat="39.1405580" lon="-1.6060400">
        <ele>623.6</ele>
        <time>2019-05-12T09:53:36Z</time>
      </trkpt>
      <trkpt lat="39.1405580" lon="-1.6060690">
        <ele>623.8</ele>
        <time>2019-05-12T09:53:37Z</time>
      </trkpt>
      <trkpt lat="39.1405590" lon="-1.6060960">
        <ele>624.0</ele>
        <time>2019-05-12T09:53:38Z</time>
      </trkpt>
      <trkpt lat="39.1405600" lon="-1.6061230">
        <ele>624.2</ele>
        <time>2019-05-12T09:53:39Z</time>
      </trkpt>
      <trkpt lat="39.1405600" lon="-1.6061500">
        <ele>624.6</ele>
        <time>2019-05-12T09:53:40Z</time>
      </trkpt>
      <trkpt lat="39.1405590" lon="-1.6061770">
        <ele>624.8</ele>
        <time>2019-05-12T09:53:41Z</time>
      </trkpt>
      <trkpt lat="39.1405580" lon="-1.6062040">
        <ele>625.0</ele>
        <time>2019-05-12T09:53:42Z</time>
      </trkpt>
      <trkpt lat="39.1405570" lon="-1.6062320">
        <ele>625.4</ele>
        <time>2019-05-12T09:53:43Z</time>
      </trkpt>
      <trkpt lat="39.1405570" lon="-1.6062620">
        <ele>625.6</ele>
        <time>2019-05-12T09:53:44Z</time>
      </trkpt>
      <trkpt lat="39.1405550" lon="-1.6062910">
        <ele>625.8</ele>
        <time>2019-05-12T09:53:45Z</time>
      </trkpt>
      <trkpt lat="39.1405530" lon="-1.6063220">
        <ele>626.0</ele>
        <time>2019-05-12T09:53:46Z</time>
      </trkpt>
      <trkpt lat="39.1405500" lon="-1.6063540">
        <ele>626.4</ele>
        <time>2019-05-12T09:53:47Z</time>
      </trkpt>
      <trkpt lat="39.1405490" lon="-1.6063860">
        <ele>626.8</ele>
        <time>2019-05-12T09:53:48Z</time>
      </trkpt>
      <trkpt lat="39.1405470" lon="-1.6064180">
        <ele>627.0</ele>
        <time>2019-05-12T09:53:49Z</time>
      </trkpt>
      <trkpt lat="39.1405420" lon="-1.6064500">
        <ele>627.4</ele>
        <time>2019-05-12T09:53:50Z</time>
      </trkpt>
      <trkpt lat="39.1405360" lon="-1.6064830">
        <ele>627.6</ele>
        <time>2019-05-12T09:53:51Z</time>
      </trkpt>
      <trkpt lat="39.1405310" lon="-1.6065190">
        <ele>627.8</ele>
        <time>2019-05-12T09:53:52Z</time>
      </trkpt>
      <trkpt lat="39.1405250" lon="-1.6065570">
        <ele>628.0</ele>
        <time>2019-05-12T09:53:53Z</time>
      </trkpt>
      <trkpt lat="39.1405220" lon="-1.6065960">
        <ele>628.4</ele>
        <time>2019-05-12T09:53:54Z</time>
      </trkpt>
      <trkpt lat="39.1405220" lon="-1.6066360">
        <ele>628.6</ele>
        <time>2019-05-12T09:53:55Z</time>
      </trkpt>
      <trkpt lat="39.1405240" lon="-1.6066740">
        <ele>628.8</ele>
        <time>2019-05-12T09:53:56Z</time>
      </trkpt>
      <trkpt lat="39.1405270" lon="-1.6067130">
        <ele>629.2</ele>
        <time>2019-05-12T09:53:57Z</time>
      </trkpt>
      <trkpt lat="39.1405320" lon="-1.6067510">
        <ele>629.4</ele>
        <time>2019-05-12T09:53:58Z</time>
      </trkpt>
      <trkpt lat="39.1405380" lon="-1.6067870">
        <ele>629.6</ele>
        <time>2019-05-12T09:53:59Z</time>
      </trkpt>
      <trkpt lat="39.1405430" lon="-1.6068200">
        <ele>629.6</ele>
        <time>2019-05-12T09:54:00Z</time>
      </trkpt>
      <trkpt lat="39.1405480" lon="-1.6068480">
        <ele>629.8</ele>
        <time>2019-05-12T09:54:01Z</time>
      </trkpt>
      <trkpt lat="39.1405550" lon="-1.6068740">
        <ele>629.8</ele>
        <time>2019-05-12T09:54:02Z</time>
      </trkpt>
      <trkpt lat="39.1405610" lon="-1.6069000">
        <ele>630.0</ele>
        <time>2019-05-12T09:54:03Z</time>
      </trkpt>
      <trkpt lat="39.1405690" lon="-1.6069270">
        <ele>630.2</ele>
        <time>2019-05-12T09:54:04Z</time>
      </trkpt>
      <trkpt lat="39.1405750" lon="-1.6069540">
        <ele>630.4</ele>
        <time>2019-05-12T09:54:05Z</time>
      </trkpt>
      <trkpt lat="39.1405790" lon="-1.6069830">
        <ele>630.6</ele>
        <time>2019-05-12T09:54:06Z</time>
      </trkpt>
      <trkpt lat="39.1405820" lon="-1.6070140">
        <ele>630.6</ele>
        <time>2019-05-12T09:54:07Z</time>
      </trkpt>
      <trkpt lat="39.1405830" lon="-1.6070450">
        <ele>630.8</ele>
        <time>2019-05-12T09:54:08Z</time>
      </trkpt>
      <trkpt lat="39.1405830" lon="-1.6070760">
        <ele>631.0</ele>
        <time>2019-05-12T09:54:09Z</time>
      </trkpt>
      <trkpt lat="39.1405820" lon="-1.6071060">
        <ele>631.4</ele>
        <time>2019-05-12T09:54:10Z</time>
      </trkpt>
      <trkpt lat="39.1405790" lon="-1.6071340">
        <ele>631.6</ele>
        <time>2019-05-12T09:54:11Z</time>
      </trkpt>
      <trkpt lat="39.1405760" lon="-1.6071630">
        <ele>632.0</ele>
        <time>2019-05-12T09:54:12Z</time>
      </trkpt>
      <trkpt lat="39.1405730" lon="-1.6071910">
        <ele>632.2</ele>
        <time>2019-05-12T09:54:13Z</time>
      </trkpt>
      <trkpt lat="39.1405710" lon="-1.6072180">
        <ele>632.4</ele>
        <time>2019-05-12T09:54:14Z</time>
      </trkpt>
      <trkpt lat="39.1405680" lon="-1.6072440">
        <ele>632.6</ele>
        <time>2019-05-12T09:54:15Z</time>
      </trkpt>
      <trkpt lat="39.1405670" lon="-1.6072690">
        <ele>632.8</ele>
        <time>2019-05-12T09:54:16Z</time>
      </trkpt>
      <trkpt lat="39.1405670" lon="-1.6072950">
        <ele>632.8</ele>
        <time>2019-05-12T09:54:17Z</time>
      </trkpt>
      <trkpt lat="39.1405670" lon="-1.6073200">
        <ele>633.2</ele>
        <time>2019-05-12T09:54:18Z</time>
      </trkpt>
      <trkpt lat="39.1405680" lon="-1.6073460">
        <ele>633.4</ele>
        <time>2019-05-12T09:54:19Z</time>
      </trkpt>
      <trkpt lat="39.1405670" lon="-1.6073720">
        <ele>633.6</ele>
        <time>2019-05-12T09:54:20Z</time>
      </trkpt>
      <trkpt lat="39.1405660" lon="-1.6074000">
        <ele>634.0</ele>
        <time>2019-05-12T09:54:21Z</time>
      </trkpt>
      <trkpt lat="39.1405670" lon="-1.6074280">
        <ele>634.6</ele>
        <time>2019-05-12T09:54:22Z</time>
      </trkpt>
      <trkpt lat="39.1405690" lon="-1.6074570">
        <ele>634.8</ele>
        <time>2019-05-12T09:54:23Z</time>
      </trkpt>
      <trkpt lat="39.1405710" lon="-1.6074850">
        <ele>635.2</ele>
        <time>2019-05-12T09:54:24Z</time>
      </trkpt>
      <trkpt lat="39.1405760" lon="-1.6075140">
        <ele>635.4</ele>
        <time>2019-05-12T09:54:25Z</time>
      </trkpt>
      <trkpt lat="39.1405780" lon="-1.6075440">
        <ele>635.8</ele>
        <time>2019-05-12T09:54:26Z</time>
      </trkpt>
      <trkpt lat="39.1405800" lon="-1.6075740">
        <ele>636.0</ele>
        <time>2019-05-12T09:54:27Z</time>
      </trkpt>
      <trkpt lat="39.1405830" lon="-1.6076030">
        <ele>636.2</ele>
        <time>2019-05-12T09:54:28Z</time>
      </trkpt>
      <trkpt lat="39.1405860" lon="-1.6076330">
        <ele>636.6</ele>
        <time>2019-05-12T09:54:29Z</time>
      </trkpt>
      <trkpt lat="39.1405890" lon="-1.6076620">
        <ele>636.6</ele>
        <time>2019-05-12T09:54:30Z</time>
      </trkpt>
      <trkpt lat="39.1405930" lon="-1.6076920">
        <ele>636.8</ele>
        <time>2019-05-12T09:54:31Z</time>
      </trkpt>
      <trkpt lat="39.1405960" lon="-1.6077230">
        <ele>637.0</ele>
        <time>2019-05-12T09:54:32Z</time>
      </trkpt>
      <trkpt lat="39.1406000" lon="-1.6077540">
        <ele>637.2</ele>
        <time>2019-05-12T09:54:33Z</time>
      </trkpt>
      <trkpt lat="39.1406050" lon="-1.6077840">
        <ele>637.4</ele>
        <time>2019-05-12T09:54:34Z</time>
      </trkpt>
      <trkpt lat="39.1406080" lon="-1.6078150">
        <ele>637.6</ele>
        <time>2019-05-12T09:54:35Z</time>
      </trkpt>
      <trkpt lat="39.1406110" lon="-1.6078470">
        <ele>637.8</ele>
        <time>2019-05-12T09:54:36Z</time>
      </trkpt>
      <trkpt lat="39.1406150" lon="-1.6078780">
        <ele>638.0</ele>
        <time>2019-05-12T09:54:37Z</time>
      </trkpt>
      <trkpt lat="39.1406180" lon="-1.6079090">
        <ele>638.2</ele>
        <time>2019-05-12T09:54:38Z</time>
      </trkpt>
      <trkpt lat="39.1406220" lon="-1.6079390">
        <ele>638.4</ele>
        <time>2019-05-12T09:54:39Z</time>
      </trkpt>
      <trkpt lat="39.1406260" lon="-1.6079690">
        <ele>638.6</ele>
        <time>2019-05-12T09:54:40Z</time>
      </trkpt>
      <trkpt lat="39.1406310" lon="-1.6079990">
        <ele>638.8</ele>
        <time>2019-05-12T09:54:41Z</time>
      </trkpt>
      <trkpt lat="39.1406360" lon="-1.6080280">
        <ele>638.8</ele>
        <time>2019-05-12T09:54:42Z</time>
      </trkpt>
      <trkpt lat="39.1406410" lon="-1.6080570">
        <ele>639.0</ele>
        <time>2019-05-12T09:54:43Z</time>
      </trkpt>
      <trkpt lat="39.1406470" lon="-1.6080870">
        <ele>639.0</ele>
        <time>2019-05-12T09:54:44Z</time>
      </trkpt>
      <trkpt lat="39.1406530" lon="-1.6081170">
        <ele>639.2</ele>
        <time>2019-05-12T09:54:45Z</time>
      </trkpt>
      <trkpt lat="39.1406600" lon="-1.6081470">
        <ele>639.4</ele>
        <time>2019-05-12T09:54:46Z</time>
      </trkpt>
      <trkpt lat="39.1406680" lon="-1.6081760">
        <ele>639.8</ele>
        <time>2019-05-12T09:54:47Z</time>
      </trkpt>
      <trkpt lat="39.1406770" lon="-1.6082040">
        <ele>640.0</ele>
        <time>2019-05-12T09:54:48Z</time>
      </trkpt>
      <trkpt lat="39.1406870" lon="-1.6082320">
        <ele>640.2</ele>
        <time>2019-05-12T09:54:49Z</time>
      </trkpt>
      <trkpt lat="39.1406980" lon="-1.6082590">
        <ele>640.4</ele>
        <time>2019-05-12T09:54:50Z</time>
      </trkpt>
      <trkpt lat="39.1407090" lon="-1.6082860">
        <ele>640.8</ele>
        <time>2019-05-12T09:54:51Z</time>
      </trkpt>
      <trkpt lat="39.1407200" lon="-1.6083140">
        <ele>641.0</ele>
        <time>2019-05-12T09:54:52Z</time>
      </trkpt>
      <trkpt lat="39.1407320" lon="-1.6083410">
        <ele>641.0</ele>
        <time>2019-05-12T09:54:53Z</time>
      </trkpt>
      <trkpt lat="39.1407430" lon="-1.6083670">
        <ele>641.2</ele>
        <time>2019-05-12T09:54:54Z</time>
      </trkpt>
      <trkpt lat="39.1407540" lon="-1.6083920">
        <ele>641.4</ele>
        <time>2019-05-12T09:54:55Z</time>
      </trkpt>
      <trkpt lat="39.1407660" lon="-1.6084160">
        <ele>641.8</ele>
        <time>2019-05-12T09:54:56Z</time>
      </trkpt>
      <trkpt lat="39.1407780" lon="-1.6084390">
        <ele>642.2</ele>
        <time>2019-05-12T09:54:57Z</time>
      </trkpt>
      <trkpt lat="39.1407900" lon="-1.6084610">
        <ele>642.4</ele>
        <time>2019-05-12T09:54:58Z</time>
      </trkpt>
      <trkpt lat="39.1408020" lon="-1.6084840">
        <ele>642.6</ele>
        <time>2019-05-12T09:54:59Z</time>
      </trkpt>
      <trkpt lat="39.1408140" lon="-1.6085050">
        <ele>642.8</ele>
        <time>2019-05-12T09:55:00Z</time>
      </trkpt>
      <trkpt lat="39.1408270" lon="-1.6085250">
        <ele>643.2</ele>
        <time>2019-05-12T09:55:01Z</time>
      </trkpt>
      <trkpt lat="39.1408390" lon="-1.6085450">
        <ele>643.4</ele>
        <time>2019-05-12T09:55:02Z</time>
      </trkpt>
      <trkpt lat="39.1408520" lon="-1.6085650">
        <ele>643.8</ele>
        <time>2019-05-12T09:55:03Z</time>
      </trkpt>
      <trkpt lat="39.1408670" lon="-1.6085830">
        <ele>644.0</ele>
        <time>2019-05-12T09:55:04Z</time>
      </trkpt>
      <trkpt lat="39.1408820" lon="-1.6086010">
        <ele>644.2</ele>
        <time>2019-05-12T09:55:05Z</time>
      </trkpt>
      <trkpt lat="39.1408970" lon="-1.6086210">
        <ele>644.4</ele>
        <time>2019-05-12T09:55:06Z</time>
      </trkpt>
      <trkpt lat="39.1409120" lon="-1.6086420">
        <ele>644.8</ele>
        <time>2019-05-12T09:55:07Z</time>
      </trkpt>
      <trkpt lat="39.1409270" lon="-1.6086640">
        <ele>645.0</ele>
        <time>2019-05-12T09:55:08Z</time>
      </trkpt>
      <trkpt lat="39.1409400" lon="-1.6086870">
        <ele>645.4</ele>
        <time>2019-05-12T09:55:09Z</time>
      </trkpt>
      <trkpt lat="39.1409540" lon="-1.6087110">
        <ele>645.8</ele>
        <time>2019-05-12T09:55:10Z</time>
      </trkpt>
      <trkpt lat="39.1409680" lon="-1.6087350">
        <ele>646.0</ele>
        <time>2019-05-12T09:55:11Z</time>
      </trkpt>
      <trkpt lat="39.1409840" lon="-1.6087570">
        <ele>646.4</ele>
        <time>2019-05-12T09:55:12Z</time>
      </trkpt>
      <trkpt lat="39.1410000" lon="-1.6087780">
        <ele>646.6</ele>
        <time>2019-05-12T09:55:13Z</time>
      </trkpt>
      <trkpt lat="39.1410150" lon="-1.6087990">
        <ele>647.0</ele>
        <time>2019-05-12T09:55:14Z</time>
      </trkpt>
      <trkpt lat="39.1410280" lon="-1.6088210">
        <ele>647.2</ele>
        <time>2019-05-12T09:55:15Z</time>
      </trkpt>
      <trkpt lat="39.1410400" lon="-1.6088440">
        <ele>647.4</ele>
        <time>2019-05-12T09:55:16Z</time>
      </trkpt>
      <trkpt lat="39.1410520" lon="-1.6088670">
        <ele>647.8</ele>
        <time>2019-05-12T09:55:17Z</time>
      </trkpt>
      <trkpt lat="39.1410660" lon="-1.6088920">
        <ele>648.0</ele>
        <time>2019-05-12T09:55:18Z</time>
      </trkpt>
      <trkpt lat="39.1410830" lon="-1.6089180">
        <ele>648.4</ele>
        <time>2019-05-12T09:55:19Z</time>
      </trkpt>
      <trkpt lat="39.1411010" lon="-1.6089460">
        <ele>648.8</ele>
        <time>2019-05-12T09:55:20Z</time>
      </trkpt>
      <trkpt lat="39.1411160" lon="-1.6089770">
        <ele>649.0</ele>
        <time>2019-05-12T09:55:21Z</time>
      </trkpt>
      <trkpt lat="39.1411270" lon="-1.6090120">
        <ele>649.2</ele>
        <time>2019-05-12T09:55:22Z</time>
      </trkpt>
      <trkpt lat="39.1411360" lon="-1.6090450">
        <ele>649.6</ele>
        <time>2019-05-12T09:55:23Z</time>
      </trkpt>
      <trkpt lat="39.1411440" lon="-1.6090770">
        <ele>649.8</ele>
        <time>2019-05-12T09:55:24Z</time>
      </trkpt>
      <trkpt lat="39.1411530" lon="-1.6091080">
        <ele>650.2</ele>
        <time>2019-05-12T09:55:25Z</time>
      </trkpt>
      <trkpt lat="39.1411620" lon="-1.6091400">
        <ele>650.4</ele>
        <time>2019-05-12T09:55:26Z</time>
      </trkpt>
      <trkpt lat="39.1411720" lon="-1.6091710">
        <ele>650.6</ele>
        <time>2019-05-12T09:55:27Z</time>
      </trkpt>
      <trkpt lat="39.1411820" lon="-1.6092020">
        <ele>651.0</ele>
        <time>2019-05-12T09:55:28Z</time>
      </trkpt>
      <trkpt lat="39.1411940" lon="-1.6092330">
        <ele>651.4</ele>
        <time>2019-05-12T09:55:29Z</time>
      </trkpt>
      <trkpt lat="39.1412070" lon="-1.6092640">
        <ele>651.6</ele>
        <time>2019-05-12T09:55:30Z</time>
      </trkpt>
      <trkpt lat="39.1412190" lon="-1.6092940">
        <ele>652.0</ele>
        <time>2019-05-12T09:55:31Z</time>
      </trkpt>
      <trkpt lat="39.1412310" lon="-1.6093250">
        <ele>652.4</ele>
        <time>2019-05-12T09:55:32Z</time>
      </trkpt>
      <trkpt lat="39.1412420" lon="-1.6093560">
        <ele>652.6</ele>
        <time>2019-05-12T09:55:33Z</time>
      </trkpt>
      <trkpt lat="39.1412550" lon="-1.6093870">
        <ele>652.8</ele>
        <time>2019-05-12T09:55:34Z</time>
      </trkpt>
      <trkpt lat="39.1412690" lon="-1.6094150">
        <ele>653.2</ele>
        <time>2019-05-12T09:55:35Z</time>
      </trkpt>
      <trkpt lat="39.1412840" lon="-1.6094430">
        <ele>653.4</ele>
        <time>2019-05-12T09:55:36Z</time>
      </trkpt>
      <trkpt lat="39.1412990" lon="-1.6094700">
        <ele>653.6</ele>
        <time>2019-05-12T09:55:37Z</time>
      </trkpt>
      <trkpt lat="39.1413170" lon="-1.6094950">
        <ele>653.6</ele>
        <time>2019-05-12T09:55:38Z</time>
      </trkpt>
      <trkpt lat="39.1413340" lon="-1.6095200">
        <ele>653.8</ele>
        <time>2019-05-12T09:55:39Z</time>
      </trkpt>
      <trkpt lat="39.1413490" lon="-1.6095470">
        <ele>654.0</ele>
        <time>2019-05-12T09:55:40Z</time>
      </trkpt>
      <trkpt lat="39.1413630" lon="-1.6095740">
        <ele>654.2</ele>
        <time>2019-05-12T09:55:41Z</time>
      </trkpt>
      <trkpt lat="39.1413750" lon="-1.6095990">
        <ele>654.4</ele>
        <time>2019-05-12T09:55:42Z</time>
      </trkpt>
      <trkpt lat="39.1413860" lon="-1.6096270">
        <ele>654.6</ele>
        <time>2019-05-12T09:55:43Z</time>
      </trkpt>
      <trkpt lat="39.1413960" lon="-1.6096550">
        <ele>654.8</ele>
        <time>2019-05-12T09:55:44Z</time>
      </trkpt>
      <trkpt lat="39.1414050" lon="-1.6096840">
        <ele>655.0</ele>
        <time>2019-05-12T09:55:45Z</time>
      </trkpt>
      <trkpt lat="39.1414130" lon="-1.6097130">
        <ele>655.2</ele>
        <time>2019-05-12T09:55:46Z</time>
      </trkpt>
      <trkpt lat="39.1414210" lon="-1.6097440">
        <ele>655.4</ele>
        <time>2019-05-12T09:55:47Z</time>
      </trkpt>
      <trkpt lat="39.1414310" lon="-1.6097730">
        <ele>655.6</ele>
        <time>2019-05-12T09:55:48Z</time>
      </trkpt>
      <trkpt lat="39.1414410" lon="-1.6098040">
        <ele>655.8</ele>
        <time>2019-05-12T09:55:49Z</time>
      </trkpt>
      <trkpt lat="39.1414490" lon="-1.6098370">
        <ele>656.0</ele>
        <time>2019-05-12T09:55:50Z</time>
      </trkpt>
      <trkpt lat="39.1414550" lon="-1.6098710">
        <ele>656.2</ele>
        <time>2019-05-12T09:55:51Z</time>
      </trkpt>
      <trkpt lat="39.1414620" lon="-1.6099060">
        <ele>656.4</ele>
        <time>2019-05-12T09:55:52Z</time>
      </trkpt>
      <trkpt lat="39.1414700" lon="-1.6099400">
        <ele>656.6</ele>
        <time>2019-05-12T09:55:53Z</time>
      </trkpt>
      <trkpt lat="39.1414780" lon="-1.6099750">
        <ele>657.0</ele>
        <time>2019-05-12T09:55:54Z</time>
      </trkpt>
      <trkpt lat="39.1414860" lon="-1.6100090">
        <ele>657.0</ele>
        <time>2019-05-12T09:55:55Z</time>
      </trkpt>
      <trkpt lat="39.1414950" lon="-1.6100420">
        <ele>657.4</ele>
        <time>2019-05-12T09:55:56Z</time>
      </trkpt>
      <trkpt lat="39.1415050" lon="-1.6100740">
        <ele>657.6</ele>
        <time>2019-05-12T09:55:57Z</time>
      </trkpt>
      <trkpt lat="39.1415160" lon="-1.6101050">
        <ele>657.8</ele>
        <time>2019-05-12T09:55:58Z</time>
      </trkpt>
      <trkpt lat="39.1415300" lon="-1.6101360">
        <ele>657.8</ele>
        <time>2019-05-12T09:55:59Z</time>
      </trkpt>
      <trkpt lat="39.1415460" lon="-1.6101640">
        <ele>658.0</ele>
        <time>2019-05-12T09:56:00Z</time>
      </trkpt>
      <trkpt lat="39.1415610" lon="-1.6101930">
        <ele>658.2</ele>
        <time>2019-05-12T09:56:01Z</time>
      </trkpt>
      <trkpt lat="39.1415760" lon="-1.6102220">
        <ele>658.4</ele>
        <time>2019-05-12T09:56:02Z</time>
      </trkpt>
      <trkpt lat="39.1415920" lon="-1.6102510">
        <ele>658.4</ele>
        <time>2019-05-12T09:56:03Z</time>
      </trkpt>
      <trkpt lat="39.1416070" lon="-1.6102790">
        <ele>658.6</ele>
        <time>2019-05-12T09:56:04Z</time>
      </trkpt>
      <trkpt lat="39.1416230" lon="-1.6103070">
        <ele>658.8</ele>
        <time>2019-05-12T09:56:05Z</time>
      </trkpt>
      <trkpt lat="39.1416390" lon="-1.6103350">
        <ele>659.0</ele>
        <time>2019-05-12T09:56:06Z</time>
      </trkpt>
      <trkpt lat="39.1416550" lon="-1.6103630">
        <ele>659.2</ele>
        <time>2019-05-12T09:56:07Z</time>
      </trkpt>
      <trkpt lat="39.1416720" lon="-1.6103880">
        <ele>659.2</ele>
        <time>2019-05-12T09:56:08Z</time>
      </trkpt>
      <trkpt lat="39.1416900" lon="-1.6104120">
        <ele>659.4</ele>
        <time>2019-05-12T09:56:09Z</time>
      </trkpt>
      <trkpt lat="39.1417090" lon="-1.6104350">
        <ele>659.6</ele>
        <time>2019-05-12T09:56:10Z</time>
      </trkpt>
      <trkpt lat="39.1417280" lon="-1.6104580">
        <ele>659.8</ele>
        <time>2019-05-12T09:56:11Z</time>
      </trkpt>
      <trkpt lat="39.1417490" lon="-1.6104800">
        <ele>660.2</ele>
        <time>2019-05-12T09:56:12Z</time>
      </trkpt>
      <trkpt lat="39.1417690" lon="-1.6105020">
        <ele>660.2</ele>
        <time>2019-05-12T09:56:13Z</time>
      </trkpt>
      <trkpt lat="39.1417910" lon="-1.6105240">
        <ele>660.4</ele>
        <time>2019-05-12T09:56:14Z</time>
      </trkpt>
      <trkpt lat="39.1418130" lon="-1.6105450">
        <ele>660.6</ele>
        <time>2019-05-12T09:56:15Z</time>
      </trkpt>
      <trkpt lat="39.1418360" lon="-1.6105640">
        <ele>660.6</ele>
        <time>2019-05-12T09:56:16Z</time>
      </trkpt>
      <trkpt lat="39.1418570" lon="-1.6105840">
        <ele>661.0</ele>
        <time>2019-05-12T09:56:17Z</time>
      </trkpt>
      <trkpt lat="39.1418770" lon="-1.6106050">
        <ele>661.2</ele>
        <time>2019-05-12T09:56:18Z</time>
      </trkpt>
      <trkpt lat="39.1418980" lon="-1.6106290">
        <ele>661.4</ele>
        <time>2019-05-12T09:56:19Z</time>
      </trkpt>
      <trkpt lat="39.1419190" lon="-1.6106540">
        <ele>661.6</ele>
        <time>2019-05-12T09:56:20Z</time>
      </trkpt>
      <trkpt lat="39.1419400" lon="-1.6106830">
        <ele>661.8</ele>
        <time>2019-05-12T09:56:21Z</time>
      </trkpt>
      <trkpt lat="39.1420170" lon="-1.6108110">
        <ele>663.4</ele>
        <time>2019-05-12T09:56:26Z</time>
      </trkpt>
      <trkpt lat="39.1420340" lon="-1.6108450">
        <ele>663.4</ele>
        <time>2019-05-12T09:56:27Z</time>
      </trkpt>
      <trkpt lat="39.1420510" lon="-1.6108810">
        <ele>663.6</ele>
        <time>2019-05-12T09:56:28Z</time>
      </trkpt>
      <trkpt lat="39.1420680" lon="-1.6109180">
        <ele>664.0</ele>
        <time>2019-05-12T09:56:29Z</time>
      </trkpt>
      <trkpt lat="39.1420840" lon="-1.6109570">
        <ele>664.2</ele>
        <time>2019-05-12T09:56:30Z</time>
      </trkpt>
      <trkpt lat="39.1421010" lon="-1.6109960">
        <ele>664.4</ele>
        <time>2019-05-12T09:56:31Z</time>
      </trkpt>
      <trkpt lat="39.1421190" lon="-1.6110360">
        <ele>664.6</ele>
        <time>2019-05-12T09:56:32Z</time>
      </trkpt>
      <trkpt lat="39.1421380" lon="-1.6110760">
        <ele>664.8</ele>
        <time>2019-05-12T09:56:33Z</time>
      </trkpt>
      <trkpt lat="39.1421570" lon="-1.6111140">
        <ele>665.0</ele>
        <time>2019-05-12T09:56:34Z</time>
      </trkpt>
      <trkpt lat="39.1421770" lon="-1.6111520">
        <ele>665.0</ele>
        <time>2019-05-12T09:56:35Z</time>
      </trkpt>
      <trkpt lat="39.1421970" lon="-1.6111910">
        <ele>665.0</ele>
        <time>2019-05-12T09:56:36Z</time>
      </trkpt>
      <trkpt lat="39.1422170" lon="-1.6112290">
        <ele>665.0</ele>
        <time>2019-05-12T09:56:37Z</time>
      </trkpt>
      <trkpt lat="39.1422390" lon="-1.6112670">
        <ele>665.2</ele>
        <time>2019-05-12T09:56:38Z</time>
      </trkpt>
      <trkpt lat="39.1422600" lon="-1.6113070">
        <ele>665.4</ele>
        <time>2019-05-12T09:56:39Z</time>
      </trkpt>
      <trkpt lat="39.1422810" lon="-1.6113480">
        <ele>665.4</ele>
        <time>2019-05-12T09:56:40Z</time>
      </trkpt>
      <trkpt lat="39.1423020" lon="-1.6113890">
        <ele>665.6</ele>
        <time>2019-05-12T09:56:41Z</time>
      </trkpt>
      <trkpt lat="39.1423240" lon="-1.6114300">
        <ele>665.6</ele>
        <time>2019-05-12T09:56:42Z</time>
      </trkpt>
      <trkpt lat="39.1423460" lon="-1.6114710">
        <ele>665.8</ele>
        <time>2019-05-12T09:56:43Z</time>
      </trkpt>
      <trkpt lat="39.1423660" lon="-1.6115120">
        <ele>666.0</ele>
        <time>2019-05-12T09:56:44Z</time>
      </trkpt>
      <trkpt lat="39.1423840" lon="-1.6115540">
        <ele>666.0</ele>
        <time>2019-05-12T09:56:45Z</time>
      </trkpt>
      <trkpt lat="39.1424020" lon="-1.6115960">
        <ele>666.2</ele>
        <time>2019-05-12T09:56:46Z</time>
      </trkpt>
      <trkpt lat="39.1424180" lon="-1.6116400">
        <ele>666.2</ele>
        <time>2019-05-12T09:56:47Z</time>
      </trkpt>
      <trkpt lat="39.1424340" lon="-1.6116850">
        <ele>666.4</ele>
        <time>2019-05-12T09:56:48Z</time>
      </trkpt>
      <trkpt lat="39.1424510" lon="-1.6117280">
        <ele>666.4</ele>
        <time>2019-05-12T09:56:49Z</time>
      </trkpt>
      <trkpt lat="39.1424690" lon="-1.6117700">
        <ele>666.6</ele>
        <time>2019-05-12T09:56:50Z</time>
      </trkpt>
      <trkpt lat="39.1424890" lon="-1.6118110">
        <ele>666.8</ele>
        <time>2019-05-12T09:56:51Z</time>
      </trkpt>
      <trkpt lat="39.1425070" lon="-1.6118520">
        <ele>666.8</ele>
        <time>2019-05-12T09:56:52Z</time>
      </trkpt>
      <trkpt lat="39.1425260" lon="-1.6118940">
        <ele>667.0</ele>
        <time>2019-05-12T09:56:53Z</time>
      </trkpt>
      <trkpt lat="39.1425440" lon="-1.6119350">
        <ele>667.2</ele>
        <time>2019-05-12T09:56:54Z</time>
      </trkpt>
      <trkpt lat="39.1425620" lon="-1.6119770">
        <ele>667.4</ele>
        <time>2019-05-12T09:56:55Z</time>
      </trkpt>
      <trkpt lat="39.1425780" lon="-1.6120210">
        <ele>667.4</ele>
        <time>2019-05-12T09:56:56Z</time>
      </trkpt>
      <trkpt lat="39.1425920" lon="-1.6120660">
        <ele>667.4</ele>
        <time>2019-05-12T09:56:57Z</time>
      </trkpt>
      <trkpt lat="39.1426050" lon="-1.6121110">
        <ele>667.6</ele>
        <time>2019-05-12T09:56:58Z</time>
      </trkpt>
      <trkpt lat="39.1426180" lon="-1.6121540">
        <ele>667.8</ele>
        <time>2019-05-12T09:56:59Z</time>
      </trkpt>
      <trkpt lat="39.1426320" lon="-1.6122000">
        <ele>667.8</ele>
        <time>2019-05-12T09:57:00Z</time>
      </trkpt>
      <trkpt lat="39.1426440" lon="-1.6122480">
        <ele>668.0</ele>
        <time>2019-05-12T09:57:01Z</time>
      </trkpt>
      <trkpt lat="39.1426560" lon="-1.6122960">
        <ele>668.2</ele>
        <time>2019-05-12T09:57:02Z</time>
      </trkpt>
      <trkpt lat="39.1426660" lon="-1.6123460">
        <ele>668.2</ele>
        <time>2019-05-12T09:57:03Z</time>
      </trkpt>
      <trkpt lat="39.1426720" lon="-1.6123970">
        <ele>668.4</ele>
        <time>2019-05-12T09:57:04Z</time>
      </trkpt>
      <trkpt lat="39.1426730" lon="-1.6124490">
        <ele>668.4</ele>
        <time>2019-05-12T09:57:05Z</time>
      </trkpt>
      <trkpt lat="39.1426720" lon="-1.6125010">
        <ele>668.6</ele>
        <time>2019-05-12T09:57:06Z</time>
      </trkpt>
      <trkpt lat="39.1426700" lon="-1.6125520">
        <ele>668.6</ele>
        <time>2019-05-12T09:57:07Z</time>
      </trkpt>
      <trkpt lat="39.1426680" lon="-1.6126020">
        <ele>668.8</ele>
        <time>2019-05-12T09:57:08Z</time>
      </trkpt>
      <trkpt lat="39.1426650" lon="-1.6126510">
        <ele>669.0</ele>
        <time>2019-05-12T09:57:09Z</time>
      </trkpt>
      <trkpt lat="39.1426600" lon="-1.6126990">
        <ele>669.0</ele>
        <time>2019-05-12T09:57:10Z</time>
      </trkpt>
      <trkpt lat="39.1426560" lon="-1.6127450">
        <ele>669.0</ele>
        <time>2019-05-12T09:57:11Z</time>
      </trkpt>
      <trkpt lat="39.1426490" lon="-1.6127900">
        <ele>669.2</ele>
        <time>2019-05-12T09:57:12Z</time>
      </trkpt>
      <trkpt lat="39.1426430" lon="-1.6128340">
        <ele>669.2</ele>
        <time>2019-05-12T09:57:13Z</time>
      </trkpt>
      <trkpt lat="39.1426360" lon="-1.6128780">
        <ele>669.4</ele>
        <time>2019-05-12T09:57:14Z</time>
      </trkpt>
      <trkpt lat="39.1426300" lon="-1.6129210">
        <ele>669.4</ele>
        <time>2019-05-12T09:57:15Z</time>
      </trkpt>
      <trkpt lat="39.1426250" lon="-1.6129640">
        <ele>669.4</ele>
        <time>2019-05-12T09:57:16Z</time>
      </trkpt>
      <trkpt lat="39.1426210" lon="-1.6130060">
        <ele>669.8</ele>
        <time>2019-05-12T09:57:17Z</time>
      </trkpt>
      <trkpt lat="39.1426170" lon="-1.6130460">
        <ele>670.0</ele>
        <time>2019-05-12T09:57:18Z</time>
      </trkpt>
      <trkpt lat="39.1426120" lon="-1.6130850">
        <ele>670.2</ele>
        <time>2019-05-12T09:57:19Z</time>
      </trkpt>
      <trkpt lat="39.1426060" lon="-1.6131230">
        <ele>670.4</ele>
        <time>2019-05-12T09:57:20Z</time>
      </trkpt>
      <trkpt lat="39.1426000" lon="-1.6131610">
        <ele>670.6</ele>
        <time>2019-05-12T09:57:21Z</time>
      </trkpt>
      <trkpt lat="39.1425920" lon="-1.6131980">
        <ele>670.8</ele>
        <time>2019-05-12T09:57:22Z</time>
      </trkpt>
      <trkpt lat="39.1425850" lon="-1.6132330">
        <ele>670.8</ele>
        <time>2019-05-12T09:57:23Z</time>
      </trkpt>
      <trkpt lat="39.1425790" lon="-1.6132680">
        <ele>671.0</ele>
        <time>2019-05-12T09:57:24Z</time>
      </trkpt>
      <trkpt lat="39.1425720" lon="-1.6133000">
        <ele>671.4</ele>
        <time>2019-05-12T09:57:25Z</time>
      </trkpt>
      <trkpt lat="39.1425640" lon="-1.6133320">
        <ele>671.6</ele>
        <time>2019-05-12T09:57:26Z</time>
      </trkpt>
      <trkpt lat="39.1425560" lon="-1.6133620">
        <ele>671.8</ele>
        <time>2019-05-12T09:57:27Z</time>
      </trkpt>
      <trkpt lat="39.1425460" lon="-1.6133900">
        <ele>672.0</ele>
        <time>2019-05-12T09:57:28Z</time>
      </trkpt>
      <trkpt lat="39.1425360" lon="-1.6134180">
        <ele>672.2</ele>
        <time>2019-05-12T09:57:29Z</time>
      </trkpt>
      <trkpt lat="39.1425270" lon="-1.6134450">
        <ele>672.4</ele>
        <time>2019-05-12T09:57:30Z</time>
      </trkpt>
      <trkpt lat="39.1425170" lon="-1.6134720">
        <ele>672.6</ele>
        <time>2019-05-12T09:57:31Z</time>
      </trkpt>
      <trkpt lat="39.1425060" lon="-1.6134990">
        <ele>673.0</ele>
        <time>2019-05-12T09:57:32Z</time>
      </trkpt>
      <trkpt lat="39.1424960" lon="-1.6135260">
        <ele>673.2</ele>
        <time>2019-05-12T09:57:33Z</time>
      </trkpt>
      <trkpt lat="39.1424880" lon="-1.6135550">
        <ele>673.4</ele>
        <time>2019-05-12T09:57:34Z</time>
      </trkpt>
      <trkpt lat="39.1424840" lon="-1.6135840">
        <ele>673.6</ele>
        <time>2019-05-12T09:57:35Z</time>
      </trkpt>
      <trkpt lat="39.1424810" lon="-1.6136120">
        <ele>674.0</ele>
        <time>2019-05-12T09:57:36Z</time>
      </trkpt>
      <trkpt lat="39.1424780" lon="-1.6136400">
        <ele>674.4</ele>
        <time>2019-05-12T09:57:37Z</time>
      </trkpt>
      <trkpt lat="39.1424730" lon="-1.6136660">
        <ele>674.6</ele>
        <time>2019-05-12T09:57:38Z</time>
      </trkpt>
      <trkpt lat="39.1424690" lon="-1.6136930">
        <ele>674.8</ele>
        <time>2019-05-12T09:57:39Z</time>
      </trkpt>
      <trkpt lat="39.1424660" lon="-1.6137190">
        <ele>675.2</ele>
        <time>2019-05-12T09:57:40Z</time>
      </trkpt>
      <trkpt lat="39.1424650" lon="-1.6137460">
        <ele>675.4</ele>
        <time>2019-05-12T09:57:41Z</time>
      </trkpt>
      <trkpt lat="39.1424650" lon="-1.6137730">
        <ele>675.6</ele>
        <time>2019-05-12T09:57:42Z</time>
      </trkpt>
      <trkpt lat="39.1424640" lon="-1.6137990">
        <ele>676.0</ele>
        <time>2019-05-12T09:57:43Z</time>
      </trkpt>
      <trkpt lat="39.1424620" lon="-1.6138250">
        <ele>676.2</ele>
        <time>2019-05-12T09:57:44Z</time>
      </trkpt>
      <trkpt lat="39.1424620" lon="-1.6138510">
        <ele>676.6</ele>
        <time>2019-05-12T09:57:45Z</time>
      </trkpt>
      <trkpt lat="39.1424610" lon="-1.6138760">
        <ele>676.8</ele>
        <time>2019-05-12T09:57:46Z</time>
      </trkpt>
      <trkpt lat="39.1424590" lon="-1.6139010">
        <ele>677.2</ele>
        <time>2019-05-12T09:57:47Z</time>
      </trkpt>
      <trkpt lat="39.1424570" lon="-1.6139260">
        <ele>677.4</ele>
        <time>2019-05-12T09:57:48Z</time>
      </trkpt>
      <trkpt lat="39.1424560" lon="-1.6139520">
        <ele>677.8</ele>
        <time>2019-05-12T09:57:49Z</time>
      </trkpt>
      <trkpt lat="39.1424530" lon="-1.6139790">
        <ele>678.0</ele>
        <time>2019-05-12T09:57:50Z</time>
      </trkpt>
      <trkpt lat="39.1424500" lon="-1.6140060">
        <ele>678.8</ele>
        <time>2019-05-12T09:57:51Z</time>
      </trkpt>
      <trkpt lat="39.1424480" lon="-1.6140340">
        <ele>679.2</ele>
        <time>2019-05-12T09:57:52Z</time>
      </trkpt>
      <trkpt lat="39.1424470" lon="-1.6140620">
        <ele>679.6</ele>
        <time>2019-05-12T09:57:53Z</time>
      </trkpt>
      <trkpt lat="39.1424460" lon="-1.6140900">
        <ele>680.0</ele>
        <time>2019-05-12T09:57:54Z</time>
      </trkpt>
      <trkpt lat="39.1424440" lon="-1.6141180">
        <ele>680.4</ele>
        <time>2019-05-12T09:57:55Z</time>
      </trkpt>
      <trkpt lat="39.1424420" lon="-1.6141470">
        <ele>680.8</ele>
        <time>2019-05-12T09:57:56Z</time>
      </trkpt>
      <trkpt lat="39.1424380" lon="-1.6141760">
        <ele>681.2</ele>
        <time>2019-05-12T09:57:57Z</time>
      </trkpt>
      <trkpt lat="39.1424310" lon="-1.6142060">
        <ele>681.4</ele>
        <time>2019-05-12T09:57:58Z</time>
      </trkpt>
      <trkpt lat="39.1424250" lon="-1.6142370">
        <ele>681.6</ele>
        <time>2019-05-12T09:57:59Z</time>
      </trkpt>
      <trkpt lat="39.1424200" lon="-1.6142690">
        <ele>681.8</ele>
        <time>2019-05-12T09:58:00Z</time>
      </trkpt>
      <trkpt lat="39.1424140" lon="-1.6143000">
        <ele>682.2</ele>
        <time>2019-05-12T09:58:01Z</time>
      </trkpt>
      <trkpt lat="39.1424070" lon="-1.6143320">
        <ele>682.6</ele>
        <time>2019-05-12T09:58:02Z</time>
      </trkpt>
      <trkpt lat="39.1424000" lon="-1.6143630">
        <ele>682.8</ele>
        <time>2019-05-12T09:58:03Z</time>
      </trkpt>
      <trkpt lat="39.1423940" lon="-1.6143940">
        <ele>683.0</ele>
        <time>2019-05-12T09:58:04Z</time>
      </trkpt>
      <trkpt lat="39.1423860" lon="-1.6144260">
        <ele>683.2</ele>
        <time>2019-05-12T09:58:05Z</time>
      </trkpt>
      <trkpt lat="39.1423770" lon="-1.6144580">
        <ele>683.4</ele>
        <time>2019-05-12T09:58:06Z</time>
      </trkpt>
      <trkpt lat="39.1423690" lon="-1.6144920">
        <ele>683.6</ele>
        <time>2019-05-12T09:58:07Z</time>
      </trkpt>
      <trkpt lat="39.1423610" lon="-1.6145270">
        <ele>684.0</ele>
        <time>2019-05-12T09:58:08Z</time>
      </trkpt>
      <trkpt lat="39.1423520" lon="-1.6145630">
        <ele>684.2</ele>
        <time>2019-05-12T09:58:09Z</time>
      </trkpt>
      <trkpt lat="39.1423450" lon="-1.6146000">
        <ele>684.2</ele>
        <time>2019-05-12T09:58:10Z</time>
      </trkpt>
      <trkpt lat="39.1423400" lon="-1.6146370">
        <ele>684.4</ele>
        <time>2019-05-12T09:58:11Z</time>
      </trkpt>
      <trkpt lat="39.1423350" lon="-1.6146760">
        <ele>684.6</ele>
        <time>2019-05-12T09:58:12Z</time>
      </trkpt>
      <trkpt lat="39.1423300" lon="-1.6147150">
        <ele>684.8</ele>
        <time>2019-05-12T09:58:13Z</time>
      </trkpt>
      <trkpt lat="39.1423250" lon="-1.6147560">
        <ele>685.0</ele>
        <time>2019-05-12T09:58:14Z</time>
      </trkpt>
      <trkpt lat="39.1423230" lon="-1.6147980">
        <ele>685.2</ele>
        <time>2019-05-12T09:58:15Z</time>
      </trkpt>
      <trkpt lat="39.1423230" lon="-1.6148400">
        <ele>685.2</ele>
        <time>2019-05-12T09:58:16Z</time>
      </trkpt>
      <trkpt lat="39.1423210" lon="-1.6148840">
        <ele>685.4</ele>
        <time>2019-05-12T09:58:17Z</time>
      </trkpt>
      <trkpt lat="39.1423190" lon="-1.6149280">
        <ele>685.4</ele>
        <time>2019-05-12T09:58:18Z</time>
      </trkpt>
      <trkpt lat="39.1423180" lon="-1.6149730">
        <ele>685.4</ele>
        <time>2019-05-12T09:58:19Z</time>
      </trkpt>
      <trkpt lat="39.1423170" lon="-1.6150190">
        <ele>685.6</ele>
        <time>2019-05-12T09:58:20Z</time>
      </trkpt>
      <trkpt lat="39.1423150" lon="-1.6150650">
        <ele>685.6</ele>
        <time>2019-05-12T09:58:21Z</time>
      </trkpt>
      <trkpt lat="39.1423150" lon="-1.6151110">
        <ele>685.8</ele>
        <time>2019-05-12T09:58:22Z</time>
      </trkpt>
      <trkpt lat="39.1423120" lon="-1.6151570">
        <ele>685.8</ele>
        <time>2019-05-12T09:58:23Z</time>
      </trkpt>
      <trkpt lat="39.1423090" lon="-1.6152040">
        <ele>685.8</ele>
        <time>2019-05-12T09:58:24Z</time>
      </trkpt>
      <trkpt lat="39.1423090" lon="-1.6152520">
        <ele>685.8</ele>
        <time>2019-05-12T09:58:25Z</time>
      </trkpt>
      <trkpt lat="39.1423080" lon="-1.6152990">
        <ele>686.0</ele>
        <time>2019-05-12T09:58:26Z</time>
      </trkpt>
      <trkpt lat="39.1423050" lon="-1.6153470">
        <ele>686.2</ele>
        <time>2019-05-12T09:58:27Z</time>
      </trkpt>
      <trkpt lat="39.1423030" lon="-1.6153970">
        <ele>686.2</ele>
        <time>2019-05-12T09:58:28Z</time>
      </trkpt>
      <trkpt lat="39.1423030" lon="-1.6154470">
        <ele>686.2</ele>
        <time>2019-05-12T09:58:29Z</time>
      </trkpt>
      <trkpt lat="39.1423020" lon="-1.6154980">
        <ele>686.2</ele>
        <time>2019-05-12T09:58:30Z</time>
      </trkpt>
      <trkpt lat="39.1423000" lon="-1.6155490">
        <ele>686.4</ele>
        <time>2019-05-12T09:58:31Z</time>
      </trkpt>
      <trkpt lat="39.1423000" lon="-1.6156010">
        <ele>686.4</ele>
        <time>2019-05-12T09:58:32Z</time>
      </trkpt>
      <trkpt lat="39.1423020" lon="-1.6156520">
        <ele>686.4</ele>
        <time>2019-05-12T09:58:33Z</time>
      </trkpt>
      <trkpt lat="39.1423040" lon="-1.6157040">
        <ele>686.4</ele>
        <time>2019-05-12T09:58:34Z</time>
      </trkpt>
      <trkpt lat="39.1423050" lon="-1.6157560">
        <ele>686.6</ele>
        <time>2019-05-12T09:58:35Z</time>
      </trkpt>
      <trkpt lat="39.1423100" lon="-1.6158100">
        <ele>686.8</ele>
        <time>2019-05-12T09:58:36Z</time>
      </trkpt>
      <trkpt lat="39.1423170" lon="-1.6158620">
        <ele>686.8</ele>
        <time>2019-05-12T09:58:37Z</time>
      </trkpt>
      <trkpt lat="39.1423260" lon="-1.6159140">
        <ele>686.8</ele>
        <time>2019-05-12T09:58:38Z</time>
      </trkpt>
      <trkpt lat="39.1423360" lon="-1.6159650">
        <ele>686.8</ele>
        <time>2019-05-12T09:58:39Z</time>
      </trkpt>
      <trkpt lat="39.1423470" lon="-1.6160160">
        <ele>687.0</ele>
        <time>2019-05-12T09:58:40Z</time>
      </trkpt>
      <trkpt lat="39.1423580" lon="-1.6160680">
        <ele>687.0</ele>
        <time>2019-05-12T09:58:41Z</time>
      </trkpt>
      <trkpt lat="39.1423680" lon="-1.6161220">
        <ele>687.2</ele>
        <time>2019-05-12T09:58:42Z</time>
      </trkpt>
      <trkpt lat="39.1423790" lon="-1.6161760">
        <ele>687.2</ele>
        <time>2019-05-12T09:58:43Z</time>
      </trkpt>
      <trkpt lat="39.1423900" lon="-1.6162300">
        <ele>687.2</ele>
        <time>2019-05-12T09:58:44Z</time>
      </trkpt>
      <trkpt lat="39.1424010" lon="-1.6162840">
        <ele>687.2</ele>
        <time>2019-05-12T09:58:45Z</time>
      </trkpt>
      <trkpt lat="39.1424120" lon="-1.6163380">
        <ele>687.4</ele>
        <time>2019-05-12T09:58:46Z</time>
      </trkpt>
      <trkpt lat="39.1424240" lon="-1.6163930">
        <ele>687.6</ele>
        <time>2019-05-12T09:58:47Z</time>
      </trkpt>
      <trkpt lat="39.1424360" lon="-1.6164490">
        <ele>687.8</ele>
        <time>2019-05-12T09:58:48Z</time>
      </trkpt>
      <trkpt lat="39.1424490" lon="-1.6165070">
        <ele>688.0</ele>
        <time>2019-05-12T09:58:49Z</time>
      </trkpt>
      <trkpt lat="39.1424630" lon="-1.6165650">
        <ele>688.0</ele>
        <time>2019-05-12T09:58:50Z</time>
      </trkpt>
      <trkpt lat="39.1424770" lon="-1.6166240">
        <ele>688.2</ele>
        <time>2019-05-12T09:58:51Z</time>
      </trkpt>
      <trkpt lat="39.1424920" lon="-1.6166830">
        <ele>688.2</ele>
        <time>2019-05-12T09:58:52Z</time>
      </trkpt>
      <trkpt lat="39.1425060" lon="-1.6167420">
        <ele>688.2</ele>
        <time>2019-05-12T09:58:53Z</time>
      </trkpt>
      <trkpt lat="39.1425200" lon="-1.6168010">
        <ele>688.2</ele>
        <time>2019-05-12T09:58:54Z</time>
      </trkpt>
      <trkpt lat="39.1425340" lon="-1.6168600">
        <ele>688.4</ele>
        <time>2019-05-12T09:58:55Z</time>
      </trkpt>
      <trkpt lat="39.1425480" lon="-1.6169190">
        <ele>688.4</ele>
        <time>2019-05-12T09:58:56Z</time>
      </trkpt>
      <trkpt lat="39.1425630" lon="-1.6169790">
        <ele>688.4</ele>
        <time>2019-05-12T09:58:57Z</time>
      </trkpt>
      <trkpt lat="39.1425770" lon="-1.6170410">
        <ele>688.4</ele>
        <time>2019-05-12T09:58:58Z</time>
      </trkpt>
      <trkpt lat="39.1425910" lon="-1.6171030">
        <ele>688.4</ele>
        <time>2019-05-12T09:58:59Z</time>
      </trkpt>
      <trkpt lat="39.1426060" lon="-1.6171660">
        <ele>688.6</ele>
        <time>2019-05-12T09:59:00Z</time>
      </trkpt>
      <trkpt lat="39.1426140" lon="-1.6171970">
        <ele>688.6</ele>
        <time>2019-05-12T09:59:01Z</time>
      </trkpt>
      <trkpt lat="39.1426220" lon="-1.6172290">
        <ele>688.8</ele>
        <time>2019-05-12T09:59:02Z</time>
      </trkpt>
      <trkpt lat="39.1426540" lon="-1.6173560">
        <ele>688.8</ele>
        <time>2019-05-12T09:59:03Z</time>
      </trkpt>
      <trkpt lat="39.1426690" lon="-1.6174200">
        <ele>688.8</ele>
        <time>2019-05-12T09:59:04Z</time>
      </trkpt>
      <trkpt lat="39.1426840" lon="-1.6174850">
        <ele>688.8</ele>
        <time>2019-05-12T09:59:05Z</time>
      </trkpt>
      <trkpt lat="39.1427000" lon="-1.6175490">
        <ele>688.8</ele>
        <time>2019-05-12T09:59:06Z</time>
      </trkpt>
      <trkpt lat="39.1427160" lon="-1.6176140">
        <ele>688.8</ele>
        <time>2019-05-12T09:59:07Z</time>
      </trkpt>
      <trkpt lat="39.1427280" lon="-1.6176790">
        <ele>689.0</ele>
        <time>2019-05-12T09:59:08Z</time>
      </trkpt>
      <trkpt lat="39.1427390" lon="-1.6177440">
        <ele>689.0</ele>
        <time>2019-05-12T09:59:09Z</time>
      </trkpt>
      <trkpt lat="39.1427480" lon="-1.6178110">
        <ele>689.0</ele>
        <time>2019-05-12T09:59:10Z</time>
      </trkpt>
      <trkpt lat="39.1427550" lon="-1.6178810">
        <ele>689.0</ele>
        <time>2019-05-12T09:59:11Z</time>
      </trkpt>
      <trkpt lat="39.1427630" lon="-1.6179520">
        <ele>689.2</ele>
        <time>2019-05-12T09:59:12Z</time>
      </trkpt>
      <trkpt lat="39.1427700" lon="-1.6180260">
        <ele>689.2</ele>
        <time>2019-05-12T09:59:13Z</time>
      </trkpt>
      <trkpt lat="39.1427770" lon="-1.6181000">
        <ele>689.2</ele>
        <time>2019-05-12T09:59:14Z</time>
      </trkpt>
      <trkpt lat="39.1427860" lon="-1.6181750">
        <ele>689.2</ele>
        <time>2019-05-12T09:59:15Z</time>
      </trkpt>
      <trkpt lat="39.1427950" lon="-1.6182500">
        <ele>689.2</ele>
        <time>2019-05-12T09:59:16Z</time>
      </trkpt>
      <trkpt lat="39.1428040" lon="-1.6183240">
        <ele>689.2</ele>
        <time>2019-05-12T09:59:17Z</time>
      </trkpt>
      <trkpt lat="39.1428140" lon="-1.6183980">
        <ele>689.2</ele>
        <time>2019-05-12T09:59:18Z</time>
      </trkpt>
      <trkpt lat="39.1428230" lon="-1.6184700">
        <ele>689.2</ele>
        <time>2019-05-12T09:59:19Z</time>
      </trkpt>
      <trkpt lat="39.1428330" lon="-1.6185410">
        <ele>689.2</ele>
        <time>2019-05-12T09:59:20Z</time>
      </trkpt>
      <trkpt lat="39.1428420" lon="-1.6186100">
        <ele>689.4</ele>
        <time>2019-05-12T09:59:21Z</time>
      </trkpt>
      <trkpt lat="39.1428510" lon="-1.6186800">
        <ele>689.4</ele>
        <time>2019-05-12T09:59:22Z</time>
      </trkpt>
      <trkpt lat="39.1428600" lon="-1.6187490">
        <ele>689.4</ele>
        <time>2019-05-12T09:59:23Z</time>
      </trkpt>
      <trkpt lat="39.1428700" lon="-1.6188180">
        <ele>689.4</ele>
        <time>2019-05-12T09:59:24Z</time>
      </trkpt>
      <trkpt lat="39.1428740" lon="-1.6188520">
        <ele>689.4</ele>
        <time>2019-05-12T09:59:25Z</time>
      </trkpt>
      <trkpt lat="39.1428780" lon="-1.6188870">
        <ele>689.4</ele>
        <time>2019-05-12T09:59:26Z</time>
      </trkpt>
      <trkpt lat="39.1428960" lon="-1.6190240">
        <ele>689.4</ele>
        <time>2019-05-12T09:59:27Z</time>
      </trkpt>
      <trkpt lat="39.1429050" lon="-1.6190920">
        <ele>689.4</ele>
        <time>2019-05-12T09:59:28Z</time>
      </trkpt>
      <trkpt lat="39.1429100" lon="-1.6191260">
        <ele>689.4</ele>
        <time>2019-05-12T09:59:29Z</time>
      </trkpt>
      <trkpt lat="39.1429150" lon="-1.6191600">
        <ele>689.4</ele>
        <time>2019-05-12T09:59:30Z</time>
      </trkpt>
      <trkpt lat="39.1429310" lon="-1.6192630">
        <ele>689.4</ele>
        <time>2019-05-12T09:59:31Z</time>
      </trkpt>
      <trkpt lat="39.1429360" lon="-1.6192970">
        <ele>689.4</ele>
        <time>2019-05-12T09:59:32Z</time>
      </trkpt>
      <trkpt lat="39.1429460" lon="-1.6193660">
        <ele>689.6</ele>
        <time>2019-05-12T09:59:33Z</time>
      </trkpt>
      <trkpt lat="39.1429560" lon="-1.6194350">
        <ele>689.6</ele>
        <time>2019-05-12T09:59:34Z</time>
      </trkpt>
      <trkpt lat="39.1429670" lon="-1.6195020">
        <ele>689.6</ele>
        <time>2019-05-12T09:59:35Z</time>
      </trkpt>
      <trkpt lat="39.1429780" lon="-1.6195700">
        <ele>689.6</ele>
        <time>2019-05-12T09:59:36Z</time>
      </trkpt>
      <trkpt lat="39.1429880" lon="-1.6196360">
        <ele>689.6</ele>
        <time>2019-05-12T09:59:37Z</time>
      </trkpt>
      <trkpt lat="39.1429980" lon="-1.6197000">
        <ele>689.8</ele>
        <time>2019-05-12T09:59:38Z</time>
      </trkpt>
      <trkpt lat="39.1430080" lon="-1.6197630">
        <ele>689.8</ele>
        <time>2019-05-12T09:59:39Z</time>
      </trkpt>
      <trkpt lat="39.1430190" lon="-1.6198260">
        <ele>689.8</ele>
        <time>2019-05-12T09:59:40Z</time>
      </trkpt>
      <trkpt lat="39.1430290" lon="-1.6198900">
        <ele>690.0</ele>
        <time>2019-05-12T09:59:41Z</time>
      </trkpt>
      <trkpt lat="39.1430400" lon="-1.6199560">
        <ele>690.0</ele>
        <time>2019-05-12T09:59:42Z</time>
      </trkpt>
      <trkpt lat="39.1430510" lon="-1.6200220">
        <ele>690.2</ele>
        <time>2019-05-12T09:59:43Z</time>
      </trkpt>
      <trkpt lat="39.1430610" lon="-1.6200910">
        <ele>690.2</ele>
        <time>2019-05-12T09:59:44Z</time>
      </trkpt>
      <trkpt lat="39.1430700" lon="-1.6201600">
        <ele>690.2</ele>
        <time>2019-05-12T09:59:45Z</time>
      </trkpt>
      <trkpt lat="39.1430790" lon="-1.6202300">
        <ele>690.2</ele>
        <time>2019-05-12T09:59:46Z</time>
      </trkpt>
      <trkpt lat="39.1430990" lon="-1.6203690">
        <ele>690.2</ele>
        <time>2019-05-12T09:59:47Z</time>
      </trkpt>
      <trkpt lat="39.1431050" lon="-1.6204040">
        <ele>690.2</ele>
        <time>2019-05-12T09:59:48Z</time>
      </trkpt>
      <trkpt lat="39.1431100" lon="-1.6204400">
        <ele>690.2</ele>
        <time>2019-05-12T09:59:49Z</time>
      </trkpt>
      <trkpt lat="39.1431210" lon="-1.6205100">
        <ele>690.2</ele>
        <time>2019-05-12T09:59:50Z</time>
      </trkpt>
      <trkpt lat="39.1431350" lon="-1.6205810">
        <ele>690.2</ele>
        <time>2019-05-12T09:59:51Z</time>
      </trkpt>
      <trkpt lat="39.1431500" lon="-1.6206520">
        <ele>690.2</ele>
        <time>2019-05-12T09:59:52Z</time>
      </trkpt>
      <trkpt lat="39.1431850" lon="-1.6207940">
        <ele>690.2</ele>
        <time>2019-05-12T09:59:53Z</time>
      </trkpt>
      <trkpt lat="39.1431960" lon="-1.6208280">
        <ele>690.2</ele>
        <time>2019-05-12T09:59:54Z</time>
      </trkpt>
      <trkpt lat="39.1432060" lon="-1.6208630">
        <ele>690.2</ele>
        <time>2019-05-12T09:59:55Z</time>
      </trkpt>
      <trkpt lat="39.1432410" lon="-1.6209870">
        <ele>690.2</ele>
        <time>2019-05-12T09:59:56Z</time>
      </trkpt>
      <trkpt lat="39.1432560" lon="-1.6210420">
        <ele>690.2</ele>
        <time>2019-05-12T09:59:57Z</time>
      </trkpt>
      <trkpt lat="39.1432860" lon="-1.6211520">
        <ele>690.2</ele>
        <time>2019-05-12T09:59:58Z</time>
      </trkpt>
      <trkpt lat="39.1432940" lon="-1.6211920">
        <ele>690.2</ele>
        <time>2019-05-12T09:59:59Z</time>
      </trkpt>
      <trkpt lat="39.1433010" lon="-1.6212320">
        <ele>690.2</ele>
        <time>2019-05-12T10:00:00Z</time>
      </trkpt>
      <trkpt lat="39.1433130" lon="-1.6213140">
        <ele>690.2</ele>
        <time>2019-05-12T10:00:01Z</time>
      </trkpt>
      <trkpt lat="39.1433210" lon="-1.6213990">
        <ele>690.2</ele>
        <time>2019-05-12T10:00:02Z</time>
      </trkpt>
      <trkpt lat="39.1433250" lon="-1.6214850">
        <ele>690.2</ele>
        <time>2019-05-12T10:00:03Z</time>
      </trkpt>
      <trkpt lat="39.1433290" lon="-1.6215690">
        <ele>690.2</ele>
        <time>2019-05-12T10:00:04Z</time>
      </trkpt>
      <trkpt lat="39.1433380" lon="-1.6216520">
        <ele>690.2</ele>
        <time>2019-05-12T10:00:05Z</time>
      </trkpt>
      <trkpt lat="39.1433550" lon="-1.6217300">
        <ele>690.2</ele>
        <time>2019-05-12T10:00:06Z</time>
      </trkpt>
      <trkpt lat="39.1433820" lon="-1.6218020">
        <ele>690.2</ele>
        <time>2019-05-12T10:00:07Z</time>
      </trkpt>
      <trkpt lat="39.1434210" lon="-1.6218640">
        <ele>690.2</ele>
        <time>2019-05-12T10:00:08Z</time>
      </trkpt>
      <trkpt lat="39.1434710" lon="-1.6219120">
        <ele>690.0</ele>
        <time>2019-05-12T10:00:09Z</time>
      </trkpt>
      <trkpt lat="39.1435790" lon="-1.6219650">
        <ele>690.0</ele>
        <time>2019-05-12T10:00:10Z</time>
      </trkpt>
      <trkpt lat="39.1436320" lon="-1.6219790">
        <ele>689.8</ele>
        <time>2019-05-12T10:00:11Z</time>
      </trkpt>
      <trkpt lat="39.1436810" lon="-1.6219900">
        <ele>689.8</ele>
        <time>2019-05-12T10:00:12Z</time>
      </trkpt>
      <trkpt lat="39.1437300" lon="-1.6220010">
        <ele>689.8</ele>
        <time>2019-05-12T10:00:13Z</time>
      </trkpt>
      <trkpt lat="39.1437730" lon="-1.6220160">
        <ele>689.8</ele>
        <time>2019-05-12T10:00:14Z</time>
      </trkpt>
      <trkpt lat="39.1438110" lon="-1.6220340">
        <ele>689.8</ele>
        <time>2019-05-12T10:00:15Z</time>
      </trkpt>
      <trkpt lat="39.1438110" lon="-1.6220340">
        <ele>689.8</ele>
        <time>2019-05-12T10:00:16Z</time>
      </trkpt>
      <trkpt lat="39.1438420" lon="-1.6220560">
        <ele>689.8</ele>
        <time>2019-05-12T10:00:17Z</time>
      </trkpt>
      <trkpt lat="39.1438640" lon="-1.6220750">
        <ele>689.6</ele>
        <time>2019-05-12T10:00:18Z</time>
      </trkpt>
      <trkpt lat="39.1438750" lon="-1.6220820">
        <ele>689.6</ele>
        <time>2019-05-12T10:00:19Z</time>
      </trkpt>
      <trkpt lat="39.1438770" lon="-1.6220830">
        <ele>689.6</ele>
        <time>2019-05-12T10:00:20Z</time>
      </trkpt>
      <trkpt lat="39.1438760" lon="-1.6220820">
        <ele>689.6</ele>
        <time>2019-05-12T10:00:21Z</time>
      </trkpt>
      <trkpt lat="39.1438760" lon="-1.6220800">
        <ele>689.6</ele>
        <time>2019-05-12T10:00:22Z</time>
      </trkpt>
      <trkpt lat="39.1438760" lon="-1.6220800">
        <ele>689.6</ele>
        <time>2019-05-12T10:00:23Z</time>
      </trkpt>
      <trkpt lat="39.1438760" lon="-1.6220800">
        <ele>689.6</ele>
        <time>2019-05-12T10:00:24Z</time>
      </trkpt>
      <trkpt lat="39.1438760" lon="-1.6220800">
        <ele>689.6</ele>
        <time>2019-05-12T10:00:25Z</time>
      </trkpt>
      <trkpt lat="39.1438760" lon="-1.6220800">
        <ele>689.4</ele>
        <time>2019-05-12T10:00:26Z</time>
      </trkpt>
      <trkpt lat="39.1438760" lon="-1.6220800">
        <ele>689.4</ele>
        <time>2019-05-12T10:00:27Z</time>
      </trkpt>
      <trkpt lat="39.1438760" lon="-1.6220800">
        <ele>689.4</ele>
        <time>2019-05-12T10:00:28Z</time>
      </trkpt>
      <trkpt lat="39.1438760" lon="-1.6220800">
        <ele>689.4</ele>
        <time>2019-05-12T10:00:29Z</time>
      </trkpt>
      <trkpt lat="39.1438760" lon="-1.6220800">
        <ele>689.4</ele>
        <time>2019-05-12T10:00:30Z</time>
      </trkpt>
      <trkpt lat="39.1438760" lon="-1.6220800">
        <ele>689.4</ele>
        <time>2019-05-12T10:00:31Z</time>
      </trkpt>
      <trkpt lat="39.1438760" lon="-1.6220800">
        <ele>689.2</ele>
        <time>2019-05-12T10:00:32Z</time>
      </trkpt>
      <trkpt lat="39.1438760" lon="-1.6220800">
        <ele>689.2</ele>
        <time>2019-05-12T10:00:33Z</time>
      </trkpt>
      <trkpt lat="39.1438760" lon="-1.6220800">
        <ele>689.2</ele>
        <time>2019-05-12T10:00:34Z</time>
      </trkpt>
      <trkpt lat="39.1438760" lon="-1.6220800">
        <ele>689.2</ele>
        <time>2019-05-12T10:00:35Z</time>
      </trkpt>
      <trkpt lat="39.1438760" lon="-1.6220800">
        <ele>689.2</ele>
        <time>2019-05-12T10:00:36Z</time>
      </trkpt>
      <trkpt lat="39.1438760" lon="-1.6220800">
        <ele>689.2</ele>
        <time>2019-05-12T10:00:37Z</time>
      </trkpt>
      <trkpt lat="39.1438760" lon="-1.6220800">
        <ele>689.2</ele>
        <time>2019-05-12T10:00:38Z</time>
      </trkpt>
      <trkpt lat="39.1438760" lon="-1.6220800">
        <ele>689.2</ele>
        <time>2019-05-12T10:00:39Z</time>
      </trkpt>
      <trkpt lat="39.1438760" lon="-1.6220800">
        <ele>689.2</ele>
        <time>2019-05-12T10:00:40Z</time>
      </trkpt>
      <trkpt lat="39.1438760" lon="-1.6220800">
        <ele>689.2</ele>
        <time>2019-05-12T10:00:41Z</time>
      </trkpt>
      <trkpt lat="39.1438760" lon="-1.6220800">
        <ele>689.2</ele>
        <time>2019-05-12T10:00:42Z</time>
      </trkpt>
      <trkpt lat="39.1438760" lon="-1.6220800">
        <ele>689.2</ele>
        <time>2019-05-12T10:00:43Z</time>
      </trkpt>
      <trkpt lat="39.1438760" lon="-1.6220800">
        <ele>689.2</ele>
        <time>2019-05-12T10:00:44Z</time>
      </trkpt>
      <trkpt lat="39.1438760" lon="-1.6220800">
        <ele>689.2</ele>
        <time>2019-05-12T10:00:45Z</time>
      </trkpt>
      <trkpt lat="39.1438760" lon="-1.6220800">
        <ele>689.2</ele>
        <time>2019-05-12T10:00:46Z</time>
      </trkpt>
      <trkpt lat="39.1438760" lon="-1.6220800">
        <ele>689.2</ele>
        <time>2019-05-12T10:00:47Z</time>
      </trkpt>
      <trkpt lat="39.1438760" lon="-1.6220800">
        <ele>689.2</ele>
        <time>2019-05-12T10:00:48Z</time>
      </trkpt>
      <trkpt lat="39.1438760" lon="-1.6220800">
        <ele>689.2</ele>
        <time>2019-05-12T10:00:49Z</time>
      </trkpt>
      <trkpt lat="39.1438760" lon="-1.6220800">
        <ele>689.2</ele>
        <time>2019-05-12T10:00:50Z</time>
      </trkpt>
      <trkpt lat="39.1438760" lon="-1.6220800">
        <ele>689.2</ele>
        <time>2019-05-12T10:00:51Z</time>
      </trkpt>
      <trkpt lat="39.1438760" lon="-1.6220800">
        <ele>689.2</ele>
        <time>2019-05-12T10:00:52Z</time>
      </trkpt>
      <trkpt lat="39.1438760" lon="-1.6220800">
        <ele>689.2</ele>
        <time>2019-05-12T10:00:53Z</time>
      </trkpt>
      <trkpt lat="39.1438760" lon="-1.6220750">
        <ele>689.2</ele>
        <time>2019-05-12T10:00:54Z</time>
      </trkpt>
      <trkpt lat="39.1438760" lon="-1.6220750">
        <ele>689.2</ele>
        <time>2019-05-12T10:00:55Z</time>
      </trkpt>
      <trkpt lat="39.1438870" lon="-1.6220430">
        <ele>689.2</ele>
        <time>2019-05-12T10:00:56Z</time>
      </trkpt>
      <trkpt lat="39.1439010" lon="-1.6220230">
        <ele>689.2</ele>
        <time>2019-05-12T10:00:57Z</time>
      </trkpt>
      <trkpt lat="39.1439160" lon="-1.6219970">
        <ele>689.2</ele>
        <time>2019-05-12T10:00:58Z</time>
      </trkpt>
      <trkpt lat="39.1439310" lon="-1.6219700">
        <ele>689.2</ele>
        <time>2019-05-12T10:00:59Z</time>
      </trkpt>
      <trkpt lat="39.1439310" lon="-1.6219700">
        <ele>689.2</ele>
        <time>2019-05-12T10:01:00Z</time>
      </trkpt>
      <trkpt lat="39.1439480" lon="-1.6219360">
        <ele>689.2</ele>
        <time>2019-05-12T10:01:01Z</time>
      </trkpt>
      <trkpt lat="39.1439850" lon="-1.6218560">
        <ele>689.2</ele>
        <time>2019-05-12T10:01:02Z</time>
      </trkpt>
      <trkpt lat="39.1440040" lon="-1.6218110">
        <ele>689.2</ele>
        <time>2019-05-12T10:01:03Z</time>
      </trkpt>
      <trkpt lat="39.1440240" lon="-1.6217630">
        <ele>689.2</ele>
        <time>2019-05-12T10:01:04Z</time>
      </trkpt>
      <trkpt lat="39.1440350" lon="-1.6217390">
        <ele>689.2</ele>
        <time>2019-05-12T10:01:05Z</time>
      </trkpt>
      <trkpt lat="39.1440460" lon="-1.6217150">
        <ele>689.2</ele>
        <time>2019-05-12T10:01:06Z</time>
      </trkpt>
      <trkpt lat="39.1440890" lon="-1.6216130">
        <ele>689.2</ele>
        <time>2019-05-12T10:01:07Z</time>
      </trkpt>
      <trkpt lat="39.1441130" lon="-1.6215610">
        <ele>689.4</ele>
        <time>2019-05-12T10:01:08Z</time>
      </trkpt>
      <trkpt lat="39.1441370" lon="-1.6215060">
        <ele>689.4</ele>
        <time>2019-05-12T10:01:09Z</time>
      </trkpt>
      <trkpt lat="39.1441610" lon="-1.6214500">
        <ele>689.4</ele>
        <time>2019-05-12T10:01:10Z</time>
      </trkpt>
      <trkpt lat="39.1441850" lon="-1.6213940">
        <ele>689.6</ele>
        <time>2019-05-12T10:01:11Z</time>
      </trkpt>
      <trkpt lat="39.1442040" lon="-1.6213510">
        <ele>689.6</ele>
        <time>2019-05-12T10:01:12Z</time>
      </trkpt>
      <trkpt lat="39.1442230" lon="-1.6213070">
        <ele>689.6</ele>
        <time>2019-05-12T10:01:13Z</time>
      </trkpt>
      <trkpt lat="39.1442610" lon="-1.6212200">
        <ele>689.6</ele>
        <time>2019-05-12T10:01:14Z</time>
      </trkpt>
      <trkpt lat="39.1442860" lon="-1.6211600">
        <ele>689.6</ele>
        <time>2019-05-12T10:01:15Z</time>
      </trkpt>
      <trkpt lat="39.1443060" lon="-1.6211130">
        <ele>689.6</ele>
        <time>2019-05-12T10:01:16Z</time>
      </trkpt>
      <trkpt lat="39.1443250" lon="-1.6210660">
        <ele>689.8</ele>
        <time>2019-05-12T10:01:17Z</time>
      </trkpt>
      <trkpt lat="39.1443630" lon="-1.6209710">
        <ele>689.8</ele>
        <time>2019-05-12T10:01:18Z</time>
      </trkpt>
      <trkpt lat="39.1443840" lon="-1.6209240">
        <ele>689.8</ele>
        <time>2019-05-12T10:01:19Z</time>
      </trkpt>
      <trkpt lat="39.1444050" lon="-1.6208770">
        <ele>689.8</ele>
        <time>2019-05-12T10:01:20Z</time>
      </trkpt>
      <trkpt lat="39.1444470" lon="-1.6207820">
        <ele>690.0</ele>
        <time>2019-05-12T10:01:21Z</time>
      </trkpt>
      <trkpt lat="39.1444740" lon="-1.6207170">
        <ele>690.0</ele>
        <time>2019-05-12T10:01:22Z</time>
      </trkpt>
      <trkpt lat="39.1445020" lon="-1.6206510">
        <ele>690.0</ele>
        <time>2019-05-12T10:01:23Z</time>
      </trkpt>
      <trkpt lat="39.1445310" lon="-1.6205860">
        <ele>690.0</ele>
        <time>2019-05-12T10:01:24Z</time>
      </trkpt>
      <trkpt lat="39.1445600" lon="-1.6205200">
        <ele>690.0</ele>
        <time>2019-05-12T10:01:25Z</time>
      </trkpt>
      <trkpt lat="39.1445750" lon="-1.6204870">
        <ele>690.0</ele>
        <time>2019-05-12T10:01:26Z</time>
      </trkpt>
      <trkpt lat="39.1445900" lon="-1.6204540">
        <ele>690.0</ele>
        <time>2019-05-12T10:01:27Z</time>
      </trkpt>
      <trkpt lat="39.1446450" lon="-1.6203370">
        <ele>690.0</ele>
        <time>2019-05-12T10:01:28Z</time>
      </trkpt>
      <trkpt lat="39.1446700" lon="-1.6202870">
        <ele>690.0</ele>
        <time>2019-05-12T10:01:29Z</time>
      </trkpt>
      <trkpt lat="39.1447210" lon="-1.6201860">
        <ele>690.0</ele>
        <time>2019-05-12T10:01:30Z</time>
      </trkpt>
      <trkpt lat="39.1447600" lon="-1.6201210">
        <ele>690.0</ele>
        <time>2019-05-12T10:01:31Z</time>
      </trkpt>
      <trkpt lat="39.1448000" lon="-1.6200560">
        <ele>690.0</ele>
        <time>2019-05-12T10:01:32Z</time>
      </trkpt>
      <trkpt lat="39.1448420" lon="-1.6199940">
        <ele>690.0</ele>
        <time>2019-05-12T10:01:33Z</time>
      </trkpt>
      <trkpt lat="39.1448750" lon="-1.6199500">
        <ele>690.2</ele>
        <time>2019-05-12T10:01:34Z</time>
      </trkpt>
      <trkpt lat="39.1449080" lon="-1.6199060">
        <ele>690.2</ele>
        <time>2019-05-12T10:01:35Z</time>
      </trkpt>
      <trkpt lat="39.1449730" lon="-1.6198170">
        <ele>690.2</ele>
        <time>2019-05-12T10:01:36Z</time>
      </trkpt>
      <trkpt lat="39.1450180" lon="-1.6197610">
        <ele>690.2</ele>
        <time>2019-05-12T10:01:37Z</time>
      </trkpt>
      <trkpt lat="39.1450610" lon="-1.6197060">
        <ele>690.2</ele>
        <time>2019-05-12T10:01:38Z</time>
      </trkpt>
      <trkpt lat="39.1450780" lon="-1.6196760">
        <ele>690.2</ele>
        <time>2019-05-12T10:01:39Z</time>
      </trkpt>
      <trkpt lat="39.1450940" lon="-1.6196460">
        <ele>690.2</ele>
        <time>2019-05-12T10:01:40Z</time>
      </trkpt>
      <trkpt lat="39.1451080" lon="-1.6195070">
        <ele>690.2</ele>
        <time>2019-05-12T10:01:41Z</time>
      </trkpt>
      <trkpt lat="39.1450990" lon="-1.6194330">
        <ele>690.2</ele>
        <time>2019-05-12T10:01:42Z</time>
      </trkpt>
      <trkpt lat="39.1450870" lon="-1.6193560">
        <ele>690.2</ele>
        <time>2019-05-12T10:01:43Z</time>
      </trkpt>
      <trkpt lat="39.1450730" lon="-1.6192750">
        <ele>690.2</ele>
        <time>2019-05-12T10:01:44Z</time>
      </trkpt>
      <trkpt lat="39.1450510" lon="-1.6191910">
        <ele>690.2</ele>
        <time>2019-05-12T10:01:45Z</time>
      </trkpt>
      <trkpt lat="39.1450220" lon="-1.6191080">
        <ele>690.0</ele>
        <time>2019-05-12T10:01:46Z</time>
      </trkpt>
      <trkpt lat="39.1449900" lon="-1.6190230">
        <ele>690.0</ele>
        <time>2019-05-12T10:01:47Z</time>
      </trkpt>
      <trkpt lat="39.1449570" lon="-1.6189340">
        <ele>690.0</ele>
        <time>2019-05-12T10:01:48Z</time>
      </trkpt>
      <trkpt lat="39.1449310" lon="-1.6188430">
        <ele>689.8</ele>
        <time>2019-05-12T10:01:49Z</time>
      </trkpt>
      <trkpt lat="39.1449140" lon="-1.6187520">
        <ele>689.8</ele>
        <time>2019-05-12T10:01:50Z</time>
      </trkpt>
      <trkpt lat="39.1449060" lon="-1.6186680">
        <ele>689.6</ele>
        <time>2019-05-12T10:01:51Z</time>
      </trkpt>
      <trkpt lat="39.1449080" lon="-1.6185970">
        <ele>689.2</ele>
        <time>2019-05-12T10:01:52Z</time>
      </trkpt>
      <trkpt lat="39.1449070" lon="-1.6185380">
        <ele>688.8</ele>
        <time>2019-05-12T10:01:53Z</time>
      </trkpt>
      <trkpt lat="39.1449040" lon="-1.6184730">
        <ele>688.0</ele>
        <time>2019-05-12T10:01:54Z</time>
      </trkpt>
      <trkpt lat="39.1448990" lon="-1.6183930">
        <ele>687.8</ele>
        <time>2019-05-12T10:01:55Z</time>
      </trkpt>
      <trkpt lat="39.1449000" lon="-1.6183040">
        <ele>687.2</ele>
        <time>2019-05-12T10:01:56Z</time>
      </trkpt>
      <trkpt lat="39.1449040" lon="-1.6182170">
        <ele>686.6</ele>
        <time>2019-05-12T10:01:57Z</time>
      </trkpt>
      <trkpt lat="39.1449030" lon="-1.6181250">
        <ele>686.2</ele>
        <time>2019-05-12T10:01:58Z</time>
      </trkpt>
      <trkpt lat="39.1448920" lon="-1.6180390">
        <ele>685.8</ele>
        <time>2019-05-12T10:01:59Z</time>
      </trkpt>
      <trkpt lat="39.1448650" lon="-1.6179650">
        <ele>685.2</ele>
        <time>2019-05-12T10:02:00Z</time>
      </trkpt>
      <trkpt lat="39.1448330" lon="-1.6178970">
        <ele>684.8</ele>
        <time>2019-05-12T10:02:01Z</time>
      </trkpt>
      <trkpt lat="39.1448160" lon="-1.6178190">
        <ele>684.2</ele>
        <time>2019-05-12T10:02:02Z</time>
      </trkpt>
      <trkpt lat="39.1448150" lon="-1.6177290">
        <ele>683.4</ele>
        <time>2019-05-12T10:02:03Z</time>
      </trkpt>
      <trkpt lat="39.1448220" lon="-1.6176320">
        <ele>682.8</ele>
        <time>2019-05-12T10:02:04Z</time>
      </trkpt>
      <trkpt lat="39.1448200" lon="-1.6175410">
        <ele>682.4</ele>
        <time>2019-05-12T10:02:05Z</time>
      </trkpt>
      <trkpt lat="39.1448090" lon="-1.6174600">
        <ele>682.4</ele>
        <time>2019-05-12T10:02:06Z</time>
      </trkpt>
      <trkpt lat="39.1447870" lon="-1.6173940">
        <ele>682.0</ele>
        <time>2019-05-12T10:02:07Z</time>
      </trkpt>
      <trkpt lat="39.1447610" lon="-1.6173340">
        <ele>681.8</ele>
        <time>2019-05-12T10:02:08Z</time>
      </trkpt>
      <trkpt lat="39.1447360" lon="-1.6172730">
        <ele>681.2</ele>
        <time>2019-05-12T10:02:09Z</time>
      </trkpt>
      <trkpt lat="39.1447110" lon="-1.6172190">
        <ele>680.8</ele>
        <time>2019-05-12T10:02:10Z</time>
      </trkpt>
      <trkpt lat="39.1446810" lon="-1.6171790">
        <ele>680.2</ele>
        <time>2019-05-12T10:02:11Z</time>
      </trkpt>
      <trkpt lat="39.1446480" lon="-1.6171430">
        <ele>679.4</ele>
        <time>2019-05-12T10:02:12Z</time>
      </trkpt>
      <trkpt lat="39.1446110" lon="-1.6171150">
        <ele>679.2</ele>
        <time>2019-05-12T10:02:13Z</time>
      </trkpt>
      <trkpt lat="39.1445730" lon="-1.6170840">
        <ele>678.8</ele>
        <time>2019-05-12T10:02:14Z</time>
      </trkpt>
      <trkpt lat="39.1445420" lon="-1.6170470">
        <ele>678.8</ele>
        <time>2019-05-12T10:02:15Z</time>
      </trkpt>
      <trkpt lat="39.1445180" lon="-1.6169910">
        <ele>678.6</ele>
        <time>2019-05-12T10:02:16Z</time>
      </trkpt>
      <trkpt lat="39.1444940" lon="-1.6169210">
        <ele>678.6</ele>
        <time>2019-05-12T10:02:17Z</time>
      </trkpt>
      <trkpt lat="39.1444690" lon="-1.6168460">
        <ele>678.6</ele>
        <time>2019-05-12T10:02:18Z</time>
      </trkpt>
      <trkpt lat="39.1444500" lon="-1.6167720">
        <ele>678.6</ele>
        <time>2019-05-12T10:02:19Z</time>
      </trkpt>
      <trkpt lat="39.1444390" lon="-1.6167020">
        <ele>678.6</ele>
        <time>2019-05-12T10:02:20Z</time>
      </trkpt>
      <trkpt lat="39.1444290" lon="-1.6166330">
        <ele>678.4</ele>
        <time>2019-05-12T10:02:21Z</time>
      </trkpt>
      <trkpt lat="39.1444140" lon="-1.6165700">
        <ele>678.4</ele>
        <time>2019-05-12T10:02:22Z</time>
      </trkpt>
      <trkpt lat="39.1443980" lon="-1.6165100">
        <ele>678.2</ele>
        <time>2019-05-12T10:02:23Z</time>
      </trkpt>
      <trkpt lat="39.1443850" lon="-1.6164460">
        <ele>677.8</ele>
        <time>2019-05-12T10:02:24Z</time>
      </trkpt>
      <trkpt lat="39.1443710" lon="-1.6163850">
        <ele>677.4</ele>
        <time>2019-05-12T10:02:25Z</time>
      </trkpt>
      <trkpt lat="39.1443560" lon="-1.6163240">
        <ele>676.8</ele>
        <time>2019-05-12T10:02:26Z</time>
      </trkpt>
      <trkpt lat="39.1443380" lon="-1.6162700">
        <ele>676.4</ele>
        <time>2019-05-12T10:02:27Z</time>
      </trkpt>
      <trkpt lat="39.1443170" lon="-1.6162230">
        <ele>676.2</ele>
        <time>2019-05-12T10:02:28Z</time>
      </trkpt>
      <trkpt lat="39.1442960" lon="-1.6161770">
        <ele>676.2</ele>
        <time>2019-05-12T10:02:29Z</time>
      </trkpt>
      <trkpt lat="39.1442710" lon="-1.6161310">
        <ele>676.2</ele>
        <time>2019-05-12T10:02:30Z</time>
      </trkpt>
      <trkpt lat="39.1442450" lon="-1.6160800">
        <ele>676.2</ele>
        <time>2019-05-12T10:02:31Z</time>
      </trkpt>
      <trkpt lat="39.1442180" lon="-1.6160270">
        <ele>676.2</ele>
        <time>2019-05-12T10:02:32Z</time>
      </trkpt>
      <trkpt lat="39.1441870" lon="-1.6159750">
        <ele>676.2</ele>
        <time>2019-05-12T10:02:33Z</time>
      </trkpt>
      <trkpt lat="39.1441610" lon="-1.6159200">
        <ele>676.2</ele>
        <time>2019-05-12T10:02:34Z</time>
      </trkpt>
      <trkpt lat="39.1441540" lon="-1.6158630">
        <ele>676.2</ele>
        <time>2019-05-12T10:02:35Z</time>
      </trkpt>
      <trkpt lat="39.1441640" lon="-1.6158050">
        <ele>676.6</ele>
        <time>2019-05-12T10:02:36Z</time>
      </trkpt>
      <trkpt lat="39.1441760" lon="-1.6157460">
        <ele>676.8</ele>
        <time>2019-05-12T10:02:37Z</time>
      </trkpt>
      <trkpt lat="39.1441860" lon="-1.6156880">
        <ele>676.8</ele>
        <time>2019-05-12T10:02:38Z</time>
      </trkpt>
      <trkpt lat="39.1442040" lon="-1.6156270">
        <ele>676.8</ele>
        <time>2019-05-12T10:02:39Z</time>
      </trkpt>
      <trkpt lat="39.1442300" lon="-1.6155640">
        <ele>676.8</ele>
        <time>2019-05-12T10:02:40Z</time>
      </trkpt>
      <trkpt lat="39.1442540" lon="-1.6154980">
        <ele>676.8</ele>
        <time>2019-05-12T10:02:41Z</time>
      </trkpt>
      <trkpt lat="39.1442650" lon="-1.6154260">
        <ele>676.8</ele>
        <time>2019-05-12T10:02:42Z</time>
      </trkpt>
      <trkpt lat="39.1442700" lon="-1.6153550">
        <ele>676.8</ele>
        <time>2019-05-12T10:02:43Z</time>
      </trkpt>
      <trkpt lat="39.1442750" lon="-1.6152850">
        <ele>676.8</ele>
        <time>2019-05-12T10:02:44Z</time>
      </trkpt>
      <trkpt lat="39.1442790" lon="-1.6152090">
        <ele>676.8</ele>
        <time>2019-05-12T10:02:45Z</time>
      </trkpt>
      <trkpt lat="39.1442730" lon="-1.6151300">
        <ele>676.8</ele>
        <time>2019-05-12T10:02:46Z</time>
      </trkpt>
      <trkpt lat="39.1442600" lon="-1.6150500">
        <ele>676.6</ele>
        <time>2019-05-12T10:02:47Z</time>
      </trkpt>
      <trkpt lat="39.1442460" lon="-1.6149700">
        <ele>676.4</ele>
        <time>2019-05-12T10:02:48Z</time>
      </trkpt>
      <trkpt lat="39.1442240" lon="-1.6148920">
        <ele>676.2</ele>
        <time>2019-05-12T10:02:49Z</time>
      </trkpt>
      <trkpt lat="39.1442010" lon="-1.6148170">
        <ele>676.0</ele>
        <time>2019-05-12T10:02:50Z</time>
      </trkpt>
      <trkpt lat="39.1441950" lon="-1.6147440">
        <ele>675.6</ele>
        <time>2019-05-12T10:02:51Z</time>
      </trkpt>
      <trkpt lat="39.1442050" lon="-1.6146750">
        <ele>675.4</ele>
        <time>2019-05-12T10:02:52Z</time>
      </trkpt>
      <trkpt lat="39.1442220" lon="-1.6146060">
        <ele>675.2</ele>
        <time>2019-05-12T10:02:53Z</time>
      </trkpt>
      <trkpt lat="39.1442390" lon="-1.6145340">
        <ele>674.6</ele>
        <time>2019-05-12T10:02:54Z</time>
      </trkpt>
      <trkpt lat="39.1442510" lon="-1.6144590">
        <ele>674.4</ele>
        <time>2019-05-12T10:02:55Z</time>
      </trkpt>
      <trkpt lat="39.1442600" lon="-1.6143800">
        <ele>674.2</ele>
        <time>2019-05-12T10:02:56Z</time>
      </trkpt>
      <trkpt lat="39.1442660" lon="-1.6142990">
        <ele>673.8</ele>
        <time>2019-05-12T10:02:57Z</time>
      </trkpt>
      <trkpt lat="39.1442710" lon="-1.6142130">
        <ele>673.4</ele>
        <time>2019-05-12T10:02:58Z</time>
      </trkpt>
      <trkpt lat="39.1442700" lon="-1.6141280">
        <ele>673.4</ele>
        <time>2019-05-12T10:02:59Z</time>
      </trkpt>
      <trkpt lat="39.1442680" lon="-1.6140410">
        <ele>673.0</ele>
        <time>2019-05-12T10:03:00Z</time>
      </trkpt>
      <trkpt lat="39.1442640" lon="-1.6139790">
        <ele>672.6</ele>
        <time>2019-05-12T10:03:01Z</time>
      </trkpt>
      <trkpt lat="39.1442600" lon="-1.6139180">
        <ele>672.0</ele>
        <time>2019-05-12T10:03:02Z</time>
      </trkpt>
      <trkpt lat="39.1442520" lon="-1.6137960">
        <ele>671.6</ele>
        <time>2019-05-12T10:03:03Z</time>
      </trkpt>
      <trkpt lat="39.1442410" lon="-1.6137180">
        <ele>671.0</ele>
        <time>2019-05-12T10:03:04Z</time>
      </trkpt>
      <trkpt lat="39.1442380" lon="-1.6136410">
        <ele>670.8</ele>
        <time>2019-05-12T10:03:05Z</time>
      </trkpt>
      <trkpt lat="39.1442450" lon="-1.6135590">
        <ele>670.6</ele>
        <time>2019-05-12T10:03:06Z</time>
      </trkpt>
      <trkpt lat="39.1442480" lon="-1.6134740">
        <ele>670.6</ele>
        <time>2019-05-12T10:03:07Z</time>
      </trkpt>
      <trkpt lat="39.1442530" lon="-1.6133950">
        <ele>670.4</ele>
        <time>2019-05-12T10:03:08Z</time>
      </trkpt>
      <trkpt lat="39.1442730" lon="-1.6133270">
        <ele>670.0</ele>
        <time>2019-05-12T10:03:09Z</time>
      </trkpt>
      <trkpt lat="39.1442960" lon="-1.6132620">
        <ele>669.4</ele>
        <time>2019-05-12T10:03:10Z</time>
      </trkpt>
      <trkpt lat="39.1443090" lon="-1.6131880">
        <ele>669.2</ele>
        <time>2019-05-12T10:03:11Z</time>
      </trkpt>
      <trkpt lat="39.1443110" lon="-1.6131130">
        <ele>668.6</ele>
        <time>2019-05-12T10:03:12Z</time>
      </trkpt>
      <trkpt lat="39.1443150" lon="-1.6130390">
        <ele>668.4</ele>
        <time>2019-05-12T10:03:13Z</time>
      </trkpt>
      <trkpt lat="39.1443230" lon="-1.6129640">
        <ele>668.2</ele>
        <time>2019-05-12T10:03:14Z</time>
      </trkpt>
      <trkpt lat="39.1443280" lon="-1.6128870">
        <ele>668.0</ele>
        <time>2019-05-12T10:03:15Z</time>
      </trkpt>
      <trkpt lat="39.1443210" lon="-1.6128130">
        <ele>668.0</ele>
        <time>2019-05-12T10:03:16Z</time>
      </trkpt>
      <trkpt lat="39.1443080" lon="-1.6127650">
        <ele>667.8</ele>
        <time>2019-05-12T10:03:17Z</time>
      </trkpt>
      <trkpt lat="39.1442940" lon="-1.6127180">
        <ele>667.6</ele>
        <time>2019-05-12T10:03:18Z</time>
      </trkpt>
      <trkpt lat="39.1442670" lon="-1.6126230">
        <ele>667.6</ele>
        <time>2019-05-12T10:03:19Z</time>
      </trkpt>
      <trkpt lat="39.1442490" lon="-1.6125630">
        <ele>667.4</ele>
        <time>2019-05-12T10:03:20Z</time>
      </trkpt>
      <trkpt lat="39.1442310" lon="-1.6125020">
        <ele>667.2</ele>
        <time>2019-05-12T10:03:21Z</time>
      </trkpt>
      <trkpt lat="39.1442120" lon="-1.6124400">
        <ele>667.2</ele>
        <time>2019-05-12T10:03:22Z</time>
      </trkpt>
      <trkpt lat="39.1441910" lon="-1.6123770">
        <ele>667.2</ele>
        <time>2019-05-12T10:03:23Z</time>
      </trkpt>
      <trkpt lat="39.1441670" lon="-1.6123130">
        <ele>667.0</ele>
        <time>2019-05-12T10:03:24Z</time>
      </trkpt>
      <trkpt lat="39.1441350" lon="-1.6122580">
        <ele>667.0</ele>
        <time>2019-05-12T10:03:25Z</time>
      </trkpt>
      <trkpt lat="39.1441010" lon="-1.6122070">
        <ele>667.0</ele>
        <time>2019-05-12T10:03:26Z</time>
      </trkpt>
      <trkpt lat="39.1440750" lon="-1.6121500">
        <ele>667.0</ele>
        <time>2019-05-12T10:03:27Z</time>
      </trkpt>
      <trkpt lat="39.1440550" lon="-1.6120840">
        <ele>667.0</ele>
        <time>2019-05-12T10:03:28Z</time>
      </trkpt>
      <trkpt lat="39.1440420" lon="-1.6120540">
        <ele>667.0</ele>
        <time>2019-05-12T10:03:29Z</time>
      </trkpt>
      <trkpt lat="39.1440280" lon="-1.6120240">
        <ele>667.0</ele>
        <time>2019-05-12T10:03:30Z</time>
      </trkpt>
      <trkpt lat="39.1440030" lon="-1.6119110">
        <ele>667.0</ele>
        <time>2019-05-12T10:03:31Z</time>
      </trkpt>
      <trkpt lat="39.1440050" lon="-1.6118560">
        <ele>666.8</ele>
        <time>2019-05-12T10:03:32Z</time>
      </trkpt>
      <trkpt lat="39.1440030" lon="-1.6117940">
        <ele>666.8</ele>
        <time>2019-05-12T10:03:33Z</time>
      </trkpt>
      <trkpt lat="39.1439980" lon="-1.6117260">
        <ele>666.8</ele>
        <time>2019-05-12T10:03:34Z</time>
      </trkpt>
      <trkpt lat="39.1439900" lon="-1.6116560">
        <ele>666.8</ele>
        <time>2019-05-12T10:03:35Z</time>
      </trkpt>
      <trkpt lat="39.1439740" lon="-1.6115880">
        <ele>666.8</ele>
        <time>2019-05-12T10:03:36Z</time>
      </trkpt>
      <trkpt lat="39.1439630" lon="-1.6115440">
        <ele>666.8</ele>
        <time>2019-05-12T10:03:37Z</time>
      </trkpt>
      <trkpt lat="39.1439520" lon="-1.6115010">
        <ele>666.8</ele>
        <time>2019-05-12T10:03:38Z</time>
      </trkpt>
      <trkpt lat="39.1439300" lon="-1.6114150">
        <ele>666.6</ele>
        <time>2019-05-12T10:03:39Z</time>
      </trkpt>
      <trkpt lat="39.1439320" lon="-1.6113670">
        <ele>665.8</ele>
        <time>2019-05-12T10:03:40Z</time>
      </trkpt>
      <trkpt lat="39.1439240" lon="-1.6113200">
        <ele>665.6</ele>
        <time>2019-05-12T10:03:41Z</time>
      </trkpt>
      <trkpt lat="39.1439070" lon="-1.6112700">
        <ele>665.2</ele>
        <time>2019-05-12T10:03:42Z</time>
      </trkpt>
      <trkpt lat="39.1438790" lon="-1.6112240">
        <ele>664.8</ele>
        <time>2019-05-12T10:03:43Z</time>
      </trkpt>
      <trkpt lat="39.1438440" lon="-1.6111760">
        <ele>664.6</ele>
        <time>2019-05-12T10:03:44Z</time>
      </trkpt>
      <trkpt lat="39.1438060" lon="-1.6111320">
        <ele>664.4</ele>
        <time>2019-05-12T10:03:45Z</time>
      </trkpt>
      <trkpt lat="39.1437650" lon="-1.6110970">
        <ele>664.2</ele>
        <time>2019-05-12T10:03:46Z</time>
      </trkpt>
      <trkpt lat="39.1437240" lon="-1.6110710">
        <ele>664.0</ele>
        <time>2019-05-12T10:03:47Z</time>
      </trkpt>
      <trkpt lat="39.1436890" lon="-1.6110410">
        <ele>663.6</ele>
        <time>2019-05-12T10:03:48Z</time>
      </trkpt>
      <trkpt lat="39.1436890" lon="-1.6110410">
        <ele>663.4</ele>
        <time>2019-05-12T10:03:49Z</time>
      </trkpt>
      <trkpt lat="39.1436770" lon="-1.6110010">
        <ele>663.0</ele>
        <time>2019-05-12T10:03:50Z</time>
      </trkpt>
      <trkpt lat="39.1437080" lon="-1.6109380">
        <ele>662.8</ele>
        <time>2019-05-12T10:03:51Z</time>
      </trkpt>
      <trkpt lat="39.1437440" lon="-1.6109280">
        <ele>662.6</ele>
        <time>2019-05-12T10:03:52Z</time>
      </trkpt>
      <trkpt lat="39.1437830" lon="-1.6109230">
        <ele>662.2</ele>
        <time>2019-05-12T10:03:53Z</time>
      </trkpt>
      <trkpt lat="39.1438260" lon="-1.6109170">
        <ele>661.6</ele>
        <time>2019-05-12T10:03:54Z</time>
      </trkpt>
      <trkpt lat="39.1438770" lon="-1.6109030">
        <ele>661.2</ele>
        <time>2019-05-12T10:03:55Z</time>
      </trkpt>
      <trkpt lat="39.1439320" lon="-1.6108870">
        <ele>660.8</ele>
        <time>2019-05-12T10:03:56Z</time>
      </trkpt>
      <trkpt lat="39.1439820" lon="-1.6108810">
        <ele>660.4</ele>
        <time>2019-05-12T10:03:57Z</time>
      </trkpt>
      <trkpt lat="39.1440230" lon="-1.6108680">
        <ele>659.8</ele>
        <time>2019-05-12T10:03:58Z</time>
      </trkpt>
      <trkpt lat="39.1440540" lon="-1.6108280">
        <ele>659.2</ele>
        <time>2019-05-12T10:03:59Z</time>
      </trkpt>
      <trkpt lat="39.1440790" lon="-1.6107700">
        <ele>658.8</ele>
        <time>2019-05-12T10:04:00Z</time>
      </trkpt>
      <trkpt lat="39.1440920" lon="-1.6106970">
        <ele>658.4</ele>
        <time>2019-05-12T10:04:01Z</time>
      </trkpt>
      <trkpt lat="39.1440910" lon="-1.6106230">
        <ele>658.2</ele>
        <time>2019-05-12T10:04:02Z</time>
      </trkpt>
      <trkpt lat="39.1440860" lon="-1.6105470">
        <ele>658.0</ele>
        <time>2019-05-12T10:04:03Z</time>
      </trkpt>
      <trkpt lat="39.1440890" lon="-1.6104710">
        <ele>657.6</ele>
        <time>2019-05-12T10:04:04Z</time>
      </trkpt>
      <trkpt lat="39.1441020" lon="-1.6103990">
        <ele>657.0</ele>
        <time>2019-05-12T10:04:05Z</time>
      </trkpt>
      <trkpt lat="39.1441230" lon="-1.6103400">
        <ele>656.6</ele>
        <time>2019-05-12T10:04:06Z</time>
      </trkpt>
      <trkpt lat="39.1441480" lon="-1.6102900">
        <ele>656.2</ele>
        <time>2019-05-12T10:04:07Z</time>
      </trkpt>
      <trkpt lat="39.1441770" lon="-1.6102520">
        <ele>655.8</ele>
        <time>2019-05-12T10:04:08Z</time>
      </trkpt>
      <trkpt lat="39.1442070" lon="-1.6102220">
        <ele>655.8</ele>
        <time>2019-05-12T10:04:09Z</time>
      </trkpt>
      <trkpt lat="39.1442410" lon="-1.6102120">
        <ele>655.8</ele>
        <time>2019-05-12T10:04:10Z</time>
      </trkpt>
      <trkpt lat="39.1442750" lon="-1.6102010">
        <ele>655.6</ele>
        <time>2019-05-12T10:04:11Z</time>
      </trkpt>
      <trkpt lat="39.1443090" lon="-1.6102090">
        <ele>655.6</ele>
        <time>2019-05-12T10:04:12Z</time>
      </trkpt>
      <trkpt lat="39.1443430" lon="-1.6102200">
        <ele>655.6</ele>
        <time>2019-05-12T10:04:13Z</time>
      </trkpt>
      <trkpt lat="39.1443770" lon="-1.6102380">
        <ele>655.6</ele>
        <time>2019-05-12T10:04:14Z</time>
      </trkpt>
      <trkpt lat="39.1444100" lon="-1.6102680">
        <ele>655.6</ele>
        <time>2019-05-12T10:04:15Z</time>
      </trkpt>
      <trkpt lat="39.1444400" lon="-1.6103040">
        <ele>655.6</ele>
        <time>2019-05-12T10:04:16Z</time>
      </trkpt>
      <trkpt lat="39.1444720" lon="-1.6103410">
        <ele>655.8</ele>
        <time>2019-05-12T10:04:17Z</time>
      </trkpt>
      <trkpt lat="39.1445040" lon="-1.6103770">
        <ele>656.0</ele>
        <time>2019-05-12T10:04:18Z</time>
      </trkpt>
      <trkpt lat="39.1445360" lon="-1.6104170">
        <ele>656.2</ele>
        <time>2019-05-12T10:04:19Z</time>
      </trkpt>
      <trkpt lat="39.1445670" lon="-1.6104630">
        <ele>656.6</ele>
        <time>2019-05-12T10:04:20Z</time>
      </trkpt>
      <trkpt lat="39.1445950" lon="-1.6105140">
        <ele>656.6</ele>
        <time>2019-05-12T10:04:21Z</time>
      </trkpt>
      <trkpt lat="39.1446220" lon="-1.6105680">
        <ele>656.6</ele>
        <time>2019-05-12T10:04:22Z</time>
      </trkpt>
      <trkpt lat="39.1446500" lon="-1.6106240">
        <ele>656.8</ele>
        <time>2019-05-12T10:04:23Z</time>
      </trkpt>
      <trkpt lat="39.1446800" lon="-1.6106810">
        <ele>657.0</ele>
        <time>2019-05-12T10:04:24Z</time>
      </trkpt>
      <trkpt lat="39.1447130" lon="-1.6107340">
        <ele>657.0</ele>
        <time>2019-05-12T10:04:25Z</time>
      </trkpt>
      <trkpt lat="39.1447470" lon="-1.6107840">
        <ele>657.0</ele>
        <time>2019-05-12T10:04:26Z</time>
      </trkpt>
      <trkpt lat="39.1447780" lon="-1.6108260">
        <ele>657.0</ele>
        <time>2019-05-12T10:04:27Z</time>
      </trkpt>
      <trkpt lat="39.1448120" lon="-1.6108530">
        <ele>657.0</ele>
        <time>2019-05-12T10:04:28Z</time>
      </trkpt>
      <trkpt lat="39.1448520" lon="-1.6108740">
        <ele>657.0</ele>
        <time>2019-05-12T10:04:29Z</time>
      </trkpt>
      <trkpt lat="39.1448960" lon="-1.6108960">
        <ele>657.0</ele>
        <time>2019-05-12T10:04:30Z</time>
      </trkpt>
      <trkpt lat="39.1449300" lon="-1.6109190">
        <ele>657.0</ele>
        <time>2019-05-12T10:04:31Z</time>
      </trkpt>
      <trkpt lat="39.1449630" lon="-1.6109430">
        <ele>657.0</ele>
        <time>2019-05-12T10:04:32Z</time>
      </trkpt>
      <trkpt lat="39.1450300" lon="-1.6109910">
        <ele>656.8</ele>
        <time>2019-05-12T10:04:33Z</time>
      </trkpt>
      <trkpt lat="39.1450730" lon="-1.6110290">
        <ele>656.8</ele>
        <time>2019-05-12T10:04:34Z</time>
      </trkpt>
      <trkpt lat="39.1451130" lon="-1.6110700">
        <ele>656.6</ele>
        <time>2019-05-12T10:04:35Z</time>
      </trkpt>
      <trkpt lat="39.1451490" lon="-1.6111190">
        <ele>656.4</ele>
        <time>2019-05-12T10:04:36Z</time>
      </trkpt>
      <trkpt lat="39.1451880" lon="-1.6111700">
        <ele>656.4</ele>
        <time>2019-05-12T10:04:37Z</time>
      </trkpt>
      <trkpt lat="39.1452300" lon="-1.6112210">
        <ele>656.0</ele>
        <time>2019-05-12T10:04:38Z</time>
      </trkpt>
      <trkpt lat="39.1452770" lon="-1.6112710">
        <ele>656.0</ele>
        <time>2019-05-12T10:04:39Z</time>
      </trkpt>
      <trkpt lat="39.1453210" lon="-1.6113190">
        <ele>655.8</ele>
        <time>2019-05-12T10:04:40Z</time>
      </trkpt>
      <trkpt lat="39.1453550" lon="-1.6113640">
        <ele>655.8</ele>
        <time>2019-05-12T10:04:41Z</time>
      </trkpt>
      <trkpt lat="39.1453830" lon="-1.6114020">
        <ele>655.6</ele>
        <time>2019-05-12T10:04:42Z</time>
      </trkpt>
      <trkpt lat="39.1454100" lon="-1.6114230">
        <ele>655.6</ele>
        <time>2019-05-12T10:04:43Z</time>
      </trkpt>
      <trkpt lat="39.1454450" lon="-1.6114360">
        <ele>655.6</ele>
        <time>2019-05-12T10:04:44Z</time>
      </trkpt>
      <trkpt lat="39.1454860" lon="-1.6114410">
        <ele>655.6</ele>
        <time>2019-05-12T10:04:45Z</time>
      </trkpt>
      <trkpt lat="39.1455250" lon="-1.6114260">
        <ele>655.6</ele>
        <time>2019-05-12T10:04:46Z</time>
      </trkpt>
      <trkpt lat="39.1455530" lon="-1.6113870">
        <ele>655.4</ele>
        <time>2019-05-12T10:04:47Z</time>
      </trkpt>
      <trkpt lat="39.1455680" lon="-1.6113380">
        <ele>655.0</ele>
        <time>2019-05-12T10:04:48Z</time>
      </trkpt>
      <trkpt lat="39.1455760" lon="-1.6112850">
        <ele>654.4</ele>
        <time>2019-05-12T10:04:49Z</time>
      </trkpt>
      <trkpt lat="39.1455850" lon="-1.6112310">
        <ele>654.0</ele>
        <time>2019-05-12T10:04:50Z</time>
      </trkpt>
      <trkpt lat="39.1455970" lon="-1.6111780">
        <ele>653.8</ele>
        <time>2019-05-12T10:04:51Z</time>
      </trkpt>
      <trkpt lat="39.1456040" lon="-1.6111320">
        <ele>653.2</ele>
        <time>2019-05-12T10:04:52Z</time>
      </trkpt>
      <trkpt lat="39.1456050" lon="-1.6110910">
        <ele>652.6</ele>
        <time>2019-05-12T10:04:53Z</time>
      </trkpt>
      <trkpt lat="39.1456100" lon="-1.6110470">
        <ele>652.4</ele>
        <time>2019-05-12T10:04:54Z</time>
      </trkpt>
      <trkpt lat="39.1456140" lon="-1.6110010">
        <ele>652.2</ele>
        <time>2019-05-12T10:04:55Z</time>
      </trkpt>
      <trkpt lat="39.1456150" lon="-1.6109550">
        <ele>652.2</ele>
        <time>2019-05-12T10:04:56Z</time>
      </trkpt>
      <trkpt lat="39.1456110" lon="-1.6109150">
        <ele>652.2</ele>
        <time>2019-05-12T10:04:57Z</time>
      </trkpt>
      <trkpt lat="39.1456060" lon="-1.6108740">
        <ele>652.0</ele>
        <time>2019-05-12T10:04:58Z</time>
      </trkpt>
      <trkpt lat="39.1456000" lon="-1.6108350">
        <ele>652.0</ele>
        <time>2019-05-12T10:04:59Z</time>
      </trkpt>
      <trkpt lat="39.1456040" lon="-1.6107930">
        <ele>652.0</ele>
        <time>2019-05-12T10:05:00Z</time>
      </trkpt>
      <trkpt lat="39.1456060" lon="-1.6107500">
        <ele>652.0</ele>
        <time>2019-05-12T10:05:01Z</time>
      </trkpt>
      <trkpt lat="39.1456070" lon="-1.6107130">
        <ele>652.0</ele>
        <time>2019-05-12T10:05:02Z</time>
      </trkpt>
      <trkpt lat="39.1456080" lon="-1.6106790">
        <ele>652.0</ele>
        <time>2019-05-12T10:05:03Z</time>
      </trkpt>
      <trkpt lat="39.1456070" lon="-1.6106440">
        <ele>652.4</ele>
        <time>2019-05-12T10:05:04Z</time>
      </trkpt>
      <trkpt lat="39.1456010" lon="-1.6106080">
        <ele>652.4</ele>
        <time>2019-05-12T10:05:05Z</time>
      </trkpt>
      <trkpt lat="39.1455930" lon="-1.6105710">
        <ele>652.6</ele>
        <time>2019-05-12T10:05:06Z</time>
      </trkpt>
      <trkpt lat="39.1455850" lon="-1.6105330">
        <ele>653.0</ele>
        <time>2019-05-12T10:05:07Z</time>
      </trkpt>
      <trkpt lat="39.1455770" lon="-1.6104940">
        <ele>653.2</ele>
        <time>2019-05-12T10:05:08Z</time>
      </trkpt>
      <trkpt lat="39.1455700" lon="-1.6104550">
        <ele>653.6</ele>
        <time>2019-05-12T10:05:09Z</time>
      </trkpt>
      <trkpt lat="39.1455620" lon="-1.6104190">
        <ele>654.0</ele>
        <time>2019-05-12T10:05:10Z</time>
      </trkpt>
      <trkpt lat="39.1455570" lon="-1.6103840">
        <ele>654.6</ele>
        <time>2019-05-12T10:05:11Z</time>
      </trkpt>
      <trkpt lat="39.1455520" lon="-1.6103480">
        <ele>654.8</ele>
        <time>2019-05-12T10:05:12Z</time>
      </trkpt>
      <trkpt lat="39.1455440" lon="-1.6103120">
        <ele>655.0</ele>
        <time>2019-05-12T10:05:13Z</time>
      </trkpt>
      <trkpt lat="39.1455300" lon="-1.6102830">
        <ele>655.2</ele>
        <time>2019-05-12T10:05:14Z</time>
      </trkpt>
      <trkpt lat="39.1455120" lon="-1.6102530">
        <ele>655.6</ele>
        <time>2019-05-12T10:05:15Z</time>
      </trkpt>
      <trkpt lat="39.1454990" lon="-1.6102150">
        <ele>655.8</ele>
        <time>2019-05-12T10:05:16Z</time>
      </trkpt>
      <trkpt lat="39.1454970" lon="-1.6101710">
        <ele>656.2</ele>
        <time>2019-05-12T10:05:17Z</time>
      </trkpt>
      <trkpt lat="39.1454980" lon="-1.6101270">
        <ele>656.4</ele>
        <time>2019-05-12T10:05:18Z</time>
      </trkpt>
      <trkpt lat="39.1455040" lon="-1.6100810">
        <ele>656.8</ele>
        <time>2019-05-12T10:05:19Z</time>
      </trkpt>
      <trkpt lat="39.1455100" lon="-1.6100330">
        <ele>657.0</ele>
        <time>2019-05-12T10:05:20Z</time>
      </trkpt>
      <trkpt lat="39.1455100" lon="-1.6099850">
        <ele>657.2</ele>
        <time>2019-05-12T10:05:21Z</time>
      </trkpt>
      <trkpt lat="39.1455070" lon="-1.6099380">
        <ele>657.2</ele>
        <time>2019-05-12T10:05:22Z</time>
      </trkpt>
      <trkpt lat="39.1455050" lon="-1.6098950">
        <ele>657.2</ele>
        <time>2019-05-12T10:05:23Z</time>
      </trkpt>
      <trkpt lat="39.1455080" lon="-1.6098580">
        <ele>657.4</ele>
        <time>2019-05-12T10:05:24Z</time>
      </trkpt>
      <trkpt lat="39.1455150" lon="-1.6098260">
        <ele>657.4</ele>
        <time>2019-05-12T10:05:25Z</time>
      </trkpt>
      <trkpt lat="39.1455270" lon="-1.6097940">
        <ele>657.4</ele>
        <time>2019-05-12T10:05:26Z</time>
      </trkpt>
      <trkpt lat="39.1455400" lon="-1.6097610">
        <ele>657.4</ele>
        <time>2019-05-12T10:05:27Z</time>
      </trkpt>
      <trkpt lat="39.1455550" lon="-1.6097280">
        <ele>657.6</ele>
        <time>2019-05-12T10:05:28Z</time>
      </trkpt>
      <trkpt lat="39.1455680" lon="-1.6096920">
        <ele>657.6</ele>
        <time>2019-05-12T10:05:29Z</time>
      </trkpt>
      <trkpt lat="39.1455770" lon="-1.6096530">
        <ele>657.6</ele>
        <time>2019-05-12T10:05:30Z</time>
      </trkpt>
      <trkpt lat="39.1455880" lon="-1.6096120">
        <ele>657.6</ele>
        <time>2019-05-12T10:05:31Z</time>
      </trkpt>
      <trkpt lat="39.1456060" lon="-1.6095720">
        <ele>657.6</ele>
        <time>2019-05-12T10:05:32Z</time>
      </trkpt>
      <trkpt lat="39.1456310" lon="-1.6095380">
        <ele>657.6</ele>
        <time>2019-05-12T10:05:33Z</time>
      </trkpt>
      <trkpt lat="39.1456590" lon="-1.6095120">
        <ele>657.8</ele>
        <time>2019-05-12T10:05:34Z</time>
      </trkpt>
      <trkpt lat="39.1456890" lon="-1.6094910">
        <ele>658.0</ele>
        <time>2019-05-12T10:05:35Z</time>
      </trkpt>
      <trkpt lat="39.1457190" lon="-1.6094700">
        <ele>658.2</ele>
        <time>2019-05-12T10:05:36Z</time>
      </trkpt>
      <trkpt lat="39.1457520" lon="-1.6094590">
        <ele>658.2</ele>
        <time>2019-05-12T10:05:37Z</time>
      </trkpt>
      <trkpt lat="39.1457840" lon="-1.6094500">
        <ele>658.4</ele>
        <time>2019-05-12T10:05:38Z</time>
      </trkpt>
      <trkpt lat="39.1458140" lon="-1.6094380">
        <ele>658.4</ele>
        <time>2019-05-12T10:05:39Z</time>
      </trkpt>
      <trkpt lat="39.1458450" lon="-1.6094270">
        <ele>658.4</ele>
        <time>2019-05-12T10:05:40Z</time>
      </trkpt>
      <trkpt lat="39.1458780" lon="-1.6094210">
        <ele>658.8</ele>
        <time>2019-05-12T10:05:41Z</time>
      </trkpt>
      <trkpt lat="39.1459120" lon="-1.6094200">
        <ele>659.0</ele>
        <time>2019-05-12T10:05:42Z</time>
      </trkpt>
      <trkpt lat="39.1459470" lon="-1.6094120">
        <ele>659.0</ele>
        <time>2019-05-12T10:05:43Z</time>
      </trkpt>
      <trkpt lat="39.1459830" lon="-1.6093890">
        <ele>659.2</ele>
        <time>2019-05-12T10:05:44Z</time>
      </trkpt>
      <trkpt lat="39.1460160" lon="-1.6093620">
        <ele>659.2</ele>
        <time>2019-05-12T10:05:45Z</time>
      </trkpt>
      <trkpt lat="39.1460370" lon="-1.6093370">
        <ele>659.2</ele>
        <time>2019-05-12T10:05:46Z</time>
      </trkpt>
      <trkpt lat="39.1460420" lon="-1.6093050">
        <ele>659.2</ele>
        <time>2019-05-12T10:05:47Z</time>
      </trkpt>
      <trkpt lat="39.1460330" lon="-1.6092680">
        <ele>659.2</ele>
        <time>2019-05-12T10:05:48Z</time>
      </trkpt>
      <trkpt lat="39.1460110" lon="-1.6092340">
        <ele>659.2</ele>
        <time>2019-05-12T10:05:49Z</time>
      </trkpt>
      <trkpt lat="39.1459850" lon="-1.6091990">
        <ele>659.2</ele>
        <time>2019-05-12T10:05:50Z</time>
      </trkpt>
      <trkpt lat="39.1459560" lon="-1.6091660">
        <ele>659.2</ele>
        <time>2019-05-12T10:05:51Z</time>
      </trkpt>
      <trkpt lat="39.1459190" lon="-1.6091370">
        <ele>659.2</ele>
        <time>2019-05-12T10:05:52Z</time>
      </trkpt>
      <trkpt lat="39.1458770" lon="-1.6091200">
        <ele>659.2</ele>
        <time>2019-05-12T10:05:53Z</time>
      </trkpt>
      <trkpt lat="39.1458320" lon="-1.6091100">
        <ele>659.0</ele>
        <time>2019-05-12T10:05:54Z</time>
      </trkpt>
      <trkpt lat="39.1457870" lon="-1.6090960">
        <ele>658.6</ele>
        <time>2019-05-12T10:05:55Z</time>
      </trkpt>
      <trkpt lat="39.1457440" lon="-1.6090790">
        <ele>658.0</ele>
        <time>2019-05-12T10:05:56Z</time>
      </trkpt>
      <trkpt lat="39.1457080" lon="-1.6090660">
        <ele>657.6</ele>
        <time>2019-05-12T10:05:57Z</time>
      </trkpt>
      <trkpt lat="39.1456760" lon="-1.6090430">
        <ele>657.0</ele>
        <time>2019-05-12T10:05:58Z</time>
      </trkpt>
      <trkpt lat="39.1456400" lon="-1.6090170">
        <ele>656.0</ele>
        <time>2019-05-12T10:05:59Z</time>
      </trkpt>
      <trkpt lat="39.1456020" lon="-1.6090070">
        <ele>655.2</ele>
        <time>2019-05-12T10:06:00Z</time>
      </trkpt>
      <trkpt lat="39.1455640" lon="-1.6090020">
        <ele>654.6</ele>
        <time>2019-05-12T10:06:01Z</time>
      </trkpt>
      <trkpt lat="39.1455310" lon="-1.6089880">
        <ele>654.2</ele>
        <time>2019-05-12T10:06:02Z</time>
      </trkpt>
      <trkpt lat="39.1454990" lon="-1.6089780">
        <ele>653.8</ele>
        <time>2019-05-12T10:06:03Z</time>
      </trkpt>
      <trkpt lat="39.1454650" lon="-1.6089640">
        <ele>653.4</ele>
        <time>2019-05-12T10:06:04Z</time>
      </trkpt>
      <trkpt lat="39.1454360" lon="-1.6089440">
        <ele>652.8</ele>
        <time>2019-05-12T10:06:05Z</time>
      </trkpt>
      <trkpt lat="39.1454010" lon="-1.6089360">
        <ele>652.4</ele>
        <time>2019-05-12T10:06:06Z</time>
      </trkpt>
      <trkpt lat="39.1453620" lon="-1.6089290">
        <ele>651.8</ele>
        <time>2019-05-12T10:06:07Z</time>
      </trkpt>
      <trkpt lat="39.1453310" lon="-1.6089070">
        <ele>651.2</ele>
        <time>2019-05-12T10:06:08Z</time>
      </trkpt>
      <trkpt lat="39.1452950" lon="-1.6088830">
        <ele>650.8</ele>
        <time>2019-05-12T10:06:09Z</time>
      </trkpt>
      <trkpt lat="39.1452630" lon="-1.6088530">
        <ele>650.6</ele>
        <time>2019-05-12T10:06:10Z</time>
      </trkpt>
      <trkpt lat="39.1452390" lon="-1.6088110">
        <ele>650.2</ele>
        <time>2019-05-12T10:06:11Z</time>
      </trkpt>
      <trkpt lat="39.1452150" lon="-1.6087680">
        <ele>649.4</ele>
        <time>2019-05-12T10:06:12Z</time>
      </trkpt>
      <trkpt lat="39.1451870" lon="-1.6087270">
        <ele>649.2</ele>
        <time>2019-05-12T10:06:13Z</time>
      </trkpt>
      <trkpt lat="39.1451640" lon="-1.6086830">
        <ele>648.8</ele>
        <time>2019-05-12T10:06:14Z</time>
      </trkpt>
      <trkpt lat="39.1451480" lon="-1.6086390">
        <ele>648.4</ele>
        <time>2019-05-12T10:06:15Z</time>
      </trkpt>
      <trkpt lat="39.1451320" lon="-1.6085990">
        <ele>648.2</ele>
        <time>2019-05-12T10:06:16Z</time>
      </trkpt>
      <trkpt lat="39.1451160" lon="-1.6085640">
        <ele>648.2</ele>
        <time>2019-05-12T10:06:17Z</time>
      </trkpt>
      <trkpt lat="39.1451110" lon="-1.6085230">
        <ele>648.2</ele>
        <time>2019-05-12T10:06:18Z</time>
      </trkpt>
      <trkpt lat="39.1451140" lon="-1.6084880">
        <ele>648.2</ele>
        <time>2019-05-12T10:06:19Z</time>
      </trkpt>
      <trkpt lat="39.1451210" lon="-1.6084500">
        <ele>648.2</ele>
        <time>2019-05-12T10:06:20Z</time>
      </trkpt>
      <trkpt lat="39.1451340" lon="-1.6084160">
        <ele>648.0</ele>
        <time>2019-05-12T10:06:21Z</time>
      </trkpt>
      <trkpt lat="39.1451530" lon="-1.6083890">
        <ele>648.0</ele>
        <time>2019-05-12T10:06:22Z</time>
      </trkpt>
      <trkpt lat="39.1451670" lon="-1.6083620">
        <ele>648.0</ele>
        <time>2019-05-12T10:06:23Z</time>
      </trkpt>
      <trkpt lat="39.1451710" lon="-1.6083280">
        <ele>648.0</ele>
        <time>2019-05-12T10:06:24Z</time>
      </trkpt>
      <trkpt lat="39.1451680" lon="-1.6082910">
        <ele>648.2</ele>
        <time>2019-05-12T10:06:25Z</time>
      </trkpt>
      <trkpt lat="39.1451650" lon="-1.6082540">
        <ele>648.4</ele>
        <time>2019-05-12T10:06:26Z</time>
      </trkpt>
      <trkpt lat="39.1451630" lon="-1.6082250">
        <ele>648.6</ele>
        <time>2019-05-12T10:06:27Z</time>
      </trkpt>
      <trkpt lat="39.1451630" lon="-1.6081970">
        <ele>648.8</ele>
        <time>2019-05-12T10:06:28Z</time>
      </trkpt>
      <trkpt lat="39.1451640" lon="-1.6081680">
        <ele>649.2</ele>
        <time>2019-05-12T10:06:29Z</time>
      </trkpt>
      <trkpt lat="39.1451660" lon="-1.6081370">
        <ele>649.6</ele>
        <time>2019-05-12T10:06:30Z</time>
      </trkpt>
      <trkpt lat="39.1451670" lon="-1.6081100">
        <ele>650.0</ele>
        <time>2019-05-12T10:06:31Z</time>
      </trkpt>
      <trkpt lat="39.1451700" lon="-1.6080820">
        <ele>650.4</ele>
        <time>2019-05-12T10:06:32Z</time>
      </trkpt>
      <trkpt lat="39.1451750" lon="-1.6080560">
        <ele>650.6</ele>
        <time>2019-05-12T10:06:33Z</time>
      </trkpt>
      <trkpt lat="39.1451860" lon="-1.6080310">
        <ele>651.2</ele>
        <time>2019-05-12T10:06:34Z</time>
      </trkpt>
      <trkpt lat="39.1452030" lon="-1.6080110">
        <ele>651.6</ele>
        <time>2019-05-12T10:06:35Z</time>
      </trkpt>
      <trkpt lat="39.1452240" lon="-1.6079920">
        <ele>652.0</ele>
        <time>2019-05-12T10:06:36Z</time>
      </trkpt>
      <trkpt lat="39.1452440" lon="-1.6079700">
        <ele>652.4</ele>
        <time>2019-05-12T10:06:37Z</time>
      </trkpt>
      <trkpt lat="39.1452570" lon="-1.6079430">
        <ele>652.6</ele>
        <time>2019-05-12T10:06:38Z</time>
      </trkpt>
      <trkpt lat="39.1452590" lon="-1.6079140">
        <ele>652.8</ele>
        <time>2019-05-12T10:06:39Z</time>
      </trkpt>
      <trkpt lat="39.1452470" lon="-1.6078890">
        <ele>653.2</ele>
        <time>2019-05-12T10:06:40Z</time>
      </trkpt>
      <trkpt lat="39.1452270" lon="-1.6078690">
        <ele>653.4</ele>
        <time>2019-05-12T10:06:41Z</time>
      </trkpt>
      <trkpt lat="39.1452070" lon="-1.6078550">
        <ele>653.8</ele>
        <time>2019-05-12T10:06:42Z</time>
      </trkpt>
      <trkpt lat="39.1451880" lon="-1.6078460">
        <ele>654.2</ele>
        <time>2019-05-12T10:06:43Z</time>
      </trkpt>
      <trkpt lat="39.1451680" lon="-1.6078370">
        <ele>654.4</ele>
        <time>2019-05-12T10:06:44Z</time>
      </trkpt>
      <trkpt lat="39.1451470" lon="-1.6078280">
        <ele>654.6</ele>
        <time>2019-05-12T10:06:45Z</time>
      </trkpt>
      <trkpt lat="39.1451250" lon="-1.6078180">
        <ele>654.8</ele>
        <time>2019-05-12T10:06:46Z</time>
      </trkpt>
      <trkpt lat="39.1451050" lon="-1.6078090">
        <ele>654.8</ele>
        <time>2019-05-12T10:06:47Z</time>
      </trkpt>
      <trkpt lat="39.1450840" lon="-1.6077970">
        <ele>655.0</ele>
        <time>2019-05-12T10:06:48Z</time>
      </trkpt>
      <trkpt lat="39.1450650" lon="-1.6077820">
        <ele>655.2</ele>
        <time>2019-05-12T10:06:49Z</time>
      </trkpt>
      <trkpt lat="39.1450450" lon="-1.6077680">
        <ele>655.6</ele>
        <time>2019-05-12T10:06:50Z</time>
      </trkpt>
      <trkpt lat="39.1450240" lon="-1.6077560">
        <ele>655.8</ele>
        <time>2019-05-12T10:06:51Z</time>
      </trkpt>
      <trkpt lat="39.1450030" lon="-1.6077430">
        <ele>656.2</ele>
        <time>2019-05-12T10:06:52Z</time>
      </trkpt>
      <trkpt lat="39.1449810" lon="-1.6077270">
        <ele>656.4</ele>
        <time>2019-05-12T10:06:53Z</time>
      </trkpt>
      <trkpt lat="39.1449580" lon="-1.6077080">
        <ele>656.6</ele>
        <time>2019-05-12T10:06:54Z</time>
      </trkpt>
      <trkpt lat="39.1449350" lon="-1.6076890">
        <ele>656.8</ele>
        <time>2019-05-12T10:06:55Z</time>
      </trkpt>
      <trkpt lat="39.1449110" lon="-1.6076690">
        <ele>657.0</ele>
        <time>2019-05-12T10:06:56Z</time>
      </trkpt>
      <trkpt lat="39.1448860" lon="-1.6076480">
        <ele>657.2</ele>
        <time>2019-05-12T10:06:57Z</time>
      </trkpt>
      <trkpt lat="39.1448600" lon="-1.6076260">
        <ele>657.6</ele>
        <time>2019-05-12T10:06:58Z</time>
      </trkpt>
      <trkpt lat="39.1448310" lon="-1.6076020">
        <ele>658.0</ele>
        <time>2019-05-12T10:06:59Z</time>
      </trkpt>
      <trkpt lat="39.1447990" lon="-1.6075800">
        <ele>658.2</ele>
        <time>2019-05-12T10:07:00Z</time>
      </trkpt>
      <trkpt lat="39.1447630" lon="-1.6075640">
        <ele>658.4</ele>
        <time>2019-05-12T10:07:01Z</time>
      </trkpt>
      <trkpt lat="39.1447240" lon="-1.6075530">
        <ele>658.4</ele>
        <time>2019-05-12T10:07:02Z</time>
      </trkpt>
      <trkpt lat="39.1446850" lon="-1.6075350">
        <ele>658.4</ele>
        <time>2019-05-12T10:07:03Z</time>
      </trkpt>
      <trkpt lat="39.1446460" lon="-1.6075120">
        <ele>658.4</ele>
        <time>2019-05-12T10:07:04Z</time>
      </trkpt>
      <trkpt lat="39.1446100" lon="-1.6074910">
        <ele>658.4</ele>
        <time>2019-05-12T10:07:05Z</time>
      </trkpt>
      <trkpt lat="39.1445720" lon="-1.6074750">
        <ele>658.6</ele>
        <time>2019-05-12T10:07:06Z</time>
      </trkpt>
      <trkpt lat="39.1445380" lon="-1.6074540">
        <ele>658.6</ele>
        <time>2019-05-12T10:07:07Z</time>
      </trkpt>
      <trkpt lat="39.1445080" lon="-1.6074240">
        <ele>658.6</ele>
        <time>2019-05-12T10:07:08Z</time>
      </trkpt>
      <trkpt lat="39.1444850" lon="-1.6073920">
        <ele>658.6</ele>
        <time>2019-05-12T10:07:09Z</time>
      </trkpt>
      <trkpt lat="39.1444710" lon="-1.6073650">
        <ele>658.4</ele>
        <time>2019-05-12T10:07:10Z</time>
      </trkpt>
      <trkpt lat="39.1444660" lon="-1.6073420">
        <ele>658.2</ele>
        <time>2019-05-12T10:07:11Z</time>
      </trkpt>
      <trkpt lat="39.1444650" lon="-1.6073260">
        <ele>658.0</ele>
        <time>2019-05-12T10:07:12Z</time>
      </trkpt>
      <trkpt lat="39.1444660" lon="-1.6073140">
        <ele>658.0</ele>
        <time>2019-05-12T10:07:13Z</time>
      </trkpt>
      <trkpt lat="39.1444660" lon="-1.6073140">
        <ele>657.8</ele>
        <time>2019-05-12T10:07:14Z</time>
      </trkpt>
      <trkpt lat="39.1444660" lon="-1.6073010">
        <ele>657.8</ele>
        <time>2019-05-12T10:07:15Z</time>
      </trkpt>
      <trkpt lat="39.1444690" lon="-1.6072860">
        <ele>657.8</ele>
        <time>2019-05-12T10:07:16Z</time>
      </trkpt>
      <trkpt lat="39.1444750" lon="-1.6072450">
        <ele>657.8</ele>
        <time>2019-05-12T10:07:17Z</time>
      </trkpt>
      <trkpt lat="39.1444800" lon="-1.6072250">
        <ele>657.8</ele>
        <time>2019-05-12T10:07:18Z</time>
      </trkpt>
      <trkpt lat="39.1444860" lon="-1.6072080">
        <ele>657.8</ele>
        <time>2019-05-12T10:07:19Z</time>
      </trkpt>
      <trkpt lat="39.1444960" lon="-1.6071990">
        <ele>657.8</ele>
        <time>2019-05-12T10:07:20Z</time>
      </trkpt>
      <trkpt lat="39.1445030" lon="-1.6071970">
        <ele>657.8</ele>
        <time>2019-05-12T10:07:21Z</time>
      </trkpt>
      <trkpt lat="39.1445040" lon="-1.6071950">
        <ele>657.8</ele>
        <time>2019-05-12T10:07:22Z</time>
      </trkpt>
      <trkpt lat="39.1445040" lon="-1.6071940">
        <ele>657.8</ele>
        <time>2019-05-12T10:07:23Z</time>
      </trkpt>
      <trkpt lat="39.1445080" lon="-1.6071920">
        <ele>657.8</ele>
        <time>2019-05-12T10:07:24Z</time>
      </trkpt>
      <trkpt lat="39.1445180" lon="-1.6071930">
        <ele>658.0</ele>
        <time>2019-05-12T10:07:25Z</time>
      </trkpt>
      <trkpt lat="39.1445180" lon="-1.6071930">
        <ele>658.2</ele>
        <time>2019-05-12T10:07:26Z</time>
      </trkpt>
      <trkpt lat="39.1445500" lon="-1.6072090">
        <ele>658.2</ele>
        <time>2019-05-12T10:07:27Z</time>
      </trkpt>
      <trkpt lat="39.1445680" lon="-1.6072190">
        <ele>658.4</ele>
        <time>2019-05-12T10:07:28Z</time>
      </trkpt>
      <trkpt lat="39.1445880" lon="-1.6072240">
        <ele>658.6</ele>
        <time>2019-05-12T10:07:29Z</time>
      </trkpt>
      <trkpt lat="39.1446080" lon="-1.6072300">
        <ele>658.6</ele>
        <time>2019-05-12T10:07:30Z</time>
      </trkpt>
      <trkpt lat="39.1446300" lon="-1.6072310">
        <ele>658.6</ele>
        <time>2019-05-12T10:07:31Z</time>
      </trkpt>
      <trkpt lat="39.1446520" lon="-1.6072300">
        <ele>658.6</ele>
        <time>2019-05-12T10:07:32Z</time>
      </trkpt>
      <trkpt lat="39.1446750" lon="-1.6072270">
        <ele>658.6</ele>
        <time>2019-05-12T10:07:33Z</time>
      </trkpt>
      <trkpt lat="39.1446930" lon="-1.6072280">
        <ele>658.8</ele>
        <time>2019-05-12T10:07:34Z</time>
      </trkpt>
      <trkpt lat="39.1447090" lon="-1.6072360">
        <ele>658.8</ele>
        <time>2019-05-12T10:07:35Z</time>
      </trkpt>
      <trkpt lat="39.1447280" lon="-1.6072500">
        <ele>658.8</ele>
        <time>2019-05-12T10:07:36Z</time>
      </trkpt>
      <trkpt lat="39.1447510" lon="-1.6072620">
        <ele>659.0</ele>
        <time>2019-05-12T10:07:37Z</time>
      </trkpt>
      <trkpt lat="39.1447770" lon="-1.6072690">
        <ele>659.2</ele>
        <time>2019-05-12T10:07:38Z</time>
      </trkpt>
      <trkpt lat="39.1448030" lon="-1.6072760">
        <ele>659.4</ele>
        <time>2019-05-12T10:07:39Z</time>
      </trkpt>
      <trkpt lat="39.1448340" lon="-1.6072770">
        <ele>659.6</ele>
        <time>2019-05-12T10:07:40Z</time>
      </trkpt>
      <trkpt lat="39.1448630" lon="-1.6072690">
        <ele>660.0</ele>
        <time>2019-05-12T10:07:41Z</time>
      </trkpt>
      <trkpt lat="39.1448880" lon="-1.6072510">
        <ele>660.2</ele>
        <time>2019-05-12T10:07:42Z</time>
      </trkpt>
      <trkpt lat="39.1449120" lon="-1.6072320">
        <ele>660.8</ele>
        <time>2019-05-12T10:07:43Z</time>
      </trkpt>
      <trkpt lat="39.1449350" lon="-1.6072180">
        <ele>660.8</ele>
        <time>2019-05-12T10:07:44Z</time>
      </trkpt>
      <trkpt lat="39.1449550" lon="-1.6072020">
        <ele>661.0</ele>
        <time>2019-05-12T10:07:45Z</time>
      </trkpt>
      <trkpt lat="39.1449730" lon="-1.6071830">
        <ele>661.0</ele>
        <time>2019-05-12T10:07:46Z</time>
      </trkpt>
      <trkpt lat="39.1449890" lon="-1.6071650">
        <ele>661.2</ele>
        <time>2019-05-12T10:07:47Z</time>
      </trkpt>
      <trkpt lat="39.1450030" lon="-1.6071450">
        <ele>661.4</ele>
        <time>2019-05-12T10:07:48Z</time>
      </trkpt>
      <trkpt lat="39.1450170" lon="-1.6071260">
        <ele>661.6</ele>
        <time>2019-05-12T10:07:49Z</time>
      </trkpt>
      <trkpt lat="39.1450330" lon="-1.6071090">
        <ele>661.8</ele>
        <time>2019-05-12T10:07:50Z</time>
      </trkpt>
      <trkpt lat="39.1450500" lon="-1.6070890">
        <ele>662.0</ele>
        <time>2019-05-12T10:07:51Z</time>
      </trkpt>
      <trkpt lat="39.1450650" lon="-1.6070650">
        <ele>662.4</ele>
        <time>2019-05-12T10:07:52Z</time>
      </trkpt>
      <trkpt lat="39.1450770" lon="-1.6070400">
        <ele>662.6</ele>
        <time>2019-05-12T10:07:53Z</time>
      </trkpt>
      <trkpt lat="39.1450950" lon="-1.6070190">
        <ele>662.8</ele>
        <time>2019-05-12T10:07:54Z</time>
      </trkpt>
      <trkpt lat="39.1451160" lon="-1.6069950">
        <ele>663.2</ele>
        <time>2019-05-12T10:07:55Z</time>
      </trkpt>
      <trkpt lat="39.1451360" lon="-1.6069710">
        <ele>663.6</ele>
        <time>2019-05-12T10:07:56Z</time>
      </trkpt>
      <trkpt lat="39.1451580" lon="-1.6069450">
        <ele>663.8</ele>
        <time>2019-05-12T10:07:57Z</time>
      </trkpt>
      <trkpt lat="39.1451770" lon="-1.6069170">
        <ele>664.0</ele>
        <time>2019-05-12T10:07:58Z</time>
      </trkpt>
      <trkpt lat="39.1451860" lon="-1.6068840">
        <ele>664.2</ele>
        <time>2019-05-12T10:07:59Z</time>
      </trkpt>
      <trkpt lat="39.1451870" lon="-1.6068490">
        <ele>664.6</ele>
        <time>2019-05-12T10:08:00Z</time>
      </trkpt>
      <trkpt lat="39.1451890" lon="-1.6068140">
        <ele>664.6</ele>
        <time>2019-05-12T10:08:01Z</time>
      </trkpt>
      <trkpt lat="39.1451970" lon="-1.6067770">
        <ele>664.8</ele>
        <time>2019-05-12T10:08:02Z</time>
      </trkpt>
      <trkpt lat="39.1452070" lon="-1.6067370">
        <ele>665.0</ele>
        <time>2019-05-12T10:08:03Z</time>
      </trkpt>
      <trkpt lat="39.1452160" lon="-1.6066950">
        <ele>665.0</ele>
        <time>2019-05-12T10:08:04Z</time>
      </trkpt>
      <trkpt lat="39.1452250" lon="-1.6066470">
        <ele>665.2</ele>
        <time>2019-05-12T10:08:05Z</time>
      </trkpt>
      <trkpt lat="39.1452310" lon="-1.6065960">
        <ele>665.2</ele>
        <time>2019-05-12T10:08:06Z</time>
      </trkpt>
      <trkpt lat="39.1452390" lon="-1.6065400">
        <ele>665.2</ele>
        <time>2019-05-12T10:08:07Z</time>
      </trkpt>
      <trkpt lat="39.1452510" lon="-1.6064840">
        <ele>665.2</ele>
        <time>2019-05-12T10:08:08Z</time>
      </trkpt>
      <trkpt lat="39.1452710" lon="-1.6064320">
        <ele>665.2</ele>
        <time>2019-05-12T10:08:09Z</time>
      </trkpt>
      <trkpt lat="39.1452990" lon="-1.6063830">
        <ele>665.2</ele>
        <time>2019-05-12T10:08:10Z</time>
      </trkpt>
      <trkpt lat="39.1453280" lon="-1.6063330">
        <ele>665.2</ele>
        <time>2019-05-12T10:08:11Z</time>
      </trkpt>
      <trkpt lat="39.1453590" lon="-1.6062870">
        <ele>665.2</ele>
        <time>2019-05-12T10:08:12Z</time>
      </trkpt>
      <trkpt lat="39.1453990" lon="-1.6062500">
        <ele>665.2</ele>
        <time>2019-05-12T10:08:13Z</time>
      </trkpt>
      <trkpt lat="39.1454430" lon="-1.6062150">
        <ele>665.2</ele>
        <time>2019-05-12T10:08:14Z</time>
      </trkpt>
      <trkpt lat="39.1454850" lon="-1.6061700">
        <ele>665.2</ele>
        <time>2019-05-12T10:08:15Z</time>
      </trkpt>
      <trkpt lat="39.1455200" lon="-1.6061060">
        <ele>664.8</ele>
        <time>2019-05-12T10:08:16Z</time>
      </trkpt>
      <trkpt lat="39.1455450" lon="-1.6060300">
        <ele>664.2</ele>
        <time>2019-05-12T10:08:17Z</time>
      </trkpt>
      <trkpt lat="39.1455660" lon="-1.6059560">
        <ele>663.6</ele>
        <time>2019-05-12T10:08:18Z</time>
      </trkpt>
      <trkpt lat="39.1455820" lon="-1.6058900">
        <ele>663.2</ele>
        <time>2019-05-12T10:08:19Z</time>
      </trkpt>
      <trkpt lat="39.1456010" lon="-1.6058340">
        <ele>662.6</ele>
        <time>2019-05-12T10:08:20Z</time>
      </trkpt>
      <trkpt lat="39.1456250" lon="-1.6058010">
        <ele>662.0</ele>
        <time>2019-05-12T10:08:21Z</time>
      </trkpt>
      <trkpt lat="39.1456530" lon="-1.6057990">
        <ele>661.6</ele>
        <time>2019-05-12T10:08:22Z</time>
      </trkpt>
      <trkpt lat="39.1456810" lon="-1.6058070">
        <ele>661.0</ele>
        <time>2019-05-12T10:08:23Z</time>
      </trkpt>
      <trkpt lat="39.1457070" lon="-1.6058100">
        <ele>660.8</ele>
        <time>2019-05-12T10:08:24Z</time>
      </trkpt>
      <trkpt lat="39.1457350" lon="-1.6058110">
        <ele>660.6</ele>
        <time>2019-05-12T10:08:25Z</time>
      </trkpt>
      <trkpt lat="39.1457620" lon="-1.6058130">
        <ele>660.6</ele>
        <time>2019-05-12T10:08:26Z</time>
      </trkpt>
      <trkpt lat="39.1457870" lon="-1.6058180">
        <ele>660.6</ele>
        <time>2019-05-12T10:08:27Z</time>
      </trkpt>
      <trkpt lat="39.1458120" lon="-1.6058210">
        <ele>660.6</ele>
        <time>2019-05-12T10:08:28Z</time>
      </trkpt>
      <trkpt lat="39.1458370" lon="-1.6058190">
        <ele>660.6</ele>
        <time>2019-05-12T10:08:29Z</time>
      </trkpt>
      <trkpt lat="39.1458630" lon="-1.6058160">
        <ele>660.6</ele>
        <time>2019-05-12T10:08:30Z</time>
      </trkpt>
      <trkpt lat="39.1458870" lon="-1.6058160">
        <ele>660.6</ele>
        <time>2019-05-12T10:08:31Z</time>
      </trkpt>
      <trkpt lat="39.1459130" lon="-1.6058220">
        <ele>660.6</ele>
        <time>2019-05-12T10:08:32Z</time>
      </trkpt>
      <trkpt lat="39.1459370" lon="-1.6058330">
        <ele>660.8</ele>
        <time>2019-05-12T10:08:33Z</time>
      </trkpt>
      <trkpt lat="39.1459600" lon="-1.6058480">
        <ele>661.4</ele>
        <time>2019-05-12T10:08:34Z</time>
      </trkpt>
      <trkpt lat="39.1459830" lon="-1.6058640">
        <ele>661.8</ele>
        <time>2019-05-12T10:08:35Z</time>
      </trkpt>
      <trkpt lat="39.1460050" lon="-1.6058800">
        <ele>662.4</ele>
        <time>2019-05-12T10:08:36Z</time>
      </trkpt>
      <trkpt lat="39.1460280" lon="-1.6058960">
        <ele>662.8</ele>
        <time>2019-05-12T10:08:37Z</time>
      </trkpt>
      <trkpt lat="39.1460520" lon="-1.6059090">
        <ele>663.4</ele>
        <time>2019-05-12T10:08:38Z</time>
      </trkpt>
      <trkpt lat="39.1460740" lon="-1.6059130">
        <ele>663.8</ele>
        <time>2019-05-12T10:08:39Z</time>
      </trkpt>
      <trkpt lat="39.1460960" lon="-1.6059070">
        <ele>664.2</ele>
        <time>2019-05-12T10:08:40Z</time>
      </trkpt>
      <trkpt lat="39.1461190" lon="-1.6059020">
        <ele>664.6</ele>
        <time>2019-05-12T10:08:41Z</time>
      </trkpt>
      <trkpt lat="39.1461420" lon="-1.6059020">
        <ele>665.0</ele>
        <time>2019-05-12T10:08:42Z</time>
      </trkpt>
      <trkpt lat="39.1461650" lon="-1.6059020">
        <ele>665.4</ele>
        <time>2019-05-12T10:08:43Z</time>
      </trkpt>
      <trkpt lat="39.1461870" lon="-1.6059000">
        <ele>665.8</ele>
        <time>2019-05-12T10:08:44Z</time>
      </trkpt>
      <trkpt lat="39.1462080" lon="-1.6059040">
        <ele>666.0</ele>
        <time>2019-05-12T10:08:45Z</time>
      </trkpt>
      <trkpt lat="39.1462300" lon="-1.6059170">
        <ele>666.2</ele>
        <time>2019-05-12T10:08:46Z</time>
      </trkpt>
      <trkpt lat="39.1462550" lon="-1.6059320">
        <ele>666.4</ele>
        <time>2019-05-12T10:08:47Z</time>
      </trkpt>
      <trkpt lat="39.1462840" lon="-1.6059440">
        <ele>666.8</ele>
        <time>2019-05-12T10:08:48Z</time>
      </trkpt>
      <trkpt lat="39.1463170" lon="-1.6059530">
        <ele>667.0</ele>
        <time>2019-05-12T10:08:49Z</time>
      </trkpt>
      <trkpt lat="39.1463520" lon="-1.6059620">
        <ele>667.0</ele>
        <time>2019-05-12T10:08:50Z</time>
      </trkpt>
      <trkpt lat="39.1463840" lon="-1.6059830">
        <ele>667.2</ele>
        <time>2019-05-12T10:08:51Z</time>
      </trkpt>
      <trkpt lat="39.1464090" lon="-1.6060170">
        <ele>667.2</ele>
        <time>2019-05-12T10:08:52Z</time>
      </trkpt>
      <trkpt lat="39.1464350" lon="-1.6060490">
        <ele>667.2</ele>
        <time>2019-05-12T10:08:53Z</time>
      </trkpt>
      <trkpt lat="39.1464680" lon="-1.6060680">
        <ele>667.2</ele>
        <time>2019-05-12T10:08:54Z</time>
      </trkpt>
      <trkpt lat="39.1465030" lon="-1.6060850">
        <ele>667.2</ele>
        <time>2019-05-12T10:08:55Z</time>
      </trkpt>
      <trkpt lat="39.1465380" lon="-1.6061030">
        <ele>667.2</ele>
        <time>2019-05-12T10:08:56Z</time>
      </trkpt>
      <trkpt lat="39.1465740" lon="-1.6061230">
        <ele>667.2</ele>
        <time>2019-05-12T10:08:57Z</time>
      </trkpt>
      <trkpt lat="39.1466060" lon="-1.6061460">
        <ele>667.2</ele>
        <time>2019-05-12T10:08:58Z</time>
      </trkpt>
      <trkpt lat="39.1466370" lon="-1.6061690">
        <ele>667.2</ele>
        <time>2019-05-12T10:08:59Z</time>
      </trkpt>
      <trkpt lat="39.1466660" lon="-1.6061930">
        <ele>667.0</ele>
        <time>2019-05-12T10:09:00Z</time>
      </trkpt>
      <trkpt lat="39.1466900" lon="-1.6062220">
        <ele>666.8</ele>
        <time>2019-05-12T10:09:01Z</time>
      </trkpt>
      <trkpt lat="39.1467110" lon="-1.6062550">
        <ele>666.8</ele>
        <time>2019-05-12T10:09:02Z</time>
      </trkpt>
      <trkpt lat="39.1467320" lon="-1.6062880">
        <ele>666.8</ele>
        <time>2019-05-12T10:09:03Z</time>
      </trkpt>
      <trkpt lat="39.1467520" lon="-1.6063220">
        <ele>666.8</ele>
        <time>2019-05-12T10:09:04Z</time>
      </trkpt>
      <trkpt lat="39.1467790" lon="-1.6063460">
        <ele>666.8</ele>
        <time>2019-05-12T10:09:05Z</time>
      </trkpt>
      <trkpt lat="39.1468100" lon="-1.6063540">
        <ele>666.8</ele>
        <time>2019-05-12T10:09:06Z</time>
      </trkpt>
      <trkpt lat="39.1468420" lon="-1.6063450">
        <ele>666.8</ele>
        <time>2019-05-12T10:09:07Z</time>
      </trkpt>
      <trkpt lat="39.1468770" lon="-1.6063250">
        <ele>666.8</ele>
        <time>2019-05-12T10:09:08Z</time>
      </trkpt>
      <trkpt lat="39.1469170" lon="-1.6063060">
        <ele>666.8</ele>
        <time>2019-05-12T10:09:09Z</time>
      </trkpt>
      <trkpt lat="39.1469590" lon="-1.6062920">
        <ele>666.8</ele>
        <time>2019-05-12T10:09:10Z</time>
      </trkpt>
      <trkpt lat="39.1470000" lon="-1.6062920">
        <ele>666.6</ele>
        <time>2019-05-12T10:09:11Z</time>
      </trkpt>
      <trkpt lat="39.1470270" lon="-1.6063140">
        <ele>666.6</ele>
        <time>2019-05-12T10:09:12Z</time>
      </trkpt>
      <trkpt lat="39.1470380" lon="-1.6063510">
        <ele>666.6</ele>
        <time>2019-05-12T10:09:13Z</time>
      </trkpt>
      <trkpt lat="39.1470430" lon="-1.6063900">
        <ele>666.6</ele>
        <time>2019-05-12T10:09:14Z</time>
      </trkpt>
      <trkpt lat="39.1470480" lon="-1.6064290">
        <ele>666.6</ele>
        <time>2019-05-12T10:09:15Z</time>
      </trkpt>
      <trkpt lat="39.1470560" lon="-1.6064710">
        <ele>666.6</ele>
        <time>2019-05-12T10:09:16Z</time>
      </trkpt>
      <trkpt lat="39.1470730" lon="-1.6065090">
        <ele>666.6</ele>
        <time>2019-05-12T10:09:17Z</time>
      </trkpt>
      <trkpt lat="39.1470960" lon="-1.6065380">
        <ele>666.4</ele>
        <time>2019-05-12T10:09:18Z</time>
      </trkpt>
      <trkpt lat="39.1471240" lon="-1.6065580">
        <ele>666.0</ele>
        <time>2019-05-12T10:09:19Z</time>
      </trkpt>
      <trkpt lat="39.1471540" lon="-1.6065710">
        <ele>665.6</ele>
        <time>2019-05-12T10:09:20Z</time>
      </trkpt>
      <trkpt lat="39.1471860" lon="-1.6065810">
        <ele>665.4</ele>
        <time>2019-05-12T10:09:21Z</time>
      </trkpt>
      <trkpt lat="39.1472200" lon="-1.6065910">
        <ele>665.2</ele>
        <time>2019-05-12T10:09:22Z</time>
      </trkpt>
      <trkpt lat="39.1472550" lon="-1.6066040">
        <ele>665.2</ele>
        <time>2019-05-12T10:09:23Z</time>
      </trkpt>
      <trkpt lat="39.1472920" lon="-1.6066170">
        <ele>665.2</ele>
        <time>2019-05-12T10:09:24Z</time>
      </trkpt>
      <trkpt lat="39.1473290" lon="-1.6066220">
        <ele>665.2</ele>
        <time>2019-05-12T10:09:25Z</time>
      </trkpt>
      <trkpt lat="39.1473660" lon="-1.6066180">
        <ele>665.2</ele>
        <time>2019-05-12T10:09:26Z</time>
      </trkpt>
      <trkpt lat="39.1474050" lon="-1.6066100">
        <ele>665.0</ele>
        <time>2019-05-12T10:09:27Z</time>
      </trkpt>
      <trkpt lat="39.1474450" lon="-1.6066010">
        <ele>665.0</ele>
        <time>2019-05-12T10:09:28Z</time>
      </trkpt>
      <trkpt lat="39.1474830" lon="-1.6065850">
        <ele>665.0</ele>
        <time>2019-05-12T10:09:29Z</time>
      </trkpt>
      <trkpt lat="39.1475190" lon="-1.6065650">
        <ele>665.0</ele>
        <time>2019-05-12T10:09:30Z</time>
      </trkpt>
      <trkpt lat="39.1475510" lon="-1.6065420">
        <ele>665.0</ele>
        <time>2019-05-12T10:09:31Z</time>
      </trkpt>
      <trkpt lat="39.1475820" lon="-1.6065150">
        <ele>665.0</ele>
        <time>2019-05-12T10:09:32Z</time>
      </trkpt>
      <trkpt lat="39.1476110" lon="-1.6064840">
        <ele>665.0</ele>
        <time>2019-05-12T10:09:33Z</time>
      </trkpt>
      <trkpt lat="39.1476380" lon="-1.6064540">
        <ele>665.0</ele>
        <time>2019-05-12T10:09:34Z</time>
      </trkpt>
      <trkpt lat="39.1476630" lon="-1.6064250">
        <ele>665.2</ele>
        <time>2019-05-12T10:09:35Z</time>
      </trkpt>
      <trkpt lat="39.1476870" lon="-1.6063930">
        <ele>665.2</ele>
        <time>2019-05-12T10:09:36Z</time>
      </trkpt>
      <trkpt lat="39.1477130" lon="-1.6063680">
        <ele>665.2</ele>
        <time>2019-05-12T10:09:37Z</time>
      </trkpt>
      <trkpt lat="39.1477410" lon="-1.6063560">
        <ele>665.2</ele>
        <time>2019-05-12T10:09:38Z</time>
      </trkpt>
      <trkpt lat="39.1477710" lon="-1.6063510">
        <ele>665.2</ele>
        <time>2019-05-12T10:09:39Z</time>
      </trkpt>
      <trkpt lat="39.1478000" lon="-1.6063490">
        <ele>665.2</ele>
        <time>2019-05-12T10:09:40Z</time>
      </trkpt>
      <trkpt lat="39.1478290" lon="-1.6063470">
        <ele>665.2</ele>
        <time>2019-05-12T10:09:41Z</time>
      </trkpt>
      <trkpt lat="39.1478570" lon="-1.6063470">
        <ele>665.2</ele>
        <time>2019-05-12T10:09:42Z</time>
      </trkpt>
      <trkpt lat="39.1478860" lon="-1.6063500">
        <ele>665.2</ele>
        <time>2019-05-12T10:09:43Z</time>
      </trkpt>
      <trkpt lat="39.1479130" lon="-1.6063480">
        <ele>665.4</ele>
        <time>2019-05-12T10:09:44Z</time>
      </trkpt>
      <trkpt lat="39.1479410" lon="-1.6063380">
        <ele>665.8</ele>
        <time>2019-05-12T10:09:45Z</time>
      </trkpt>
      <trkpt lat="39.1479680" lon="-1.6063270">
        <ele>666.0</ele>
        <time>2019-05-12T10:09:46Z</time>
      </trkpt>
      <trkpt lat="39.1479970" lon="-1.6063190">
        <ele>666.2</ele>
        <time>2019-05-12T10:09:47Z</time>
      </trkpt>
      <trkpt lat="39.1480260" lon="-1.6063180">
        <ele>666.4</ele>
        <time>2019-05-12T10:09:48Z</time>
      </trkpt>
      <trkpt lat="39.1480530" lon="-1.6063200">
        <ele>666.6</ele>
        <time>2019-05-12T10:09:49Z</time>
      </trkpt>
      <trkpt lat="39.1480760" lon="-1.6063250">
        <ele>666.6</ele>
        <time>2019-05-12T10:09:50Z</time>
      </trkpt>
      <trkpt lat="39.1480920" lon="-1.6063360">
        <ele>667.0</ele>
        <time>2019-05-12T10:09:51Z</time>
      </trkpt>
      <trkpt lat="39.1481070" lon="-1.6063520">
        <ele>667.0</ele>
        <time>2019-05-12T10:09:52Z</time>
      </trkpt>
      <trkpt lat="39.1481220" lon="-1.6063750">
        <ele>667.0</ele>
        <time>2019-05-12T10:09:53Z</time>
      </trkpt>
      <trkpt lat="39.1481360" lon="-1.6064040">
        <ele>667.0</ele>
        <time>2019-05-12T10:09:54Z</time>
      </trkpt>
      <trkpt lat="39.1481490" lon="-1.6064410">
        <ele>667.0</ele>
        <time>2019-05-12T10:09:55Z</time>
      </trkpt>
      <trkpt lat="39.1481580" lon="-1.6064830">
        <ele>667.0</ele>
        <time>2019-05-12T10:09:56Z</time>
      </trkpt>
      <trkpt lat="39.1481630" lon="-1.6065290">
        <ele>667.2</ele>
        <time>2019-05-12T10:09:57Z</time>
      </trkpt>
      <trkpt lat="39.1481670" lon="-1.6065780">
        <ele>667.2</ele>
        <time>2019-05-12T10:09:58Z</time>
      </trkpt>
      <trkpt lat="39.1481730" lon="-1.6066310">
        <ele>667.0</ele>
        <time>2019-05-12T10:09:59Z</time>
      </trkpt>
      <trkpt lat="39.1481810" lon="-1.6066840">
        <ele>667.0</ele>
        <time>2019-05-12T10:10:00Z</time>
      </trkpt>
      <trkpt lat="39.1481890" lon="-1.6067350">
        <ele>667.2</ele>
        <time>2019-05-12T10:10:01Z</time>
      </trkpt>
      <trkpt lat="39.1481900" lon="-1.6067840">
        <ele>667.4</ele>
        <time>2019-05-12T10:10:02Z</time>
      </trkpt>
      <trkpt lat="39.1481920" lon="-1.6068320">
        <ele>667.4</ele>
        <time>2019-05-12T10:10:03Z</time>
      </trkpt>
      <trkpt lat="39.1482050" lon="-1.6068760">
        <ele>667.4</ele>
        <time>2019-05-12T10:10:04Z</time>
      </trkpt>
      <trkpt lat="39.1482190" lon="-1.6069210">
        <ele>667.4</ele>
        <time>2019-05-12T10:10:05Z</time>
      </trkpt>
      <trkpt lat="39.1482250" lon="-1.6069690">
        <ele>667.4</ele>
        <time>2019-05-12T10:10:06Z</time>
      </trkpt>
      <trkpt lat="39.1482190" lon="-1.6070160">
        <ele>667.6</ele>
        <time>2019-05-12T10:10:07Z</time>
      </trkpt>
      <trkpt lat="39.1482110" lon="-1.6070640">
        <ele>667.6</ele>
        <time>2019-05-12T10:10:08Z</time>
      </trkpt>
      <trkpt lat="39.1482050" lon="-1.6071100">
        <ele>667.6</ele>
        <time>2019-05-12T10:10:09Z</time>
      </trkpt>
      <trkpt lat="39.1482000" lon="-1.6071580">
        <ele>667.6</ele>
        <time>2019-05-12T10:10:10Z</time>
      </trkpt>
      <trkpt lat="39.1482010" lon="-1.6072040">
        <ele>667.6</ele>
        <time>2019-05-12T10:10:11Z</time>
      </trkpt>
      <trkpt lat="39.1482090" lon="-1.6072510">
        <ele>667.6</ele>
        <time>2019-05-12T10:10:12Z</time>
      </trkpt>
      <trkpt lat="39.1482140" lon="-1.6073010">
        <ele>667.8</ele>
        <time>2019-05-12T10:10:13Z</time>
      </trkpt>
      <trkpt lat="39.1482170" lon="-1.6073520">
        <ele>667.8</ele>
        <time>2019-05-12T10:10:14Z</time>
      </trkpt>
      <trkpt lat="39.1482220" lon="-1.6073980">
        <ele>667.8</ele>
        <time>2019-05-12T10:10:15Z</time>
      </trkpt>
      <trkpt lat="39.1482270" lon="-1.6074440">
        <ele>667.8</ele>
        <time>2019-05-12T10:10:16Z</time>
      </trkpt>
      <trkpt lat="39.1482360" lon="-1.6074900">
        <ele>668.0</ele>
        <time>2019-05-12T10:10:17Z</time>
      </trkpt>
      <trkpt lat="39.1482490" lon="-1.6075350">
        <ele>668.2</ele>
        <time>2019-05-12T10:10:18Z</time>
      </trkpt>
      <trkpt lat="39.1482640" lon="-1.6075780">
        <ele>668.4</ele>
        <time>2019-05-12T10:10:19Z</time>
      </trkpt>
      <trkpt lat="39.1482830" lon="-1.6076200">
        <ele>668.6</ele>
        <time>2019-05-12T10:10:20Z</time>
      </trkpt>
      <trkpt lat="39.1483070" lon="-1.6076630">
        <ele>668.6</ele>
        <time>2019-05-12T10:10:21Z</time>
      </trkpt>
      <trkpt lat="39.1483320" lon="-1.6077080">
        <ele>668.8</ele>
        <time>2019-05-12T10:10:22Z</time>
      </trkpt>
      <trkpt lat="39.1483560" lon="-1.6077560">
        <ele>669.0</ele>
        <time>2019-05-12T10:10:23Z</time>
      </trkpt>
      <trkpt lat="39.1483810" lon="-1.6078040">
        <ele>669.0</ele>
        <time>2019-05-12T10:10:24Z</time>
      </trkpt>
      <trkpt lat="39.1484050" lon="-1.6078550">
        <ele>669.2</ele>
        <time>2019-05-12T10:10:25Z</time>
      </trkpt>
      <trkpt lat="39.1484250" lon="-1.6079120">
        <ele>669.2</ele>
        <time>2019-05-12T10:10:26Z</time>
      </trkpt>
      <trkpt lat="39.1484410" lon="-1.6079730">
        <ele>669.4</ele>
        <time>2019-05-12T10:10:27Z</time>
      </trkpt>
      <trkpt lat="39.1484550" lon="-1.6080350">
        <ele>669.4</ele>
        <time>2019-05-12T10:10:28Z</time>
      </trkpt>
      <trkpt lat="39.1484700" lon="-1.6080960">
        <ele>669.4</ele>
        <time>2019-05-12T10:10:29Z</time>
      </trkpt>
      <trkpt lat="39.1484870" lon="-1.6081550">
        <ele>669.4</ele>
        <time>2019-05-12T10:10:30Z</time>
      </trkpt>
      <trkpt lat="39.1485060" lon="-1.6082120">
        <ele>669.6</ele>
        <time>2019-05-12T10:10:31Z</time>
      </trkpt>
      <trkpt lat="39.1485220" lon="-1.6082650">
        <ele>669.6</ele>
        <time>2019-05-12T10:10:32Z</time>
      </trkpt>
      <trkpt lat="39.1485340" lon="-1.6083180">
        <ele>669.6</ele>
        <time>2019-05-12T10:10:33Z</time>
      </trkpt>
      <trkpt lat="39.1485480" lon="-1.6083700">
        <ele>669.6</ele>
        <time>2019-05-12T10:10:34Z</time>
      </trkpt>
      <trkpt lat="39.1485680" lon="-1.6084210">
        <ele>669.6</ele>
        <time>2019-05-12T10:10:35Z</time>
      </trkpt>
      <trkpt lat="39.1485970" lon="-1.6084690">
        <ele>669.6</ele>
        <time>2019-05-12T10:10:36Z</time>
      </trkpt>
      <trkpt lat="39.1486350" lon="-1.6085130">
        <ele>669.8</ele>
        <time>2019-05-12T10:10:37Z</time>
      </trkpt>
      <trkpt lat="39.1486810" lon="-1.6085530">
        <ele>669.8</ele>
        <time>2019-05-12T10:10:38Z</time>
      </trkpt>
      <trkpt lat="39.1487230" lon="-1.6085960">
        <ele>669.8</ele>
        <time>2019-05-12T10:10:39Z</time>
      </trkpt>
      <trkpt lat="39.1487660" lon="-1.6086340">
        <ele>669.6</ele>
        <time>2019-05-12T10:10:40Z</time>
      </trkpt>
      <trkpt lat="39.1488170" lon="-1.6086520">
        <ele>669.6</ele>
        <time>2019-05-12T10:10:41Z</time>
      </trkpt>
      <trkpt lat="39.1488670" lon="-1.6086560">
        <ele>669.6</ele>
        <time>2019-05-12T10:10:42Z</time>
      </trkpt>
      <trkpt lat="39.1489110" lon="-1.6086610">
        <ele>669.6</ele>
        <time>2019-05-12T10:10:43Z</time>
      </trkpt>
      <trkpt lat="39.1489530" lon="-1.6086780">
        <ele>669.6</ele>
        <time>2019-05-12T10:10:44Z</time>
      </trkpt>
      <trkpt lat="39.1489920" lon="-1.6087020">
        <ele>669.4</ele>
        <time>2019-05-12T10:10:45Z</time>
      </trkpt>
      <trkpt lat="39.1490230" lon="-1.6087290">
        <ele>669.4</ele>
        <time>2019-05-12T10:10:46Z</time>
      </trkpt>
      <trkpt lat="39.1490530" lon="-1.6087590">
        <ele>669.2</ele>
        <time>2019-05-12T10:10:47Z</time>
      </trkpt>
      <trkpt lat="39.1490840" lon="-1.6087780">
        <ele>668.8</ele>
        <time>2019-05-12T10:10:48Z</time>
      </trkpt>
      <trkpt lat="39.1491190" lon="-1.6087840">
        <ele>668.6</ele>
        <time>2019-05-12T10:10:49Z</time>
      </trkpt>
      <trkpt lat="39.1491560" lon="-1.6087760">
        <ele>668.4</ele>
        <time>2019-05-12T10:10:50Z</time>
      </trkpt>
      <trkpt lat="39.1491990" lon="-1.6087590">
        <ele>668.2</ele>
        <time>2019-05-12T10:10:51Z</time>
      </trkpt>
      <trkpt lat="39.1492350" lon="-1.6087250">
        <ele>668.2</ele>
        <time>2019-05-12T10:10:52Z</time>
      </trkpt>
      <trkpt lat="39.1492610" lon="-1.6086820">
        <ele>668.0</ele>
        <time>2019-05-12T10:10:53Z</time>
      </trkpt>
      <trkpt lat="39.1492730" lon="-1.6086430">
        <ele>668.0</ele>
        <time>2019-05-12T10:10:54Z</time>
      </trkpt>
      <trkpt lat="39.1492840" lon="-1.6086080">
        <ele>668.0</ele>
        <time>2019-05-12T10:10:55Z</time>
      </trkpt>
      <trkpt lat="39.1492930" lon="-1.6085760">
        <ele>667.8</ele>
        <time>2019-05-12T10:10:56Z</time>
      </trkpt>
      <trkpt lat="39.1492990" lon="-1.6085420">
        <ele>667.8</ele>
        <time>2019-05-12T10:10:57Z</time>
      </trkpt>
      <trkpt lat="39.1493030" lon="-1.6085110">
        <ele>667.6</ele>
        <time>2019-05-12T10:10:58Z</time>
      </trkpt>
      <trkpt lat="39.1493080" lon="-1.6084820">
        <ele>667.2</ele>
        <time>2019-05-12T10:10:59Z</time>
      </trkpt>
      <trkpt lat="39.1493110" lon="-1.6084540">
        <ele>667.0</ele>
        <time>2019-05-12T10:11:00Z</time>
      </trkpt>
      <trkpt lat="39.1493130" lon="-1.6084240">
        <ele>666.8</ele>
        <time>2019-05-12T10:11:01Z</time>
      </trkpt>
      <trkpt lat="39.1493180" lon="-1.6083920">
        <ele>666.8</ele>
        <time>2019-05-12T10:11:02Z</time>
      </trkpt>
      <trkpt lat="39.1493240" lon="-1.6083630">
        <ele>666.8</ele>
        <time>2019-05-12T10:11:03Z</time>
      </trkpt>
      <trkpt lat="39.1493330" lon="-1.6083390">
        <ele>666.8</ele>
        <time>2019-05-12T10:11:04Z</time>
      </trkpt>
      <trkpt lat="39.1493460" lon="-1.6083190">
        <ele>666.8</ele>
        <time>2019-05-12T10:11:05Z</time>
      </trkpt>
      <trkpt lat="39.1493630" lon="-1.6083040">
        <ele>666.8</ele>
        <time>2019-05-12T10:11:06Z</time>
      </trkpt>
      <trkpt lat="39.1493810" lon="-1.6082850">
        <ele>666.8</ele>
        <time>2019-05-12T10:11:07Z</time>
      </trkpt>
      <trkpt lat="39.1493920" lon="-1.6082600">
        <ele>666.8</ele>
        <time>2019-05-12T10:11:08Z</time>
      </trkpt>
      <trkpt lat="39.1493960" lon="-1.6082290">
        <ele>667.0</ele>
        <time>2019-05-12T10:11:09Z</time>
      </trkpt>
      <trkpt lat="39.1494010" lon="-1.6081980">
        <ele>667.2</ele>
        <time>2019-05-12T10:11:10Z</time>
      </trkpt>
      <trkpt lat="39.1494070" lon="-1.6081710">
        <ele>667.4</ele>
        <time>2019-05-12T10:11:11Z</time>
      </trkpt>
      <trkpt lat="39.1494110" lon="-1.6081470">
        <ele>668.0</ele>
        <time>2019-05-12T10:11:12Z</time>
      </trkpt>
      <trkpt lat="39.1494130" lon="-1.6081230">
        <ele>668.2</ele>
        <time>2019-05-12T10:11:13Z</time>
      </trkpt>
      <trkpt lat="39.1494160" lon="-1.6080950">
        <ele>668.4</ele>
        <time>2019-05-12T10:11:14Z</time>
      </trkpt>
      <trkpt lat="39.1494170" lon="-1.6080650">
        <ele>668.6</ele>
        <time>2019-05-12T10:11:15Z</time>
      </trkpt>
      <trkpt lat="39.1494200" lon="-1.6080340">
        <ele>668.8</ele>
        <time>2019-05-12T10:11:16Z</time>
      </trkpt>
      <trkpt lat="39.1494220" lon="-1.6080020">
        <ele>669.0</ele>
        <time>2019-05-12T10:11:17Z</time>
      </trkpt>
      <trkpt lat="39.1494240" lon="-1.6079700">
        <ele>669.2</ele>
        <time>2019-05-12T10:11:18Z</time>
      </trkpt>
      <trkpt lat="39.1494260" lon="-1.6079370">
        <ele>669.4</ele>
        <time>2019-05-12T10:11:19Z</time>
      </trkpt>
      <trkpt lat="39.1494260" lon="-1.6079060">
        <ele>669.6</ele>
        <time>2019-05-12T10:11:20Z</time>
      </trkpt>
      <trkpt lat="39.1494280" lon="-1.6078740">
        <ele>669.8</ele>
        <time>2019-05-12T10:11:21Z</time>
      </trkpt>
      <trkpt lat="39.1494300" lon="-1.6078420">
        <ele>670.0</ele>
        <time>2019-05-12T10:11:22Z</time>
      </trkpt>
      <trkpt lat="39.1494360" lon="-1.6078080">
        <ele>670.2</ele>
        <time>2019-05-12T10:11:23Z</time>
      </trkpt>
      <trkpt lat="39.1494450" lon="-1.6077740">
        <ele>670.4</ele>
        <time>2019-05-12T10:11:24Z</time>
      </trkpt>
      <trkpt lat="39.1494560" lon="-1.6077410">
        <ele>670.6</ele>
        <time>2019-05-12T10:11:25Z</time>
      </trkpt>
      <trkpt lat="39.1494700" lon="-1.6077080">
        <ele>670.8</ele>
        <time>2019-05-12T10:11:26Z</time>
      </trkpt>
      <trkpt lat="39.1494840" lon="-1.6076750">
        <ele>671.0</ele>
        <time>2019-05-12T10:11:27Z</time>
      </trkpt>
      <trkpt lat="39.1494980" lon="-1.6076400">
        <ele>671.2</ele>
        <time>2019-05-12T10:11:28Z</time>
      </trkpt>
      <trkpt lat="39.1495130" lon="-1.6076050">
        <ele>671.4</ele>
        <time>2019-05-12T10:11:29Z</time>
      </trkpt>
      <trkpt lat="39.1495290" lon="-1.6075700">
        <ele>671.6</ele>
        <time>2019-05-12T10:11:30Z</time>
      </trkpt>
      <trkpt lat="39.1495450" lon="-1.6075320">
        <ele>672.0</ele>
        <time>2019-05-12T10:11:31Z</time>
      </trkpt>
      <trkpt lat="39.1495620" lon="-1.6074940">
        <ele>672.2</ele>
        <time>2019-05-12T10:11:32Z</time>
      </trkpt>
      <trkpt lat="39.1495810" lon="-1.6074570">
        <ele>672.6</ele>
        <time>2019-05-12T10:11:33Z</time>
      </trkpt>
      <trkpt lat="39.1496020" lon="-1.6074200">
        <ele>672.6</ele>
        <time>2019-05-12T10:11:34Z</time>
      </trkpt>
      <trkpt lat="39.1496230" lon="-1.6073840">
        <ele>672.8</ele>
        <time>2019-05-12T10:11:35Z</time>
      </trkpt>
      <trkpt lat="39.1496450" lon="-1.6073480">
        <ele>672.8</ele>
        <time>2019-05-12T10:11:36Z</time>
      </trkpt>
      <trkpt lat="39.1496690" lon="-1.6073140">
        <ele>672.8</ele>
        <time>2019-05-12T10:11:37Z</time>
      </trkpt>
      <trkpt lat="39.1496960" lon="-1.6072830">
        <ele>672.8</ele>
        <time>2019-05-12T10:11:38Z</time>
      </trkpt>
      <trkpt lat="39.1497300" lon="-1.6072600">
        <ele>672.8</ele>
        <time>2019-05-12T10:11:39Z</time>
      </trkpt>
      <trkpt lat="39.1497720" lon="-1.6072480">
        <ele>672.8</ele>
        <time>2019-05-12T10:11:40Z</time>
      </trkpt>
      <trkpt lat="39.1498160" lon="-1.6072400">
        <ele>672.8</ele>
        <time>2019-05-12T10:11:41Z</time>
      </trkpt>
      <trkpt lat="39.1498590" lon="-1.6072230">
        <ele>672.8</ele>
        <time>2019-05-12T10:11:42Z</time>
      </trkpt>
      <trkpt lat="39.1499000" lon="-1.6071940">
        <ele>672.8</ele>
        <time>2019-05-12T10:11:43Z</time>
      </trkpt>
      <trkpt lat="39.1499360" lon="-1.6071570">
        <ele>672.8</ele>
        <time>2019-05-12T10:11:44Z</time>
      </trkpt>
      <trkpt lat="39.1499660" lon="-1.6071160">
        <ele>672.8</ele>
        <time>2019-05-12T10:11:45Z</time>
      </trkpt>
      <trkpt lat="39.1499930" lon="-1.6070820">
        <ele>672.6</ele>
        <time>2019-05-12T10:11:46Z</time>
      </trkpt>
      <trkpt lat="39.1500160" lon="-1.6070580">
        <ele>672.6</ele>
        <time>2019-05-12T10:11:47Z</time>
      </trkpt>
      <trkpt lat="39.1500410" lon="-1.6070390">
        <ele>672.4</ele>
        <time>2019-05-12T10:11:48Z</time>
      </trkpt>
      <trkpt lat="39.1500700" lon="-1.6070210">
        <ele>672.4</ele>
        <time>2019-05-12T10:11:49Z</time>
      </trkpt>
      <trkpt lat="39.1500990" lon="-1.6070010">
        <ele>672.4</ele>
        <time>2019-05-12T10:11:50Z</time>
      </trkpt>
      <trkpt lat="39.1501300" lon="-1.6069800">
        <ele>672.4</ele>
        <time>2019-05-12T10:11:51Z</time>
      </trkpt>
      <trkpt lat="39.1501620" lon="-1.6069620">
        <ele>672.4</ele>
        <time>2019-05-12T10:11:52Z</time>
      </trkpt>
      <trkpt lat="39.1501920" lon="-1.6069510">
        <ele>672.4</ele>
        <time>2019-05-12T10:11:53Z</time>
      </trkpt>
      <trkpt lat="39.1502200" lon="-1.6069430">
        <ele>672.4</ele>
        <time>2019-05-12T10:11:54Z</time>
      </trkpt>
      <trkpt lat="39.1502470" lon="-1.6069390">
        <ele>672.4</ele>
        <time>2019-05-12T10:11:55Z</time>
      </trkpt>
      <trkpt lat="39.1502740" lon="-1.6069440">
        <ele>672.4</ele>
        <time>2019-05-12T10:11:56Z</time>
      </trkpt>
      <trkpt lat="39.1503040" lon="-1.6069550">
        <ele>672.4</ele>
        <time>2019-05-12T10:11:57Z</time>
      </trkpt>
      <trkpt lat="39.1503370" lon="-1.6069660">
        <ele>672.6</ele>
        <time>2019-05-12T10:11:58Z</time>
      </trkpt>
      <trkpt lat="39.1503710" lon="-1.6069700">
        <ele>672.6</ele>
        <time>2019-05-12T10:11:59Z</time>
      </trkpt>
      <trkpt lat="39.1504070" lon="-1.6069740">
        <ele>672.8</ele>
        <time>2019-05-12T10:12:00Z</time>
      </trkpt>
      <trkpt lat="39.1504410" lon="-1.6069800">
        <ele>673.0</ele>
        <time>2019-05-12T10:12:01Z</time>
      </trkpt>
      <trkpt lat="39.1504740" lon="-1.6069800">
        <ele>673.0</ele>
        <time>2019-05-12T10:12:02Z</time>
      </trkpt>
      <trkpt lat="39.1505070" lon="-1.6069740">
        <ele>673.2</ele>
        <time>2019-05-12T10:12:03Z</time>
      </trkpt>
      <trkpt lat="39.1505410" lon="-1.6069690">
        <ele>673.2</ele>
        <time>2019-05-12T10:12:04Z</time>
      </trkpt>
      <trkpt lat="39.1505750" lon="-1.6069620">
        <ele>673.2</ele>
        <time>2019-05-12T10:12:05Z</time>
      </trkpt>
      <trkpt lat="39.1506090" lon="-1.6069510">
        <ele>673.4</ele>
        <time>2019-05-12T10:12:06Z</time>
      </trkpt>
      <trkpt lat="39.1506420" lon="-1.6069380">
        <ele>673.4</ele>
        <time>2019-05-12T10:12:07Z</time>
      </trkpt>
      <trkpt lat="39.1506740" lon="-1.6069260">
        <ele>673.4</ele>
        <time>2019-05-12T10:12:08Z</time>
      </trkpt>
      <trkpt lat="39.1507040" lon="-1.6069080">
        <ele>673.4</ele>
        <time>2019-05-12T10:12:09Z</time>
      </trkpt>
      <trkpt lat="39.1507290" lon="-1.6068860">
        <ele>673.6</ele>
        <time>2019-05-12T10:12:10Z</time>
      </trkpt>
      <trkpt lat="39.1507560" lon="-1.6068670">
        <ele>673.6</ele>
        <time>2019-05-12T10:12:11Z</time>
      </trkpt>
      <trkpt lat="39.1507840" lon="-1.6068500">
        <ele>673.6</ele>
        <time>2019-05-12T10:12:12Z</time>
      </trkpt>
      <trkpt lat="39.1508120" lon="-1.6068330">
        <ele>673.6</ele>
        <time>2019-05-12T10:12:13Z</time>
      </trkpt>
      <trkpt lat="39.1508410" lon="-1.6068150">
        <ele>673.8</ele>
        <time>2019-05-12T10:12:14Z</time>
      </trkpt>
      <trkpt lat="39.1508720" lon="-1.6067980">
        <ele>673.8</ele>
        <time>2019-05-12T10:12:15Z</time>
      </trkpt>
      <trkpt lat="39.1509020" lon="-1.6067790">
        <ele>673.8</ele>
        <time>2019-05-12T10:12:16Z</time>
      </trkpt>
      <trkpt lat="39.1509280" lon="-1.6067540">
        <ele>673.8</ele>
        <time>2019-05-12T10:12:17Z</time>
      </trkpt>
      <trkpt lat="39.1509470" lon="-1.6067210">
        <ele>673.8</ele>
        <time>2019-05-12T10:12:18Z</time>
      </trkpt>
      <trkpt lat="39.1509570" lon="-1.6066820">
        <ele>674.0</ele>
        <time>2019-05-12T10:12:19Z</time>
      </trkpt>
      <trkpt lat="39.1509680" lon="-1.6066450">
        <ele>674.2</ele>
        <time>2019-05-12T10:12:20Z</time>
      </trkpt>
      <trkpt lat="39.1509850" lon="-1.6066220">
        <ele>674.4</ele>
        <time>2019-05-12T10:12:21Z</time>
      </trkpt>
      <trkpt lat="39.1510050" lon="-1.6066160">
        <ele>674.4</ele>
        <time>2019-05-12T10:12:22Z</time>
      </trkpt>
      <trkpt lat="39.1510280" lon="-1.6066240">
        <ele>674.4</ele>
        <time>2019-05-12T10:12:23Z</time>
      </trkpt>
      <trkpt lat="39.1510530" lon="-1.6066380">
        <ele>674.6</ele>
        <time>2019-05-12T10:12:24Z</time>
      </trkpt>
      <trkpt lat="39.1510780" lon="-1.6066560">
        <ele>674.8</ele>
        <time>2019-05-12T10:12:25Z</time>
      </trkpt>
      <trkpt lat="39.1510990" lon="-1.6066750">
        <ele>674.8</ele>
        <time>2019-05-12T10:12:26Z</time>
      </trkpt>
      <trkpt lat="39.1511200" lon="-1.6066910">
        <ele>675.0</ele>
        <time>2019-05-12T10:12:27Z</time>
      </trkpt>
      <trkpt lat="39.1511400" lon="-1.6067080">
        <ele>675.0</ele>
        <time>2019-05-12T10:12:28Z</time>
      </trkpt>
      <trkpt lat="39.1511640" lon="-1.6067230">
        <ele>675.4</ele>
        <time>2019-05-12T10:12:29Z</time>
      </trkpt>
      <trkpt lat="39.1511920" lon="-1.6067330">
        <ele>675.6</ele>
        <time>2019-05-12T10:12:30Z</time>
      </trkpt>
      <trkpt lat="39.1512220" lon="-1.6067390">
        <ele>675.8</ele>
        <time>2019-05-12T10:12:31Z</time>
      </trkpt>
      <trkpt lat="39.1512530" lon="-1.6067450">
        <ele>676.0</ele>
        <time>2019-05-12T10:12:32Z</time>
      </trkpt>
      <trkpt lat="39.1512820" lon="-1.6067500">
        <ele>676.2</ele>
        <time>2019-05-12T10:12:33Z</time>
      </trkpt>
      <trkpt lat="39.1513100" lon="-1.6067580">
        <ele>676.4</ele>
        <time>2019-05-12T10:12:34Z</time>
      </trkpt>
      <trkpt lat="39.1513350" lon="-1.6067650">
        <ele>676.8</ele>
        <time>2019-05-12T10:12:35Z</time>
      </trkpt>
      <trkpt lat="39.1513600" lon="-1.6067730">
        <ele>677.0</ele>
        <time>2019-05-12T10:12:36Z</time>
      </trkpt>
      <trkpt lat="39.1513850" lon="-1.6067790">
        <ele>677.2</ele>
        <time>2019-05-12T10:12:37Z</time>
      </trkpt>
      <trkpt lat="39.1514100" lon="-1.6067830">
        <ele>677.4</ele>
        <time>2019-05-12T10:12:38Z</time>
      </trkpt>
      <trkpt lat="39.1514380" lon="-1.6067840">
        <ele>677.4</ele>
        <time>2019-05-12T10:12:39Z</time>
      </trkpt>
      <trkpt lat="39.1514690" lon="-1.6067830">
        <ele>677.6</ele>
        <time>2019-05-12T10:12:40Z</time>
      </trkpt>
      <trkpt lat="39.1515000" lon="-1.6067810">
        <ele>677.8</ele>
        <time>2019-05-12T10:12:41Z</time>
      </trkpt>
      <trkpt lat="39.1515280" lon="-1.6067750">
        <ele>678.2</ele>
        <time>2019-05-12T10:12:42Z</time>
      </trkpt>
      <trkpt lat="39.1515540" lon="-1.6067630">
        <ele>678.4</ele>
        <time>2019-05-12T10:12:43Z</time>
      </trkpt>
      <trkpt lat="39.1515840" lon="-1.6067560">
        <ele>678.8</ele>
        <time>2019-05-12T10:12:44Z</time>
      </trkpt>
      <trkpt lat="39.1516190" lon="-1.6067490">
        <ele>679.0</ele>
        <time>2019-05-12T10:12:45Z</time>
      </trkpt>
      <trkpt lat="39.1516490" lon="-1.6067300">
        <ele>679.2</ele>
        <time>2019-05-12T10:12:46Z</time>
      </trkpt>
      <trkpt lat="39.1516730" lon="-1.6067010">
        <ele>679.2</ele>
        <time>2019-05-12T10:12:47Z</time>
      </trkpt>
      <trkpt lat="39.1516890" lon="-1.6066640">
        <ele>679.2</ele>
        <time>2019-05-12T10:12:48Z</time>
      </trkpt>
      <trkpt lat="39.1516980" lon="-1.6066230">
        <ele>679.2</ele>
        <time>2019-05-12T10:12:49Z</time>
      </trkpt>
      <trkpt lat="39.1516990" lon="-1.6065800">
        <ele>679.4</ele>
        <time>2019-05-12T10:12:50Z</time>
      </trkpt>
      <trkpt lat="39.1516970" lon="-1.6065380">
        <ele>679.4</ele>
        <time>2019-05-12T10:12:51Z</time>
      </trkpt>
      <trkpt lat="39.1517070" lon="-1.6065020">
        <ele>679.4</ele>
        <time>2019-05-12T10:12:52Z</time>
      </trkpt>
      <trkpt lat="39.1517320" lon="-1.6064780">
        <ele>679.4</ele>
        <time>2019-05-12T10:12:53Z</time>
      </trkpt>
      <trkpt lat="39.1517590" lon="-1.6064520">
        <ele>679.4</ele>
        <time>2019-05-12T10:12:54Z</time>
      </trkpt>
      <trkpt lat="39.1517850" lon="-1.6064260">
        <ele>679.4</ele>
        <time>2019-05-12T10:12:55Z</time>
      </trkpt>
      <trkpt lat="39.1518070" lon="-1.6063870">
        <ele>679.2</ele>
        <time>2019-05-12T10:12:56Z</time>
      </trkpt>
      <trkpt lat="39.1518340" lon="-1.6063530">
        <ele>679.2</ele>
        <time>2019-05-12T10:12:57Z</time>
      </trkpt>
      <trkpt lat="39.1518680" lon="-1.6063210">
        <ele>679.2</ele>
        <time>2019-05-12T10:12:58Z</time>
      </trkpt>
      <trkpt lat="39.1519010" lon="-1.6062860">
        <ele>679.2</ele>
        <time>2019-05-12T10:12:59Z</time>
      </trkpt>
      <trkpt lat="39.1519370" lon="-1.6062590">
        <ele>679.2</ele>
        <time>2019-05-12T10:13:00Z</time>
      </trkpt>
      <trkpt lat="39.1519730" lon="-1.6062310">
        <ele>679.2</ele>
        <time>2019-05-12T10:13:01Z</time>
      </trkpt>
      <trkpt lat="39.1520080" lon="-1.6062010">
        <ele>679.2</ele>
        <time>2019-05-12T10:13:02Z</time>
      </trkpt>
      <trkpt lat="39.1520380" lon="-1.6061650">
        <ele>679.2</ele>
        <time>2019-05-12T10:13:03Z</time>
      </trkpt>
      <trkpt lat="39.1520660" lon="-1.6061220">
        <ele>679.2</ele>
        <time>2019-05-12T10:13:04Z</time>
      </trkpt>
      <trkpt lat="39.1520920" lon="-1.6060770">
        <ele>679.2</ele>
        <time>2019-05-12T10:13:05Z</time>
      </trkpt>
      <trkpt lat="39.1521180" lon="-1.6060350">
        <ele>679.2</ele>
        <time>2019-05-12T10:13:06Z</time>
      </trkpt>
      <trkpt lat="39.1521440" lon="-1.6059920">
        <ele>679.2</ele>
        <time>2019-05-12T10:13:07Z</time>
      </trkpt>
      <trkpt lat="39.1521650" lon="-1.6059470">
        <ele>679.2</ele>
        <time>2019-05-12T10:13:08Z</time>
      </trkpt>
      <trkpt lat="39.1521910" lon="-1.6059030">
        <ele>679.2</ele>
        <time>2019-05-12T10:13:09Z</time>
      </trkpt>
      <trkpt lat="39.1522220" lon="-1.6058610">
        <ele>679.2</ele>
        <time>2019-05-12T10:13:10Z</time>
      </trkpt>
      <trkpt lat="39.1522530" lon="-1.6058140">
        <ele>679.2</ele>
        <time>2019-05-12T10:13:11Z</time>
      </trkpt>
      <trkpt lat="39.1522830" lon="-1.6057640">
        <ele>679.2</ele>
        <time>2019-05-12T10:13:12Z</time>
      </trkpt>
      <trkpt lat="39.1523150" lon="-1.6057140">
        <ele>679.2</ele>
        <time>2019-05-12T10:13:13Z</time>
      </trkpt>
      <trkpt lat="39.1523460" lon="-1.6056660">
        <ele>679.2</ele>
        <time>2019-05-12T10:13:14Z</time>
      </trkpt>
      <trkpt lat="39.1523850" lon="-1.6056290">
        <ele>679.2</ele>
        <time>2019-05-12T10:13:15Z</time>
      </trkpt>
      <trkpt lat="39.1524280" lon="-1.6056020">
        <ele>679.2</ele>
        <time>2019-05-12T10:13:16Z</time>
      </trkpt>
      <trkpt lat="39.1524690" lon="-1.6055750">
        <ele>679.2</ele>
        <time>2019-05-12T10:13:17Z</time>
      </trkpt>
      <trkpt lat="39.1525050" lon="-1.6055380">
        <ele>679.2</ele>
        <time>2019-05-12T10:13:18Z</time>
      </trkpt>
      <trkpt lat="39.1525400" lon="-1.6055030">
        <ele>679.2</ele>
        <time>2019-05-12T10:13:19Z</time>
      </trkpt>
      <trkpt lat="39.1525730" lon="-1.6054790">
        <ele>679.2</ele>
        <time>2019-05-12T10:13:20Z</time>
      </trkpt>
      <trkpt lat="39.1526050" lon="-1.6054750">
        <ele>679.0</ele>
        <time>2019-05-12T10:13:21Z</time>
      </trkpt>
      <trkpt lat="39.1526360" lon="-1.6054900">
        <ele>678.8</ele>
        <time>2019-05-12T10:13:22Z</time>
      </trkpt>
      <trkpt lat="39.1526640" lon="-1.6055220">
        <ele>678.8</ele>
        <time>2019-05-12T10:13:23Z</time>
      </trkpt>
      <trkpt lat="39.1526920" lon="-1.6055620">
        <ele>678.8</ele>
        <time>2019-05-12T10:13:24Z</time>
      </trkpt>
      <trkpt lat="39.1527170" lon="-1.6056050">
        <ele>678.6</ele>
        <time>2019-05-12T10:13:25Z</time>
      </trkpt>
      <trkpt lat="39.1527350" lon="-1.6056520">
        <ele>678.4</ele>
        <time>2019-05-12T10:13:26Z</time>
      </trkpt>
      <trkpt lat="39.1527460" lon="-1.6057050">
        <ele>678.4</ele>
        <time>2019-05-12T10:13:27Z</time>
      </trkpt>
      <trkpt lat="39.1527510" lon="-1.6057610">
        <ele>678.2</ele>
        <time>2019-05-12T10:13:28Z</time>
      </trkpt>
      <trkpt lat="39.1527530" lon="-1.6058170">
        <ele>678.2</ele>
        <time>2019-05-12T10:13:29Z</time>
      </trkpt>
      <trkpt lat="39.1527530" lon="-1.6058730">
        <ele>678.0</ele>
        <time>2019-05-12T10:13:30Z</time>
      </trkpt>
      <trkpt lat="39.1527570" lon="-1.6059290">
        <ele>678.0</ele>
        <time>2019-05-12T10:13:31Z</time>
      </trkpt>
      <trkpt lat="39.1527570" lon="-1.6059860">
        <ele>677.8</ele>
        <time>2019-05-12T10:13:32Z</time>
      </trkpt>
      <trkpt lat="39.1527570" lon="-1.6060440">
        <ele>677.8</ele>
        <time>2019-05-12T10:13:33Z</time>
      </trkpt>
      <trkpt lat="39.1527620" lon="-1.6061000">
        <ele>677.8</ele>
        <time>2019-05-12T10:13:34Z</time>
      </trkpt>
      <trkpt lat="39.1527710" lon="-1.6061530">
        <ele>677.8</ele>
        <time>2019-05-12T10:13:35Z</time>
      </trkpt>
      <trkpt lat="39.1527820" lon="-1.6062020">
        <ele>677.8</ele>
        <time>2019-05-12T10:13:36Z</time>
      </trkpt>
      <trkpt lat="39.1527960" lon="-1.6062490">
        <ele>677.8</ele>
        <time>2019-05-12T10:13:37Z</time>
      </trkpt>
      <trkpt lat="39.1528070" lon="-1.6062970">
        <ele>677.8</ele>
        <time>2019-05-12T10:13:38Z</time>
      </trkpt>
      <trkpt lat="39.1528150" lon="-1.6063450">
        <ele>677.8</ele>
        <time>2019-05-12T10:13:39Z</time>
      </trkpt>
      <trkpt lat="39.1528250" lon="-1.6063930">
        <ele>677.8</ele>
        <time>2019-05-12T10:13:40Z</time>
      </trkpt>
      <trkpt lat="39.1528400" lon="-1.6064410">
        <ele>678.0</ele>
        <time>2019-05-12T10:13:41Z</time>
      </trkpt>
      <trkpt lat="39.1528570" lon="-1.6064900">
        <ele>678.0</ele>
        <time>2019-05-12T10:13:42Z</time>
      </trkpt>
      <trkpt lat="39.1528740" lon="-1.6065420">
        <ele>678.0</ele>
        <time>2019-05-12T10:13:43Z</time>
      </trkpt>
      <trkpt lat="39.1528900" lon="-1.6065970">
        <ele>678.0</ele>
        <time>2019-05-12T10:13:44Z</time>
      </trkpt>
      <trkpt lat="39.1529040" lon="-1.6066560">
        <ele>678.0</ele>
        <time>2019-05-12T10:13:45Z</time>
      </trkpt>
      <trkpt lat="39.1529140" lon="-1.6067160">
        <ele>678.0</ele>
        <time>2019-05-12T10:13:46Z</time>
      </trkpt>
      <trkpt lat="39.1529170" lon="-1.6067750">
        <ele>678.2</ele>
        <time>2019-05-12T10:13:47Z</time>
      </trkpt>
      <trkpt lat="39.1529160" lon="-1.6068310">
        <ele>678.2</ele>
        <time>2019-05-12T10:13:48Z</time>
      </trkpt>
      <trkpt lat="39.1529120" lon="-1.6068850">
        <ele>678.2</ele>
        <time>2019-05-12T10:13:49Z</time>
      </trkpt>
      <trkpt lat="39.1529050" lon="-1.6069400">
        <ele>678.2</ele>
        <time>2019-05-12T10:13:50Z</time>
      </trkpt>
      <trkpt lat="39.1528950" lon="-1.6069960">
        <ele>678.4</ele>
        <time>2019-05-12T10:13:51Z</time>
      </trkpt>
      <trkpt lat="39.1528840" lon="-1.6070540">
        <ele>678.4</ele>
        <time>2019-05-12T10:13:52Z</time>
      </trkpt>
      <trkpt lat="39.1528740" lon="-1.6071140">
        <ele>678.4</ele>
        <time>2019-05-12T10:13:53Z</time>
      </trkpt>
      <trkpt lat="39.1528660" lon="-1.6071750">
        <ele>678.4</ele>
        <time>2019-05-12T10:13:54Z</time>
      </trkpt>
      <trkpt lat="39.1528550" lon="-1.6072370">
        <ele>678.4</ele>
        <time>2019-05-12T10:13:55Z</time>
      </trkpt>
      <trkpt lat="39.1528350" lon="-1.6072980">
        <ele>678.4</ele>
        <time>2019-05-12T10:13:56Z</time>
      </trkpt>
      <trkpt lat="39.1528050" lon="-1.6073480">
        <ele>678.4</ele>
        <time>2019-05-12T10:13:57Z</time>
      </trkpt>
      <trkpt lat="39.1527660" lon="-1.6073860">
        <ele>678.4</ele>
        <time>2019-05-12T10:13:58Z</time>
      </trkpt>
      <trkpt lat="39.1527220" lon="-1.6074130">
        <ele>678.4</ele>
        <time>2019-05-12T10:13:59Z</time>
      </trkpt>
      <trkpt lat="39.1526770" lon="-1.6074380">
        <ele>678.2</ele>
        <time>2019-05-12T10:14:00Z</time>
      </trkpt>
      <trkpt lat="39.1526330" lon="-1.6074630">
        <ele>678.0</ele>
        <time>2019-05-12T10:14:01Z</time>
      </trkpt>
      <trkpt lat="39.1525900" lon="-1.6074880">
        <ele>678.0</ele>
        <time>2019-05-12T10:14:02Z</time>
      </trkpt>
      <trkpt lat="39.1525480" lon="-1.6075140">
        <ele>677.8</ele>
        <time>2019-05-12T10:14:03Z</time>
      </trkpt>
      <trkpt lat="39.1525070" lon="-1.6075410">
        <ele>677.8</ele>
        <time>2019-05-12T10:14:04Z</time>
      </trkpt>
      <trkpt lat="39.1524670" lon="-1.6075700">
        <ele>677.8</ele>
        <time>2019-05-12T10:14:05Z</time>
      </trkpt>
      <trkpt lat="39.1524280" lon="-1.6076000">
        <ele>677.8</ele>
        <time>2019-05-12T10:14:06Z</time>
      </trkpt>
      <trkpt lat="39.1523890" lon="-1.6076310">
        <ele>677.8</ele>
        <time>2019-05-12T10:14:07Z</time>
      </trkpt>
      <trkpt lat="39.1523490" lon="-1.6076620">
        <ele>677.8</ele>
        <time>2019-05-12T10:14:08Z</time>
      </trkpt>
      <trkpt lat="39.1523090" lon="-1.6076930">
        <ele>677.8</ele>
        <time>2019-05-12T10:14:09Z</time>
      </trkpt>
      <trkpt lat="39.1522680" lon="-1.6077210">
        <ele>677.8</ele>
        <time>2019-05-12T10:14:10Z</time>
      </trkpt>
      <trkpt lat="39.1522270" lon="-1.6077480">
        <ele>677.8</ele>
        <time>2019-05-12T10:14:11Z</time>
      </trkpt>
      <trkpt lat="39.1521860" lon="-1.6077740">
        <ele>678.0</ele>
        <time>2019-05-12T10:14:12Z</time>
      </trkpt>
      <trkpt lat="39.1521450" lon="-1.6078010">
        <ele>678.0</ele>
        <time>2019-05-12T10:14:13Z</time>
      </trkpt>
      <trkpt lat="39.1521050" lon="-1.6078290">
        <ele>678.2</ele>
        <time>2019-05-12T10:14:14Z</time>
      </trkpt>
      <trkpt lat="39.1520630" lon="-1.6078580">
        <ele>678.2</ele>
        <time>2019-05-12T10:14:15Z</time>
      </trkpt>
      <trkpt lat="39.1520220" lon="-1.6078890">
        <ele>678.2</ele>
        <time>2019-05-12T10:14:16Z</time>
      </trkpt>
      <trkpt lat="39.1519800" lon="-1.6079200">
        <ele>678.4</ele>
        <time>2019-05-12T10:14:17Z</time>
      </trkpt>
      <trkpt lat="39.1519370" lon="-1.6079510">
        <ele>678.4</ele>
        <time>2019-05-12T10:14:18Z</time>
      </trkpt>
      <trkpt lat="39.1518920" lon="-1.6079820">
        <ele>678.4</ele>
        <time>2019-05-12T10:14:19Z</time>
      </trkpt>
      <trkpt lat="39.1518470" lon="-1.6080140">
        <ele>678.6</ele>
        <time>2019-05-12T10:14:20Z</time>
      </trkpt>
      <trkpt lat="39.1518020" lon="-1.6080480">
        <ele>678.6</ele>
        <time>2019-05-12T10:14:21Z</time>
      </trkpt>
      <trkpt lat="39.1517580" lon="-1.6080850">
        <ele>678.8</ele>
        <time>2019-05-12T10:14:22Z</time>
      </trkpt>
      <trkpt lat="39.1517160" lon="-1.6081250">
        <ele>678.8</ele>
        <time>2019-05-12T10:14:23Z</time>
      </trkpt>
      <trkpt lat="39.1516750" lon="-1.6081640">
        <ele>679.0</ele>
        <time>2019-05-12T10:14:24Z</time>
      </trkpt>
      <trkpt lat="39.1516350" lon="-1.6082030">
        <ele>679.0</ele>
        <time>2019-05-12T10:14:25Z</time>
      </trkpt>
      <trkpt lat="39.1515940" lon="-1.6082480">
        <ele>679.0</ele>
        <time>2019-05-12T10:14:26Z</time>
      </trkpt>
      <trkpt lat="39.1515510" lon="-1.6082960">
        <ele>679.0</ele>
        <time>2019-05-12T10:14:27Z</time>
      </trkpt>
      <trkpt lat="39.1515060" lon="-1.6083460">
        <ele>679.0</ele>
        <time>2019-05-12T10:14:28Z</time>
      </trkpt>
      <trkpt lat="39.1514600" lon="-1.6083990">
        <ele>679.0</ele>
        <time>2019-05-12T10:14:29Z</time>
      </trkpt>
      <trkpt lat="39.1514140" lon="-1.6084550">
        <ele>679.0</ele>
        <time>2019-05-12T10:14:30Z</time>
      </trkpt>
      <trkpt lat="39.1513680" lon="-1.6085140">
        <ele>679.0</ele>
        <time>2019-05-12T10:14:31Z</time>
      </trkpt>
      <trkpt lat="39.1513240" lon="-1.6085760">
        <ele>679.0</ele>
        <time>2019-05-12T10:14:32Z</time>
      </trkpt>
      <trkpt lat="39.1512830" lon="-1.6086430">
        <ele>679.0</ele>
        <time>2019-05-12T10:14:33Z</time>
      </trkpt>
      <trkpt lat="39.1512440" lon="-1.6087110">
        <ele>679.0</ele>
        <time>2019-05-12T10:14:34Z</time>
      </trkpt>
      <trkpt lat="39.1512070" lon="-1.6087810">
        <ele>679.0</ele>
        <time>2019-05-12T10:14:35Z</time>
      </trkpt>
      <trkpt lat="39.1511710" lon="-1.6088540">
        <ele>679.0</ele>
        <time>2019-05-12T10:14:36Z</time>
      </trkpt>
      <trkpt lat="39.1511370" lon="-1.6089310">
        <ele>679.0</ele>
        <time>2019-05-12T10:14:37Z</time>
      </trkpt>
      <trkpt lat="39.1511060" lon="-1.6090110">
        <ele>679.0</ele>
        <time>2019-05-12T10:14:38Z</time>
      </trkpt>
      <trkpt lat="39.1510760" lon="-1.6090920">
        <ele>679.0</ele>
        <time>2019-05-12T10:14:39Z</time>
      </trkpt>
      <trkpt lat="39.1510470" lon="-1.6091750">
        <ele>678.8</ele>
        <time>2019-05-12T10:14:40Z</time>
      </trkpt>
      <trkpt lat="39.1510210" lon="-1.6092610">
        <ele>678.8</ele>
        <time>2019-05-12T10:14:41Z</time>
      </trkpt>
      <trkpt lat="39.1509940" lon="-1.6093480">
        <ele>678.8</ele>
        <time>2019-05-12T10:14:42Z</time>
      </trkpt>
      <trkpt lat="39.1509670" lon="-1.6094370">
        <ele>678.8</ele>
        <time>2019-05-12T10:14:43Z</time>
      </trkpt>
      <trkpt lat="39.1509410" lon="-1.6095290">
        <ele>678.6</ele>
        <time>2019-05-12T10:14:44Z</time>
      </trkpt>
      <trkpt lat="39.1509120" lon="-1.6096210">
        <ele>678.6</ele>
        <time>2019-05-12T10:14:45Z</time>
      </trkpt>
      <trkpt lat="39.1508760" lon="-1.6097130">
        <ele>678.6</ele>
        <time>2019-05-12T10:14:46Z</time>
      </trkpt>
      <trkpt lat="39.1508340" lon="-1.6097960">
        <ele>678.6</ele>
        <time>2019-05-12T10:14:47Z</time>
      </trkpt>
      <trkpt lat="39.1507830" lon="-1.6098710">
        <ele>678.4</ele>
        <time>2019-05-12T10:14:48Z</time>
      </trkpt>
      <trkpt lat="39.1507280" lon="-1.6099400">
        <ele>678.4</ele>
        <time>2019-05-12T10:14:49Z</time>
      </trkpt>
      <trkpt lat="39.1506700" lon="-1.6100080">
        <ele>678.4</ele>
        <time>2019-05-12T10:14:50Z</time>
      </trkpt>
      <trkpt lat="39.1506100" lon="-1.6100730">
        <ele>678.4</ele>
        <time>2019-05-12T10:14:51Z</time>
      </trkpt>
      <trkpt lat="39.1505480" lon="-1.6101350">
        <ele>678.4</ele>
        <time>2019-05-12T10:14:52Z</time>
      </trkpt>
      <trkpt lat="39.1504830" lon="-1.6101900">
        <ele>678.2</ele>
        <time>2019-05-12T10:14:53Z</time>
      </trkpt>
      <trkpt lat="39.1504140" lon="-1.6102360">
        <ele>678.2</ele>
        <time>2019-05-12T10:14:54Z</time>
      </trkpt>
      <trkpt lat="39.1503450" lon="-1.6102770">
        <ele>678.2</ele>
        <time>2019-05-12T10:14:55Z</time>
      </trkpt>
      <trkpt lat="39.1502760" lon="-1.6103190">
        <ele>678.2</ele>
        <time>2019-05-12T10:14:56Z</time>
      </trkpt>
      <trkpt lat="39.1502070" lon="-1.6103620">
        <ele>678.2</ele>
        <time>2019-05-12T10:14:57Z</time>
      </trkpt>
      <trkpt lat="39.1501360" lon="-1.6104040">
        <ele>678.2</ele>
        <time>2019-05-12T10:14:58Z</time>
      </trkpt>
      <trkpt lat="39.1500640" lon="-1.6104420">
        <ele>678.0</ele>
        <time>2019-05-12T10:14:59Z</time>
      </trkpt>
      <trkpt lat="39.1499930" lon="-1.6104790">
        <ele>678.0</ele>
        <time>2019-05-12T10:15:00Z</time>
      </trkpt>
      <trkpt lat="39.1499240" lon="-1.6105170">
        <ele>678.0</ele>
        <time>2019-05-12T10:15:01Z</time>
      </trkpt>
      <trkpt lat="39.1498580" lon="-1.6105580">
        <ele>678.0</ele>
        <time>2019-05-12T10:15:02Z</time>
      </trkpt>
      <trkpt lat="39.1497970" lon="-1.6106080">
        <ele>678.0</ele>
        <time>2019-05-12T10:15:03Z</time>
      </trkpt>
      <trkpt lat="39.1497400" lon="-1.6106650">
        <ele>678.0</ele>
        <time>2019-05-12T10:15:04Z</time>
      </trkpt>
      <trkpt lat="39.1496840" lon="-1.6107240">
        <ele>678.0</ele>
        <time>2019-05-12T10:15:05Z</time>
      </trkpt>
      <trkpt lat="39.1496270" lon="-1.6107810">
        <ele>678.0</ele>
        <time>2019-05-12T10:15:06Z</time>
      </trkpt>
      <trkpt lat="39.1495670" lon="-1.6108350">
        <ele>678.0</ele>
        <time>2019-05-12T10:15:07Z</time>
      </trkpt>
      <trkpt lat="39.1495030" lon="-1.6108870">
        <ele>678.0</ele>
        <time>2019-05-12T10:15:08Z</time>
      </trkpt>
      <trkpt lat="39.1494380" lon="-1.6109370">
        <ele>678.0</ele>
        <time>2019-05-12T10:15:09Z</time>
      </trkpt>
      <trkpt lat="39.1493720" lon="-1.6109880">
        <ele>677.8</ele>
        <time>2019-05-12T10:15:10Z</time>
      </trkpt>
      <trkpt lat="39.1493090" lon="-1.6110440">
        <ele>677.8</ele>
        <time>2019-05-12T10:15:11Z</time>
      </trkpt>
      <trkpt lat="39.1492540" lon="-1.6111090">
        <ele>677.8</ele>
        <time>2019-05-12T10:15:12Z</time>
      </trkpt>
      <trkpt lat="39.1492050" lon="-1.6111840">
        <ele>677.8</ele>
        <time>2019-05-12T10:15:13Z</time>
      </trkpt>
      <trkpt lat="39.1491580" lon="-1.6112660">
        <ele>677.8</ele>
        <time>2019-05-12T10:15:14Z</time>
      </trkpt>
      <trkpt lat="39.1491090" lon="-1.6113480">
        <ele>677.6</ele>
        <time>2019-05-12T10:15:15Z</time>
      </trkpt>
      <trkpt lat="39.1490540" lon="-1.6114260">
        <ele>677.6</ele>
        <time>2019-05-12T10:15:16Z</time>
      </trkpt>
      <trkpt lat="39.1489930" lon="-1.6114970">
        <ele>677.6</ele>
        <time>2019-05-12T10:15:17Z</time>
      </trkpt>
      <trkpt lat="39.1489270" lon="-1.6115640">
        <ele>677.6</ele>
        <time>2019-05-12T10:15:18Z</time>
      </trkpt>
      <trkpt lat="39.1488590" lon="-1.6116270">
        <ele>677.4</ele>
        <time>2019-05-12T10:15:19Z</time>
      </trkpt>
      <trkpt lat="39.1487910" lon="-1.6116880">
        <ele>677.0</ele>
        <time>2019-05-12T10:15:20Z</time>
      </trkpt>
      <trkpt lat="39.1487240" lon="-1.6117490">
        <ele>676.8</ele>
        <time>2019-05-12T10:15:21Z</time>
      </trkpt>
      <trkpt lat="39.1486590" lon="-1.6118100">
        <ele>676.6</ele>
        <time>2019-05-12T10:15:22Z</time>
      </trkpt>
      <trkpt lat="39.1486000" lon="-1.6118750">
        <ele>676.6</ele>
        <time>2019-05-12T10:15:23Z</time>
      </trkpt>
      <trkpt lat="39.1485470" lon="-1.6119470">
        <ele>676.4</ele>
        <time>2019-05-12T10:15:24Z</time>
      </trkpt>
      <trkpt lat="39.1484990" lon="-1.6120240">
        <ele>676.2</ele>
        <time>2019-05-12T10:15:25Z</time>
      </trkpt>
      <trkpt lat="39.1484570" lon="-1.6121060">
        <ele>676.0</ele>
        <time>2019-05-12T10:15:26Z</time>
      </trkpt>
      <trkpt lat="39.1484190" lon="-1.6121910">
        <ele>675.8</ele>
        <time>2019-05-12T10:15:27Z</time>
      </trkpt>
      <trkpt lat="39.1483810" lon="-1.6122760">
        <ele>675.8</ele>
        <time>2019-05-12T10:15:28Z</time>
      </trkpt>
      <trkpt lat="39.1483440" lon="-1.6123590">
        <ele>675.6</ele>
        <time>2019-05-12T10:15:29Z</time>
      </trkpt>
      <trkpt lat="39.1483170" lon="-1.6124340">
        <ele>675.6</ele>
        <time>2019-05-12T10:15:30Z</time>
      </trkpt>
      <trkpt lat="39.1483070" lon="-1.6125020">
        <ele>675.6</ele>
        <time>2019-05-12T10:15:31Z</time>
      </trkpt>
      <trkpt lat="39.1483180" lon="-1.6125640">
        <ele>675.4</ele>
        <time>2019-05-12T10:15:32Z</time>
      </trkpt>
      <trkpt lat="39.1483340" lon="-1.6126280">
        <ele>675.2</ele>
        <time>2019-05-12T10:15:33Z</time>
      </trkpt>
      <trkpt lat="39.1483450" lon="-1.6126990">
        <ele>675.2</ele>
        <time>2019-05-12T10:15:34Z</time>
      </trkpt>
      <trkpt lat="39.1483560" lon="-1.6127770">
        <ele>675.0</ele>
        <time>2019-05-12T10:15:35Z</time>
      </trkpt>
      <trkpt lat="39.1483660" lon="-1.6128590">
        <ele>674.6</ele>
        <time>2019-05-12T10:15:36Z</time>
      </trkpt>
      <trkpt lat="39.1483730" lon="-1.6129470">
        <ele>674.4</ele>
        <time>2019-05-12T10:15:37Z</time>
      </trkpt>
      <trkpt lat="39.1483800" lon="-1.6130410">
        <ele>674.0</ele>
        <time>2019-05-12T10:15:38Z</time>
      </trkpt>
      <trkpt lat="39.1483960" lon="-1.6131350">
        <ele>673.6</ele>
        <time>2019-05-12T10:15:39Z</time>
      </trkpt>
      <trkpt lat="39.1484280" lon="-1.6132170">
        <ele>673.2</ele>
        <time>2019-05-12T10:15:40Z</time>
      </trkpt>
      <trkpt lat="39.1484780" lon="-1.6132840">
        <ele>673.0</ele>
        <time>2019-05-12T10:15:41Z</time>
      </trkpt>
      <trkpt lat="39.1485420" lon="-1.6133400">
        <ele>672.6</ele>
        <time>2019-05-12T10:15:42Z</time>
      </trkpt>
      <trkpt lat="39.1486110" lon="-1.6133940">
        <ele>672.6</ele>
        <time>2019-05-12T10:15:43Z</time>
      </trkpt>
      <trkpt lat="39.1486820" lon="-1.6134550">
        <ele>672.4</ele>
        <time>2019-05-12T10:15:44Z</time>
      </trkpt>
      <trkpt lat="39.1487490" lon="-1.6135210">
        <ele>672.2</ele>
        <time>2019-05-12T10:15:45Z</time>
      </trkpt>
      <trkpt lat="39.1488090" lon="-1.6135920">
        <ele>671.8</ele>
        <time>2019-05-12T10:15:46Z</time>
      </trkpt>
      <trkpt lat="39.1488520" lon="-1.6136760">
        <ele>671.4</ele>
        <time>2019-05-12T10:15:47Z</time>
      </trkpt>
      <trkpt lat="39.1488860" lon="-1.6137690">
        <ele>670.6</ele>
        <time>2019-05-12T10:15:48Z</time>
      </trkpt>
      <trkpt lat="39.1489210" lon="-1.6138730">
        <ele>669.6</ele>
        <time>2019-05-12T10:15:49Z</time>
      </trkpt>
      <trkpt lat="39.1489620" lon="-1.6139830">
        <ele>667.4</ele>
        <time>2019-05-12T10:15:50Z</time>
      </trkpt>
      <trkpt lat="39.1490030" lon="-1.6141000">
        <ele>666.6</ele>
        <time>2019-05-12T10:15:51Z</time>
      </trkpt>
      <trkpt lat="39.1490380" lon="-1.6142220">
        <ele>666.2</ele>
        <time>2019-05-12T10:15:52Z</time>
      </trkpt>
      <trkpt lat="39.1490630" lon="-1.6143440">
        <ele>665.6</ele>
        <time>2019-05-12T10:15:53Z</time>
      </trkpt>
      <trkpt lat="39.1490810" lon="-1.6144600">
        <ele>665.0</ele>
        <time>2019-05-12T10:15:54Z</time>
      </trkpt>
      <trkpt lat="39.1490890" lon="-1.6145660">
        <ele>664.4</ele>
        <time>2019-05-12T10:15:55Z</time>
      </trkpt>
      <trkpt lat="39.1490820" lon="-1.6146650">
        <ele>663.8</ele>
        <time>2019-05-12T10:15:56Z</time>
      </trkpt>
      <trkpt lat="39.1490670" lon="-1.6147530">
        <ele>663.2</ele>
        <time>2019-05-12T10:15:57Z</time>
      </trkpt>
      <trkpt lat="39.1490510" lon="-1.6148250">
        <ele>662.6</ele>
        <time>2019-05-12T10:15:58Z</time>
      </trkpt>
      <trkpt lat="39.1490450" lon="-1.6148890">
        <ele>662.0</ele>
        <time>2019-05-12T10:15:59Z</time>
      </trkpt>
      <trkpt lat="39.1490630" lon="-1.6149460">
        <ele>661.0</ele>
        <time>2019-05-12T10:16:00Z</time>
      </trkpt>
      <trkpt lat="39.1490970" lon="-1.6149930">
        <ele>660.0</ele>
        <time>2019-05-12T10:16:01Z</time>
      </trkpt>
      <trkpt lat="39.1491470" lon="-1.6150280">
        <ele>659.0</ele>
        <time>2019-05-12T10:16:02Z</time>
      </trkpt>
      <trkpt lat="39.1492070" lon="-1.6150640">
        <ele>658.0</ele>
        <time>2019-05-12T10:16:03Z</time>
      </trkpt>
      <trkpt lat="39.1492700" lon="-1.6151090">
        <ele>656.8</ele>
        <time>2019-05-12T10:16:04Z</time>
      </trkpt>
      <trkpt lat="39.1493290" lon="-1.6151560">
        <ele>655.6</ele>
        <time>2019-05-12T10:16:05Z</time>
      </trkpt>
      <trkpt lat="39.1493770" lon="-1.6152070">
        <ele>654.2</ele>
        <time>2019-05-12T10:16:06Z</time>
      </trkpt>
      <trkpt lat="39.1494210" lon="-1.6152650">
        <ele>653.0</ele>
        <time>2019-05-12T10:16:07Z</time>
      </trkpt>
      <trkpt lat="39.1494570" lon="-1.6153410">
        <ele>652.4</ele>
        <time>2019-05-12T10:16:08Z</time>
      </trkpt>
      <trkpt lat="39.1494910" lon="-1.6154330">
        <ele>652.0</ele>
        <time>2019-05-12T10:16:09Z</time>
      </trkpt>
      <trkpt lat="39.1495330" lon="-1.6155300">
        <ele>651.6</ele>
        <time>2019-05-12T10:16:10Z</time>
      </trkpt>
      <trkpt lat="39.1495820" lon="-1.6156240">
        <ele>651.0</ele>
        <time>2019-05-12T10:16:11Z</time>
      </trkpt>
      <trkpt lat="39.1496420" lon="-1.6157070">
        <ele>650.4</ele>
        <time>2019-05-12T10:16:12Z</time>
      </trkpt>
      <trkpt lat="39.1497000" lon="-1.6157810">
        <ele>649.6</ele>
        <time>2019-05-12T10:16:13Z</time>
      </trkpt>
      <trkpt lat="39.1497480" lon="-1.6158570">
        <ele>648.4</ele>
        <time>2019-05-12T10:16:14Z</time>
      </trkpt>
      <trkpt lat="39.1497850" lon="-1.6159440">
        <ele>647.0</ele>
        <time>2019-05-12T10:16:15Z</time>
      </trkpt>
      <trkpt lat="39.1498040" lon="-1.6160350">
        <ele>646.2</ele>
        <time>2019-05-12T10:16:16Z</time>
      </trkpt>
      <trkpt lat="39.1498130" lon="-1.6161360">
        <ele>645.4</ele>
        <time>2019-05-12T10:16:17Z</time>
      </trkpt>
      <trkpt lat="39.1498100" lon="-1.6162460">
        <ele>644.8</ele>
        <time>2019-05-12T10:16:18Z</time>
      </trkpt>
      <trkpt lat="39.1498010" lon="-1.6163630">
        <ele>643.8</ele>
        <time>2019-05-12T10:16:19Z</time>
      </trkpt>
      <trkpt lat="39.1497970" lon="-1.6164810">
        <ele>642.6</ele>
        <time>2019-05-12T10:16:20Z</time>
      </trkpt>
      <trkpt lat="39.1498060" lon="-1.6165990">
        <ele>642.0</ele>
        <time>2019-05-12T10:16:21Z</time>
      </trkpt>
      <trkpt lat="39.1498380" lon="-1.6167030">
        <ele>641.2</ele>
        <time>2019-05-12T10:16:22Z</time>
      </trkpt>
      <trkpt lat="39.1498840" lon="-1.6167960">
        <ele>640.4</ele>
        <time>2019-05-12T10:16:23Z</time>
      </trkpt>
      <trkpt lat="39.1499390" lon="-1.6168780">
        <ele>639.6</ele>
        <time>2019-05-12T10:16:24Z</time>
      </trkpt>
      <trkpt lat="39.1499990" lon="-1.6169580">
        <ele>637.6</ele>
        <time>2019-05-12T10:16:25Z</time>
      </trkpt>
      <trkpt lat="39.1500580" lon="-1.6170380">
        <ele>636.4</ele>
        <time>2019-05-12T10:16:26Z</time>
      </trkpt>
      <trkpt lat="39.1501190" lon="-1.6171140">
        <ele>635.6</ele>
        <time>2019-05-12T10:16:27Z</time>
      </trkpt>
      <trkpt lat="39.1501810" lon="-1.6171880">
        <ele>634.8</ele>
        <time>2019-05-12T10:16:28Z</time>
      </trkpt>
      <trkpt lat="39.1502370" lon="-1.6172610">
        <ele>634.4</ele>
        <time>2019-05-12T10:16:29Z</time>
      </trkpt>
      <trkpt lat="39.1502800" lon="-1.6173330">
        <ele>634.0</ele>
        <time>2019-05-12T10:16:30Z</time>
      </trkpt>
      <trkpt lat="39.1503120" lon="-1.6173930">
        <ele>633.8</ele>
        <time>2019-05-12T10:16:31Z</time>
      </trkpt>
      <trkpt lat="39.1503410" lon="-1.6174290">
        <ele>633.2</ele>
        <time>2019-05-12T10:16:32Z</time>
      </trkpt>
      <trkpt lat="39.1503680" lon="-1.6174400">
        <ele>633.0</ele>
        <time>2019-05-12T10:16:33Z</time>
      </trkpt>
      <trkpt lat="39.1503890" lon="-1.6174310">
        <ele>632.8</ele>
        <time>2019-05-12T10:16:34Z</time>
      </trkpt>
      <trkpt lat="39.1503980" lon="-1.6174050">
        <ele>632.6</ele>
        <time>2019-05-12T10:16:35Z</time>
      </trkpt>
      <trkpt lat="39.1503970" lon="-1.6173690">
        <ele>632.0</ele>
        <time>2019-05-12T10:16:36Z</time>
      </trkpt>
      <trkpt lat="39.1503900" lon="-1.6173270">
        <ele>631.6</ele>
        <time>2019-05-12T10:16:37Z</time>
      </trkpt>
      <trkpt lat="39.1503750" lon="-1.6172800">
        <ele>631.2</ele>
        <time>2019-05-12T10:16:38Z</time>
      </trkpt>
      <trkpt lat="39.1503540" lon="-1.6172310">
        <ele>630.6</ele>
        <time>2019-05-12T10:16:39Z</time>
      </trkpt>
      <trkpt lat="39.1503210" lon="-1.6171830">
        <ele>629.8</ele>
        <time>2019-05-12T10:16:40Z</time>
      </trkpt>
      <trkpt lat="39.1502850" lon="-1.6171310">
        <ele>629.0</ele>
        <time>2019-05-12T10:16:41Z</time>
      </trkpt>
      <trkpt lat="39.1502480" lon="-1.6170680">
        <ele>628.2</ele>
        <time>2019-05-12T10:16:42Z</time>
      </trkpt>
      <trkpt lat="39.1502070" lon="-1.6170090">
        <ele>627.4</ele>
        <time>2019-05-12T10:16:43Z</time>
      </trkpt>
      <trkpt lat="39.1501680" lon="-1.6169700">
        <ele>627.0</ele>
        <time>2019-05-12T10:16:44Z</time>
      </trkpt>
      <trkpt lat="39.1501390" lon="-1.6169410">
        <ele>626.8</ele>
        <time>2019-05-12T10:16:45Z</time>
      </trkpt>
      <trkpt lat="39.1501260" lon="-1.6169130">
        <ele>626.6</ele>
        <time>2019-05-12T10:16:46Z</time>
      </trkpt>
      <trkpt lat="39.1501250" lon="-1.6168870">
        <ele>626.4</ele>
        <time>2019-05-12T10:16:47Z</time>
      </trkpt>
      <trkpt lat="39.1501380" lon="-1.6168700">
        <ele>626.4</ele>
        <time>2019-05-12T10:16:48Z</time>
      </trkpt>
      <trkpt lat="39.1501630" lon="-1.6168690">
        <ele>626.2</ele>
        <time>2019-05-12T10:16:49Z</time>
      </trkpt>
      <trkpt lat="39.1501940" lon="-1.6168810">
        <ele>625.8</ele>
        <time>2019-05-12T10:16:50Z</time>
      </trkpt>
      <trkpt lat="39.1502290" lon="-1.6169040">
        <ele>625.2</ele>
        <time>2019-05-12T10:16:51Z</time>
      </trkpt>
      <trkpt lat="39.1502730" lon="-1.6169370">
        <ele>624.4</ele>
        <time>2019-05-12T10:16:52Z</time>
      </trkpt>
      <trkpt lat="39.1503280" lon="-1.6169750">
        <ele>623.6</ele>
        <time>2019-05-12T10:16:53Z</time>
      </trkpt>
      <trkpt lat="39.1503910" lon="-1.6170230">
        <ele>623.2</ele>
        <time>2019-05-12T10:16:54Z</time>
      </trkpt>
      <trkpt lat="39.1504560" lon="-1.6170800">
        <ele>622.6</ele>
        <time>2019-05-12T10:16:55Z</time>
      </trkpt>
      <trkpt lat="39.1505150" lon="-1.6171490">
        <ele>622.2</ele>
        <time>2019-05-12T10:16:56Z</time>
      </trkpt>
      <trkpt lat="39.1505590" lon="-1.6172310">
        <ele>621.8</ele>
        <time>2019-05-12T10:16:57Z</time>
      </trkpt>
      <trkpt lat="39.1505860" lon="-1.6173240">
        <ele>621.6</ele>
        <time>2019-05-12T10:16:58Z</time>
      </trkpt>
      <trkpt lat="39.1506040" lon="-1.6174210">
        <ele>621.4</ele>
        <time>2019-05-12T10:16:59Z</time>
      </trkpt>
      <trkpt lat="39.1506230" lon="-1.6175170">
        <ele>620.8</ele>
        <time>2019-05-12T10:17:00Z</time>
      </trkpt>
      <trkpt lat="39.1506400" lon="-1.6176160">
        <ele>620.2</ele>
        <time>2019-05-12T10:17:01Z</time>
      </trkpt>
      <trkpt lat="39.1506510" lon="-1.6177150">
        <ele>619.8</ele>
        <time>2019-05-12T10:17:02Z</time>
      </trkpt>
      <trkpt lat="39.1506540" lon="-1.6178040">
        <ele>619.2</ele>
        <time>2019-05-12T10:17:03Z</time>
      </trkpt>
      <trkpt lat="39.1506470" lon="-1.6178810">
        <ele>618.4</ele>
        <time>2019-05-12T10:17:04Z</time>
      </trkpt>
      <trkpt lat="39.1506240" lon="-1.6179520">
        <ele>617.8</ele>
        <time>2019-05-12T10:17:05Z</time>
      </trkpt>
      <trkpt lat="39.1505870" lon="-1.6180190">
        <ele>617.4</ele>
        <time>2019-05-12T10:17:06Z</time>
      </trkpt>
      <trkpt lat="39.1505400" lon="-1.6180840">
        <ele>617.2</ele>
        <time>2019-05-12T10:17:07Z</time>
      </trkpt>
      <trkpt lat="39.1504860" lon="-1.6181540">
        <ele>616.8</ele>
        <time>2019-05-12T10:17:08Z</time>
      </trkpt>
      <trkpt lat="39.1504300" lon="-1.6182280">
        <ele>616.2</ele>
        <time>2019-05-12T10:17:09Z</time>
      </trkpt>
      <trkpt lat="39.1503750" lon="-1.6183070">
        <ele>615.6</ele>
        <time>2019-05-12T10:17:10Z</time>
      </trkpt>
      <trkpt lat="39.1503210" lon="-1.6183880">
        <ele>614.6</ele>
        <time>2019-05-12T10:17:11Z</time>
      </trkpt>
      <trkpt lat="39.1502640" lon="-1.6184600">
        <ele>613.4</ele>
        <time>2019-05-12T10:17:12Z</time>
      </trkpt>
      <trkpt lat="39.1502030" lon="-1.6185210">
        <ele>612.6</ele>
        <time>2019-05-12T10:17:13Z</time>
      </trkpt>
      <trkpt lat="39.1501410" lon="-1.6185780">
        <ele>612.0</ele>
        <time>2019-05-12T10:17:14Z</time>
      </trkpt>
      <trkpt lat="39.1500880" lon="-1.6186360">
        <ele>611.4</ele>
        <time>2019-05-12T10:17:15Z</time>
      </trkpt>
      <trkpt lat="39.1500460" lon="-1.6187000">
        <ele>611.0</ele>
        <time>2019-05-12T10:17:16Z</time>
      </trkpt>
      <trkpt lat="39.1500170" lon="-1.6187700">
        <ele>610.8</ele>
        <time>2019-05-12T10:17:17Z</time>
      </trkpt>
      <trkpt lat="39.1499900" lon="-1.6188400">
        <ele>610.8</ele>
        <time>2019-05-12T10:17:18Z</time>
      </trkpt>
      <trkpt lat="39.1499590" lon="-1.6189010">
        <ele>610.8</ele>
        <time>2019-05-12T10:17:19Z</time>
      </trkpt>
      <trkpt lat="39.1499190" lon="-1.6189540">
        <ele>610.8</ele>
        <time>2019-05-12T10:17:20Z</time>
      </trkpt>
      <trkpt lat="39.1498710" lon="-1.6190030">
        <ele>610.8</ele>
        <time>2019-05-12T10:17:21Z</time>
      </trkpt>
      <trkpt lat="39.1498230" lon="-1.6190560">
        <ele>610.8</ele>
        <time>2019-05-12T10:17:22Z</time>
      </trkpt>
      <trkpt lat="39.1497800" lon="-1.6191220">
        <ele>610.6</ele>
        <time>2019-05-12T10:17:23Z</time>
      </trkpt>
      <trkpt lat="39.1497450" lon="-1.6191900">
        <ele>610.6</ele>
        <time>2019-05-12T10:17:24Z</time>
      </trkpt>
      <trkpt lat="39.1497090" lon="-1.6192500">
        <ele>610.4</ele>
        <time>2019-05-12T10:17:25Z</time>
      </trkpt>
      <trkpt lat="39.1496620" lon="-1.6192960">
        <ele>610.4</ele>
        <time>2019-05-12T10:17:26Z</time>
      </trkpt>
      <trkpt lat="39.1496100" lon="-1.6193230">
        <ele>610.2</ele>
        <time>2019-05-12T10:17:27Z</time>
      </trkpt>
      <trkpt lat="39.1495610" lon="-1.6193400">
        <ele>610.2</ele>
        <time>2019-05-12T10:17:28Z</time>
      </trkpt>
      <trkpt lat="39.1495180" lon="-1.6193620">
        <ele>610.2</ele>
        <time>2019-05-12T10:17:29Z</time>
      </trkpt>
      <trkpt lat="39.1494860" lon="-1.6194010">
        <ele>610.2</ele>
        <time>2019-05-12T10:17:30Z</time>
      </trkpt>
      <trkpt lat="39.1494610" lon="-1.6194540">
        <ele>610.2</ele>
        <time>2019-05-12T10:17:31Z</time>
      </trkpt>
      <trkpt lat="39.1494370" lon="-1.6195160">
        <ele>610.2</ele>
        <time>2019-05-12T10:17:32Z</time>
      </trkpt>
      <trkpt lat="39.1494070" lon="-1.6195740">
        <ele>610.2</ele>
        <time>2019-05-12T10:17:33Z</time>
      </trkpt>
      <trkpt lat="39.1493650" lon="-1.6196280">
        <ele>610.0</ele>
        <time>2019-05-12T10:17:34Z</time>
      </trkpt>
      <trkpt lat="39.1493140" lon="-1.6196820">
        <ele>609.0</ele>
        <time>2019-05-12T10:17:35Z</time>
      </trkpt>
      <trkpt lat="39.1492650" lon="-1.6197460">
        <ele>608.4</ele>
        <time>2019-05-12T10:17:36Z</time>
      </trkpt>
      <trkpt lat="39.1492270" lon="-1.6198230">
        <ele>607.6</ele>
        <time>2019-05-12T10:17:37Z</time>
      </trkpt>
      <trkpt lat="39.1492070" lon="-1.6199080">
        <ele>607.0</ele>
        <time>2019-05-12T10:17:38Z</time>
      </trkpt>
      <trkpt lat="39.1491960" lon="-1.6199950">
        <ele>606.4</ele>
        <time>2019-05-12T10:17:39Z</time>
      </trkpt>
      <trkpt lat="39.1491830" lon="-1.6200750">
        <ele>606.0</ele>
        <time>2019-05-12T10:17:40Z</time>
      </trkpt>
      <trkpt lat="39.1491630" lon="-1.6201480">
        <ele>605.8</ele>
        <time>2019-05-12T10:17:41Z</time>
      </trkpt>
      <trkpt lat="39.1491410" lon="-1.6202180">
        <ele>605.2</ele>
        <time>2019-05-12T10:17:42Z</time>
      </trkpt>
      <trkpt lat="39.1491190" lon="-1.6202890">
        <ele>605.0</ele>
        <time>2019-05-12T10:17:43Z</time>
      </trkpt>
      <trkpt lat="39.1491010" lon="-1.6203630">
        <ele>604.8</ele>
        <time>2019-05-12T10:17:44Z</time>
      </trkpt>
      <trkpt lat="39.1490870" lon="-1.6204380">
        <ele>605.0</ele>
        <time>2019-05-12T10:17:45Z</time>
      </trkpt>
      <trkpt lat="39.1490730" lon="-1.6205110">
        <ele>605.0</ele>
        <time>2019-05-12T10:17:46Z</time>
      </trkpt>
      <trkpt lat="39.1490610" lon="-1.6205830">
        <ele>604.8</ele>
        <time>2019-05-12T10:17:47Z</time>
      </trkpt>
      <trkpt lat="39.1490500" lon="-1.6206540">
        <ele>604.8</ele>
        <time>2019-05-12T10:17:48Z</time>
      </trkpt>
      <trkpt lat="39.1490420" lon="-1.6207200">
        <ele>604.8</ele>
        <time>2019-05-12T10:17:49Z</time>
      </trkpt>
      <trkpt lat="39.1490380" lon="-1.6207810">
        <ele>604.8</ele>
        <time>2019-05-12T10:17:50Z</time>
      </trkpt>
      <trkpt lat="39.1490360" lon="-1.6208380">
        <ele>604.8</ele>
        <time>2019-05-12T10:17:51Z</time>
      </trkpt>
      <trkpt lat="39.1490370" lon="-1.6208950">
        <ele>604.8</ele>
        <time>2019-05-12T10:17:52Z</time>
      </trkpt>
      <trkpt lat="39.1490430" lon="-1.6209540">
        <ele>604.8</ele>
        <time>2019-05-12T10:17:53Z</time>
      </trkpt>
      <trkpt lat="39.1490540" lon="-1.6210140">
        <ele>604.8</ele>
        <time>2019-05-12T10:17:54Z</time>
      </trkpt>
      <trkpt lat="39.1490690" lon="-1.6210770">
        <ele>605.0</ele>
        <time>2019-05-12T10:17:55Z</time>
      </trkpt>
      <trkpt lat="39.1490870" lon="-1.6211420">
        <ele>605.2</ele>
        <time>2019-05-12T10:17:56Z</time>
      </trkpt>
      <trkpt lat="39.1491040" lon="-1.6212080">
        <ele>605.6</ele>
        <time>2019-05-12T10:17:57Z</time>
      </trkpt>
      <trkpt lat="39.1491200" lon="-1.6212760">
        <ele>605.8</ele>
        <time>2019-05-12T10:17:58Z</time>
      </trkpt>
      <trkpt lat="39.1491340" lon="-1.6213450">
        <ele>606.4</ele>
        <time>2019-05-12T10:17:59Z</time>
      </trkpt>
      <trkpt lat="39.1491490" lon="-1.6214170">
        <ele>606.6</ele>
        <time>2019-05-12T10:18:00Z</time>
      </trkpt>
      <trkpt lat="39.1491640" lon="-1.6214890">
        <ele>606.8</ele>
        <time>2019-05-12T10:18:01Z</time>
      </trkpt>
      <trkpt lat="39.1491800" lon="-1.6215600">
        <ele>607.2</ele>
        <time>2019-05-12T10:18:02Z</time>
      </trkpt>
      <trkpt lat="39.1491960" lon="-1.6216300">
        <ele>607.2</ele>
        <time>2019-05-12T10:18:03Z</time>
      </trkpt>
      <trkpt lat="39.1492100" lon="-1.6217020">
        <ele>607.4</ele>
        <time>2019-05-12T10:18:04Z</time>
      </trkpt>
      <trkpt lat="39.1492240" lon="-1.6217730">
        <ele>607.4</ele>
        <time>2019-05-12T10:18:05Z</time>
      </trkpt>
      <trkpt lat="39.1492420" lon="-1.6218410">
        <ele>607.6</ele>
        <time>2019-05-12T10:18:06Z</time>
      </trkpt>
      <trkpt lat="39.1492640" lon="-1.6219060">
        <ele>607.6</ele>
        <time>2019-05-12T10:18:07Z</time>
      </trkpt>
      <trkpt lat="39.1492910" lon="-1.6219700">
        <ele>607.6</ele>
        <time>2019-05-12T10:18:08Z</time>
      </trkpt>
      <trkpt lat="39.1493200" lon="-1.6220310">
        <ele>607.8</ele>
        <time>2019-05-12T10:18:09Z</time>
      </trkpt>
      <trkpt lat="39.1493470" lon="-1.6220910">
        <ele>607.8</ele>
        <time>2019-05-12T10:18:10Z</time>
      </trkpt>
      <trkpt lat="39.1493680" lon="-1.6221570">
        <ele>607.8</ele>
        <time>2019-05-12T10:18:11Z</time>
      </trkpt>
      <trkpt lat="39.1493770" lon="-1.6222310">
        <ele>607.8</ele>
        <time>2019-05-12T10:18:12Z</time>
      </trkpt>
      <trkpt lat="39.1493730" lon="-1.6223100">
        <ele>607.8</ele>
        <time>2019-05-12T10:18:13Z</time>
      </trkpt>
      <trkpt lat="39.1493590" lon="-1.6223920">
        <ele>607.8</ele>
        <time>2019-05-12T10:18:14Z</time>
      </trkpt>
      <trkpt lat="39.1493410" lon="-1.6224680">
        <ele>607.8</ele>
        <time>2019-05-12T10:18:15Z</time>
      </trkpt>
      <trkpt lat="39.1493250" lon="-1.6225370">
        <ele>607.8</ele>
        <time>2019-05-12T10:18:16Z</time>
      </trkpt>
      <trkpt lat="39.1493210" lon="-1.6226010">
        <ele>607.8</ele>
        <time>2019-05-12T10:18:17Z</time>
      </trkpt>
      <trkpt lat="39.1493370" lon="-1.6226520">
        <ele>607.8</ele>
        <time>2019-05-12T10:18:18Z</time>
      </trkpt>
      <trkpt lat="39.1493700" lon="-1.6226840">
        <ele>607.8</ele>
        <time>2019-05-12T10:18:19Z</time>
      </trkpt>
      <trkpt lat="39.1494120" lon="-1.6226880">
        <ele>607.6</ele>
        <time>2019-05-12T10:18:20Z</time>
      </trkpt>
      <trkpt lat="39.1494570" lon="-1.6226700">
        <ele>607.2</ele>
        <time>2019-05-12T10:18:21Z</time>
      </trkpt>
      <trkpt lat="39.1495040" lon="-1.6226460">
        <ele>606.8</ele>
        <time>2019-05-12T10:18:22Z</time>
      </trkpt>
      <trkpt lat="39.1495550" lon="-1.6226260">
        <ele>606.2</ele>
        <time>2019-05-12T10:18:23Z</time>
      </trkpt>
      <trkpt lat="39.1496080" lon="-1.6226130">
        <ele>605.6</ele>
        <time>2019-05-12T10:18:24Z</time>
      </trkpt>
      <trkpt lat="39.1496630" lon="-1.6226100">
        <ele>605.2</ele>
        <time>2019-05-12T10:18:25Z</time>
      </trkpt>
      <trkpt lat="39.1497150" lon="-1.6226190">
        <ele>605.2</ele>
        <time>2019-05-12T10:18:26Z</time>
      </trkpt>
      <trkpt lat="39.1497630" lon="-1.6226340">
        <ele>605.0</ele>
        <time>2019-05-12T10:18:27Z</time>
      </trkpt>
      <trkpt lat="39.1498090" lon="-1.6226520">
        <ele>605.0</ele>
        <time>2019-05-12T10:18:28Z</time>
      </trkpt>
      <trkpt lat="39.1498550" lon="-1.6226750">
        <ele>605.0</ele>
        <time>2019-05-12T10:18:29Z</time>
      </trkpt>
      <trkpt lat="39.1498960" lon="-1.6226980">
        <ele>605.0</ele>
        <time>2019-05-12T10:18:30Z</time>
      </trkpt>
      <trkpt lat="39.1499370" lon="-1.6227230">
        <ele>605.0</ele>
        <time>2019-05-12T10:18:31Z</time>
      </trkpt>
      <trkpt lat="39.1499800" lon="-1.6227470">
        <ele>605.0</ele>
        <time>2019-05-12T10:18:32Z</time>
      </trkpt>
      <trkpt lat="39.1500230" lon="-1.6227710">
        <ele>605.0</ele>
        <time>2019-05-12T10:18:33Z</time>
      </trkpt>
      <trkpt lat="39.1500670" lon="-1.6227940">
        <ele>605.2</ele>
        <time>2019-05-12T10:18:34Z</time>
      </trkpt>
      <trkpt lat="39.1501130" lon="-1.6228150">
        <ele>605.6</ele>
        <time>2019-05-12T10:18:35Z</time>
      </trkpt>
      <trkpt lat="39.1501590" lon="-1.6228370">
        <ele>605.8</ele>
        <time>2019-05-12T10:18:36Z</time>
      </trkpt>
      <trkpt lat="39.1502060" lon="-1.6228640">
        <ele>606.2</ele>
        <time>2019-05-12T10:18:37Z</time>
      </trkpt>
      <trkpt lat="39.1502540" lon="-1.6228940">
        <ele>606.6</ele>
        <time>2019-05-12T10:18:38Z</time>
      </trkpt>
      <trkpt lat="39.1503040" lon="-1.6229290">
        <ele>607.0</ele>
        <time>2019-05-12T10:18:39Z</time>
      </trkpt>
      <trkpt lat="39.1503540" lon="-1.6229700">
        <ele>607.4</ele>
        <time>2019-05-12T10:18:40Z</time>
      </trkpt>
      <trkpt lat="39.1504020" lon="-1.6230180">
        <ele>607.6</ele>
        <time>2019-05-12T10:18:41Z</time>
      </trkpt>
      <trkpt lat="39.1504470" lon="-1.6230720">
        <ele>608.0</ele>
        <time>2019-05-12T10:18:42Z</time>
      </trkpt>
      <trkpt lat="39.1504880" lon="-1.6231290">
        <ele>608.0</ele>
        <time>2019-05-12T10:18:43Z</time>
      </trkpt>
      <trkpt lat="39.1505330" lon="-1.6231800">
        <ele>608.0</ele>
        <time>2019-05-12T10:18:44Z</time>
      </trkpt>
      <trkpt lat="39.1505860" lon="-1.6232150">
        <ele>608.0</ele>
        <time>2019-05-12T10:18:45Z</time>
      </trkpt>
      <trkpt lat="39.1506450" lon="-1.6232320">
        <ele>608.0</ele>
        <time>2019-05-12T10:18:46Z</time>
      </trkpt>
      <trkpt lat="39.1507090" lon="-1.6232400">
        <ele>608.0</ele>
        <time>2019-05-12T10:18:47Z</time>
      </trkpt>
      <trkpt lat="39.1507740" lon="-1.6232520">
        <ele>608.0</ele>
        <time>2019-05-12T10:18:48Z</time>
      </trkpt>
      <trkpt lat="39.1508400" lon="-1.6232770">
        <ele>608.0</ele>
        <time>2019-05-12T10:18:49Z</time>
      </trkpt>
      <trkpt lat="39.1509030" lon="-1.6233100">
        <ele>608.0</ele>
        <time>2019-05-12T10:18:50Z</time>
      </trkpt>
      <trkpt lat="39.1509650" lon="-1.6233470">
        <ele>608.0</ele>
        <time>2019-05-12T10:18:51Z</time>
      </trkpt>
      <trkpt lat="39.1510240" lon="-1.6233880">
        <ele>607.8</ele>
        <time>2019-05-12T10:18:52Z</time>
      </trkpt>
      <trkpt lat="39.1510830" lon="-1.6234300">
        <ele>607.6</ele>
        <time>2019-05-12T10:18:53Z</time>
      </trkpt>
      <trkpt lat="39.1511400" lon="-1.6234700">
        <ele>607.4</ele>
        <time>2019-05-12T10:18:54Z</time>
      </trkpt>
      <trkpt lat="39.1511950" lon="-1.6235100">
        <ele>607.2</ele>
        <time>2019-05-12T10:18:55Z</time>
      </trkpt>
      <trkpt lat="39.1512450" lon="-1.6235480">
        <ele>607.2</ele>
        <time>2019-05-12T10:18:56Z</time>
      </trkpt>
      <trkpt lat="39.1512880" lon="-1.6235840">
        <ele>607.2</ele>
        <time>2019-05-12T10:18:57Z</time>
      </trkpt>
      <trkpt lat="39.1513200" lon="-1.6236200">
        <ele>607.2</ele>
        <time>2019-05-12T10:18:58Z</time>
      </trkpt>
      <trkpt lat="39.1513400" lon="-1.6236570">
        <ele>607.0</ele>
        <time>2019-05-12T10:18:59Z</time>
      </trkpt>
      <trkpt lat="39.1513530" lon="-1.6236870">
        <ele>607.0</ele>
        <time>2019-05-12T10:19:00Z</time>
      </trkpt>
      <trkpt lat="39.1513640" lon="-1.6237090">
        <ele>607.0</ele>
        <time>2019-05-12T10:19:01Z</time>
      </trkpt>
      <trkpt lat="39.1513740" lon="-1.6237320">
        <ele>607.0</ele>
        <time>2019-05-12T10:19:02Z</time>
      </trkpt>
      <trkpt lat="39.1513830" lon="-1.6237550">
        <ele>607.0</ele>
        <time>2019-05-12T10:19:03Z</time>
      </trkpt>
      <trkpt lat="39.1513930" lon="-1.6237770">
        <ele>607.2</ele>
        <time>2019-05-12T10:19:04Z</time>
      </trkpt>
      <trkpt lat="39.1514020" lon="-1.6237970">
        <ele>607.2</ele>
        <time>2019-05-12T10:19:05Z</time>
      </trkpt>
      <trkpt lat="39.1514090" lon="-1.6238170">
        <ele>607.6</ele>
        <time>2019-05-12T10:19:06Z</time>
      </trkpt>
      <trkpt lat="39.1514150" lon="-1.6238360">
        <ele>607.8</ele>
        <time>2019-05-12T10:19:07Z</time>
      </trkpt>
      <trkpt lat="39.1514230" lon="-1.6238570">
        <ele>608.2</ele>
        <time>2019-05-12T10:19:08Z</time>
      </trkpt>
      <trkpt lat="39.1514310" lon="-1.6238790">
        <ele>608.6</ele>
        <time>2019-05-12T10:19:09Z</time>
      </trkpt>
      <trkpt lat="39.1514410" lon="-1.6239030">
        <ele>609.0</ele>
        <time>2019-05-12T10:19:10Z</time>
      </trkpt>
      <trkpt lat="39.1514520" lon="-1.6239280">
        <ele>609.4</ele>
        <time>2019-05-12T10:19:11Z</time>
      </trkpt>
      <trkpt lat="39.1514640" lon="-1.6239520">
        <ele>609.8</ele>
        <time>2019-05-12T10:19:12Z</time>
      </trkpt>
      <trkpt lat="39.1514750" lon="-1.6239790">
        <ele>610.0</ele>
        <time>2019-05-12T10:19:13Z</time>
      </trkpt>
      <trkpt lat="39.1514870" lon="-1.6240140">
        <ele>610.2</ele>
        <time>2019-05-12T10:19:14Z</time>
      </trkpt>
      <trkpt lat="39.1515000" lon="-1.6240570">
        <ele>610.4</ele>
        <time>2019-05-12T10:19:15Z</time>
      </trkpt>
      <trkpt lat="39.1515190" lon="-1.6240950">
        <ele>610.6</ele>
        <time>2019-05-12T10:19:16Z</time>
      </trkpt>
      <trkpt lat="39.1515460" lon="-1.6241200">
        <ele>611.0</ele>
        <time>2019-05-12T10:19:17Z</time>
      </trkpt>
      <trkpt lat="39.1515790" lon="-1.6241270">
        <ele>611.4</ele>
        <time>2019-05-12T10:19:18Z</time>
      </trkpt>
      <trkpt lat="39.1516150" lon="-1.6241190">
        <ele>612.4</ele>
        <time>2019-05-12T10:19:19Z</time>
      </trkpt>
      <trkpt lat="39.1516510" lon="-1.6241040">
        <ele>612.8</ele>
        <time>2019-05-12T10:19:20Z</time>
      </trkpt>
      <trkpt lat="39.1516890" lon="-1.6240890">
        <ele>613.2</ele>
        <time>2019-05-12T10:19:21Z</time>
      </trkpt>
      <trkpt lat="39.1517280" lon="-1.6240730">
        <ele>613.4</ele>
        <time>2019-05-12T10:19:22Z</time>
      </trkpt>
      <trkpt lat="39.1517720" lon="-1.6240600">
        <ele>613.6</ele>
        <time>2019-05-12T10:19:23Z</time>
      </trkpt>
      <trkpt lat="39.1518210" lon="-1.6240570">
        <ele>613.8</ele>
        <time>2019-05-12T10:19:24Z</time>
      </trkpt>
      <trkpt lat="39.1518720" lon="-1.6240660">
        <ele>614.0</ele>
        <time>2019-05-12T10:19:25Z</time>
      </trkpt>
      <trkpt lat="39.1519250" lon="-1.6240870">
        <ele>614.0</ele>
        <time>2019-05-12T10:19:26Z</time>
      </trkpt>
      <trkpt lat="39.1519760" lon="-1.6241180">
        <ele>614.2</ele>
        <time>2019-05-12T10:19:27Z</time>
      </trkpt>
      <trkpt lat="39.1520210" lon="-1.6241610">
        <ele>614.4</ele>
        <time>2019-05-12T10:19:28Z</time>
      </trkpt>
      <trkpt lat="39.1520560" lon="-1.6242170">
        <ele>614.4</ele>
        <time>2019-05-12T10:19:29Z</time>
      </trkpt>
      <trkpt lat="39.1520830" lon="-1.6242820">
        <ele>614.4</ele>
        <time>2019-05-12T10:19:30Z</time>
      </trkpt>
      <trkpt lat="39.1521030" lon="-1.6243540">
        <ele>614.4</ele>
        <time>2019-05-12T10:19:31Z</time>
      </trkpt>
      <trkpt lat="39.1521200" lon="-1.6244310">
        <ele>614.4</ele>
        <time>2019-05-12T10:19:32Z</time>
      </trkpt>
      <trkpt lat="39.1521410" lon="-1.6245090">
        <ele>614.4</ele>
        <time>2019-05-12T10:19:33Z</time>
      </trkpt>
      <trkpt lat="39.1521690" lon="-1.6245820">
        <ele>614.2</ele>
        <time>2019-05-12T10:19:34Z</time>
      </trkpt>
      <trkpt lat="39.1522040" lon="-1.6246450">
        <ele>614.0</ele>
        <time>2019-05-12T10:19:35Z</time>
      </trkpt>
      <trkpt lat="39.1522410" lon="-1.6247010">
        <ele>614.0</ele>
        <time>2019-05-12T10:19:36Z</time>
      </trkpt>
      <trkpt lat="39.1522760" lon="-1.6247540">
        <ele>614.2</ele>
        <time>2019-05-12T10:19:37Z</time>
      </trkpt>
      <trkpt lat="39.1522990" lon="-1.6248080">
        <ele>614.0</ele>
        <time>2019-05-12T10:19:38Z</time>
      </trkpt>
      <trkpt lat="39.1523070" lon="-1.6248700">
        <ele>614.0</ele>
        <time>2019-05-12T10:19:39Z</time>
      </trkpt>
      <trkpt lat="39.1523050" lon="-1.6249420">
        <ele>614.0</ele>
        <time>2019-05-12T10:19:40Z</time>
      </trkpt>
      <trkpt lat="39.1522980" lon="-1.6250230">
        <ele>614.0</ele>
        <time>2019-05-12T10:19:41Z</time>
      </trkpt>
      <trkpt lat="39.1522920" lon="-1.6251090">
        <ele>614.0</ele>
        <time>2019-05-12T10:19:42Z</time>
      </trkpt>
      <trkpt lat="39.1522900" lon="-1.6252000">
        <ele>613.8</ele>
        <time>2019-05-12T10:19:43Z</time>
      </trkpt>
      <trkpt lat="39.1522970" lon="-1.6252930">
        <ele>613.6</ele>
        <time>2019-05-12T10:19:44Z</time>
      </trkpt>
      <trkpt lat="39.1523080" lon="-1.6253890">
        <ele>613.6</ele>
        <time>2019-05-12T10:19:45Z</time>
      </trkpt>
      <trkpt lat="39.1523150" lon="-1.6254810">
        <ele>613.4</ele>
        <time>2019-05-12T10:19:46Z</time>
      </trkpt>
      <trkpt lat="39.1523200" lon="-1.6255710">
        <ele>613.2</ele>
        <time>2019-05-12T10:19:47Z</time>
      </trkpt>
      <trkpt lat="39.1523270" lon="-1.6256640">
        <ele>613.2</ele>
        <time>2019-05-12T10:19:48Z</time>
      </trkpt>
      <trkpt lat="39.1523410" lon="-1.6257650">
        <ele>613.0</ele>
        <time>2019-05-12T10:19:49Z</time>
      </trkpt>
      <trkpt lat="39.1523540" lon="-1.6258650">
        <ele>612.8</ele>
        <time>2019-05-12T10:19:50Z</time>
      </trkpt>
      <trkpt lat="39.1523710" lon="-1.6259380">
        <ele>612.6</ele>
        <time>2019-05-12T10:19:51Z</time>
      </trkpt>
      <trkpt lat="39.1523820" lon="-1.6259830">
        <ele>612.2</ele>
        <time>2019-05-12T10:19:52Z</time>
      </trkpt>
      <trkpt lat="39.1523810" lon="-1.6259970">
        <ele>611.8</ele>
        <time>2019-05-12T10:19:53Z</time>
      </trkpt>
      <trkpt lat="39.1523800" lon="-1.6259950">
        <ele>610.8</ele>
        <time>2019-05-12T10:19:54Z</time>
      </trkpt>
      <trkpt lat="39.1523720" lon="-1.6260000">
        <ele>610.6</ele>
        <time>2019-05-12T10:19:55Z</time>
      </trkpt>
      <trkpt lat="39.1523770" lon="-1.6260080">
        <ele>610.6</ele>
        <time>2019-05-12T10:19:56Z</time>
      </trkpt>
      <trkpt lat="39.1523790" lon="-1.6260190">
        <ele>610.4</ele>
        <time>2019-05-12T10:19:57Z</time>
      </trkpt>
      <trkpt lat="39.1523780" lon="-1.6260260">
        <ele>610.4</ele>
        <time>2019-05-12T10:19:58Z</time>
      </trkpt>
      <trkpt lat="39.1523810" lon="-1.6260420">
        <ele>610.4</ele>
        <time>2019-05-12T10:19:59Z</time>
      </trkpt>
      <trkpt lat="39.1523810" lon="-1.6260470">
        <ele>610.4</ele>
        <time>2019-05-12T10:20:00Z</time>
      </trkpt>
      <trkpt lat="39.1523830" lon="-1.6260570">
        <ele>610.4</ele>
        <time>2019-05-12T10:20:01Z</time>
      </trkpt>
      <trkpt lat="39.1523840" lon="-1.6260620">
        <ele>610.4</ele>
        <time>2019-05-12T10:20:02Z</time>
      </trkpt>
      <trkpt lat="39.1523860" lon="-1.6260650">
        <ele>610.4</ele>
        <time>2019-05-12T10:20:03Z</time>
      </trkpt>
      <trkpt lat="39.1523890" lon="-1.6260750">
        <ele>610.4</ele>
        <time>2019-05-12T10:20:04Z</time>
      </trkpt>
      <trkpt lat="39.1523950" lon="-1.6260870">
        <ele>610.6</ele>
        <time>2019-05-12T10:20:05Z</time>
      </trkpt>
      <trkpt lat="39.1524010" lon="-1.6260990">
        <ele>610.6</ele>
        <time>2019-05-12T10:20:06Z</time>
      </trkpt>
      <trkpt lat="39.1524080" lon="-1.6261170">
        <ele>610.8</ele>
        <time>2019-05-12T10:20:07Z</time>
      </trkpt>
      <trkpt lat="39.1524160" lon="-1.6261370">
        <ele>611.0</ele>
        <time>2019-05-12T10:20:08Z</time>
      </trkpt>
      <trkpt lat="39.1524250" lon="-1.6261610">
        <ele>611.2</ele>
        <time>2019-05-12T10:20:09Z</time>
      </trkpt>
      <trkpt lat="39.1524320" lon="-1.6261890">
        <ele>611.2</ele>
        <time>2019-05-12T10:20:10Z</time>
      </trkpt>
      <trkpt lat="39.1524380" lon="-1.6262210">
        <ele>611.4</ele>
        <time>2019-05-12T10:20:11Z</time>
      </trkpt>
      <trkpt lat="39.1524400" lon="-1.6262580">
        <ele>611.4</ele>
        <time>2019-05-12T10:20:12Z</time>
      </trkpt>
      <trkpt lat="39.1524410" lon="-1.6262970">
        <ele>611.6</ele>
        <time>2019-05-12T10:20:13Z</time>
      </trkpt>
      <trkpt lat="39.1524430" lon="-1.6263370">
        <ele>611.6</ele>
        <time>2019-05-12T10:20:14Z</time>
      </trkpt>
      <trkpt lat="39.1524480" lon="-1.6263740">
        <ele>611.6</ele>
        <time>2019-05-12T10:20:15Z</time>
      </trkpt>
      <trkpt lat="39.1524550" lon="-1.6264110">
        <ele>611.8</ele>
        <time>2019-05-12T10:20:16Z</time>
      </trkpt>
      <trkpt lat="39.1524640" lon="-1.6264490">
        <ele>611.8</ele>
        <time>2019-05-12T10:20:17Z</time>
      </trkpt>
      <trkpt lat="39.1524720" lon="-1.6264880">
        <ele>611.8</ele>
        <time>2019-05-12T10:20:18Z</time>
      </trkpt>
      <trkpt lat="39.1524780" lon="-1.6265260">
        <ele>612.0</ele>
        <time>2019-05-12T10:20:19Z</time>
      </trkpt>
      <trkpt lat="39.1524830" lon="-1.6265620">
        <ele>612.2</ele>
        <time>2019-05-12T10:20:20Z</time>
      </trkpt>
      <trkpt lat="39.1524940" lon="-1.6265990">
        <ele>612.4</ele>
        <time>2019-05-12T10:20:21Z</time>
      </trkpt>
      <trkpt lat="39.1525050" lon="-1.6266360">
        <ele>612.6</ele>
        <time>2019-05-12T10:20:22Z</time>
      </trkpt>
      <trkpt lat="39.1525120" lon="-1.6266720">
        <ele>612.8</ele>
        <time>2019-05-12T10:20:23Z</time>
      </trkpt>
      <trkpt lat="39.1525130" lon="-1.6267090">
        <ele>612.8</ele>
        <time>2019-05-12T10:20:24Z</time>
      </trkpt>
      <trkpt lat="39.1525090" lon="-1.6267430">
        <ele>613.0</ele>
        <time>2019-05-12T10:20:25Z</time>
      </trkpt>
      <trkpt lat="39.1525040" lon="-1.6267730">
        <ele>613.2</ele>
        <time>2019-05-12T10:20:26Z</time>
      </trkpt>
      <trkpt lat="39.1524990" lon="-1.6268040">
        <ele>613.4</ele>
        <time>2019-05-12T10:20:27Z</time>
      </trkpt>
      <trkpt lat="39.1524950" lon="-1.6268340">
        <ele>613.4</ele>
        <time>2019-05-12T10:20:28Z</time>
      </trkpt>
      <trkpt lat="39.1524920" lon="-1.6268660">
        <ele>613.8</ele>
        <time>2019-05-12T10:20:29Z</time>
      </trkpt>
      <trkpt lat="39.1524890" lon="-1.6268990">
        <ele>614.0</ele>
        <time>2019-05-12T10:20:30Z</time>
      </trkpt>
      <trkpt lat="39.1524840" lon="-1.6269330">
        <ele>614.2</ele>
        <time>2019-05-12T10:20:31Z</time>
      </trkpt>
      <trkpt lat="39.1524770" lon="-1.6269660">
        <ele>614.4</ele>
        <time>2019-05-12T10:20:32Z</time>
      </trkpt>
      <trkpt lat="39.1524690" lon="-1.6269990">
        <ele>614.6</ele>
        <time>2019-05-12T10:20:33Z</time>
      </trkpt>
      <trkpt lat="39.1524590" lon="-1.6270310">
        <ele>615.0</ele>
        <time>2019-05-12T10:20:34Z</time>
      </trkpt>
      <trkpt lat="39.1524460" lon="-1.6270620">
        <ele>615.4</ele>
        <time>2019-05-12T10:20:35Z</time>
      </trkpt>
      <trkpt lat="39.1524340" lon="-1.6270940">
        <ele>615.6</ele>
        <time>2019-05-12T10:20:36Z</time>
      </trkpt>
      <trkpt lat="39.1524240" lon="-1.6271310">
        <ele>615.8</ele>
        <time>2019-05-12T10:20:37Z</time>
      </trkpt>
      <trkpt lat="39.1524150" lon="-1.6271700">
        <ele>616.0</ele>
        <time>2019-05-12T10:20:38Z</time>
      </trkpt>
      <trkpt lat="39.1524050" lon="-1.6272050">
        <ele>616.2</ele>
        <time>2019-05-12T10:20:39Z</time>
      </trkpt>
      <trkpt lat="39.1523960" lon="-1.6272380">
        <ele>616.2</ele>
        <time>2019-05-12T10:20:40Z</time>
      </trkpt>
      <trkpt lat="39.1523870" lon="-1.6272690">
        <ele>616.4</ele>
        <time>2019-05-12T10:20:41Z</time>
      </trkpt>
      <trkpt lat="39.1523800" lon="-1.6272980">
        <ele>616.6</ele>
        <time>2019-05-12T10:20:42Z</time>
      </trkpt>
      <trkpt lat="39.1523730" lon="-1.6273250">
        <ele>616.8</ele>
        <time>2019-05-12T10:20:43Z</time>
      </trkpt>
      <trkpt lat="39.1523680" lon="-1.6273510">
        <ele>616.8</ele>
        <time>2019-05-12T10:20:44Z</time>
      </trkpt>
      <trkpt lat="39.1523620" lon="-1.6273770">
        <ele>617.0</ele>
        <time>2019-05-12T10:20:45Z</time>
      </trkpt>
      <trkpt lat="39.1523550" lon="-1.6274020">
        <ele>617.0</ele>
        <time>2019-05-12T10:20:46Z</time>
      </trkpt>
      <trkpt lat="39.1523480" lon="-1.6274260">
        <ele>617.0</ele>
        <time>2019-05-12T10:20:47Z</time>
      </trkpt>
      <trkpt lat="39.1523420" lon="-1.6274490">
        <ele>617.2</ele>
        <time>2019-05-12T10:20:48Z</time>
      </trkpt>
      <trkpt lat="39.1523360" lon="-1.6274730">
        <ele>617.4</ele>
        <time>2019-05-12T10:20:49Z</time>
      </trkpt>
      <trkpt lat="39.1523320" lon="-1.6274970">
        <ele>617.4</ele>
        <time>2019-05-12T10:20:50Z</time>
      </trkpt>
      <trkpt lat="39.1523270" lon="-1.6275230">
        <ele>617.6</ele>
        <time>2019-05-12T10:20:51Z</time>
      </trkpt>
      <trkpt lat="39.1523240" lon="-1.6275500">
        <ele>617.8</ele>
        <time>2019-05-12T10:20:52Z</time>
      </trkpt>
      <trkpt lat="39.1523200" lon="-1.6275780">
        <ele>618.2</ele>
        <time>2019-05-12T10:20:53Z</time>
      </trkpt>
      <trkpt lat="39.1523150" lon="-1.6276030">
        <ele>618.6</ele>
        <time>2019-05-12T10:20:54Z</time>
      </trkpt>
      <trkpt lat="39.1523100" lon="-1.6276250">
        <ele>618.8</ele>
        <time>2019-05-12T10:20:55Z</time>
      </trkpt>
      <trkpt lat="39.1523080" lon="-1.6276450">
        <ele>619.2</ele>
        <time>2019-05-12T10:20:56Z</time>
      </trkpt>
      <trkpt lat="39.1523100" lon="-1.6276620">
        <ele>619.6</ele>
        <time>2019-05-12T10:20:57Z</time>
      </trkpt>
      <trkpt lat="39.1523130" lon="-1.6276800">
        <ele>620.0</ele>
        <time>2019-05-12T10:20:58Z</time>
      </trkpt>
      <trkpt lat="39.1523120" lon="-1.6276980">
        <ele>620.2</ele>
        <time>2019-05-12T10:20:59Z</time>
      </trkpt>
      <trkpt lat="39.1523080" lon="-1.6277120">
        <ele>620.6</ele>
        <time>2019-05-12T10:21:00Z</time>
      </trkpt>
      <trkpt lat="39.1523060" lon="-1.6277290">
        <ele>621.0</ele>
        <time>2019-05-12T10:21:01Z</time>
      </trkpt>
      <trkpt lat="39.1523070" lon="-1.6277440">
        <ele>621.4</ele>
        <time>2019-05-12T10:21:02Z</time>
      </trkpt>
      <trkpt lat="39.1523120" lon="-1.6277640">
        <ele>622.4</ele>
        <time>2019-05-12T10:21:03Z</time>
      </trkpt>
      <trkpt lat="39.1523190" lon="-1.6277860">
        <ele>622.8</ele>
        <time>2019-05-12T10:21:04Z</time>
      </trkpt>
      <trkpt lat="39.1523210" lon="-1.6277990">
        <ele>623.0</ele>
        <time>2019-05-12T10:21:05Z</time>
      </trkpt>
      <trkpt lat="39.1523210" lon="-1.6278070">
        <ele>623.4</ele>
        <time>2019-05-12T10:21:06Z</time>
      </trkpt>
      <trkpt lat="39.1523210" lon="-1.6278170">
        <ele>623.6</ele>
        <time>2019-05-12T10:21:07Z</time>
      </trkpt>
      <trkpt lat="39.1523210" lon="-1.6278320">
        <ele>624.0</ele>
        <time>2019-05-12T10:21:08Z</time>
      </trkpt>
      <trkpt lat="39.1523230" lon="-1.6278460">
        <ele>624.2</ele>
        <time>2019-05-12T10:21:09Z</time>
      </trkpt>
      <trkpt lat="39.1523260" lon="-1.6278630">
        <ele>624.2</ele>
        <time>2019-05-12T10:21:10Z</time>
      </trkpt>
      <trkpt lat="39.1523280" lon="-1.6278810">
        <ele>624.4</ele>
        <time>2019-05-12T10:21:11Z</time>
      </trkpt>
      <trkpt lat="39.1523320" lon="-1.6279010">
        <ele>624.6</ele>
        <time>2019-05-12T10:21:12Z</time>
      </trkpt>
      <trkpt lat="39.1523350" lon="-1.6279210">
        <ele>624.8</ele>
        <time>2019-05-12T10:21:13Z</time>
      </trkpt>
      <trkpt lat="39.1523360" lon="-1.6279360">
        <ele>625.0</ele>
        <time>2019-05-12T10:21:14Z</time>
      </trkpt>
      <trkpt lat="39.1523370" lon="-1.6279490">
        <ele>625.0</ele>
        <time>2019-05-12T10:21:15Z</time>
      </trkpt>
      <trkpt lat="39.1523380" lon="-1.6279550">
        <ele>625.2</ele>
        <time>2019-05-12T10:21:16Z</time>
      </trkpt>
      <trkpt lat="39.1523380" lon="-1.6279580">
        <ele>625.6</ele>
        <time>2019-05-12T10:21:17Z</time>
      </trkpt>
      <trkpt lat="39.1523410" lon="-1.6279670">
        <ele>625.8</ele>
        <time>2019-05-12T10:21:18Z</time>
      </trkpt>
      <trkpt lat="39.1523410" lon="-1.6279830">
        <ele>626.0</ele>
        <time>2019-05-12T10:21:19Z</time>
      </trkpt>
      <trkpt lat="39.1523370" lon="-1.6279990">
        <ele>626.0</ele>
        <time>2019-05-12T10:21:20Z</time>
      </trkpt>
      <trkpt lat="39.1523330" lon="-1.6280190">
        <ele>626.4</ele>
        <time>2019-05-12T10:21:21Z</time>
      </trkpt>
      <trkpt lat="39.1523280" lon="-1.6280430">
        <ele>626.4</ele>
        <time>2019-05-12T10:21:22Z</time>
      </trkpt>
      <trkpt lat="39.1523230" lon="-1.6280690">
        <ele>626.6</ele>
        <time>2019-05-12T10:21:23Z</time>
      </trkpt>
      <trkpt lat="39.1523160" lon="-1.6280970">
        <ele>626.8</ele>
        <time>2019-05-12T10:21:24Z</time>
      </trkpt>
      <trkpt lat="39.1523080" lon="-1.6281250">
        <ele>626.8</ele>
        <time>2019-05-12T10:21:25Z</time>
      </trkpt>
      <trkpt lat="39.1522980" lon="-1.6281540">
        <ele>627.0</ele>
        <time>2019-05-12T10:21:26Z</time>
      </trkpt>
      <trkpt lat="39.1522880" lon="-1.6281810">
        <ele>627.0</ele>
        <time>2019-05-12T10:21:27Z</time>
      </trkpt>
      <trkpt lat="39.1522770" lon="-1.6282030">
        <ele>627.2</ele>
        <time>2019-05-12T10:21:28Z</time>
      </trkpt>
      <trkpt lat="39.1522670" lon="-1.6282240">
        <ele>627.2</ele>
        <time>2019-05-12T10:21:29Z</time>
      </trkpt>
      <trkpt lat="39.1522580" lon="-1.6282470">
        <ele>627.4</ele>
        <time>2019-05-12T10:21:30Z</time>
      </trkpt>
      <trkpt lat="39.1522520" lon="-1.6282710">
        <ele>627.4</ele>
        <time>2019-05-12T10:21:31Z</time>
      </trkpt>
      <trkpt lat="39.1522470" lon="-1.6282950">
        <ele>627.6</ele>
        <time>2019-05-12T10:21:32Z</time>
      </trkpt>
      <trkpt lat="39.1522410" lon="-1.6283190">
        <ele>627.8</ele>
        <time>2019-05-12T10:21:33Z</time>
      </trkpt>
      <trkpt lat="39.1522340" lon="-1.6283420">
        <ele>628.0</ele>
        <time>2019-05-12T10:21:34Z</time>
      </trkpt>
      <trkpt lat="39.1522270" lon="-1.6283660">
        <ele>628.2</ele>
        <time>2019-05-12T10:21:35Z</time>
      </trkpt>
      <trkpt lat="39.1522210" lon="-1.6283920">
        <ele>628.6</ele>
        <time>2019-05-12T10:21:36Z</time>
      </trkpt>
      <trkpt lat="39.1522160" lon="-1.6284190">
        <ele>628.8</ele>
        <time>2019-05-12T10:21:37Z</time>
      </trkpt>
      <trkpt lat="39.1522130" lon="-1.6284460">
        <ele>629.4</ele>
        <time>2019-05-12T10:21:38Z</time>
      </trkpt>
      <trkpt lat="39.1522110" lon="-1.6284720">
        <ele>629.6</ele>
        <time>2019-05-12T10:21:39Z</time>
      </trkpt>
      <trkpt lat="39.1522100" lon="-1.6285020">
        <ele>630.0</ele>
        <time>2019-05-12T10:21:40Z</time>
      </trkpt>
      <trkpt lat="39.1522070" lon="-1.6285320">
        <ele>630.0</ele>
        <time>2019-05-12T10:21:41Z</time>
      </trkpt>
      <trkpt lat="39.1522020" lon="-1.6285590">
        <ele>630.2</ele>
        <time>2019-05-12T10:21:42Z</time>
      </trkpt>
      <trkpt lat="39.1521960" lon="-1.6285820">
        <ele>630.4</ele>
        <time>2019-05-12T10:21:43Z</time>
      </trkpt>
      <trkpt lat="39.1521910" lon="-1.6286030">
        <ele>630.4</ele>
        <time>2019-05-12T10:21:44Z</time>
      </trkpt>
      <trkpt lat="39.1521850" lon="-1.6286260">
        <ele>630.6</ele>
        <time>2019-05-12T10:21:45Z</time>
      </trkpt>
      <trkpt lat="39.1521780" lon="-1.6286500">
        <ele>630.8</ele>
        <time>2019-05-12T10:21:46Z</time>
      </trkpt>
      <trkpt lat="39.1521700" lon="-1.6286730">
        <ele>630.8</ele>
        <time>2019-05-12T10:21:47Z</time>
      </trkpt>
      <trkpt lat="39.1521610" lon="-1.6286960">
        <ele>630.8</ele>
        <time>2019-05-12T10:21:48Z</time>
      </trkpt>
      <trkpt lat="39.1521530" lon="-1.6287180">
        <ele>631.0</ele>
        <time>2019-05-12T10:21:49Z</time>
      </trkpt>
      <trkpt lat="39.1521470" lon="-1.6287420">
        <ele>631.2</ele>
        <time>2019-05-12T10:21:50Z</time>
      </trkpt>
      <trkpt lat="39.1521410" lon="-1.6287650">
        <ele>631.4</ele>
        <time>2019-05-12T10:21:51Z</time>
      </trkpt>
      <trkpt lat="39.1521380" lon="-1.6287910">
        <ele>631.4</ele>
        <time>2019-05-12T10:21:52Z</time>
      </trkpt>
      <trkpt lat="39.1521370" lon="-1.6288200">
        <ele>631.8</ele>
        <time>2019-05-12T10:21:53Z</time>
      </trkpt>
      <trkpt lat="39.1521360" lon="-1.6288510">
        <ele>632.0</ele>
        <time>2019-05-12T10:21:54Z</time>
      </trkpt>
      <trkpt lat="39.1521320" lon="-1.6288880">
        <ele>632.2</ele>
        <time>2019-05-12T10:21:55Z</time>
      </trkpt>
      <trkpt lat="39.1521290" lon="-1.6289260">
        <ele>632.4</ele>
        <time>2019-05-12T10:21:56Z</time>
      </trkpt>
      <trkpt lat="39.1521260" lon="-1.6289650">
        <ele>632.6</ele>
        <time>2019-05-12T10:21:57Z</time>
      </trkpt>
      <trkpt lat="39.1521190" lon="-1.6290050">
        <ele>632.8</ele>
        <time>2019-05-12T10:21:58Z</time>
      </trkpt>
      <trkpt lat="39.1521120" lon="-1.6290420">
        <ele>632.8</ele>
        <time>2019-05-12T10:21:59Z</time>
      </trkpt>
      <trkpt lat="39.1521110" lon="-1.6290740">
        <ele>633.0</ele>
        <time>2019-05-12T10:22:00Z</time>
      </trkpt>
      <trkpt lat="39.1521060" lon="-1.6291080">
        <ele>633.0</ele>
        <time>2019-05-12T10:22:01Z</time>
      </trkpt>
      <trkpt lat="39.1520920" lon="-1.6291430">
        <ele>633.2</ele>
        <time>2019-05-12T10:22:02Z</time>
      </trkpt>
      <trkpt lat="39.1520720" lon="-1.6291750">
        <ele>633.2</ele>
        <time>2019-05-12T10:22:03Z</time>
      </trkpt>
      <trkpt lat="39.1520540" lon="-1.6292040">
        <ele>633.2</ele>
        <time>2019-05-12T10:22:04Z</time>
      </trkpt>
      <trkpt lat="39.1520370" lon="-1.6292320">
        <ele>633.4</ele>
        <time>2019-05-12T10:22:05Z</time>
      </trkpt>
      <trkpt lat="39.1520210" lon="-1.6292620">
        <ele>633.4</ele>
        <time>2019-05-12T10:22:06Z</time>
      </trkpt>
      <trkpt lat="39.1520050" lon="-1.6292930">
        <ele>633.6</ele>
        <time>2019-05-12T10:22:07Z</time>
      </trkpt>
      <trkpt lat="39.1519880" lon="-1.6293210">
        <ele>633.6</ele>
        <time>2019-05-12T10:22:08Z</time>
      </trkpt>
      <trkpt lat="39.1519710" lon="-1.6293460">
        <ele>634.0</ele>
        <time>2019-05-12T10:22:09Z</time>
      </trkpt>
      <trkpt lat="39.1519520" lon="-1.6293670">
        <ele>634.0</ele>
        <time>2019-05-12T10:22:10Z</time>
      </trkpt>
      <trkpt lat="39.1519310" lon="-1.6293900">
        <ele>634.2</ele>
        <time>2019-05-12T10:22:11Z</time>
      </trkpt>
      <trkpt lat="39.1519060" lon="-1.6294130">
        <ele>634.0</ele>
        <time>2019-05-12T10:22:12Z</time>
      </trkpt>
      <trkpt lat="39.1518780" lon="-1.6294350">
        <ele>634.4</ele>
        <time>2019-05-12T10:22:13Z</time>
      </trkpt>
      <trkpt lat="39.1518460" lon="-1.6294480">
        <ele>634.4</ele>
        <time>2019-05-12T10:22:14Z</time>
      </trkpt>
      <trkpt lat="39.1518160" lon="-1.6294570">
        <ele>634.6</ele>
        <time>2019-05-12T10:22:15Z</time>
      </trkpt>
      <trkpt lat="39.1517880" lon="-1.6294700">
        <ele>634.8</ele>
        <time>2019-05-12T10:22:16Z</time>
      </trkpt>
      <trkpt lat="39.1517590" lon="-1.6294850">
        <ele>635.0</ele>
        <time>2019-05-12T10:22:17Z</time>
      </trkpt>
      <trkpt lat="39.1517330" lon="-1.6295010">
        <ele>635.2</ele>
        <time>2019-05-12T10:22:18Z</time>
      </trkpt>
      <trkpt lat="39.1517070" lon="-1.6295150">
        <ele>635.2</ele>
        <time>2019-05-12T10:22:19Z</time>
      </trkpt>
      <trkpt lat="39.1516780" lon="-1.6295260">
        <ele>635.2</ele>
        <time>2019-05-12T10:22:20Z</time>
      </trkpt>
      <trkpt lat="39.1516530" lon="-1.6295430">
        <ele>635.4</ele>
        <time>2019-05-12T10:22:21Z</time>
      </trkpt>
      <trkpt lat="39.1516260" lon="-1.6295690">
        <ele>635.4</ele>
        <time>2019-05-12T10:22:22Z</time>
      </trkpt>
      <trkpt lat="39.1515990" lon="-1.6295950">
        <ele>635.4</ele>
        <time>2019-05-12T10:22:23Z</time>
      </trkpt>
      <trkpt lat="39.1515790" lon="-1.6296210">
        <ele>635.4</ele>
        <time>2019-05-12T10:22:24Z</time>
      </trkpt>
      <trkpt lat="39.1515660" lon="-1.6296530">
        <ele>635.4</ele>
        <time>2019-05-12T10:22:25Z</time>
      </trkpt>
      <trkpt lat="39.1515540" lon="-1.6296860">
        <ele>635.6</ele>
        <time>2019-05-12T10:22:26Z</time>
      </trkpt>
      <trkpt lat="39.1515430" lon="-1.6297190">
        <ele>635.6</ele>
        <time>2019-05-12T10:22:27Z</time>
      </trkpt>
      <trkpt lat="39.1515370" lon="-1.6297510">
        <ele>635.6</ele>
        <time>2019-05-12T10:22:28Z</time>
      </trkpt>
      <trkpt lat="39.1515340" lon="-1.6297800">
        <ele>635.6</ele>
        <time>2019-05-12T10:22:29Z</time>
      </trkpt>
      <trkpt lat="39.1515290" lon="-1.6298050">
        <ele>635.8</ele>
        <time>2019-05-12T10:22:30Z</time>
      </trkpt>
      <trkpt lat="39.1515250" lon="-1.6298330">
        <ele>635.8</ele>
        <time>2019-05-12T10:22:31Z</time>
      </trkpt>
      <trkpt lat="39.1515240" lon="-1.6298620">
        <ele>635.8</ele>
        <time>2019-05-12T10:22:32Z</time>
      </trkpt>
      <trkpt lat="39.1515230" lon="-1.6298940">
        <ele>636.0</ele>
        <time>2019-05-12T10:22:33Z</time>
      </trkpt>
      <trkpt lat="39.1515240" lon="-1.6299280">
        <ele>636.0</ele>
        <time>2019-05-12T10:22:34Z</time>
      </trkpt>
      <trkpt lat="39.1515290" lon="-1.6299630">
        <ele>636.2</ele>
        <time>2019-05-12T10:22:35Z</time>
      </trkpt>
      <trkpt lat="39.1515340" lon="-1.6299950">
        <ele>636.6</ele>
        <time>2019-05-12T10:22:36Z</time>
      </trkpt>
      <trkpt lat="39.1515380" lon="-1.6300260">
        <ele>636.8</ele>
        <time>2019-05-12T10:22:37Z</time>
      </trkpt>
      <trkpt lat="39.1515400" lon="-1.6300580">
        <ele>637.2</ele>
        <time>2019-05-12T10:22:38Z</time>
      </trkpt>
      <trkpt lat="39.1515390" lon="-1.6300910">
        <ele>637.4</ele>
        <time>2019-05-12T10:22:39Z</time>
      </trkpt>
      <trkpt lat="39.1515370" lon="-1.6301280">
        <ele>637.8</ele>
        <time>2019-05-12T10:22:40Z</time>
      </trkpt>
      <trkpt lat="39.1515340" lon="-1.6301630">
        <ele>638.0</ele>
        <time>2019-05-12T10:22:41Z</time>
      </trkpt>
      <trkpt lat="39.1515330" lon="-1.6301930">
        <ele>638.0</ele>
        <time>2019-05-12T10:22:42Z</time>
      </trkpt>
      <trkpt lat="39.1515330" lon="-1.6302230">
        <ele>638.0</ele>
        <time>2019-05-12T10:22:43Z</time>
      </trkpt>
      <trkpt lat="39.1515310" lon="-1.6302530">
        <ele>638.2</ele>
        <time>2019-05-12T10:22:44Z</time>
      </trkpt>
      <trkpt lat="39.1515270" lon="-1.6302830">
        <ele>638.4</ele>
        <time>2019-05-12T10:22:45Z</time>
      </trkpt>
      <trkpt lat="39.1515240" lon="-1.6303140">
        <ele>638.6</ele>
        <time>2019-05-12T10:22:46Z</time>
      </trkpt>
      <trkpt lat="39.1515220" lon="-1.6303450">
        <ele>638.8</ele>
        <time>2019-05-12T10:22:47Z</time>
      </trkpt>
      <trkpt lat="39.1515220" lon="-1.6303770">
        <ele>639.0</ele>
        <time>2019-05-12T10:22:48Z</time>
      </trkpt>
      <trkpt lat="39.1515240" lon="-1.6304110">
        <ele>639.4</ele>
        <time>2019-05-12T10:22:49Z</time>
      </trkpt>
      <trkpt lat="39.1515270" lon="-1.6304460">
        <ele>639.6</ele>
        <time>2019-05-12T10:22:50Z</time>
      </trkpt>
      <trkpt lat="39.1515290" lon="-1.6304810">
        <ele>639.8</ele>
        <time>2019-05-12T10:22:51Z</time>
      </trkpt>
      <trkpt lat="39.1515300" lon="-1.6305140">
        <ele>639.8</ele>
        <time>2019-05-12T10:22:52Z</time>
      </trkpt>
      <trkpt lat="39.1515330" lon="-1.6305460">
        <ele>640.0</ele>
        <time>2019-05-12T10:22:53Z</time>
      </trkpt>
      <trkpt lat="39.1515370" lon="-1.6305780">
        <ele>640.2</ele>
        <time>2019-05-12T10:22:54Z</time>
      </trkpt>
      <trkpt lat="39.1515410" lon="-1.6306080">
        <ele>640.4</ele>
        <time>2019-05-12T10:22:55Z</time>
      </trkpt>
      <trkpt lat="39.1515440" lon="-1.6306400">
        <ele>640.6</ele>
        <time>2019-05-12T10:22:56Z</time>
      </trkpt>
      <trkpt lat="39.1515460" lon="-1.6306670">
        <ele>640.8</ele>
        <time>2019-05-12T10:22:57Z</time>
      </trkpt>
      <trkpt lat="39.1515470" lon="-1.6306790">
        <ele>640.8</ele>
        <time>2019-05-12T10:22:58Z</time>
      </trkpt>
      <trkpt lat="39.1515460" lon="-1.6306840">
        <ele>640.8</ele>
        <time>2019-05-12T10:22:59Z</time>
      </trkpt>
      <trkpt lat="39.1515450" lon="-1.6306970">
        <ele>640.8</ele>
        <time>2019-05-12T10:23:00Z</time>
      </trkpt>
      <trkpt lat="39.1515450" lon="-1.6307120">
        <ele>641.0</ele>
        <time>2019-05-12T10:23:01Z</time>
      </trkpt>
      <trkpt lat="39.1515460" lon="-1.6307260">
        <ele>641.0</ele>
        <time>2019-05-12T10:23:02Z</time>
      </trkpt>
      <trkpt lat="39.1515480" lon="-1.6307400">
        <ele>641.0</ele>
        <time>2019-05-12T10:23:03Z</time>
      </trkpt>
      <trkpt lat="39.1515500" lon="-1.6307550">
        <ele>641.2</ele>
        <time>2019-05-12T10:23:04Z</time>
      </trkpt>
      <trkpt lat="39.1515530" lon="-1.6307740">
        <ele>641.4</ele>
        <time>2019-05-12T10:23:05Z</time>
      </trkpt>
      <trkpt lat="39.1515510" lon="-1.6307960">
        <ele>641.6</ele>
        <time>2019-05-12T10:23:06Z</time>
      </trkpt>
      <trkpt lat="39.1515470" lon="-1.6308220">
        <ele>641.8</ele>
        <time>2019-05-12T10:23:07Z</time>
      </trkpt>
      <trkpt lat="39.1515440" lon="-1.6308520">
        <ele>641.8</ele>
        <time>2019-05-12T10:23:08Z</time>
      </trkpt>
      <trkpt lat="39.1515420" lon="-1.6308850">
        <ele>642.0</ele>
        <time>2019-05-12T10:23:09Z</time>
      </trkpt>
      <trkpt lat="39.1515370" lon="-1.6309170">
        <ele>642.2</ele>
        <time>2019-05-12T10:23:10Z</time>
      </trkpt>
      <trkpt lat="39.1515310" lon="-1.6309490">
        <ele>642.2</ele>
        <time>2019-05-12T10:23:11Z</time>
      </trkpt>
      <trkpt lat="39.1515250" lon="-1.6309840">
        <ele>642.2</ele>
        <time>2019-05-12T10:23:12Z</time>
      </trkpt>
      <trkpt lat="39.1515190" lon="-1.6310180">
        <ele>642.4</ele>
        <time>2019-05-12T10:23:13Z</time>
      </trkpt>
      <trkpt lat="39.1515070" lon="-1.6310520">
        <ele>642.4</ele>
        <time>2019-05-12T10:23:14Z</time>
      </trkpt>
      <trkpt lat="39.1514880" lon="-1.6310800">
        <ele>642.6</ele>
        <time>2019-05-12T10:23:15Z</time>
      </trkpt>
      <trkpt lat="39.1514670" lon="-1.6311030">
        <ele>642.6</ele>
        <time>2019-05-12T10:23:16Z</time>
      </trkpt>
      <trkpt lat="39.1514430" lon="-1.6311220">
        <ele>642.8</ele>
        <time>2019-05-12T10:23:17Z</time>
      </trkpt>
      <trkpt lat="39.1514190" lon="-1.6311380">
        <ele>643.0</ele>
        <time>2019-05-12T10:23:18Z</time>
      </trkpt>
      <trkpt lat="39.1513960" lon="-1.6311520">
        <ele>643.2</ele>
        <time>2019-05-12T10:23:19Z</time>
      </trkpt>
      <trkpt lat="39.1513750" lon="-1.6311660">
        <ele>643.4</ele>
        <time>2019-05-12T10:23:20Z</time>
      </trkpt>
      <trkpt lat="39.1513560" lon="-1.6311860">
        <ele>643.4</ele>
        <time>2019-05-12T10:23:21Z</time>
      </trkpt>
      <trkpt lat="39.1513390" lon="-1.6312120">
        <ele>643.6</ele>
        <time>2019-05-12T10:23:22Z</time>
      </trkpt>
      <trkpt lat="39.1513230" lon="-1.6312410">
        <ele>643.8</ele>
        <time>2019-05-12T10:23:23Z</time>
      </trkpt>
      <trkpt lat="39.1513090" lon="-1.6312690">
        <ele>644.0</ele>
        <time>2019-05-12T10:23:24Z</time>
      </trkpt>
      <trkpt lat="39.1512960" lon="-1.6312970">
        <ele>644.4</ele>
        <time>2019-05-12T10:23:25Z</time>
      </trkpt>
      <trkpt lat="39.1512820" lon="-1.6313230">
        <ele>644.6</ele>
        <time>2019-05-12T10:23:26Z</time>
      </trkpt>
      <trkpt lat="39.1512670" lon="-1.6313490">
        <ele>644.8</ele>
        <time>2019-05-12T10:23:27Z</time>
      </trkpt>
      <trkpt lat="39.1512480" lon="-1.6313720">
        <ele>645.2</ele>
        <time>2019-05-12T10:23:28Z</time>
      </trkpt>
      <trkpt lat="39.1512280" lon="-1.6313940">
        <ele>645.4</ele>
        <time>2019-05-12T10:23:29Z</time>
      </trkpt>
      <trkpt lat="39.1512060" lon="-1.6314150">
        <ele>645.6</ele>
        <time>2019-05-12T10:23:30Z</time>
      </trkpt>
      <trkpt lat="39.1511850" lon="-1.6314390">
        <ele>645.6</ele>
        <time>2019-05-12T10:23:31Z</time>
      </trkpt>
      <trkpt lat="39.1511630" lon="-1.6314680">
        <ele>645.8</ele>
        <time>2019-05-12T10:23:32Z</time>
      </trkpt>
      <trkpt lat="39.1511440" lon="-1.6314980">
        <ele>646.2</ele>
        <time>2019-05-12T10:23:33Z</time>
      </trkpt>
      <trkpt lat="39.1511280" lon="-1.6315280">
        <ele>646.4</ele>
        <time>2019-05-12T10:23:34Z</time>
      </trkpt>
      <trkpt lat="39.1511120" lon="-1.6315560">
        <ele>646.8</ele>
        <time>2019-05-12T10:23:35Z</time>
      </trkpt>
      <trkpt lat="39.1510960" lon="-1.6315850">
        <ele>647.2</ele>
        <time>2019-05-12T10:23:36Z</time>
      </trkpt>
      <trkpt lat="39.1510800" lon="-1.6316140">
        <ele>647.2</ele>
        <time>2019-05-12T10:23:37Z</time>
      </trkpt>
      <trkpt lat="39.1510620" lon="-1.6316400">
        <ele>647.6</ele>
        <time>2019-05-12T10:23:38Z</time>
      </trkpt>
      <trkpt lat="39.1510430" lon="-1.6316630">
        <ele>647.6</ele>
        <time>2019-05-12T10:23:39Z</time>
      </trkpt>
      <trkpt lat="39.1510230" lon="-1.6316830">
        <ele>647.6</ele>
        <time>2019-05-12T10:23:40Z</time>
      </trkpt>
      <trkpt lat="39.1510010" lon="-1.6317030">
        <ele>647.8</ele>
        <time>2019-05-12T10:23:41Z</time>
      </trkpt>
      <trkpt lat="39.1509780" lon="-1.6317210">
        <ele>648.0</ele>
        <time>2019-05-12T10:23:42Z</time>
      </trkpt>
      <trkpt lat="39.1509560" lon="-1.6317400">
        <ele>648.0</ele>
        <time>2019-05-12T10:23:43Z</time>
      </trkpt>
      <trkpt lat="39.1509350" lon="-1.6317630">
        <ele>648.2</ele>
        <time>2019-05-12T10:23:44Z</time>
      </trkpt>
      <trkpt lat="39.1509130" lon="-1.6317840">
        <ele>648.4</ele>
        <time>2019-05-12T10:23:45Z</time>
      </trkpt>
      <trkpt lat="39.1508880" lon="-1.6317990">
        <ele>648.4</ele>
        <time>2019-05-12T10:23:46Z</time>
      </trkpt>
      <trkpt lat="39.1508620" lon="-1.6318050">
        <ele>648.4</ele>
        <time>2019-05-12T10:23:47Z</time>
      </trkpt>
      <trkpt lat="39.1508360" lon="-1.6318060">
        <ele>648.6</ele>
        <time>2019-05-12T10:23:48Z</time>
      </trkpt>
      <trkpt lat="39.1508100" lon="-1.6318040">
        <ele>648.8</ele>
        <time>2019-05-12T10:23:49Z</time>
      </trkpt>
      <trkpt lat="39.1507870" lon="-1.6318020">
        <ele>649.0</ele>
        <time>2019-05-12T10:23:50Z</time>
      </trkpt>
      <trkpt lat="39.1507660" lon="-1.6318060">
        <ele>649.0</ele>
        <time>2019-05-12T10:23:51Z</time>
      </trkpt>
      <trkpt lat="39.1507440" lon="-1.6318150">
        <ele>649.2</ele>
        <time>2019-05-12T10:23:52Z</time>
      </trkpt>
      <trkpt lat="39.1507220" lon="-1.6318210">
        <ele>649.2</ele>
        <time>2019-05-12T10:23:53Z</time>
      </trkpt>
      <trkpt lat="39.1506990" lon="-1.6318240">
        <ele>649.4</ele>
        <time>2019-05-12T10:23:54Z</time>
      </trkpt>
      <trkpt lat="39.1506750" lon="-1.6318280">
        <ele>649.6</ele>
        <time>2019-05-12T10:23:55Z</time>
      </trkpt>
      <trkpt lat="39.1506510" lon="-1.6318320">
        <ele>649.8</ele>
        <time>2019-05-12T10:23:56Z</time>
      </trkpt>
      <trkpt lat="39.1506290" lon="-1.6318380">
        <ele>650.2</ele>
        <time>2019-05-12T10:23:57Z</time>
      </trkpt>
      <trkpt lat="39.1506060" lon="-1.6318470">
        <ele>650.4</ele>
        <time>2019-05-12T10:23:58Z</time>
      </trkpt>
      <trkpt lat="39.1505820" lon="-1.6318530">
        <ele>650.8</ele>
        <time>2019-05-12T10:23:59Z</time>
      </trkpt>
      <trkpt lat="39.1505590" lon="-1.6318520">
        <ele>651.0</ele>
        <time>2019-05-12T10:24:00Z</time>
      </trkpt>
      <trkpt lat="39.1505370" lon="-1.6318420">
        <ele>651.2</ele>
        <time>2019-05-12T10:24:01Z</time>
      </trkpt>
      <trkpt lat="39.1505200" lon="-1.6318260">
        <ele>651.4</ele>
        <time>2019-05-12T10:24:02Z</time>
      </trkpt>
      <trkpt lat="39.1505070" lon="-1.6318040">
        <ele>651.6</ele>
        <time>2019-05-12T10:24:03Z</time>
      </trkpt>
      <trkpt lat="39.1504950" lon="-1.6317790">
        <ele>651.8</ele>
        <time>2019-05-12T10:24:04Z</time>
      </trkpt>
      <trkpt lat="39.1504840" lon="-1.6317520">
        <ele>652.0</ele>
        <time>2019-05-12T10:24:05Z</time>
      </trkpt>
      <trkpt lat="39.1504730" lon="-1.6317250">
        <ele>652.0</ele>
        <time>2019-05-12T10:24:06Z</time>
      </trkpt>
      <trkpt lat="39.1504580" lon="-1.6317020">
        <ele>652.2</ele>
        <time>2019-05-12T10:24:07Z</time>
      </trkpt>
      <trkpt lat="39.1504410" lon="-1.6316830">
        <ele>652.4</ele>
        <time>2019-05-12T10:24:08Z</time>
      </trkpt>
      <trkpt lat="39.1504230" lon="-1.6316720">
        <ele>652.6</ele>
        <time>2019-05-12T10:24:09Z</time>
      </trkpt>
      <trkpt lat="39.1504040" lon="-1.6316720">
        <ele>652.6</ele>
        <time>2019-05-12T10:24:10Z</time>
      </trkpt>
      <trkpt lat="39.1503880" lon="-1.6316740">
        <ele>653.0</ele>
        <time>2019-05-12T10:24:11Z</time>
      </trkpt>
      <trkpt lat="39.1503720" lon="-1.6316700">
        <ele>653.4</ele>
        <time>2019-05-12T10:24:12Z</time>
      </trkpt>
      <trkpt lat="39.1503540" lon="-1.6316670">
        <ele>653.6</ele>
        <time>2019-05-12T10:24:13Z</time>
      </trkpt>
      <trkpt lat="39.1503370" lon="-1.6316700">
        <ele>653.8</ele>
        <time>2019-05-12T10:24:14Z</time>
      </trkpt>
      <trkpt lat="39.1503220" lon="-1.6316820">
        <ele>654.0</ele>
        <time>2019-05-12T10:24:15Z</time>
      </trkpt>
      <trkpt lat="39.1503120" lon="-1.6317000">
        <ele>654.2</ele>
        <time>2019-05-12T10:24:16Z</time>
      </trkpt>
      <trkpt lat="39.1503060" lon="-1.6317220">
        <ele>654.4</ele>
        <time>2019-05-12T10:24:17Z</time>
      </trkpt>
      <trkpt lat="39.1502980" lon="-1.6317440">
        <ele>654.8</ele>
        <time>2019-05-12T10:24:18Z</time>
      </trkpt>
      <trkpt lat="39.1502920" lon="-1.6317640">
        <ele>655.0</ele>
        <time>2019-05-12T10:24:19Z</time>
      </trkpt>
      <trkpt lat="39.1502890" lon="-1.6317850">
        <ele>655.4</ele>
        <time>2019-05-12T10:24:20Z</time>
      </trkpt>
      <trkpt lat="39.1502870" lon="-1.6318090">
        <ele>656.0</ele>
        <time>2019-05-12T10:24:21Z</time>
      </trkpt>
      <trkpt lat="39.1502850" lon="-1.6318360">
        <ele>656.2</ele>
        <time>2019-05-12T10:24:22Z</time>
      </trkpt>
      <trkpt lat="39.1502830" lon="-1.6318650">
        <ele>656.6</ele>
        <time>2019-05-12T10:24:23Z</time>
      </trkpt>
      <trkpt lat="39.1502800" lon="-1.6318990">
        <ele>656.8</ele>
        <time>2019-05-12T10:24:24Z</time>
      </trkpt>
      <trkpt lat="39.1502780" lon="-1.6319400">
        <ele>657.0</ele>
        <time>2019-05-12T10:24:25Z</time>
      </trkpt>
      <trkpt lat="39.1502760" lon="-1.6319870">
        <ele>657.0</ele>
        <time>2019-05-12T10:24:26Z</time>
      </trkpt>
      <trkpt lat="39.1502720" lon="-1.6320360">
        <ele>657.0</ele>
        <time>2019-05-12T10:24:27Z</time>
      </trkpt>
      <trkpt lat="39.1502650" lon="-1.6320880">
        <ele>657.0</ele>
        <time>2019-05-12T10:24:28Z</time>
      </trkpt>
      <trkpt lat="39.1502580" lon="-1.6321420">
        <ele>657.0</ele>
        <time>2019-05-12T10:24:29Z</time>
      </trkpt>
      <trkpt lat="39.1502490" lon="-1.6321960">
        <ele>657.0</ele>
        <time>2019-05-12T10:24:30Z</time>
      </trkpt>
      <trkpt lat="39.1502370" lon="-1.6322500">
        <ele>657.0</ele>
        <time>2019-05-12T10:24:31Z</time>
      </trkpt>
      <trkpt lat="39.1502150" lon="-1.6322960">
        <ele>657.0</ele>
        <time>2019-05-12T10:24:32Z</time>
      </trkpt>
      <trkpt lat="39.1502150" lon="-1.6322960">
        <ele>657.0</ele>
        <time>2019-05-12T10:24:33Z</time>
      </trkpt>
      <trkpt lat="39.1501850" lon="-1.6323220">
        <ele>657.0</ele>
        <time>2019-05-12T10:24:34Z</time>
      </trkpt>
      <trkpt lat="39.1501370" lon="-1.6323470">
        <ele>657.0</ele>
        <time>2019-05-12T10:24:35Z</time>
      </trkpt>
      <trkpt lat="39.1501170" lon="-1.6323610">
        <ele>657.0</ele>
        <time>2019-05-12T10:24:36Z</time>
      </trkpt>
      <trkpt lat="39.1500990" lon="-1.6323790">
        <ele>657.0</ele>
        <time>2019-05-12T10:24:37Z</time>
      </trkpt>
      <trkpt lat="39.1500790" lon="-1.6323980">
        <ele>657.0</ele>
        <time>2019-05-12T10:24:38Z</time>
      </trkpt>
      <trkpt lat="39.1500580" lon="-1.6324190">
        <ele>657.0</ele>
        <time>2019-05-12T10:24:39Z</time>
      </trkpt>
      <trkpt lat="39.1500370" lon="-1.6324410">
        <ele>657.0</ele>
        <time>2019-05-12T10:24:40Z</time>
      </trkpt>
      <trkpt lat="39.1500160" lon="-1.6324620">
        <ele>657.0</ele>
        <time>2019-05-12T10:24:41Z</time>
      </trkpt>
      <trkpt lat="39.1499940" lon="-1.6324830">
        <ele>657.2</ele>
        <time>2019-05-12T10:24:42Z</time>
      </trkpt>
      <trkpt lat="39.1499720" lon="-1.6325050">
        <ele>657.4</ele>
        <time>2019-05-12T10:24:43Z</time>
      </trkpt>
      <trkpt lat="39.1499500" lon="-1.6325270">
        <ele>657.6</ele>
        <time>2019-05-12T10:24:44Z</time>
      </trkpt>
      <trkpt lat="39.1499280" lon="-1.6325470">
        <ele>658.0</ele>
        <time>2019-05-12T10:24:45Z</time>
      </trkpt>
      <trkpt lat="39.1499050" lon="-1.6325680">
        <ele>658.2</ele>
        <time>2019-05-12T10:24:46Z</time>
      </trkpt>
      <trkpt lat="39.1498820" lon="-1.6325890">
        <ele>658.4</ele>
        <time>2019-05-12T10:24:47Z</time>
      </trkpt>
      <trkpt lat="39.1498620" lon="-1.6326140">
        <ele>658.6</ele>
        <time>2019-05-12T10:24:48Z</time>
      </trkpt>
      <trkpt lat="39.1498510" lon="-1.6326460">
        <ele>658.8</ele>
        <time>2019-05-12T10:24:49Z</time>
      </trkpt>
      <trkpt lat="39.1498470" lon="-1.6326810">
        <ele>659.0</ele>
        <time>2019-05-12T10:24:50Z</time>
      </trkpt>
      <trkpt lat="39.1498440" lon="-1.6327160">
        <ele>659.0</ele>
        <time>2019-05-12T10:24:51Z</time>
      </trkpt>
      <trkpt lat="39.1498410" lon="-1.6327520">
        <ele>659.2</ele>
        <time>2019-05-12T10:24:52Z</time>
      </trkpt>
      <trkpt lat="39.1498400" lon="-1.6327880">
        <ele>659.4</ele>
        <time>2019-05-12T10:24:53Z</time>
      </trkpt>
      <trkpt lat="39.1498390" lon="-1.6328250">
        <ele>659.6</ele>
        <time>2019-05-12T10:24:54Z</time>
      </trkpt>
      <trkpt lat="39.1498380" lon="-1.6328660">
        <ele>659.6</ele>
        <time>2019-05-12T10:24:55Z</time>
      </trkpt>
      <trkpt lat="39.1498350" lon="-1.6329060">
        <ele>659.8</ele>
        <time>2019-05-12T10:24:56Z</time>
      </trkpt>
      <trkpt lat="39.1498320" lon="-1.6329470">
        <ele>659.8</ele>
        <time>2019-05-12T10:24:57Z</time>
      </trkpt>
      <trkpt lat="39.1498320" lon="-1.6329880">
        <ele>660.0</ele>
        <time>2019-05-12T10:24:58Z</time>
      </trkpt>
      <trkpt lat="39.1498330" lon="-1.6330260">
        <ele>660.2</ele>
        <time>2019-05-12T10:24:59Z</time>
      </trkpt>
      <trkpt lat="39.1498330" lon="-1.6330640">
        <ele>660.4</ele>
        <time>2019-05-12T10:25:00Z</time>
      </trkpt>
      <trkpt lat="39.1498320" lon="-1.6331030">
        <ele>660.4</ele>
        <time>2019-05-12T10:25:01Z</time>
      </trkpt>
      <trkpt lat="39.1498310" lon="-1.6331450">
        <ele>660.6</ele>
        <time>2019-05-12T10:25:02Z</time>
      </trkpt>
      <trkpt lat="39.1498290" lon="-1.6331880">
        <ele>660.6</ele>
        <time>2019-05-12T10:25:03Z</time>
      </trkpt>
      <trkpt lat="39.1498270" lon="-1.6332310">
        <ele>660.6</ele>
        <time>2019-05-12T10:25:04Z</time>
      </trkpt>
      <trkpt lat="39.1498260" lon="-1.6332750">
        <ele>660.8</ele>
        <time>2019-05-12T10:25:05Z</time>
      </trkpt>
      <trkpt lat="39.1498250" lon="-1.6333190">
        <ele>660.8</ele>
        <time>2019-05-12T10:25:06Z</time>
      </trkpt>
      <trkpt lat="39.1498260" lon="-1.6333620">
        <ele>660.8</ele>
        <time>2019-05-12T10:25:07Z</time>
      </trkpt>
      <trkpt lat="39.1498270" lon="-1.6334050">
        <ele>660.8</ele>
        <time>2019-05-12T10:25:08Z</time>
      </trkpt>
      <trkpt lat="39.1498280" lon="-1.6334480">
        <ele>661.0</ele>
        <time>2019-05-12T10:25:09Z</time>
      </trkpt>
      <trkpt lat="39.1498260" lon="-1.6334910">
        <ele>661.0</ele>
        <time>2019-05-12T10:25:10Z</time>
      </trkpt>
      <trkpt lat="39.1498250" lon="-1.6335320">
        <ele>661.2</ele>
        <time>2019-05-12T10:25:11Z</time>
      </trkpt>
      <trkpt lat="39.1498270" lon="-1.6335700">
        <ele>661.4</ele>
        <time>2019-05-12T10:25:12Z</time>
      </trkpt>
      <trkpt lat="39.1498320" lon="-1.6336080">
        <ele>661.6</ele>
        <time>2019-05-12T10:25:13Z</time>
      </trkpt>
      <trkpt lat="39.1498380" lon="-1.6336450">
        <ele>661.6</ele>
        <time>2019-05-12T10:25:14Z</time>
      </trkpt>
      <trkpt lat="39.1498430" lon="-1.6336830">
        <ele>661.8</ele>
        <time>2019-05-12T10:25:15Z</time>
      </trkpt>
      <trkpt lat="39.1498490" lon="-1.6337210">
        <ele>662.0</ele>
        <time>2019-05-12T10:25:16Z</time>
      </trkpt>
      <trkpt lat="39.1498550" lon="-1.6337550">
        <ele>662.2</ele>
        <time>2019-05-12T10:25:17Z</time>
      </trkpt>
      <trkpt lat="39.1498610" lon="-1.6337870">
        <ele>662.2</ele>
        <time>2019-05-12T10:25:18Z</time>
      </trkpt>
      <trkpt lat="39.1498710" lon="-1.6338230">
        <ele>662.4</ele>
        <time>2019-05-12T10:25:19Z</time>
      </trkpt>
      <trkpt lat="39.1498790" lon="-1.6338610">
        <ele>662.6</ele>
        <time>2019-05-12T10:25:20Z</time>
      </trkpt>
      <trkpt lat="39.1498840" lon="-1.6339010">
        <ele>662.8</ele>
        <time>2019-05-12T10:25:21Z</time>
      </trkpt>
      <trkpt lat="39.1498880" lon="-1.6339420">
        <ele>663.0</ele>
        <time>2019-05-12T10:25:22Z</time>
      </trkpt>
      <trkpt lat="39.1498870" lon="-1.6339850">
        <ele>663.2</ele>
        <time>2019-05-12T10:25:23Z</time>
      </trkpt>
      <trkpt lat="39.1498840" lon="-1.6340280">
        <ele>663.4</ele>
        <time>2019-05-12T10:25:24Z</time>
      </trkpt>
      <trkpt lat="39.1498790" lon="-1.6340730">
        <ele>663.6</ele>
        <time>2019-05-12T10:25:25Z</time>
      </trkpt>
      <trkpt lat="39.1498710" lon="-1.6341170">
        <ele>664.0</ele>
        <time>2019-05-12T10:25:26Z</time>
      </trkpt>
      <trkpt lat="39.1498560" lon="-1.6341580">
        <ele>664.0</ele>
        <time>2019-05-12T10:25:27Z</time>
      </trkpt>
      <trkpt lat="39.1498370" lon="-1.6341960">
        <ele>664.2</ele>
        <time>2019-05-12T10:25:28Z</time>
      </trkpt>
      <trkpt lat="39.1498170" lon="-1.6342300">
        <ele>664.2</ele>
        <time>2019-05-12T10:25:29Z</time>
      </trkpt>
      <trkpt lat="39.1497960" lon="-1.6342640">
        <ele>664.4</ele>
        <time>2019-05-12T10:25:30Z</time>
      </trkpt>
      <trkpt lat="39.1497710" lon="-1.6342940">
        <ele>664.6</ele>
        <time>2019-05-12T10:25:31Z</time>
      </trkpt>
      <trkpt lat="39.1497430" lon="-1.6343170">
        <ele>664.6</ele>
        <time>2019-05-12T10:25:32Z</time>
      </trkpt>
      <trkpt lat="39.1497160" lon="-1.6343380">
        <ele>664.8</ele>
        <time>2019-05-12T10:25:33Z</time>
      </trkpt>
      <trkpt lat="39.1496910" lon="-1.6343580">
        <ele>665.0</ele>
        <time>2019-05-12T10:25:34Z</time>
      </trkpt>
      <trkpt lat="39.1496620" lon="-1.6343760">
        <ele>665.2</ele>
        <time>2019-05-12T10:25:35Z</time>
      </trkpt>
      <trkpt lat="39.1496320" lon="-1.6343920">
        <ele>665.4</ele>
        <time>2019-05-12T10:25:36Z</time>
      </trkpt>
      <trkpt lat="39.1496030" lon="-1.6344080">
        <ele>665.8</ele>
        <time>2019-05-12T10:25:37Z</time>
      </trkpt>
      <trkpt lat="39.1495720" lon="-1.6344240">
        <ele>665.8</ele>
        <time>2019-05-12T10:25:38Z</time>
      </trkpt>
      <trkpt lat="39.1495400" lon="-1.6344380">
        <ele>666.0</ele>
        <time>2019-05-12T10:25:39Z</time>
      </trkpt>
      <trkpt lat="39.1495090" lon="-1.6344500">
        <ele>666.2</ele>
        <time>2019-05-12T10:25:40Z</time>
      </trkpt>
      <trkpt lat="39.1494760" lon="-1.6344590">
        <ele>667.0</ele>
        <time>2019-05-12T10:25:41Z</time>
      </trkpt>
      <trkpt lat="39.1494430" lon="-1.6344680">
        <ele>667.2</ele>
        <time>2019-05-12T10:25:42Z</time>
      </trkpt>
      <trkpt lat="39.1494090" lon="-1.6344800">
        <ele>667.4</ele>
        <time>2019-05-12T10:25:43Z</time>
      </trkpt>
      <trkpt lat="39.1493750" lon="-1.6344950">
        <ele>667.6</ele>
        <time>2019-05-12T10:25:44Z</time>
      </trkpt>
      <trkpt lat="39.1493420" lon="-1.6345100">
        <ele>667.8</ele>
        <time>2019-05-12T10:25:45Z</time>
      </trkpt>
      <trkpt lat="39.1493110" lon="-1.6345280">
        <ele>668.0</ele>
        <time>2019-05-12T10:25:46Z</time>
      </trkpt>
      <trkpt lat="39.1492820" lon="-1.6345530">
        <ele>668.2</ele>
        <time>2019-05-12T10:25:47Z</time>
      </trkpt>
      <trkpt lat="39.1492540" lon="-1.6345810">
        <ele>668.4</ele>
        <time>2019-05-12T10:25:48Z</time>
      </trkpt>
      <trkpt lat="39.1492270" lon="-1.6346070">
        <ele>668.6</ele>
        <time>2019-05-12T10:25:49Z</time>
      </trkpt>
      <trkpt lat="39.1491980" lon="-1.6346270">
        <ele>668.6</ele>
        <time>2019-05-12T10:25:50Z</time>
      </trkpt>
      <trkpt lat="39.1491680" lon="-1.6346450">
        <ele>668.8</ele>
        <time>2019-05-12T10:25:51Z</time>
      </trkpt>
      <trkpt lat="39.1491410" lon="-1.6346670">
        <ele>668.8</ele>
        <time>2019-05-12T10:25:52Z</time>
      </trkpt>
      <trkpt lat="39.1491130" lon="-1.6346890">
        <ele>668.8</ele>
        <time>2019-05-12T10:25:53Z</time>
      </trkpt>
      <trkpt lat="39.1490830" lon="-1.6347110">
        <ele>668.8</ele>
        <time>2019-05-12T10:25:54Z</time>
      </trkpt>
      <trkpt lat="39.1490530" lon="-1.6347320">
        <ele>669.0</ele>
        <time>2019-05-12T10:25:55Z</time>
      </trkpt>
      <trkpt lat="39.1490210" lon="-1.6347500">
        <ele>669.0</ele>
        <time>2019-05-12T10:25:56Z</time>
      </trkpt>
      <trkpt lat="39.1489860" lon="-1.6347630">
        <ele>669.0</ele>
        <time>2019-05-12T10:25:57Z</time>
      </trkpt>
      <trkpt lat="39.1489510" lon="-1.6347680">
        <ele>669.0</ele>
        <time>2019-05-12T10:25:58Z</time>
      </trkpt>
      <trkpt lat="39.1489170" lon="-1.6347660">
        <ele>669.0</ele>
        <time>2019-05-12T10:25:59Z</time>
      </trkpt>
      <trkpt lat="39.1488830" lon="-1.6347660">
        <ele>669.0</ele>
        <time>2019-05-12T10:26:00Z</time>
      </trkpt>
      <trkpt lat="39.1488510" lon="-1.6347720">
        <ele>669.0</ele>
        <time>2019-05-12T10:26:01Z</time>
      </trkpt>
      <trkpt lat="39.1488210" lon="-1.6347860">
        <ele>669.0</ele>
        <time>2019-05-12T10:26:02Z</time>
      </trkpt>
      <trkpt lat="39.1487920" lon="-1.6348050">
        <ele>669.0</ele>
        <time>2019-05-12T10:26:03Z</time>
      </trkpt>
      <trkpt lat="39.1487650" lon="-1.6348290">
        <ele>669.0</ele>
        <time>2019-05-12T10:26:04Z</time>
      </trkpt>
      <trkpt lat="39.1487390" lon="-1.6348570">
        <ele>669.0</ele>
        <time>2019-05-12T10:26:05Z</time>
      </trkpt>
      <trkpt lat="39.1487150" lon="-1.6348820">
        <ele>669.2</ele>
        <time>2019-05-12T10:26:06Z</time>
      </trkpt>
      <trkpt lat="39.1486900" lon="-1.6349020">
        <ele>669.4</ele>
        <time>2019-05-12T10:26:07Z</time>
      </trkpt>
      <trkpt lat="39.1486670" lon="-1.6349180">
        <ele>669.4</ele>
        <time>2019-05-12T10:26:08Z</time>
      </trkpt>
      <trkpt lat="39.1486450" lon="-1.6349340">
        <ele>669.6</ele>
        <time>2019-05-12T10:26:09Z</time>
      </trkpt>
      <trkpt lat="39.1486230" lon="-1.6349500">
        <ele>669.8</ele>
        <time>2019-05-12T10:26:10Z</time>
      </trkpt>
      <trkpt lat="39.1485990" lon="-1.6349710">
        <ele>670.0</ele>
        <time>2019-05-12T10:26:11Z</time>
      </trkpt>
      <trkpt lat="39.1485750" lon="-1.6349950">
        <ele>670.2</ele>
        <time>2019-05-12T10:26:12Z</time>
      </trkpt>
      <trkpt lat="39.1485540" lon="-1.6350210">
        <ele>670.2</ele>
        <time>2019-05-12T10:26:13Z</time>
      </trkpt>
      <trkpt lat="39.1485350" lon="-1.6350480">
        <ele>670.6</ele>
        <time>2019-05-12T10:26:14Z</time>
      </trkpt>
      <trkpt lat="39.1485170" lon="-1.6350730">
        <ele>670.8</ele>
        <time>2019-05-12T10:26:15Z</time>
      </trkpt>
      <trkpt lat="39.1485000" lon="-1.6350990">
        <ele>671.4</ele>
        <time>2019-05-12T10:26:16Z</time>
      </trkpt>
      <trkpt lat="39.1484860" lon="-1.6351250">
        <ele>671.6</ele>
        <time>2019-05-12T10:26:17Z</time>
      </trkpt>
      <trkpt lat="39.1484740" lon="-1.6351520">
        <ele>671.8</ele>
        <time>2019-05-12T10:26:18Z</time>
      </trkpt>
      <trkpt lat="39.1484630" lon="-1.6351800">
        <ele>671.8</ele>
        <time>2019-05-12T10:26:19Z</time>
      </trkpt>
      <trkpt lat="39.1484520" lon="-1.6352080">
        <ele>672.0</ele>
        <time>2019-05-12T10:26:20Z</time>
      </trkpt>
      <trkpt lat="39.1484400" lon="-1.6352350">
        <ele>672.2</ele>
        <time>2019-05-12T10:26:21Z</time>
      </trkpt>
      <trkpt lat="39.1484280" lon="-1.6352630">
        <ele>672.2</ele>
        <time>2019-05-12T10:26:22Z</time>
      </trkpt>
      <trkpt lat="39.1484130" lon="-1.6352930">
        <ele>672.4</ele>
        <time>2019-05-12T10:26:23Z</time>
      </trkpt>
      <trkpt lat="39.1483960" lon="-1.6353250">
        <ele>672.4</ele>
        <time>2019-05-12T10:26:24Z</time>
      </trkpt>
      <trkpt lat="39.1483820" lon="-1.6353590">
        <ele>672.6</ele>
        <time>2019-05-12T10:26:25Z</time>
      </trkpt>
      <trkpt lat="39.1483690" lon="-1.6353940">
        <ele>672.8</ele>
        <time>2019-05-12T10:26:26Z</time>
      </trkpt>
      <trkpt lat="39.1483570" lon="-1.6354300">
        <ele>673.0</ele>
        <time>2019-05-12T10:26:27Z</time>
      </trkpt>
      <trkpt lat="39.1483450" lon="-1.6354650">
        <ele>673.4</ele>
        <time>2019-05-12T10:26:28Z</time>
      </trkpt>
      <trkpt lat="39.1483350" lon="-1.6354990">
        <ele>673.6</ele>
        <time>2019-05-12T10:26:29Z</time>
      </trkpt>
      <trkpt lat="39.1483280" lon="-1.6355280">
        <ele>673.8</ele>
        <time>2019-05-12T10:26:30Z</time>
      </trkpt>
      <trkpt lat="39.1483250" lon="-1.6355580">
        <ele>673.8</ele>
        <time>2019-05-12T10:26:31Z</time>
      </trkpt>
      <trkpt lat="39.1483250" lon="-1.6355890">
        <ele>673.8</ele>
        <time>2019-05-12T10:26:32Z</time>
      </trkpt>
      <trkpt lat="39.1483280" lon="-1.6356220">
        <ele>674.0</ele>
        <time>2019-05-12T10:26:33Z</time>
      </trkpt>
      <trkpt lat="39.1483300" lon="-1.6356530">
        <ele>674.0</ele>
        <time>2019-05-12T10:26:34Z</time>
      </trkpt>
      <trkpt lat="39.1483320" lon="-1.6356820">
        <ele>674.2</ele>
        <time>2019-05-12T10:26:35Z</time>
      </trkpt>
      <trkpt lat="39.1483370" lon="-1.6357060">
        <ele>674.6</ele>
        <time>2019-05-12T10:26:36Z</time>
      </trkpt>
      <trkpt lat="39.1483430" lon="-1.6357310">
        <ele>675.0</ele>
        <time>2019-05-12T10:26:37Z</time>
      </trkpt>
      <trkpt lat="39.1483480" lon="-1.6357590">
        <ele>675.4</ele>
        <time>2019-05-12T10:26:38Z</time>
      </trkpt>
      <trkpt lat="39.1483540" lon="-1.6357870">
        <ele>675.8</ele>
        <time>2019-05-12T10:26:39Z</time>
      </trkpt>
      <trkpt lat="39.1483600" lon="-1.6358150">
        <ele>676.4</ele>
        <time>2019-05-12T10:26:40Z</time>
      </trkpt>
      <trkpt lat="39.1483670" lon="-1.6358430">
        <ele>676.8</ele>
        <time>2019-05-12T10:26:41Z</time>
      </trkpt>
      <trkpt lat="39.1483720" lon="-1.6358700">
        <ele>677.4</ele>
        <time>2019-05-12T10:26:42Z</time>
      </trkpt>
      <trkpt lat="39.1483740" lon="-1.6358930">
        <ele>678.0</ele>
        <time>2019-05-12T10:26:43Z</time>
      </trkpt>
      <trkpt lat="39.1483780" lon="-1.6359150">
        <ele>678.4</ele>
        <time>2019-05-12T10:26:44Z</time>
      </trkpt>
      <trkpt lat="39.1483860" lon="-1.6359370">
        <ele>678.8</ele>
        <time>2019-05-12T10:26:45Z</time>
      </trkpt>
      <trkpt lat="39.1483930" lon="-1.6359640">
        <ele>679.0</ele>
        <time>2019-05-12T10:26:46Z</time>
      </trkpt>
      <trkpt lat="39.1484020" lon="-1.6359960">
        <ele>679.4</ele>
        <time>2019-05-12T10:26:47Z</time>
      </trkpt>
      <trkpt lat="39.1484150" lon="-1.6360350">
        <ele>679.6</ele>
        <time>2019-05-12T10:26:48Z</time>
      </trkpt>
      <trkpt lat="39.1484310" lon="-1.6360720">
        <ele>679.6</ele>
        <time>2019-05-12T10:26:49Z</time>
      </trkpt>
      <trkpt lat="39.1484510" lon="-1.6361100">
        <ele>679.8</ele>
        <time>2019-05-12T10:26:50Z</time>
      </trkpt>
      <trkpt lat="39.1484780" lon="-1.6361470">
        <ele>679.8</ele>
        <time>2019-05-12T10:26:51Z</time>
      </trkpt>
      <trkpt lat="39.1485100" lon="-1.6361860">
        <ele>679.8</ele>
        <time>2019-05-12T10:26:52Z</time>
      </trkpt>
      <trkpt lat="39.1485460" lon="-1.6362310">
        <ele>679.8</ele>
        <time>2019-05-12T10:26:53Z</time>
      </trkpt>
      <trkpt lat="39.1485850" lon="-1.6362820">
        <ele>679.8</ele>
        <time>2019-05-12T10:26:54Z</time>
      </trkpt>
      <trkpt lat="39.1486230" lon="-1.6363410">
        <ele>679.8</ele>
        <time>2019-05-12T10:26:55Z</time>
      </trkpt>
      <trkpt lat="39.1486560" lon="-1.6364060">
        <ele>679.8</ele>
        <time>2019-05-12T10:26:56Z</time>
      </trkpt>
      <trkpt lat="39.1486830" lon="-1.6364720">
        <ele>679.8</ele>
        <time>2019-05-12T10:26:57Z</time>
      </trkpt>
      <trkpt lat="39.1487080" lon="-1.6365320">
        <ele>679.4</ele>
        <time>2019-05-12T10:26:58Z</time>
      </trkpt>
      <trkpt lat="39.1487300" lon="-1.6365840">
        <ele>679.0</ele>
        <time>2019-05-12T10:26:59Z</time>
      </trkpt>
      <trkpt lat="39.1487510" lon="-1.6366380">
        <ele>678.4</ele>
        <time>2019-05-12T10:27:00Z</time>
      </trkpt>
      <trkpt lat="39.1487720" lon="-1.6366930">
        <ele>677.4</ele>
        <time>2019-05-12T10:27:01Z</time>
      </trkpt>
      <trkpt lat="39.1487960" lon="-1.6367410">
        <ele>676.4</ele>
        <time>2019-05-12T10:27:02Z</time>
      </trkpt>
      <trkpt lat="39.1488200" lon="-1.6367900">
        <ele>675.2</ele>
        <time>2019-05-12T10:27:03Z</time>
      </trkpt>
      <trkpt lat="39.1488490" lon="-1.6368390">
        <ele>674.0</ele>
        <time>2019-05-12T10:27:04Z</time>
      </trkpt>
      <trkpt lat="39.1488850" lon="-1.6368890">
        <ele>672.8</ele>
        <time>2019-05-12T10:27:05Z</time>
      </trkpt>
      <trkpt lat="39.1489310" lon="-1.6369440">
        <ele>671.8</ele>
        <time>2019-05-12T10:27:06Z</time>
      </trkpt>
      <trkpt lat="39.1489840" lon="-1.6370010">
        <ele>670.6</ele>
        <time>2019-05-12T10:27:07Z</time>
      </trkpt>
      <trkpt lat="39.1490450" lon="-1.6370550">
        <ele>669.8</ele>
        <time>2019-05-12T10:27:08Z</time>
      </trkpt>
      <trkpt lat="39.1491080" lon="-1.6371120">
        <ele>668.8</ele>
        <time>2019-05-12T10:27:09Z</time>
      </trkpt>
      <trkpt lat="39.1491690" lon="-1.6371780">
        <ele>667.6</ele>
        <time>2019-05-12T10:27:10Z</time>
      </trkpt>
      <trkpt lat="39.1492210" lon="-1.6372590">
        <ele>666.8</ele>
        <time>2019-05-12T10:27:11Z</time>
      </trkpt>
      <trkpt lat="39.1492660" lon="-1.6373480">
        <ele>666.2</ele>
        <time>2019-05-12T10:27:12Z</time>
      </trkpt>
      <trkpt lat="39.1493080" lon="-1.6374320">
        <ele>665.8</ele>
        <time>2019-05-12T10:27:13Z</time>
      </trkpt>
      <trkpt lat="39.1493450" lon="-1.6375110">
        <ele>665.0</ele>
        <time>2019-05-12T10:27:14Z</time>
      </trkpt>
      <trkpt lat="39.1493760" lon="-1.6375870">
        <ele>664.2</ele>
        <time>2019-05-12T10:27:15Z</time>
      </trkpt>
      <trkpt lat="39.1493920" lon="-1.6376680">
        <ele>663.2</ele>
        <time>2019-05-12T10:27:16Z</time>
      </trkpt>
      <trkpt lat="39.1493950" lon="-1.6377560">
        <ele>662.4</ele>
        <time>2019-05-12T10:27:17Z</time>
      </trkpt>
      <trkpt lat="39.1493850" lon="-1.6378500">
        <ele>661.6</ele>
        <time>2019-05-12T10:27:18Z</time>
      </trkpt>
      <trkpt lat="39.1493640" lon="-1.6379460">
        <ele>660.8</ele>
        <time>2019-05-12T10:27:19Z</time>
      </trkpt>
      <trkpt lat="39.1493250" lon="-1.6380410">
        <ele>660.2</ele>
        <time>2019-05-12T10:27:20Z</time>
      </trkpt>
      <trkpt lat="39.1492770" lon="-1.6381320">
        <ele>660.0</ele>
        <time>2019-05-12T10:27:21Z</time>
      </trkpt>
      <trkpt lat="39.1492350" lon="-1.6382320">
        <ele>659.6</ele>
        <time>2019-05-12T10:27:22Z</time>
      </trkpt>
      <trkpt lat="39.1492030" lon="-1.6383370">
        <ele>659.6</ele>
        <time>2019-05-12T10:27:23Z</time>
      </trkpt>
      <trkpt lat="39.1491650" lon="-1.6384340">
        <ele>659.4</ele>
        <time>2019-05-12T10:27:24Z</time>
      </trkpt>
      <trkpt lat="39.1491180" lon="-1.6385260">
        <ele>659.4</ele>
        <time>2019-05-12T10:27:25Z</time>
      </trkpt>
      <trkpt lat="39.1490690" lon="-1.6386170">
        <ele>658.4</ele>
        <time>2019-05-12T10:27:26Z</time>
      </trkpt>
      <trkpt lat="39.1490290" lon="-1.6387110">
        <ele>657.8</ele>
        <time>2019-05-12T10:27:27Z</time>
      </trkpt>
      <trkpt lat="39.1489960" lon="-1.6388060">
        <ele>657.4</ele>
        <time>2019-05-12T10:27:28Z</time>
      </trkpt>
      <trkpt lat="39.1489650" lon="-1.6389000">
        <ele>656.8</ele>
        <time>2019-05-12T10:27:29Z</time>
      </trkpt>
      <trkpt lat="39.1489450" lon="-1.6389950">
        <ele>656.4</ele>
        <time>2019-05-12T10:27:30Z</time>
      </trkpt>
      <trkpt lat="39.1489390" lon="-1.6390920">
        <ele>655.8</ele>
        <time>2019-05-12T10:27:31Z</time>
      </trkpt>
      <trkpt lat="39.1489370" lon="-1.6391850">
        <ele>655.4</ele>
        <time>2019-05-12T10:27:32Z</time>
      </trkpt>
      <trkpt lat="39.1489330" lon="-1.6392750">
        <ele>655.0</ele>
        <time>2019-05-12T10:27:33Z</time>
      </trkpt>
      <trkpt lat="39.1489250" lon="-1.6393630">
        <ele>654.6</ele>
        <time>2019-05-12T10:27:34Z</time>
      </trkpt>
      <trkpt lat="39.1489070" lon="-1.6394460">
        <ele>654.2</ele>
        <time>2019-05-12T10:27:35Z</time>
      </trkpt>
      <trkpt lat="39.1488820" lon="-1.6395270">
        <ele>653.6</ele>
        <time>2019-05-12T10:27:36Z</time>
      </trkpt>
      <trkpt lat="39.1488500" lon="-1.6396060">
        <ele>653.4</ele>
        <time>2019-05-12T10:27:37Z</time>
      </trkpt>
      <trkpt lat="39.1488170" lon="-1.6396870">
        <ele>653.2</ele>
        <time>2019-05-12T10:27:38Z</time>
      </trkpt>
      <trkpt lat="39.1487860" lon="-1.6397720">
        <ele>652.8</ele>
        <time>2019-05-12T10:27:39Z</time>
      </trkpt>
      <trkpt lat="39.1487550" lon="-1.6398570">
        <ele>652.6</ele>
        <time>2019-05-12T10:27:40Z</time>
      </trkpt>
      <trkpt lat="39.1487240" lon="-1.6399350">
        <ele>652.4</ele>
        <time>2019-05-12T10:27:41Z</time>
      </trkpt>
      <trkpt lat="39.1486910" lon="-1.6399990">
        <ele>652.4</ele>
        <time>2019-05-12T10:27:42Z</time>
      </trkpt>
      <trkpt lat="39.1486540" lon="-1.6400440">
        <ele>652.2</ele>
        <time>2019-05-12T10:27:43Z</time>
      </trkpt>
      <trkpt lat="39.1486050" lon="-1.6400790">
        <ele>652.2</ele>
        <time>2019-05-12T10:27:44Z</time>
      </trkpt>
      <trkpt lat="39.1485500" lon="-1.6401060">
        <ele>652.2</ele>
        <time>2019-05-12T10:27:45Z</time>
      </trkpt>
      <trkpt lat="39.1484970" lon="-1.6401200">
        <ele>652.2</ele>
        <time>2019-05-12T10:27:46Z</time>
      </trkpt>
      <trkpt lat="39.1484530" lon="-1.6401440">
        <ele>652.0</ele>
        <time>2019-05-12T10:27:47Z</time>
      </trkpt>
      <trkpt lat="39.1484230" lon="-1.6401860">
        <ele>651.8</ele>
        <time>2019-05-12T10:27:48Z</time>
      </trkpt>
      <trkpt lat="39.1484140" lon="-1.6402320">
        <ele>651.4</ele>
        <time>2019-05-12T10:27:49Z</time>
      </trkpt>
      <trkpt lat="39.1484200" lon="-1.6402760">
        <ele>651.0</ele>
        <time>2019-05-12T10:27:50Z</time>
      </trkpt>
      <trkpt lat="39.1484270" lon="-1.6403180">
        <ele>650.6</ele>
        <time>2019-05-12T10:27:51Z</time>
      </trkpt>
      <trkpt lat="39.1484320" lon="-1.6403640">
        <ele>650.4</ele>
        <time>2019-05-12T10:27:52Z</time>
      </trkpt>
      <trkpt lat="39.1484280" lon="-1.6404200">
        <ele>650.0</ele>
        <time>2019-05-12T10:27:53Z</time>
      </trkpt>
      <trkpt lat="39.1484130" lon="-1.6404870">
        <ele>649.4</ele>
        <time>2019-05-12T10:27:54Z</time>
      </trkpt>
      <trkpt lat="39.1484000" lon="-1.6405600">
        <ele>648.6</ele>
        <time>2019-05-12T10:27:55Z</time>
      </trkpt>
      <trkpt lat="39.1483870" lon="-1.6406380">
        <ele>648.2</ele>
        <time>2019-05-12T10:27:56Z</time>
      </trkpt>
      <trkpt lat="39.1483740" lon="-1.6407130">
        <ele>647.8</ele>
        <time>2019-05-12T10:27:57Z</time>
      </trkpt>
      <trkpt lat="39.1483620" lon="-1.6407820">
        <ele>647.4</ele>
        <time>2019-05-12T10:27:58Z</time>
      </trkpt>
      <trkpt lat="39.1483540" lon="-1.6408450">
        <ele>647.0</ele>
        <time>2019-05-12T10:27:59Z</time>
      </trkpt>
      <trkpt lat="39.1483460" lon="-1.6409080">
        <ele>646.4</ele>
        <time>2019-05-12T10:28:00Z</time>
      </trkpt>
      <trkpt lat="39.1483460" lon="-1.6409660">
        <ele>645.2</ele>
        <time>2019-05-12T10:28:01Z</time>
      </trkpt>
      <trkpt lat="39.1483420" lon="-1.6410260">
        <ele>644.8</ele>
        <time>2019-05-12T10:28:02Z</time>
      </trkpt>
      <trkpt lat="39.1483290" lon="-1.6410870">
        <ele>644.2</ele>
        <time>2019-05-12T10:28:03Z</time>
      </trkpt>
      <trkpt lat="39.1483070" lon="-1.6411530">
        <ele>643.6</ele>
        <time>2019-05-12T10:28:04Z</time>
      </trkpt>
      <trkpt lat="39.1482780" lon="-1.6412290">
        <ele>642.8</ele>
        <time>2019-05-12T10:28:05Z</time>
      </trkpt>
      <trkpt lat="39.1482460" lon="-1.6413210">
        <ele>642.2</ele>
        <time>2019-05-12T10:28:06Z</time>
      </trkpt>
      <trkpt lat="39.1482100" lon="-1.6414200">
        <ele>641.6</ele>
        <time>2019-05-12T10:28:07Z</time>
      </trkpt>
      <trkpt lat="39.1481770" lon="-1.6415210">
        <ele>640.6</ele>
        <time>2019-05-12T10:28:08Z</time>
      </trkpt>
      <trkpt lat="39.1481560" lon="-1.6416200">
        <ele>639.6</ele>
        <time>2019-05-12T10:28:09Z</time>
      </trkpt>
      <trkpt lat="39.1481520" lon="-1.6417070">
        <ele>638.6</ele>
        <time>2019-05-12T10:28:10Z</time>
      </trkpt>
      <trkpt lat="39.1481610" lon="-1.6417930">
        <ele>637.6</ele>
        <time>2019-05-12T10:28:11Z</time>
      </trkpt>
      <trkpt lat="39.1481710" lon="-1.6418840">
        <ele>636.6</ele>
        <time>2019-05-12T10:28:12Z</time>
      </trkpt>
      <trkpt lat="39.1481830" lon="-1.6419820">
        <ele>635.8</ele>
        <time>2019-05-12T10:28:13Z</time>
      </trkpt>
      <trkpt lat="39.1481920" lon="-1.6420790">
        <ele>634.6</ele>
        <time>2019-05-12T10:28:14Z</time>
      </trkpt>
      <trkpt lat="39.1481880" lon="-1.6421610">
        <ele>633.8</ele>
        <time>2019-05-12T10:28:15Z</time>
      </trkpt>
      <trkpt lat="39.1481770" lon="-1.6422330">
        <ele>632.6</ele>
        <time>2019-05-12T10:28:16Z</time>
      </trkpt>
      <trkpt lat="39.1481710" lon="-1.6422990">
        <ele>631.2</ele>
        <time>2019-05-12T10:28:17Z</time>
      </trkpt>
      <trkpt lat="39.1481720" lon="-1.6423510">
        <ele>630.2</ele>
        <time>2019-05-12T10:28:18Z</time>
      </trkpt>
      <trkpt lat="39.1481820" lon="-1.6423900">
        <ele>629.6</ele>
        <time>2019-05-12T10:28:19Z</time>
      </trkpt>
      <trkpt lat="39.1481960" lon="-1.6424300">
        <ele>629.2</ele>
        <time>2019-05-12T10:28:20Z</time>
      </trkpt>
      <trkpt lat="39.1482100" lon="-1.6424770">
        <ele>628.6</ele>
        <time>2019-05-12T10:28:21Z</time>
      </trkpt>
      <trkpt lat="39.1482300" lon="-1.6425300">
        <ele>627.6</ele>
        <time>2019-05-12T10:28:22Z</time>
      </trkpt>
      <trkpt lat="39.1482520" lon="-1.6425830">
        <ele>626.6</ele>
        <time>2019-05-12T10:28:23Z</time>
      </trkpt>
      <trkpt lat="39.1482720" lon="-1.6426360">
        <ele>626.0</ele>
        <time>2019-05-12T10:28:24Z</time>
      </trkpt>
      <trkpt lat="39.1482800" lon="-1.6426880">
        <ele>625.2</ele>
        <time>2019-05-12T10:28:25Z</time>
      </trkpt>
      <trkpt lat="39.1482770" lon="-1.6427410">
        <ele>624.6</ele>
        <time>2019-05-12T10:28:26Z</time>
      </trkpt>
      <trkpt lat="39.1482660" lon="-1.6427910">
        <ele>623.6</ele>
        <time>2019-05-12T10:28:27Z</time>
      </trkpt>
      <trkpt lat="39.1482440" lon="-1.6428440">
        <ele>622.6</ele>
        <time>2019-05-12T10:28:28Z</time>
      </trkpt>
      <trkpt lat="39.1482100" lon="-1.6428960">
        <ele>621.8</ele>
        <time>2019-05-12T10:28:29Z</time>
      </trkpt>
      <trkpt lat="39.1481750" lon="-1.6429540">
        <ele>621.0</ele>
        <time>2019-05-12T10:28:30Z</time>
      </trkpt>
      <trkpt lat="39.1481510" lon="-1.6430200">
        <ele>620.0</ele>
        <time>2019-05-12T10:28:31Z</time>
      </trkpt>
      <trkpt lat="39.1481460" lon="-1.6430920">
        <ele>619.4</ele>
        <time>2019-05-12T10:28:32Z</time>
      </trkpt>
      <trkpt lat="39.1481610" lon="-1.6431670">
        <ele>618.6</ele>
        <time>2019-05-12T10:28:33Z</time>
      </trkpt>
      <trkpt lat="39.1481830" lon="-1.6432430">
        <ele>617.6</ele>
        <time>2019-05-12T10:28:34Z</time>
      </trkpt>
      <trkpt lat="39.1481930" lon="-1.6433240">
        <ele>617.0</ele>
        <time>2019-05-12T10:28:35Z</time>
      </trkpt>
      <trkpt lat="39.1481820" lon="-1.6434050">
        <ele>616.0</ele>
        <time>2019-05-12T10:28:36Z</time>
      </trkpt>
      <trkpt lat="39.1481490" lon="-1.6434700">
        <ele>615.6</ele>
        <time>2019-05-12T10:28:37Z</time>
      </trkpt>
      <trkpt lat="39.1481030" lon="-1.6435160">
        <ele>615.2</ele>
        <time>2019-05-12T10:28:38Z</time>
      </trkpt>
      <trkpt lat="39.1480560" lon="-1.6435580">
        <ele>614.8</ele>
        <time>2019-05-12T10:28:39Z</time>
      </trkpt>
      <trkpt lat="39.1480230" lon="-1.6436050">
        <ele>614.4</ele>
        <time>2019-05-12T10:28:40Z</time>
      </trkpt>
      <trkpt lat="39.1480050" lon="-1.6436610">
        <ele>613.6</ele>
        <time>2019-05-12T10:28:41Z</time>
      </trkpt>
      <trkpt lat="39.1480090" lon="-1.6437160">
        <ele>613.2</ele>
        <time>2019-05-12T10:28:42Z</time>
      </trkpt>
      <trkpt lat="39.1480280" lon="-1.6437580">
        <ele>612.6</ele>
        <time>2019-05-12T10:28:43Z</time>
      </trkpt>
      <trkpt lat="39.1480540" lon="-1.6437940">
        <ele>612.2</ele>
        <time>2019-05-12T10:28:44Z</time>
      </trkpt>
      <trkpt lat="39.1480790" lon="-1.6438320">
        <ele>612.0</ele>
        <time>2019-05-12T10:28:45Z</time>
      </trkpt>
      <trkpt lat="39.1481010" lon="-1.6438750">
        <ele>611.4</ele>
        <time>2019-05-12T10:28:46Z</time>
      </trkpt>
      <trkpt lat="39.1481220" lon="-1.6439230">
        <ele>611.2</ele>
        <time>2019-05-12T10:28:47Z</time>
      </trkpt>
      <trkpt lat="39.1481420" lon="-1.6439750">
        <ele>611.2</ele>
        <time>2019-05-12T10:28:48Z</time>
      </trkpt>
      <trkpt lat="39.1481620" lon="-1.6440290">
        <ele>611.0</ele>
        <time>2019-05-12T10:28:49Z</time>
      </trkpt>
      <trkpt lat="39.1481750" lon="-1.6440890">
        <ele>611.0</ele>
        <time>2019-05-12T10:28:50Z</time>
      </trkpt>
      <trkpt lat="39.1481800" lon="-1.6441520">
        <ele>611.0</ele>
        <time>2019-05-12T10:28:51Z</time>
      </trkpt>
      <trkpt lat="39.1481740" lon="-1.6442180">
        <ele>611.0</ele>
        <time>2019-05-12T10:28:52Z</time>
      </trkpt>
      <trkpt lat="39.1481620" lon="-1.6442840">
        <ele>611.0</ele>
        <time>2019-05-12T10:28:53Z</time>
      </trkpt>
      <trkpt lat="39.1481460" lon="-1.6443490">
        <ele>611.0</ele>
        <time>2019-05-12T10:28:54Z</time>
      </trkpt>
      <trkpt lat="39.1481280" lon="-1.6444120">
        <ele>611.0</ele>
        <time>2019-05-12T10:28:55Z</time>
      </trkpt>
      <trkpt lat="39.1481090" lon="-1.6444730">
        <ele>611.0</ele>
        <time>2019-05-12T10:28:56Z</time>
      </trkpt>
      <trkpt lat="39.1480900" lon="-1.6445330">
        <ele>611.2</ele>
        <time>2019-05-12T10:28:57Z</time>
      </trkpt>
      <trkpt lat="39.1480720" lon="-1.6445930">
        <ele>611.4</ele>
        <time>2019-05-12T10:28:58Z</time>
      </trkpt>
      <trkpt lat="39.1480540" lon="-1.6446530">
        <ele>611.4</ele>
        <time>2019-05-12T10:28:59Z</time>
      </trkpt>
      <trkpt lat="39.1480370" lon="-1.6447110">
        <ele>611.4</ele>
        <time>2019-05-12T10:29:00Z</time>
      </trkpt>
      <trkpt lat="39.1480190" lon="-1.6447680">
        <ele>611.4</ele>
        <time>2019-05-12T10:29:01Z</time>
      </trkpt>
      <trkpt lat="39.1480030" lon="-1.6448240">
        <ele>611.6</ele>
        <time>2019-05-12T10:29:02Z</time>
      </trkpt>
      <trkpt lat="39.1479880" lon="-1.6448790">
        <ele>611.6</ele>
        <time>2019-05-12T10:29:03Z</time>
      </trkpt>
      <trkpt lat="39.1479720" lon="-1.6449330">
        <ele>611.6</ele>
        <time>2019-05-12T10:29:04Z</time>
      </trkpt>
      <trkpt lat="39.1479560" lon="-1.6449860">
        <ele>611.6</ele>
        <time>2019-05-12T10:29:05Z</time>
      </trkpt>
      <trkpt lat="39.1479400" lon="-1.6450390">
        <ele>611.6</ele>
        <time>2019-05-12T10:29:06Z</time>
      </trkpt>
      <trkpt lat="39.1479240" lon="-1.6450910">
        <ele>611.6</ele>
        <time>2019-05-12T10:29:07Z</time>
      </trkpt>
      <trkpt lat="39.1479080" lon="-1.6451420">
        <ele>611.8</ele>
        <time>2019-05-12T10:29:08Z</time>
      </trkpt>
      <trkpt lat="39.1478890" lon="-1.6451940">
        <ele>611.8</ele>
        <time>2019-05-12T10:29:09Z</time>
      </trkpt>
      <trkpt lat="39.1478670" lon="-1.6452420">
        <ele>611.8</ele>
        <time>2019-05-12T10:29:10Z</time>
      </trkpt>
      <trkpt lat="39.1478390" lon="-1.6452890">
        <ele>612.2</ele>
        <time>2019-05-12T10:29:11Z</time>
      </trkpt>
      <trkpt lat="39.1478080" lon="-1.6453310">
        <ele>612.4</ele>
        <time>2019-05-12T10:29:12Z</time>
      </trkpt>
      <trkpt lat="39.1477750" lon="-1.6453670">
        <ele>612.8</ele>
        <time>2019-05-12T10:29:13Z</time>
      </trkpt>
      <trkpt lat="39.1477410" lon="-1.6454010">
        <ele>613.0</ele>
        <time>2019-05-12T10:29:14Z</time>
      </trkpt>
      <trkpt lat="39.1477080" lon="-1.6454350">
        <ele>613.0</ele>
        <time>2019-05-12T10:29:15Z</time>
      </trkpt>
      <trkpt lat="39.1476760" lon="-1.6454720">
        <ele>613.2</ele>
        <time>2019-05-12T10:29:16Z</time>
      </trkpt>
      <trkpt lat="39.1476460" lon="-1.6455120">
        <ele>613.2</ele>
        <time>2019-05-12T10:29:17Z</time>
      </trkpt>
      <trkpt lat="39.1476180" lon="-1.6455560">
        <ele>613.2</ele>
        <time>2019-05-12T10:29:18Z</time>
      </trkpt>
      <trkpt lat="39.1475900" lon="-1.6455990">
        <ele>613.4</ele>
        <time>2019-05-12T10:29:19Z</time>
      </trkpt>
      <trkpt lat="39.1475610" lon="-1.6456410">
        <ele>613.4</ele>
        <time>2019-05-12T10:29:20Z</time>
      </trkpt>
      <trkpt lat="39.1475320" lon="-1.6456830">
        <ele>613.4</ele>
        <time>2019-05-12T10:29:21Z</time>
      </trkpt>
      <trkpt lat="39.1474950" lon="-1.6457180">
        <ele>613.6</ele>
        <time>2019-05-12T10:29:22Z</time>
      </trkpt>
      <trkpt lat="39.1474520" lon="-1.6457470">
        <ele>613.6</ele>
        <time>2019-05-12T10:29:23Z</time>
      </trkpt>
      <trkpt lat="39.1474060" lon="-1.6457700">
        <ele>613.8</ele>
        <time>2019-05-12T10:29:24Z</time>
      </trkpt>
      <trkpt lat="39.1473580" lon="-1.6457860">
        <ele>614.0</ele>
        <time>2019-05-12T10:29:25Z</time>
      </trkpt>
      <trkpt lat="39.1473070" lon="-1.6457990">
        <ele>614.0</ele>
        <time>2019-05-12T10:29:26Z</time>
      </trkpt>
      <trkpt lat="39.1472560" lon="-1.6458120">
        <ele>614.2</ele>
        <time>2019-05-12T10:29:27Z</time>
      </trkpt>
      <trkpt lat="39.1472030" lon="-1.6458240">
        <ele>614.2</ele>
        <time>2019-05-12T10:29:28Z</time>
      </trkpt>
      <trkpt lat="39.1471490" lon="-1.6458360">
        <ele>614.2</ele>
        <time>2019-05-12T10:29:29Z</time>
      </trkpt>
      <trkpt lat="39.1470920" lon="-1.6458520">
        <ele>614.2</ele>
        <time>2019-05-12T10:29:30Z</time>
      </trkpt>
      <trkpt lat="39.1470360" lon="-1.6458720">
        <ele>614.2</ele>
        <time>2019-05-12T10:29:31Z</time>
      </trkpt>
      <trkpt lat="39.1469810" lon="-1.6458980">
        <ele>614.2</ele>
        <time>2019-05-12T10:29:32Z</time>
      </trkpt>
      <trkpt lat="39.1469270" lon="-1.6459290">
        <ele>614.2</ele>
        <time>2019-05-12T10:29:33Z</time>
      </trkpt>
      <trkpt lat="39.1468740" lon="-1.6459640">
        <ele>614.2</ele>
        <time>2019-05-12T10:29:34Z</time>
      </trkpt>
      <trkpt lat="39.1468210" lon="-1.6460000">
        <ele>614.2</ele>
        <time>2019-05-12T10:29:35Z</time>
      </trkpt>
      <trkpt lat="39.1467680" lon="-1.6460400">
        <ele>614.2</ele>
        <time>2019-05-12T10:29:36Z</time>
      </trkpt>
      <trkpt lat="39.1467150" lon="-1.6460820">
        <ele>614.2</ele>
        <time>2019-05-12T10:29:37Z</time>
      </trkpt>
      <trkpt lat="39.1466610" lon="-1.6461250">
        <ele>614.4</ele>
        <time>2019-05-12T10:29:38Z</time>
      </trkpt>
      <trkpt lat="39.1466050" lon="-1.6461710">
        <ele>614.4</ele>
        <time>2019-05-12T10:29:39Z</time>
      </trkpt>
      <trkpt lat="39.1465480" lon="-1.6462160">
        <ele>614.4</ele>
        <time>2019-05-12T10:29:40Z</time>
      </trkpt>
      <trkpt lat="39.1464910" lon="-1.6462580">
        <ele>614.4</ele>
        <time>2019-05-12T10:29:41Z</time>
      </trkpt>
      <trkpt lat="39.1464320" lon="-1.6462970">
        <ele>614.4</ele>
        <time>2019-05-12T10:29:42Z</time>
      </trkpt>
      <trkpt lat="39.1463710" lon="-1.6463340">
        <ele>614.4</ele>
        <time>2019-05-12T10:29:43Z</time>
      </trkpt>
      <trkpt lat="39.1463070" lon="-1.6463660">
        <ele>614.4</ele>
        <time>2019-05-12T10:29:44Z</time>
      </trkpt>
      <trkpt lat="39.1462430" lon="-1.6463950">
        <ele>614.4</ele>
        <time>2019-05-12T10:29:45Z</time>
      </trkpt>
      <trkpt lat="39.1461780" lon="-1.6464270">
        <ele>614.4</ele>
        <time>2019-05-12T10:29:46Z</time>
      </trkpt>
      <trkpt lat="39.1461130" lon="-1.6464560">
        <ele>614.4</ele>
        <time>2019-05-12T10:29:47Z</time>
      </trkpt>
      <trkpt lat="39.1460500" lon="-1.6464870">
        <ele>614.4</ele>
        <time>2019-05-12T10:29:48Z</time>
      </trkpt>
      <trkpt lat="39.1459890" lon="-1.6465230">
        <ele>614.2</ele>
        <time>2019-05-12T10:29:49Z</time>
      </trkpt>
      <trkpt lat="39.1459310" lon="-1.6465630">
        <ele>614.2</ele>
        <time>2019-05-12T10:29:50Z</time>
      </trkpt>
      <trkpt lat="39.1458730" lon="-1.6466020">
        <ele>614.2</ele>
        <time>2019-05-12T10:29:51Z</time>
      </trkpt>
      <trkpt lat="39.1458140" lon="-1.6466390">
        <ele>614.2</ele>
        <time>2019-05-12T10:29:52Z</time>
      </trkpt>
      <trkpt lat="39.1457550" lon="-1.6466780">
        <ele>614.0</ele>
        <time>2019-05-12T10:29:53Z</time>
      </trkpt>
      <trkpt lat="39.1456940" lon="-1.6467180">
        <ele>614.0</ele>
        <time>2019-05-12T10:29:54Z</time>
      </trkpt>
      <trkpt lat="39.1456310" lon="-1.6467590">
        <ele>614.0</ele>
        <time>2019-05-12T10:29:55Z</time>
      </trkpt>
      <trkpt lat="39.1455690" lon="-1.6468010">
        <ele>614.0</ele>
        <time>2019-05-12T10:29:56Z</time>
      </trkpt>
      <trkpt lat="39.1455080" lon="-1.6468410">
        <ele>614.0</ele>
        <time>2019-05-12T10:29:57Z</time>
      </trkpt>
      <trkpt lat="39.1454480" lon="-1.6468810">
        <ele>613.8</ele>
        <time>2019-05-12T10:29:58Z</time>
      </trkpt>
      <trkpt lat="39.1453890" lon="-1.6469210">
        <ele>613.8</ele>
        <time>2019-05-12T10:29:59Z</time>
      </trkpt>
      <trkpt lat="39.1453280" lon="-1.6469570">
        <ele>613.8</ele>
        <time>2019-05-12T10:30:00Z</time>
      </trkpt>
      <trkpt lat="39.1452670" lon="-1.6469880">
        <ele>613.8</ele>
        <time>2019-05-12T10:30:01Z</time>
      </trkpt>
      <trkpt lat="39.1452040" lon="-1.6470170">
        <ele>613.8</ele>
        <time>2019-05-12T10:30:02Z</time>
      </trkpt>
      <trkpt lat="39.1451420" lon="-1.6470460">
        <ele>613.8</ele>
        <time>2019-05-12T10:30:03Z</time>
      </trkpt>
      <trkpt lat="39.1450800" lon="-1.6470700">
        <ele>613.8</ele>
        <time>2019-05-12T10:30:04Z</time>
      </trkpt>
      <trkpt lat="39.1450190" lon="-1.6470870">
        <ele>613.6</ele>
        <time>2019-05-12T10:30:05Z</time>
      </trkpt>
      <trkpt lat="39.1449620" lon="-1.6471050">
        <ele>613.6</ele>
        <time>2019-05-12T10:30:06Z</time>
      </trkpt>
      <trkpt lat="39.1449100" lon="-1.6471330">
        <ele>613.6</ele>
        <time>2019-05-12T10:30:07Z</time>
      </trkpt>
      <trkpt lat="39.1448620" lon="-1.6471680">
        <ele>613.6</ele>
        <time>2019-05-12T10:30:08Z</time>
      </trkpt>
      <trkpt lat="39.1448180" lon="-1.6472100">
        <ele>613.6</ele>
        <time>2019-05-12T10:30:09Z</time>
      </trkpt>
      <trkpt lat="39.1447760" lon="-1.6472560">
        <ele>613.6</ele>
        <time>2019-05-12T10:30:10Z</time>
      </trkpt>
      <trkpt lat="39.1447330" lon="-1.6473030">
        <ele>613.6</ele>
        <time>2019-05-12T10:30:11Z</time>
      </trkpt>
      <trkpt lat="39.1446870" lon="-1.6473470">
        <ele>613.8</ele>
        <time>2019-05-12T10:30:12Z</time>
      </trkpt>
      <trkpt lat="39.1446390" lon="-1.6473910">
        <ele>613.8</ele>
        <time>2019-05-12T10:30:13Z</time>
      </trkpt>
      <trkpt lat="39.1445940" lon="-1.6474440">
        <ele>613.8</ele>
        <time>2019-05-12T10:30:14Z</time>
      </trkpt>
      <trkpt lat="39.1445540" lon="-1.6475080">
        <ele>613.8</ele>
        <time>2019-05-12T10:30:15Z</time>
      </trkpt>
      <trkpt lat="39.1445190" lon="-1.6475760">
        <ele>613.8</ele>
        <time>2019-05-12T10:30:16Z</time>
      </trkpt>
      <trkpt lat="39.1444810" lon="-1.6476430">
        <ele>613.8</ele>
        <time>2019-05-12T10:30:17Z</time>
      </trkpt>
      <trkpt lat="39.1444410" lon="-1.6477120">
        <ele>613.8</ele>
        <time>2019-05-12T10:30:18Z</time>
      </trkpt>
      <trkpt lat="39.1443990" lon="-1.6477830">
        <ele>613.8</ele>
        <time>2019-05-12T10:30:19Z</time>
      </trkpt>
      <trkpt lat="39.1443580" lon="-1.6478580">
        <ele>613.8</ele>
        <time>2019-05-12T10:30:20Z</time>
      </trkpt>
      <trkpt lat="39.1443180" lon="-1.6479380">
        <ele>613.8</ele>
        <time>2019-05-12T10:30:21Z</time>
      </trkpt>
      <trkpt lat="39.1442760" lon="-1.6480190">
        <ele>613.8</ele>
        <time>2019-05-12T10:30:22Z</time>
      </trkpt>
      <trkpt lat="39.1442360" lon="-1.6481030">
        <ele>613.8</ele>
        <time>2019-05-12T10:30:23Z</time>
      </trkpt>
      <trkpt lat="39.1442000" lon="-1.6481900">
        <ele>613.8</ele>
        <time>2019-05-12T10:30:24Z</time>
      </trkpt>
      <trkpt lat="39.1441680" lon="-1.6482770">
        <ele>613.8</ele>
        <time>2019-05-12T10:30:25Z</time>
      </trkpt>
      <trkpt lat="39.1441400" lon="-1.6483680">
        <ele>614.0</ele>
        <time>2019-05-12T10:30:26Z</time>
      </trkpt>
      <trkpt lat="39.1441150" lon="-1.6484590">
        <ele>613.6</ele>
        <time>2019-05-12T10:30:27Z</time>
      </trkpt>
      <trkpt lat="39.1440930" lon="-1.6485520">
        <ele>613.6</ele>
        <time>2019-05-12T10:30:28Z</time>
      </trkpt>
      <trkpt lat="39.1440750" lon="-1.6486470">
        <ele>613.6</ele>
        <time>2019-05-12T10:30:29Z</time>
      </trkpt>
      <trkpt lat="39.1440550" lon="-1.6487350">
        <ele>613.4</ele>
        <time>2019-05-12T10:30:30Z</time>
      </trkpt>
      <trkpt lat="39.1440320" lon="-1.6488220">
        <ele>613.4</ele>
        <time>2019-05-12T10:30:31Z</time>
      </trkpt>
      <trkpt lat="39.1440160" lon="-1.6489120">
        <ele>613.2</ele>
        <time>2019-05-12T10:30:32Z</time>
      </trkpt>
      <trkpt lat="39.1440000" lon="-1.6490040">
        <ele>613.2</ele>
        <time>2019-05-12T10:30:33Z</time>
      </trkpt>
      <trkpt lat="39.1439810" lon="-1.6490960">
        <ele>613.2</ele>
        <time>2019-05-12T10:30:34Z</time>
      </trkpt>
      <trkpt lat="39.1439620" lon="-1.6491850">
        <ele>613.2</ele>
        <time>2019-05-12T10:30:35Z</time>
      </trkpt>
      <trkpt lat="39.1439450" lon="-1.6492720">
        <ele>613.2</ele>
        <time>2019-05-12T10:30:36Z</time>
      </trkpt>
      <trkpt lat="39.1439310" lon="-1.6493580">
        <ele>613.2</ele>
        <time>2019-05-12T10:30:37Z</time>
      </trkpt>
      <trkpt lat="39.1439210" lon="-1.6494440">
        <ele>613.2</ele>
        <time>2019-05-12T10:30:38Z</time>
      </trkpt>
      <trkpt lat="39.1439120" lon="-1.6495310">
        <ele>613.2</ele>
        <time>2019-05-12T10:30:39Z</time>
      </trkpt>
      <trkpt lat="39.1439020" lon="-1.6496190">
        <ele>613.2</ele>
        <time>2019-05-12T10:30:40Z</time>
      </trkpt>
      <trkpt lat="39.1438870" lon="-1.6497110">
        <ele>613.2</ele>
        <time>2019-05-12T10:30:41Z</time>
      </trkpt>
      <trkpt lat="39.1438690" lon="-1.6498030">
        <ele>613.2</ele>
        <time>2019-05-12T10:30:42Z</time>
      </trkpt>
      <trkpt lat="39.1438490" lon="-1.6498950">
        <ele>613.2</ele>
        <time>2019-05-12T10:30:43Z</time>
      </trkpt>
      <trkpt lat="39.1438310" lon="-1.6499880">
        <ele>613.2</ele>
        <time>2019-05-12T10:30:44Z</time>
      </trkpt>
      <trkpt lat="39.1438160" lon="-1.6500820">
        <ele>613.2</ele>
        <time>2019-05-12T10:30:45Z</time>
      </trkpt>
      <trkpt lat="39.1438060" lon="-1.6501770">
        <ele>613.2</ele>
        <time>2019-05-12T10:30:46Z</time>
      </trkpt>
      <trkpt lat="39.1437960" lon="-1.6502720">
        <ele>613.4</ele>
        <time>2019-05-12T10:30:47Z</time>
      </trkpt>
      <trkpt lat="39.1437890" lon="-1.6503660">
        <ele>613.4</ele>
        <time>2019-05-12T10:30:48Z</time>
      </trkpt>
      <trkpt lat="39.1437870" lon="-1.6504610">
        <ele>613.4</ele>
        <time>2019-05-12T10:30:49Z</time>
      </trkpt>
      <trkpt lat="39.1437840" lon="-1.6505540">
        <ele>613.4</ele>
        <time>2019-05-12T10:30:50Z</time>
      </trkpt>
      <trkpt lat="39.1437820" lon="-1.6506470">
        <ele>613.4</ele>
        <time>2019-05-12T10:30:51Z</time>
      </trkpt>
      <trkpt lat="39.1437820" lon="-1.6507390">
        <ele>613.4</ele>
        <time>2019-05-12T10:30:52Z</time>
      </trkpt>
      <trkpt lat="39.1437820" lon="-1.6508310">
        <ele>613.4</ele>
        <time>2019-05-12T10:30:53Z</time>
      </trkpt>
      <trkpt lat="39.1437830" lon="-1.6509220">
        <ele>613.4</ele>
        <time>2019-05-12T10:30:54Z</time>
      </trkpt>
      <trkpt lat="39.1437860" lon="-1.6510110">
        <ele>613.4</ele>
        <time>2019-05-12T10:30:55Z</time>
      </trkpt>
      <trkpt lat="39.1437920" lon="-1.6510990">
        <ele>613.6</ele>
        <time>2019-05-12T10:30:56Z</time>
      </trkpt>
      <trkpt lat="39.1437990" lon="-1.6511850">
        <ele>613.6</ele>
        <time>2019-05-12T10:30:57Z</time>
      </trkpt>
      <trkpt lat="39.1438080" lon="-1.6512700">
        <ele>613.6</ele>
        <time>2019-05-12T10:30:58Z</time>
      </trkpt>
      <trkpt lat="39.1438170" lon="-1.6513560">
        <ele>613.6</ele>
        <time>2019-05-12T10:30:59Z</time>
      </trkpt>
      <trkpt lat="39.1438280" lon="-1.6514410">
        <ele>613.8</ele>
        <time>2019-05-12T10:31:00Z</time>
      </trkpt>
      <trkpt lat="39.1438420" lon="-1.6515270">
        <ele>614.0</ele>
        <time>2019-05-12T10:31:01Z</time>
      </trkpt>
      <trkpt lat="39.1438610" lon="-1.6516110">
        <ele>614.2</ele>
        <time>2019-05-12T10:31:02Z</time>
      </trkpt>
      <trkpt lat="39.1438830" lon="-1.6516930">
        <ele>614.6</ele>
        <time>2019-05-12T10:31:03Z</time>
      </trkpt>
      <trkpt lat="39.1439080" lon="-1.6517740">
        <ele>614.6</ele>
        <time>2019-05-12T10:31:04Z</time>
      </trkpt>
      <trkpt lat="39.1439360" lon="-1.6518540">
        <ele>614.8</ele>
        <time>2019-05-12T10:31:05Z</time>
      </trkpt>
      <trkpt lat="39.1439680" lon="-1.6519310">
        <ele>614.8</ele>
        <time>2019-05-12T10:31:06Z</time>
      </trkpt>
      <trkpt lat="39.1439990" lon="-1.6520070">
        <ele>614.8</ele>
        <time>2019-05-12T10:31:07Z</time>
      </trkpt>
      <trkpt lat="39.1440280" lon="-1.6520840">
        <ele>615.0</ele>
        <time>2019-05-12T10:31:08Z</time>
      </trkpt>
      <trkpt lat="39.1440570" lon="-1.6521610">
        <ele>615.0</ele>
        <time>2019-05-12T10:31:09Z</time>
      </trkpt>
      <trkpt lat="39.1440870" lon="-1.6522370">
        <ele>615.0</ele>
        <time>2019-05-12T10:31:10Z</time>
      </trkpt>
      <trkpt lat="39.1441170" lon="-1.6523110">
        <ele>615.0</ele>
        <time>2019-05-12T10:31:11Z</time>
      </trkpt>
      <trkpt lat="39.1441470" lon="-1.6523850">
        <ele>615.0</ele>
        <time>2019-05-12T10:31:12Z</time>
      </trkpt>
      <trkpt lat="39.1441760" lon="-1.6524580">
        <ele>615.0</ele>
        <time>2019-05-12T10:31:13Z</time>
      </trkpt>
      <trkpt lat="39.1442050" lon="-1.6525320">
        <ele>615.0</ele>
        <time>2019-05-12T10:31:14Z</time>
      </trkpt>
      <trkpt lat="39.1442300" lon="-1.6526060">
        <ele>615.0</ele>
        <time>2019-05-12T10:31:15Z</time>
      </trkpt>
      <trkpt lat="39.1442530" lon="-1.6526820">
        <ele>615.0</ele>
        <time>2019-05-12T10:31:16Z</time>
      </trkpt>
      <trkpt lat="39.1442750" lon="-1.6527570">
        <ele>615.0</ele>
        <time>2019-05-12T10:31:17Z</time>
      </trkpt>
      <trkpt lat="39.1442990" lon="-1.6528310">
        <ele>615.0</ele>
        <time>2019-05-12T10:31:18Z</time>
      </trkpt>
      <trkpt lat="39.1443260" lon="-1.6529030">
        <ele>615.0</ele>
        <time>2019-05-12T10:31:19Z</time>
      </trkpt>
      <trkpt lat="39.1443510" lon="-1.6529770">
        <ele>615.0</ele>
        <time>2019-05-12T10:31:20Z</time>
      </trkpt>
      <trkpt lat="39.1443740" lon="-1.6530540">
        <ele>615.0</ele>
        <time>2019-05-12T10:31:21Z</time>
      </trkpt>
      <trkpt lat="39.1443950" lon="-1.6531330">
        <ele>615.2</ele>
        <time>2019-05-12T10:31:22Z</time>
      </trkpt>
      <trkpt lat="39.1444140" lon="-1.6532120">
        <ele>615.2</ele>
        <time>2019-05-12T10:31:23Z</time>
      </trkpt>
      <trkpt lat="39.1444280" lon="-1.6532940">
        <ele>615.2</ele>
        <time>2019-05-12T10:31:24Z</time>
      </trkpt>
      <trkpt lat="39.1444380" lon="-1.6533770">
        <ele>615.4</ele>
        <time>2019-05-12T10:31:25Z</time>
      </trkpt>
      <trkpt lat="39.1444440" lon="-1.6534610">
        <ele>615.4</ele>
        <time>2019-05-12T10:31:26Z</time>
      </trkpt>
      <trkpt lat="39.1444460" lon="-1.6535460">
        <ele>615.6</ele>
        <time>2019-05-12T10:31:27Z</time>
      </trkpt>
      <trkpt lat="39.1444450" lon="-1.6536300">
        <ele>615.6</ele>
        <time>2019-05-12T10:31:28Z</time>
      </trkpt>
      <trkpt lat="39.1444440" lon="-1.6537110">
        <ele>615.6</ele>
        <time>2019-05-12T10:31:29Z</time>
      </trkpt>
      <trkpt lat="39.1444440" lon="-1.6537890">
        <ele>615.8</ele>
        <time>2019-05-12T10:31:30Z</time>
      </trkpt>
      <trkpt lat="39.1444520" lon="-1.6538610">
        <ele>616.0</ele>
        <time>2019-05-12T10:31:31Z</time>
      </trkpt>
      <trkpt lat="39.1444770" lon="-1.6539190">
        <ele>616.0</ele>
        <time>2019-05-12T10:31:32Z</time>
      </trkpt>
      <trkpt lat="39.1445190" lon="-1.6539550">
        <ele>616.2</ele>
        <time>2019-05-12T10:31:33Z</time>
      </trkpt>
      <trkpt lat="39.1445670" lon="-1.6539570">
        <ele>616.2</ele>
        <time>2019-05-12T10:31:34Z</time>
      </trkpt>
      <trkpt lat="39.1446160" lon="-1.6539320">
        <ele>616.2</ele>
        <time>2019-05-12T10:31:35Z</time>
      </trkpt>
      <trkpt lat="39.1446620" lon="-1.6538900">
        <ele>616.4</ele>
        <time>2019-05-12T10:31:36Z</time>
      </trkpt>
      <trkpt lat="39.1447090" lon="-1.6538410">
        <ele>616.4</ele>
        <time>2019-05-12T10:31:37Z</time>
      </trkpt>
      <trkpt lat="39.1447570" lon="-1.6537910">
        <ele>616.4</ele>
        <time>2019-05-12T10:31:38Z</time>
      </trkpt>
      <trkpt lat="39.1448030" lon="-1.6537390">
        <ele>616.4</ele>
        <time>2019-05-12T10:31:39Z</time>
      </trkpt>
      <trkpt lat="39.1448480" lon="-1.6536880">
        <ele>616.4</ele>
        <time>2019-05-12T10:31:40Z</time>
      </trkpt>
      <trkpt lat="39.1448970" lon="-1.6536410">
        <ele>616.4</ele>
        <time>2019-05-12T10:31:41Z</time>
      </trkpt>
      <trkpt lat="39.1449460" lon="-1.6535940">
        <ele>616.4</ele>
        <time>2019-05-12T10:31:42Z</time>
      </trkpt>
      <trkpt lat="39.1449960" lon="-1.6535460">
        <ele>616.4</ele>
        <time>2019-05-12T10:31:43Z</time>
      </trkpt>
      <trkpt lat="39.1450440" lon="-1.6534950">
        <ele>616.4</ele>
        <time>2019-05-12T10:31:44Z</time>
      </trkpt>
      <trkpt lat="39.1450930" lon="-1.6534460">
        <ele>616.2</ele>
        <time>2019-05-12T10:31:45Z</time>
      </trkpt>
      <trkpt lat="39.1451410" lon="-1.6533950">
        <ele>616.2</ele>
        <time>2019-05-12T10:31:46Z</time>
      </trkpt>
      <trkpt lat="39.1451870" lon="-1.6533410">
        <ele>616.0</ele>
        <time>2019-05-12T10:31:47Z</time>
      </trkpt>
      <trkpt lat="39.1452320" lon="-1.6532870">
        <ele>616.0</ele>
        <time>2019-05-12T10:31:48Z</time>
      </trkpt>
      <trkpt lat="39.1452760" lon="-1.6532330">
        <ele>615.8</ele>
        <time>2019-05-12T10:31:49Z</time>
      </trkpt>
      <trkpt lat="39.1453160" lon="-1.6531740">
        <ele>615.6</ele>
        <time>2019-05-12T10:31:50Z</time>
      </trkpt>
      <trkpt lat="39.1453580" lon="-1.6531170">
        <ele>615.4</ele>
        <time>2019-05-12T10:31:51Z</time>
      </trkpt>
      <trkpt lat="39.1454090" lon="-1.6530720">
        <ele>615.2</ele>
        <time>2019-05-12T10:31:52Z</time>
      </trkpt>
      <trkpt lat="39.1454700" lon="-1.6530490">
        <ele>615.0</ele>
        <time>2019-05-12T10:31:53Z</time>
      </trkpt>
      <trkpt lat="39.1455350" lon="-1.6530460">
        <ele>614.8</ele>
        <time>2019-05-12T10:31:54Z</time>
      </trkpt>
      <trkpt lat="39.1455980" lon="-1.6530550">
        <ele>614.6</ele>
        <time>2019-05-12T10:31:55Z</time>
      </trkpt>
      <trkpt lat="39.1456560" lon="-1.6530810">
        <ele>614.4</ele>
        <time>2019-05-12T10:31:56Z</time>
      </trkpt>
      <trkpt lat="39.1457060" lon="-1.6531230">
        <ele>614.0</ele>
        <time>2019-05-12T10:31:57Z</time>
      </trkpt>
      <trkpt lat="39.1457510" lon="-1.6531820">
        <ele>614.0</ele>
        <time>2019-05-12T10:31:58Z</time>
      </trkpt>
      <trkpt lat="39.1457900" lon="-1.6532450">
        <ele>613.8</ele>
        <time>2019-05-12T10:31:59Z</time>
      </trkpt>
      <trkpt lat="39.1458250" lon="-1.6533130">
        <ele>613.6</ele>
        <time>2019-05-12T10:32:00Z</time>
      </trkpt>
      <trkpt lat="39.1458550" lon="-1.6533900">
        <ele>613.6</ele>
        <time>2019-05-12T10:32:01Z</time>
      </trkpt>
      <trkpt lat="39.1458780" lon="-1.6534720">
        <ele>613.6</ele>
        <time>2019-05-12T10:32:02Z</time>
      </trkpt>
      <trkpt lat="39.1458980" lon="-1.6535560">
        <ele>613.4</ele>
        <time>2019-05-12T10:32:03Z</time>
      </trkpt>
      <trkpt lat="39.1459210" lon="-1.6536380">
        <ele>613.4</ele>
        <time>2019-05-12T10:32:04Z</time>
      </trkpt>
      <trkpt lat="39.1459500" lon="-1.6537180">
        <ele>613.4</ele>
        <time>2019-05-12T10:32:05Z</time>
      </trkpt>
      <trkpt lat="39.1459900" lon="-1.6537910">
        <ele>613.4</ele>
        <time>2019-05-12T10:32:06Z</time>
      </trkpt>
      <trkpt lat="39.1460380" lon="-1.6538570">
        <ele>613.4</ele>
        <time>2019-05-12T10:32:07Z</time>
      </trkpt>
      <trkpt lat="39.1460870" lon="-1.6539220">
        <ele>613.4</ele>
        <time>2019-05-12T10:32:08Z</time>
      </trkpt>
      <trkpt lat="39.1461360" lon="-1.6539840">
        <ele>613.4</ele>
        <time>2019-05-12T10:32:09Z</time>
      </trkpt>
      <trkpt lat="39.1461880" lon="-1.6540420">
        <ele>613.4</ele>
        <time>2019-05-12T10:32:10Z</time>
      </trkpt>
      <trkpt lat="39.1462460" lon="-1.6540880">
        <ele>613.4</ele>
        <time>2019-05-12T10:32:11Z</time>
      </trkpt>
      <trkpt lat="39.1463070" lon="-1.6541210">
        <ele>613.4</ele>
        <time>2019-05-12T10:32:12Z</time>
      </trkpt>
      <trkpt lat="39.1463690" lon="-1.6541480">
        <ele>613.4</ele>
        <time>2019-05-12T10:32:13Z</time>
      </trkpt>
      <trkpt lat="39.1464300" lon="-1.6541770">
        <ele>613.4</ele>
        <time>2019-05-12T10:32:14Z</time>
      </trkpt>
      <trkpt lat="39.1464890" lon="-1.6542120">
        <ele>613.4</ele>
        <time>2019-05-12T10:32:15Z</time>
      </trkpt>
      <trkpt lat="39.1465450" lon="-1.6542530">
        <ele>613.6</ele>
        <time>2019-05-12T10:32:16Z</time>
      </trkpt>
      <trkpt lat="39.1465970" lon="-1.6543000">
        <ele>613.4</ele>
        <time>2019-05-12T10:32:17Z</time>
      </trkpt>
      <trkpt lat="39.1466470" lon="-1.6543490">
        <ele>613.4</ele>
        <time>2019-05-12T10:32:18Z</time>
      </trkpt>
      <trkpt lat="39.1466940" lon="-1.6543980">
        <ele>613.6</ele>
        <time>2019-05-12T10:32:19Z</time>
      </trkpt>
      <trkpt lat="39.1467400" lon="-1.6544480">
        <ele>613.6</ele>
        <time>2019-05-12T10:32:20Z</time>
      </trkpt>
      <trkpt lat="39.1467890" lon="-1.6544950">
        <ele>613.6</ele>
        <time>2019-05-12T10:32:21Z</time>
      </trkpt>
      <trkpt lat="39.1468420" lon="-1.6545380">
        <ele>613.6</ele>
        <time>2019-05-12T10:32:22Z</time>
      </trkpt>
      <trkpt lat="39.1468980" lon="-1.6545790">
        <ele>613.6</ele>
        <time>2019-05-12T10:32:23Z</time>
      </trkpt>
      <trkpt lat="39.1469570" lon="-1.6546120">
        <ele>613.8</ele>
        <time>2019-05-12T10:32:24Z</time>
      </trkpt>
      <trkpt lat="39.1470210" lon="-1.6546330">
        <ele>613.8</ele>
        <time>2019-05-12T10:32:25Z</time>
      </trkpt>
      <trkpt lat="39.1470870" lon="-1.6546350">
        <ele>613.8</ele>
        <time>2019-05-12T10:32:26Z</time>
      </trkpt>
      <trkpt lat="39.1471510" lon="-1.6546150">
        <ele>613.8</ele>
        <time>2019-05-12T10:32:27Z</time>
      </trkpt>
      <trkpt lat="39.1472120" lon="-1.6545740">
        <ele>613.8</ele>
        <time>2019-05-12T10:32:28Z</time>
      </trkpt>
      <trkpt lat="39.1472660" lon="-1.6545180">
        <ele>613.8</ele>
        <time>2019-05-12T10:32:29Z</time>
      </trkpt>
      <trkpt lat="39.1473130" lon="-1.6544490">
        <ele>614.0</ele>
        <time>2019-05-12T10:32:30Z</time>
      </trkpt>
      <trkpt lat="39.1473440" lon="-1.6543660">
        <ele>614.0</ele>
        <time>2019-05-12T10:32:31Z</time>
      </trkpt>
      <trkpt lat="39.1473640" lon="-1.6542760">
        <ele>614.0</ele>
        <time>2019-05-12T10:32:32Z</time>
      </trkpt>
      <trkpt lat="39.1473830" lon="-1.6541830">
        <ele>614.0</ele>
        <time>2019-05-12T10:32:33Z</time>
      </trkpt>
      <trkpt lat="39.1474070" lon="-1.6540970">
        <ele>614.0</ele>
        <time>2019-05-12T10:32:34Z</time>
      </trkpt>
      <trkpt lat="39.1474430" lon="-1.6540280">
        <ele>614.0</ele>
        <time>2019-05-12T10:32:35Z</time>
      </trkpt>
      <trkpt lat="39.1474930" lon="-1.6539870">
        <ele>614.0</ele>
        <time>2019-05-12T10:32:36Z</time>
      </trkpt>
      <trkpt lat="39.1475490" lon="-1.6539760">
        <ele>613.8</ele>
        <time>2019-05-12T10:32:37Z</time>
      </trkpt>
      <trkpt lat="39.1476040" lon="-1.6539860">
        <ele>613.6</ele>
        <time>2019-05-12T10:32:38Z</time>
      </trkpt>
      <trkpt lat="39.1476570" lon="-1.6540050">
        <ele>613.6</ele>
        <time>2019-05-12T10:32:39Z</time>
      </trkpt>
      <trkpt lat="39.1477100" lon="-1.6540310">
        <ele>613.4</ele>
        <time>2019-05-12T10:32:40Z</time>
      </trkpt>
      <trkpt lat="39.1477650" lon="-1.6540620">
        <ele>613.4</ele>
        <time>2019-05-12T10:32:41Z</time>
      </trkpt>
      <trkpt lat="39.1478210" lon="-1.6540940">
        <ele>613.2</ele>
        <time>2019-05-12T10:32:42Z</time>
      </trkpt>
      <trkpt lat="39.1478760" lon="-1.6541350">
        <ele>613.2</ele>
        <time>2019-05-12T10:32:43Z</time>
      </trkpt>
      <trkpt lat="39.1479250" lon="-1.6541870">
        <ele>613.2</ele>
        <time>2019-05-12T10:32:44Z</time>
      </trkpt>
      <trkpt lat="39.1479670" lon="-1.6542490">
        <ele>613.0</ele>
        <time>2019-05-12T10:32:45Z</time>
      </trkpt>
      <trkpt lat="39.1480000" lon="-1.6543180">
        <ele>613.0</ele>
        <time>2019-05-12T10:32:46Z</time>
      </trkpt>
      <trkpt lat="39.1480200" lon="-1.6543950">
        <ele>613.0</ele>
        <time>2019-05-12T10:32:47Z</time>
      </trkpt>
      <trkpt lat="39.1480330" lon="-1.6544750">
        <ele>612.8</ele>
        <time>2019-05-12T10:32:48Z</time>
      </trkpt>
      <trkpt lat="39.1480420" lon="-1.6545590">
        <ele>612.8</ele>
        <time>2019-05-12T10:32:49Z</time>
      </trkpt>
      <trkpt lat="39.1480540" lon="-1.6546400">
        <ele>612.8</ele>
        <time>2019-05-12T10:32:50Z</time>
      </trkpt>
      <trkpt lat="39.1480680" lon="-1.6547200">
        <ele>612.8</ele>
        <time>2019-05-12T10:32:51Z</time>
      </trkpt>
      <trkpt lat="39.1480870" lon="-1.6547990">
        <ele>612.8</ele>
        <time>2019-05-12T10:32:52Z</time>
      </trkpt>
      <trkpt lat="39.1481150" lon="-1.6548780">
        <ele>612.8</ele>
        <time>2019-05-12T10:32:53Z</time>
      </trkpt>
      <trkpt lat="39.1481500" lon="-1.6549550">
        <ele>612.8</ele>
        <time>2019-05-12T10:32:54Z</time>
      </trkpt>
      <trkpt lat="39.1481900" lon="-1.6550280">
        <ele>612.8</ele>
        <time>2019-05-12T10:32:55Z</time>
      </trkpt>
      <trkpt lat="39.1482360" lon="-1.6550960">
        <ele>612.8</ele>
        <time>2019-05-12T10:32:56Z</time>
      </trkpt>
      <trkpt lat="39.1482890" lon="-1.6551510">
        <ele>612.8</ele>
        <time>2019-05-12T10:32:57Z</time>
      </trkpt>
      <trkpt lat="39.1483500" lon="-1.6551870">
        <ele>612.8</ele>
        <time>2019-05-12T10:32:58Z</time>
      </trkpt>
      <trkpt lat="39.1484150" lon="-1.6552060">
        <ele>612.8</ele>
        <time>2019-05-12T10:32:59Z</time>
      </trkpt>
      <trkpt lat="39.1484800" lon="-1.6552200">
        <ele>612.8</ele>
        <time>2019-05-12T10:33:00Z</time>
      </trkpt>
      <trkpt lat="39.1485370" lon="-1.6552510">
        <ele>612.8</ele>
        <time>2019-05-12T10:33:01Z</time>
      </trkpt>
      <trkpt lat="39.1485810" lon="-1.6553040">
        <ele>612.8</ele>
        <time>2019-05-12T10:33:02Z</time>
      </trkpt>
      <trkpt lat="39.1486120" lon="-1.6553690">
        <ele>612.8</ele>
        <time>2019-05-12T10:33:03Z</time>
      </trkpt>
      <trkpt lat="39.1486370" lon="-1.6554410">
        <ele>612.8</ele>
        <time>2019-05-12T10:33:04Z</time>
      </trkpt>
      <trkpt lat="39.1486600" lon="-1.6555160">
        <ele>612.8</ele>
        <time>2019-05-12T10:33:05Z</time>
      </trkpt>
      <trkpt lat="39.1486800" lon="-1.6555910">
        <ele>612.8</ele>
        <time>2019-05-12T10:33:06Z</time>
      </trkpt>
      <trkpt lat="39.1486860" lon="-1.6556660">
        <ele>612.8</ele>
        <time>2019-05-12T10:33:07Z</time>
      </trkpt>
      <trkpt lat="39.1486730" lon="-1.6557300">
        <ele>612.8</ele>
        <time>2019-05-12T10:33:08Z</time>
      </trkpt>
      <trkpt lat="39.1486490" lon="-1.6557770">
        <ele>612.8</ele>
        <time>2019-05-12T10:33:09Z</time>
      </trkpt>
      <trkpt lat="39.1486200" lon="-1.6558160">
        <ele>612.8</ele>
        <time>2019-05-12T10:33:10Z</time>
      </trkpt>
      <trkpt lat="39.1485910" lon="-1.6558520">
        <ele>612.8</ele>
        <time>2019-05-12T10:33:11Z</time>
      </trkpt>
      <trkpt lat="39.1485620" lon="-1.6558920">
        <ele>612.8</ele>
        <time>2019-05-12T10:33:12Z</time>
      </trkpt>
      <trkpt lat="39.1485380" lon="-1.6559370">
        <ele>612.8</ele>
        <time>2019-05-12T10:33:13Z</time>
      </trkpt>
      <trkpt lat="39.1485170" lon="-1.6559870">
        <ele>613.0</ele>
        <time>2019-05-12T10:33:14Z</time>
      </trkpt>
      <trkpt lat="39.1485000" lon="-1.6560370">
        <ele>613.2</ele>
        <time>2019-05-12T10:33:15Z</time>
      </trkpt>
      <trkpt lat="39.1484870" lon="-1.6560900">
        <ele>613.4</ele>
        <time>2019-05-12T10:33:16Z</time>
      </trkpt>
      <trkpt lat="39.1484740" lon="-1.6561420">
        <ele>613.6</ele>
        <time>2019-05-12T10:33:17Z</time>
      </trkpt>
      <trkpt lat="39.1484620" lon="-1.6561960">
        <ele>614.0</ele>
        <time>2019-05-12T10:33:18Z</time>
      </trkpt>
      <trkpt lat="39.1484530" lon="-1.6562520">
        <ele>614.2</ele>
        <time>2019-05-12T10:33:19Z</time>
      </trkpt>
      <trkpt lat="39.1484470" lon="-1.6563100">
        <ele>614.4</ele>
        <time>2019-05-12T10:33:20Z</time>
      </trkpt>
      <trkpt lat="39.1484420" lon="-1.6563680">
        <ele>614.6</ele>
        <time>2019-05-12T10:33:21Z</time>
      </trkpt>
      <trkpt lat="39.1484400" lon="-1.6564260">
        <ele>614.8</ele>
        <time>2019-05-12T10:33:22Z</time>
      </trkpt>
      <trkpt lat="39.1484400" lon="-1.6564840">
        <ele>615.0</ele>
        <time>2019-05-12T10:33:23Z</time>
      </trkpt>
      <trkpt lat="39.1484380" lon="-1.6565410">
        <ele>615.2</ele>
        <time>2019-05-12T10:33:24Z</time>
      </trkpt>
      <trkpt lat="39.1484340" lon="-1.6565980">
        <ele>615.4</ele>
        <time>2019-05-12T10:33:25Z</time>
      </trkpt>
      <trkpt lat="39.1484250" lon="-1.6566530">
        <ele>615.4</ele>
        <time>2019-05-12T10:33:26Z</time>
      </trkpt>
      <trkpt lat="39.1484140" lon="-1.6567090">
        <ele>615.6</ele>
        <time>2019-05-12T10:33:27Z</time>
      </trkpt>
      <trkpt lat="39.1483990" lon="-1.6567660">
        <ele>615.8</ele>
        <time>2019-05-12T10:33:28Z</time>
      </trkpt>
      <trkpt lat="39.1483790" lon="-1.6568200">
        <ele>616.0</ele>
        <time>2019-05-12T10:33:29Z</time>
      </trkpt>
      <trkpt lat="39.1483570" lon="-1.6568730">
        <ele>616.2</ele>
        <time>2019-05-12T10:33:30Z</time>
      </trkpt>
      <trkpt lat="39.1483340" lon="-1.6569240">
        <ele>616.4</ele>
        <time>2019-05-12T10:33:31Z</time>
      </trkpt>
      <trkpt lat="39.1483090" lon="-1.6569720">
        <ele>616.8</ele>
        <time>2019-05-12T10:33:32Z</time>
      </trkpt>
      <trkpt lat="39.1482800" lon="-1.6570190">
        <ele>617.0</ele>
        <time>2019-05-12T10:33:33Z</time>
      </trkpt>
      <trkpt lat="39.1482460" lon="-1.6570630">
        <ele>617.2</ele>
        <time>2019-05-12T10:33:34Z</time>
      </trkpt>
      <trkpt lat="39.1482070" lon="-1.6571000">
        <ele>617.4</ele>
        <time>2019-05-12T10:33:35Z</time>
      </trkpt>
      <trkpt lat="39.1481640" lon="-1.6571310">
        <ele>617.6</ele>
        <time>2019-05-12T10:33:36Z</time>
      </trkpt>
      <trkpt lat="39.1481200" lon="-1.6571570">
        <ele>617.6</ele>
        <time>2019-05-12T10:33:37Z</time>
      </trkpt>
      <trkpt lat="39.1480770" lon="-1.6571800">
        <ele>617.8</ele>
        <time>2019-05-12T10:33:38Z</time>
      </trkpt>
      <trkpt lat="39.1480340" lon="-1.6572030">
        <ele>617.8</ele>
        <time>2019-05-12T10:33:39Z</time>
      </trkpt>
      <trkpt lat="39.1479950" lon="-1.6572280">
        <ele>617.8</ele>
        <time>2019-05-12T10:33:40Z</time>
      </trkpt>
      <trkpt lat="39.1479580" lon="-1.6572550">
        <ele>617.8</ele>
        <time>2019-05-12T10:33:41Z</time>
      </trkpt>
      <trkpt lat="39.1479250" lon="-1.6572830">
        <ele>618.0</ele>
        <time>2019-05-12T10:33:42Z</time>
      </trkpt>
      <trkpt lat="39.1478940" lon="-1.6573120">
        <ele>618.0</ele>
        <time>2019-05-12T10:33:43Z</time>
      </trkpt>
      <trkpt lat="39.1478660" lon="-1.6573420">
        <ele>618.0</ele>
        <time>2019-05-12T10:33:44Z</time>
      </trkpt>
      <trkpt lat="39.1478390" lon="-1.6573700">
        <ele>618.0</ele>
        <time>2019-05-12T10:33:45Z</time>
      </trkpt>
      <trkpt lat="39.1478120" lon="-1.6573930">
        <ele>618.2</ele>
        <time>2019-05-12T10:33:46Z</time>
      </trkpt>
      <trkpt lat="39.1477850" lon="-1.6574160">
        <ele>618.2</ele>
        <time>2019-05-12T10:33:47Z</time>
      </trkpt>
      <trkpt lat="39.1477610" lon="-1.6574420">
        <ele>618.2</ele>
        <time>2019-05-12T10:33:48Z</time>
      </trkpt>
      <trkpt lat="39.1477380" lon="-1.6574700">
        <ele>618.6</ele>
        <time>2019-05-12T10:33:49Z</time>
      </trkpt>
      <trkpt lat="39.1477160" lon="-1.6574970">
        <ele>619.0</ele>
        <time>2019-05-12T10:33:50Z</time>
      </trkpt>
      <trkpt lat="39.1476960" lon="-1.6575260">
        <ele>619.2</ele>
        <time>2019-05-12T10:33:51Z</time>
      </trkpt>
      <trkpt lat="39.1476760" lon="-1.6575550">
        <ele>619.4</ele>
        <time>2019-05-12T10:33:52Z</time>
      </trkpt>
      <trkpt lat="39.1476570" lon="-1.6575830">
        <ele>619.6</ele>
        <time>2019-05-12T10:33:53Z</time>
      </trkpt>
      <trkpt lat="39.1476390" lon="-1.6576110">
        <ele>620.0</ele>
        <time>2019-05-12T10:33:54Z</time>
      </trkpt>
      <trkpt lat="39.1476210" lon="-1.6576400">
        <ele>620.2</ele>
        <time>2019-05-12T10:33:55Z</time>
      </trkpt>
      <trkpt lat="39.1476030" lon="-1.6576690">
        <ele>620.4</ele>
        <time>2019-05-12T10:33:56Z</time>
      </trkpt>
      <trkpt lat="39.1475850" lon="-1.6576980">
        <ele>620.8</ele>
        <time>2019-05-12T10:33:57Z</time>
      </trkpt>
      <trkpt lat="39.1475690" lon="-1.6577290">
        <ele>621.0</ele>
        <time>2019-05-12T10:33:58Z</time>
      </trkpt>
      <trkpt lat="39.1475540" lon="-1.6577620">
        <ele>621.2</ele>
        <time>2019-05-12T10:33:59Z</time>
      </trkpt>
      <trkpt lat="39.1475400" lon="-1.6577940">
        <ele>621.4</ele>
        <time>2019-05-12T10:34:00Z</time>
      </trkpt>
      <trkpt lat="39.1475260" lon="-1.6578270">
        <ele>621.6</ele>
        <time>2019-05-12T10:34:01Z</time>
      </trkpt>
      <trkpt lat="39.1475130" lon="-1.6578610">
        <ele>621.8</ele>
        <time>2019-05-12T10:34:02Z</time>
      </trkpt>
      <trkpt lat="39.1475040" lon="-1.6578960">
        <ele>621.8</ele>
        <time>2019-05-12T10:34:03Z</time>
      </trkpt>
      <trkpt lat="39.1474950" lon="-1.6579320">
        <ele>622.0</ele>
        <time>2019-05-12T10:34:04Z</time>
      </trkpt>
      <trkpt lat="39.1474850" lon="-1.6579670">
        <ele>622.2</ele>
        <time>2019-05-12T10:34:05Z</time>
      </trkpt>
      <trkpt lat="39.1474720" lon="-1.6580010">
        <ele>622.4</ele>
        <time>2019-05-12T10:34:06Z</time>
      </trkpt>
      <trkpt lat="39.1474590" lon="-1.6580360">
        <ele>622.8</ele>
        <time>2019-05-12T10:34:07Z</time>
      </trkpt>
      <trkpt lat="39.1474460" lon="-1.6580720">
        <ele>623.2</ele>
        <time>2019-05-12T10:34:08Z</time>
      </trkpt>
      <trkpt lat="39.1474330" lon="-1.6581090">
        <ele>623.4</ele>
        <time>2019-05-12T10:34:09Z</time>
      </trkpt>
      <trkpt lat="39.1474200" lon="-1.6581470">
        <ele>623.6</ele>
        <time>2019-05-12T10:34:10Z</time>
      </trkpt>
      <trkpt lat="39.1474070" lon="-1.6581860">
        <ele>624.0</ele>
        <time>2019-05-12T10:34:11Z</time>
      </trkpt>
      <trkpt lat="39.1473950" lon="-1.6582240">
        <ele>624.2</ele>
        <time>2019-05-12T10:34:12Z</time>
      </trkpt>
      <trkpt lat="39.1473820" lon="-1.6582610">
        <ele>624.4</ele>
        <time>2019-05-12T10:34:13Z</time>
      </trkpt>
      <trkpt lat="39.1473690" lon="-1.6582990">
        <ele>624.6</ele>
        <time>2019-05-12T10:34:14Z</time>
      </trkpt>
      <trkpt lat="39.1473560" lon="-1.6583360">
        <ele>624.8</ele>
        <time>2019-05-12T10:34:15Z</time>
      </trkpt>
      <trkpt lat="39.1473440" lon="-1.6583750">
        <ele>625.0</ele>
        <time>2019-05-12T10:34:16Z</time>
      </trkpt>
      <trkpt lat="39.1473340" lon="-1.6584150">
        <ele>625.2</ele>
        <time>2019-05-12T10:34:17Z</time>
      </trkpt>
      <trkpt lat="39.1473240" lon="-1.6584550">
        <ele>625.4</ele>
        <time>2019-05-12T10:34:18Z</time>
      </trkpt>
      <trkpt lat="39.1473130" lon="-1.6584950">
        <ele>625.4</ele>
        <time>2019-05-12T10:34:19Z</time>
      </trkpt>
      <trkpt lat="39.1473020" lon="-1.6585340">
        <ele>625.6</ele>
        <time>2019-05-12T10:34:20Z</time>
      </trkpt>
      <trkpt lat="39.1472890" lon="-1.6585720">
        <ele>625.8</ele>
        <time>2019-05-12T10:34:21Z</time>
      </trkpt>
      <trkpt lat="39.1472760" lon="-1.6586090">
        <ele>625.8</ele>
        <time>2019-05-12T10:34:22Z</time>
      </trkpt>
      <trkpt lat="39.1472640" lon="-1.6586450">
        <ele>626.0</ele>
        <time>2019-05-12T10:34:23Z</time>
      </trkpt>
      <trkpt lat="39.1472520" lon="-1.6586820">
        <ele>626.2</ele>
        <time>2019-05-12T10:34:24Z</time>
      </trkpt>
      <trkpt lat="39.1472400" lon="-1.6587190">
        <ele>626.4</ele>
        <time>2019-05-12T10:34:25Z</time>
      </trkpt>
      <trkpt lat="39.1472280" lon="-1.6587560">
        <ele>626.6</ele>
        <time>2019-05-12T10:34:26Z</time>
      </trkpt>
      <trkpt lat="39.1472140" lon="-1.6587900">
        <ele>626.6</ele>
        <time>2019-05-12T10:34:27Z</time>
      </trkpt>
      <trkpt lat="39.1472020" lon="-1.6588240">
        <ele>626.8</ele>
        <time>2019-05-12T10:34:28Z</time>
      </trkpt>
      <trkpt lat="39.1471900" lon="-1.6588590">
        <ele>626.8</ele>
        <time>2019-05-12T10:34:29Z</time>
      </trkpt>
      <trkpt lat="39.1471760" lon="-1.6588940">
        <ele>626.8</ele>
        <time>2019-05-12T10:34:30Z</time>
      </trkpt>
      <trkpt lat="39.1471610" lon="-1.6589300">
        <ele>627.0</ele>
        <time>2019-05-12T10:34:31Z</time>
      </trkpt>
      <trkpt lat="39.1471450" lon="-1.6589640">
        <ele>627.4</ele>
        <time>2019-05-12T10:34:32Z</time>
      </trkpt>
      <trkpt lat="39.1471260" lon="-1.6589980">
        <ele>627.6</ele>
        <time>2019-05-12T10:34:33Z</time>
      </trkpt>
      <trkpt lat="39.1471080" lon="-1.6590320">
        <ele>627.6</ele>
        <time>2019-05-12T10:34:34Z</time>
      </trkpt>
      <trkpt lat="39.1470880" lon="-1.6590650">
        <ele>627.8</ele>
        <time>2019-05-12T10:34:35Z</time>
      </trkpt>
      <trkpt lat="39.1470680" lon="-1.6590980">
        <ele>628.0</ele>
        <time>2019-05-12T10:34:36Z</time>
      </trkpt>
      <trkpt lat="39.1470450" lon="-1.6591290">
        <ele>628.2</ele>
        <time>2019-05-12T10:34:37Z</time>
      </trkpt>
      <trkpt lat="39.1470210" lon="-1.6591560">
        <ele>628.6</ele>
        <time>2019-05-12T10:34:38Z</time>
      </trkpt>
      <trkpt lat="39.1469940" lon="-1.6591790">
        <ele>628.6</ele>
        <time>2019-05-12T10:34:39Z</time>
      </trkpt>
      <trkpt lat="39.1469670" lon="-1.6592000">
        <ele>629.0</ele>
        <time>2019-05-12T10:34:40Z</time>
      </trkpt>
      <trkpt lat="39.1469390" lon="-1.6592190">
        <ele>629.2</ele>
        <time>2019-05-12T10:34:41Z</time>
      </trkpt>
      <trkpt lat="39.1469100" lon="-1.6592390">
        <ele>629.4</ele>
        <time>2019-05-12T10:34:42Z</time>
      </trkpt>
      <trkpt lat="39.1468810" lon="-1.6592560">
        <ele>629.4</ele>
        <time>2019-05-12T10:34:43Z</time>
      </trkpt>
      <trkpt lat="39.1468510" lon="-1.6592710">
        <ele>629.6</ele>
        <time>2019-05-12T10:34:44Z</time>
      </trkpt>
      <trkpt lat="39.1468190" lon="-1.6592840">
        <ele>630.0</ele>
        <time>2019-05-12T10:34:45Z</time>
      </trkpt>
      <trkpt lat="39.1467870" lon="-1.6592980">
        <ele>630.2</ele>
        <time>2019-05-12T10:34:46Z</time>
      </trkpt>
      <trkpt lat="39.1467540" lon="-1.6593120">
        <ele>630.6</ele>
        <time>2019-05-12T10:34:47Z</time>
      </trkpt>
      <trkpt lat="39.1467210" lon="-1.6593250">
        <ele>630.8</ele>
        <time>2019-05-12T10:34:48Z</time>
      </trkpt>
      <trkpt lat="39.1466880" lon="-1.6593390">
        <ele>631.0</ele>
        <time>2019-05-12T10:34:49Z</time>
      </trkpt>
      <trkpt lat="39.1466550" lon="-1.6593530">
        <ele>631.2</ele>
        <time>2019-05-12T10:34:50Z</time>
      </trkpt>
      <trkpt lat="39.1466220" lon="-1.6593660">
        <ele>631.4</ele>
        <time>2019-05-12T10:34:51Z</time>
      </trkpt>
      <trkpt lat="39.1465890" lon="-1.6593790">
        <ele>631.6</ele>
        <time>2019-05-12T10:34:52Z</time>
      </trkpt>
      <trkpt lat="39.1465570" lon="-1.6593940">
        <ele>631.8</ele>
        <time>2019-05-12T10:34:53Z</time>
      </trkpt>
      <trkpt lat="39.1465250" lon="-1.6594110">
        <ele>631.8</ele>
        <time>2019-05-12T10:34:54Z</time>
      </trkpt>
      <trkpt lat="39.1464930" lon="-1.6594270">
        <ele>632.0</ele>
        <time>2019-05-12T10:34:55Z</time>
      </trkpt>
      <trkpt lat="39.1464620" lon="-1.6594450">
        <ele>632.2</ele>
        <time>2019-05-12T10:34:56Z</time>
      </trkpt>
      <trkpt lat="39.1464320" lon="-1.6594650">
        <ele>632.2</ele>
        <time>2019-05-12T10:34:57Z</time>
      </trkpt>
      <trkpt lat="39.1464040" lon="-1.6594880">
        <ele>632.4</ele>
        <time>2019-05-12T10:34:58Z</time>
      </trkpt>
      <trkpt lat="39.1463760" lon="-1.6595150">
        <ele>632.8</ele>
        <time>2019-05-12T10:34:59Z</time>
      </trkpt>
      <trkpt lat="39.1463500" lon="-1.6595440">
        <ele>633.0</ele>
        <time>2019-05-12T10:35:00Z</time>
      </trkpt>
      <trkpt lat="39.1463250" lon="-1.6595770">
        <ele>633.2</ele>
        <time>2019-05-12T10:35:01Z</time>
      </trkpt>
      <trkpt lat="39.1462990" lon="-1.6596100">
        <ele>633.4</ele>
        <time>2019-05-12T10:35:02Z</time>
      </trkpt>
      <trkpt lat="39.1462730" lon="-1.6596430">
        <ele>633.6</ele>
        <time>2019-05-12T10:35:03Z</time>
      </trkpt>
      <trkpt lat="39.1462470" lon="-1.6596760">
        <ele>633.6</ele>
        <time>2019-05-12T10:35:04Z</time>
      </trkpt>
      <trkpt lat="39.1462210" lon="-1.6597080">
        <ele>633.8</ele>
        <time>2019-05-12T10:35:05Z</time>
      </trkpt>
      <trkpt lat="39.1461960" lon="-1.6597400">
        <ele>634.0</ele>
        <time>2019-05-12T10:35:06Z</time>
      </trkpt>
      <trkpt lat="39.1461710" lon="-1.6597720">
        <ele>634.2</ele>
        <time>2019-05-12T10:35:07Z</time>
      </trkpt>
      <trkpt lat="39.1461470" lon="-1.6598040">
        <ele>634.2</ele>
        <time>2019-05-12T10:35:08Z</time>
      </trkpt>
      <trkpt lat="39.1461210" lon="-1.6598330">
        <ele>634.4</ele>
        <time>2019-05-12T10:35:09Z</time>
      </trkpt>
      <trkpt lat="39.1460950" lon="-1.6598610">
        <ele>634.6</ele>
        <time>2019-05-12T10:35:10Z</time>
      </trkpt>
      <trkpt lat="39.1460700" lon="-1.6598920">
        <ele>634.6</ele>
        <time>2019-05-12T10:35:11Z</time>
      </trkpt>
      <trkpt lat="39.1460430" lon="-1.6599250">
        <ele>634.8</ele>
        <time>2019-05-12T10:35:12Z</time>
      </trkpt>
      <trkpt lat="39.1460170" lon="-1.6599540">
        <ele>635.0</ele>
        <time>2019-05-12T10:35:13Z</time>
      </trkpt>
      <trkpt lat="39.1459910" lon="-1.6599800">
        <ele>635.0</ele>
        <time>2019-05-12T10:35:14Z</time>
      </trkpt>
      <trkpt lat="39.1459600" lon="-1.6600070">
        <ele>635.2</ele>
        <time>2019-05-12T10:35:15Z</time>
      </trkpt>
      <trkpt lat="39.1459290" lon="-1.6600330">
        <ele>635.2</ele>
        <time>2019-05-12T10:35:16Z</time>
      </trkpt>
      <trkpt lat="39.1458940" lon="-1.6600580">
        <ele>635.6</ele>
        <time>2019-05-12T10:35:17Z</time>
      </trkpt>
      <trkpt lat="39.1458590" lon="-1.6600890">
        <ele>635.8</ele>
        <time>2019-05-12T10:35:18Z</time>
      </trkpt>
      <trkpt lat="39.1458290" lon="-1.6601290">
        <ele>635.8</ele>
        <time>2019-05-12T10:35:19Z</time>
      </trkpt>
      <trkpt lat="39.1458010" lon="-1.6601740">
        <ele>636.0</ele>
        <time>2019-05-12T10:35:20Z</time>
      </trkpt>
      <trkpt lat="39.1457740" lon="-1.6602150">
        <ele>636.2</ele>
        <time>2019-05-12T10:35:21Z</time>
      </trkpt>
      <trkpt lat="39.1457480" lon="-1.6602480">
        <ele>636.2</ele>
        <time>2019-05-12T10:35:22Z</time>
      </trkpt>
      <trkpt lat="39.1457230" lon="-1.6602800">
        <ele>636.2</ele>
        <time>2019-05-12T10:35:23Z</time>
      </trkpt>
      <trkpt lat="39.1457020" lon="-1.6603100">
        <ele>636.4</ele>
        <time>2019-05-12T10:35:24Z</time>
      </trkpt>
      <trkpt lat="39.1456840" lon="-1.6603400">
        <ele>636.6</ele>
        <time>2019-05-12T10:35:25Z</time>
      </trkpt>
      <trkpt lat="39.1456660" lon="-1.6603690">
        <ele>636.6</ele>
        <time>2019-05-12T10:35:26Z</time>
      </trkpt>
      <trkpt lat="39.1456490" lon="-1.6603940">
        <ele>636.6</ele>
        <time>2019-05-12T10:35:27Z</time>
      </trkpt>
      <trkpt lat="39.1456300" lon="-1.6604160">
        <ele>636.6</ele>
        <time>2019-05-12T10:35:28Z</time>
      </trkpt>
      <trkpt lat="39.1456110" lon="-1.6604360">
        <ele>636.8</ele>
        <time>2019-05-12T10:35:29Z</time>
      </trkpt>
      <trkpt lat="39.1455900" lon="-1.6604540">
        <ele>636.8</ele>
        <time>2019-05-12T10:35:30Z</time>
      </trkpt>
      <trkpt lat="39.1455690" lon="-1.6604720">
        <ele>637.0</ele>
        <time>2019-05-12T10:35:31Z</time>
      </trkpt>
      <trkpt lat="39.1455470" lon="-1.6604890">
        <ele>637.0</ele>
        <time>2019-05-12T10:35:32Z</time>
      </trkpt>
      <trkpt lat="39.1455260" lon="-1.6605040">
        <ele>637.0</ele>
        <time>2019-05-12T10:35:33Z</time>
      </trkpt>
      <trkpt lat="39.1455040" lon="-1.6605190">
        <ele>637.4</ele>
        <time>2019-05-12T10:35:34Z</time>
      </trkpt>
      <trkpt lat="39.1454820" lon="-1.6605340">
        <ele>637.6</ele>
        <time>2019-05-12T10:35:35Z</time>
      </trkpt>
      <trkpt lat="39.1454610" lon="-1.6605480">
        <ele>637.8</ele>
        <time>2019-05-12T10:35:36Z</time>
      </trkpt>
      <trkpt lat="39.1454420" lon="-1.6605640">
        <ele>638.0</ele>
        <time>2019-05-12T10:35:37Z</time>
      </trkpt>
      <trkpt lat="39.1454230" lon="-1.6605790">
        <ele>638.2</ele>
        <time>2019-05-12T10:35:38Z</time>
      </trkpt>
      <trkpt lat="39.1454040" lon="-1.6605970">
        <ele>638.4</ele>
        <time>2019-05-12T10:35:39Z</time>
      </trkpt>
      <trkpt lat="39.1453840" lon="-1.6606160">
        <ele>638.6</ele>
        <time>2019-05-12T10:35:40Z</time>
      </trkpt>
      <trkpt lat="39.1453630" lon="-1.6606370">
        <ele>639.0</ele>
        <time>2019-05-12T10:35:41Z</time>
      </trkpt>
      <trkpt lat="39.1453410" lon="-1.6606600">
        <ele>639.2</ele>
        <time>2019-05-12T10:35:42Z</time>
      </trkpt>
      <trkpt lat="39.1453180" lon="-1.6606870">
        <ele>639.4</ele>
        <time>2019-05-12T10:35:43Z</time>
      </trkpt>
      <trkpt lat="39.1452980" lon="-1.6607170">
        <ele>639.4</ele>
        <time>2019-05-12T10:35:44Z</time>
      </trkpt>
      <trkpt lat="39.1452780" lon="-1.6607480">
        <ele>639.8</ele>
        <time>2019-05-12T10:35:45Z</time>
      </trkpt>
      <trkpt lat="39.1452600" lon="-1.6607810">
        <ele>640.0</ele>
        <time>2019-05-12T10:35:46Z</time>
      </trkpt>
      <trkpt lat="39.1452420" lon="-1.6608160">
        <ele>640.4</ele>
        <time>2019-05-12T10:35:47Z</time>
      </trkpt>
      <trkpt lat="39.1452250" lon="-1.6608530">
        <ele>640.6</ele>
        <time>2019-05-12T10:35:48Z</time>
      </trkpt>
      <trkpt lat="39.1452090" lon="-1.6608910">
        <ele>640.8</ele>
        <time>2019-05-12T10:35:49Z</time>
      </trkpt>
      <trkpt lat="39.1451950" lon="-1.6609310">
        <ele>641.0</ele>
        <time>2019-05-12T10:35:50Z</time>
      </trkpt>
      <trkpt lat="39.1451830" lon="-1.6609720">
        <ele>641.2</ele>
        <time>2019-05-12T10:35:51Z</time>
      </trkpt>
      <trkpt lat="39.1451730" lon="-1.6610130">
        <ele>641.2</ele>
        <time>2019-05-12T10:35:52Z</time>
      </trkpt>
      <trkpt lat="39.1451660" lon="-1.6610530">
        <ele>641.4</ele>
        <time>2019-05-12T10:35:53Z</time>
      </trkpt>
      <trkpt lat="39.1451650" lon="-1.6610920">
        <ele>641.6</ele>
        <time>2019-05-12T10:35:54Z</time>
      </trkpt>
      <trkpt lat="39.1451650" lon="-1.6611310">
        <ele>641.8</ele>
        <time>2019-05-12T10:35:55Z</time>
      </trkpt>
      <trkpt lat="39.1451690" lon="-1.6611670">
        <ele>641.8</ele>
        <time>2019-05-12T10:35:56Z</time>
      </trkpt>
      <trkpt lat="39.1451750" lon="-1.6612020">
        <ele>641.8</ele>
        <time>2019-05-12T10:35:57Z</time>
      </trkpt>
      <trkpt lat="39.1451810" lon="-1.6612360">
        <ele>642.0</ele>
        <time>2019-05-12T10:35:58Z</time>
      </trkpt>
      <trkpt lat="39.1451860" lon="-1.6612700">
        <ele>642.0</ele>
        <time>2019-05-12T10:35:59Z</time>
      </trkpt>
      <trkpt lat="39.1451910" lon="-1.6613050">
        <ele>642.4</ele>
        <time>2019-05-12T10:36:00Z</time>
      </trkpt>
      <trkpt lat="39.1451980" lon="-1.6613420">
        <ele>642.4</ele>
        <time>2019-05-12T10:36:01Z</time>
      </trkpt>
      <trkpt lat="39.1452060" lon="-1.6613820">
        <ele>642.6</ele>
        <time>2019-05-12T10:36:02Z</time>
      </trkpt>
      <trkpt lat="39.1452140" lon="-1.6614220">
        <ele>642.8</ele>
        <time>2019-05-12T10:36:03Z</time>
      </trkpt>
      <trkpt lat="39.1452220" lon="-1.6614610">
        <ele>643.0</ele>
        <time>2019-05-12T10:36:04Z</time>
      </trkpt>
      <trkpt lat="39.1452290" lon="-1.6614970">
        <ele>643.2</ele>
        <time>2019-05-12T10:36:05Z</time>
      </trkpt>
      <trkpt lat="39.1452320" lon="-1.6615290">
        <ele>643.4</ele>
        <time>2019-05-12T10:36:06Z</time>
      </trkpt>
      <trkpt lat="39.1452330" lon="-1.6615580">
        <ele>643.6</ele>
        <time>2019-05-12T10:36:07Z</time>
      </trkpt>
      <trkpt lat="39.1452300" lon="-1.6615850">
        <ele>643.8</ele>
        <time>2019-05-12T10:36:08Z</time>
      </trkpt>
      <trkpt lat="39.1452210" lon="-1.6616110">
        <ele>644.0</ele>
        <time>2019-05-12T10:36:09Z</time>
      </trkpt>
      <trkpt lat="39.1452100" lon="-1.6616350">
        <ele>644.2</ele>
        <time>2019-05-12T10:36:10Z</time>
      </trkpt>
      <trkpt lat="39.1451960" lon="-1.6616550">
        <ele>644.4</ele>
        <time>2019-05-12T10:36:11Z</time>
      </trkpt>
      <trkpt lat="39.1451800" lon="-1.6616750">
        <ele>644.6</ele>
        <time>2019-05-12T10:36:12Z</time>
      </trkpt>
      <trkpt lat="39.1451640" lon="-1.6616940">
        <ele>644.8</ele>
        <time>2019-05-12T10:36:13Z</time>
      </trkpt>
      <trkpt lat="39.1451480" lon="-1.6617130">
        <ele>645.0</ele>
        <time>2019-05-12T10:36:14Z</time>
      </trkpt>
      <trkpt lat="39.1451300" lon="-1.6617300">
        <ele>645.2</ele>
        <time>2019-05-12T10:36:15Z</time>
      </trkpt>
      <trkpt lat="39.1451110" lon="-1.6617440">
        <ele>645.4</ele>
        <time>2019-05-12T10:36:16Z</time>
      </trkpt>
      <trkpt lat="39.1450910" lon="-1.6617570">
        <ele>645.8</ele>
        <time>2019-05-12T10:36:17Z</time>
      </trkpt>
      <trkpt lat="39.1450710" lon="-1.6617690">
        <ele>646.2</ele>
        <time>2019-05-12T10:36:18Z</time>
      </trkpt>
      <trkpt lat="39.1450490" lon="-1.6617780">
        <ele>646.6</ele>
        <time>2019-05-12T10:36:19Z</time>
      </trkpt>
      <trkpt lat="39.1450280" lon="-1.6617840">
        <ele>647.0</ele>
        <time>2019-05-12T10:36:20Z</time>
      </trkpt>
      <trkpt lat="39.1450100" lon="-1.6617880">
        <ele>647.2</ele>
        <time>2019-05-12T10:36:21Z</time>
      </trkpt>
      <trkpt lat="39.1449930" lon="-1.6617890">
        <ele>647.6</ele>
        <time>2019-05-12T10:36:22Z</time>
      </trkpt>
      <trkpt lat="39.1449750" lon="-1.6617890">
        <ele>647.8</ele>
        <time>2019-05-12T10:36:23Z</time>
      </trkpt>
      <trkpt lat="39.1449590" lon="-1.6617920">
        <ele>648.0</ele>
        <time>2019-05-12T10:36:24Z</time>
      </trkpt>
      <trkpt lat="39.1449440" lon="-1.6617920">
        <ele>648.0</ele>
        <time>2019-05-12T10:36:25Z</time>
      </trkpt>
      <trkpt lat="39.1449260" lon="-1.6617890">
        <ele>648.2</ele>
        <time>2019-05-12T10:36:26Z</time>
      </trkpt>
      <trkpt lat="39.1449070" lon="-1.6617850">
        <ele>648.6</ele>
        <time>2019-05-12T10:36:27Z</time>
      </trkpt>
      <trkpt lat="39.1448890" lon="-1.6617830">
        <ele>649.0</ele>
        <time>2019-05-12T10:36:28Z</time>
      </trkpt>
      <trkpt lat="39.1448700" lon="-1.6617830">
        <ele>649.2</ele>
        <time>2019-05-12T10:36:29Z</time>
      </trkpt>
      <trkpt lat="39.1448530" lon="-1.6617810">
        <ele>649.4</ele>
        <time>2019-05-12T10:36:30Z</time>
      </trkpt>
      <trkpt lat="39.1448350" lon="-1.6617800">
        <ele>649.6</ele>
        <time>2019-05-12T10:36:31Z</time>
      </trkpt>
      <trkpt lat="39.1448170" lon="-1.6617790">
        <ele>649.8</ele>
        <time>2019-05-12T10:36:32Z</time>
      </trkpt>
      <trkpt lat="39.1447980" lon="-1.6617780">
        <ele>650.0</ele>
        <time>2019-05-12T10:36:33Z</time>
      </trkpt>
      <trkpt lat="39.1447770" lon="-1.6617760">
        <ele>650.2</ele>
        <time>2019-05-12T10:36:34Z</time>
      </trkpt>
      <trkpt lat="39.1447560" lon="-1.6617730">
        <ele>650.4</ele>
        <time>2019-05-12T10:36:35Z</time>
      </trkpt>
      <trkpt lat="39.1447360" lon="-1.6617690">
        <ele>650.6</ele>
        <time>2019-05-12T10:36:36Z</time>
      </trkpt>
      <trkpt lat="39.1447160" lon="-1.6617660">
        <ele>650.8</ele>
        <time>2019-05-12T10:36:37Z</time>
      </trkpt>
      <trkpt lat="39.1446960" lon="-1.6617610">
        <ele>651.0</ele>
        <time>2019-05-12T10:36:38Z</time>
      </trkpt>
      <trkpt lat="39.1446760" lon="-1.6617580">
        <ele>651.2</ele>
        <time>2019-05-12T10:36:39Z</time>
      </trkpt>
      <trkpt lat="39.1446570" lon="-1.6617580">
        <ele>651.4</ele>
        <time>2019-05-12T10:36:40Z</time>
      </trkpt>
      <trkpt lat="39.1446400" lon="-1.6617610">
        <ele>651.6</ele>
        <time>2019-05-12T10:36:41Z</time>
      </trkpt>
      <trkpt lat="39.1446250" lon="-1.6617680">
        <ele>651.6</ele>
        <time>2019-05-12T10:36:42Z</time>
      </trkpt>
      <trkpt lat="39.1446120" lon="-1.6617780">
        <ele>651.8</ele>
        <time>2019-05-12T10:36:43Z</time>
      </trkpt>
      <trkpt lat="39.1445990" lon="-1.6617930">
        <ele>652.2</ele>
        <time>2019-05-12T10:36:44Z</time>
      </trkpt>
      <trkpt lat="39.1445880" lon="-1.6618080">
        <ele>652.4</ele>
        <time>2019-05-12T10:36:45Z</time>
      </trkpt>
      <trkpt lat="39.1445780" lon="-1.6618230">
        <ele>652.4</ele>
        <time>2019-05-12T10:36:46Z</time>
      </trkpt>
      <trkpt lat="39.1445700" lon="-1.6618410">
        <ele>652.6</ele>
        <time>2019-05-12T10:36:47Z</time>
      </trkpt>
      <trkpt lat="39.1445610" lon="-1.6618590">
        <ele>653.0</ele>
        <time>2019-05-12T10:36:48Z</time>
      </trkpt>
      <trkpt lat="39.1445540" lon="-1.6618810">
        <ele>653.2</ele>
        <time>2019-05-12T10:36:49Z</time>
      </trkpt>
      <trkpt lat="39.1445480" lon="-1.6619030">
        <ele>653.4</ele>
        <time>2019-05-12T10:36:50Z</time>
      </trkpt>
      <trkpt lat="39.1445440" lon="-1.6619260">
        <ele>653.6</ele>
        <time>2019-05-12T10:36:51Z</time>
      </trkpt>
      <trkpt lat="39.1445390" lon="-1.6619490">
        <ele>653.8</ele>
        <time>2019-05-12T10:36:52Z</time>
      </trkpt>
      <trkpt lat="39.1445330" lon="-1.6619700">
        <ele>654.2</ele>
        <time>2019-05-12T10:36:53Z</time>
      </trkpt>
      <trkpt lat="39.1445270" lon="-1.6619900">
        <ele>654.6</ele>
        <time>2019-05-12T10:36:54Z</time>
      </trkpt>
      <trkpt lat="39.1445240" lon="-1.6620130">
        <ele>654.8</ele>
        <time>2019-05-12T10:36:55Z</time>
      </trkpt>
      <trkpt lat="39.1445210" lon="-1.6620380">
        <ele>655.0</ele>
        <time>2019-05-12T10:36:56Z</time>
      </trkpt>
      <trkpt lat="39.1445170" lon="-1.6620630">
        <ele>655.2</ele>
        <time>2019-05-12T10:36:57Z</time>
      </trkpt>
      <trkpt lat="39.1445120" lon="-1.6620880">
        <ele>655.4</ele>
        <time>2019-05-12T10:36:58Z</time>
      </trkpt>
      <trkpt lat="39.1445090" lon="-1.6621120">
        <ele>655.8</ele>
        <time>2019-05-12T10:36:59Z</time>
      </trkpt>
      <trkpt lat="39.1445060" lon="-1.6621350">
        <ele>656.0</ele>
        <time>2019-05-12T10:37:00Z</time>
      </trkpt>
      <trkpt lat="39.1445030" lon="-1.6621600">
        <ele>656.4</ele>
        <time>2019-05-12T10:37:01Z</time>
      </trkpt>
      <trkpt lat="39.1445010" lon="-1.6621850">
        <ele>656.6</ele>
        <time>2019-05-12T10:37:02Z</time>
      </trkpt>
      <trkpt lat="39.1444970" lon="-1.6622100">
        <ele>657.0</ele>
        <time>2019-05-12T10:37:03Z</time>
      </trkpt>
      <trkpt lat="39.1444930" lon="-1.6622380">
        <ele>657.2</ele>
        <time>2019-05-12T10:37:04Z</time>
      </trkpt>
      <trkpt lat="39.1444870" lon="-1.6622670">
        <ele>657.4</ele>
        <time>2019-05-12T10:37:05Z</time>
      </trkpt>
      <trkpt lat="39.1444810" lon="-1.6622940">
        <ele>657.6</ele>
        <time>2019-05-12T10:37:06Z</time>
      </trkpt>
      <trkpt lat="39.1444750" lon="-1.6623230">
        <ele>657.8</ele>
        <time>2019-05-12T10:37:07Z</time>
      </trkpt>
      <trkpt lat="39.1444680" lon="-1.6623520">
        <ele>658.0</ele>
        <time>2019-05-12T10:37:08Z</time>
      </trkpt>
      <trkpt lat="39.1444590" lon="-1.6623840">
        <ele>658.0</ele>
        <time>2019-05-12T10:37:09Z</time>
      </trkpt>
      <trkpt lat="39.1444460" lon="-1.6624180">
        <ele>658.2</ele>
        <time>2019-05-12T10:37:10Z</time>
      </trkpt>
      <trkpt lat="39.1444330" lon="-1.6624550">
        <ele>658.2</ele>
        <time>2019-05-12T10:37:11Z</time>
      </trkpt>
      <trkpt lat="39.1444200" lon="-1.6624960">
        <ele>658.2</ele>
        <time>2019-05-12T10:37:12Z</time>
      </trkpt>
      <trkpt lat="39.1444050" lon="-1.6625390">
        <ele>658.2</ele>
        <time>2019-05-12T10:37:13Z</time>
      </trkpt>
      <trkpt lat="39.1443890" lon="-1.6625870">
        <ele>658.2</ele>
        <time>2019-05-12T10:37:14Z</time>
      </trkpt>
      <trkpt lat="39.1443750" lon="-1.6626390">
        <ele>658.2</ele>
        <time>2019-05-12T10:37:15Z</time>
      </trkpt>
      <trkpt lat="39.1443610" lon="-1.6626940">
        <ele>658.2</ele>
        <time>2019-05-12T10:37:16Z</time>
      </trkpt>
      <trkpt lat="39.1443510" lon="-1.6627530">
        <ele>658.2</ele>
        <time>2019-05-12T10:37:17Z</time>
      </trkpt>
      <trkpt lat="39.1443450" lon="-1.6628150">
        <ele>658.2</ele>
        <time>2019-05-12T10:37:18Z</time>
      </trkpt>
      <trkpt lat="39.1443400" lon="-1.6628820">
        <ele>658.2</ele>
        <time>2019-05-12T10:37:19Z</time>
      </trkpt>
      <trkpt lat="39.1443380" lon="-1.6629520">
        <ele>658.2</ele>
        <time>2019-05-12T10:37:20Z</time>
      </trkpt>
      <trkpt lat="39.1443420" lon="-1.6630240">
        <ele>658.2</ele>
        <time>2019-05-12T10:37:21Z</time>
      </trkpt>
      <trkpt lat="39.1443480" lon="-1.6630980">
        <ele>658.2</ele>
        <time>2019-05-12T10:37:22Z</time>
      </trkpt>
      <trkpt lat="39.1443540" lon="-1.6631780">
        <ele>658.0</ele>
        <time>2019-05-12T10:37:23Z</time>
      </trkpt>
      <trkpt lat="39.1443600" lon="-1.6632630">
        <ele>658.0</ele>
        <time>2019-05-12T10:37:24Z</time>
      </trkpt>
      <trkpt lat="39.1443660" lon="-1.6633480">
        <ele>657.8</ele>
        <time>2019-05-12T10:37:25Z</time>
      </trkpt>
      <trkpt lat="39.1443780" lon="-1.6634170">
        <ele>657.6</ele>
        <time>2019-05-12T10:37:26Z</time>
      </trkpt>
      <trkpt lat="39.1444040" lon="-1.6634570">
        <ele>657.4</ele>
        <time>2019-05-12T10:37:27Z</time>
      </trkpt>
      <trkpt lat="39.1444330" lon="-1.6634910">
        <ele>657.2</ele>
        <time>2019-05-12T10:37:28Z</time>
      </trkpt>
      <trkpt lat="39.1444630" lon="-1.6635300">
        <ele>657.0</ele>
        <time>2019-05-12T10:37:29Z</time>
      </trkpt>
      <trkpt lat="39.1444890" lon="-1.6635670">
        <ele>656.6</ele>
        <time>2019-05-12T10:37:30Z</time>
      </trkpt>
      <trkpt lat="39.1445130" lon="-1.6636020">
        <ele>656.2</ele>
        <time>2019-05-12T10:37:31Z</time>
      </trkpt>
      <trkpt lat="39.1445390" lon="-1.6636370">
        <ele>655.8</ele>
        <time>2019-05-12T10:37:32Z</time>
      </trkpt>
      <trkpt lat="39.1445740" lon="-1.6636670">
        <ele>655.4</ele>
        <time>2019-05-12T10:37:33Z</time>
      </trkpt>
      <trkpt lat="39.1446190" lon="-1.6636880">
        <ele>655.2</ele>
        <time>2019-05-12T10:37:34Z</time>
      </trkpt>
      <trkpt lat="39.1446670" lon="-1.6636960">
        <ele>655.0</ele>
        <time>2019-05-12T10:37:35Z</time>
      </trkpt>
      <trkpt lat="39.1447110" lon="-1.6637100">
        <ele>654.8</ele>
        <time>2019-05-12T10:37:36Z</time>
      </trkpt>
      <trkpt lat="39.1447540" lon="-1.6637290">
        <ele>654.6</ele>
        <time>2019-05-12T10:37:37Z</time>
      </trkpt>
      <trkpt lat="39.1447910" lon="-1.6637480">
        <ele>654.4</ele>
        <time>2019-05-12T10:37:38Z</time>
      </trkpt>
      <trkpt lat="39.1448300" lon="-1.6637720">
        <ele>654.0</ele>
        <time>2019-05-12T10:37:39Z</time>
      </trkpt>
      <trkpt lat="39.1448720" lon="-1.6637940">
        <ele>653.4</ele>
        <time>2019-05-12T10:37:40Z</time>
      </trkpt>
      <trkpt lat="39.1449150" lon="-1.6638160">
        <ele>652.8</ele>
        <time>2019-05-12T10:37:41Z</time>
      </trkpt>
      <trkpt lat="39.1449570" lon="-1.6638390">
        <ele>652.4</ele>
        <time>2019-05-12T10:37:42Z</time>
      </trkpt>
      <trkpt lat="39.1450000" lon="-1.6638560">
        <ele>652.2</ele>
        <time>2019-05-12T10:37:43Z</time>
      </trkpt>
      <trkpt lat="39.1450440" lon="-1.6638600">
        <ele>652.0</ele>
        <time>2019-05-12T10:37:44Z</time>
      </trkpt>
      <trkpt lat="39.1450870" lon="-1.6638530">
        <ele>652.0</ele>
        <time>2019-05-12T10:37:45Z</time>
      </trkpt>
      <trkpt lat="39.1451250" lon="-1.6638400">
        <ele>652.0</ele>
        <time>2019-05-12T10:37:46Z</time>
      </trkpt>
      <trkpt lat="39.1451610" lon="-1.6638270">
        <ele>652.0</ele>
        <time>2019-05-12T10:37:47Z</time>
      </trkpt>
      <trkpt lat="39.1451950" lon="-1.6638020">
        <ele>652.0</ele>
        <time>2019-05-12T10:37:48Z</time>
      </trkpt>
      <trkpt lat="39.1452290" lon="-1.6637700">
        <ele>652.0</ele>
        <time>2019-05-12T10:37:49Z</time>
      </trkpt>
      <trkpt lat="39.1452610" lon="-1.6637490">
        <ele>652.0</ele>
        <time>2019-05-12T10:37:50Z</time>
      </trkpt>
      <trkpt lat="39.1452910" lon="-1.6637350">
        <ele>652.0</ele>
        <time>2019-05-12T10:37:51Z</time>
      </trkpt>
      <trkpt lat="39.1453210" lon="-1.6637200">
        <ele>652.2</ele>
        <time>2019-05-12T10:37:52Z</time>
      </trkpt>
      <trkpt lat="39.1453490" lon="-1.6636960">
        <ele>652.6</ele>
        <time>2019-05-12T10:37:53Z</time>
      </trkpt>
      <trkpt lat="39.1453700" lon="-1.6636670">
        <ele>653.0</ele>
        <time>2019-05-12T10:37:54Z</time>
      </trkpt>
      <trkpt lat="39.1453870" lon="-1.6636380">
        <ele>653.2</ele>
        <time>2019-05-12T10:37:55Z</time>
      </trkpt>
      <trkpt lat="39.1454030" lon="-1.6636110">
        <ele>653.2</ele>
        <time>2019-05-12T10:37:56Z</time>
      </trkpt>
      <trkpt lat="39.1454200" lon="-1.6635860">
        <ele>653.4</ele>
        <time>2019-05-12T10:37:57Z</time>
      </trkpt>
      <trkpt lat="39.1454370" lon="-1.6635650">
        <ele>653.8</ele>
        <time>2019-05-12T10:37:58Z</time>
      </trkpt>
      <trkpt lat="39.1454540" lon="-1.6635440">
        <ele>653.8</ele>
        <time>2019-05-12T10:37:59Z</time>
      </trkpt>
      <trkpt lat="39.1454720" lon="-1.6635230">
        <ele>654.0</ele>
        <time>2019-05-12T10:38:00Z</time>
      </trkpt>
      <trkpt lat="39.1454880" lon="-1.6635040">
        <ele>654.0</ele>
        <time>2019-05-12T10:38:01Z</time>
      </trkpt>
      <trkpt lat="39.1455040" lon="-1.6634840">
        <ele>654.2</ele>
        <time>2019-05-12T10:38:02Z</time>
      </trkpt>
      <trkpt lat="39.1455210" lon="-1.6634650">
        <ele>654.4</ele>
        <time>2019-05-12T10:38:03Z</time>
      </trkpt>
      <trkpt lat="39.1455370" lon="-1.6634450">
        <ele>654.6</ele>
        <time>2019-05-12T10:38:04Z</time>
      </trkpt>
      <trkpt lat="39.1455490" lon="-1.6634260">
        <ele>654.8</ele>
        <time>2019-05-12T10:38:05Z</time>
      </trkpt>
      <trkpt lat="39.1455590" lon="-1.6634080">
        <ele>654.8</ele>
        <time>2019-05-12T10:38:06Z</time>
      </trkpt>
      <trkpt lat="39.1455730" lon="-1.6633960">
        <ele>655.2</ele>
        <time>2019-05-12T10:38:07Z</time>
      </trkpt>
      <trkpt lat="39.1455880" lon="-1.6633880">
        <ele>655.4</ele>
        <time>2019-05-12T10:38:08Z</time>
      </trkpt>
      <trkpt lat="39.1456080" lon="-1.6633840">
        <ele>655.6</ele>
        <time>2019-05-12T10:38:09Z</time>
      </trkpt>
      <trkpt lat="39.1456300" lon="-1.6633770">
        <ele>656.0</ele>
        <time>2019-05-12T10:38:10Z</time>
      </trkpt>
      <trkpt lat="39.1456510" lon="-1.6633690">
        <ele>656.4</ele>
        <time>2019-05-12T10:38:11Z</time>
      </trkpt>
      <trkpt lat="39.1456670" lon="-1.6633610">
        <ele>656.6</ele>
        <time>2019-05-12T10:38:12Z</time>
      </trkpt>
      <trkpt lat="39.1456840" lon="-1.6633520">
        <ele>657.0</ele>
        <time>2019-05-12T10:38:13Z</time>
      </trkpt>
      <trkpt lat="39.1457030" lon="-1.6633450">
        <ele>657.2</ele>
        <time>2019-05-12T10:38:14Z</time>
      </trkpt>
      <trkpt lat="39.1457240" lon="-1.6633450">
        <ele>657.6</ele>
        <time>2019-05-12T10:38:15Z</time>
      </trkpt>
      <trkpt lat="39.1457460" lon="-1.6633540">
        <ele>657.8</ele>
        <time>2019-05-12T10:38:16Z</time>
      </trkpt>
      <trkpt lat="39.1457670" lon="-1.6633590">
        <ele>658.2</ele>
        <time>2019-05-12T10:38:17Z</time>
      </trkpt>
      <trkpt lat="39.1457870" lon="-1.6633510">
        <ele>658.2</ele>
        <time>2019-05-12T10:38:18Z</time>
      </trkpt>
      <trkpt lat="39.1458040" lon="-1.6633390">
        <ele>658.4</ele>
        <time>2019-05-12T10:38:19Z</time>
      </trkpt>
      <trkpt lat="39.1458200" lon="-1.6633260">
        <ele>658.8</ele>
        <time>2019-05-12T10:38:20Z</time>
      </trkpt>
      <trkpt lat="39.1458370" lon="-1.6633200">
        <ele>659.2</ele>
        <time>2019-05-12T10:38:21Z</time>
      </trkpt>
      <trkpt lat="39.1458570" lon="-1.6633160">
        <ele>659.6</ele>
        <time>2019-05-12T10:38:22Z</time>
      </trkpt>
      <trkpt lat="39.1458800" lon="-1.6633050">
        <ele>659.8</ele>
        <time>2019-05-12T10:38:23Z</time>
      </trkpt>
      <trkpt lat="39.1459030" lon="-1.6632870">
        <ele>660.2</ele>
        <time>2019-05-12T10:38:24Z</time>
      </trkpt>
      <trkpt lat="39.1459210" lon="-1.6632590">
        <ele>660.4</ele>
        <time>2019-05-12T10:38:25Z</time>
      </trkpt>
      <trkpt lat="39.1459420" lon="-1.6632300">
        <ele>660.6</ele>
        <time>2019-05-12T10:38:26Z</time>
      </trkpt>
      <trkpt lat="39.1459650" lon="-1.6632050">
        <ele>661.0</ele>
        <time>2019-05-12T10:38:27Z</time>
      </trkpt>
      <trkpt lat="39.1459910" lon="-1.6631860">
        <ele>661.4</ele>
        <time>2019-05-12T10:38:28Z</time>
      </trkpt>
      <trkpt lat="39.1460190" lon="-1.6631700">
        <ele>662.2</ele>
        <time>2019-05-12T10:38:29Z</time>
      </trkpt>
      <trkpt lat="39.1460510" lon="-1.6631630">
        <ele>662.6</ele>
        <time>2019-05-12T10:38:30Z</time>
      </trkpt>
      <trkpt lat="39.1460850" lon="-1.6631620">
        <ele>662.6</ele>
        <time>2019-05-12T10:38:31Z</time>
      </trkpt>
      <trkpt lat="39.1461190" lon="-1.6631610">
        <ele>662.8</ele>
        <time>2019-05-12T10:38:32Z</time>
      </trkpt>
      <trkpt lat="39.1461530" lon="-1.6631530">
        <ele>662.8</ele>
        <time>2019-05-12T10:38:33Z</time>
      </trkpt>
      <trkpt lat="39.1461880" lon="-1.6631460">
        <ele>662.8</ele>
        <time>2019-05-12T10:38:34Z</time>
      </trkpt>
      <trkpt lat="39.1462220" lon="-1.6631480">
        <ele>662.8</ele>
        <time>2019-05-12T10:38:35Z</time>
      </trkpt>
      <trkpt lat="39.1462590" lon="-1.6631430">
        <ele>662.8</ele>
        <time>2019-05-12T10:38:36Z</time>
      </trkpt>
      <trkpt lat="39.1462980" lon="-1.6631210">
        <ele>662.8</ele>
        <time>2019-05-12T10:38:37Z</time>
      </trkpt>
      <trkpt lat="39.1463380" lon="-1.6630820">
        <ele>662.8</ele>
        <time>2019-05-12T10:38:38Z</time>
      </trkpt>
      <trkpt lat="39.1463740" lon="-1.6630520">
        <ele>662.8</ele>
        <time>2019-05-12T10:38:39Z</time>
      </trkpt>
      <trkpt lat="39.1464180" lon="-1.6630350">
        <ele>662.8</ele>
        <time>2019-05-12T10:38:40Z</time>
      </trkpt>
      <trkpt lat="39.1464680" lon="-1.6630200">
        <ele>662.8</ele>
        <time>2019-05-12T10:38:41Z</time>
      </trkpt>
      <trkpt lat="39.1465220" lon="-1.6630040">
        <ele>662.6</ele>
        <time>2019-05-12T10:38:42Z</time>
      </trkpt>
      <trkpt lat="39.1465820" lon="-1.6629940">
        <ele>662.6</ele>
        <time>2019-05-12T10:38:43Z</time>
      </trkpt>
      <trkpt lat="39.1466490" lon="-1.6629910">
        <ele>662.4</ele>
        <time>2019-05-12T10:38:44Z</time>
      </trkpt>
      <trkpt lat="39.1467110" lon="-1.6629930">
        <ele>662.4</ele>
        <time>2019-05-12T10:38:45Z</time>
      </trkpt>
      <trkpt lat="39.1467770" lon="-1.6629900">
        <ele>662.0</ele>
        <time>2019-05-12T10:38:46Z</time>
      </trkpt>
      <trkpt lat="39.1468440" lon="-1.6629810">
        <ele>661.4</ele>
        <time>2019-05-12T10:38:47Z</time>
      </trkpt>
      <trkpt lat="39.1469080" lon="-1.6629660">
        <ele>661.2</ele>
        <time>2019-05-12T10:38:48Z</time>
      </trkpt>
      <trkpt lat="39.1469680" lon="-1.6629450">
        <ele>660.6</ele>
        <time>2019-05-12T10:38:49Z</time>
      </trkpt>
      <trkpt lat="39.1470190" lon="-1.6629150">
        <ele>660.4</ele>
        <time>2019-05-12T10:38:50Z</time>
      </trkpt>
      <trkpt lat="39.1470660" lon="-1.6628880">
        <ele>660.2</ele>
        <time>2019-05-12T10:38:51Z</time>
      </trkpt>
      <trkpt lat="39.1471110" lon="-1.6628730">
        <ele>659.8</ele>
        <time>2019-05-12T10:38:52Z</time>
      </trkpt>
      <trkpt lat="39.1471530" lon="-1.6628700">
        <ele>659.2</ele>
        <time>2019-05-12T10:38:53Z</time>
      </trkpt>
      <trkpt lat="39.1471890" lon="-1.6628840">
        <ele>658.8</ele>
        <time>2019-05-12T10:38:54Z</time>
      </trkpt>
      <trkpt lat="39.1472130" lon="-1.6629170">
        <ele>658.6</ele>
        <time>2019-05-12T10:38:55Z</time>
      </trkpt>
      <trkpt lat="39.1472320" lon="-1.6629550">
        <ele>658.4</ele>
        <time>2019-05-12T10:38:56Z</time>
      </trkpt>
      <trkpt lat="39.1472580" lon="-1.6629950">
        <ele>658.4</ele>
        <time>2019-05-12T10:38:57Z</time>
      </trkpt>
      <trkpt lat="39.1472890" lon="-1.6630330">
        <ele>658.2</ele>
        <time>2019-05-12T10:38:58Z</time>
      </trkpt>
      <trkpt lat="39.1473230" lon="-1.6630770">
        <ele>658.0</ele>
        <time>2019-05-12T10:38:59Z</time>
      </trkpt>
      <trkpt lat="39.1473610" lon="-1.6631310">
        <ele>658.0</ele>
        <time>2019-05-12T10:39:00Z</time>
      </trkpt>
      <trkpt lat="39.1473980" lon="-1.6631910">
        <ele>657.8</ele>
        <time>2019-05-12T10:39:01Z</time>
      </trkpt>
      <trkpt lat="39.1474330" lon="-1.6632560">
        <ele>657.6</ele>
        <time>2019-05-12T10:39:02Z</time>
      </trkpt>
      <trkpt lat="39.1474670" lon="-1.6633240">
        <ele>657.6</ele>
        <time>2019-05-12T10:39:03Z</time>
      </trkpt>
      <trkpt lat="39.1475030" lon="-1.6633910">
        <ele>657.6</ele>
        <time>2019-05-12T10:39:04Z</time>
      </trkpt>
      <trkpt lat="39.1475370" lon="-1.6634600">
        <ele>657.4</ele>
        <time>2019-05-12T10:39:05Z</time>
      </trkpt>
      <trkpt lat="39.1475700" lon="-1.6635310">
        <ele>657.4</ele>
        <time>2019-05-12T10:39:06Z</time>
      </trkpt>
      <trkpt lat="39.1475980" lon="-1.6636020">
        <ele>657.4</ele>
        <time>2019-05-12T10:39:07Z</time>
      </trkpt>
      <trkpt lat="39.1476220" lon="-1.6636710">
        <ele>657.2</ele>
        <time>2019-05-12T10:39:08Z</time>
      </trkpt>
      <trkpt lat="39.1476420" lon="-1.6637460">
        <ele>656.4</ele>
        <time>2019-05-12T10:39:09Z</time>
      </trkpt>
      <trkpt lat="39.1476600" lon="-1.6638180">
        <ele>655.8</ele>
        <time>2019-05-12T10:39:10Z</time>
      </trkpt>
      <trkpt lat="39.1476750" lon="-1.6638790">
        <ele>655.4</ele>
        <time>2019-05-12T10:39:11Z</time>
      </trkpt>
      <trkpt lat="39.1476910" lon="-1.6639320">
        <ele>655.0</ele>
        <time>2019-05-12T10:39:12Z</time>
      </trkpt>
      <trkpt lat="39.1477110" lon="-1.6639870">
        <ele>654.2</ele>
        <time>2019-05-12T10:39:13Z</time>
      </trkpt>
      <trkpt lat="39.1477380" lon="-1.6640540">
        <ele>653.8</ele>
        <time>2019-05-12T10:39:14Z</time>
      </trkpt>
      <trkpt lat="39.1477720" lon="-1.6641340">
        <ele>653.0</ele>
        <time>2019-05-12T10:39:15Z</time>
      </trkpt>
      <trkpt lat="39.1478110" lon="-1.6642220">
        <ele>652.4</ele>
        <time>2019-05-12T10:39:16Z</time>
      </trkpt>
      <trkpt lat="39.1478500" lon="-1.6643050">
        <ele>651.8</ele>
        <time>2019-05-12T10:39:17Z</time>
      </trkpt>
      <trkpt lat="39.1478770" lon="-1.6643770">
        <ele>651.0</ele>
        <time>2019-05-12T10:39:18Z</time>
      </trkpt>
      <trkpt lat="39.1478900" lon="-1.6644360">
        <ele>650.2</ele>
        <time>2019-05-12T10:39:19Z</time>
      </trkpt>
      <trkpt lat="39.1478870" lon="-1.6644850">
        <ele>649.4</ele>
        <time>2019-05-12T10:39:20Z</time>
      </trkpt>
      <trkpt lat="39.1478720" lon="-1.6645310">
        <ele>648.8</ele>
        <time>2019-05-12T10:39:21Z</time>
      </trkpt>
      <trkpt lat="39.1478540" lon="-1.6645840">
        <ele>648.0</ele>
        <time>2019-05-12T10:39:22Z</time>
      </trkpt>
      <trkpt lat="39.1478400" lon="-1.6646470">
        <ele>647.2</ele>
        <time>2019-05-12T10:39:23Z</time>
      </trkpt>
      <trkpt lat="39.1478310" lon="-1.6647050">
        <ele>646.0</ele>
        <time>2019-05-12T10:39:24Z</time>
      </trkpt>
      <trkpt lat="39.1478220" lon="-1.6647600">
        <ele>645.4</ele>
        <time>2019-05-12T10:39:25Z</time>
      </trkpt>
      <trkpt lat="39.1478110" lon="-1.6648070">
        <ele>644.6</ele>
        <time>2019-05-12T10:39:26Z</time>
      </trkpt>
      <trkpt lat="39.1477920" lon="-1.6648490">
        <ele>643.8</ele>
        <time>2019-05-12T10:39:27Z</time>
      </trkpt>
      <trkpt lat="39.1477680" lon="-1.6648910">
        <ele>643.2</ele>
        <time>2019-05-12T10:39:28Z</time>
      </trkpt>
      <trkpt lat="39.1477390" lon="-1.6649370">
        <ele>642.6</ele>
        <time>2019-05-12T10:39:29Z</time>
      </trkpt>
      <trkpt lat="39.1477070" lon="-1.6649780">
        <ele>642.4</ele>
        <time>2019-05-12T10:39:30Z</time>
      </trkpt>
      <trkpt lat="39.1476740" lon="-1.6650190">
        <ele>642.2</ele>
        <time>2019-05-12T10:39:31Z</time>
      </trkpt>
      <trkpt lat="39.1476400" lon="-1.6650560">
        <ele>642.0</ele>
        <time>2019-05-12T10:39:32Z</time>
      </trkpt>
      <trkpt lat="39.1476050" lon="-1.6650850">
        <ele>642.0</ele>
        <time>2019-05-12T10:39:33Z</time>
      </trkpt>
      <trkpt lat="39.1475790" lon="-1.6651110">
        <ele>641.8</ele>
        <time>2019-05-12T10:39:34Z</time>
      </trkpt>
      <trkpt lat="39.1475620" lon="-1.6651300">
        <ele>641.6</ele>
        <time>2019-05-12T10:39:35Z</time>
      </trkpt>
      <trkpt lat="39.1475460" lon="-1.6651400">
        <ele>641.4</ele>
        <time>2019-05-12T10:39:36Z</time>
      </trkpt>
      <trkpt lat="39.1475250" lon="-1.6651530">
        <ele>641.4</ele>
        <time>2019-05-12T10:39:37Z</time>
      </trkpt>
      <trkpt lat="39.1475060" lon="-1.6651710">
        <ele>641.0</ele>
        <time>2019-05-12T10:39:38Z</time>
      </trkpt>
      <trkpt lat="39.1474930" lon="-1.6651950">
        <ele>640.6</ele>
        <time>2019-05-12T10:39:39Z</time>
      </trkpt>
      <trkpt lat="39.1474820" lon="-1.6652180">
        <ele>640.2</ele>
        <time>2019-05-12T10:39:40Z</time>
      </trkpt>
      <trkpt lat="39.1474690" lon="-1.6652390">
        <ele>639.6</ele>
        <time>2019-05-12T10:39:41Z</time>
      </trkpt>
      <trkpt lat="39.1474510" lon="-1.6652560">
        <ele>639.2</ele>
        <time>2019-05-12T10:39:42Z</time>
      </trkpt>
      <trkpt lat="39.1474320" lon="-1.6652780">
        <ele>638.8</ele>
        <time>2019-05-12T10:39:43Z</time>
      </trkpt>
      <trkpt lat="39.1474170" lon="-1.6653080">
        <ele>638.4</ele>
        <time>2019-05-12T10:39:44Z</time>
      </trkpt>
      <trkpt lat="39.1474060" lon="-1.6653450">
        <ele>638.0</ele>
        <time>2019-05-12T10:39:45Z</time>
      </trkpt>
      <trkpt lat="39.1473910" lon="-1.6653940">
        <ele>637.4</ele>
        <time>2019-05-12T10:39:46Z</time>
      </trkpt>
      <trkpt lat="39.1473850" lon="-1.6654570">
        <ele>636.8</ele>
        <time>2019-05-12T10:39:47Z</time>
      </trkpt>
      <trkpt lat="39.1473930" lon="-1.6655120">
        <ele>636.2</ele>
        <time>2019-05-12T10:39:48Z</time>
      </trkpt>
      <trkpt lat="39.1474160" lon="-1.6655500">
        <ele>635.6</ele>
        <time>2019-05-12T10:39:49Z</time>
      </trkpt>
      <trkpt lat="39.1474480" lon="-1.6655810">
        <ele>635.0</ele>
        <time>2019-05-12T10:39:50Z</time>
      </trkpt>
      <trkpt lat="39.1474880" lon="-1.6656120">
        <ele>634.4</ele>
        <time>2019-05-12T10:39:51Z</time>
      </trkpt>
      <trkpt lat="39.1475340" lon="-1.6656420">
        <ele>633.8</ele>
        <time>2019-05-12T10:39:52Z</time>
      </trkpt>
      <trkpt lat="39.1475820" lon="-1.6656720">
        <ele>633.0</ele>
        <time>2019-05-12T10:39:53Z</time>
      </trkpt>
      <trkpt lat="39.1476320" lon="-1.6657060">
        <ele>632.2</ele>
        <time>2019-05-12T10:39:54Z</time>
      </trkpt>
      <trkpt lat="39.1476870" lon="-1.6657420">
        <ele>631.4</ele>
        <time>2019-05-12T10:39:55Z</time>
      </trkpt>
      <trkpt lat="39.1477480" lon="-1.6657790">
        <ele>631.0</ele>
        <time>2019-05-12T10:39:56Z</time>
      </trkpt>
      <trkpt lat="39.1478100" lon="-1.6658210">
        <ele>630.6</ele>
        <time>2019-05-12T10:39:57Z</time>
      </trkpt>
      <trkpt lat="39.1478710" lon="-1.6658690">
        <ele>630.6</ele>
        <time>2019-05-12T10:39:58Z</time>
      </trkpt>
      <trkpt lat="39.1479310" lon="-1.6659200">
        <ele>630.4</ele>
        <time>2019-05-12T10:39:59Z</time>
      </trkpt>
      <trkpt lat="39.1479880" lon="-1.6659730">
        <ele>630.4</ele>
        <time>2019-05-12T10:40:00Z</time>
      </trkpt>
      <trkpt lat="39.1480420" lon="-1.6660280">
        <ele>630.4</ele>
        <time>2019-05-12T10:40:01Z</time>
      </trkpt>
      <trkpt lat="39.1480920" lon="-1.6660800">
        <ele>630.2</ele>
        <time>2019-05-12T10:40:02Z</time>
      </trkpt>
      <trkpt lat="39.1481440" lon="-1.6661270">
        <ele>630.2</ele>
        <time>2019-05-12T10:40:03Z</time>
      </trkpt>
      <trkpt lat="39.1481920" lon="-1.6661730">
        <ele>630.0</ele>
        <time>2019-05-12T10:40:04Z</time>
      </trkpt>
      <trkpt lat="39.1482320" lon="-1.6662230">
        <ele>630.0</ele>
        <time>2019-05-12T10:40:05Z</time>
      </trkpt>
      <trkpt lat="39.1482610" lon="-1.6662790">
        <ele>630.0</ele>
        <time>2019-05-12T10:40:06Z</time>
      </trkpt>
      <trkpt lat="39.1482830" lon="-1.6663370">
        <ele>630.0</ele>
        <time>2019-05-12T10:40:07Z</time>
      </trkpt>
      <trkpt lat="39.1482990" lon="-1.6663980">
        <ele>629.8</ele>
        <time>2019-05-12T10:40:08Z</time>
      </trkpt>
      <trkpt lat="39.1483090" lon="-1.6664640">
        <ele>629.6</ele>
        <time>2019-05-12T10:40:09Z</time>
      </trkpt>
      <trkpt lat="39.1483120" lon="-1.6665350">
        <ele>629.6</ele>
        <time>2019-05-12T10:40:10Z</time>
      </trkpt>
      <trkpt lat="39.1483070" lon="-1.6666070">
        <ele>629.6</ele>
        <time>2019-05-12T10:40:11Z</time>
      </trkpt>
      <trkpt lat="39.1482980" lon="-1.6666790">
        <ele>629.4</ele>
        <time>2019-05-12T10:40:12Z</time>
      </trkpt>
      <trkpt lat="39.1482860" lon="-1.6667500">
        <ele>629.4</ele>
        <time>2019-05-12T10:40:13Z</time>
      </trkpt>
      <trkpt lat="39.1482720" lon="-1.6668200">
        <ele>629.4</ele>
        <time>2019-05-12T10:40:14Z</time>
      </trkpt>
      <trkpt lat="39.1482520" lon="-1.6668900">
        <ele>629.4</ele>
        <time>2019-05-12T10:40:15Z</time>
      </trkpt>
      <trkpt lat="39.1482250" lon="-1.6669570">
        <ele>629.4</ele>
        <time>2019-05-12T10:40:16Z</time>
      </trkpt>
      <trkpt lat="39.1481930" lon="-1.6670240">
        <ele>629.4</ele>
        <time>2019-05-12T10:40:17Z</time>
      </trkpt>
      <trkpt lat="39.1481560" lon="-1.6670900">
        <ele>629.4</ele>
        <time>2019-05-12T10:40:18Z</time>
      </trkpt>
      <trkpt lat="39.1481180" lon="-1.6671510">
        <ele>629.4</ele>
        <time>2019-05-12T10:40:19Z</time>
      </trkpt>
      <trkpt lat="39.1480780" lon="-1.6672070">
        <ele>629.4</ele>
        <time>2019-05-12T10:40:20Z</time>
      </trkpt>
      <trkpt lat="39.1480440" lon="-1.6672610">
        <ele>629.4</ele>
        <time>2019-05-12T10:40:21Z</time>
      </trkpt>
      <trkpt lat="39.1480160" lon="-1.6673090">
        <ele>629.4</ele>
        <time>2019-05-12T10:40:22Z</time>
      </trkpt>
      <trkpt lat="39.1479940" lon="-1.6673540">
        <ele>629.4</ele>
        <time>2019-05-12T10:40:23Z</time>
      </trkpt>
      <trkpt lat="39.1479820" lon="-1.6674000">
        <ele>629.4</ele>
        <time>2019-05-12T10:40:24Z</time>
      </trkpt>
      <trkpt lat="39.1479760" lon="-1.6674420">
        <ele>629.4</ele>
        <time>2019-05-12T10:40:25Z</time>
      </trkpt>
      <trkpt lat="39.1479740" lon="-1.6674770">
        <ele>629.4</ele>
        <time>2019-05-12T10:40:26Z</time>
      </trkpt>
      <trkpt lat="39.1479770" lon="-1.6675040">
        <ele>629.4</ele>
        <time>2019-05-12T10:40:27Z</time>
      </trkpt>
      <trkpt lat="39.1479840" lon="-1.6675220">
        <ele>629.4</ele>
        <time>2019-05-12T10:40:28Z</time>
      </trkpt>
      <trkpt lat="39.1479900" lon="-1.6675390">
        <ele>629.4</ele>
        <time>2019-05-12T10:40:29Z</time>
      </trkpt>
      <trkpt lat="39.1480010" lon="-1.6675550">
        <ele>629.4</ele>
        <time>2019-05-12T10:40:30Z</time>
      </trkpt>
      <trkpt lat="39.1480170" lon="-1.6675730">
        <ele>629.4</ele>
        <time>2019-05-12T10:40:31Z</time>
      </trkpt>
      <trkpt lat="39.1480410" lon="-1.6675840">
        <ele>629.0</ele>
        <time>2019-05-12T10:40:32Z</time>
      </trkpt>
      <trkpt lat="39.1480710" lon="-1.6675900">
        <ele>628.4</ele>
        <time>2019-05-12T10:40:33Z</time>
      </trkpt>
      <trkpt lat="39.1481030" lon="-1.6675970">
        <ele>627.8</ele>
        <time>2019-05-12T10:40:34Z</time>
      </trkpt>
      <trkpt lat="39.1481300" lon="-1.6676060">
        <ele>627.0</ele>
        <time>2019-05-12T10:40:35Z</time>
      </trkpt>
      <trkpt lat="39.1481460" lon="-1.6676250">
        <ele>626.4</ele>
        <time>2019-05-12T10:40:36Z</time>
      </trkpt>
      <trkpt lat="39.1481540" lon="-1.6676530">
        <ele>626.0</ele>
        <time>2019-05-12T10:40:37Z</time>
      </trkpt>
      <trkpt lat="39.1481530" lon="-1.6676830">
        <ele>625.6</ele>
        <time>2019-05-12T10:40:38Z</time>
      </trkpt>
      <trkpt lat="39.1481390" lon="-1.6677140">
        <ele>625.0</ele>
        <time>2019-05-12T10:40:39Z</time>
      </trkpt>
      <trkpt lat="39.1481200" lon="-1.6677360">
        <ele>624.2</ele>
        <time>2019-05-12T10:40:40Z</time>
      </trkpt>
      <trkpt lat="39.1480940" lon="-1.6677490">
        <ele>623.4</ele>
        <time>2019-05-12T10:40:41Z</time>
      </trkpt>
      <trkpt lat="39.1480640" lon="-1.6677610">
        <ele>622.4</ele>
        <time>2019-05-12T10:40:42Z</time>
      </trkpt>
      <trkpt lat="39.1480320" lon="-1.6677720">
        <ele>621.4</ele>
        <time>2019-05-12T10:40:43Z</time>
      </trkpt>
      <trkpt lat="39.1480030" lon="-1.6677830">
        <ele>620.6</ele>
        <time>2019-05-12T10:40:44Z</time>
      </trkpt>
      <trkpt lat="39.1479760" lon="-1.6677920">
        <ele>619.8</ele>
        <time>2019-05-12T10:40:45Z</time>
      </trkpt>
      <trkpt lat="39.1479510" lon="-1.6677930">
        <ele>619.2</ele>
        <time>2019-05-12T10:40:46Z</time>
      </trkpt>
      <trkpt lat="39.1479260" lon="-1.6677910">
        <ele>618.6</ele>
        <time>2019-05-12T10:40:47Z</time>
      </trkpt>
      <trkpt lat="39.1478970" lon="-1.6677860">
        <ele>618.6</ele>
        <time>2019-05-12T10:40:48Z</time>
      </trkpt>
      <trkpt lat="39.1478670" lon="-1.6677820">
        <ele>618.6</ele>
        <time>2019-05-12T10:40:49Z</time>
      </trkpt>
      <trkpt lat="39.1478360" lon="-1.6677750">
        <ele>618.6</ele>
        <time>2019-05-12T10:40:50Z</time>
      </trkpt>
      <trkpt lat="39.1478040" lon="-1.6677640">
        <ele>618.4</ele>
        <time>2019-05-12T10:40:51Z</time>
      </trkpt>
      <trkpt lat="39.1477730" lon="-1.6677500">
        <ele>618.4</ele>
        <time>2019-05-12T10:40:52Z</time>
      </trkpt>
      <trkpt lat="39.1477430" lon="-1.6677390">
        <ele>618.4</ele>
        <time>2019-05-12T10:40:53Z</time>
      </trkpt>
      <trkpt lat="39.1477160" lon="-1.6677330">
        <ele>618.4</ele>
        <time>2019-05-12T10:40:54Z</time>
      </trkpt>
      <trkpt lat="39.1476930" lon="-1.6677310">
        <ele>618.6</ele>
        <time>2019-05-12T10:40:55Z</time>
      </trkpt>
      <trkpt lat="39.1476700" lon="-1.6677330">
        <ele>618.8</ele>
        <time>2019-05-12T10:40:56Z</time>
      </trkpt>
      <trkpt lat="39.1476500" lon="-1.6677420">
        <ele>619.0</ele>
        <time>2019-05-12T10:40:57Z</time>
      </trkpt>
      <trkpt lat="39.1476290" lon="-1.6677570">
        <ele>619.4</ele>
        <time>2019-05-12T10:40:58Z</time>
      </trkpt>
      <trkpt lat="39.1476100" lon="-1.6677760">
        <ele>619.6</ele>
        <time>2019-05-12T10:40:59Z</time>
      </trkpt>
      <trkpt lat="39.1475900" lon="-1.6677980">
        <ele>619.6</ele>
        <time>2019-05-12T10:41:00Z</time>
      </trkpt>
      <trkpt lat="39.1475710" lon="-1.6678260">
        <ele>620.2</ele>
        <time>2019-05-12T10:41:01Z</time>
      </trkpt>
      <trkpt lat="39.1475530" lon="-1.6678570">
        <ele>620.4</ele>
        <time>2019-05-12T10:41:02Z</time>
      </trkpt>
      <trkpt lat="39.1475340" lon="-1.6678940">
        <ele>621.0</ele>
        <time>2019-05-12T10:41:03Z</time>
      </trkpt>
      <trkpt lat="39.1475160" lon="-1.6679360">
        <ele>621.6</ele>
        <time>2019-05-12T10:41:04Z</time>
      </trkpt>
      <trkpt lat="39.1474980" lon="-1.6679730">
        <ele>621.8</ele>
        <time>2019-05-12T10:41:05Z</time>
      </trkpt>
      <trkpt lat="39.1474790" lon="-1.6680110">
        <ele>622.0</ele>
        <time>2019-05-12T10:41:06Z</time>
      </trkpt>
      <trkpt lat="39.1474580" lon="-1.6680480">
        <ele>622.4</ele>
        <time>2019-05-12T10:41:07Z</time>
      </trkpt>
      <trkpt lat="39.1474360" lon="-1.6680820">
        <ele>622.6</ele>
        <time>2019-05-12T10:41:08Z</time>
      </trkpt>
      <trkpt lat="39.1474100" lon="-1.6681110">
        <ele>622.6</ele>
        <time>2019-05-12T10:41:09Z</time>
      </trkpt>
      <trkpt lat="39.1473830" lon="-1.6681350">
        <ele>622.6</ele>
        <time>2019-05-12T10:41:10Z</time>
      </trkpt>
      <trkpt lat="39.1473560" lon="-1.6681550">
        <ele>622.8</ele>
        <time>2019-05-12T10:41:11Z</time>
      </trkpt>
      <trkpt lat="39.1473280" lon="-1.6681700">
        <ele>622.8</ele>
        <time>2019-05-12T10:41:12Z</time>
      </trkpt>
      <trkpt lat="39.1472920" lon="-1.6681780">
        <ele>622.8</ele>
        <time>2019-05-12T10:41:13Z</time>
      </trkpt>
      <trkpt lat="39.1472540" lon="-1.6681740">
        <ele>623.0</ele>
        <time>2019-05-12T10:41:14Z</time>
      </trkpt>
      <trkpt lat="39.1472180" lon="-1.6681520">
        <ele>623.0</ele>
        <time>2019-05-12T10:41:15Z</time>
      </trkpt>
      <trkpt lat="39.1471890" lon="-1.6681160">
        <ele>623.0</ele>
        <time>2019-05-12T10:41:16Z</time>
      </trkpt>
      <trkpt lat="39.1471700" lon="-1.6680650">
        <ele>623.0</ele>
        <time>2019-05-12T10:41:17Z</time>
      </trkpt>
      <trkpt lat="39.1471610" lon="-1.6680070">
        <ele>623.0</ele>
        <time>2019-05-12T10:41:18Z</time>
      </trkpt>
      <trkpt lat="39.1471500" lon="-1.6679490">
        <ele>623.0</ele>
        <time>2019-05-12T10:41:19Z</time>
      </trkpt>
      <trkpt lat="39.1471320" lon="-1.6678950">
        <ele>623.0</ele>
        <time>2019-05-12T10:41:20Z</time>
      </trkpt>
      <trkpt lat="39.1471050" lon="-1.6678500">
        <ele>623.0</ele>
        <time>2019-05-12T10:41:21Z</time>
      </trkpt>
      <trkpt lat="39.1470730" lon="-1.6678140">
        <ele>623.0</ele>
        <time>2019-05-12T10:41:22Z</time>
      </trkpt>
      <trkpt lat="39.1470390" lon="-1.6677920">
        <ele>623.0</ele>
        <time>2019-05-12T10:41:23Z</time>
      </trkpt>
      <trkpt lat="39.1470010" lon="-1.6677810">
        <ele>623.0</ele>
        <time>2019-05-12T10:41:24Z</time>
      </trkpt>
      <trkpt lat="39.1469650" lon="-1.6677850">
        <ele>623.0</ele>
        <time>2019-05-12T10:41:25Z</time>
      </trkpt>
      <trkpt lat="39.1469360" lon="-1.6678040">
        <ele>623.0</ele>
        <time>2019-05-12T10:41:26Z</time>
      </trkpt>
      <trkpt lat="39.1469090" lon="-1.6678320">
        <ele>623.0</ele>
        <time>2019-05-12T10:41:27Z</time>
      </trkpt>
      <trkpt lat="39.1468810" lon="-1.6678530">
        <ele>623.0</ele>
        <time>2019-05-12T10:41:28Z</time>
      </trkpt>
      <trkpt lat="39.1468470" lon="-1.6678600">
        <ele>623.0</ele>
        <time>2019-05-12T10:41:29Z</time>
      </trkpt>
      <trkpt lat="39.1468120" lon="-1.6678500">
        <ele>623.0</ele>
        <time>2019-05-12T10:41:30Z</time>
      </trkpt>
      <trkpt lat="39.1467810" lon="-1.6678290">
        <ele>623.0</ele>
        <time>2019-05-12T10:41:31Z</time>
      </trkpt>
      <trkpt lat="39.1467530" lon="-1.6678020">
        <ele>623.0</ele>
        <time>2019-05-12T10:41:32Z</time>
      </trkpt>
      <trkpt lat="39.1467240" lon="-1.6677770">
        <ele>623.0</ele>
        <time>2019-05-12T10:41:33Z</time>
      </trkpt>
      <trkpt lat="39.1466930" lon="-1.6677600">
        <ele>623.0</ele>
        <time>2019-05-12T10:41:34Z</time>
      </trkpt>
      <trkpt lat="39.1466660" lon="-1.6677400">
        <ele>623.2</ele>
        <time>2019-05-12T10:41:35Z</time>
      </trkpt>
      <trkpt lat="39.1466390" lon="-1.6677210">
        <ele>623.4</ele>
        <time>2019-05-12T10:41:36Z</time>
      </trkpt>
      <trkpt lat="39.1466120" lon="-1.6676990">
        <ele>623.4</ele>
        <time>2019-05-12T10:41:37Z</time>
      </trkpt>
      <trkpt lat="39.1465870" lon="-1.6676750">
        <ele>623.6</ele>
        <time>2019-05-12T10:41:38Z</time>
      </trkpt>
      <trkpt lat="39.1465560" lon="-1.6676510">
        <ele>624.0</ele>
        <time>2019-05-12T10:41:39Z</time>
      </trkpt>
      <trkpt lat="39.1465270" lon="-1.6676300">
        <ele>624.2</ele>
        <time>2019-05-12T10:41:40Z</time>
      </trkpt>
      <trkpt lat="39.1465000" lon="-1.6676070">
        <ele>624.4</ele>
        <time>2019-05-12T10:41:41Z</time>
      </trkpt>
      <trkpt lat="39.1464730" lon="-1.6675790">
        <ele>624.8</ele>
        <time>2019-05-12T10:41:42Z</time>
      </trkpt>
      <trkpt lat="39.1464350" lon="-1.6675610">
        <ele>625.2</ele>
        <time>2019-05-12T10:41:43Z</time>
      </trkpt>
      <trkpt lat="39.1463950" lon="-1.6675600">
        <ele>625.4</ele>
        <time>2019-05-12T10:41:44Z</time>
      </trkpt>
      <trkpt lat="39.1463580" lon="-1.6675750">
        <ele>625.4</ele>
        <time>2019-05-12T10:41:45Z</time>
      </trkpt>
      <trkpt lat="39.1463260" lon="-1.6675940">
        <ele>625.6</ele>
        <time>2019-05-12T10:41:46Z</time>
      </trkpt>
      <trkpt lat="39.1462960" lon="-1.6676160">
        <ele>625.6</ele>
        <time>2019-05-12T10:41:47Z</time>
      </trkpt>
      <trkpt lat="39.1462690" lon="-1.6676420">
        <ele>625.6</ele>
        <time>2019-05-12T10:41:48Z</time>
      </trkpt>
      <trkpt lat="39.1462500" lon="-1.6676770">
        <ele>625.6</ele>
        <time>2019-05-12T10:41:49Z</time>
      </trkpt>
      <trkpt lat="39.1462400" lon="-1.6677060">
        <ele>625.6</ele>
        <time>2019-05-12T10:41:50Z</time>
      </trkpt>
      <trkpt lat="39.1462280" lon="-1.6677300">
        <ele>625.8</ele>
        <time>2019-05-12T10:41:51Z</time>
      </trkpt>
      <trkpt lat="39.1462130" lon="-1.6677530">
        <ele>625.8</ele>
        <time>2019-05-12T10:41:52Z</time>
      </trkpt>
      <trkpt lat="39.1462000" lon="-1.6677830">
        <ele>625.8</ele>
        <time>2019-05-12T10:41:53Z</time>
      </trkpt>
      <trkpt lat="39.1461870" lon="-1.6678070">
        <ele>626.0</ele>
        <time>2019-05-12T10:41:54Z</time>
      </trkpt>
      <trkpt lat="39.1461680" lon="-1.6678340">
        <ele>626.0</ele>
        <time>2019-05-12T10:41:55Z</time>
      </trkpt>
      <trkpt lat="39.1461490" lon="-1.6678570">
        <ele>626.2</ele>
        <time>2019-05-12T10:41:56Z</time>
      </trkpt>
      <trkpt lat="39.1461270" lon="-1.6678780">
        <ele>626.4</ele>
        <time>2019-05-12T10:41:57Z</time>
      </trkpt>
      <trkpt lat="39.1461070" lon="-1.6678980">
        <ele>626.4</ele>
        <time>2019-05-12T10:41:58Z</time>
      </trkpt>
      <trkpt lat="39.1460840" lon="-1.6679180">
        <ele>626.6</ele>
        <time>2019-05-12T10:41:59Z</time>
      </trkpt>
      <trkpt lat="39.1460640" lon="-1.6679430">
        <ele>626.8</ele>
        <time>2019-05-12T10:42:00Z</time>
      </trkpt>
      <trkpt lat="39.1460490" lon="-1.6679650">
        <ele>627.0</ele>
        <time>2019-05-12T10:42:01Z</time>
      </trkpt>
      <trkpt lat="39.1460360" lon="-1.6679840">
        <ele>627.2</ele>
        <time>2019-05-12T10:42:02Z</time>
      </trkpt>
      <trkpt lat="39.1460220" lon="-1.6680000">
        <ele>627.4</ele>
        <time>2019-05-12T10:42:03Z</time>
      </trkpt>
      <trkpt lat="39.1460010" lon="-1.6680100">
        <ele>627.6</ele>
        <time>2019-05-12T10:42:04Z</time>
      </trkpt>
      <trkpt lat="39.1459790" lon="-1.6680090">
        <ele>627.8</ele>
        <time>2019-05-12T10:42:05Z</time>
      </trkpt>
      <trkpt lat="39.1459570" lon="-1.6680040">
        <ele>628.2</ele>
        <time>2019-05-12T10:42:06Z</time>
      </trkpt>
      <trkpt lat="39.1459350" lon="-1.6680040">
        <ele>628.4</ele>
        <time>2019-05-12T10:42:07Z</time>
      </trkpt>
      <trkpt lat="39.1459120" lon="-1.6680040">
        <ele>629.0</ele>
        <time>2019-05-12T10:42:08Z</time>
      </trkpt>
      <trkpt lat="39.1458900" lon="-1.6680050">
        <ele>629.4</ele>
        <time>2019-05-12T10:42:09Z</time>
      </trkpt>
      <trkpt lat="39.1458670" lon="-1.6680080">
        <ele>629.8</ele>
        <time>2019-05-12T10:42:10Z</time>
      </trkpt>
      <trkpt lat="39.1458480" lon="-1.6680100">
        <ele>630.0</ele>
        <time>2019-05-12T10:42:11Z</time>
      </trkpt>
      <trkpt lat="39.1458290" lon="-1.6680110">
        <ele>630.2</ele>
        <time>2019-05-12T10:42:12Z</time>
      </trkpt>
      <trkpt lat="39.1458110" lon="-1.6680130">
        <ele>630.4</ele>
        <time>2019-05-12T10:42:13Z</time>
      </trkpt>
      <trkpt lat="39.1457960" lon="-1.6680140">
        <ele>630.4</ele>
        <time>2019-05-12T10:42:14Z</time>
      </trkpt>
      <trkpt lat="39.1457800" lon="-1.6680160">
        <ele>630.6</ele>
        <time>2019-05-12T10:42:15Z</time>
      </trkpt>
      <trkpt lat="39.1457630" lon="-1.6680190">
        <ele>630.8</ele>
        <time>2019-05-12T10:42:16Z</time>
      </trkpt>
      <trkpt lat="39.1457470" lon="-1.6680150">
        <ele>630.8</ele>
        <time>2019-05-12T10:42:17Z</time>
      </trkpt>
      <trkpt lat="39.1457300" lon="-1.6680060">
        <ele>631.0</ele>
        <time>2019-05-12T10:42:18Z</time>
      </trkpt>
      <trkpt lat="39.1457110" lon="-1.6680000">
        <ele>631.2</ele>
        <time>2019-05-12T10:42:19Z</time>
      </trkpt>
      <trkpt lat="39.1456900" lon="-1.6679960">
        <ele>631.6</ele>
        <time>2019-05-12T10:42:20Z</time>
      </trkpt>
      <trkpt lat="39.1456680" lon="-1.6679930">
        <ele>631.8</ele>
        <time>2019-05-12T10:42:21Z</time>
      </trkpt>
      <trkpt lat="39.1456460" lon="-1.6679910">
        <ele>632.0</ele>
        <time>2019-05-12T10:42:22Z</time>
      </trkpt>
      <trkpt lat="39.1456240" lon="-1.6679890">
        <ele>632.2</ele>
        <time>2019-05-12T10:42:23Z</time>
      </trkpt>
      <trkpt lat="39.1456020" lon="-1.6679900">
        <ele>632.4</ele>
        <time>2019-05-12T10:42:24Z</time>
      </trkpt>
      <trkpt lat="39.1455810" lon="-1.6679930">
        <ele>632.6</ele>
        <time>2019-05-12T10:42:25Z</time>
      </trkpt>
      <trkpt lat="39.1455620" lon="-1.6679980">
        <ele>633.0</ele>
        <time>2019-05-12T10:42:26Z</time>
      </trkpt>
      <trkpt lat="39.1455440" lon="-1.6680020">
        <ele>633.2</ele>
        <time>2019-05-12T10:42:27Z</time>
      </trkpt>
      <trkpt lat="39.1455240" lon="-1.6680050">
        <ele>633.4</ele>
        <time>2019-05-12T10:42:28Z</time>
      </trkpt>
      <trkpt lat="39.1455060" lon="-1.6680120">
        <ele>633.6</ele>
        <time>2019-05-12T10:42:29Z</time>
      </trkpt>
      <trkpt lat="39.1454880" lon="-1.6680230">
        <ele>633.8</ele>
        <time>2019-05-12T10:42:30Z</time>
      </trkpt>
      <trkpt lat="39.1454690" lon="-1.6680330">
        <ele>634.2</ele>
        <time>2019-05-12T10:42:31Z</time>
      </trkpt>
      <trkpt lat="39.1454510" lon="-1.6680440">
        <ele>634.4</ele>
        <time>2019-05-12T10:42:32Z</time>
      </trkpt>
      <trkpt lat="39.1454330" lon="-1.6680570">
        <ele>634.4</ele>
        <time>2019-05-12T10:42:33Z</time>
      </trkpt>
      <trkpt lat="39.1454140" lon="-1.6680710">
        <ele>634.6</ele>
        <time>2019-05-12T10:42:34Z</time>
      </trkpt>
      <trkpt lat="39.1453960" lon="-1.6680850">
        <ele>634.6</ele>
        <time>2019-05-12T10:42:35Z</time>
      </trkpt>
      <trkpt lat="39.1453790" lon="-1.6681010">
        <ele>634.8</ele>
        <time>2019-05-12T10:42:36Z</time>
      </trkpt>
      <trkpt lat="39.1453630" lon="-1.6681180">
        <ele>635.0</ele>
        <time>2019-05-12T10:42:37Z</time>
      </trkpt>
      <trkpt lat="39.1453470" lon="-1.6681350">
        <ele>635.2</ele>
        <time>2019-05-12T10:42:38Z</time>
      </trkpt>
      <trkpt lat="39.1453300" lon="-1.6681510">
        <ele>635.4</ele>
        <time>2019-05-12T10:42:39Z</time>
      </trkpt>
      <trkpt lat="39.1453160" lon="-1.6681680">
        <ele>635.8</ele>
        <time>2019-05-12T10:42:40Z</time>
      </trkpt>
      <trkpt lat="39.1453020" lon="-1.6681850">
        <ele>635.8</ele>
        <time>2019-05-12T10:42:41Z</time>
      </trkpt>
      <trkpt lat="39.1452900" lon="-1.6682040">
        <ele>636.0</ele>
        <time>2019-05-12T10:42:42Z</time>
      </trkpt>
      <trkpt lat="39.1452790" lon="-1.6682280">
        <ele>636.4</ele>
        <time>2019-05-12T10:42:43Z</time>
      </trkpt>
      <trkpt lat="39.1452710" lon="-1.6682520">
        <ele>636.6</ele>
        <time>2019-05-12T10:42:44Z</time>
      </trkpt>
      <trkpt lat="39.1452630" lon="-1.6682760">
        <ele>636.6</ele>
        <time>2019-05-12T10:42:45Z</time>
      </trkpt>
      <trkpt lat="39.1452540" lon="-1.6683000">
        <ele>636.8</ele>
        <time>2019-05-12T10:42:46Z</time>
      </trkpt>
      <trkpt lat="39.1452440" lon="-1.6683220">
        <ele>637.0</ele>
        <time>2019-05-12T10:42:47Z</time>
      </trkpt>
      <trkpt lat="39.1452340" lon="-1.6683450">
        <ele>637.0</ele>
        <time>2019-05-12T10:42:48Z</time>
      </trkpt>
      <trkpt lat="39.1452240" lon="-1.6683700">
        <ele>637.2</ele>
        <time>2019-05-12T10:42:49Z</time>
      </trkpt>
      <trkpt lat="39.1452150" lon="-1.6683940">
        <ele>637.4</ele>
        <time>2019-05-12T10:42:50Z</time>
      </trkpt>
      <trkpt lat="39.1452040" lon="-1.6684180">
        <ele>637.6</ele>
        <time>2019-05-12T10:42:51Z</time>
      </trkpt>
      <trkpt lat="39.1451930" lon="-1.6684440">
        <ele>638.0</ele>
        <time>2019-05-12T10:42:52Z</time>
      </trkpt>
      <trkpt lat="39.1451820" lon="-1.6684700">
        <ele>638.2</ele>
        <time>2019-05-12T10:42:53Z</time>
      </trkpt>
      <trkpt lat="39.1451710" lon="-1.6684980">
        <ele>638.4</ele>
        <time>2019-05-12T10:42:54Z</time>
      </trkpt>
      <trkpt lat="39.1451600" lon="-1.6685270">
        <ele>638.6</ele>
        <time>2019-05-12T10:42:55Z</time>
      </trkpt>
      <trkpt lat="39.1451480" lon="-1.6685560">
        <ele>638.6</ele>
        <time>2019-05-12T10:42:56Z</time>
      </trkpt>
      <trkpt lat="39.1451360" lon="-1.6685860">
        <ele>638.8</ele>
        <time>2019-05-12T10:42:57Z</time>
      </trkpt>
      <trkpt lat="39.1451230" lon="-1.6686140">
        <ele>639.0</ele>
        <time>2019-05-12T10:42:58Z</time>
      </trkpt>
      <trkpt lat="39.1451090" lon="-1.6686410">
        <ele>639.2</ele>
        <time>2019-05-12T10:42:59Z</time>
      </trkpt>
      <trkpt lat="39.1450940" lon="-1.6686680">
        <ele>639.4</ele>
        <time>2019-05-12T10:43:00Z</time>
      </trkpt>
      <trkpt lat="39.1450790" lon="-1.6686920">
        <ele>639.6</ele>
        <time>2019-05-12T10:43:01Z</time>
      </trkpt>
      <trkpt lat="39.1450660" lon="-1.6687180">
        <ele>639.8</ele>
        <time>2019-05-12T10:43:02Z</time>
      </trkpt>
      <trkpt lat="39.1450520" lon="-1.6687450">
        <ele>639.8</ele>
        <time>2019-05-12T10:43:03Z</time>
      </trkpt>
      <trkpt lat="39.1450370" lon="-1.6687710">
        <ele>640.0</ele>
        <time>2019-05-12T10:43:04Z</time>
      </trkpt>
      <trkpt lat="39.1450240" lon="-1.6687980">
        <ele>640.0</ele>
        <time>2019-05-12T10:43:05Z</time>
      </trkpt>
      <trkpt lat="39.1450110" lon="-1.6688260">
        <ele>640.4</ele>
        <time>2019-05-12T10:43:06Z</time>
      </trkpt>
      <trkpt lat="39.1449970" lon="-1.6688520">
        <ele>640.6</ele>
        <time>2019-05-12T10:43:07Z</time>
      </trkpt>
      <trkpt lat="39.1449860" lon="-1.6688730">
        <ele>640.6</ele>
        <time>2019-05-12T10:43:08Z</time>
      </trkpt>
      <trkpt lat="39.1449770" lon="-1.6688920">
        <ele>640.8</ele>
        <time>2019-05-12T10:43:09Z</time>
      </trkpt>
      <trkpt lat="39.1449710" lon="-1.6689160">
        <ele>640.8</ele>
        <time>2019-05-12T10:43:10Z</time>
      </trkpt>
      <trkpt lat="39.1449640" lon="-1.6689390">
        <ele>641.0</ele>
        <time>2019-05-12T10:43:11Z</time>
      </trkpt>
      <trkpt lat="39.1449600" lon="-1.6689630">
        <ele>641.0</ele>
        <time>2019-05-12T10:43:12Z</time>
      </trkpt>
      <trkpt lat="39.1449570" lon="-1.6689900">
        <ele>641.2</ele>
        <time>2019-05-12T10:43:13Z</time>
      </trkpt>
      <trkpt lat="39.1449520" lon="-1.6690150">
        <ele>641.6</ele>
        <time>2019-05-12T10:43:14Z</time>
      </trkpt>
      <trkpt lat="39.1449470" lon="-1.6690420">
        <ele>641.8</ele>
        <time>2019-05-12T10:43:15Z</time>
      </trkpt>
      <trkpt lat="39.1449400" lon="-1.6690690">
        <ele>641.8</ele>
        <time>2019-05-12T10:43:16Z</time>
      </trkpt>
      <trkpt lat="39.1449300" lon="-1.6690970">
        <ele>642.0</ele>
        <time>2019-05-12T10:43:17Z</time>
      </trkpt>
      <trkpt lat="39.1449190" lon="-1.6691230">
        <ele>642.2</ele>
        <time>2019-05-12T10:43:18Z</time>
      </trkpt>
      <trkpt lat="39.1449080" lon="-1.6691500">
        <ele>642.4</ele>
        <time>2019-05-12T10:43:19Z</time>
      </trkpt>
      <trkpt lat="39.1448960" lon="-1.6691790">
        <ele>642.6</ele>
        <time>2019-05-12T10:43:20Z</time>
      </trkpt>
      <trkpt lat="39.1448840" lon="-1.6692060">
        <ele>642.8</ele>
        <time>2019-05-12T10:43:21Z</time>
      </trkpt>
      <trkpt lat="39.1448700" lon="-1.6692320">
        <ele>643.0</ele>
        <time>2019-05-12T10:43:22Z</time>
      </trkpt>
      <trkpt lat="39.1448570" lon="-1.6692570">
        <ele>643.0</ele>
        <time>2019-05-12T10:43:23Z</time>
      </trkpt>
      <trkpt lat="39.1448430" lon="-1.6692810">
        <ele>643.2</ele>
        <time>2019-05-12T10:43:24Z</time>
      </trkpt>
      <trkpt lat="39.1448300" lon="-1.6693040">
        <ele>643.4</ele>
        <time>2019-05-12T10:43:25Z</time>
      </trkpt>
      <trkpt lat="39.1448170" lon="-1.6693260">
        <ele>643.4</ele>
        <time>2019-05-12T10:43:26Z</time>
      </trkpt>
      <trkpt lat="39.1448030" lon="-1.6693480">
        <ele>643.6</ele>
        <time>2019-05-12T10:43:27Z</time>
      </trkpt>
      <trkpt lat="39.1447880" lon="-1.6693720">
        <ele>643.8</ele>
        <time>2019-05-12T10:43:28Z</time>
      </trkpt>
      <trkpt lat="39.1447730" lon="-1.6693950">
        <ele>643.8</ele>
        <time>2019-05-12T10:43:29Z</time>
      </trkpt>
      <trkpt lat="39.1447580" lon="-1.6694180">
        <ele>644.0</ele>
        <time>2019-05-12T10:43:30Z</time>
      </trkpt>
      <trkpt lat="39.1447420" lon="-1.6694410">
        <ele>644.0</ele>
        <time>2019-05-12T10:43:31Z</time>
      </trkpt>
      <trkpt lat="39.1447270" lon="-1.6694630">
        <ele>644.2</ele>
        <time>2019-05-12T10:43:32Z</time>
      </trkpt>
      <trkpt lat="39.1447100" lon="-1.6694860">
        <ele>644.4</ele>
        <time>2019-05-12T10:43:33Z</time>
      </trkpt>
      <trkpt lat="39.1446930" lon="-1.6695080">
        <ele>644.6</ele>
        <time>2019-05-12T10:43:34Z</time>
      </trkpt>
      <trkpt lat="39.1446760" lon="-1.6695310">
        <ele>644.8</ele>
        <time>2019-05-12T10:43:35Z</time>
      </trkpt>
      <trkpt lat="39.1446580" lon="-1.6695540">
        <ele>645.0</ele>
        <time>2019-05-12T10:43:36Z</time>
      </trkpt>
      <trkpt lat="39.1446410" lon="-1.6695780">
        <ele>645.0</ele>
        <time>2019-05-12T10:43:37Z</time>
      </trkpt>
      <trkpt lat="39.1446240" lon="-1.6696000">
        <ele>645.2</ele>
        <time>2019-05-12T10:43:38Z</time>
      </trkpt>
      <trkpt lat="39.1446060" lon="-1.6696220">
        <ele>645.4</ele>
        <time>2019-05-12T10:43:39Z</time>
      </trkpt>
      <trkpt lat="39.1445900" lon="-1.6696420">
        <ele>645.6</ele>
        <time>2019-05-12T10:43:40Z</time>
      </trkpt>
      <trkpt lat="39.1445730" lon="-1.6696610">
        <ele>645.8</ele>
        <time>2019-05-12T10:43:41Z</time>
      </trkpt>
      <trkpt lat="39.1445560" lon="-1.6696790">
        <ele>646.0</ele>
        <time>2019-05-12T10:43:42Z</time>
      </trkpt>
      <trkpt lat="39.1445390" lon="-1.6696950">
        <ele>646.2</ele>
        <time>2019-05-12T10:43:43Z</time>
      </trkpt>
      <trkpt lat="39.1445230" lon="-1.6697120">
        <ele>646.2</ele>
        <time>2019-05-12T10:43:44Z</time>
      </trkpt>
      <trkpt lat="39.1445050" lon="-1.6697270">
        <ele>646.4</ele>
        <time>2019-05-12T10:43:45Z</time>
      </trkpt>
      <trkpt lat="39.1444870" lon="-1.6697400">
        <ele>646.6</ele>
        <time>2019-05-12T10:43:46Z</time>
      </trkpt>
      <trkpt lat="39.1444690" lon="-1.6697530">
        <ele>646.6</ele>
        <time>2019-05-12T10:43:47Z</time>
      </trkpt>
      <trkpt lat="39.1444520" lon="-1.6697670">
        <ele>646.8</ele>
        <time>2019-05-12T10:43:48Z</time>
      </trkpt>
      <trkpt lat="39.1444340" lon="-1.6697790">
        <ele>646.8</ele>
        <time>2019-05-12T10:43:49Z</time>
      </trkpt>
      <trkpt lat="39.1444160" lon="-1.6697930">
        <ele>647.0</ele>
        <time>2019-05-12T10:43:50Z</time>
      </trkpt>
      <trkpt lat="39.1443980" lon="-1.6698070">
        <ele>647.2</ele>
        <time>2019-05-12T10:43:51Z</time>
      </trkpt>
      <trkpt lat="39.1443810" lon="-1.6698210">
        <ele>647.8</ele>
        <time>2019-05-12T10:43:52Z</time>
      </trkpt>
      <trkpt lat="39.1443650" lon="-1.6698350">
        <ele>648.2</ele>
        <time>2019-05-12T10:43:53Z</time>
      </trkpt>
      <trkpt lat="39.1443470" lon="-1.6698470">
        <ele>648.6</ele>
        <time>2019-05-12T10:43:54Z</time>
      </trkpt>
      <trkpt lat="39.1443290" lon="-1.6698590">
        <ele>648.8</ele>
        <time>2019-05-12T10:43:55Z</time>
      </trkpt>
      <trkpt lat="39.1443120" lon="-1.6698740">
        <ele>649.0</ele>
        <time>2019-05-12T10:43:56Z</time>
      </trkpt>
      <trkpt lat="39.1442960" lon="-1.6698880">
        <ele>649.4</ele>
        <time>2019-05-12T10:43:57Z</time>
      </trkpt>
      <trkpt lat="39.1442790" lon="-1.6699020">
        <ele>649.6</ele>
        <time>2019-05-12T10:43:58Z</time>
      </trkpt>
      <trkpt lat="39.1442620" lon="-1.6699150">
        <ele>649.6</ele>
        <time>2019-05-12T10:43:59Z</time>
      </trkpt>
      <trkpt lat="39.1442440" lon="-1.6699270">
        <ele>650.0</ele>
        <time>2019-05-12T10:44:00Z</time>
      </trkpt>
      <trkpt lat="39.1442260" lon="-1.6699400">
        <ele>650.2</ele>
        <time>2019-05-12T10:44:01Z</time>
      </trkpt>
      <trkpt lat="39.1442080" lon="-1.6699520">
        <ele>650.4</ele>
        <time>2019-05-12T10:44:02Z</time>
      </trkpt>
      <trkpt lat="39.1441920" lon="-1.6699660">
        <ele>650.6</ele>
        <time>2019-05-12T10:44:03Z</time>
      </trkpt>
      <trkpt lat="39.1441760" lon="-1.6699830">
        <ele>650.8</ele>
        <time>2019-05-12T10:44:04Z</time>
      </trkpt>
      <trkpt lat="39.1441610" lon="-1.6699990">
        <ele>651.0</ele>
        <time>2019-05-12T10:44:05Z</time>
      </trkpt>
      <trkpt lat="39.1441470" lon="-1.6700150">
        <ele>651.2</ele>
        <time>2019-05-12T10:44:06Z</time>
      </trkpt>
      <trkpt lat="39.1441330" lon="-1.6700290">
        <ele>651.6</ele>
        <time>2019-05-12T10:44:07Z</time>
      </trkpt>
      <trkpt lat="39.1441160" lon="-1.6700420">
        <ele>651.8</ele>
        <time>2019-05-12T10:44:08Z</time>
      </trkpt>
      <trkpt lat="39.1441010" lon="-1.6700530">
        <ele>652.0</ele>
        <time>2019-05-12T10:44:09Z</time>
      </trkpt>
      <trkpt lat="39.1440860" lon="-1.6700640">
        <ele>652.2</ele>
        <time>2019-05-12T10:44:10Z</time>
      </trkpt>
      <trkpt lat="39.1440690" lon="-1.6700730">
        <ele>652.4</ele>
        <time>2019-05-12T10:44:11Z</time>
      </trkpt>
      <trkpt lat="39.1440530" lon="-1.6700830">
        <ele>652.6</ele>
        <time>2019-05-12T10:44:12Z</time>
      </trkpt>
      <trkpt lat="39.1440370" lon="-1.6700930">
        <ele>652.8</ele>
        <time>2019-05-12T10:44:13Z</time>
      </trkpt>
      <trkpt lat="39.1440210" lon="-1.6701020">
        <ele>653.2</ele>
        <time>2019-05-12T10:44:14Z</time>
      </trkpt>
      <trkpt lat="39.1440070" lon="-1.6701140">
        <ele>653.8</ele>
        <time>2019-05-12T10:44:15Z</time>
      </trkpt>
      <trkpt lat="39.1439910" lon="-1.6701240">
        <ele>654.2</ele>
        <time>2019-05-12T10:44:16Z</time>
      </trkpt>
      <trkpt lat="39.1439760" lon="-1.6701320">
        <ele>654.4</ele>
        <time>2019-05-12T10:44:17Z</time>
      </trkpt>
      <trkpt lat="39.1439620" lon="-1.6701410">
        <ele>654.8</ele>
        <time>2019-05-12T10:44:18Z</time>
      </trkpt>
      <trkpt lat="39.1439520" lon="-1.6701610">
        <ele>655.0</ele>
        <time>2019-05-12T10:44:19Z</time>
      </trkpt>
      <trkpt lat="39.1439450" lon="-1.6701890">
        <ele>655.2</ele>
        <time>2019-05-12T10:44:20Z</time>
      </trkpt>
      <trkpt lat="39.1439410" lon="-1.6702180">
        <ele>655.6</ele>
        <time>2019-05-12T10:44:21Z</time>
      </trkpt>
      <trkpt lat="39.1439390" lon="-1.6702360">
        <ele>656.0</ele>
        <time>2019-05-12T10:44:22Z</time>
      </trkpt>
      <trkpt lat="39.1439410" lon="-1.6702510">
        <ele>656.2</ele>
        <time>2019-05-12T10:44:23Z</time>
      </trkpt>
      <trkpt lat="39.1439410" lon="-1.6702700">
        <ele>656.6</ele>
        <time>2019-05-12T10:44:24Z</time>
      </trkpt>
      <trkpt lat="39.1439380" lon="-1.6702930">
        <ele>656.8</ele>
        <time>2019-05-12T10:44:25Z</time>
      </trkpt>
      <trkpt lat="39.1439350" lon="-1.6703170">
        <ele>657.0</ele>
        <time>2019-05-12T10:44:26Z</time>
      </trkpt>
      <trkpt lat="39.1439380" lon="-1.6703380">
        <ele>657.0</ele>
        <time>2019-05-12T10:44:27Z</time>
      </trkpt>
      <trkpt lat="39.1439420" lon="-1.6703580">
        <ele>657.2</ele>
        <time>2019-05-12T10:44:28Z</time>
      </trkpt>
      <trkpt lat="39.1439480" lon="-1.6703790">
        <ele>657.4</ele>
        <time>2019-05-12T10:44:29Z</time>
      </trkpt>
      <trkpt lat="39.1439590" lon="-1.6703970">
        <ele>657.8</ele>
        <time>2019-05-12T10:44:30Z</time>
      </trkpt>
      <trkpt lat="39.1439720" lon="-1.6704100">
        <ele>658.2</ele>
        <time>2019-05-12T10:44:31Z</time>
      </trkpt>
      <trkpt lat="39.1439860" lon="-1.6704170">
        <ele>658.4</ele>
        <time>2019-05-12T10:44:32Z</time>
      </trkpt>
      <trkpt lat="39.1440020" lon="-1.6704190">
        <ele>658.6</ele>
        <time>2019-05-12T10:44:33Z</time>
      </trkpt>
      <trkpt lat="39.1440200" lon="-1.6704200">
        <ele>658.6</ele>
        <time>2019-05-12T10:44:34Z</time>
      </trkpt>
      <trkpt lat="39.1440400" lon="-1.6704180">
        <ele>659.0</ele>
        <time>2019-05-12T10:44:35Z</time>
      </trkpt>
      <trkpt lat="39.1440610" lon="-1.6704120">
        <ele>659.2</ele>
        <time>2019-05-12T10:44:36Z</time>
      </trkpt>
      <trkpt lat="39.1440850" lon="-1.6704030">
        <ele>659.4</ele>
        <time>2019-05-12T10:44:37Z</time>
      </trkpt>
      <trkpt lat="39.1441090" lon="-1.6703910">
        <ele>659.6</ele>
        <time>2019-05-12T10:44:38Z</time>
      </trkpt>
      <trkpt lat="39.1441260" lon="-1.6703730">
        <ele>660.0</ele>
        <time>2019-05-12T10:44:39Z</time>
      </trkpt>
      <trkpt lat="39.1441580" lon="-1.6703550">
        <ele>660.2</ele>
        <time>2019-05-12T10:44:40Z</time>
      </trkpt>
      <trkpt lat="39.1441850" lon="-1.6703350">
        <ele>660.2</ele>
        <time>2019-05-12T10:44:41Z</time>
      </trkpt>
      <trkpt lat="39.1442150" lon="-1.6703180">
        <ele>660.4</ele>
        <time>2019-05-12T10:44:42Z</time>
      </trkpt>
      <trkpt lat="39.1442490" lon="-1.6703050">
        <ele>660.4</ele>
        <time>2019-05-12T10:44:43Z</time>
      </trkpt>
      <trkpt lat="39.1442860" lon="-1.6702990">
        <ele>660.4</ele>
        <time>2019-05-12T10:44:44Z</time>
      </trkpt>
      <trkpt lat="39.1443250" lon="-1.6702920">
        <ele>660.4</ele>
        <time>2019-05-12T10:44:45Z</time>
      </trkpt>
      <trkpt lat="39.1443670" lon="-1.6702800">
        <ele>660.4</ele>
        <time>2019-05-12T10:44:46Z</time>
      </trkpt>
      <trkpt lat="39.1444100" lon="-1.6702640">
        <ele>660.4</ele>
        <time>2019-05-12T10:44:47Z</time>
      </trkpt>
      <trkpt lat="39.1444560" lon="-1.6702480">
        <ele>660.4</ele>
        <time>2019-05-12T10:44:48Z</time>
      </trkpt>
      <trkpt lat="39.1445010" lon="-1.6702300">
        <ele>660.4</ele>
        <time>2019-05-12T10:44:49Z</time>
      </trkpt>
      <trkpt lat="39.1445470" lon="-1.6702090">
        <ele>660.4</ele>
        <time>2019-05-12T10:44:50Z</time>
      </trkpt>
      <trkpt lat="39.1445940" lon="-1.6701920">
        <ele>660.4</ele>
        <time>2019-05-12T10:44:51Z</time>
      </trkpt>
      <trkpt lat="39.1446420" lon="-1.6701730">
        <ele>660.4</ele>
        <time>2019-05-12T10:44:52Z</time>
      </trkpt>
      <trkpt lat="39.1446880" lon="-1.6701510">
        <ele>660.2</ele>
        <time>2019-05-12T10:44:53Z</time>
      </trkpt>
      <trkpt lat="39.1447350" lon="-1.6701280">
        <ele>660.2</ele>
        <time>2019-05-12T10:44:54Z</time>
      </trkpt>
      <trkpt lat="39.1447830" lon="-1.6701090">
        <ele>660.2</ele>
        <time>2019-05-12T10:44:55Z</time>
      </trkpt>
      <trkpt lat="39.1448320" lon="-1.6700900">
        <ele>660.2</ele>
        <time>2019-05-12T10:44:56Z</time>
      </trkpt>
      <trkpt lat="39.1448790" lon="-1.6700660">
        <ele>660.2</ele>
        <time>2019-05-12T10:44:57Z</time>
      </trkpt>
      <trkpt lat="39.1449280" lon="-1.6700400">
        <ele>660.2</ele>
        <time>2019-05-12T10:44:58Z</time>
      </trkpt>
      <trkpt lat="39.1449800" lon="-1.6700160">
        <ele>660.0</ele>
        <time>2019-05-12T10:44:59Z</time>
      </trkpt>
      <trkpt lat="39.1450350" lon="-1.6699990">
        <ele>660.0</ele>
        <time>2019-05-12T10:45:00Z</time>
      </trkpt>
      <trkpt lat="39.1450880" lon="-1.6699720">
        <ele>659.8</ele>
        <time>2019-05-12T10:45:01Z</time>
      </trkpt>
      <trkpt lat="39.1451390" lon="-1.6699330">
        <ele>659.8</ele>
        <time>2019-05-12T10:45:02Z</time>
      </trkpt>
      <trkpt lat="39.1451900" lon="-1.6698870">
        <ele>659.8</ele>
        <time>2019-05-12T10:45:03Z</time>
      </trkpt>
      <trkpt lat="39.1452430" lon="-1.6698350">
        <ele>659.8</ele>
        <time>2019-05-12T10:45:04Z</time>
      </trkpt>
      <trkpt lat="39.1452960" lon="-1.6697800">
        <ele>659.6</ele>
        <time>2019-05-12T10:45:05Z</time>
      </trkpt>
      <trkpt lat="39.1453540" lon="-1.6697270">
        <ele>659.6</ele>
        <time>2019-05-12T10:45:06Z</time>
      </trkpt>
      <trkpt lat="39.1454140" lon="-1.6696730">
        <ele>659.4</ele>
        <time>2019-05-12T10:45:07Z</time>
      </trkpt>
      <trkpt lat="39.1454700" lon="-1.6696120">
        <ele>659.2</ele>
        <time>2019-05-12T10:45:08Z</time>
      </trkpt>
      <trkpt lat="39.1455200" lon="-1.6695450">
        <ele>659.0</ele>
        <time>2019-05-12T10:45:09Z</time>
      </trkpt>
      <trkpt lat="39.1455650" lon="-1.6694910">
        <ele>658.8</ele>
        <time>2019-05-12T10:45:10Z</time>
      </trkpt>
      <trkpt lat="39.1456130" lon="-1.6694650">
        <ele>658.8</ele>
        <time>2019-05-12T10:45:11Z</time>
      </trkpt>
      <trkpt lat="39.1456670" lon="-1.6694660">
        <ele>658.6</ele>
        <time>2019-05-12T10:45:12Z</time>
      </trkpt>
      <trkpt lat="39.1457180" lon="-1.6694810">
        <ele>658.0</ele>
        <time>2019-05-12T10:45:13Z</time>
      </trkpt>
      <trkpt lat="39.1457590" lon="-1.6695160">
        <ele>657.4</ele>
        <time>2019-05-12T10:45:14Z</time>
      </trkpt>
      <trkpt lat="39.1457950" lon="-1.6695790">
        <ele>657.0</ele>
        <time>2019-05-12T10:45:15Z</time>
      </trkpt>
      <trkpt lat="39.1458320" lon="-1.6696490">
        <ele>656.6</ele>
        <time>2019-05-12T10:45:16Z</time>
      </trkpt>
      <trkpt lat="39.1458790" lon="-1.6697220">
        <ele>656.4</ele>
        <time>2019-05-12T10:45:17Z</time>
      </trkpt>
      <trkpt lat="39.1459180" lon="-1.6697950">
        <ele>656.0</ele>
        <time>2019-05-12T10:45:18Z</time>
      </trkpt>
      <trkpt lat="39.1459460" lon="-1.6698450">
        <ele>655.6</ele>
        <time>2019-05-12T10:45:19Z</time>
      </trkpt>
      <trkpt lat="39.1459770" lon="-1.6698480">
        <ele>655.2</ele>
        <time>2019-05-12T10:45:20Z</time>
      </trkpt>
      <trkpt lat="39.1460080" lon="-1.6698320">
        <ele>654.8</ele>
        <time>2019-05-12T10:45:21Z</time>
      </trkpt>
      <trkpt lat="39.1460360" lon="-1.6698090">
        <ele>654.4</ele>
        <time>2019-05-12T10:45:22Z</time>
      </trkpt>
      <trkpt lat="39.1460600" lon="-1.6697860">
        <ele>653.8</ele>
        <time>2019-05-12T10:45:23Z</time>
      </trkpt>
      <trkpt lat="39.1460880" lon="-1.6697730">
        <ele>653.0</ele>
        <time>2019-05-12T10:45:24Z</time>
      </trkpt>
      <trkpt lat="39.1461190" lon="-1.6697650">
        <ele>651.4</ele>
        <time>2019-05-12T10:45:25Z</time>
      </trkpt>
      <trkpt lat="39.1461550" lon="-1.6697540">
        <ele>650.2</ele>
        <time>2019-05-12T10:45:26Z</time>
      </trkpt>
      <trkpt lat="39.1461950" lon="-1.6697410">
        <ele>649.2</ele>
        <time>2019-05-12T10:45:27Z</time>
      </trkpt>
      <trkpt lat="39.1462380" lon="-1.6697320">
        <ele>648.6</ele>
        <time>2019-05-12T10:45:28Z</time>
      </trkpt>
      <trkpt lat="39.1462800" lon="-1.6697250">
        <ele>647.8</ele>
        <time>2019-05-12T10:45:29Z</time>
      </trkpt>
      <trkpt lat="39.1463170" lon="-1.6697280">
        <ele>646.8</ele>
        <time>2019-05-12T10:45:30Z</time>
      </trkpt>
      <trkpt lat="39.1463440" lon="-1.6697470">
        <ele>646.2</ele>
        <time>2019-05-12T10:45:31Z</time>
      </trkpt>
      <trkpt lat="39.1463710" lon="-1.6697660">
        <ele>645.8</ele>
        <time>2019-05-12T10:45:32Z</time>
      </trkpt>
      <trkpt lat="39.1464000" lon="-1.6697840">
        <ele>645.2</ele>
        <time>2019-05-12T10:45:33Z</time>
      </trkpt>
      <trkpt lat="39.1464340" lon="-1.6697930">
        <ele>644.8</ele>
        <time>2019-05-12T10:45:34Z</time>
      </trkpt>
      <trkpt lat="39.1464700" lon="-1.6698030">
        <ele>644.4</ele>
        <time>2019-05-12T10:45:35Z</time>
      </trkpt>
      <trkpt lat="39.1465080" lon="-1.6698160">
        <ele>644.0</ele>
        <time>2019-05-12T10:45:36Z</time>
      </trkpt>
      <trkpt lat="39.1465460" lon="-1.6698300">
        <ele>643.4</ele>
        <time>2019-05-12T10:45:37Z</time>
      </trkpt>
      <trkpt lat="39.1465830" lon="-1.6698380">
        <ele>642.8</ele>
        <time>2019-05-12T10:45:38Z</time>
      </trkpt>
      <trkpt lat="39.1466250" lon="-1.6698350">
        <ele>642.4</ele>
        <time>2019-05-12T10:45:39Z</time>
      </trkpt>
      <trkpt lat="39.1466740" lon="-1.6698300">
        <ele>642.0</ele>
        <time>2019-05-12T10:45:40Z</time>
      </trkpt>
      <trkpt lat="39.1467270" lon="-1.6698350">
        <ele>641.4</ele>
        <time>2019-05-12T10:45:41Z</time>
      </trkpt>
      <trkpt lat="39.1467830" lon="-1.6698530">
        <ele>640.8</ele>
        <time>2019-05-12T10:45:42Z</time>
      </trkpt>
      <trkpt lat="39.1468450" lon="-1.6698640">
        <ele>640.2</ele>
        <time>2019-05-12T10:45:43Z</time>
      </trkpt>
      <trkpt lat="39.1469120" lon="-1.6698550">
        <ele>639.6</ele>
        <time>2019-05-12T10:45:44Z</time>
      </trkpt>
      <trkpt lat="39.1469770" lon="-1.6698440">
        <ele>639.2</ele>
        <time>2019-05-12T10:45:45Z</time>
      </trkpt>
      <trkpt lat="39.1470360" lon="-1.6698480">
        <ele>638.6</ele>
        <time>2019-05-12T10:45:46Z</time>
      </trkpt>
      <trkpt lat="39.1470980" lon="-1.6698620">
        <ele>638.0</ele>
        <time>2019-05-12T10:45:47Z</time>
      </trkpt>
      <trkpt lat="39.1471580" lon="-1.6698780">
        <ele>637.4</ele>
        <time>2019-05-12T10:45:48Z</time>
      </trkpt>
      <trkpt lat="39.1472140" lon="-1.6698820">
        <ele>636.8</ele>
        <time>2019-05-12T10:45:49Z</time>
      </trkpt>
      <trkpt lat="39.1472670" lon="-1.6698920">
        <ele>636.2</ele>
        <time>2019-05-12T10:45:50Z</time>
      </trkpt>
      <trkpt lat="39.1473120" lon="-1.6699190">
        <ele>635.6</ele>
        <time>2019-05-12T10:45:51Z</time>
      </trkpt>
      <trkpt lat="39.1473480" lon="-1.6699610">
        <ele>634.8</ele>
        <time>2019-05-12T10:45:52Z</time>
      </trkpt>
      <trkpt lat="39.1473710" lon="-1.6700160">
        <ele>634.2</ele>
        <time>2019-05-12T10:45:53Z</time>
      </trkpt>
      <trkpt lat="39.1473850" lon="-1.6700790">
        <ele>633.4</ele>
        <time>2019-05-12T10:45:54Z</time>
      </trkpt>
      <trkpt lat="39.1473990" lon="-1.6701430">
        <ele>632.8</ele>
        <time>2019-05-12T10:45:55Z</time>
      </trkpt>
      <trkpt lat="39.1474230" lon="-1.6701910">
        <ele>632.2</ele>
        <time>2019-05-12T10:45:56Z</time>
      </trkpt>
      <trkpt lat="39.1474550" lon="-1.6702180">
        <ele>631.6</ele>
        <time>2019-05-12T10:45:57Z</time>
      </trkpt>
      <trkpt lat="39.1475040" lon="-1.6702190">
        <ele>630.6</ele>
        <time>2019-05-12T10:45:58Z</time>
      </trkpt>
      <trkpt lat="39.1475530" lon="-1.6702200">
        <ele>629.2</ele>
        <time>2019-05-12T10:45:59Z</time>
      </trkpt>
      <trkpt lat="39.1475990" lon="-1.6702290">
        <ele>628.8</ele>
        <time>2019-05-12T10:46:00Z</time>
      </trkpt>
      <trkpt lat="39.1476440" lon="-1.6702490">
        <ele>628.4</ele>
        <time>2019-05-12T10:46:01Z</time>
      </trkpt>
      <trkpt lat="39.1476860" lon="-1.6702670">
        <ele>628.2</ele>
        <time>2019-05-12T10:46:02Z</time>
      </trkpt>
      <trkpt lat="39.1477330" lon="-1.6702780">
        <ele>627.8</ele>
        <time>2019-05-12T10:46:03Z</time>
      </trkpt>
      <trkpt lat="39.1477740" lon="-1.6702940">
        <ele>627.4</ele>
        <time>2019-05-12T10:46:04Z</time>
      </trkpt>
      <trkpt lat="39.1478160" lon="-1.6703270">
        <ele>627.0</ele>
        <time>2019-05-12T10:46:05Z</time>
      </trkpt>
      <trkpt lat="39.1478510" lon="-1.6703750">
        <ele>626.4</ele>
        <time>2019-05-12T10:46:06Z</time>
      </trkpt>
      <trkpt lat="39.1478800" lon="-1.6704320">
        <ele>625.8</ele>
        <time>2019-05-12T10:46:07Z</time>
      </trkpt>
      <trkpt lat="39.1478650" lon="-1.6704970">
        <ele>625.0</ele>
        <time>2019-05-12T10:46:08Z</time>
      </trkpt>
      <trkpt lat="39.1478470" lon="-1.6705560">
        <ele>624.2</ele>
        <time>2019-05-12T10:46:09Z</time>
      </trkpt>
      <trkpt lat="39.1478240" lon="-1.6706100">
        <ele>623.4</ele>
        <time>2019-05-12T10:46:10Z</time>
      </trkpt>
      <trkpt lat="39.1478000" lon="-1.6706630">
        <ele>622.2</ele>
        <time>2019-05-12T10:46:11Z</time>
      </trkpt>
      <trkpt lat="39.1477780" lon="-1.6707140">
        <ele>621.2</ele>
        <time>2019-05-12T10:46:12Z</time>
      </trkpt>
      <trkpt lat="39.1477550" lon="-1.6707660">
        <ele>619.6</ele>
        <time>2019-05-12T10:46:13Z</time>
      </trkpt>
      <trkpt lat="39.1477290" lon="-1.6708240">
        <ele>618.4</ele>
        <time>2019-05-12T10:46:14Z</time>
      </trkpt>
      <trkpt lat="39.1477040" lon="-1.6708880">
        <ele>617.2</ele>
        <time>2019-05-12T10:46:15Z</time>
      </trkpt>
      <trkpt lat="39.1476810" lon="-1.6709610">
        <ele>616.8</ele>
        <time>2019-05-12T10:46:16Z</time>
      </trkpt>
      <trkpt lat="39.1476600" lon="-1.6710380">
        <ele>616.4</ele>
        <time>2019-05-12T10:46:17Z</time>
      </trkpt>
      <trkpt lat="39.1476430" lon="-1.6711140">
        <ele>616.2</ele>
        <time>2019-05-12T10:46:18Z</time>
      </trkpt>
      <trkpt lat="39.1476230" lon="-1.6711880">
        <ele>616.2</ele>
        <time>2019-05-12T10:46:19Z</time>
      </trkpt>
      <trkpt lat="39.1476010" lon="-1.6712600">
        <ele>616.2</ele>
        <time>2019-05-12T10:46:20Z</time>
      </trkpt>
      <trkpt lat="39.1475770" lon="-1.6713260">
        <ele>616.0</ele>
        <time>2019-05-12T10:46:21Z</time>
      </trkpt>
      <trkpt lat="39.1475500" lon="-1.6713920">
        <ele>616.0</ele>
        <time>2019-05-12T10:46:22Z</time>
      </trkpt>
      <trkpt lat="39.1475200" lon="-1.6714570">
        <ele>616.0</ele>
        <time>2019-05-12T10:46:23Z</time>
      </trkpt>
      <trkpt lat="39.1474870" lon="-1.6715250">
        <ele>616.0</ele>
        <time>2019-05-12T10:46:24Z</time>
      </trkpt>
      <trkpt lat="39.1474520" lon="-1.6715940">
        <ele>616.0</ele>
        <time>2019-05-12T10:46:25Z</time>
      </trkpt>
      <trkpt lat="39.1474170" lon="-1.6716670">
        <ele>615.8</ele>
        <time>2019-05-12T10:46:26Z</time>
      </trkpt>
      <trkpt lat="39.1473830" lon="-1.6717400">
        <ele>615.8</ele>
        <time>2019-05-12T10:46:27Z</time>
      </trkpt>
      <trkpt lat="39.1473520" lon="-1.6718110">
        <ele>615.6</ele>
        <time>2019-05-12T10:46:28Z</time>
      </trkpt>
      <trkpt lat="39.1473200" lon="-1.6718760">
        <ele>615.6</ele>
        <time>2019-05-12T10:46:29Z</time>
      </trkpt>
      <trkpt lat="39.1472860" lon="-1.6719420">
        <ele>615.4</ele>
        <time>2019-05-12T10:46:30Z</time>
      </trkpt>
      <trkpt lat="39.1472540" lon="-1.6720070">
        <ele>615.4</ele>
        <time>2019-05-12T10:46:31Z</time>
      </trkpt>
      <trkpt lat="39.1472240" lon="-1.6720710">
        <ele>615.0</ele>
        <time>2019-05-12T10:46:32Z</time>
      </trkpt>
      <trkpt lat="39.1471980" lon="-1.6721350">
        <ele>615.0</ele>
        <time>2019-05-12T10:46:33Z</time>
      </trkpt>
      <trkpt lat="39.1471690" lon="-1.6721990">
        <ele>614.8</ele>
        <time>2019-05-12T10:46:34Z</time>
      </trkpt>
      <trkpt lat="39.1471360" lon="-1.6722620">
        <ele>614.8</ele>
        <time>2019-05-12T10:46:35Z</time>
      </trkpt>
      <trkpt lat="39.1470980" lon="-1.6723150">
        <ele>614.8</ele>
        <time>2019-05-12T10:46:36Z</time>
      </trkpt>
      <trkpt lat="39.1470560" lon="-1.6723590">
        <ele>614.8</ele>
        <time>2019-05-12T10:46:37Z</time>
      </trkpt>
      <trkpt lat="39.1470100" lon="-1.6723930">
        <ele>614.8</ele>
        <time>2019-05-12T10:46:38Z</time>
      </trkpt>
      <trkpt lat="39.1469610" lon="-1.6724250">
        <ele>614.6</ele>
        <time>2019-05-12T10:46:39Z</time>
      </trkpt>
      <trkpt lat="39.1469120" lon="-1.6724480">
        <ele>614.6</ele>
        <time>2019-05-12T10:46:40Z</time>
      </trkpt>
      <trkpt lat="39.1468590" lon="-1.6724700">
        <ele>614.6</ele>
        <time>2019-05-12T10:46:41Z</time>
      </trkpt>
      <trkpt lat="39.1468080" lon="-1.6724970">
        <ele>614.6</ele>
        <time>2019-05-12T10:46:42Z</time>
      </trkpt>
      <trkpt lat="39.1467570" lon="-1.6725290">
        <ele>614.6</ele>
        <time>2019-05-12T10:46:43Z</time>
      </trkpt>
      <trkpt lat="39.1467070" lon="-1.6725640">
        <ele>614.6</ele>
        <time>2019-05-12T10:46:44Z</time>
      </trkpt>
      <trkpt lat="39.1466610" lon="-1.6726000">
        <ele>614.8</ele>
        <time>2019-05-12T10:46:45Z</time>
      </trkpt>
      <trkpt lat="39.1466150" lon="-1.6726350">
        <ele>614.8</ele>
        <time>2019-05-12T10:46:46Z</time>
      </trkpt>
      <trkpt lat="39.1465710" lon="-1.6726680">
        <ele>614.8</ele>
        <time>2019-05-12T10:46:47Z</time>
      </trkpt>
      <trkpt lat="39.1465300" lon="-1.6727000">
        <ele>614.8</ele>
        <time>2019-05-12T10:46:48Z</time>
      </trkpt>
      <trkpt lat="39.1464880" lon="-1.6727330">
        <ele>614.8</ele>
        <time>2019-05-12T10:46:49Z</time>
      </trkpt>
      <trkpt lat="39.1464490" lon="-1.6727700">
        <ele>614.8</ele>
        <time>2019-05-12T10:46:50Z</time>
      </trkpt>
      <trkpt lat="39.1464110" lon="-1.6728120">
        <ele>614.8</ele>
        <time>2019-05-12T10:46:51Z</time>
      </trkpt>
      <trkpt lat="39.1463780" lon="-1.6728590">
        <ele>614.8</ele>
        <time>2019-05-12T10:46:52Z</time>
      </trkpt>
      <trkpt lat="39.1463460" lon="-1.6729100">
        <ele>615.0</ele>
        <time>2019-05-12T10:46:53Z</time>
      </trkpt>
      <trkpt lat="39.1463190" lon="-1.6729660">
        <ele>615.2</ele>
        <time>2019-05-12T10:46:54Z</time>
      </trkpt>
      <trkpt lat="39.1462920" lon="-1.6730260">
        <ele>615.4</ele>
        <time>2019-05-12T10:46:55Z</time>
      </trkpt>
      <trkpt lat="39.1462620" lon="-1.6730920">
        <ele>615.6</ele>
        <time>2019-05-12T10:46:56Z</time>
      </trkpt>
      <trkpt lat="39.1462260" lon="-1.6731600">
        <ele>615.6</ele>
        <time>2019-05-12T10:46:57Z</time>
      </trkpt>
      <trkpt lat="39.1461900" lon="-1.6732270">
        <ele>615.6</ele>
        <time>2019-05-12T10:46:58Z</time>
      </trkpt>
      <trkpt lat="39.1461500" lon="-1.6732930">
        <ele>615.6</ele>
        <time>2019-05-12T10:46:59Z</time>
      </trkpt>
      <trkpt lat="39.1461060" lon="-1.6733590">
        <ele>615.6</ele>
        <time>2019-05-12T10:47:00Z</time>
      </trkpt>
      <trkpt lat="39.1460600" lon="-1.6734200">
        <ele>615.6</ele>
        <time>2019-05-12T10:47:01Z</time>
      </trkpt>
      <trkpt lat="39.1460100" lon="-1.6734800">
        <ele>615.6</ele>
        <time>2019-05-12T10:47:02Z</time>
      </trkpt>
      <trkpt lat="39.1459570" lon="-1.6735340">
        <ele>615.6</ele>
        <time>2019-05-12T10:47:03Z</time>
      </trkpt>
      <trkpt lat="39.1458980" lon="-1.6735800">
        <ele>615.6</ele>
        <time>2019-05-12T10:47:04Z</time>
      </trkpt>
      <trkpt lat="39.1458350" lon="-1.6736170">
        <ele>615.6</ele>
        <time>2019-05-12T10:47:05Z</time>
      </trkpt>
      <trkpt lat="39.1457720" lon="-1.6736470">
        <ele>615.4</ele>
        <time>2019-05-12T10:47:06Z</time>
      </trkpt>
      <trkpt lat="39.1457060" lon="-1.6736680">
        <ele>615.4</ele>
        <time>2019-05-12T10:47:07Z</time>
      </trkpt>
      <trkpt lat="39.1456410" lon="-1.6736760">
        <ele>615.2</ele>
        <time>2019-05-12T10:47:08Z</time>
      </trkpt>
      <trkpt lat="39.1455810" lon="-1.6736680">
        <ele>615.2</ele>
        <time>2019-05-12T10:47:09Z</time>
      </trkpt>
      <trkpt lat="39.1455220" lon="-1.6736450">
        <ele>615.2</ele>
        <time>2019-05-12T10:47:10Z</time>
      </trkpt>
      <trkpt lat="39.1454650" lon="-1.6736200">
        <ele>615.2</ele>
        <time>2019-05-12T10:47:11Z</time>
      </trkpt>
      <trkpt lat="39.1454090" lon="-1.6736010">
        <ele>615.2</ele>
        <time>2019-05-12T10:47:12Z</time>
      </trkpt>
      <trkpt lat="39.1453520" lon="-1.6735860">
        <ele>615.2</ele>
        <time>2019-05-12T10:47:13Z</time>
      </trkpt>
      <trkpt lat="39.1452930" lon="-1.6735810">
        <ele>615.2</ele>
        <time>2019-05-12T10:47:14Z</time>
      </trkpt>
      <trkpt lat="39.1452340" lon="-1.6735870">
        <ele>615.2</ele>
        <time>2019-05-12T10:47:15Z</time>
      </trkpt>
      <trkpt lat="39.1451760" lon="-1.6736040">
        <ele>615.2</ele>
        <time>2019-05-12T10:47:16Z</time>
      </trkpt>
      <trkpt lat="39.1451190" lon="-1.6736270">
        <ele>615.2</ele>
        <time>2019-05-12T10:47:17Z</time>
      </trkpt>
      <trkpt lat="39.1450650" lon="-1.6736640">
        <ele>615.4</ele>
        <time>2019-05-12T10:47:18Z</time>
      </trkpt>
      <trkpt lat="39.1450160" lon="-1.6737110">
        <ele>615.4</ele>
        <time>2019-05-12T10:47:19Z</time>
      </trkpt>
      <trkpt lat="39.1449670" lon="-1.6737580">
        <ele>615.8</ele>
        <time>2019-05-12T10:47:20Z</time>
      </trkpt>
      <trkpt lat="39.1449120" lon="-1.6737920">
        <ele>616.0</ele>
        <time>2019-05-12T10:47:21Z</time>
      </trkpt>
      <trkpt lat="39.1448500" lon="-1.6738140">
        <ele>616.0</ele>
        <time>2019-05-12T10:47:22Z</time>
      </trkpt>
      <trkpt lat="39.1447840" lon="-1.6738330">
        <ele>616.0</ele>
        <time>2019-05-12T10:47:23Z</time>
      </trkpt>
      <trkpt lat="39.1447190" lon="-1.6738450">
        <ele>616.2</ele>
        <time>2019-05-12T10:47:24Z</time>
      </trkpt>
      <trkpt lat="39.1446530" lon="-1.6738510">
        <ele>616.2</ele>
        <time>2019-05-12T10:47:25Z</time>
      </trkpt>
      <trkpt lat="39.1445850" lon="-1.6738430">
        <ele>616.2</ele>
        <time>2019-05-12T10:47:26Z</time>
      </trkpt>
      <trkpt lat="39.1445220" lon="-1.6738230">
        <ele>616.2</ele>
        <time>2019-05-12T10:47:27Z</time>
      </trkpt>
      <trkpt lat="39.1444620" lon="-1.6737930">
        <ele>616.2</ele>
        <time>2019-05-12T10:47:28Z</time>
      </trkpt>
      <trkpt lat="39.1444040" lon="-1.6737610">
        <ele>616.2</ele>
        <time>2019-05-12T10:47:29Z</time>
      </trkpt>
      <trkpt lat="39.1443490" lon="-1.6737240">
        <ele>616.2</ele>
        <time>2019-05-12T10:47:30Z</time>
      </trkpt>
      <trkpt lat="39.1442960" lon="-1.6736920">
        <ele>616.2</ele>
        <time>2019-05-12T10:47:31Z</time>
      </trkpt>
      <trkpt lat="39.1442420" lon="-1.6736760">
        <ele>616.2</ele>
        <time>2019-05-12T10:47:32Z</time>
      </trkpt>
      <trkpt lat="39.1441850" lon="-1.6736740">
        <ele>616.4</ele>
        <time>2019-05-12T10:47:33Z</time>
      </trkpt>
      <trkpt lat="39.1441300" lon="-1.6736780">
        <ele>616.4</ele>
        <time>2019-05-12T10:47:34Z</time>
      </trkpt>
      <trkpt lat="39.1440750" lon="-1.6736840">
        <ele>616.4</ele>
        <time>2019-05-12T10:47:35Z</time>
      </trkpt>
      <trkpt lat="39.1440240" lon="-1.6736910">
        <ele>616.4</ele>
        <time>2019-05-12T10:47:36Z</time>
      </trkpt>
      <trkpt lat="39.1439740" lon="-1.6736960">
        <ele>616.4</ele>
        <time>2019-05-12T10:47:37Z</time>
      </trkpt>
      <trkpt lat="39.1439260" lon="-1.6736950">
        <ele>616.4</ele>
        <time>2019-05-12T10:47:38Z</time>
      </trkpt>
      <trkpt lat="39.1438810" lon="-1.6736910">
        <ele>616.4</ele>
        <time>2019-05-12T10:47:39Z</time>
      </trkpt>
      <trkpt lat="39.1438390" lon="-1.6736860">
        <ele>616.4</ele>
        <time>2019-05-12T10:47:40Z</time>
      </trkpt>
      <trkpt lat="39.1437960" lon="-1.6736780">
        <ele>616.6</ele>
        <time>2019-05-12T10:47:41Z</time>
      </trkpt>
      <trkpt lat="39.1437530" lon="-1.6736710">
        <ele>616.6</ele>
        <time>2019-05-12T10:47:42Z</time>
      </trkpt>
      <trkpt lat="39.1437070" lon="-1.6736640">
        <ele>617.2</ele>
        <time>2019-05-12T10:47:43Z</time>
      </trkpt>
      <trkpt lat="39.1436580" lon="-1.6736580">
        <ele>617.4</ele>
        <time>2019-05-12T10:47:44Z</time>
      </trkpt>
      <trkpt lat="39.1436080" lon="-1.6736530">
        <ele>617.6</ele>
        <time>2019-05-12T10:47:45Z</time>
      </trkpt>
      <trkpt lat="39.1435560" lon="-1.6736440">
        <ele>618.0</ele>
        <time>2019-05-12T10:47:46Z</time>
      </trkpt>
      <trkpt lat="39.1435010" lon="-1.6736330">
        <ele>618.0</ele>
        <time>2019-05-12T10:47:47Z</time>
      </trkpt>
      <trkpt lat="39.1434440" lon="-1.6736190">
        <ele>618.2</ele>
        <time>2019-05-12T10:47:48Z</time>
      </trkpt>
      <trkpt lat="39.1433880" lon="-1.6736000">
        <ele>618.2</ele>
        <time>2019-05-12T10:47:49Z</time>
      </trkpt>
      <trkpt lat="39.1433240" lon="-1.6735990">
        <ele>618.2</ele>
        <time>2019-05-12T10:47:50Z</time>
      </trkpt>
      <trkpt lat="39.1432600" lon="-1.6735920">
        <ele>618.2</ele>
        <time>2019-05-12T10:47:51Z</time>
      </trkpt>
      <trkpt lat="39.1431920" lon="-1.6735900">
        <ele>618.2</ele>
        <time>2019-05-12T10:47:52Z</time>
      </trkpt>
      <trkpt lat="39.1431160" lon="-1.6735910">
        <ele>618.4</ele>
        <time>2019-05-12T10:47:53Z</time>
      </trkpt>
      <trkpt lat="39.1430360" lon="-1.6735940">
        <ele>618.4</ele>
        <time>2019-05-12T10:47:54Z</time>
      </trkpt>
      <trkpt lat="39.1429560" lon="-1.6735870">
        <ele>618.4</ele>
        <time>2019-05-12T10:47:55Z</time>
      </trkpt>
      <trkpt lat="39.1428850" lon="-1.6735660">
        <ele>618.4</ele>
        <time>2019-05-12T10:47:56Z</time>
      </trkpt>
      <trkpt lat="39.1428220" lon="-1.6735400">
        <ele>618.4</ele>
        <time>2019-05-12T10:47:57Z</time>
      </trkpt>
      <trkpt lat="39.1427610" lon="-1.6735160">
        <ele>618.4</ele>
        <time>2019-05-12T10:47:58Z</time>
      </trkpt>
      <trkpt lat="39.1427040" lon="-1.6734920">
        <ele>618.2</ele>
        <time>2019-05-12T10:47:59Z</time>
      </trkpt>
      <trkpt lat="39.1426480" lon="-1.6734780">
        <ele>618.0</ele>
        <time>2019-05-12T10:48:00Z</time>
      </trkpt>
      <trkpt lat="39.1425890" lon="-1.6734850">
        <ele>618.0</ele>
        <time>2019-05-12T10:48:01Z</time>
      </trkpt>
      <trkpt lat="39.1425340" lon="-1.6734880">
        <ele>618.0</ele>
        <time>2019-05-12T10:48:02Z</time>
      </trkpt>
      <trkpt lat="39.1424820" lon="-1.6734880">
        <ele>618.0</ele>
        <time>2019-05-12T10:48:03Z</time>
      </trkpt>
      <trkpt lat="39.1424290" lon="-1.6734930">
        <ele>618.0</ele>
        <time>2019-05-12T10:48:04Z</time>
      </trkpt>
      <trkpt lat="39.1423750" lon="-1.6734950">
        <ele>618.0</ele>
        <time>2019-05-12T10:48:05Z</time>
      </trkpt>
      <trkpt lat="39.1423210" lon="-1.6735020">
        <ele>618.0</ele>
        <time>2019-05-12T10:48:06Z</time>
      </trkpt>
      <trkpt lat="39.1422670" lon="-1.6735020">
        <ele>618.0</ele>
        <time>2019-05-12T10:48:07Z</time>
      </trkpt>
      <trkpt lat="39.1422130" lon="-1.6735000">
        <ele>618.0</ele>
        <time>2019-05-12T10:48:08Z</time>
      </trkpt>
      <trkpt lat="39.1421580" lon="-1.6735050">
        <ele>618.0</ele>
        <time>2019-05-12T10:48:09Z</time>
      </trkpt>
      <trkpt lat="39.1420960" lon="-1.6735090">
        <ele>618.2</ele>
        <time>2019-05-12T10:48:10Z</time>
      </trkpt>
      <trkpt lat="39.1420330" lon="-1.6735150">
        <ele>618.2</ele>
        <time>2019-05-12T10:48:11Z</time>
      </trkpt>
      <trkpt lat="39.1419780" lon="-1.6735220">
        <ele>618.2</ele>
        <time>2019-05-12T10:48:12Z</time>
      </trkpt>
      <trkpt lat="39.1419430" lon="-1.6735470">
        <ele>618.2</ele>
        <time>2019-05-12T10:48:13Z</time>
      </trkpt>
      <trkpt lat="39.1419320" lon="-1.6735910">
        <ele>618.2</ele>
        <time>2019-05-12T10:48:14Z</time>
      </trkpt>
      <trkpt lat="39.1419450" lon="-1.6736530">
        <ele>618.2</ele>
        <time>2019-05-12T10:48:15Z</time>
      </trkpt>
      <trkpt lat="39.1419710" lon="-1.6737230">
        <ele>618.2</ele>
        <time>2019-05-12T10:48:16Z</time>
      </trkpt>
      <trkpt lat="39.1419940" lon="-1.6738000">
        <ele>618.2</ele>
        <time>2019-05-12T10:48:17Z</time>
      </trkpt>
      <trkpt lat="39.1420090" lon="-1.6738890">
        <ele>618.2</ele>
        <time>2019-05-12T10:48:18Z</time>
      </trkpt>
      <trkpt lat="39.1420110" lon="-1.6739860">
        <ele>617.8</ele>
        <time>2019-05-12T10:48:19Z</time>
      </trkpt>
      <trkpt lat="39.1420030" lon="-1.6740850">
        <ele>617.2</ele>
        <time>2019-05-12T10:48:20Z</time>
      </trkpt>
      <trkpt lat="39.1419930" lon="-1.6741850">
        <ele>616.6</ele>
        <time>2019-05-12T10:48:21Z</time>
      </trkpt>
      <trkpt lat="39.1419790" lon="-1.6742800">
        <ele>616.0</ele>
        <time>2019-05-12T10:48:22Z</time>
      </trkpt>
      <trkpt lat="39.1419500" lon="-1.6743690">
        <ele>615.6</ele>
        <time>2019-05-12T10:48:23Z</time>
      </trkpt>
      <trkpt lat="39.1419060" lon="-1.6744430">
        <ele>615.2</ele>
        <time>2019-05-12T10:48:24Z</time>
      </trkpt>
      <trkpt lat="39.1418500" lon="-1.6744920">
        <ele>615.0</ele>
        <time>2019-05-12T10:48:25Z</time>
      </trkpt>
      <trkpt lat="39.1417830" lon="-1.6745130">
        <ele>614.8</ele>
        <time>2019-05-12T10:48:26Z</time>
      </trkpt>
      <trkpt lat="39.1417150" lon="-1.6745110">
        <ele>614.4</ele>
        <time>2019-05-12T10:48:27Z</time>
      </trkpt>
      <trkpt lat="39.1416460" lon="-1.6745020">
        <ele>613.8</ele>
        <time>2019-05-12T10:48:28Z</time>
      </trkpt>
      <trkpt lat="39.1415810" lon="-1.6744860">
        <ele>613.6</ele>
        <time>2019-05-12T10:48:29Z</time>
      </trkpt>
      <trkpt lat="39.1415170" lon="-1.6744650">
        <ele>613.2</ele>
        <time>2019-05-12T10:48:30Z</time>
      </trkpt>
      <trkpt lat="39.1414580" lon="-1.6744410">
        <ele>613.0</ele>
        <time>2019-05-12T10:48:31Z</time>
      </trkpt>
      <trkpt lat="39.1413990" lon="-1.6744190">
        <ele>612.8</ele>
        <time>2019-05-12T10:48:32Z</time>
      </trkpt>
      <trkpt lat="39.1413420" lon="-1.6743980">
        <ele>612.4</ele>
        <time>2019-05-12T10:48:33Z</time>
      </trkpt>
      <trkpt lat="39.1412850" lon="-1.6743790">
        <ele>612.2</ele>
        <time>2019-05-12T10:48:34Z</time>
      </trkpt>
      <trkpt lat="39.1412300" lon="-1.6743620">
        <ele>612.0</ele>
        <time>2019-05-12T10:48:35Z</time>
      </trkpt>
      <trkpt lat="39.1411760" lon="-1.6743460">
        <ele>612.0</ele>
        <time>2019-05-12T10:48:36Z</time>
      </trkpt>
      <trkpt lat="39.1411230" lon="-1.6743310">
        <ele>611.8</ele>
        <time>2019-05-12T10:48:37Z</time>
      </trkpt>
      <trkpt lat="39.1410710" lon="-1.6743160">
        <ele>611.8</ele>
        <time>2019-05-12T10:48:38Z</time>
      </trkpt>
      <trkpt lat="39.1410210" lon="-1.6743020">
        <ele>611.8</ele>
        <time>2019-05-12T10:48:39Z</time>
      </trkpt>
      <trkpt lat="39.1409720" lon="-1.6742890">
        <ele>611.8</ele>
        <time>2019-05-12T10:48:40Z</time>
      </trkpt>
      <trkpt lat="39.1409220" lon="-1.6742790">
        <ele>611.8</ele>
        <time>2019-05-12T10:48:41Z</time>
      </trkpt>
      <trkpt lat="39.1408710" lon="-1.6742740">
        <ele>611.8</ele>
        <time>2019-05-12T10:48:42Z</time>
      </trkpt>
      <trkpt lat="39.1408230" lon="-1.6742760">
        <ele>611.8</ele>
        <time>2019-05-12T10:48:43Z</time>
      </trkpt>
      <trkpt lat="39.1407760" lon="-1.6742880">
        <ele>612.0</ele>
        <time>2019-05-12T10:48:44Z</time>
      </trkpt>
      <trkpt lat="39.1407300" lon="-1.6743010">
        <ele>612.0</ele>
        <time>2019-05-12T10:48:45Z</time>
      </trkpt>
      <trkpt lat="39.1406880" lon="-1.6743180">
        <ele>612.2</ele>
        <time>2019-05-12T10:48:46Z</time>
      </trkpt>
      <trkpt lat="39.1406490" lon="-1.6743410">
        <ele>612.6</ele>
        <time>2019-05-12T10:48:47Z</time>
      </trkpt>
      <trkpt lat="39.1406140" lon="-1.6743710">
        <ele>612.4</ele>
        <time>2019-05-12T10:48:48Z</time>
      </trkpt>
      <trkpt lat="39.1405820" lon="-1.6744010">
        <ele>612.8</ele>
        <time>2019-05-12T10:48:49Z</time>
      </trkpt>
      <trkpt lat="39.1405520" lon="-1.6744360">
        <ele>613.0</ele>
        <time>2019-05-12T10:48:50Z</time>
      </trkpt>
      <trkpt lat="39.1405220" lon="-1.6744720">
        <ele>613.0</ele>
        <time>2019-05-12T10:48:51Z</time>
      </trkpt>
      <trkpt lat="39.1404930" lon="-1.6745080">
        <ele>613.4</ele>
        <time>2019-05-12T10:48:52Z</time>
      </trkpt>
      <trkpt lat="39.1404630" lon="-1.6745430">
        <ele>613.6</ele>
        <time>2019-05-12T10:48:53Z</time>
      </trkpt>
      <trkpt lat="39.1404320" lon="-1.6745760">
        <ele>613.8</ele>
        <time>2019-05-12T10:48:54Z</time>
      </trkpt>
      <trkpt lat="39.1403990" lon="-1.6746040">
        <ele>614.0</ele>
        <time>2019-05-12T10:48:55Z</time>
      </trkpt>
      <trkpt lat="39.1403630" lon="-1.6746250">
        <ele>614.2</ele>
        <time>2019-05-12T10:48:56Z</time>
      </trkpt>
      <trkpt lat="39.1403260" lon="-1.6746400">
        <ele>614.6</ele>
        <time>2019-05-12T10:48:57Z</time>
      </trkpt>
      <trkpt lat="39.1402890" lon="-1.6746510">
        <ele>615.0</ele>
        <time>2019-05-12T10:48:58Z</time>
      </trkpt>
      <trkpt lat="39.1402530" lon="-1.6746620">
        <ele>615.2</ele>
        <time>2019-05-12T10:48:59Z</time>
      </trkpt>
      <trkpt lat="39.1402170" lon="-1.6746730">
        <ele>615.4</ele>
        <time>2019-05-12T10:49:00Z</time>
      </trkpt>
      <trkpt lat="39.1401810" lon="-1.6746840">
        <ele>615.4</ele>
        <time>2019-05-12T10:49:01Z</time>
      </trkpt>
      <trkpt lat="39.1401450" lon="-1.6746950">
        <ele>615.6</ele>
        <time>2019-05-12T10:49:02Z</time>
      </trkpt>
      <trkpt lat="39.1401090" lon="-1.6747060">
        <ele>615.8</ele>
        <time>2019-05-12T10:49:03Z</time>
      </trkpt>
      <trkpt lat="39.1400730" lon="-1.6747170">
        <ele>616.0</ele>
        <time>2019-05-12T10:49:04Z</time>
      </trkpt>
      <trkpt lat="39.1400370" lon="-1.6747290">
        <ele>616.2</ele>
        <time>2019-05-12T10:49:05Z</time>
      </trkpt>
      <trkpt lat="39.1400000" lon="-1.6747400">
        <ele>616.4</ele>
        <time>2019-05-12T10:49:06Z</time>
      </trkpt>
      <trkpt lat="39.1399650" lon="-1.6747500">
        <ele>616.6</ele>
        <time>2019-05-12T10:49:07Z</time>
      </trkpt>
      <trkpt lat="39.1399290" lon="-1.6747590">
        <ele>617.0</ele>
        <time>2019-05-12T10:49:08Z</time>
      </trkpt>
      <trkpt lat="39.1398940" lon="-1.6747660">
        <ele>617.4</ele>
        <time>2019-05-12T10:49:09Z</time>
      </trkpt>
      <trkpt lat="39.1398580" lon="-1.6747730">
        <ele>617.6</ele>
        <time>2019-05-12T10:49:10Z</time>
      </trkpt>
      <trkpt lat="39.1398230" lon="-1.6747820">
        <ele>617.8</ele>
        <time>2019-05-12T10:49:11Z</time>
      </trkpt>
      <trkpt lat="39.1397870" lon="-1.6747900">
        <ele>618.2</ele>
        <time>2019-05-12T10:49:12Z</time>
      </trkpt>
      <trkpt lat="39.1397520" lon="-1.6747980">
        <ele>618.4</ele>
        <time>2019-05-12T10:49:13Z</time>
      </trkpt>
      <trkpt lat="39.1397200" lon="-1.6748030">
        <ele>618.6</ele>
        <time>2019-05-12T10:49:14Z</time>
      </trkpt>
      <trkpt lat="39.1396890" lon="-1.6748100">
        <ele>619.0</ele>
        <time>2019-05-12T10:49:15Z</time>
      </trkpt>
      <trkpt lat="39.1396590" lon="-1.6748160">
        <ele>619.2</ele>
        <time>2019-05-12T10:49:16Z</time>
      </trkpt>
      <trkpt lat="39.1396280" lon="-1.6748220">
        <ele>619.4</ele>
        <time>2019-05-12T10:49:17Z</time>
      </trkpt>
      <trkpt lat="39.1395970" lon="-1.6748270">
        <ele>619.6</ele>
        <time>2019-05-12T10:49:18Z</time>
      </trkpt>
      <trkpt lat="39.1395670" lon="-1.6748330">
        <ele>619.8</ele>
        <time>2019-05-12T10:49:19Z</time>
      </trkpt>
      <trkpt lat="39.1395380" lon="-1.6748390">
        <ele>620.0</ele>
        <time>2019-05-12T10:49:20Z</time>
      </trkpt>
      <trkpt lat="39.1395100" lon="-1.6748440">
        <ele>620.2</ele>
        <time>2019-05-12T10:49:21Z</time>
      </trkpt>
      <trkpt lat="39.1394850" lon="-1.6748490">
        <ele>620.6</ele>
        <time>2019-05-12T10:49:22Z</time>
      </trkpt>
      <trkpt lat="39.1394610" lon="-1.6748550">
        <ele>620.8</ele>
        <time>2019-05-12T10:49:23Z</time>
      </trkpt>
      <trkpt lat="39.1394380" lon="-1.6748620">
        <ele>621.2</ele>
        <time>2019-05-12T10:49:24Z</time>
      </trkpt>
      <trkpt lat="39.1394160" lon="-1.6748700">
        <ele>621.6</ele>
        <time>2019-05-12T10:49:25Z</time>
      </trkpt>
      <trkpt lat="39.1393960" lon="-1.6748800">
        <ele>622.0</ele>
        <time>2019-05-12T10:49:26Z</time>
      </trkpt>
      <trkpt lat="39.1393760" lon="-1.6748930">
        <ele>622.8</ele>
        <time>2019-05-12T10:49:27Z</time>
      </trkpt>
      <trkpt lat="39.1393570" lon="-1.6749050">
        <ele>623.2</ele>
        <time>2019-05-12T10:49:28Z</time>
      </trkpt>
      <trkpt lat="39.1393380" lon="-1.6749180">
        <ele>623.8</ele>
        <time>2019-05-12T10:49:29Z</time>
      </trkpt>
      <trkpt lat="39.1393200" lon="-1.6749350">
        <ele>624.2</ele>
        <time>2019-05-12T10:49:30Z</time>
      </trkpt>
      <trkpt lat="39.1393040" lon="-1.6749570">
        <ele>624.6</ele>
        <time>2019-05-12T10:49:31Z</time>
      </trkpt>
      <trkpt lat="39.1392890" lon="-1.6749810">
        <ele>625.2</ele>
        <time>2019-05-12T10:49:32Z</time>
      </trkpt>
      <trkpt lat="39.1392730" lon="-1.6750050">
        <ele>625.8</ele>
        <time>2019-05-12T10:49:33Z</time>
      </trkpt>
      <trkpt lat="39.1392580" lon="-1.6750300">
        <ele>626.2</ele>
        <time>2019-05-12T10:49:34Z</time>
      </trkpt>
      <trkpt lat="39.1392440" lon="-1.6750550">
        <ele>626.6</ele>
        <time>2019-05-12T10:49:35Z</time>
      </trkpt>
      <trkpt lat="39.1392320" lon="-1.6750830">
        <ele>627.0</ele>
        <time>2019-05-12T10:49:36Z</time>
      </trkpt>
      <trkpt lat="39.1392210" lon="-1.6751090">
        <ele>627.2</ele>
        <time>2019-05-12T10:49:37Z</time>
      </trkpt>
      <trkpt lat="39.1392090" lon="-1.6751320">
        <ele>627.6</ele>
        <time>2019-05-12T10:49:38Z</time>
      </trkpt>
      <trkpt lat="39.1391960" lon="-1.6751540">
        <ele>627.8</ele>
        <time>2019-05-12T10:49:39Z</time>
      </trkpt>
      <trkpt lat="39.1391820" lon="-1.6751750">
        <ele>628.0</ele>
        <time>2019-05-12T10:49:40Z</time>
      </trkpt>
      <trkpt lat="39.1391670" lon="-1.6751940">
        <ele>628.2</ele>
        <time>2019-05-12T10:49:41Z</time>
      </trkpt>
      <trkpt lat="39.1391510" lon="-1.6752140">
        <ele>628.6</ele>
        <time>2019-05-12T10:49:42Z</time>
      </trkpt>
      <trkpt lat="39.1391340" lon="-1.6752310">
        <ele>628.6</ele>
        <time>2019-05-12T10:49:43Z</time>
      </trkpt>
      <trkpt lat="39.1391150" lon="-1.6752420">
        <ele>629.0</ele>
        <time>2019-05-12T10:49:44Z</time>
      </trkpt>
      <trkpt lat="39.1390950" lon="-1.6752480">
        <ele>629.2</ele>
        <time>2019-05-12T10:49:45Z</time>
      </trkpt>
      <trkpt lat="39.1390740" lon="-1.6752530">
        <ele>629.4</ele>
        <time>2019-05-12T10:49:46Z</time>
      </trkpt>
      <trkpt lat="39.1390540" lon="-1.6752520">
        <ele>629.6</ele>
        <time>2019-05-12T10:49:47Z</time>
      </trkpt>
      <trkpt lat="39.1390350" lon="-1.6752470">
        <ele>630.0</ele>
        <time>2019-05-12T10:49:48Z</time>
      </trkpt>
      <trkpt lat="39.1390150" lon="-1.6752390">
        <ele>630.2</ele>
        <time>2019-05-12T10:49:49Z</time>
      </trkpt>
      <trkpt lat="39.1389970" lon="-1.6752320">
        <ele>630.4</ele>
        <time>2019-05-12T10:49:50Z</time>
      </trkpt>
      <trkpt lat="39.1389780" lon="-1.6752250">
        <ele>630.8</ele>
        <time>2019-05-12T10:49:51Z</time>
      </trkpt>
      <trkpt lat="39.1389590" lon="-1.6752180">
        <ele>631.0</ele>
        <time>2019-05-12T10:49:52Z</time>
      </trkpt>
      <trkpt lat="39.1389410" lon="-1.6752130">
        <ele>631.4</ele>
        <time>2019-05-12T10:49:53Z</time>
      </trkpt>
      <trkpt lat="39.1389220" lon="-1.6752090">
        <ele>631.8</ele>
        <time>2019-05-12T10:49:54Z</time>
      </trkpt>
      <trkpt lat="39.1389030" lon="-1.6752060">
        <ele>632.0</ele>
        <time>2019-05-12T10:49:55Z</time>
      </trkpt>
      <trkpt lat="39.1388840" lon="-1.6752020">
        <ele>632.4</ele>
        <time>2019-05-12T10:49:56Z</time>
      </trkpt>
      <trkpt lat="39.1388650" lon="-1.6751960">
        <ele>632.6</ele>
        <time>2019-05-12T10:49:57Z</time>
      </trkpt>
      <trkpt lat="39.1388460" lon="-1.6751910">
        <ele>632.8</ele>
        <time>2019-05-12T10:49:58Z</time>
      </trkpt>
      <trkpt lat="39.1388280" lon="-1.6751860">
        <ele>633.2</ele>
        <time>2019-05-12T10:49:59Z</time>
      </trkpt>
      <trkpt lat="39.1388110" lon="-1.6751810">
        <ele>633.4</ele>
        <time>2019-05-12T10:50:00Z</time>
      </trkpt>
      <trkpt lat="39.1387930" lon="-1.6751760">
        <ele>633.8</ele>
        <time>2019-05-12T10:50:01Z</time>
      </trkpt>
      <trkpt lat="39.1387760" lon="-1.6751710">
        <ele>634.2</ele>
        <time>2019-05-12T10:50:02Z</time>
      </trkpt>
      <trkpt lat="39.1387570" lon="-1.6751640">
        <ele>634.4</ele>
        <time>2019-05-12T10:50:03Z</time>
      </trkpt>
      <trkpt lat="39.1387380" lon="-1.6751590">
        <ele>634.6</ele>
        <time>2019-05-12T10:50:04Z</time>
      </trkpt>
      <trkpt lat="39.1387190" lon="-1.6751540">
        <ele>635.0</ele>
        <time>2019-05-12T10:50:05Z</time>
      </trkpt>
      <trkpt lat="39.1387010" lon="-1.6751490">
        <ele>635.2</ele>
        <time>2019-05-12T10:50:06Z</time>
      </trkpt>
      <trkpt lat="39.1386820" lon="-1.6751440">
        <ele>635.6</ele>
        <time>2019-05-12T10:50:07Z</time>
      </trkpt>
      <trkpt lat="39.1386640" lon="-1.6751350">
        <ele>635.8</ele>
        <time>2019-05-12T10:50:08Z</time>
      </trkpt>
      <trkpt lat="39.1386460" lon="-1.6751270">
        <ele>636.2</ele>
        <time>2019-05-12T10:50:09Z</time>
      </trkpt>
      <trkpt lat="39.1386290" lon="-1.6751200">
        <ele>636.4</ele>
        <time>2019-05-12T10:50:10Z</time>
      </trkpt>
      <trkpt lat="39.1386120" lon="-1.6751130">
        <ele>636.6</ele>
        <time>2019-05-12T10:50:11Z</time>
      </trkpt>
      <trkpt lat="39.1385950" lon="-1.6751070">
        <ele>637.0</ele>
        <time>2019-05-12T10:50:12Z</time>
      </trkpt>
      <trkpt lat="39.1385760" lon="-1.6751010">
        <ele>637.4</ele>
        <time>2019-05-12T10:50:13Z</time>
      </trkpt>
      <trkpt lat="39.1385580" lon="-1.6750960">
        <ele>637.6</ele>
        <time>2019-05-12T10:50:14Z</time>
      </trkpt>
      <trkpt lat="39.1385410" lon="-1.6750920">
        <ele>638.0</ele>
        <time>2019-05-12T10:50:15Z</time>
      </trkpt>
      <trkpt lat="39.1385240" lon="-1.6750870">
        <ele>638.2</ele>
        <time>2019-05-12T10:50:16Z</time>
      </trkpt>
      <trkpt lat="39.1385070" lon="-1.6750800">
        <ele>638.6</ele>
        <time>2019-05-12T10:50:17Z</time>
      </trkpt>
      <trkpt lat="39.1384930" lon="-1.6750710">
        <ele>638.8</ele>
        <time>2019-05-12T10:50:18Z</time>
      </trkpt>
      <trkpt lat="39.1384770" lon="-1.6750620">
        <ele>639.0</ele>
        <time>2019-05-12T10:50:19Z</time>
      </trkpt>
      <trkpt lat="39.1384620" lon="-1.6750520">
        <ele>639.2</ele>
        <time>2019-05-12T10:50:20Z</time>
      </trkpt>
      <trkpt lat="39.1384470" lon="-1.6750430">
        <ele>639.6</ele>
        <time>2019-05-12T10:50:21Z</time>
      </trkpt>
      <trkpt lat="39.1384300" lon="-1.6750380">
        <ele>639.8</ele>
        <time>2019-05-12T10:50:22Z</time>
      </trkpt>
      <trkpt lat="39.1384130" lon="-1.6750340">
        <ele>640.2</ele>
        <time>2019-05-12T10:50:23Z</time>
      </trkpt>
      <trkpt lat="39.1383960" lon="-1.6750290">
        <ele>640.6</ele>
        <time>2019-05-12T10:50:24Z</time>
      </trkpt>
      <trkpt lat="39.1383770" lon="-1.6750280">
        <ele>640.8</ele>
        <time>2019-05-12T10:50:25Z</time>
      </trkpt>
      <trkpt lat="39.1383610" lon="-1.6750240">
        <ele>641.2</ele>
        <time>2019-05-12T10:50:26Z</time>
      </trkpt>
      <trkpt lat="39.1383470" lon="-1.6750190">
        <ele>641.4</ele>
        <time>2019-05-12T10:50:27Z</time>
      </trkpt>
      <trkpt lat="39.1383320" lon="-1.6750190">
        <ele>641.6</ele>
        <time>2019-05-12T10:50:28Z</time>
      </trkpt>
      <trkpt lat="39.1383170" lon="-1.6750170">
        <ele>641.8</ele>
        <time>2019-05-12T10:50:29Z</time>
      </trkpt>
      <trkpt lat="39.1383020" lon="-1.6750140">
        <ele>642.0</ele>
        <time>2019-05-12T10:50:30Z</time>
      </trkpt>
      <trkpt lat="39.1382850" lon="-1.6750100">
        <ele>642.2</ele>
        <time>2019-05-12T10:50:31Z</time>
      </trkpt>
      <trkpt lat="39.1382670" lon="-1.6750040">
        <ele>642.6</ele>
        <time>2019-05-12T10:50:32Z</time>
      </trkpt>
      <trkpt lat="39.1382470" lon="-1.6750000">
        <ele>642.8</ele>
        <time>2019-05-12T10:50:33Z</time>
      </trkpt>
      <trkpt lat="39.1382310" lon="-1.6749950">
        <ele>643.0</ele>
        <time>2019-05-12T10:50:34Z</time>
      </trkpt>
      <trkpt lat="39.1382150" lon="-1.6749880">
        <ele>643.4</ele>
        <time>2019-05-12T10:50:35Z</time>
      </trkpt>
      <trkpt lat="39.1381970" lon="-1.6749830">
        <ele>644.2</ele>
        <time>2019-05-12T10:50:36Z</time>
      </trkpt>
      <trkpt lat="39.1381750" lon="-1.6749820">
        <ele>644.4</ele>
        <time>2019-05-12T10:50:37Z</time>
      </trkpt>
      <trkpt lat="39.1381560" lon="-1.6749820">
        <ele>644.8</ele>
        <time>2019-05-12T10:50:38Z</time>
      </trkpt>
      <trkpt lat="39.1381350" lon="-1.6749800">
        <ele>645.0</ele>
        <time>2019-05-12T10:50:39Z</time>
      </trkpt>
      <trkpt lat="39.1381140" lon="-1.6749800">
        <ele>645.4</ele>
        <time>2019-05-12T10:50:40Z</time>
      </trkpt>
      <trkpt lat="39.1380920" lon="-1.6749810">
        <ele>645.8</ele>
        <time>2019-05-12T10:50:41Z</time>
      </trkpt>
      <trkpt lat="39.1380690" lon="-1.6749780">
        <ele>646.2</ele>
        <time>2019-05-12T10:50:42Z</time>
      </trkpt>
      <trkpt lat="39.1380470" lon="-1.6749730">
        <ele>646.6</ele>
        <time>2019-05-12T10:50:43Z</time>
      </trkpt>
      <trkpt lat="39.1380240" lon="-1.6749680">
        <ele>646.8</ele>
        <time>2019-05-12T10:50:44Z</time>
      </trkpt>
      <trkpt lat="39.1380020" lon="-1.6749670">
        <ele>647.2</ele>
        <time>2019-05-12T10:50:45Z</time>
      </trkpt>
      <trkpt lat="39.1379780" lon="-1.6749640">
        <ele>647.4</ele>
        <time>2019-05-12T10:50:46Z</time>
      </trkpt>
      <trkpt lat="39.1379550" lon="-1.6749590">
        <ele>647.8</ele>
        <time>2019-05-12T10:50:47Z</time>
      </trkpt>
      <trkpt lat="39.1379320" lon="-1.6749550">
        <ele>647.8</ele>
        <time>2019-05-12T10:50:48Z</time>
      </trkpt>
      <trkpt lat="39.1379080" lon="-1.6749560">
        <ele>648.0</ele>
        <time>2019-05-12T10:50:49Z</time>
      </trkpt>
      <trkpt lat="39.1378850" lon="-1.6749610">
        <ele>648.4</ele>
        <time>2019-05-12T10:50:50Z</time>
      </trkpt>
      <trkpt lat="39.1378620" lon="-1.6749660">
        <ele>648.6</ele>
        <time>2019-05-12T10:50:51Z</time>
      </trkpt>
      <trkpt lat="39.1378390" lon="-1.6749720">
        <ele>648.8</ele>
        <time>2019-05-12T10:50:52Z</time>
      </trkpt>
      <trkpt lat="39.1378170" lon="-1.6749770">
        <ele>649.0</ele>
        <time>2019-05-12T10:50:53Z</time>
      </trkpt>
      <trkpt lat="39.1377950" lon="-1.6749830">
        <ele>649.2</ele>
        <time>2019-05-12T10:50:54Z</time>
      </trkpt>
      <trkpt lat="39.1377740" lon="-1.6749880">
        <ele>649.4</ele>
        <time>2019-05-12T10:50:55Z</time>
      </trkpt>
      <trkpt lat="39.1377530" lon="-1.6749970">
        <ele>649.6</ele>
        <time>2019-05-12T10:50:56Z</time>
      </trkpt>
      <trkpt lat="39.1377320" lon="-1.6750070">
        <ele>649.8</ele>
        <time>2019-05-12T10:50:57Z</time>
      </trkpt>
      <trkpt lat="39.1377120" lon="-1.6750170">
        <ele>650.0</ele>
        <time>2019-05-12T10:50:58Z</time>
      </trkpt>
      <trkpt lat="39.1376920" lon="-1.6750270">
        <ele>650.2</ele>
        <time>2019-05-12T10:50:59Z</time>
      </trkpt>
      <trkpt lat="39.1376710" lon="-1.6750350">
        <ele>650.4</ele>
        <time>2019-05-12T10:51:00Z</time>
      </trkpt>
      <trkpt lat="39.1376490" lon="-1.6750430">
        <ele>650.8</ele>
        <time>2019-05-12T10:51:01Z</time>
      </trkpt>
      <trkpt lat="39.1376290" lon="-1.6750510">
        <ele>651.0</ele>
        <time>2019-05-12T10:51:02Z</time>
      </trkpt>
      <trkpt lat="39.1376080" lon="-1.6750580">
        <ele>651.2</ele>
        <time>2019-05-12T10:51:03Z</time>
      </trkpt>
      <trkpt lat="39.1375850" lon="-1.6750620">
        <ele>651.6</ele>
        <time>2019-05-12T10:51:04Z</time>
      </trkpt>
      <trkpt lat="39.1375620" lon="-1.6750610">
        <ele>651.8</ele>
        <time>2019-05-12T10:51:05Z</time>
      </trkpt>
      <trkpt lat="39.1375400" lon="-1.6750590">
        <ele>652.0</ele>
        <time>2019-05-12T10:51:06Z</time>
      </trkpt>
      <trkpt lat="39.1375180" lon="-1.6750570">
        <ele>652.2</ele>
        <time>2019-05-12T10:51:07Z</time>
      </trkpt>
      <trkpt lat="39.1374960" lon="-1.6750560">
        <ele>652.4</ele>
        <time>2019-05-12T10:51:08Z</time>
      </trkpt>
      <trkpt lat="39.1374750" lon="-1.6750560">
        <ele>652.6</ele>
        <time>2019-05-12T10:51:09Z</time>
      </trkpt>
      <trkpt lat="39.1374540" lon="-1.6750550">
        <ele>652.6</ele>
        <time>2019-05-12T10:51:10Z</time>
      </trkpt>
      <trkpt lat="39.1374340" lon="-1.6750520">
        <ele>653.2</ele>
        <time>2019-05-12T10:51:11Z</time>
      </trkpt>
      <trkpt lat="39.1374130" lon="-1.6750510">
        <ele>653.4</ele>
        <time>2019-05-12T10:51:12Z</time>
      </trkpt>
      <trkpt lat="39.1373920" lon="-1.6750500">
        <ele>653.6</ele>
        <time>2019-05-12T10:51:13Z</time>
      </trkpt>
      <trkpt lat="39.1373710" lon="-1.6750470">
        <ele>653.8</ele>
        <time>2019-05-12T10:51:14Z</time>
      </trkpt>
      <trkpt lat="39.1373500" lon="-1.6750440">
        <ele>654.2</ele>
        <time>2019-05-12T10:51:15Z</time>
      </trkpt>
      <trkpt lat="39.1373280" lon="-1.6750400">
        <ele>654.6</ele>
        <time>2019-05-12T10:51:16Z</time>
      </trkpt>
      <trkpt lat="39.1373070" lon="-1.6750350">
        <ele>654.8</ele>
        <time>2019-05-12T10:51:17Z</time>
      </trkpt>
      <trkpt lat="39.1372860" lon="-1.6750300">
        <ele>655.2</ele>
        <time>2019-05-12T10:51:18Z</time>
      </trkpt>
      <trkpt lat="39.1372640" lon="-1.6750250">
        <ele>655.6</ele>
        <time>2019-05-12T10:51:19Z</time>
      </trkpt>
      <trkpt lat="39.1372410" lon="-1.6750190">
        <ele>656.0</ele>
        <time>2019-05-12T10:51:20Z</time>
      </trkpt>
      <trkpt lat="39.1372180" lon="-1.6750170">
        <ele>656.4</ele>
        <time>2019-05-12T10:51:21Z</time>
      </trkpt>
      <trkpt lat="39.1371950" lon="-1.6750130">
        <ele>656.8</ele>
        <time>2019-05-12T10:51:22Z</time>
      </trkpt>
      <trkpt lat="39.1371720" lon="-1.6750060">
        <ele>657.0</ele>
        <time>2019-05-12T10:51:23Z</time>
      </trkpt>
      <trkpt lat="39.1371500" lon="-1.6750020">
        <ele>657.4</ele>
        <time>2019-05-12T10:51:24Z</time>
      </trkpt>
      <trkpt lat="39.1371270" lon="-1.6749990">
        <ele>657.8</ele>
        <time>2019-05-12T10:51:25Z</time>
      </trkpt>
      <trkpt lat="39.1371040" lon="-1.6749920">
        <ele>658.0</ele>
        <time>2019-05-12T10:51:26Z</time>
      </trkpt>
      <trkpt lat="39.1370820" lon="-1.6749900">
        <ele>658.4</ele>
        <time>2019-05-12T10:51:27Z</time>
      </trkpt>
      <trkpt lat="39.1370590" lon="-1.6749880">
        <ele>658.6</ele>
        <time>2019-05-12T10:51:28Z</time>
      </trkpt>
      <trkpt lat="39.1370370" lon="-1.6749870">
        <ele>659.0</ele>
        <time>2019-05-12T10:51:29Z</time>
      </trkpt>
      <trkpt lat="39.1370150" lon="-1.6749840">
        <ele>659.2</ele>
        <time>2019-05-12T10:51:30Z</time>
      </trkpt>
      <trkpt lat="39.1369920" lon="-1.6749800">
        <ele>659.6</ele>
        <time>2019-05-12T10:51:31Z</time>
      </trkpt>
      <trkpt lat="39.1369690" lon="-1.6749780">
        <ele>659.8</ele>
        <time>2019-05-12T10:51:32Z</time>
      </trkpt>
      <trkpt lat="39.1369450" lon="-1.6749720">
        <ele>660.2</ele>
        <time>2019-05-12T10:51:33Z</time>
      </trkpt>
      <trkpt lat="39.1369210" lon="-1.6749680">
        <ele>660.4</ele>
        <time>2019-05-12T10:51:34Z</time>
      </trkpt>
      <trkpt lat="39.1368960" lon="-1.6749680">
        <ele>660.8</ele>
        <time>2019-05-12T10:51:35Z</time>
      </trkpt>
      <trkpt lat="39.1368700" lon="-1.6749680">
        <ele>661.0</ele>
        <time>2019-05-12T10:51:36Z</time>
      </trkpt>
      <trkpt lat="39.1368460" lon="-1.6749630">
        <ele>661.4</ele>
        <time>2019-05-12T10:51:37Z</time>
      </trkpt>
      <trkpt lat="39.1368220" lon="-1.6749560">
        <ele>661.8</ele>
        <time>2019-05-12T10:51:38Z</time>
      </trkpt>
      <trkpt lat="39.1367970" lon="-1.6749500">
        <ele>662.2</ele>
        <time>2019-05-12T10:51:39Z</time>
      </trkpt>
      <trkpt lat="39.1367730" lon="-1.6749440">
        <ele>662.6</ele>
        <time>2019-05-12T10:51:40Z</time>
      </trkpt>
      <trkpt lat="39.1367490" lon="-1.6749360">
        <ele>663.0</ele>
        <time>2019-05-12T10:51:41Z</time>
      </trkpt>
      <trkpt lat="39.1367260" lon="-1.6749320">
        <ele>663.2</ele>
        <time>2019-05-12T10:51:42Z</time>
      </trkpt>
      <trkpt lat="39.1367020" lon="-1.6749270">
        <ele>663.6</ele>
        <time>2019-05-12T10:51:43Z</time>
      </trkpt>
      <trkpt lat="39.1366790" lon="-1.6749210">
        <ele>663.8</ele>
        <time>2019-05-12T10:51:44Z</time>
      </trkpt>
      <trkpt lat="39.1366550" lon="-1.6749110">
        <ele>664.2</ele>
        <time>2019-05-12T10:51:45Z</time>
      </trkpt>
      <trkpt lat="39.1366320" lon="-1.6749000">
        <ele>664.8</ele>
        <time>2019-05-12T10:51:46Z</time>
      </trkpt>
      <trkpt lat="39.1366090" lon="-1.6748910">
        <ele>665.2</ele>
        <time>2019-05-12T10:51:47Z</time>
      </trkpt>
      <trkpt lat="39.1365860" lon="-1.6748800">
        <ele>665.4</ele>
        <time>2019-05-12T10:51:48Z</time>
      </trkpt>
      <trkpt lat="39.1365630" lon="-1.6748670">
        <ele>665.8</ele>
        <time>2019-05-12T10:51:49Z</time>
      </trkpt>
      <trkpt lat="39.1365390" lon="-1.6748550">
        <ele>666.2</ele>
        <time>2019-05-12T10:51:50Z</time>
      </trkpt>
      <trkpt lat="39.1365140" lon="-1.6748450">
        <ele>666.6</ele>
        <time>2019-05-12T10:51:51Z</time>
      </trkpt>
      <trkpt lat="39.1364890" lon="-1.6748330">
        <ele>666.8</ele>
        <time>2019-05-12T10:51:52Z</time>
      </trkpt>
      <trkpt lat="39.1364610" lon="-1.6748210">
        <ele>667.4</ele>
        <time>2019-05-12T10:51:53Z</time>
      </trkpt>
      <trkpt lat="39.1364340" lon="-1.6748110">
        <ele>667.8</ele>
        <time>2019-05-12T10:51:54Z</time>
      </trkpt>
      <trkpt lat="39.1364100" lon="-1.6748010">
        <ele>668.2</ele>
        <time>2019-05-12T10:51:55Z</time>
      </trkpt>
      <trkpt lat="39.1363890" lon="-1.6747880">
        <ele>668.6</ele>
        <time>2019-05-12T10:51:56Z</time>
      </trkpt>
      <trkpt lat="39.1363630" lon="-1.6747730">
        <ele>669.0</ele>
        <time>2019-05-12T10:51:57Z</time>
      </trkpt>
      <trkpt lat="39.1363380" lon="-1.6747610">
        <ele>669.4</ele>
        <time>2019-05-12T10:51:58Z</time>
      </trkpt>
      <trkpt lat="39.1363140" lon="-1.6747520">
        <ele>669.8</ele>
        <time>2019-05-12T10:51:59Z</time>
      </trkpt>
      <trkpt lat="39.1362920" lon="-1.6747410">
        <ele>670.2</ele>
        <time>2019-05-12T10:52:00Z</time>
      </trkpt>
      <trkpt lat="39.1362670" lon="-1.6747290">
        <ele>670.6</ele>
        <time>2019-05-12T10:52:01Z</time>
      </trkpt>
      <trkpt lat="39.1362380" lon="-1.6747190">
        <ele>670.8</ele>
        <time>2019-05-12T10:52:02Z</time>
      </trkpt>
      <trkpt lat="39.1362100" lon="-1.6747120">
        <ele>671.2</ele>
        <time>2019-05-12T10:52:03Z</time>
      </trkpt>
      <trkpt lat="39.1361820" lon="-1.6747020">
        <ele>671.4</ele>
        <time>2019-05-12T10:52:04Z</time>
      </trkpt>
      <trkpt lat="39.1361510" lon="-1.6746960">
        <ele>671.6</ele>
        <time>2019-05-12T10:52:05Z</time>
      </trkpt>
      <trkpt lat="39.1361200" lon="-1.6746830">
        <ele>671.8</ele>
        <time>2019-05-12T10:52:06Z</time>
      </trkpt>
      <trkpt lat="39.1360890" lon="-1.6746690">
        <ele>672.0</ele>
        <time>2019-05-12T10:52:07Z</time>
      </trkpt>
      <trkpt lat="39.1360570" lon="-1.6746570">
        <ele>672.2</ele>
        <time>2019-05-12T10:52:08Z</time>
      </trkpt>
      <trkpt lat="39.1360220" lon="-1.6746450">
        <ele>672.4</ele>
        <time>2019-05-12T10:52:09Z</time>
      </trkpt>
      <trkpt lat="39.1359850" lon="-1.6746340">
        <ele>672.6</ele>
        <time>2019-05-12T10:52:10Z</time>
      </trkpt>
      <trkpt lat="39.1359460" lon="-1.6746260">
        <ele>673.0</ele>
        <time>2019-05-12T10:52:11Z</time>
      </trkpt>
      <trkpt lat="39.1359040" lon="-1.6746200">
        <ele>673.2</ele>
        <time>2019-05-12T10:52:12Z</time>
      </trkpt>
      <trkpt lat="39.1358630" lon="-1.6746100">
        <ele>673.4</ele>
        <time>2019-05-12T10:52:13Z</time>
      </trkpt>
      <trkpt lat="39.1358200" lon="-1.6745980">
        <ele>673.6</ele>
        <time>2019-05-12T10:52:14Z</time>
      </trkpt>
      <trkpt lat="39.1357760" lon="-1.6745860">
        <ele>673.6</ele>
        <time>2019-05-12T10:52:15Z</time>
      </trkpt>
      <trkpt lat="39.1357310" lon="-1.6745730">
        <ele>673.8</ele>
        <time>2019-05-12T10:52:16Z</time>
      </trkpt>
      <trkpt lat="39.1356860" lon="-1.6745600">
        <ele>673.8</ele>
        <time>2019-05-12T10:52:17Z</time>
      </trkpt>
      <trkpt lat="39.1356390" lon="-1.6745490">
        <ele>673.8</ele>
        <time>2019-05-12T10:52:18Z</time>
      </trkpt>
      <trkpt lat="39.1355930" lon="-1.6745400">
        <ele>674.0</ele>
        <time>2019-05-12T10:52:19Z</time>
      </trkpt>
      <trkpt lat="39.1355470" lon="-1.6745280">
        <ele>674.0</ele>
        <time>2019-05-12T10:52:20Z</time>
      </trkpt>
      <trkpt lat="39.1355020" lon="-1.6745170">
        <ele>674.2</ele>
        <time>2019-05-12T10:52:21Z</time>
      </trkpt>
      <trkpt lat="39.1354570" lon="-1.6745000">
        <ele>674.4</ele>
        <time>2019-05-12T10:52:22Z</time>
      </trkpt>
      <trkpt lat="39.1354120" lon="-1.6744790">
        <ele>674.4</ele>
        <time>2019-05-12T10:52:23Z</time>
      </trkpt>
      <trkpt lat="39.1353660" lon="-1.6744580">
        <ele>674.6</ele>
        <time>2019-05-12T10:52:24Z</time>
      </trkpt>
      <trkpt lat="39.1353190" lon="-1.6744420">
        <ele>674.6</ele>
        <time>2019-05-12T10:52:25Z</time>
      </trkpt>
      <trkpt lat="39.1352720" lon="-1.6744250">
        <ele>674.6</ele>
        <time>2019-05-12T10:52:26Z</time>
      </trkpt>
      <trkpt lat="39.1352230" lon="-1.6744100">
        <ele>674.6</ele>
        <time>2019-05-12T10:52:27Z</time>
      </trkpt>
      <trkpt lat="39.1351730" lon="-1.6743940">
        <ele>674.8</ele>
        <time>2019-05-12T10:52:28Z</time>
      </trkpt>
      <trkpt lat="39.1351240" lon="-1.6743820">
        <ele>674.8</ele>
        <time>2019-05-12T10:52:29Z</time>
      </trkpt>
      <trkpt lat="39.1350730" lon="-1.6743670">
        <ele>674.8</ele>
        <time>2019-05-12T10:52:30Z</time>
      </trkpt>
      <trkpt lat="39.1350230" lon="-1.6743510">
        <ele>674.8</ele>
        <time>2019-05-12T10:52:31Z</time>
      </trkpt>
      <trkpt lat="39.1349720" lon="-1.6743330">
        <ele>674.8</ele>
        <time>2019-05-12T10:52:32Z</time>
      </trkpt>
      <trkpt lat="39.1349210" lon="-1.6743150">
        <ele>675.0</ele>
        <time>2019-05-12T10:52:33Z</time>
      </trkpt>
      <trkpt lat="39.1348710" lon="-1.6743010">
        <ele>675.0</ele>
        <time>2019-05-12T10:52:34Z</time>
      </trkpt>
      <trkpt lat="39.1348210" lon="-1.6742840">
        <ele>675.2</ele>
        <time>2019-05-12T10:52:35Z</time>
      </trkpt>
      <trkpt lat="39.1347710" lon="-1.6742670">
        <ele>675.2</ele>
        <time>2019-05-12T10:52:36Z</time>
      </trkpt>
      <trkpt lat="39.1347220" lon="-1.6742470">
        <ele>675.2</ele>
        <time>2019-05-12T10:52:37Z</time>
      </trkpt>
      <trkpt lat="39.1346720" lon="-1.6742270">
        <ele>675.4</ele>
        <time>2019-05-12T10:52:38Z</time>
      </trkpt>
      <trkpt lat="39.1346240" lon="-1.6742020">
        <ele>675.4</ele>
        <time>2019-05-12T10:52:39Z</time>
      </trkpt>
      <trkpt lat="39.1345770" lon="-1.6741740">
        <ele>675.6</ele>
        <time>2019-05-12T10:52:40Z</time>
      </trkpt>
      <trkpt lat="39.1345310" lon="-1.6741410">
        <ele>675.6</ele>
        <time>2019-05-12T10:52:41Z</time>
      </trkpt>
      <trkpt lat="39.1344850" lon="-1.6741090">
        <ele>675.8</ele>
        <time>2019-05-12T10:52:42Z</time>
      </trkpt>
      <trkpt lat="39.1344390" lon="-1.6740760">
        <ele>676.0</ele>
        <time>2019-05-12T10:52:43Z</time>
      </trkpt>
      <trkpt lat="39.1343950" lon="-1.6740440">
        <ele>676.0</ele>
        <time>2019-05-12T10:52:44Z</time>
      </trkpt>
      <trkpt lat="39.1343490" lon="-1.6740110">
        <ele>676.2</ele>
        <time>2019-05-12T10:52:45Z</time>
      </trkpt>
      <trkpt lat="39.1343010" lon="-1.6739780">
        <ele>676.2</ele>
        <time>2019-05-12T10:52:46Z</time>
      </trkpt>
      <trkpt lat="39.1342480" lon="-1.6739450">
        <ele>676.4</ele>
        <time>2019-05-12T10:52:47Z</time>
      </trkpt>
      <trkpt lat="39.1341910" lon="-1.6739070">
        <ele>676.4</ele>
        <time>2019-05-12T10:52:48Z</time>
      </trkpt>
      <trkpt lat="39.1341300" lon="-1.6738740">
        <ele>676.6</ele>
        <time>2019-05-12T10:52:49Z</time>
      </trkpt>
      <trkpt lat="39.1340710" lon="-1.6738410">
        <ele>676.6</ele>
        <time>2019-05-12T10:52:50Z</time>
      </trkpt>
      <trkpt lat="39.1340060" lon="-1.6738020">
        <ele>676.8</ele>
        <time>2019-05-12T10:52:51Z</time>
      </trkpt>
      <trkpt lat="39.1339380" lon="-1.6737640">
        <ele>676.8</ele>
        <time>2019-05-12T10:52:52Z</time>
      </trkpt>
      <trkpt lat="39.1338730" lon="-1.6737270">
        <ele>676.8</ele>
        <time>2019-05-12T10:52:53Z</time>
      </trkpt>
      <trkpt lat="39.1338070" lon="-1.6736940">
        <ele>677.0</ele>
        <time>2019-05-12T10:52:54Z</time>
      </trkpt>
      <trkpt lat="39.1337420" lon="-1.6736610">
        <ele>677.0</ele>
        <time>2019-05-12T10:52:55Z</time>
      </trkpt>
      <trkpt lat="39.1336760" lon="-1.6736250">
        <ele>677.0</ele>
        <time>2019-05-12T10:52:56Z</time>
      </trkpt>
      <trkpt lat="39.1336080" lon="-1.6735890">
        <ele>677.2</ele>
        <time>2019-05-12T10:52:57Z</time>
      </trkpt>
      <trkpt lat="39.1335390" lon="-1.6735510">
        <ele>677.2</ele>
        <time>2019-05-12T10:52:58Z</time>
      </trkpt>
      <trkpt lat="39.1334690" lon="-1.6735110">
        <ele>677.2</ele>
        <time>2019-05-12T10:52:59Z</time>
      </trkpt>
      <trkpt lat="39.1333960" lon="-1.6734690">
        <ele>677.4</ele>
        <time>2019-05-12T10:53:00Z</time>
      </trkpt>
      <trkpt lat="39.1333220" lon="-1.6734250">
        <ele>677.4</ele>
        <time>2019-05-12T10:53:01Z</time>
      </trkpt>
      <trkpt lat="39.1332460" lon="-1.6733810">
        <ele>677.4</ele>
        <time>2019-05-12T10:53:02Z</time>
      </trkpt>
      <trkpt lat="39.1331690" lon="-1.6733380">
        <ele>677.4</ele>
        <time>2019-05-12T10:53:03Z</time>
      </trkpt>
      <trkpt lat="39.1330890" lon="-1.6732960">
        <ele>677.4</ele>
        <time>2019-05-12T10:53:04Z</time>
      </trkpt>
      <trkpt lat="39.1330080" lon="-1.6732530">
        <ele>677.4</ele>
        <time>2019-05-12T10:53:05Z</time>
      </trkpt>
      <trkpt lat="39.1329240" lon="-1.6732060">
        <ele>677.4</ele>
        <time>2019-05-12T10:53:06Z</time>
      </trkpt>
      <trkpt lat="39.1328390" lon="-1.6731600">
        <ele>677.2</ele>
        <time>2019-05-12T10:53:07Z</time>
      </trkpt>
      <trkpt lat="39.1327530" lon="-1.6731120">
        <ele>677.2</ele>
        <time>2019-05-12T10:53:08Z</time>
      </trkpt>
      <trkpt lat="39.1326640" lon="-1.6730630">
        <ele>677.2</ele>
        <time>2019-05-12T10:53:09Z</time>
      </trkpt>
      <trkpt lat="39.1325720" lon="-1.6730140">
        <ele>677.2</ele>
        <time>2019-05-12T10:53:10Z</time>
      </trkpt>
      <trkpt lat="39.1324800" lon="-1.6729650">
        <ele>677.0</ele>
        <time>2019-05-12T10:53:11Z</time>
      </trkpt>
      <trkpt lat="39.1323860" lon="-1.6729150">
        <ele>676.6</ele>
        <time>2019-05-12T10:53:12Z</time>
      </trkpt>
      <trkpt lat="39.1322910" lon="-1.6728650">
        <ele>676.6</ele>
        <time>2019-05-12T10:53:13Z</time>
      </trkpt>
      <trkpt lat="39.1321960" lon="-1.6728120">
        <ele>676.4</ele>
        <time>2019-05-12T10:53:14Z</time>
      </trkpt>
      <trkpt lat="39.1321020" lon="-1.6727540">
        <ele>676.2</ele>
        <time>2019-05-12T10:53:15Z</time>
      </trkpt>
      <trkpt lat="39.1320100" lon="-1.6726920">
        <ele>675.8</ele>
        <time>2019-05-12T10:53:16Z</time>
      </trkpt>
      <trkpt lat="39.1319210" lon="-1.6726240">
        <ele>675.6</ele>
        <time>2019-05-12T10:53:17Z</time>
      </trkpt>
      <trkpt lat="39.1318330" lon="-1.6725530">
        <ele>675.6</ele>
        <time>2019-05-12T10:53:18Z</time>
      </trkpt>
      <trkpt lat="39.1317440" lon="-1.6724800">
        <ele>675.4</ele>
        <time>2019-05-12T10:53:19Z</time>
      </trkpt>
      <trkpt lat="39.1316570" lon="-1.6724070">
        <ele>675.4</ele>
        <time>2019-05-12T10:53:20Z</time>
      </trkpt>
    </trkseg>
  </trk>
</gpx>
